<?xml version="1.0" encoding="UTF-8"?>
<gpx version="1.1" creator="https://www.youtrack.es" xsi:schemaLocation="http://www.topografix.com/GPX/1/1 http://www.topografix.com/GPX/1/1/gpx.xsd http://www.garmin.com/xmlschemas/GpxExtensions/v3 http://www.garmin.com/xmlschemas/GpxExtensionsv3.xsd http://www.garmin.com/xmlschemas/TrackPointExtension/v1 http://www.garmin.com/xmlschemas/TrackPointExtensionv1.xsd" xmlns:gpxtpx="http://www.garmin.com/xmlschemas/TrackPointExtension/v1" xmlns:gpxx="http://www.garmin.com/xmlschemas/GpxExtensions/v3" xmlns:xsi="http://www.w3.org/2001/XMLSchema-instance">
  <metadata>
    <link href="https://www.youtrack.es">
      <text>YouTrack.es</text>
    </link>
    <time>2026-05-08T08:28:11Z</time>
  </metadata>
  <trk>
    <src>https://www.youtrack.es</src>
    <link href="https://www.youtrack.es/ruta/35255-transcordilleras">
      <text>YouTrack.es</text>
    </link>
    <trkseg>
      <trkpt lat="4.6544400" lon="-75.6764290">
        <ele>1803.2</ele>
        <time>2022-08-13T12:44:47Z</time>
      </trkpt>
      <trkpt lat="4.6544400" lon="-75.6764290">
        <ele>1816.0</ele>
        <time>2022-08-13T12:44:48Z</time>
      </trkpt>
      <trkpt lat="4.6544400" lon="-75.6764310">
        <ele>1815.8</ele>
        <time>2022-08-13T12:44:51Z</time>
      </trkpt>
      <trkpt lat="4.6544360" lon="-75.6764410">
        <ele>1815.8</ele>
        <time>2022-08-13T12:45:12Z</time>
      </trkpt>
      <trkpt lat="4.6544560" lon="-75.6764690">
        <ele>1815.6</ele>
        <time>2022-08-13T12:45:35Z</time>
      </trkpt>
      <trkpt lat="4.6544590" lon="-75.6764710">
        <ele>1815.8</ele>
        <time>2022-08-13T12:45:41Z</time>
      </trkpt>
      <trkpt lat="4.6544590" lon="-75.6764770">
        <ele>1815.8</ele>
        <time>2022-08-13T12:45:59Z</time>
      </trkpt>
      <trkpt lat="4.6544600" lon="-75.6764760">
        <ele>1815.8</ele>
        <time>2022-08-13T12:46:10Z</time>
      </trkpt>
      <trkpt lat="4.6544600" lon="-75.6764770">
        <ele>1815.8</ele>
        <time>2022-08-13T12:46:14Z</time>
      </trkpt>
      <trkpt lat="4.6544600" lon="-75.6764770">
        <ele>1815.8</ele>
        <time>2022-08-13T12:46:18Z</time>
      </trkpt>
      <trkpt lat="4.6544610" lon="-75.6764770">
        <ele>1815.8</ele>
        <time>2022-08-13T12:46:22Z</time>
      </trkpt>
      <trkpt lat="4.6544650" lon="-75.6764690">
        <ele>1815.8</ele>
        <time>2022-08-13T12:46:36Z</time>
      </trkpt>
      <trkpt lat="4.6544660" lon="-75.6764660">
        <ele>1815.8</ele>
        <time>2022-08-13T12:46:42Z</time>
      </trkpt>
      <trkpt lat="4.6544730" lon="-75.6764610">
        <ele>1815.6</ele>
        <time>2022-08-13T12:46:49Z</time>
      </trkpt>
      <trkpt lat="4.6544770" lon="-75.6764610">
        <ele>1815.6</ele>
        <time>2022-08-13T12:46:52Z</time>
      </trkpt>
      <trkpt lat="4.6544750" lon="-75.6764640">
        <ele>1815.6</ele>
        <time>2022-08-13T12:46:56Z</time>
      </trkpt>
      <trkpt lat="4.6544760" lon="-75.6764640">
        <ele>1815.6</ele>
        <time>2022-08-13T12:47:02Z</time>
      </trkpt>
      <trkpt lat="4.6544760" lon="-75.6764640">
        <ele>1815.6</ele>
        <time>2022-08-13T12:47:06Z</time>
      </trkpt>
      <trkpt lat="4.6544760" lon="-75.6764640">
        <ele>1815.6</ele>
        <time>2022-08-13T12:47:11Z</time>
      </trkpt>
      <trkpt lat="4.6544760" lon="-75.6764640">
        <ele>1815.6</ele>
        <time>2022-08-13T12:47:15Z</time>
      </trkpt>
      <trkpt lat="4.6544750" lon="-75.6764630">
        <ele>1815.6</ele>
        <time>2022-08-13T12:47:19Z</time>
      </trkpt>
      <trkpt lat="4.6544730" lon="-75.6764630">
        <ele>1815.6</ele>
        <time>2022-08-13T12:47:22Z</time>
      </trkpt>
      <trkpt lat="4.6544700" lon="-75.6764590">
        <ele>1815.6</ele>
        <time>2022-08-13T12:47:32Z</time>
      </trkpt>
      <trkpt lat="4.6544740" lon="-75.6764370">
        <ele>1815.6</ele>
        <time>2022-08-13T12:47:50Z</time>
      </trkpt>
      <trkpt lat="4.6544740" lon="-75.6764370">
        <ele>1815.6</ele>
        <time>2022-08-13T12:47:55Z</time>
      </trkpt>
      <trkpt lat="4.6544850" lon="-75.6764250">
        <ele>1815.6</ele>
        <time>2022-08-13T12:48:05Z</time>
      </trkpt>
      <trkpt lat="4.6544850" lon="-75.6764250">
        <ele>1815.6</ele>
        <time>2022-08-13T12:48:08Z</time>
      </trkpt>
      <trkpt lat="4.6544850" lon="-75.6764240">
        <ele>1815.4</ele>
        <time>2022-08-13T12:48:13Z</time>
      </trkpt>
      <trkpt lat="4.6544850" lon="-75.6764230">
        <ele>1815.4</ele>
        <time>2022-08-13T12:48:17Z</time>
      </trkpt>
      <trkpt lat="4.6544690" lon="-75.6764220">
        <ele>1815.4</ele>
        <time>2022-08-13T12:48:21Z</time>
      </trkpt>
      <trkpt lat="4.6544670" lon="-75.6764220">
        <ele>1815.4</ele>
        <time>2022-08-13T12:48:23Z</time>
      </trkpt>
      <trkpt lat="4.6544670" lon="-75.6764210">
        <ele>1815.4</ele>
        <time>2022-08-13T12:48:26Z</time>
      </trkpt>
      <trkpt lat="4.6544670" lon="-75.6764210">
        <ele>1815.4</ele>
        <time>2022-08-13T12:48:30Z</time>
      </trkpt>
      <trkpt lat="4.6544680" lon="-75.6764210">
        <ele>1815.4</ele>
        <time>2022-08-13T12:48:36Z</time>
      </trkpt>
      <trkpt lat="4.6544750" lon="-75.6764220">
        <ele>1815.6</ele>
        <time>2022-08-13T12:48:41Z</time>
      </trkpt>
      <trkpt lat="4.6544760" lon="-75.6764240">
        <ele>1815.4</ele>
        <time>2022-08-13T12:48:45Z</time>
      </trkpt>
      <trkpt lat="4.6544760" lon="-75.6764250">
        <ele>1815.4</ele>
        <time>2022-08-13T12:48:48Z</time>
      </trkpt>
      <trkpt lat="4.6544540" lon="-75.6764420">
        <ele>1815.4</ele>
        <time>2022-08-13T12:48:52Z</time>
      </trkpt>
      <trkpt lat="4.6544450" lon="-75.6764420">
        <ele>1815.4</ele>
        <time>2022-08-13T12:48:53Z</time>
      </trkpt>
      <trkpt lat="4.6544180" lon="-75.6764490">
        <ele>1815.4</ele>
        <time>2022-08-13T12:48:55Z</time>
      </trkpt>
      <trkpt lat="4.6543730" lon="-75.6764540">
        <ele>1815.6</ele>
        <time>2022-08-13T12:48:57Z</time>
      </trkpt>
      <trkpt lat="4.6543470" lon="-75.6764550">
        <ele>1815.6</ele>
        <time>2022-08-13T12:48:58Z</time>
      </trkpt>
      <trkpt lat="4.6543220" lon="-75.6764520">
        <ele>1815.6</ele>
        <time>2022-08-13T12:48:59Z</time>
      </trkpt>
      <trkpt lat="4.6542470" lon="-75.6764540">
        <ele>1815.6</ele>
        <time>2022-08-13T12:49:02Z</time>
      </trkpt>
      <trkpt lat="4.6541830" lon="-75.6764590">
        <ele>1815.6</ele>
        <time>2022-08-13T12:49:05Z</time>
      </trkpt>
      <trkpt lat="4.6541270" lon="-75.6764550">
        <ele>1816.0</ele>
        <time>2022-08-13T12:49:08Z</time>
      </trkpt>
      <trkpt lat="4.6540480" lon="-75.6764520">
        <ele>1817.0</ele>
        <time>2022-08-13T12:49:13Z</time>
      </trkpt>
      <trkpt lat="4.6539340" lon="-75.6764570">
        <ele>1817.6</ele>
        <time>2022-08-13T12:49:19Z</time>
      </trkpt>
      <trkpt lat="4.6539190" lon="-75.6764530">
        <ele>1817.8</ele>
        <time>2022-08-13T12:49:20Z</time>
      </trkpt>
      <trkpt lat="4.6538970" lon="-75.6764350">
        <ele>1818.2</ele>
        <time>2022-08-13T12:49:22Z</time>
      </trkpt>
      <trkpt lat="4.6538750" lon="-75.6764010">
        <ele>1818.8</ele>
        <time>2022-08-13T12:49:25Z</time>
      </trkpt>
      <trkpt lat="4.6538520" lon="-75.6763560">
        <ele>1819.2</ele>
        <time>2022-08-13T12:49:28Z</time>
      </trkpt>
      <trkpt lat="4.6538580" lon="-75.6763380">
        <ele>1819.4</ele>
        <time>2022-08-13T12:49:29Z</time>
      </trkpt>
      <trkpt lat="4.6538700" lon="-75.6763260">
        <ele>1819.6</ele>
        <time>2022-08-13T12:49:30Z</time>
      </trkpt>
      <trkpt lat="4.6539350" lon="-75.6762490">
        <ele>1820.4</ele>
        <time>2022-08-13T12:49:34Z</time>
      </trkpt>
      <trkpt lat="4.6539540" lon="-75.6762330">
        <ele>1820.6</ele>
        <time>2022-08-13T12:49:35Z</time>
      </trkpt>
      <trkpt lat="4.6539770" lon="-75.6762210">
        <ele>1820.8</ele>
        <time>2022-08-13T12:49:36Z</time>
      </trkpt>
      <trkpt lat="4.6540870" lon="-75.6761620">
        <ele>1821.4</ele>
        <time>2022-08-13T12:49:40Z</time>
      </trkpt>
      <trkpt lat="4.6541370" lon="-75.6761410">
        <ele>1821.6</ele>
        <time>2022-08-13T12:49:42Z</time>
      </trkpt>
      <trkpt lat="4.6542240" lon="-75.6761060">
        <ele>1822.0</ele>
        <time>2022-08-13T12:49:45Z</time>
      </trkpt>
      <trkpt lat="4.6543150" lon="-75.6760770">
        <ele>1823.0</ele>
        <time>2022-08-13T12:49:48Z</time>
      </trkpt>
      <trkpt lat="4.6543860" lon="-75.6760710">
        <ele>1823.4</ele>
        <time>2022-08-13T12:49:50Z</time>
      </trkpt>
      <trkpt lat="4.6544240" lon="-75.6760730">
        <ele>1823.4</ele>
        <time>2022-08-13T12:49:51Z</time>
      </trkpt>
      <trkpt lat="4.6545350" lon="-75.6760750">
        <ele>1824.0</ele>
        <time>2022-08-13T12:49:54Z</time>
      </trkpt>
      <trkpt lat="4.6546830" lon="-75.6760740">
        <ele>1825.2</ele>
        <time>2022-08-13T12:49:58Z</time>
      </trkpt>
      <trkpt lat="4.6547210" lon="-75.6760650">
        <ele>1825.4</ele>
        <time>2022-08-13T12:49:59Z</time>
      </trkpt>
      <trkpt lat="4.6548390" lon="-75.6760340">
        <ele>1826.2</ele>
        <time>2022-08-13T12:50:02Z</time>
      </trkpt>
      <trkpt lat="4.6549210" lon="-75.6760030">
        <ele>1826.6</ele>
        <time>2022-08-13T12:50:04Z</time>
      </trkpt>
      <trkpt lat="4.6549630" lon="-75.6759810">
        <ele>1826.6</ele>
        <time>2022-08-13T12:50:05Z</time>
      </trkpt>
      <trkpt lat="4.6552120" lon="-75.6758310">
        <ele>1826.8</ele>
        <time>2022-08-13T12:50:10Z</time>
      </trkpt>
      <trkpt lat="4.6553840" lon="-75.6756810">
        <ele>1826.8</ele>
        <time>2022-08-13T12:50:14Z</time>
      </trkpt>
      <trkpt lat="4.6555310" lon="-75.6755530">
        <ele>1826.6</ele>
        <time>2022-08-13T12:50:17Z</time>
      </trkpt>
      <trkpt lat="4.6557810" lon="-75.6753100">
        <ele>1826.4</ele>
        <time>2022-08-13T12:50:22Z</time>
      </trkpt>
      <trkpt lat="4.6559780" lon="-75.6750340">
        <ele>1826.0</ele>
        <time>2022-08-13T12:50:27Z</time>
      </trkpt>
      <trkpt lat="4.6559920" lon="-75.6749100">
        <ele>1825.6</ele>
        <time>2022-08-13T12:50:29Z</time>
      </trkpt>
      <trkpt lat="4.6559740" lon="-75.6748480">
        <ele>1825.4</ele>
        <time>2022-08-13T12:50:30Z</time>
      </trkpt>
      <trkpt lat="4.6559420" lon="-75.6747970">
        <ele>1825.0</ele>
        <time>2022-08-13T12:50:31Z</time>
      </trkpt>
      <trkpt lat="4.6558470" lon="-75.6747160">
        <ele>1824.6</ele>
        <time>2022-08-13T12:50:33Z</time>
      </trkpt>
      <trkpt lat="4.6557950" lon="-75.6746780">
        <ele>1824.2</ele>
        <time>2022-08-13T12:50:34Z</time>
      </trkpt>
      <trkpt lat="4.6557090" lon="-75.6745830">
        <ele>1823.4</ele>
        <time>2022-08-13T12:50:36Z</time>
      </trkpt>
      <trkpt lat="4.6556750" lon="-75.6745220">
        <ele>1823.2</ele>
        <time>2022-08-13T12:50:37Z</time>
      </trkpt>
      <trkpt lat="4.6556340" lon="-75.6744640">
        <ele>1823.0</ele>
        <time>2022-08-13T12:50:38Z</time>
      </trkpt>
      <trkpt lat="4.6555090" lon="-75.6743660">
        <ele>1822.8</ele>
        <time>2022-08-13T12:50:40Z</time>
      </trkpt>
      <trkpt lat="4.6553510" lon="-75.6743050">
        <ele>1822.6</ele>
        <time>2022-08-13T12:50:42Z</time>
      </trkpt>
      <trkpt lat="4.6552660" lon="-75.6742870">
        <ele>1822.4</ele>
        <time>2022-08-13T12:50:43Z</time>
      </trkpt>
      <trkpt lat="4.6550900" lon="-75.6742510">
        <ele>1822.0</ele>
        <time>2022-08-13T12:50:45Z</time>
      </trkpt>
      <trkpt lat="4.6547840" lon="-75.6741860">
        <ele>1821.6</ele>
        <time>2022-08-13T12:50:49Z</time>
      </trkpt>
      <trkpt lat="4.6547200" lon="-75.6741680">
        <ele>1821.6</ele>
        <time>2022-08-13T12:50:50Z</time>
      </trkpt>
      <trkpt lat="4.6546120" lon="-75.6741130">
        <ele>1821.6</ele>
        <time>2022-08-13T12:50:52Z</time>
      </trkpt>
      <trkpt lat="4.6545680" lon="-75.6740780">
        <ele>1821.6</ele>
        <time>2022-08-13T12:50:53Z</time>
      </trkpt>
      <trkpt lat="4.6545330" lon="-75.6740400">
        <ele>1821.6</ele>
        <time>2022-08-13T12:50:54Z</time>
      </trkpt>
      <trkpt lat="4.6544810" lon="-75.6739720">
        <ele>1821.6</ele>
        <time>2022-08-13T12:50:56Z</time>
      </trkpt>
      <trkpt lat="4.6544540" lon="-75.6739280">
        <ele>1822.0</ele>
        <time>2022-08-13T12:50:57Z</time>
      </trkpt>
      <trkpt lat="4.6544370" lon="-75.6738900">
        <ele>1822.4</ele>
        <time>2022-08-13T12:50:58Z</time>
      </trkpt>
      <trkpt lat="4.6544130" lon="-75.6738190">
        <ele>1823.6</ele>
        <time>2022-08-13T12:51:00Z</time>
      </trkpt>
      <trkpt lat="4.6544180" lon="-75.6737650">
        <ele>1824.4</ele>
        <time>2022-08-13T12:51:02Z</time>
      </trkpt>
      <trkpt lat="4.6544330" lon="-75.6737480">
        <ele>1825.0</ele>
        <time>2022-08-13T12:51:03Z</time>
      </trkpt>
      <trkpt lat="4.6545080" lon="-75.6737250">
        <ele>1826.4</ele>
        <time>2022-08-13T12:51:06Z</time>
      </trkpt>
      <trkpt lat="4.6545730" lon="-75.6737380">
        <ele>1827.4</ele>
        <time>2022-08-13T12:51:08Z</time>
      </trkpt>
      <trkpt lat="4.6546270" lon="-75.6737730">
        <ele>1828.6</ele>
        <time>2022-08-13T12:51:10Z</time>
      </trkpt>
      <trkpt lat="4.6546670" lon="-75.6737970">
        <ele>1829.0</ele>
        <time>2022-08-13T12:51:11Z</time>
      </trkpt>
      <trkpt lat="4.6547830" lon="-75.6738500">
        <ele>1830.0</ele>
        <time>2022-08-13T12:51:14Z</time>
      </trkpt>
      <trkpt lat="4.6548160" lon="-75.6738580">
        <ele>1830.2</ele>
        <time>2022-08-13T12:51:15Z</time>
      </trkpt>
      <trkpt lat="4.6549010" lon="-75.6738630">
        <ele>1830.4</ele>
        <time>2022-08-13T12:51:17Z</time>
      </trkpt>
      <trkpt lat="4.6550640" lon="-75.6738020">
        <ele>1831.2</ele>
        <time>2022-08-13T12:51:22Z</time>
      </trkpt>
      <trkpt lat="4.6550900" lon="-75.6737830">
        <ele>1831.2</ele>
        <time>2022-08-13T12:51:23Z</time>
      </trkpt>
      <trkpt lat="4.6551680" lon="-75.6736990">
        <ele>1832.4</ele>
        <time>2022-08-13T12:51:27Z</time>
      </trkpt>
      <trkpt lat="4.6551840" lon="-75.6736810">
        <ele>1833.0</ele>
        <time>2022-08-13T12:51:28Z</time>
      </trkpt>
      <trkpt lat="4.6552460" lon="-75.6736200">
        <ele>1834.2</ele>
        <time>2022-08-13T12:51:31Z</time>
      </trkpt>
      <trkpt lat="4.6553000" lon="-75.6735560">
        <ele>1835.4</ele>
        <time>2022-08-13T12:51:34Z</time>
      </trkpt>
      <trkpt lat="4.6553150" lon="-75.6735380">
        <ele>1835.6</ele>
        <time>2022-08-13T12:51:35Z</time>
      </trkpt>
      <trkpt lat="4.6553680" lon="-75.6734840">
        <ele>1836.6</ele>
        <time>2022-08-13T12:51:38Z</time>
      </trkpt>
      <trkpt lat="4.6554570" lon="-75.6734210">
        <ele>1837.8</ele>
        <time>2022-08-13T12:51:42Z</time>
      </trkpt>
      <trkpt lat="4.6554830" lon="-75.6734080">
        <ele>1838.0</ele>
        <time>2022-08-13T12:51:43Z</time>
      </trkpt>
      <trkpt lat="4.6555580" lon="-75.6733640">
        <ele>1839.0</ele>
        <time>2022-08-13T12:51:46Z</time>
      </trkpt>
      <trkpt lat="4.6556370" lon="-75.6732760">
        <ele>1840.0</ele>
        <time>2022-08-13T12:51:50Z</time>
      </trkpt>
      <trkpt lat="4.6556520" lon="-75.6731900">
        <ele>1840.6</ele>
        <time>2022-08-13T12:51:53Z</time>
      </trkpt>
      <trkpt lat="4.6556520" lon="-75.6731350">
        <ele>1841.4</ele>
        <time>2022-08-13T12:51:55Z</time>
      </trkpt>
      <trkpt lat="4.6556480" lon="-75.6731080">
        <ele>1841.6</ele>
        <time>2022-08-13T12:51:56Z</time>
      </trkpt>
      <trkpt lat="4.6556350" lon="-75.6729980">
        <ele>1842.6</ele>
        <time>2022-08-13T12:52:00Z</time>
      </trkpt>
      <trkpt lat="4.6556360" lon="-75.6729180">
        <ele>1843.4</ele>
        <time>2022-08-13T12:52:03Z</time>
      </trkpt>
      <trkpt lat="4.6556600" lon="-75.6728730">
        <ele>1843.8</ele>
        <time>2022-08-13T12:52:05Z</time>
      </trkpt>
      <trkpt lat="4.6557100" lon="-75.6728270">
        <ele>1844.8</ele>
        <time>2022-08-13T12:52:08Z</time>
      </trkpt>
      <trkpt lat="4.6557300" lon="-75.6728130">
        <ele>1845.0</ele>
        <time>2022-08-13T12:52:09Z</time>
      </trkpt>
      <trkpt lat="4.6557960" lon="-75.6727850">
        <ele>1846.0</ele>
        <time>2022-08-13T12:52:12Z</time>
      </trkpt>
      <trkpt lat="4.6558720" lon="-75.6727760">
        <ele>1847.0</ele>
        <time>2022-08-13T12:52:15Z</time>
      </trkpt>
      <trkpt lat="4.6559260" lon="-75.6727790">
        <ele>1847.4</ele>
        <time>2022-08-13T12:52:17Z</time>
      </trkpt>
      <trkpt lat="4.6560570" lon="-75.6728020">
        <ele>1848.6</ele>
        <time>2022-08-13T12:52:22Z</time>
      </trkpt>
      <trkpt lat="4.6560820" lon="-75.6728110">
        <ele>1848.8</ele>
        <time>2022-08-13T12:52:23Z</time>
      </trkpt>
      <trkpt lat="4.6561830" lon="-75.6728440">
        <ele>1849.8</ele>
        <time>2022-08-13T12:52:27Z</time>
      </trkpt>
      <trkpt lat="4.6563060" lon="-75.6729040">
        <ele>1850.8</ele>
        <time>2022-08-13T12:52:32Z</time>
      </trkpt>
      <trkpt lat="4.6563300" lon="-75.6729160">
        <ele>1851.2</ele>
        <time>2022-08-13T12:52:33Z</time>
      </trkpt>
      <trkpt lat="4.6564490" lon="-75.6729690">
        <ele>1852.2</ele>
        <time>2022-08-13T12:52:38Z</time>
      </trkpt>
      <trkpt lat="4.6565120" lon="-75.6730190">
        <ele>1852.8</ele>
        <time>2022-08-13T12:52:41Z</time>
      </trkpt>
      <trkpt lat="4.6565730" lon="-75.6730770">
        <ele>1853.4</ele>
        <time>2022-08-13T12:52:44Z</time>
      </trkpt>
      <trkpt lat="4.6566650" lon="-75.6731930">
        <ele>1854.4</ele>
        <time>2022-08-13T12:52:49Z</time>
      </trkpt>
      <trkpt lat="4.6567950" lon="-75.6733450">
        <ele>1855.6</ele>
        <time>2022-08-13T12:52:56Z</time>
      </trkpt>
      <trkpt lat="4.6568170" lon="-75.6733640">
        <ele>1855.8</ele>
        <time>2022-08-13T12:52:57Z</time>
      </trkpt>
      <trkpt lat="4.6569340" lon="-75.6734700">
        <ele>1857.0</ele>
        <time>2022-08-13T12:53:03Z</time>
      </trkpt>
      <trkpt lat="4.6570240" lon="-75.6735650">
        <ele>1858.0</ele>
        <time>2022-08-13T12:53:08Z</time>
      </trkpt>
      <trkpt lat="4.6570740" lon="-75.6736280">
        <ele>1858.8</ele>
        <time>2022-08-13T12:53:11Z</time>
      </trkpt>
      <trkpt lat="4.6571150" lon="-75.6736670">
        <ele>1859.2</ele>
        <time>2022-08-13T12:53:13Z</time>
      </trkpt>
      <trkpt lat="4.6572300" lon="-75.6737390">
        <ele>1860.0</ele>
        <time>2022-08-13T12:53:18Z</time>
      </trkpt>
      <trkpt lat="4.6572790" lon="-75.6737560">
        <ele>1860.2</ele>
        <time>2022-08-13T12:53:20Z</time>
      </trkpt>
      <trkpt lat="4.6573030" lon="-75.6737560">
        <ele>1860.4</ele>
        <time>2022-08-13T12:53:21Z</time>
      </trkpt>
      <trkpt lat="4.6573480" lon="-75.6737500">
        <ele>1861.0</ele>
        <time>2022-08-13T12:53:23Z</time>
      </trkpt>
      <trkpt lat="4.6574260" lon="-75.6737250">
        <ele>1861.6</ele>
        <time>2022-08-13T12:53:26Z</time>
      </trkpt>
      <trkpt lat="4.6575490" lon="-75.6736980">
        <ele>1862.8</ele>
        <time>2022-08-13T12:53:30Z</time>
      </trkpt>
      <trkpt lat="4.6576000" lon="-75.6736740">
        <ele>1863.4</ele>
        <time>2022-08-13T12:53:32Z</time>
      </trkpt>
      <trkpt lat="4.6576480" lon="-75.6736350">
        <ele>1863.8</ele>
        <time>2022-08-13T12:53:34Z</time>
      </trkpt>
      <trkpt lat="4.6576880" lon="-75.6735930">
        <ele>1864.0</ele>
        <time>2022-08-13T12:53:36Z</time>
      </trkpt>
      <trkpt lat="4.6578020" lon="-75.6734660">
        <ele>1864.8</ele>
        <time>2022-08-13T12:53:42Z</time>
      </trkpt>
      <trkpt lat="4.6578260" lon="-75.6734600">
        <ele>1865.2</ele>
        <time>2022-08-13T12:53:43Z</time>
      </trkpt>
      <trkpt lat="4.6579620" lon="-75.6734240">
        <ele>1866.0</ele>
        <time>2022-08-13T12:53:48Z</time>
      </trkpt>
      <trkpt lat="4.6580210" lon="-75.6734310">
        <ele>1866.6</ele>
        <time>2022-08-13T12:53:50Z</time>
      </trkpt>
      <trkpt lat="4.6580760" lon="-75.6734480">
        <ele>1867.0</ele>
        <time>2022-08-13T12:53:52Z</time>
      </trkpt>
      <trkpt lat="4.6581660" lon="-75.6735180">
        <ele>1868.0</ele>
        <time>2022-08-13T12:53:56Z</time>
      </trkpt>
      <trkpt lat="4.6581840" lon="-75.6735440">
        <ele>1868.2</ele>
        <time>2022-08-13T12:53:57Z</time>
      </trkpt>
      <trkpt lat="4.6582180" lon="-75.6736650">
        <ele>1868.8</ele>
        <time>2022-08-13T12:54:01Z</time>
      </trkpt>
      <trkpt lat="4.6582250" lon="-75.6737310">
        <ele>1869.4</ele>
        <time>2022-08-13T12:54:03Z</time>
      </trkpt>
      <trkpt lat="4.6582310" lon="-75.6738300">
        <ele>1870.0</ele>
        <time>2022-08-13T12:54:06Z</time>
      </trkpt>
      <trkpt lat="4.6582400" lon="-75.6739250">
        <ele>1870.4</ele>
        <time>2022-08-13T12:54:09Z</time>
      </trkpt>
      <trkpt lat="4.6582600" lon="-75.6739840">
        <ele>1870.8</ele>
        <time>2022-08-13T12:54:11Z</time>
      </trkpt>
      <trkpt lat="4.6583180" lon="-75.6740780">
        <ele>1871.6</ele>
        <time>2022-08-13T12:54:15Z</time>
      </trkpt>
      <trkpt lat="4.6583390" lon="-75.6740970">
        <ele>1871.8</ele>
        <time>2022-08-13T12:54:16Z</time>
      </trkpt>
      <trkpt lat="4.6584070" lon="-75.6741880">
        <ele>1872.8</ele>
        <time>2022-08-13T12:54:20Z</time>
      </trkpt>
      <trkpt lat="4.6584330" lon="-75.6742350">
        <ele>1873.2</ele>
        <time>2022-08-13T12:54:22Z</time>
      </trkpt>
      <trkpt lat="4.6584590" lon="-75.6742820">
        <ele>1874.0</ele>
        <time>2022-08-13T12:54:24Z</time>
      </trkpt>
      <trkpt lat="4.6585150" lon="-75.6743810">
        <ele>1875.2</ele>
        <time>2022-08-13T12:54:28Z</time>
      </trkpt>
      <trkpt lat="4.6585680" lon="-75.6744590">
        <ele>1876.0</ele>
        <time>2022-08-13T12:54:31Z</time>
      </trkpt>
      <trkpt lat="4.6585890" lon="-75.6744810">
        <ele>1876.2</ele>
        <time>2022-08-13T12:54:32Z</time>
      </trkpt>
      <trkpt lat="4.6587150" lon="-75.6745470">
        <ele>1877.0</ele>
        <time>2022-08-13T12:54:37Z</time>
      </trkpt>
      <trkpt lat="4.6587430" lon="-75.6745500">
        <ele>1877.4</ele>
        <time>2022-08-13T12:54:38Z</time>
      </trkpt>
      <trkpt lat="4.6589060" lon="-75.6745380">
        <ele>1878.4</ele>
        <time>2022-08-13T12:54:44Z</time>
      </trkpt>
      <trkpt lat="4.6589330" lon="-75.6745300">
        <ele>1878.4</ele>
        <time>2022-08-13T12:54:45Z</time>
      </trkpt>
      <trkpt lat="4.6590130" lon="-75.6745090">
        <ele>1879.6</ele>
        <time>2022-08-13T12:54:48Z</time>
      </trkpt>
      <trkpt lat="4.6591460" lon="-75.6744550">
        <ele>1880.6</ele>
        <time>2022-08-13T12:54:53Z</time>
      </trkpt>
      <trkpt lat="4.6592580" lon="-75.6743930">
        <ele>1881.8</ele>
        <time>2022-08-13T12:54:57Z</time>
      </trkpt>
      <trkpt lat="4.6593790" lon="-75.6743080">
        <ele>1882.6</ele>
        <time>2022-08-13T12:55:01Z</time>
      </trkpt>
      <trkpt lat="4.6594400" lon="-75.6742620">
        <ele>1882.8</ele>
        <time>2022-08-13T12:55:03Z</time>
      </trkpt>
      <trkpt lat="4.6595920" lon="-75.6741800">
        <ele>1883.4</ele>
        <time>2022-08-13T12:55:08Z</time>
      </trkpt>
      <trkpt lat="4.6597170" lon="-75.6741630">
        <ele>1884.0</ele>
        <time>2022-08-13T12:55:12Z</time>
      </trkpt>
      <trkpt lat="4.6598080" lon="-75.6741530">
        <ele>1884.6</ele>
        <time>2022-08-13T12:55:15Z</time>
      </trkpt>
      <trkpt lat="4.6598400" lon="-75.6741510">
        <ele>1885.0</ele>
        <time>2022-08-13T12:55:16Z</time>
      </trkpt>
      <trkpt lat="4.6599720" lon="-75.6741180">
        <ele>1886.4</ele>
        <time>2022-08-13T12:55:20Z</time>
      </trkpt>
      <trkpt lat="4.6600310" lon="-75.6740930">
        <ele>1886.8</ele>
        <time>2022-08-13T12:55:22Z</time>
      </trkpt>
      <trkpt lat="4.6601210" lon="-75.6740420">
        <ele>1887.6</ele>
        <time>2022-08-13T12:55:25Z</time>
      </trkpt>
      <trkpt lat="4.6602620" lon="-75.6739380">
        <ele>1888.2</ele>
        <time>2022-08-13T12:55:30Z</time>
      </trkpt>
      <trkpt lat="4.6603090" lon="-75.6738860">
        <ele>1888.8</ele>
        <time>2022-08-13T12:55:32Z</time>
      </trkpt>
      <trkpt lat="4.6603950" lon="-75.6737390">
        <ele>1889.4</ele>
        <time>2022-08-13T12:55:36Z</time>
      </trkpt>
      <trkpt lat="4.6604810" lon="-75.6734440">
        <ele>1889.4</ele>
        <time>2022-08-13T12:55:41Z</time>
      </trkpt>
      <trkpt lat="4.6606210" lon="-75.6729690">
        <ele>1888.6</ele>
        <time>2022-08-13T12:55:48Z</time>
      </trkpt>
      <trkpt lat="4.6607040" lon="-75.6728530">
        <ele>1887.8</ele>
        <time>2022-08-13T12:55:50Z</time>
      </trkpt>
      <trkpt lat="4.6607560" lon="-75.6728040">
        <ele>1887.4</ele>
        <time>2022-08-13T12:55:51Z</time>
      </trkpt>
      <trkpt lat="4.6608130" lon="-75.6727630">
        <ele>1887.0</ele>
        <time>2022-08-13T12:55:52Z</time>
      </trkpt>
      <trkpt lat="4.6609370" lon="-75.6726980">
        <ele>1887.0</ele>
        <time>2022-08-13T12:55:54Z</time>
      </trkpt>
      <trkpt lat="4.6611210" lon="-75.6726110">
        <ele>1886.6</ele>
        <time>2022-08-13T12:55:57Z</time>
      </trkpt>
      <trkpt lat="4.6615420" lon="-75.6723790">
        <ele>1886.4</ele>
        <time>2022-08-13T12:56:04Z</time>
      </trkpt>
      <trkpt lat="4.6616690" lon="-75.6722970">
        <ele>1886.4</ele>
        <time>2022-08-13T12:56:06Z</time>
      </trkpt>
      <trkpt lat="4.6618170" lon="-75.6722240">
        <ele>1886.2</ele>
        <time>2022-08-13T12:56:08Z</time>
      </trkpt>
      <trkpt lat="4.6623320" lon="-75.6719910">
        <ele>1885.6</ele>
        <time>2022-08-13T12:56:14Z</time>
      </trkpt>
      <trkpt lat="4.6624180" lon="-75.6719410">
        <ele>1885.4</ele>
        <time>2022-08-13T12:56:15Z</time>
      </trkpt>
      <trkpt lat="4.6626960" lon="-75.6717950">
        <ele>1884.6</ele>
        <time>2022-08-13T12:56:18Z</time>
      </trkpt>
      <trkpt lat="4.6628060" lon="-75.6717620">
        <ele>1884.0</ele>
        <time>2022-08-13T12:56:19Z</time>
      </trkpt>
      <trkpt lat="4.6629260" lon="-75.6717480">
        <ele>1883.2</ele>
        <time>2022-08-13T12:56:20Z</time>
      </trkpt>
      <trkpt lat="4.6630480" lon="-75.6717580">
        <ele>1882.0</ele>
        <time>2022-08-13T12:56:21Z</time>
      </trkpt>
      <trkpt lat="4.6631680" lon="-75.6717850">
        <ele>1881.0</ele>
        <time>2022-08-13T12:56:22Z</time>
      </trkpt>
      <trkpt lat="4.6632820" lon="-75.6718190">
        <ele>1880.2</ele>
        <time>2022-08-13T12:56:23Z</time>
      </trkpt>
      <trkpt lat="4.6633950" lon="-75.6718460">
        <ele>1879.6</ele>
        <time>2022-08-13T12:56:24Z</time>
      </trkpt>
      <trkpt lat="4.6635080" lon="-75.6718570">
        <ele>1878.6</ele>
        <time>2022-08-13T12:56:25Z</time>
      </trkpt>
      <trkpt lat="4.6636150" lon="-75.6718400">
        <ele>1877.4</ele>
        <time>2022-08-13T12:56:26Z</time>
      </trkpt>
      <trkpt lat="4.6637180" lon="-75.6718060">
        <ele>1876.2</ele>
        <time>2022-08-13T12:56:27Z</time>
      </trkpt>
      <trkpt lat="4.6638100" lon="-75.6717540">
        <ele>1874.8</ele>
        <time>2022-08-13T12:56:28Z</time>
      </trkpt>
      <trkpt lat="4.6638900" lon="-75.6716880">
        <ele>1873.0</ele>
        <time>2022-08-13T12:56:29Z</time>
      </trkpt>
      <trkpt lat="4.6639630" lon="-75.6716200">
        <ele>1871.6</ele>
        <time>2022-08-13T12:56:30Z</time>
      </trkpt>
      <trkpt lat="4.6641070" lon="-75.6714980">
        <ele>1871.0</ele>
        <time>2022-08-13T12:56:32Z</time>
      </trkpt>
      <trkpt lat="4.6642510" lon="-75.6714280">
        <ele>1870.6</ele>
        <time>2022-08-13T12:56:34Z</time>
      </trkpt>
      <trkpt lat="4.6643200" lon="-75.6714060">
        <ele>1870.6</ele>
        <time>2022-08-13T12:56:35Z</time>
      </trkpt>
      <trkpt lat="4.6644440" lon="-75.6713660">
        <ele>1870.6</ele>
        <time>2022-08-13T12:56:37Z</time>
      </trkpt>
      <trkpt lat="4.6645400" lon="-75.6712930">
        <ele>1870.6</ele>
        <time>2022-08-13T12:56:39Z</time>
      </trkpt>
      <trkpt lat="4.6645950" lon="-75.6711960">
        <ele>1871.0</ele>
        <time>2022-08-13T12:56:41Z</time>
      </trkpt>
      <trkpt lat="4.6646220" lon="-75.6711710">
        <ele>1871.2</ele>
        <time>2022-08-13T12:56:42Z</time>
      </trkpt>
      <trkpt lat="4.6646460" lon="-75.6711690">
        <ele>1871.8</ele>
        <time>2022-08-13T12:56:43Z</time>
      </trkpt>
      <trkpt lat="4.6646670" lon="-75.6711860">
        <ele>1872.6</ele>
        <time>2022-08-13T12:56:44Z</time>
      </trkpt>
      <trkpt lat="4.6646890" lon="-75.6712150">
        <ele>1873.2</ele>
        <time>2022-08-13T12:56:45Z</time>
      </trkpt>
      <trkpt lat="4.6647540" lon="-75.6713230">
        <ele>1874.0</ele>
        <time>2022-08-13T12:56:48Z</time>
      </trkpt>
      <trkpt lat="4.6648000" lon="-75.6715100">
        <ele>1874.2</ele>
        <time>2022-08-13T12:56:53Z</time>
      </trkpt>
      <trkpt lat="4.6647470" lon="-75.6717460">
        <ele>1874.0</ele>
        <time>2022-08-13T12:56:58Z</time>
      </trkpt>
      <trkpt lat="4.6647340" lon="-75.6717910">
        <ele>1873.6</ele>
        <time>2022-08-13T12:56:59Z</time>
      </trkpt>
      <trkpt lat="4.6647100" lon="-75.6718820">
        <ele>1873.6</ele>
        <time>2022-08-13T12:57:01Z</time>
      </trkpt>
      <trkpt lat="4.6647040" lon="-75.6719860">
        <ele>1873.2</ele>
        <time>2022-08-13T12:57:03Z</time>
      </trkpt>
      <trkpt lat="4.6647080" lon="-75.6720440">
        <ele>1873.0</ele>
        <time>2022-08-13T12:57:04Z</time>
      </trkpt>
      <trkpt lat="4.6647210" lon="-75.6722520">
        <ele>1872.2</ele>
        <time>2022-08-13T12:57:07Z</time>
      </trkpt>
      <trkpt lat="4.6647420" lon="-75.6725030">
        <ele>1871.0</ele>
        <time>2022-08-13T12:57:10Z</time>
      </trkpt>
      <trkpt lat="4.6647330" lon="-75.6725890">
        <ele>1870.4</ele>
        <time>2022-08-13T12:57:11Z</time>
      </trkpt>
      <trkpt lat="4.6647180" lon="-75.6727540">
        <ele>1869.8</ele>
        <time>2022-08-13T12:57:13Z</time>
      </trkpt>
      <trkpt lat="4.6647030" lon="-75.6729090">
        <ele>1868.6</ele>
        <time>2022-08-13T12:57:15Z</time>
      </trkpt>
      <trkpt lat="4.6647250" lon="-75.6730560">
        <ele>1867.4</ele>
        <time>2022-08-13T12:57:17Z</time>
      </trkpt>
      <trkpt lat="4.6647450" lon="-75.6731250">
        <ele>1866.2</ele>
        <time>2022-08-13T12:57:18Z</time>
      </trkpt>
      <trkpt lat="4.6647800" lon="-75.6731860">
        <ele>1865.4</ele>
        <time>2022-08-13T12:57:19Z</time>
      </trkpt>
      <trkpt lat="4.6648270" lon="-75.6732390">
        <ele>1864.0</ele>
        <time>2022-08-13T12:57:20Z</time>
      </trkpt>
      <trkpt lat="4.6648770" lon="-75.6732890">
        <ele>1863.0</ele>
        <time>2022-08-13T12:57:21Z</time>
      </trkpt>
      <trkpt lat="4.6649250" lon="-75.6733410">
        <ele>1862.6</ele>
        <time>2022-08-13T12:57:22Z</time>
      </trkpt>
      <trkpt lat="4.6650970" lon="-75.6735660">
        <ele>1861.6</ele>
        <time>2022-08-13T12:57:26Z</time>
      </trkpt>
      <trkpt lat="4.6651400" lon="-75.6736210">
        <ele>1861.2</ele>
        <time>2022-08-13T12:57:27Z</time>
      </trkpt>
      <trkpt lat="4.6652320" lon="-75.6737230">
        <ele>1860.8</ele>
        <time>2022-08-13T12:57:29Z</time>
      </trkpt>
      <trkpt lat="4.6652970" lon="-75.6738370">
        <ele>1860.0</ele>
        <time>2022-08-13T12:57:31Z</time>
      </trkpt>
      <trkpt lat="4.6653270" lon="-75.6740310">
        <ele>1859.4</ele>
        <time>2022-08-13T12:57:34Z</time>
      </trkpt>
      <trkpt lat="4.6653220" lon="-75.6740960">
        <ele>1859.4</ele>
        <time>2022-08-13T12:57:35Z</time>
      </trkpt>
      <trkpt lat="4.6652690" lon="-75.6743700">
        <ele>1859.0</ele>
        <time>2022-08-13T12:57:39Z</time>
      </trkpt>
      <trkpt lat="4.6652550" lon="-75.6745000">
        <ele>1858.8</ele>
        <time>2022-08-13T12:57:41Z</time>
      </trkpt>
      <trkpt lat="4.6652530" lon="-75.6745650">
        <ele>1858.8</ele>
        <time>2022-08-13T12:57:42Z</time>
      </trkpt>
      <trkpt lat="4.6653040" lon="-75.6749140">
        <ele>1858.6</ele>
        <time>2022-08-13T12:57:47Z</time>
      </trkpt>
      <trkpt lat="4.6653700" lon="-75.6750480">
        <ele>1858.4</ele>
        <time>2022-08-13T12:57:49Z</time>
      </trkpt>
      <trkpt lat="4.6654570" lon="-75.6751740">
        <ele>1858.2</ele>
        <time>2022-08-13T12:57:51Z</time>
      </trkpt>
      <trkpt lat="4.6654920" lon="-75.6752400">
        <ele>1857.8</ele>
        <time>2022-08-13T12:57:52Z</time>
      </trkpt>
      <trkpt lat="4.6655130" lon="-75.6753080">
        <ele>1857.6</ele>
        <time>2022-08-13T12:57:53Z</time>
      </trkpt>
      <trkpt lat="4.6655020" lon="-75.6754490">
        <ele>1856.8</ele>
        <time>2022-08-13T12:57:55Z</time>
      </trkpt>
      <trkpt lat="4.6654730" lon="-75.6756010">
        <ele>1856.2</ele>
        <time>2022-08-13T12:57:57Z</time>
      </trkpt>
      <trkpt lat="4.6654750" lon="-75.6757620">
        <ele>1855.6</ele>
        <time>2022-08-13T12:57:59Z</time>
      </trkpt>
      <trkpt lat="4.6655240" lon="-75.6759950">
        <ele>1854.8</ele>
        <time>2022-08-13T12:58:02Z</time>
      </trkpt>
      <trkpt lat="4.6655710" lon="-75.6761450">
        <ele>1854.4</ele>
        <time>2022-08-13T12:58:04Z</time>
      </trkpt>
      <trkpt lat="4.6656530" lon="-75.6762750">
        <ele>1853.6</ele>
        <time>2022-08-13T12:58:06Z</time>
      </trkpt>
      <trkpt lat="4.6657220" lon="-75.6763330">
        <ele>1853.0</ele>
        <time>2022-08-13T12:58:07Z</time>
      </trkpt>
      <trkpt lat="4.6658920" lon="-75.6764450">
        <ele>1852.0</ele>
        <time>2022-08-13T12:58:10Z</time>
      </trkpt>
      <trkpt lat="4.6660600" lon="-75.6765690">
        <ele>1851.6</ele>
        <time>2022-08-13T12:58:13Z</time>
      </trkpt>
      <trkpt lat="4.6661060" lon="-75.6766160">
        <ele>1851.6</ele>
        <time>2022-08-13T12:58:14Z</time>
      </trkpt>
      <trkpt lat="4.6662000" lon="-75.6767000">
        <ele>1851.6</ele>
        <time>2022-08-13T12:58:16Z</time>
      </trkpt>
      <trkpt lat="4.6662560" lon="-75.6767520">
        <ele>1851.6</ele>
        <time>2022-08-13T12:58:17Z</time>
      </trkpt>
      <trkpt lat="4.6664060" lon="-75.6769320">
        <ele>1851.6</ele>
        <time>2022-08-13T12:58:21Z</time>
      </trkpt>
      <trkpt lat="4.6664800" lon="-75.6770290">
        <ele>1851.8</ele>
        <time>2022-08-13T12:58:23Z</time>
      </trkpt>
      <trkpt lat="4.6665380" lon="-75.6771340">
        <ele>1852.2</ele>
        <time>2022-08-13T12:58:25Z</time>
      </trkpt>
      <trkpt lat="4.6665900" lon="-75.6772490">
        <ele>1852.2</ele>
        <time>2022-08-13T12:58:27Z</time>
      </trkpt>
      <trkpt lat="4.6666400" lon="-75.6773580">
        <ele>1852.4</ele>
        <time>2022-08-13T12:58:29Z</time>
      </trkpt>
      <trkpt lat="4.6666700" lon="-75.6774640">
        <ele>1852.6</ele>
        <time>2022-08-13T12:58:31Z</time>
      </trkpt>
      <trkpt lat="4.6666650" lon="-75.6776900">
        <ele>1852.8</ele>
        <time>2022-08-13T12:58:35Z</time>
      </trkpt>
      <trkpt lat="4.6666450" lon="-75.6778010">
        <ele>1852.8</ele>
        <time>2022-08-13T12:58:37Z</time>
      </trkpt>
      <trkpt lat="4.6666300" lon="-75.6778570">
        <ele>1853.0</ele>
        <time>2022-08-13T12:58:38Z</time>
      </trkpt>
      <trkpt lat="4.6666080" lon="-75.6779660">
        <ele>1853.2</ele>
        <time>2022-08-13T12:58:40Z</time>
      </trkpt>
      <trkpt lat="4.6666140" lon="-75.6780740">
        <ele>1853.4</ele>
        <time>2022-08-13T12:58:42Z</time>
      </trkpt>
      <trkpt lat="4.6666820" lon="-75.6782800">
        <ele>1853.6</ele>
        <time>2022-08-13T12:58:46Z</time>
      </trkpt>
      <trkpt lat="4.6666970" lon="-75.6783310">
        <ele>1853.6</ele>
        <time>2022-08-13T12:58:47Z</time>
      </trkpt>
      <trkpt lat="4.6667100" lon="-75.6784800">
        <ele>1853.8</ele>
        <time>2022-08-13T12:58:50Z</time>
      </trkpt>
      <trkpt lat="4.6667030" lon="-75.6785230">
        <ele>1854.2</ele>
        <time>2022-08-13T12:58:51Z</time>
      </trkpt>
      <trkpt lat="4.6666910" lon="-75.6785610">
        <ele>1854.6</ele>
        <time>2022-08-13T12:58:52Z</time>
      </trkpt>
      <trkpt lat="4.6666200" lon="-75.6787000">
        <ele>1855.4</ele>
        <time>2022-08-13T12:58:56Z</time>
      </trkpt>
      <trkpt lat="4.6665990" lon="-75.6787270">
        <ele>1855.4</ele>
        <time>2022-08-13T12:58:57Z</time>
      </trkpt>
      <trkpt lat="4.6665740" lon="-75.6787530">
        <ele>1855.4</ele>
        <time>2022-08-13T12:58:58Z</time>
      </trkpt>
      <trkpt lat="4.6664990" lon="-75.6788170">
        <ele>1856.8</ele>
        <time>2022-08-13T12:59:01Z</time>
      </trkpt>
      <trkpt lat="4.6664740" lon="-75.6788370">
        <ele>1857.4</ele>
        <time>2022-08-13T12:59:02Z</time>
      </trkpt>
      <trkpt lat="4.6664520" lon="-75.6788620">
        <ele>1858.0</ele>
        <time>2022-08-13T12:59:03Z</time>
      </trkpt>
      <trkpt lat="4.6664000" lon="-75.6789390">
        <ele>1859.2</ele>
        <time>2022-08-13T12:59:06Z</time>
      </trkpt>
      <trkpt lat="4.6663550" lon="-75.6790150">
        <ele>1860.2</ele>
        <time>2022-08-13T12:59:09Z</time>
      </trkpt>
      <trkpt lat="4.6662710" lon="-75.6791460">
        <ele>1861.4</ele>
        <time>2022-08-13T12:59:14Z</time>
      </trkpt>
      <trkpt lat="4.6662580" lon="-75.6792050">
        <ele>1861.6</ele>
        <time>2022-08-13T12:59:16Z</time>
      </trkpt>
      <trkpt lat="4.6661520" lon="-75.6794090">
        <ele>1861.6</ele>
        <time>2022-08-13T12:59:22Z</time>
      </trkpt>
      <trkpt lat="4.6660810" lon="-75.6795290">
        <ele>1861.6</ele>
        <time>2022-08-13T12:59:25Z</time>
      </trkpt>
      <trkpt lat="4.6659710" lon="-75.6796580">
        <ele>1861.2</ele>
        <time>2022-08-13T12:59:28Z</time>
      </trkpt>
      <trkpt lat="4.6658430" lon="-75.6797960">
        <ele>1861.0</ele>
        <time>2022-08-13T12:59:31Z</time>
      </trkpt>
      <trkpt lat="4.6657840" lon="-75.6799060">
        <ele>1860.8</ele>
        <time>2022-08-13T12:59:33Z</time>
      </trkpt>
      <trkpt lat="4.6657260" lon="-75.6800400">
        <ele>1860.2</ele>
        <time>2022-08-13T12:59:35Z</time>
      </trkpt>
      <trkpt lat="4.6656070" lon="-75.6802380">
        <ele>1859.2</ele>
        <time>2022-08-13T12:59:38Z</time>
      </trkpt>
      <trkpt lat="4.6655650" lon="-75.6803060">
        <ele>1859.0</ele>
        <time>2022-08-13T12:59:39Z</time>
      </trkpt>
      <trkpt lat="4.6655220" lon="-75.6803730">
        <ele>1858.6</ele>
        <time>2022-08-13T12:59:40Z</time>
      </trkpt>
      <trkpt lat="4.6654820" lon="-75.6804430">
        <ele>1858.6</ele>
        <time>2022-08-13T12:59:41Z</time>
      </trkpt>
      <trkpt lat="4.6654130" lon="-75.6805880">
        <ele>1858.2</ele>
        <time>2022-08-13T12:59:43Z</time>
      </trkpt>
      <trkpt lat="4.6653830" lon="-75.6806650">
        <ele>1857.8</ele>
        <time>2022-08-13T12:59:44Z</time>
      </trkpt>
      <trkpt lat="4.6653360" lon="-75.6808220">
        <ele>1856.8</ele>
        <time>2022-08-13T12:59:46Z</time>
      </trkpt>
      <trkpt lat="4.6653280" lon="-75.6809020">
        <ele>1856.6</ele>
        <time>2022-08-13T12:59:47Z</time>
      </trkpt>
      <trkpt lat="4.6653310" lon="-75.6809780">
        <ele>1856.2</ele>
        <time>2022-08-13T12:59:48Z</time>
      </trkpt>
      <trkpt lat="4.6653210" lon="-75.6812060">
        <ele>1855.6</ele>
        <time>2022-08-13T12:59:51Z</time>
      </trkpt>
      <trkpt lat="4.6653120" lon="-75.6812820">
        <ele>1855.4</ele>
        <time>2022-08-13T12:59:52Z</time>
      </trkpt>
      <trkpt lat="4.6652540" lon="-75.6815030">
        <ele>1854.4</ele>
        <time>2022-08-13T12:59:55Z</time>
      </trkpt>
      <trkpt lat="4.6651980" lon="-75.6816410">
        <ele>1853.8</ele>
        <time>2022-08-13T12:59:57Z</time>
      </trkpt>
      <trkpt lat="4.6651330" lon="-75.6817770">
        <ele>1853.4</ele>
        <time>2022-08-13T12:59:59Z</time>
      </trkpt>
      <trkpt lat="4.6651080" lon="-75.6818450">
        <ele>1853.2</ele>
        <time>2022-08-13T13:00:00Z</time>
      </trkpt>
      <trkpt lat="4.6650970" lon="-75.6819160">
        <ele>1853.0</ele>
        <time>2022-08-13T13:00:01Z</time>
      </trkpt>
      <trkpt lat="4.6651010" lon="-75.6819870">
        <ele>1852.8</ele>
        <time>2022-08-13T13:00:02Z</time>
      </trkpt>
      <trkpt lat="4.6651330" lon="-75.6821300">
        <ele>1852.6</ele>
        <time>2022-08-13T13:00:04Z</time>
      </trkpt>
      <trkpt lat="4.6651700" lon="-75.6822430">
        <ele>1852.4</ele>
        <time>2022-08-13T13:00:06Z</time>
      </trkpt>
      <trkpt lat="4.6651840" lon="-75.6824570">
        <ele>1851.8</ele>
        <time>2022-08-13T13:00:09Z</time>
      </trkpt>
      <trkpt lat="4.6651540" lon="-75.6826600">
        <ele>1851.4</ele>
        <time>2022-08-13T13:00:12Z</time>
      </trkpt>
      <trkpt lat="4.6651180" lon="-75.6828120">
        <ele>1851.4</ele>
        <time>2022-08-13T13:00:14Z</time>
      </trkpt>
      <trkpt lat="4.6650870" lon="-75.6830520">
        <ele>1851.0</ele>
        <time>2022-08-13T13:00:17Z</time>
      </trkpt>
      <trkpt lat="4.6650880" lon="-75.6831320">
        <ele>1850.6</ele>
        <time>2022-08-13T13:00:18Z</time>
      </trkpt>
      <trkpt lat="4.6650870" lon="-75.6832200">
        <ele>1850.4</ele>
        <time>2022-08-13T13:00:19Z</time>
      </trkpt>
      <trkpt lat="4.6650660" lon="-75.6835910">
        <ele>1849.2</ele>
        <time>2022-08-13T13:00:23Z</time>
      </trkpt>
      <trkpt lat="4.6649990" lon="-75.6840040">
        <ele>1848.4</ele>
        <time>2022-08-13T13:00:28Z</time>
      </trkpt>
      <trkpt lat="4.6650070" lon="-75.6840790">
        <ele>1848.2</ele>
        <time>2022-08-13T13:00:29Z</time>
      </trkpt>
      <trkpt lat="4.6650270" lon="-75.6841510">
        <ele>1848.2</ele>
        <time>2022-08-13T13:00:30Z</time>
      </trkpt>
      <trkpt lat="4.6650910" lon="-75.6842840">
        <ele>1848.0</ele>
        <time>2022-08-13T13:00:32Z</time>
      </trkpt>
      <trkpt lat="4.6651330" lon="-75.6843430">
        <ele>1847.8</ele>
        <time>2022-08-13T13:00:33Z</time>
      </trkpt>
      <trkpt lat="4.6652070" lon="-75.6844660">
        <ele>1847.8</ele>
        <time>2022-08-13T13:00:35Z</time>
      </trkpt>
      <trkpt lat="4.6652130" lon="-75.6845920">
        <ele>1847.8</ele>
        <time>2022-08-13T13:00:37Z</time>
      </trkpt>
      <trkpt lat="4.6651390" lon="-75.6849050">
        <ele>1848.0</ele>
        <time>2022-08-13T13:00:42Z</time>
      </trkpt>
      <trkpt lat="4.6651230" lon="-75.6850400">
        <ele>1848.2</ele>
        <time>2022-08-13T13:00:44Z</time>
      </trkpt>
      <trkpt lat="4.6651320" lon="-75.6852430">
        <ele>1849.0</ele>
        <time>2022-08-13T13:00:47Z</time>
      </trkpt>
      <trkpt lat="4.6651430" lon="-75.6853100">
        <ele>1849.2</ele>
        <time>2022-08-13T13:00:48Z</time>
      </trkpt>
      <trkpt lat="4.6652300" lon="-75.6856110">
        <ele>1849.6</ele>
        <time>2022-08-13T13:00:53Z</time>
      </trkpt>
      <trkpt lat="4.6652390" lon="-75.6856700">
        <ele>1849.6</ele>
        <time>2022-08-13T13:00:54Z</time>
      </trkpt>
      <trkpt lat="4.6652390" lon="-75.6857290">
        <ele>1849.6</ele>
        <time>2022-08-13T13:00:55Z</time>
      </trkpt>
      <trkpt lat="4.6651930" lon="-75.6858430">
        <ele>1849.8</ele>
        <time>2022-08-13T13:00:57Z</time>
      </trkpt>
      <trkpt lat="4.6650900" lon="-75.6859350">
        <ele>1849.8</ele>
        <time>2022-08-13T13:00:59Z</time>
      </trkpt>
      <trkpt lat="4.6649800" lon="-75.6859980">
        <ele>1849.8</ele>
        <time>2022-08-13T13:01:01Z</time>
      </trkpt>
      <trkpt lat="4.6649280" lon="-75.6860210">
        <ele>1849.8</ele>
        <time>2022-08-13T13:01:02Z</time>
      </trkpt>
      <trkpt lat="4.6647540" lon="-75.6860570">
        <ele>1849.8</ele>
        <time>2022-08-13T13:01:05Z</time>
      </trkpt>
      <trkpt lat="4.6646910" lon="-75.6860650">
        <ele>1849.8</ele>
        <time>2022-08-13T13:01:06Z</time>
      </trkpt>
      <trkpt lat="4.6644780" lon="-75.6860440">
        <ele>1848.8</ele>
        <time>2022-08-13T13:01:09Z</time>
      </trkpt>
      <trkpt lat="4.6642980" lon="-75.6860160">
        <ele>1848.0</ele>
        <time>2022-08-13T13:01:11Z</time>
      </trkpt>
      <trkpt lat="4.6641250" lon="-75.6859880">
        <ele>1847.6</ele>
        <time>2022-08-13T13:01:13Z</time>
      </trkpt>
      <trkpt lat="4.6639750" lon="-75.6859750">
        <ele>1846.6</ele>
        <time>2022-08-13T13:01:15Z</time>
      </trkpt>
      <trkpt lat="4.6638520" lon="-75.6860020">
        <ele>1844.6</ele>
        <time>2022-08-13T13:01:17Z</time>
      </trkpt>
      <trkpt lat="4.6638010" lon="-75.6860230">
        <ele>1843.6</ele>
        <time>2022-08-13T13:01:18Z</time>
      </trkpt>
      <trkpt lat="4.6637550" lon="-75.6860470">
        <ele>1842.4</ele>
        <time>2022-08-13T13:01:19Z</time>
      </trkpt>
      <trkpt lat="4.6637140" lon="-75.6860720">
        <ele>1841.2</ele>
        <time>2022-08-13T13:01:20Z</time>
      </trkpt>
      <trkpt lat="4.6636730" lon="-75.6860990">
        <ele>1840.6</ele>
        <time>2022-08-13T13:01:21Z</time>
      </trkpt>
      <trkpt lat="4.6636300" lon="-75.6861300">
        <ele>1839.6</ele>
        <time>2022-08-13T13:01:22Z</time>
      </trkpt>
      <trkpt lat="4.6635490" lon="-75.6862030">
        <ele>1838.4</ele>
        <time>2022-08-13T13:01:24Z</time>
      </trkpt>
      <trkpt lat="4.6634820" lon="-75.6862750">
        <ele>1837.8</ele>
        <time>2022-08-13T13:01:26Z</time>
      </trkpt>
      <trkpt lat="4.6634430" lon="-75.6863490">
        <ele>1837.2</ele>
        <time>2022-08-13T13:01:28Z</time>
      </trkpt>
      <trkpt lat="4.6634390" lon="-75.6864380">
        <ele>1836.6</ele>
        <time>2022-08-13T13:01:30Z</time>
      </trkpt>
      <trkpt lat="4.6634520" lon="-75.6864890">
        <ele>1836.2</ele>
        <time>2022-08-13T13:01:31Z</time>
      </trkpt>
      <trkpt lat="4.6635420" lon="-75.6867590">
        <ele>1834.8</ele>
        <time>2022-08-13T13:01:36Z</time>
      </trkpt>
      <trkpt lat="4.6635650" lon="-75.6868140">
        <ele>1834.4</ele>
        <time>2022-08-13T13:01:37Z</time>
      </trkpt>
      <trkpt lat="4.6636240" lon="-75.6869240">
        <ele>1833.8</ele>
        <time>2022-08-13T13:01:39Z</time>
      </trkpt>
      <trkpt lat="4.6636940" lon="-75.6870280">
        <ele>1833.0</ele>
        <time>2022-08-13T13:01:41Z</time>
      </trkpt>
      <trkpt lat="4.6637340" lon="-75.6870760">
        <ele>1832.2</ele>
        <time>2022-08-13T13:01:42Z</time>
      </trkpt>
      <trkpt lat="4.6637800" lon="-75.6871230">
        <ele>1831.2</ele>
        <time>2022-08-13T13:01:43Z</time>
      </trkpt>
      <trkpt lat="4.6639360" lon="-75.6872700">
        <ele>1830.0</ele>
        <time>2022-08-13T13:01:46Z</time>
      </trkpt>
      <trkpt lat="4.6639920" lon="-75.6873280">
        <ele>1828.8</ele>
        <time>2022-08-13T13:01:47Z</time>
      </trkpt>
      <trkpt lat="4.6640410" lon="-75.6873890">
        <ele>1828.2</ele>
        <time>2022-08-13T13:01:48Z</time>
      </trkpt>
      <trkpt lat="4.6640860" lon="-75.6874520">
        <ele>1827.8</ele>
        <time>2022-08-13T13:01:49Z</time>
      </trkpt>
      <trkpt lat="4.6641660" lon="-75.6875710">
        <ele>1827.0</ele>
        <time>2022-08-13T13:01:51Z</time>
      </trkpt>
      <trkpt lat="4.6642030" lon="-75.6876270">
        <ele>1825.8</ele>
        <time>2022-08-13T13:01:52Z</time>
      </trkpt>
      <trkpt lat="4.6642780" lon="-75.6877480">
        <ele>1824.6</ele>
        <time>2022-08-13T13:01:54Z</time>
      </trkpt>
      <trkpt lat="4.6643560" lon="-75.6878800">
        <ele>1822.8</ele>
        <time>2022-08-13T13:01:56Z</time>
      </trkpt>
      <trkpt lat="4.6644330" lon="-75.6880040">
        <ele>1822.0</ele>
        <time>2022-08-13T13:01:58Z</time>
      </trkpt>
      <trkpt lat="4.6644680" lon="-75.6880630">
        <ele>1821.6</ele>
        <time>2022-08-13T13:01:59Z</time>
      </trkpt>
      <trkpt lat="4.6645030" lon="-75.6881150">
        <ele>1820.6</ele>
        <time>2022-08-13T13:02:00Z</time>
      </trkpt>
      <trkpt lat="4.6645400" lon="-75.6881640">
        <ele>1820.0</ele>
        <time>2022-08-13T13:02:01Z</time>
      </trkpt>
      <trkpt lat="4.6645750" lon="-75.6882190">
        <ele>1819.0</ele>
        <time>2022-08-13T13:02:02Z</time>
      </trkpt>
      <trkpt lat="4.6646020" lon="-75.6882790">
        <ele>1817.8</ele>
        <time>2022-08-13T13:02:03Z</time>
      </trkpt>
      <trkpt lat="4.6646220" lon="-75.6883990">
        <ele>1816.6</ele>
        <time>2022-08-13T13:02:05Z</time>
      </trkpt>
      <trkpt lat="4.6646010" lon="-75.6885110">
        <ele>1815.8</ele>
        <time>2022-08-13T13:02:07Z</time>
      </trkpt>
      <trkpt lat="4.6645560" lon="-75.6886310">
        <ele>1815.4</ele>
        <time>2022-08-13T13:02:09Z</time>
      </trkpt>
      <trkpt lat="4.6645400" lon="-75.6886910">
        <ele>1815.2</ele>
        <time>2022-08-13T13:02:10Z</time>
      </trkpt>
      <trkpt lat="4.6645530" lon="-75.6888080">
        <ele>1814.6</ele>
        <time>2022-08-13T13:02:12Z</time>
      </trkpt>
      <trkpt lat="4.6645870" lon="-75.6888560">
        <ele>1814.0</ele>
        <time>2022-08-13T13:02:13Z</time>
      </trkpt>
      <trkpt lat="4.6646360" lon="-75.6888870">
        <ele>1813.4</ele>
        <time>2022-08-13T13:02:14Z</time>
      </trkpt>
      <trkpt lat="4.6646950" lon="-75.6889100">
        <ele>1812.8</ele>
        <time>2022-08-13T13:02:15Z</time>
      </trkpt>
      <trkpt lat="4.6647560" lon="-75.6889230">
        <ele>1812.4</ele>
        <time>2022-08-13T13:02:16Z</time>
      </trkpt>
      <trkpt lat="4.6648220" lon="-75.6889320">
        <ele>1811.6</ele>
        <time>2022-08-13T13:02:17Z</time>
      </trkpt>
      <trkpt lat="4.6648920" lon="-75.6889390">
        <ele>1811.2</ele>
        <time>2022-08-13T13:02:18Z</time>
      </trkpt>
      <trkpt lat="4.6650860" lon="-75.6889220">
        <ele>1810.6</ele>
        <time>2022-08-13T13:02:21Z</time>
      </trkpt>
      <trkpt lat="4.6651540" lon="-75.6889140">
        <ele>1810.2</ele>
        <time>2022-08-13T13:02:22Z</time>
      </trkpt>
      <trkpt lat="4.6652950" lon="-75.6889350">
        <ele>1809.2</ele>
        <time>2022-08-13T13:02:24Z</time>
      </trkpt>
      <trkpt lat="4.6654380" lon="-75.6889700">
        <ele>1808.2</ele>
        <time>2022-08-13T13:02:26Z</time>
      </trkpt>
      <trkpt lat="4.6655090" lon="-75.6889760">
        <ele>1807.8</ele>
        <time>2022-08-13T13:02:27Z</time>
      </trkpt>
      <trkpt lat="4.6657290" lon="-75.6889570">
        <ele>1806.4</ele>
        <time>2022-08-13T13:02:30Z</time>
      </trkpt>
      <trkpt lat="4.6658040" lon="-75.6889580">
        <ele>1805.8</ele>
        <time>2022-08-13T13:02:31Z</time>
      </trkpt>
      <trkpt lat="4.6659540" lon="-75.6889870">
        <ele>1805.2</ele>
        <time>2022-08-13T13:02:33Z</time>
      </trkpt>
      <trkpt lat="4.6660310" lon="-75.6890230">
        <ele>1804.8</ele>
        <time>2022-08-13T13:02:34Z</time>
      </trkpt>
      <trkpt lat="4.6660980" lon="-75.6890660">
        <ele>1804.0</ele>
        <time>2022-08-13T13:02:35Z</time>
      </trkpt>
      <trkpt lat="4.6661550" lon="-75.6891140">
        <ele>1804.0</ele>
        <time>2022-08-13T13:02:36Z</time>
      </trkpt>
      <trkpt lat="4.6661990" lon="-75.6891680">
        <ele>1803.0</ele>
        <time>2022-08-13T13:02:37Z</time>
      </trkpt>
      <trkpt lat="4.6662190" lon="-75.6892340">
        <ele>1802.4</ele>
        <time>2022-08-13T13:02:38Z</time>
      </trkpt>
      <trkpt lat="4.6662230" lon="-75.6893040">
        <ele>1801.8</ele>
        <time>2022-08-13T13:02:39Z</time>
      </trkpt>
      <trkpt lat="4.6662180" lon="-75.6893720">
        <ele>1801.2</ele>
        <time>2022-08-13T13:02:40Z</time>
      </trkpt>
      <trkpt lat="4.6661990" lon="-75.6894290">
        <ele>1801.2</ele>
        <time>2022-08-13T13:02:41Z</time>
      </trkpt>
      <trkpt lat="4.6661660" lon="-75.6894620">
        <ele>1800.8</ele>
        <time>2022-08-13T13:02:42Z</time>
      </trkpt>
      <trkpt lat="4.6661220" lon="-75.6894770">
        <ele>1800.0</ele>
        <time>2022-08-13T13:02:43Z</time>
      </trkpt>
      <trkpt lat="4.6660140" lon="-75.6894940">
        <ele>1799.0</ele>
        <time>2022-08-13T13:02:45Z</time>
      </trkpt>
      <trkpt lat="4.6658960" lon="-75.6894790">
        <ele>1798.6</ele>
        <time>2022-08-13T13:02:47Z</time>
      </trkpt>
      <trkpt lat="4.6657980" lon="-75.6894240">
        <ele>1798.2</ele>
        <time>2022-08-13T13:02:49Z</time>
      </trkpt>
      <trkpt lat="4.6657610" lon="-75.6893840">
        <ele>1798.2</ele>
        <time>2022-08-13T13:02:50Z</time>
      </trkpt>
      <trkpt lat="4.6656800" lon="-75.6893000">
        <ele>1798.0</ele>
        <time>2022-08-13T13:02:52Z</time>
      </trkpt>
      <trkpt lat="4.6655590" lon="-75.6892460">
        <ele>1797.6</ele>
        <time>2022-08-13T13:02:54Z</time>
      </trkpt>
      <trkpt lat="4.6654290" lon="-75.6892330">
        <ele>1796.6</ele>
        <time>2022-08-13T13:02:56Z</time>
      </trkpt>
      <trkpt lat="4.6653570" lon="-75.6892280">
        <ele>1796.4</ele>
        <time>2022-08-13T13:02:57Z</time>
      </trkpt>
      <trkpt lat="4.6652830" lon="-75.6892180">
        <ele>1796.0</ele>
        <time>2022-08-13T13:02:58Z</time>
      </trkpt>
      <trkpt lat="4.6651460" lon="-75.6892060">
        <ele>1795.0</ele>
        <time>2022-08-13T13:03:00Z</time>
      </trkpt>
      <trkpt lat="4.6650230" lon="-75.6892440">
        <ele>1794.2</ele>
        <time>2022-08-13T13:03:02Z</time>
      </trkpt>
      <trkpt lat="4.6649710" lon="-75.6892840">
        <ele>1793.8</ele>
        <time>2022-08-13T13:03:03Z</time>
      </trkpt>
      <trkpt lat="4.6649230" lon="-75.6893280">
        <ele>1793.8</ele>
        <time>2022-08-13T13:03:04Z</time>
      </trkpt>
      <trkpt lat="4.6648070" lon="-75.6894040">
        <ele>1792.6</ele>
        <time>2022-08-13T13:03:06Z</time>
      </trkpt>
      <trkpt lat="4.6645840" lon="-75.6894410">
        <ele>1791.4</ele>
        <time>2022-08-13T13:03:09Z</time>
      </trkpt>
      <trkpt lat="4.6645050" lon="-75.6894370">
        <ele>1790.6</ele>
        <time>2022-08-13T13:03:10Z</time>
      </trkpt>
      <trkpt lat="4.6644280" lon="-75.6894320">
        <ele>1790.4</ele>
        <time>2022-08-13T13:03:11Z</time>
      </trkpt>
      <trkpt lat="4.6642710" lon="-75.6894250">
        <ele>1789.4</ele>
        <time>2022-08-13T13:03:13Z</time>
      </trkpt>
      <trkpt lat="4.6641950" lon="-75.6894130">
        <ele>1789.0</ele>
        <time>2022-08-13T13:03:14Z</time>
      </trkpt>
      <trkpt lat="4.6640430" lon="-75.6894060">
        <ele>1788.0</ele>
        <time>2022-08-13T13:03:16Z</time>
      </trkpt>
      <trkpt lat="4.6639700" lon="-75.6894200">
        <ele>1787.4</ele>
        <time>2022-08-13T13:03:17Z</time>
      </trkpt>
      <trkpt lat="4.6639080" lon="-75.6894340">
        <ele>1786.2</ele>
        <time>2022-08-13T13:03:18Z</time>
      </trkpt>
      <trkpt lat="4.6638540" lon="-75.6894520">
        <ele>1785.2</ele>
        <time>2022-08-13T13:03:19Z</time>
      </trkpt>
      <trkpt lat="4.6638050" lon="-75.6894850">
        <ele>1784.8</ele>
        <time>2022-08-13T13:03:20Z</time>
      </trkpt>
      <trkpt lat="4.6637650" lon="-75.6895330">
        <ele>1784.4</ele>
        <time>2022-08-13T13:03:21Z</time>
      </trkpt>
      <trkpt lat="4.6637080" lon="-75.6896540">
        <ele>1783.6</ele>
        <time>2022-08-13T13:03:23Z</time>
      </trkpt>
      <trkpt lat="4.6636940" lon="-75.6897210">
        <ele>1783.2</ele>
        <time>2022-08-13T13:03:24Z</time>
      </trkpt>
      <trkpt lat="4.6636910" lon="-75.6899380">
        <ele>1782.0</ele>
        <time>2022-08-13T13:03:27Z</time>
      </trkpt>
      <trkpt lat="4.6637010" lon="-75.6900950">
        <ele>1781.2</ele>
        <time>2022-08-13T13:03:29Z</time>
      </trkpt>
      <trkpt lat="4.6637060" lon="-75.6901760">
        <ele>1781.0</ele>
        <time>2022-08-13T13:03:30Z</time>
      </trkpt>
      <trkpt lat="4.6637200" lon="-75.6903530">
        <ele>1779.8</ele>
        <time>2022-08-13T13:03:32Z</time>
      </trkpt>
      <trkpt lat="4.6637290" lon="-75.6905120">
        <ele>1778.2</ele>
        <time>2022-08-13T13:03:34Z</time>
      </trkpt>
      <trkpt lat="4.6637350" lon="-75.6906520">
        <ele>1777.2</ele>
        <time>2022-08-13T13:03:36Z</time>
      </trkpt>
      <trkpt lat="4.6637400" lon="-75.6907870">
        <ele>1775.8</ele>
        <time>2022-08-13T13:03:38Z</time>
      </trkpt>
      <trkpt lat="4.6637460" lon="-75.6908570">
        <ele>1775.0</ele>
        <time>2022-08-13T13:03:39Z</time>
      </trkpt>
      <trkpt lat="4.6637580" lon="-75.6909320">
        <ele>1774.6</ele>
        <time>2022-08-13T13:03:40Z</time>
      </trkpt>
      <trkpt lat="4.6637790" lon="-75.6911590">
        <ele>1773.2</ele>
        <time>2022-08-13T13:03:43Z</time>
      </trkpt>
      <trkpt lat="4.6638010" lon="-75.6913200">
        <ele>1772.0</ele>
        <time>2022-08-13T13:03:45Z</time>
      </trkpt>
      <trkpt lat="4.6638120" lon="-75.6914690">
        <ele>1770.6</ele>
        <time>2022-08-13T13:03:47Z</time>
      </trkpt>
      <trkpt lat="4.6638020" lon="-75.6915340">
        <ele>1770.6</ele>
        <time>2022-08-13T13:03:48Z</time>
      </trkpt>
      <trkpt lat="4.6637340" lon="-75.6916260">
        <ele>1769.2</ele>
        <time>2022-08-13T13:03:50Z</time>
      </trkpt>
      <trkpt lat="4.6636210" lon="-75.6916570">
        <ele>1768.0</ele>
        <time>2022-08-13T13:03:52Z</time>
      </trkpt>
      <trkpt lat="4.6635650" lon="-75.6916500">
        <ele>1767.6</ele>
        <time>2022-08-13T13:03:53Z</time>
      </trkpt>
      <trkpt lat="4.6635170" lon="-75.6916300">
        <ele>1767.0</ele>
        <time>2022-08-13T13:03:54Z</time>
      </trkpt>
      <trkpt lat="4.6634450" lon="-75.6915410">
        <ele>1766.2</ele>
        <time>2022-08-13T13:03:56Z</time>
      </trkpt>
      <trkpt lat="4.6634180" lon="-75.6914820">
        <ele>1766.0</ele>
        <time>2022-08-13T13:03:57Z</time>
      </trkpt>
      <trkpt lat="4.6633820" lon="-75.6913570">
        <ele>1765.0</ele>
        <time>2022-08-13T13:03:59Z</time>
      </trkpt>
      <trkpt lat="4.6633750" lon="-75.6912910">
        <ele>1764.6</ele>
        <time>2022-08-13T13:04:00Z</time>
      </trkpt>
      <trkpt lat="4.6633720" lon="-75.6912240">
        <ele>1764.2</ele>
        <time>2022-08-13T13:04:01Z</time>
      </trkpt>
      <trkpt lat="4.6633690" lon="-75.6911570">
        <ele>1763.6</ele>
        <time>2022-08-13T13:04:02Z</time>
      </trkpt>
      <trkpt lat="4.6633620" lon="-75.6910940">
        <ele>1763.0</ele>
        <time>2022-08-13T13:04:03Z</time>
      </trkpt>
      <trkpt lat="4.6633190" lon="-75.6909950">
        <ele>1762.0</ele>
        <time>2022-08-13T13:04:05Z</time>
      </trkpt>
      <trkpt lat="4.6632180" lon="-75.6909530">
        <ele>1761.4</ele>
        <time>2022-08-13T13:04:07Z</time>
      </trkpt>
      <trkpt lat="4.6631580" lon="-75.6909470">
        <ele>1760.6</ele>
        <time>2022-08-13T13:04:08Z</time>
      </trkpt>
      <trkpt lat="4.6629150" lon="-75.6909080">
        <ele>1759.6</ele>
        <time>2022-08-13T13:04:12Z</time>
      </trkpt>
      <trkpt lat="4.6628660" lon="-75.6908960">
        <ele>1759.4</ele>
        <time>2022-08-13T13:04:13Z</time>
      </trkpt>
      <trkpt lat="4.6628160" lon="-75.6908880">
        <ele>1759.2</ele>
        <time>2022-08-13T13:04:14Z</time>
      </trkpt>
      <trkpt lat="4.6627150" lon="-75.6909290">
        <ele>1758.4</ele>
        <time>2022-08-13T13:04:16Z</time>
      </trkpt>
      <trkpt lat="4.6626070" lon="-75.6910720">
        <ele>1757.0</ele>
        <time>2022-08-13T13:04:19Z</time>
      </trkpt>
      <trkpt lat="4.6625550" lon="-75.6911940">
        <ele>1755.6</ele>
        <time>2022-08-13T13:04:21Z</time>
      </trkpt>
      <trkpt lat="4.6625270" lon="-75.6913180">
        <ele>1754.8</ele>
        <time>2022-08-13T13:04:23Z</time>
      </trkpt>
      <trkpt lat="4.6625480" lon="-75.6914510">
        <ele>1754.4</ele>
        <time>2022-08-13T13:04:25Z</time>
      </trkpt>
      <trkpt lat="4.6625830" lon="-75.6915780">
        <ele>1753.4</ele>
        <time>2022-08-13T13:04:27Z</time>
      </trkpt>
      <trkpt lat="4.6625940" lon="-75.6916340">
        <ele>1752.8</ele>
        <time>2022-08-13T13:04:28Z</time>
      </trkpt>
      <trkpt lat="4.6625980" lon="-75.6916840">
        <ele>1752.4</ele>
        <time>2022-08-13T13:04:29Z</time>
      </trkpt>
      <trkpt lat="4.6625890" lon="-75.6917360">
        <ele>1751.8</ele>
        <time>2022-08-13T13:04:30Z</time>
      </trkpt>
      <trkpt lat="4.6625670" lon="-75.6917880">
        <ele>1751.4</ele>
        <time>2022-08-13T13:04:31Z</time>
      </trkpt>
      <trkpt lat="4.6624800" lon="-75.6919450">
        <ele>1750.8</ele>
        <time>2022-08-13T13:04:34Z</time>
      </trkpt>
      <trkpt lat="4.6624460" lon="-75.6920640">
        <ele>1750.4</ele>
        <time>2022-08-13T13:04:36Z</time>
      </trkpt>
      <trkpt lat="4.6624370" lon="-75.6921220">
        <ele>1749.8</ele>
        <time>2022-08-13T13:04:37Z</time>
      </trkpt>
      <trkpt lat="4.6624320" lon="-75.6921780">
        <ele>1749.4</ele>
        <time>2022-08-13T13:04:38Z</time>
      </trkpt>
      <trkpt lat="4.6624220" lon="-75.6922350">
        <ele>1749.2</ele>
        <time>2022-08-13T13:04:39Z</time>
      </trkpt>
      <trkpt lat="4.6623930" lon="-75.6923540">
        <ele>1748.2</ele>
        <time>2022-08-13T13:04:41Z</time>
      </trkpt>
      <trkpt lat="4.6623700" lon="-75.6924140">
        <ele>1747.8</ele>
        <time>2022-08-13T13:04:42Z</time>
      </trkpt>
      <trkpt lat="4.6623420" lon="-75.6924730">
        <ele>1747.0</ele>
        <time>2022-08-13T13:04:43Z</time>
      </trkpt>
      <trkpt lat="4.6622610" lon="-75.6925870">
        <ele>1746.0</ele>
        <time>2022-08-13T13:04:45Z</time>
      </trkpt>
      <trkpt lat="4.6622090" lon="-75.6926420">
        <ele>1745.6</ele>
        <time>2022-08-13T13:04:46Z</time>
      </trkpt>
      <trkpt lat="4.6621040" lon="-75.6927660">
        <ele>1744.6</ele>
        <time>2022-08-13T13:04:48Z</time>
      </trkpt>
      <trkpt lat="4.6619970" lon="-75.6928920">
        <ele>1743.6</ele>
        <time>2022-08-13T13:04:50Z</time>
      </trkpt>
      <trkpt lat="4.6619480" lon="-75.6929450">
        <ele>1743.0</ele>
        <time>2022-08-13T13:04:51Z</time>
      </trkpt>
      <trkpt lat="4.6618600" lon="-75.6930320">
        <ele>1742.2</ele>
        <time>2022-08-13T13:04:53Z</time>
      </trkpt>
      <trkpt lat="4.6617640" lon="-75.6930820">
        <ele>1741.4</ele>
        <time>2022-08-13T13:04:55Z</time>
      </trkpt>
      <trkpt lat="4.6617100" lon="-75.6930910">
        <ele>1741.0</ele>
        <time>2022-08-13T13:04:56Z</time>
      </trkpt>
      <trkpt lat="4.6616570" lon="-75.6930910">
        <ele>1740.0</ele>
        <time>2022-08-13T13:04:57Z</time>
      </trkpt>
      <trkpt lat="4.6616100" lon="-75.6930730">
        <ele>1739.6</ele>
        <time>2022-08-13T13:04:58Z</time>
      </trkpt>
      <trkpt lat="4.6615680" lon="-75.6930400">
        <ele>1739.0</ele>
        <time>2022-08-13T13:04:59Z</time>
      </trkpt>
      <trkpt lat="4.6615150" lon="-75.6929510">
        <ele>1738.4</ele>
        <time>2022-08-13T13:05:01Z</time>
      </trkpt>
      <trkpt lat="4.6614990" lon="-75.6928430">
        <ele>1737.8</ele>
        <time>2022-08-13T13:05:03Z</time>
      </trkpt>
      <trkpt lat="4.6615030" lon="-75.6927140">
        <ele>1737.0</ele>
        <time>2022-08-13T13:05:05Z</time>
      </trkpt>
      <trkpt lat="4.6615030" lon="-75.6926000">
        <ele>1735.8</ele>
        <time>2022-08-13T13:05:07Z</time>
      </trkpt>
      <trkpt lat="4.6614960" lon="-75.6925520">
        <ele>1735.4</ele>
        <time>2022-08-13T13:05:08Z</time>
      </trkpt>
      <trkpt lat="4.6614770" lon="-75.6925090">
        <ele>1735.0</ele>
        <time>2022-08-13T13:05:09Z</time>
      </trkpt>
      <trkpt lat="4.6614450" lon="-75.6924760">
        <ele>1734.8</ele>
        <time>2022-08-13T13:05:10Z</time>
      </trkpt>
      <trkpt lat="4.6613510" lon="-75.6924480">
        <ele>1733.6</ele>
        <time>2022-08-13T13:05:12Z</time>
      </trkpt>
      <trkpt lat="4.6612460" lon="-75.6924720">
        <ele>1732.2</ele>
        <time>2022-08-13T13:05:14Z</time>
      </trkpt>
      <trkpt lat="4.6611450" lon="-75.6925260">
        <ele>1730.6</ele>
        <time>2022-08-13T13:05:16Z</time>
      </trkpt>
      <trkpt lat="4.6609560" lon="-75.6927320">
        <ele>1729.6</ele>
        <time>2022-08-13T13:05:20Z</time>
      </trkpt>
      <trkpt lat="4.6609050" lon="-75.6927900">
        <ele>1729.4</ele>
        <time>2022-08-13T13:05:21Z</time>
      </trkpt>
      <trkpt lat="4.6606850" lon="-75.6930770">
        <ele>1728.4</ele>
        <time>2022-08-13T13:05:26Z</time>
      </trkpt>
      <trkpt lat="4.6606470" lon="-75.6931360">
        <ele>1728.2</ele>
        <time>2022-08-13T13:05:27Z</time>
      </trkpt>
      <trkpt lat="4.6605010" lon="-75.6933670">
        <ele>1727.0</ele>
        <time>2022-08-13T13:05:31Z</time>
      </trkpt>
      <trkpt lat="4.6604600" lon="-75.6934140">
        <ele>1726.4</ele>
        <time>2022-08-13T13:05:32Z</time>
      </trkpt>
      <trkpt lat="4.6604140" lon="-75.6934530">
        <ele>1725.8</ele>
        <time>2022-08-13T13:05:33Z</time>
      </trkpt>
      <trkpt lat="4.6603590" lon="-75.6934840">
        <ele>1725.6</ele>
        <time>2022-08-13T13:05:34Z</time>
      </trkpt>
      <trkpt lat="4.6602990" lon="-75.6935090">
        <ele>1724.4</ele>
        <time>2022-08-13T13:05:35Z</time>
      </trkpt>
      <trkpt lat="4.6601770" lon="-75.6935610">
        <ele>1722.8</ele>
        <time>2022-08-13T13:05:37Z</time>
      </trkpt>
      <trkpt lat="4.6601270" lon="-75.6935880">
        <ele>1722.2</ele>
        <time>2022-08-13T13:05:38Z</time>
      </trkpt>
      <trkpt lat="4.6600910" lon="-75.6936200">
        <ele>1722.2</ele>
        <time>2022-08-13T13:05:39Z</time>
      </trkpt>
      <trkpt lat="4.6600720" lon="-75.6936610">
        <ele>1721.8</ele>
        <time>2022-08-13T13:05:40Z</time>
      </trkpt>
      <trkpt lat="4.6600710" lon="-75.6937540">
        <ele>1720.6</ele>
        <time>2022-08-13T13:05:42Z</time>
      </trkpt>
      <trkpt lat="4.6601260" lon="-75.6938800">
        <ele>1720.2</ele>
        <time>2022-08-13T13:05:44Z</time>
      </trkpt>
      <trkpt lat="4.6601610" lon="-75.6939390">
        <ele>1719.8</ele>
        <time>2022-08-13T13:05:45Z</time>
      </trkpt>
      <trkpt lat="4.6601980" lon="-75.6940010">
        <ele>1719.6</ele>
        <time>2022-08-13T13:05:46Z</time>
      </trkpt>
      <trkpt lat="4.6602680" lon="-75.6941340">
        <ele>1719.0</ele>
        <time>2022-08-13T13:05:48Z</time>
      </trkpt>
      <trkpt lat="4.6602890" lon="-75.6942010">
        <ele>1718.8</ele>
        <time>2022-08-13T13:05:49Z</time>
      </trkpt>
      <trkpt lat="4.6603100" lon="-75.6943320">
        <ele>1718.4</ele>
        <time>2022-08-13T13:05:51Z</time>
      </trkpt>
      <trkpt lat="4.6603040" lon="-75.6944710">
        <ele>1716.8</ele>
        <time>2022-08-13T13:05:53Z</time>
      </trkpt>
      <trkpt lat="4.6602650" lon="-75.6946990">
        <ele>1715.6</ele>
        <time>2022-08-13T13:05:56Z</time>
      </trkpt>
      <trkpt lat="4.6602110" lon="-75.6949470">
        <ele>1715.0</ele>
        <time>2022-08-13T13:05:59Z</time>
      </trkpt>
      <trkpt lat="4.6601470" lon="-75.6952080">
        <ele>1714.6</ele>
        <time>2022-08-13T13:06:02Z</time>
      </trkpt>
      <trkpt lat="4.6601040" lon="-75.6953870">
        <ele>1713.6</ele>
        <time>2022-08-13T13:06:04Z</time>
      </trkpt>
      <trkpt lat="4.6600380" lon="-75.6956390">
        <ele>1712.0</ele>
        <time>2022-08-13T13:06:07Z</time>
      </trkpt>
      <trkpt lat="4.6599920" lon="-75.6958450">
        <ele>1710.6</ele>
        <time>2022-08-13T13:06:09Z</time>
      </trkpt>
      <trkpt lat="4.6599590" lon="-75.6960360">
        <ele>1709.2</ele>
        <time>2022-08-13T13:06:11Z</time>
      </trkpt>
      <trkpt lat="4.6599370" lon="-75.6962310">
        <ele>1707.8</ele>
        <time>2022-08-13T13:06:13Z</time>
      </trkpt>
      <trkpt lat="4.6598780" lon="-75.6964960">
        <ele>1707.2</ele>
        <time>2022-08-13T13:06:16Z</time>
      </trkpt>
      <trkpt lat="4.6598490" lon="-75.6965700">
        <ele>1706.8</ele>
        <time>2022-08-13T13:06:17Z</time>
      </trkpt>
      <trkpt lat="4.6596760" lon="-75.6968820">
        <ele>1705.8</ele>
        <time>2022-08-13T13:06:22Z</time>
      </trkpt>
      <trkpt lat="4.6595840" lon="-75.6969640">
        <ele>1705.8</ele>
        <time>2022-08-13T13:06:24Z</time>
      </trkpt>
      <trkpt lat="4.6595300" lon="-75.6970010">
        <ele>1705.8</ele>
        <time>2022-08-13T13:06:25Z</time>
      </trkpt>
      <trkpt lat="4.6594720" lon="-75.6970340">
        <ele>1705.8</ele>
        <time>2022-08-13T13:06:26Z</time>
      </trkpt>
      <trkpt lat="4.6591760" lon="-75.6971300">
        <ele>1705.6</ele>
        <time>2022-08-13T13:06:31Z</time>
      </trkpt>
      <trkpt lat="4.6588650" lon="-75.6972250">
        <ele>1705.0</ele>
        <time>2022-08-13T13:06:36Z</time>
      </trkpt>
      <trkpt lat="4.6588050" lon="-75.6972450">
        <ele>1704.8</ele>
        <time>2022-08-13T13:06:37Z</time>
      </trkpt>
      <trkpt lat="4.6587460" lon="-75.6972620">
        <ele>1704.8</ele>
        <time>2022-08-13T13:06:38Z</time>
      </trkpt>
      <trkpt lat="4.6584580" lon="-75.6973550">
        <ele>1702.8</ele>
        <time>2022-08-13T13:06:43Z</time>
      </trkpt>
      <trkpt lat="4.6584180" lon="-75.6973930">
        <ele>1702.4</ele>
        <time>2022-08-13T13:06:44Z</time>
      </trkpt>
      <trkpt lat="4.6583870" lon="-75.6974410">
        <ele>1702.0</ele>
        <time>2022-08-13T13:06:45Z</time>
      </trkpt>
      <trkpt lat="4.6583430" lon="-75.6975570">
        <ele>1701.4</ele>
        <time>2022-08-13T13:06:47Z</time>
      </trkpt>
      <trkpt lat="4.6583140" lon="-75.6976930">
        <ele>1700.2</ele>
        <time>2022-08-13T13:06:49Z</time>
      </trkpt>
      <trkpt lat="4.6582870" lon="-75.6978420">
        <ele>1699.2</ele>
        <time>2022-08-13T13:06:51Z</time>
      </trkpt>
      <trkpt lat="4.6582490" lon="-75.6979860">
        <ele>1698.0</ele>
        <time>2022-08-13T13:06:53Z</time>
      </trkpt>
      <trkpt lat="4.6581950" lon="-75.6981320">
        <ele>1696.6</ele>
        <time>2022-08-13T13:06:55Z</time>
      </trkpt>
      <trkpt lat="4.6581710" lon="-75.6982080">
        <ele>1696.0</ele>
        <time>2022-08-13T13:06:56Z</time>
      </trkpt>
      <trkpt lat="4.6581460" lon="-75.6982840">
        <ele>1695.2</ele>
        <time>2022-08-13T13:06:57Z</time>
      </trkpt>
      <trkpt lat="4.6580400" lon="-75.6985900">
        <ele>1693.8</ele>
        <time>2022-08-13T13:07:01Z</time>
      </trkpt>
      <trkpt lat="4.6580170" lon="-75.6986720">
        <ele>1692.8</ele>
        <time>2022-08-13T13:07:02Z</time>
      </trkpt>
      <trkpt lat="4.6579990" lon="-75.6987540">
        <ele>1692.4</ele>
        <time>2022-08-13T13:07:03Z</time>
      </trkpt>
      <trkpt lat="4.6579700" lon="-75.6989100">
        <ele>1691.0</ele>
        <time>2022-08-13T13:07:05Z</time>
      </trkpt>
      <trkpt lat="4.6579590" lon="-75.6990420">
        <ele>1690.4</ele>
        <time>2022-08-13T13:07:07Z</time>
      </trkpt>
      <trkpt lat="4.6579560" lon="-75.6991040">
        <ele>1689.8</ele>
        <time>2022-08-13T13:07:08Z</time>
      </trkpt>
      <trkpt lat="4.6579570" lon="-75.6991640">
        <ele>1689.8</ele>
        <time>2022-08-13T13:07:09Z</time>
      </trkpt>
      <trkpt lat="4.6579630" lon="-75.6992660">
        <ele>1689.4</ele>
        <time>2022-08-13T13:07:11Z</time>
      </trkpt>
      <trkpt lat="4.6579650" lon="-75.6993320">
        <ele>1689.2</ele>
        <time>2022-08-13T13:07:12Z</time>
      </trkpt>
      <trkpt lat="4.6580070" lon="-75.6995700">
        <ele>1689.0</ele>
        <time>2022-08-13T13:07:16Z</time>
      </trkpt>
      <trkpt lat="4.6580110" lon="-75.6996320">
        <ele>1688.8</ele>
        <time>2022-08-13T13:07:17Z</time>
      </trkpt>
      <trkpt lat="4.6580040" lon="-75.6996920">
        <ele>1688.8</ele>
        <time>2022-08-13T13:07:18Z</time>
      </trkpt>
      <trkpt lat="4.6579470" lon="-75.6998090">
        <ele>1688.6</ele>
        <time>2022-08-13T13:07:20Z</time>
      </trkpt>
      <trkpt lat="4.6577110" lon="-75.7001180">
        <ele>1688.0</ele>
        <time>2022-08-13T13:07:25Z</time>
      </trkpt>
      <trkpt lat="4.6576740" lon="-75.7001880">
        <ele>1687.8</ele>
        <time>2022-08-13T13:07:26Z</time>
      </trkpt>
      <trkpt lat="4.6576450" lon="-75.7002600">
        <ele>1687.6</ele>
        <time>2022-08-13T13:07:27Z</time>
      </trkpt>
      <trkpt lat="4.6575980" lon="-75.7004030">
        <ele>1686.4</ele>
        <time>2022-08-13T13:07:29Z</time>
      </trkpt>
      <trkpt lat="4.6575400" lon="-75.7005440">
        <ele>1686.0</ele>
        <time>2022-08-13T13:07:31Z</time>
      </trkpt>
      <trkpt lat="4.6575010" lon="-75.7006120">
        <ele>1685.4</ele>
        <time>2022-08-13T13:07:32Z</time>
      </trkpt>
      <trkpt lat="4.6574590" lon="-75.7006790">
        <ele>1684.8</ele>
        <time>2022-08-13T13:07:33Z</time>
      </trkpt>
      <trkpt lat="4.6574140" lon="-75.7007420">
        <ele>1684.2</ele>
        <time>2022-08-13T13:07:34Z</time>
      </trkpt>
      <trkpt lat="4.6573220" lon="-75.7008550">
        <ele>1683.8</ele>
        <time>2022-08-13T13:07:36Z</time>
      </trkpt>
      <trkpt lat="4.6572440" lon="-75.7009520">
        <ele>1683.4</ele>
        <time>2022-08-13T13:07:38Z</time>
      </trkpt>
      <trkpt lat="4.6572100" lon="-75.7009970">
        <ele>1683.2</ele>
        <time>2022-08-13T13:07:39Z</time>
      </trkpt>
      <trkpt lat="4.6570860" lon="-75.7011950">
        <ele>1682.0</ele>
        <time>2022-08-13T13:07:43Z</time>
      </trkpt>
      <trkpt lat="4.6570310" lon="-75.7013150">
        <ele>1681.6</ele>
        <time>2022-08-13T13:07:45Z</time>
      </trkpt>
      <trkpt lat="4.6570120" lon="-75.7014490">
        <ele>1680.8</ele>
        <time>2022-08-13T13:07:47Z</time>
      </trkpt>
      <trkpt lat="4.6570090" lon="-75.7015720">
        <ele>1679.6</ele>
        <time>2022-08-13T13:07:49Z</time>
      </trkpt>
      <trkpt lat="4.6570150" lon="-75.7017190">
        <ele>1678.4</ele>
        <time>2022-08-13T13:07:51Z</time>
      </trkpt>
      <trkpt lat="4.6570490" lon="-75.7019310">
        <ele>1677.6</ele>
        <time>2022-08-13T13:07:54Z</time>
      </trkpt>
      <trkpt lat="4.6570630" lon="-75.7020030">
        <ele>1677.2</ele>
        <time>2022-08-13T13:07:55Z</time>
      </trkpt>
      <trkpt lat="4.6570710" lon="-75.7020700">
        <ele>1677.0</ele>
        <time>2022-08-13T13:07:56Z</time>
      </trkpt>
      <trkpt lat="4.6570700" lon="-75.7021320">
        <ele>1676.8</ele>
        <time>2022-08-13T13:07:57Z</time>
      </trkpt>
      <trkpt lat="4.6570590" lon="-75.7021930">
        <ele>1676.6</ele>
        <time>2022-08-13T13:07:58Z</time>
      </trkpt>
      <trkpt lat="4.6570110" lon="-75.7023090">
        <ele>1676.6</ele>
        <time>2022-08-13T13:08:00Z</time>
      </trkpt>
      <trkpt lat="4.6569800" lon="-75.7023590">
        <ele>1676.6</ele>
        <time>2022-08-13T13:08:01Z</time>
      </trkpt>
      <trkpt lat="4.6568470" lon="-75.7025170">
        <ele>1676.4</ele>
        <time>2022-08-13T13:08:05Z</time>
      </trkpt>
      <trkpt lat="4.6568100" lon="-75.7025440">
        <ele>1676.4</ele>
        <time>2022-08-13T13:08:06Z</time>
      </trkpt>
      <trkpt lat="4.6567760" lon="-75.7025730">
        <ele>1676.6</ele>
        <time>2022-08-13T13:08:07Z</time>
      </trkpt>
      <trkpt lat="4.6566920" lon="-75.7026220">
        <ele>1676.6</ele>
        <time>2022-08-13T13:08:09Z</time>
      </trkpt>
      <trkpt lat="4.6566400" lon="-75.7026440">
        <ele>1677.2</ele>
        <time>2022-08-13T13:08:10Z</time>
      </trkpt>
      <trkpt lat="4.6564850" lon="-75.7027200">
        <ele>1678.0</ele>
        <time>2022-08-13T13:08:13Z</time>
      </trkpt>
      <trkpt lat="4.6564100" lon="-75.7027880">
        <ele>1678.0</ele>
        <time>2022-08-13T13:08:15Z</time>
      </trkpt>
      <trkpt lat="4.6563780" lon="-75.7028720">
        <ele>1678.0</ele>
        <time>2022-08-13T13:08:17Z</time>
      </trkpt>
      <trkpt lat="4.6563820" lon="-75.7029140">
        <ele>1678.0</ele>
        <time>2022-08-13T13:08:18Z</time>
      </trkpt>
      <trkpt lat="4.6563960" lon="-75.7029590">
        <ele>1678.0</ele>
        <time>2022-08-13T13:08:19Z</time>
      </trkpt>
      <trkpt lat="4.6564450" lon="-75.7030420">
        <ele>1678.0</ele>
        <time>2022-08-13T13:08:21Z</time>
      </trkpt>
      <trkpt lat="4.6564790" lon="-75.7030850">
        <ele>1677.8</ele>
        <time>2022-08-13T13:08:22Z</time>
      </trkpt>
      <trkpt lat="4.6565410" lon="-75.7031910">
        <ele>1677.2</ele>
        <time>2022-08-13T13:08:24Z</time>
      </trkpt>
      <trkpt lat="4.6565760" lon="-75.7033160">
        <ele>1676.6</ele>
        <time>2022-08-13T13:08:26Z</time>
      </trkpt>
      <trkpt lat="4.6565860" lon="-75.7033670">
        <ele>1676.4</ele>
        <time>2022-08-13T13:08:27Z</time>
      </trkpt>
      <trkpt lat="4.6565990" lon="-75.7034410">
        <ele>1675.8</ele>
        <time>2022-08-13T13:08:28Z</time>
      </trkpt>
      <trkpt lat="4.6566360" lon="-75.7035510">
        <ele>1674.6</ele>
        <time>2022-08-13T13:08:30Z</time>
      </trkpt>
      <trkpt lat="4.6566820" lon="-75.7036630">
        <ele>1673.4</ele>
        <time>2022-08-13T13:08:32Z</time>
      </trkpt>
      <trkpt lat="4.6567610" lon="-75.7038340">
        <ele>1672.2</ele>
        <time>2022-08-13T13:08:35Z</time>
      </trkpt>
      <trkpt lat="4.6568420" lon="-75.7039310">
        <ele>1671.8</ele>
        <time>2022-08-13T13:08:37Z</time>
      </trkpt>
      <trkpt lat="4.6569480" lon="-75.7039950">
        <ele>1670.6</ele>
        <time>2022-08-13T13:08:39Z</time>
      </trkpt>
      <trkpt lat="4.6569980" lon="-75.7040270">
        <ele>1670.0</ele>
        <time>2022-08-13T13:08:40Z</time>
      </trkpt>
      <trkpt lat="4.6570420" lon="-75.7040620">
        <ele>1669.8</ele>
        <time>2022-08-13T13:08:41Z</time>
      </trkpt>
      <trkpt lat="4.6570800" lon="-75.7041010">
        <ele>1669.4</ele>
        <time>2022-08-13T13:08:42Z</time>
      </trkpt>
      <trkpt lat="4.6571220" lon="-75.7041950">
        <ele>1668.4</ele>
        <time>2022-08-13T13:08:44Z</time>
      </trkpt>
      <trkpt lat="4.6571140" lon="-75.7042970">
        <ele>1667.2</ele>
        <time>2022-08-13T13:08:46Z</time>
      </trkpt>
      <trkpt lat="4.6570870" lon="-75.7043360">
        <ele>1666.8</ele>
        <time>2022-08-13T13:08:47Z</time>
      </trkpt>
      <trkpt lat="4.6570480" lon="-75.7043580">
        <ele>1666.2</ele>
        <time>2022-08-13T13:08:48Z</time>
      </trkpt>
      <trkpt lat="4.6569570" lon="-75.7043760">
        <ele>1665.4</ele>
        <time>2022-08-13T13:08:50Z</time>
      </trkpt>
      <trkpt lat="4.6569060" lon="-75.7043660">
        <ele>1665.0</ele>
        <time>2022-08-13T13:08:51Z</time>
      </trkpt>
      <trkpt lat="4.6567250" lon="-75.7043280">
        <ele>1663.8</ele>
        <time>2022-08-13T13:08:54Z</time>
      </trkpt>
      <trkpt lat="4.6566590" lon="-75.7043270">
        <ele>1663.6</ele>
        <time>2022-08-13T13:08:55Z</time>
      </trkpt>
      <trkpt lat="4.6565270" lon="-75.7043440">
        <ele>1663.2</ele>
        <time>2022-08-13T13:08:57Z</time>
      </trkpt>
      <trkpt lat="4.6564620" lon="-75.7043620">
        <ele>1662.8</ele>
        <time>2022-08-13T13:08:58Z</time>
      </trkpt>
      <trkpt lat="4.6564000" lon="-75.7043910">
        <ele>1662.8</ele>
        <time>2022-08-13T13:08:59Z</time>
      </trkpt>
      <trkpt lat="4.6563000" lon="-75.7044730">
        <ele>1662.2</ele>
        <time>2022-08-13T13:09:01Z</time>
      </trkpt>
      <trkpt lat="4.6562050" lon="-75.7045790">
        <ele>1661.8</ele>
        <time>2022-08-13T13:09:04Z</time>
      </trkpt>
      <trkpt lat="4.6561890" lon="-75.7046050">
        <ele>1661.8</ele>
        <time>2022-08-13T13:09:05Z</time>
      </trkpt>
      <trkpt lat="4.6561260" lon="-75.7047610">
        <ele>1661.4</ele>
        <time>2022-08-13T13:09:11Z</time>
      </trkpt>
      <trkpt lat="4.6561130" lon="-75.7049190">
        <ele>1661.8</ele>
        <time>2022-08-13T13:09:16Z</time>
      </trkpt>
      <trkpt lat="4.6561110" lon="-75.7049620">
        <ele>1661.8</ele>
        <time>2022-08-13T13:09:17Z</time>
      </trkpt>
      <trkpt lat="4.6561060" lon="-75.7050510">
        <ele>1661.8</ele>
        <time>2022-08-13T13:09:19Z</time>
      </trkpt>
      <trkpt lat="4.6561080" lon="-75.7051000">
        <ele>1661.8</ele>
        <time>2022-08-13T13:09:20Z</time>
      </trkpt>
      <trkpt lat="4.6561060" lon="-75.7052920">
        <ele>1661.8</ele>
        <time>2022-08-13T13:09:24Z</time>
      </trkpt>
      <trkpt lat="4.6561160" lon="-75.7053900">
        <ele>1662.0</ele>
        <time>2022-08-13T13:09:26Z</time>
      </trkpt>
      <trkpt lat="4.6561500" lon="-75.7054750">
        <ele>1662.0</ele>
        <time>2022-08-13T13:09:28Z</time>
      </trkpt>
      <trkpt lat="4.6561700" lon="-75.7055110">
        <ele>1662.2</ele>
        <time>2022-08-13T13:09:29Z</time>
      </trkpt>
      <trkpt lat="4.6562920" lon="-75.7057540">
        <ele>1662.6</ele>
        <time>2022-08-13T13:09:35Z</time>
      </trkpt>
      <trkpt lat="4.6563100" lon="-75.7057890">
        <ele>1662.6</ele>
        <time>2022-08-13T13:09:36Z</time>
      </trkpt>
      <trkpt lat="4.6563220" lon="-75.7058270">
        <ele>1663.0</ele>
        <time>2022-08-13T13:09:37Z</time>
      </trkpt>
      <trkpt lat="4.6563410" lon="-75.7059370">
        <ele>1664.0</ele>
        <time>2022-08-13T13:09:40Z</time>
      </trkpt>
      <trkpt lat="4.6563420" lon="-75.7059720">
        <ele>1664.4</ele>
        <time>2022-08-13T13:09:41Z</time>
      </trkpt>
      <trkpt lat="4.6563210" lon="-75.7060920">
        <ele>1665.8</ele>
        <time>2022-08-13T13:09:45Z</time>
      </trkpt>
      <trkpt lat="4.6563110" lon="-75.7061140">
        <ele>1666.2</ele>
        <time>2022-08-13T13:09:46Z</time>
      </trkpt>
      <trkpt lat="4.6562610" lon="-75.7061660">
        <ele>1666.8</ele>
        <time>2022-08-13T13:09:50Z</time>
      </trkpt>
      <trkpt lat="4.6562520" lon="-75.7061790">
        <ele>1667.0</ele>
        <time>2022-08-13T13:09:51Z</time>
      </trkpt>
      <trkpt lat="4.6562510" lon="-75.7061970">
        <ele>1667.2</ele>
        <time>2022-08-13T13:09:53Z</time>
      </trkpt>
      <trkpt lat="4.6562780" lon="-75.7062010">
        <ele>1667.2</ele>
        <time>2022-08-13T13:09:55Z</time>
      </trkpt>
      <trkpt lat="4.6563880" lon="-75.7062330">
        <ele>1667.4</ele>
        <time>2022-08-13T13:09:59Z</time>
      </trkpt>
      <trkpt lat="4.6565010" lon="-75.7063950">
        <ele>1667.4</ele>
        <time>2022-08-13T13:10:04Z</time>
      </trkpt>
      <trkpt lat="4.6566350" lon="-75.7066080">
        <ele>1667.4</ele>
        <time>2022-08-13T13:10:10Z</time>
      </trkpt>
      <trkpt lat="4.6566620" lon="-75.7066370">
        <ele>1667.4</ele>
        <time>2022-08-13T13:10:11Z</time>
      </trkpt>
      <trkpt lat="4.6569050" lon="-75.7068050">
        <ele>1667.4</ele>
        <time>2022-08-13T13:10:17Z</time>
      </trkpt>
      <trkpt lat="4.6571100" lon="-75.7069300">
        <ele>1666.0</ele>
        <time>2022-08-13T13:10:21Z</time>
      </trkpt>
      <trkpt lat="4.6571390" lon="-75.7069560">
        <ele>1665.4</ele>
        <time>2022-08-13T13:10:22Z</time>
      </trkpt>
      <trkpt lat="4.6571700" lon="-75.7069890">
        <ele>1664.6</ele>
        <time>2022-08-13T13:10:23Z</time>
      </trkpt>
      <trkpt lat="4.6572000" lon="-75.7070390">
        <ele>1663.4</ele>
        <time>2022-08-13T13:10:24Z</time>
      </trkpt>
      <trkpt lat="4.6572200" lon="-75.7070920">
        <ele>1662.2</ele>
        <time>2022-08-13T13:10:25Z</time>
      </trkpt>
      <trkpt lat="4.6572360" lon="-75.7071440">
        <ele>1661.2</ele>
        <time>2022-08-13T13:10:26Z</time>
      </trkpt>
      <trkpt lat="4.6572550" lon="-75.7072000">
        <ele>1659.8</ele>
        <time>2022-08-13T13:10:27Z</time>
      </trkpt>
      <trkpt lat="4.6573210" lon="-75.7073720">
        <ele>1658.2</ele>
        <time>2022-08-13T13:10:30Z</time>
      </trkpt>
      <trkpt lat="4.6573420" lon="-75.7074250">
        <ele>1657.6</ele>
        <time>2022-08-13T13:10:31Z</time>
      </trkpt>
      <trkpt lat="4.6573640" lon="-75.7074750">
        <ele>1656.8</ele>
        <time>2022-08-13T13:10:32Z</time>
      </trkpt>
      <trkpt lat="4.6573800" lon="-75.7075270">
        <ele>1656.2</ele>
        <time>2022-08-13T13:10:33Z</time>
      </trkpt>
      <trkpt lat="4.6573860" lon="-75.7076310">
        <ele>1655.8</ele>
        <time>2022-08-13T13:10:35Z</time>
      </trkpt>
      <trkpt lat="4.6573630" lon="-75.7077140">
        <ele>1655.6</ele>
        <time>2022-08-13T13:10:37Z</time>
      </trkpt>
      <trkpt lat="4.6573520" lon="-75.7077400">
        <ele>1655.6</ele>
        <time>2022-08-13T13:10:38Z</time>
      </trkpt>
      <trkpt lat="4.6573340" lon="-75.7077740">
        <ele>1655.6</ele>
        <time>2022-08-13T13:10:39Z</time>
      </trkpt>
      <trkpt lat="4.6572910" lon="-75.7078850">
        <ele>1656.0</ele>
        <time>2022-08-13T13:10:43Z</time>
      </trkpt>
      <trkpt lat="4.6572810" lon="-75.7079350">
        <ele>1656.8</ele>
        <time>2022-08-13T13:10:45Z</time>
      </trkpt>
      <trkpt lat="4.6572750" lon="-75.7079610">
        <ele>1657.6</ele>
        <time>2022-08-13T13:10:46Z</time>
      </trkpt>
      <trkpt lat="4.6572590" lon="-75.7080140">
        <ele>1658.8</ele>
        <time>2022-08-13T13:10:48Z</time>
      </trkpt>
      <trkpt lat="4.6572320" lon="-75.7081400">
        <ele>1659.8</ele>
        <time>2022-08-13T13:10:52Z</time>
      </trkpt>
      <trkpt lat="4.6572190" lon="-75.7081790">
        <ele>1659.8</ele>
        <time>2022-08-13T13:10:53Z</time>
      </trkpt>
      <trkpt lat="4.6572100" lon="-75.7082130">
        <ele>1660.4</ele>
        <time>2022-08-13T13:10:54Z</time>
      </trkpt>
      <trkpt lat="4.6572010" lon="-75.7082490">
        <ele>1660.8</ele>
        <time>2022-08-13T13:10:55Z</time>
      </trkpt>
      <trkpt lat="4.6571560" lon="-75.7083720">
        <ele>1662.0</ele>
        <time>2022-08-13T13:10:58Z</time>
      </trkpt>
      <trkpt lat="4.6571330" lon="-75.7084200">
        <ele>1662.0</ele>
        <time>2022-08-13T13:10:59Z</time>
      </trkpt>
      <trkpt lat="4.6570390" lon="-75.7086710">
        <ele>1662.2</ele>
        <time>2022-08-13T13:11:03Z</time>
      </trkpt>
      <trkpt lat="4.6570230" lon="-75.7087510">
        <ele>1662.2</ele>
        <time>2022-08-13T13:11:04Z</time>
      </trkpt>
      <trkpt lat="4.6569880" lon="-75.7091760">
        <ele>1661.6</ele>
        <time>2022-08-13T13:11:09Z</time>
      </trkpt>
      <trkpt lat="4.6569550" lon="-75.7093440">
        <ele>1660.6</ele>
        <time>2022-08-13T13:11:11Z</time>
      </trkpt>
      <trkpt lat="4.6568610" lon="-75.7095330">
        <ele>1660.2</ele>
        <time>2022-08-13T13:11:13Z</time>
      </trkpt>
      <trkpt lat="4.6567040" lon="-75.7097530">
        <ele>1659.6</ele>
        <time>2022-08-13T13:11:16Z</time>
      </trkpt>
      <trkpt lat="4.6565460" lon="-75.7099700">
        <ele>1658.6</ele>
        <time>2022-08-13T13:11:19Z</time>
      </trkpt>
      <trkpt lat="4.6565010" lon="-75.7100330">
        <ele>1658.6</ele>
        <time>2022-08-13T13:11:20Z</time>
      </trkpt>
      <trkpt lat="4.6563570" lon="-75.7102180">
        <ele>1658.4</ele>
        <time>2022-08-13T13:11:23Z</time>
      </trkpt>
      <trkpt lat="4.6562980" lon="-75.7102740">
        <ele>1658.4</ele>
        <time>2022-08-13T13:11:24Z</time>
      </trkpt>
      <trkpt lat="4.6561030" lon="-75.7104900">
        <ele>1657.4</ele>
        <time>2022-08-13T13:11:27Z</time>
      </trkpt>
      <trkpt lat="4.6560440" lon="-75.7105860">
        <ele>1657.2</ele>
        <time>2022-08-13T13:11:28Z</time>
      </trkpt>
      <trkpt lat="4.6559580" lon="-75.7107690">
        <ele>1657.2</ele>
        <time>2022-08-13T13:11:30Z</time>
      </trkpt>
      <trkpt lat="4.6559020" lon="-75.7110240">
        <ele>1657.0</ele>
        <time>2022-08-13T13:11:32Z</time>
      </trkpt>
      <trkpt lat="4.6558900" lon="-75.7112470">
        <ele>1655.2</ele>
        <time>2022-08-13T13:11:34Z</time>
      </trkpt>
      <trkpt lat="4.6558810" lon="-75.7114580">
        <ele>1653.0</ele>
        <time>2022-08-13T13:11:36Z</time>
      </trkpt>
      <trkpt lat="4.6558690" lon="-75.7115690">
        <ele>1651.2</ele>
        <time>2022-08-13T13:11:37Z</time>
      </trkpt>
      <trkpt lat="4.6558530" lon="-75.7116550">
        <ele>1649.4</ele>
        <time>2022-08-13T13:11:38Z</time>
      </trkpt>
      <trkpt lat="4.6558260" lon="-75.7117210">
        <ele>1647.4</ele>
        <time>2022-08-13T13:11:39Z</time>
      </trkpt>
      <trkpt lat="4.6557740" lon="-75.7117990">
        <ele>1645.6</ele>
        <time>2022-08-13T13:11:40Z</time>
      </trkpt>
      <trkpt lat="4.6556910" lon="-75.7118820">
        <ele>1644.2</ele>
        <time>2022-08-13T13:11:41Z</time>
      </trkpt>
      <trkpt lat="4.6556240" lon="-75.7119260">
        <ele>1643.2</ele>
        <time>2022-08-13T13:11:42Z</time>
      </trkpt>
      <trkpt lat="4.6555420" lon="-75.7119680">
        <ele>1642.4</ele>
        <time>2022-08-13T13:11:43Z</time>
      </trkpt>
      <trkpt lat="4.6554560" lon="-75.7119970">
        <ele>1642.0</ele>
        <time>2022-08-13T13:11:44Z</time>
      </trkpt>
      <trkpt lat="4.6552840" lon="-75.7120420">
        <ele>1640.8</ele>
        <time>2022-08-13T13:11:46Z</time>
      </trkpt>
      <trkpt lat="4.6551850" lon="-75.7121110">
        <ele>1638.6</ele>
        <time>2022-08-13T13:11:48Z</time>
      </trkpt>
      <trkpt lat="4.6551480" lon="-75.7121660">
        <ele>1637.8</ele>
        <time>2022-08-13T13:11:49Z</time>
      </trkpt>
      <trkpt lat="4.6551170" lon="-75.7122500">
        <ele>1636.8</ele>
        <time>2022-08-13T13:11:50Z</time>
      </trkpt>
      <trkpt lat="4.6550850" lon="-75.7124000">
        <ele>1636.0</ele>
        <time>2022-08-13T13:11:52Z</time>
      </trkpt>
      <trkpt lat="4.6550050" lon="-75.7126460">
        <ele>1636.0</ele>
        <time>2022-08-13T13:11:56Z</time>
      </trkpt>
      <trkpt lat="4.6549950" lon="-75.7127030">
        <ele>1636.0</ele>
        <time>2022-08-13T13:11:57Z</time>
      </trkpt>
      <trkpt lat="4.6549250" lon="-75.7132020">
        <ele>1638.0</ele>
        <time>2022-08-13T13:12:06Z</time>
      </trkpt>
      <trkpt lat="4.6548690" lon="-75.7134900">
        <ele>1638.6</ele>
        <time>2022-08-13T13:12:12Z</time>
      </trkpt>
      <trkpt lat="4.6548420" lon="-75.7135990">
        <ele>1639.2</ele>
        <time>2022-08-13T13:12:16Z</time>
      </trkpt>
      <trkpt lat="4.6548400" lon="-75.7136240">
        <ele>1639.4</ele>
        <time>2022-08-13T13:12:17Z</time>
      </trkpt>
      <trkpt lat="4.6548510" lon="-75.7137090">
        <ele>1640.4</ele>
        <time>2022-08-13T13:12:20Z</time>
      </trkpt>
      <trkpt lat="4.6548640" lon="-75.7137640">
        <ele>1641.6</ele>
        <time>2022-08-13T13:12:22Z</time>
      </trkpt>
      <trkpt lat="4.6548920" lon="-75.7138540">
        <ele>1642.8</ele>
        <time>2022-08-13T13:12:24Z</time>
      </trkpt>
      <trkpt lat="4.6550020" lon="-75.7140870">
        <ele>1643.2</ele>
        <time>2022-08-13T13:12:28Z</time>
      </trkpt>
      <trkpt lat="4.6551080" lon="-75.7142270">
        <ele>1643.2</ele>
        <time>2022-08-13T13:12:30Z</time>
      </trkpt>
      <trkpt lat="4.6551670" lon="-75.7142780">
        <ele>1643.2</ele>
        <time>2022-08-13T13:12:31Z</time>
      </trkpt>
      <trkpt lat="4.6552570" lon="-75.7143320">
        <ele>1643.2</ele>
        <time>2022-08-13T13:12:32Z</time>
      </trkpt>
      <trkpt lat="4.6554590" lon="-75.7144120">
        <ele>1643.0</ele>
        <time>2022-08-13T13:12:34Z</time>
      </trkpt>
      <trkpt lat="4.6556490" lon="-75.7145110">
        <ele>1641.2</ele>
        <time>2022-08-13T13:12:36Z</time>
      </trkpt>
      <trkpt lat="4.6557430" lon="-75.7145720">
        <ele>1639.8</ele>
        <time>2022-08-13T13:12:37Z</time>
      </trkpt>
      <trkpt lat="4.6558120" lon="-75.7146220">
        <ele>1639.2</ele>
        <time>2022-08-13T13:12:38Z</time>
      </trkpt>
      <trkpt lat="4.6559170" lon="-75.7146960">
        <ele>1638.6</ele>
        <time>2022-08-13T13:12:40Z</time>
      </trkpt>
      <trkpt lat="4.6560650" lon="-75.7148000">
        <ele>1637.6</ele>
        <time>2022-08-13T13:12:42Z</time>
      </trkpt>
      <trkpt lat="4.6562990" lon="-75.7149470">
        <ele>1636.6</ele>
        <time>2022-08-13T13:12:45Z</time>
      </trkpt>
      <trkpt lat="4.6563900" lon="-75.7150040">
        <ele>1636.2</ele>
        <time>2022-08-13T13:12:46Z</time>
      </trkpt>
      <trkpt lat="4.6566060" lon="-75.7151360">
        <ele>1635.6</ele>
        <time>2022-08-13T13:12:48Z</time>
      </trkpt>
      <trkpt lat="4.6568370" lon="-75.7152890">
        <ele>1634.6</ele>
        <time>2022-08-13T13:12:51Z</time>
      </trkpt>
      <trkpt lat="4.6569400" lon="-75.7154340">
        <ele>1634.2</ele>
        <time>2022-08-13T13:12:53Z</time>
      </trkpt>
      <trkpt lat="4.6569630" lon="-75.7155150">
        <ele>1633.4</ele>
        <time>2022-08-13T13:12:54Z</time>
      </trkpt>
      <trkpt lat="4.6569680" lon="-75.7156010">
        <ele>1632.6</ele>
        <time>2022-08-13T13:12:55Z</time>
      </trkpt>
      <trkpt lat="4.6569330" lon="-75.7157720">
        <ele>1631.6</ele>
        <time>2022-08-13T13:12:57Z</time>
      </trkpt>
      <trkpt lat="4.6567980" lon="-75.7160140">
        <ele>1631.0</ele>
        <time>2022-08-13T13:13:00Z</time>
      </trkpt>
      <trkpt lat="4.6567210" lon="-75.7161060">
        <ele>1631.0</ele>
        <time>2022-08-13T13:13:01Z</time>
      </trkpt>
      <trkpt lat="4.6565850" lon="-75.7162660">
        <ele>1630.8</ele>
        <time>2022-08-13T13:13:03Z</time>
      </trkpt>
      <trkpt lat="4.6564200" lon="-75.7165050">
        <ele>1630.6</ele>
        <time>2022-08-13T13:13:06Z</time>
      </trkpt>
      <trkpt lat="4.6563840" lon="-75.7165840">
        <ele>1630.6</ele>
        <time>2022-08-13T13:13:07Z</time>
      </trkpt>
      <trkpt lat="4.6563440" lon="-75.7167490">
        <ele>1629.4</ele>
        <time>2022-08-13T13:13:09Z</time>
      </trkpt>
      <trkpt lat="4.6563410" lon="-75.7168620">
        <ele>1628.4</ele>
        <time>2022-08-13T13:13:10Z</time>
      </trkpt>
      <trkpt lat="4.6563420" lon="-75.7169790">
        <ele>1627.4</ele>
        <time>2022-08-13T13:13:11Z</time>
      </trkpt>
      <trkpt lat="4.6563540" lon="-75.7171250">
        <ele>1626.2</ele>
        <time>2022-08-13T13:13:12Z</time>
      </trkpt>
      <trkpt lat="4.6563810" lon="-75.7173430">
        <ele>1624.2</ele>
        <time>2022-08-13T13:13:14Z</time>
      </trkpt>
      <trkpt lat="4.6563930" lon="-75.7174860">
        <ele>1622.8</ele>
        <time>2022-08-13T13:13:15Z</time>
      </trkpt>
      <trkpt lat="4.6563920" lon="-75.7176010">
        <ele>1621.8</ele>
        <time>2022-08-13T13:13:16Z</time>
      </trkpt>
      <trkpt lat="4.6563880" lon="-75.7177120">
        <ele>1620.6</ele>
        <time>2022-08-13T13:13:17Z</time>
      </trkpt>
      <trkpt lat="4.6563850" lon="-75.7177940">
        <ele>1619.2</ele>
        <time>2022-08-13T13:13:18Z</time>
      </trkpt>
      <trkpt lat="4.6563720" lon="-75.7180570">
        <ele>1618.2</ele>
        <time>2022-08-13T13:13:21Z</time>
      </trkpt>
      <trkpt lat="4.6562920" lon="-75.7184190">
        <ele>1618.0</ele>
        <time>2022-08-13T13:13:26Z</time>
      </trkpt>
      <trkpt lat="4.6562430" lon="-75.7185770">
        <ele>1617.0</ele>
        <time>2022-08-13T13:13:28Z</time>
      </trkpt>
      <trkpt lat="4.6562250" lon="-75.7186640">
        <ele>1616.2</ele>
        <time>2022-08-13T13:13:29Z</time>
      </trkpt>
      <trkpt lat="4.6562240" lon="-75.7187740">
        <ele>1616.0</ele>
        <time>2022-08-13T13:13:30Z</time>
      </trkpt>
      <trkpt lat="4.6562500" lon="-75.7188700">
        <ele>1615.8</ele>
        <time>2022-08-13T13:13:31Z</time>
      </trkpt>
      <trkpt lat="4.6563220" lon="-75.7190350">
        <ele>1615.6</ele>
        <time>2022-08-13T13:13:33Z</time>
      </trkpt>
      <trkpt lat="4.6564150" lon="-75.7192250">
        <ele>1615.6</ele>
        <time>2022-08-13T13:13:35Z</time>
      </trkpt>
      <trkpt lat="4.6565210" lon="-75.7193650">
        <ele>1615.2</ele>
        <time>2022-08-13T13:13:37Z</time>
      </trkpt>
      <trkpt lat="4.6566200" lon="-75.7194570">
        <ele>1614.8</ele>
        <time>2022-08-13T13:13:39Z</time>
      </trkpt>
      <trkpt lat="4.6567300" lon="-75.7195640">
        <ele>1614.6</ele>
        <time>2022-08-13T13:13:41Z</time>
      </trkpt>
      <trkpt lat="4.6568920" lon="-75.7197390">
        <ele>1614.0</ele>
        <time>2022-08-13T13:13:44Z</time>
      </trkpt>
      <trkpt lat="4.6569460" lon="-75.7198110">
        <ele>1613.6</ele>
        <time>2022-08-13T13:13:45Z</time>
      </trkpt>
      <trkpt lat="4.6570050" lon="-75.7198900">
        <ele>1613.4</ele>
        <time>2022-08-13T13:13:46Z</time>
      </trkpt>
      <trkpt lat="4.6571220" lon="-75.7200460">
        <ele>1612.6</ele>
        <time>2022-08-13T13:13:48Z</time>
      </trkpt>
      <trkpt lat="4.6572060" lon="-75.7201510">
        <ele>1612.4</ele>
        <time>2022-08-13T13:13:49Z</time>
      </trkpt>
      <trkpt lat="4.6575020" lon="-75.7206030">
        <ele>1612.0</ele>
        <time>2022-08-13T13:13:54Z</time>
      </trkpt>
      <trkpt lat="4.6575610" lon="-75.7206890">
        <ele>1611.0</ele>
        <time>2022-08-13T13:13:55Z</time>
      </trkpt>
      <trkpt lat="4.6576200" lon="-75.7207790">
        <ele>1609.6</ele>
        <time>2022-08-13T13:13:56Z</time>
      </trkpt>
      <trkpt lat="4.6576650" lon="-75.7208570">
        <ele>1608.8</ele>
        <time>2022-08-13T13:13:57Z</time>
      </trkpt>
      <trkpt lat="4.6577220" lon="-75.7209810">
        <ele>1608.2</ele>
        <time>2022-08-13T13:13:58Z</time>
      </trkpt>
      <trkpt lat="4.6577540" lon="-75.7210730">
        <ele>1607.8</ele>
        <time>2022-08-13T13:13:59Z</time>
      </trkpt>
      <trkpt lat="4.6578680" lon="-75.7214490">
        <ele>1606.8</ele>
        <time>2022-08-13T13:14:02Z</time>
      </trkpt>
      <trkpt lat="4.6579130" lon="-75.7215980">
        <ele>1606.4</ele>
        <time>2022-08-13T13:14:03Z</time>
      </trkpt>
      <trkpt lat="4.6579980" lon="-75.7218070">
        <ele>1605.4</ele>
        <time>2022-08-13T13:14:05Z</time>
      </trkpt>
      <trkpt lat="4.6580380" lon="-75.7218770">
        <ele>1604.4</ele>
        <time>2022-08-13T13:14:06Z</time>
      </trkpt>
      <trkpt lat="4.6580930" lon="-75.7219580">
        <ele>1602.6</ele>
        <time>2022-08-13T13:14:07Z</time>
      </trkpt>
      <trkpt lat="4.6581560" lon="-75.7220280">
        <ele>1600.4</ele>
        <time>2022-08-13T13:14:08Z</time>
      </trkpt>
      <trkpt lat="4.6582330" lon="-75.7220780">
        <ele>1598.6</ele>
        <time>2022-08-13T13:14:09Z</time>
      </trkpt>
      <trkpt lat="4.6583270" lon="-75.7221130">
        <ele>1596.8</ele>
        <time>2022-08-13T13:14:10Z</time>
      </trkpt>
      <trkpt lat="4.6584300" lon="-75.7221360">
        <ele>1595.4</ele>
        <time>2022-08-13T13:14:11Z</time>
      </trkpt>
      <trkpt lat="4.6585310" lon="-75.7221560">
        <ele>1595.4</ele>
        <time>2022-08-13T13:14:12Z</time>
      </trkpt>
      <trkpt lat="4.6586410" lon="-75.7221900">
        <ele>1594.0</ele>
        <time>2022-08-13T13:14:13Z</time>
      </trkpt>
      <trkpt lat="4.6587670" lon="-75.7222820">
        <ele>1592.0</ele>
        <time>2022-08-13T13:14:15Z</time>
      </trkpt>
      <trkpt lat="4.6588110" lon="-75.7223530">
        <ele>1590.8</ele>
        <time>2022-08-13T13:14:16Z</time>
      </trkpt>
      <trkpt lat="4.6588550" lon="-75.7224450">
        <ele>1588.8</ele>
        <time>2022-08-13T13:14:17Z</time>
      </trkpt>
      <trkpt lat="4.6588890" lon="-75.7225250">
        <ele>1587.0</ele>
        <time>2022-08-13T13:14:18Z</time>
      </trkpt>
      <trkpt lat="4.6589260" lon="-75.7226090">
        <ele>1585.4</ele>
        <time>2022-08-13T13:14:19Z</time>
      </trkpt>
      <trkpt lat="4.6589560" lon="-75.7226760">
        <ele>1584.4</ele>
        <time>2022-08-13T13:14:20Z</time>
      </trkpt>
      <trkpt lat="4.6590210" lon="-75.7228280">
        <ele>1583.2</ele>
        <time>2022-08-13T13:14:22Z</time>
      </trkpt>
      <trkpt lat="4.6590440" lon="-75.7228980">
        <ele>1582.8</ele>
        <time>2022-08-13T13:14:23Z</time>
      </trkpt>
      <trkpt lat="4.6590520" lon="-75.7229720">
        <ele>1582.4</ele>
        <time>2022-08-13T13:14:24Z</time>
      </trkpt>
      <trkpt lat="4.6590390" lon="-75.7230540">
        <ele>1582.2</ele>
        <time>2022-08-13T13:14:25Z</time>
      </trkpt>
      <trkpt lat="4.6590110" lon="-75.7231410">
        <ele>1582.0</ele>
        <time>2022-08-13T13:14:26Z</time>
      </trkpt>
      <trkpt lat="4.6589630" lon="-75.7232480">
        <ele>1581.8</ele>
        <time>2022-08-13T13:14:27Z</time>
      </trkpt>
      <trkpt lat="4.6587700" lon="-75.7235740">
        <ele>1581.2</ele>
        <time>2022-08-13T13:14:31Z</time>
      </trkpt>
      <trkpt lat="4.6587090" lon="-75.7236590">
        <ele>1580.8</ele>
        <time>2022-08-13T13:14:32Z</time>
      </trkpt>
      <trkpt lat="4.6586570" lon="-75.7237150">
        <ele>1580.6</ele>
        <time>2022-08-13T13:14:33Z</time>
      </trkpt>
      <trkpt lat="4.6585430" lon="-75.7238000">
        <ele>1580.6</ele>
        <time>2022-08-13T13:14:35Z</time>
      </trkpt>
      <trkpt lat="4.6582710" lon="-75.7240070">
        <ele>1579.6</ele>
        <time>2022-08-13T13:14:39Z</time>
      </trkpt>
      <trkpt lat="4.6581960" lon="-75.7240760">
        <ele>1579.2</ele>
        <time>2022-08-13T13:14:40Z</time>
      </trkpt>
      <trkpt lat="4.6580440" lon="-75.7242170">
        <ele>1578.6</ele>
        <time>2022-08-13T13:14:42Z</time>
      </trkpt>
      <trkpt lat="4.6578440" lon="-75.7244360">
        <ele>1577.8</ele>
        <time>2022-08-13T13:14:45Z</time>
      </trkpt>
      <trkpt lat="4.6577700" lon="-75.7245960">
        <ele>1577.8</ele>
        <time>2022-08-13T13:14:47Z</time>
      </trkpt>
      <trkpt lat="4.6577570" lon="-75.7246780">
        <ele>1578.0</ele>
        <time>2022-08-13T13:14:48Z</time>
      </trkpt>
      <trkpt lat="4.6577570" lon="-75.7248280">
        <ele>1577.8</ele>
        <time>2022-08-13T13:14:50Z</time>
      </trkpt>
      <trkpt lat="4.6577680" lon="-75.7249160">
        <ele>1577.4</ele>
        <time>2022-08-13T13:14:51Z</time>
      </trkpt>
      <trkpt lat="4.6577890" lon="-75.7250050">
        <ele>1577.0</ele>
        <time>2022-08-13T13:14:52Z</time>
      </trkpt>
      <trkpt lat="4.6578220" lon="-75.7251000">
        <ele>1576.8</ele>
        <time>2022-08-13T13:14:53Z</time>
      </trkpt>
      <trkpt lat="4.6578730" lon="-75.7251990">
        <ele>1576.4</ele>
        <time>2022-08-13T13:14:54Z</time>
      </trkpt>
      <trkpt lat="4.6579360" lon="-75.7252960">
        <ele>1576.2</ele>
        <time>2022-08-13T13:14:55Z</time>
      </trkpt>
      <trkpt lat="4.6580710" lon="-75.7254930">
        <ele>1576.0</ele>
        <time>2022-08-13T13:14:57Z</time>
      </trkpt>
      <trkpt lat="4.6581610" lon="-75.7256830">
        <ele>1575.8</ele>
        <time>2022-08-13T13:14:59Z</time>
      </trkpt>
      <trkpt lat="4.6582060" lon="-75.7258770">
        <ele>1575.4</ele>
        <time>2022-08-13T13:15:01Z</time>
      </trkpt>
      <trkpt lat="4.6582150" lon="-75.7259730">
        <ele>1574.6</ele>
        <time>2022-08-13T13:15:02Z</time>
      </trkpt>
      <trkpt lat="4.6582190" lon="-75.7260700">
        <ele>1573.6</ele>
        <time>2022-08-13T13:15:03Z</time>
      </trkpt>
      <trkpt lat="4.6582140" lon="-75.7263750">
        <ele>1572.4</ele>
        <time>2022-08-13T13:15:06Z</time>
      </trkpt>
      <trkpt lat="4.6582110" lon="-75.7264840">
        <ele>1572.2</ele>
        <time>2022-08-13T13:15:07Z</time>
      </trkpt>
      <trkpt lat="4.6581470" lon="-75.7270280">
        <ele>1571.4</ele>
        <time>2022-08-13T13:15:12Z</time>
      </trkpt>
      <trkpt lat="4.6581260" lon="-75.7271350">
        <ele>1571.2</ele>
        <time>2022-08-13T13:15:13Z</time>
      </trkpt>
      <trkpt lat="4.6580660" lon="-75.7273550">
        <ele>1570.0</ele>
        <time>2022-08-13T13:15:15Z</time>
      </trkpt>
      <trkpt lat="4.6580290" lon="-75.7274640">
        <ele>1569.2</ele>
        <time>2022-08-13T13:15:16Z</time>
      </trkpt>
      <trkpt lat="4.6579920" lon="-75.7275750">
        <ele>1568.4</ele>
        <time>2022-08-13T13:15:17Z</time>
      </trkpt>
      <trkpt lat="4.6578900" lon="-75.7278850">
        <ele>1567.4</ele>
        <time>2022-08-13T13:15:20Z</time>
      </trkpt>
      <trkpt lat="4.6578720" lon="-75.7280940">
        <ele>1565.8</ele>
        <time>2022-08-13T13:15:22Z</time>
      </trkpt>
      <trkpt lat="4.6578860" lon="-75.7283040">
        <ele>1564.0</ele>
        <time>2022-08-13T13:15:24Z</time>
      </trkpt>
      <trkpt lat="4.6579000" lon="-75.7283980">
        <ele>1562.8</ele>
        <time>2022-08-13T13:15:25Z</time>
      </trkpt>
      <trkpt lat="4.6579220" lon="-75.7284800">
        <ele>1561.8</ele>
        <time>2022-08-13T13:15:26Z</time>
      </trkpt>
      <trkpt lat="4.6579550" lon="-75.7285520">
        <ele>1560.8</ele>
        <time>2022-08-13T13:15:27Z</time>
      </trkpt>
      <trkpt lat="4.6580040" lon="-75.7286100">
        <ele>1559.8</ele>
        <time>2022-08-13T13:15:28Z</time>
      </trkpt>
      <trkpt lat="4.6580740" lon="-75.7286610">
        <ele>1559.0</ele>
        <time>2022-08-13T13:15:29Z</time>
      </trkpt>
      <trkpt lat="4.6581580" lon="-75.7287080">
        <ele>1558.2</ele>
        <time>2022-08-13T13:15:30Z</time>
      </trkpt>
      <trkpt lat="4.6582480" lon="-75.7287650">
        <ele>1557.2</ele>
        <time>2022-08-13T13:15:31Z</time>
      </trkpt>
      <trkpt lat="4.6583390" lon="-75.7288400">
        <ele>1556.0</ele>
        <time>2022-08-13T13:15:32Z</time>
      </trkpt>
      <trkpt lat="4.6584270" lon="-75.7289260">
        <ele>1555.0</ele>
        <time>2022-08-13T13:15:33Z</time>
      </trkpt>
      <trkpt lat="4.6584940" lon="-75.7289990">
        <ele>1554.2</ele>
        <time>2022-08-13T13:15:34Z</time>
      </trkpt>
      <trkpt lat="4.6586640" lon="-75.7291870">
        <ele>1552.8</ele>
        <time>2022-08-13T13:15:36Z</time>
      </trkpt>
      <trkpt lat="4.6587740" lon="-75.7292910">
        <ele>1551.4</ele>
        <time>2022-08-13T13:15:37Z</time>
      </trkpt>
      <trkpt lat="4.6588700" lon="-75.7293600">
        <ele>1549.8</ele>
        <time>2022-08-13T13:15:38Z</time>
      </trkpt>
      <trkpt lat="4.6589690" lon="-75.7294210">
        <ele>1548.0</ele>
        <time>2022-08-13T13:15:39Z</time>
      </trkpt>
      <trkpt lat="4.6590650" lon="-75.7294760">
        <ele>1545.8</ele>
        <time>2022-08-13T13:15:40Z</time>
      </trkpt>
      <trkpt lat="4.6591360" lon="-75.7295220">
        <ele>1545.8</ele>
        <time>2022-08-13T13:15:41Z</time>
      </trkpt>
      <trkpt lat="4.6592260" lon="-75.7295970">
        <ele>1544.0</ele>
        <time>2022-08-13T13:15:42Z</time>
      </trkpt>
      <trkpt lat="4.6592690" lon="-75.7296750">
        <ele>1542.8</ele>
        <time>2022-08-13T13:15:43Z</time>
      </trkpt>
      <trkpt lat="4.6592900" lon="-75.7298280">
        <ele>1541.2</ele>
        <time>2022-08-13T13:15:45Z</time>
      </trkpt>
      <trkpt lat="4.6592780" lon="-75.7299130">
        <ele>1541.0</ele>
        <time>2022-08-13T13:15:46Z</time>
      </trkpt>
      <trkpt lat="4.6592380" lon="-75.7300780">
        <ele>1540.8</ele>
        <time>2022-08-13T13:15:48Z</time>
      </trkpt>
      <trkpt lat="4.6592370" lon="-75.7301700">
        <ele>1540.8</ele>
        <time>2022-08-13T13:15:49Z</time>
      </trkpt>
      <trkpt lat="4.6592460" lon="-75.7302270">
        <ele>1540.8</ele>
        <time>2022-08-13T13:15:50Z</time>
      </trkpt>
      <trkpt lat="4.6593210" lon="-75.7304730">
        <ele>1540.8</ele>
        <time>2022-08-13T13:15:53Z</time>
      </trkpt>
      <trkpt lat="4.6593720" lon="-75.7306370">
        <ele>1540.8</ele>
        <time>2022-08-13T13:15:55Z</time>
      </trkpt>
      <trkpt lat="4.6594910" lon="-75.7311100">
        <ele>1540.6</ele>
        <time>2022-08-13T13:15:59Z</time>
      </trkpt>
      <trkpt lat="4.6595300" lon="-75.7313380">
        <ele>1540.6</ele>
        <time>2022-08-13T13:16:01Z</time>
      </trkpt>
      <trkpt lat="4.6595310" lon="-75.7314760">
        <ele>1540.6</ele>
        <time>2022-08-13T13:16:02Z</time>
      </trkpt>
      <trkpt lat="4.6595140" lon="-75.7316390">
        <ele>1540.4</ele>
        <time>2022-08-13T13:16:03Z</time>
      </trkpt>
      <trkpt lat="4.6594690" lon="-75.7318710">
        <ele>1539.4</ele>
        <time>2022-08-13T13:16:05Z</time>
      </trkpt>
      <trkpt lat="4.6594390" lon="-75.7319930">
        <ele>1537.8</ele>
        <time>2022-08-13T13:16:06Z</time>
      </trkpt>
      <trkpt lat="4.6594090" lon="-75.7321330">
        <ele>1536.0</ele>
        <time>2022-08-13T13:16:07Z</time>
      </trkpt>
      <trkpt lat="4.6593950" lon="-75.7322260">
        <ele>1534.0</ele>
        <time>2022-08-13T13:16:08Z</time>
      </trkpt>
      <trkpt lat="4.6593860" lon="-75.7323440">
        <ele>1531.8</ele>
        <time>2022-08-13T13:16:09Z</time>
      </trkpt>
      <trkpt lat="4.6593890" lon="-75.7324650">
        <ele>1529.2</ele>
        <time>2022-08-13T13:16:10Z</time>
      </trkpt>
      <trkpt lat="4.6594050" lon="-75.7325860">
        <ele>1527.0</ele>
        <time>2022-08-13T13:16:11Z</time>
      </trkpt>
      <trkpt lat="4.6594390" lon="-75.7327250">
        <ele>1524.8</ele>
        <time>2022-08-13T13:16:12Z</time>
      </trkpt>
      <trkpt lat="4.6594860" lon="-75.7328380">
        <ele>1523.4</ele>
        <time>2022-08-13T13:16:13Z</time>
      </trkpt>
      <trkpt lat="4.6595980" lon="-75.7330260">
        <ele>1521.4</ele>
        <time>2022-08-13T13:16:15Z</time>
      </trkpt>
      <trkpt lat="4.6597670" lon="-75.7331890">
        <ele>1519.6</ele>
        <time>2022-08-13T13:16:17Z</time>
      </trkpt>
      <trkpt lat="4.6598670" lon="-75.7332480">
        <ele>1518.6</ele>
        <time>2022-08-13T13:16:18Z</time>
      </trkpt>
      <trkpt lat="4.6599740" lon="-75.7332960">
        <ele>1517.8</ele>
        <time>2022-08-13T13:16:19Z</time>
      </trkpt>
      <trkpt lat="4.6600830" lon="-75.7333420">
        <ele>1516.8</ele>
        <time>2022-08-13T13:16:20Z</time>
      </trkpt>
      <trkpt lat="4.6602090" lon="-75.7334030">
        <ele>1515.8</ele>
        <time>2022-08-13T13:16:21Z</time>
      </trkpt>
      <trkpt lat="4.6603730" lon="-75.7334970">
        <ele>1514.4</ele>
        <time>2022-08-13T13:16:23Z</time>
      </trkpt>
      <trkpt lat="4.6604450" lon="-75.7335560">
        <ele>1513.8</ele>
        <time>2022-08-13T13:16:24Z</time>
      </trkpt>
      <trkpt lat="4.6604910" lon="-75.7336280">
        <ele>1513.0</ele>
        <time>2022-08-13T13:16:25Z</time>
      </trkpt>
      <trkpt lat="4.6605170" lon="-75.7337110">
        <ele>1513.0</ele>
        <time>2022-08-13T13:16:26Z</time>
      </trkpt>
      <trkpt lat="4.6605070" lon="-75.7338990">
        <ele>1511.2</ele>
        <time>2022-08-13T13:16:28Z</time>
      </trkpt>
      <trkpt lat="4.6604360" lon="-75.7341360">
        <ele>1510.0</ele>
        <time>2022-08-13T13:16:30Z</time>
      </trkpt>
      <trkpt lat="4.6603990" lon="-75.7342550">
        <ele>1509.8</ele>
        <time>2022-08-13T13:16:31Z</time>
      </trkpt>
      <trkpt lat="4.6602560" lon="-75.7347760">
        <ele>1508.8</ele>
        <time>2022-08-13T13:16:35Z</time>
      </trkpt>
      <trkpt lat="4.6602270" lon="-75.7349070">
        <ele>1508.0</ele>
        <time>2022-08-13T13:16:36Z</time>
      </trkpt>
      <trkpt lat="4.6602030" lon="-75.7350330">
        <ele>1506.6</ele>
        <time>2022-08-13T13:16:37Z</time>
      </trkpt>
      <trkpt lat="4.6601790" lon="-75.7351530">
        <ele>1505.2</ele>
        <time>2022-08-13T13:16:38Z</time>
      </trkpt>
      <trkpt lat="4.6601570" lon="-75.7352660">
        <ele>1504.0</ele>
        <time>2022-08-13T13:16:39Z</time>
      </trkpt>
      <trkpt lat="4.6601360" lon="-75.7353780">
        <ele>1502.6</ele>
        <time>2022-08-13T13:16:40Z</time>
      </trkpt>
      <trkpt lat="4.6601200" lon="-75.7354900">
        <ele>1501.2</ele>
        <time>2022-08-13T13:16:41Z</time>
      </trkpt>
      <trkpt lat="4.6601080" lon="-75.7356050">
        <ele>1499.8</ele>
        <time>2022-08-13T13:16:42Z</time>
      </trkpt>
      <trkpt lat="4.6600960" lon="-75.7357220">
        <ele>1498.8</ele>
        <time>2022-08-13T13:16:43Z</time>
      </trkpt>
      <trkpt lat="4.6600780" lon="-75.7359570">
        <ele>1497.6</ele>
        <time>2022-08-13T13:16:45Z</time>
      </trkpt>
      <trkpt lat="4.6600670" lon="-75.7360710">
        <ele>1497.2</ele>
        <time>2022-08-13T13:16:46Z</time>
      </trkpt>
      <trkpt lat="4.6600570" lon="-75.7363800">
        <ele>1496.2</ele>
        <time>2022-08-13T13:16:49Z</time>
      </trkpt>
      <trkpt lat="4.6600740" lon="-75.7364730">
        <ele>1495.4</ele>
        <time>2022-08-13T13:16:50Z</time>
      </trkpt>
      <trkpt lat="4.6601060" lon="-75.7365580">
        <ele>1494.6</ele>
        <time>2022-08-13T13:16:51Z</time>
      </trkpt>
      <trkpt lat="4.6601540" lon="-75.7366330">
        <ele>1493.6</ele>
        <time>2022-08-13T13:16:52Z</time>
      </trkpt>
      <trkpt lat="4.6602170" lon="-75.7366970">
        <ele>1492.2</ele>
        <time>2022-08-13T13:16:53Z</time>
      </trkpt>
      <trkpt lat="4.6602770" lon="-75.7367650">
        <ele>1490.6</ele>
        <time>2022-08-13T13:16:54Z</time>
      </trkpt>
      <trkpt lat="4.6603270" lon="-75.7368400">
        <ele>1488.8</ele>
        <time>2022-08-13T13:16:55Z</time>
      </trkpt>
      <trkpt lat="4.6603660" lon="-75.7369170">
        <ele>1487.8</ele>
        <time>2022-08-13T13:16:56Z</time>
      </trkpt>
      <trkpt lat="4.6603920" lon="-75.7369810">
        <ele>1486.6</ele>
        <time>2022-08-13T13:16:57Z</time>
      </trkpt>
      <trkpt lat="4.6605040" lon="-75.7372500">
        <ele>1485.6</ele>
        <time>2022-08-13T13:17:00Z</time>
      </trkpt>
      <trkpt lat="4.6606030" lon="-75.7374290">
        <ele>1485.0</ele>
        <time>2022-08-13T13:17:02Z</time>
      </trkpt>
      <trkpt lat="4.6608180" lon="-75.7378250">
        <ele>1484.4</ele>
        <time>2022-08-13T13:17:06Z</time>
      </trkpt>
      <trkpt lat="4.6608640" lon="-75.7379340">
        <ele>1484.4</ele>
        <time>2022-08-13T13:17:07Z</time>
      </trkpt>
      <trkpt lat="4.6609660" lon="-75.7382560">
        <ele>1483.0</ele>
        <time>2022-08-13T13:17:10Z</time>
      </trkpt>
      <trkpt lat="4.6609630" lon="-75.7384340">
        <ele>1482.0</ele>
        <time>2022-08-13T13:17:12Z</time>
      </trkpt>
      <trkpt lat="4.6609390" lon="-75.7385090">
        <ele>1481.0</ele>
        <time>2022-08-13T13:17:13Z</time>
      </trkpt>
      <trkpt lat="4.6608980" lon="-75.7385770">
        <ele>1480.0</ele>
        <time>2022-08-13T13:17:14Z</time>
      </trkpt>
      <trkpt lat="4.6608390" lon="-75.7386350">
        <ele>1478.8</ele>
        <time>2022-08-13T13:17:15Z</time>
      </trkpt>
      <trkpt lat="4.6607690" lon="-75.7386870">
        <ele>1477.6</ele>
        <time>2022-08-13T13:17:16Z</time>
      </trkpt>
      <trkpt lat="4.6606090" lon="-75.7387690">
        <ele>1476.0</ele>
        <time>2022-08-13T13:17:18Z</time>
      </trkpt>
      <trkpt lat="4.6604410" lon="-75.7388420">
        <ele>1475.6</ele>
        <time>2022-08-13T13:17:20Z</time>
      </trkpt>
      <trkpt lat="4.6601810" lon="-75.7389740">
        <ele>1475.0</ele>
        <time>2022-08-13T13:17:23Z</time>
      </trkpt>
      <trkpt lat="4.6600030" lon="-75.7390880">
        <ele>1474.8</ele>
        <time>2022-08-13T13:17:25Z</time>
      </trkpt>
      <trkpt lat="4.6596190" lon="-75.7393420">
        <ele>1474.0</ele>
        <time>2022-08-13T13:17:29Z</time>
      </trkpt>
      <trkpt lat="4.6594440" lon="-75.7394620">
        <ele>1472.6</ele>
        <time>2022-08-13T13:17:31Z</time>
      </trkpt>
      <trkpt lat="4.6592920" lon="-75.7395750">
        <ele>1471.6</ele>
        <time>2022-08-13T13:17:33Z</time>
      </trkpt>
      <trkpt lat="4.6592270" lon="-75.7396360">
        <ele>1470.4</ele>
        <time>2022-08-13T13:17:34Z</time>
      </trkpt>
      <trkpt lat="4.6591650" lon="-75.7397130">
        <ele>1468.4</ele>
        <time>2022-08-13T13:17:35Z</time>
      </trkpt>
      <trkpt lat="4.6591110" lon="-75.7398010">
        <ele>1466.4</ele>
        <time>2022-08-13T13:17:36Z</time>
      </trkpt>
      <trkpt lat="4.6590560" lon="-75.7399180">
        <ele>1464.8</ele>
        <time>2022-08-13T13:17:37Z</time>
      </trkpt>
      <trkpt lat="4.6590160" lon="-75.7400320">
        <ele>1463.8</ele>
        <time>2022-08-13T13:17:38Z</time>
      </trkpt>
      <trkpt lat="4.6589860" lon="-75.7401550">
        <ele>1463.0</ele>
        <time>2022-08-13T13:17:39Z</time>
      </trkpt>
      <trkpt lat="4.6589760" lon="-75.7402780">
        <ele>1462.2</ele>
        <time>2022-08-13T13:17:40Z</time>
      </trkpt>
      <trkpt lat="4.6589590" lon="-75.7405240">
        <ele>1460.2</ele>
        <time>2022-08-13T13:17:42Z</time>
      </trkpt>
      <trkpt lat="4.6589500" lon="-75.7406390">
        <ele>1459.0</ele>
        <time>2022-08-13T13:17:43Z</time>
      </trkpt>
      <trkpt lat="4.6589370" lon="-75.7407500">
        <ele>1457.6</ele>
        <time>2022-08-13T13:17:44Z</time>
      </trkpt>
      <trkpt lat="4.6589100" lon="-75.7408550">
        <ele>1455.8</ele>
        <time>2022-08-13T13:17:45Z</time>
      </trkpt>
      <trkpt lat="4.6588670" lon="-75.7409550">
        <ele>1453.8</ele>
        <time>2022-08-13T13:17:46Z</time>
      </trkpt>
      <trkpt lat="4.6588100" lon="-75.7410440">
        <ele>1452.2</ele>
        <time>2022-08-13T13:17:47Z</time>
      </trkpt>
      <trkpt lat="4.6587420" lon="-75.7411160">
        <ele>1451.0</ele>
        <time>2022-08-13T13:17:48Z</time>
      </trkpt>
      <trkpt lat="4.6586730" lon="-75.7411810">
        <ele>1450.2</ele>
        <time>2022-08-13T13:17:49Z</time>
      </trkpt>
      <trkpt lat="4.6586060" lon="-75.7412480">
        <ele>1449.6</ele>
        <time>2022-08-13T13:17:50Z</time>
      </trkpt>
      <trkpt lat="4.6585470" lon="-75.7413240">
        <ele>1449.2</ele>
        <time>2022-08-13T13:17:51Z</time>
      </trkpt>
      <trkpt lat="4.6585020" lon="-75.7414050">
        <ele>1449.0</ele>
        <time>2022-08-13T13:17:52Z</time>
      </trkpt>
      <trkpt lat="4.6584700" lon="-75.7414960">
        <ele>1448.8</ele>
        <time>2022-08-13T13:17:53Z</time>
      </trkpt>
      <trkpt lat="4.6584440" lon="-75.7415970">
        <ele>1448.6</ele>
        <time>2022-08-13T13:17:54Z</time>
      </trkpt>
      <trkpt lat="4.6584120" lon="-75.7418110">
        <ele>1448.4</ele>
        <time>2022-08-13T13:17:56Z</time>
      </trkpt>
      <trkpt lat="4.6584550" lon="-75.7421630">
        <ele>1448.2</ele>
        <time>2022-08-13T13:17:59Z</time>
      </trkpt>
      <trkpt lat="4.6585090" lon="-75.7423880">
        <ele>1447.2</ele>
        <time>2022-08-13T13:18:01Z</time>
      </trkpt>
      <trkpt lat="4.6585340" lon="-75.7426150">
        <ele>1446.0</ele>
        <time>2022-08-13T13:18:03Z</time>
      </trkpt>
      <trkpt lat="4.6585340" lon="-75.7427280">
        <ele>1444.8</ele>
        <time>2022-08-13T13:18:04Z</time>
      </trkpt>
      <trkpt lat="4.6585360" lon="-75.7428400">
        <ele>1443.6</ele>
        <time>2022-08-13T13:18:05Z</time>
      </trkpt>
      <trkpt lat="4.6585410" lon="-75.7430370">
        <ele>1441.8</ele>
        <time>2022-08-13T13:18:07Z</time>
      </trkpt>
      <trkpt lat="4.6585520" lon="-75.7432780">
        <ele>1440.8</ele>
        <time>2022-08-13T13:18:09Z</time>
      </trkpt>
      <trkpt lat="4.6585600" lon="-75.7434970">
        <ele>1440.4</ele>
        <time>2022-08-13T13:18:11Z</time>
      </trkpt>
      <trkpt lat="4.6585160" lon="-75.7440620">
        <ele>1439.8</ele>
        <time>2022-08-13T13:18:16Z</time>
      </trkpt>
      <trkpt lat="4.6585040" lon="-75.7441520">
        <ele>1439.8</ele>
        <time>2022-08-13T13:18:17Z</time>
      </trkpt>
      <trkpt lat="4.6584870" lon="-75.7442650">
        <ele>1439.8</ele>
        <time>2022-08-13T13:18:18Z</time>
      </trkpt>
      <trkpt lat="4.6584470" lon="-75.7445160">
        <ele>1438.6</ele>
        <time>2022-08-13T13:18:20Z</time>
      </trkpt>
      <trkpt lat="4.6584120" lon="-75.7447250">
        <ele>1437.2</ele>
        <time>2022-08-13T13:18:22Z</time>
      </trkpt>
      <trkpt lat="4.6583780" lon="-75.7449920">
        <ele>1435.8</ele>
        <time>2022-08-13T13:18:24Z</time>
      </trkpt>
      <trkpt lat="4.6583630" lon="-75.7452460">
        <ele>1434.6</ele>
        <time>2022-08-13T13:18:26Z</time>
      </trkpt>
      <trkpt lat="4.6583520" lon="-75.7454900">
        <ele>1433.2</ele>
        <time>2022-08-13T13:18:28Z</time>
      </trkpt>
      <trkpt lat="4.6583490" lon="-75.7457330">
        <ele>1431.4</ele>
        <time>2022-08-13T13:18:30Z</time>
      </trkpt>
      <trkpt lat="4.6583450" lon="-75.7458650">
        <ele>1430.0</ele>
        <time>2022-08-13T13:18:31Z</time>
      </trkpt>
      <trkpt lat="4.6583280" lon="-75.7460030">
        <ele>1429.0</ele>
        <time>2022-08-13T13:18:32Z</time>
      </trkpt>
      <trkpt lat="4.6583000" lon="-75.7461480">
        <ele>1428.2</ele>
        <time>2022-08-13T13:18:33Z</time>
      </trkpt>
      <trkpt lat="4.6582320" lon="-75.7464370">
        <ele>1427.2</ele>
        <time>2022-08-13T13:18:35Z</time>
      </trkpt>
      <trkpt lat="4.6581750" lon="-75.7466810">
        <ele>1425.4</ele>
        <time>2022-08-13T13:18:37Z</time>
      </trkpt>
      <trkpt lat="4.6581750" lon="-75.7467940">
        <ele>1424.0</ele>
        <time>2022-08-13T13:18:38Z</time>
      </trkpt>
      <trkpt lat="4.6581990" lon="-75.7468960">
        <ele>1424.0</ele>
        <time>2022-08-13T13:18:39Z</time>
      </trkpt>
      <trkpt lat="4.6582310" lon="-75.7469960">
        <ele>1421.6</ele>
        <time>2022-08-13T13:18:40Z</time>
      </trkpt>
      <trkpt lat="4.6582580" lon="-75.7471000">
        <ele>1418.8</ele>
        <time>2022-08-13T13:18:41Z</time>
      </trkpt>
      <trkpt lat="4.6582700" lon="-75.7472070">
        <ele>1416.0</ele>
        <time>2022-08-13T13:18:42Z</time>
      </trkpt>
      <trkpt lat="4.6582730" lon="-75.7473170">
        <ele>1414.2</ele>
        <time>2022-08-13T13:18:43Z</time>
      </trkpt>
      <trkpt lat="4.6582670" lon="-75.7475410">
        <ele>1412.6</ele>
        <time>2022-08-13T13:18:45Z</time>
      </trkpt>
      <trkpt lat="4.6582560" lon="-75.7477660">
        <ele>1411.8</ele>
        <time>2022-08-13T13:18:47Z</time>
      </trkpt>
      <trkpt lat="4.6582490" lon="-75.7478770">
        <ele>1411.4</ele>
        <time>2022-08-13T13:18:48Z</time>
      </trkpt>
      <trkpt lat="4.6582300" lon="-75.7480970">
        <ele>1410.6</ele>
        <time>2022-08-13T13:18:50Z</time>
      </trkpt>
      <trkpt lat="4.6582170" lon="-75.7482150">
        <ele>1410.2</ele>
        <time>2022-08-13T13:18:51Z</time>
      </trkpt>
      <trkpt lat="4.6581610" lon="-75.7486020">
        <ele>1409.8</ele>
        <time>2022-08-13T13:18:54Z</time>
      </trkpt>
      <trkpt lat="4.6580380" lon="-75.7491140">
        <ele>1409.0</ele>
        <time>2022-08-13T13:18:58Z</time>
      </trkpt>
      <trkpt lat="4.6580030" lon="-75.7492420">
        <ele>1408.0</ele>
        <time>2022-08-13T13:18:59Z</time>
      </trkpt>
      <trkpt lat="4.6579690" lon="-75.7493700">
        <ele>1406.2</ele>
        <time>2022-08-13T13:19:00Z</time>
      </trkpt>
      <trkpt lat="4.6579410" lon="-75.7495030">
        <ele>1404.8</ele>
        <time>2022-08-13T13:19:01Z</time>
      </trkpt>
      <trkpt lat="4.6579110" lon="-75.7497610">
        <ele>1403.6</ele>
        <time>2022-08-13T13:19:03Z</time>
      </trkpt>
      <trkpt lat="4.6579120" lon="-75.7498750">
        <ele>1402.8</ele>
        <time>2022-08-13T13:19:04Z</time>
      </trkpt>
      <trkpt lat="4.6579240" lon="-75.7499810">
        <ele>1402.0</ele>
        <time>2022-08-13T13:19:05Z</time>
      </trkpt>
      <trkpt lat="4.6579460" lon="-75.7500780">
        <ele>1401.6</ele>
        <time>2022-08-13T13:19:06Z</time>
      </trkpt>
      <trkpt lat="4.6580160" lon="-75.7502580">
        <ele>1401.0</ele>
        <time>2022-08-13T13:19:08Z</time>
      </trkpt>
      <trkpt lat="4.6581060" lon="-75.7504210">
        <ele>1400.8</ele>
        <time>2022-08-13T13:19:10Z</time>
      </trkpt>
      <trkpt lat="4.6583070" lon="-75.7507060">
        <ele>1400.8</ele>
        <time>2022-08-13T13:19:13Z</time>
      </trkpt>
      <trkpt lat="4.6583880" lon="-75.7507950">
        <ele>1400.8</ele>
        <time>2022-08-13T13:19:14Z</time>
      </trkpt>
      <trkpt lat="4.6588160" lon="-75.7512080">
        <ele>1400.8</ele>
        <time>2022-08-13T13:19:19Z</time>
      </trkpt>
      <trkpt lat="4.6589000" lon="-75.7512920">
        <ele>1400.6</ele>
        <time>2022-08-13T13:19:20Z</time>
      </trkpt>
      <trkpt lat="4.6593230" lon="-75.7517420">
        <ele>1400.4</ele>
        <time>2022-08-13T13:19:25Z</time>
      </trkpt>
      <trkpt lat="4.6594990" lon="-75.7519090">
        <ele>1400.4</ele>
        <time>2022-08-13T13:19:27Z</time>
      </trkpt>
      <trkpt lat="4.6598370" lon="-75.7522360">
        <ele>1400.4</ele>
        <time>2022-08-13T13:19:31Z</time>
      </trkpt>
      <trkpt lat="4.6599850" lon="-75.7524160">
        <ele>1400.2</ele>
        <time>2022-08-13T13:19:33Z</time>
      </trkpt>
      <trkpt lat="4.6600990" lon="-75.7526350">
        <ele>1399.8</ele>
        <time>2022-08-13T13:19:35Z</time>
      </trkpt>
      <trkpt lat="4.6601180" lon="-75.7527180">
        <ele>1399.8</ele>
        <time>2022-08-13T13:19:36Z</time>
      </trkpt>
      <trkpt lat="4.6601350" lon="-75.7528230">
        <ele>1399.6</ele>
        <time>2022-08-13T13:19:37Z</time>
      </trkpt>
      <trkpt lat="4.6601200" lon="-75.7530380">
        <ele>1399.4</ele>
        <time>2022-08-13T13:19:39Z</time>
      </trkpt>
      <trkpt lat="4.6600950" lon="-75.7533880">
        <ele>1399.2</ele>
        <time>2022-08-13T13:19:42Z</time>
      </trkpt>
      <trkpt lat="4.6600980" lon="-75.7535090">
        <ele>1399.2</ele>
        <time>2022-08-13T13:19:43Z</time>
      </trkpt>
      <trkpt lat="4.6601740" lon="-75.7540660">
        <ele>1399.0</ele>
        <time>2022-08-13T13:19:48Z</time>
      </trkpt>
      <trkpt lat="4.6602210" lon="-75.7542290">
        <ele>1398.6</ele>
        <time>2022-08-13T13:19:50Z</time>
      </trkpt>
      <trkpt lat="4.6602560" lon="-75.7543040">
        <ele>1398.6</ele>
        <time>2022-08-13T13:19:51Z</time>
      </trkpt>
      <trkpt lat="4.6603040" lon="-75.7543810">
        <ele>1398.4</ele>
        <time>2022-08-13T13:19:52Z</time>
      </trkpt>
      <trkpt lat="4.6604300" lon="-75.7545520">
        <ele>1398.2</ele>
        <time>2022-08-13T13:19:54Z</time>
      </trkpt>
      <trkpt lat="4.6607130" lon="-75.7547940">
        <ele>1398.2</ele>
        <time>2022-08-13T13:19:57Z</time>
      </trkpt>
      <trkpt lat="4.6609350" lon="-75.7549960">
        <ele>1397.8</ele>
        <time>2022-08-13T13:20:00Z</time>
      </trkpt>
      <trkpt lat="4.6610180" lon="-75.7551330">
        <ele>1397.6</ele>
        <time>2022-08-13T13:20:02Z</time>
      </trkpt>
      <trkpt lat="4.6610410" lon="-75.7552020">
        <ele>1397.4</ele>
        <time>2022-08-13T13:20:03Z</time>
      </trkpt>
      <trkpt lat="4.6610540" lon="-75.7552770">
        <ele>1397.2</ele>
        <time>2022-08-13T13:20:04Z</time>
      </trkpt>
      <trkpt lat="4.6610530" lon="-75.7554530">
        <ele>1397.0</ele>
        <time>2022-08-13T13:20:06Z</time>
      </trkpt>
      <trkpt lat="4.6610520" lon="-75.7555540">
        <ele>1397.2</ele>
        <time>2022-08-13T13:20:07Z</time>
      </trkpt>
      <trkpt lat="4.6610750" lon="-75.7558730">
        <ele>1397.0</ele>
        <time>2022-08-13T13:20:10Z</time>
      </trkpt>
      <trkpt lat="4.6611130" lon="-75.7561760">
        <ele>1396.8</ele>
        <time>2022-08-13T13:20:13Z</time>
      </trkpt>
      <trkpt lat="4.6611490" lon="-75.7562650">
        <ele>1397.0</ele>
        <time>2022-08-13T13:20:14Z</time>
      </trkpt>
      <trkpt lat="4.6611940" lon="-75.7563430">
        <ele>1397.0</ele>
        <time>2022-08-13T13:20:15Z</time>
      </trkpt>
      <trkpt lat="4.6613030" lon="-75.7565590">
        <ele>1396.8</ele>
        <time>2022-08-13T13:20:18Z</time>
      </trkpt>
      <trkpt lat="4.6613130" lon="-75.7566770">
        <ele>1396.8</ele>
        <time>2022-08-13T13:20:20Z</time>
      </trkpt>
      <trkpt lat="4.6613030" lon="-75.7567270">
        <ele>1396.8</ele>
        <time>2022-08-13T13:20:21Z</time>
      </trkpt>
      <trkpt lat="4.6612840" lon="-75.7567700">
        <ele>1396.6</ele>
        <time>2022-08-13T13:20:22Z</time>
      </trkpt>
      <trkpt lat="4.6612230" lon="-75.7568640">
        <ele>1396.6</ele>
        <time>2022-08-13T13:20:25Z</time>
      </trkpt>
      <trkpt lat="4.6611830" lon="-75.7569720">
        <ele>1396.0</ele>
        <time>2022-08-13T13:20:29Z</time>
      </trkpt>
      <trkpt lat="4.6611710" lon="-75.7570050">
        <ele>1396.0</ele>
        <time>2022-08-13T13:20:30Z</time>
      </trkpt>
      <trkpt lat="4.6611150" lon="-75.7571410">
        <ele>1395.0</ele>
        <time>2022-08-13T13:20:33Z</time>
      </trkpt>
      <trkpt lat="4.6610910" lon="-75.7571940">
        <ele>1394.6</ele>
        <time>2022-08-13T13:20:34Z</time>
      </trkpt>
      <trkpt lat="4.6610470" lon="-75.7573020">
        <ele>1393.6</ele>
        <time>2022-08-13T13:20:36Z</time>
      </trkpt>
      <trkpt lat="4.6609910" lon="-75.7574690">
        <ele>1392.6</ele>
        <time>2022-08-13T13:20:39Z</time>
      </trkpt>
      <trkpt lat="4.6609760" lon="-75.7575250">
        <ele>1392.2</ele>
        <time>2022-08-13T13:20:40Z</time>
      </trkpt>
      <trkpt lat="4.6609610" lon="-75.7576360">
        <ele>1391.6</ele>
        <time>2022-08-13T13:20:42Z</time>
      </trkpt>
      <trkpt lat="4.6609450" lon="-75.7577940">
        <ele>1390.4</ele>
        <time>2022-08-13T13:20:45Z</time>
      </trkpt>
      <trkpt lat="4.6609360" lon="-75.7579570">
        <ele>1389.2</ele>
        <time>2022-08-13T13:20:48Z</time>
      </trkpt>
      <trkpt lat="4.6609210" lon="-75.7581470">
        <ele>1388.4</ele>
        <time>2022-08-13T13:20:51Z</time>
      </trkpt>
      <trkpt lat="4.6609220" lon="-75.7582140">
        <ele>1388.2</ele>
        <time>2022-08-13T13:20:52Z</time>
      </trkpt>
      <trkpt lat="4.6609720" lon="-75.7585030">
        <ele>1387.4</ele>
        <time>2022-08-13T13:20:56Z</time>
      </trkpt>
      <trkpt lat="4.6609870" lon="-75.7585800">
        <ele>1387.2</ele>
        <time>2022-08-13T13:20:57Z</time>
      </trkpt>
      <trkpt lat="4.6610570" lon="-75.7587910">
        <ele>1387.0</ele>
        <time>2022-08-13T13:21:00Z</time>
      </trkpt>
      <trkpt lat="4.6610910" lon="-75.7588580">
        <ele>1387.0</ele>
        <time>2022-08-13T13:21:01Z</time>
      </trkpt>
      <trkpt lat="4.6612980" lon="-75.7592850">
        <ele>1386.8</ele>
        <time>2022-08-13T13:21:07Z</time>
      </trkpt>
      <trkpt lat="4.6613740" lon="-75.7594220">
        <ele>1387.0</ele>
        <time>2022-08-13T13:21:09Z</time>
      </trkpt>
      <trkpt lat="4.6614630" lon="-75.7595380">
        <ele>1387.0</ele>
        <time>2022-08-13T13:21:11Z</time>
      </trkpt>
      <trkpt lat="4.6615100" lon="-75.7595900">
        <ele>1387.4</ele>
        <time>2022-08-13T13:21:12Z</time>
      </trkpt>
      <trkpt lat="4.6616130" lon="-75.7596770">
        <ele>1387.6</ele>
        <time>2022-08-13T13:21:14Z</time>
      </trkpt>
      <trkpt lat="4.6616650" lon="-75.7597240">
        <ele>1387.6</ele>
        <time>2022-08-13T13:21:15Z</time>
      </trkpt>
      <trkpt lat="4.6617740" lon="-75.7598610">
        <ele>1387.8</ele>
        <time>2022-08-13T13:21:18Z</time>
      </trkpt>
      <trkpt lat="4.6618210" lon="-75.7599450">
        <ele>1388.0</ele>
        <time>2022-08-13T13:21:20Z</time>
      </trkpt>
      <trkpt lat="4.6618520" lon="-75.7600160">
        <ele>1388.0</ele>
        <time>2022-08-13T13:21:22Z</time>
      </trkpt>
      <trkpt lat="4.6619000" lon="-75.7601660">
        <ele>1388.6</ele>
        <time>2022-08-13T13:21:27Z</time>
      </trkpt>
      <trkpt lat="4.6619410" lon="-75.7603240">
        <ele>1389.0</ele>
        <time>2022-08-13T13:21:32Z</time>
      </trkpt>
      <trkpt lat="4.6619700" lon="-75.7604450">
        <ele>1389.2</ele>
        <time>2022-08-13T13:21:35Z</time>
      </trkpt>
      <trkpt lat="4.6620640" lon="-75.7607590">
        <ele>1389.6</ele>
        <time>2022-08-13T13:21:41Z</time>
      </trkpt>
      <trkpt lat="4.6621340" lon="-75.7609430">
        <ele>1389.8</ele>
        <time>2022-08-13T13:21:44Z</time>
      </trkpt>
      <trkpt lat="4.6622130" lon="-75.7610520">
        <ele>1390.0</ele>
        <time>2022-08-13T13:21:46Z</time>
      </trkpt>
      <trkpt lat="4.6624610" lon="-75.7612490">
        <ele>1390.0</ele>
        <time>2022-08-13T13:21:50Z</time>
      </trkpt>
      <trkpt lat="4.6626070" lon="-75.7613170">
        <ele>1390.0</ele>
        <time>2022-08-13T13:21:52Z</time>
      </trkpt>
      <trkpt lat="4.6627430" lon="-75.7613600">
        <ele>1390.0</ele>
        <time>2022-08-13T13:21:54Z</time>
      </trkpt>
      <trkpt lat="4.6630660" lon="-75.7614050">
        <ele>1390.0</ele>
        <time>2022-08-13T13:21:59Z</time>
      </trkpt>
      <trkpt lat="4.6634350" lon="-75.7614090">
        <ele>1390.0</ele>
        <time>2022-08-13T13:22:05Z</time>
      </trkpt>
      <trkpt lat="4.6636970" lon="-75.7614110">
        <ele>1390.2</ele>
        <time>2022-08-13T13:22:09Z</time>
      </trkpt>
      <trkpt lat="4.6637840" lon="-75.7614110">
        <ele>1390.4</ele>
        <time>2022-08-13T13:22:10Z</time>
      </trkpt>
      <trkpt lat="4.6641030" lon="-75.7614280">
        <ele>1390.2</ele>
        <time>2022-08-13T13:22:14Z</time>
      </trkpt>
      <trkpt lat="4.6642920" lon="-75.7614590">
        <ele>1390.2</ele>
        <time>2022-08-13T13:22:17Z</time>
      </trkpt>
      <trkpt lat="4.6644100" lon="-75.7614890">
        <ele>1390.2</ele>
        <time>2022-08-13T13:22:19Z</time>
      </trkpt>
      <trkpt lat="4.6647630" lon="-75.7616220">
        <ele>1390.2</ele>
        <time>2022-08-13T13:22:26Z</time>
      </trkpt>
      <trkpt lat="4.6650250" lon="-75.7617960">
        <ele>1390.4</ele>
        <time>2022-08-13T13:22:31Z</time>
      </trkpt>
      <trkpt lat="4.6653750" lon="-75.7620410">
        <ele>1390.2</ele>
        <time>2022-08-13T13:22:36Z</time>
      </trkpt>
      <trkpt lat="4.6655240" lon="-75.7621530">
        <ele>1390.4</ele>
        <time>2022-08-13T13:22:38Z</time>
      </trkpt>
      <trkpt lat="4.6656330" lon="-75.7622960">
        <ele>1390.2</ele>
        <time>2022-08-13T13:22:40Z</time>
      </trkpt>
      <trkpt lat="4.6656800" lon="-75.7624520">
        <ele>1390.0</ele>
        <time>2022-08-13T13:22:42Z</time>
      </trkpt>
      <trkpt lat="4.6656880" lon="-75.7625290">
        <ele>1390.2</ele>
        <time>2022-08-13T13:22:43Z</time>
      </trkpt>
      <trkpt lat="4.6656960" lon="-75.7626000">
        <ele>1390.2</ele>
        <time>2022-08-13T13:22:44Z</time>
      </trkpt>
      <trkpt lat="4.6657560" lon="-75.7627730">
        <ele>1390.0</ele>
        <time>2022-08-13T13:22:47Z</time>
      </trkpt>
      <trkpt lat="4.6658490" lon="-75.7628380">
        <ele>1390.0</ele>
        <time>2022-08-13T13:22:49Z</time>
      </trkpt>
      <trkpt lat="4.6659510" lon="-75.7628900">
        <ele>1389.8</ele>
        <time>2022-08-13T13:22:51Z</time>
      </trkpt>
      <trkpt lat="4.6660670" lon="-75.7629480">
        <ele>1389.8</ele>
        <time>2022-08-13T13:22:53Z</time>
      </trkpt>
      <trkpt lat="4.6662620" lon="-75.7630530">
        <ele>1389.6</ele>
        <time>2022-08-13T13:22:56Z</time>
      </trkpt>
      <trkpt lat="4.6666510" lon="-75.7632520">
        <ele>1389.8</ele>
        <time>2022-08-13T13:23:01Z</time>
      </trkpt>
      <trkpt lat="4.6670660" lon="-75.7633590">
        <ele>1389.4</ele>
        <time>2022-08-13T13:23:05Z</time>
      </trkpt>
      <trkpt lat="4.6675310" lon="-75.7635150">
        <ele>1389.2</ele>
        <time>2022-08-13T13:23:09Z</time>
      </trkpt>
      <trkpt lat="4.6677240" lon="-75.7636450">
        <ele>1389.2</ele>
        <time>2022-08-13T13:23:11Z</time>
      </trkpt>
      <trkpt lat="4.6679070" lon="-75.7637850">
        <ele>1389.2</ele>
        <time>2022-08-13T13:23:13Z</time>
      </trkpt>
      <trkpt lat="4.6683480" lon="-75.7641320">
        <ele>1388.8</ele>
        <time>2022-08-13T13:23:18Z</time>
      </trkpt>
      <trkpt lat="4.6685080" lon="-75.7642660">
        <ele>1388.6</ele>
        <time>2022-08-13T13:23:20Z</time>
      </trkpt>
      <trkpt lat="4.6686590" lon="-75.7643870">
        <ele>1388.6</ele>
        <time>2022-08-13T13:23:22Z</time>
      </trkpt>
      <trkpt lat="4.6689580" lon="-75.7646200">
        <ele>1388.6</ele>
        <time>2022-08-13T13:23:26Z</time>
      </trkpt>
      <trkpt lat="4.6693860" lon="-75.7649660">
        <ele>1388.4</ele>
        <time>2022-08-13T13:23:32Z</time>
      </trkpt>
      <trkpt lat="4.6697650" lon="-75.7653560">
        <ele>1388.0</ele>
        <time>2022-08-13T13:23:37Z</time>
      </trkpt>
      <trkpt lat="4.6699170" lon="-75.7655310">
        <ele>1388.0</ele>
        <time>2022-08-13T13:23:39Z</time>
      </trkpt>
      <trkpt lat="4.6701150" lon="-75.7658160">
        <ele>1387.6</ele>
        <time>2022-08-13T13:23:42Z</time>
      </trkpt>
      <trkpt lat="4.6702950" lon="-75.7662120">
        <ele>1387.4</ele>
        <time>2022-08-13T13:23:46Z</time>
      </trkpt>
      <trkpt lat="4.6705270" lon="-75.7667670">
        <ele>1387.4</ele>
        <time>2022-08-13T13:23:52Z</time>
      </trkpt>
      <trkpt lat="4.6706680" lon="-75.7672930">
        <ele>1387.2</ele>
        <time>2022-08-13T13:23:57Z</time>
      </trkpt>
      <trkpt lat="4.6707080" lon="-75.7677660">
        <ele>1387.2</ele>
        <time>2022-08-13T13:24:01Z</time>
      </trkpt>
      <trkpt lat="4.6707130" lon="-75.7682010">
        <ele>1387.2</ele>
        <time>2022-08-13T13:24:05Z</time>
      </trkpt>
      <trkpt lat="4.6707280" lon="-75.7682970">
        <ele>1387.0</ele>
        <time>2022-08-13T13:24:06Z</time>
      </trkpt>
      <trkpt lat="4.6707540" lon="-75.7683890">
        <ele>1386.8</ele>
        <time>2022-08-13T13:24:07Z</time>
      </trkpt>
      <trkpt lat="4.6707910" lon="-75.7684740">
        <ele>1386.6</ele>
        <time>2022-08-13T13:24:08Z</time>
      </trkpt>
      <trkpt lat="4.6708970" lon="-75.7686280">
        <ele>1386.6</ele>
        <time>2022-08-13T13:24:10Z</time>
      </trkpt>
      <trkpt lat="4.6710400" lon="-75.7687760">
        <ele>1386.6</ele>
        <time>2022-08-13T13:24:12Z</time>
      </trkpt>
      <trkpt lat="4.6712210" lon="-75.7689400">
        <ele>1386.4</ele>
        <time>2022-08-13T13:24:14Z</time>
      </trkpt>
      <trkpt lat="4.6713270" lon="-75.7690200">
        <ele>1386.4</ele>
        <time>2022-08-13T13:24:15Z</time>
      </trkpt>
      <trkpt lat="4.6716280" lon="-75.7692770">
        <ele>1386.2</ele>
        <time>2022-08-13T13:24:18Z</time>
      </trkpt>
      <trkpt lat="4.6717220" lon="-75.7693620">
        <ele>1386.2</ele>
        <time>2022-08-13T13:24:19Z</time>
      </trkpt>
      <trkpt lat="4.6718070" lon="-75.7694490">
        <ele>1386.0</ele>
        <time>2022-08-13T13:24:20Z</time>
      </trkpt>
      <trkpt lat="4.6718810" lon="-75.7695370">
        <ele>1386.0</ele>
        <time>2022-08-13T13:24:21Z</time>
      </trkpt>
      <trkpt lat="4.6720530" lon="-75.7698100">
        <ele>1385.8</ele>
        <time>2022-08-13T13:24:24Z</time>
      </trkpt>
      <trkpt lat="4.6721620" lon="-75.7700390">
        <ele>1385.2</ele>
        <time>2022-08-13T13:24:27Z</time>
      </trkpt>
      <trkpt lat="4.6721910" lon="-75.7701050">
        <ele>1385.0</ele>
        <time>2022-08-13T13:24:28Z</time>
      </trkpt>
      <trkpt lat="4.6722120" lon="-75.7701720">
        <ele>1384.6</ele>
        <time>2022-08-13T13:24:29Z</time>
      </trkpt>
      <trkpt lat="4.6722290" lon="-75.7702430">
        <ele>1384.4</ele>
        <time>2022-08-13T13:24:30Z</time>
      </trkpt>
      <trkpt lat="4.6722400" lon="-75.7703910">
        <ele>1383.2</ele>
        <time>2022-08-13T13:24:32Z</time>
      </trkpt>
      <trkpt lat="4.6722240" lon="-75.7706250">
        <ele>1382.2</ele>
        <time>2022-08-13T13:24:35Z</time>
      </trkpt>
      <trkpt lat="4.6721920" lon="-75.7707950">
        <ele>1381.6</ele>
        <time>2022-08-13T13:24:37Z</time>
      </trkpt>
      <trkpt lat="4.6721730" lon="-75.7708820">
        <ele>1381.4</ele>
        <time>2022-08-13T13:24:38Z</time>
      </trkpt>
      <trkpt lat="4.6721410" lon="-75.7710670">
        <ele>1380.4</ele>
        <time>2022-08-13T13:24:40Z</time>
      </trkpt>
      <trkpt lat="4.6721350" lon="-75.7711560">
        <ele>1380.4</ele>
        <time>2022-08-13T13:24:41Z</time>
      </trkpt>
      <trkpt lat="4.6721400" lon="-75.7712470">
        <ele>1380.0</ele>
        <time>2022-08-13T13:24:42Z</time>
      </trkpt>
      <trkpt lat="4.6721610" lon="-75.7713370">
        <ele>1379.6</ele>
        <time>2022-08-13T13:24:43Z</time>
      </trkpt>
      <trkpt lat="4.6721970" lon="-75.7714240">
        <ele>1379.0</ele>
        <time>2022-08-13T13:24:44Z</time>
      </trkpt>
      <trkpt lat="4.6722420" lon="-75.7715080">
        <ele>1378.4</ele>
        <time>2022-08-13T13:24:45Z</time>
      </trkpt>
      <trkpt lat="4.6722930" lon="-75.7715910">
        <ele>1378.0</ele>
        <time>2022-08-13T13:24:46Z</time>
      </trkpt>
      <trkpt lat="4.6724580" lon="-75.7718470">
        <ele>1376.6</ele>
        <time>2022-08-13T13:24:49Z</time>
      </trkpt>
      <trkpt lat="4.6725080" lon="-75.7719360">
        <ele>1376.4</ele>
        <time>2022-08-13T13:24:50Z</time>
      </trkpt>
      <trkpt lat="4.6726200" lon="-75.7722210">
        <ele>1375.4</ele>
        <time>2022-08-13T13:24:53Z</time>
      </trkpt>
      <trkpt lat="4.6726870" lon="-75.7724140">
        <ele>1374.2</ele>
        <time>2022-08-13T13:24:55Z</time>
      </trkpt>
      <trkpt lat="4.6727780" lon="-75.7726900">
        <ele>1373.0</ele>
        <time>2022-08-13T13:24:58Z</time>
      </trkpt>
      <trkpt lat="4.6728160" lon="-75.7728420">
        <ele>1372.4</ele>
        <time>2022-08-13T13:25:00Z</time>
      </trkpt>
      <trkpt lat="4.6728340" lon="-75.7729010">
        <ele>1371.8</ele>
        <time>2022-08-13T13:25:01Z</time>
      </trkpt>
      <trkpt lat="4.6728980" lon="-75.7730650">
        <ele>1371.0</ele>
        <time>2022-08-13T13:25:04Z</time>
      </trkpt>
      <trkpt lat="4.6729160" lon="-75.7731160">
        <ele>1370.6</ele>
        <time>2022-08-13T13:25:05Z</time>
      </trkpt>
      <trkpt lat="4.6729940" lon="-75.7732610">
        <ele>1369.4</ele>
        <time>2022-08-13T13:25:08Z</time>
      </trkpt>
      <trkpt lat="4.6730250" lon="-75.7733090">
        <ele>1369.0</ele>
        <time>2022-08-13T13:25:09Z</time>
      </trkpt>
      <trkpt lat="4.6730820" lon="-75.7734100">
        <ele>1368.4</ele>
        <time>2022-08-13T13:25:11Z</time>
      </trkpt>
      <trkpt lat="4.6731740" lon="-75.7735680">
        <ele>1367.2</ele>
        <time>2022-08-13T13:25:14Z</time>
      </trkpt>
      <trkpt lat="4.6732300" lon="-75.7736710">
        <ele>1366.8</ele>
        <time>2022-08-13T13:25:16Z</time>
      </trkpt>
      <trkpt lat="4.6732540" lon="-75.7737230">
        <ele>1366.4</ele>
        <time>2022-08-13T13:25:17Z</time>
      </trkpt>
      <trkpt lat="4.6732800" lon="-75.7737730">
        <ele>1366.2</ele>
        <time>2022-08-13T13:25:18Z</time>
      </trkpt>
      <trkpt lat="4.6733630" lon="-75.7739110">
        <ele>1365.2</ele>
        <time>2022-08-13T13:25:21Z</time>
      </trkpt>
      <trkpt lat="4.6733840" lon="-75.7739580">
        <ele>1365.0</ele>
        <time>2022-08-13T13:25:22Z</time>
      </trkpt>
      <trkpt lat="4.6734010" lon="-75.7740610">
        <ele>1363.8</ele>
        <time>2022-08-13T13:25:24Z</time>
      </trkpt>
      <trkpt lat="4.6734170" lon="-75.7741560">
        <ele>1363.6</ele>
        <time>2022-08-13T13:25:26Z</time>
      </trkpt>
      <trkpt lat="4.6734280" lon="-75.7741920">
        <ele>1363.6</ele>
        <time>2022-08-13T13:25:27Z</time>
      </trkpt>
      <trkpt lat="4.6734460" lon="-75.7742380">
        <ele>1363.2</ele>
        <time>2022-08-13T13:25:29Z</time>
      </trkpt>
      <trkpt lat="4.6734560" lon="-75.7742610">
        <ele>1363.4</ele>
        <time>2022-08-13T13:25:30Z</time>
      </trkpt>
      <trkpt lat="4.6735630" lon="-75.7744210">
        <ele>1363.2</ele>
        <time>2022-08-13T13:25:35Z</time>
      </trkpt>
      <trkpt lat="4.6736080" lon="-75.7745160">
        <ele>1363.2</ele>
        <time>2022-08-13T13:25:37Z</time>
      </trkpt>
      <trkpt lat="4.6736630" lon="-75.7746180">
        <ele>1363.2</ele>
        <time>2022-08-13T13:25:39Z</time>
      </trkpt>
      <trkpt lat="4.6738020" lon="-75.7748660">
        <ele>1363.4</ele>
        <time>2022-08-13T13:25:43Z</time>
      </trkpt>
      <trkpt lat="4.6739740" lon="-75.7752680">
        <ele>1363.4</ele>
        <time>2022-08-13T13:25:48Z</time>
      </trkpt>
      <trkpt lat="4.6740850" lon="-75.7756900">
        <ele>1363.6</ele>
        <time>2022-08-13T13:25:53Z</time>
      </trkpt>
      <trkpt lat="4.6741040" lon="-75.7762270">
        <ele>1364.0</ele>
        <time>2022-08-13T13:25:59Z</time>
      </trkpt>
      <trkpt lat="4.6741490" lon="-75.7767600">
        <ele>1363.8</ele>
        <time>2022-08-13T13:26:05Z</time>
      </trkpt>
      <trkpt lat="4.6742200" lon="-75.7770010">
        <ele>1363.4</ele>
        <time>2022-08-13T13:26:08Z</time>
      </trkpt>
      <trkpt lat="4.6742690" lon="-75.7771630">
        <ele>1362.8</ele>
        <time>2022-08-13T13:26:10Z</time>
      </trkpt>
      <trkpt lat="4.6743040" lon="-75.7773200">
        <ele>1362.4</ele>
        <time>2022-08-13T13:26:12Z</time>
      </trkpt>
      <trkpt lat="4.6743140" lon="-75.7774020">
        <ele>1362.2</ele>
        <time>2022-08-13T13:26:13Z</time>
      </trkpt>
      <trkpt lat="4.6743000" lon="-75.7775600">
        <ele>1361.6</ele>
        <time>2022-08-13T13:26:15Z</time>
      </trkpt>
      <trkpt lat="4.6742780" lon="-75.7776440">
        <ele>1361.2</ele>
        <time>2022-08-13T13:26:16Z</time>
      </trkpt>
      <trkpt lat="4.6742030" lon="-75.7779080">
        <ele>1360.2</ele>
        <time>2022-08-13T13:26:19Z</time>
      </trkpt>
      <trkpt lat="4.6741770" lon="-75.7779940">
        <ele>1359.8</ele>
        <time>2022-08-13T13:26:20Z</time>
      </trkpt>
      <trkpt lat="4.6741370" lon="-75.7781350">
        <ele>1359.0</ele>
        <time>2022-08-13T13:26:22Z</time>
      </trkpt>
      <trkpt lat="4.6741210" lon="-75.7781860">
        <ele>1358.6</ele>
        <time>2022-08-13T13:26:23Z</time>
      </trkpt>
      <trkpt lat="4.6741100" lon="-75.7782220">
        <ele>1358.0</ele>
        <time>2022-08-13T13:26:24Z</time>
      </trkpt>
      <trkpt lat="4.6741090" lon="-75.7782490">
        <ele>1357.8</ele>
        <time>2022-08-13T13:26:25Z</time>
      </trkpt>
      <trkpt lat="4.6741150" lon="-75.7782730">
        <ele>1357.4</ele>
        <time>2022-08-13T13:26:26Z</time>
      </trkpt>
      <trkpt lat="4.6741570" lon="-75.7783060">
        <ele>1356.8</ele>
        <time>2022-08-13T13:26:28Z</time>
      </trkpt>
      <trkpt lat="4.6741930" lon="-75.7783130">
        <ele>1356.6</ele>
        <time>2022-08-13T13:26:29Z</time>
      </trkpt>
      <trkpt lat="4.6742380" lon="-75.7783200">
        <ele>1356.2</ele>
        <time>2022-08-13T13:26:30Z</time>
      </trkpt>
      <trkpt lat="4.6742860" lon="-75.7783280">
        <ele>1355.8</ele>
        <time>2022-08-13T13:26:31Z</time>
      </trkpt>
      <trkpt lat="4.6744010" lon="-75.7783410">
        <ele>1355.2</ele>
        <time>2022-08-13T13:26:33Z</time>
      </trkpt>
      <trkpt lat="4.6745130" lon="-75.7783510">
        <ele>1354.8</ele>
        <time>2022-08-13T13:26:35Z</time>
      </trkpt>
      <trkpt lat="4.6745920" lon="-75.7783790">
        <ele>1353.8</ele>
        <time>2022-08-13T13:26:37Z</time>
      </trkpt>
      <trkpt lat="4.6746130" lon="-75.7784110">
        <ele>1353.6</ele>
        <time>2022-08-13T13:26:38Z</time>
      </trkpt>
      <trkpt lat="4.6746220" lon="-75.7784540">
        <ele>1353.2</ele>
        <time>2022-08-13T13:26:39Z</time>
      </trkpt>
      <trkpt lat="4.6746230" lon="-75.7785070">
        <ele>1352.6</ele>
        <time>2022-08-13T13:26:40Z</time>
      </trkpt>
      <trkpt lat="4.6746250" lon="-75.7785640">
        <ele>1352.2</ele>
        <time>2022-08-13T13:26:41Z</time>
      </trkpt>
      <trkpt lat="4.6746340" lon="-75.7787290">
        <ele>1351.2</ele>
        <time>2022-08-13T13:26:44Z</time>
      </trkpt>
      <trkpt lat="4.6746430" lon="-75.7787910">
        <ele>1350.8</ele>
        <time>2022-08-13T13:26:45Z</time>
      </trkpt>
      <trkpt lat="4.6746570" lon="-75.7789740">
        <ele>1350.0</ele>
        <time>2022-08-13T13:26:48Z</time>
      </trkpt>
      <trkpt lat="4.6747030" lon="-75.7792150">
        <ele>1348.8</ele>
        <time>2022-08-13T13:26:52Z</time>
      </trkpt>
      <trkpt lat="4.6747410" lon="-75.7794800">
        <ele>1347.8</ele>
        <time>2022-08-13T13:26:56Z</time>
      </trkpt>
      <trkpt lat="4.6747600" lon="-75.7796240">
        <ele>1347.4</ele>
        <time>2022-08-13T13:26:58Z</time>
      </trkpt>
      <trkpt lat="4.6747840" lon="-75.7797660">
        <ele>1346.6</ele>
        <time>2022-08-13T13:27:00Z</time>
      </trkpt>
      <trkpt lat="4.6748370" lon="-75.7800220">
        <ele>1345.6</ele>
        <time>2022-08-13T13:27:04Z</time>
      </trkpt>
      <trkpt lat="4.6748440" lon="-75.7800790">
        <ele>1345.2</ele>
        <time>2022-08-13T13:27:05Z</time>
      </trkpt>
      <trkpt lat="4.6748660" lon="-75.7801900">
        <ele>1344.4</ele>
        <time>2022-08-13T13:27:07Z</time>
      </trkpt>
      <trkpt lat="4.6749050" lon="-75.7803460">
        <ele>1343.6</ele>
        <time>2022-08-13T13:27:10Z</time>
      </trkpt>
      <trkpt lat="4.6749120" lon="-75.7803860">
        <ele>1343.4</ele>
        <time>2022-08-13T13:27:11Z</time>
      </trkpt>
      <trkpt lat="4.6749270" lon="-75.7804470">
        <ele>1342.8</ele>
        <time>2022-08-13T13:27:13Z</time>
      </trkpt>
      <trkpt lat="4.6749260" lon="-75.7804640">
        <ele>1342.4</ele>
        <time>2022-08-13T13:27:14Z</time>
      </trkpt>
      <trkpt lat="4.6749330" lon="-75.7805350">
        <ele>1341.4</ele>
        <time>2022-08-13T13:27:18Z</time>
      </trkpt>
      <trkpt lat="4.6749370" lon="-75.7805470">
        <ele>1341.2</ele>
        <time>2022-08-13T13:27:19Z</time>
      </trkpt>
      <trkpt lat="4.6749580" lon="-75.7805770">
        <ele>1340.6</ele>
        <time>2022-08-13T13:27:21Z</time>
      </trkpt>
      <trkpt lat="4.6749680" lon="-75.7806250">
        <ele>1340.4</ele>
        <time>2022-08-13T13:27:24Z</time>
      </trkpt>
      <trkpt lat="4.6749810" lon="-75.7807550">
        <ele>1339.8</ele>
        <time>2022-08-13T13:27:28Z</time>
      </trkpt>
      <trkpt lat="4.6749810" lon="-75.7808060">
        <ele>1339.8</ele>
        <time>2022-08-13T13:27:30Z</time>
      </trkpt>
      <trkpt lat="4.6749890" lon="-75.7808490">
        <ele>1339.8</ele>
        <time>2022-08-13T13:27:32Z</time>
      </trkpt>
      <trkpt lat="4.6749960" lon="-75.7808720">
        <ele>1339.6</ele>
        <time>2022-08-13T13:27:33Z</time>
      </trkpt>
      <trkpt lat="4.6750120" lon="-75.7810650">
        <ele>1338.4</ele>
        <time>2022-08-13T13:27:39Z</time>
      </trkpt>
      <trkpt lat="4.6750110" lon="-75.7812160">
        <ele>1337.6</ele>
        <time>2022-08-13T13:27:43Z</time>
      </trkpt>
      <trkpt lat="4.6750250" lon="-75.7812580">
        <ele>1337.4</ele>
        <time>2022-08-13T13:27:44Z</time>
      </trkpt>
      <trkpt lat="4.6750270" lon="-75.7813100">
        <ele>1337.4</ele>
        <time>2022-08-13T13:27:45Z</time>
      </trkpt>
      <trkpt lat="4.6750290" lon="-75.7813860">
        <ele>1337.0</ele>
        <time>2022-08-13T13:27:47Z</time>
      </trkpt>
      <trkpt lat="4.6750550" lon="-75.7814750">
        <ele>1336.6</ele>
        <time>2022-08-13T13:27:49Z</time>
      </trkpt>
      <trkpt lat="4.6750590" lon="-75.7815380">
        <ele>1336.4</ele>
        <time>2022-08-13T13:27:50Z</time>
      </trkpt>
      <trkpt lat="4.6750570" lon="-75.7817200">
        <ele>1335.8</ele>
        <time>2022-08-13T13:27:53Z</time>
      </trkpt>
      <trkpt lat="4.6750820" lon="-75.7817940">
        <ele>1335.6</ele>
        <time>2022-08-13T13:27:54Z</time>
      </trkpt>
      <trkpt lat="4.6751040" lon="-75.7818430">
        <ele>1335.4</ele>
        <time>2022-08-13T13:27:55Z</time>
      </trkpt>
      <trkpt lat="4.6751340" lon="-75.7819080">
        <ele>1335.2</ele>
        <time>2022-08-13T13:27:56Z</time>
      </trkpt>
      <trkpt lat="4.6751650" lon="-75.7820150">
        <ele>1335.0</ele>
        <time>2022-08-13T13:27:58Z</time>
      </trkpt>
      <trkpt lat="4.6751810" lon="-75.7820770">
        <ele>1334.8</ele>
        <time>2022-08-13T13:27:59Z</time>
      </trkpt>
      <trkpt lat="4.6752040" lon="-75.7822100">
        <ele>1334.4</ele>
        <time>2022-08-13T13:28:01Z</time>
      </trkpt>
      <trkpt lat="4.6752270" lon="-75.7824110">
        <ele>1333.6</ele>
        <time>2022-08-13T13:28:04Z</time>
      </trkpt>
      <trkpt lat="4.6752340" lon="-75.7824860">
        <ele>1333.4</ele>
        <time>2022-08-13T13:28:05Z</time>
      </trkpt>
      <trkpt lat="4.6752330" lon="-75.7825320">
        <ele>1333.6</ele>
        <time>2022-08-13T13:28:06Z</time>
      </trkpt>
      <trkpt lat="4.6752240" lon="-75.7825790">
        <ele>1333.4</ele>
        <time>2022-08-13T13:28:07Z</time>
      </trkpt>
      <trkpt lat="4.6751520" lon="-75.7826400">
        <ele>1333.2</ele>
        <time>2022-08-13T13:28:09Z</time>
      </trkpt>
      <trkpt lat="4.6751000" lon="-75.7826520">
        <ele>1332.8</ele>
        <time>2022-08-13T13:28:10Z</time>
      </trkpt>
      <trkpt lat="4.6749270" lon="-75.7826740">
        <ele>1332.4</ele>
        <time>2022-08-13T13:28:13Z</time>
      </trkpt>
      <trkpt lat="4.6748260" lon="-75.7826840">
        <ele>1332.2</ele>
        <time>2022-08-13T13:28:15Z</time>
      </trkpt>
      <trkpt lat="4.6747990" lon="-75.7826840">
        <ele>1332.0</ele>
        <time>2022-08-13T13:28:16Z</time>
      </trkpt>
      <trkpt lat="4.6747730" lon="-75.7826890">
        <ele>1331.6</ele>
        <time>2022-08-13T13:28:17Z</time>
      </trkpt>
      <trkpt lat="4.6746480" lon="-75.7826940">
        <ele>1331.2</ele>
        <time>2022-08-13T13:28:20Z</time>
      </trkpt>
      <trkpt lat="4.6745950" lon="-75.7827030">
        <ele>1331.0</ele>
        <time>2022-08-13T13:28:21Z</time>
      </trkpt>
      <trkpt lat="4.6743430" lon="-75.7827400">
        <ele>1330.2</ele>
        <time>2022-08-13T13:28:25Z</time>
      </trkpt>
      <trkpt lat="4.6742740" lon="-75.7827550">
        <ele>1330.2</ele>
        <time>2022-08-13T13:28:26Z</time>
      </trkpt>
      <trkpt lat="4.6739870" lon="-75.7827970">
        <ele>1329.4</ele>
        <time>2022-08-13T13:28:30Z</time>
      </trkpt>
      <trkpt lat="4.6739210" lon="-75.7828050">
        <ele>1329.4</ele>
        <time>2022-08-13T13:28:31Z</time>
      </trkpt>
      <trkpt lat="4.6738610" lon="-75.7828160">
        <ele>1329.2</ele>
        <time>2022-08-13T13:28:32Z</time>
      </trkpt>
      <trkpt lat="4.6738070" lon="-75.7828330">
        <ele>1329.0</ele>
        <time>2022-08-13T13:28:33Z</time>
      </trkpt>
      <trkpt lat="4.6737140" lon="-75.7828690">
        <ele>1329.0</ele>
        <time>2022-08-13T13:28:35Z</time>
      </trkpt>
      <trkpt lat="4.6735750" lon="-75.7829150">
        <ele>1328.2</ele>
        <time>2022-08-13T13:28:39Z</time>
      </trkpt>
      <trkpt lat="4.6735380" lon="-75.7829240">
        <ele>1328.0</ele>
        <time>2022-08-13T13:28:40Z</time>
      </trkpt>
      <trkpt lat="4.6732730" lon="-75.7830010">
        <ele>1327.4</ele>
        <time>2022-08-13T13:28:45Z</time>
      </trkpt>
      <trkpt lat="4.6732040" lon="-75.7830210">
        <ele>1327.4</ele>
        <time>2022-08-13T13:28:46Z</time>
      </trkpt>
      <trkpt lat="4.6728500" lon="-75.7831180">
        <ele>1326.8</ele>
        <time>2022-08-13T13:28:51Z</time>
      </trkpt>
      <trkpt lat="4.6728000" lon="-75.7831200">
        <ele>1326.6</ele>
        <time>2022-08-13T13:28:52Z</time>
      </trkpt>
      <trkpt lat="4.6727350" lon="-75.7831130">
        <ele>1326.6</ele>
        <time>2022-08-13T13:28:53Z</time>
      </trkpt>
      <trkpt lat="4.6726080" lon="-75.7830700">
        <ele>1326.0</ele>
        <time>2022-08-13T13:28:55Z</time>
      </trkpt>
      <trkpt lat="4.6724060" lon="-75.7829740">
        <ele>1325.8</ele>
        <time>2022-08-13T13:28:58Z</time>
      </trkpt>
      <trkpt lat="4.6722280" lon="-75.7829050">
        <ele>1325.2</ele>
        <time>2022-08-13T13:29:01Z</time>
      </trkpt>
      <trkpt lat="4.6721480" lon="-75.7828930">
        <ele>1325.4</ele>
        <time>2022-08-13T13:29:02Z</time>
      </trkpt>
      <trkpt lat="4.6720820" lon="-75.7828990">
        <ele>1325.2</ele>
        <time>2022-08-13T13:29:03Z</time>
      </trkpt>
      <trkpt lat="4.6719780" lon="-75.7829490">
        <ele>1325.2</ele>
        <time>2022-08-13T13:29:05Z</time>
      </trkpt>
      <trkpt lat="4.6718010" lon="-75.7831070">
        <ele>1325.2</ele>
        <time>2022-08-13T13:29:09Z</time>
      </trkpt>
      <trkpt lat="4.6717630" lon="-75.7831430">
        <ele>1325.2</ele>
        <time>2022-08-13T13:29:10Z</time>
      </trkpt>
      <trkpt lat="4.6716070" lon="-75.7832760">
        <ele>1325.2</ele>
        <time>2022-08-13T13:29:13Z</time>
      </trkpt>
      <trkpt lat="4.6715220" lon="-75.7833250">
        <ele>1325.0</ele>
        <time>2022-08-13T13:29:16Z</time>
      </trkpt>
      <trkpt lat="4.6713810" lon="-75.7833520">
        <ele>1324.6</ele>
        <time>2022-08-13T13:29:19Z</time>
      </trkpt>
      <trkpt lat="4.6713210" lon="-75.7833420">
        <ele>1324.4</ele>
        <time>2022-08-13T13:29:20Z</time>
      </trkpt>
      <trkpt lat="4.6711890" lon="-75.7832800">
        <ele>1324.4</ele>
        <time>2022-08-13T13:29:22Z</time>
      </trkpt>
      <trkpt lat="4.6710900" lon="-75.7832090">
        <ele>1324.2</ele>
        <time>2022-08-13T13:29:25Z</time>
      </trkpt>
      <trkpt lat="4.6709600" lon="-75.7831070">
        <ele>1323.6</ele>
        <time>2022-08-13T13:29:28Z</time>
      </trkpt>
      <trkpt lat="4.6709130" lon="-75.7830630">
        <ele>1323.6</ele>
        <time>2022-08-13T13:29:29Z</time>
      </trkpt>
      <trkpt lat="4.6708510" lon="-75.7830100">
        <ele>1323.4</ele>
        <time>2022-08-13T13:29:30Z</time>
      </trkpt>
      <trkpt lat="4.6706610" lon="-75.7828090">
        <ele>1322.8</ele>
        <time>2022-08-13T13:29:34Z</time>
      </trkpt>
      <trkpt lat="4.6706050" lon="-75.7827330">
        <ele>1322.8</ele>
        <time>2022-08-13T13:29:35Z</time>
      </trkpt>
      <trkpt lat="4.6705630" lon="-75.7826640">
        <ele>1322.8</ele>
        <time>2022-08-13T13:29:36Z</time>
      </trkpt>
      <trkpt lat="4.6704460" lon="-75.7824200">
        <ele>1322.6</ele>
        <time>2022-08-13T13:29:39Z</time>
      </trkpt>
      <trkpt lat="4.6703010" lon="-75.7821320">
        <ele>1322.4</ele>
        <time>2022-08-13T13:29:43Z</time>
      </trkpt>
      <trkpt lat="4.6702370" lon="-75.7820690">
        <ele>1322.4</ele>
        <time>2022-08-13T13:29:44Z</time>
      </trkpt>
      <trkpt lat="4.6701090" lon="-75.7819430">
        <ele>1322.2</ele>
        <time>2022-08-13T13:29:46Z</time>
      </trkpt>
      <trkpt lat="4.6700430" lon="-75.7819150">
        <ele>1322.0</ele>
        <time>2022-08-13T13:29:47Z</time>
      </trkpt>
      <trkpt lat="4.6699870" lon="-75.7819010">
        <ele>1322.0</ele>
        <time>2022-08-13T13:29:48Z</time>
      </trkpt>
      <trkpt lat="4.6698460" lon="-75.7819000">
        <ele>1321.8</ele>
        <time>2022-08-13T13:29:50Z</time>
      </trkpt>
      <trkpt lat="4.6697560" lon="-75.7819260">
        <ele>1321.6</ele>
        <time>2022-08-13T13:29:52Z</time>
      </trkpt>
      <trkpt lat="4.6696740" lon="-75.7819760">
        <ele>1321.6</ele>
        <time>2022-08-13T13:29:54Z</time>
      </trkpt>
      <trkpt lat="4.6695310" lon="-75.7820480">
        <ele>1321.6</ele>
        <time>2022-08-13T13:29:58Z</time>
      </trkpt>
      <trkpt lat="4.6693200" lon="-75.7821580">
        <ele>1321.4</ele>
        <time>2022-08-13T13:30:04Z</time>
      </trkpt>
      <trkpt lat="4.6692540" lon="-75.7822060">
        <ele>1321.2</ele>
        <time>2022-08-13T13:30:06Z</time>
      </trkpt>
      <trkpt lat="4.6690690" lon="-75.7824010">
        <ele>1321.0</ele>
        <time>2022-08-13T13:30:13Z</time>
      </trkpt>
      <trkpt lat="4.6689670" lon="-75.7826070">
        <ele>1320.8</ele>
        <time>2022-08-13T13:30:19Z</time>
      </trkpt>
      <trkpt lat="4.6688930" lon="-75.7827310">
        <ele>1321.0</ele>
        <time>2022-08-13T13:30:22Z</time>
      </trkpt>
      <trkpt lat="4.6688620" lon="-75.7827690">
        <ele>1320.8</ele>
        <time>2022-08-13T13:30:23Z</time>
      </trkpt>
      <trkpt lat="4.6687930" lon="-75.7828400">
        <ele>1320.6</ele>
        <time>2022-08-13T13:30:25Z</time>
      </trkpt>
      <trkpt lat="4.6687250" lon="-75.7828820">
        <ele>1320.6</ele>
        <time>2022-08-13T13:30:27Z</time>
      </trkpt>
      <trkpt lat="4.6686950" lon="-75.7828910">
        <ele>1320.6</ele>
        <time>2022-08-13T13:30:28Z</time>
      </trkpt>
      <trkpt lat="4.6685930" lon="-75.7828780">
        <ele>1320.6</ele>
        <time>2022-08-13T13:30:31Z</time>
      </trkpt>
      <trkpt lat="4.6685490" lon="-75.7828650">
        <ele>1320.6</ele>
        <time>2022-08-13T13:30:32Z</time>
      </trkpt>
      <trkpt lat="4.6685050" lon="-75.7828450">
        <ele>1320.4</ele>
        <time>2022-08-13T13:30:33Z</time>
      </trkpt>
      <trkpt lat="4.6683320" lon="-75.7827220">
        <ele>1320.4</ele>
        <time>2022-08-13T13:30:37Z</time>
      </trkpt>
      <trkpt lat="4.6680470" lon="-75.7824970">
        <ele>1320.2</ele>
        <time>2022-08-13T13:30:43Z</time>
      </trkpt>
      <trkpt lat="4.6680110" lon="-75.7824640">
        <ele>1320.2</ele>
        <time>2022-08-13T13:30:44Z</time>
      </trkpt>
      <trkpt lat="4.6675730" lon="-75.7821080">
        <ele>1319.6</ele>
        <time>2022-08-13T13:30:53Z</time>
      </trkpt>
      <trkpt lat="4.6675320" lon="-75.7820770">
        <ele>1319.6</ele>
        <time>2022-08-13T13:30:54Z</time>
      </trkpt>
      <trkpt lat="4.6674320" lon="-75.7819950">
        <ele>1319.4</ele>
        <time>2022-08-13T13:30:56Z</time>
      </trkpt>
      <trkpt lat="4.6669990" lon="-75.7816520">
        <ele>1319.2</ele>
        <time>2022-08-13T13:31:03Z</time>
      </trkpt>
      <trkpt lat="4.6665420" lon="-75.7812880">
        <ele>1319.0</ele>
        <time>2022-08-13T13:31:12Z</time>
      </trkpt>
      <trkpt lat="4.6664410" lon="-75.7812050">
        <ele>1319.0</ele>
        <time>2022-08-13T13:31:14Z</time>
      </trkpt>
      <trkpt lat="4.6660350" lon="-75.7808630">
        <ele>1319.0</ele>
        <time>2022-08-13T13:31:22Z</time>
      </trkpt>
      <trkpt lat="4.6658310" lon="-75.7806490">
        <ele>1319.2</ele>
        <time>2022-08-13T13:31:28Z</time>
      </trkpt>
      <trkpt lat="4.6656560" lon="-75.7804420">
        <ele>1319.6</ele>
        <time>2022-08-13T13:31:34Z</time>
      </trkpt>
      <trkpt lat="4.6656320" lon="-75.7804080">
        <ele>1319.6</ele>
        <time>2022-08-13T13:31:35Z</time>
      </trkpt>
      <trkpt lat="4.6654230" lon="-75.7801400">
        <ele>1321.8</ele>
        <time>2022-08-13T13:31:43Z</time>
      </trkpt>
      <trkpt lat="4.6653930" lon="-75.7801060">
        <ele>1322.2</ele>
        <time>2022-08-13T13:31:44Z</time>
      </trkpt>
      <trkpt lat="4.6653630" lon="-75.7800710">
        <ele>1322.8</ele>
        <time>2022-08-13T13:31:45Z</time>
      </trkpt>
      <trkpt lat="4.6653300" lon="-75.7800390">
        <ele>1323.0</ele>
        <time>2022-08-13T13:31:46Z</time>
      </trkpt>
      <trkpt lat="4.6652440" lon="-75.7799320">
        <ele>1324.2</ele>
        <time>2022-08-13T13:31:49Z</time>
      </trkpt>
      <trkpt lat="4.6651900" lon="-75.7798560">
        <ele>1325.0</ele>
        <time>2022-08-13T13:31:51Z</time>
      </trkpt>
      <trkpt lat="4.6651640" lon="-75.7798170">
        <ele>1325.6</ele>
        <time>2022-08-13T13:31:52Z</time>
      </trkpt>
      <trkpt lat="4.6650790" lon="-75.7797100">
        <ele>1326.6</ele>
        <time>2022-08-13T13:31:55Z</time>
      </trkpt>
      <trkpt lat="4.6649310" lon="-75.7795380">
        <ele>1327.8</ele>
        <time>2022-08-13T13:32:00Z</time>
      </trkpt>
      <trkpt lat="4.6648460" lon="-75.7794330">
        <ele>1328.6</ele>
        <time>2022-08-13T13:32:03Z</time>
      </trkpt>
      <trkpt lat="4.6648170" lon="-75.7793990">
        <ele>1329.2</ele>
        <time>2022-08-13T13:32:04Z</time>
      </trkpt>
      <trkpt lat="4.6646970" lon="-75.7792500">
        <ele>1330.4</ele>
        <time>2022-08-13T13:32:08Z</time>
      </trkpt>
      <trkpt lat="4.6645690" lon="-75.7790860">
        <ele>1331.6</ele>
        <time>2022-08-13T13:32:12Z</time>
      </trkpt>
      <trkpt lat="4.6643970" lon="-75.7788760">
        <ele>1332.8</ele>
        <time>2022-08-13T13:32:17Z</time>
      </trkpt>
      <trkpt lat="4.6642520" lon="-75.7786990">
        <ele>1334.2</ele>
        <time>2022-08-13T13:32:21Z</time>
      </trkpt>
      <trkpt lat="4.6642150" lon="-75.7786530">
        <ele>1334.2</ele>
        <time>2022-08-13T13:32:22Z</time>
      </trkpt>
      <trkpt lat="4.6640180" lon="-75.7784200">
        <ele>1335.2</ele>
        <time>2022-08-13T13:32:27Z</time>
      </trkpt>
      <trkpt lat="4.6638850" lon="-75.7782810">
        <ele>1336.0</ele>
        <time>2022-08-13T13:32:30Z</time>
      </trkpt>
      <trkpt lat="4.6638370" lon="-75.7782370">
        <ele>1336.2</ele>
        <time>2022-08-13T13:32:31Z</time>
      </trkpt>
      <trkpt lat="4.6637340" lon="-75.7781500">
        <ele>1336.6</ele>
        <time>2022-08-13T13:32:33Z</time>
      </trkpt>
      <trkpt lat="4.6634650" lon="-75.7779190">
        <ele>1337.6</ele>
        <time>2022-08-13T13:32:38Z</time>
      </trkpt>
      <trkpt lat="4.6634120" lon="-75.7778730">
        <ele>1337.8</ele>
        <time>2022-08-13T13:32:39Z</time>
      </trkpt>
      <trkpt lat="4.6632520" lon="-75.7777290">
        <ele>1338.2</ele>
        <time>2022-08-13T13:32:42Z</time>
      </trkpt>
      <trkpt lat="4.6631910" lon="-75.7776810">
        <ele>1338.4</ele>
        <time>2022-08-13T13:32:43Z</time>
      </trkpt>
      <trkpt lat="4.6630070" lon="-75.7775500">
        <ele>1339.0</ele>
        <time>2022-08-13T13:32:46Z</time>
      </trkpt>
      <trkpt lat="4.6628210" lon="-75.7774170">
        <ele>1339.6</ele>
        <time>2022-08-13T13:32:49Z</time>
      </trkpt>
      <trkpt lat="4.6626980" lon="-75.7773330">
        <ele>1340.0</ele>
        <time>2022-08-13T13:32:51Z</time>
      </trkpt>
      <trkpt lat="4.6623340" lon="-75.7770740">
        <ele>1341.4</ele>
        <time>2022-08-13T13:32:57Z</time>
      </trkpt>
      <trkpt lat="4.6622100" lon="-75.7769840">
        <ele>1342.0</ele>
        <time>2022-08-13T13:32:59Z</time>
      </trkpt>
      <trkpt lat="4.6618740" lon="-75.7767350">
        <ele>1342.8</ele>
        <time>2022-08-13T13:33:03Z</time>
      </trkpt>
      <trkpt lat="4.6618000" lon="-75.7766840">
        <ele>1343.2</ele>
        <time>2022-08-13T13:33:05Z</time>
      </trkpt>
      <trkpt lat="4.6615670" lon="-75.7765360">
        <ele>1343.2</ele>
        <time>2022-08-13T13:33:07Z</time>
      </trkpt>
      <trkpt lat="4.6613910" lon="-75.7764690">
        <ele>1343.6</ele>
        <time>2022-08-13T13:33:09Z</time>
      </trkpt>
      <trkpt lat="4.6611960" lon="-75.7764320">
        <ele>1343.8</ele>
        <time>2022-08-13T13:33:11Z</time>
      </trkpt>
      <trkpt lat="4.6610750" lon="-75.7764240">
        <ele>1344.0</ele>
        <time>2022-08-13T13:33:13Z</time>
      </trkpt>
      <trkpt lat="4.6609710" lon="-75.7764380">
        <ele>1344.2</ele>
        <time>2022-08-13T13:33:14Z</time>
      </trkpt>
      <trkpt lat="4.6607640" lon="-75.7764660">
        <ele>1344.4</ele>
        <time>2022-08-13T13:33:16Z</time>
      </trkpt>
      <trkpt lat="4.6605750" lon="-75.7765310">
        <ele>1344.6</ele>
        <time>2022-08-13T13:33:18Z</time>
      </trkpt>
      <trkpt lat="4.6603760" lon="-75.7766270">
        <ele>1344.8</ele>
        <time>2022-08-13T13:33:20Z</time>
      </trkpt>
      <trkpt lat="4.6599920" lon="-75.7768470">
        <ele>1345.4</ele>
        <time>2022-08-13T13:33:24Z</time>
      </trkpt>
      <trkpt lat="4.6598890" lon="-75.7769090">
        <ele>1345.4</ele>
        <time>2022-08-13T13:33:25Z</time>
      </trkpt>
      <trkpt lat="4.6593430" lon="-75.7772330">
        <ele>1346.0</ele>
        <time>2022-08-13T13:33:30Z</time>
      </trkpt>
      <trkpt lat="4.6588480" lon="-75.7774530">
        <ele>1346.2</ele>
        <time>2022-08-13T13:33:34Z</time>
      </trkpt>
      <trkpt lat="4.6587160" lon="-75.7775040">
        <ele>1346.4</ele>
        <time>2022-08-13T13:33:35Z</time>
      </trkpt>
      <trkpt lat="4.6582970" lon="-75.7776160">
        <ele>1346.6</ele>
        <time>2022-08-13T13:33:37Z</time>
      </trkpt>
      <trkpt lat="4.6581530" lon="-75.7776290">
        <ele>1346.6</ele>
        <time>2022-08-13T13:33:38Z</time>
      </trkpt>
      <trkpt lat="4.6578550" lon="-75.7776330">
        <ele>1346.6</ele>
        <time>2022-08-13T13:33:40Z</time>
      </trkpt>
      <trkpt lat="4.6576280" lon="-75.7776140">
        <ele>1346.6</ele>
        <time>2022-08-13T13:33:42Z</time>
      </trkpt>
      <trkpt lat="4.6570950" lon="-75.7775570">
        <ele>1346.2</ele>
        <time>2022-08-13T13:33:47Z</time>
      </trkpt>
      <trkpt lat="4.6568280" lon="-75.7775280">
        <ele>1345.2</ele>
        <time>2022-08-13T13:33:51Z</time>
      </trkpt>
      <trkpt lat="4.6565040" lon="-75.7774720">
        <ele>1344.4</ele>
        <time>2022-08-13T13:33:56Z</time>
      </trkpt>
      <trkpt lat="4.6562340" lon="-75.7774060">
        <ele>1343.4</ele>
        <time>2022-08-13T13:34:00Z</time>
      </trkpt>
      <trkpt lat="4.6562130" lon="-75.7773980">
        <ele>1343.2</ele>
        <time>2022-08-13T13:34:01Z</time>
      </trkpt>
      <trkpt lat="4.6561910" lon="-75.7773890">
        <ele>1343.2</ele>
        <time>2022-08-13T13:34:02Z</time>
      </trkpt>
      <trkpt lat="4.6559590" lon="-75.7773470">
        <ele>1342.4</ele>
        <time>2022-08-13T13:34:06Z</time>
      </trkpt>
      <trkpt lat="4.6558510" lon="-75.7773070">
        <ele>1341.8</ele>
        <time>2022-08-13T13:34:08Z</time>
      </trkpt>
      <trkpt lat="4.6557010" lon="-75.7772670">
        <ele>1341.6</ele>
        <time>2022-08-13T13:34:10Z</time>
      </trkpt>
      <trkpt lat="4.6553840" lon="-75.7771800">
        <ele>1341.2</ele>
        <time>2022-08-13T13:34:13Z</time>
      </trkpt>
      <trkpt lat="4.6550300" lon="-75.7770650">
        <ele>1341.2</ele>
        <time>2022-08-13T13:34:18Z</time>
      </trkpt>
      <trkpt lat="4.6549060" lon="-75.7769960">
        <ele>1341.2</ele>
        <time>2022-08-13T13:34:19Z</time>
      </trkpt>
      <trkpt lat="4.6545330" lon="-75.7767920">
        <ele>1341.4</ele>
        <time>2022-08-13T13:34:22Z</time>
      </trkpt>
      <trkpt lat="4.6539650" lon="-75.7764020">
        <ele>1342.4</ele>
        <time>2022-08-13T13:34:28Z</time>
      </trkpt>
      <trkpt lat="4.6538830" lon="-75.7763480">
        <ele>1342.6</ele>
        <time>2022-08-13T13:34:29Z</time>
      </trkpt>
      <trkpt lat="4.6536200" lon="-75.7761610">
        <ele>1343.0</ele>
        <time>2022-08-13T13:34:33Z</time>
      </trkpt>
      <trkpt lat="4.6535660" lon="-75.7761180">
        <ele>1343.4</ele>
        <time>2022-08-13T13:34:35Z</time>
      </trkpt>
      <trkpt lat="4.6534620" lon="-75.7760530">
        <ele>1343.4</ele>
        <time>2022-08-13T13:34:36Z</time>
      </trkpt>
      <trkpt lat="4.6534160" lon="-75.7760230">
        <ele>1343.6</ele>
        <time>2022-08-13T13:34:38Z</time>
      </trkpt>
      <trkpt lat="4.6533310" lon="-75.7759640">
        <ele>1343.8</ele>
        <time>2022-08-13T13:34:39Z</time>
      </trkpt>
      <trkpt lat="4.6532130" lon="-75.7758810">
        <ele>1344.6</ele>
        <time>2022-08-13T13:34:42Z</time>
      </trkpt>
      <trkpt lat="4.6532130" lon="-75.7758810">
        <ele>1344.8</ele>
        <time>2022-08-13T13:34:43Z</time>
      </trkpt>
      <trkpt lat="4.6531430" lon="-75.7758300">
        <ele>1345.0</ele>
        <time>2022-08-13T13:34:44Z</time>
      </trkpt>
      <trkpt lat="4.6530510" lon="-75.7757620">
        <ele>1345.4</ele>
        <time>2022-08-13T13:34:48Z</time>
      </trkpt>
      <trkpt lat="4.6529290" lon="-75.7756770">
        <ele>1346.0</ele>
        <time>2022-08-13T13:34:52Z</time>
      </trkpt>
      <trkpt lat="4.6528400" lon="-75.7756120">
        <ele>1346.6</ele>
        <time>2022-08-13T13:34:55Z</time>
      </trkpt>
      <trkpt lat="4.6526390" lon="-75.7754770">
        <ele>1347.2</ele>
        <time>2022-08-13T13:35:02Z</time>
      </trkpt>
      <trkpt lat="4.6525240" lon="-75.7754160">
        <ele>1347.4</ele>
        <time>2022-08-13T13:35:06Z</time>
      </trkpt>
      <trkpt lat="4.6524680" lon="-75.7753740">
        <ele>1347.8</ele>
        <time>2022-08-13T13:35:08Z</time>
      </trkpt>
      <trkpt lat="4.6522780" lon="-75.7752240">
        <ele>1348.4</ele>
        <time>2022-08-13T13:35:15Z</time>
      </trkpt>
      <trkpt lat="4.6520890" lon="-75.7750780">
        <ele>1349.0</ele>
        <time>2022-08-13T13:35:22Z</time>
      </trkpt>
      <trkpt lat="4.6520330" lon="-75.7750390">
        <ele>1349.2</ele>
        <time>2022-08-13T13:35:25Z</time>
      </trkpt>
      <trkpt lat="4.6517800" lon="-75.7748520">
        <ele>1350.2</ele>
        <time>2022-08-13T13:35:34Z</time>
      </trkpt>
      <trkpt lat="4.6514800" lon="-75.7746460">
        <ele>1351.0</ele>
        <time>2022-08-13T13:35:44Z</time>
      </trkpt>
      <trkpt lat="4.6514250" lon="-75.7746080">
        <ele>1351.0</ele>
        <time>2022-08-13T13:35:46Z</time>
      </trkpt>
      <trkpt lat="4.6511810" lon="-75.7744480">
        <ele>1351.6</ele>
        <time>2022-08-13T13:35:56Z</time>
      </trkpt>
      <trkpt lat="4.6509620" lon="-75.7743280">
        <ele>1351.8</ele>
        <time>2022-08-13T13:36:03Z</time>
      </trkpt>
      <trkpt lat="4.6506910" lon="-75.7741060">
        <ele>1352.2</ele>
        <time>2022-08-13T13:36:12Z</time>
      </trkpt>
      <trkpt lat="4.6506110" lon="-75.7740500">
        <ele>1352.4</ele>
        <time>2022-08-13T13:36:14Z</time>
      </trkpt>
      <trkpt lat="4.6504690" lon="-75.7739680">
        <ele>1352.6</ele>
        <time>2022-08-13T13:36:17Z</time>
      </trkpt>
      <trkpt lat="4.6503520" lon="-75.7739110">
        <ele>1352.6</ele>
        <time>2022-08-13T13:36:19Z</time>
      </trkpt>
      <trkpt lat="4.6501540" lon="-75.7738560">
        <ele>1352.8</ele>
        <time>2022-08-13T13:36:22Z</time>
      </trkpt>
      <trkpt lat="4.6498620" lon="-75.7738260">
        <ele>1352.8</ele>
        <time>2022-08-13T13:36:26Z</time>
      </trkpt>
      <trkpt lat="4.6497010" lon="-75.7738240">
        <ele>1352.8</ele>
        <time>2022-08-13T13:36:28Z</time>
      </trkpt>
      <trkpt lat="4.6492810" lon="-75.7738260">
        <ele>1353.0</ele>
        <time>2022-08-13T13:36:34Z</time>
      </trkpt>
      <trkpt lat="4.6486850" lon="-75.7738090">
        <ele>1353.4</ele>
        <time>2022-08-13T13:36:40Z</time>
      </trkpt>
      <trkpt lat="4.6481420" lon="-75.7738170">
        <ele>1353.8</ele>
        <time>2022-08-13T13:36:46Z</time>
      </trkpt>
      <trkpt lat="4.6479620" lon="-75.7738400">
        <ele>1353.8</ele>
        <time>2022-08-13T13:36:48Z</time>
      </trkpt>
      <trkpt lat="4.6477790" lon="-75.7738910">
        <ele>1354.0</ele>
        <time>2022-08-13T13:36:50Z</time>
      </trkpt>
      <trkpt lat="4.6476040" lon="-75.7739790">
        <ele>1354.0</ele>
        <time>2022-08-13T13:36:52Z</time>
      </trkpt>
      <trkpt lat="4.6474400" lon="-75.7740880">
        <ele>1354.2</ele>
        <time>2022-08-13T13:36:54Z</time>
      </trkpt>
      <trkpt lat="4.6472880" lon="-75.7742210">
        <ele>1354.2</ele>
        <time>2022-08-13T13:36:56Z</time>
      </trkpt>
      <trkpt lat="4.6469710" lon="-75.7745090">
        <ele>1354.4</ele>
        <time>2022-08-13T13:37:00Z</time>
      </trkpt>
      <trkpt lat="4.6468790" lon="-75.7745710">
        <ele>1354.4</ele>
        <time>2022-08-13T13:37:02Z</time>
      </trkpt>
      <trkpt lat="4.6467370" lon="-75.7746190">
        <ele>1354.4</ele>
        <time>2022-08-13T13:37:03Z</time>
      </trkpt>
      <trkpt lat="4.6464530" lon="-75.7747140">
        <ele>1354.4</ele>
        <time>2022-08-13T13:37:05Z</time>
      </trkpt>
      <trkpt lat="4.6461090" lon="-75.7746710">
        <ele>1354.4</ele>
        <time>2022-08-13T13:37:08Z</time>
      </trkpt>
      <trkpt lat="4.6454860" lon="-75.7744440">
        <ele>1354.6</ele>
        <time>2022-08-13T13:37:14Z</time>
      </trkpt>
      <trkpt lat="4.6451970" lon="-75.7743250">
        <ele>1354.4</ele>
        <time>2022-08-13T13:37:18Z</time>
      </trkpt>
      <trkpt lat="4.6449580" lon="-75.7742360">
        <ele>1354.8</ele>
        <time>2022-08-13T13:37:23Z</time>
      </trkpt>
      <trkpt lat="4.6447760" lon="-75.7741810">
        <ele>1354.8</ele>
        <time>2022-08-13T13:37:26Z</time>
      </trkpt>
      <trkpt lat="4.6446380" lon="-75.7741230">
        <ele>1354.8</ele>
        <time>2022-08-13T13:37:30Z</time>
      </trkpt>
      <trkpt lat="4.6444020" lon="-75.7740210">
        <ele>1354.2</ele>
        <time>2022-08-13T13:37:37Z</time>
      </trkpt>
      <trkpt lat="4.6443040" lon="-75.7739820">
        <ele>1353.4</ele>
        <time>2022-08-13T13:37:40Z</time>
      </trkpt>
      <trkpt lat="4.6442150" lon="-75.7739460">
        <ele>1352.6</ele>
        <time>2022-08-13T13:37:43Z</time>
      </trkpt>
      <trkpt lat="4.6441830" lon="-75.7739330">
        <ele>1352.2</ele>
        <time>2022-08-13T13:37:44Z</time>
      </trkpt>
      <trkpt lat="4.6440760" lon="-75.7738710">
        <ele>1351.0</ele>
        <time>2022-08-13T13:37:48Z</time>
      </trkpt>
      <trkpt lat="4.6440270" lon="-75.7738400">
        <ele>1350.2</ele>
        <time>2022-08-13T13:37:51Z</time>
      </trkpt>
      <trkpt lat="4.6439210" lon="-75.7737660">
        <ele>1349.0</ele>
        <time>2022-08-13T13:37:55Z</time>
      </trkpt>
      <trkpt lat="4.6438230" lon="-75.7736480">
        <ele>1347.6</ele>
        <time>2022-08-13T13:37:59Z</time>
      </trkpt>
      <trkpt lat="4.6438110" lon="-75.7736210">
        <ele>1347.6</ele>
        <time>2022-08-13T13:38:00Z</time>
      </trkpt>
      <trkpt lat="4.6437450" lon="-75.7734550">
        <ele>1347.2</ele>
        <time>2022-08-13T13:38:06Z</time>
      </trkpt>
      <trkpt lat="4.6437410" lon="-75.7734280">
        <ele>1347.2</ele>
        <time>2022-08-13T13:38:07Z</time>
      </trkpt>
      <trkpt lat="4.6436590" lon="-75.7732460">
        <ele>1347.4</ele>
        <time>2022-08-13T13:38:13Z</time>
      </trkpt>
      <trkpt lat="4.6435410" lon="-75.7729600">
        <ele>1348.2</ele>
        <time>2022-08-13T13:38:22Z</time>
      </trkpt>
      <trkpt lat="4.6433860" lon="-75.7728670">
        <ele>1348.4</ele>
        <time>2022-08-13T13:38:27Z</time>
      </trkpt>
      <trkpt lat="4.6432490" lon="-75.7728210">
        <ele>1348.6</ele>
        <time>2022-08-13T13:38:29Z</time>
      </trkpt>
      <trkpt lat="4.6431980" lon="-75.7728090">
        <ele>1349.0</ele>
        <time>2022-08-13T13:38:31Z</time>
      </trkpt>
      <trkpt lat="4.6430930" lon="-75.7727930">
        <ele>1349.0</ele>
        <time>2022-08-13T13:38:32Z</time>
      </trkpt>
      <trkpt lat="4.6429080" lon="-75.7727850">
        <ele>1349.2</ele>
        <time>2022-08-13T13:38:35Z</time>
      </trkpt>
      <trkpt lat="4.6425950" lon="-75.7727470">
        <ele>1349.6</ele>
        <time>2022-08-13T13:38:39Z</time>
      </trkpt>
      <trkpt lat="4.6425950" lon="-75.7727470">
        <ele>1349.6</ele>
        <time>2022-08-13T13:38:40Z</time>
      </trkpt>
      <trkpt lat="4.6421200" lon="-75.7726760">
        <ele>1349.8</ele>
        <time>2022-08-13T13:38:44Z</time>
      </trkpt>
      <trkpt lat="4.6415310" lon="-75.7725990">
        <ele>1350.2</ele>
        <time>2022-08-13T13:38:49Z</time>
      </trkpt>
      <trkpt lat="4.6409490" lon="-75.7725020">
        <ele>1350.2</ele>
        <time>2022-08-13T13:38:54Z</time>
      </trkpt>
      <trkpt lat="4.6407210" lon="-75.7725160">
        <ele>1350.4</ele>
        <time>2022-08-13T13:38:56Z</time>
      </trkpt>
      <trkpt lat="4.6405040" lon="-75.7725710">
        <ele>1350.4</ele>
        <time>2022-08-13T13:38:58Z</time>
      </trkpt>
      <trkpt lat="4.6404030" lon="-75.7726190">
        <ele>1350.4</ele>
        <time>2022-08-13T13:38:59Z</time>
      </trkpt>
      <trkpt lat="4.6401240" lon="-75.7727840">
        <ele>1350.6</ele>
        <time>2022-08-13T13:39:02Z</time>
      </trkpt>
      <trkpt lat="4.6399470" lon="-75.7729160">
        <ele>1350.6</ele>
        <time>2022-08-13T13:39:04Z</time>
      </trkpt>
      <trkpt lat="4.6395250" lon="-75.7732220">
        <ele>1350.6</ele>
        <time>2022-08-13T13:39:09Z</time>
      </trkpt>
      <trkpt lat="4.6391410" lon="-75.7735180">
        <ele>1350.0</ele>
        <time>2022-08-13T13:39:14Z</time>
      </trkpt>
      <trkpt lat="4.6389510" lon="-75.7736750">
        <ele>1349.0</ele>
        <time>2022-08-13T13:39:17Z</time>
      </trkpt>
      <trkpt lat="4.6388920" lon="-75.7737210">
        <ele>1348.6</ele>
        <time>2022-08-13T13:39:18Z</time>
      </trkpt>
      <trkpt lat="4.6388370" lon="-75.7737670">
        <ele>1348.2</ele>
        <time>2022-08-13T13:39:20Z</time>
      </trkpt>
      <trkpt lat="4.6386520" lon="-75.7739190">
        <ele>1347.2</ele>
        <time>2022-08-13T13:39:23Z</time>
      </trkpt>
      <trkpt lat="4.6386100" lon="-75.7739520">
        <ele>1346.8</ele>
        <time>2022-08-13T13:39:24Z</time>
      </trkpt>
      <trkpt lat="4.6384540" lon="-75.7740630">
        <ele>1346.0</ele>
        <time>2022-08-13T13:39:28Z</time>
      </trkpt>
      <trkpt lat="4.6383540" lon="-75.7741360">
        <ele>1345.0</ele>
        <time>2022-08-13T13:39:31Z</time>
      </trkpt>
      <trkpt lat="4.6383230" lon="-75.7741590">
        <ele>1344.8</ele>
        <time>2022-08-13T13:39:32Z</time>
      </trkpt>
      <trkpt lat="4.6381860" lon="-75.7742690">
        <ele>1343.6</ele>
        <time>2022-08-13T13:39:37Z</time>
      </trkpt>
      <trkpt lat="4.6381320" lon="-75.7743050">
        <ele>1343.4</ele>
        <time>2022-08-13T13:39:39Z</time>
      </trkpt>
      <trkpt lat="4.6379200" lon="-75.7744090">
        <ele>1343.2</ele>
        <time>2022-08-13T13:39:46Z</time>
      </trkpt>
      <trkpt lat="4.6377330" lon="-75.7744510">
        <ele>1344.0</ele>
        <time>2022-08-13T13:39:52Z</time>
      </trkpt>
      <trkpt lat="4.6375340" lon="-75.7744270">
        <ele>1344.0</ele>
        <time>2022-08-13T13:39:58Z</time>
      </trkpt>
      <trkpt lat="4.6372740" lon="-75.7743110">
        <ele>1343.0</ele>
        <time>2022-08-13T13:40:07Z</time>
      </trkpt>
      <trkpt lat="4.6371710" lon="-75.7742450">
        <ele>1342.0</ele>
        <time>2022-08-13T13:40:11Z</time>
      </trkpt>
      <trkpt lat="4.6371190" lon="-75.7742100">
        <ele>1341.4</ele>
        <time>2022-08-13T13:40:13Z</time>
      </trkpt>
      <trkpt lat="4.6370660" lon="-75.7741900">
        <ele>1340.8</ele>
        <time>2022-08-13T13:40:15Z</time>
      </trkpt>
      <trkpt lat="4.6369200" lon="-75.7741450">
        <ele>1339.4</ele>
        <time>2022-08-13T13:40:20Z</time>
      </trkpt>
      <trkpt lat="4.6367750" lon="-75.7740900">
        <ele>1338.2</ele>
        <time>2022-08-13T13:40:25Z</time>
      </trkpt>
      <trkpt lat="4.6367080" lon="-75.7740650">
        <ele>1337.8</ele>
        <time>2022-08-13T13:40:27Z</time>
      </trkpt>
      <trkpt lat="4.6365330" lon="-75.7740130">
        <ele>1337.2</ele>
        <time>2022-08-13T13:40:32Z</time>
      </trkpt>
      <trkpt lat="4.6364590" lon="-75.7739860">
        <ele>1337.0</ele>
        <time>2022-08-13T13:40:34Z</time>
      </trkpt>
      <trkpt lat="4.6362950" lon="-75.7739210">
        <ele>1336.2</ele>
        <time>2022-08-13T13:40:38Z</time>
      </trkpt>
      <trkpt lat="4.6361540" lon="-75.7738680">
        <ele>1335.4</ele>
        <time>2022-08-13T13:40:41Z</time>
      </trkpt>
      <trkpt lat="4.6360590" lon="-75.7738200">
        <ele>1335.0</ele>
        <time>2022-08-13T13:40:43Z</time>
      </trkpt>
      <trkpt lat="4.6360000" lon="-75.7738000">
        <ele>1334.8</ele>
        <time>2022-08-13T13:40:44Z</time>
      </trkpt>
      <trkpt lat="4.6359030" lon="-75.7737660">
        <ele>1334.6</ele>
        <time>2022-08-13T13:40:46Z</time>
      </trkpt>
      <trkpt lat="4.6359030" lon="-75.7737660">
        <ele>1334.4</ele>
        <time>2022-08-13T13:40:47Z</time>
      </trkpt>
      <trkpt lat="4.6356700" lon="-75.7736710">
        <ele>1333.8</ele>
        <time>2022-08-13T13:40:50Z</time>
      </trkpt>
      <trkpt lat="4.6354740" lon="-75.7735840">
        <ele>1333.4</ele>
        <time>2022-08-13T13:40:53Z</time>
      </trkpt>
      <trkpt lat="4.6352550" lon="-75.7735030">
        <ele>1332.8</ele>
        <time>2022-08-13T13:40:56Z</time>
      </trkpt>
      <trkpt lat="4.6350280" lon="-75.7734110">
        <ele>1332.4</ele>
        <time>2022-08-13T13:40:59Z</time>
      </trkpt>
      <trkpt lat="4.6344830" lon="-75.7731860">
        <ele>1332.4</ele>
        <time>2022-08-13T13:41:06Z</time>
      </trkpt>
      <trkpt lat="4.6339410" lon="-75.7729830">
        <ele>1333.2</ele>
        <time>2022-08-13T13:41:13Z</time>
      </trkpt>
      <trkpt lat="4.6338640" lon="-75.7729570">
        <ele>1333.4</ele>
        <time>2022-08-13T13:41:14Z</time>
      </trkpt>
      <trkpt lat="4.6337870" lon="-75.7729300">
        <ele>1333.8</ele>
        <time>2022-08-13T13:41:16Z</time>
      </trkpt>
      <trkpt lat="4.6336360" lon="-75.7728740">
        <ele>1334.0</ele>
        <time>2022-08-13T13:41:17Z</time>
      </trkpt>
      <trkpt lat="4.6334140" lon="-75.7727890">
        <ele>1334.6</ele>
        <time>2022-08-13T13:41:20Z</time>
      </trkpt>
      <trkpt lat="4.6332670" lon="-75.7727290">
        <ele>1335.2</ele>
        <time>2022-08-13T13:41:22Z</time>
      </trkpt>
      <trkpt lat="4.6329090" lon="-75.7725880">
        <ele>1336.2</ele>
        <time>2022-08-13T13:41:27Z</time>
      </trkpt>
      <trkpt lat="4.6328390" lon="-75.7725580">
        <ele>1336.4</ele>
        <time>2022-08-13T13:41:28Z</time>
      </trkpt>
      <trkpt lat="4.6325000" lon="-75.7724160">
        <ele>1337.4</ele>
        <time>2022-08-13T13:41:33Z</time>
      </trkpt>
      <trkpt lat="4.6324320" lon="-75.7723850">
        <ele>1337.6</ele>
        <time>2022-08-13T13:41:34Z</time>
      </trkpt>
      <trkpt lat="4.6321770" lon="-75.7722660">
        <ele>1338.6</ele>
        <time>2022-08-13T13:41:38Z</time>
      </trkpt>
      <trkpt lat="4.6319870" lon="-75.7721910">
        <ele>1339.2</ele>
        <time>2022-08-13T13:41:41Z</time>
      </trkpt>
      <trkpt lat="4.6318100" lon="-75.7721170">
        <ele>1339.8</ele>
        <time>2022-08-13T13:41:44Z</time>
      </trkpt>
      <trkpt lat="4.6314270" lon="-75.7719370">
        <ele>1341.2</ele>
        <time>2022-08-13T13:41:51Z</time>
      </trkpt>
      <trkpt lat="4.6313240" lon="-75.7718750">
        <ele>1341.4</ele>
        <time>2022-08-13T13:41:53Z</time>
      </trkpt>
      <trkpt lat="4.6312200" lon="-75.7718380">
        <ele>1341.6</ele>
        <time>2022-08-13T13:41:55Z</time>
      </trkpt>
      <trkpt lat="4.6310020" lon="-75.7717630">
        <ele>1342.4</ele>
        <time>2022-08-13T13:42:00Z</time>
      </trkpt>
      <trkpt lat="4.6308300" lon="-75.7717150">
        <ele>1343.0</ele>
        <time>2022-08-13T13:42:05Z</time>
      </trkpt>
      <trkpt lat="4.6307530" lon="-75.7716820">
        <ele>1343.4</ele>
        <time>2022-08-13T13:42:08Z</time>
      </trkpt>
      <trkpt lat="4.6306810" lon="-75.7716560">
        <ele>1344.0</ele>
        <time>2022-08-13T13:42:11Z</time>
      </trkpt>
      <trkpt lat="4.6305710" lon="-75.7716090">
        <ele>1344.4</ele>
        <time>2022-08-13T13:42:16Z</time>
      </trkpt>
      <trkpt lat="4.6304970" lon="-75.7715920">
        <ele>1344.6</ele>
        <time>2022-08-13T13:42:19Z</time>
      </trkpt>
      <trkpt lat="4.6304520" lon="-75.7715750">
        <ele>1344.8</ele>
        <time>2022-08-13T13:42:22Z</time>
      </trkpt>
      <trkpt lat="4.6302450" lon="-75.7714830">
        <ele>1345.6</ele>
        <time>2022-08-13T13:42:30Z</time>
      </trkpt>
      <trkpt lat="4.6301750" lon="-75.7714520">
        <ele>1345.8</ele>
        <time>2022-08-13T13:42:33Z</time>
      </trkpt>
      <trkpt lat="4.6300770" lon="-75.7714100">
        <ele>1346.2</ele>
        <time>2022-08-13T13:42:38Z</time>
      </trkpt>
      <trkpt lat="4.6298460" lon="-75.7713280">
        <ele>1346.8</ele>
        <time>2022-08-13T13:42:46Z</time>
      </trkpt>
      <trkpt lat="4.6297830" lon="-75.7713030">
        <ele>1347.0</ele>
        <time>2022-08-13T13:42:49Z</time>
      </trkpt>
      <trkpt lat="4.6296830" lon="-75.7712580">
        <ele>1347.4</ele>
        <time>2022-08-13T13:42:54Z</time>
      </trkpt>
      <trkpt lat="4.6295300" lon="-75.7711890">
        <ele>1348.0</ele>
        <time>2022-08-13T13:43:02Z</time>
      </trkpt>
      <trkpt lat="4.6294700" lon="-75.7711610">
        <ele>1348.2</ele>
        <time>2022-08-13T13:43:05Z</time>
      </trkpt>
      <trkpt lat="4.6293480" lon="-75.7711100">
        <ele>1348.6</ele>
        <time>2022-08-13T13:43:11Z</time>
      </trkpt>
      <trkpt lat="4.6292540" lon="-75.7710540">
        <ele>1349.0</ele>
        <time>2022-08-13T13:43:17Z</time>
      </trkpt>
      <trkpt lat="4.6292080" lon="-75.7709980">
        <ele>1349.2</ele>
        <time>2022-08-13T13:43:20Z</time>
      </trkpt>
      <trkpt lat="4.6291590" lon="-75.7709490">
        <ele>1349.6</ele>
        <time>2022-08-13T13:43:24Z</time>
      </trkpt>
      <trkpt lat="4.6290870" lon="-75.7708720">
        <ele>1349.8</ele>
        <time>2022-08-13T13:43:28Z</time>
      </trkpt>
      <trkpt lat="4.6290570" lon="-75.7708310">
        <ele>1349.8</ele>
        <time>2022-08-13T13:43:30Z</time>
      </trkpt>
      <trkpt lat="4.6289700" lon="-75.7706890">
        <ele>1350.4</ele>
        <time>2022-08-13T13:43:36Z</time>
      </trkpt>
      <trkpt lat="4.6289440" lon="-75.7706330">
        <ele>1350.4</ele>
        <time>2022-08-13T13:43:38Z</time>
      </trkpt>
      <trkpt lat="4.6288420" lon="-75.7704440">
        <ele>1351.0</ele>
        <time>2022-08-13T13:43:45Z</time>
      </trkpt>
      <trkpt lat="4.6287500" lon="-75.7702340">
        <ele>1351.2</ele>
        <time>2022-08-13T13:43:53Z</time>
      </trkpt>
      <trkpt lat="4.6286340" lon="-75.7699230">
        <ele>1351.2</ele>
        <time>2022-08-13T13:44:03Z</time>
      </trkpt>
      <trkpt lat="4.6285440" lon="-75.7696740">
        <ele>1351.0</ele>
        <time>2022-08-13T13:44:10Z</time>
      </trkpt>
      <trkpt lat="4.6284080" lon="-75.7692930">
        <ele>1350.8</ele>
        <time>2022-08-13T13:44:20Z</time>
      </trkpt>
      <trkpt lat="4.6282700" lon="-75.7689290">
        <ele>1350.8</ele>
        <time>2022-08-13T13:44:29Z</time>
      </trkpt>
      <trkpt lat="4.6281760" lon="-75.7687250">
        <ele>1350.4</ele>
        <time>2022-08-13T13:44:34Z</time>
      </trkpt>
      <trkpt lat="4.6279770" lon="-75.7683600">
        <ele>1349.0</ele>
        <time>2022-08-13T13:44:43Z</time>
      </trkpt>
      <trkpt lat="4.6279120" lon="-75.7682490">
        <ele>1347.8</ele>
        <time>2022-08-13T13:44:46Z</time>
      </trkpt>
      <trkpt lat="4.6278480" lon="-75.7681430">
        <ele>1346.6</ele>
        <time>2022-08-13T13:44:49Z</time>
      </trkpt>
      <trkpt lat="4.6277870" lon="-75.7680430">
        <ele>1345.4</ele>
        <time>2022-08-13T13:44:52Z</time>
      </trkpt>
      <trkpt lat="4.6277310" lon="-75.7679500">
        <ele>1344.4</ele>
        <time>2022-08-13T13:44:55Z</time>
      </trkpt>
      <trkpt lat="4.6276580" lon="-75.7678320">
        <ele>1343.0</ele>
        <time>2022-08-13T13:44:59Z</time>
      </trkpt>
      <trkpt lat="4.6276410" lon="-75.7678030">
        <ele>1342.6</ele>
        <time>2022-08-13T13:45:00Z</time>
      </trkpt>
      <trkpt lat="4.6276070" lon="-75.7677490">
        <ele>1342.0</ele>
        <time>2022-08-13T13:45:02Z</time>
      </trkpt>
      <trkpt lat="4.6275550" lon="-75.7676660">
        <ele>1341.0</ele>
        <time>2022-08-13T13:45:05Z</time>
      </trkpt>
      <trkpt lat="4.6274980" lon="-75.7675900">
        <ele>1339.8</ele>
        <time>2022-08-13T13:45:09Z</time>
      </trkpt>
      <trkpt lat="4.6274060" lon="-75.7674660">
        <ele>1338.6</ele>
        <time>2022-08-13T13:45:13Z</time>
      </trkpt>
      <trkpt lat="4.6273570" lon="-75.7674240">
        <ele>1337.6</ele>
        <time>2022-08-13T13:45:15Z</time>
      </trkpt>
      <trkpt lat="4.6273080" lon="-75.7673860">
        <ele>1337.2</ele>
        <time>2022-08-13T13:45:17Z</time>
      </trkpt>
      <trkpt lat="4.6272600" lon="-75.7673460">
        <ele>1336.2</ele>
        <time>2022-08-13T13:45:19Z</time>
      </trkpt>
      <trkpt lat="4.6271980" lon="-75.7673080">
        <ele>1335.6</ele>
        <time>2022-08-13T13:45:22Z</time>
      </trkpt>
      <trkpt lat="4.6271650" lon="-75.7672830">
        <ele>1334.8</ele>
        <time>2022-08-13T13:45:25Z</time>
      </trkpt>
      <trkpt lat="4.6271320" lon="-75.7672600">
        <ele>1334.0</ele>
        <time>2022-08-13T13:45:27Z</time>
      </trkpt>
      <trkpt lat="4.6271320" lon="-75.7672600">
        <ele>1333.6</ele>
        <time>2022-08-13T13:45:28Z</time>
      </trkpt>
      <trkpt lat="4.6269740" lon="-75.7672070">
        <ele>1332.4</ele>
        <time>2022-08-13T13:45:32Z</time>
      </trkpt>
      <trkpt lat="4.6268760" lon="-75.7671900">
        <ele>1331.8</ele>
        <time>2022-08-13T13:45:34Z</time>
      </trkpt>
      <trkpt lat="4.6267650" lon="-75.7671850">
        <ele>1330.8</ele>
        <time>2022-08-13T13:45:36Z</time>
      </trkpt>
      <trkpt lat="4.6267120" lon="-75.7671870">
        <ele>1330.6</ele>
        <time>2022-08-13T13:45:37Z</time>
      </trkpt>
      <trkpt lat="4.6265640" lon="-75.7671940">
        <ele>1329.6</ele>
        <time>2022-08-13T13:45:40Z</time>
      </trkpt>
      <trkpt lat="4.6264020" lon="-75.7672050">
        <ele>1328.8</ele>
        <time>2022-08-13T13:45:43Z</time>
      </trkpt>
      <trkpt lat="4.6262650" lon="-75.7672170">
        <ele>1328.4</ele>
        <time>2022-08-13T13:45:45Z</time>
      </trkpt>
      <trkpt lat="4.6261100" lon="-75.7672270">
        <ele>1327.2</ele>
        <time>2022-08-13T13:45:48Z</time>
      </trkpt>
      <trkpt lat="4.6260120" lon="-75.7672350">
        <ele>1326.8</ele>
        <time>2022-08-13T13:45:49Z</time>
      </trkpt>
      <trkpt lat="4.6257180" lon="-75.7672600">
        <ele>1326.0</ele>
        <time>2022-08-13T13:45:52Z</time>
      </trkpt>
      <trkpt lat="4.6255780" lon="-75.7672700">
        <ele>1325.4</ele>
        <time>2022-08-13T13:45:54Z</time>
      </trkpt>
      <trkpt lat="4.6254510" lon="-75.7672710">
        <ele>1324.6</ele>
        <time>2022-08-13T13:45:56Z</time>
      </trkpt>
      <trkpt lat="4.6253400" lon="-75.7672820">
        <ele>1324.0</ele>
        <time>2022-08-13T13:45:58Z</time>
      </trkpt>
      <trkpt lat="4.6251900" lon="-75.7673040">
        <ele>1323.4</ele>
        <time>2022-08-13T13:46:01Z</time>
      </trkpt>
      <trkpt lat="4.6250570" lon="-75.7673210">
        <ele>1322.8</ele>
        <time>2022-08-13T13:46:04Z</time>
      </trkpt>
      <trkpt lat="4.6249120" lon="-75.7673340">
        <ele>1322.2</ele>
        <time>2022-08-13T13:46:08Z</time>
      </trkpt>
      <trkpt lat="4.6248840" lon="-75.7673340">
        <ele>1321.8</ele>
        <time>2022-08-13T13:46:09Z</time>
      </trkpt>
      <trkpt lat="4.6247910" lon="-75.7673470">
        <ele>1321.2</ele>
        <time>2022-08-13T13:46:14Z</time>
      </trkpt>
      <trkpt lat="4.6247730" lon="-75.7673480">
        <ele>1320.8</ele>
        <time>2022-08-13T13:46:15Z</time>
      </trkpt>
      <trkpt lat="4.6246700" lon="-75.7673610">
        <ele>1319.4</ele>
        <time>2022-08-13T13:46:20Z</time>
      </trkpt>
      <trkpt lat="4.6246190" lon="-75.7673710">
        <ele>1318.8</ele>
        <time>2022-08-13T13:46:22Z</time>
      </trkpt>
      <trkpt lat="4.6245610" lon="-75.7673770">
        <ele>1318.2</ele>
        <time>2022-08-13T13:46:24Z</time>
      </trkpt>
      <trkpt lat="4.6244720" lon="-75.7673790">
        <ele>1317.8</ele>
        <time>2022-08-13T13:46:27Z</time>
      </trkpt>
      <trkpt lat="4.6243840" lon="-75.7673880">
        <ele>1317.2</ele>
        <time>2022-08-13T13:46:31Z</time>
      </trkpt>
      <trkpt lat="4.6243650" lon="-75.7673910">
        <ele>1317.0</ele>
        <time>2022-08-13T13:46:32Z</time>
      </trkpt>
      <trkpt lat="4.6243480" lon="-75.7673920">
        <ele>1316.8</ele>
        <time>2022-08-13T13:46:33Z</time>
      </trkpt>
      <trkpt lat="4.6243260" lon="-75.7673680">
        <ele>1316.2</ele>
        <time>2022-08-13T13:46:35Z</time>
      </trkpt>
      <trkpt lat="4.6243510" lon="-75.7673340">
        <ele>1315.8</ele>
        <time>2022-08-13T13:46:37Z</time>
      </trkpt>
      <trkpt lat="4.6244180" lon="-75.7673280">
        <ele>1315.4</ele>
        <time>2022-08-13T13:46:39Z</time>
      </trkpt>
      <trkpt lat="4.6245600" lon="-75.7673180">
        <ele>1314.8</ele>
        <time>2022-08-13T13:46:42Z</time>
      </trkpt>
      <trkpt lat="4.6246710" lon="-75.7673130">
        <ele>1314.0</ele>
        <time>2022-08-13T13:46:44Z</time>
      </trkpt>
      <trkpt lat="4.6247930" lon="-75.7673010">
        <ele>1313.4</ele>
        <time>2022-08-13T13:46:46Z</time>
      </trkpt>
      <trkpt lat="4.6250580" lon="-75.7672820">
        <ele>1312.2</ele>
        <time>2022-08-13T13:46:50Z</time>
      </trkpt>
      <trkpt lat="4.6251890" lon="-75.7672730">
        <ele>1311.4</ele>
        <time>2022-08-13T13:46:52Z</time>
      </trkpt>
      <trkpt lat="4.6253910" lon="-75.7672500">
        <ele>1310.8</ele>
        <time>2022-08-13T13:46:55Z</time>
      </trkpt>
      <trkpt lat="4.6257870" lon="-75.7672130">
        <ele>1309.6</ele>
        <time>2022-08-13T13:47:01Z</time>
      </trkpt>
      <trkpt lat="4.6260470" lon="-75.7671930">
        <ele>1308.6</ele>
        <time>2022-08-13T13:47:05Z</time>
      </trkpt>
      <trkpt lat="4.6261270" lon="-75.7671860">
        <ele>1308.4</ele>
        <time>2022-08-13T13:47:06Z</time>
      </trkpt>
      <trkpt lat="4.6263540" lon="-75.7671660">
        <ele>1307.4</ele>
        <time>2022-08-13T13:47:10Z</time>
      </trkpt>
      <trkpt lat="4.6264120" lon="-75.7671660">
        <ele>1307.2</ele>
        <time>2022-08-13T13:47:11Z</time>
      </trkpt>
      <trkpt lat="4.6265210" lon="-75.7671590">
        <ele>1307.0</ele>
        <time>2022-08-13T13:47:13Z</time>
      </trkpt>
      <trkpt lat="4.6266600" lon="-75.7671360">
        <ele>1306.6</ele>
        <time>2022-08-13T13:47:16Z</time>
      </trkpt>
      <trkpt lat="4.6267800" lon="-75.7671090">
        <ele>1306.4</ele>
        <time>2022-08-13T13:47:19Z</time>
      </trkpt>
      <trkpt lat="4.6268860" lon="-75.7670790">
        <ele>1306.2</ele>
        <time>2022-08-13T13:47:22Z</time>
      </trkpt>
      <trkpt lat="4.6269500" lon="-75.7670160">
        <ele>1306.2</ele>
        <time>2022-08-13T13:47:25Z</time>
      </trkpt>
      <trkpt lat="4.6269670" lon="-75.7669920">
        <ele>1306.2</ele>
        <time>2022-08-13T13:47:26Z</time>
      </trkpt>
      <trkpt lat="4.6270080" lon="-75.7668990">
        <ele>1306.0</ele>
        <time>2022-08-13T13:47:30Z</time>
      </trkpt>
      <trkpt lat="4.6270120" lon="-75.7668730">
        <ele>1305.8</ele>
        <time>2022-08-13T13:47:31Z</time>
      </trkpt>
      <trkpt lat="4.6270130" lon="-75.7668460">
        <ele>1305.6</ele>
        <time>2022-08-13T13:47:32Z</time>
      </trkpt>
      <trkpt lat="4.6270090" lon="-75.7667660">
        <ele>1305.4</ele>
        <time>2022-08-13T13:47:35Z</time>
      </trkpt>
      <trkpt lat="4.6269680" lon="-75.7666760">
        <ele>1304.8</ele>
        <time>2022-08-13T13:47:38Z</time>
      </trkpt>
      <trkpt lat="4.6268400" lon="-75.7664430">
        <ele>1304.6</ele>
        <time>2022-08-13T13:47:45Z</time>
      </trkpt>
      <trkpt lat="4.6268240" lon="-75.7664060">
        <ele>1304.6</ele>
        <time>2022-08-13T13:47:46Z</time>
      </trkpt>
      <trkpt lat="4.6266520" lon="-75.7660830">
        <ele>1305.6</ele>
        <time>2022-08-13T13:47:55Z</time>
      </trkpt>
      <trkpt lat="4.6266150" lon="-75.7660090">
        <ele>1306.0</ele>
        <time>2022-08-13T13:47:57Z</time>
      </trkpt>
      <trkpt lat="4.6265960" lon="-75.7659720">
        <ele>1306.4</ele>
        <time>2022-08-13T13:47:58Z</time>
      </trkpt>
      <trkpt lat="4.6265760" lon="-75.7659310">
        <ele>1306.6</ele>
        <time>2022-08-13T13:47:59Z</time>
      </trkpt>
      <trkpt lat="4.6265320" lon="-75.7658430">
        <ele>1307.2</ele>
        <time>2022-08-13T13:48:01Z</time>
      </trkpt>
      <trkpt lat="4.6265110" lon="-75.7657980">
        <ele>1307.2</ele>
        <time>2022-08-13T13:48:02Z</time>
      </trkpt>
      <trkpt lat="4.6264890" lon="-75.7657510">
        <ele>1307.2</ele>
        <time>2022-08-13T13:48:03Z</time>
      </trkpt>
      <trkpt lat="4.6264140" lon="-75.7656040">
        <ele>1308.2</ele>
        <time>2022-08-13T13:48:06Z</time>
      </trkpt>
      <trkpt lat="4.6263580" lon="-75.7655040">
        <ele>1308.8</ele>
        <time>2022-08-13T13:48:08Z</time>
      </trkpt>
      <trkpt lat="4.6262950" lon="-75.7654030">
        <ele>1309.2</ele>
        <time>2022-08-13T13:48:10Z</time>
      </trkpt>
      <trkpt lat="4.6261290" lon="-75.7651510">
        <ele>1309.2</ele>
        <time>2022-08-13T13:48:15Z</time>
      </trkpt>
      <trkpt lat="4.6259380" lon="-75.7648710">
        <ele>1308.6</ele>
        <time>2022-08-13T13:48:21Z</time>
      </trkpt>
      <trkpt lat="4.6258860" lon="-75.7647900">
        <ele>1308.4</ele>
        <time>2022-08-13T13:48:23Z</time>
      </trkpt>
      <trkpt lat="4.6257420" lon="-75.7645920">
        <ele>1307.8</ele>
        <time>2022-08-13T13:48:29Z</time>
      </trkpt>
      <trkpt lat="4.6256980" lon="-75.7645380">
        <ele>1307.4</ele>
        <time>2022-08-13T13:48:31Z</time>
      </trkpt>
      <trkpt lat="4.6256240" lon="-75.7644800">
        <ele>1307.0</ele>
        <time>2022-08-13T13:48:34Z</time>
      </trkpt>
      <trkpt lat="4.6254830" lon="-75.7644740">
        <ele>1306.6</ele>
        <time>2022-08-13T13:48:38Z</time>
      </trkpt>
      <trkpt lat="4.6252250" lon="-75.7645160">
        <ele>1306.2</ele>
        <time>2022-08-13T13:48:44Z</time>
      </trkpt>
      <trkpt lat="4.6250860" lon="-75.7645290">
        <ele>1305.8</ele>
        <time>2022-08-13T13:48:47Z</time>
      </trkpt>
      <trkpt lat="4.6249820" lon="-75.7645230">
        <ele>1305.4</ele>
        <time>2022-08-13T13:48:50Z</time>
      </trkpt>
      <trkpt lat="4.6249540" lon="-75.7645110">
        <ele>1305.4</ele>
        <time>2022-08-13T13:48:52Z</time>
      </trkpt>
      <trkpt lat="4.6249370" lon="-75.7645150">
        <ele>1305.2</ele>
        <time>2022-08-13T13:48:54Z</time>
      </trkpt>
      <trkpt lat="4.6248280" lon="-75.7645540">
        <ele>1304.6</ele>
        <time>2022-08-13T13:48:58Z</time>
      </trkpt>
      <trkpt lat="4.6246360" lon="-75.7645800">
        <ele>1304.2</ele>
        <time>2022-08-13T13:49:01Z</time>
      </trkpt>
      <trkpt lat="4.6245770" lon="-75.7645870">
        <ele>1304.0</ele>
        <time>2022-08-13T13:49:02Z</time>
      </trkpt>
      <trkpt lat="4.6243550" lon="-75.7646080">
        <ele>1303.4</ele>
        <time>2022-08-13T13:49:06Z</time>
      </trkpt>
      <trkpt lat="4.6243290" lon="-75.7646090">
        <ele>1303.2</ele>
        <time>2022-08-13T13:49:07Z</time>
      </trkpt>
      <trkpt lat="4.6242960" lon="-75.7646100">
        <ele>1302.6</ele>
        <time>2022-08-13T13:49:09Z</time>
      </trkpt>
      <trkpt lat="4.6242350" lon="-75.7646090">
        <ele>1302.4</ele>
        <time>2022-08-13T13:49:12Z</time>
      </trkpt>
      <trkpt lat="4.6241020" lon="-75.7646260">
        <ele>1301.8</ele>
        <time>2022-08-13T13:49:16Z</time>
      </trkpt>
      <trkpt lat="4.6240620" lon="-75.7646280">
        <ele>1301.6</ele>
        <time>2022-08-13T13:49:17Z</time>
      </trkpt>
      <trkpt lat="4.6239350" lon="-75.7646370">
        <ele>1301.4</ele>
        <time>2022-08-13T13:49:20Z</time>
      </trkpt>
      <trkpt lat="4.6238040" lon="-75.7646470">
        <ele>1300.8</ele>
        <time>2022-08-13T13:49:23Z</time>
      </trkpt>
      <trkpt lat="4.6237600" lon="-75.7646530">
        <ele>1300.6</ele>
        <time>2022-08-13T13:49:24Z</time>
      </trkpt>
      <trkpt lat="4.6236840" lon="-75.7646630">
        <ele>1299.8</ele>
        <time>2022-08-13T13:49:26Z</time>
      </trkpt>
      <trkpt lat="4.6236400" lon="-75.7646610">
        <ele>1299.4</ele>
        <time>2022-08-13T13:49:28Z</time>
      </trkpt>
      <trkpt lat="4.6236330" lon="-75.7646560">
        <ele>1299.2</ele>
        <time>2022-08-13T13:49:29Z</time>
      </trkpt>
      <trkpt lat="4.6236280" lon="-75.7646500">
        <ele>1299.0</ele>
        <time>2022-08-13T13:49:30Z</time>
      </trkpt>
      <trkpt lat="4.6236240" lon="-75.7646410">
        <ele>1298.4</ele>
        <time>2022-08-13T13:49:31Z</time>
      </trkpt>
      <trkpt lat="4.6236070" lon="-75.7646240">
        <ele>1298.2</ele>
        <time>2022-08-13T13:49:33Z</time>
      </trkpt>
      <trkpt lat="4.6235930" lon="-75.7646230">
        <ele>1298.0</ele>
        <time>2022-08-13T13:49:34Z</time>
      </trkpt>
      <trkpt lat="4.6234880" lon="-75.7646780">
        <ele>1297.4</ele>
        <time>2022-08-13T13:49:40Z</time>
      </trkpt>
      <trkpt lat="4.6234340" lon="-75.7646920">
        <ele>1297.2</ele>
        <time>2022-08-13T13:49:42Z</time>
      </trkpt>
      <trkpt lat="4.6233820" lon="-75.7647070">
        <ele>1296.6</ele>
        <time>2022-08-13T13:49:44Z</time>
      </trkpt>
      <trkpt lat="4.6232670" lon="-75.7647220">
        <ele>1296.2</ele>
        <time>2022-08-13T13:49:48Z</time>
      </trkpt>
      <trkpt lat="4.6231790" lon="-75.7647210">
        <ele>1295.6</ele>
        <time>2022-08-13T13:49:51Z</time>
      </trkpt>
      <trkpt lat="4.6231270" lon="-75.7647210">
        <ele>1295.4</ele>
        <time>2022-08-13T13:49:53Z</time>
      </trkpt>
      <trkpt lat="4.6230160" lon="-75.7647000">
        <ele>1294.6</ele>
        <time>2022-08-13T13:49:58Z</time>
      </trkpt>
      <trkpt lat="4.6229930" lon="-75.7646870">
        <ele>1294.6</ele>
        <time>2022-08-13T13:49:59Z</time>
      </trkpt>
      <trkpt lat="4.6229700" lon="-75.7646600">
        <ele>1294.4</ele>
        <time>2022-08-13T13:50:01Z</time>
      </trkpt>
      <trkpt lat="4.6229630" lon="-75.7646130">
        <ele>1294.4</ele>
        <time>2022-08-13T13:50:03Z</time>
      </trkpt>
      <trkpt lat="4.6229470" lon="-75.7644330">
        <ele>1294.2</ele>
        <time>2022-08-13T13:50:08Z</time>
      </trkpt>
      <trkpt lat="4.6229280" lon="-75.7641850">
        <ele>1294.2</ele>
        <time>2022-08-13T13:50:15Z</time>
      </trkpt>
      <trkpt lat="4.6229310" lon="-75.7641110">
        <ele>1294.6</ele>
        <time>2022-08-13T13:50:17Z</time>
      </trkpt>
      <trkpt lat="4.6229270" lon="-75.7640330">
        <ele>1295.0</ele>
        <time>2022-08-13T13:50:19Z</time>
      </trkpt>
      <trkpt lat="4.6229280" lon="-75.7639610">
        <ele>1295.8</ele>
        <time>2022-08-13T13:50:21Z</time>
      </trkpt>
      <trkpt lat="4.6229370" lon="-75.7639120">
        <ele>1296.2</ele>
        <time>2022-08-13T13:50:22Z</time>
      </trkpt>
      <trkpt lat="4.6229310" lon="-75.7638680">
        <ele>1296.2</ele>
        <time>2022-08-13T13:50:23Z</time>
      </trkpt>
      <trkpt lat="4.6229070" lon="-75.7637640">
        <ele>1296.8</ele>
        <time>2022-08-13T13:50:26Z</time>
      </trkpt>
      <trkpt lat="4.6228770" lon="-75.7636540">
        <ele>1297.6</ele>
        <time>2022-08-13T13:50:29Z</time>
      </trkpt>
      <trkpt lat="4.6228450" lon="-75.7635110">
        <ele>1298.8</ele>
        <time>2022-08-13T13:50:33Z</time>
      </trkpt>
      <trkpt lat="4.6228450" lon="-75.7634770">
        <ele>1299.0</ele>
        <time>2022-08-13T13:50:34Z</time>
      </trkpt>
      <trkpt lat="4.6228250" lon="-75.7633870">
        <ele>1299.8</ele>
        <time>2022-08-13T13:50:37Z</time>
      </trkpt>
      <trkpt lat="4.6228070" lon="-75.7633280">
        <ele>1300.4</ele>
        <time>2022-08-13T13:50:39Z</time>
      </trkpt>
      <trkpt lat="4.6228070" lon="-75.7633280">
        <ele>1300.8</ele>
        <time>2022-08-13T13:50:40Z</time>
      </trkpt>
      <trkpt lat="4.6227670" lon="-75.7631520">
        <ele>1301.8</ele>
        <time>2022-08-13T13:50:44Z</time>
      </trkpt>
      <trkpt lat="4.6227590" lon="-75.7629730">
        <ele>1302.6</ele>
        <time>2022-08-13T13:50:49Z</time>
      </trkpt>
      <trkpt lat="4.6227630" lon="-75.7629410">
        <ele>1302.6</ele>
        <time>2022-08-13T13:50:50Z</time>
      </trkpt>
      <trkpt lat="4.6227630" lon="-75.7628540">
        <ele>1303.4</ele>
        <time>2022-08-13T13:50:53Z</time>
      </trkpt>
      <trkpt lat="4.6227630" lon="-75.7628270">
        <ele>1303.6</ele>
        <time>2022-08-13T13:50:54Z</time>
      </trkpt>
      <trkpt lat="4.6227710" lon="-75.7626980">
        <ele>1304.0</ele>
        <time>2022-08-13T13:50:58Z</time>
      </trkpt>
      <trkpt lat="4.6227770" lon="-75.7626200">
        <ele>1304.4</ele>
        <time>2022-08-13T13:51:00Z</time>
      </trkpt>
      <trkpt lat="4.6227700" lon="-75.7625150">
        <ele>1305.0</ele>
        <time>2022-08-13T13:51:03Z</time>
      </trkpt>
      <trkpt lat="4.6227460" lon="-75.7623870">
        <ele>1305.2</ele>
        <time>2022-08-13T13:51:06Z</time>
      </trkpt>
      <trkpt lat="4.6227340" lon="-75.7622320">
        <ele>1305.8</ele>
        <time>2022-08-13T13:51:10Z</time>
      </trkpt>
      <trkpt lat="4.6227200" lon="-75.7621250">
        <ele>1306.0</ele>
        <time>2022-08-13T13:51:13Z</time>
      </trkpt>
      <trkpt lat="4.6227170" lon="-75.7620800">
        <ele>1306.4</ele>
        <time>2022-08-13T13:51:15Z</time>
      </trkpt>
      <trkpt lat="4.6227070" lon="-75.7620570">
        <ele>1306.6</ele>
        <time>2022-08-13T13:51:16Z</time>
      </trkpt>
      <trkpt lat="4.6226750" lon="-75.7619520">
        <ele>1307.4</ele>
        <time>2022-08-13T13:51:19Z</time>
      </trkpt>
      <trkpt lat="4.6226890" lon="-75.7617270">
        <ele>1308.4</ele>
        <time>2022-08-13T13:51:24Z</time>
      </trkpt>
      <trkpt lat="4.6226660" lon="-75.7615960">
        <ele>1308.8</ele>
        <time>2022-08-13T13:51:27Z</time>
      </trkpt>
      <trkpt lat="4.6226530" lon="-75.7615250">
        <ele>1309.0</ele>
        <time>2022-08-13T13:51:29Z</time>
      </trkpt>
      <trkpt lat="4.6226420" lon="-75.7613160">
        <ele>1310.4</ele>
        <time>2022-08-13T13:51:34Z</time>
      </trkpt>
      <trkpt lat="4.6226250" lon="-75.7611020">
        <ele>1311.2</ele>
        <time>2022-08-13T13:51:39Z</time>
      </trkpt>
      <trkpt lat="4.6226020" lon="-75.7608470">
        <ele>1311.4</ele>
        <time>2022-08-13T13:51:44Z</time>
      </trkpt>
      <trkpt lat="4.6226220" lon="-75.7606310">
        <ele>1311.4</ele>
        <time>2022-08-13T13:51:49Z</time>
      </trkpt>
      <trkpt lat="4.6225490" lon="-75.7603350">
        <ele>1309.8</ele>
        <time>2022-08-13T13:51:56Z</time>
      </trkpt>
      <trkpt lat="4.6225290" lon="-75.7601820">
        <ele>1308.8</ele>
        <time>2022-08-13T13:52:01Z</time>
      </trkpt>
      <trkpt lat="4.6225110" lon="-75.7601070">
        <ele>1308.4</ele>
        <time>2022-08-13T13:52:02Z</time>
      </trkpt>
      <trkpt lat="4.6224930" lon="-75.7599830">
        <ele>1307.8</ele>
        <time>2022-08-13T13:52:05Z</time>
      </trkpt>
      <trkpt lat="4.6224900" lon="-75.7598400">
        <ele>1307.2</ele>
        <time>2022-08-13T13:52:08Z</time>
      </trkpt>
      <trkpt lat="4.6224840" lon="-75.7597360">
        <ele>1306.6</ele>
        <time>2022-08-13T13:52:10Z</time>
      </trkpt>
      <trkpt lat="4.6224590" lon="-75.7595380">
        <ele>1305.8</ele>
        <time>2022-08-13T13:52:14Z</time>
      </trkpt>
      <trkpt lat="4.6224320" lon="-75.7594990">
        <ele>1305.6</ele>
        <time>2022-08-13T13:52:15Z</time>
      </trkpt>
      <trkpt lat="4.6223920" lon="-75.7594730">
        <ele>1305.2</ele>
        <time>2022-08-13T13:52:16Z</time>
      </trkpt>
      <trkpt lat="4.6222840" lon="-75.7594640">
        <ele>1304.8</ele>
        <time>2022-08-13T13:52:18Z</time>
      </trkpt>
      <trkpt lat="4.6222240" lon="-75.7594700">
        <ele>1304.6</ele>
        <time>2022-08-13T13:52:19Z</time>
      </trkpt>
      <trkpt lat="4.6220980" lon="-75.7594880">
        <ele>1304.2</ele>
        <time>2022-08-13T13:52:21Z</time>
      </trkpt>
      <trkpt lat="4.6220340" lon="-75.7595010">
        <ele>1304.2</ele>
        <time>2022-08-13T13:52:22Z</time>
      </trkpt>
      <trkpt lat="4.6219110" lon="-75.7595660">
        <ele>1304.0</ele>
        <time>2022-08-13T13:52:24Z</time>
      </trkpt>
      <trkpt lat="4.6218570" lon="-75.7596190">
        <ele>1304.0</ele>
        <time>2022-08-13T13:52:25Z</time>
      </trkpt>
      <trkpt lat="4.6218010" lon="-75.7596720">
        <ele>1304.0</ele>
        <time>2022-08-13T13:52:26Z</time>
      </trkpt>
      <trkpt lat="4.6217330" lon="-75.7597090">
        <ele>1303.6</ele>
        <time>2022-08-13T13:52:27Z</time>
      </trkpt>
      <trkpt lat="4.6216600" lon="-75.7597360">
        <ele>1303.6</ele>
        <time>2022-08-13T13:52:28Z</time>
      </trkpt>
      <trkpt lat="4.6214910" lon="-75.7597880">
        <ele>1303.4</ele>
        <time>2022-08-13T13:52:30Z</time>
      </trkpt>
      <trkpt lat="4.6213270" lon="-75.7598550">
        <ele>1302.8</ele>
        <time>2022-08-13T13:52:32Z</time>
      </trkpt>
      <trkpt lat="4.6210770" lon="-75.7599190">
        <ele>1302.4</ele>
        <time>2022-08-13T13:52:35Z</time>
      </trkpt>
      <trkpt lat="4.6210070" lon="-75.7598990">
        <ele>1302.0</ele>
        <time>2022-08-13T13:52:36Z</time>
      </trkpt>
      <trkpt lat="4.6207950" lon="-75.7597960">
        <ele>1301.6</ele>
        <time>2022-08-13T13:52:39Z</time>
      </trkpt>
      <trkpt lat="4.6207230" lon="-75.7597680">
        <ele>1301.4</ele>
        <time>2022-08-13T13:52:40Z</time>
      </trkpt>
      <trkpt lat="4.6206590" lon="-75.7597710">
        <ele>1301.0</ele>
        <time>2022-08-13T13:52:41Z</time>
      </trkpt>
      <trkpt lat="4.6205960" lon="-75.7597730">
        <ele>1300.8</ele>
        <time>2022-08-13T13:52:42Z</time>
      </trkpt>
      <trkpt lat="4.6204700" lon="-75.7597780">
        <ele>1300.6</ele>
        <time>2022-08-13T13:52:43Z</time>
      </trkpt>
      <trkpt lat="4.6201790" lon="-75.7598460">
        <ele>1300.4</ele>
        <time>2022-08-13T13:52:46Z</time>
      </trkpt>
      <trkpt lat="4.6200810" lon="-75.7598600">
        <ele>1300.2</ele>
        <time>2022-08-13T13:52:47Z</time>
      </trkpt>
      <trkpt lat="4.6199910" lon="-75.7598690">
        <ele>1300.2</ele>
        <time>2022-08-13T13:52:48Z</time>
      </trkpt>
      <trkpt lat="4.6198400" lon="-75.7598850">
        <ele>1300.0</ele>
        <time>2022-08-13T13:52:50Z</time>
      </trkpt>
      <trkpt lat="4.6197720" lon="-75.7599060">
        <ele>1299.8</ele>
        <time>2022-08-13T13:52:51Z</time>
      </trkpt>
      <trkpt lat="4.6197100" lon="-75.7599460">
        <ele>1299.8</ele>
        <time>2022-08-13T13:52:52Z</time>
      </trkpt>
      <trkpt lat="4.6196320" lon="-75.7600750">
        <ele>1299.8</ele>
        <time>2022-08-13T13:52:54Z</time>
      </trkpt>
      <trkpt lat="4.6196010" lon="-75.7603210">
        <ele>1299.8</ele>
        <time>2022-08-13T13:52:57Z</time>
      </trkpt>
      <trkpt lat="4.6195730" lon="-75.7604060">
        <ele>1299.8</ele>
        <time>2022-08-13T13:52:58Z</time>
      </trkpt>
      <trkpt lat="4.6195370" lon="-75.7604870">
        <ele>1300.0</ele>
        <time>2022-08-13T13:52:59Z</time>
      </trkpt>
      <trkpt lat="4.6194000" lon="-75.7606850">
        <ele>1300.8</ele>
        <time>2022-08-13T13:53:02Z</time>
      </trkpt>
      <trkpt lat="4.6193490" lon="-75.7608230">
        <ele>1301.6</ele>
        <time>2022-08-13T13:53:04Z</time>
      </trkpt>
      <trkpt lat="4.6193370" lon="-75.7609220">
        <ele>1301.8</ele>
        <time>2022-08-13T13:53:05Z</time>
      </trkpt>
      <trkpt lat="4.6193410" lon="-75.7610110">
        <ele>1301.8</ele>
        <time>2022-08-13T13:53:06Z</time>
      </trkpt>
      <trkpt lat="4.6193610" lon="-75.7612470">
        <ele>1302.0</ele>
        <time>2022-08-13T13:53:09Z</time>
      </trkpt>
      <trkpt lat="4.6193270" lon="-75.7613600">
        <ele>1302.0</ele>
        <time>2022-08-13T13:53:11Z</time>
      </trkpt>
      <trkpt lat="4.6192930" lon="-75.7614070">
        <ele>1302.0</ele>
        <time>2022-08-13T13:53:12Z</time>
      </trkpt>
      <trkpt lat="4.6192340" lon="-75.7614230">
        <ele>1302.0</ele>
        <time>2022-08-13T13:53:13Z</time>
      </trkpt>
      <trkpt lat="4.6191610" lon="-75.7613980">
        <ele>1302.0</ele>
        <time>2022-08-13T13:53:14Z</time>
      </trkpt>
      <trkpt lat="4.6190950" lon="-75.7613560">
        <ele>1302.0</ele>
        <time>2022-08-13T13:53:15Z</time>
      </trkpt>
      <trkpt lat="4.6190390" lon="-75.7613020">
        <ele>1302.0</ele>
        <time>2022-08-13T13:53:16Z</time>
      </trkpt>
      <trkpt lat="4.6189960" lon="-75.7612380">
        <ele>1302.0</ele>
        <time>2022-08-13T13:53:17Z</time>
      </trkpt>
      <trkpt lat="4.6189450" lon="-75.7610880">
        <ele>1302.0</ele>
        <time>2022-08-13T13:53:19Z</time>
      </trkpt>
      <trkpt lat="4.6189390" lon="-75.7610110">
        <ele>1302.0</ele>
        <time>2022-08-13T13:53:20Z</time>
      </trkpt>
      <trkpt lat="4.6189430" lon="-75.7609340">
        <ele>1302.0</ele>
        <time>2022-08-13T13:53:21Z</time>
      </trkpt>
      <trkpt lat="4.6189700" lon="-75.7607260">
        <ele>1301.6</ele>
        <time>2022-08-13T13:53:24Z</time>
      </trkpt>
      <trkpt lat="4.6189770" lon="-75.7606700">
        <ele>1301.4</ele>
        <time>2022-08-13T13:53:25Z</time>
      </trkpt>
      <trkpt lat="4.6189820" lon="-75.7606250">
        <ele>1301.4</ele>
        <time>2022-08-13T13:53:26Z</time>
      </trkpt>
      <trkpt lat="4.6189520" lon="-75.7605260">
        <ele>1301.0</ele>
        <time>2022-08-13T13:53:29Z</time>
      </trkpt>
      <trkpt lat="4.6188800" lon="-75.7604730">
        <ele>1300.6</ele>
        <time>2022-08-13T13:53:31Z</time>
      </trkpt>
      <trkpt lat="4.6187930" lon="-75.7604340">
        <ele>1300.8</ele>
        <time>2022-08-13T13:53:33Z</time>
      </trkpt>
      <trkpt lat="4.6187060" lon="-75.7604040">
        <ele>1300.4</ele>
        <time>2022-08-13T13:53:35Z</time>
      </trkpt>
      <trkpt lat="4.6186290" lon="-75.7604100">
        <ele>1300.2</ele>
        <time>2022-08-13T13:53:37Z</time>
      </trkpt>
      <trkpt lat="4.6185560" lon="-75.7604870">
        <ele>1300.0</ele>
        <time>2022-08-13T13:53:40Z</time>
      </trkpt>
      <trkpt lat="4.6185310" lon="-75.7605090">
        <ele>1300.0</ele>
        <time>2022-08-13T13:53:41Z</time>
      </trkpt>
      <trkpt lat="4.6185140" lon="-75.7605270">
        <ele>1300.0</ele>
        <time>2022-08-13T13:53:42Z</time>
      </trkpt>
      <trkpt lat="4.6184860" lon="-75.7605740">
        <ele>1300.0</ele>
        <time>2022-08-13T13:53:44Z</time>
      </trkpt>
      <trkpt lat="4.6184530" lon="-75.7606270">
        <ele>1299.8</ele>
        <time>2022-08-13T13:53:47Z</time>
      </trkpt>
      <trkpt lat="4.6184090" lon="-75.7607020">
        <ele>1299.8</ele>
        <time>2022-08-13T13:53:51Z</time>
      </trkpt>
      <trkpt lat="4.6183720" lon="-75.7607580">
        <ele>1299.6</ele>
        <time>2022-08-13T13:53:54Z</time>
      </trkpt>
      <trkpt lat="4.6183450" lon="-75.7608220">
        <ele>1299.6</ele>
        <time>2022-08-13T13:53:57Z</time>
      </trkpt>
      <trkpt lat="4.6183180" lon="-75.7608890">
        <ele>1299.2</ele>
        <time>2022-08-13T13:54:00Z</time>
      </trkpt>
      <trkpt lat="4.6183040" lon="-75.7609310">
        <ele>1298.8</ele>
        <time>2022-08-13T13:54:02Z</time>
      </trkpt>
      <trkpt lat="4.6182960" lon="-75.7609830">
        <ele>1298.4</ele>
        <time>2022-08-13T13:54:04Z</time>
      </trkpt>
      <trkpt lat="4.6182990" lon="-75.7610050">
        <ele>1298.2</ele>
        <time>2022-08-13T13:54:05Z</time>
      </trkpt>
      <trkpt lat="4.6183200" lon="-75.7611080">
        <ele>1297.2</ele>
        <time>2022-08-13T13:54:09Z</time>
      </trkpt>
      <trkpt lat="4.6183260" lon="-75.7611320">
        <ele>1296.8</ele>
        <time>2022-08-13T13:54:10Z</time>
      </trkpt>
      <trkpt lat="4.6183310" lon="-75.7611970">
        <ele>1296.4</ele>
        <time>2022-08-13T13:54:13Z</time>
      </trkpt>
      <trkpt lat="4.6183420" lon="-75.7613100">
        <ele>1296.0</ele>
        <time>2022-08-13T13:54:18Z</time>
      </trkpt>
      <trkpt lat="4.6183460" lon="-75.7613280">
        <ele>1296.0</ele>
        <time>2022-08-13T13:54:19Z</time>
      </trkpt>
      <trkpt lat="4.6183710" lon="-75.7614140">
        <ele>1296.0</ele>
        <time>2022-08-13T13:54:23Z</time>
      </trkpt>
      <trkpt lat="4.6183690" lon="-75.7614330">
        <ele>1296.0</ele>
        <time>2022-08-13T13:54:24Z</time>
      </trkpt>
      <trkpt lat="4.6183830" lon="-75.7615220">
        <ele>1296.4</ele>
        <time>2022-08-13T13:54:28Z</time>
      </trkpt>
      <trkpt lat="4.6183930" lon="-75.7615460">
        <ele>1296.4</ele>
        <time>2022-08-13T13:54:29Z</time>
      </trkpt>
      <trkpt lat="4.6184470" lon="-75.7616660">
        <ele>1298.0</ele>
        <time>2022-08-13T13:54:34Z</time>
      </trkpt>
      <trkpt lat="4.6184750" lon="-75.7617280">
        <ele>1298.8</ele>
        <time>2022-08-13T13:54:37Z</time>
      </trkpt>
      <trkpt lat="4.6184860" lon="-75.7617470">
        <ele>1299.0</ele>
        <time>2022-08-13T13:54:38Z</time>
      </trkpt>
      <trkpt lat="4.6185200" lon="-75.7618420">
        <ele>1300.2</ele>
        <time>2022-08-13T13:54:43Z</time>
      </trkpt>
      <trkpt lat="4.6185240" lon="-75.7618610">
        <ele>1300.4</ele>
        <time>2022-08-13T13:54:44Z</time>
      </trkpt>
      <trkpt lat="4.6185410" lon="-75.7619220">
        <ele>1301.2</ele>
        <time>2022-08-13T13:54:47Z</time>
      </trkpt>
      <trkpt lat="4.6185350" lon="-75.7619860">
        <ele>1301.8</ele>
        <time>2022-08-13T13:54:50Z</time>
      </trkpt>
      <trkpt lat="4.6185290" lon="-75.7620070">
        <ele>1302.0</ele>
        <time>2022-08-13T13:54:51Z</time>
      </trkpt>
      <trkpt lat="4.6184780" lon="-75.7621060">
        <ele>1303.2</ele>
        <time>2022-08-13T13:54:56Z</time>
      </trkpt>
      <trkpt lat="4.6184650" lon="-75.7621230">
        <ele>1303.4</ele>
        <time>2022-08-13T13:54:57Z</time>
      </trkpt>
      <trkpt lat="4.6184140" lon="-75.7621990">
        <ele>1304.4</ele>
        <time>2022-08-13T13:55:01Z</time>
      </trkpt>
      <trkpt lat="4.6183510" lon="-75.7623010">
        <ele>1304.8</ele>
        <time>2022-08-13T13:55:06Z</time>
      </trkpt>
      <trkpt lat="4.6183230" lon="-75.7623430">
        <ele>1305.2</ele>
        <time>2022-08-13T13:55:08Z</time>
      </trkpt>
      <trkpt lat="4.6182260" lon="-75.7624850">
        <ele>1306.2</ele>
        <time>2022-08-13T13:55:15Z</time>
      </trkpt>
      <trkpt lat="4.6182110" lon="-75.7625040">
        <ele>1306.4</ele>
        <time>2022-08-13T13:55:16Z</time>
      </trkpt>
      <trkpt lat="4.6181190" lon="-75.7626310">
        <ele>1307.2</ele>
        <time>2022-08-13T13:55:23Z</time>
      </trkpt>
      <trkpt lat="4.6180940" lon="-75.7626930">
        <ele>1307.4</ele>
        <time>2022-08-13T13:55:26Z</time>
      </trkpt>
      <trkpt lat="4.6180710" lon="-75.7627810">
        <ele>1307.8</ele>
        <time>2022-08-13T13:55:30Z</time>
      </trkpt>
      <trkpt lat="4.6180770" lon="-75.7628830">
        <ele>1308.4</ele>
        <time>2022-08-13T13:55:34Z</time>
      </trkpt>
      <trkpt lat="4.6180810" lon="-75.7629290">
        <ele>1308.6</ele>
        <time>2022-08-13T13:55:36Z</time>
      </trkpt>
      <trkpt lat="4.6180970" lon="-75.7630700">
        <ele>1309.2</ele>
        <time>2022-08-13T13:55:42Z</time>
      </trkpt>
      <trkpt lat="4.6181010" lon="-75.7630930">
        <ele>1309.4</ele>
        <time>2022-08-13T13:55:43Z</time>
      </trkpt>
      <trkpt lat="4.6181310" lon="-75.7632620">
        <ele>1309.8</ele>
        <time>2022-08-13T13:55:51Z</time>
      </trkpt>
      <trkpt lat="4.6181670" lon="-75.7634260">
        <ele>1309.8</ele>
        <time>2022-08-13T13:56:00Z</time>
      </trkpt>
      <trkpt lat="4.6181410" lon="-75.7635420">
        <ele>1309.4</ele>
        <time>2022-08-13T13:56:07Z</time>
      </trkpt>
      <trkpt lat="4.6180510" lon="-75.7636040">
        <ele>1309.2</ele>
        <time>2022-08-13T13:56:13Z</time>
      </trkpt>
      <trkpt lat="4.6179120" lon="-75.7635670">
        <ele>1309.2</ele>
        <time>2022-08-13T13:56:21Z</time>
      </trkpt>
      <trkpt lat="4.6178390" lon="-75.7634760">
        <ele>1309.4</ele>
        <time>2022-08-13T13:56:27Z</time>
      </trkpt>
      <trkpt lat="4.6177410" lon="-75.7632980">
        <ele>1309.4</ele>
        <time>2022-08-13T13:56:38Z</time>
      </trkpt>
      <trkpt lat="4.6176540" lon="-75.7631070">
        <ele>1309.4</ele>
        <time>2022-08-13T13:56:49Z</time>
      </trkpt>
      <trkpt lat="4.6175970" lon="-75.7629840">
        <ele>1306.8</ele>
        <time>2022-08-13T13:56:56Z</time>
      </trkpt>
      <trkpt lat="4.6175750" lon="-75.7629420">
        <ele>1305.8</ele>
        <time>2022-08-13T13:56:59Z</time>
      </trkpt>
      <trkpt lat="4.6175470" lon="-75.7628970">
        <ele>1305.0</ele>
        <time>2022-08-13T13:57:02Z</time>
      </trkpt>
      <trkpt lat="4.6175350" lon="-75.7628690">
        <ele>1304.6</ele>
        <time>2022-08-13T13:57:04Z</time>
      </trkpt>
      <trkpt lat="4.6175120" lon="-75.7628180">
        <ele>1303.2</ele>
        <time>2022-08-13T13:57:08Z</time>
      </trkpt>
      <trkpt lat="4.6174760" lon="-75.7627680">
        <ele>1302.0</ele>
        <time>2022-08-13T13:57:12Z</time>
      </trkpt>
      <trkpt lat="4.6173880" lon="-75.7626670">
        <ele>1301.4</ele>
        <time>2022-08-13T13:57:21Z</time>
      </trkpt>
      <trkpt lat="4.6172760" lon="-75.7625930">
        <ele>1302.0</ele>
        <time>2022-08-13T13:57:29Z</time>
      </trkpt>
      <trkpt lat="4.6172270" lon="-75.7625610">
        <ele>1302.6</ele>
        <time>2022-08-13T13:57:32Z</time>
      </trkpt>
      <trkpt lat="4.6171410" lon="-75.7624950">
        <ele>1303.0</ele>
        <time>2022-08-13T13:57:37Z</time>
      </trkpt>
      <trkpt lat="4.6169980" lon="-75.7623670">
        <ele>1303.0</ele>
        <time>2022-08-13T13:57:44Z</time>
      </trkpt>
      <trkpt lat="4.6169050" lon="-75.7621860">
        <ele>1302.4</ele>
        <time>2022-08-13T13:57:49Z</time>
      </trkpt>
      <trkpt lat="4.6167970" lon="-75.7618800">
        <ele>1300.6</ele>
        <time>2022-08-13T13:57:55Z</time>
      </trkpt>
      <trkpt lat="4.6167370" lon="-75.7617740">
        <ele>1300.0</ele>
        <time>2022-08-13T13:57:57Z</time>
      </trkpt>
      <trkpt lat="4.6166490" lon="-75.7616910">
        <ele>1299.4</ele>
        <time>2022-08-13T13:57:59Z</time>
      </trkpt>
      <trkpt lat="4.6166000" lon="-75.7616580">
        <ele>1299.2</ele>
        <time>2022-08-13T13:58:00Z</time>
      </trkpt>
      <trkpt lat="4.6164360" lon="-75.7615830">
        <ele>1298.8</ele>
        <time>2022-08-13T13:58:03Z</time>
      </trkpt>
      <trkpt lat="4.6162470" lon="-75.7615250">
        <ele>1298.2</ele>
        <time>2022-08-13T13:58:06Z</time>
      </trkpt>
      <trkpt lat="4.6161040" lon="-75.7615440">
        <ele>1297.6</ele>
        <time>2022-08-13T13:58:08Z</time>
      </trkpt>
      <trkpt lat="4.6159850" lon="-75.7616120">
        <ele>1297.4</ele>
        <time>2022-08-13T13:58:10Z</time>
      </trkpt>
      <trkpt lat="4.6159360" lon="-75.7616520">
        <ele>1297.4</ele>
        <time>2022-08-13T13:58:11Z</time>
      </trkpt>
      <trkpt lat="4.6157540" lon="-75.7617870">
        <ele>1297.0</ele>
        <time>2022-08-13T13:58:15Z</time>
      </trkpt>
      <trkpt lat="4.6157080" lon="-75.7618120">
        <ele>1297.0</ele>
        <time>2022-08-13T13:58:16Z</time>
      </trkpt>
      <trkpt lat="4.6155790" lon="-75.7618880">
        <ele>1297.0</ele>
        <time>2022-08-13T13:58:19Z</time>
      </trkpt>
      <trkpt lat="4.6154760" lon="-75.7619360">
        <ele>1296.8</ele>
        <time>2022-08-13T13:58:21Z</time>
      </trkpt>
      <trkpt lat="4.6153640" lon="-75.7619800">
        <ele>1296.8</ele>
        <time>2022-08-13T13:58:23Z</time>
      </trkpt>
      <trkpt lat="4.6152480" lon="-75.7619750">
        <ele>1296.6</ele>
        <time>2022-08-13T13:58:25Z</time>
      </trkpt>
      <trkpt lat="4.6151910" lon="-75.7619580">
        <ele>1296.4</ele>
        <time>2022-08-13T13:58:26Z</time>
      </trkpt>
      <trkpt lat="4.6151350" lon="-75.7619320">
        <ele>1296.4</ele>
        <time>2022-08-13T13:58:27Z</time>
      </trkpt>
      <trkpt lat="4.6150350" lon="-75.7618430">
        <ele>1296.0</ele>
        <time>2022-08-13T13:58:29Z</time>
      </trkpt>
      <trkpt lat="4.6148640" lon="-75.7615910">
        <ele>1295.4</ele>
        <time>2022-08-13T13:58:33Z</time>
      </trkpt>
      <trkpt lat="4.6148170" lon="-75.7614360">
        <ele>1295.2</ele>
        <time>2022-08-13T13:58:35Z</time>
      </trkpt>
      <trkpt lat="4.6147890" lon="-75.7612710">
        <ele>1295.2</ele>
        <time>2022-08-13T13:58:37Z</time>
      </trkpt>
      <trkpt lat="4.6147380" lon="-75.7611130">
        <ele>1295.2</ele>
        <time>2022-08-13T13:58:39Z</time>
      </trkpt>
      <trkpt lat="4.6146280" lon="-75.7609610">
        <ele>1295.0</ele>
        <time>2022-08-13T13:58:41Z</time>
      </trkpt>
      <trkpt lat="4.6145630" lon="-75.7608970">
        <ele>1295.0</ele>
        <time>2022-08-13T13:58:42Z</time>
      </trkpt>
      <trkpt lat="4.6144290" lon="-75.7607990">
        <ele>1294.6</ele>
        <time>2022-08-13T13:58:44Z</time>
      </trkpt>
      <trkpt lat="4.6143710" lon="-75.7607710">
        <ele>1294.6</ele>
        <time>2022-08-13T13:58:45Z</time>
      </trkpt>
      <trkpt lat="4.6142590" lon="-75.7607930">
        <ele>1294.2</ele>
        <time>2022-08-13T13:58:47Z</time>
      </trkpt>
      <trkpt lat="4.6142010" lon="-75.7608810">
        <ele>1294.0</ele>
        <time>2022-08-13T13:58:49Z</time>
      </trkpt>
      <trkpt lat="4.6141870" lon="-75.7609310">
        <ele>1293.8</ele>
        <time>2022-08-13T13:58:50Z</time>
      </trkpt>
      <trkpt lat="4.6141780" lon="-75.7609780">
        <ele>1293.6</ele>
        <time>2022-08-13T13:58:51Z</time>
      </trkpt>
      <trkpt lat="4.6141660" lon="-75.7611210">
        <ele>1292.8</ele>
        <time>2022-08-13T13:58:55Z</time>
      </trkpt>
      <trkpt lat="4.6141740" lon="-75.7612600">
        <ele>1292.8</ele>
        <time>2022-08-13T13:59:01Z</time>
      </trkpt>
      <trkpt lat="4.6141810" lon="-75.7613550">
        <ele>1292.6</ele>
        <time>2022-08-13T13:59:06Z</time>
      </trkpt>
      <trkpt lat="4.6141930" lon="-75.7614560">
        <ele>1293.4</ele>
        <time>2022-08-13T13:59:12Z</time>
      </trkpt>
      <trkpt lat="4.6141960" lon="-75.7614720">
        <ele>1293.2</ele>
        <time>2022-08-13T13:59:13Z</time>
      </trkpt>
      <trkpt lat="4.6141910" lon="-75.7615350">
        <ele>1293.2</ele>
        <time>2022-08-13T13:59:17Z</time>
      </trkpt>
      <trkpt lat="4.6142090" lon="-75.7615750">
        <ele>1293.2</ele>
        <time>2022-08-13T13:59:19Z</time>
      </trkpt>
      <trkpt lat="4.6142320" lon="-75.7616870">
        <ele>1293.2</ele>
        <time>2022-08-13T13:59:24Z</time>
      </trkpt>
      <trkpt lat="4.6142470" lon="-75.7617580">
        <ele>1292.8</ele>
        <time>2022-08-13T13:59:27Z</time>
      </trkpt>
      <trkpt lat="4.6142490" lon="-75.7618940">
        <ele>1292.0</ele>
        <time>2022-08-13T13:59:33Z</time>
      </trkpt>
      <trkpt lat="4.6142400" lon="-75.7619680">
        <ele>1291.4</ele>
        <time>2022-08-13T13:59:37Z</time>
      </trkpt>
      <trkpt lat="4.6142070" lon="-75.7621440">
        <ele>1291.4</ele>
        <time>2022-08-13T13:59:46Z</time>
      </trkpt>
      <trkpt lat="4.6141620" lon="-75.7622660">
        <ele>1293.0</ele>
        <time>2022-08-13T13:59:53Z</time>
      </trkpt>
      <trkpt lat="4.6141260" lon="-75.7623200">
        <ele>1294.0</ele>
        <time>2022-08-13T13:59:56Z</time>
      </trkpt>
      <trkpt lat="4.6140880" lon="-75.7623780">
        <ele>1295.0</ele>
        <time>2022-08-13T13:59:59Z</time>
      </trkpt>
      <trkpt lat="4.6140330" lon="-75.7624210">
        <ele>1296.2</ele>
        <time>2022-08-13T14:00:02Z</time>
      </trkpt>
      <trkpt lat="4.6139760" lon="-75.7624490">
        <ele>1297.2</ele>
        <time>2022-08-13T14:00:05Z</time>
      </trkpt>
      <trkpt lat="4.6139560" lon="-75.7624570">
        <ele>1297.4</ele>
        <time>2022-08-13T14:00:06Z</time>
      </trkpt>
      <trkpt lat="4.6138930" lon="-75.7624780">
        <ele>1298.4</ele>
        <time>2022-08-13T14:00:09Z</time>
      </trkpt>
      <trkpt lat="4.6137950" lon="-75.7624790">
        <ele>1299.0</ele>
        <time>2022-08-13T14:00:14Z</time>
      </trkpt>
      <trkpt lat="4.6137710" lon="-75.7624730">
        <ele>1299.4</ele>
        <time>2022-08-13T14:00:15Z</time>
      </trkpt>
      <trkpt lat="4.6136770" lon="-75.7624620">
        <ele>1300.2</ele>
        <time>2022-08-13T14:00:19Z</time>
      </trkpt>
      <trkpt lat="4.6135610" lon="-75.7624070">
        <ele>1301.2</ele>
        <time>2022-08-13T14:00:25Z</time>
      </trkpt>
      <trkpt lat="4.6134410" lon="-75.7623530">
        <ele>1302.4</ele>
        <time>2022-08-13T14:00:31Z</time>
      </trkpt>
      <trkpt lat="4.6134160" lon="-75.7623400">
        <ele>1302.6</ele>
        <time>2022-08-13T14:00:32Z</time>
      </trkpt>
      <trkpt lat="4.6132860" lon="-75.7622600">
        <ele>1303.2</ele>
        <time>2022-08-13T14:00:37Z</time>
      </trkpt>
      <trkpt lat="4.6132540" lon="-75.7622410">
        <ele>1303.4</ele>
        <time>2022-08-13T14:00:38Z</time>
      </trkpt>
      <trkpt lat="4.6131160" lon="-75.7621580">
        <ele>1304.0</ele>
        <time>2022-08-13T14:00:42Z</time>
      </trkpt>
      <trkpt lat="4.6130790" lon="-75.7621340">
        <ele>1304.2</ele>
        <time>2022-08-13T14:00:43Z</time>
      </trkpt>
      <trkpt lat="4.6129010" lon="-75.7620370">
        <ele>1305.0</ele>
        <time>2022-08-13T14:00:47Z</time>
      </trkpt>
      <trkpt lat="4.6128540" lon="-75.7620130">
        <ele>1305.4</ele>
        <time>2022-08-13T14:00:48Z</time>
      </trkpt>
      <trkpt lat="4.6128020" lon="-75.7619880">
        <ele>1305.4</ele>
        <time>2022-08-13T14:00:49Z</time>
      </trkpt>
      <trkpt lat="4.6127490" lon="-75.7619680">
        <ele>1305.6</ele>
        <time>2022-08-13T14:00:50Z</time>
      </trkpt>
      <trkpt lat="4.6125800" lon="-75.7619240">
        <ele>1306.2</ele>
        <time>2022-08-13T14:00:53Z</time>
      </trkpt>
      <trkpt lat="4.6125280" lon="-75.7619030">
        <ele>1306.6</ele>
        <time>2022-08-13T14:00:54Z</time>
      </trkpt>
      <trkpt lat="4.6124720" lon="-75.7618760">
        <ele>1306.6</ele>
        <time>2022-08-13T14:00:55Z</time>
      </trkpt>
      <trkpt lat="4.6123810" lon="-75.7617860">
        <ele>1306.8</ele>
        <time>2022-08-13T14:00:57Z</time>
      </trkpt>
      <trkpt lat="4.6123500" lon="-75.7616580">
        <ele>1307.2</ele>
        <time>2022-08-13T14:00:59Z</time>
      </trkpt>
      <trkpt lat="4.6123590" lon="-75.7615830">
        <ele>1307.4</ele>
        <time>2022-08-13T14:01:00Z</time>
      </trkpt>
      <trkpt lat="4.6123930" lon="-75.7615130">
        <ele>1307.6</ele>
        <time>2022-08-13T14:01:01Z</time>
      </trkpt>
      <trkpt lat="4.6125040" lon="-75.7613890">
        <ele>1308.2</ele>
        <time>2022-08-13T14:01:03Z</time>
      </trkpt>
      <trkpt lat="4.6125750" lon="-75.7613340">
        <ele>1308.4</ele>
        <time>2022-08-13T14:01:04Z</time>
      </trkpt>
      <trkpt lat="4.6127930" lon="-75.7611760">
        <ele>1308.8</ele>
        <time>2022-08-13T14:01:07Z</time>
      </trkpt>
      <trkpt lat="4.6128990" lon="-75.7610400">
        <ele>1309.2</ele>
        <time>2022-08-13T14:01:09Z</time>
      </trkpt>
      <trkpt lat="4.6129340" lon="-75.7609550">
        <ele>1309.4</ele>
        <time>2022-08-13T14:01:10Z</time>
      </trkpt>
      <trkpt lat="4.6129520" lon="-75.7608560">
        <ele>1309.4</ele>
        <time>2022-08-13T14:01:11Z</time>
      </trkpt>
      <trkpt lat="4.6129470" lon="-75.7606560">
        <ele>1310.0</ele>
        <time>2022-08-13T14:01:13Z</time>
      </trkpt>
      <trkpt lat="4.6128460" lon="-75.7603750">
        <ele>1310.2</ele>
        <time>2022-08-13T14:01:16Z</time>
      </trkpt>
      <trkpt lat="4.6128340" lon="-75.7601440">
        <ele>1311.0</ele>
        <time>2022-08-13T14:01:19Z</time>
      </trkpt>
      <trkpt lat="4.6127990" lon="-75.7599820">
        <ele>1311.2</ele>
        <time>2022-08-13T14:01:22Z</time>
      </trkpt>
      <trkpt lat="4.6127870" lon="-75.7599370">
        <ele>1311.2</ele>
        <time>2022-08-13T14:01:23Z</time>
      </trkpt>
      <trkpt lat="4.6127680" lon="-75.7599070">
        <ele>1311.4</ele>
        <time>2022-08-13T14:01:24Z</time>
      </trkpt>
      <trkpt lat="4.6127370" lon="-75.7598580">
        <ele>1312.0</ele>
        <time>2022-08-13T14:01:26Z</time>
      </trkpt>
      <trkpt lat="4.6127240" lon="-75.7598360">
        <ele>1312.2</ele>
        <time>2022-08-13T14:01:27Z</time>
      </trkpt>
      <trkpt lat="4.6127170" lon="-75.7597480">
        <ele>1312.4</ele>
        <time>2022-08-13T14:01:31Z</time>
      </trkpt>
      <trkpt lat="4.6127150" lon="-75.7596840">
        <ele>1312.4</ele>
        <time>2022-08-13T14:01:34Z</time>
      </trkpt>
      <trkpt lat="4.6127230" lon="-75.7595970">
        <ele>1312.4</ele>
        <time>2022-08-13T14:01:38Z</time>
      </trkpt>
      <trkpt lat="4.6127280" lon="-75.7595750">
        <ele>1312.2</ele>
        <time>2022-08-13T14:01:39Z</time>
      </trkpt>
      <trkpt lat="4.6127310" lon="-75.7594820">
        <ele>1310.8</ele>
        <time>2022-08-13T14:01:43Z</time>
      </trkpt>
      <trkpt lat="4.6127170" lon="-75.7593900">
        <ele>1309.6</ele>
        <time>2022-08-13T14:01:47Z</time>
      </trkpt>
      <trkpt lat="4.6127010" lon="-75.7593000">
        <ele>1308.4</ele>
        <time>2022-08-13T14:01:51Z</time>
      </trkpt>
      <trkpt lat="4.6126620" lon="-75.7591890">
        <ele>1307.0</ele>
        <time>2022-08-13T14:01:56Z</time>
      </trkpt>
      <trkpt lat="4.6126350" lon="-75.7590990">
        <ele>1305.8</ele>
        <time>2022-08-13T14:02:00Z</time>
      </trkpt>
      <trkpt lat="4.6126290" lon="-75.7590590">
        <ele>1305.2</ele>
        <time>2022-08-13T14:02:02Z</time>
      </trkpt>
      <trkpt lat="4.6126160" lon="-75.7590170">
        <ele>1304.6</ele>
        <time>2022-08-13T14:02:04Z</time>
      </trkpt>
      <trkpt lat="4.6125690" lon="-75.7589150">
        <ele>1303.4</ele>
        <time>2022-08-13T14:02:09Z</time>
      </trkpt>
      <trkpt lat="4.6125470" lon="-75.7588740">
        <ele>1303.0</ele>
        <time>2022-08-13T14:02:11Z</time>
      </trkpt>
      <trkpt lat="4.6125250" lon="-75.7588310">
        <ele>1302.0</ele>
        <time>2022-08-13T14:02:13Z</time>
      </trkpt>
      <trkpt lat="4.6124880" lon="-75.7587660">
        <ele>1301.0</ele>
        <time>2022-08-13T14:02:16Z</time>
      </trkpt>
      <trkpt lat="4.6124560" lon="-75.7587060">
        <ele>1299.8</ele>
        <time>2022-08-13T14:02:19Z</time>
      </trkpt>
      <trkpt lat="4.6124470" lon="-75.7586860">
        <ele>1299.4</ele>
        <time>2022-08-13T14:02:20Z</time>
      </trkpt>
      <trkpt lat="4.6124230" lon="-75.7586200">
        <ele>1298.6</ele>
        <time>2022-08-13T14:02:23Z</time>
      </trkpt>
      <trkpt lat="4.6123880" lon="-75.7585390">
        <ele>1297.2</ele>
        <time>2022-08-13T14:02:27Z</time>
      </trkpt>
      <trkpt lat="4.6123830" lon="-75.7585200">
        <ele>1296.8</ele>
        <time>2022-08-13T14:02:28Z</time>
      </trkpt>
      <trkpt lat="4.6123640" lon="-75.7584820">
        <ele>1295.8</ele>
        <time>2022-08-13T14:02:30Z</time>
      </trkpt>
      <trkpt lat="4.6123330" lon="-75.7584080">
        <ele>1294.8</ele>
        <time>2022-08-13T14:02:34Z</time>
      </trkpt>
      <trkpt lat="4.6123260" lon="-75.7583880">
        <ele>1294.6</ele>
        <time>2022-08-13T14:02:35Z</time>
      </trkpt>
      <trkpt lat="4.6123080" lon="-75.7583260">
        <ele>1293.6</ele>
        <time>2022-08-13T14:02:38Z</time>
      </trkpt>
      <trkpt lat="4.6123040" lon="-75.7583050">
        <ele>1293.0</ele>
        <time>2022-08-13T14:02:39Z</time>
      </trkpt>
      <trkpt lat="4.6122890" lon="-75.7582640">
        <ele>1292.6</ele>
        <time>2022-08-13T14:02:41Z</time>
      </trkpt>
      <trkpt lat="4.6122770" lon="-75.7582240">
        <ele>1292.0</ele>
        <time>2022-08-13T14:02:43Z</time>
      </trkpt>
      <trkpt lat="4.6122700" lon="-75.7580710">
        <ele>1290.6</ele>
        <time>2022-08-13T14:02:49Z</time>
      </trkpt>
      <trkpt lat="4.6123060" lon="-75.7579190">
        <ele>1289.4</ele>
        <time>2022-08-13T14:02:55Z</time>
      </trkpt>
      <trkpt lat="4.6123400" lon="-75.7578100">
        <ele>1288.4</ele>
        <time>2022-08-13T14:02:59Z</time>
      </trkpt>
      <trkpt lat="4.6123510" lon="-75.7577840">
        <ele>1288.0</ele>
        <time>2022-08-13T14:03:00Z</time>
      </trkpt>
      <trkpt lat="4.6124210" lon="-75.7576210">
        <ele>1286.8</ele>
        <time>2022-08-13T14:03:06Z</time>
      </trkpt>
      <trkpt lat="4.6124320" lon="-75.7575910">
        <ele>1286.6</ele>
        <time>2022-08-13T14:03:07Z</time>
      </trkpt>
      <trkpt lat="4.6124850" lon="-75.7574500">
        <ele>1285.2</ele>
        <time>2022-08-13T14:03:12Z</time>
      </trkpt>
      <trkpt lat="4.6125590" lon="-75.7573170">
        <ele>1283.8</ele>
        <time>2022-08-13T14:03:17Z</time>
      </trkpt>
      <trkpt lat="4.6125870" lon="-75.7572680">
        <ele>1283.6</ele>
        <time>2022-08-13T14:03:19Z</time>
      </trkpt>
      <trkpt lat="4.6126470" lon="-75.7571700">
        <ele>1282.6</ele>
        <time>2022-08-13T14:03:23Z</time>
      </trkpt>
      <trkpt lat="4.6126890" lon="-75.7570780">
        <ele>1281.6</ele>
        <time>2022-08-13T14:03:27Z</time>
      </trkpt>
      <trkpt lat="4.6127060" lon="-75.7570360">
        <ele>1280.8</ele>
        <time>2022-08-13T14:03:29Z</time>
      </trkpt>
      <trkpt lat="4.6127240" lon="-75.7569720">
        <ele>1280.2</ele>
        <time>2022-08-13T14:03:32Z</time>
      </trkpt>
      <trkpt lat="4.6127360" lon="-75.7569080">
        <ele>1279.6</ele>
        <time>2022-08-13T14:03:35Z</time>
      </trkpt>
      <trkpt lat="4.6127540" lon="-75.7567670">
        <ele>1278.4</ele>
        <time>2022-08-13T14:03:41Z</time>
      </trkpt>
      <trkpt lat="4.6127620" lon="-75.7567220">
        <ele>1278.2</ele>
        <time>2022-08-13T14:03:43Z</time>
      </trkpt>
      <trkpt lat="4.6127700" lon="-75.7566270">
        <ele>1277.6</ele>
        <time>2022-08-13T14:03:47Z</time>
      </trkpt>
      <trkpt lat="4.6127760" lon="-75.7565800">
        <ele>1277.0</ele>
        <time>2022-08-13T14:03:49Z</time>
      </trkpt>
      <trkpt lat="4.6127980" lon="-75.7564240">
        <ele>1275.6</ele>
        <time>2022-08-13T14:03:55Z</time>
      </trkpt>
      <trkpt lat="4.6127950" lon="-75.7563110">
        <ele>1274.6</ele>
        <time>2022-08-13T14:03:59Z</time>
      </trkpt>
      <trkpt lat="4.6127930" lon="-75.7562270">
        <ele>1274.2</ele>
        <time>2022-08-13T14:04:02Z</time>
      </trkpt>
      <trkpt lat="4.6127630" lon="-75.7560860">
        <ele>1273.6</ele>
        <time>2022-08-13T14:04:07Z</time>
      </trkpt>
      <trkpt lat="4.6126520" lon="-75.7558340">
        <ele>1272.4</ele>
        <time>2022-08-13T14:04:17Z</time>
      </trkpt>
      <trkpt lat="4.6126360" lon="-75.7558090">
        <ele>1272.4</ele>
        <time>2022-08-13T14:04:18Z</time>
      </trkpt>
      <trkpt lat="4.6125130" lon="-75.7556320">
        <ele>1271.6</ele>
        <time>2022-08-13T14:04:24Z</time>
      </trkpt>
      <trkpt lat="4.6124140" lon="-75.7553980">
        <ele>1271.0</ele>
        <time>2022-08-13T14:04:30Z</time>
      </trkpt>
      <trkpt lat="4.6124030" lon="-75.7552420">
        <ele>1270.8</ele>
        <time>2022-08-13T14:04:34Z</time>
      </trkpt>
      <trkpt lat="4.6124080" lon="-75.7551560">
        <ele>1270.6</ele>
        <time>2022-08-13T14:04:36Z</time>
      </trkpt>
      <trkpt lat="4.6124140" lon="-75.7549240">
        <ele>1270.6</ele>
        <time>2022-08-13T14:04:43Z</time>
      </trkpt>
      <trkpt lat="4.6124280" lon="-75.7547580">
        <ele>1270.4</ele>
        <time>2022-08-13T14:04:49Z</time>
      </trkpt>
      <trkpt lat="4.6125190" lon="-75.7544620">
        <ele>1269.8</ele>
        <time>2022-08-13T14:04:59Z</time>
      </trkpt>
      <trkpt lat="4.6126610" lon="-75.7541360">
        <ele>1268.8</ele>
        <time>2022-08-13T14:05:08Z</time>
      </trkpt>
      <trkpt lat="4.6127500" lon="-75.7538510">
        <ele>1268.4</ele>
        <time>2022-08-13T14:05:15Z</time>
      </trkpt>
      <trkpt lat="4.6127650" lon="-75.7537630">
        <ele>1268.2</ele>
        <time>2022-08-13T14:05:17Z</time>
      </trkpt>
      <trkpt lat="4.6127750" lon="-75.7537170">
        <ele>1268.2</ele>
        <time>2022-08-13T14:05:18Z</time>
      </trkpt>
      <trkpt lat="4.6127950" lon="-75.7535780">
        <ele>1267.8</ele>
        <time>2022-08-13T14:05:21Z</time>
      </trkpt>
      <trkpt lat="4.6128120" lon="-75.7534370">
        <ele>1267.6</ele>
        <time>2022-08-13T14:05:24Z</time>
      </trkpt>
      <trkpt lat="4.6128600" lon="-75.7530720">
        <ele>1267.0</ele>
        <time>2022-08-13T14:05:33Z</time>
      </trkpt>
      <trkpt lat="4.6128930" lon="-75.7528580">
        <ele>1266.6</ele>
        <time>2022-08-13T14:05:40Z</time>
      </trkpt>
      <trkpt lat="4.6129260" lon="-75.7527190">
        <ele>1266.6</ele>
        <time>2022-08-13T14:05:46Z</time>
      </trkpt>
      <trkpt lat="4.6129320" lon="-75.7526960">
        <ele>1266.4</ele>
        <time>2022-08-13T14:05:47Z</time>
      </trkpt>
      <trkpt lat="4.6129630" lon="-75.7526040">
        <ele>1266.4</ele>
        <time>2022-08-13T14:05:51Z</time>
      </trkpt>
      <trkpt lat="4.6129980" lon="-75.7525000">
        <ele>1266.2</ele>
        <time>2022-08-13T14:05:55Z</time>
      </trkpt>
      <trkpt lat="4.6130510" lon="-75.7523050">
        <ele>1266.2</ele>
        <time>2022-08-13T14:06:02Z</time>
      </trkpt>
      <trkpt lat="4.6130380" lon="-75.7521370">
        <ele>1265.4</ele>
        <time>2022-08-13T14:06:08Z</time>
      </trkpt>
      <trkpt lat="4.6129160" lon="-75.7519840">
        <ele>1265.0</ele>
        <time>2022-08-13T14:06:14Z</time>
      </trkpt>
      <trkpt lat="4.6128690" lon="-75.7519150">
        <ele>1264.8</ele>
        <time>2022-08-13T14:06:16Z</time>
      </trkpt>
      <trkpt lat="4.6128410" lon="-75.7518220">
        <ele>1264.4</ele>
        <time>2022-08-13T14:06:18Z</time>
      </trkpt>
      <trkpt lat="4.6128460" lon="-75.7517130">
        <ele>1264.0</ele>
        <time>2022-08-13T14:06:20Z</time>
      </trkpt>
      <trkpt lat="4.6128750" lon="-75.7516050">
        <ele>1264.0</ele>
        <time>2022-08-13T14:06:22Z</time>
      </trkpt>
      <trkpt lat="4.6130170" lon="-75.7512500">
        <ele>1263.0</ele>
        <time>2022-08-13T14:06:29Z</time>
      </trkpt>
      <trkpt lat="4.6130830" lon="-75.7511030">
        <ele>1262.8</ele>
        <time>2022-08-13T14:06:33Z</time>
      </trkpt>
      <trkpt lat="4.6131550" lon="-75.7509500">
        <ele>1262.4</ele>
        <time>2022-08-13T14:06:38Z</time>
      </trkpt>
      <trkpt lat="4.6131810" lon="-75.7508860">
        <ele>1262.2</ele>
        <time>2022-08-13T14:06:40Z</time>
      </trkpt>
      <trkpt lat="4.6132110" lon="-75.7508180">
        <ele>1262.2</ele>
        <time>2022-08-13T14:06:42Z</time>
      </trkpt>
      <trkpt lat="4.6133470" lon="-75.7505780">
        <ele>1261.4</ele>
        <time>2022-08-13T14:06:49Z</time>
      </trkpt>
      <trkpt lat="4.6135510" lon="-75.7504420">
        <ele>1261.2</ele>
        <time>2022-08-13T14:06:55Z</time>
      </trkpt>
      <trkpt lat="4.6137510" lon="-75.7503110">
        <ele>1260.6</ele>
        <time>2022-08-13T14:07:02Z</time>
      </trkpt>
      <trkpt lat="4.6138460" lon="-75.7500940">
        <ele>1259.8</ele>
        <time>2022-08-13T14:07:09Z</time>
      </trkpt>
      <trkpt lat="4.6139080" lon="-75.7498560">
        <ele>1259.4</ele>
        <time>2022-08-13T14:07:16Z</time>
      </trkpt>
      <trkpt lat="4.6139790" lon="-75.7494690">
        <ele>1258.8</ele>
        <time>2022-08-13T14:07:27Z</time>
      </trkpt>
      <trkpt lat="4.6140730" lon="-75.7491340">
        <ele>1257.8</ele>
        <time>2022-08-13T14:07:37Z</time>
      </trkpt>
      <trkpt lat="4.6141180" lon="-75.7488670">
        <ele>1257.0</ele>
        <time>2022-08-13T14:07:44Z</time>
      </trkpt>
      <trkpt lat="4.6141140" lon="-75.7487500">
        <ele>1256.6</ele>
        <time>2022-08-13T14:07:47Z</time>
      </trkpt>
      <trkpt lat="4.6140840" lon="-75.7484810">
        <ele>1255.4</ele>
        <time>2022-08-13T14:07:53Z</time>
      </trkpt>
      <trkpt lat="4.6140410" lon="-75.7481560">
        <ele>1254.6</ele>
        <time>2022-08-13T14:07:59Z</time>
      </trkpt>
      <trkpt lat="4.6140260" lon="-75.7480530">
        <ele>1254.4</ele>
        <time>2022-08-13T14:08:01Z</time>
      </trkpt>
      <trkpt lat="4.6139760" lon="-75.7477470">
        <ele>1254.0</ele>
        <time>2022-08-13T14:08:06Z</time>
      </trkpt>
      <trkpt lat="4.6139620" lon="-75.7476810">
        <ele>1253.8</ele>
        <time>2022-08-13T14:08:07Z</time>
      </trkpt>
      <trkpt lat="4.6139290" lon="-75.7474870">
        <ele>1253.6</ele>
        <time>2022-08-13T14:08:10Z</time>
      </trkpt>
      <trkpt lat="4.6139110" lon="-75.7473700">
        <ele>1253.4</ele>
        <time>2022-08-13T14:08:12Z</time>
      </trkpt>
      <trkpt lat="4.6138850" lon="-75.7471870">
        <ele>1253.2</ele>
        <time>2022-08-13T14:08:16Z</time>
      </trkpt>
      <trkpt lat="4.6138760" lon="-75.7471500">
        <ele>1253.2</ele>
        <time>2022-08-13T14:08:17Z</time>
      </trkpt>
      <trkpt lat="4.6138590" lon="-75.7470010">
        <ele>1252.8</ele>
        <time>2022-08-13T14:08:22Z</time>
      </trkpt>
      <trkpt lat="4.6138620" lon="-75.7468890">
        <ele>1252.6</ele>
        <time>2022-08-13T14:08:26Z</time>
      </trkpt>
      <trkpt lat="4.6138550" lon="-75.7468320">
        <ele>1252.6</ele>
        <time>2022-08-13T14:08:28Z</time>
      </trkpt>
      <trkpt lat="4.6138490" lon="-75.7467100">
        <ele>1252.6</ele>
        <time>2022-08-13T14:08:32Z</time>
      </trkpt>
      <trkpt lat="4.6138460" lon="-75.7465860">
        <ele>1252.2</ele>
        <time>2022-08-13T14:08:36Z</time>
      </trkpt>
      <trkpt lat="4.6138400" lon="-75.7464330">
        <ele>1252.4</ele>
        <time>2022-08-13T14:08:41Z</time>
      </trkpt>
      <trkpt lat="4.6138410" lon="-75.7463310">
        <ele>1252.2</ele>
        <time>2022-08-13T14:08:44Z</time>
      </trkpt>
      <trkpt lat="4.6138300" lon="-75.7462490">
        <ele>1252.6</ele>
        <time>2022-08-13T14:08:46Z</time>
      </trkpt>
      <trkpt lat="4.6138030" lon="-75.7461560">
        <ele>1252.8</ele>
        <time>2022-08-13T14:08:48Z</time>
      </trkpt>
      <trkpt lat="4.6136560" lon="-75.7458580">
        <ele>1252.8</ele>
        <time>2022-08-13T14:08:54Z</time>
      </trkpt>
      <trkpt lat="4.6136020" lon="-75.7457700">
        <ele>1252.8</ele>
        <time>2022-08-13T14:08:56Z</time>
      </trkpt>
      <trkpt lat="4.6134310" lon="-75.7455050">
        <ele>1252.4</ele>
        <time>2022-08-13T14:09:03Z</time>
      </trkpt>
      <trkpt lat="4.6133110" lon="-75.7453560">
        <ele>1251.8</ele>
        <time>2022-08-13T14:09:09Z</time>
      </trkpt>
      <trkpt lat="4.6131480" lon="-75.7451580">
        <ele>1251.0</ele>
        <time>2022-08-13T14:09:17Z</time>
      </trkpt>
      <trkpt lat="4.6130430" lon="-75.7450000">
        <ele>1250.2</ele>
        <time>2022-08-13T14:09:22Z</time>
      </trkpt>
      <trkpt lat="4.6130050" lon="-75.7449380">
        <ele>1249.8</ele>
        <time>2022-08-13T14:09:24Z</time>
      </trkpt>
      <trkpt lat="4.6128460" lon="-75.7447020">
        <ele>1248.2</ele>
        <time>2022-08-13T14:09:32Z</time>
      </trkpt>
      <trkpt lat="4.6128280" lon="-75.7446760">
        <ele>1248.0</ele>
        <time>2022-08-13T14:09:33Z</time>
      </trkpt>
      <trkpt lat="4.6127260" lon="-75.7445300">
        <ele>1246.8</ele>
        <time>2022-08-13T14:09:39Z</time>
      </trkpt>
      <trkpt lat="4.6126530" lon="-75.7444220">
        <ele>1246.0</ele>
        <time>2022-08-13T14:09:44Z</time>
      </trkpt>
      <trkpt lat="4.6126100" lon="-75.7443690">
        <ele>1245.8</ele>
        <time>2022-08-13T14:09:47Z</time>
      </trkpt>
      <trkpt lat="4.6124710" lon="-75.7442300">
        <ele>1244.6</ele>
        <time>2022-08-13T14:09:57Z</time>
      </trkpt>
      <trkpt lat="4.6123780" lon="-75.7441740">
        <ele>1243.6</ele>
        <time>2022-08-13T14:10:03Z</time>
      </trkpt>
      <trkpt lat="4.6123630" lon="-75.7441650">
        <ele>1243.4</ele>
        <time>2022-08-13T14:10:04Z</time>
      </trkpt>
      <trkpt lat="4.6122620" lon="-75.7441090">
        <ele>1241.8</ele>
        <time>2022-08-13T14:10:11Z</time>
      </trkpt>
      <trkpt lat="4.6121260" lon="-75.7440540">
        <ele>1240.0</ele>
        <time>2022-08-13T14:10:19Z</time>
      </trkpt>
      <trkpt lat="4.6120920" lon="-75.7440450">
        <ele>1239.6</ele>
        <time>2022-08-13T14:10:21Z</time>
      </trkpt>
      <trkpt lat="4.6119690" lon="-75.7439850">
        <ele>1238.4</ele>
        <time>2022-08-13T14:10:29Z</time>
      </trkpt>
      <trkpt lat="4.6119250" lon="-75.7439580">
        <ele>1238.0</ele>
        <time>2022-08-13T14:10:32Z</time>
      </trkpt>
      <trkpt lat="4.6118260" lon="-75.7439050">
        <ele>1236.8</ele>
        <time>2022-08-13T14:10:38Z</time>
      </trkpt>
      <trkpt lat="4.6117670" lon="-75.7438600">
        <ele>1236.0</ele>
        <time>2022-08-13T14:10:42Z</time>
      </trkpt>
      <trkpt lat="4.6116930" lon="-75.7438180">
        <ele>1235.4</ele>
        <time>2022-08-13T14:10:46Z</time>
      </trkpt>
      <trkpt lat="4.6115360" lon="-75.7436850">
        <ele>1234.8</ele>
        <time>2022-08-13T14:10:54Z</time>
      </trkpt>
      <trkpt lat="4.6113840" lon="-75.7435470">
        <ele>1234.2</ele>
        <time>2022-08-13T14:11:02Z</time>
      </trkpt>
      <trkpt lat="4.6112950" lon="-75.7434150">
        <ele>1233.8</ele>
        <time>2022-08-13T14:11:08Z</time>
      </trkpt>
      <trkpt lat="4.6112090" lon="-75.7433130">
        <ele>1233.6</ele>
        <time>2022-08-13T14:11:13Z</time>
      </trkpt>
      <trkpt lat="4.6111290" lon="-75.7432110">
        <ele>1233.4</ele>
        <time>2022-08-13T14:11:18Z</time>
      </trkpt>
      <trkpt lat="4.6110420" lon="-75.7430900">
        <ele>1233.2</ele>
        <time>2022-08-13T14:11:24Z</time>
      </trkpt>
      <trkpt lat="4.6109810" lon="-75.7430150">
        <ele>1233.2</ele>
        <time>2022-08-13T14:11:28Z</time>
      </trkpt>
      <trkpt lat="4.6108220" lon="-75.7428590">
        <ele>1232.8</ele>
        <time>2022-08-13T14:11:38Z</time>
      </trkpt>
      <trkpt lat="4.6106140" lon="-75.7427170">
        <ele>1231.6</ele>
        <time>2022-08-13T14:11:50Z</time>
      </trkpt>
      <trkpt lat="4.6104200" lon="-75.7425870">
        <ele>1230.6</ele>
        <time>2022-08-13T14:12:00Z</time>
      </trkpt>
      <trkpt lat="4.6102270" lon="-75.7424290">
        <ele>1229.6</ele>
        <time>2022-08-13T14:12:10Z</time>
      </trkpt>
      <trkpt lat="4.6101160" lon="-75.7422570">
        <ele>1229.2</ele>
        <time>2022-08-13T14:12:16Z</time>
      </trkpt>
      <trkpt lat="4.6100800" lon="-75.7421670">
        <ele>1229.0</ele>
        <time>2022-08-13T14:12:18Z</time>
      </trkpt>
      <trkpt lat="4.6100510" lon="-75.7420250">
        <ele>1228.6</ele>
        <time>2022-08-13T14:12:21Z</time>
      </trkpt>
      <trkpt lat="4.6100530" lon="-75.7417970">
        <ele>1228.0</ele>
        <time>2022-08-13T14:12:25Z</time>
      </trkpt>
      <trkpt lat="4.6100830" lon="-75.7416840">
        <ele>1227.8</ele>
        <time>2022-08-13T14:12:27Z</time>
      </trkpt>
      <trkpt lat="4.6101490" lon="-75.7414310">
        <ele>1227.8</ele>
        <time>2022-08-13T14:12:33Z</time>
      </trkpt>
      <trkpt lat="4.6101570" lon="-75.7413940">
        <ele>1227.4</ele>
        <time>2022-08-13T14:12:34Z</time>
      </trkpt>
      <trkpt lat="4.6101710" lon="-75.7411740">
        <ele>1227.4</ele>
        <time>2022-08-13T14:12:40Z</time>
      </trkpt>
      <trkpt lat="4.6101370" lon="-75.7408780">
        <ele>1227.2</ele>
        <time>2022-08-13T14:12:46Z</time>
      </trkpt>
      <trkpt lat="4.6101000" lon="-75.7406870">
        <ele>1227.0</ele>
        <time>2022-08-13T14:12:49Z</time>
      </trkpt>
      <trkpt lat="4.6100460" lon="-75.7405630">
        <ele>1227.0</ele>
        <time>2022-08-13T14:12:51Z</time>
      </trkpt>
      <trkpt lat="4.6099120" lon="-75.7404310">
        <ele>1227.0</ele>
        <time>2022-08-13T14:12:54Z</time>
      </trkpt>
      <trkpt lat="4.6098320" lon="-75.7403540">
        <ele>1227.0</ele>
        <time>2022-08-13T14:12:56Z</time>
      </trkpt>
      <trkpt lat="4.6097610" lon="-75.7402900">
        <ele>1227.0</ele>
        <time>2022-08-13T14:12:58Z</time>
      </trkpt>
      <trkpt lat="4.6096690" lon="-75.7402240">
        <ele>1227.2</ele>
        <time>2022-08-13T14:13:01Z</time>
      </trkpt>
      <trkpt lat="4.6095520" lon="-75.7401430">
        <ele>1227.8</ele>
        <time>2022-08-13T14:13:05Z</time>
      </trkpt>
      <trkpt lat="4.6093970" lon="-75.7400230">
        <ele>1228.6</ele>
        <time>2022-08-13T14:13:09Z</time>
      </trkpt>
      <trkpt lat="4.6091710" lon="-75.7398070">
        <ele>1228.8</ele>
        <time>2022-08-13T14:13:13Z</time>
      </trkpt>
      <trkpt lat="4.6089650" lon="-75.7395410">
        <ele>1229.0</ele>
        <time>2022-08-13T14:13:17Z</time>
      </trkpt>
      <trkpt lat="4.6088910" lon="-75.7394080">
        <ele>1229.2</ele>
        <time>2022-08-13T14:13:19Z</time>
      </trkpt>
      <trkpt lat="4.6088170" lon="-75.7392260">
        <ele>1229.2</ele>
        <time>2022-08-13T14:13:23Z</time>
      </trkpt>
      <trkpt lat="4.6088060" lon="-75.7391870">
        <ele>1229.6</ele>
        <time>2022-08-13T14:13:24Z</time>
      </trkpt>
      <trkpt lat="4.6087840" lon="-75.7390880">
        <ele>1230.2</ele>
        <time>2022-08-13T14:13:27Z</time>
      </trkpt>
      <trkpt lat="4.6087540" lon="-75.7389550">
        <ele>1231.0</ele>
        <time>2022-08-13T14:13:31Z</time>
      </trkpt>
      <trkpt lat="4.6087330" lon="-75.7388480">
        <ele>1231.4</ele>
        <time>2022-08-13T14:13:34Z</time>
      </trkpt>
      <trkpt lat="4.6087140" lon="-75.7387740">
        <ele>1231.6</ele>
        <time>2022-08-13T14:13:36Z</time>
      </trkpt>
      <trkpt lat="4.6086670" lon="-75.7386110">
        <ele>1231.8</ele>
        <time>2022-08-13T14:13:40Z</time>
      </trkpt>
      <trkpt lat="4.6085610" lon="-75.7384130">
        <ele>1232.0</ele>
        <time>2022-08-13T14:13:44Z</time>
      </trkpt>
      <trkpt lat="4.6085230" lon="-75.7383560">
        <ele>1232.2</ele>
        <time>2022-08-13T14:13:45Z</time>
      </trkpt>
      <trkpt lat="4.6083510" lon="-75.7381400">
        <ele>1232.2</ele>
        <time>2022-08-13T14:13:49Z</time>
      </trkpt>
      <trkpt lat="4.6082890" lon="-75.7380940">
        <ele>1232.4</ele>
        <time>2022-08-13T14:13:50Z</time>
      </trkpt>
      <trkpt lat="4.6082410" lon="-75.7380670">
        <ele>1232.4</ele>
        <time>2022-08-13T14:13:51Z</time>
      </trkpt>
      <trkpt lat="4.6081180" lon="-75.7380080">
        <ele>1232.4</ele>
        <time>2022-08-13T14:13:53Z</time>
      </trkpt>
      <trkpt lat="4.6079670" lon="-75.7379720">
        <ele>1233.0</ele>
        <time>2022-08-13T14:13:55Z</time>
      </trkpt>
      <trkpt lat="4.6078430" lon="-75.7379580">
        <ele>1232.8</ele>
        <time>2022-08-13T14:13:57Z</time>
      </trkpt>
      <trkpt lat="4.6075960" lon="-75.7379300">
        <ele>1233.4</ele>
        <time>2022-08-13T14:14:01Z</time>
      </trkpt>
      <trkpt lat="4.6075400" lon="-75.7379310">
        <ele>1233.4</ele>
        <time>2022-08-13T14:14:02Z</time>
      </trkpt>
      <trkpt lat="4.6073920" lon="-75.7379480">
        <ele>1233.6</ele>
        <time>2022-08-13T14:14:05Z</time>
      </trkpt>
      <trkpt lat="4.6073440" lon="-75.7379600">
        <ele>1233.8</ele>
        <time>2022-08-13T14:14:06Z</time>
      </trkpt>
      <trkpt lat="4.6072960" lon="-75.7379690">
        <ele>1234.0</ele>
        <time>2022-08-13T14:14:07Z</time>
      </trkpt>
      <trkpt lat="4.6072490" lon="-75.7379750">
        <ele>1234.2</ele>
        <time>2022-08-13T14:14:08Z</time>
      </trkpt>
      <trkpt lat="4.6072020" lon="-75.7379800">
        <ele>1234.2</ele>
        <time>2022-08-13T14:14:09Z</time>
      </trkpt>
      <trkpt lat="4.6071050" lon="-75.7379690">
        <ele>1234.4</ele>
        <time>2022-08-13T14:14:11Z</time>
      </trkpt>
      <trkpt lat="4.6069140" lon="-75.7379430">
        <ele>1234.8</ele>
        <time>2022-08-13T14:14:14Z</time>
      </trkpt>
      <trkpt lat="4.6068430" lon="-75.7379170">
        <ele>1234.8</ele>
        <time>2022-08-13T14:14:15Z</time>
      </trkpt>
      <trkpt lat="4.6067730" lon="-75.7378850">
        <ele>1235.0</ele>
        <time>2022-08-13T14:14:16Z</time>
      </trkpt>
      <trkpt lat="4.6066450" lon="-75.7377840">
        <ele>1235.4</ele>
        <time>2022-08-13T14:14:18Z</time>
      </trkpt>
      <trkpt lat="4.6065590" lon="-75.7376360">
        <ele>1235.6</ele>
        <time>2022-08-13T14:14:20Z</time>
      </trkpt>
      <trkpt lat="4.6065420" lon="-75.7375800">
        <ele>1235.6</ele>
        <time>2022-08-13T14:14:21Z</time>
      </trkpt>
      <trkpt lat="4.6065290" lon="-75.7375090">
        <ele>1236.0</ele>
        <time>2022-08-13T14:14:22Z</time>
      </trkpt>
      <trkpt lat="4.6065250" lon="-75.7374390">
        <ele>1236.0</ele>
        <time>2022-08-13T14:14:23Z</time>
      </trkpt>
      <trkpt lat="4.6065310" lon="-75.7373020">
        <ele>1236.4</ele>
        <time>2022-08-13T14:14:25Z</time>
      </trkpt>
      <trkpt lat="4.6065380" lon="-75.7371800">
        <ele>1237.0</ele>
        <time>2022-08-13T14:14:27Z</time>
      </trkpt>
      <trkpt lat="4.6065710" lon="-75.7370140">
        <ele>1237.4</ele>
        <time>2022-08-13T14:14:30Z</time>
      </trkpt>
      <trkpt lat="4.6066080" lon="-75.7369170">
        <ele>1237.8</ele>
        <time>2022-08-13T14:14:32Z</time>
      </trkpt>
      <trkpt lat="4.6066830" lon="-75.7367720">
        <ele>1238.6</ele>
        <time>2022-08-13T14:14:35Z</time>
      </trkpt>
      <trkpt lat="4.6067100" lon="-75.7367260">
        <ele>1238.8</ele>
        <time>2022-08-13T14:14:36Z</time>
      </trkpt>
      <trkpt lat="4.6067860" lon="-75.7366040">
        <ele>1239.4</ele>
        <time>2022-08-13T14:14:39Z</time>
      </trkpt>
      <trkpt lat="4.6068290" lon="-75.7365370">
        <ele>1239.6</ele>
        <time>2022-08-13T14:14:41Z</time>
      </trkpt>
      <trkpt lat="4.6068600" lon="-75.7364860">
        <ele>1240.0</ele>
        <time>2022-08-13T14:14:43Z</time>
      </trkpt>
      <trkpt lat="4.6069050" lon="-75.7364270">
        <ele>1240.6</ele>
        <time>2022-08-13T14:14:46Z</time>
      </trkpt>
      <trkpt lat="4.6069330" lon="-75.7363860">
        <ele>1240.6</ele>
        <time>2022-08-13T14:14:48Z</time>
      </trkpt>
      <trkpt lat="4.6069690" lon="-75.7363230">
        <ele>1241.2</ele>
        <time>2022-08-13T14:14:51Z</time>
      </trkpt>
      <trkpt lat="4.6069930" lon="-75.7362880">
        <ele>1241.4</ele>
        <time>2022-08-13T14:14:53Z</time>
      </trkpt>
      <trkpt lat="4.6070040" lon="-75.7362700">
        <ele>1241.4</ele>
        <time>2022-08-13T14:14:54Z</time>
      </trkpt>
      <trkpt lat="4.6070310" lon="-75.7361940">
        <ele>1241.8</ele>
        <time>2022-08-13T14:14:58Z</time>
      </trkpt>
      <trkpt lat="4.6070370" lon="-75.7361720">
        <ele>1241.8</ele>
        <time>2022-08-13T14:14:59Z</time>
      </trkpt>
      <trkpt lat="4.6070460" lon="-75.7361500">
        <ele>1242.0</ele>
        <time>2022-08-13T14:15:00Z</time>
      </trkpt>
      <trkpt lat="4.6070790" lon="-75.7360900">
        <ele>1242.6</ele>
        <time>2022-08-13T14:15:03Z</time>
      </trkpt>
      <trkpt lat="4.6070880" lon="-75.7360700">
        <ele>1242.8</ele>
        <time>2022-08-13T14:15:04Z</time>
      </trkpt>
      <trkpt lat="4.6071130" lon="-75.7360120">
        <ele>1243.6</ele>
        <time>2022-08-13T14:15:07Z</time>
      </trkpt>
      <trkpt lat="4.6071420" lon="-75.7359460">
        <ele>1244.8</ele>
        <time>2022-08-13T14:15:10Z</time>
      </trkpt>
      <trkpt lat="4.6071770" lon="-75.7358780">
        <ele>1246.2</ele>
        <time>2022-08-13T14:15:13Z</time>
      </trkpt>
      <trkpt lat="4.6072010" lon="-75.7358310">
        <ele>1247.0</ele>
        <time>2022-08-13T14:15:15Z</time>
      </trkpt>
      <trkpt lat="4.6072270" lon="-75.7357780">
        <ele>1247.6</ele>
        <time>2022-08-13T14:15:17Z</time>
      </trkpt>
      <trkpt lat="4.6072380" lon="-75.7357530">
        <ele>1248.0</ele>
        <time>2022-08-13T14:15:18Z</time>
      </trkpt>
      <trkpt lat="4.6072690" lon="-75.7356650">
        <ele>1249.0</ele>
        <time>2022-08-13T14:15:21Z</time>
      </trkpt>
      <trkpt lat="4.6073060" lon="-75.7355550">
        <ele>1250.4</ele>
        <time>2022-08-13T14:15:24Z</time>
      </trkpt>
      <trkpt lat="4.6073440" lon="-75.7354140">
        <ele>1251.0</ele>
        <time>2022-08-13T14:15:27Z</time>
      </trkpt>
      <trkpt lat="4.6073790" lon="-75.7352500">
        <ele>1251.8</ele>
        <time>2022-08-13T14:15:30Z</time>
      </trkpt>
      <trkpt lat="4.6074150" lon="-75.7350150">
        <ele>1252.4</ele>
        <time>2022-08-13T14:15:34Z</time>
      </trkpt>
      <trkpt lat="4.6074260" lon="-75.7349070">
        <ele>1253.0</ele>
        <time>2022-08-13T14:15:36Z</time>
      </trkpt>
      <trkpt lat="4.6074380" lon="-75.7348070">
        <ele>1253.6</ele>
        <time>2022-08-13T14:15:38Z</time>
      </trkpt>
      <trkpt lat="4.6074550" lon="-75.7346640">
        <ele>1254.0</ele>
        <time>2022-08-13T14:15:41Z</time>
      </trkpt>
      <trkpt lat="4.6074570" lon="-75.7346160">
        <ele>1254.4</ele>
        <time>2022-08-13T14:15:42Z</time>
      </trkpt>
      <trkpt lat="4.6074610" lon="-75.7345230">
        <ele>1255.2</ele>
        <time>2022-08-13T14:15:44Z</time>
      </trkpt>
      <trkpt lat="4.6074620" lon="-75.7344780">
        <ele>1255.4</ele>
        <time>2022-08-13T14:15:45Z</time>
      </trkpt>
      <trkpt lat="4.6074590" lon="-75.7343270">
        <ele>1256.6</ele>
        <time>2022-08-13T14:15:48Z</time>
      </trkpt>
      <trkpt lat="4.6074450" lon="-75.7341970">
        <ele>1257.4</ele>
        <time>2022-08-13T14:15:50Z</time>
      </trkpt>
      <trkpt lat="4.6074330" lon="-75.7341250">
        <ele>1257.8</ele>
        <time>2022-08-13T14:15:51Z</time>
      </trkpt>
      <trkpt lat="4.6074020" lon="-75.7339110">
        <ele>1259.0</ele>
        <time>2022-08-13T14:15:54Z</time>
      </trkpt>
      <trkpt lat="4.6073800" lon="-75.7337770">
        <ele>1259.4</ele>
        <time>2022-08-13T14:15:56Z</time>
      </trkpt>
      <trkpt lat="4.6073560" lon="-75.7336490">
        <ele>1259.8</ele>
        <time>2022-08-13T14:15:58Z</time>
      </trkpt>
      <trkpt lat="4.6073250" lon="-75.7334410">
        <ele>1260.8</ele>
        <time>2022-08-13T14:16:02Z</time>
      </trkpt>
      <trkpt lat="4.6072840" lon="-75.7332950">
        <ele>1261.8</ele>
        <time>2022-08-13T14:16:06Z</time>
      </trkpt>
      <trkpt lat="4.6072720" lon="-75.7332590">
        <ele>1262.4</ele>
        <time>2022-08-13T14:16:07Z</time>
      </trkpt>
      <trkpt lat="4.6072440" lon="-75.7331920">
        <ele>1263.2</ele>
        <time>2022-08-13T14:16:09Z</time>
      </trkpt>
      <trkpt lat="4.6071750" lon="-75.7330990">
        <ele>1264.2</ele>
        <time>2022-08-13T14:16:12Z</time>
      </trkpt>
      <trkpt lat="4.6071250" lon="-75.7330470">
        <ele>1265.0</ele>
        <time>2022-08-13T14:16:14Z</time>
      </trkpt>
      <trkpt lat="4.6070980" lon="-75.7330210">
        <ele>1265.2</ele>
        <time>2022-08-13T14:16:15Z</time>
      </trkpt>
      <trkpt lat="4.6070090" lon="-75.7329400">
        <ele>1266.0</ele>
        <time>2022-08-13T14:16:18Z</time>
      </trkpt>
      <trkpt lat="4.6069090" lon="-75.7328400">
        <ele>1266.2</ele>
        <time>2022-08-13T14:16:21Z</time>
      </trkpt>
      <trkpt lat="4.6068710" lon="-75.7327930">
        <ele>1266.4</ele>
        <time>2022-08-13T14:16:22Z</time>
      </trkpt>
      <trkpt lat="4.6068200" lon="-75.7326860">
        <ele>1266.4</ele>
        <time>2022-08-13T14:16:24Z</time>
      </trkpt>
      <trkpt lat="4.6068060" lon="-75.7326250">
        <ele>1266.4</ele>
        <time>2022-08-13T14:16:25Z</time>
      </trkpt>
      <trkpt lat="4.6067900" lon="-75.7324960">
        <ele>1266.4</ele>
        <time>2022-08-13T14:16:27Z</time>
      </trkpt>
      <trkpt lat="4.6068060" lon="-75.7323070">
        <ele>1265.8</ele>
        <time>2022-08-13T14:16:30Z</time>
      </trkpt>
      <trkpt lat="4.6068370" lon="-75.7320780">
        <ele>1264.4</ele>
        <time>2022-08-13T14:16:34Z</time>
      </trkpt>
      <trkpt lat="4.6068490" lon="-75.7320280">
        <ele>1264.4</ele>
        <time>2022-08-13T14:16:35Z</time>
      </trkpt>
      <trkpt lat="4.6069060" lon="-75.7317690">
        <ele>1263.8</ele>
        <time>2022-08-13T14:16:40Z</time>
      </trkpt>
      <trkpt lat="4.6069170" lon="-75.7316140">
        <ele>1263.4</ele>
        <time>2022-08-13T14:16:43Z</time>
      </trkpt>
      <trkpt lat="4.6069120" lon="-75.7315510">
        <ele>1263.4</ele>
        <time>2022-08-13T14:16:44Z</time>
      </trkpt>
      <trkpt lat="4.6069030" lon="-75.7313950">
        <ele>1263.0</ele>
        <time>2022-08-13T14:16:47Z</time>
      </trkpt>
      <trkpt lat="4.6068940" lon="-75.7312970">
        <ele>1262.4</ele>
        <time>2022-08-13T14:16:49Z</time>
      </trkpt>
      <trkpt lat="4.6068940" lon="-75.7312500">
        <ele>1262.4</ele>
        <time>2022-08-13T14:16:50Z</time>
      </trkpt>
      <trkpt lat="4.6068820" lon="-75.7309620">
        <ele>1262.0</ele>
        <time>2022-08-13T14:16:57Z</time>
      </trkpt>
      <trkpt lat="4.6068550" lon="-75.7307570">
        <ele>1262.0</ele>
        <time>2022-08-13T14:17:04Z</time>
      </trkpt>
      <trkpt lat="4.6068290" lon="-75.7305950">
        <ele>1261.8</ele>
        <time>2022-08-13T14:17:10Z</time>
      </trkpt>
      <trkpt lat="4.6068160" lon="-75.7305440">
        <ele>1261.8</ele>
        <time>2022-08-13T14:17:12Z</time>
      </trkpt>
      <trkpt lat="4.6067580" lon="-75.7303610">
        <ele>1261.8</ele>
        <time>2022-08-13T14:17:19Z</time>
      </trkpt>
      <trkpt lat="4.6067450" lon="-75.7303070">
        <ele>1261.8</ele>
        <time>2022-08-13T14:17:21Z</time>
      </trkpt>
      <trkpt lat="4.6067190" lon="-75.7302270">
        <ele>1262.4</ele>
        <time>2022-08-13T14:17:24Z</time>
      </trkpt>
      <trkpt lat="4.6066920" lon="-75.7301460">
        <ele>1263.2</ele>
        <time>2022-08-13T14:17:27Z</time>
      </trkpt>
      <trkpt lat="4.6066650" lon="-75.7300640">
        <ele>1264.2</ele>
        <time>2022-08-13T14:17:30Z</time>
      </trkpt>
      <trkpt lat="4.6066480" lon="-75.7299800">
        <ele>1265.0</ele>
        <time>2022-08-13T14:17:33Z</time>
      </trkpt>
      <trkpt lat="4.6066330" lon="-75.7298920">
        <ele>1265.8</ele>
        <time>2022-08-13T14:17:36Z</time>
      </trkpt>
      <trkpt lat="4.6066290" lon="-75.7298640">
        <ele>1266.0</ele>
        <time>2022-08-13T14:17:37Z</time>
      </trkpt>
      <trkpt lat="4.6066120" lon="-75.7298100">
        <ele>1266.2</ele>
        <time>2022-08-13T14:17:39Z</time>
      </trkpt>
      <trkpt lat="4.6065970" lon="-75.7297290">
        <ele>1267.0</ele>
        <time>2022-08-13T14:17:42Z</time>
      </trkpt>
      <trkpt lat="4.6065690" lon="-75.7295870">
        <ele>1268.0</ele>
        <time>2022-08-13T14:17:46Z</time>
      </trkpt>
      <trkpt lat="4.6065350" lon="-75.7294850">
        <ele>1268.0</ele>
        <time>2022-08-13T14:17:48Z</time>
      </trkpt>
      <trkpt lat="4.6065200" lon="-75.7294350">
        <ele>1268.2</ele>
        <time>2022-08-13T14:17:49Z</time>
      </trkpt>
      <trkpt lat="4.6064770" lon="-75.7292830">
        <ele>1268.0</ele>
        <time>2022-08-13T14:17:51Z</time>
      </trkpt>
      <trkpt lat="4.6064530" lon="-75.7292110">
        <ele>1268.0</ele>
        <time>2022-08-13T14:17:52Z</time>
      </trkpt>
      <trkpt lat="4.6063480" lon="-75.7289320">
        <ele>1268.0</ele>
        <time>2022-08-13T14:17:56Z</time>
      </trkpt>
      <trkpt lat="4.6063130" lon="-75.7287940">
        <ele>1267.6</ele>
        <time>2022-08-13T14:17:58Z</time>
      </trkpt>
      <trkpt lat="4.6063130" lon="-75.7286530">
        <ele>1267.2</ele>
        <time>2022-08-13T14:18:00Z</time>
      </trkpt>
      <trkpt lat="4.6063430" lon="-75.7285330">
        <ele>1267.0</ele>
        <time>2022-08-13T14:18:02Z</time>
      </trkpt>
      <trkpt lat="4.6064640" lon="-75.7283220">
        <ele>1267.0</ele>
        <time>2022-08-13T14:18:07Z</time>
      </trkpt>
      <trkpt lat="4.6065260" lon="-75.7282190">
        <ele>1267.0</ele>
        <time>2022-08-13T14:18:11Z</time>
      </trkpt>
      <trkpt lat="4.6065360" lon="-75.7281940">
        <ele>1267.0</ele>
        <time>2022-08-13T14:18:12Z</time>
      </trkpt>
      <trkpt lat="4.6065570" lon="-75.7281440">
        <ele>1267.0</ele>
        <time>2022-08-13T14:18:14Z</time>
      </trkpt>
      <trkpt lat="4.6065860" lon="-75.7280860">
        <ele>1267.2</ele>
        <time>2022-08-13T14:18:16Z</time>
      </trkpt>
      <trkpt lat="4.6066550" lon="-75.7279630">
        <ele>1267.4</ele>
        <time>2022-08-13T14:18:20Z</time>
      </trkpt>
      <trkpt lat="4.6067010" lon="-75.7278970">
        <ele>1268.2</ele>
        <time>2022-08-13T14:18:22Z</time>
      </trkpt>
      <trkpt lat="4.6067170" lon="-75.7278600">
        <ele>1268.4</ele>
        <time>2022-08-13T14:18:23Z</time>
      </trkpt>
      <trkpt lat="4.6067570" lon="-75.7277090">
        <ele>1269.4</ele>
        <time>2022-08-13T14:18:27Z</time>
      </trkpt>
      <trkpt lat="4.6067610" lon="-75.7276680">
        <ele>1270.0</ele>
        <time>2022-08-13T14:18:28Z</time>
      </trkpt>
      <trkpt lat="4.6067610" lon="-75.7275820">
        <ele>1270.6</ele>
        <time>2022-08-13T14:18:30Z</time>
      </trkpt>
      <trkpt lat="4.6067560" lon="-75.7274540">
        <ele>1271.6</ele>
        <time>2022-08-13T14:18:33Z</time>
      </trkpt>
      <trkpt lat="4.6067410" lon="-75.7273630">
        <ele>1272.4</ele>
        <time>2022-08-13T14:18:35Z</time>
      </trkpt>
      <trkpt lat="4.6067310" lon="-75.7273210">
        <ele>1272.8</ele>
        <time>2022-08-13T14:18:36Z</time>
      </trkpt>
      <trkpt lat="4.6067000" lon="-75.7272070">
        <ele>1273.8</ele>
        <time>2022-08-13T14:18:39Z</time>
      </trkpt>
      <trkpt lat="4.6066840" lon="-75.7271090">
        <ele>1274.4</ele>
        <time>2022-08-13T14:18:42Z</time>
      </trkpt>
      <trkpt lat="4.6066730" lon="-75.7270210">
        <ele>1275.6</ele>
        <time>2022-08-13T14:18:45Z</time>
      </trkpt>
      <trkpt lat="4.6066590" lon="-75.7269430">
        <ele>1276.2</ele>
        <time>2022-08-13T14:18:48Z</time>
      </trkpt>
      <trkpt lat="4.6066430" lon="-75.7268370">
        <ele>1277.2</ele>
        <time>2022-08-13T14:18:52Z</time>
      </trkpt>
      <trkpt lat="4.6066300" lon="-75.7267210">
        <ele>1278.2</ele>
        <time>2022-08-13T14:18:56Z</time>
      </trkpt>
      <trkpt lat="4.6066260" lon="-75.7266040">
        <ele>1279.2</ele>
        <time>2022-08-13T14:19:00Z</time>
      </trkpt>
      <trkpt lat="4.6066080" lon="-75.7264420">
        <ele>1280.0</ele>
        <time>2022-08-13T14:19:05Z</time>
      </trkpt>
      <trkpt lat="4.6066060" lon="-75.7263990">
        <ele>1280.2</ele>
        <time>2022-08-13T14:19:06Z</time>
      </trkpt>
      <trkpt lat="4.6065890" lon="-75.7261230">
        <ele>1281.0</ele>
        <time>2022-08-13T14:19:11Z</time>
      </trkpt>
      <trkpt lat="4.6065260" lon="-75.7256880">
        <ele>1281.4</ele>
        <time>2022-08-13T14:19:18Z</time>
      </trkpt>
      <trkpt lat="4.6065140" lon="-75.7256260">
        <ele>1281.6</ele>
        <time>2022-08-13T14:19:19Z</time>
      </trkpt>
      <trkpt lat="4.6064730" lon="-75.7254100">
        <ele>1282.4</ele>
        <time>2022-08-13T14:19:23Z</time>
      </trkpt>
      <trkpt lat="4.6064500" lon="-75.7253050">
        <ele>1282.6</ele>
        <time>2022-08-13T14:19:25Z</time>
      </trkpt>
      <trkpt lat="4.6064390" lon="-75.7252620">
        <ele>1282.6</ele>
        <time>2022-08-13T14:19:26Z</time>
      </trkpt>
      <trkpt lat="4.6064290" lon="-75.7252200">
        <ele>1283.0</ele>
        <time>2022-08-13T14:19:27Z</time>
      </trkpt>
      <trkpt lat="4.6064090" lon="-75.7250150">
        <ele>1283.8</ele>
        <time>2022-08-13T14:19:31Z</time>
      </trkpt>
      <trkpt lat="4.6064140" lon="-75.7249670">
        <ele>1283.8</ele>
        <time>2022-08-13T14:19:32Z</time>
      </trkpt>
      <trkpt lat="4.6064610" lon="-75.7247060">
        <ele>1284.6</ele>
        <time>2022-08-13T14:19:36Z</time>
      </trkpt>
      <trkpt lat="4.6064730" lon="-75.7246570">
        <ele>1284.8</ele>
        <time>2022-08-13T14:19:37Z</time>
      </trkpt>
      <trkpt lat="4.6065490" lon="-75.7243170">
        <ele>1285.6</ele>
        <time>2022-08-13T14:19:43Z</time>
      </trkpt>
      <trkpt lat="4.6065860" lon="-75.7241580">
        <ele>1286.6</ele>
        <time>2022-08-13T14:19:47Z</time>
      </trkpt>
      <trkpt lat="4.6065920" lon="-75.7241250">
        <ele>1286.8</ele>
        <time>2022-08-13T14:19:48Z</time>
      </trkpt>
      <trkpt lat="4.6065990" lon="-75.7240700">
        <ele>1287.6</ele>
        <time>2022-08-13T14:19:50Z</time>
      </trkpt>
      <trkpt lat="4.6066040" lon="-75.7239900">
        <ele>1288.4</ele>
        <time>2022-08-13T14:19:53Z</time>
      </trkpt>
      <trkpt lat="4.6066070" lon="-75.7239610">
        <ele>1288.8</ele>
        <time>2022-08-13T14:19:54Z</time>
      </trkpt>
      <trkpt lat="4.6066000" lon="-75.7239120">
        <ele>1289.4</ele>
        <time>2022-08-13T14:19:56Z</time>
      </trkpt>
      <trkpt lat="4.6065790" lon="-75.7238220">
        <ele>1290.2</ele>
        <time>2022-08-13T14:19:59Z</time>
      </trkpt>
      <trkpt lat="4.6065670" lon="-75.7237620">
        <ele>1290.6</ele>
        <time>2022-08-13T14:20:01Z</time>
      </trkpt>
      <trkpt lat="4.6065570" lon="-75.7236710">
        <ele>1291.0</ele>
        <time>2022-08-13T14:20:04Z</time>
      </trkpt>
      <trkpt lat="4.6065610" lon="-75.7235110">
        <ele>1291.6</ele>
        <time>2022-08-13T14:20:09Z</time>
      </trkpt>
      <trkpt lat="4.6065660" lon="-75.7234800">
        <ele>1292.0</ele>
        <time>2022-08-13T14:20:10Z</time>
      </trkpt>
      <trkpt lat="4.6066210" lon="-75.7233220">
        <ele>1292.6</ele>
        <time>2022-08-13T14:20:15Z</time>
      </trkpt>
      <trkpt lat="4.6066310" lon="-75.7232920">
        <ele>1292.6</ele>
        <time>2022-08-13T14:20:16Z</time>
      </trkpt>
      <trkpt lat="4.6066940" lon="-75.7231400">
        <ele>1293.4</ele>
        <time>2022-08-13T14:20:21Z</time>
      </trkpt>
      <trkpt lat="4.6067250" lon="-75.7230750">
        <ele>1294.0</ele>
        <time>2022-08-13T14:20:23Z</time>
      </trkpt>
      <trkpt lat="4.6067680" lon="-75.7229830">
        <ele>1294.4</ele>
        <time>2022-08-13T14:20:26Z</time>
      </trkpt>
      <trkpt lat="4.6068090" lon="-75.7228900">
        <ele>1295.2</ele>
        <time>2022-08-13T14:20:29Z</time>
      </trkpt>
      <trkpt lat="4.6068620" lon="-75.7227990">
        <ele>1296.2</ele>
        <time>2022-08-13T14:20:32Z</time>
      </trkpt>
      <trkpt lat="4.6068780" lon="-75.7227730">
        <ele>1296.6</ele>
        <time>2022-08-13T14:20:33Z</time>
      </trkpt>
      <trkpt lat="4.6069130" lon="-75.7227020">
        <ele>1297.0</ele>
        <time>2022-08-13T14:20:35Z</time>
      </trkpt>
      <trkpt lat="4.6069860" lon="-75.7225420">
        <ele>1297.8</ele>
        <time>2022-08-13T14:20:40Z</time>
      </trkpt>
      <trkpt lat="4.6070350" lon="-75.7224170">
        <ele>1298.8</ele>
        <time>2022-08-13T14:20:44Z</time>
      </trkpt>
      <trkpt lat="4.6070780" lon="-75.7223080">
        <ele>1299.8</ele>
        <time>2022-08-13T14:20:48Z</time>
      </trkpt>
      <trkpt lat="4.6070870" lon="-75.7222810">
        <ele>1299.8</ele>
        <time>2022-08-13T14:20:49Z</time>
      </trkpt>
      <trkpt lat="4.6071280" lon="-75.7221430">
        <ele>1300.4</ele>
        <time>2022-08-13T14:20:53Z</time>
      </trkpt>
      <trkpt lat="4.6071570" lon="-75.7220450">
        <ele>1301.0</ele>
        <time>2022-08-13T14:20:55Z</time>
      </trkpt>
      <trkpt lat="4.6071840" lon="-75.7219220">
        <ele>1301.2</ele>
        <time>2022-08-13T14:20:57Z</time>
      </trkpt>
      <trkpt lat="4.6072140" lon="-75.7217400">
        <ele>1301.8</ele>
        <time>2022-08-13T14:21:00Z</time>
      </trkpt>
      <trkpt lat="4.6072330" lon="-75.7215930">
        <ele>1302.0</ele>
        <time>2022-08-13T14:21:02Z</time>
      </trkpt>
      <trkpt lat="4.6072630" lon="-75.7214060">
        <ele>1302.2</ele>
        <time>2022-08-13T14:21:05Z</time>
      </trkpt>
      <trkpt lat="4.6072890" lon="-75.7212560">
        <ele>1302.8</ele>
        <time>2022-08-13T14:21:08Z</time>
      </trkpt>
      <trkpt lat="4.6073040" lon="-75.7211810">
        <ele>1303.2</ele>
        <time>2022-08-13T14:21:10Z</time>
      </trkpt>
      <trkpt lat="4.6073120" lon="-75.7211460">
        <ele>1303.6</ele>
        <time>2022-08-13T14:21:11Z</time>
      </trkpt>
      <trkpt lat="4.6073660" lon="-75.7210040">
        <ele>1304.6</ele>
        <time>2022-08-13T14:21:15Z</time>
      </trkpt>
      <trkpt lat="4.6074020" lon="-75.7209210">
        <ele>1305.2</ele>
        <time>2022-08-13T14:21:17Z</time>
      </trkpt>
      <trkpt lat="4.6074210" lon="-75.7208800">
        <ele>1305.4</ele>
        <time>2022-08-13T14:21:18Z</time>
      </trkpt>
      <trkpt lat="4.6075180" lon="-75.7206600">
        <ele>1306.2</ele>
        <time>2022-08-13T14:21:23Z</time>
      </trkpt>
      <trkpt lat="4.6075590" lon="-75.7205710">
        <ele>1306.8</ele>
        <time>2022-08-13T14:21:25Z</time>
      </trkpt>
      <trkpt lat="4.6076030" lon="-75.7204770">
        <ele>1307.0</ele>
        <time>2022-08-13T14:21:27Z</time>
      </trkpt>
      <trkpt lat="4.6076290" lon="-75.7204260">
        <ele>1307.2</ele>
        <time>2022-08-13T14:21:28Z</time>
      </trkpt>
      <trkpt lat="4.6076910" lon="-75.7203200">
        <ele>1307.8</ele>
        <time>2022-08-13T14:21:30Z</time>
      </trkpt>
      <trkpt lat="4.6077200" lon="-75.7202640">
        <ele>1308.0</ele>
        <time>2022-08-13T14:21:31Z</time>
      </trkpt>
      <trkpt lat="4.6078280" lon="-75.7200330">
        <ele>1308.8</ele>
        <time>2022-08-13T14:21:35Z</time>
      </trkpt>
      <trkpt lat="4.6078670" lon="-75.7199200">
        <ele>1309.0</ele>
        <time>2022-08-13T14:21:37Z</time>
      </trkpt>
      <trkpt lat="4.6079210" lon="-75.7197550">
        <ele>1309.6</ele>
        <time>2022-08-13T14:21:40Z</time>
      </trkpt>
      <trkpt lat="4.6079610" lon="-75.7196080">
        <ele>1310.4</ele>
        <time>2022-08-13T14:21:43Z</time>
      </trkpt>
      <trkpt lat="4.6079780" lon="-75.7195490">
        <ele>1310.6</ele>
        <time>2022-08-13T14:21:44Z</time>
      </trkpt>
      <trkpt lat="4.6080240" lon="-75.7194010">
        <ele>1311.6</ele>
        <time>2022-08-13T14:21:47Z</time>
      </trkpt>
      <trkpt lat="4.6080600" lon="-75.7192650">
        <ele>1312.4</ele>
        <time>2022-08-13T14:21:50Z</time>
      </trkpt>
      <trkpt lat="4.6081110" lon="-75.7191050">
        <ele>1313.4</ele>
        <time>2022-08-13T14:21:54Z</time>
      </trkpt>
      <trkpt lat="4.6081310" lon="-75.7190380">
        <ele>1313.8</ele>
        <time>2022-08-13T14:21:56Z</time>
      </trkpt>
      <trkpt lat="4.6081570" lon="-75.7189470">
        <ele>1314.2</ele>
        <time>2022-08-13T14:21:59Z</time>
      </trkpt>
      <trkpt lat="4.6081920" lon="-75.7188250">
        <ele>1314.8</ele>
        <time>2022-08-13T14:22:03Z</time>
      </trkpt>
      <trkpt lat="4.6082210" lon="-75.7187420">
        <ele>1315.0</ele>
        <time>2022-08-13T14:22:05Z</time>
      </trkpt>
      <trkpt lat="4.6082710" lon="-75.7186020">
        <ele>1315.4</ele>
        <time>2022-08-13T14:22:08Z</time>
      </trkpt>
      <trkpt lat="4.6083480" lon="-75.7184580">
        <ele>1315.8</ele>
        <time>2022-08-13T14:22:11Z</time>
      </trkpt>
      <trkpt lat="4.6084170" lon="-75.7183690">
        <ele>1316.0</ele>
        <time>2022-08-13T14:22:13Z</time>
      </trkpt>
      <trkpt lat="4.6084550" lon="-75.7183280">
        <ele>1316.0</ele>
        <time>2022-08-13T14:22:14Z</time>
      </trkpt>
      <trkpt lat="4.6086110" lon="-75.7181920">
        <ele>1316.6</ele>
        <time>2022-08-13T14:22:18Z</time>
      </trkpt>
      <trkpt lat="4.6086440" lon="-75.7181610">
        <ele>1316.6</ele>
        <time>2022-08-13T14:22:19Z</time>
      </trkpt>
      <trkpt lat="4.6087740" lon="-75.7180450">
        <ele>1317.0</ele>
        <time>2022-08-13T14:22:24Z</time>
      </trkpt>
      <trkpt lat="4.6088310" lon="-75.7179920">
        <ele>1317.0</ele>
        <time>2022-08-13T14:22:27Z</time>
      </trkpt>
      <trkpt lat="4.6088880" lon="-75.7179430">
        <ele>1317.4</ele>
        <time>2022-08-13T14:22:30Z</time>
      </trkpt>
      <trkpt lat="4.6089500" lon="-75.7179050">
        <ele>1318.0</ele>
        <time>2022-08-13T14:22:33Z</time>
      </trkpt>
      <trkpt lat="4.6090090" lon="-75.7178630">
        <ele>1318.8</ele>
        <time>2022-08-13T14:22:36Z</time>
      </trkpt>
      <trkpt lat="4.6090430" lon="-75.7178330">
        <ele>1319.0</ele>
        <time>2022-08-13T14:22:38Z</time>
      </trkpt>
      <trkpt lat="4.6091710" lon="-75.7177120">
        <ele>1319.8</ele>
        <time>2022-08-13T14:22:44Z</time>
      </trkpt>
      <trkpt lat="4.6091970" lon="-75.7176820">
        <ele>1320.0</ele>
        <time>2022-08-13T14:22:45Z</time>
      </trkpt>
      <trkpt lat="4.6093340" lon="-75.7175080">
        <ele>1320.4</ele>
        <time>2022-08-13T14:22:51Z</time>
      </trkpt>
      <trkpt lat="4.6093750" lon="-75.7174520">
        <ele>1320.8</ele>
        <time>2022-08-13T14:22:53Z</time>
      </trkpt>
      <trkpt lat="4.6095260" lon="-75.7172570">
        <ele>1321.2</ele>
        <time>2022-08-13T14:22:59Z</time>
      </trkpt>
      <trkpt lat="4.6095980" lon="-75.7171710">
        <ele>1321.4</ele>
        <time>2022-08-13T14:23:02Z</time>
      </trkpt>
      <trkpt lat="4.6097090" lon="-75.7170400">
        <ele>1321.8</ele>
        <time>2022-08-13T14:23:06Z</time>
      </trkpt>
      <trkpt lat="4.6098730" lon="-75.7168840">
        <ele>1322.2</ele>
        <time>2022-08-13T14:23:12Z</time>
      </trkpt>
      <trkpt lat="4.6100150" lon="-75.7167870">
        <ele>1322.2</ele>
        <time>2022-08-13T14:23:17Z</time>
      </trkpt>
      <trkpt lat="4.6100420" lon="-75.7167640">
        <ele>1322.4</ele>
        <time>2022-08-13T14:23:18Z</time>
      </trkpt>
      <trkpt lat="4.6101520" lon="-75.7166280">
        <ele>1322.4</ele>
        <time>2022-08-13T14:23:25Z</time>
      </trkpt>
      <trkpt lat="4.6102850" lon="-75.7164300">
        <ele>1322.6</ele>
        <time>2022-08-13T14:23:33Z</time>
      </trkpt>
      <trkpt lat="4.6103030" lon="-75.7164020">
        <ele>1322.6</ele>
        <time>2022-08-13T14:23:34Z</time>
      </trkpt>
      <trkpt lat="4.6104350" lon="-75.7161880">
        <ele>1322.8</ele>
        <time>2022-08-13T14:23:41Z</time>
      </trkpt>
      <trkpt lat="4.6104580" lon="-75.7161470">
        <ele>1322.6</ele>
        <time>2022-08-13T14:23:42Z</time>
      </trkpt>
      <trkpt lat="4.6105610" lon="-75.7159790">
        <ele>1322.8</ele>
        <time>2022-08-13T14:23:47Z</time>
      </trkpt>
      <trkpt lat="4.6105840" lon="-75.7159450">
        <ele>1322.8</ele>
        <time>2022-08-13T14:23:48Z</time>
      </trkpt>
      <trkpt lat="4.6106070" lon="-75.7159060">
        <ele>1322.6</ele>
        <time>2022-08-13T14:23:49Z</time>
      </trkpt>
      <trkpt lat="4.6107080" lon="-75.7157080">
        <ele>1323.0</ele>
        <time>2022-08-13T14:23:53Z</time>
      </trkpt>
      <trkpt lat="4.6108870" lon="-75.7152970">
        <ele>1323.0</ele>
        <time>2022-08-13T14:24:00Z</time>
      </trkpt>
      <trkpt lat="4.6109430" lon="-75.7151530">
        <ele>1323.0</ele>
        <time>2022-08-13T14:24:03Z</time>
      </trkpt>
      <trkpt lat="4.6109650" lon="-75.7151140">
        <ele>1323.2</ele>
        <time>2022-08-13T14:24:04Z</time>
      </trkpt>
      <trkpt lat="4.6110480" lon="-75.7149350">
        <ele>1323.4</ele>
        <time>2022-08-13T14:24:10Z</time>
      </trkpt>
      <trkpt lat="4.6110560" lon="-75.7149120">
        <ele>1323.6</ele>
        <time>2022-08-13T14:24:11Z</time>
      </trkpt>
      <trkpt lat="4.6111230" lon="-75.7147740">
        <ele>1324.2</ele>
        <time>2022-08-13T14:24:17Z</time>
      </trkpt>
      <trkpt lat="4.6111350" lon="-75.7147440">
        <ele>1324.4</ele>
        <time>2022-08-13T14:24:18Z</time>
      </trkpt>
      <trkpt lat="4.6111840" lon="-75.7146180">
        <ele>1324.8</ele>
        <time>2022-08-13T14:24:23Z</time>
      </trkpt>
      <trkpt lat="4.6112350" lon="-75.7144910">
        <ele>1324.8</ele>
        <time>2022-08-13T14:24:28Z</time>
      </trkpt>
      <trkpt lat="4.6112650" lon="-75.7143980">
        <ele>1325.0</ele>
        <time>2022-08-13T14:24:31Z</time>
      </trkpt>
      <trkpt lat="4.6113290" lon="-75.7140970">
        <ele>1325.4</ele>
        <time>2022-08-13T14:24:39Z</time>
      </trkpt>
      <trkpt lat="4.6114500" lon="-75.7137820">
        <ele>1325.6</ele>
        <time>2022-08-13T14:24:46Z</time>
      </trkpt>
      <trkpt lat="4.6115670" lon="-75.7135860">
        <ele>1325.6</ele>
        <time>2022-08-13T14:24:51Z</time>
      </trkpt>
      <trkpt lat="4.6115970" lon="-75.7135450">
        <ele>1325.6</ele>
        <time>2022-08-13T14:24:52Z</time>
      </trkpt>
      <trkpt lat="4.6116160" lon="-75.7135180">
        <ele>1325.8</ele>
        <time>2022-08-13T14:24:53Z</time>
      </trkpt>
      <trkpt lat="4.6117660" lon="-75.7133190">
        <ele>1325.8</ele>
        <time>2022-08-13T14:25:00Z</time>
      </trkpt>
      <trkpt lat="4.6119540" lon="-75.7130970">
        <ele>1324.2</ele>
        <time>2022-08-13T14:25:09Z</time>
      </trkpt>
      <trkpt lat="4.6120410" lon="-75.7130390">
        <ele>1323.4</ele>
        <time>2022-08-13T14:25:12Z</time>
      </trkpt>
      <trkpt lat="4.6121860" lon="-75.7129490">
        <ele>1322.0</ele>
        <time>2022-08-13T14:25:16Z</time>
      </trkpt>
      <trkpt lat="4.6123850" lon="-75.7128540">
        <ele>1320.6</ele>
        <time>2022-08-13T14:25:20Z</time>
      </trkpt>
      <trkpt lat="4.6124320" lon="-75.7128240">
        <ele>1320.2</ele>
        <time>2022-08-13T14:25:21Z</time>
      </trkpt>
      <trkpt lat="4.6124660" lon="-75.7127950">
        <ele>1319.8</ele>
        <time>2022-08-13T14:25:22Z</time>
      </trkpt>
      <trkpt lat="4.6125040" lon="-75.7127560">
        <ele>1319.4</ele>
        <time>2022-08-13T14:25:23Z</time>
      </trkpt>
      <trkpt lat="4.6125430" lon="-75.7127050">
        <ele>1319.2</ele>
        <time>2022-08-13T14:25:24Z</time>
      </trkpt>
      <trkpt lat="4.6125830" lon="-75.7126210">
        <ele>1318.8</ele>
        <time>2022-08-13T14:25:26Z</time>
      </trkpt>
      <trkpt lat="4.6126220" lon="-75.7125170">
        <ele>1318.8</ele>
        <time>2022-08-13T14:25:28Z</time>
      </trkpt>
      <trkpt lat="4.6126440" lon="-75.7123860">
        <ele>1318.8</ele>
        <time>2022-08-13T14:25:31Z</time>
      </trkpt>
      <trkpt lat="4.6126510" lon="-75.7123380">
        <ele>1318.8</ele>
        <time>2022-08-13T14:25:32Z</time>
      </trkpt>
      <trkpt lat="4.6126990" lon="-75.7121740">
        <ele>1318.6</ele>
        <time>2022-08-13T14:25:35Z</time>
      </trkpt>
      <trkpt lat="4.6127230" lon="-75.7121090">
        <ele>1319.0</ele>
        <time>2022-08-13T14:25:36Z</time>
      </trkpt>
      <trkpt lat="4.6128540" lon="-75.7118190">
        <ele>1319.4</ele>
        <time>2022-08-13T14:25:40Z</time>
      </trkpt>
      <trkpt lat="4.6128930" lon="-75.7117470">
        <ele>1319.4</ele>
        <time>2022-08-13T14:25:41Z</time>
      </trkpt>
      <trkpt lat="4.6129320" lon="-75.7116780">
        <ele>1319.6</ele>
        <time>2022-08-13T14:25:42Z</time>
      </trkpt>
      <trkpt lat="4.6130650" lon="-75.7114960">
        <ele>1319.8</ele>
        <time>2022-08-13T14:25:45Z</time>
      </trkpt>
      <trkpt lat="4.6131400" lon="-75.7113720">
        <ele>1320.2</ele>
        <time>2022-08-13T14:25:47Z</time>
      </trkpt>
      <trkpt lat="4.6131830" lon="-75.7112850">
        <ele>1320.4</ele>
        <time>2022-08-13T14:25:49Z</time>
      </trkpt>
      <trkpt lat="4.6132670" lon="-75.7111040">
        <ele>1320.8</ele>
        <time>2022-08-13T14:25:53Z</time>
      </trkpt>
      <trkpt lat="4.6133020" lon="-75.7109970">
        <ele>1321.6</ele>
        <time>2022-08-13T14:25:55Z</time>
      </trkpt>
      <trkpt lat="4.6133240" lon="-75.7109390">
        <ele>1321.8</ele>
        <time>2022-08-13T14:25:56Z</time>
      </trkpt>
      <trkpt lat="4.6134170" lon="-75.7107550">
        <ele>1322.8</ele>
        <time>2022-08-13T14:25:59Z</time>
      </trkpt>
      <trkpt lat="4.6135830" lon="-75.7105090">
        <ele>1323.4</ele>
        <time>2022-08-13T14:26:04Z</time>
      </trkpt>
      <trkpt lat="4.6136710" lon="-75.7103700">
        <ele>1324.0</ele>
        <time>2022-08-13T14:26:07Z</time>
      </trkpt>
      <trkpt lat="4.6137010" lon="-75.7103140">
        <ele>1324.2</ele>
        <time>2022-08-13T14:26:08Z</time>
      </trkpt>
      <trkpt lat="4.6137750" lon="-75.7101500">
        <ele>1324.2</ele>
        <time>2022-08-13T14:26:12Z</time>
      </trkpt>
      <trkpt lat="4.6137860" lon="-75.7101210">
        <ele>1324.2</ele>
        <time>2022-08-13T14:26:13Z</time>
      </trkpt>
      <trkpt lat="4.6138740" lon="-75.7098850">
        <ele>1323.6</ele>
        <time>2022-08-13T14:26:20Z</time>
      </trkpt>
      <trkpt lat="4.6139380" lon="-75.7097220">
        <ele>1322.4</ele>
        <time>2022-08-13T14:26:25Z</time>
      </trkpt>
      <trkpt lat="4.6139750" lon="-75.7096510">
        <ele>1322.0</ele>
        <time>2022-08-13T14:26:27Z</time>
      </trkpt>
      <trkpt lat="4.6139890" lon="-75.7096230">
        <ele>1321.8</ele>
        <time>2022-08-13T14:26:28Z</time>
      </trkpt>
      <trkpt lat="4.6140680" lon="-75.7094880">
        <ele>1320.8</ele>
        <time>2022-08-13T14:26:32Z</time>
      </trkpt>
      <trkpt lat="4.6140900" lon="-75.7094550">
        <ele>1320.6</ele>
        <time>2022-08-13T14:26:33Z</time>
      </trkpt>
      <trkpt lat="4.6142080" lon="-75.7092920">
        <ele>1320.0</ele>
        <time>2022-08-13T14:26:37Z</time>
      </trkpt>
      <trkpt lat="4.6143050" lon="-75.7091370">
        <ele>1319.2</ele>
        <time>2022-08-13T14:26:40Z</time>
      </trkpt>
      <trkpt lat="4.6143450" lon="-75.7090170">
        <ele>1319.2</ele>
        <time>2022-08-13T14:26:42Z</time>
      </trkpt>
      <trkpt lat="4.6143000" lon="-75.7087760">
        <ele>1319.2</ele>
        <time>2022-08-13T14:26:46Z</time>
      </trkpt>
      <trkpt lat="4.6142440" lon="-75.7083730">
        <ele>1320.0</ele>
        <time>2022-08-13T14:26:52Z</time>
      </trkpt>
      <trkpt lat="4.6142040" lon="-75.7082230">
        <ele>1320.2</ele>
        <time>2022-08-13T14:26:54Z</time>
      </trkpt>
      <trkpt lat="4.6141190" lon="-75.7080170">
        <ele>1320.8</ele>
        <time>2022-08-13T14:26:57Z</time>
      </trkpt>
      <trkpt lat="4.6141000" lon="-75.7079480">
        <ele>1321.0</ele>
        <time>2022-08-13T14:26:58Z</time>
      </trkpt>
      <trkpt lat="4.6140930" lon="-75.7078670">
        <ele>1321.2</ele>
        <time>2022-08-13T14:26:59Z</time>
      </trkpt>
      <trkpt lat="4.6140940" lon="-75.7078160">
        <ele>1321.2</ele>
        <time>2022-08-13T14:27:00Z</time>
      </trkpt>
      <trkpt lat="4.6141030" lon="-75.7077420">
        <ele>1321.2</ele>
        <time>2022-08-13T14:27:01Z</time>
      </trkpt>
      <trkpt lat="4.6141260" lon="-75.7076470">
        <ele>1321.8</ele>
        <time>2022-08-13T14:27:03Z</time>
      </trkpt>
      <trkpt lat="4.6141370" lon="-75.7075890">
        <ele>1322.0</ele>
        <time>2022-08-13T14:27:04Z</time>
      </trkpt>
      <trkpt lat="4.6141430" lon="-75.7075000">
        <ele>1322.0</ele>
        <time>2022-08-13T14:27:06Z</time>
      </trkpt>
      <trkpt lat="4.6141280" lon="-75.7073940">
        <ele>1322.0</ele>
        <time>2022-08-13T14:27:09Z</time>
      </trkpt>
      <trkpt lat="4.6141070" lon="-75.7071350">
        <ele>1321.2</ele>
        <time>2022-08-13T14:27:17Z</time>
      </trkpt>
      <trkpt lat="4.6140390" lon="-75.7069390">
        <ele>1320.4</ele>
        <time>2022-08-13T14:27:24Z</time>
      </trkpt>
      <trkpt lat="4.6139710" lon="-75.7068490">
        <ele>1319.8</ele>
        <time>2022-08-13T14:27:28Z</time>
      </trkpt>
      <trkpt lat="4.6139360" lon="-75.7068090">
        <ele>1319.6</ele>
        <time>2022-08-13T14:27:30Z</time>
      </trkpt>
      <trkpt lat="4.6139250" lon="-75.7067910">
        <ele>1319.2</ele>
        <time>2022-08-13T14:27:31Z</time>
      </trkpt>
      <trkpt lat="4.6138580" lon="-75.7066540">
        <ele>1319.0</ele>
        <time>2022-08-13T14:27:37Z</time>
      </trkpt>
      <trkpt lat="4.6138320" lon="-75.7065590">
        <ele>1319.2</ele>
        <time>2022-08-13T14:27:41Z</time>
      </trkpt>
      <trkpt lat="4.6138080" lon="-75.7064560">
        <ele>1319.8</ele>
        <time>2022-08-13T14:27:45Z</time>
      </trkpt>
      <trkpt lat="4.6137770" lon="-75.7063260">
        <ele>1320.8</ele>
        <time>2022-08-13T14:27:50Z</time>
      </trkpt>
      <trkpt lat="4.6137710" lon="-75.7063050">
        <ele>1320.8</ele>
        <time>2022-08-13T14:27:51Z</time>
      </trkpt>
      <trkpt lat="4.6137470" lon="-75.7062160">
        <ele>1321.4</ele>
        <time>2022-08-13T14:27:54Z</time>
      </trkpt>
      <trkpt lat="4.6137190" lon="-75.7060660">
        <ele>1322.0</ele>
        <time>2022-08-13T14:27:59Z</time>
      </trkpt>
      <trkpt lat="4.6136960" lon="-75.7059090">
        <ele>1323.0</ele>
        <time>2022-08-13T14:28:04Z</time>
      </trkpt>
      <trkpt lat="4.6136820" lon="-75.7057720">
        <ele>1323.6</ele>
        <time>2022-08-13T14:28:08Z</time>
      </trkpt>
      <trkpt lat="4.6136750" lon="-75.7056780">
        <ele>1323.8</ele>
        <time>2022-08-13T14:28:11Z</time>
      </trkpt>
      <trkpt lat="4.6136520" lon="-75.7055020">
        <ele>1324.2</ele>
        <time>2022-08-13T14:28:16Z</time>
      </trkpt>
      <trkpt lat="4.6136460" lon="-75.7054740">
        <ele>1324.6</ele>
        <time>2022-08-13T14:28:17Z</time>
      </trkpt>
      <trkpt lat="4.6136210" lon="-75.7053070">
        <ele>1325.2</ele>
        <time>2022-08-13T14:28:22Z</time>
      </trkpt>
      <trkpt lat="4.6136250" lon="-75.7052490">
        <ele>1325.2</ele>
        <time>2022-08-13T14:28:24Z</time>
      </trkpt>
      <trkpt lat="4.6136770" lon="-75.7050300">
        <ele>1325.0</ele>
        <time>2022-08-13T14:28:31Z</time>
      </trkpt>
      <trkpt lat="4.6138610" lon="-75.7048470">
        <ele>1323.4</ele>
        <time>2022-08-13T14:28:38Z</time>
      </trkpt>
      <trkpt lat="4.6138890" lon="-75.7048190">
        <ele>1323.0</ele>
        <time>2022-08-13T14:28:39Z</time>
      </trkpt>
      <trkpt lat="4.6140600" lon="-75.7046290">
        <ele>1321.4</ele>
        <time>2022-08-13T14:28:45Z</time>
      </trkpt>
      <trkpt lat="4.6141440" lon="-75.7045380">
        <ele>1320.8</ele>
        <time>2022-08-13T14:28:48Z</time>
      </trkpt>
      <trkpt lat="4.6142530" lon="-75.7043700">
        <ele>1319.8</ele>
        <time>2022-08-13T14:28:53Z</time>
      </trkpt>
      <trkpt lat="4.6143170" lon="-75.7042720">
        <ele>1319.6</ele>
        <time>2022-08-13T14:28:56Z</time>
      </trkpt>
      <trkpt lat="4.6145200" lon="-75.7039810">
        <ele>1318.4</ele>
        <time>2022-08-13T14:29:05Z</time>
      </trkpt>
      <trkpt lat="4.6147870" lon="-75.7037190">
        <ele>1318.6</ele>
        <time>2022-08-13T14:29:14Z</time>
      </trkpt>
      <trkpt lat="4.6148260" lon="-75.7036370">
        <ele>1319.2</ele>
        <time>2022-08-13T14:29:16Z</time>
      </trkpt>
      <trkpt lat="4.6148560" lon="-75.7035540">
        <ele>1319.4</ele>
        <time>2022-08-13T14:29:18Z</time>
      </trkpt>
      <trkpt lat="4.6148790" lon="-75.7034690">
        <ele>1320.0</ele>
        <time>2022-08-13T14:29:20Z</time>
      </trkpt>
      <trkpt lat="4.6148980" lon="-75.7033840">
        <ele>1320.4</ele>
        <time>2022-08-13T14:29:22Z</time>
      </trkpt>
      <trkpt lat="4.6149160" lon="-75.7032140">
        <ele>1321.2</ele>
        <time>2022-08-13T14:29:26Z</time>
      </trkpt>
      <trkpt lat="4.6149140" lon="-75.7031330">
        <ele>1321.8</ele>
        <time>2022-08-13T14:29:28Z</time>
      </trkpt>
      <trkpt lat="4.6149120" lon="-75.7030540">
        <ele>1322.2</ele>
        <time>2022-08-13T14:29:30Z</time>
      </trkpt>
      <trkpt lat="4.6149040" lon="-75.7029480">
        <ele>1323.2</ele>
        <time>2022-08-13T14:29:33Z</time>
      </trkpt>
      <trkpt lat="4.6148970" lon="-75.7028550">
        <ele>1324.0</ele>
        <time>2022-08-13T14:29:36Z</time>
      </trkpt>
      <trkpt lat="4.6148930" lon="-75.7028260">
        <ele>1324.4</ele>
        <time>2022-08-13T14:29:37Z</time>
      </trkpt>
      <trkpt lat="4.6148770" lon="-75.7027230">
        <ele>1325.2</ele>
        <time>2022-08-13T14:29:41Z</time>
      </trkpt>
      <trkpt lat="4.6148730" lon="-75.7027010">
        <ele>1325.4</ele>
        <time>2022-08-13T14:29:42Z</time>
      </trkpt>
      <trkpt lat="4.6148600" lon="-75.7026310">
        <ele>1326.0</ele>
        <time>2022-08-13T14:29:45Z</time>
      </trkpt>
      <trkpt lat="4.6148490" lon="-75.7025560">
        <ele>1326.8</ele>
        <time>2022-08-13T14:29:48Z</time>
      </trkpt>
      <trkpt lat="4.6148450" lon="-75.7025320">
        <ele>1327.0</ele>
        <time>2022-08-13T14:29:49Z</time>
      </trkpt>
      <trkpt lat="4.6148210" lon="-75.7024320">
        <ele>1327.8</ele>
        <time>2022-08-13T14:29:53Z</time>
      </trkpt>
      <trkpt lat="4.6147470" lon="-75.7022870">
        <ele>1328.6</ele>
        <time>2022-08-13T14:29:58Z</time>
      </trkpt>
      <trkpt lat="4.6146060" lon="-75.7020660">
        <ele>1329.0</ele>
        <time>2022-08-13T14:30:03Z</time>
      </trkpt>
      <trkpt lat="4.6145410" lon="-75.7019870">
        <ele>1329.0</ele>
        <time>2022-08-13T14:30:05Z</time>
      </trkpt>
      <trkpt lat="4.6145060" lon="-75.7019630">
        <ele>1329.0</ele>
        <time>2022-08-13T14:30:06Z</time>
      </trkpt>
      <trkpt lat="4.6144680" lon="-75.7019510">
        <ele>1329.2</ele>
        <time>2022-08-13T14:30:07Z</time>
      </trkpt>
      <trkpt lat="4.6143950" lon="-75.7019550">
        <ele>1329.2</ele>
        <time>2022-08-13T14:30:09Z</time>
      </trkpt>
      <trkpt lat="4.6142980" lon="-75.7019870">
        <ele>1329.0</ele>
        <time>2022-08-13T14:30:12Z</time>
      </trkpt>
      <trkpt lat="4.6142680" lon="-75.7019960">
        <ele>1329.0</ele>
        <time>2022-08-13T14:30:13Z</time>
      </trkpt>
      <trkpt lat="4.6141880" lon="-75.7020510">
        <ele>1328.0</ele>
        <time>2022-08-13T14:30:16Z</time>
      </trkpt>
      <trkpt lat="4.6140740" lon="-75.7021260">
        <ele>1327.0</ele>
        <time>2022-08-13T14:30:20Z</time>
      </trkpt>
      <trkpt lat="4.6139860" lon="-75.7021760">
        <ele>1326.2</ele>
        <time>2022-08-13T14:30:23Z</time>
      </trkpt>
      <trkpt lat="4.6139220" lon="-75.7022250">
        <ele>1325.8</ele>
        <time>2022-08-13T14:30:25Z</time>
      </trkpt>
      <trkpt lat="4.6138000" lon="-75.7023130">
        <ele>1325.2</ele>
        <time>2022-08-13T14:30:28Z</time>
      </trkpt>
      <trkpt lat="4.6135950" lon="-75.7024880">
        <ele>1324.2</ele>
        <time>2022-08-13T14:30:32Z</time>
      </trkpt>
      <trkpt lat="4.6135400" lon="-75.7025490">
        <ele>1323.8</ele>
        <time>2022-08-13T14:30:33Z</time>
      </trkpt>
      <trkpt lat="4.6134410" lon="-75.7026760">
        <ele>1323.2</ele>
        <time>2022-08-13T14:30:35Z</time>
      </trkpt>
      <trkpt lat="4.6133090" lon="-75.7028780">
        <ele>1322.6</ele>
        <time>2022-08-13T14:30:38Z</time>
      </trkpt>
      <trkpt lat="4.6130060" lon="-75.7031700">
        <ele>1321.6</ele>
        <time>2022-08-13T14:30:43Z</time>
      </trkpt>
      <trkpt lat="4.6128720" lon="-75.7033110">
        <ele>1321.4</ele>
        <time>2022-08-13T14:30:45Z</time>
      </trkpt>
      <trkpt lat="4.6127230" lon="-75.7034670">
        <ele>1320.8</ele>
        <time>2022-08-13T14:30:47Z</time>
      </trkpt>
      <trkpt lat="4.6126370" lon="-75.7035440">
        <ele>1320.8</ele>
        <time>2022-08-13T14:30:48Z</time>
      </trkpt>
      <trkpt lat="4.6124540" lon="-75.7036800">
        <ele>1320.8</ele>
        <time>2022-08-13T14:30:50Z</time>
      </trkpt>
      <trkpt lat="4.6123590" lon="-75.7037270">
        <ele>1320.6</ele>
        <time>2022-08-13T14:30:51Z</time>
      </trkpt>
      <trkpt lat="4.6121580" lon="-75.7037780">
        <ele>1320.6</ele>
        <time>2022-08-13T14:30:53Z</time>
      </trkpt>
      <trkpt lat="4.6120630" lon="-75.7037740">
        <ele>1320.2</ele>
        <time>2022-08-13T14:30:54Z</time>
      </trkpt>
      <trkpt lat="4.6119760" lon="-75.7037460">
        <ele>1320.0</ele>
        <time>2022-08-13T14:30:55Z</time>
      </trkpt>
      <trkpt lat="4.6118970" lon="-75.7036970">
        <ele>1319.8</ele>
        <time>2022-08-13T14:30:56Z</time>
      </trkpt>
      <trkpt lat="4.6118300" lon="-75.7036300">
        <ele>1319.8</ele>
        <time>2022-08-13T14:30:57Z</time>
      </trkpt>
      <trkpt lat="4.6117120" lon="-75.7034890">
        <ele>1319.8</ele>
        <time>2022-08-13T14:30:59Z</time>
      </trkpt>
      <trkpt lat="4.6115730" lon="-75.7033840">
        <ele>1319.6</ele>
        <time>2022-08-13T14:31:01Z</time>
      </trkpt>
      <trkpt lat="4.6114970" lon="-75.7033470">
        <ele>1319.6</ele>
        <time>2022-08-13T14:31:02Z</time>
      </trkpt>
      <trkpt lat="4.6114170" lon="-75.7033300">
        <ele>1319.2</ele>
        <time>2022-08-13T14:31:03Z</time>
      </trkpt>
      <trkpt lat="4.6112570" lon="-75.7033340">
        <ele>1319.2</ele>
        <time>2022-08-13T14:31:05Z</time>
      </trkpt>
      <trkpt lat="4.6111010" lon="-75.7033730">
        <ele>1319.2</ele>
        <time>2022-08-13T14:31:07Z</time>
      </trkpt>
      <trkpt lat="4.6110280" lon="-75.7034080">
        <ele>1319.2</ele>
        <time>2022-08-13T14:31:08Z</time>
      </trkpt>
      <trkpt lat="4.6109610" lon="-75.7034530">
        <ele>1319.2</ele>
        <time>2022-08-13T14:31:09Z</time>
      </trkpt>
      <trkpt lat="4.6107800" lon="-75.7036190">
        <ele>1319.0</ele>
        <time>2022-08-13T14:31:12Z</time>
      </trkpt>
      <trkpt lat="4.6106110" lon="-75.7038060">
        <ele>1319.0</ele>
        <time>2022-08-13T14:31:15Z</time>
      </trkpt>
      <trkpt lat="4.6104180" lon="-75.7040300">
        <ele>1319.0</ele>
        <time>2022-08-13T14:31:19Z</time>
      </trkpt>
      <trkpt lat="4.6101250" lon="-75.7043980">
        <ele>1319.8</ele>
        <time>2022-08-13T14:31:25Z</time>
      </trkpt>
      <trkpt lat="4.6098440" lon="-75.7046730">
        <ele>1321.0</ele>
        <time>2022-08-13T14:31:29Z</time>
      </trkpt>
      <trkpt lat="4.6097650" lon="-75.7047330">
        <ele>1321.4</ele>
        <time>2022-08-13T14:31:30Z</time>
      </trkpt>
      <trkpt lat="4.6096110" lon="-75.7048410">
        <ele>1322.2</ele>
        <time>2022-08-13T14:31:32Z</time>
      </trkpt>
      <trkpt lat="4.6094020" lon="-75.7049820">
        <ele>1323.0</ele>
        <time>2022-08-13T14:31:35Z</time>
      </trkpt>
      <trkpt lat="4.6093390" lon="-75.7050200">
        <ele>1323.0</ele>
        <time>2022-08-13T14:31:36Z</time>
      </trkpt>
      <trkpt lat="4.6092740" lon="-75.7050500">
        <ele>1323.4</ele>
        <time>2022-08-13T14:31:37Z</time>
      </trkpt>
      <trkpt lat="4.6091340" lon="-75.7050870">
        <ele>1324.2</ele>
        <time>2022-08-13T14:31:39Z</time>
      </trkpt>
      <trkpt lat="4.6090590" lon="-75.7050920">
        <ele>1324.8</ele>
        <time>2022-08-13T14:31:40Z</time>
      </trkpt>
      <trkpt lat="4.6088990" lon="-75.7051050">
        <ele>1325.4</ele>
        <time>2022-08-13T14:31:42Z</time>
      </trkpt>
      <trkpt lat="4.6086440" lon="-75.7051330">
        <ele>1326.8</ele>
        <time>2022-08-13T14:31:45Z</time>
      </trkpt>
      <trkpt lat="4.6085590" lon="-75.7051420">
        <ele>1327.2</ele>
        <time>2022-08-13T14:31:46Z</time>
      </trkpt>
      <trkpt lat="4.6084740" lon="-75.7051560">
        <ele>1327.6</ele>
        <time>2022-08-13T14:31:47Z</time>
      </trkpt>
      <trkpt lat="4.6083920" lon="-75.7051800">
        <ele>1328.0</ele>
        <time>2022-08-13T14:31:48Z</time>
      </trkpt>
      <trkpt lat="4.6083120" lon="-75.7052110">
        <ele>1328.0</ele>
        <time>2022-08-13T14:31:49Z</time>
      </trkpt>
      <trkpt lat="4.6082330" lon="-75.7052490">
        <ele>1328.4</ele>
        <time>2022-08-13T14:31:50Z</time>
      </trkpt>
      <trkpt lat="4.6080840" lon="-75.7053240">
        <ele>1329.2</ele>
        <time>2022-08-13T14:31:52Z</time>
      </trkpt>
      <trkpt lat="4.6078780" lon="-75.7054300">
        <ele>1330.0</ele>
        <time>2022-08-13T14:31:55Z</time>
      </trkpt>
      <trkpt lat="4.6077450" lon="-75.7055100">
        <ele>1330.4</ele>
        <time>2022-08-13T14:31:57Z</time>
      </trkpt>
      <trkpt lat="4.6076370" lon="-75.7056150">
        <ele>1330.8</ele>
        <time>2022-08-13T14:31:59Z</time>
      </trkpt>
      <trkpt lat="4.6076020" lon="-75.7056790">
        <ele>1331.0</ele>
        <time>2022-08-13T14:32:00Z</time>
      </trkpt>
      <trkpt lat="4.6075780" lon="-75.7057490">
        <ele>1331.4</ele>
        <time>2022-08-13T14:32:01Z</time>
      </trkpt>
      <trkpt lat="4.6075390" lon="-75.7059680">
        <ele>1332.2</ele>
        <time>2022-08-13T14:32:04Z</time>
      </trkpt>
      <trkpt lat="4.6075030" lon="-75.7062820">
        <ele>1333.4</ele>
        <time>2022-08-13T14:32:08Z</time>
      </trkpt>
      <trkpt lat="4.6074910" lon="-75.7065390">
        <ele>1334.2</ele>
        <time>2022-08-13T14:32:11Z</time>
      </trkpt>
      <trkpt lat="4.6074960" lon="-75.7066260">
        <ele>1334.6</ele>
        <time>2022-08-13T14:32:12Z</time>
      </trkpt>
      <trkpt lat="4.6075430" lon="-75.7068810">
        <ele>1335.2</ele>
        <time>2022-08-13T14:32:15Z</time>
      </trkpt>
      <trkpt lat="4.6075670" lon="-75.7071640">
        <ele>1336.2</ele>
        <time>2022-08-13T14:32:19Z</time>
      </trkpt>
      <trkpt lat="4.6075530" lon="-75.7073080">
        <ele>1336.6</ele>
        <time>2022-08-13T14:32:21Z</time>
      </trkpt>
      <trkpt lat="4.6075210" lon="-75.7074560">
        <ele>1336.8</ele>
        <time>2022-08-13T14:32:23Z</time>
      </trkpt>
      <trkpt lat="4.6074930" lon="-75.7075310">
        <ele>1336.8</ele>
        <time>2022-08-13T14:32:24Z</time>
      </trkpt>
      <trkpt lat="4.6074570" lon="-75.7076060">
        <ele>1337.0</ele>
        <time>2022-08-13T14:32:25Z</time>
      </trkpt>
      <trkpt lat="4.6073630" lon="-75.7077440">
        <ele>1337.4</ele>
        <time>2022-08-13T14:32:27Z</time>
      </trkpt>
      <trkpt lat="4.6073050" lon="-75.7078080">
        <ele>1337.8</ele>
        <time>2022-08-13T14:32:28Z</time>
      </trkpt>
      <trkpt lat="4.6070630" lon="-75.7080470">
        <ele>1339.0</ele>
        <time>2022-08-13T14:32:32Z</time>
      </trkpt>
      <trkpt lat="4.6068900" lon="-75.7082210">
        <ele>1340.0</ele>
        <time>2022-08-13T14:32:35Z</time>
      </trkpt>
      <trkpt lat="4.6068320" lon="-75.7082730">
        <ele>1340.2</ele>
        <time>2022-08-13T14:32:36Z</time>
      </trkpt>
      <trkpt lat="4.6066560" lon="-75.7084410">
        <ele>1340.8</ele>
        <time>2022-08-13T14:32:39Z</time>
      </trkpt>
      <trkpt lat="4.6064290" lon="-75.7086260">
        <ele>1341.0</ele>
        <time>2022-08-13T14:32:43Z</time>
      </trkpt>
      <trkpt lat="4.6061150" lon="-75.7088810">
        <ele>1340.8</ele>
        <time>2022-08-13T14:32:49Z</time>
      </trkpt>
      <trkpt lat="4.6058840" lon="-75.7091540">
        <ele>1340.0</ele>
        <time>2022-08-13T14:32:53Z</time>
      </trkpt>
      <trkpt lat="4.6058350" lon="-75.7092360">
        <ele>1340.0</ele>
        <time>2022-08-13T14:32:54Z</time>
      </trkpt>
      <trkpt lat="4.6057210" lon="-75.7094960">
        <ele>1339.4</ele>
        <time>2022-08-13T14:32:57Z</time>
      </trkpt>
      <trkpt lat="4.6056900" lon="-75.7095810">
        <ele>1339.2</ele>
        <time>2022-08-13T14:32:58Z</time>
      </trkpt>
      <trkpt lat="4.6054820" lon="-75.7101730">
        <ele>1337.8</ele>
        <time>2022-08-13T14:33:05Z</time>
      </trkpt>
      <trkpt lat="4.6054530" lon="-75.7102400">
        <ele>1337.8</ele>
        <time>2022-08-13T14:33:06Z</time>
      </trkpt>
      <trkpt lat="4.6052210" lon="-75.7107350">
        <ele>1337.8</ele>
        <time>2022-08-13T14:33:12Z</time>
      </trkpt>
      <trkpt lat="4.6049790" lon="-75.7112450">
        <ele>1337.8</ele>
        <time>2022-08-13T14:33:18Z</time>
      </trkpt>
      <trkpt lat="4.6048090" lon="-75.7116380">
        <ele>1337.6</ele>
        <time>2022-08-13T14:33:23Z</time>
      </trkpt>
      <trkpt lat="4.6047400" lon="-75.7118440">
        <ele>1338.6</ele>
        <time>2022-08-13T14:33:26Z</time>
      </trkpt>
      <trkpt lat="4.6046260" lon="-75.7120850">
        <ele>1339.2</ele>
        <time>2022-08-13T14:33:29Z</time>
      </trkpt>
      <trkpt lat="4.6043720" lon="-75.7126020">
        <ele>1339.4</ele>
        <time>2022-08-13T14:33:35Z</time>
      </trkpt>
      <trkpt lat="4.6043280" lon="-75.7126830">
        <ele>1339.4</ele>
        <time>2022-08-13T14:33:36Z</time>
      </trkpt>
      <trkpt lat="4.6040190" lon="-75.7132140">
        <ele>1338.8</ele>
        <time>2022-08-13T14:33:43Z</time>
      </trkpt>
      <trkpt lat="4.6039360" lon="-75.7133520">
        <ele>1338.8</ele>
        <time>2022-08-13T14:33:45Z</time>
      </trkpt>
      <trkpt lat="4.6036530" lon="-75.7137130">
        <ele>1338.0</ele>
        <time>2022-08-13T14:33:50Z</time>
      </trkpt>
      <trkpt lat="4.6033060" lon="-75.7141150">
        <ele>1337.8</ele>
        <time>2022-08-13T14:33:55Z</time>
      </trkpt>
      <trkpt lat="4.6030830" lon="-75.7143560">
        <ele>1337.8</ele>
        <time>2022-08-13T14:33:58Z</time>
      </trkpt>
      <trkpt lat="4.6029990" lon="-75.7144150">
        <ele>1337.8</ele>
        <time>2022-08-13T14:33:59Z</time>
      </trkpt>
      <trkpt lat="4.6029280" lon="-75.7144510">
        <ele>1337.8</ele>
        <time>2022-08-13T14:34:00Z</time>
      </trkpt>
      <trkpt lat="4.6027460" lon="-75.7144820">
        <ele>1337.8</ele>
        <time>2022-08-13T14:34:02Z</time>
      </trkpt>
      <trkpt lat="4.6024370" lon="-75.7144870">
        <ele>1338.6</ele>
        <time>2022-08-13T14:34:06Z</time>
      </trkpt>
      <trkpt lat="4.6023840" lon="-75.7144900">
        <ele>1339.0</ele>
        <time>2022-08-13T14:34:07Z</time>
      </trkpt>
      <trkpt lat="4.6021950" lon="-75.7145160">
        <ele>1340.0</ele>
        <time>2022-08-13T14:34:10Z</time>
      </trkpt>
      <trkpt lat="4.6021320" lon="-75.7145330">
        <ele>1340.4</ele>
        <time>2022-08-13T14:34:11Z</time>
      </trkpt>
      <trkpt lat="4.6020170" lon="-75.7145930">
        <ele>1341.0</ele>
        <time>2022-08-13T14:34:13Z</time>
      </trkpt>
      <trkpt lat="4.6019160" lon="-75.7146700">
        <ele>1341.4</ele>
        <time>2022-08-13T14:34:15Z</time>
      </trkpt>
      <trkpt lat="4.6018730" lon="-75.7147110">
        <ele>1341.8</ele>
        <time>2022-08-13T14:34:16Z</time>
      </trkpt>
      <trkpt lat="4.6018400" lon="-75.7147560">
        <ele>1341.8</ele>
        <time>2022-08-13T14:34:17Z</time>
      </trkpt>
      <trkpt lat="4.6017860" lon="-75.7148540">
        <ele>1342.6</ele>
        <time>2022-08-13T14:34:19Z</time>
      </trkpt>
      <trkpt lat="4.6017640" lon="-75.7149000">
        <ele>1342.8</ele>
        <time>2022-08-13T14:34:20Z</time>
      </trkpt>
      <trkpt lat="4.6017110" lon="-75.7150170">
        <ele>1344.0</ele>
        <time>2022-08-13T14:34:23Z</time>
      </trkpt>
      <trkpt lat="4.6016980" lon="-75.7150580">
        <ele>1344.4</ele>
        <time>2022-08-13T14:34:24Z</time>
      </trkpt>
      <trkpt lat="4.6016690" lon="-75.7151480">
        <ele>1345.0</ele>
        <time>2022-08-13T14:34:26Z</time>
      </trkpt>
      <trkpt lat="4.6016230" lon="-75.7153230">
        <ele>1345.8</ele>
        <time>2022-08-13T14:34:29Z</time>
      </trkpt>
      <trkpt lat="4.6016070" lon="-75.7153890">
        <ele>1346.2</ele>
        <time>2022-08-13T14:34:30Z</time>
      </trkpt>
      <trkpt lat="4.6015400" lon="-75.7156970">
        <ele>1347.4</ele>
        <time>2022-08-13T14:34:34Z</time>
      </trkpt>
      <trkpt lat="4.6014020" lon="-75.7161680">
        <ele>1348.2</ele>
        <time>2022-08-13T14:34:39Z</time>
      </trkpt>
      <trkpt lat="4.6013380" lon="-75.7164590">
        <ele>1348.2</ele>
        <time>2022-08-13T14:34:42Z</time>
      </trkpt>
      <trkpt lat="4.6012930" lon="-75.7167510">
        <ele>1348.8</ele>
        <time>2022-08-13T14:34:45Z</time>
      </trkpt>
      <trkpt lat="4.6013170" lon="-75.7169460">
        <ele>1349.2</ele>
        <time>2022-08-13T14:34:47Z</time>
      </trkpt>
      <trkpt lat="4.6013370" lon="-75.7170380">
        <ele>1349.4</ele>
        <time>2022-08-13T14:34:48Z</time>
      </trkpt>
      <trkpt lat="4.6014180" lon="-75.7174050">
        <ele>1349.8</ele>
        <time>2022-08-13T14:34:52Z</time>
      </trkpt>
      <trkpt lat="4.6014250" lon="-75.7175860">
        <ele>1350.0</ele>
        <time>2022-08-13T14:34:54Z</time>
      </trkpt>
      <trkpt lat="4.6014160" lon="-75.7176770">
        <ele>1350.2</ele>
        <time>2022-08-13T14:34:55Z</time>
      </trkpt>
      <trkpt lat="4.6013650" lon="-75.7178500">
        <ele>1350.6</ele>
        <time>2022-08-13T14:34:57Z</time>
      </trkpt>
      <trkpt lat="4.6012620" lon="-75.7179930">
        <ele>1350.8</ele>
        <time>2022-08-13T14:34:59Z</time>
      </trkpt>
      <trkpt lat="4.6012060" lon="-75.7180560">
        <ele>1351.0</ele>
        <time>2022-08-13T14:35:00Z</time>
      </trkpt>
      <trkpt lat="4.6009100" lon="-75.7183490">
        <ele>1351.4</ele>
        <time>2022-08-13T14:35:05Z</time>
      </trkpt>
      <trkpt lat="4.6004860" lon="-75.7187400">
        <ele>1352.2</ele>
        <time>2022-08-13T14:35:11Z</time>
      </trkpt>
      <trkpt lat="4.6003330" lon="-75.7188620">
        <ele>1352.4</ele>
        <time>2022-08-13T14:35:13Z</time>
      </trkpt>
      <trkpt lat="4.6001700" lon="-75.7189390">
        <ele>1352.6</ele>
        <time>2022-08-13T14:35:15Z</time>
      </trkpt>
      <trkpt lat="4.5996550" lon="-75.7191260">
        <ele>1352.6</ele>
        <time>2022-08-13T14:35:20Z</time>
      </trkpt>
      <trkpt lat="4.5994630" lon="-75.7192230">
        <ele>1352.8</ele>
        <time>2022-08-13T14:35:22Z</time>
      </trkpt>
      <trkpt lat="4.5993860" lon="-75.7192850">
        <ele>1352.8</ele>
        <time>2022-08-13T14:35:23Z</time>
      </trkpt>
      <trkpt lat="4.5993190" lon="-75.7193590">
        <ele>1352.8</ele>
        <time>2022-08-13T14:35:24Z</time>
      </trkpt>
      <trkpt lat="4.5992320" lon="-75.7195380">
        <ele>1353.0</ele>
        <time>2022-08-13T14:35:26Z</time>
      </trkpt>
      <trkpt lat="4.5991210" lon="-75.7199460">
        <ele>1353.2</ele>
        <time>2022-08-13T14:35:31Z</time>
      </trkpt>
      <trkpt lat="4.5990760" lon="-75.7200440">
        <ele>1353.4</ele>
        <time>2022-08-13T14:35:32Z</time>
      </trkpt>
      <trkpt lat="4.5990310" lon="-75.7201040">
        <ele>1353.4</ele>
        <time>2022-08-13T14:35:33Z</time>
      </trkpt>
      <trkpt lat="4.5988990" lon="-75.7202480">
        <ele>1353.6</ele>
        <time>2022-08-13T14:35:35Z</time>
      </trkpt>
      <trkpt lat="4.5988500" lon="-75.7202920">
        <ele>1353.8</ele>
        <time>2022-08-13T14:35:36Z</time>
      </trkpt>
      <trkpt lat="4.5987810" lon="-75.7203600">
        <ele>1353.8</ele>
        <time>2022-08-13T14:35:37Z</time>
      </trkpt>
      <trkpt lat="4.5986870" lon="-75.7204770">
        <ele>1353.8</ele>
        <time>2022-08-13T14:35:39Z</time>
      </trkpt>
      <trkpt lat="4.5986400" lon="-75.7205470">
        <ele>1354.0</ele>
        <time>2022-08-13T14:35:40Z</time>
      </trkpt>
      <trkpt lat="4.5984600" lon="-75.7208020">
        <ele>1354.2</ele>
        <time>2022-08-13T14:35:44Z</time>
      </trkpt>
      <trkpt lat="4.5984100" lon="-75.7208570">
        <ele>1354.4</ele>
        <time>2022-08-13T14:35:45Z</time>
      </trkpt>
      <trkpt lat="4.5983580" lon="-75.7209040">
        <ele>1354.4</ele>
        <time>2022-08-13T14:35:46Z</time>
      </trkpt>
      <trkpt lat="4.5981880" lon="-75.7210180">
        <ele>1354.8</ele>
        <time>2022-08-13T14:35:49Z</time>
      </trkpt>
      <trkpt lat="4.5979560" lon="-75.7211460">
        <ele>1355.2</ele>
        <time>2022-08-13T14:35:53Z</time>
      </trkpt>
      <trkpt lat="4.5978890" lon="-75.7211680">
        <ele>1355.4</ele>
        <time>2022-08-13T14:35:54Z</time>
      </trkpt>
      <trkpt lat="4.5978200" lon="-75.7211800">
        <ele>1355.6</ele>
        <time>2022-08-13T14:35:55Z</time>
      </trkpt>
      <trkpt lat="4.5975350" lon="-75.7212140">
        <ele>1356.0</ele>
        <time>2022-08-13T14:35:59Z</time>
      </trkpt>
      <trkpt lat="4.5974040" lon="-75.7212370">
        <ele>1356.0</ele>
        <time>2022-08-13T14:36:01Z</time>
      </trkpt>
      <trkpt lat="4.5971380" lon="-75.7212450">
        <ele>1356.4</ele>
        <time>2022-08-13T14:36:05Z</time>
      </trkpt>
      <trkpt lat="4.5970160" lon="-75.7212390">
        <ele>1356.6</ele>
        <time>2022-08-13T14:36:07Z</time>
      </trkpt>
      <trkpt lat="4.5967820" lon="-75.7212010">
        <ele>1357.0</ele>
        <time>2022-08-13T14:36:11Z</time>
      </trkpt>
      <trkpt lat="4.5965790" lon="-75.7211720">
        <ele>1357.2</ele>
        <time>2022-08-13T14:36:15Z</time>
      </trkpt>
      <trkpt lat="4.5964700" lon="-75.7211620">
        <ele>1357.6</ele>
        <time>2022-08-13T14:36:17Z</time>
      </trkpt>
      <trkpt lat="4.5962890" lon="-75.7211410">
        <ele>1357.8</ele>
        <time>2022-08-13T14:36:20Z</time>
      </trkpt>
      <trkpt lat="4.5961670" lon="-75.7211300">
        <ele>1358.2</ele>
        <time>2022-08-13T14:36:22Z</time>
      </trkpt>
      <trkpt lat="4.5958530" lon="-75.7211460">
        <ele>1358.8</ele>
        <time>2022-08-13T14:36:27Z</time>
      </trkpt>
      <trkpt lat="4.5957950" lon="-75.7211640">
        <ele>1359.0</ele>
        <time>2022-08-13T14:36:28Z</time>
      </trkpt>
      <trkpt lat="4.5956830" lon="-75.7212150">
        <ele>1359.4</ele>
        <time>2022-08-13T14:36:30Z</time>
      </trkpt>
      <trkpt lat="4.5955760" lon="-75.7212950">
        <ele>1359.8</ele>
        <time>2022-08-13T14:36:32Z</time>
      </trkpt>
      <trkpt lat="4.5954850" lon="-75.7213960">
        <ele>1360.0</ele>
        <time>2022-08-13T14:36:34Z</time>
      </trkpt>
      <trkpt lat="4.5953620" lon="-75.7215680">
        <ele>1360.2</ele>
        <time>2022-08-13T14:36:37Z</time>
      </trkpt>
      <trkpt lat="4.5951390" lon="-75.7220060">
        <ele>1360.2</ele>
        <time>2022-08-13T14:36:44Z</time>
      </trkpt>
      <trkpt lat="4.5948860" lon="-75.7223930">
        <ele>1358.8</ele>
        <time>2022-08-13T14:36:51Z</time>
      </trkpt>
      <trkpt lat="4.5948010" lon="-75.7224960">
        <ele>1357.8</ele>
        <time>2022-08-13T14:36:53Z</time>
      </trkpt>
      <trkpt lat="4.5946780" lon="-75.7226370">
        <ele>1356.6</ele>
        <time>2022-08-13T14:36:56Z</time>
      </trkpt>
      <trkpt lat="4.5946400" lon="-75.7226850">
        <ele>1356.0</ele>
        <time>2022-08-13T14:36:57Z</time>
      </trkpt>
      <trkpt lat="4.5945210" lon="-75.7228300">
        <ele>1355.4</ele>
        <time>2022-08-13T14:37:00Z</time>
      </trkpt>
      <trkpt lat="4.5943980" lon="-75.7229540">
        <ele>1354.8</ele>
        <time>2022-08-13T14:37:03Z</time>
      </trkpt>
      <trkpt lat="4.5943540" lon="-75.7229950">
        <ele>1354.4</ele>
        <time>2022-08-13T14:37:04Z</time>
      </trkpt>
      <trkpt lat="4.5940980" lon="-75.7232880">
        <ele>1353.6</ele>
        <time>2022-08-13T14:37:10Z</time>
      </trkpt>
      <trkpt lat="4.5940540" lon="-75.7233470">
        <ele>1353.6</ele>
        <time>2022-08-13T14:37:11Z</time>
      </trkpt>
      <trkpt lat="4.5938970" lon="-75.7236250">
        <ele>1353.4</ele>
        <time>2022-08-13T14:37:15Z</time>
      </trkpt>
      <trkpt lat="4.5937910" lon="-75.7239390">
        <ele>1353.4</ele>
        <time>2022-08-13T14:37:19Z</time>
      </trkpt>
      <trkpt lat="4.5937010" lon="-75.7242230">
        <ele>1353.4</ele>
        <time>2022-08-13T14:37:23Z</time>
      </trkpt>
      <trkpt lat="4.5936880" lon="-75.7242940">
        <ele>1353.4</ele>
        <time>2022-08-13T14:37:24Z</time>
      </trkpt>
      <trkpt lat="4.5936790" lon="-75.7243640">
        <ele>1353.4</ele>
        <time>2022-08-13T14:37:25Z</time>
      </trkpt>
      <trkpt lat="4.5936970" lon="-75.7245650">
        <ele>1353.8</ele>
        <time>2022-08-13T14:37:28Z</time>
      </trkpt>
      <trkpt lat="4.5937240" lon="-75.7247600">
        <ele>1354.8</ele>
        <time>2022-08-13T14:37:31Z</time>
      </trkpt>
      <trkpt lat="4.5937400" lon="-75.7248230">
        <ele>1355.0</ele>
        <time>2022-08-13T14:37:32Z</time>
      </trkpt>
      <trkpt lat="4.5937840" lon="-75.7249440">
        <ele>1355.2</ele>
        <time>2022-08-13T14:37:34Z</time>
      </trkpt>
      <trkpt lat="4.5938370" lon="-75.7250590">
        <ele>1355.4</ele>
        <time>2022-08-13T14:37:36Z</time>
      </trkpt>
      <trkpt lat="4.5939700" lon="-75.7252530">
        <ele>1356.0</ele>
        <time>2022-08-13T14:37:40Z</time>
      </trkpt>
      <trkpt lat="4.5940990" lon="-75.7254800">
        <ele>1356.8</ele>
        <time>2022-08-13T14:37:45Z</time>
      </trkpt>
      <trkpt lat="4.5941250" lon="-75.7255340">
        <ele>1356.8</ele>
        <time>2022-08-13T14:37:46Z</time>
      </trkpt>
      <trkpt lat="4.5941790" lon="-75.7257180">
        <ele>1357.0</ele>
        <time>2022-08-13T14:37:49Z</time>
      </trkpt>
      <trkpt lat="4.5941870" lon="-75.7257820">
        <ele>1357.2</ele>
        <time>2022-08-13T14:37:50Z</time>
      </trkpt>
      <trkpt lat="4.5941990" lon="-75.7259020">
        <ele>1357.4</ele>
        <time>2022-08-13T14:37:52Z</time>
      </trkpt>
      <trkpt lat="4.5941970" lon="-75.7259650">
        <ele>1357.4</ele>
        <time>2022-08-13T14:37:53Z</time>
      </trkpt>
      <trkpt lat="4.5941750" lon="-75.7260900">
        <ele>1357.4</ele>
        <time>2022-08-13T14:37:55Z</time>
      </trkpt>
      <trkpt lat="4.5940500" lon="-75.7264980">
        <ele>1358.4</ele>
        <time>2022-08-13T14:38:01Z</time>
      </trkpt>
      <trkpt lat="4.5940010" lon="-75.7266420">
        <ele>1358.6</ele>
        <time>2022-08-13T14:38:03Z</time>
      </trkpt>
      <trkpt lat="4.5938660" lon="-75.7269480">
        <ele>1358.8</ele>
        <time>2022-08-13T14:38:08Z</time>
      </trkpt>
      <trkpt lat="4.5936290" lon="-75.7272940">
        <ele>1359.0</ele>
        <time>2022-08-13T14:38:15Z</time>
      </trkpt>
      <trkpt lat="4.5933380" lon="-75.7276660">
        <ele>1359.2</ele>
        <time>2022-08-13T14:38:22Z</time>
      </trkpt>
      <trkpt lat="4.5932390" lon="-75.7277870">
        <ele>1359.0</ele>
        <time>2022-08-13T14:38:24Z</time>
      </trkpt>
      <trkpt lat="4.5929970" lon="-75.7280180">
        <ele>1358.6</ele>
        <time>2022-08-13T14:38:28Z</time>
      </trkpt>
      <trkpt lat="4.5927240" lon="-75.7282260">
        <ele>1358.0</ele>
        <time>2022-08-13T14:38:32Z</time>
      </trkpt>
      <trkpt lat="4.5926570" lon="-75.7282820">
        <ele>1357.8</ele>
        <time>2022-08-13T14:38:33Z</time>
      </trkpt>
      <trkpt lat="4.5926020" lon="-75.7283410">
        <ele>1357.4</ele>
        <time>2022-08-13T14:38:34Z</time>
      </trkpt>
      <trkpt lat="4.5925590" lon="-75.7284050">
        <ele>1357.0</ele>
        <time>2022-08-13T14:38:35Z</time>
      </trkpt>
      <trkpt lat="4.5925290" lon="-75.7284700">
        <ele>1356.8</ele>
        <time>2022-08-13T14:38:36Z</time>
      </trkpt>
      <trkpt lat="4.5924900" lon="-75.7286030">
        <ele>1355.6</ele>
        <time>2022-08-13T14:38:38Z</time>
      </trkpt>
      <trkpt lat="4.5924520" lon="-75.7287890">
        <ele>1355.0</ele>
        <time>2022-08-13T14:38:41Z</time>
      </trkpt>
      <trkpt lat="4.5924370" lon="-75.7288440">
        <ele>1354.4</ele>
        <time>2022-08-13T14:38:42Z</time>
      </trkpt>
      <trkpt lat="4.5924020" lon="-75.7289450">
        <ele>1353.2</ele>
        <time>2022-08-13T14:38:44Z</time>
      </trkpt>
      <trkpt lat="4.5923530" lon="-75.7290420">
        <ele>1352.6</ele>
        <time>2022-08-13T14:38:46Z</time>
      </trkpt>
      <trkpt lat="4.5922740" lon="-75.7291900">
        <ele>1352.0</ele>
        <time>2022-08-13T14:38:49Z</time>
      </trkpt>
      <trkpt lat="4.5921860" lon="-75.7293480">
        <ele>1350.8</ele>
        <time>2022-08-13T14:38:52Z</time>
      </trkpt>
      <trkpt lat="4.5921530" lon="-75.7293990">
        <ele>1350.8</ele>
        <time>2022-08-13T14:38:53Z</time>
      </trkpt>
      <trkpt lat="4.5919680" lon="-75.7296330">
        <ele>1350.0</ele>
        <time>2022-08-13T14:38:58Z</time>
      </trkpt>
      <trkpt lat="4.5918890" lon="-75.7297170">
        <ele>1349.0</ele>
        <time>2022-08-13T14:39:00Z</time>
      </trkpt>
      <trkpt lat="4.5918470" lon="-75.7297570">
        <ele>1348.6</ele>
        <time>2022-08-13T14:39:01Z</time>
      </trkpt>
      <trkpt lat="4.5917260" lon="-75.7298700">
        <ele>1347.6</ele>
        <time>2022-08-13T14:39:04Z</time>
      </trkpt>
      <trkpt lat="4.5916850" lon="-75.7299060">
        <ele>1347.2</ele>
        <time>2022-08-13T14:39:05Z</time>
      </trkpt>
      <trkpt lat="4.5915200" lon="-75.7300670">
        <ele>1346.6</ele>
        <time>2022-08-13T14:39:09Z</time>
      </trkpt>
      <trkpt lat="4.5914800" lon="-75.7301110">
        <ele>1346.4</ele>
        <time>2022-08-13T14:39:10Z</time>
      </trkpt>
      <trkpt lat="4.5914050" lon="-75.7302140">
        <ele>1345.6</ele>
        <time>2022-08-13T14:39:12Z</time>
      </trkpt>
      <trkpt lat="4.5913740" lon="-75.7302730">
        <ele>1345.0</ele>
        <time>2022-08-13T14:39:13Z</time>
      </trkpt>
      <trkpt lat="4.5913450" lon="-75.7303360">
        <ele>1345.2</ele>
        <time>2022-08-13T14:39:14Z</time>
      </trkpt>
      <trkpt lat="4.5912800" lon="-75.7305470">
        <ele>1344.8</ele>
        <time>2022-08-13T14:39:17Z</time>
      </trkpt>
      <trkpt lat="4.5912520" lon="-75.7306820">
        <ele>1344.2</ele>
        <time>2022-08-13T14:39:19Z</time>
      </trkpt>
      <trkpt lat="4.5911610" lon="-75.7309410">
        <ele>1343.2</ele>
        <time>2022-08-13T14:39:23Z</time>
      </trkpt>
      <trkpt lat="4.5910240" lon="-75.7313130">
        <ele>1342.0</ele>
        <time>2022-08-13T14:39:29Z</time>
      </trkpt>
      <trkpt lat="4.5909080" lon="-75.7316070">
        <ele>1341.2</ele>
        <time>2022-08-13T14:39:34Z</time>
      </trkpt>
      <trkpt lat="4.5908650" lon="-75.7317150">
        <ele>1340.8</ele>
        <time>2022-08-13T14:39:36Z</time>
      </trkpt>
      <trkpt lat="4.5907760" lon="-75.7319160">
        <ele>1339.8</ele>
        <time>2022-08-13T14:39:40Z</time>
      </trkpt>
      <trkpt lat="4.5907090" lon="-75.7320070">
        <ele>1339.0</ele>
        <time>2022-08-13T14:39:42Z</time>
      </trkpt>
      <trkpt lat="4.5906700" lon="-75.7320450">
        <ele>1338.6</ele>
        <time>2022-08-13T14:39:43Z</time>
      </trkpt>
      <trkpt lat="4.5904970" lon="-75.7321780">
        <ele>1337.8</ele>
        <time>2022-08-13T14:39:47Z</time>
      </trkpt>
      <trkpt lat="4.5904510" lon="-75.7322150">
        <ele>1337.8</ele>
        <time>2022-08-13T14:39:48Z</time>
      </trkpt>
      <trkpt lat="4.5903610" lon="-75.7322960">
        <ele>1336.6</ele>
        <time>2022-08-13T14:39:50Z</time>
      </trkpt>
      <trkpt lat="4.5903170" lon="-75.7323430">
        <ele>1336.2</ele>
        <time>2022-08-13T14:39:51Z</time>
      </trkpt>
      <trkpt lat="4.5902020" lon="-75.7324900">
        <ele>1335.8</ele>
        <time>2022-08-13T14:39:54Z</time>
      </trkpt>
      <trkpt lat="4.5901670" lon="-75.7325360">
        <ele>1335.6</ele>
        <time>2022-08-13T14:39:55Z</time>
      </trkpt>
      <trkpt lat="4.5900250" lon="-75.7327600">
        <ele>1335.2</ele>
        <time>2022-08-13T14:40:00Z</time>
      </trkpt>
      <trkpt lat="4.5897920" lon="-75.7331320">
        <ele>1335.2</ele>
        <time>2022-08-13T14:40:08Z</time>
      </trkpt>
      <trkpt lat="4.5895900" lon="-75.7334240">
        <ele>1335.8</ele>
        <time>2022-08-13T14:40:14Z</time>
      </trkpt>
      <trkpt lat="4.5894750" lon="-75.7336120">
        <ele>1336.2</ele>
        <time>2022-08-13T14:40:18Z</time>
      </trkpt>
      <trkpt lat="4.5893750" lon="-75.7337590">
        <ele>1336.8</ele>
        <time>2022-08-13T14:40:21Z</time>
      </trkpt>
      <trkpt lat="4.5890990" lon="-75.7340880">
        <ele>1337.2</ele>
        <time>2022-08-13T14:40:28Z</time>
      </trkpt>
      <trkpt lat="4.5887820" lon="-75.7343320">
        <ele>1337.6</ele>
        <time>2022-08-13T14:40:33Z</time>
      </trkpt>
      <trkpt lat="4.5885120" lon="-75.7345290">
        <ele>1337.8</ele>
        <time>2022-08-13T14:40:37Z</time>
      </trkpt>
      <trkpt lat="4.5883350" lon="-75.7346320">
        <ele>1338.0</ele>
        <time>2022-08-13T14:40:40Z</time>
      </trkpt>
      <trkpt lat="4.5880530" lon="-75.7347270">
        <ele>1337.8</ele>
        <time>2022-08-13T14:40:45Z</time>
      </trkpt>
      <trkpt lat="4.5878110" lon="-75.7347850">
        <ele>1338.0</ele>
        <time>2022-08-13T14:40:50Z</time>
      </trkpt>
      <trkpt lat="4.5877120" lon="-75.7347930">
        <ele>1338.0</ele>
        <time>2022-08-13T14:40:52Z</time>
      </trkpt>
      <trkpt lat="4.5875800" lon="-75.7347760">
        <ele>1337.8</ele>
        <time>2022-08-13T14:40:55Z</time>
      </trkpt>
      <trkpt lat="4.5872810" lon="-75.7347650">
        <ele>1337.6</ele>
        <time>2022-08-13T14:41:01Z</time>
      </trkpt>
      <trkpt lat="4.5870230" lon="-75.7347830">
        <ele>1337.2</ele>
        <time>2022-08-13T14:41:07Z</time>
      </trkpt>
      <trkpt lat="4.5867370" lon="-75.7348150">
        <ele>1337.2</ele>
        <time>2022-08-13T14:41:14Z</time>
      </trkpt>
      <trkpt lat="4.5865420" lon="-75.7348640">
        <ele>1337.0</ele>
        <time>2022-08-13T14:41:20Z</time>
      </trkpt>
      <trkpt lat="4.5863280" lon="-75.7349450">
        <ele>1336.4</ele>
        <time>2022-08-13T14:41:26Z</time>
      </trkpt>
      <trkpt lat="4.5861020" lon="-75.7350700">
        <ele>1335.8</ele>
        <time>2022-08-13T14:41:32Z</time>
      </trkpt>
      <trkpt lat="4.5860360" lon="-75.7351080">
        <ele>1335.6</ele>
        <time>2022-08-13T14:41:34Z</time>
      </trkpt>
      <trkpt lat="4.5859740" lon="-75.7351430">
        <ele>1334.8</ele>
        <time>2022-08-13T14:41:36Z</time>
      </trkpt>
      <trkpt lat="4.5859010" lon="-75.7351860">
        <ele>1333.8</ele>
        <time>2022-08-13T14:41:38Z</time>
      </trkpt>
      <trkpt lat="4.5857120" lon="-75.7353200">
        <ele>1332.2</ele>
        <time>2022-08-13T14:41:42Z</time>
      </trkpt>
      <trkpt lat="4.5856000" lon="-75.7354160">
        <ele>1331.2</ele>
        <time>2022-08-13T14:41:44Z</time>
      </trkpt>
      <trkpt lat="4.5853870" lon="-75.7355850">
        <ele>1330.0</ele>
        <time>2022-08-13T14:41:47Z</time>
      </trkpt>
      <trkpt lat="4.5851700" lon="-75.7357560">
        <ele>1328.8</ele>
        <time>2022-08-13T14:41:50Z</time>
      </trkpt>
      <trkpt lat="4.5849780" lon="-75.7358850">
        <ele>1327.4</ele>
        <time>2022-08-13T14:41:53Z</time>
      </trkpt>
      <trkpt lat="4.5849240" lon="-75.7359130">
        <ele>1327.0</ele>
        <time>2022-08-13T14:41:54Z</time>
      </trkpt>
      <trkpt lat="4.5848110" lon="-75.7359520">
        <ele>1326.8</ele>
        <time>2022-08-13T14:41:56Z</time>
      </trkpt>
      <trkpt lat="4.5847570" lon="-75.7359580">
        <ele>1326.2</ele>
        <time>2022-08-13T14:41:57Z</time>
      </trkpt>
      <trkpt lat="4.5846060" lon="-75.7359560">
        <ele>1326.0</ele>
        <time>2022-08-13T14:42:00Z</time>
      </trkpt>
      <trkpt lat="4.5845510" lon="-75.7359530">
        <ele>1326.0</ele>
        <time>2022-08-13T14:42:01Z</time>
      </trkpt>
      <trkpt lat="4.5844080" lon="-75.7359340">
        <ele>1326.0</ele>
        <time>2022-08-13T14:42:04Z</time>
      </trkpt>
      <trkpt lat="4.5842240" lon="-75.7359160">
        <ele>1326.2</ele>
        <time>2022-08-13T14:42:08Z</time>
      </trkpt>
      <trkpt lat="4.5840510" lon="-75.7358950">
        <ele>1326.8</ele>
        <time>2022-08-13T14:42:12Z</time>
      </trkpt>
      <trkpt lat="4.5839380" lon="-75.7358910">
        <ele>1327.0</ele>
        <time>2022-08-13T14:42:15Z</time>
      </trkpt>
      <trkpt lat="4.5837890" lon="-75.7358890">
        <ele>1327.4</ele>
        <time>2022-08-13T14:42:19Z</time>
      </trkpt>
      <trkpt lat="4.5836270" lon="-75.7358930">
        <ele>1327.4</ele>
        <time>2022-08-13T14:42:23Z</time>
      </trkpt>
      <trkpt lat="4.5835090" lon="-75.7359030">
        <ele>1327.6</ele>
        <time>2022-08-13T14:42:26Z</time>
      </trkpt>
      <trkpt lat="4.5833810" lon="-75.7359050">
        <ele>1327.6</ele>
        <time>2022-08-13T14:42:29Z</time>
      </trkpt>
      <trkpt lat="4.5832600" lon="-75.7359130">
        <ele>1328.0</ele>
        <time>2022-08-13T14:42:32Z</time>
      </trkpt>
      <trkpt lat="4.5832210" lon="-75.7359150">
        <ele>1328.0</ele>
        <time>2022-08-13T14:42:33Z</time>
      </trkpt>
      <trkpt lat="4.5830480" lon="-75.7359490">
        <ele>1328.2</ele>
        <time>2022-08-13T14:42:37Z</time>
      </trkpt>
      <trkpt lat="4.5829470" lon="-75.7359910">
        <ele>1328.2</ele>
        <time>2022-08-13T14:42:39Z</time>
      </trkpt>
      <trkpt lat="4.5827990" lon="-75.7360850">
        <ele>1328.4</ele>
        <time>2022-08-13T14:42:42Z</time>
      </trkpt>
      <trkpt lat="4.5827230" lon="-75.7361580">
        <ele>1328.4</ele>
        <time>2022-08-13T14:42:44Z</time>
      </trkpt>
      <trkpt lat="4.5825530" lon="-75.7364020">
        <ele>1328.6</ele>
        <time>2022-08-13T14:42:50Z</time>
      </trkpt>
      <trkpt lat="4.5824060" lon="-75.7366250">
        <ele>1328.6</ele>
        <time>2022-08-13T14:42:56Z</time>
      </trkpt>
      <trkpt lat="4.5821940" lon="-75.7369350">
        <ele>1328.0</ele>
        <time>2022-08-13T14:43:03Z</time>
      </trkpt>
      <trkpt lat="4.5820450" lon="-75.7371800">
        <ele>1327.2</ele>
        <time>2022-08-13T14:43:08Z</time>
      </trkpt>
      <trkpt lat="4.5819910" lon="-75.7372800">
        <ele>1326.6</ele>
        <time>2022-08-13T14:43:10Z</time>
      </trkpt>
      <trkpt lat="4.5819350" lon="-75.7373800">
        <ele>1326.0</ele>
        <time>2022-08-13T14:43:12Z</time>
      </trkpt>
      <trkpt lat="4.5818040" lon="-75.7376430">
        <ele>1325.0</ele>
        <time>2022-08-13T14:43:17Z</time>
      </trkpt>
      <trkpt lat="4.5817300" lon="-75.7378110">
        <ele>1324.6</ele>
        <time>2022-08-13T14:43:20Z</time>
      </trkpt>
      <trkpt lat="4.5817130" lon="-75.7378690">
        <ele>1324.4</ele>
        <time>2022-08-13T14:43:21Z</time>
      </trkpt>
      <trkpt lat="4.5816870" lon="-75.7379820">
        <ele>1324.0</ele>
        <time>2022-08-13T14:43:23Z</time>
      </trkpt>
      <trkpt lat="4.5816510" lon="-75.7381610">
        <ele>1323.0</ele>
        <time>2022-08-13T14:43:26Z</time>
      </trkpt>
      <trkpt lat="4.5816380" lon="-75.7382220">
        <ele>1323.0</ele>
        <time>2022-08-13T14:43:27Z</time>
      </trkpt>
      <trkpt lat="4.5815730" lon="-75.7384570">
        <ele>1322.8</ele>
        <time>2022-08-13T14:43:31Z</time>
      </trkpt>
      <trkpt lat="4.5815060" lon="-75.7385550">
        <ele>1322.4</ele>
        <time>2022-08-13T14:43:33Z</time>
      </trkpt>
      <trkpt lat="4.5814280" lon="-75.7386290">
        <ele>1322.2</ele>
        <time>2022-08-13T14:43:35Z</time>
      </trkpt>
      <trkpt lat="4.5813370" lon="-75.7386910">
        <ele>1322.0</ele>
        <time>2022-08-13T14:43:37Z</time>
      </trkpt>
      <trkpt lat="4.5812930" lon="-75.7387190">
        <ele>1321.8</ele>
        <time>2022-08-13T14:43:38Z</time>
      </trkpt>
      <trkpt lat="4.5810460" lon="-75.7388730">
        <ele>1321.6</ele>
        <time>2022-08-13T14:43:44Z</time>
      </trkpt>
      <trkpt lat="4.5810030" lon="-75.7389000">
        <ele>1321.6</ele>
        <time>2022-08-13T14:43:45Z</time>
      </trkpt>
      <trkpt lat="4.5809100" lon="-75.7389530">
        <ele>1321.6</ele>
        <time>2022-08-13T14:43:47Z</time>
      </trkpt>
      <trkpt lat="4.5806960" lon="-75.7390750">
        <ele>1321.4</ele>
        <time>2022-08-13T14:43:52Z</time>
      </trkpt>
      <trkpt lat="4.5806560" lon="-75.7391010">
        <ele>1321.4</ele>
        <time>2022-08-13T14:43:53Z</time>
      </trkpt>
      <trkpt lat="4.5802820" lon="-75.7394100">
        <ele>1320.8</ele>
        <time>2022-08-13T14:44:02Z</time>
      </trkpt>
      <trkpt lat="4.5802480" lon="-75.7394530">
        <ele>1320.8</ele>
        <time>2022-08-13T14:44:03Z</time>
      </trkpt>
      <trkpt lat="4.5799790" lon="-75.7398490">
        <ele>1320.4</ele>
        <time>2022-08-13T14:44:12Z</time>
      </trkpt>
      <trkpt lat="4.5799130" lon="-75.7399440">
        <ele>1320.2</ele>
        <time>2022-08-13T14:44:14Z</time>
      </trkpt>
      <trkpt lat="4.5797110" lon="-75.7402710">
        <ele>1320.0</ele>
        <time>2022-08-13T14:44:21Z</time>
      </trkpt>
      <trkpt lat="4.5796920" lon="-75.7403170">
        <ele>1320.0</ele>
        <time>2022-08-13T14:44:22Z</time>
      </trkpt>
      <trkpt lat="4.5796560" lon="-75.7404610">
        <ele>1319.8</ele>
        <time>2022-08-13T14:44:25Z</time>
      </trkpt>
      <trkpt lat="4.5796490" lon="-75.7405110">
        <ele>1319.6</ele>
        <time>2022-08-13T14:44:26Z</time>
      </trkpt>
      <trkpt lat="4.5796380" lon="-75.7406170">
        <ele>1319.4</ele>
        <time>2022-08-13T14:44:28Z</time>
      </trkpt>
      <trkpt lat="4.5796140" lon="-75.7408560">
        <ele>1318.6</ele>
        <time>2022-08-13T14:44:32Z</time>
      </trkpt>
      <trkpt lat="4.5796110" lon="-75.7409180">
        <ele>1318.6</ele>
        <time>2022-08-13T14:44:33Z</time>
      </trkpt>
      <trkpt lat="4.5795130" lon="-75.7412830">
        <ele>1317.8</ele>
        <time>2022-08-13T14:44:39Z</time>
      </trkpt>
      <trkpt lat="4.5794850" lon="-75.7413420">
        <ele>1317.6</ele>
        <time>2022-08-13T14:44:40Z</time>
      </trkpt>
      <trkpt lat="4.5794530" lon="-75.7414000">
        <ele>1317.4</ele>
        <time>2022-08-13T14:44:41Z</time>
      </trkpt>
      <trkpt lat="4.5793000" lon="-75.7416200">
        <ele>1316.6</ele>
        <time>2022-08-13T14:44:45Z</time>
      </trkpt>
      <trkpt lat="4.5791830" lon="-75.7417700">
        <ele>1316.2</ele>
        <time>2022-08-13T14:44:48Z</time>
      </trkpt>
      <trkpt lat="4.5790870" lon="-75.7419210">
        <ele>1315.8</ele>
        <time>2022-08-13T14:44:51Z</time>
      </trkpt>
      <trkpt lat="4.5790590" lon="-75.7419650">
        <ele>1315.6</ele>
        <time>2022-08-13T14:44:52Z</time>
      </trkpt>
      <trkpt lat="4.5789230" lon="-75.7422230">
        <ele>1314.6</ele>
        <time>2022-08-13T14:44:58Z</time>
      </trkpt>
      <trkpt lat="4.5788420" lon="-75.7424210">
        <ele>1313.6</ele>
        <time>2022-08-13T14:45:02Z</time>
      </trkpt>
      <trkpt lat="4.5788020" lon="-75.7425220">
        <ele>1312.4</ele>
        <time>2022-08-13T14:45:04Z</time>
      </trkpt>
      <trkpt lat="4.5787610" lon="-75.7426170">
        <ele>1311.2</ele>
        <time>2022-08-13T14:45:06Z</time>
      </trkpt>
      <trkpt lat="4.5787230" lon="-75.7427120">
        <ele>1310.0</ele>
        <time>2022-08-13T14:45:08Z</time>
      </trkpt>
      <trkpt lat="4.5786700" lon="-75.7428550">
        <ele>1308.6</ele>
        <time>2022-08-13T14:45:11Z</time>
      </trkpt>
      <trkpt lat="4.5785930" lon="-75.7430450">
        <ele>1307.0</ele>
        <time>2022-08-13T14:45:15Z</time>
      </trkpt>
      <trkpt lat="4.5785320" lon="-75.7432170">
        <ele>1306.2</ele>
        <time>2022-08-13T14:45:18Z</time>
      </trkpt>
      <trkpt lat="4.5784900" lon="-75.7433410">
        <ele>1305.4</ele>
        <time>2022-08-13T14:45:20Z</time>
      </trkpt>
      <trkpt lat="4.5784640" lon="-75.7434040">
        <ele>1304.8</ele>
        <time>2022-08-13T14:45:21Z</time>
      </trkpt>
      <trkpt lat="4.5784100" lon="-75.7435340">
        <ele>1303.6</ele>
        <time>2022-08-13T14:45:23Z</time>
      </trkpt>
      <trkpt lat="4.5783290" lon="-75.7437180">
        <ele>1302.4</ele>
        <time>2022-08-13T14:45:26Z</time>
      </trkpt>
      <trkpt lat="4.5783000" lon="-75.7437780">
        <ele>1302.2</ele>
        <time>2022-08-13T14:45:27Z</time>
      </trkpt>
      <trkpt lat="4.5782100" lon="-75.7439550">
        <ele>1301.4</ele>
        <time>2022-08-13T14:45:30Z</time>
      </trkpt>
      <trkpt lat="4.5780850" lon="-75.7441890">
        <ele>1300.6</ele>
        <time>2022-08-13T14:45:34Z</time>
      </trkpt>
      <trkpt lat="4.5780490" lon="-75.7442450">
        <ele>1300.4</ele>
        <time>2022-08-13T14:45:35Z</time>
      </trkpt>
      <trkpt lat="4.5779220" lon="-75.7444220">
        <ele>1300.0</ele>
        <time>2022-08-13T14:45:39Z</time>
      </trkpt>
      <trkpt lat="4.5778860" lon="-75.7444630">
        <ele>1300.0</ele>
        <time>2022-08-13T14:45:40Z</time>
      </trkpt>
      <trkpt lat="4.5778160" lon="-75.7445360">
        <ele>1300.0</ele>
        <time>2022-08-13T14:45:42Z</time>
      </trkpt>
      <trkpt lat="4.5777080" lon="-75.7446570">
        <ele>1300.0</ele>
        <time>2022-08-13T14:45:45Z</time>
      </trkpt>
      <trkpt lat="4.5776650" lon="-75.7446950">
        <ele>1300.0</ele>
        <time>2022-08-13T14:45:46Z</time>
      </trkpt>
      <trkpt lat="4.5775750" lon="-75.7447800">
        <ele>1300.0</ele>
        <time>2022-08-13T14:45:48Z</time>
      </trkpt>
      <trkpt lat="4.5774340" lon="-75.7449190">
        <ele>1300.2</ele>
        <time>2022-08-13T14:45:51Z</time>
      </trkpt>
      <trkpt lat="4.5771400" lon="-75.7451810">
        <ele>1301.0</ele>
        <time>2022-08-13T14:45:57Z</time>
      </trkpt>
      <trkpt lat="4.5771080" lon="-75.7452350">
        <ele>1301.2</ele>
        <time>2022-08-13T14:45:58Z</time>
      </trkpt>
      <trkpt lat="4.5770900" lon="-75.7452980">
        <ele>1301.2</ele>
        <time>2022-08-13T14:45:59Z</time>
      </trkpt>
      <trkpt lat="4.5770860" lon="-75.7454430">
        <ele>1301.6</ele>
        <time>2022-08-13T14:46:01Z</time>
      </trkpt>
      <trkpt lat="4.5771210" lon="-75.7456580">
        <ele>1302.4</ele>
        <time>2022-08-13T14:46:04Z</time>
      </trkpt>
      <trkpt lat="4.5771320" lon="-75.7457240">
        <ele>1302.4</ele>
        <time>2022-08-13T14:46:05Z</time>
      </trkpt>
      <trkpt lat="4.5771210" lon="-75.7458550">
        <ele>1302.8</ele>
        <time>2022-08-13T14:46:07Z</time>
      </trkpt>
      <trkpt lat="4.5770920" lon="-75.7459100">
        <ele>1302.8</ele>
        <time>2022-08-13T14:46:08Z</time>
      </trkpt>
      <trkpt lat="4.5770580" lon="-75.7459550">
        <ele>1302.8</ele>
        <time>2022-08-13T14:46:09Z</time>
      </trkpt>
      <trkpt lat="4.5769950" lon="-75.7460190">
        <ele>1303.2</ele>
        <time>2022-08-13T14:46:11Z</time>
      </trkpt>
      <trkpt lat="4.5769600" lon="-75.7460420">
        <ele>1303.4</ele>
        <time>2022-08-13T14:46:12Z</time>
      </trkpt>
      <trkpt lat="4.5769290" lon="-75.7460620">
        <ele>1303.8</ele>
        <time>2022-08-13T14:46:13Z</time>
      </trkpt>
      <trkpt lat="4.5767820" lon="-75.7461730">
        <ele>1304.4</ele>
        <time>2022-08-13T14:46:18Z</time>
      </trkpt>
      <trkpt lat="4.5766740" lon="-75.7462540">
        <ele>1305.0</ele>
        <time>2022-08-13T14:46:22Z</time>
      </trkpt>
      <trkpt lat="4.5766510" lon="-75.7462710">
        <ele>1305.0</ele>
        <time>2022-08-13T14:46:23Z</time>
      </trkpt>
      <trkpt lat="4.5766220" lon="-75.7462890">
        <ele>1305.2</ele>
        <time>2022-08-13T14:46:24Z</time>
      </trkpt>
      <trkpt lat="4.5764480" lon="-75.7463970">
        <ele>1305.4</ele>
        <time>2022-08-13T14:46:29Z</time>
      </trkpt>
      <trkpt lat="4.5761770" lon="-75.7465700">
        <ele>1305.8</ele>
        <time>2022-08-13T14:46:35Z</time>
      </trkpt>
      <trkpt lat="4.5760310" lon="-75.7466680">
        <ele>1305.8</ele>
        <time>2022-08-13T14:46:38Z</time>
      </trkpt>
      <trkpt lat="4.5758950" lon="-75.7467730">
        <ele>1305.8</ele>
        <time>2022-08-13T14:46:41Z</time>
      </trkpt>
      <trkpt lat="4.5755140" lon="-75.7470070">
        <ele>1305.8</ele>
        <time>2022-08-13T14:46:49Z</time>
      </trkpt>
      <trkpt lat="4.5753610" lon="-75.7470670">
        <ele>1305.8</ele>
        <time>2022-08-13T14:46:52Z</time>
      </trkpt>
      <trkpt lat="4.5751810" lon="-75.7471180">
        <ele>1305.4</ele>
        <time>2022-08-13T14:46:56Z</time>
      </trkpt>
      <trkpt lat="4.5751210" lon="-75.7471320">
        <ele>1305.0</ele>
        <time>2022-08-13T14:46:58Z</time>
      </trkpt>
      <trkpt lat="4.5750790" lon="-75.7471420">
        <ele>1304.4</ele>
        <time>2022-08-13T14:47:00Z</time>
      </trkpt>
      <trkpt lat="4.5750610" lon="-75.7471400">
        <ele>1304.0</ele>
        <time>2022-08-13T14:47:01Z</time>
      </trkpt>
      <trkpt lat="4.5750120" lon="-75.7471110">
        <ele>1302.6</ele>
        <time>2022-08-13T14:47:04Z</time>
      </trkpt>
      <trkpt lat="4.5749910" lon="-75.7471000">
        <ele>1302.2</ele>
        <time>2022-08-13T14:47:05Z</time>
      </trkpt>
      <trkpt lat="4.5749620" lon="-75.7470900">
        <ele>1301.8</ele>
        <time>2022-08-13T14:47:06Z</time>
      </trkpt>
      <trkpt lat="4.5748700" lon="-75.7470410">
        <ele>1300.6</ele>
        <time>2022-08-13T14:47:09Z</time>
      </trkpt>
      <trkpt lat="4.5747580" lon="-75.7469740">
        <ele>1299.2</ele>
        <time>2022-08-13T14:47:12Z</time>
      </trkpt>
      <trkpt lat="4.5746730" lon="-75.7469160">
        <ele>1299.0</ele>
        <time>2022-08-13T14:47:14Z</time>
      </trkpt>
      <trkpt lat="4.5745730" lon="-75.7468690">
        <ele>1298.0</ele>
        <time>2022-08-13T14:47:16Z</time>
      </trkpt>
      <trkpt lat="4.5744760" lon="-75.7468550">
        <ele>1297.4</ele>
        <time>2022-08-13T14:47:18Z</time>
      </trkpt>
      <trkpt lat="4.5744280" lon="-75.7468670">
        <ele>1297.0</ele>
        <time>2022-08-13T14:47:19Z</time>
      </trkpt>
      <trkpt lat="4.5743860" lon="-75.7468980">
        <ele>1296.6</ele>
        <time>2022-08-13T14:47:20Z</time>
      </trkpt>
      <trkpt lat="4.5743600" lon="-75.7469460">
        <ele>1296.2</ele>
        <time>2022-08-13T14:47:21Z</time>
      </trkpt>
      <trkpt lat="4.5743490" lon="-75.7470100">
        <ele>1295.8</ele>
        <time>2022-08-13T14:47:22Z</time>
      </trkpt>
      <trkpt lat="4.5743420" lon="-75.7471600">
        <ele>1295.4</ele>
        <time>2022-08-13T14:47:24Z</time>
      </trkpt>
      <trkpt lat="4.5743360" lon="-75.7472380">
        <ele>1294.4</ele>
        <time>2022-08-13T14:47:25Z</time>
      </trkpt>
      <trkpt lat="4.5743230" lon="-75.7473200">
        <ele>1294.0</ele>
        <time>2022-08-13T14:47:26Z</time>
      </trkpt>
      <trkpt lat="4.5742580" lon="-75.7474760">
        <ele>1293.2</ele>
        <time>2022-08-13T14:47:28Z</time>
      </trkpt>
      <trkpt lat="4.5741200" lon="-75.7477130">
        <ele>1292.0</ele>
        <time>2022-08-13T14:47:31Z</time>
      </trkpt>
      <trkpt lat="4.5740790" lon="-75.7477900">
        <ele>1291.6</ele>
        <time>2022-08-13T14:47:32Z</time>
      </trkpt>
      <trkpt lat="4.5740370" lon="-75.7478600">
        <ele>1291.2</ele>
        <time>2022-08-13T14:47:33Z</time>
      </trkpt>
      <trkpt lat="4.5739890" lon="-75.7479290">
        <ele>1290.8</ele>
        <time>2022-08-13T14:47:34Z</time>
      </trkpt>
      <trkpt lat="4.5738980" lon="-75.7480700">
        <ele>1290.6</ele>
        <time>2022-08-13T14:47:36Z</time>
      </trkpt>
      <trkpt lat="4.5737800" lon="-75.7483660">
        <ele>1289.8</ele>
        <time>2022-08-13T14:47:40Z</time>
      </trkpt>
      <trkpt lat="4.5737540" lon="-75.7484120">
        <ele>1289.2</ele>
        <time>2022-08-13T14:47:41Z</time>
      </trkpt>
      <trkpt lat="4.5737140" lon="-75.7484630">
        <ele>1289.0</ele>
        <time>2022-08-13T14:47:42Z</time>
      </trkpt>
      <trkpt lat="4.5736220" lon="-75.7485250">
        <ele>1288.8</ele>
        <time>2022-08-13T14:47:44Z</time>
      </trkpt>
      <trkpt lat="4.5735670" lon="-75.7485410">
        <ele>1288.4</ele>
        <time>2022-08-13T14:47:45Z</time>
      </trkpt>
      <trkpt lat="4.5735380" lon="-75.7485360">
        <ele>1288.2</ele>
        <time>2022-08-13T14:47:46Z</time>
      </trkpt>
      <trkpt lat="4.5735290" lon="-75.7485150">
        <ele>1288.2</ele>
        <time>2022-08-13T14:47:47Z</time>
      </trkpt>
      <trkpt lat="4.5735290" lon="-75.7484390">
        <ele>1287.6</ele>
        <time>2022-08-13T14:47:49Z</time>
      </trkpt>
      <trkpt lat="4.5735710" lon="-75.7483310">
        <ele>1287.0</ele>
        <time>2022-08-13T14:47:51Z</time>
      </trkpt>
      <trkpt lat="4.5736310" lon="-75.7481520">
        <ele>1286.6</ele>
        <time>2022-08-13T14:47:54Z</time>
      </trkpt>
      <trkpt lat="4.5736470" lon="-75.7480910">
        <ele>1286.4</ele>
        <time>2022-08-13T14:47:55Z</time>
      </trkpt>
      <trkpt lat="4.5736530" lon="-75.7480280">
        <ele>1286.2</ele>
        <time>2022-08-13T14:47:56Z</time>
      </trkpt>
      <trkpt lat="4.5736450" lon="-75.7479640">
        <ele>1286.2</ele>
        <time>2022-08-13T14:47:57Z</time>
      </trkpt>
      <trkpt lat="4.5736070" lon="-75.7478490">
        <ele>1286.0</ele>
        <time>2022-08-13T14:47:59Z</time>
      </trkpt>
      <trkpt lat="4.5735730" lon="-75.7478100">
        <ele>1286.0</ele>
        <time>2022-08-13T14:48:00Z</time>
      </trkpt>
      <trkpt lat="4.5735240" lon="-75.7477880">
        <ele>1286.0</ele>
        <time>2022-08-13T14:48:01Z</time>
      </trkpt>
      <trkpt lat="4.5733960" lon="-75.7477910">
        <ele>1285.6</ele>
        <time>2022-08-13T14:48:03Z</time>
      </trkpt>
      <trkpt lat="4.5730140" lon="-75.7478290">
        <ele>1284.8</ele>
        <time>2022-08-13T14:48:09Z</time>
      </trkpt>
      <trkpt lat="4.5729610" lon="-75.7478380">
        <ele>1284.6</ele>
        <time>2022-08-13T14:48:10Z</time>
      </trkpt>
      <trkpt lat="4.5729180" lon="-75.7478570">
        <ele>1284.4</ele>
        <time>2022-08-13T14:48:11Z</time>
      </trkpt>
      <trkpt lat="4.5728500" lon="-75.7479260">
        <ele>1284.4</ele>
        <time>2022-08-13T14:48:13Z</time>
      </trkpt>
      <trkpt lat="4.5728070" lon="-75.7480230">
        <ele>1283.6</ele>
        <time>2022-08-13T14:48:15Z</time>
      </trkpt>
      <trkpt lat="4.5727990" lon="-75.7480830">
        <ele>1283.2</ele>
        <time>2022-08-13T14:48:16Z</time>
      </trkpt>
      <trkpt lat="4.5728070" lon="-75.7481580">
        <ele>1282.6</ele>
        <time>2022-08-13T14:48:18Z</time>
      </trkpt>
      <trkpt lat="4.5728140" lon="-75.7482770">
        <ele>1281.8</ele>
        <time>2022-08-13T14:48:21Z</time>
      </trkpt>
      <trkpt lat="4.5728050" lon="-75.7483120">
        <ele>1281.8</ele>
        <time>2022-08-13T14:48:22Z</time>
      </trkpt>
      <trkpt lat="4.5727540" lon="-75.7483350">
        <ele>1281.6</ele>
        <time>2022-08-13T14:48:24Z</time>
      </trkpt>
      <trkpt lat="4.5727290" lon="-75.7483270">
        <ele>1281.6</ele>
        <time>2022-08-13T14:48:25Z</time>
      </trkpt>
      <trkpt lat="4.5727110" lon="-75.7482780">
        <ele>1281.2</ele>
        <time>2022-08-13T14:48:27Z</time>
      </trkpt>
      <trkpt lat="4.5727290" lon="-75.7481260">
        <ele>1281.0</ele>
        <time>2022-08-13T14:48:30Z</time>
      </trkpt>
      <trkpt lat="4.5727300" lon="-75.7480630">
        <ele>1281.0</ele>
        <time>2022-08-13T14:48:31Z</time>
      </trkpt>
      <trkpt lat="4.5727180" lon="-75.7479970">
        <ele>1280.8</ele>
        <time>2022-08-13T14:48:32Z</time>
      </trkpt>
      <trkpt lat="4.5726470" lon="-75.7478680">
        <ele>1280.8</ele>
        <time>2022-08-13T14:48:34Z</time>
      </trkpt>
      <trkpt lat="4.5725440" lon="-75.7477660">
        <ele>1280.6</ele>
        <time>2022-08-13T14:48:36Z</time>
      </trkpt>
      <trkpt lat="4.5723880" lon="-75.7476250">
        <ele>1280.4</ele>
        <time>2022-08-13T14:48:39Z</time>
      </trkpt>
      <trkpt lat="4.5723530" lon="-75.7475870">
        <ele>1280.4</ele>
        <time>2022-08-13T14:48:40Z</time>
      </trkpt>
      <trkpt lat="4.5723180" lon="-75.7475690">
        <ele>1280.4</ele>
        <time>2022-08-13T14:48:41Z</time>
      </trkpt>
      <trkpt lat="4.5722730" lon="-75.7475680">
        <ele>1280.4</ele>
        <time>2022-08-13T14:48:42Z</time>
      </trkpt>
      <trkpt lat="4.5721770" lon="-75.7476050">
        <ele>1280.2</ele>
        <time>2022-08-13T14:48:44Z</time>
      </trkpt>
      <trkpt lat="4.5720620" lon="-75.7476720">
        <ele>1280.2</ele>
        <time>2022-08-13T14:48:46Z</time>
      </trkpt>
      <trkpt lat="4.5719040" lon="-75.7477930">
        <ele>1280.0</ele>
        <time>2022-08-13T14:48:49Z</time>
      </trkpt>
      <trkpt lat="4.5717600" lon="-75.7478940">
        <ele>1279.6</ele>
        <time>2022-08-13T14:48:52Z</time>
      </trkpt>
      <trkpt lat="4.5716530" lon="-75.7480130">
        <ele>1279.6</ele>
        <time>2022-08-13T14:48:55Z</time>
      </trkpt>
      <trkpt lat="4.5716430" lon="-75.7480380">
        <ele>1279.6</ele>
        <time>2022-08-13T14:48:56Z</time>
      </trkpt>
      <trkpt lat="4.5716430" lon="-75.7480630">
        <ele>1279.6</ele>
        <time>2022-08-13T14:48:57Z</time>
      </trkpt>
      <trkpt lat="4.5716760" lon="-75.7480880">
        <ele>1279.6</ele>
        <time>2022-08-13T14:48:59Z</time>
      </trkpt>
      <trkpt lat="4.5717200" lon="-75.7481350">
        <ele>1279.6</ele>
        <time>2022-08-13T14:49:02Z</time>
      </trkpt>
      <trkpt lat="4.5717420" lon="-75.7481730">
        <ele>1279.6</ele>
        <time>2022-08-13T14:49:04Z</time>
      </trkpt>
      <trkpt lat="4.5717500" lon="-75.7482050">
        <ele>1279.6</ele>
        <time>2022-08-13T14:49:06Z</time>
      </trkpt>
      <trkpt lat="4.5717330" lon="-75.7482560">
        <ele>1279.6</ele>
        <time>2022-08-13T14:49:09Z</time>
      </trkpt>
      <trkpt lat="4.5716910" lon="-75.7482720">
        <ele>1279.6</ele>
        <time>2022-08-13T14:49:12Z</time>
      </trkpt>
      <trkpt lat="4.5716480" lon="-75.7482610">
        <ele>1279.6</ele>
        <time>2022-08-13T14:49:15Z</time>
      </trkpt>
      <trkpt lat="4.5716370" lon="-75.7482510">
        <ele>1279.8</ele>
        <time>2022-08-13T14:49:16Z</time>
      </trkpt>
      <trkpt lat="4.5715930" lon="-75.7482070">
        <ele>1278.6</ele>
        <time>2022-08-13T14:49:20Z</time>
      </trkpt>
      <trkpt lat="4.5715770" lon="-75.7481860">
        <ele>1277.8</ele>
        <time>2022-08-13T14:49:22Z</time>
      </trkpt>
      <trkpt lat="4.5715640" lon="-75.7481840">
        <ele>1277.4</ele>
        <time>2022-08-13T14:49:23Z</time>
      </trkpt>
      <trkpt lat="4.5715280" lon="-75.7481660">
        <ele>1276.2</ele>
        <time>2022-08-13T14:49:26Z</time>
      </trkpt>
      <trkpt lat="4.5715020" lon="-75.7481510">
        <ele>1275.4</ele>
        <time>2022-08-13T14:49:28Z</time>
      </trkpt>
      <trkpt lat="4.5714900" lon="-75.7481440">
        <ele>1274.8</ele>
        <time>2022-08-13T14:49:29Z</time>
      </trkpt>
      <trkpt lat="4.5714400" lon="-75.7481080">
        <ele>1273.8</ele>
        <time>2022-08-13T14:49:33Z</time>
      </trkpt>
      <trkpt lat="4.5714020" lon="-75.7480820">
        <ele>1272.8</ele>
        <time>2022-08-13T14:49:36Z</time>
      </trkpt>
      <trkpt lat="4.5713590" lon="-75.7480550">
        <ele>1271.4</ele>
        <time>2022-08-13T14:49:39Z</time>
      </trkpt>
      <trkpt lat="4.5713210" lon="-75.7480270">
        <ele>1270.4</ele>
        <time>2022-08-13T14:49:42Z</time>
      </trkpt>
      <trkpt lat="4.5712820" lon="-75.7479970">
        <ele>1269.4</ele>
        <time>2022-08-13T14:49:45Z</time>
      </trkpt>
      <trkpt lat="4.5712600" lon="-75.7479740">
        <ele>1268.6</ele>
        <time>2022-08-13T14:49:47Z</time>
      </trkpt>
      <trkpt lat="4.5712450" lon="-75.7479660">
        <ele>1268.2</ele>
        <time>2022-08-13T14:49:48Z</time>
      </trkpt>
      <trkpt lat="4.5711880" lon="-75.7479240">
        <ele>1267.4</ele>
        <time>2022-08-13T14:49:53Z</time>
      </trkpt>
      <trkpt lat="4.5711700" lon="-75.7479030">
        <ele>1267.2</ele>
        <time>2022-08-13T14:49:55Z</time>
      </trkpt>
      <trkpt lat="4.5711230" lon="-75.7478660">
        <ele>1267.2</ele>
        <time>2022-08-13T14:49:59Z</time>
      </trkpt>
      <trkpt lat="4.5710090" lon="-75.7477550">
        <ele>1267.6</ele>
        <time>2022-08-13T14:50:09Z</time>
      </trkpt>
      <trkpt lat="4.5709210" lon="-75.7476700">
        <ele>1267.6</ele>
        <time>2022-08-13T14:50:17Z</time>
      </trkpt>
      <trkpt lat="4.5708760" lon="-75.7476290">
        <ele>1267.2</ele>
        <time>2022-08-13T14:50:21Z</time>
      </trkpt>
      <trkpt lat="4.5708370" lon="-75.7476080">
        <ele>1266.6</ele>
        <time>2022-08-13T14:50:24Z</time>
      </trkpt>
      <trkpt lat="4.5708150" lon="-75.7475930">
        <ele>1266.2</ele>
        <time>2022-08-13T14:50:26Z</time>
      </trkpt>
      <trkpt lat="4.5707730" lon="-75.7475530">
        <ele>1265.2</ele>
        <time>2022-08-13T14:50:30Z</time>
      </trkpt>
      <trkpt lat="4.5707530" lon="-75.7475320">
        <ele>1264.8</ele>
        <time>2022-08-13T14:50:32Z</time>
      </trkpt>
      <trkpt lat="4.5707150" lon="-75.7475060">
        <ele>1264.4</ele>
        <time>2022-08-13T14:50:35Z</time>
      </trkpt>
      <trkpt lat="4.5706570" lon="-75.7474570">
        <ele>1263.6</ele>
        <time>2022-08-13T14:50:40Z</time>
      </trkpt>
      <trkpt lat="4.5706450" lon="-75.7474500">
        <ele>1263.4</ele>
        <time>2022-08-13T14:50:41Z</time>
      </trkpt>
      <trkpt lat="4.5705900" lon="-75.7474130">
        <ele>1262.8</ele>
        <time>2022-08-13T14:50:45Z</time>
      </trkpt>
      <trkpt lat="4.5705520" lon="-75.7473900">
        <ele>1262.6</ele>
        <time>2022-08-13T14:50:48Z</time>
      </trkpt>
      <trkpt lat="4.5705390" lon="-75.7473830">
        <ele>1262.4</ele>
        <time>2022-08-13T14:50:49Z</time>
      </trkpt>
      <trkpt lat="4.5704870" lon="-75.7473530">
        <ele>1261.6</ele>
        <time>2022-08-13T14:50:53Z</time>
      </trkpt>
      <trkpt lat="4.5704210" lon="-75.7473140">
        <ele>1260.6</ele>
        <time>2022-08-13T14:50:58Z</time>
      </trkpt>
      <trkpt lat="4.5703500" lon="-75.7472770">
        <ele>1259.6</ele>
        <time>2022-08-13T14:51:03Z</time>
      </trkpt>
      <trkpt lat="4.5702780" lon="-75.7472420">
        <ele>1258.6</ele>
        <time>2022-08-13T14:51:08Z</time>
      </trkpt>
      <trkpt lat="4.5702640" lon="-75.7472340">
        <ele>1258.4</ele>
        <time>2022-08-13T14:51:09Z</time>
      </trkpt>
      <trkpt lat="4.5702110" lon="-75.7471990">
        <ele>1257.4</ele>
        <time>2022-08-13T14:51:13Z</time>
      </trkpt>
      <trkpt lat="4.5701900" lon="-75.7471830">
        <ele>1257.0</ele>
        <time>2022-08-13T14:51:15Z</time>
      </trkpt>
      <trkpt lat="4.5701810" lon="-75.7471740">
        <ele>1256.6</ele>
        <time>2022-08-13T14:51:16Z</time>
      </trkpt>
      <trkpt lat="4.5701710" lon="-75.7471640">
        <ele>1256.4</ele>
        <time>2022-08-13T14:51:17Z</time>
      </trkpt>
      <trkpt lat="4.5701310" lon="-75.7471420">
        <ele>1255.6</ele>
        <time>2022-08-13T14:51:20Z</time>
      </trkpt>
      <trkpt lat="4.5701040" lon="-75.7471270">
        <ele>1254.8</ele>
        <time>2022-08-13T14:51:22Z</time>
      </trkpt>
      <trkpt lat="4.5700870" lon="-75.7471180">
        <ele>1254.4</ele>
        <time>2022-08-13T14:51:23Z</time>
      </trkpt>
      <trkpt lat="4.5700460" lon="-75.7471010">
        <ele>1253.2</ele>
        <time>2022-08-13T14:51:26Z</time>
      </trkpt>
      <trkpt lat="4.5699910" lon="-75.7470690">
        <ele>1252.2</ele>
        <time>2022-08-13T14:51:30Z</time>
      </trkpt>
      <trkpt lat="4.5699660" lon="-75.7470520">
        <ele>1251.8</ele>
        <time>2022-08-13T14:51:32Z</time>
      </trkpt>
      <trkpt lat="4.5699550" lon="-75.7470460">
        <ele>1251.4</ele>
        <time>2022-08-13T14:51:33Z</time>
      </trkpt>
      <trkpt lat="4.5699120" lon="-75.7470210">
        <ele>1250.4</ele>
        <time>2022-08-13T14:51:37Z</time>
      </trkpt>
      <trkpt lat="4.5698990" lon="-75.7470100">
        <ele>1250.2</ele>
        <time>2022-08-13T14:51:38Z</time>
      </trkpt>
      <trkpt lat="4.5698430" lon="-75.7469860">
        <ele>1249.4</ele>
        <time>2022-08-13T14:51:42Z</time>
      </trkpt>
      <trkpt lat="4.5697770" lon="-75.7469410">
        <ele>1248.4</ele>
        <time>2022-08-13T14:51:47Z</time>
      </trkpt>
      <trkpt lat="4.5697640" lon="-75.7469320">
        <ele>1248.2</ele>
        <time>2022-08-13T14:51:48Z</time>
      </trkpt>
      <trkpt lat="4.5696440" lon="-75.7468540">
        <ele>1247.4</ele>
        <time>2022-08-13T14:51:56Z</time>
      </trkpt>
      <trkpt lat="4.5696280" lon="-75.7468430">
        <ele>1247.2</ele>
        <time>2022-08-13T14:51:57Z</time>
      </trkpt>
      <trkpt lat="4.5695270" lon="-75.7467950">
        <ele>1246.6</ele>
        <time>2022-08-13T14:52:02Z</time>
      </trkpt>
      <trkpt lat="4.5695060" lon="-75.7467850">
        <ele>1246.4</ele>
        <time>2022-08-13T14:52:03Z</time>
      </trkpt>
      <trkpt lat="4.5694820" lon="-75.7467750">
        <ele>1246.2</ele>
        <time>2022-08-13T14:52:04Z</time>
      </trkpt>
      <trkpt lat="4.5693670" lon="-75.7467350">
        <ele>1245.0</ele>
        <time>2022-08-13T14:52:09Z</time>
      </trkpt>
      <trkpt lat="4.5692840" lon="-75.7467060">
        <ele>1244.0</ele>
        <time>2022-08-13T14:52:13Z</time>
      </trkpt>
      <trkpt lat="4.5692650" lon="-75.7467010">
        <ele>1243.8</ele>
        <time>2022-08-13T14:52:14Z</time>
      </trkpt>
      <trkpt lat="4.5692220" lon="-75.7466920">
        <ele>1243.4</ele>
        <time>2022-08-13T14:52:17Z</time>
      </trkpt>
      <trkpt lat="4.5691980" lon="-75.7466880">
        <ele>1242.6</ele>
        <time>2022-08-13T14:52:19Z</time>
      </trkpt>
      <trkpt lat="4.5691560" lon="-75.7467000">
        <ele>1242.2</ele>
        <time>2022-08-13T14:52:22Z</time>
      </trkpt>
      <trkpt lat="4.5691350" lon="-75.7467320">
        <ele>1241.6</ele>
        <time>2022-08-13T14:52:24Z</time>
      </trkpt>
      <trkpt lat="4.5691070" lon="-75.7468250">
        <ele>1240.4</ele>
        <time>2022-08-13T14:52:28Z</time>
      </trkpt>
      <trkpt lat="4.5690840" lon="-75.7468880">
        <ele>1239.8</ele>
        <time>2022-08-13T14:52:30Z</time>
      </trkpt>
      <trkpt lat="4.5690620" lon="-75.7469620">
        <ele>1239.2</ele>
        <time>2022-08-13T14:52:32Z</time>
      </trkpt>
      <trkpt lat="4.5690360" lon="-75.7470740">
        <ele>1238.4</ele>
        <time>2022-08-13T14:52:35Z</time>
      </trkpt>
      <trkpt lat="4.5690110" lon="-75.7471590">
        <ele>1238.0</ele>
        <time>2022-08-13T14:52:37Z</time>
      </trkpt>
      <trkpt lat="4.5689680" lon="-75.7473090">
        <ele>1237.4</ele>
        <time>2022-08-13T14:52:41Z</time>
      </trkpt>
      <trkpt lat="4.5689410" lon="-75.7473910">
        <ele>1237.0</ele>
        <time>2022-08-13T14:52:43Z</time>
      </trkpt>
      <trkpt lat="4.5689140" lon="-75.7474670">
        <ele>1236.8</ele>
        <time>2022-08-13T14:52:45Z</time>
      </trkpt>
      <trkpt lat="4.5688650" lon="-75.7476070">
        <ele>1236.2</ele>
        <time>2022-08-13T14:52:48Z</time>
      </trkpt>
      <trkpt lat="4.5688500" lon="-75.7476570">
        <ele>1236.2</ele>
        <time>2022-08-13T14:52:49Z</time>
      </trkpt>
      <trkpt lat="4.5688180" lon="-75.7477630">
        <ele>1236.0</ele>
        <time>2022-08-13T14:52:51Z</time>
      </trkpt>
      <trkpt lat="4.5687580" lon="-75.7479740">
        <ele>1234.8</ele>
        <time>2022-08-13T14:52:56Z</time>
      </trkpt>
      <trkpt lat="4.5687290" lon="-75.7480780">
        <ele>1233.6</ele>
        <time>2022-08-13T14:52:59Z</time>
      </trkpt>
      <trkpt lat="4.5687000" lon="-75.7481680">
        <ele>1232.2</ele>
        <time>2022-08-13T14:53:02Z</time>
      </trkpt>
      <trkpt lat="4.5686910" lon="-75.7481950">
        <ele>1232.2</ele>
        <time>2022-08-13T14:53:03Z</time>
      </trkpt>
      <trkpt lat="4.5686760" lon="-75.7482460">
        <ele>1231.0</ele>
        <time>2022-08-13T14:53:05Z</time>
      </trkpt>
      <trkpt lat="4.5686690" lon="-75.7482700">
        <ele>1230.6</ele>
        <time>2022-08-13T14:53:06Z</time>
      </trkpt>
      <trkpt lat="4.5686580" lon="-75.7483130">
        <ele>1229.6</ele>
        <time>2022-08-13T14:53:08Z</time>
      </trkpt>
      <trkpt lat="4.5686400" lon="-75.7483650">
        <ele>1228.4</ele>
        <time>2022-08-13T14:53:11Z</time>
      </trkpt>
      <trkpt lat="4.5686250" lon="-75.7484120">
        <ele>1227.0</ele>
        <time>2022-08-13T14:53:14Z</time>
      </trkpt>
      <trkpt lat="4.5686130" lon="-75.7484620">
        <ele>1226.0</ele>
        <time>2022-08-13T14:53:17Z</time>
      </trkpt>
      <trkpt lat="4.5686030" lon="-75.7485120">
        <ele>1224.8</ele>
        <time>2022-08-13T14:53:20Z</time>
      </trkpt>
      <trkpt lat="4.5685830" lon="-75.7485500">
        <ele>1223.8</ele>
        <time>2022-08-13T14:53:23Z</time>
      </trkpt>
      <trkpt lat="4.5685650" lon="-75.7485760">
        <ele>1223.2</ele>
        <time>2022-08-13T14:53:25Z</time>
      </trkpt>
      <trkpt lat="4.5685560" lon="-75.7485810">
        <ele>1223.2</ele>
        <time>2022-08-13T14:53:26Z</time>
      </trkpt>
      <trkpt lat="4.5685520" lon="-75.7485810">
        <ele>1222.6</ele>
        <time>2022-08-13T14:53:28Z</time>
      </trkpt>
      <trkpt lat="4.5685520" lon="-75.7485810">
        <ele>1221.2</ele>
        <time>2022-08-13T14:53:31Z</time>
      </trkpt>
      <trkpt lat="4.5685520" lon="-75.7485810">
        <ele>1220.0</ele>
        <time>2022-08-13T14:53:34Z</time>
      </trkpt>
      <trkpt lat="4.5685520" lon="-75.7485810">
        <ele>1219.0</ele>
        <time>2022-08-13T14:53:37Z</time>
      </trkpt>
      <trkpt lat="4.5685520" lon="-75.7485810">
        <ele>1217.8</ele>
        <time>2022-08-13T14:53:40Z</time>
      </trkpt>
      <trkpt lat="4.5685520" lon="-75.7485810">
        <ele>1216.6</ele>
        <time>2022-08-13T14:53:43Z</time>
      </trkpt>
      <trkpt lat="4.5685520" lon="-75.7485810">
        <ele>1215.2</ele>
        <time>2022-08-13T14:53:46Z</time>
      </trkpt>
      <trkpt lat="4.5685520" lon="-75.7485810">
        <ele>1213.8</ele>
        <time>2022-08-13T14:53:49Z</time>
      </trkpt>
      <trkpt lat="4.5685520" lon="-75.7485810">
        <ele>1212.8</ele>
        <time>2022-08-13T14:53:52Z</time>
      </trkpt>
      <trkpt lat="4.5685520" lon="-75.7485810">
        <ele>1211.4</ele>
        <time>2022-08-13T14:53:54Z</time>
      </trkpt>
      <trkpt lat="4.5685530" lon="-75.7485800">
        <ele>1210.4</ele>
        <time>2022-08-13T14:53:56Z</time>
      </trkpt>
      <trkpt lat="4.5685860" lon="-75.7485000">
        <ele>1209.0</ele>
        <time>2022-08-13T14:53:59Z</time>
      </trkpt>
      <trkpt lat="4.5686190" lon="-75.7483790">
        <ele>1207.6</ele>
        <time>2022-08-13T14:54:02Z</time>
      </trkpt>
      <trkpt lat="4.5686450" lon="-75.7482890">
        <ele>1206.6</ele>
        <time>2022-08-13T14:54:04Z</time>
      </trkpt>
      <trkpt lat="4.5686750" lon="-75.7481960">
        <ele>1205.6</ele>
        <time>2022-08-13T14:54:06Z</time>
      </trkpt>
      <trkpt lat="4.5686900" lon="-75.7481500">
        <ele>1204.8</ele>
        <time>2022-08-13T14:54:07Z</time>
      </trkpt>
      <trkpt lat="4.5687160" lon="-75.7480530">
        <ele>1203.6</ele>
        <time>2022-08-13T14:54:09Z</time>
      </trkpt>
      <trkpt lat="4.5687640" lon="-75.7478950">
        <ele>1202.4</ele>
        <time>2022-08-13T14:54:12Z</time>
      </trkpt>
      <trkpt lat="4.5688210" lon="-75.7476910">
        <ele>1201.0</ele>
        <time>2022-08-13T14:54:16Z</time>
      </trkpt>
      <trkpt lat="4.5688650" lon="-75.7475480">
        <ele>1199.6</ele>
        <time>2022-08-13T14:54:19Z</time>
      </trkpt>
      <trkpt lat="4.5689010" lon="-75.7474240">
        <ele>1198.4</ele>
        <time>2022-08-13T14:54:22Z</time>
      </trkpt>
      <trkpt lat="4.5689140" lon="-75.7473880">
        <ele>1197.8</ele>
        <time>2022-08-13T14:54:23Z</time>
      </trkpt>
      <trkpt lat="4.5689240" lon="-75.7473170">
        <ele>1197.0</ele>
        <time>2022-08-13T14:54:25Z</time>
      </trkpt>
      <trkpt lat="4.5689200" lon="-75.7472870">
        <ele>1196.6</ele>
        <time>2022-08-13T14:54:26Z</time>
      </trkpt>
      <trkpt lat="4.5688990" lon="-75.7472670">
        <ele>1196.4</ele>
        <time>2022-08-13T14:54:27Z</time>
      </trkpt>
      <trkpt lat="4.5688670" lon="-75.7472560">
        <ele>1196.0</ele>
        <time>2022-08-13T14:54:28Z</time>
      </trkpt>
      <trkpt lat="4.5687220" lon="-75.7472120">
        <ele>1194.6</ele>
        <time>2022-08-13T14:54:32Z</time>
      </trkpt>
      <trkpt lat="4.5686860" lon="-75.7472000">
        <ele>1194.4</ele>
        <time>2022-08-13T14:54:33Z</time>
      </trkpt>
      <trkpt lat="4.5685120" lon="-75.7471550">
        <ele>1193.6</ele>
        <time>2022-08-13T14:54:38Z</time>
      </trkpt>
      <trkpt lat="4.5684810" lon="-75.7471530">
        <ele>1193.4</ele>
        <time>2022-08-13T14:54:39Z</time>
      </trkpt>
      <trkpt lat="4.5684190" lon="-75.7471710">
        <ele>1192.6</ele>
        <time>2022-08-13T14:54:41Z</time>
      </trkpt>
      <trkpt lat="4.5683970" lon="-75.7472010">
        <ele>1192.4</ele>
        <time>2022-08-13T14:54:42Z</time>
      </trkpt>
      <trkpt lat="4.5683850" lon="-75.7472400">
        <ele>1192.0</ele>
        <time>2022-08-13T14:54:43Z</time>
      </trkpt>
      <trkpt lat="4.5683470" lon="-75.7473820">
        <ele>1191.2</ele>
        <time>2022-08-13T14:54:46Z</time>
      </trkpt>
      <trkpt lat="4.5682920" lon="-75.7475980">
        <ele>1190.0</ele>
        <time>2022-08-13T14:54:50Z</time>
      </trkpt>
      <trkpt lat="4.5682650" lon="-75.7476950">
        <ele>1189.6</ele>
        <time>2022-08-13T14:54:52Z</time>
      </trkpt>
      <trkpt lat="4.5682410" lon="-75.7477860">
        <ele>1189.0</ele>
        <time>2022-08-13T14:54:54Z</time>
      </trkpt>
      <trkpt lat="4.5682320" lon="-75.7478300">
        <ele>1188.8</ele>
        <time>2022-08-13T14:54:55Z</time>
      </trkpt>
      <trkpt lat="4.5682120" lon="-75.7478970">
        <ele>1188.4</ele>
        <time>2022-08-13T14:54:57Z</time>
      </trkpt>
      <trkpt lat="4.5681520" lon="-75.7480620">
        <ele>1188.0</ele>
        <time>2022-08-13T14:55:03Z</time>
      </trkpt>
      <trkpt lat="4.5680990" lon="-75.7482270">
        <ele>1187.4</ele>
        <time>2022-08-13T14:55:09Z</time>
      </trkpt>
      <trkpt lat="4.5680920" lon="-75.7482550">
        <ele>1187.2</ele>
        <time>2022-08-13T14:55:10Z</time>
      </trkpt>
      <trkpt lat="4.5680630" lon="-75.7483770">
        <ele>1186.0</ele>
        <time>2022-08-13T14:55:15Z</time>
      </trkpt>
      <trkpt lat="4.5680510" lon="-75.7484220">
        <ele>1185.6</ele>
        <time>2022-08-13T14:55:17Z</time>
      </trkpt>
      <trkpt lat="4.5680350" lon="-75.7484950">
        <ele>1185.0</ele>
        <time>2022-08-13T14:55:20Z</time>
      </trkpt>
      <trkpt lat="4.5680080" lon="-75.7485960">
        <ele>1184.0</ele>
        <time>2022-08-13T14:55:24Z</time>
      </trkpt>
      <trkpt lat="4.5680000" lon="-75.7486230">
        <ele>1183.6</ele>
        <time>2022-08-13T14:55:25Z</time>
      </trkpt>
      <trkpt lat="4.5679660" lon="-75.7487340">
        <ele>1182.8</ele>
        <time>2022-08-13T14:55:29Z</time>
      </trkpt>
      <trkpt lat="4.5679590" lon="-75.7487600">
        <ele>1182.4</ele>
        <time>2022-08-13T14:55:30Z</time>
      </trkpt>
      <trkpt lat="4.5679260" lon="-75.7488690">
        <ele>1181.2</ele>
        <time>2022-08-13T14:55:34Z</time>
      </trkpt>
      <trkpt lat="4.5679180" lon="-75.7488960">
        <ele>1181.0</ele>
        <time>2022-08-13T14:55:35Z</time>
      </trkpt>
      <trkpt lat="4.5678900" lon="-75.7489800">
        <ele>1180.0</ele>
        <time>2022-08-13T14:55:38Z</time>
      </trkpt>
      <trkpt lat="4.5678190" lon="-75.7492060">
        <ele>1179.4</ele>
        <time>2022-08-13T14:55:46Z</time>
      </trkpt>
      <trkpt lat="4.5677460" lon="-75.7494580">
        <ele>1180.0</ele>
        <time>2022-08-13T14:55:54Z</time>
      </trkpt>
      <trkpt lat="4.5677160" lon="-75.7495550">
        <ele>1180.6</ele>
        <time>2022-08-13T14:55:57Z</time>
      </trkpt>
      <trkpt lat="4.5676940" lon="-75.7496210">
        <ele>1181.2</ele>
        <time>2022-08-13T14:55:59Z</time>
      </trkpt>
      <trkpt lat="4.5676830" lon="-75.7496810">
        <ele>1181.6</ele>
        <time>2022-08-13T14:56:01Z</time>
      </trkpt>
      <trkpt lat="4.5676520" lon="-75.7497750">
        <ele>1182.2</ele>
        <time>2022-08-13T14:56:04Z</time>
      </trkpt>
      <trkpt lat="4.5676420" lon="-75.7498120">
        <ele>1182.4</ele>
        <time>2022-08-13T14:56:05Z</time>
      </trkpt>
      <trkpt lat="4.5676260" lon="-75.7498510">
        <ele>1182.6</ele>
        <time>2022-08-13T14:56:06Z</time>
      </trkpt>
      <trkpt lat="4.5676010" lon="-75.7499720">
        <ele>1183.2</ele>
        <time>2022-08-13T14:56:09Z</time>
      </trkpt>
      <trkpt lat="4.5675820" lon="-75.7500490">
        <ele>1183.6</ele>
        <time>2022-08-13T14:56:11Z</time>
      </trkpt>
      <trkpt lat="4.5675500" lon="-75.7501560">
        <ele>1183.8</ele>
        <time>2022-08-13T14:56:14Z</time>
      </trkpt>
      <trkpt lat="4.5675200" lon="-75.7502640">
        <ele>1184.4</ele>
        <time>2022-08-13T14:56:17Z</time>
      </trkpt>
      <trkpt lat="4.5675170" lon="-75.7503020">
        <ele>1184.6</ele>
        <time>2022-08-13T14:56:18Z</time>
      </trkpt>
      <trkpt lat="4.5675110" lon="-75.7503830">
        <ele>1184.6</ele>
        <time>2022-08-13T14:56:20Z</time>
      </trkpt>
      <trkpt lat="4.5674470" lon="-75.7505470">
        <ele>1184.8</ele>
        <time>2022-08-13T14:56:24Z</time>
      </trkpt>
      <trkpt lat="4.5674260" lon="-75.7506690">
        <ele>1184.8</ele>
        <time>2022-08-13T14:56:27Z</time>
      </trkpt>
      <trkpt lat="4.5674150" lon="-75.7507130">
        <ele>1184.4</ele>
        <time>2022-08-13T14:56:28Z</time>
      </trkpt>
      <trkpt lat="4.5673910" lon="-75.7508000">
        <ele>1184.2</ele>
        <time>2022-08-13T14:56:30Z</time>
      </trkpt>
      <trkpt lat="4.5673840" lon="-75.7508420">
        <ele>1184.2</ele>
        <time>2022-08-13T14:56:31Z</time>
      </trkpt>
      <trkpt lat="4.5673240" lon="-75.7510600">
        <ele>1184.0</ele>
        <time>2022-08-13T14:56:36Z</time>
      </trkpt>
      <trkpt lat="4.5672250" lon="-75.7513660">
        <ele>1184.0</ele>
        <time>2022-08-13T14:56:42Z</time>
      </trkpt>
      <trkpt lat="4.5672000" lon="-75.7514710">
        <ele>1184.0</ele>
        <time>2022-08-13T14:56:44Z</time>
      </trkpt>
      <trkpt lat="4.5670810" lon="-75.7518480">
        <ele>1184.2</ele>
        <time>2022-08-13T14:56:51Z</time>
      </trkpt>
      <trkpt lat="4.5670400" lon="-75.7520010">
        <ele>1184.4</ele>
        <time>2022-08-13T14:56:54Z</time>
      </trkpt>
      <trkpt lat="4.5670220" lon="-75.7520500">
        <ele>1184.4</ele>
        <time>2022-08-13T14:56:55Z</time>
      </trkpt>
      <trkpt lat="4.5669630" lon="-75.7522350">
        <ele>1185.8</ele>
        <time>2022-08-13T14:56:59Z</time>
      </trkpt>
      <trkpt lat="4.5669460" lon="-75.7522920">
        <ele>1186.2</ele>
        <time>2022-08-13T14:57:00Z</time>
      </trkpt>
      <trkpt lat="4.5669210" lon="-75.7524040">
        <ele>1187.0</ele>
        <time>2022-08-13T14:57:02Z</time>
      </trkpt>
      <trkpt lat="4.5668860" lon="-75.7525180">
        <ele>1187.4</ele>
        <time>2022-08-13T14:57:04Z</time>
      </trkpt>
      <trkpt lat="4.5668560" lon="-75.7526220">
        <ele>1188.0</ele>
        <time>2022-08-13T14:57:06Z</time>
      </trkpt>
      <trkpt lat="4.5668120" lon="-75.7527530">
        <ele>1189.2</ele>
        <time>2022-08-13T14:57:09Z</time>
      </trkpt>
      <trkpt lat="4.5667910" lon="-75.7528440">
        <ele>1189.6</ele>
        <time>2022-08-13T14:57:11Z</time>
      </trkpt>
      <trkpt lat="4.5667830" lon="-75.7528880">
        <ele>1189.6</ele>
        <time>2022-08-13T14:57:12Z</time>
      </trkpt>
      <trkpt lat="4.5667710" lon="-75.7529300">
        <ele>1189.6</ele>
        <time>2022-08-13T14:57:13Z</time>
      </trkpt>
      <trkpt lat="4.5667570" lon="-75.7529690">
        <ele>1189.6</ele>
        <time>2022-08-13T14:57:14Z</time>
      </trkpt>
      <trkpt lat="4.5667100" lon="-75.7531000">
        <ele>1189.6</ele>
        <time>2022-08-13T14:57:17Z</time>
      </trkpt>
      <trkpt lat="4.5666830" lon="-75.7531880">
        <ele>1189.6</ele>
        <time>2022-08-13T14:57:19Z</time>
      </trkpt>
      <trkpt lat="4.5666100" lon="-75.7534740">
        <ele>1188.8</ele>
        <time>2022-08-13T14:57:27Z</time>
      </trkpt>
      <trkpt lat="4.5665640" lon="-75.7536110">
        <ele>1188.0</ele>
        <time>2022-08-13T14:57:30Z</time>
      </trkpt>
      <trkpt lat="4.5665490" lon="-75.7536650">
        <ele>1188.0</ele>
        <time>2022-08-13T14:57:31Z</time>
      </trkpt>
      <trkpt lat="4.5664690" lon="-75.7539620">
        <ele>1187.6</ele>
        <time>2022-08-13T14:57:36Z</time>
      </trkpt>
      <trkpt lat="4.5664540" lon="-75.7540090">
        <ele>1187.4</ele>
        <time>2022-08-13T14:57:37Z</time>
      </trkpt>
      <trkpt lat="4.5664060" lon="-75.7541550">
        <ele>1187.0</ele>
        <time>2022-08-13T14:57:41Z</time>
      </trkpt>
      <trkpt lat="4.5663440" lon="-75.7543670">
        <ele>1187.0</ele>
        <time>2022-08-13T14:57:45Z</time>
      </trkpt>
      <trkpt lat="4.5662610" lon="-75.7546850">
        <ele>1188.0</ele>
        <time>2022-08-13T14:57:50Z</time>
      </trkpt>
      <trkpt lat="4.5662490" lon="-75.7547500">
        <ele>1188.0</ele>
        <time>2022-08-13T14:57:51Z</time>
      </trkpt>
      <trkpt lat="4.5662350" lon="-75.7548150">
        <ele>1188.2</ele>
        <time>2022-08-13T14:57:52Z</time>
      </trkpt>
      <trkpt lat="4.5661670" lon="-75.7550340">
        <ele>1188.6</ele>
        <time>2022-08-13T14:57:55Z</time>
      </trkpt>
      <trkpt lat="4.5661000" lon="-75.7552750">
        <ele>1189.0</ele>
        <time>2022-08-13T14:57:58Z</time>
      </trkpt>
      <trkpt lat="4.5660500" lon="-75.7554460">
        <ele>1189.4</ele>
        <time>2022-08-13T14:58:00Z</time>
      </trkpt>
      <trkpt lat="4.5660180" lon="-75.7555280">
        <ele>1189.6</ele>
        <time>2022-08-13T14:58:01Z</time>
      </trkpt>
      <trkpt lat="4.5658940" lon="-75.7559050">
        <ele>1189.6</ele>
        <time>2022-08-13T14:58:06Z</time>
      </trkpt>
      <trkpt lat="4.5658150" lon="-75.7562480">
        <ele>1189.4</ele>
        <time>2022-08-13T14:58:11Z</time>
      </trkpt>
      <trkpt lat="4.5657780" lon="-75.7563720">
        <ele>1189.6</ele>
        <time>2022-08-13T14:58:13Z</time>
      </trkpt>
      <trkpt lat="4.5657330" lon="-75.7565270">
        <ele>1189.4</ele>
        <time>2022-08-13T14:58:16Z</time>
      </trkpt>
      <trkpt lat="4.5657210" lon="-75.7565650">
        <ele>1189.4</ele>
        <time>2022-08-13T14:58:17Z</time>
      </trkpt>
      <trkpt lat="4.5657020" lon="-75.7566280">
        <ele>1189.6</ele>
        <time>2022-08-13T14:58:19Z</time>
      </trkpt>
      <trkpt lat="4.5657050" lon="-75.7566810">
        <ele>1189.4</ele>
        <time>2022-08-13T14:58:21Z</time>
      </trkpt>
      <trkpt lat="4.5657420" lon="-75.7567020">
        <ele>1189.2</ele>
        <time>2022-08-13T14:58:23Z</time>
      </trkpt>
      <trkpt lat="4.5657630" lon="-75.7567050">
        <ele>1189.2</ele>
        <time>2022-08-13T14:58:24Z</time>
      </trkpt>
      <trkpt lat="4.5658270" lon="-75.7567210">
        <ele>1189.2</ele>
        <time>2022-08-13T14:58:27Z</time>
      </trkpt>
      <trkpt lat="4.5658440" lon="-75.7567310">
        <ele>1189.0</ele>
        <time>2022-08-13T14:58:28Z</time>
      </trkpt>
      <trkpt lat="4.5658620" lon="-75.7567340">
        <ele>1188.8</ele>
        <time>2022-08-13T14:58:29Z</time>
      </trkpt>
      <trkpt lat="4.5658850" lon="-75.7567370">
        <ele>1188.4</ele>
        <time>2022-08-13T14:58:30Z</time>
      </trkpt>
      <trkpt lat="4.5659800" lon="-75.7567590">
        <ele>1187.2</ele>
        <time>2022-08-13T14:58:34Z</time>
      </trkpt>
      <trkpt lat="4.5660540" lon="-75.7567650">
        <ele>1186.0</ele>
        <time>2022-08-13T14:58:37Z</time>
      </trkpt>
      <trkpt lat="4.5661420" lon="-75.7567870">
        <ele>1184.6</ele>
        <time>2022-08-13T14:58:41Z</time>
      </trkpt>
      <trkpt lat="4.5661910" lon="-75.7568060">
        <ele>1183.8</ele>
        <time>2022-08-13T14:58:43Z</time>
      </trkpt>
      <trkpt lat="4.5662120" lon="-75.7568160">
        <ele>1183.6</ele>
        <time>2022-08-13T14:58:44Z</time>
      </trkpt>
      <trkpt lat="4.5662760" lon="-75.7568360">
        <ele>1182.2</ele>
        <time>2022-08-13T14:58:47Z</time>
      </trkpt>
      <trkpt lat="4.5663470" lon="-75.7568520">
        <ele>1180.8</ele>
        <time>2022-08-13T14:58:50Z</time>
      </trkpt>
      <trkpt lat="4.5664110" lon="-75.7568600">
        <ele>1179.4</ele>
        <time>2022-08-13T14:58:53Z</time>
      </trkpt>
      <trkpt lat="4.5664480" lon="-75.7568670">
        <ele>1178.4</ele>
        <time>2022-08-13T14:58:55Z</time>
      </trkpt>
      <trkpt lat="4.5665050" lon="-75.7568770">
        <ele>1176.8</ele>
        <time>2022-08-13T14:58:58Z</time>
      </trkpt>
      <trkpt lat="4.5665170" lon="-75.7568770">
        <ele>1176.2</ele>
        <time>2022-08-13T14:58:59Z</time>
      </trkpt>
      <trkpt lat="4.5665380" lon="-75.7568860">
        <ele>1175.4</ele>
        <time>2022-08-13T14:59:01Z</time>
      </trkpt>
      <trkpt lat="4.5665750" lon="-75.7569360">
        <ele>1174.2</ele>
        <time>2022-08-13T14:59:04Z</time>
      </trkpt>
      <trkpt lat="4.5665870" lon="-75.7569570">
        <ele>1173.8</ele>
        <time>2022-08-13T14:59:05Z</time>
      </trkpt>
      <trkpt lat="4.5666190" lon="-75.7570950">
        <ele>1173.4</ele>
        <time>2022-08-13T14:59:11Z</time>
      </trkpt>
      <trkpt lat="4.5666030" lon="-75.7573030">
        <ele>1172.4</ele>
        <time>2022-08-13T14:59:18Z</time>
      </trkpt>
      <trkpt lat="4.5665350" lon="-75.7575890">
        <ele>1172.0</ele>
        <time>2022-08-13T14:59:26Z</time>
      </trkpt>
      <trkpt lat="4.5663920" lon="-75.7578800">
        <ele>1171.6</ele>
        <time>2022-08-13T14:59:34Z</time>
      </trkpt>
      <trkpt lat="4.5662380" lon="-75.7581000">
        <ele>1171.2</ele>
        <time>2022-08-13T14:59:42Z</time>
      </trkpt>
      <trkpt lat="4.5660760" lon="-75.7583070">
        <ele>1171.0</ele>
        <time>2022-08-13T14:59:51Z</time>
      </trkpt>
      <trkpt lat="4.5658930" lon="-75.7585190">
        <ele>1170.0</ele>
        <time>2022-08-13T15:00:01Z</time>
      </trkpt>
      <trkpt lat="4.5657110" lon="-75.7586510">
        <ele>1168.6</ele>
        <time>2022-08-13T15:00:08Z</time>
      </trkpt>
      <trkpt lat="4.5655560" lon="-75.7587370">
        <ele>1167.0</ele>
        <time>2022-08-13T15:00:13Z</time>
      </trkpt>
      <trkpt lat="4.5654820" lon="-75.7587680">
        <ele>1166.4</ele>
        <time>2022-08-13T15:00:15Z</time>
      </trkpt>
      <trkpt lat="4.5653140" lon="-75.7588230">
        <ele>1165.8</ele>
        <time>2022-08-13T15:00:19Z</time>
      </trkpt>
      <trkpt lat="4.5651670" lon="-75.7588530">
        <ele>1164.2</ele>
        <time>2022-08-13T15:00:22Z</time>
      </trkpt>
      <trkpt lat="4.5650710" lon="-75.7588740">
        <ele>1163.0</ele>
        <time>2022-08-13T15:00:24Z</time>
      </trkpt>
      <trkpt lat="4.5649810" lon="-75.7589010">
        <ele>1161.6</ele>
        <time>2022-08-13T15:00:26Z</time>
      </trkpt>
      <trkpt lat="4.5648680" lon="-75.7589270">
        <ele>1160.4</ele>
        <time>2022-08-13T15:00:28Z</time>
      </trkpt>
      <trkpt lat="4.5647660" lon="-75.7589500">
        <ele>1159.2</ele>
        <time>2022-08-13T15:00:30Z</time>
      </trkpt>
      <trkpt lat="4.5646980" lon="-75.7589660">
        <ele>1158.8</ele>
        <time>2022-08-13T15:00:31Z</time>
      </trkpt>
      <trkpt lat="4.5645280" lon="-75.7590040">
        <ele>1157.4</ele>
        <time>2022-08-13T15:00:34Z</time>
      </trkpt>
      <trkpt lat="4.5644640" lon="-75.7590160">
        <ele>1156.8</ele>
        <time>2022-08-13T15:00:35Z</time>
      </trkpt>
      <trkpt lat="4.5643190" lon="-75.7590500">
        <ele>1155.8</ele>
        <time>2022-08-13T15:00:37Z</time>
      </trkpt>
      <trkpt lat="4.5641220" lon="-75.7591000">
        <ele>1154.6</ele>
        <time>2022-08-13T15:00:40Z</time>
      </trkpt>
      <trkpt lat="4.5639680" lon="-75.7591570">
        <ele>1154.4</ele>
        <time>2022-08-13T15:00:42Z</time>
      </trkpt>
      <trkpt lat="4.5637000" lon="-75.7593180">
        <ele>1153.4</ele>
        <time>2022-08-13T15:00:46Z</time>
      </trkpt>
      <trkpt lat="4.5636240" lon="-75.7593860">
        <ele>1153.4</ele>
        <time>2022-08-13T15:00:47Z</time>
      </trkpt>
      <trkpt lat="4.5634070" lon="-75.7596200">
        <ele>1153.4</ele>
        <time>2022-08-13T15:00:51Z</time>
      </trkpt>
      <trkpt lat="4.5632870" lon="-75.7597570">
        <ele>1153.4</ele>
        <time>2022-08-13T15:00:53Z</time>
      </trkpt>
      <trkpt lat="4.5631440" lon="-75.7599220">
        <ele>1153.6</ele>
        <time>2022-08-13T15:00:56Z</time>
      </trkpt>
      <trkpt lat="4.5630940" lon="-75.7599800">
        <ele>1154.0</ele>
        <time>2022-08-13T15:00:57Z</time>
      </trkpt>
      <trkpt lat="4.5629360" lon="-75.7601630">
        <ele>1155.2</ele>
        <time>2022-08-13T15:01:00Z</time>
      </trkpt>
      <trkpt lat="4.5628980" lon="-75.7602070">
        <ele>1155.4</ele>
        <time>2022-08-13T15:01:01Z</time>
      </trkpt>
      <trkpt lat="4.5628530" lon="-75.7602610">
        <ele>1156.0</ele>
        <time>2022-08-13T15:01:02Z</time>
      </trkpt>
      <trkpt lat="4.5627530" lon="-75.7603860">
        <ele>1157.0</ele>
        <time>2022-08-13T15:01:04Z</time>
      </trkpt>
      <trkpt lat="4.5626350" lon="-75.7605460">
        <ele>1157.8</ele>
        <time>2022-08-13T15:01:07Z</time>
      </trkpt>
      <trkpt lat="4.5625470" lon="-75.7606640">
        <ele>1158.8</ele>
        <time>2022-08-13T15:01:09Z</time>
      </trkpt>
      <trkpt lat="4.5624370" lon="-75.7608090">
        <ele>1160.2</ele>
        <time>2022-08-13T15:01:12Z</time>
      </trkpt>
      <trkpt lat="4.5623170" lon="-75.7609670">
        <ele>1161.6</ele>
        <time>2022-08-13T15:01:15Z</time>
      </trkpt>
      <trkpt lat="4.5622450" lon="-75.7610520">
        <ele>1162.2</ele>
        <time>2022-08-13T15:01:17Z</time>
      </trkpt>
      <trkpt lat="4.5622030" lon="-75.7610990">
        <ele>1162.6</ele>
        <time>2022-08-13T15:01:18Z</time>
      </trkpt>
      <trkpt lat="4.5621050" lon="-75.7612040">
        <ele>1163.6</ele>
        <time>2022-08-13T15:01:20Z</time>
      </trkpt>
      <trkpt lat="4.5620160" lon="-75.7612940">
        <ele>1165.2</ele>
        <time>2022-08-13T15:01:22Z</time>
      </trkpt>
      <trkpt lat="4.5618940" lon="-75.7614120">
        <ele>1167.2</ele>
        <time>2022-08-13T15:01:24Z</time>
      </trkpt>
      <trkpt lat="4.5618330" lon="-75.7614670">
        <ele>1168.2</ele>
        <time>2022-08-13T15:01:25Z</time>
      </trkpt>
      <trkpt lat="4.5617060" lon="-75.7615770">
        <ele>1169.8</ele>
        <time>2022-08-13T15:01:27Z</time>
      </trkpt>
      <trkpt lat="4.5615860" lon="-75.7616810">
        <ele>1171.6</ele>
        <time>2022-08-13T15:01:29Z</time>
      </trkpt>
      <trkpt lat="4.5614330" lon="-75.7617990">
        <ele>1172.4</ele>
        <time>2022-08-13T15:01:31Z</time>
      </trkpt>
      <trkpt lat="4.5613560" lon="-75.7618460">
        <ele>1173.2</ele>
        <time>2022-08-13T15:01:32Z</time>
      </trkpt>
      <trkpt lat="4.5612120" lon="-75.7619060">
        <ele>1174.8</ele>
        <time>2022-08-13T15:01:34Z</time>
      </trkpt>
      <trkpt lat="4.5611130" lon="-75.7619370">
        <ele>1175.6</ele>
        <time>2022-08-13T15:01:35Z</time>
      </trkpt>
      <trkpt lat="4.5610310" lon="-75.7619570">
        <ele>1176.6</ele>
        <time>2022-08-13T15:01:36Z</time>
      </trkpt>
      <trkpt lat="4.5608860" lon="-75.7619860">
        <ele>1178.0</ele>
        <time>2022-08-13T15:01:38Z</time>
      </trkpt>
      <trkpt lat="4.5607150" lon="-75.7620030">
        <ele>1179.4</ele>
        <time>2022-08-13T15:01:40Z</time>
      </trkpt>
      <trkpt lat="4.5605740" lon="-75.7620040">
        <ele>1181.0</ele>
        <time>2022-08-13T15:01:42Z</time>
      </trkpt>
      <trkpt lat="4.5604560" lon="-75.7620110">
        <ele>1182.4</ele>
        <time>2022-08-13T15:01:44Z</time>
      </trkpt>
      <trkpt lat="4.5603200" lon="-75.7620160">
        <ele>1183.8</ele>
        <time>2022-08-13T15:01:46Z</time>
      </trkpt>
      <trkpt lat="4.5602000" lon="-75.7620210">
        <ele>1185.0</ele>
        <time>2022-08-13T15:01:48Z</time>
      </trkpt>
      <trkpt lat="4.5600970" lon="-75.7620210">
        <ele>1186.6</ele>
        <time>2022-08-13T15:01:50Z</time>
      </trkpt>
      <trkpt lat="4.5599720" lon="-75.7620300">
        <ele>1188.2</ele>
        <time>2022-08-13T15:01:52Z</time>
      </trkpt>
      <trkpt lat="4.5599140" lon="-75.7620340">
        <ele>1188.8</ele>
        <time>2022-08-13T15:01:53Z</time>
      </trkpt>
      <trkpt lat="4.5598660" lon="-75.7620350">
        <ele>1189.6</ele>
        <time>2022-08-13T15:01:54Z</time>
      </trkpt>
      <trkpt lat="4.5596680" lon="-75.7620480">
        <ele>1191.0</ele>
        <time>2022-08-13T15:01:57Z</time>
      </trkpt>
      <trkpt lat="4.5595350" lon="-75.7620600">
        <ele>1192.2</ele>
        <time>2022-08-13T15:01:59Z</time>
      </trkpt>
      <trkpt lat="4.5594080" lon="-75.7620740">
        <ele>1193.4</ele>
        <time>2022-08-13T15:02:01Z</time>
      </trkpt>
      <trkpt lat="4.5593220" lon="-75.7620810">
        <ele>1194.0</ele>
        <time>2022-08-13T15:02:02Z</time>
      </trkpt>
      <trkpt lat="4.5592470" lon="-75.7620870">
        <ele>1195.0</ele>
        <time>2022-08-13T15:02:03Z</time>
      </trkpt>
      <trkpt lat="4.5591120" lon="-75.7621030">
        <ele>1196.0</ele>
        <time>2022-08-13T15:02:05Z</time>
      </trkpt>
      <trkpt lat="4.5589370" lon="-75.7621310">
        <ele>1197.2</ele>
        <time>2022-08-13T15:02:07Z</time>
      </trkpt>
      <trkpt lat="4.5588520" lon="-75.7621490">
        <ele>1197.8</ele>
        <time>2022-08-13T15:02:08Z</time>
      </trkpt>
      <trkpt lat="4.5587670" lon="-75.7621730">
        <ele>1198.6</ele>
        <time>2022-08-13T15:02:09Z</time>
      </trkpt>
      <trkpt lat="4.5586160" lon="-75.7622180">
        <ele>1199.4</ele>
        <time>2022-08-13T15:02:11Z</time>
      </trkpt>
      <trkpt lat="4.5584370" lon="-75.7622820">
        <ele>1200.6</ele>
        <time>2022-08-13T15:02:13Z</time>
      </trkpt>
      <trkpt lat="4.5582800" lon="-75.7623460">
        <ele>1201.6</ele>
        <time>2022-08-13T15:02:15Z</time>
      </trkpt>
      <trkpt lat="4.5581210" lon="-75.7624120">
        <ele>1202.8</ele>
        <time>2022-08-13T15:02:17Z</time>
      </trkpt>
      <trkpt lat="4.5578970" lon="-75.7625130">
        <ele>1204.0</ele>
        <time>2022-08-13T15:02:20Z</time>
      </trkpt>
      <trkpt lat="4.5577220" lon="-75.7626110">
        <ele>1205.2</ele>
        <time>2022-08-13T15:02:22Z</time>
      </trkpt>
      <trkpt lat="4.5575770" lon="-75.7627320">
        <ele>1206.2</ele>
        <time>2022-08-13T15:02:24Z</time>
      </trkpt>
      <trkpt lat="4.5574500" lon="-75.7628790">
        <ele>1207.4</ele>
        <time>2022-08-13T15:02:26Z</time>
      </trkpt>
      <trkpt lat="4.5573430" lon="-75.7630440">
        <ele>1208.8</ele>
        <time>2022-08-13T15:02:28Z</time>
      </trkpt>
      <trkpt lat="4.5572550" lon="-75.7632030">
        <ele>1210.0</ele>
        <time>2022-08-13T15:02:30Z</time>
      </trkpt>
      <trkpt lat="4.5571590" lon="-75.7633910">
        <ele>1211.4</ele>
        <time>2022-08-13T15:02:32Z</time>
      </trkpt>
      <trkpt lat="4.5570700" lon="-75.7635600">
        <ele>1212.6</ele>
        <time>2022-08-13T15:02:34Z</time>
      </trkpt>
      <trkpt lat="4.5569780" lon="-75.7637240">
        <ele>1214.0</ele>
        <time>2022-08-13T15:02:36Z</time>
      </trkpt>
      <trkpt lat="4.5568820" lon="-75.7638770">
        <ele>1215.6</ele>
        <time>2022-08-13T15:02:38Z</time>
      </trkpt>
      <trkpt lat="4.5567820" lon="-75.7640320">
        <ele>1216.8</ele>
        <time>2022-08-13T15:02:40Z</time>
      </trkpt>
      <trkpt lat="4.5566810" lon="-75.7641860">
        <ele>1218.2</ele>
        <time>2022-08-13T15:02:42Z</time>
      </trkpt>
      <trkpt lat="4.5565420" lon="-75.7644000">
        <ele>1219.4</ele>
        <time>2022-08-13T15:02:45Z</time>
      </trkpt>
      <trkpt lat="4.5564330" lon="-75.7645720">
        <ele>1220.6</ele>
        <time>2022-08-13T15:02:47Z</time>
      </trkpt>
      <trkpt lat="4.5563360" lon="-75.7647330">
        <ele>1221.8</ele>
        <time>2022-08-13T15:02:49Z</time>
      </trkpt>
      <trkpt lat="4.5562290" lon="-75.7648980">
        <ele>1223.2</ele>
        <time>2022-08-13T15:02:51Z</time>
      </trkpt>
      <trkpt lat="4.5561210" lon="-75.7650610">
        <ele>1224.4</ele>
        <time>2022-08-13T15:02:53Z</time>
      </trkpt>
      <trkpt lat="4.5560080" lon="-75.7652150">
        <ele>1226.0</ele>
        <time>2022-08-13T15:02:55Z</time>
      </trkpt>
      <trkpt lat="4.5558960" lon="-75.7653530">
        <ele>1227.4</ele>
        <time>2022-08-13T15:02:57Z</time>
      </trkpt>
      <trkpt lat="4.5558370" lon="-75.7654180">
        <ele>1228.2</ele>
        <time>2022-08-13T15:02:58Z</time>
      </trkpt>
      <trkpt lat="4.5557760" lon="-75.7654790">
        <ele>1229.0</ele>
        <time>2022-08-13T15:02:59Z</time>
      </trkpt>
      <trkpt lat="4.5556520" lon="-75.7655920">
        <ele>1230.4</ele>
        <time>2022-08-13T15:03:01Z</time>
      </trkpt>
      <trkpt lat="4.5555350" lon="-75.7656870">
        <ele>1231.8</ele>
        <time>2022-08-13T15:03:03Z</time>
      </trkpt>
      <trkpt lat="4.5554680" lon="-75.7657350">
        <ele>1232.4</ele>
        <time>2022-08-13T15:03:04Z</time>
      </trkpt>
      <trkpt lat="4.5553820" lon="-75.7657930">
        <ele>1233.2</ele>
        <time>2022-08-13T15:03:05Z</time>
      </trkpt>
      <trkpt lat="4.5552290" lon="-75.7658890">
        <ele>1234.6</ele>
        <time>2022-08-13T15:03:07Z</time>
      </trkpt>
      <trkpt lat="4.5549710" lon="-75.7660150">
        <ele>1236.2</ele>
        <time>2022-08-13T15:03:10Z</time>
      </trkpt>
      <trkpt lat="4.5547800" lon="-75.7660900">
        <ele>1237.4</ele>
        <time>2022-08-13T15:03:12Z</time>
      </trkpt>
      <trkpt lat="4.5545830" lon="-75.7661670">
        <ele>1238.4</ele>
        <time>2022-08-13T15:03:14Z</time>
      </trkpt>
      <trkpt lat="4.5543900" lon="-75.7662380">
        <ele>1239.4</ele>
        <time>2022-08-13T15:03:16Z</time>
      </trkpt>
      <trkpt lat="4.5542940" lon="-75.7662780">
        <ele>1239.8</ele>
        <time>2022-08-13T15:03:17Z</time>
      </trkpt>
      <trkpt lat="4.5540160" lon="-75.7663940">
        <ele>1241.6</ele>
        <time>2022-08-13T15:03:20Z</time>
      </trkpt>
      <trkpt lat="4.5538420" lon="-75.7664670">
        <ele>1242.4</ele>
        <time>2022-08-13T15:03:22Z</time>
      </trkpt>
      <trkpt lat="4.5537710" lon="-75.7664990">
        <ele>1243.0</ele>
        <time>2022-08-13T15:03:23Z</time>
      </trkpt>
      <trkpt lat="4.5536700" lon="-75.7665540">
        <ele>1243.6</ele>
        <time>2022-08-13T15:03:24Z</time>
      </trkpt>
      <trkpt lat="4.5535900" lon="-75.7666080">
        <ele>1244.2</ele>
        <time>2022-08-13T15:03:25Z</time>
      </trkpt>
      <trkpt lat="4.5534560" lon="-75.7667220">
        <ele>1245.4</ele>
        <time>2022-08-13T15:03:27Z</time>
      </trkpt>
      <trkpt lat="4.5532810" lon="-75.7668820">
        <ele>1247.0</ele>
        <time>2022-08-13T15:03:29Z</time>
      </trkpt>
      <trkpt lat="4.5531150" lon="-75.7670320">
        <ele>1248.6</ele>
        <time>2022-08-13T15:03:31Z</time>
      </trkpt>
      <trkpt lat="4.5530300" lon="-75.7671070">
        <ele>1248.6</ele>
        <time>2022-08-13T15:03:32Z</time>
      </trkpt>
      <trkpt lat="4.5528410" lon="-75.7672450">
        <ele>1250.0</ele>
        <time>2022-08-13T15:03:34Z</time>
      </trkpt>
      <trkpt lat="4.5526400" lon="-75.7673620">
        <ele>1251.2</ele>
        <time>2022-08-13T15:03:36Z</time>
      </trkpt>
      <trkpt lat="4.5524580" lon="-75.7674480">
        <ele>1252.2</ele>
        <time>2022-08-13T15:03:38Z</time>
      </trkpt>
      <trkpt lat="4.5521390" lon="-75.7675690">
        <ele>1253.6</ele>
        <time>2022-08-13T15:03:41Z</time>
      </trkpt>
      <trkpt lat="4.5519580" lon="-75.7676350">
        <ele>1254.8</ele>
        <time>2022-08-13T15:03:43Z</time>
      </trkpt>
      <trkpt lat="4.5517890" lon="-75.7676970">
        <ele>1256.0</ele>
        <time>2022-08-13T15:03:45Z</time>
      </trkpt>
      <trkpt lat="4.5516510" lon="-75.7677450">
        <ele>1257.2</ele>
        <time>2022-08-13T15:03:47Z</time>
      </trkpt>
      <trkpt lat="4.5515000" lon="-75.7678050">
        <ele>1258.4</ele>
        <time>2022-08-13T15:03:49Z</time>
      </trkpt>
      <trkpt lat="4.5513840" lon="-75.7678490">
        <ele>1259.8</ele>
        <time>2022-08-13T15:03:51Z</time>
      </trkpt>
      <trkpt lat="4.5513240" lon="-75.7678730">
        <ele>1260.8</ele>
        <time>2022-08-13T15:03:52Z</time>
      </trkpt>
      <trkpt lat="4.5512500" lon="-75.7679020">
        <ele>1261.6</ele>
        <time>2022-08-13T15:03:53Z</time>
      </trkpt>
      <trkpt lat="4.5511370" lon="-75.7679530">
        <ele>1263.2</ele>
        <time>2022-08-13T15:03:55Z</time>
      </trkpt>
      <trkpt lat="4.5509710" lon="-75.7680420">
        <ele>1265.0</ele>
        <time>2022-08-13T15:03:58Z</time>
      </trkpt>
      <trkpt lat="4.5508610" lon="-75.7681060">
        <ele>1266.4</ele>
        <time>2022-08-13T15:04:00Z</time>
      </trkpt>
      <trkpt lat="4.5507600" lon="-75.7681610">
        <ele>1267.8</ele>
        <time>2022-08-13T15:04:02Z</time>
      </trkpt>
      <trkpt lat="4.5506270" lon="-75.7682410">
        <ele>1269.0</ele>
        <time>2022-08-13T15:04:04Z</time>
      </trkpt>
      <trkpt lat="4.5505090" lon="-75.7683080">
        <ele>1270.6</ele>
        <time>2022-08-13T15:04:06Z</time>
      </trkpt>
      <trkpt lat="4.5503570" lon="-75.7683920">
        <ele>1271.8</ele>
        <time>2022-08-13T15:04:08Z</time>
      </trkpt>
      <trkpt lat="4.5502160" lon="-75.7684770">
        <ele>1273.4</ele>
        <time>2022-08-13T15:04:10Z</time>
      </trkpt>
      <trkpt lat="4.5500820" lon="-75.7685510">
        <ele>1275.0</ele>
        <time>2022-08-13T15:04:12Z</time>
      </trkpt>
      <trkpt lat="4.5499860" lon="-75.7686010">
        <ele>1275.8</ele>
        <time>2022-08-13T15:04:13Z</time>
      </trkpt>
      <trkpt lat="4.5499040" lon="-75.7686390">
        <ele>1276.6</ele>
        <time>2022-08-13T15:04:14Z</time>
      </trkpt>
      <trkpt lat="4.5497510" lon="-75.7687010">
        <ele>1277.8</ele>
        <time>2022-08-13T15:04:16Z</time>
      </trkpt>
      <trkpt lat="4.5495540" lon="-75.7687670">
        <ele>1279.0</ele>
        <time>2022-08-13T15:04:18Z</time>
      </trkpt>
      <trkpt lat="4.5494590" lon="-75.7687950">
        <ele>1279.4</ele>
        <time>2022-08-13T15:04:19Z</time>
      </trkpt>
      <trkpt lat="4.5491830" lon="-75.7688760">
        <ele>1280.0</ele>
        <time>2022-08-13T15:04:22Z</time>
      </trkpt>
      <trkpt lat="4.5489130" lon="-75.7689590">
        <ele>1281.4</ele>
        <time>2022-08-13T15:04:25Z</time>
      </trkpt>
      <trkpt lat="4.5487440" lon="-75.7690190">
        <ele>1282.2</ele>
        <time>2022-08-13T15:04:27Z</time>
      </trkpt>
      <trkpt lat="4.5486650" lon="-75.7690540">
        <ele>1282.6</ele>
        <time>2022-08-13T15:04:28Z</time>
      </trkpt>
      <trkpt lat="4.5484620" lon="-75.7691600">
        <ele>1284.0</ele>
        <time>2022-08-13T15:04:31Z</time>
      </trkpt>
      <trkpt lat="4.5483950" lon="-75.7692040">
        <ele>1284.4</ele>
        <time>2022-08-13T15:04:32Z</time>
      </trkpt>
      <trkpt lat="4.5482570" lon="-75.7693010">
        <ele>1285.8</ele>
        <time>2022-08-13T15:04:34Z</time>
      </trkpt>
      <trkpt lat="4.5480820" lon="-75.7694320">
        <ele>1287.2</ele>
        <time>2022-08-13T15:04:37Z</time>
      </trkpt>
      <trkpt lat="4.5480240" lon="-75.7694760">
        <ele>1287.8</ele>
        <time>2022-08-13T15:04:38Z</time>
      </trkpt>
      <trkpt lat="4.5479640" lon="-75.7695210">
        <ele>1288.2</ele>
        <time>2022-08-13T15:04:39Z</time>
      </trkpt>
      <trkpt lat="4.5477630" lon="-75.7696480">
        <ele>1289.6</ele>
        <time>2022-08-13T15:04:42Z</time>
      </trkpt>
      <trkpt lat="4.5476830" lon="-75.7696790">
        <ele>1290.4</ele>
        <time>2022-08-13T15:04:43Z</time>
      </trkpt>
      <trkpt lat="4.5475970" lon="-75.7697020">
        <ele>1290.8</ele>
        <time>2022-08-13T15:04:44Z</time>
      </trkpt>
      <trkpt lat="4.5473200" lon="-75.7697420">
        <ele>1292.0</ele>
        <time>2022-08-13T15:04:47Z</time>
      </trkpt>
      <trkpt lat="4.5472250" lon="-75.7697410">
        <ele>1292.6</ele>
        <time>2022-08-13T15:04:48Z</time>
      </trkpt>
      <trkpt lat="4.5469590" lon="-75.7697220">
        <ele>1294.0</ele>
        <time>2022-08-13T15:04:51Z</time>
      </trkpt>
      <trkpt lat="4.5467610" lon="-75.7697040">
        <ele>1295.2</ele>
        <time>2022-08-13T15:04:53Z</time>
      </trkpt>
      <trkpt lat="4.5466740" lon="-75.7696940">
        <ele>1295.6</ele>
        <time>2022-08-13T15:04:54Z</time>
      </trkpt>
      <trkpt lat="4.5464260" lon="-75.7696740">
        <ele>1297.0</ele>
        <time>2022-08-13T15:04:57Z</time>
      </trkpt>
      <trkpt lat="4.5462630" lon="-75.7696690">
        <ele>1297.8</ele>
        <time>2022-08-13T15:04:59Z</time>
      </trkpt>
      <trkpt lat="4.5461970" lon="-75.7696680">
        <ele>1298.6</ele>
        <time>2022-08-13T15:05:00Z</time>
      </trkpt>
      <trkpt lat="4.5460170" lon="-75.7696660">
        <ele>1299.6</ele>
        <time>2022-08-13T15:05:02Z</time>
      </trkpt>
      <trkpt lat="4.5458510" lon="-75.7696640">
        <ele>1300.8</ele>
        <time>2022-08-13T15:05:04Z</time>
      </trkpt>
      <trkpt lat="4.5456000" lon="-75.7696670">
        <ele>1302.2</ele>
        <time>2022-08-13T15:05:07Z</time>
      </trkpt>
      <trkpt lat="4.5455150" lon="-75.7696710">
        <ele>1302.6</ele>
        <time>2022-08-13T15:05:08Z</time>
      </trkpt>
      <trkpt lat="4.5452790" lon="-75.7696890">
        <ele>1303.4</ele>
        <time>2022-08-13T15:05:11Z</time>
      </trkpt>
      <trkpt lat="4.5450070" lon="-75.7697360">
        <ele>1305.0</ele>
        <time>2022-08-13T15:05:14Z</time>
      </trkpt>
      <trkpt lat="4.5449350" lon="-75.7697500">
        <ele>1305.4</ele>
        <time>2022-08-13T15:05:15Z</time>
      </trkpt>
      <trkpt lat="4.5447340" lon="-75.7697930">
        <ele>1306.4</ele>
        <time>2022-08-13T15:05:17Z</time>
      </trkpt>
      <trkpt lat="4.5444720" lon="-75.7698570">
        <ele>1308.0</ele>
        <time>2022-08-13T15:05:20Z</time>
      </trkpt>
      <trkpt lat="4.5441710" lon="-75.7699270">
        <ele>1309.4</ele>
        <time>2022-08-13T15:05:23Z</time>
      </trkpt>
      <trkpt lat="4.5438970" lon="-75.7699960">
        <ele>1311.0</ele>
        <time>2022-08-13T15:05:26Z</time>
      </trkpt>
      <trkpt lat="4.5438090" lon="-75.7700220">
        <ele>1311.2</ele>
        <time>2022-08-13T15:05:27Z</time>
      </trkpt>
      <trkpt lat="4.5436570" lon="-75.7700780">
        <ele>1312.2</ele>
        <time>2022-08-13T15:05:29Z</time>
      </trkpt>
      <trkpt lat="4.5434240" lon="-75.7702170">
        <ele>1313.8</ele>
        <time>2022-08-13T15:05:32Z</time>
      </trkpt>
      <trkpt lat="4.5433570" lon="-75.7702700">
        <ele>1313.8</ele>
        <time>2022-08-13T15:05:33Z</time>
      </trkpt>
      <trkpt lat="4.5432360" lon="-75.7703790">
        <ele>1315.2</ele>
        <time>2022-08-13T15:05:35Z</time>
      </trkpt>
      <trkpt lat="4.5431200" lon="-75.7704890">
        <ele>1316.4</ele>
        <time>2022-08-13T15:05:37Z</time>
      </trkpt>
      <trkpt lat="4.5430150" lon="-75.7705890">
        <ele>1317.8</ele>
        <time>2022-08-13T15:05:39Z</time>
      </trkpt>
      <trkpt lat="4.5428870" lon="-75.7707130">
        <ele>1318.8</ele>
        <time>2022-08-13T15:05:41Z</time>
      </trkpt>
      <trkpt lat="4.5427240" lon="-75.7708620">
        <ele>1320.6</ele>
        <time>2022-08-13T15:05:44Z</time>
      </trkpt>
      <trkpt lat="4.5425370" lon="-75.7710200">
        <ele>1322.2</ele>
        <time>2022-08-13T15:05:47Z</time>
      </trkpt>
      <trkpt lat="4.5424880" lon="-75.7710590">
        <ele>1322.6</ele>
        <time>2022-08-13T15:05:48Z</time>
      </trkpt>
      <trkpt lat="4.5424250" lon="-75.7711060">
        <ele>1323.4</ele>
        <time>2022-08-13T15:05:49Z</time>
      </trkpt>
      <trkpt lat="4.5423590" lon="-75.7711480">
        <ele>1323.6</ele>
        <time>2022-08-13T15:05:50Z</time>
      </trkpt>
      <trkpt lat="4.5421460" lon="-75.7712520">
        <ele>1324.6</ele>
        <time>2022-08-13T15:05:53Z</time>
      </trkpt>
      <trkpt lat="4.5416540" lon="-75.7715020">
        <ele>1324.8</ele>
        <time>2022-08-13T15:06:00Z</time>
      </trkpt>
      <trkpt lat="4.5415880" lon="-75.7715400">
        <ele>1324.8</ele>
        <time>2022-08-13T15:06:01Z</time>
      </trkpt>
      <trkpt lat="4.5413820" lon="-75.7716870">
        <ele>1324.4</ele>
        <time>2022-08-13T15:06:05Z</time>
      </trkpt>
      <trkpt lat="4.5412730" lon="-75.7717840">
        <ele>1324.0</ele>
        <time>2022-08-13T15:06:09Z</time>
      </trkpt>
      <trkpt lat="4.5412240" lon="-75.7718400">
        <ele>1324.0</ele>
        <time>2022-08-13T15:06:11Z</time>
      </trkpt>
      <trkpt lat="4.5411410" lon="-75.7719200">
        <ele>1323.6</ele>
        <time>2022-08-13T15:06:14Z</time>
      </trkpt>
      <trkpt lat="4.5411110" lon="-75.7719490">
        <ele>1323.4</ele>
        <time>2022-08-13T15:06:15Z</time>
      </trkpt>
      <trkpt lat="4.5410060" lon="-75.7720280">
        <ele>1323.4</ele>
        <time>2022-08-13T15:06:18Z</time>
      </trkpt>
      <trkpt lat="4.5409260" lon="-75.7720710">
        <ele>1323.4</ele>
        <time>2022-08-13T15:06:21Z</time>
      </trkpt>
      <trkpt lat="4.5407710" lon="-75.7721540">
        <ele>1323.6</ele>
        <time>2022-08-13T15:06:27Z</time>
      </trkpt>
      <trkpt lat="4.5405670" lon="-75.7722380">
        <ele>1324.2</ele>
        <time>2022-08-13T15:06:32Z</time>
      </trkpt>
      <trkpt lat="4.5405200" lon="-75.7722630">
        <ele>1324.2</ele>
        <time>2022-08-13T15:06:33Z</time>
      </trkpt>
      <trkpt lat="4.5402020" lon="-75.7724310">
        <ele>1325.2</ele>
        <time>2022-08-13T15:06:39Z</time>
      </trkpt>
      <trkpt lat="4.5400310" lon="-75.7725540">
        <ele>1325.4</ele>
        <time>2022-08-13T15:06:42Z</time>
      </trkpt>
      <trkpt lat="4.5399840" lon="-75.7726130">
        <ele>1325.6</ele>
        <time>2022-08-13T15:06:43Z</time>
      </trkpt>
      <trkpt lat="4.5399450" lon="-75.7726800">
        <ele>1325.8</ele>
        <time>2022-08-13T15:06:44Z</time>
      </trkpt>
      <trkpt lat="4.5398050" lon="-75.7729820">
        <ele>1325.8</ele>
        <time>2022-08-13T15:06:48Z</time>
      </trkpt>
      <trkpt lat="4.5395500" lon="-75.7735170">
        <ele>1326.4</ele>
        <time>2022-08-13T15:06:55Z</time>
      </trkpt>
      <trkpt lat="4.5395170" lon="-75.7735890">
        <ele>1326.4</ele>
        <time>2022-08-13T15:06:56Z</time>
      </trkpt>
      <trkpt lat="4.5393430" lon="-75.7739030">
        <ele>1326.6</ele>
        <time>2022-08-13T15:07:01Z</time>
      </trkpt>
      <trkpt lat="4.5392990" lon="-75.7739540">
        <ele>1326.6</ele>
        <time>2022-08-13T15:07:02Z</time>
      </trkpt>
      <trkpt lat="4.5391320" lon="-75.7740830">
        <ele>1326.6</ele>
        <time>2022-08-13T15:07:05Z</time>
      </trkpt>
      <trkpt lat="4.5387840" lon="-75.7742330">
        <ele>1327.0</ele>
        <time>2022-08-13T15:07:10Z</time>
      </trkpt>
      <trkpt lat="4.5384220" lon="-75.7744210">
        <ele>1327.6</ele>
        <time>2022-08-13T15:07:15Z</time>
      </trkpt>
      <trkpt lat="4.5382270" lon="-75.7745740">
        <ele>1327.8</ele>
        <time>2022-08-13T15:07:18Z</time>
      </trkpt>
      <trkpt lat="4.5381260" lon="-75.7747000">
        <ele>1327.6</ele>
        <time>2022-08-13T15:07:20Z</time>
      </trkpt>
      <trkpt lat="4.5380500" lon="-75.7748430">
        <ele>1327.8</ele>
        <time>2022-08-13T15:07:22Z</time>
      </trkpt>
      <trkpt lat="4.5379970" lon="-75.7749960">
        <ele>1327.8</ele>
        <time>2022-08-13T15:07:24Z</time>
      </trkpt>
      <trkpt lat="4.5379630" lon="-75.7752360">
        <ele>1327.8</ele>
        <time>2022-08-13T15:07:27Z</time>
      </trkpt>
      <trkpt lat="4.5379660" lon="-75.7753170">
        <ele>1327.8</ele>
        <time>2022-08-13T15:07:28Z</time>
      </trkpt>
      <trkpt lat="4.5379930" lon="-75.7757250">
        <ele>1327.6</ele>
        <time>2022-08-13T15:07:33Z</time>
      </trkpt>
      <trkpt lat="4.5379390" lon="-75.7758990">
        <ele>1327.6</ele>
        <time>2022-08-13T15:07:35Z</time>
      </trkpt>
      <trkpt lat="4.5379050" lon="-75.7759580">
        <ele>1327.6</ele>
        <time>2022-08-13T15:07:36Z</time>
      </trkpt>
      <trkpt lat="4.5378430" lon="-75.7760380">
        <ele>1327.4</ele>
        <time>2022-08-13T15:07:37Z</time>
      </trkpt>
      <trkpt lat="4.5377910" lon="-75.7760870">
        <ele>1327.4</ele>
        <time>2022-08-13T15:07:38Z</time>
      </trkpt>
      <trkpt lat="4.5377190" lon="-75.7761370">
        <ele>1327.4</ele>
        <time>2022-08-13T15:07:39Z</time>
      </trkpt>
      <trkpt lat="4.5375420" lon="-75.7761950">
        <ele>1327.2</ele>
        <time>2022-08-13T15:07:41Z</time>
      </trkpt>
      <trkpt lat="4.5374730" lon="-75.7761980">
        <ele>1327.0</ele>
        <time>2022-08-13T15:07:42Z</time>
      </trkpt>
      <trkpt lat="4.5373880" lon="-75.7761930">
        <ele>1327.0</ele>
        <time>2022-08-13T15:07:43Z</time>
      </trkpt>
      <trkpt lat="4.5372230" lon="-75.7761650">
        <ele>1327.0</ele>
        <time>2022-08-13T15:07:45Z</time>
      </trkpt>
      <trkpt lat="4.5371230" lon="-75.7761450">
        <ele>1327.0</ele>
        <time>2022-08-13T15:07:46Z</time>
      </trkpt>
      <trkpt lat="4.5367050" lon="-75.7760670">
        <ele>1326.2</ele>
        <time>2022-08-13T15:07:51Z</time>
      </trkpt>
      <trkpt lat="4.5363690" lon="-75.7760000">
        <ele>1325.8</ele>
        <time>2022-08-13T15:07:55Z</time>
      </trkpt>
      <trkpt lat="4.5361270" lon="-75.7759510">
        <ele>1325.4</ele>
        <time>2022-08-13T15:07:58Z</time>
      </trkpt>
      <trkpt lat="4.5359330" lon="-75.7758980">
        <ele>1325.0</ele>
        <time>2022-08-13T15:08:00Z</time>
      </trkpt>
      <trkpt lat="4.5357800" lon="-75.7758270">
        <ele>1325.0</ele>
        <time>2022-08-13T15:08:02Z</time>
      </trkpt>
      <trkpt lat="4.5356060" lon="-75.7757110">
        <ele>1324.8</ele>
        <time>2022-08-13T15:08:04Z</time>
      </trkpt>
      <trkpt lat="4.5354630" lon="-75.7755700">
        <ele>1324.6</ele>
        <time>2022-08-13T15:08:06Z</time>
      </trkpt>
      <trkpt lat="4.5353410" lon="-75.7754310">
        <ele>1323.8</ele>
        <time>2022-08-13T15:08:08Z</time>
      </trkpt>
      <trkpt lat="4.5351950" lon="-75.7752580">
        <ele>1323.0</ele>
        <time>2022-08-13T15:08:10Z</time>
      </trkpt>
      <trkpt lat="4.5351430" lon="-75.7751960">
        <ele>1322.6</ele>
        <time>2022-08-13T15:08:11Z</time>
      </trkpt>
      <trkpt lat="4.5350760" lon="-75.7751190">
        <ele>1321.6</ele>
        <time>2022-08-13T15:08:12Z</time>
      </trkpt>
      <trkpt lat="4.5349310" lon="-75.7749570">
        <ele>1320.0</ele>
        <time>2022-08-13T15:08:14Z</time>
      </trkpt>
      <trkpt lat="4.5348110" lon="-75.7748390">
        <ele>1318.6</ele>
        <time>2022-08-13T15:08:16Z</time>
      </trkpt>
      <trkpt lat="4.5347380" lon="-75.7747810">
        <ele>1318.0</ele>
        <time>2022-08-13T15:08:17Z</time>
      </trkpt>
      <trkpt lat="4.5346640" lon="-75.7747320">
        <ele>1317.4</ele>
        <time>2022-08-13T15:08:18Z</time>
      </trkpt>
      <trkpt lat="4.5345860" lon="-75.7746950">
        <ele>1316.6</ele>
        <time>2022-08-13T15:08:19Z</time>
      </trkpt>
      <trkpt lat="4.5344900" lon="-75.7746650">
        <ele>1316.6</ele>
        <time>2022-08-13T15:08:20Z</time>
      </trkpt>
      <trkpt lat="4.5344250" lon="-75.7746560">
        <ele>1316.0</ele>
        <time>2022-08-13T15:08:21Z</time>
      </trkpt>
      <trkpt lat="4.5342400" lon="-75.7746670">
        <ele>1314.8</ele>
        <time>2022-08-13T15:08:23Z</time>
      </trkpt>
      <trkpt lat="4.5340140" lon="-75.7747200">
        <ele>1313.6</ele>
        <time>2022-08-13T15:08:26Z</time>
      </trkpt>
      <trkpt lat="4.5338530" lon="-75.7747520">
        <ele>1313.0</ele>
        <time>2022-08-13T15:08:28Z</time>
      </trkpt>
      <trkpt lat="4.5337550" lon="-75.7747550">
        <ele>1312.6</ele>
        <time>2022-08-13T15:08:29Z</time>
      </trkpt>
      <trkpt lat="4.5336730" lon="-75.7747500">
        <ele>1312.6</ele>
        <time>2022-08-13T15:08:30Z</time>
      </trkpt>
      <trkpt lat="4.5334420" lon="-75.7746940">
        <ele>1312.2</ele>
        <time>2022-08-13T15:08:33Z</time>
      </trkpt>
      <trkpt lat="4.5333690" lon="-75.7746680">
        <ele>1312.2</ele>
        <time>2022-08-13T15:08:34Z</time>
      </trkpt>
      <trkpt lat="4.5329030" lon="-75.7744830">
        <ele>1312.0</ele>
        <time>2022-08-13T15:08:41Z</time>
      </trkpt>
      <trkpt lat="4.5323190" lon="-75.7742700">
        <ele>1312.6</ele>
        <time>2022-08-13T15:08:49Z</time>
      </trkpt>
      <trkpt lat="4.5317620" lon="-75.7740740">
        <ele>1313.6</ele>
        <time>2022-08-13T15:08:56Z</time>
      </trkpt>
      <trkpt lat="4.5312060" lon="-75.7739070">
        <ele>1313.6</ele>
        <time>2022-08-13T15:09:02Z</time>
      </trkpt>
      <trkpt lat="4.5311130" lon="-75.7738870">
        <ele>1313.6</ele>
        <time>2022-08-13T15:09:03Z</time>
      </trkpt>
      <trkpt lat="4.5305570" lon="-75.7737990">
        <ele>1313.4</ele>
        <time>2022-08-13T15:09:09Z</time>
      </trkpt>
      <trkpt lat="4.5304850" lon="-75.7737980">
        <ele>1313.4</ele>
        <time>2022-08-13T15:09:10Z</time>
      </trkpt>
      <trkpt lat="4.5303970" lon="-75.7738040">
        <ele>1313.0</ele>
        <time>2022-08-13T15:09:11Z</time>
      </trkpt>
      <trkpt lat="4.5302160" lon="-75.7738440">
        <ele>1312.8</ele>
        <time>2022-08-13T15:09:13Z</time>
      </trkpt>
      <trkpt lat="4.5300310" lon="-75.7739340">
        <ele>1312.6</ele>
        <time>2022-08-13T15:09:16Z</time>
      </trkpt>
      <trkpt lat="4.5299620" lon="-75.7739770">
        <ele>1312.6</ele>
        <time>2022-08-13T15:09:17Z</time>
      </trkpt>
      <trkpt lat="4.5296900" lon="-75.7741660">
        <ele>1312.6</ele>
        <time>2022-08-13T15:09:23Z</time>
      </trkpt>
      <trkpt lat="4.5294580" lon="-75.7743490">
        <ele>1314.2</ele>
        <time>2022-08-13T15:09:29Z</time>
      </trkpt>
      <trkpt lat="4.5294130" lon="-75.7743820">
        <ele>1314.8</ele>
        <time>2022-08-13T15:09:30Z</time>
      </trkpt>
      <trkpt lat="4.5291740" lon="-75.7745510">
        <ele>1316.2</ele>
        <time>2022-08-13T15:09:35Z</time>
      </trkpt>
      <trkpt lat="4.5291130" lon="-75.7745960">
        <ele>1316.4</ele>
        <time>2022-08-13T15:09:36Z</time>
      </trkpt>
      <trkpt lat="4.5286910" lon="-75.7748950">
        <ele>1318.0</ele>
        <time>2022-08-13T15:09:44Z</time>
      </trkpt>
      <trkpt lat="4.5282380" lon="-75.7751140">
        <ele>1318.0</ele>
        <time>2022-08-13T15:09:51Z</time>
      </trkpt>
      <trkpt lat="4.5277760" lon="-75.7752550">
        <ele>1317.8</ele>
        <time>2022-08-13T15:09:58Z</time>
      </trkpt>
      <trkpt lat="4.5273930" lon="-75.7753420">
        <ele>1317.4</ele>
        <time>2022-08-13T15:10:03Z</time>
      </trkpt>
      <trkpt lat="4.5270590" lon="-75.7754340">
        <ele>1317.2</ele>
        <time>2022-08-13T15:10:07Z</time>
      </trkpt>
      <trkpt lat="4.5268360" lon="-75.7755280">
        <ele>1317.0</ele>
        <time>2022-08-13T15:10:10Z</time>
      </trkpt>
      <trkpt lat="4.5265880" lon="-75.7756650">
        <ele>1316.6</ele>
        <time>2022-08-13T15:10:14Z</time>
      </trkpt>
      <trkpt lat="4.5264560" lon="-75.7757550">
        <ele>1316.6</ele>
        <time>2022-08-13T15:10:16Z</time>
      </trkpt>
      <trkpt lat="4.5261860" lon="-75.7759970">
        <ele>1316.6</ele>
        <time>2022-08-13T15:10:21Z</time>
      </trkpt>
      <trkpt lat="4.5258670" lon="-75.7763960">
        <ele>1317.0</ele>
        <time>2022-08-13T15:10:28Z</time>
      </trkpt>
      <trkpt lat="4.5255860" lon="-75.7768580">
        <ele>1317.2</ele>
        <time>2022-08-13T15:10:35Z</time>
      </trkpt>
      <trkpt lat="4.5254860" lon="-75.7770290">
        <ele>1317.0</ele>
        <time>2022-08-13T15:10:38Z</time>
      </trkpt>
      <trkpt lat="4.5251920" lon="-75.7775310">
        <ele>1317.4</ele>
        <time>2022-08-13T15:10:47Z</time>
      </trkpt>
      <trkpt lat="4.5249110" lon="-75.7780030">
        <ele>1318.8</ele>
        <time>2022-08-13T15:10:56Z</time>
      </trkpt>
      <trkpt lat="4.5248330" lon="-75.7781060">
        <ele>1319.2</ele>
        <time>2022-08-13T15:10:58Z</time>
      </trkpt>
      <trkpt lat="4.5247950" lon="-75.7781500">
        <ele>1319.4</ele>
        <time>2022-08-13T15:10:59Z</time>
      </trkpt>
      <trkpt lat="4.5246590" lon="-75.7782630">
        <ele>1320.0</ele>
        <time>2022-08-13T15:11:02Z</time>
      </trkpt>
      <trkpt lat="4.5245520" lon="-75.7783220">
        <ele>1320.6</ele>
        <time>2022-08-13T15:11:04Z</time>
      </trkpt>
      <trkpt lat="4.5243820" lon="-75.7783930">
        <ele>1321.0</ele>
        <time>2022-08-13T15:11:07Z</time>
      </trkpt>
      <trkpt lat="4.5241700" lon="-75.7784550">
        <ele>1321.2</ele>
        <time>2022-08-13T15:11:10Z</time>
      </trkpt>
      <trkpt lat="4.5237720" lon="-75.7785660">
        <ele>1321.0</ele>
        <time>2022-08-13T15:11:16Z</time>
      </trkpt>
      <trkpt lat="4.5234380" lon="-75.7786820">
        <ele>1320.4</ele>
        <time>2022-08-13T15:11:21Z</time>
      </trkpt>
      <trkpt lat="4.5232430" lon="-75.7787740">
        <ele>1319.6</ele>
        <time>2022-08-13T15:11:24Z</time>
      </trkpt>
      <trkpt lat="4.5229280" lon="-75.7789280">
        <ele>1319.6</ele>
        <time>2022-08-13T15:11:30Z</time>
      </trkpt>
      <trkpt lat="4.5224050" lon="-75.7791970">
        <ele>1321.0</ele>
        <time>2022-08-13T15:11:40Z</time>
      </trkpt>
      <trkpt lat="4.5222280" lon="-75.7792880">
        <ele>1321.6</ele>
        <time>2022-08-13T15:11:43Z</time>
      </trkpt>
      <trkpt lat="4.5217310" lon="-75.7795330">
        <ele>1323.2</ele>
        <time>2022-08-13T15:11:52Z</time>
      </trkpt>
      <trkpt lat="4.5216290" lon="-75.7795820">
        <ele>1323.4</ele>
        <time>2022-08-13T15:11:54Z</time>
      </trkpt>
      <trkpt lat="4.5211210" lon="-75.7798190">
        <ele>1324.6</ele>
        <time>2022-08-13T15:12:02Z</time>
      </trkpt>
      <trkpt lat="4.5210660" lon="-75.7798470">
        <ele>1324.8</ele>
        <time>2022-08-13T15:12:03Z</time>
      </trkpt>
      <trkpt lat="4.5206520" lon="-75.7800990">
        <ele>1324.8</ele>
        <time>2022-08-13T15:12:09Z</time>
      </trkpt>
      <trkpt lat="4.5205750" lon="-75.7801660">
        <ele>1324.6</ele>
        <time>2022-08-13T15:12:10Z</time>
      </trkpt>
      <trkpt lat="4.5204240" lon="-75.7803430">
        <ele>1324.2</ele>
        <time>2022-08-13T15:12:13Z</time>
      </trkpt>
      <trkpt lat="4.5202280" lon="-75.7806900">
        <ele>1323.6</ele>
        <time>2022-08-13T15:12:18Z</time>
      </trkpt>
      <trkpt lat="4.5200750" lon="-75.7810580">
        <ele>1323.0</ele>
        <time>2022-08-13T15:12:23Z</time>
      </trkpt>
      <trkpt lat="4.5200090" lon="-75.7812290">
        <ele>1322.8</ele>
        <time>2022-08-13T15:12:25Z</time>
      </trkpt>
      <trkpt lat="4.5198130" lon="-75.7818060">
        <ele>1322.6</ele>
        <time>2022-08-13T15:12:32Z</time>
      </trkpt>
      <trkpt lat="4.5197790" lon="-75.7818840">
        <ele>1322.6</ele>
        <time>2022-08-13T15:12:33Z</time>
      </trkpt>
      <trkpt lat="4.5196960" lon="-75.7820350">
        <ele>1322.4</ele>
        <time>2022-08-13T15:12:35Z</time>
      </trkpt>
      <trkpt lat="4.5194900" lon="-75.7823300">
        <ele>1321.8</ele>
        <time>2022-08-13T15:12:39Z</time>
      </trkpt>
      <trkpt lat="4.5194320" lon="-75.7823990">
        <ele>1321.6</ele>
        <time>2022-08-13T15:12:40Z</time>
      </trkpt>
      <trkpt lat="4.5190490" lon="-75.7827960">
        <ele>1320.8</ele>
        <time>2022-08-13T15:12:46Z</time>
      </trkpt>
      <trkpt lat="4.5187760" lon="-75.7830570">
        <ele>1319.8</ele>
        <time>2022-08-13T15:12:50Z</time>
      </trkpt>
      <trkpt lat="4.5185010" lon="-75.7833110">
        <ele>1319.2</ele>
        <time>2022-08-13T15:12:54Z</time>
      </trkpt>
      <trkpt lat="4.5184300" lon="-75.7833690">
        <ele>1319.0</ele>
        <time>2022-08-13T15:12:55Z</time>
      </trkpt>
      <trkpt lat="4.5181340" lon="-75.7835580">
        <ele>1318.4</ele>
        <time>2022-08-13T15:12:59Z</time>
      </trkpt>
      <trkpt lat="4.5180590" lon="-75.7835960">
        <ele>1318.2</ele>
        <time>2022-08-13T15:13:00Z</time>
      </trkpt>
      <trkpt lat="4.5175230" lon="-75.7838630">
        <ele>1318.2</ele>
        <time>2022-08-13T15:13:07Z</time>
      </trkpt>
      <trkpt lat="4.5169810" lon="-75.7841370">
        <ele>1318.2</ele>
        <time>2022-08-13T15:13:14Z</time>
      </trkpt>
      <trkpt lat="4.5166670" lon="-75.7843050">
        <ele>1317.8</ele>
        <time>2022-08-13T15:13:18Z</time>
      </trkpt>
      <trkpt lat="4.5165880" lon="-75.7843490">
        <ele>1317.8</ele>
        <time>2022-08-13T15:13:19Z</time>
      </trkpt>
      <trkpt lat="4.5163660" lon="-75.7844720">
        <ele>1317.0</ele>
        <time>2022-08-13T15:13:22Z</time>
      </trkpt>
      <trkpt lat="4.5160440" lon="-75.7846250">
        <ele>1316.6</ele>
        <time>2022-08-13T15:13:26Z</time>
      </trkpt>
      <trkpt lat="4.5159630" lon="-75.7846470">
        <ele>1316.6</ele>
        <time>2022-08-13T15:13:27Z</time>
      </trkpt>
      <trkpt lat="4.5157900" lon="-75.7846750">
        <ele>1316.2</ele>
        <time>2022-08-13T15:13:29Z</time>
      </trkpt>
      <trkpt lat="4.5155900" lon="-75.7847090">
        <ele>1316.0</ele>
        <time>2022-08-13T15:13:32Z</time>
      </trkpt>
      <trkpt lat="4.5152370" lon="-75.7847710">
        <ele>1315.8</ele>
        <time>2022-08-13T15:13:38Z</time>
      </trkpt>
      <trkpt lat="4.5150760" lon="-75.7848180">
        <ele>1316.6</ele>
        <time>2022-08-13T15:13:42Z</time>
      </trkpt>
      <trkpt lat="4.5150480" lon="-75.7848140">
        <ele>1316.8</ele>
        <time>2022-08-13T15:13:43Z</time>
      </trkpt>
      <trkpt lat="4.5149460" lon="-75.7847510">
        <ele>1318.2</ele>
        <time>2022-08-13T15:13:47Z</time>
      </trkpt>
      <trkpt lat="4.5149220" lon="-75.7847470">
        <ele>1318.4</ele>
        <time>2022-08-13T15:13:48Z</time>
      </trkpt>
      <trkpt lat="4.5148320" lon="-75.7847280">
        <ele>1319.2</ele>
        <time>2022-08-13T15:13:51Z</time>
      </trkpt>
      <trkpt lat="4.5147110" lon="-75.7847150">
        <ele>1319.2</ele>
        <time>2022-08-13T15:13:54Z</time>
      </trkpt>
      <trkpt lat="4.5143980" lon="-75.7846820">
        <ele>1319.2</ele>
        <time>2022-08-13T15:14:00Z</time>
      </trkpt>
      <trkpt lat="4.5142840" lon="-75.7846750">
        <ele>1319.0</ele>
        <time>2022-08-13T15:14:04Z</time>
      </trkpt>
      <trkpt lat="4.5141360" lon="-75.7846450">
        <ele>1318.8</ele>
        <time>2022-08-13T15:14:10Z</time>
      </trkpt>
      <trkpt lat="4.5140940" lon="-75.7846440">
        <ele>1318.8</ele>
        <time>2022-08-13T15:14:11Z</time>
      </trkpt>
      <trkpt lat="4.5138300" lon="-75.7846360">
        <ele>1318.6</ele>
        <time>2022-08-13T15:14:17Z</time>
      </trkpt>
      <trkpt lat="4.5135040" lon="-75.7845970">
        <ele>1318.6</ele>
        <time>2022-08-13T15:14:23Z</time>
      </trkpt>
      <trkpt lat="4.5133900" lon="-75.7845820">
        <ele>1318.6</ele>
        <time>2022-08-13T15:14:25Z</time>
      </trkpt>
      <trkpt lat="4.5131120" lon="-75.7845550">
        <ele>1318.6</ele>
        <time>2022-08-13T15:14:30Z</time>
      </trkpt>
      <trkpt lat="4.5126550" lon="-75.7845290">
        <ele>1318.6</ele>
        <time>2022-08-13T15:14:37Z</time>
      </trkpt>
      <trkpt lat="4.5124980" lon="-75.7845460">
        <ele>1318.6</ele>
        <time>2022-08-13T15:14:39Z</time>
      </trkpt>
      <trkpt lat="4.5123750" lon="-75.7845850">
        <ele>1318.6</ele>
        <time>2022-08-13T15:14:41Z</time>
      </trkpt>
      <trkpt lat="4.5122330" lon="-75.7846550">
        <ele>1318.6</ele>
        <time>2022-08-13T15:14:43Z</time>
      </trkpt>
      <trkpt lat="4.5121730" lon="-75.7846930">
        <ele>1318.4</ele>
        <time>2022-08-13T15:14:44Z</time>
      </trkpt>
      <trkpt lat="4.5120660" lon="-75.7847710">
        <ele>1318.2</ele>
        <time>2022-08-13T15:14:46Z</time>
      </trkpt>
      <trkpt lat="4.5116970" lon="-75.7850440">
        <ele>1317.8</ele>
        <time>2022-08-13T15:14:52Z</time>
      </trkpt>
      <trkpt lat="4.5116270" lon="-75.7851010">
        <ele>1317.8</ele>
        <time>2022-08-13T15:14:53Z</time>
      </trkpt>
      <trkpt lat="4.5111230" lon="-75.7854620">
        <ele>1317.4</ele>
        <time>2022-08-13T15:15:01Z</time>
      </trkpt>
      <trkpt lat="4.5108850" lon="-75.7855820">
        <ele>1317.4</ele>
        <time>2022-08-13T15:15:04Z</time>
      </trkpt>
      <trkpt lat="4.5106480" lon="-75.7856890">
        <ele>1317.4</ele>
        <time>2022-08-13T15:15:07Z</time>
      </trkpt>
      <trkpt lat="4.5101020" lon="-75.7858740">
        <ele>1317.0</ele>
        <time>2022-08-13T15:15:14Z</time>
      </trkpt>
      <trkpt lat="4.5100270" lon="-75.7859000">
        <ele>1317.0</ele>
        <time>2022-08-13T15:15:15Z</time>
      </trkpt>
      <trkpt lat="4.5099510" lon="-75.7859260">
        <ele>1316.8</ele>
        <time>2022-08-13T15:15:16Z</time>
      </trkpt>
      <trkpt lat="4.5096550" lon="-75.7860340">
        <ele>1315.8</ele>
        <time>2022-08-13T15:15:20Z</time>
      </trkpt>
      <trkpt lat="4.5093670" lon="-75.7861350">
        <ele>1315.6</ele>
        <time>2022-08-13T15:15:24Z</time>
      </trkpt>
      <trkpt lat="4.5089410" lon="-75.7862720">
        <ele>1315.4</ele>
        <time>2022-08-13T15:15:30Z</time>
      </trkpt>
      <trkpt lat="4.5087970" lon="-75.7863100">
        <ele>1315.4</ele>
        <time>2022-08-13T15:15:32Z</time>
      </trkpt>
      <trkpt lat="4.5082540" lon="-75.7864300">
        <ele>1315.4</ele>
        <time>2022-08-13T15:15:39Z</time>
      </trkpt>
      <trkpt lat="4.5080250" lon="-75.7864800">
        <ele>1315.6</ele>
        <time>2022-08-13T15:15:42Z</time>
      </trkpt>
      <trkpt lat="4.5076750" lon="-75.7865440">
        <ele>1315.6</ele>
        <time>2022-08-13T15:15:47Z</time>
      </trkpt>
      <trkpt lat="4.5071590" lon="-75.7867000">
        <ele>1316.2</ele>
        <time>2022-08-13T15:15:55Z</time>
      </trkpt>
      <trkpt lat="4.5067360" lon="-75.7868850">
        <ele>1317.2</ele>
        <time>2022-08-13T15:16:01Z</time>
      </trkpt>
      <trkpt lat="4.5066030" lon="-75.7869710">
        <ele>1317.4</ele>
        <time>2022-08-13T15:16:03Z</time>
      </trkpt>
      <trkpt lat="4.5061450" lon="-75.7873120">
        <ele>1317.0</ele>
        <time>2022-08-13T15:16:10Z</time>
      </trkpt>
      <trkpt lat="4.5059970" lon="-75.7874390">
        <ele>1316.2</ele>
        <time>2022-08-13T15:16:12Z</time>
      </trkpt>
      <trkpt lat="4.5057640" lon="-75.7877000">
        <ele>1315.0</ele>
        <time>2022-08-13T15:16:16Z</time>
      </trkpt>
      <trkpt lat="4.5055390" lon="-75.7880710">
        <ele>1314.4</ele>
        <time>2022-08-13T15:16:21Z</time>
      </trkpt>
      <trkpt lat="4.5055030" lon="-75.7881520">
        <ele>1314.2</ele>
        <time>2022-08-13T15:16:22Z</time>
      </trkpt>
      <trkpt lat="4.5053690" lon="-75.7885670">
        <ele>1314.2</ele>
        <time>2022-08-13T15:16:27Z</time>
      </trkpt>
      <trkpt lat="4.5052210" lon="-75.7891060">
        <ele>1314.2</ele>
        <time>2022-08-13T15:16:34Z</time>
      </trkpt>
      <trkpt lat="4.5050890" lon="-75.7896450">
        <ele>1314.0</ele>
        <time>2022-08-13T15:16:41Z</time>
      </trkpt>
      <trkpt lat="4.5049410" lon="-75.7901140">
        <ele>1314.0</ele>
        <time>2022-08-13T15:16:47Z</time>
      </trkpt>
      <trkpt lat="4.5049190" lon="-75.7901910">
        <ele>1314.0</ele>
        <time>2022-08-13T15:16:48Z</time>
      </trkpt>
      <trkpt lat="4.5047480" lon="-75.7907570">
        <ele>1314.0</ele>
        <time>2022-08-13T15:16:55Z</time>
      </trkpt>
      <trkpt lat="4.5047230" lon="-75.7908450">
        <ele>1314.0</ele>
        <time>2022-08-13T15:16:56Z</time>
      </trkpt>
      <trkpt lat="4.5046700" lon="-75.7910210">
        <ele>1313.8</ele>
        <time>2022-08-13T15:16:58Z</time>
      </trkpt>
      <trkpt lat="4.5045820" lon="-75.7913090">
        <ele>1313.6</ele>
        <time>2022-08-13T15:17:01Z</time>
      </trkpt>
      <trkpt lat="4.5044390" lon="-75.7917790">
        <ele>1313.0</ele>
        <time>2022-08-13T15:17:06Z</time>
      </trkpt>
      <trkpt lat="4.5043590" lon="-75.7919670">
        <ele>1312.4</ele>
        <time>2022-08-13T15:17:08Z</time>
      </trkpt>
      <trkpt lat="4.5042470" lon="-75.7921540">
        <ele>1312.0</ele>
        <time>2022-08-13T15:17:10Z</time>
      </trkpt>
      <trkpt lat="4.5041230" lon="-75.7923060">
        <ele>1311.4</ele>
        <time>2022-08-13T15:17:12Z</time>
      </trkpt>
      <trkpt lat="4.5040710" lon="-75.7923610">
        <ele>1310.8</ele>
        <time>2022-08-13T15:17:13Z</time>
      </trkpt>
      <trkpt lat="4.5038630" lon="-75.7925870">
        <ele>1309.4</ele>
        <time>2022-08-13T15:17:16Z</time>
      </trkpt>
      <trkpt lat="4.5035990" lon="-75.7928700">
        <ele>1308.4</ele>
        <time>2022-08-13T15:17:20Z</time>
      </trkpt>
      <trkpt lat="4.5032120" lon="-75.7932860">
        <ele>1308.4</ele>
        <time>2022-08-13T15:17:26Z</time>
      </trkpt>
      <trkpt lat="4.5030210" lon="-75.7934890">
        <ele>1308.2</ele>
        <time>2022-08-13T15:17:29Z</time>
      </trkpt>
      <trkpt lat="4.5027700" lon="-75.7937560">
        <ele>1307.8</ele>
        <time>2022-08-13T15:17:33Z</time>
      </trkpt>
      <trkpt lat="4.5025370" lon="-75.7939880">
        <ele>1307.4</ele>
        <time>2022-08-13T15:17:37Z</time>
      </trkpt>
      <trkpt lat="4.5023240" lon="-75.7941710">
        <ele>1307.2</ele>
        <time>2022-08-13T15:17:40Z</time>
      </trkpt>
      <trkpt lat="4.5020290" lon="-75.7944080">
        <ele>1307.0</ele>
        <time>2022-08-13T15:17:44Z</time>
      </trkpt>
      <trkpt lat="4.5015470" lon="-75.7947930">
        <ele>1306.4</ele>
        <time>2022-08-13T15:17:50Z</time>
      </trkpt>
      <trkpt lat="4.5014790" lon="-75.7948460">
        <ele>1306.4</ele>
        <time>2022-08-13T15:17:51Z</time>
      </trkpt>
      <trkpt lat="4.5013030" lon="-75.7949800">
        <ele>1305.6</ele>
        <time>2022-08-13T15:17:53Z</time>
      </trkpt>
      <trkpt lat="4.5011230" lon="-75.7951200">
        <ele>1304.4</ele>
        <time>2022-08-13T15:17:55Z</time>
      </trkpt>
      <trkpt lat="4.5009400" lon="-75.7952600">
        <ele>1303.0</ele>
        <time>2022-08-13T15:17:57Z</time>
      </trkpt>
      <trkpt lat="4.5008460" lon="-75.7953330">
        <ele>1302.4</ele>
        <time>2022-08-13T15:17:58Z</time>
      </trkpt>
      <trkpt lat="4.5007500" lon="-75.7954100">
        <ele>1301.6</ele>
        <time>2022-08-13T15:17:59Z</time>
      </trkpt>
      <trkpt lat="4.5005420" lon="-75.7955760">
        <ele>1300.4</ele>
        <time>2022-08-13T15:18:01Z</time>
      </trkpt>
      <trkpt lat="4.5004410" lon="-75.7956400">
        <ele>1299.4</ele>
        <time>2022-08-13T15:18:02Z</time>
      </trkpt>
      <trkpt lat="4.5003380" lon="-75.7956930">
        <ele>1298.6</ele>
        <time>2022-08-13T15:18:03Z</time>
      </trkpt>
      <trkpt lat="4.5001510" lon="-75.7957700">
        <ele>1296.6</ele>
        <time>2022-08-13T15:18:05Z</time>
      </trkpt>
      <trkpt lat="4.4999390" lon="-75.7958500">
        <ele>1294.6</ele>
        <time>2022-08-13T15:18:07Z</time>
      </trkpt>
      <trkpt lat="4.4998500" lon="-75.7958820">
        <ele>1294.0</ele>
        <time>2022-08-13T15:18:08Z</time>
      </trkpt>
      <trkpt lat="4.4996150" lon="-75.7959650">
        <ele>1293.6</ele>
        <time>2022-08-13T15:18:11Z</time>
      </trkpt>
      <trkpt lat="4.4994790" lon="-75.7960050">
        <ele>1293.6</ele>
        <time>2022-08-13T15:18:13Z</time>
      </trkpt>
      <trkpt lat="4.4991720" lon="-75.7960870">
        <ele>1293.8</ele>
        <time>2022-08-13T15:18:18Z</time>
      </trkpt>
      <trkpt lat="4.4990720" lon="-75.7961150">
        <ele>1295.6</ele>
        <time>2022-08-13T15:18:20Z</time>
      </trkpt>
      <trkpt lat="4.4989590" lon="-75.7961420">
        <ele>1297.2</ele>
        <time>2022-08-13T15:18:22Z</time>
      </trkpt>
      <trkpt lat="4.4989030" lon="-75.7961490">
        <ele>1298.0</ele>
        <time>2022-08-13T15:18:23Z</time>
      </trkpt>
      <trkpt lat="4.4988470" lon="-75.7961480">
        <ele>1298.8</ele>
        <time>2022-08-13T15:18:24Z</time>
      </trkpt>
      <trkpt lat="4.4986460" lon="-75.7961350">
        <ele>1300.2</ele>
        <time>2022-08-13T15:18:27Z</time>
      </trkpt>
      <trkpt lat="4.4985100" lon="-75.7961300">
        <ele>1300.6</ele>
        <time>2022-08-13T15:18:29Z</time>
      </trkpt>
      <trkpt lat="4.4979880" lon="-75.7961010">
        <ele>1301.0</ele>
        <time>2022-08-13T15:18:36Z</time>
      </trkpt>
      <trkpt lat="4.4975880" lon="-75.7960760">
        <ele>1300.2</ele>
        <time>2022-08-13T15:18:42Z</time>
      </trkpt>
      <trkpt lat="4.4972060" lon="-75.7960600">
        <ele>1300.0</ele>
        <time>2022-08-13T15:18:49Z</time>
      </trkpt>
      <trkpt lat="4.4969290" lon="-75.7959910">
        <ele>1301.4</ele>
        <time>2022-08-13T15:18:55Z</time>
      </trkpt>
      <trkpt lat="4.4968860" lon="-75.7959730">
        <ele>1301.8</ele>
        <time>2022-08-13T15:18:56Z</time>
      </trkpt>
      <trkpt lat="4.4968060" lon="-75.7959430">
        <ele>1302.6</ele>
        <time>2022-08-13T15:18:58Z</time>
      </trkpt>
      <trkpt lat="4.4965320" lon="-75.7958360">
        <ele>1303.8</ele>
        <time>2022-08-13T15:19:04Z</time>
      </trkpt>
      <trkpt lat="4.4964470" lon="-75.7957950">
        <ele>1304.2</ele>
        <time>2022-08-13T15:19:06Z</time>
      </trkpt>
      <trkpt lat="4.4963230" lon="-75.7957310">
        <ele>1304.4</ele>
        <time>2022-08-13T15:19:09Z</time>
      </trkpt>
      <trkpt lat="4.4962410" lon="-75.7956920">
        <ele>1304.6</ele>
        <time>2022-08-13T15:19:11Z</time>
      </trkpt>
      <trkpt lat="4.4962090" lon="-75.7956700">
        <ele>1305.0</ele>
        <time>2022-08-13T15:19:12Z</time>
      </trkpt>
      <trkpt lat="4.4961220" lon="-75.7956110">
        <ele>1305.8</ele>
        <time>2022-08-13T15:19:14Z</time>
      </trkpt>
      <trkpt lat="4.4959950" lon="-75.7955510">
        <ele>1306.4</ele>
        <time>2022-08-13T15:19:17Z</time>
      </trkpt>
      <trkpt lat="4.4959140" lon="-75.7955090">
        <ele>1307.0</ele>
        <time>2022-08-13T15:19:19Z</time>
      </trkpt>
      <trkpt lat="4.4958730" lon="-75.7954810">
        <ele>1307.2</ele>
        <time>2022-08-13T15:19:20Z</time>
      </trkpt>
      <trkpt lat="4.4957040" lon="-75.7953600">
        <ele>1308.0</ele>
        <time>2022-08-13T15:19:24Z</time>
      </trkpt>
      <trkpt lat="4.4956620" lon="-75.7953270">
        <ele>1308.2</ele>
        <time>2022-08-13T15:19:25Z</time>
      </trkpt>
      <trkpt lat="4.4954430" lon="-75.7951660">
        <ele>1308.4</ele>
        <time>2022-08-13T15:19:30Z</time>
      </trkpt>
      <trkpt lat="4.4950910" lon="-75.7949020">
        <ele>1308.6</ele>
        <time>2022-08-13T15:19:37Z</time>
      </trkpt>
      <trkpt lat="4.4946520" lon="-75.7945740">
        <ele>1308.4</ele>
        <time>2022-08-13T15:19:45Z</time>
      </trkpt>
      <trkpt lat="4.4944340" lon="-75.7944180">
        <ele>1308.2</ele>
        <time>2022-08-13T15:19:49Z</time>
      </trkpt>
      <trkpt lat="4.4940790" lon="-75.7941660">
        <ele>1308.2</ele>
        <time>2022-08-13T15:19:55Z</time>
      </trkpt>
      <trkpt lat="4.4935980" lon="-75.7938350">
        <ele>1308.0</ele>
        <time>2022-08-13T15:20:02Z</time>
      </trkpt>
      <trkpt lat="4.4934330" lon="-75.7937280">
        <ele>1307.6</ele>
        <time>2022-08-13T15:20:04Z</time>
      </trkpt>
      <trkpt lat="4.4932960" lon="-75.7936530">
        <ele>1306.6</ele>
        <time>2022-08-13T15:20:06Z</time>
      </trkpt>
      <trkpt lat="4.4931350" lon="-75.7935810">
        <ele>1305.4</ele>
        <time>2022-08-13T15:20:08Z</time>
      </trkpt>
      <trkpt lat="4.4928390" lon="-75.7934930">
        <ele>1305.2</ele>
        <time>2022-08-13T15:20:13Z</time>
      </trkpt>
      <trkpt lat="4.4926250" lon="-75.7934440">
        <ele>1305.2</ele>
        <time>2022-08-13T15:20:17Z</time>
      </trkpt>
      <trkpt lat="4.4925230" lon="-75.7934350">
        <ele>1305.4</ele>
        <time>2022-08-13T15:20:19Z</time>
      </trkpt>
      <trkpt lat="4.4924330" lon="-75.7934430">
        <ele>1306.4</ele>
        <time>2022-08-13T15:20:21Z</time>
      </trkpt>
      <trkpt lat="4.4923220" lon="-75.7934700">
        <ele>1307.6</ele>
        <time>2022-08-13T15:20:23Z</time>
      </trkpt>
      <trkpt lat="4.4922720" lon="-75.7934890">
        <ele>1308.0</ele>
        <time>2022-08-13T15:20:24Z</time>
      </trkpt>
      <trkpt lat="4.4921850" lon="-75.7935360">
        <ele>1308.8</ele>
        <time>2022-08-13T15:20:26Z</time>
      </trkpt>
      <trkpt lat="4.4920850" lon="-75.7936170">
        <ele>1309.6</ele>
        <time>2022-08-13T15:20:28Z</time>
      </trkpt>
      <trkpt lat="4.4920440" lon="-75.7936640">
        <ele>1309.8</ele>
        <time>2022-08-13T15:20:29Z</time>
      </trkpt>
      <trkpt lat="4.4919810" lon="-75.7937580">
        <ele>1309.8</ele>
        <time>2022-08-13T15:20:31Z</time>
      </trkpt>
      <trkpt lat="4.4918910" lon="-75.7939500">
        <ele>1310.0</ele>
        <time>2022-08-13T15:20:34Z</time>
      </trkpt>
      <trkpt lat="4.4916720" lon="-75.7943660">
        <ele>1309.8</ele>
        <time>2022-08-13T15:20:41Z</time>
      </trkpt>
      <trkpt lat="4.4913870" lon="-75.7947490">
        <ele>1309.2</ele>
        <time>2022-08-13T15:20:48Z</time>
      </trkpt>
      <trkpt lat="4.4913370" lon="-75.7948030">
        <ele>1309.2</ele>
        <time>2022-08-13T15:20:49Z</time>
      </trkpt>
      <trkpt lat="4.4912820" lon="-75.7948550">
        <ele>1309.2</ele>
        <time>2022-08-13T15:20:50Z</time>
      </trkpt>
      <trkpt lat="4.4910900" lon="-75.7950060">
        <ele>1309.2</ele>
        <time>2022-08-13T15:20:53Z</time>
      </trkpt>
      <trkpt lat="4.4906270" lon="-75.7953670">
        <ele>1309.2</ele>
        <time>2022-08-13T15:21:01Z</time>
      </trkpt>
      <trkpt lat="4.4901870" lon="-75.7957040">
        <ele>1309.6</ele>
        <time>2022-08-13T15:21:09Z</time>
      </trkpt>
      <trkpt lat="4.4900040" lon="-75.7958560">
        <ele>1309.6</ele>
        <time>2022-08-13T15:21:12Z</time>
      </trkpt>
      <trkpt lat="4.4897480" lon="-75.7961410">
        <ele>1310.0</ele>
        <time>2022-08-13T15:21:17Z</time>
      </trkpt>
      <trkpt lat="4.4897120" lon="-75.7961930">
        <ele>1310.0</ele>
        <time>2022-08-13T15:21:18Z</time>
      </trkpt>
      <trkpt lat="4.4894580" lon="-75.7966520">
        <ele>1310.2</ele>
        <time>2022-08-13T15:21:25Z</time>
      </trkpt>
      <trkpt lat="4.4891720" lon="-75.7971200">
        <ele>1310.2</ele>
        <time>2022-08-13T15:21:33Z</time>
      </trkpt>
      <trkpt lat="4.4888960" lon="-75.7975510">
        <ele>1309.8</ele>
        <time>2022-08-13T15:21:39Z</time>
      </trkpt>
      <trkpt lat="4.4887510" lon="-75.7977570">
        <ele>1309.8</ele>
        <time>2022-08-13T15:21:42Z</time>
      </trkpt>
      <trkpt lat="4.4884950" lon="-75.7981110">
        <ele>1309.2</ele>
        <time>2022-08-13T15:21:47Z</time>
      </trkpt>
      <trkpt lat="4.4884460" lon="-75.7981780">
        <ele>1308.8</ele>
        <time>2022-08-13T15:21:48Z</time>
      </trkpt>
      <trkpt lat="4.4882580" lon="-75.7984340">
        <ele>1308.6</ele>
        <time>2022-08-13T15:21:52Z</time>
      </trkpt>
      <trkpt lat="4.4879180" lon="-75.7988910">
        <ele>1308.4</ele>
        <time>2022-08-13T15:21:59Z</time>
      </trkpt>
      <trkpt lat="4.4876830" lon="-75.7992100">
        <ele>1308.6</ele>
        <time>2022-08-13T15:22:04Z</time>
      </trkpt>
      <trkpt lat="4.4875590" lon="-75.7993260">
        <ele>1308.6</ele>
        <time>2022-08-13T15:22:06Z</time>
      </trkpt>
      <trkpt lat="4.4873440" lon="-75.7994820">
        <ele>1308.6</ele>
        <time>2022-08-13T15:22:09Z</time>
      </trkpt>
      <trkpt lat="4.4872090" lon="-75.7995780">
        <ele>1308.4</ele>
        <time>2022-08-13T15:22:11Z</time>
      </trkpt>
      <trkpt lat="4.4869160" lon="-75.7998170">
        <ele>1307.8</ele>
        <time>2022-08-13T15:22:15Z</time>
      </trkpt>
      <trkpt lat="4.4868080" lon="-75.7999340">
        <ele>1307.8</ele>
        <time>2022-08-13T15:22:17Z</time>
      </trkpt>
      <trkpt lat="4.4867520" lon="-75.8000000">
        <ele>1307.6</ele>
        <time>2022-08-13T15:22:18Z</time>
      </trkpt>
      <trkpt lat="4.4865920" lon="-75.8001970">
        <ele>1306.6</ele>
        <time>2022-08-13T15:22:21Z</time>
      </trkpt>
      <trkpt lat="4.4863780" lon="-75.8004490">
        <ele>1305.8</ele>
        <time>2022-08-13T15:22:25Z</time>
      </trkpt>
      <trkpt lat="4.4863400" lon="-75.8004960">
        <ele>1305.8</ele>
        <time>2022-08-13T15:22:26Z</time>
      </trkpt>
      <trkpt lat="4.4860870" lon="-75.8007850">
        <ele>1305.8</ele>
        <time>2022-08-13T15:22:32Z</time>
      </trkpt>
      <trkpt lat="4.4859550" lon="-75.8009210">
        <ele>1306.2</ele>
        <time>2022-08-13T15:22:37Z</time>
      </trkpt>
      <trkpt lat="4.4858330" lon="-75.8010530">
        <ele>1307.4</ele>
        <time>2022-08-13T15:22:43Z</time>
      </trkpt>
      <trkpt lat="4.4857450" lon="-75.8011490">
        <ele>1308.4</ele>
        <time>2022-08-13T15:22:48Z</time>
      </trkpt>
      <trkpt lat="4.4857170" lon="-75.8011780">
        <ele>1308.4</ele>
        <time>2022-08-13T15:22:49Z</time>
      </trkpt>
      <trkpt lat="4.4856190" lon="-75.8012890">
        <ele>1308.4</ele>
        <time>2022-08-13T15:22:52Z</time>
      </trkpt>
      <trkpt lat="4.4855640" lon="-75.8013920">
        <ele>1308.4</ele>
        <time>2022-08-13T15:22:54Z</time>
      </trkpt>
      <trkpt lat="4.4855140" lon="-75.8014930">
        <ele>1308.4</ele>
        <time>2022-08-13T15:22:56Z</time>
      </trkpt>
      <trkpt lat="4.4854470" lon="-75.8017090">
        <ele>1308.0</ele>
        <time>2022-08-13T15:22:59Z</time>
      </trkpt>
      <trkpt lat="4.4853590" lon="-75.8020100">
        <ele>1307.0</ele>
        <time>2022-08-13T15:23:03Z</time>
      </trkpt>
      <trkpt lat="4.4853130" lon="-75.8021590">
        <ele>1306.6</ele>
        <time>2022-08-13T15:23:05Z</time>
      </trkpt>
      <trkpt lat="4.4852640" lon="-75.8024520">
        <ele>1306.0</ele>
        <time>2022-08-13T15:23:08Z</time>
      </trkpt>
      <trkpt lat="4.4852620" lon="-75.8025520">
        <ele>1305.8</ele>
        <time>2022-08-13T15:23:09Z</time>
      </trkpt>
      <trkpt lat="4.4852790" lon="-75.8027580">
        <ele>1305.0</ele>
        <time>2022-08-13T15:23:11Z</time>
      </trkpt>
      <trkpt lat="4.4853100" lon="-75.8029720">
        <ele>1303.8</ele>
        <time>2022-08-13T15:23:13Z</time>
      </trkpt>
      <trkpt lat="4.4853240" lon="-75.8030570">
        <ele>1303.2</ele>
        <time>2022-08-13T15:23:14Z</time>
      </trkpt>
      <trkpt lat="4.4853450" lon="-75.8031630">
        <ele>1302.4</ele>
        <time>2022-08-13T15:23:15Z</time>
      </trkpt>
      <trkpt lat="4.4854010" lon="-75.8033810">
        <ele>1300.8</ele>
        <time>2022-08-13T15:23:17Z</time>
      </trkpt>
      <trkpt lat="4.4854530" lon="-75.8035430">
        <ele>1299.4</ele>
        <time>2022-08-13T15:23:19Z</time>
      </trkpt>
      <trkpt lat="4.4855890" lon="-75.8038950">
        <ele>1298.8</ele>
        <time>2022-08-13T15:23:24Z</time>
      </trkpt>
      <trkpt lat="4.4856860" lon="-75.8041470">
        <ele>1298.8</ele>
        <time>2022-08-13T15:23:29Z</time>
      </trkpt>
      <trkpt lat="4.4857050" lon="-75.8042330">
        <ele>1300.2</ele>
        <time>2022-08-13T15:23:32Z</time>
      </trkpt>
      <trkpt lat="4.4857180" lon="-75.8043220">
        <ele>1300.8</ele>
        <time>2022-08-13T15:23:33Z</time>
      </trkpt>
      <trkpt lat="4.4857240" lon="-75.8043660">
        <ele>1301.6</ele>
        <time>2022-08-13T15:23:34Z</time>
      </trkpt>
      <trkpt lat="4.4857280" lon="-75.8044110">
        <ele>1302.2</ele>
        <time>2022-08-13T15:23:35Z</time>
      </trkpt>
      <trkpt lat="4.4857250" lon="-75.8045090">
        <ele>1303.2</ele>
        <time>2022-08-13T15:23:37Z</time>
      </trkpt>
      <trkpt lat="4.4857180" lon="-75.8045540">
        <ele>1303.8</ele>
        <time>2022-08-13T15:23:38Z</time>
      </trkpt>
      <trkpt lat="4.4856960" lon="-75.8046850">
        <ele>1305.4</ele>
        <time>2022-08-13T15:23:41Z</time>
      </trkpt>
      <trkpt lat="4.4856840" lon="-75.8047310">
        <ele>1305.6</ele>
        <time>2022-08-13T15:23:42Z</time>
      </trkpt>
      <trkpt lat="4.4856530" lon="-75.8048230">
        <ele>1306.2</ele>
        <time>2022-08-13T15:23:44Z</time>
      </trkpt>
      <trkpt lat="4.4856110" lon="-75.8049140">
        <ele>1306.6</ele>
        <time>2022-08-13T15:23:46Z</time>
      </trkpt>
      <trkpt lat="4.4855630" lon="-75.8050100">
        <ele>1306.8</ele>
        <time>2022-08-13T15:23:48Z</time>
      </trkpt>
      <trkpt lat="4.4853930" lon="-75.8053160">
        <ele>1307.4</ele>
        <time>2022-08-13T15:23:54Z</time>
      </trkpt>
      <trkpt lat="4.4852250" lon="-75.8056150">
        <ele>1307.6</ele>
        <time>2022-08-13T15:23:59Z</time>
      </trkpt>
      <trkpt lat="4.4849920" lon="-75.8060370">
        <ele>1307.4</ele>
        <time>2022-08-13T15:24:05Z</time>
      </trkpt>
      <trkpt lat="4.4848210" lon="-75.8063470">
        <ele>1306.4</ele>
        <time>2022-08-13T15:24:09Z</time>
      </trkpt>
      <trkpt lat="4.4846880" lon="-75.8065930">
        <ele>1305.2</ele>
        <time>2022-08-13T15:24:12Z</time>
      </trkpt>
      <trkpt lat="4.4846430" lon="-75.8066750">
        <ele>1304.8</ele>
        <time>2022-08-13T15:24:13Z</time>
      </trkpt>
      <trkpt lat="4.4845430" lon="-75.8068510">
        <ele>1304.0</ele>
        <time>2022-08-13T15:24:15Z</time>
      </trkpt>
      <trkpt lat="4.4843350" lon="-75.8072190">
        <ele>1303.2</ele>
        <time>2022-08-13T15:24:20Z</time>
      </trkpt>
      <trkpt lat="4.4842450" lon="-75.8073800">
        <ele>1302.8</ele>
        <time>2022-08-13T15:24:22Z</time>
      </trkpt>
      <trkpt lat="4.4841310" lon="-75.8075880">
        <ele>1302.2</ele>
        <time>2022-08-13T15:24:25Z</time>
      </trkpt>
      <trkpt lat="4.4839380" lon="-75.8079480">
        <ele>1301.8</ele>
        <time>2022-08-13T15:24:30Z</time>
      </trkpt>
      <trkpt lat="4.4836660" lon="-75.8084460">
        <ele>1302.2</ele>
        <time>2022-08-13T15:24:37Z</time>
      </trkpt>
      <trkpt lat="4.4836350" lon="-75.8084990">
        <ele>1302.4</ele>
        <time>2022-08-13T15:24:38Z</time>
      </trkpt>
      <trkpt lat="4.4833650" lon="-75.8089880">
        <ele>1303.0</ele>
        <time>2022-08-13T15:24:45Z</time>
      </trkpt>
      <trkpt lat="4.4832880" lon="-75.8091340">
        <ele>1303.2</ele>
        <time>2022-08-13T15:24:47Z</time>
      </trkpt>
      <trkpt lat="4.4830440" lon="-75.8095740">
        <ele>1303.2</ele>
        <time>2022-08-13T15:24:53Z</time>
      </trkpt>
      <trkpt lat="4.4828720" lon="-75.8098880">
        <ele>1302.0</ele>
        <time>2022-08-13T15:24:57Z</time>
      </trkpt>
      <trkpt lat="4.4827750" lon="-75.8100610">
        <ele>1301.6</ele>
        <time>2022-08-13T15:24:59Z</time>
      </trkpt>
      <trkpt lat="4.4826820" lon="-75.8102230">
        <ele>1301.2</ele>
        <time>2022-08-13T15:25:01Z</time>
      </trkpt>
      <trkpt lat="4.4824150" lon="-75.8106080">
        <ele>1300.0</ele>
        <time>2022-08-13T15:25:06Z</time>
      </trkpt>
      <trkpt lat="4.4822550" lon="-75.8107480">
        <ele>1298.8</ele>
        <time>2022-08-13T15:25:08Z</time>
      </trkpt>
      <trkpt lat="4.4820790" lon="-75.8108790">
        <ele>1298.2</ele>
        <time>2022-08-13T15:25:10Z</time>
      </trkpt>
      <trkpt lat="4.4819870" lon="-75.8109440">
        <ele>1297.8</ele>
        <time>2022-08-13T15:25:11Z</time>
      </trkpt>
      <trkpt lat="4.4818870" lon="-75.8110040">
        <ele>1297.2</ele>
        <time>2022-08-13T15:25:12Z</time>
      </trkpt>
      <trkpt lat="4.4817580" lon="-75.8110540">
        <ele>1296.6</ele>
        <time>2022-08-13T15:25:13Z</time>
      </trkpt>
      <trkpt lat="4.4816480" lon="-75.8110720">
        <ele>1296.0</ele>
        <time>2022-08-13T15:25:14Z</time>
      </trkpt>
      <trkpt lat="4.4815600" lon="-75.8110740">
        <ele>1295.4</ele>
        <time>2022-08-13T15:25:15Z</time>
      </trkpt>
      <trkpt lat="4.4814520" lon="-75.8110650">
        <ele>1294.6</ele>
        <time>2022-08-13T15:25:16Z</time>
      </trkpt>
      <trkpt lat="4.4813490" lon="-75.8110460">
        <ele>1293.8</ele>
        <time>2022-08-13T15:25:17Z</time>
      </trkpt>
      <trkpt lat="4.4812310" lon="-75.8110200">
        <ele>1292.6</ele>
        <time>2022-08-13T15:25:18Z</time>
      </trkpt>
      <trkpt lat="4.4810490" lon="-75.8109720">
        <ele>1292.0</ele>
        <time>2022-08-13T15:25:20Z</time>
      </trkpt>
      <trkpt lat="4.4809830" lon="-75.8109540">
        <ele>1291.8</ele>
        <time>2022-08-13T15:25:21Z</time>
      </trkpt>
      <trkpt lat="4.4807590" lon="-75.8108970">
        <ele>1291.8</ele>
        <time>2022-08-13T15:25:24Z</time>
      </trkpt>
      <trkpt lat="4.4804540" lon="-75.8108360">
        <ele>1291.8</ele>
        <time>2022-08-13T15:25:29Z</time>
      </trkpt>
      <trkpt lat="4.4802550" lon="-75.8107990">
        <ele>1293.4</ele>
        <time>2022-08-13T15:25:33Z</time>
      </trkpt>
      <trkpt lat="4.4801610" lon="-75.8107880">
        <ele>1294.6</ele>
        <time>2022-08-13T15:25:35Z</time>
      </trkpt>
      <trkpt lat="4.4801230" lon="-75.8107830">
        <ele>1295.2</ele>
        <time>2022-08-13T15:25:36Z</time>
      </trkpt>
      <trkpt lat="4.4800760" lon="-75.8107770">
        <ele>1295.8</ele>
        <time>2022-08-13T15:25:37Z</time>
      </trkpt>
      <trkpt lat="4.4799850" lon="-75.8107670">
        <ele>1296.8</ele>
        <time>2022-08-13T15:25:39Z</time>
      </trkpt>
      <trkpt lat="4.4799390" lon="-75.8107640">
        <ele>1297.2</ele>
        <time>2022-08-13T15:25:40Z</time>
      </trkpt>
      <trkpt lat="4.4797790" lon="-75.8107580">
        <ele>1298.2</ele>
        <time>2022-08-13T15:25:43Z</time>
      </trkpt>
      <trkpt lat="4.4797080" lon="-75.8107550">
        <ele>1298.4</ele>
        <time>2022-08-13T15:25:44Z</time>
      </trkpt>
      <trkpt lat="4.4792700" lon="-75.8107450">
        <ele>1298.8</ele>
        <time>2022-08-13T15:25:51Z</time>
      </trkpt>
      <trkpt lat="4.4788990" lon="-75.8107320">
        <ele>1298.6</ele>
        <time>2022-08-13T15:25:56Z</time>
      </trkpt>
      <trkpt lat="4.4786350" lon="-75.8107430">
        <ele>1297.6</ele>
        <time>2022-08-13T15:25:59Z</time>
      </trkpt>
      <trkpt lat="4.4784760" lon="-75.8107660">
        <ele>1297.4</ele>
        <time>2022-08-13T15:26:01Z</time>
      </trkpt>
      <trkpt lat="4.4783710" lon="-75.8107980">
        <ele>1297.2</ele>
        <time>2022-08-13T15:26:02Z</time>
      </trkpt>
      <trkpt lat="4.4782860" lon="-75.8108380">
        <ele>1296.6</ele>
        <time>2022-08-13T15:26:03Z</time>
      </trkpt>
      <trkpt lat="4.4782030" lon="-75.8108880">
        <ele>1296.2</ele>
        <time>2022-08-13T15:26:04Z</time>
      </trkpt>
      <trkpt lat="4.4780610" lon="-75.8109940">
        <ele>1295.8</ele>
        <time>2022-08-13T15:26:06Z</time>
      </trkpt>
      <trkpt lat="4.4778390" lon="-75.8111910">
        <ele>1294.6</ele>
        <time>2022-08-13T15:26:09Z</time>
      </trkpt>
      <trkpt lat="4.4776300" lon="-75.8114040">
        <ele>1293.2</ele>
        <time>2022-08-13T15:26:12Z</time>
      </trkpt>
      <trkpt lat="4.4774940" lon="-75.8115640">
        <ele>1291.8</ele>
        <time>2022-08-13T15:26:14Z</time>
      </trkpt>
      <trkpt lat="4.4774480" lon="-75.8116220">
        <ele>1291.0</ele>
        <time>2022-08-13T15:26:15Z</time>
      </trkpt>
      <trkpt lat="4.4773910" lon="-75.8116920">
        <ele>1290.2</ele>
        <time>2022-08-13T15:26:16Z</time>
      </trkpt>
      <trkpt lat="4.4771660" lon="-75.8119440">
        <ele>1289.0</ele>
        <time>2022-08-13T15:26:20Z</time>
      </trkpt>
      <trkpt lat="4.4768850" lon="-75.8121840">
        <ele>1289.0</ele>
        <time>2022-08-13T15:26:25Z</time>
      </trkpt>
      <trkpt lat="4.4765220" lon="-75.8124130">
        <ele>1289.6</ele>
        <time>2022-08-13T15:26:32Z</time>
      </trkpt>
      <trkpt lat="4.4763720" lon="-75.8124830">
        <ele>1291.0</ele>
        <time>2022-08-13T15:26:35Z</time>
      </trkpt>
      <trkpt lat="4.4761970" lon="-75.8125440">
        <ele>1292.2</ele>
        <time>2022-08-13T15:26:38Z</time>
      </trkpt>
      <trkpt lat="4.4759590" lon="-75.8126180">
        <ele>1293.4</ele>
        <time>2022-08-13T15:26:42Z</time>
      </trkpt>
      <trkpt lat="4.4756960" lon="-75.8126830">
        <ele>1294.2</ele>
        <time>2022-08-13T15:26:46Z</time>
      </trkpt>
      <trkpt lat="4.4753510" lon="-75.8127770">
        <ele>1294.4</ele>
        <time>2022-08-13T15:26:51Z</time>
      </trkpt>
      <trkpt lat="4.4747630" lon="-75.8129380">
        <ele>1294.0</ele>
        <time>2022-08-13T15:26:58Z</time>
      </trkpt>
      <trkpt lat="4.4745150" lon="-75.8130050">
        <ele>1292.8</ele>
        <time>2022-08-13T15:27:01Z</time>
      </trkpt>
      <trkpt lat="4.4742940" lon="-75.8130670">
        <ele>1291.6</ele>
        <time>2022-08-13T15:27:04Z</time>
      </trkpt>
      <trkpt lat="4.4740590" lon="-75.8131380">
        <ele>1290.8</ele>
        <time>2022-08-13T15:27:07Z</time>
      </trkpt>
      <trkpt lat="4.4740590" lon="-75.8131380">
        <ele>1290.6</ele>
        <time>2022-08-13T15:27:08Z</time>
      </trkpt>
      <trkpt lat="4.4735040" lon="-75.8133010">
        <ele>1290.4</ele>
        <time>2022-08-13T15:27:15Z</time>
      </trkpt>
      <trkpt lat="4.4734260" lon="-75.8133400">
        <ele>1290.4</ele>
        <time>2022-08-13T15:27:16Z</time>
      </trkpt>
      <trkpt lat="4.4732040" lon="-75.8134870">
        <ele>1290.2</ele>
        <time>2022-08-13T15:27:20Z</time>
      </trkpt>
      <trkpt lat="4.4731520" lon="-75.8135340">
        <ele>1290.4</ele>
        <time>2022-08-13T15:27:21Z</time>
      </trkpt>
      <trkpt lat="4.4729990" lon="-75.8136760">
        <ele>1290.4</ele>
        <time>2022-08-13T15:27:24Z</time>
      </trkpt>
      <trkpt lat="4.4728600" lon="-75.8137450">
        <ele>1290.4</ele>
        <time>2022-08-13T15:27:26Z</time>
      </trkpt>
      <trkpt lat="4.4727270" lon="-75.8137640">
        <ele>1290.4</ele>
        <time>2022-08-13T15:27:28Z</time>
      </trkpt>
      <trkpt lat="4.4725520" lon="-75.8137380">
        <ele>1290.4</ele>
        <time>2022-08-13T15:27:30Z</time>
      </trkpt>
      <trkpt lat="4.4722800" lon="-75.8136850">
        <ele>1290.4</ele>
        <time>2022-08-13T15:27:33Z</time>
      </trkpt>
      <trkpt lat="4.4721730" lon="-75.8136650">
        <ele>1290.4</ele>
        <time>2022-08-13T15:27:34Z</time>
      </trkpt>
      <trkpt lat="4.4717200" lon="-75.8136140">
        <ele>1289.0</ele>
        <time>2022-08-13T15:27:38Z</time>
      </trkpt>
      <trkpt lat="4.4716050" lon="-75.8136090">
        <ele>1288.2</ele>
        <time>2022-08-13T15:27:39Z</time>
      </trkpt>
      <trkpt lat="4.4714910" lon="-75.8136090">
        <ele>1287.0</ele>
        <time>2022-08-13T15:27:40Z</time>
      </trkpt>
      <trkpt lat="4.4713830" lon="-75.8136200">
        <ele>1286.0</ele>
        <time>2022-08-13T15:27:41Z</time>
      </trkpt>
      <trkpt lat="4.4712560" lon="-75.8136430">
        <ele>1284.8</ele>
        <time>2022-08-13T15:27:42Z</time>
      </trkpt>
      <trkpt lat="4.4711750" lon="-75.8136570">
        <ele>1283.8</ele>
        <time>2022-08-13T15:27:43Z</time>
      </trkpt>
      <trkpt lat="4.4710770" lon="-75.8136760">
        <ele>1282.8</ele>
        <time>2022-08-13T15:27:44Z</time>
      </trkpt>
      <trkpt lat="4.4708740" lon="-75.8137080">
        <ele>1281.2</ele>
        <time>2022-08-13T15:27:46Z</time>
      </trkpt>
      <trkpt lat="4.4707200" lon="-75.8137240">
        <ele>1280.8</ele>
        <time>2022-08-13T15:27:49Z</time>
      </trkpt>
      <trkpt lat="4.4706240" lon="-75.8137190">
        <ele>1280.8</ele>
        <time>2022-08-13T15:27:50Z</time>
      </trkpt>
      <trkpt lat="4.4703360" lon="-75.8137050">
        <ele>1280.8</ele>
        <time>2022-08-13T15:27:53Z</time>
      </trkpt>
      <trkpt lat="4.4700090" lon="-75.8136020">
        <ele>1282.0</ele>
        <time>2022-08-13T15:27:58Z</time>
      </trkpt>
      <trkpt lat="4.4698630" lon="-75.8135330">
        <ele>1283.2</ele>
        <time>2022-08-13T15:28:00Z</time>
      </trkpt>
      <trkpt lat="4.4696660" lon="-75.8134420">
        <ele>1284.4</ele>
        <time>2022-08-13T15:28:03Z</time>
      </trkpt>
      <trkpt lat="4.4695110" lon="-75.8133630">
        <ele>1284.8</ele>
        <time>2022-08-13T15:28:05Z</time>
      </trkpt>
      <trkpt lat="4.4691780" lon="-75.8131890">
        <ele>1285.0</ele>
        <time>2022-08-13T15:28:10Z</time>
      </trkpt>
      <trkpt lat="4.4690540" lon="-75.8131250">
        <ele>1285.2</ele>
        <time>2022-08-13T15:28:12Z</time>
      </trkpt>
      <trkpt lat="4.4685770" lon="-75.8128630">
        <ele>1284.8</ele>
        <time>2022-08-13T15:28:19Z</time>
      </trkpt>
      <trkpt lat="4.4685070" lon="-75.8128210">
        <ele>1284.8</ele>
        <time>2022-08-13T15:28:20Z</time>
      </trkpt>
      <trkpt lat="4.4680680" lon="-75.8125220">
        <ele>1284.2</ele>
        <time>2022-08-13T15:28:26Z</time>
      </trkpt>
      <trkpt lat="4.4678200" lon="-75.8123530">
        <ele>1284.0</ele>
        <time>2022-08-13T15:28:29Z</time>
      </trkpt>
      <trkpt lat="4.4676430" lon="-75.8122280">
        <ele>1283.2</ele>
        <time>2022-08-13T15:28:31Z</time>
      </trkpt>
      <trkpt lat="4.4675540" lon="-75.8121570">
        <ele>1282.6</ele>
        <time>2022-08-13T15:28:32Z</time>
      </trkpt>
      <trkpt lat="4.4673630" lon="-75.8119830">
        <ele>1281.6</ele>
        <time>2022-08-13T15:28:34Z</time>
      </trkpt>
      <trkpt lat="4.4673000" lon="-75.8119130">
        <ele>1280.8</ele>
        <time>2022-08-13T15:28:35Z</time>
      </trkpt>
      <trkpt lat="4.4672170" lon="-75.8118290">
        <ele>1280.0</ele>
        <time>2022-08-13T15:28:36Z</time>
      </trkpt>
      <trkpt lat="4.4670600" lon="-75.8116610">
        <ele>1278.2</ele>
        <time>2022-08-13T15:28:38Z</time>
      </trkpt>
      <trkpt lat="4.4669030" lon="-75.8115000">
        <ele>1276.0</ele>
        <time>2022-08-13T15:28:40Z</time>
      </trkpt>
      <trkpt lat="4.4668160" lon="-75.8114280">
        <ele>1276.0</ele>
        <time>2022-08-13T15:28:41Z</time>
      </trkpt>
      <trkpt lat="4.4667230" lon="-75.8113750">
        <ele>1275.2</ele>
        <time>2022-08-13T15:28:42Z</time>
      </trkpt>
      <trkpt lat="4.4666220" lon="-75.8113400">
        <ele>1273.8</ele>
        <time>2022-08-13T15:28:43Z</time>
      </trkpt>
      <trkpt lat="4.4665130" lon="-75.8113250">
        <ele>1272.4</ele>
        <time>2022-08-13T15:28:44Z</time>
      </trkpt>
      <trkpt lat="4.4663750" lon="-75.8113280">
        <ele>1271.0</ele>
        <time>2022-08-13T15:28:45Z</time>
      </trkpt>
      <trkpt lat="4.4661290" lon="-75.8113650">
        <ele>1269.0</ele>
        <time>2022-08-13T15:28:47Z</time>
      </trkpt>
      <trkpt lat="4.4660290" lon="-75.8113740">
        <ele>1268.0</ele>
        <time>2022-08-13T15:28:48Z</time>
      </trkpt>
      <trkpt lat="4.4659030" lon="-75.8113770">
        <ele>1266.8</ele>
        <time>2022-08-13T15:28:49Z</time>
      </trkpt>
      <trkpt lat="4.4657810" lon="-75.8113690">
        <ele>1265.8</ele>
        <time>2022-08-13T15:28:50Z</time>
      </trkpt>
      <trkpt lat="4.4656670" lon="-75.8113490">
        <ele>1264.8</ele>
        <time>2022-08-13T15:28:51Z</time>
      </trkpt>
      <trkpt lat="4.4655590" lon="-75.8113180">
        <ele>1263.6</ele>
        <time>2022-08-13T15:28:52Z</time>
      </trkpt>
      <trkpt lat="4.4654570" lon="-75.8112700">
        <ele>1262.2</ele>
        <time>2022-08-13T15:28:53Z</time>
      </trkpt>
      <trkpt lat="4.4653710" lon="-75.8111980">
        <ele>1260.6</ele>
        <time>2022-08-13T15:28:54Z</time>
      </trkpt>
      <trkpt lat="4.4653030" lon="-75.8111030">
        <ele>1259.2</ele>
        <time>2022-08-13T15:28:55Z</time>
      </trkpt>
      <trkpt lat="4.4652500" lon="-75.8110000">
        <ele>1257.4</ele>
        <time>2022-08-13T15:28:56Z</time>
      </trkpt>
      <trkpt lat="4.4651910" lon="-75.8109030">
        <ele>1256.0</ele>
        <time>2022-08-13T15:28:57Z</time>
      </trkpt>
      <trkpt lat="4.4651160" lon="-75.8108130">
        <ele>1254.6</ele>
        <time>2022-08-13T15:28:58Z</time>
      </trkpt>
      <trkpt lat="4.4650190" lon="-75.8107160">
        <ele>1253.2</ele>
        <time>2022-08-13T15:28:59Z</time>
      </trkpt>
      <trkpt lat="4.4649460" lon="-75.8106320">
        <ele>1251.8</ele>
        <time>2022-08-13T15:29:00Z</time>
      </trkpt>
      <trkpt lat="4.4648800" lon="-75.8105410">
        <ele>1250.4</ele>
        <time>2022-08-13T15:29:01Z</time>
      </trkpt>
      <trkpt lat="4.4648340" lon="-75.8104420">
        <ele>1248.6</ele>
        <time>2022-08-13T15:29:02Z</time>
      </trkpt>
      <trkpt lat="4.4648200" lon="-75.8103300">
        <ele>1247.0</ele>
        <time>2022-08-13T15:29:03Z</time>
      </trkpt>
      <trkpt lat="4.4648330" lon="-75.8102170">
        <ele>1245.8</ele>
        <time>2022-08-13T15:29:04Z</time>
      </trkpt>
      <trkpt lat="4.4648690" lon="-75.8100940">
        <ele>1244.6</ele>
        <time>2022-08-13T15:29:05Z</time>
      </trkpt>
      <trkpt lat="4.4649330" lon="-75.8098630">
        <ele>1243.4</ele>
        <time>2022-08-13T15:29:07Z</time>
      </trkpt>
      <trkpt lat="4.4649530" lon="-75.8097300">
        <ele>1242.0</ele>
        <time>2022-08-13T15:29:08Z</time>
      </trkpt>
      <trkpt lat="4.4649660" lon="-75.8095650">
        <ele>1240.4</ele>
        <time>2022-08-13T15:29:09Z</time>
      </trkpt>
      <trkpt lat="4.4649730" lon="-75.8094310">
        <ele>1239.0</ele>
        <time>2022-08-13T15:29:10Z</time>
      </trkpt>
      <trkpt lat="4.4649770" lon="-75.8093040">
        <ele>1237.8</ele>
        <time>2022-08-13T15:29:11Z</time>
      </trkpt>
      <trkpt lat="4.4649810" lon="-75.8091870">
        <ele>1236.4</ele>
        <time>2022-08-13T15:29:12Z</time>
      </trkpt>
      <trkpt lat="4.4649870" lon="-75.8090820">
        <ele>1234.6</ele>
        <time>2022-08-13T15:29:13Z</time>
      </trkpt>
      <trkpt lat="4.4649910" lon="-75.8089850">
        <ele>1232.8</ele>
        <time>2022-08-13T15:29:14Z</time>
      </trkpt>
      <trkpt lat="4.4649950" lon="-75.8088900">
        <ele>1231.0</ele>
        <time>2022-08-13T15:29:15Z</time>
      </trkpt>
      <trkpt lat="4.4650020" lon="-75.8087930">
        <ele>1229.2</ele>
        <time>2022-08-13T15:29:16Z</time>
      </trkpt>
      <trkpt lat="4.4650080" lon="-75.8086950">
        <ele>1227.6</ele>
        <time>2022-08-13T15:29:17Z</time>
      </trkpt>
      <trkpt lat="4.4650120" lon="-75.8085910">
        <ele>1226.0</ele>
        <time>2022-08-13T15:29:18Z</time>
      </trkpt>
      <trkpt lat="4.4650080" lon="-75.8084830">
        <ele>1224.6</ele>
        <time>2022-08-13T15:29:19Z</time>
      </trkpt>
      <trkpt lat="4.4650060" lon="-75.8083900">
        <ele>1223.4</ele>
        <time>2022-08-13T15:29:20Z</time>
      </trkpt>
      <trkpt lat="4.4650070" lon="-75.8082680">
        <ele>1222.4</ele>
        <time>2022-08-13T15:29:21Z</time>
      </trkpt>
      <trkpt lat="4.4650170" lon="-75.8080030">
        <ele>1220.8</ele>
        <time>2022-08-13T15:29:23Z</time>
      </trkpt>
      <trkpt lat="4.4650190" lon="-75.8078900">
        <ele>1219.4</ele>
        <time>2022-08-13T15:29:24Z</time>
      </trkpt>
      <trkpt lat="4.4650090" lon="-75.8077800">
        <ele>1217.8</ele>
        <time>2022-08-13T15:29:25Z</time>
      </trkpt>
      <trkpt lat="4.4649770" lon="-75.8076780">
        <ele>1216.8</ele>
        <time>2022-08-13T15:29:26Z</time>
      </trkpt>
      <trkpt lat="4.4649260" lon="-75.8075870">
        <ele>1215.6</ele>
        <time>2022-08-13T15:29:27Z</time>
      </trkpt>
      <trkpt lat="4.4648520" lon="-75.8075180">
        <ele>1213.8</ele>
        <time>2022-08-13T15:29:28Z</time>
      </trkpt>
      <trkpt lat="4.4647820" lon="-75.8074760">
        <ele>1212.0</ele>
        <time>2022-08-13T15:29:29Z</time>
      </trkpt>
      <trkpt lat="4.4646000" lon="-75.8073630">
        <ele>1210.0</ele>
        <time>2022-08-13T15:29:31Z</time>
      </trkpt>
      <trkpt lat="4.4645340" lon="-75.8073220">
        <ele>1208.4</ele>
        <time>2022-08-13T15:29:32Z</time>
      </trkpt>
      <trkpt lat="4.4644390" lon="-75.8072590">
        <ele>1207.2</ele>
        <time>2022-08-13T15:29:33Z</time>
      </trkpt>
      <trkpt lat="4.4643610" lon="-75.8072070">
        <ele>1206.2</ele>
        <time>2022-08-13T15:29:34Z</time>
      </trkpt>
      <trkpt lat="4.4642060" lon="-75.8071070">
        <ele>1205.0</ele>
        <time>2022-08-13T15:29:36Z</time>
      </trkpt>
      <trkpt lat="4.4638590" lon="-75.8068720">
        <ele>1204.6</ele>
        <time>2022-08-13T15:29:41Z</time>
      </trkpt>
      <trkpt lat="4.4637490" lon="-75.8067600">
        <ele>1204.6</ele>
        <time>2022-08-13T15:29:43Z</time>
      </trkpt>
      <trkpt lat="4.4637210" lon="-75.8066950">
        <ele>1204.6</ele>
        <time>2022-08-13T15:29:44Z</time>
      </trkpt>
      <trkpt lat="4.4637070" lon="-75.8066290">
        <ele>1204.6</ele>
        <time>2022-08-13T15:29:45Z</time>
      </trkpt>
      <trkpt lat="4.4637170" lon="-75.8065090">
        <ele>1204.6</ele>
        <time>2022-08-13T15:29:47Z</time>
      </trkpt>
      <trkpt lat="4.4637450" lon="-75.8062860">
        <ele>1205.2</ele>
        <time>2022-08-13T15:29:52Z</time>
      </trkpt>
      <trkpt lat="4.4637630" lon="-75.8061620">
        <ele>1206.8</ele>
        <time>2022-08-13T15:29:56Z</time>
      </trkpt>
      <trkpt lat="4.4637660" lon="-75.8061380">
        <ele>1207.6</ele>
        <time>2022-08-13T15:29:57Z</time>
      </trkpt>
      <trkpt lat="4.4637650" lon="-75.8061110">
        <ele>1208.4</ele>
        <time>2022-08-13T15:29:58Z</time>
      </trkpt>
      <trkpt lat="4.4637690" lon="-75.8060570">
        <ele>1209.4</ele>
        <time>2022-08-13T15:30:00Z</time>
      </trkpt>
      <trkpt lat="4.4637670" lon="-75.8059750">
        <ele>1210.6</ele>
        <time>2022-08-13T15:30:03Z</time>
      </trkpt>
      <trkpt lat="4.4637440" lon="-75.8058810">
        <ele>1212.0</ele>
        <time>2022-08-13T15:30:07Z</time>
      </trkpt>
      <trkpt lat="4.4636910" lon="-75.8057650">
        <ele>1213.2</ele>
        <time>2022-08-13T15:30:12Z</time>
      </trkpt>
      <trkpt lat="4.4636670" lon="-75.8057180">
        <ele>1213.8</ele>
        <time>2022-08-13T15:30:14Z</time>
      </trkpt>
      <trkpt lat="4.4636390" lon="-75.8056730">
        <ele>1214.6</ele>
        <time>2022-08-13T15:30:16Z</time>
      </trkpt>
      <trkpt lat="4.4635620" lon="-75.8055610">
        <ele>1215.6</ele>
        <time>2022-08-13T15:30:21Z</time>
      </trkpt>
      <trkpt lat="4.4635460" lon="-75.8055320">
        <ele>1216.0</ele>
        <time>2022-08-13T15:30:22Z</time>
      </trkpt>
      <trkpt lat="4.4635040" lon="-75.8054680">
        <ele>1217.2</ele>
        <time>2022-08-13T15:30:25Z</time>
      </trkpt>
      <trkpt lat="4.4634570" lon="-75.8053890">
        <ele>1218.0</ele>
        <time>2022-08-13T15:30:28Z</time>
      </trkpt>
      <trkpt lat="4.4633940" lon="-75.8053180">
        <ele>1218.8</ele>
        <time>2022-08-13T15:30:31Z</time>
      </trkpt>
      <trkpt lat="4.4633500" lon="-75.8052720">
        <ele>1219.2</ele>
        <time>2022-08-13T15:30:33Z</time>
      </trkpt>
      <trkpt lat="4.4632620" lon="-75.8052000">
        <ele>1220.0</ele>
        <time>2022-08-13T15:30:37Z</time>
      </trkpt>
      <trkpt lat="4.4632410" lon="-75.8051810">
        <ele>1220.2</ele>
        <time>2022-08-13T15:30:38Z</time>
      </trkpt>
      <trkpt lat="4.4631240" lon="-75.8050780">
        <ele>1221.0</ele>
        <time>2022-08-13T15:30:43Z</time>
      </trkpt>
      <trkpt lat="4.4630810" lon="-75.8050340">
        <ele>1221.4</ele>
        <time>2022-08-13T15:30:45Z</time>
      </trkpt>
      <trkpt lat="4.4629830" lon="-75.8048950">
        <ele>1222.2</ele>
        <time>2022-08-13T15:30:50Z</time>
      </trkpt>
      <trkpt lat="4.4629390" lon="-75.8048230">
        <ele>1222.6</ele>
        <time>2022-08-13T15:30:52Z</time>
      </trkpt>
      <trkpt lat="4.4628880" lon="-75.8047690">
        <ele>1223.0</ele>
        <time>2022-08-13T15:30:54Z</time>
      </trkpt>
      <trkpt lat="4.4627700" lon="-75.8045920">
        <ele>1223.8</ele>
        <time>2022-08-13T15:30:59Z</time>
      </trkpt>
      <trkpt lat="4.4625550" lon="-75.8042980">
        <ele>1225.2</ele>
        <time>2022-08-13T15:31:08Z</time>
      </trkpt>
      <trkpt lat="4.4625290" lon="-75.8042660">
        <ele>1225.2</ele>
        <time>2022-08-13T15:31:09Z</time>
      </trkpt>
      <trkpt lat="4.4623390" lon="-75.8040330">
        <ele>1226.6</ele>
        <time>2022-08-13T15:31:15Z</time>
      </trkpt>
      <trkpt lat="4.4620970" lon="-75.8037670">
        <ele>1226.6</ele>
        <time>2022-08-13T15:31:21Z</time>
      </trkpt>
      <trkpt lat="4.4617280" lon="-75.8033520">
        <ele>1226.0</ele>
        <time>2022-08-13T15:31:29Z</time>
      </trkpt>
      <trkpt lat="4.4613380" lon="-75.8029230">
        <ele>1225.8</ele>
        <time>2022-08-13T15:31:37Z</time>
      </trkpt>
      <trkpt lat="4.4612940" lon="-75.8028780">
        <ele>1225.6</ele>
        <time>2022-08-13T15:31:38Z</time>
      </trkpt>
      <trkpt lat="4.4610650" lon="-75.8026250">
        <ele>1225.6</ele>
        <time>2022-08-13T15:31:44Z</time>
      </trkpt>
      <trkpt lat="4.4608410" lon="-75.8023720">
        <ele>1227.2</ele>
        <time>2022-08-13T15:31:51Z</time>
      </trkpt>
      <trkpt lat="4.4607700" lon="-75.8022960">
        <ele>1227.8</ele>
        <time>2022-08-13T15:31:53Z</time>
      </trkpt>
      <trkpt lat="4.4605690" lon="-75.8020670">
        <ele>1229.0</ele>
        <time>2022-08-13T15:31:58Z</time>
      </trkpt>
      <trkpt lat="4.4602980" lon="-75.8017770">
        <ele>1229.0</ele>
        <time>2022-08-13T15:32:03Z</time>
      </trkpt>
      <trkpt lat="4.4599100" lon="-75.8013760">
        <ele>1228.2</ele>
        <time>2022-08-13T15:32:09Z</time>
      </trkpt>
      <trkpt lat="4.4598430" lon="-75.8012990">
        <ele>1227.6</ele>
        <time>2022-08-13T15:32:10Z</time>
      </trkpt>
      <trkpt lat="4.4597900" lon="-75.8012110">
        <ele>1227.2</ele>
        <time>2022-08-13T15:32:11Z</time>
      </trkpt>
      <trkpt lat="4.4597410" lon="-75.8011150">
        <ele>1226.4</ele>
        <time>2022-08-13T15:32:12Z</time>
      </trkpt>
      <trkpt lat="4.4596970" lon="-75.8010120">
        <ele>1226.0</ele>
        <time>2022-08-13T15:32:13Z</time>
      </trkpt>
      <trkpt lat="4.4596600" lon="-75.8009000">
        <ele>1225.6</ele>
        <time>2022-08-13T15:32:14Z</time>
      </trkpt>
      <trkpt lat="4.4595920" lon="-75.8006520">
        <ele>1224.6</ele>
        <time>2022-08-13T15:32:16Z</time>
      </trkpt>
      <trkpt lat="4.4595320" lon="-75.8003510">
        <ele>1223.6</ele>
        <time>2022-08-13T15:32:18Z</time>
      </trkpt>
      <trkpt lat="4.4594930" lon="-75.8000970">
        <ele>1222.2</ele>
        <time>2022-08-13T15:32:20Z</time>
      </trkpt>
      <trkpt lat="4.4594770" lon="-75.7999530">
        <ele>1222.2</ele>
        <time>2022-08-13T15:32:21Z</time>
      </trkpt>
      <trkpt lat="4.4594650" lon="-75.7997860">
        <ele>1220.8</ele>
        <time>2022-08-13T15:32:22Z</time>
      </trkpt>
      <trkpt lat="4.4594580" lon="-75.7996550">
        <ele>1219.2</ele>
        <time>2022-08-13T15:32:23Z</time>
      </trkpt>
      <trkpt lat="4.4594520" lon="-75.7995310">
        <ele>1217.6</ele>
        <time>2022-08-13T15:32:24Z</time>
      </trkpt>
      <trkpt lat="4.4594420" lon="-75.7994420">
        <ele>1215.6</ele>
        <time>2022-08-13T15:32:25Z</time>
      </trkpt>
      <trkpt lat="4.4594210" lon="-75.7993430">
        <ele>1214.0</ele>
        <time>2022-08-13T15:32:26Z</time>
      </trkpt>
      <trkpt lat="4.4593720" lon="-75.7991640">
        <ele>1212.8</ele>
        <time>2022-08-13T15:32:28Z</time>
      </trkpt>
      <trkpt lat="4.4592760" lon="-75.7988900">
        <ele>1212.6</ele>
        <time>2022-08-13T15:32:32Z</time>
      </trkpt>
      <trkpt lat="4.4592550" lon="-75.7988400">
        <ele>1212.6</ele>
        <time>2022-08-13T15:32:33Z</time>
      </trkpt>
      <trkpt lat="4.4592150" lon="-75.7987150">
        <ele>1213.0</ele>
        <time>2022-08-13T15:32:36Z</time>
      </trkpt>
      <trkpt lat="4.4591890" lon="-75.7986440">
        <ele>1214.6</ele>
        <time>2022-08-13T15:32:38Z</time>
      </trkpt>
      <trkpt lat="4.4591700" lon="-75.7985910">
        <ele>1216.6</ele>
        <time>2022-08-13T15:32:40Z</time>
      </trkpt>
      <trkpt lat="4.4591570" lon="-75.7985690">
        <ele>1218.0</ele>
        <time>2022-08-13T15:32:41Z</time>
      </trkpt>
      <trkpt lat="4.4591410" lon="-75.7985470">
        <ele>1219.0</ele>
        <time>2022-08-13T15:32:42Z</time>
      </trkpt>
      <trkpt lat="4.4591050" lon="-75.7985050">
        <ele>1220.6</ele>
        <time>2022-08-13T15:32:44Z</time>
      </trkpt>
      <trkpt lat="4.4590410" lon="-75.7984510">
        <ele>1221.8</ele>
        <time>2022-08-13T15:32:47Z</time>
      </trkpt>
      <trkpt lat="4.4590230" lon="-75.7984330">
        <ele>1222.2</ele>
        <time>2022-08-13T15:32:48Z</time>
      </trkpt>
      <trkpt lat="4.4589870" lon="-75.7984060">
        <ele>1223.4</ele>
        <time>2022-08-13T15:32:50Z</time>
      </trkpt>
      <trkpt lat="4.4589260" lon="-75.7983640">
        <ele>1224.6</ele>
        <time>2022-08-13T15:32:53Z</time>
      </trkpt>
      <trkpt lat="4.4588660" lon="-75.7983220">
        <ele>1226.0</ele>
        <time>2022-08-13T15:32:56Z</time>
      </trkpt>
      <trkpt lat="4.4588050" lon="-75.7982760">
        <ele>1227.2</ele>
        <time>2022-08-13T15:32:59Z</time>
      </trkpt>
      <trkpt lat="4.4587360" lon="-75.7982170">
        <ele>1228.4</ele>
        <time>2022-08-13T15:33:03Z</time>
      </trkpt>
      <trkpt lat="4.4587060" lon="-75.7981750">
        <ele>1229.0</ele>
        <time>2022-08-13T15:33:05Z</time>
      </trkpt>
      <trkpt lat="4.4586840" lon="-75.7981280">
        <ele>1229.6</ele>
        <time>2022-08-13T15:33:07Z</time>
      </trkpt>
      <trkpt lat="4.4586390" lon="-75.7980000">
        <ele>1230.8</ele>
        <time>2022-08-13T15:33:12Z</time>
      </trkpt>
      <trkpt lat="4.4586300" lon="-75.7979450">
        <ele>1231.2</ele>
        <time>2022-08-13T15:33:14Z</time>
      </trkpt>
      <trkpt lat="4.4586130" lon="-75.7978350">
        <ele>1232.2</ele>
        <time>2022-08-13T15:33:18Z</time>
      </trkpt>
      <trkpt lat="4.4585960" lon="-75.7976960">
        <ele>1233.0</ele>
        <time>2022-08-13T15:33:22Z</time>
      </trkpt>
      <trkpt lat="4.4585850" lon="-75.7975890">
        <ele>1233.4</ele>
        <time>2022-08-13T15:33:25Z</time>
      </trkpt>
      <trkpt lat="4.4585900" lon="-75.7973980">
        <ele>1234.2</ele>
        <time>2022-08-13T15:33:30Z</time>
      </trkpt>
      <trkpt lat="4.4586220" lon="-75.7970200">
        <ele>1234.8</ele>
        <time>2022-08-13T15:33:39Z</time>
      </trkpt>
      <trkpt lat="4.4586310" lon="-75.7969340">
        <ele>1235.2</ele>
        <time>2022-08-13T15:33:41Z</time>
      </trkpt>
      <trkpt lat="4.4586610" lon="-75.7964190">
        <ele>1235.8</ele>
        <time>2022-08-13T15:33:53Z</time>
      </trkpt>
      <trkpt lat="4.4586440" lon="-75.7962490">
        <ele>1236.6</ele>
        <time>2022-08-13T15:33:57Z</time>
      </trkpt>
      <trkpt lat="4.4585920" lon="-75.7960410">
        <ele>1237.0</ele>
        <time>2022-08-13T15:34:02Z</time>
      </trkpt>
      <trkpt lat="4.4585260" lon="-75.7958450">
        <ele>1237.8</ele>
        <time>2022-08-13T15:34:07Z</time>
      </trkpt>
      <trkpt lat="4.4584990" lon="-75.7957660">
        <ele>1238.2</ele>
        <time>2022-08-13T15:34:09Z</time>
      </trkpt>
      <trkpt lat="4.4584510" lon="-75.7955640">
        <ele>1239.0</ele>
        <time>2022-08-13T15:34:14Z</time>
      </trkpt>
      <trkpt lat="4.4584340" lon="-75.7954280">
        <ele>1239.8</ele>
        <time>2022-08-13T15:34:17Z</time>
      </trkpt>
      <trkpt lat="4.4584440" lon="-75.7951540">
        <ele>1240.2</ele>
        <time>2022-08-13T15:34:22Z</time>
      </trkpt>
      <trkpt lat="4.4585180" lon="-75.7947950">
        <ele>1240.2</ele>
        <time>2022-08-13T15:34:28Z</time>
      </trkpt>
      <trkpt lat="4.4585580" lon="-75.7946010">
        <ele>1239.8</ele>
        <time>2022-08-13T15:34:31Z</time>
      </trkpt>
      <trkpt lat="4.4585600" lon="-75.7944750">
        <ele>1239.6</ele>
        <time>2022-08-13T15:34:33Z</time>
      </trkpt>
      <trkpt lat="4.4585440" lon="-75.7941410">
        <ele>1239.6</ele>
        <time>2022-08-13T15:34:39Z</time>
      </trkpt>
      <trkpt lat="4.4585110" lon="-75.7938070">
        <ele>1240.6</ele>
        <time>2022-08-13T15:34:46Z</time>
      </trkpt>
      <trkpt lat="4.4585030" lon="-75.7937600">
        <ele>1241.0</ele>
        <time>2022-08-13T15:34:47Z</time>
      </trkpt>
      <trkpt lat="4.4584540" lon="-75.7935730">
        <ele>1242.4</ele>
        <time>2022-08-13T15:34:51Z</time>
      </trkpt>
      <trkpt lat="4.4584170" lon="-75.7934760">
        <ele>1243.0</ele>
        <time>2022-08-13T15:34:53Z</time>
      </trkpt>
      <trkpt lat="4.4582890" lon="-75.7931120">
        <ele>1243.0</ele>
        <time>2022-08-13T15:34:59Z</time>
      </trkpt>
      <trkpt lat="4.4582050" lon="-75.7929080">
        <ele>1243.0</ele>
        <time>2022-08-13T15:35:02Z</time>
      </trkpt>
      <trkpt lat="4.4581120" lon="-75.7927900">
        <ele>1242.8</ele>
        <time>2022-08-13T15:35:04Z</time>
      </trkpt>
      <trkpt lat="4.4580010" lon="-75.7927050">
        <ele>1242.0</ele>
        <time>2022-08-13T15:35:06Z</time>
      </trkpt>
      <trkpt lat="4.4578820" lon="-75.7926520">
        <ele>1241.8</ele>
        <time>2022-08-13T15:35:08Z</time>
      </trkpt>
      <trkpt lat="4.4576640" lon="-75.7926100">
        <ele>1241.8</ele>
        <time>2022-08-13T15:35:12Z</time>
      </trkpt>
      <trkpt lat="4.4576150" lon="-75.7926080">
        <ele>1241.8</ele>
        <time>2022-08-13T15:35:13Z</time>
      </trkpt>
      <trkpt lat="4.4573110" lon="-75.7925950">
        <ele>1242.8</ele>
        <time>2022-08-13T15:35:20Z</time>
      </trkpt>
      <trkpt lat="4.4572710" lon="-75.7925860">
        <ele>1243.4</ele>
        <time>2022-08-13T15:35:21Z</time>
      </trkpt>
      <trkpt lat="4.4571910" lon="-75.7925520">
        <ele>1244.0</ele>
        <time>2022-08-13T15:35:23Z</time>
      </trkpt>
      <trkpt lat="4.4571500" lon="-75.7925310">
        <ele>1244.6</ele>
        <time>2022-08-13T15:35:24Z</time>
      </trkpt>
      <trkpt lat="4.4571130" lon="-75.7925070">
        <ele>1244.8</ele>
        <time>2022-08-13T15:35:25Z</time>
      </trkpt>
      <trkpt lat="4.4569350" lon="-75.7923060">
        <ele>1245.4</ele>
        <time>2022-08-13T15:35:30Z</time>
      </trkpt>
      <trkpt lat="4.4568850" lon="-75.7922280">
        <ele>1245.4</ele>
        <time>2022-08-13T15:35:32Z</time>
      </trkpt>
      <trkpt lat="4.4568770" lon="-75.7921590">
        <ele>1245.4</ele>
        <time>2022-08-13T15:35:34Z</time>
      </trkpt>
      <trkpt lat="4.4569590" lon="-75.7919900">
        <ele>1244.6</ele>
        <time>2022-08-13T15:35:39Z</time>
      </trkpt>
      <trkpt lat="4.4570690" lon="-75.7919180">
        <ele>1244.6</ele>
        <time>2022-08-13T15:35:42Z</time>
      </trkpt>
      <trkpt lat="4.4571310" lon="-75.7918620">
        <ele>1244.6</ele>
        <time>2022-08-13T15:35:44Z</time>
      </trkpt>
      <trkpt lat="4.4571560" lon="-75.7918330">
        <ele>1244.6</ele>
        <time>2022-08-13T15:35:45Z</time>
      </trkpt>
      <trkpt lat="4.4572660" lon="-75.7917020">
        <ele>1244.6</ele>
        <time>2022-08-13T15:35:49Z</time>
      </trkpt>
      <trkpt lat="4.4573100" lon="-75.7916270">
        <ele>1244.6</ele>
        <time>2022-08-13T15:35:51Z</time>
      </trkpt>
      <trkpt lat="4.4573300" lon="-75.7915880">
        <ele>1244.8</ele>
        <time>2022-08-13T15:35:52Z</time>
      </trkpt>
      <trkpt lat="4.4574810" lon="-75.7913140">
        <ele>1245.8</ele>
        <time>2022-08-13T15:35:59Z</time>
      </trkpt>
      <trkpt lat="4.4575180" lon="-75.7912270">
        <ele>1246.8</ele>
        <time>2022-08-13T15:36:01Z</time>
      </trkpt>
      <trkpt lat="4.4575950" lon="-75.7910530">
        <ele>1247.8</ele>
        <time>2022-08-13T15:36:05Z</time>
      </trkpt>
      <trkpt lat="4.4576770" lon="-75.7908700">
        <ele>1248.4</ele>
        <time>2022-08-13T15:36:09Z</time>
      </trkpt>
      <trkpt lat="4.4578560" lon="-75.7904430">
        <ele>1249.0</ele>
        <time>2022-08-13T15:36:18Z</time>
      </trkpt>
      <trkpt lat="4.4580250" lon="-75.7900410">
        <ele>1249.4</ele>
        <time>2022-08-13T15:36:26Z</time>
      </trkpt>
      <trkpt lat="4.4582470" lon="-75.7895340">
        <ele>1249.6</ele>
        <time>2022-08-13T15:36:36Z</time>
      </trkpt>
      <trkpt lat="4.4584630" lon="-75.7890370">
        <ele>1250.2</ele>
        <time>2022-08-13T15:36:45Z</time>
      </trkpt>
      <trkpt lat="4.4585160" lon="-75.7889240">
        <ele>1250.2</ele>
        <time>2022-08-13T15:36:47Z</time>
      </trkpt>
      <trkpt lat="4.4587030" lon="-75.7884930">
        <ele>1250.2</ele>
        <time>2022-08-13T15:36:54Z</time>
      </trkpt>
      <trkpt lat="4.4589360" lon="-75.7879640">
        <ele>1250.0</ele>
        <time>2022-08-13T15:37:02Z</time>
      </trkpt>
      <trkpt lat="4.4589640" lon="-75.7878960">
        <ele>1249.8</ele>
        <time>2022-08-13T15:37:03Z</time>
      </trkpt>
      <trkpt lat="4.4590830" lon="-75.7876200">
        <ele>1249.2</ele>
        <time>2022-08-13T15:37:07Z</time>
      </trkpt>
      <trkpt lat="4.4592400" lon="-75.7872580">
        <ele>1249.0</ele>
        <time>2022-08-13T15:37:12Z</time>
      </trkpt>
      <trkpt lat="4.4594740" lon="-75.7867500">
        <ele>1249.0</ele>
        <time>2022-08-13T15:37:19Z</time>
      </trkpt>
      <trkpt lat="4.4595390" lon="-75.7865940">
        <ele>1248.6</ele>
        <time>2022-08-13T15:37:21Z</time>
      </trkpt>
      <trkpt lat="4.4595720" lon="-75.7865170">
        <ele>1248.6</ele>
        <time>2022-08-13T15:37:22Z</time>
      </trkpt>
      <trkpt lat="4.4597940" lon="-75.7860090">
        <ele>1248.2</ele>
        <time>2022-08-13T15:37:29Z</time>
      </trkpt>
      <trkpt lat="4.4598240" lon="-75.7859410">
        <ele>1248.0</ele>
        <time>2022-08-13T15:37:30Z</time>
      </trkpt>
      <trkpt lat="4.4600540" lon="-75.7853840">
        <ele>1248.0</ele>
        <time>2022-08-13T15:37:38Z</time>
      </trkpt>
      <trkpt lat="4.4601140" lon="-75.7852390">
        <ele>1248.0</ele>
        <time>2022-08-13T15:37:40Z</time>
      </trkpt>
      <trkpt lat="4.4603530" lon="-75.7847320">
        <ele>1248.2</ele>
        <time>2022-08-13T15:37:47Z</time>
      </trkpt>
      <trkpt lat="4.4606390" lon="-75.7842210">
        <ele>1247.2</ele>
        <time>2022-08-13T15:37:54Z</time>
      </trkpt>
      <trkpt lat="4.4607760" lon="-75.7840090">
        <ele>1246.8</ele>
        <time>2022-08-13T15:37:57Z</time>
      </trkpt>
      <trkpt lat="4.4609180" lon="-75.7837930">
        <ele>1246.2</ele>
        <time>2022-08-13T15:38:00Z</time>
      </trkpt>
      <trkpt lat="4.4612170" lon="-75.7833590">
        <ele>1245.4</ele>
        <time>2022-08-13T15:38:06Z</time>
      </trkpt>
      <trkpt lat="4.4613630" lon="-75.7831410">
        <ele>1244.8</ele>
        <time>2022-08-13T15:38:09Z</time>
      </trkpt>
      <trkpt lat="4.4615120" lon="-75.7829270">
        <ele>1244.2</ele>
        <time>2022-08-13T15:38:12Z</time>
      </trkpt>
      <trkpt lat="4.4617270" lon="-75.7825970">
        <ele>1244.0</ele>
        <time>2022-08-13T15:38:17Z</time>
      </trkpt>
      <trkpt lat="4.4619980" lon="-75.7821850">
        <ele>1244.2</ele>
        <time>2022-08-13T15:38:24Z</time>
      </trkpt>
      <trkpt lat="4.4622610" lon="-75.7817780">
        <ele>1246.2</ele>
        <time>2022-08-13T15:38:31Z</time>
      </trkpt>
      <trkpt lat="4.4623310" lon="-75.7816590">
        <ele>1246.8</ele>
        <time>2022-08-13T15:38:33Z</time>
      </trkpt>
      <trkpt lat="4.4623660" lon="-75.7816000">
        <ele>1246.8</ele>
        <time>2022-08-13T15:38:34Z</time>
      </trkpt>
      <trkpt lat="4.4623970" lon="-75.7815390">
        <ele>1247.0</ele>
        <time>2022-08-13T15:38:35Z</time>
      </trkpt>
      <trkpt lat="4.4625340" lon="-75.7812410">
        <ele>1247.4</ele>
        <time>2022-08-13T15:38:40Z</time>
      </trkpt>
      <trkpt lat="4.4625840" lon="-75.7811200">
        <ele>1247.4</ele>
        <time>2022-08-13T15:38:42Z</time>
      </trkpt>
      <trkpt lat="4.4626780" lon="-75.7808800">
        <ele>1248.0</ele>
        <time>2022-08-13T15:38:46Z</time>
      </trkpt>
      <trkpt lat="4.4627550" lon="-75.7807000">
        <ele>1248.0</ele>
        <time>2022-08-13T15:38:49Z</time>
      </trkpt>
      <trkpt lat="4.4628950" lon="-75.7803400">
        <ele>1248.4</ele>
        <time>2022-08-13T15:38:55Z</time>
      </trkpt>
      <trkpt lat="4.4631540" lon="-75.7798490">
        <ele>1249.0</ele>
        <time>2022-08-13T15:39:04Z</time>
      </trkpt>
      <trkpt lat="4.4635150" lon="-75.7794120">
        <ele>1250.2</ele>
        <time>2022-08-13T15:39:13Z</time>
      </trkpt>
      <trkpt lat="4.4635560" lon="-75.7793630">
        <ele>1250.4</ele>
        <time>2022-08-13T15:39:14Z</time>
      </trkpt>
      <trkpt lat="4.4638520" lon="-75.7790330">
        <ele>1251.6</ele>
        <time>2022-08-13T15:39:21Z</time>
      </trkpt>
      <trkpt lat="4.4638950" lon="-75.7789850">
        <ele>1251.6</ele>
        <time>2022-08-13T15:39:22Z</time>
      </trkpt>
      <trkpt lat="4.4642670" lon="-75.7785520">
        <ele>1252.6</ele>
        <time>2022-08-13T15:39:31Z</time>
      </trkpt>
      <trkpt lat="4.4643110" lon="-75.7785030">
        <ele>1252.6</ele>
        <time>2022-08-13T15:39:32Z</time>
      </trkpt>
      <trkpt lat="4.4647120" lon="-75.7780430">
        <ele>1252.6</ele>
        <time>2022-08-13T15:39:41Z</time>
      </trkpt>
      <trkpt lat="4.4647590" lon="-75.7779880">
        <ele>1252.6</ele>
        <time>2022-08-13T15:39:42Z</time>
      </trkpt>
      <trkpt lat="4.4651600" lon="-75.7775300">
        <ele>1252.2</ele>
        <time>2022-08-13T15:39:50Z</time>
      </trkpt>
      <trkpt lat="4.4655510" lon="-75.7770750">
        <ele>1251.6</ele>
        <time>2022-08-13T15:39:58Z</time>
      </trkpt>
      <trkpt lat="4.4657840" lon="-75.7768060">
        <ele>1251.6</ele>
        <time>2022-08-13T15:40:03Z</time>
      </trkpt>
      <trkpt lat="4.4661680" lon="-75.7763660">
        <ele>1252.0</ele>
        <time>2022-08-13T15:40:11Z</time>
      </trkpt>
      <trkpt lat="4.4664170" lon="-75.7760790">
        <ele>1252.0</ele>
        <time>2022-08-13T15:40:16Z</time>
      </trkpt>
      <trkpt lat="4.4667400" lon="-75.7757050">
        <ele>1251.8</ele>
        <time>2022-08-13T15:40:22Z</time>
      </trkpt>
      <trkpt lat="4.4671510" lon="-75.7752420">
        <ele>1250.8</ele>
        <time>2022-08-13T15:40:29Z</time>
      </trkpt>
      <trkpt lat="4.4672130" lon="-75.7751730">
        <ele>1250.6</ele>
        <time>2022-08-13T15:40:30Z</time>
      </trkpt>
      <trkpt lat="4.4673940" lon="-75.7749610">
        <ele>1250.0</ele>
        <time>2022-08-13T15:40:33Z</time>
      </trkpt>
      <trkpt lat="4.4676830" lon="-75.7745970">
        <ele>1248.8</ele>
        <time>2022-08-13T15:40:38Z</time>
      </trkpt>
      <trkpt lat="4.4677330" lon="-75.7745200">
        <ele>1248.8</ele>
        <time>2022-08-13T15:40:39Z</time>
      </trkpt>
      <trkpt lat="4.4678510" lon="-75.7742790">
        <ele>1248.4</ele>
        <time>2022-08-13T15:40:42Z</time>
      </trkpt>
      <trkpt lat="4.4680520" lon="-75.7737300">
        <ele>1248.4</ele>
        <time>2022-08-13T15:40:49Z</time>
      </trkpt>
      <trkpt lat="4.4680760" lon="-75.7736550">
        <ele>1248.4</ele>
        <time>2022-08-13T15:40:50Z</time>
      </trkpt>
      <trkpt lat="4.4682550" lon="-75.7730740">
        <ele>1249.6</ele>
        <time>2022-08-13T15:40:58Z</time>
      </trkpt>
      <trkpt lat="4.4682700" lon="-75.7730070">
        <ele>1249.8</ele>
        <time>2022-08-13T15:40:59Z</time>
      </trkpt>
      <trkpt lat="4.4682940" lon="-75.7728780">
        <ele>1250.6</ele>
        <time>2022-08-13T15:41:01Z</time>
      </trkpt>
      <trkpt lat="4.4683310" lon="-75.7725640">
        <ele>1251.6</ele>
        <time>2022-08-13T15:41:06Z</time>
      </trkpt>
      <trkpt lat="4.4683340" lon="-75.7725050">
        <ele>1251.8</ele>
        <time>2022-08-13T15:41:07Z</time>
      </trkpt>
      <trkpt lat="4.4683380" lon="-75.7722710">
        <ele>1253.0</ele>
        <time>2022-08-13T15:41:11Z</time>
      </trkpt>
      <trkpt lat="4.4683440" lon="-75.7722120">
        <ele>1253.2</ele>
        <time>2022-08-13T15:41:12Z</time>
      </trkpt>
      <trkpt lat="4.4683550" lon="-75.7719290">
        <ele>1254.0</ele>
        <time>2022-08-13T15:41:17Z</time>
      </trkpt>
      <trkpt lat="4.4683730" lon="-75.7717000">
        <ele>1254.8</ele>
        <time>2022-08-13T15:41:21Z</time>
      </trkpt>
      <trkpt lat="4.4683980" lon="-75.7713360">
        <ele>1255.6</ele>
        <time>2022-08-13T15:41:27Z</time>
      </trkpt>
      <trkpt lat="4.4684080" lon="-75.7710960">
        <ele>1255.8</ele>
        <time>2022-08-13T15:41:31Z</time>
      </trkpt>
      <trkpt lat="4.4684410" lon="-75.7706130">
        <ele>1256.4</ele>
        <time>2022-08-13T15:41:39Z</time>
      </trkpt>
      <trkpt lat="4.4684440" lon="-75.7704940">
        <ele>1256.8</ele>
        <time>2022-08-13T15:41:41Z</time>
      </trkpt>
      <trkpt lat="4.4684810" lon="-75.7699400">
        <ele>1258.0</ele>
        <time>2022-08-13T15:41:50Z</time>
      </trkpt>
      <trkpt lat="4.4685170" lon="-75.7693930">
        <ele>1259.2</ele>
        <time>2022-08-13T15:41:59Z</time>
      </trkpt>
      <trkpt lat="4.4685210" lon="-75.7693310">
        <ele>1259.4</ele>
        <time>2022-08-13T15:42:00Z</time>
      </trkpt>
      <trkpt lat="4.4685500" lon="-75.7688970">
        <ele>1260.2</ele>
        <time>2022-08-13T15:42:07Z</time>
      </trkpt>
      <trkpt lat="4.4685480" lon="-75.7688330">
        <ele>1260.2</ele>
        <time>2022-08-13T15:42:08Z</time>
      </trkpt>
      <trkpt lat="4.4685600" lon="-75.7685760">
        <ele>1260.8</ele>
        <time>2022-08-13T15:42:12Z</time>
      </trkpt>
      <trkpt lat="4.4685950" lon="-75.7682370">
        <ele>1260.8</ele>
        <time>2022-08-13T15:42:17Z</time>
      </trkpt>
      <trkpt lat="4.4687340" lon="-75.7678150">
        <ele>1260.8</ele>
        <time>2022-08-13T15:42:23Z</time>
      </trkpt>
      <trkpt lat="4.4689640" lon="-75.7674560">
        <ele>1260.2</ele>
        <time>2022-08-13T15:42:28Z</time>
      </trkpt>
      <trkpt lat="4.4690150" lon="-75.7673870">
        <ele>1260.0</ele>
        <time>2022-08-13T15:42:29Z</time>
      </trkpt>
      <trkpt lat="4.4692200" lon="-75.7671160">
        <ele>1259.0</ele>
        <time>2022-08-13T15:42:33Z</time>
      </trkpt>
      <trkpt lat="4.4693620" lon="-75.7669160">
        <ele>1258.4</ele>
        <time>2022-08-13T15:42:36Z</time>
      </trkpt>
      <trkpt lat="4.4696240" lon="-75.7665640">
        <ele>1258.6</ele>
        <time>2022-08-13T15:42:42Z</time>
      </trkpt>
      <trkpt lat="4.4699460" lon="-75.7661260">
        <ele>1260.0</ele>
        <time>2022-08-13T15:42:50Z</time>
      </trkpt>
      <trkpt lat="4.4700640" lon="-75.7659710">
        <ele>1260.4</ele>
        <time>2022-08-13T15:42:53Z</time>
      </trkpt>
      <trkpt lat="4.4702900" lon="-75.7656540">
        <ele>1261.6</ele>
        <time>2022-08-13T15:42:59Z</time>
      </trkpt>
      <trkpt lat="4.4706030" lon="-75.7652140">
        <ele>1262.4</ele>
        <time>2022-08-13T15:43:08Z</time>
      </trkpt>
      <trkpt lat="4.4707290" lon="-75.7650210">
        <ele>1262.8</ele>
        <time>2022-08-13T15:43:12Z</time>
      </trkpt>
      <trkpt lat="4.4708630" lon="-75.7647820">
        <ele>1263.2</ele>
        <time>2022-08-13T15:43:17Z</time>
      </trkpt>
      <trkpt lat="4.4708920" lon="-75.7646870">
        <ele>1263.8</ele>
        <time>2022-08-13T15:43:19Z</time>
      </trkpt>
      <trkpt lat="4.4708870" lon="-75.7645990">
        <ele>1264.2</ele>
        <time>2022-08-13T15:43:21Z</time>
      </trkpt>
      <trkpt lat="4.4708460" lon="-75.7644680">
        <ele>1264.4</ele>
        <time>2022-08-13T15:43:24Z</time>
      </trkpt>
      <trkpt lat="4.4708150" lon="-75.7643650">
        <ele>1264.8</ele>
        <time>2022-08-13T15:43:26Z</time>
      </trkpt>
      <trkpt lat="4.4707890" lon="-75.7642140">
        <ele>1265.0</ele>
        <time>2022-08-13T15:43:29Z</time>
      </trkpt>
      <trkpt lat="4.4708010" lon="-75.7641090">
        <ele>1265.0</ele>
        <time>2022-08-13T15:43:31Z</time>
      </trkpt>
      <trkpt lat="4.4709070" lon="-75.7639000">
        <ele>1265.0</ele>
        <time>2022-08-13T15:43:35Z</time>
      </trkpt>
      <trkpt lat="4.4710200" lon="-75.7637350">
        <ele>1264.8</ele>
        <time>2022-08-13T15:43:38Z</time>
      </trkpt>
      <trkpt lat="4.4710990" lon="-75.7636250">
        <ele>1265.0</ele>
        <time>2022-08-13T15:43:40Z</time>
      </trkpt>
      <trkpt lat="4.4712020" lon="-75.7634290">
        <ele>1264.6</ele>
        <time>2022-08-13T15:43:43Z</time>
      </trkpt>
      <trkpt lat="4.4712180" lon="-75.7633550">
        <ele>1264.4</ele>
        <time>2022-08-13T15:43:44Z</time>
      </trkpt>
      <trkpt lat="4.4712210" lon="-75.7632780">
        <ele>1264.2</ele>
        <time>2022-08-13T15:43:45Z</time>
      </trkpt>
      <trkpt lat="4.4712160" lon="-75.7631230">
        <ele>1263.4</ele>
        <time>2022-08-13T15:43:47Z</time>
      </trkpt>
      <trkpt lat="4.4712120" lon="-75.7630440">
        <ele>1263.0</ele>
        <time>2022-08-13T15:43:48Z</time>
      </trkpt>
      <trkpt lat="4.4712040" lon="-75.7628910">
        <ele>1262.4</ele>
        <time>2022-08-13T15:43:50Z</time>
      </trkpt>
      <trkpt lat="4.4711830" lon="-75.7625720">
        <ele>1261.4</ele>
        <time>2022-08-13T15:43:54Z</time>
      </trkpt>
      <trkpt lat="4.4711690" lon="-75.7624050">
        <ele>1261.2</ele>
        <time>2022-08-13T15:43:56Z</time>
      </trkpt>
      <trkpt lat="4.4711430" lon="-75.7620530">
        <ele>1260.4</ele>
        <time>2022-08-13T15:44:00Z</time>
      </trkpt>
      <trkpt lat="4.4711330" lon="-75.7618640">
        <ele>1259.8</ele>
        <time>2022-08-13T15:44:02Z</time>
      </trkpt>
      <trkpt lat="4.4711200" lon="-75.7616650">
        <ele>1259.4</ele>
        <time>2022-08-13T15:44:04Z</time>
      </trkpt>
      <trkpt lat="4.4711060" lon="-75.7613530">
        <ele>1258.0</ele>
        <time>2022-08-13T15:44:07Z</time>
      </trkpt>
      <trkpt lat="4.4711010" lon="-75.7612460">
        <ele>1257.4</ele>
        <time>2022-08-13T15:44:08Z</time>
      </trkpt>
      <trkpt lat="4.4710950" lon="-75.7611380">
        <ele>1256.8</ele>
        <time>2022-08-13T15:44:09Z</time>
      </trkpt>
      <trkpt lat="4.4710840" lon="-75.7609170">
        <ele>1255.0</ele>
        <time>2022-08-13T15:44:11Z</time>
      </trkpt>
      <trkpt lat="4.4710810" lon="-75.7608000">
        <ele>1253.8</ele>
        <time>2022-08-13T15:44:12Z</time>
      </trkpt>
      <trkpt lat="4.4710750" lon="-75.7606830">
        <ele>1252.8</ele>
        <time>2022-08-13T15:44:13Z</time>
      </trkpt>
      <trkpt lat="4.4710590" lon="-75.7604430">
        <ele>1250.8</ele>
        <time>2022-08-13T15:44:15Z</time>
      </trkpt>
      <trkpt lat="4.4710450" lon="-75.7602040">
        <ele>1249.0</ele>
        <time>2022-08-13T15:44:17Z</time>
      </trkpt>
      <trkpt lat="4.4710300" lon="-75.7599660">
        <ele>1247.4</ele>
        <time>2022-08-13T15:44:19Z</time>
      </trkpt>
      <trkpt lat="4.4710160" lon="-75.7597320">
        <ele>1245.4</ele>
        <time>2022-08-13T15:44:21Z</time>
      </trkpt>
      <trkpt lat="4.4710010" lon="-75.7595090">
        <ele>1243.4</ele>
        <time>2022-08-13T15:44:23Z</time>
      </trkpt>
      <trkpt lat="4.4709950" lon="-75.7594020">
        <ele>1242.4</ele>
        <time>2022-08-13T15:44:24Z</time>
      </trkpt>
      <trkpt lat="4.4709890" lon="-75.7592970">
        <ele>1241.2</ele>
        <time>2022-08-13T15:44:25Z</time>
      </trkpt>
      <trkpt lat="4.4709750" lon="-75.7590960">
        <ele>1240.0</ele>
        <time>2022-08-13T15:44:27Z</time>
      </trkpt>
      <trkpt lat="4.4709610" lon="-75.7589080">
        <ele>1239.8</ele>
        <time>2022-08-13T15:44:29Z</time>
      </trkpt>
      <trkpt lat="4.4709230" lon="-75.7584050">
        <ele>1239.6</ele>
        <time>2022-08-13T15:44:35Z</time>
      </trkpt>
      <trkpt lat="4.4708940" lon="-75.7579830">
        <ele>1239.8</ele>
        <time>2022-08-13T15:44:41Z</time>
      </trkpt>
      <trkpt lat="4.4708690" lon="-75.7575230">
        <ele>1241.2</ele>
        <time>2022-08-13T15:44:48Z</time>
      </trkpt>
      <trkpt lat="4.4708650" lon="-75.7574600">
        <ele>1241.2</ele>
        <time>2022-08-13T15:44:49Z</time>
      </trkpt>
      <trkpt lat="4.4708560" lon="-75.7573360">
        <ele>1241.8</ele>
        <time>2022-08-13T15:44:51Z</time>
      </trkpt>
      <trkpt lat="4.4708400" lon="-75.7569690">
        <ele>1242.4</ele>
        <time>2022-08-13T15:44:57Z</time>
      </trkpt>
      <trkpt lat="4.4708300" lon="-75.7567320">
        <ele>1242.4</ele>
        <time>2022-08-13T15:45:01Z</time>
      </trkpt>
      <trkpt lat="4.4708250" lon="-75.7565580">
        <ele>1242.6</ele>
        <time>2022-08-13T15:45:04Z</time>
      </trkpt>
      <trkpt lat="4.4708160" lon="-75.7563060">
        <ele>1243.0</ele>
        <time>2022-08-13T15:45:08Z</time>
      </trkpt>
      <trkpt lat="4.4707960" lon="-75.7559690">
        <ele>1243.6</ele>
        <time>2022-08-13T15:45:13Z</time>
      </trkpt>
      <trkpt lat="4.4707520" lon="-75.7554070">
        <ele>1244.0</ele>
        <time>2022-08-13T15:45:22Z</time>
      </trkpt>
      <trkpt lat="4.4707180" lon="-75.7549480">
        <ele>1244.2</ele>
        <time>2022-08-13T15:45:29Z</time>
      </trkpt>
      <trkpt lat="4.4706140" lon="-75.7545620">
        <ele>1244.2</ele>
        <time>2022-08-13T15:45:35Z</time>
      </trkpt>
      <trkpt lat="4.4703420" lon="-75.7541060">
        <ele>1244.4</ele>
        <time>2022-08-13T15:45:43Z</time>
      </trkpt>
      <trkpt lat="4.4701460" lon="-75.7537910">
        <ele>1245.0</ele>
        <time>2022-08-13T15:45:49Z</time>
      </trkpt>
      <trkpt lat="4.4699410" lon="-75.7534630">
        <ele>1245.8</ele>
        <time>2022-08-13T15:45:55Z</time>
      </trkpt>
      <trkpt lat="4.4698350" lon="-75.7532920">
        <ele>1246.0</ele>
        <time>2022-08-13T15:45:58Z</time>
      </trkpt>
      <trkpt lat="4.4695240" lon="-75.7527940">
        <ele>1246.6</ele>
        <time>2022-08-13T15:46:07Z</time>
      </trkpt>
      <trkpt lat="4.4694000" lon="-75.7525780">
        <ele>1247.0</ele>
        <time>2022-08-13T15:46:11Z</time>
      </trkpt>
      <trkpt lat="4.4692660" lon="-75.7523710">
        <ele>1247.4</ele>
        <time>2022-08-13T15:46:15Z</time>
      </trkpt>
      <trkpt lat="4.4692330" lon="-75.7523220">
        <ele>1247.4</ele>
        <time>2022-08-13T15:46:16Z</time>
      </trkpt>
      <trkpt lat="4.4690320" lon="-75.7519920">
        <ele>1248.6</ele>
        <time>2022-08-13T15:46:23Z</time>
      </trkpt>
      <trkpt lat="4.4690030" lon="-75.7519480">
        <ele>1248.8</ele>
        <time>2022-08-13T15:46:24Z</time>
      </trkpt>
      <trkpt lat="4.4689720" lon="-75.7519050">
        <ele>1248.8</ele>
        <time>2022-08-13T15:46:25Z</time>
      </trkpt>
      <trkpt lat="4.4688570" lon="-75.7517280">
        <ele>1249.4</ele>
        <time>2022-08-13T15:46:29Z</time>
      </trkpt>
      <trkpt lat="4.4687490" lon="-75.7515470">
        <ele>1250.0</ele>
        <time>2022-08-13T15:46:33Z</time>
      </trkpt>
      <trkpt lat="4.4686380" lon="-75.7513740">
        <ele>1250.8</ele>
        <time>2022-08-13T15:46:37Z</time>
      </trkpt>
      <trkpt lat="4.4686110" lon="-75.7513300">
        <ele>1251.2</ele>
        <time>2022-08-13T15:46:38Z</time>
      </trkpt>
      <trkpt lat="4.4685820" lon="-75.7512870">
        <ele>1251.2</ele>
        <time>2022-08-13T15:46:39Z</time>
      </trkpt>
      <trkpt lat="4.4683950" lon="-75.7509810">
        <ele>1252.4</ele>
        <time>2022-08-13T15:46:46Z</time>
      </trkpt>
      <trkpt lat="4.4683680" lon="-75.7509310">
        <ele>1252.4</ele>
        <time>2022-08-13T15:46:47Z</time>
      </trkpt>
      <trkpt lat="4.4681590" lon="-75.7505910">
        <ele>1253.4</ele>
        <time>2022-08-13T15:46:54Z</time>
      </trkpt>
      <trkpt lat="4.4679960" lon="-75.7502940">
        <ele>1253.6</ele>
        <time>2022-08-13T15:46:59Z</time>
      </trkpt>
      <trkpt lat="4.4677410" lon="-75.7498890">
        <ele>1253.4</ele>
        <time>2022-08-13T15:47:05Z</time>
      </trkpt>
      <trkpt lat="4.4674290" lon="-75.7493690">
        <ele>1252.2</ele>
        <time>2022-08-13T15:47:11Z</time>
      </trkpt>
      <trkpt lat="4.4673750" lon="-75.7492790">
        <ele>1251.6</ele>
        <time>2022-08-13T15:47:12Z</time>
      </trkpt>
      <trkpt lat="4.4672820" lon="-75.7491130">
        <ele>1250.0</ele>
        <time>2022-08-13T15:47:14Z</time>
      </trkpt>
      <trkpt lat="4.4671670" lon="-75.7489180">
        <ele>1248.2</ele>
        <time>2022-08-13T15:47:16Z</time>
      </trkpt>
      <trkpt lat="4.4671130" lon="-75.7488340">
        <ele>1247.6</ele>
        <time>2022-08-13T15:47:17Z</time>
      </trkpt>
      <trkpt lat="4.4670110" lon="-75.7486770">
        <ele>1247.0</ele>
        <time>2022-08-13T15:47:19Z</time>
      </trkpt>
      <trkpt lat="4.4668760" lon="-75.7484660">
        <ele>1246.4</ele>
        <time>2022-08-13T15:47:22Z</time>
      </trkpt>
      <trkpt lat="4.4667050" lon="-75.7481880">
        <ele>1246.4</ele>
        <time>2022-08-13T15:47:27Z</time>
      </trkpt>
      <trkpt lat="4.4665750" lon="-75.7479790">
        <ele>1247.4</ele>
        <time>2022-08-13T15:47:32Z</time>
      </trkpt>
      <trkpt lat="4.4665310" lon="-75.7479090">
        <ele>1248.6</ele>
        <time>2022-08-13T15:47:34Z</time>
      </trkpt>
      <trkpt lat="4.4664810" lon="-75.7478310">
        <ele>1249.8</ele>
        <time>2022-08-13T15:47:36Z</time>
      </trkpt>
      <trkpt lat="4.4664410" lon="-75.7477720">
        <ele>1251.0</ele>
        <time>2022-08-13T15:47:38Z</time>
      </trkpt>
      <trkpt lat="4.4663960" lon="-75.7477010">
        <ele>1252.0</ele>
        <time>2022-08-13T15:47:40Z</time>
      </trkpt>
      <trkpt lat="4.4663740" lon="-75.7476700">
        <ele>1252.4</ele>
        <time>2022-08-13T15:47:41Z</time>
      </trkpt>
      <trkpt lat="4.4662890" lon="-75.7475440">
        <ele>1253.4</ele>
        <time>2022-08-13T15:47:45Z</time>
      </trkpt>
      <trkpt lat="4.4662580" lon="-75.7474800">
        <ele>1254.6</ele>
        <time>2022-08-13T15:47:47Z</time>
      </trkpt>
      <trkpt lat="4.4662460" lon="-75.7474540">
        <ele>1254.8</ele>
        <time>2022-08-13T15:47:48Z</time>
      </trkpt>
      <trkpt lat="4.4661940" lon="-75.7473090">
        <ele>1256.0</ele>
        <time>2022-08-13T15:47:52Z</time>
      </trkpt>
      <trkpt lat="4.4661700" lon="-75.7472480">
        <ele>1256.6</ele>
        <time>2022-08-13T15:47:54Z</time>
      </trkpt>
      <trkpt lat="4.4661470" lon="-75.7471840">
        <ele>1257.2</ele>
        <time>2022-08-13T15:47:56Z</time>
      </trkpt>
      <trkpt lat="4.4660940" lon="-75.7470620">
        <ele>1258.2</ele>
        <time>2022-08-13T15:48:00Z</time>
      </trkpt>
      <trkpt lat="4.4660830" lon="-75.7470300">
        <ele>1258.4</ele>
        <time>2022-08-13T15:48:01Z</time>
      </trkpt>
      <trkpt lat="4.4660170" lon="-75.7468290">
        <ele>1259.2</ele>
        <time>2022-08-13T15:48:07Z</time>
      </trkpt>
      <trkpt lat="4.4660050" lon="-75.7468000">
        <ele>1259.6</ele>
        <time>2022-08-13T15:48:08Z</time>
      </trkpt>
      <trkpt lat="4.4659200" lon="-75.7465800">
        <ele>1260.8</ele>
        <time>2022-08-13T15:48:14Z</time>
      </trkpt>
      <trkpt lat="4.4659070" lon="-75.7465430">
        <ele>1261.0</ele>
        <time>2022-08-13T15:48:15Z</time>
      </trkpt>
      <trkpt lat="4.4658130" lon="-75.7462690">
        <ele>1261.8</ele>
        <time>2022-08-13T15:48:22Z</time>
      </trkpt>
      <trkpt lat="4.4657820" lon="-75.7461640">
        <ele>1262.0</ele>
        <time>2022-08-13T15:48:25Z</time>
      </trkpt>
      <trkpt lat="4.4657860" lon="-75.7460790">
        <ele>1262.0</ele>
        <time>2022-08-13T15:48:27Z</time>
      </trkpt>
      <trkpt lat="4.4657730" lon="-75.7459120">
        <ele>1262.2</ele>
        <time>2022-08-13T15:48:31Z</time>
      </trkpt>
      <trkpt lat="4.4657790" lon="-75.7457360">
        <ele>1262.4</ele>
        <time>2022-08-13T15:48:36Z</time>
      </trkpt>
      <trkpt lat="4.4657970" lon="-75.7456320">
        <ele>1262.6</ele>
        <time>2022-08-13T15:48:42Z</time>
      </trkpt>
      <trkpt lat="4.4658090" lon="-75.7455250">
        <ele>1263.6</ele>
        <time>2022-08-13T15:48:47Z</time>
      </trkpt>
      <trkpt lat="4.4658130" lon="-75.7454800">
        <ele>1264.2</ele>
        <time>2022-08-13T15:48:49Z</time>
      </trkpt>
      <trkpt lat="4.4658250" lon="-75.7454330">
        <ele>1264.8</ele>
        <time>2022-08-13T15:48:51Z</time>
      </trkpt>
      <trkpt lat="4.4658400" lon="-75.7453210">
        <ele>1266.0</ele>
        <time>2022-08-13T15:48:56Z</time>
      </trkpt>
      <trkpt lat="4.4658590" lon="-75.7452580">
        <ele>1266.6</ele>
        <time>2022-08-13T15:48:59Z</time>
      </trkpt>
      <trkpt lat="4.4658660" lon="-75.7452300">
        <ele>1267.0</ele>
        <time>2022-08-13T15:49:00Z</time>
      </trkpt>
      <trkpt lat="4.4658880" lon="-75.7450810">
        <ele>1268.2</ele>
        <time>2022-08-13T15:49:06Z</time>
      </trkpt>
      <trkpt lat="4.4658940" lon="-75.7450590">
        <ele>1268.2</ele>
        <time>2022-08-13T15:49:07Z</time>
      </trkpt>
      <trkpt lat="4.4659240" lon="-75.7448950">
        <ele>1269.4</ele>
        <time>2022-08-13T15:49:13Z</time>
      </trkpt>
      <trkpt lat="4.4659500" lon="-75.7447770">
        <ele>1270.0</ele>
        <time>2022-08-13T15:49:17Z</time>
      </trkpt>
      <trkpt lat="4.4660530" lon="-75.7445470">
        <ele>1270.4</ele>
        <time>2022-08-13T15:49:24Z</time>
      </trkpt>
      <trkpt lat="4.4662330" lon="-75.7443270">
        <ele>1270.4</ele>
        <time>2022-08-13T15:49:31Z</time>
      </trkpt>
      <trkpt lat="4.4662600" lon="-75.7442920">
        <ele>1270.4</ele>
        <time>2022-08-13T15:49:32Z</time>
      </trkpt>
      <trkpt lat="4.4663630" lon="-75.7441510">
        <ele>1270.2</ele>
        <time>2022-08-13T15:49:36Z</time>
      </trkpt>
      <trkpt lat="4.4664130" lon="-75.7440830">
        <ele>1270.0</ele>
        <time>2022-08-13T15:49:38Z</time>
      </trkpt>
      <trkpt lat="4.4664500" lon="-75.7440180">
        <ele>1269.8</ele>
        <time>2022-08-13T15:49:40Z</time>
      </trkpt>
      <trkpt lat="4.4664770" lon="-75.7439830">
        <ele>1270.0</ele>
        <time>2022-08-13T15:49:41Z</time>
      </trkpt>
      <trkpt lat="4.4665560" lon="-75.7439370">
        <ele>1269.8</ele>
        <time>2022-08-13T15:49:43Z</time>
      </trkpt>
      <trkpt lat="4.4665980" lon="-75.7439330">
        <ele>1269.8</ele>
        <time>2022-08-13T15:49:44Z</time>
      </trkpt>
      <trkpt lat="4.4669570" lon="-75.7439470">
        <ele>1269.6</ele>
        <time>2022-08-13T15:49:52Z</time>
      </trkpt>
      <trkpt lat="4.4670010" lon="-75.7439510">
        <ele>1269.8</ele>
        <time>2022-08-13T15:49:53Z</time>
      </trkpt>
      <trkpt lat="4.4670780" lon="-75.7439450">
        <ele>1269.8</ele>
        <time>2022-08-13T15:49:55Z</time>
      </trkpt>
      <trkpt lat="4.4671720" lon="-75.7439160">
        <ele>1269.6</ele>
        <time>2022-08-13T15:49:57Z</time>
      </trkpt>
      <trkpt lat="4.4672130" lon="-75.7438990">
        <ele>1269.6</ele>
        <time>2022-08-13T15:49:58Z</time>
      </trkpt>
      <trkpt lat="4.4672840" lon="-75.7438640">
        <ele>1269.6</ele>
        <time>2022-08-13T15:50:00Z</time>
      </trkpt>
      <trkpt lat="4.4674310" lon="-75.7437440">
        <ele>1269.6</ele>
        <time>2022-08-13T15:50:04Z</time>
      </trkpt>
      <trkpt lat="4.4676660" lon="-75.7435070">
        <ele>1270.0</ele>
        <time>2022-08-13T15:50:12Z</time>
      </trkpt>
      <trkpt lat="4.4678360" lon="-75.7433330">
        <ele>1270.4</ele>
        <time>2022-08-13T15:50:19Z</time>
      </trkpt>
      <trkpt lat="4.4679880" lon="-75.7431890">
        <ele>1271.6</ele>
        <time>2022-08-13T15:50:26Z</time>
      </trkpt>
      <trkpt lat="4.4680110" lon="-75.7431670">
        <ele>1271.6</ele>
        <time>2022-08-13T15:50:27Z</time>
      </trkpt>
      <trkpt lat="4.4681560" lon="-75.7430380">
        <ele>1272.8</ele>
        <time>2022-08-13T15:50:33Z</time>
      </trkpt>
      <trkpt lat="4.4682260" lon="-75.7429750">
        <ele>1273.0</ele>
        <time>2022-08-13T15:50:36Z</time>
      </trkpt>
      <trkpt lat="4.4684170" lon="-75.7427850">
        <ele>1274.0</ele>
        <time>2022-08-13T15:50:43Z</time>
      </trkpt>
      <trkpt lat="4.4686190" lon="-75.7426150">
        <ele>1274.0</ele>
        <time>2022-08-13T15:50:49Z</time>
      </trkpt>
      <trkpt lat="4.4686750" lon="-75.7425670">
        <ele>1274.0</ele>
        <time>2022-08-13T15:50:51Z</time>
      </trkpt>
      <trkpt lat="4.4688000" lon="-75.7424290">
        <ele>1274.2</ele>
        <time>2022-08-13T15:50:56Z</time>
      </trkpt>
      <trkpt lat="4.4690360" lon="-75.7421740">
        <ele>1274.2</ele>
        <time>2022-08-13T15:51:04Z</time>
      </trkpt>
      <trkpt lat="4.4691530" lon="-75.7419810">
        <ele>1274.4</ele>
        <time>2022-08-13T15:51:09Z</time>
      </trkpt>
      <trkpt lat="4.4692130" lon="-75.7418650">
        <ele>1274.2</ele>
        <time>2022-08-13T15:51:12Z</time>
      </trkpt>
      <trkpt lat="4.4692820" lon="-75.7417580">
        <ele>1274.2</ele>
        <time>2022-08-13T15:51:15Z</time>
      </trkpt>
      <trkpt lat="4.4693380" lon="-75.7416960">
        <ele>1274.2</ele>
        <time>2022-08-13T15:51:17Z</time>
      </trkpt>
      <trkpt lat="4.4694040" lon="-75.7416340">
        <ele>1274.2</ele>
        <time>2022-08-13T15:51:19Z</time>
      </trkpt>
      <trkpt lat="4.4695430" lon="-75.7415260">
        <ele>1274.2</ele>
        <time>2022-08-13T15:51:23Z</time>
      </trkpt>
      <trkpt lat="4.4695790" lon="-75.7415010">
        <ele>1274.2</ele>
        <time>2022-08-13T15:51:24Z</time>
      </trkpt>
      <trkpt lat="4.4697480" lon="-75.7413800">
        <ele>1274.4</ele>
        <time>2022-08-13T15:51:29Z</time>
      </trkpt>
      <trkpt lat="4.4698890" lon="-75.7412700">
        <ele>1274.6</ele>
        <time>2022-08-13T15:51:33Z</time>
      </trkpt>
      <trkpt lat="4.4699650" lon="-75.7412180">
        <ele>1275.0</ele>
        <time>2022-08-13T15:51:35Z</time>
      </trkpt>
      <trkpt lat="4.4700400" lon="-75.7411700">
        <ele>1275.2</ele>
        <time>2022-08-13T15:51:37Z</time>
      </trkpt>
      <trkpt lat="4.4703550" lon="-75.7409990">
        <ele>1275.6</ele>
        <time>2022-08-13T15:51:45Z</time>
      </trkpt>
      <trkpt lat="4.4707380" lon="-75.7408270">
        <ele>1276.0</ele>
        <time>2022-08-13T15:51:53Z</time>
      </trkpt>
      <trkpt lat="4.4710620" lon="-75.7406830">
        <ele>1276.0</ele>
        <time>2022-08-13T15:51:58Z</time>
      </trkpt>
      <trkpt lat="4.4711190" lon="-75.7406380">
        <ele>1276.0</ele>
        <time>2022-08-13T15:51:59Z</time>
      </trkpt>
      <trkpt lat="4.4711720" lon="-75.7405820">
        <ele>1275.6</ele>
        <time>2022-08-13T15:52:00Z</time>
      </trkpt>
      <trkpt lat="4.4712770" lon="-75.7404690">
        <ele>1275.2</ele>
        <time>2022-08-13T15:52:02Z</time>
      </trkpt>
      <trkpt lat="4.4713260" lon="-75.7404050">
        <ele>1274.6</ele>
        <time>2022-08-13T15:52:03Z</time>
      </trkpt>
      <trkpt lat="4.4713800" lon="-75.7403440">
        <ele>1274.0</ele>
        <time>2022-08-13T15:52:04Z</time>
      </trkpt>
      <trkpt lat="4.4715590" lon="-75.7401760">
        <ele>1272.4</ele>
        <time>2022-08-13T15:52:07Z</time>
      </trkpt>
      <trkpt lat="4.4717190" lon="-75.7400080">
        <ele>1271.8</ele>
        <time>2022-08-13T15:52:10Z</time>
      </trkpt>
      <trkpt lat="4.4717570" lon="-75.7399470">
        <ele>1271.4</ele>
        <time>2022-08-13T15:52:11Z</time>
      </trkpt>
      <trkpt lat="4.4717860" lon="-75.7398780">
        <ele>1271.0</ele>
        <time>2022-08-13T15:52:12Z</time>
      </trkpt>
      <trkpt lat="4.4718270" lon="-75.7397450">
        <ele>1270.2</ele>
        <time>2022-08-13T15:52:14Z</time>
      </trkpt>
      <trkpt lat="4.4718490" lon="-75.7396840">
        <ele>1270.2</ele>
        <time>2022-08-13T15:52:15Z</time>
      </trkpt>
      <trkpt lat="4.4718820" lon="-75.7396180">
        <ele>1270.0</ele>
        <time>2022-08-13T15:52:16Z</time>
      </trkpt>
      <trkpt lat="4.4719480" lon="-75.7395250">
        <ele>1270.0</ele>
        <time>2022-08-13T15:52:18Z</time>
      </trkpt>
      <trkpt lat="4.4719780" lon="-75.7394940">
        <ele>1270.0</ele>
        <time>2022-08-13T15:52:19Z</time>
      </trkpt>
      <trkpt lat="4.4720160" lon="-75.7394630">
        <ele>1270.0</ele>
        <time>2022-08-13T15:52:20Z</time>
      </trkpt>
      <trkpt lat="4.4720970" lon="-75.7393980">
        <ele>1270.2</ele>
        <time>2022-08-13T15:52:23Z</time>
      </trkpt>
      <trkpt lat="4.4721950" lon="-75.7393370">
        <ele>1271.6</ele>
        <time>2022-08-13T15:52:27Z</time>
      </trkpt>
      <trkpt lat="4.4722450" lon="-75.7393100">
        <ele>1273.0</ele>
        <time>2022-08-13T15:52:29Z</time>
      </trkpt>
      <trkpt lat="4.4722720" lon="-75.7392960">
        <ele>1273.8</ele>
        <time>2022-08-13T15:52:30Z</time>
      </trkpt>
      <trkpt lat="4.4723490" lon="-75.7392590">
        <ele>1274.4</ele>
        <time>2022-08-13T15:52:33Z</time>
      </trkpt>
      <trkpt lat="4.4724240" lon="-75.7392140">
        <ele>1275.8</ele>
        <time>2022-08-13T15:52:36Z</time>
      </trkpt>
      <trkpt lat="4.4724460" lon="-75.7392020">
        <ele>1276.0</ele>
        <time>2022-08-13T15:52:37Z</time>
      </trkpt>
      <trkpt lat="4.4725530" lon="-75.7391310">
        <ele>1276.8</ele>
        <time>2022-08-13T15:52:41Z</time>
      </trkpt>
      <trkpt lat="4.4726460" lon="-75.7390300">
        <ele>1277.4</ele>
        <time>2022-08-13T15:52:45Z</time>
      </trkpt>
      <trkpt lat="4.4726550" lon="-75.7389690">
        <ele>1278.0</ele>
        <time>2022-08-13T15:52:47Z</time>
      </trkpt>
      <trkpt lat="4.4726870" lon="-75.7388130">
        <ele>1279.0</ele>
        <time>2022-08-13T15:52:53Z</time>
      </trkpt>
      <trkpt lat="4.4726870" lon="-75.7387970">
        <ele>1279.2</ele>
        <time>2022-08-13T15:52:54Z</time>
      </trkpt>
      <trkpt lat="4.4726890" lon="-75.7386770">
        <ele>1280.6</ele>
        <time>2022-08-13T15:53:00Z</time>
      </trkpt>
      <trkpt lat="4.4727040" lon="-75.7386060">
        <ele>1281.8</ele>
        <time>2022-08-13T15:53:04Z</time>
      </trkpt>
      <trkpt lat="4.4727130" lon="-75.7385430">
        <ele>1283.0</ele>
        <time>2022-08-13T15:53:08Z</time>
      </trkpt>
      <trkpt lat="4.4727150" lon="-75.7385250">
        <ele>1283.4</ele>
        <time>2022-08-13T15:53:09Z</time>
      </trkpt>
      <trkpt lat="4.4727330" lon="-75.7384440">
        <ele>1284.4</ele>
        <time>2022-08-13T15:53:13Z</time>
      </trkpt>
      <trkpt lat="4.4727530" lon="-75.7383590">
        <ele>1285.4</ele>
        <time>2022-08-13T15:53:17Z</time>
      </trkpt>
      <trkpt lat="4.4727610" lon="-75.7383400">
        <ele>1285.6</ele>
        <time>2022-08-13T15:53:18Z</time>
      </trkpt>
      <trkpt lat="4.4727690" lon="-75.7383190">
        <ele>1285.8</ele>
        <time>2022-08-13T15:53:19Z</time>
      </trkpt>
      <trkpt lat="4.4728640" lon="-75.7380960">
        <ele>1286.6</ele>
        <time>2022-08-13T15:53:28Z</time>
      </trkpt>
      <trkpt lat="4.4728910" lon="-75.7380400">
        <ele>1286.8</ele>
        <time>2022-08-13T15:53:30Z</time>
      </trkpt>
      <trkpt lat="4.4729630" lon="-75.7378530">
        <ele>1287.2</ele>
        <time>2022-08-13T15:53:36Z</time>
      </trkpt>
      <trkpt lat="4.4729770" lon="-75.7378200">
        <ele>1287.4</ele>
        <time>2022-08-13T15:53:37Z</time>
      </trkpt>
      <trkpt lat="4.4730920" lon="-75.7376600">
        <ele>1287.8</ele>
        <time>2022-08-13T15:53:43Z</time>
      </trkpt>
      <trkpt lat="4.4731410" lon="-75.7376160">
        <ele>1288.0</ele>
        <time>2022-08-13T15:53:45Z</time>
      </trkpt>
      <trkpt lat="4.4732400" lon="-75.7375290">
        <ele>1288.8</ele>
        <time>2022-08-13T15:53:49Z</time>
      </trkpt>
      <trkpt lat="4.4733500" lon="-75.7374430">
        <ele>1289.2</ele>
        <time>2022-08-13T15:53:53Z</time>
      </trkpt>
      <trkpt lat="4.4734310" lon="-75.7373770">
        <ele>1289.6</ele>
        <time>2022-08-13T15:53:56Z</time>
      </trkpt>
      <trkpt lat="4.4735980" lon="-75.7371560">
        <ele>1290.4</ele>
        <time>2022-08-13T15:54:03Z</time>
      </trkpt>
      <trkpt lat="4.4738010" lon="-75.7368970">
        <ele>1290.8</ele>
        <time>2022-08-13T15:54:11Z</time>
      </trkpt>
      <trkpt lat="4.4740530" lon="-75.7366850">
        <ele>1291.0</ele>
        <time>2022-08-13T15:54:19Z</time>
      </trkpt>
      <trkpt lat="4.4742350" lon="-75.7365420">
        <ele>1291.6</ele>
        <time>2022-08-13T15:54:25Z</time>
      </trkpt>
      <trkpt lat="4.4742600" lon="-75.7365170">
        <ele>1291.8</ele>
        <time>2022-08-13T15:54:26Z</time>
      </trkpt>
      <trkpt lat="4.4745190" lon="-75.7362700">
        <ele>1293.0</ele>
        <time>2022-08-13T15:54:35Z</time>
      </trkpt>
      <trkpt lat="4.4748380" lon="-75.7360580">
        <ele>1293.6</ele>
        <time>2022-08-13T15:54:44Z</time>
      </trkpt>
      <trkpt lat="4.4750520" lon="-75.7359000">
        <ele>1294.4</ele>
        <time>2022-08-13T15:54:50Z</time>
      </trkpt>
      <trkpt lat="4.4751440" lon="-75.7358010">
        <ele>1294.4</ele>
        <time>2022-08-13T15:54:53Z</time>
      </trkpt>
      <trkpt lat="4.4752020" lon="-75.7357290">
        <ele>1294.4</ele>
        <time>2022-08-13T15:54:55Z</time>
      </trkpt>
      <trkpt lat="4.4754120" lon="-75.7354390">
        <ele>1294.6</ele>
        <time>2022-08-13T15:55:02Z</time>
      </trkpt>
      <trkpt lat="4.4755840" lon="-75.7351990">
        <ele>1294.4</ele>
        <time>2022-08-13T15:55:07Z</time>
      </trkpt>
      <trkpt lat="4.4756100" lon="-75.7351500">
        <ele>1294.4</ele>
        <time>2022-08-13T15:55:08Z</time>
      </trkpt>
      <trkpt lat="4.4756650" lon="-75.7350570">
        <ele>1294.2</ele>
        <time>2022-08-13T15:55:10Z</time>
      </trkpt>
      <trkpt lat="4.4757750" lon="-75.7349430">
        <ele>1294.0</ele>
        <time>2022-08-13T15:55:13Z</time>
      </trkpt>
      <trkpt lat="4.4758100" lon="-75.7349050">
        <ele>1293.8</ele>
        <time>2022-08-13T15:55:14Z</time>
      </trkpt>
      <trkpt lat="4.4759570" lon="-75.7347030">
        <ele>1293.6</ele>
        <time>2022-08-13T15:55:19Z</time>
      </trkpt>
      <trkpt lat="4.4761240" lon="-75.7344670">
        <ele>1293.6</ele>
        <time>2022-08-13T15:55:25Z</time>
      </trkpt>
      <trkpt lat="4.4762790" lon="-75.7342880">
        <ele>1294.2</ele>
        <time>2022-08-13T15:55:31Z</time>
      </trkpt>
      <trkpt lat="4.4763900" lon="-75.7341190">
        <ele>1295.4</ele>
        <time>2022-08-13T15:55:37Z</time>
      </trkpt>
      <trkpt lat="4.4764650" lon="-75.7340260">
        <ele>1296.0</ele>
        <time>2022-08-13T15:55:41Z</time>
      </trkpt>
      <trkpt lat="4.4764830" lon="-75.7339970">
        <ele>1296.2</ele>
        <time>2022-08-13T15:55:42Z</time>
      </trkpt>
      <trkpt lat="4.4766510" lon="-75.7337910">
        <ele>1297.2</ele>
        <time>2022-08-13T15:55:50Z</time>
      </trkpt>
      <trkpt lat="4.4767980" lon="-75.7335960">
        <ele>1297.8</ele>
        <time>2022-08-13T15:55:57Z</time>
      </trkpt>
      <trkpt lat="4.4769090" lon="-75.7334710">
        <ele>1298.2</ele>
        <time>2022-08-13T15:56:02Z</time>
      </trkpt>
      <trkpt lat="4.4770080" lon="-75.7333530">
        <ele>1298.6</ele>
        <time>2022-08-13T15:56:06Z</time>
      </trkpt>
      <trkpt lat="4.4770770" lon="-75.7332660">
        <ele>1298.6</ele>
        <time>2022-08-13T15:56:09Z</time>
      </trkpt>
      <trkpt lat="4.4772340" lon="-75.7330700">
        <ele>1298.6</ele>
        <time>2022-08-13T15:56:14Z</time>
      </trkpt>
      <trkpt lat="4.4774630" lon="-75.7328020">
        <ele>1297.8</ele>
        <time>2022-08-13T15:56:20Z</time>
      </trkpt>
      <trkpt lat="4.4775300" lon="-75.7327120">
        <ele>1297.4</ele>
        <time>2022-08-13T15:56:22Z</time>
      </trkpt>
      <trkpt lat="4.4776600" lon="-75.7325470">
        <ele>1296.6</ele>
        <time>2022-08-13T15:56:26Z</time>
      </trkpt>
      <trkpt lat="4.4777220" lon="-75.7324720">
        <ele>1296.6</ele>
        <time>2022-08-13T15:56:28Z</time>
      </trkpt>
      <trkpt lat="4.4778660" lon="-75.7322910">
        <ele>1296.6</ele>
        <time>2022-08-13T15:56:34Z</time>
      </trkpt>
      <trkpt lat="4.4779590" lon="-75.7321070">
        <ele>1298.0</ele>
        <time>2022-08-13T15:56:40Z</time>
      </trkpt>
      <trkpt lat="4.4780480" lon="-75.7319830">
        <ele>1298.8</ele>
        <time>2022-08-13T15:56:45Z</time>
      </trkpt>
      <trkpt lat="4.4780880" lon="-75.7319230">
        <ele>1299.4</ele>
        <time>2022-08-13T15:56:47Z</time>
      </trkpt>
      <trkpt lat="4.4781830" lon="-75.7318080">
        <ele>1299.8</ele>
        <time>2022-08-13T15:56:51Z</time>
      </trkpt>
      <trkpt lat="4.4782770" lon="-75.7316480">
        <ele>1300.6</ele>
        <time>2022-08-13T15:56:56Z</time>
      </trkpt>
      <trkpt lat="4.4783360" lon="-75.7315590">
        <ele>1300.8</ele>
        <time>2022-08-13T15:56:59Z</time>
      </trkpt>
      <trkpt lat="4.4784670" lon="-75.7314050">
        <ele>1301.6</ele>
        <time>2022-08-13T15:57:05Z</time>
      </trkpt>
      <trkpt lat="4.4784890" lon="-75.7313820">
        <ele>1301.8</ele>
        <time>2022-08-13T15:57:06Z</time>
      </trkpt>
      <trkpt lat="4.4786050" lon="-75.7312030">
        <ele>1302.8</ele>
        <time>2022-08-13T15:57:13Z</time>
      </trkpt>
      <trkpt lat="4.4786170" lon="-75.7311770">
        <ele>1303.0</ele>
        <time>2022-08-13T15:57:14Z</time>
      </trkpt>
      <trkpt lat="4.4787110" lon="-75.7310370">
        <ele>1303.6</ele>
        <time>2022-08-13T15:57:19Z</time>
      </trkpt>
      <trkpt lat="4.4787900" lon="-75.7309440">
        <ele>1304.2</ele>
        <time>2022-08-13T15:57:23Z</time>
      </trkpt>
      <trkpt lat="4.4788980" lon="-75.7308260">
        <ele>1304.8</ele>
        <time>2022-08-13T15:57:28Z</time>
      </trkpt>
      <trkpt lat="4.4789500" lon="-75.7307380">
        <ele>1305.4</ele>
        <time>2022-08-13T15:57:32Z</time>
      </trkpt>
      <trkpt lat="4.4789710" lon="-75.7306890">
        <ele>1305.4</ele>
        <time>2022-08-13T15:57:34Z</time>
      </trkpt>
      <trkpt lat="4.4790330" lon="-75.7305690">
        <ele>1306.6</ele>
        <time>2022-08-13T15:57:39Z</time>
      </trkpt>
      <trkpt lat="4.4791220" lon="-75.7304380">
        <ele>1307.4</ele>
        <time>2022-08-13T15:57:44Z</time>
      </trkpt>
      <trkpt lat="4.4792820" lon="-75.7302190">
        <ele>1308.0</ele>
        <time>2022-08-13T15:57:53Z</time>
      </trkpt>
      <trkpt lat="4.4794070" lon="-75.7300650">
        <ele>1308.8</ele>
        <time>2022-08-13T15:58:00Z</time>
      </trkpt>
      <trkpt lat="4.4794710" lon="-75.7299720">
        <ele>1309.2</ele>
        <time>2022-08-13T15:58:04Z</time>
      </trkpt>
      <trkpt lat="4.4795650" lon="-75.7298530">
        <ele>1309.6</ele>
        <time>2022-08-13T15:58:09Z</time>
      </trkpt>
      <trkpt lat="4.4796710" lon="-75.7297050">
        <ele>1309.8</ele>
        <time>2022-08-13T15:58:14Z</time>
      </trkpt>
      <trkpt lat="4.4797250" lon="-75.7296140">
        <ele>1310.4</ele>
        <time>2022-08-13T15:58:17Z</time>
      </trkpt>
      <trkpt lat="4.4797960" lon="-75.7295330">
        <ele>1310.6</ele>
        <time>2022-08-13T15:58:20Z</time>
      </trkpt>
      <trkpt lat="4.4799840" lon="-75.7293340">
        <ele>1311.2</ele>
        <time>2022-08-13T15:58:27Z</time>
      </trkpt>
      <trkpt lat="4.4801900" lon="-75.7290790">
        <ele>1311.4</ele>
        <time>2022-08-13T15:58:34Z</time>
      </trkpt>
      <trkpt lat="4.4804190" lon="-75.7288030">
        <ele>1311.0</ele>
        <time>2022-08-13T15:58:41Z</time>
      </trkpt>
      <trkpt lat="4.4805850" lon="-75.7286120">
        <ele>1311.0</ele>
        <time>2022-08-13T15:58:47Z</time>
      </trkpt>
      <trkpt lat="4.4806980" lon="-75.7284630">
        <ele>1311.2</ele>
        <time>2022-08-13T15:58:53Z</time>
      </trkpt>
      <trkpt lat="4.4807440" lon="-75.7284110">
        <ele>1312.0</ele>
        <time>2022-08-13T15:58:55Z</time>
      </trkpt>
      <trkpt lat="4.4808340" lon="-75.7283010">
        <ele>1313.2</ele>
        <time>2022-08-13T15:58:59Z</time>
      </trkpt>
      <trkpt lat="4.4808620" lon="-75.7282760">
        <ele>1313.4</ele>
        <time>2022-08-13T15:59:00Z</time>
      </trkpt>
      <trkpt lat="4.4809620" lon="-75.7281490">
        <ele>1314.4</ele>
        <time>2022-08-13T15:59:04Z</time>
      </trkpt>
      <trkpt lat="4.4810130" lon="-75.7280940">
        <ele>1314.6</ele>
        <time>2022-08-13T15:59:06Z</time>
      </trkpt>
      <trkpt lat="4.4812710" lon="-75.7277740">
        <ele>1315.0</ele>
        <time>2022-08-13T15:59:16Z</time>
      </trkpt>
      <trkpt lat="4.4814550" lon="-75.7274740">
        <ele>1315.4</ele>
        <time>2022-08-13T15:59:24Z</time>
      </trkpt>
      <trkpt lat="4.4815620" lon="-75.7272780">
        <ele>1315.6</ele>
        <time>2022-08-13T15:59:29Z</time>
      </trkpt>
      <trkpt lat="4.4816040" lon="-75.7272000">
        <ele>1315.8</ele>
        <time>2022-08-13T15:59:31Z</time>
      </trkpt>
      <trkpt lat="4.4817480" lon="-75.7269290">
        <ele>1316.2</ele>
        <time>2022-08-13T15:59:38Z</time>
      </trkpt>
      <trkpt lat="4.4818950" lon="-75.7266960">
        <ele>1316.6</ele>
        <time>2022-08-13T15:59:44Z</time>
      </trkpt>
      <trkpt lat="4.4819680" lon="-75.7265700">
        <ele>1316.8</ele>
        <time>2022-08-13T15:59:47Z</time>
      </trkpt>
      <trkpt lat="4.4820320" lon="-75.7264520">
        <ele>1317.0</ele>
        <time>2022-08-13T15:59:50Z</time>
      </trkpt>
      <trkpt lat="4.4821450" lon="-75.7262630">
        <ele>1317.2</ele>
        <time>2022-08-13T15:59:55Z</time>
      </trkpt>
      <trkpt lat="4.4823140" lon="-75.7259560">
        <ele>1317.6</ele>
        <time>2022-08-13T16:00:04Z</time>
      </trkpt>
      <trkpt lat="4.4823720" lon="-75.7258740">
        <ele>1318.4</ele>
        <time>2022-08-13T16:00:07Z</time>
      </trkpt>
      <trkpt lat="4.4824380" lon="-75.7257680">
        <ele>1318.6</ele>
        <time>2022-08-13T16:00:11Z</time>
      </trkpt>
      <trkpt lat="4.4825190" lon="-75.7256450">
        <ele>1319.4</ele>
        <time>2022-08-13T16:00:16Z</time>
      </trkpt>
      <trkpt lat="4.4825860" lon="-75.7255480">
        <ele>1320.2</ele>
        <time>2022-08-13T16:00:20Z</time>
      </trkpt>
      <trkpt lat="4.4826200" lon="-75.7255020">
        <ele>1320.6</ele>
        <time>2022-08-13T16:00:22Z</time>
      </trkpt>
      <trkpt lat="4.4826950" lon="-75.7254220">
        <ele>1321.4</ele>
        <time>2022-08-13T16:00:26Z</time>
      </trkpt>
      <trkpt lat="4.4827560" lon="-75.7253600">
        <ele>1321.8</ele>
        <time>2022-08-13T16:00:29Z</time>
      </trkpt>
      <trkpt lat="4.4828570" lon="-75.7252460">
        <ele>1322.8</ele>
        <time>2022-08-13T16:00:34Z</time>
      </trkpt>
      <trkpt lat="4.4829220" lon="-75.7251730">
        <ele>1323.2</ele>
        <time>2022-08-13T16:00:37Z</time>
      </trkpt>
      <trkpt lat="4.4830390" lon="-75.7250470">
        <ele>1323.8</ele>
        <time>2022-08-13T16:00:42Z</time>
      </trkpt>
      <trkpt lat="4.4831180" lon="-75.7249630">
        <ele>1324.4</ele>
        <time>2022-08-13T16:00:45Z</time>
      </trkpt>
      <trkpt lat="4.4832660" lon="-75.7247930">
        <ele>1325.2</ele>
        <time>2022-08-13T16:00:51Z</time>
      </trkpt>
      <trkpt lat="4.4833440" lon="-75.7247070">
        <ele>1325.4</ele>
        <time>2022-08-13T16:00:54Z</time>
      </trkpt>
      <trkpt lat="4.4835480" lon="-75.7244780">
        <ele>1326.2</ele>
        <time>2022-08-13T16:01:02Z</time>
      </trkpt>
      <trkpt lat="4.4835820" lon="-75.7244410">
        <ele>1326.2</ele>
        <time>2022-08-13T16:01:03Z</time>
      </trkpt>
      <trkpt lat="4.4837860" lon="-75.7242300">
        <ele>1326.2</ele>
        <time>2022-08-13T16:01:08Z</time>
      </trkpt>
      <trkpt lat="4.4841170" lon="-75.7238720">
        <ele>1325.8</ele>
        <time>2022-08-13T16:01:16Z</time>
      </trkpt>
      <trkpt lat="4.4843630" lon="-75.7236140">
        <ele>1325.6</ele>
        <time>2022-08-13T16:01:23Z</time>
      </trkpt>
      <trkpt lat="4.4845930" lon="-75.7233840">
        <ele>1327.0</ele>
        <time>2022-08-13T16:01:31Z</time>
      </trkpt>
      <trkpt lat="4.4846680" lon="-75.7233040">
        <ele>1327.8</ele>
        <time>2022-08-13T16:01:34Z</time>
      </trkpt>
      <trkpt lat="4.4847630" lon="-75.7232080">
        <ele>1328.8</ele>
        <time>2022-08-13T16:01:38Z</time>
      </trkpt>
      <trkpt lat="4.4848050" lon="-75.7231680">
        <ele>1329.2</ele>
        <time>2022-08-13T16:01:40Z</time>
      </trkpt>
      <trkpt lat="4.4848680" lon="-75.7231060">
        <ele>1329.8</ele>
        <time>2022-08-13T16:01:43Z</time>
      </trkpt>
      <trkpt lat="4.4849470" lon="-75.7230180">
        <ele>1330.8</ele>
        <time>2022-08-13T16:01:47Z</time>
      </trkpt>
      <trkpt lat="4.4849860" lon="-75.7229740">
        <ele>1331.2</ele>
        <time>2022-08-13T16:01:49Z</time>
      </trkpt>
      <trkpt lat="4.4850730" lon="-75.7228160">
        <ele>1332.4</ele>
        <time>2022-08-13T16:01:55Z</time>
      </trkpt>
      <trkpt lat="4.4851290" lon="-75.7226360">
        <ele>1333.6</ele>
        <time>2022-08-13T16:02:01Z</time>
      </trkpt>
      <trkpt lat="4.4851730" lon="-75.7224900">
        <ele>1334.4</ele>
        <time>2022-08-13T16:02:06Z</time>
      </trkpt>
      <trkpt lat="4.4851810" lon="-75.7224610">
        <ele>1334.6</ele>
        <time>2022-08-13T16:02:07Z</time>
      </trkpt>
      <trkpt lat="4.4852290" lon="-75.7222900">
        <ele>1336.0</ele>
        <time>2022-08-13T16:02:13Z</time>
      </trkpt>
      <trkpt lat="4.4852730" lon="-75.7221370">
        <ele>1336.8</ele>
        <time>2022-08-13T16:02:18Z</time>
      </trkpt>
      <trkpt lat="4.4852940" lon="-75.7220720">
        <ele>1337.0</ele>
        <time>2022-08-13T16:02:20Z</time>
      </trkpt>
      <trkpt lat="4.4853670" lon="-75.7218340">
        <ele>1337.8</ele>
        <time>2022-08-13T16:02:27Z</time>
      </trkpt>
      <trkpt lat="4.4853980" lon="-75.7217610">
        <ele>1338.0</ele>
        <time>2022-08-13T16:02:29Z</time>
      </trkpt>
      <trkpt lat="4.4854550" lon="-75.7216060">
        <ele>1338.4</ele>
        <time>2022-08-13T16:02:33Z</time>
      </trkpt>
      <trkpt lat="4.4854790" lon="-75.7215280">
        <ele>1338.6</ele>
        <time>2022-08-13T16:02:35Z</time>
      </trkpt>
      <trkpt lat="4.4854910" lon="-75.7214470">
        <ele>1338.6</ele>
        <time>2022-08-13T16:02:37Z</time>
      </trkpt>
      <trkpt lat="4.4855010" lon="-75.7214080">
        <ele>1338.6</ele>
        <time>2022-08-13T16:02:38Z</time>
      </trkpt>
      <trkpt lat="4.4855110" lon="-75.7213700">
        <ele>1338.6</ele>
        <time>2022-08-13T16:02:39Z</time>
      </trkpt>
      <trkpt lat="4.4855220" lon="-75.7213030">
        <ele>1338.8</ele>
        <time>2022-08-13T16:02:41Z</time>
      </trkpt>
      <trkpt lat="4.4855320" lon="-75.7212730">
        <ele>1338.8</ele>
        <time>2022-08-13T16:02:42Z</time>
      </trkpt>
      <trkpt lat="4.4855730" lon="-75.7211490">
        <ele>1339.4</ele>
        <time>2022-08-13T16:02:46Z</time>
      </trkpt>
      <trkpt lat="4.4855820" lon="-75.7211190">
        <ele>1339.4</ele>
        <time>2022-08-13T16:02:47Z</time>
      </trkpt>
      <trkpt lat="4.4855940" lon="-75.7210890">
        <ele>1339.4</ele>
        <time>2022-08-13T16:02:48Z</time>
      </trkpt>
      <trkpt lat="4.4856620" lon="-75.7209240">
        <ele>1340.4</ele>
        <time>2022-08-13T16:02:53Z</time>
      </trkpt>
      <trkpt lat="4.4856730" lon="-75.7208490">
        <ele>1340.6</ele>
        <time>2022-08-13T16:02:55Z</time>
      </trkpt>
      <trkpt lat="4.4857650" lon="-75.7205180">
        <ele>1341.2</ele>
        <time>2022-08-13T16:03:04Z</time>
      </trkpt>
      <trkpt lat="4.4859020" lon="-75.7203240">
        <ele>1341.6</ele>
        <time>2022-08-13T16:03:10Z</time>
      </trkpt>
      <trkpt lat="4.4860980" lon="-75.7201390">
        <ele>1342.0</ele>
        <time>2022-08-13T16:03:17Z</time>
      </trkpt>
      <trkpt lat="4.4862190" lon="-75.7200190">
        <ele>1342.6</ele>
        <time>2022-08-13T16:03:22Z</time>
      </trkpt>
      <trkpt lat="4.4863430" lon="-75.7199030">
        <ele>1342.8</ele>
        <time>2022-08-13T16:03:27Z</time>
      </trkpt>
      <trkpt lat="4.4863940" lon="-75.7198540">
        <ele>1343.2</ele>
        <time>2022-08-13T16:03:29Z</time>
      </trkpt>
      <trkpt lat="4.4864600" lon="-75.7197730">
        <ele>1343.8</ele>
        <time>2022-08-13T16:03:32Z</time>
      </trkpt>
      <trkpt lat="4.4864970" lon="-75.7197230">
        <ele>1344.2</ele>
        <time>2022-08-13T16:03:34Z</time>
      </trkpt>
      <trkpt lat="4.4866680" lon="-75.7195210">
        <ele>1345.2</ele>
        <time>2022-08-13T16:03:41Z</time>
      </trkpt>
      <trkpt lat="4.4868400" lon="-75.7193300">
        <ele>1346.0</ele>
        <time>2022-08-13T16:03:48Z</time>
      </trkpt>
      <trkpt lat="4.4869290" lon="-75.7192160">
        <ele>1346.2</ele>
        <time>2022-08-13T16:03:52Z</time>
      </trkpt>
      <trkpt lat="4.4870180" lon="-75.7191000">
        <ele>1347.4</ele>
        <time>2022-08-13T16:03:56Z</time>
      </trkpt>
      <trkpt lat="4.4870420" lon="-75.7190690">
        <ele>1347.4</ele>
        <time>2022-08-13T16:03:57Z</time>
      </trkpt>
      <trkpt lat="4.4871350" lon="-75.7189340">
        <ele>1348.6</ele>
        <time>2022-08-13T16:04:01Z</time>
      </trkpt>
      <trkpt lat="4.4872540" lon="-75.7187520">
        <ele>1349.2</ele>
        <time>2022-08-13T16:04:06Z</time>
      </trkpt>
      <trkpt lat="4.4873270" lon="-75.7186400">
        <ele>1349.6</ele>
        <time>2022-08-13T16:04:09Z</time>
      </trkpt>
      <trkpt lat="4.4875110" lon="-75.7183740">
        <ele>1350.2</ele>
        <time>2022-08-13T16:04:16Z</time>
      </trkpt>
      <trkpt lat="4.4876570" lon="-75.7181840">
        <ele>1350.6</ele>
        <time>2022-08-13T16:04:21Z</time>
      </trkpt>
      <trkpt lat="4.4878020" lon="-75.7179710">
        <ele>1351.2</ele>
        <time>2022-08-13T16:04:26Z</time>
      </trkpt>
      <trkpt lat="4.4880700" lon="-75.7175750">
        <ele>1351.4</ele>
        <time>2022-08-13T16:04:35Z</time>
      </trkpt>
      <trkpt lat="4.4881630" lon="-75.7174650">
        <ele>1351.4</ele>
        <time>2022-08-13T16:04:38Z</time>
      </trkpt>
      <trkpt lat="4.4882250" lon="-75.7173940">
        <ele>1351.8</ele>
        <time>2022-08-13T16:04:40Z</time>
      </trkpt>
      <trkpt lat="4.4882510" lon="-75.7173540">
        <ele>1351.8</ele>
        <time>2022-08-13T16:04:41Z</time>
      </trkpt>
      <trkpt lat="4.4883290" lon="-75.7172410">
        <ele>1352.2</ele>
        <time>2022-08-13T16:04:44Z</time>
      </trkpt>
      <trkpt lat="4.4884660" lon="-75.7170450">
        <ele>1352.6</ele>
        <time>2022-08-13T16:04:49Z</time>
      </trkpt>
      <trkpt lat="4.4885010" lon="-75.7170030">
        <ele>1352.8</ele>
        <time>2022-08-13T16:04:50Z</time>
      </trkpt>
      <trkpt lat="4.4885720" lon="-75.7169020">
        <ele>1353.4</ele>
        <time>2022-08-13T16:04:53Z</time>
      </trkpt>
      <trkpt lat="4.4886460" lon="-75.7167910">
        <ele>1354.0</ele>
        <time>2022-08-13T16:04:56Z</time>
      </trkpt>
      <trkpt lat="4.4886760" lon="-75.7167230">
        <ele>1354.2</ele>
        <time>2022-08-13T16:04:58Z</time>
      </trkpt>
      <trkpt lat="4.4886940" lon="-75.7166880">
        <ele>1354.4</ele>
        <time>2022-08-13T16:04:59Z</time>
      </trkpt>
      <trkpt lat="4.4888040" lon="-75.7165310">
        <ele>1355.4</ele>
        <time>2022-08-13T16:05:04Z</time>
      </trkpt>
      <trkpt lat="4.4888250" lon="-75.7164990">
        <ele>1355.6</ele>
        <time>2022-08-13T16:05:05Z</time>
      </trkpt>
      <trkpt lat="4.4889220" lon="-75.7163650">
        <ele>1356.8</ele>
        <time>2022-08-13T16:05:09Z</time>
      </trkpt>
      <trkpt lat="4.4889700" lon="-75.7162960">
        <ele>1357.0</ele>
        <time>2022-08-13T16:05:11Z</time>
      </trkpt>
      <trkpt lat="4.4891200" lon="-75.7160840">
        <ele>1357.8</ele>
        <time>2022-08-13T16:05:17Z</time>
      </trkpt>
      <trkpt lat="4.4891970" lon="-75.7159810">
        <ele>1358.0</ele>
        <time>2022-08-13T16:05:20Z</time>
      </trkpt>
      <trkpt lat="4.4892810" lon="-75.7158770">
        <ele>1358.2</ele>
        <time>2022-08-13T16:05:23Z</time>
      </trkpt>
      <trkpt lat="4.4894300" lon="-75.7157170">
        <ele>1358.6</ele>
        <time>2022-08-13T16:05:28Z</time>
      </trkpt>
      <trkpt lat="4.4895180" lon="-75.7156260">
        <ele>1358.8</ele>
        <time>2022-08-13T16:05:31Z</time>
      </trkpt>
      <trkpt lat="4.4896930" lon="-75.7154370">
        <ele>1359.6</ele>
        <time>2022-08-13T16:05:37Z</time>
      </trkpt>
      <trkpt lat="4.4898270" lon="-75.7152780">
        <ele>1360.0</ele>
        <time>2022-08-13T16:05:42Z</time>
      </trkpt>
      <trkpt lat="4.4898720" lon="-75.7152070">
        <ele>1360.4</ele>
        <time>2022-08-13T16:05:44Z</time>
      </trkpt>
      <trkpt lat="4.4898900" lon="-75.7151710">
        <ele>1360.6</ele>
        <time>2022-08-13T16:05:45Z</time>
      </trkpt>
      <trkpt lat="4.4899240" lon="-75.7150950">
        <ele>1360.8</ele>
        <time>2022-08-13T16:05:47Z</time>
      </trkpt>
      <trkpt lat="4.4899520" lon="-75.7150190">
        <ele>1361.2</ele>
        <time>2022-08-13T16:05:49Z</time>
      </trkpt>
      <trkpt lat="4.4900430" lon="-75.7147820">
        <ele>1361.8</ele>
        <time>2022-08-13T16:05:55Z</time>
      </trkpt>
      <trkpt lat="4.4900840" lon="-75.7146650">
        <ele>1362.4</ele>
        <time>2022-08-13T16:05:58Z</time>
      </trkpt>
      <trkpt lat="4.4901810" lon="-75.7144130">
        <ele>1363.2</ele>
        <time>2022-08-13T16:06:05Z</time>
      </trkpt>
      <trkpt lat="4.4902030" lon="-75.7143470">
        <ele>1363.4</ele>
        <time>2022-08-13T16:06:07Z</time>
      </trkpt>
      <trkpt lat="4.4902760" lon="-75.7141530">
        <ele>1364.4</ele>
        <time>2022-08-13T16:06:13Z</time>
      </trkpt>
      <trkpt lat="4.4902990" lon="-75.7140970">
        <ele>1364.4</ele>
        <time>2022-08-13T16:06:15Z</time>
      </trkpt>
      <trkpt lat="4.4903600" lon="-75.7139460">
        <ele>1365.6</ele>
        <time>2022-08-13T16:06:20Z</time>
      </trkpt>
      <trkpt lat="4.4903990" lon="-75.7138550">
        <ele>1366.0</ele>
        <time>2022-08-13T16:06:23Z</time>
      </trkpt>
      <trkpt lat="4.4904290" lon="-75.7137970">
        <ele>1366.6</ele>
        <time>2022-08-13T16:06:25Z</time>
      </trkpt>
      <trkpt lat="4.4905610" lon="-75.7136460">
        <ele>1368.0</ele>
        <time>2022-08-13T16:06:31Z</time>
      </trkpt>
      <trkpt lat="4.4907820" lon="-75.7134700">
        <ele>1369.0</ele>
        <time>2022-08-13T16:06:38Z</time>
      </trkpt>
      <trkpt lat="4.4908150" lon="-75.7134410">
        <ele>1369.0</ele>
        <time>2022-08-13T16:06:39Z</time>
      </trkpt>
      <trkpt lat="4.4908460" lon="-75.7134100">
        <ele>1369.2</ele>
        <time>2022-08-13T16:06:40Z</time>
      </trkpt>
      <trkpt lat="4.4910290" lon="-75.7132290">
        <ele>1369.2</ele>
        <time>2022-08-13T16:06:46Z</time>
      </trkpt>
      <trkpt lat="4.4913480" lon="-75.7130170">
        <ele>1369.6</ele>
        <time>2022-08-13T16:06:55Z</time>
      </trkpt>
      <trkpt lat="4.4916120" lon="-75.7128470">
        <ele>1370.0</ele>
        <time>2022-08-13T16:07:03Z</time>
      </trkpt>
      <trkpt lat="4.4917360" lon="-75.7127650">
        <ele>1370.4</ele>
        <time>2022-08-13T16:07:07Z</time>
      </trkpt>
      <trkpt lat="4.4918800" lon="-75.7126660">
        <ele>1371.0</ele>
        <time>2022-08-13T16:07:12Z</time>
      </trkpt>
      <trkpt lat="4.4919330" lon="-75.7126220">
        <ele>1371.4</ele>
        <time>2022-08-13T16:07:14Z</time>
      </trkpt>
      <trkpt lat="4.4920780" lon="-75.7124570">
        <ele>1372.6</ele>
        <time>2022-08-13T16:07:20Z</time>
      </trkpt>
      <trkpt lat="4.4921000" lon="-75.7124280">
        <ele>1372.8</ele>
        <time>2022-08-13T16:07:21Z</time>
      </trkpt>
      <trkpt lat="4.4922850" lon="-75.7121390">
        <ele>1373.8</ele>
        <time>2022-08-13T16:07:31Z</time>
      </trkpt>
      <trkpt lat="4.4923010" lon="-75.7121110">
        <ele>1374.0</ele>
        <time>2022-08-13T16:07:32Z</time>
      </trkpt>
      <trkpt lat="4.4923990" lon="-75.7119550">
        <ele>1375.2</ele>
        <time>2022-08-13T16:07:38Z</time>
      </trkpt>
      <trkpt lat="4.4924340" lon="-75.7119050">
        <ele>1375.6</ele>
        <time>2022-08-13T16:07:40Z</time>
      </trkpt>
      <trkpt lat="4.4925100" lon="-75.7118290">
        <ele>1376.2</ele>
        <time>2022-08-13T16:07:43Z</time>
      </trkpt>
      <trkpt lat="4.4926290" lon="-75.7117210">
        <ele>1377.2</ele>
        <time>2022-08-13T16:07:47Z</time>
      </trkpt>
      <trkpt lat="4.4927900" lon="-75.7115760">
        <ele>1377.4</ele>
        <time>2022-08-13T16:07:52Z</time>
      </trkpt>
      <trkpt lat="4.4928200" lon="-75.7115410">
        <ele>1377.4</ele>
        <time>2022-08-13T16:07:53Z</time>
      </trkpt>
      <trkpt lat="4.4928440" lon="-75.7115010">
        <ele>1377.4</ele>
        <time>2022-08-13T16:07:54Z</time>
      </trkpt>
      <trkpt lat="4.4928850" lon="-75.7114120">
        <ele>1377.4</ele>
        <time>2022-08-13T16:07:56Z</time>
      </trkpt>
      <trkpt lat="4.4929320" lon="-75.7112740">
        <ele>1377.4</ele>
        <time>2022-08-13T16:07:59Z</time>
      </trkpt>
      <trkpt lat="4.4929750" lon="-75.7110150">
        <ele>1377.6</ele>
        <time>2022-08-13T16:08:05Z</time>
      </trkpt>
      <trkpt lat="4.4929750" lon="-75.7108150">
        <ele>1378.4</ele>
        <time>2022-08-13T16:08:11Z</time>
      </trkpt>
      <trkpt lat="4.4929720" lon="-75.7107830">
        <ele>1378.8</ele>
        <time>2022-08-13T16:08:12Z</time>
      </trkpt>
      <trkpt lat="4.4929560" lon="-75.7106370">
        <ele>1379.6</ele>
        <time>2022-08-13T16:08:17Z</time>
      </trkpt>
      <trkpt lat="4.4929480" lon="-75.7105960">
        <ele>1379.8</ele>
        <time>2022-08-13T16:08:18Z</time>
      </trkpt>
      <trkpt lat="4.4929400" lon="-75.7104900">
        <ele>1381.0</ele>
        <time>2022-08-13T16:08:23Z</time>
      </trkpt>
      <trkpt lat="4.4929260" lon="-75.7103950">
        <ele>1381.8</ele>
        <time>2022-08-13T16:08:26Z</time>
      </trkpt>
      <trkpt lat="4.4929190" lon="-75.7103620">
        <ele>1382.2</ele>
        <time>2022-08-13T16:08:27Z</time>
      </trkpt>
      <trkpt lat="4.4928980" lon="-75.7102370">
        <ele>1383.2</ele>
        <time>2022-08-13T16:08:32Z</time>
      </trkpt>
      <trkpt lat="4.4928700" lon="-75.7101670">
        <ele>1383.8</ele>
        <time>2022-08-13T16:08:34Z</time>
      </trkpt>
      <trkpt lat="4.4928180" lon="-75.7100820">
        <ele>1384.4</ele>
        <time>2022-08-13T16:08:37Z</time>
      </trkpt>
      <trkpt lat="4.4927870" lon="-75.7099990">
        <ele>1385.0</ele>
        <time>2022-08-13T16:08:41Z</time>
      </trkpt>
      <trkpt lat="4.4927250" lon="-75.7099030">
        <ele>1385.6</ele>
        <time>2022-08-13T16:08:46Z</time>
      </trkpt>
      <trkpt lat="4.4927160" lon="-75.7098660">
        <ele>1385.6</ele>
        <time>2022-08-13T16:08:47Z</time>
      </trkpt>
      <trkpt lat="4.4926380" lon="-75.7097120">
        <ele>1386.6</ele>
        <time>2022-08-13T16:08:54Z</time>
      </trkpt>
      <trkpt lat="4.4926220" lon="-75.7096960">
        <ele>1386.8</ele>
        <time>2022-08-13T16:08:55Z</time>
      </trkpt>
      <trkpt lat="4.4925990" lon="-75.7096780">
        <ele>1387.0</ele>
        <time>2022-08-13T16:08:56Z</time>
      </trkpt>
      <trkpt lat="4.4925190" lon="-75.7095970">
        <ele>1387.2</ele>
        <time>2022-08-13T16:08:59Z</time>
      </trkpt>
      <trkpt lat="4.4923760" lon="-75.7095430">
        <ele>1387.6</ele>
        <time>2022-08-13T16:09:04Z</time>
      </trkpt>
      <trkpt lat="4.4922530" lon="-75.7094610">
        <ele>1388.0</ele>
        <time>2022-08-13T16:09:08Z</time>
      </trkpt>
      <trkpt lat="4.4921320" lon="-75.7094080">
        <ele>1388.8</ele>
        <time>2022-08-13T16:09:12Z</time>
      </trkpt>
      <trkpt lat="4.4920710" lon="-75.7093870">
        <ele>1389.4</ele>
        <time>2022-08-13T16:09:14Z</time>
      </trkpt>
      <trkpt lat="4.4918610" lon="-75.7093140">
        <ele>1389.8</ele>
        <time>2022-08-13T16:09:19Z</time>
      </trkpt>
      <trkpt lat="4.4915260" lon="-75.7091640">
        <ele>1389.8</ele>
        <time>2022-08-13T16:09:25Z</time>
      </trkpt>
      <trkpt lat="4.4910990" lon="-75.7089460">
        <ele>1388.4</ele>
        <time>2022-08-13T16:09:32Z</time>
      </trkpt>
      <trkpt lat="4.4910380" lon="-75.7089100">
        <ele>1388.2</ele>
        <time>2022-08-13T16:09:33Z</time>
      </trkpt>
      <trkpt lat="4.4908130" lon="-75.7087530">
        <ele>1387.2</ele>
        <time>2022-08-13T16:09:37Z</time>
      </trkpt>
      <trkpt lat="4.4907690" lon="-75.7087020">
        <ele>1386.8</ele>
        <time>2022-08-13T16:09:38Z</time>
      </trkpt>
      <trkpt lat="4.4907000" lon="-75.7085880">
        <ele>1386.4</ele>
        <time>2022-08-13T16:09:40Z</time>
      </trkpt>
      <trkpt lat="4.4906620" lon="-75.7084720">
        <ele>1385.8</ele>
        <time>2022-08-13T16:09:42Z</time>
      </trkpt>
      <trkpt lat="4.4905660" lon="-75.7082000">
        <ele>1385.4</ele>
        <time>2022-08-13T16:09:47Z</time>
      </trkpt>
      <trkpt lat="4.4905180" lon="-75.7080590">
        <ele>1385.4</ele>
        <time>2022-08-13T16:09:50Z</time>
      </trkpt>
      <trkpt lat="4.4904900" lon="-75.7079750">
        <ele>1385.4</ele>
        <time>2022-08-13T16:09:52Z</time>
      </trkpt>
      <trkpt lat="4.4904840" lon="-75.7079370">
        <ele>1385.4</ele>
        <time>2022-08-13T16:09:53Z</time>
      </trkpt>
      <trkpt lat="4.4904840" lon="-75.7078320">
        <ele>1386.0</ele>
        <time>2022-08-13T16:09:55Z</time>
      </trkpt>
      <trkpt lat="4.4905020" lon="-75.7077410">
        <ele>1387.4</ele>
        <time>2022-08-13T16:09:57Z</time>
      </trkpt>
      <trkpt lat="4.4905170" lon="-75.7076900">
        <ele>1387.8</ele>
        <time>2022-08-13T16:09:58Z</time>
      </trkpt>
      <trkpt lat="4.4905460" lon="-75.7075920">
        <ele>1388.6</ele>
        <time>2022-08-13T16:10:00Z</time>
      </trkpt>
      <trkpt lat="4.4906070" lon="-75.7073470">
        <ele>1389.2</ele>
        <time>2022-08-13T16:10:05Z</time>
      </trkpt>
      <trkpt lat="4.4907060" lon="-75.7070110">
        <ele>1389.2</ele>
        <time>2022-08-13T16:10:12Z</time>
      </trkpt>
      <trkpt lat="4.4907610" lon="-75.7069350">
        <ele>1389.4</ele>
        <time>2022-08-13T16:10:14Z</time>
      </trkpt>
      <trkpt lat="4.4908570" lon="-75.7068380">
        <ele>1389.6</ele>
        <time>2022-08-13T16:10:17Z</time>
      </trkpt>
      <trkpt lat="4.4909920" lon="-75.7066910">
        <ele>1390.0</ele>
        <time>2022-08-13T16:10:21Z</time>
      </trkpt>
      <trkpt lat="4.4910560" lon="-75.7066040">
        <ele>1390.4</ele>
        <time>2022-08-13T16:10:23Z</time>
      </trkpt>
      <trkpt lat="4.4913080" lon="-75.7062160">
        <ele>1390.6</ele>
        <time>2022-08-13T16:10:31Z</time>
      </trkpt>
      <trkpt lat="4.4913310" lon="-75.7061640">
        <ele>1390.6</ele>
        <time>2022-08-13T16:10:32Z</time>
      </trkpt>
      <trkpt lat="4.4913530" lon="-75.7059910">
        <ele>1390.6</ele>
        <time>2022-08-13T16:10:35Z</time>
      </trkpt>
      <trkpt lat="4.4913670" lon="-75.7058790">
        <ele>1390.6</ele>
        <time>2022-08-13T16:10:37Z</time>
      </trkpt>
      <trkpt lat="4.4914260" lon="-75.7057250">
        <ele>1390.6</ele>
        <time>2022-08-13T16:10:40Z</time>
      </trkpt>
      <trkpt lat="4.4916820" lon="-75.7053610">
        <ele>1391.4</ele>
        <time>2022-08-13T16:10:48Z</time>
      </trkpt>
      <trkpt lat="4.4917340" lon="-75.7052770">
        <ele>1391.6</ele>
        <time>2022-08-13T16:10:50Z</time>
      </trkpt>
      <trkpt lat="4.4918500" lon="-75.7050440">
        <ele>1392.2</ele>
        <time>2022-08-13T16:10:55Z</time>
      </trkpt>
      <trkpt lat="4.4918940" lon="-75.7049480">
        <ele>1392.6</ele>
        <time>2022-08-13T16:10:57Z</time>
      </trkpt>
      <trkpt lat="4.4919720" lon="-75.7047660">
        <ele>1393.2</ele>
        <time>2022-08-13T16:11:01Z</time>
      </trkpt>
      <trkpt lat="4.4920130" lon="-75.7046750">
        <ele>1393.4</ele>
        <time>2022-08-13T16:11:03Z</time>
      </trkpt>
      <trkpt lat="4.4920950" lon="-75.7045060">
        <ele>1393.8</ele>
        <time>2022-08-13T16:11:07Z</time>
      </trkpt>
      <trkpt lat="4.4921160" lon="-75.7044580">
        <ele>1393.8</ele>
        <time>2022-08-13T16:11:08Z</time>
      </trkpt>
      <trkpt lat="4.4921480" lon="-75.7043510">
        <ele>1393.8</ele>
        <time>2022-08-13T16:11:11Z</time>
      </trkpt>
      <trkpt lat="4.4921760" lon="-75.7041870">
        <ele>1394.0</ele>
        <time>2022-08-13T16:11:13Z</time>
      </trkpt>
      <trkpt lat="4.4921930" lon="-75.7037690">
        <ele>1394.8</ele>
        <time>2022-08-13T16:11:21Z</time>
      </trkpt>
      <trkpt lat="4.4921940" lon="-75.7037220">
        <ele>1394.8</ele>
        <time>2022-08-13T16:11:22Z</time>
      </trkpt>
      <trkpt lat="4.4922270" lon="-75.7034590">
        <ele>1395.6</ele>
        <time>2022-08-13T16:11:28Z</time>
      </trkpt>
      <trkpt lat="4.4922360" lon="-75.7033700">
        <ele>1396.2</ele>
        <time>2022-08-13T16:11:30Z</time>
      </trkpt>
      <trkpt lat="4.4922320" lon="-75.7030560">
        <ele>1397.4</ele>
        <time>2022-08-13T16:11:37Z</time>
      </trkpt>
      <trkpt lat="4.4921710" lon="-75.7026270">
        <ele>1398.4</ele>
        <time>2022-08-13T16:11:46Z</time>
      </trkpt>
      <trkpt lat="4.4921450" lon="-75.7024890">
        <ele>1398.4</ele>
        <time>2022-08-13T16:11:49Z</time>
      </trkpt>
      <trkpt lat="4.4921230" lon="-75.7023550">
        <ele>1398.6</ele>
        <time>2022-08-13T16:11:52Z</time>
      </trkpt>
      <trkpt lat="4.4921070" lon="-75.7022660">
        <ele>1398.6</ele>
        <time>2022-08-13T16:11:54Z</time>
      </trkpt>
      <trkpt lat="4.4920560" lon="-75.7021640">
        <ele>1398.8</ele>
        <time>2022-08-13T16:11:57Z</time>
      </trkpt>
      <trkpt lat="4.4920110" lon="-75.7021120">
        <ele>1398.8</ele>
        <time>2022-08-13T16:11:59Z</time>
      </trkpt>
      <trkpt lat="4.4919880" lon="-75.7021000">
        <ele>1399.0</ele>
        <time>2022-08-13T16:12:00Z</time>
      </trkpt>
      <trkpt lat="4.4919550" lon="-75.7020960">
        <ele>1399.0</ele>
        <time>2022-08-13T16:12:01Z</time>
      </trkpt>
      <trkpt lat="4.4918740" lon="-75.7021230">
        <ele>1399.2</ele>
        <time>2022-08-13T16:12:03Z</time>
      </trkpt>
      <trkpt lat="4.4916960" lon="-75.7022760">
        <ele>1399.2</ele>
        <time>2022-08-13T16:12:08Z</time>
      </trkpt>
      <trkpt lat="4.4914820" lon="-75.7024660">
        <ele>1398.8</ele>
        <time>2022-08-13T16:12:13Z</time>
      </trkpt>
      <trkpt lat="4.4914340" lon="-75.7025100">
        <ele>1398.6</ele>
        <time>2022-08-13T16:12:14Z</time>
      </trkpt>
      <trkpt lat="4.4912690" lon="-75.7026520">
        <ele>1397.6</ele>
        <time>2022-08-13T16:12:17Z</time>
      </trkpt>
      <trkpt lat="4.4910590" lon="-75.7028290">
        <ele>1396.4</ele>
        <time>2022-08-13T16:12:21Z</time>
      </trkpt>
      <trkpt lat="4.4908900" lon="-75.7029630">
        <ele>1395.4</ele>
        <time>2022-08-13T16:12:24Z</time>
      </trkpt>
      <trkpt lat="4.4906810" lon="-75.7031420">
        <ele>1394.0</ele>
        <time>2022-08-13T16:12:28Z</time>
      </trkpt>
      <trkpt lat="4.4904890" lon="-75.7033010">
        <ele>1393.0</ele>
        <time>2022-08-13T16:12:32Z</time>
      </trkpt>
      <trkpt lat="4.4904420" lon="-75.7033410">
        <ele>1393.0</ele>
        <time>2022-08-13T16:12:33Z</time>
      </trkpt>
      <trkpt lat="4.4902900" lon="-75.7034530">
        <ele>1392.8</ele>
        <time>2022-08-13T16:12:36Z</time>
      </trkpt>
      <trkpt lat="4.4901780" lon="-75.7035100">
        <ele>1392.6</ele>
        <time>2022-08-13T16:12:38Z</time>
      </trkpt>
      <trkpt lat="4.4901180" lon="-75.7035350">
        <ele>1392.6</ele>
        <time>2022-08-13T16:12:39Z</time>
      </trkpt>
      <trkpt lat="4.4899410" lon="-75.7035870">
        <ele>1392.6</ele>
        <time>2022-08-13T16:12:42Z</time>
      </trkpt>
      <trkpt lat="4.4898250" lon="-75.7035710">
        <ele>1392.6</ele>
        <time>2022-08-13T16:12:44Z</time>
      </trkpt>
      <trkpt lat="4.4897170" lon="-75.7035080">
        <ele>1392.6</ele>
        <time>2022-08-13T16:12:46Z</time>
      </trkpt>
      <trkpt lat="4.4896130" lon="-75.7034180">
        <ele>1392.6</ele>
        <time>2022-08-13T16:12:48Z</time>
      </trkpt>
      <trkpt lat="4.4894560" lon="-75.7032690">
        <ele>1392.6</ele>
        <time>2022-08-13T16:12:51Z</time>
      </trkpt>
      <trkpt lat="4.4893920" lon="-75.7032360">
        <ele>1392.4</ele>
        <time>2022-08-13T16:12:52Z</time>
      </trkpt>
      <trkpt lat="4.4893240" lon="-75.7032180">
        <ele>1392.4</ele>
        <time>2022-08-13T16:12:53Z</time>
      </trkpt>
      <trkpt lat="4.4891870" lon="-75.7032180">
        <ele>1392.4</ele>
        <time>2022-08-13T16:12:55Z</time>
      </trkpt>
      <trkpt lat="4.4891220" lon="-75.7032190">
        <ele>1392.4</ele>
        <time>2022-08-13T16:12:56Z</time>
      </trkpt>
      <trkpt lat="4.4889980" lon="-75.7032540">
        <ele>1392.2</ele>
        <time>2022-08-13T16:12:58Z</time>
      </trkpt>
      <trkpt lat="4.4885670" lon="-75.7035150">
        <ele>1391.6</ele>
        <time>2022-08-13T16:13:05Z</time>
      </trkpt>
      <trkpt lat="4.4881050" lon="-75.7038250">
        <ele>1391.0</ele>
        <time>2022-08-13T16:13:12Z</time>
      </trkpt>
      <trkpt lat="4.4876560" lon="-75.7040880">
        <ele>1390.0</ele>
        <time>2022-08-13T16:13:19Z</time>
      </trkpt>
      <trkpt lat="4.4875260" lon="-75.7041580">
        <ele>1389.8</ele>
        <time>2022-08-13T16:13:21Z</time>
      </trkpt>
      <trkpt lat="4.4869810" lon="-75.7044260">
        <ele>1389.4</ele>
        <time>2022-08-13T16:13:29Z</time>
      </trkpt>
      <trkpt lat="4.4868420" lon="-75.7044920">
        <ele>1389.2</ele>
        <time>2022-08-13T16:13:31Z</time>
      </trkpt>
      <trkpt lat="4.4867050" lon="-75.7045590">
        <ele>1389.0</ele>
        <time>2022-08-13T16:13:33Z</time>
      </trkpt>
      <trkpt lat="4.4863710" lon="-75.7047090">
        <ele>1387.8</ele>
        <time>2022-08-13T16:13:38Z</time>
      </trkpt>
      <trkpt lat="4.4863140" lon="-75.7047290">
        <ele>1387.6</ele>
        <time>2022-08-13T16:13:39Z</time>
      </trkpt>
      <trkpt lat="4.4862670" lon="-75.7047390">
        <ele>1387.6</ele>
        <time>2022-08-13T16:13:40Z</time>
      </trkpt>
      <trkpt lat="4.4862020" lon="-75.7047300">
        <ele>1387.4</ele>
        <time>2022-08-13T16:13:42Z</time>
      </trkpt>
      <trkpt lat="4.4861890" lon="-75.7046900">
        <ele>1387.2</ele>
        <time>2022-08-13T16:13:44Z</time>
      </trkpt>
      <trkpt lat="4.4862040" lon="-75.7046700">
        <ele>1387.2</ele>
        <time>2022-08-13T16:13:45Z</time>
      </trkpt>
      <trkpt lat="4.4863230" lon="-75.7045950">
        <ele>1387.2</ele>
        <time>2022-08-13T16:13:49Z</time>
      </trkpt>
      <trkpt lat="4.4863590" lon="-75.7045720">
        <ele>1387.2</ele>
        <time>2022-08-13T16:13:50Z</time>
      </trkpt>
      <trkpt lat="4.4866070" lon="-75.7044060">
        <ele>1387.2</ele>
        <time>2022-08-13T16:13:56Z</time>
      </trkpt>
      <trkpt lat="4.4867430" lon="-75.7042950">
        <ele>1387.2</ele>
        <time>2022-08-13T16:13:59Z</time>
      </trkpt>
      <trkpt lat="4.4868350" lon="-75.7041920">
        <ele>1387.4</ele>
        <time>2022-08-13T16:14:01Z</time>
      </trkpt>
      <trkpt lat="4.4869740" lon="-75.7039880">
        <ele>1387.2</ele>
        <time>2022-08-13T16:14:04Z</time>
      </trkpt>
      <trkpt lat="4.4870070" lon="-75.7039080">
        <ele>1386.8</ele>
        <time>2022-08-13T16:14:05Z</time>
      </trkpt>
      <trkpt lat="4.4870570" lon="-75.7037460">
        <ele>1386.4</ele>
        <time>2022-08-13T16:14:07Z</time>
      </trkpt>
      <trkpt lat="4.4870750" lon="-75.7035890">
        <ele>1385.4</ele>
        <time>2022-08-13T16:14:09Z</time>
      </trkpt>
      <trkpt lat="4.4870750" lon="-75.7034340">
        <ele>1383.6</ele>
        <time>2022-08-13T16:14:11Z</time>
      </trkpt>
      <trkpt lat="4.4870530" lon="-75.7032620">
        <ele>1382.8</ele>
        <time>2022-08-13T16:14:13Z</time>
      </trkpt>
      <trkpt lat="4.4870270" lon="-75.7031730">
        <ele>1382.0</ele>
        <time>2022-08-13T16:14:14Z</time>
      </trkpt>
      <trkpt lat="4.4869880" lon="-75.7030820">
        <ele>1381.2</ele>
        <time>2022-08-13T16:14:15Z</time>
      </trkpt>
      <trkpt lat="4.4869350" lon="-75.7029850">
        <ele>1380.4</ele>
        <time>2022-08-13T16:14:16Z</time>
      </trkpt>
      <trkpt lat="4.4868720" lon="-75.7028930">
        <ele>1379.6</ele>
        <time>2022-08-13T16:14:17Z</time>
      </trkpt>
      <trkpt lat="4.4868040" lon="-75.7027980">
        <ele>1378.8</ele>
        <time>2022-08-13T16:14:18Z</time>
      </trkpt>
      <trkpt lat="4.4866570" lon="-75.7026110">
        <ele>1377.4</ele>
        <time>2022-08-13T16:14:20Z</time>
      </trkpt>
      <trkpt lat="4.4865770" lon="-75.7025240">
        <ele>1376.6</ele>
        <time>2022-08-13T16:14:21Z</time>
      </trkpt>
      <trkpt lat="4.4864880" lon="-75.7024490">
        <ele>1375.8</ele>
        <time>2022-08-13T16:14:22Z</time>
      </trkpt>
      <trkpt lat="4.4863870" lon="-75.7023950">
        <ele>1374.8</ele>
        <time>2022-08-13T16:14:23Z</time>
      </trkpt>
      <trkpt lat="4.4862780" lon="-75.7023580">
        <ele>1373.6</ele>
        <time>2022-08-13T16:14:24Z</time>
      </trkpt>
      <trkpt lat="4.4861630" lon="-75.7023400">
        <ele>1372.6</ele>
        <time>2022-08-13T16:14:25Z</time>
      </trkpt>
      <trkpt lat="4.4860450" lon="-75.7023570">
        <ele>1371.4</ele>
        <time>2022-08-13T16:14:26Z</time>
      </trkpt>
      <trkpt lat="4.4859320" lon="-75.7024040">
        <ele>1370.2</ele>
        <time>2022-08-13T16:14:27Z</time>
      </trkpt>
      <trkpt lat="4.4858260" lon="-75.7024640">
        <ele>1368.8</ele>
        <time>2022-08-13T16:14:28Z</time>
      </trkpt>
      <trkpt lat="4.4857210" lon="-75.7025190">
        <ele>1367.4</ele>
        <time>2022-08-13T16:14:29Z</time>
      </trkpt>
      <trkpt lat="4.4856150" lon="-75.7025550">
        <ele>1366.4</ele>
        <time>2022-08-13T16:14:30Z</time>
      </trkpt>
      <trkpt lat="4.4855090" lon="-75.7025680">
        <ele>1365.6</ele>
        <time>2022-08-13T16:14:31Z</time>
      </trkpt>
      <trkpt lat="4.4854050" lon="-75.7025550">
        <ele>1365.0</ele>
        <time>2022-08-13T16:14:32Z</time>
      </trkpt>
      <trkpt lat="4.4853130" lon="-75.7025020">
        <ele>1363.8</ele>
        <time>2022-08-13T16:14:33Z</time>
      </trkpt>
      <trkpt lat="4.4852410" lon="-75.7024200">
        <ele>1362.4</ele>
        <time>2022-08-13T16:14:34Z</time>
      </trkpt>
      <trkpt lat="4.4851850" lon="-75.7022220">
        <ele>1360.8</ele>
        <time>2022-08-13T16:14:36Z</time>
      </trkpt>
      <trkpt lat="4.4852720" lon="-75.7020140">
        <ele>1360.2</ele>
        <time>2022-08-13T16:14:38Z</time>
      </trkpt>
      <trkpt lat="4.4853580" lon="-75.7019280">
        <ele>1359.8</ele>
        <time>2022-08-13T16:14:39Z</time>
      </trkpt>
      <trkpt lat="4.4854650" lon="-75.7018610">
        <ele>1359.8</ele>
        <time>2022-08-13T16:14:40Z</time>
      </trkpt>
      <trkpt lat="4.4855780" lon="-75.7017960">
        <ele>1358.6</ele>
        <time>2022-08-13T16:14:41Z</time>
      </trkpt>
      <trkpt lat="4.4856930" lon="-75.7017270">
        <ele>1357.6</ele>
        <time>2022-08-13T16:14:42Z</time>
      </trkpt>
      <trkpt lat="4.4859320" lon="-75.7015880">
        <ele>1355.6</ele>
        <time>2022-08-13T16:14:44Z</time>
      </trkpt>
      <trkpt lat="4.4860510" lon="-75.7015170">
        <ele>1354.6</ele>
        <time>2022-08-13T16:14:45Z</time>
      </trkpt>
      <trkpt lat="4.4861650" lon="-75.7014350">
        <ele>1354.0</ele>
        <time>2022-08-13T16:14:46Z</time>
      </trkpt>
      <trkpt lat="4.4862720" lon="-75.7013430">
        <ele>1353.6</ele>
        <time>2022-08-13T16:14:47Z</time>
      </trkpt>
      <trkpt lat="4.4863710" lon="-75.7012410">
        <ele>1353.0</ele>
        <time>2022-08-13T16:14:48Z</time>
      </trkpt>
      <trkpt lat="4.4865610" lon="-75.7010270">
        <ele>1351.0</ele>
        <time>2022-08-13T16:14:50Z</time>
      </trkpt>
      <trkpt lat="4.4866530" lon="-75.7009120">
        <ele>1350.0</ele>
        <time>2022-08-13T16:14:51Z</time>
      </trkpt>
      <trkpt lat="4.4868330" lon="-75.7006770">
        <ele>1348.0</ele>
        <time>2022-08-13T16:14:53Z</time>
      </trkpt>
      <trkpt lat="4.4869890" lon="-75.7004520">
        <ele>1345.8</ele>
        <time>2022-08-13T16:14:55Z</time>
      </trkpt>
      <trkpt lat="4.4870480" lon="-75.7003360">
        <ele>1344.4</ele>
        <time>2022-08-13T16:14:56Z</time>
      </trkpt>
      <trkpt lat="4.4870870" lon="-75.7002170">
        <ele>1343.4</ele>
        <time>2022-08-13T16:14:57Z</time>
      </trkpt>
      <trkpt lat="4.4871080" lon="-75.7000780">
        <ele>1342.2</ele>
        <time>2022-08-13T16:14:58Z</time>
      </trkpt>
      <trkpt lat="4.4870990" lon="-75.6999640">
        <ele>1341.0</ele>
        <time>2022-08-13T16:14:59Z</time>
      </trkpt>
      <trkpt lat="4.4870770" lon="-75.6998460">
        <ele>1339.4</ele>
        <time>2022-08-13T16:15:00Z</time>
      </trkpt>
      <trkpt lat="4.4870400" lon="-75.6997700">
        <ele>1339.4</ele>
        <time>2022-08-13T16:15:01Z</time>
      </trkpt>
      <trkpt lat="4.4869780" lon="-75.6996610">
        <ele>1338.0</ele>
        <time>2022-08-13T16:15:02Z</time>
      </trkpt>
      <trkpt lat="4.4869120" lon="-75.6995880">
        <ele>1336.8</ele>
        <time>2022-08-13T16:15:03Z</time>
      </trkpt>
      <trkpt lat="4.4868330" lon="-75.6995310">
        <ele>1335.8</ele>
        <time>2022-08-13T16:15:04Z</time>
      </trkpt>
      <trkpt lat="4.4867440" lon="-75.6994860">
        <ele>1335.2</ele>
        <time>2022-08-13T16:15:05Z</time>
      </trkpt>
      <trkpt lat="4.4865580" lon="-75.6994440">
        <ele>1334.8</ele>
        <time>2022-08-13T16:15:07Z</time>
      </trkpt>
      <trkpt lat="4.4864620" lon="-75.6994370">
        <ele>1334.6</ele>
        <time>2022-08-13T16:15:08Z</time>
      </trkpt>
      <trkpt lat="4.4863710" lon="-75.6994450">
        <ele>1334.6</ele>
        <time>2022-08-13T16:15:09Z</time>
      </trkpt>
      <trkpt lat="4.4862120" lon="-75.6995140">
        <ele>1334.6</ele>
        <time>2022-08-13T16:15:11Z</time>
      </trkpt>
      <trkpt lat="4.4859220" lon="-75.6997240">
        <ele>1334.8</ele>
        <time>2022-08-13T16:15:16Z</time>
      </trkpt>
      <trkpt lat="4.4857610" lon="-75.6998620">
        <ele>1335.6</ele>
        <time>2022-08-13T16:15:20Z</time>
      </trkpt>
      <trkpt lat="4.4857280" lon="-75.6998950">
        <ele>1335.8</ele>
        <time>2022-08-13T16:15:21Z</time>
      </trkpt>
      <trkpt lat="4.4856660" lon="-75.6999510">
        <ele>1337.0</ele>
        <time>2022-08-13T16:15:23Z</time>
      </trkpt>
      <trkpt lat="4.4855820" lon="-75.7000220">
        <ele>1338.2</ele>
        <time>2022-08-13T16:15:26Z</time>
      </trkpt>
      <trkpt lat="4.4855550" lon="-75.7000380">
        <ele>1338.6</ele>
        <time>2022-08-13T16:15:27Z</time>
      </trkpt>
      <trkpt lat="4.4855120" lon="-75.7000780">
        <ele>1339.6</ele>
        <time>2022-08-13T16:15:29Z</time>
      </trkpt>
      <trkpt lat="4.4854660" lon="-75.7001100">
        <ele>1340.6</ele>
        <time>2022-08-13T16:15:31Z</time>
      </trkpt>
      <trkpt lat="4.4853930" lon="-75.7001480">
        <ele>1342.0</ele>
        <time>2022-08-13T16:15:34Z</time>
      </trkpt>
      <trkpt lat="4.4853670" lon="-75.7001570">
        <ele>1342.4</ele>
        <time>2022-08-13T16:15:35Z</time>
      </trkpt>
      <trkpt lat="4.4853160" lon="-75.7001750">
        <ele>1343.0</ele>
        <time>2022-08-13T16:15:37Z</time>
      </trkpt>
      <trkpt lat="4.4852070" lon="-75.7001880">
        <ele>1344.0</ele>
        <time>2022-08-13T16:15:41Z</time>
      </trkpt>
      <trkpt lat="4.4851540" lon="-75.7001930">
        <ele>1344.6</ele>
        <time>2022-08-13T16:15:43Z</time>
      </trkpt>
      <trkpt lat="4.4850730" lon="-75.7001990">
        <ele>1345.2</ele>
        <time>2022-08-13T16:15:46Z</time>
      </trkpt>
      <trkpt lat="4.4849120" lon="-75.7002080">
        <ele>1346.4</ele>
        <time>2022-08-13T16:15:52Z</time>
      </trkpt>
      <trkpt lat="4.4848850" lon="-75.7002080">
        <ele>1346.6</ele>
        <time>2022-08-13T16:15:53Z</time>
      </trkpt>
      <trkpt lat="4.4848330" lon="-75.7002090">
        <ele>1346.8</ele>
        <time>2022-08-13T16:15:55Z</time>
      </trkpt>
      <trkpt lat="4.4847020" lon="-75.7002180">
        <ele>1347.6</ele>
        <time>2022-08-13T16:16:00Z</time>
      </trkpt>
      <trkpt lat="4.4845930" lon="-75.7002260">
        <ele>1348.4</ele>
        <time>2022-08-13T16:16:04Z</time>
      </trkpt>
      <trkpt lat="4.4845160" lon="-75.7002290">
        <ele>1348.8</ele>
        <time>2022-08-13T16:16:07Z</time>
      </trkpt>
      <trkpt lat="4.4843890" lon="-75.7002360">
        <ele>1350.0</ele>
        <time>2022-08-13T16:16:12Z</time>
      </trkpt>
      <trkpt lat="4.4843350" lon="-75.7002410">
        <ele>1350.2</ele>
        <time>2022-08-13T16:16:14Z</time>
      </trkpt>
      <trkpt lat="4.4842000" lon="-75.7002580">
        <ele>1351.2</ele>
        <time>2022-08-13T16:16:19Z</time>
      </trkpt>
      <trkpt lat="4.4841470" lon="-75.7002630">
        <ele>1351.4</ele>
        <time>2022-08-13T16:16:21Z</time>
      </trkpt>
      <trkpt lat="4.4840420" lon="-75.7002770">
        <ele>1352.2</ele>
        <time>2022-08-13T16:16:25Z</time>
      </trkpt>
      <trkpt lat="4.4839650" lon="-75.7003040">
        <ele>1353.0</ele>
        <time>2022-08-13T16:16:28Z</time>
      </trkpt>
      <trkpt lat="4.4838950" lon="-75.7003440">
        <ele>1353.4</ele>
        <time>2022-08-13T16:16:31Z</time>
      </trkpt>
      <trkpt lat="4.4838010" lon="-75.7004260">
        <ele>1354.6</ele>
        <time>2022-08-13T16:16:36Z</time>
      </trkpt>
      <trkpt lat="4.4836910" lon="-75.7005430">
        <ele>1355.6</ele>
        <time>2022-08-13T16:16:42Z</time>
      </trkpt>
      <trkpt lat="4.4836220" lon="-75.7006250">
        <ele>1356.4</ele>
        <time>2022-08-13T16:16:46Z</time>
      </trkpt>
      <trkpt lat="4.4836050" lon="-75.7006460">
        <ele>1356.6</ele>
        <time>2022-08-13T16:16:47Z</time>
      </trkpt>
      <trkpt lat="4.4835240" lon="-75.7007500">
        <ele>1358.0</ele>
        <time>2022-08-13T16:16:52Z</time>
      </trkpt>
      <trkpt lat="4.4834410" lon="-75.7008510">
        <ele>1359.0</ele>
        <time>2022-08-13T16:16:57Z</time>
      </trkpt>
      <trkpt lat="4.4833410" lon="-75.7009740">
        <ele>1360.0</ele>
        <time>2022-08-13T16:17:03Z</time>
      </trkpt>
      <trkpt lat="4.4832640" lon="-75.7010740">
        <ele>1361.4</ele>
        <time>2022-08-13T16:17:08Z</time>
      </trkpt>
      <trkpt lat="4.4832470" lon="-75.7010960">
        <ele>1361.4</ele>
        <time>2022-08-13T16:17:09Z</time>
      </trkpt>
      <trkpt lat="4.4831590" lon="-75.7011990">
        <ele>1362.4</ele>
        <time>2022-08-13T16:17:14Z</time>
      </trkpt>
      <trkpt lat="4.4830740" lon="-75.7013050">
        <ele>1363.4</ele>
        <time>2022-08-13T16:17:19Z</time>
      </trkpt>
      <trkpt lat="4.4829850" lon="-75.7014130">
        <ele>1364.6</ele>
        <time>2022-08-13T16:17:24Z</time>
      </trkpt>
      <trkpt lat="4.4829460" lon="-75.7014510">
        <ele>1364.8</ele>
        <time>2022-08-13T16:17:26Z</time>
      </trkpt>
      <trkpt lat="4.4829070" lon="-75.7014970">
        <ele>1365.2</ele>
        <time>2022-08-13T16:17:28Z</time>
      </trkpt>
      <trkpt lat="4.4828170" lon="-75.7016040">
        <ele>1366.0</ele>
        <time>2022-08-13T16:17:33Z</time>
      </trkpt>
      <trkpt lat="4.4827470" lon="-75.7016930">
        <ele>1367.0</ele>
        <time>2022-08-13T16:17:37Z</time>
      </trkpt>
      <trkpt lat="4.4827090" lon="-75.7017340">
        <ele>1367.6</ele>
        <time>2022-08-13T16:17:39Z</time>
      </trkpt>
      <trkpt lat="4.4826220" lon="-75.7017980">
        <ele>1368.4</ele>
        <time>2022-08-13T16:17:43Z</time>
      </trkpt>
      <trkpt lat="4.4825470" lon="-75.7018340">
        <ele>1369.0</ele>
        <time>2022-08-13T16:17:46Z</time>
      </trkpt>
      <trkpt lat="4.4825200" lon="-75.7018400">
        <ele>1369.4</ele>
        <time>2022-08-13T16:17:47Z</time>
      </trkpt>
      <trkpt lat="4.4823540" lon="-75.7018330">
        <ele>1370.6</ele>
        <time>2022-08-13T16:17:53Z</time>
      </trkpt>
      <trkpt lat="4.4823270" lon="-75.7018200">
        <ele>1370.8</ele>
        <time>2022-08-13T16:17:54Z</time>
      </trkpt>
      <trkpt lat="4.4822530" lon="-75.7017750">
        <ele>1371.6</ele>
        <time>2022-08-13T16:17:57Z</time>
      </trkpt>
      <trkpt lat="4.4821800" lon="-75.7016830">
        <ele>1372.4</ele>
        <time>2022-08-13T16:18:01Z</time>
      </trkpt>
      <trkpt lat="4.4821520" lon="-75.7016330">
        <ele>1372.8</ele>
        <time>2022-08-13T16:18:03Z</time>
      </trkpt>
      <trkpt lat="4.4821260" lon="-75.7015190">
        <ele>1373.6</ele>
        <time>2022-08-13T16:18:07Z</time>
      </trkpt>
      <trkpt lat="4.4821240" lon="-75.7014600">
        <ele>1374.0</ele>
        <time>2022-08-13T16:18:09Z</time>
      </trkpt>
      <trkpt lat="4.4821500" lon="-75.7012410">
        <ele>1375.4</ele>
        <time>2022-08-13T16:18:17Z</time>
      </trkpt>
      <trkpt lat="4.4821540" lon="-75.7012160">
        <ele>1375.6</ele>
        <time>2022-08-13T16:18:18Z</time>
      </trkpt>
      <trkpt lat="4.4821710" lon="-75.7010790">
        <ele>1376.6</ele>
        <time>2022-08-13T16:18:23Z</time>
      </trkpt>
      <trkpt lat="4.4821940" lon="-75.7009450">
        <ele>1377.8</ele>
        <time>2022-08-13T16:18:28Z</time>
      </trkpt>
      <trkpt lat="4.4822020" lon="-75.7009190">
        <ele>1378.0</ele>
        <time>2022-08-13T16:18:29Z</time>
      </trkpt>
      <trkpt lat="4.4822580" lon="-75.7008010">
        <ele>1379.0</ele>
        <time>2022-08-13T16:18:34Z</time>
      </trkpt>
      <trkpt lat="4.4823040" lon="-75.7007300">
        <ele>1379.8</ele>
        <time>2022-08-13T16:18:37Z</time>
      </trkpt>
      <trkpt lat="4.4823410" lon="-75.7006890">
        <ele>1380.0</ele>
        <time>2022-08-13T16:18:39Z</time>
      </trkpt>
      <trkpt lat="4.4824850" lon="-75.7005840">
        <ele>1381.2</ele>
        <time>2022-08-13T16:18:45Z</time>
      </trkpt>
      <trkpt lat="4.4826610" lon="-75.7005120">
        <ele>1382.4</ele>
        <time>2022-08-13T16:18:51Z</time>
      </trkpt>
      <trkpt lat="4.4826910" lon="-75.7005030">
        <ele>1382.6</ele>
        <time>2022-08-13T16:18:52Z</time>
      </trkpt>
      <trkpt lat="4.4827510" lon="-75.7004820">
        <ele>1383.2</ele>
        <time>2022-08-13T16:18:54Z</time>
      </trkpt>
      <trkpt lat="4.4828380" lon="-75.7004420">
        <ele>1383.8</ele>
        <time>2022-08-13T16:18:57Z</time>
      </trkpt>
      <trkpt lat="4.4829890" lon="-75.7003700">
        <ele>1384.6</ele>
        <time>2022-08-13T16:19:02Z</time>
      </trkpt>
      <trkpt lat="4.4830160" lon="-75.7003500">
        <ele>1385.0</ele>
        <time>2022-08-13T16:19:03Z</time>
      </trkpt>
      <trkpt lat="4.4831860" lon="-75.7001800">
        <ele>1386.0</ele>
        <time>2022-08-13T16:19:10Z</time>
      </trkpt>
      <trkpt lat="4.4832060" lon="-75.7001500">
        <ele>1386.2</ele>
        <time>2022-08-13T16:19:11Z</time>
      </trkpt>
      <trkpt lat="4.4832810" lon="-75.6999910">
        <ele>1387.2</ele>
        <time>2022-08-13T16:19:16Z</time>
      </trkpt>
      <trkpt lat="4.4833720" lon="-75.6997950">
        <ele>1387.8</ele>
        <time>2022-08-13T16:19:21Z</time>
      </trkpt>
      <trkpt lat="4.4834320" lon="-75.6996630">
        <ele>1388.2</ele>
        <time>2022-08-13T16:19:24Z</time>
      </trkpt>
      <trkpt lat="4.4834730" lon="-75.6995640">
        <ele>1388.4</ele>
        <time>2022-08-13T16:19:26Z</time>
      </trkpt>
      <trkpt lat="4.4836260" lon="-75.6991950">
        <ele>1388.6</ele>
        <time>2022-08-13T16:19:33Z</time>
      </trkpt>
      <trkpt lat="4.4837880" lon="-75.6987950">
        <ele>1388.6</ele>
        <time>2022-08-13T16:19:40Z</time>
      </trkpt>
      <trkpt lat="4.4838010" lon="-75.6986680">
        <ele>1388.2</ele>
        <time>2022-08-13T16:19:42Z</time>
      </trkpt>
      <trkpt lat="4.4837790" lon="-75.6985520">
        <ele>1388.2</ele>
        <time>2022-08-13T16:19:44Z</time>
      </trkpt>
      <trkpt lat="4.4837590" lon="-75.6984990">
        <ele>1388.0</ele>
        <time>2022-08-13T16:19:45Z</time>
      </trkpt>
      <trkpt lat="4.4837330" lon="-75.6984520">
        <ele>1388.2</ele>
        <time>2022-08-13T16:19:46Z</time>
      </trkpt>
      <trkpt lat="4.4836700" lon="-75.6983750">
        <ele>1388.2</ele>
        <time>2022-08-13T16:19:48Z</time>
      </trkpt>
      <trkpt lat="4.4835630" lon="-75.6982880">
        <ele>1388.2</ele>
        <time>2022-08-13T16:19:51Z</time>
      </trkpt>
      <trkpt lat="4.4834980" lon="-75.6982550">
        <ele>1388.4</ele>
        <time>2022-08-13T16:19:53Z</time>
      </trkpt>
      <trkpt lat="4.4833420" lon="-75.6982020">
        <ele>1389.6</ele>
        <time>2022-08-13T16:19:58Z</time>
      </trkpt>
      <trkpt lat="4.4833090" lon="-75.6981930">
        <ele>1390.0</ele>
        <time>2022-08-13T16:19:59Z</time>
      </trkpt>
      <trkpt lat="4.4832500" lon="-75.6981800">
        <ele>1390.8</ele>
        <time>2022-08-13T16:20:01Z</time>
      </trkpt>
      <trkpt lat="4.4831460" lon="-75.6981540">
        <ele>1391.8</ele>
        <time>2022-08-13T16:20:04Z</time>
      </trkpt>
      <trkpt lat="4.4830420" lon="-75.6981340">
        <ele>1393.0</ele>
        <time>2022-08-13T16:20:07Z</time>
      </trkpt>
      <trkpt lat="4.4828660" lon="-75.6980940">
        <ele>1394.6</ele>
        <time>2022-08-13T16:20:12Z</time>
      </trkpt>
      <trkpt lat="4.4826870" lon="-75.6980580">
        <ele>1395.4</ele>
        <time>2022-08-13T16:20:17Z</time>
      </trkpt>
      <trkpt lat="4.4826500" lon="-75.6980510">
        <ele>1395.6</ele>
        <time>2022-08-13T16:20:18Z</time>
      </trkpt>
      <trkpt lat="4.4824670" lon="-75.6980200">
        <ele>1396.8</ele>
        <time>2022-08-13T16:20:23Z</time>
      </trkpt>
      <trkpt lat="4.4823650" lon="-75.6979880">
        <ele>1397.4</ele>
        <time>2022-08-13T16:20:26Z</time>
      </trkpt>
      <trkpt lat="4.4822450" lon="-75.6979630">
        <ele>1397.8</ele>
        <time>2022-08-13T16:20:31Z</time>
      </trkpt>
      <trkpt lat="4.4820920" lon="-75.6979560">
        <ele>1397.8</ele>
        <time>2022-08-13T16:20:37Z</time>
      </trkpt>
      <trkpt lat="4.4818460" lon="-75.6979850">
        <ele>1397.8</ele>
        <time>2022-08-13T16:20:42Z</time>
      </trkpt>
      <trkpt lat="4.4816120" lon="-75.6980580">
        <ele>1397.2</ele>
        <time>2022-08-13T16:20:46Z</time>
      </trkpt>
      <trkpt lat="4.4814910" lon="-75.6981150">
        <ele>1396.8</ele>
        <time>2022-08-13T16:20:48Z</time>
      </trkpt>
      <trkpt lat="4.4810960" lon="-75.6983120">
        <ele>1396.0</ele>
        <time>2022-08-13T16:20:54Z</time>
      </trkpt>
      <trkpt lat="4.4808970" lon="-75.6984180">
        <ele>1395.2</ele>
        <time>2022-08-13T16:20:57Z</time>
      </trkpt>
      <trkpt lat="4.4807680" lon="-75.6984930">
        <ele>1394.8</ele>
        <time>2022-08-13T16:20:59Z</time>
      </trkpt>
      <trkpt lat="4.4804330" lon="-75.6986920">
        <ele>1393.6</ele>
        <time>2022-08-13T16:21:04Z</time>
      </trkpt>
      <trkpt lat="4.4801000" lon="-75.6989140">
        <ele>1392.4</ele>
        <time>2022-08-13T16:21:09Z</time>
      </trkpt>
      <trkpt lat="4.4799640" lon="-75.6990060">
        <ele>1392.0</ele>
        <time>2022-08-13T16:21:11Z</time>
      </trkpt>
      <trkpt lat="4.4796990" lon="-75.6991970">
        <ele>1391.4</ele>
        <time>2022-08-13T16:21:15Z</time>
      </trkpt>
      <trkpt lat="4.4794460" lon="-75.6994010">
        <ele>1390.4</ele>
        <time>2022-08-13T16:21:19Z</time>
      </trkpt>
      <trkpt lat="4.4793220" lon="-75.6995050">
        <ele>1389.8</ele>
        <time>2022-08-13T16:21:21Z</time>
      </trkpt>
      <trkpt lat="4.4791990" lon="-75.6996110">
        <ele>1389.4</ele>
        <time>2022-08-13T16:21:23Z</time>
      </trkpt>
      <trkpt lat="4.4788860" lon="-75.6998850">
        <ele>1388.6</ele>
        <time>2022-08-13T16:21:28Z</time>
      </trkpt>
      <trkpt lat="4.4788210" lon="-75.6999430">
        <ele>1388.6</ele>
        <time>2022-08-13T16:21:29Z</time>
      </trkpt>
      <trkpt lat="4.4785060" lon="-75.7002530">
        <ele>1387.4</ele>
        <time>2022-08-13T16:21:34Z</time>
      </trkpt>
      <trkpt lat="4.4784430" lon="-75.7003120">
        <ele>1387.2</ele>
        <time>2022-08-13T16:21:35Z</time>
      </trkpt>
      <trkpt lat="4.4781920" lon="-75.7005370">
        <ele>1386.4</ele>
        <time>2022-08-13T16:21:39Z</time>
      </trkpt>
      <trkpt lat="4.4777950" lon="-75.7009090">
        <ele>1385.2</ele>
        <time>2022-08-13T16:21:46Z</time>
      </trkpt>
      <trkpt lat="4.4775710" lon="-75.7011120">
        <ele>1384.4</ele>
        <time>2022-08-13T16:21:50Z</time>
      </trkpt>
      <trkpt lat="4.4773390" lon="-75.7013050">
        <ele>1384.2</ele>
        <time>2022-08-13T16:21:54Z</time>
      </trkpt>
      <trkpt lat="4.4772800" lon="-75.7013500">
        <ele>1384.2</ele>
        <time>2022-08-13T16:21:55Z</time>
      </trkpt>
      <trkpt lat="4.4767760" lon="-75.7016890">
        <ele>1384.2</ele>
        <time>2022-08-13T16:22:03Z</time>
      </trkpt>
      <trkpt lat="4.4767090" lon="-75.7017300">
        <ele>1384.2</ele>
        <time>2022-08-13T16:22:04Z</time>
      </trkpt>
      <trkpt lat="4.4762170" lon="-75.7019890">
        <ele>1384.0</ele>
        <time>2022-08-13T16:22:11Z</time>
      </trkpt>
      <trkpt lat="4.4761420" lon="-75.7020210">
        <ele>1384.0</ele>
        <time>2022-08-13T16:22:12Z</time>
      </trkpt>
      <trkpt lat="4.4756080" lon="-75.7022290">
        <ele>1383.0</ele>
        <time>2022-08-13T16:22:19Z</time>
      </trkpt>
      <trkpt lat="4.4753720" lon="-75.7023110">
        <ele>1382.6</ele>
        <time>2022-08-13T16:22:22Z</time>
      </trkpt>
      <trkpt lat="4.4749910" lon="-75.7024460">
        <ele>1382.0</ele>
        <time>2022-08-13T16:22:27Z</time>
      </trkpt>
      <trkpt lat="4.4745470" lon="-75.7025990">
        <ele>1381.6</ele>
        <time>2022-08-13T16:22:33Z</time>
      </trkpt>
      <trkpt lat="4.4741120" lon="-75.7027500">
        <ele>1381.2</ele>
        <time>2022-08-13T16:22:39Z</time>
      </trkpt>
      <trkpt lat="4.4736680" lon="-75.7029100">
        <ele>1381.2</ele>
        <time>2022-08-13T16:22:45Z</time>
      </trkpt>
      <trkpt lat="4.4731400" lon="-75.7030950">
        <ele>1380.8</ele>
        <time>2022-08-13T16:22:52Z</time>
      </trkpt>
      <trkpt lat="4.4729070" lon="-75.7031800">
        <ele>1380.6</ele>
        <time>2022-08-13T16:22:55Z</time>
      </trkpt>
      <trkpt lat="4.4725050" lon="-75.7033250">
        <ele>1380.2</ele>
        <time>2022-08-13T16:23:00Z</time>
      </trkpt>
      <trkpt lat="4.4721630" lon="-75.7034410">
        <ele>1380.0</ele>
        <time>2022-08-13T16:23:04Z</time>
      </trkpt>
      <trkpt lat="4.4716940" lon="-75.7036090">
        <ele>1379.6</ele>
        <time>2022-08-13T16:23:09Z</time>
      </trkpt>
      <trkpt lat="4.4714070" lon="-75.7037120">
        <ele>1378.8</ele>
        <time>2022-08-13T16:23:12Z</time>
      </trkpt>
      <trkpt lat="4.4710900" lon="-75.7038230">
        <ele>1378.0</ele>
        <time>2022-08-13T16:23:15Z</time>
      </trkpt>
      <trkpt lat="4.4709850" lon="-75.7038600">
        <ele>1377.2</ele>
        <time>2022-08-13T16:23:16Z</time>
      </trkpt>
      <trkpt lat="4.4708810" lon="-75.7038950">
        <ele>1376.6</ele>
        <time>2022-08-13T16:23:17Z</time>
      </trkpt>
      <trkpt lat="4.4706790" lon="-75.7039680">
        <ele>1374.8</ele>
        <time>2022-08-13T16:23:19Z</time>
      </trkpt>
      <trkpt lat="4.4704840" lon="-75.7040390">
        <ele>1373.4</ele>
        <time>2022-08-13T16:23:21Z</time>
      </trkpt>
      <trkpt lat="4.4702960" lon="-75.7041070">
        <ele>1372.4</ele>
        <time>2022-08-13T16:23:23Z</time>
      </trkpt>
      <trkpt lat="4.4701870" lon="-75.7041490">
        <ele>1372.4</ele>
        <time>2022-08-13T16:23:24Z</time>
      </trkpt>
      <trkpt lat="4.4696740" lon="-75.7043320">
        <ele>1372.2</ele>
        <time>2022-08-13T16:23:30Z</time>
      </trkpt>
      <trkpt lat="4.4693970" lon="-75.7044380">
        <ele>1372.6</ele>
        <time>2022-08-13T16:23:34Z</time>
      </trkpt>
      <trkpt lat="4.4691570" lon="-75.7045200">
        <ele>1373.0</ele>
        <time>2022-08-13T16:23:39Z</time>
      </trkpt>
      <trkpt lat="4.4690530" lon="-75.7045540">
        <ele>1373.4</ele>
        <time>2022-08-13T16:23:41Z</time>
      </trkpt>
      <trkpt lat="4.4689350" lon="-75.7045890">
        <ele>1373.6</ele>
        <time>2022-08-13T16:23:43Z</time>
      </trkpt>
      <trkpt lat="4.4688160" lon="-75.7046360">
        <ele>1373.6</ele>
        <time>2022-08-13T16:23:45Z</time>
      </trkpt>
      <trkpt lat="4.4683870" lon="-75.7047960">
        <ele>1373.6</ele>
        <time>2022-08-13T16:23:52Z</time>
      </trkpt>
      <trkpt lat="4.4679470" lon="-75.7049940">
        <ele>1373.6</ele>
        <time>2022-08-13T16:24:00Z</time>
      </trkpt>
      <trkpt lat="4.4674450" lon="-75.7052390">
        <ele>1373.2</ele>
        <time>2022-08-13T16:24:08Z</time>
      </trkpt>
      <trkpt lat="4.4673770" lon="-75.7052730">
        <ele>1373.2</ele>
        <time>2022-08-13T16:24:09Z</time>
      </trkpt>
      <trkpt lat="4.4668350" lon="-75.7055500">
        <ele>1372.8</ele>
        <time>2022-08-13T16:24:17Z</time>
      </trkpt>
      <trkpt lat="4.4667670" lon="-75.7055830">
        <ele>1372.6</ele>
        <time>2022-08-13T16:24:18Z</time>
      </trkpt>
      <trkpt lat="4.4666990" lon="-75.7056160">
        <ele>1372.8</ele>
        <time>2022-08-13T16:24:19Z</time>
      </trkpt>
      <trkpt lat="4.4661870" lon="-75.7058770">
        <ele>1372.4</ele>
        <time>2022-08-13T16:24:27Z</time>
      </trkpt>
      <trkpt lat="4.4656720" lon="-75.7061820">
        <ele>1372.2</ele>
        <time>2022-08-13T16:24:35Z</time>
      </trkpt>
      <trkpt lat="4.4656110" lon="-75.7062230">
        <ele>1372.2</ele>
        <time>2022-08-13T16:24:36Z</time>
      </trkpt>
      <trkpt lat="4.4651720" lon="-75.7065630">
        <ele>1372.0</ele>
        <time>2022-08-13T16:24:43Z</time>
      </trkpt>
      <trkpt lat="4.4651240" lon="-75.7066080">
        <ele>1371.8</ele>
        <time>2022-08-13T16:24:44Z</time>
      </trkpt>
      <trkpt lat="4.4650640" lon="-75.7066640">
        <ele>1371.8</ele>
        <time>2022-08-13T16:24:45Z</time>
      </trkpt>
      <trkpt lat="4.4648310" lon="-75.7068880">
        <ele>1371.2</ele>
        <time>2022-08-13T16:24:49Z</time>
      </trkpt>
      <trkpt lat="4.4647060" lon="-75.7070110">
        <ele>1370.6</ele>
        <time>2022-08-13T16:24:51Z</time>
      </trkpt>
      <trkpt lat="4.4646490" lon="-75.7070670">
        <ele>1370.2</ele>
        <time>2022-08-13T16:24:52Z</time>
      </trkpt>
      <trkpt lat="4.4642530" lon="-75.7074470">
        <ele>1369.6</ele>
        <time>2022-08-13T16:24:59Z</time>
      </trkpt>
      <trkpt lat="4.4640850" lon="-75.7076100">
        <ele>1369.6</ele>
        <time>2022-08-13T16:25:02Z</time>
      </trkpt>
      <trkpt lat="4.4640280" lon="-75.7076650">
        <ele>1369.6</ele>
        <time>2022-08-13T16:25:03Z</time>
      </trkpt>
      <trkpt lat="4.4636280" lon="-75.7080440">
        <ele>1369.2</ele>
        <time>2022-08-13T16:25:10Z</time>
      </trkpt>
      <trkpt lat="4.4634010" lon="-75.7082670">
        <ele>1368.6</ele>
        <time>2022-08-13T16:25:14Z</time>
      </trkpt>
      <trkpt lat="4.4631070" lon="-75.7085400">
        <ele>1368.2</ele>
        <time>2022-08-13T16:25:19Z</time>
      </trkpt>
      <trkpt lat="4.4629220" lon="-75.7086930">
        <ele>1367.4</ele>
        <time>2022-08-13T16:25:22Z</time>
      </trkpt>
      <trkpt lat="4.4626070" lon="-75.7089290">
        <ele>1366.6</ele>
        <time>2022-08-13T16:25:27Z</time>
      </trkpt>
      <trkpt lat="4.4625430" lon="-75.7089720">
        <ele>1366.4</ele>
        <time>2022-08-13T16:25:28Z</time>
      </trkpt>
      <trkpt lat="4.4622800" lon="-75.7091460">
        <ele>1366.4</ele>
        <time>2022-08-13T16:25:32Z</time>
      </trkpt>
      <trkpt lat="4.4618660" lon="-75.7094220">
        <ele>1366.2</ele>
        <time>2022-08-13T16:25:38Z</time>
      </trkpt>
      <trkpt lat="4.4613510" lon="-75.7097650">
        <ele>1365.6</ele>
        <time>2022-08-13T16:25:45Z</time>
      </trkpt>
      <trkpt lat="4.4612020" lon="-75.7098650">
        <ele>1364.8</ele>
        <time>2022-08-13T16:25:47Z</time>
      </trkpt>
      <trkpt lat="4.4610520" lon="-75.7099700">
        <ele>1364.4</ele>
        <time>2022-08-13T16:25:49Z</time>
      </trkpt>
      <trkpt lat="4.4608170" lon="-75.7101230">
        <ele>1363.4</ele>
        <time>2022-08-13T16:25:52Z</time>
      </trkpt>
      <trkpt lat="4.4605010" lon="-75.7103290">
        <ele>1362.2</ele>
        <time>2022-08-13T16:25:56Z</time>
      </trkpt>
      <trkpt lat="4.4604200" lon="-75.7103760">
        <ele>1362.0</ele>
        <time>2022-08-13T16:25:57Z</time>
      </trkpt>
      <trkpt lat="4.4601720" lon="-75.7104970">
        <ele>1360.8</ele>
        <time>2022-08-13T16:26:00Z</time>
      </trkpt>
      <trkpt lat="4.4600060" lon="-75.7105650">
        <ele>1359.6</ele>
        <time>2022-08-13T16:26:02Z</time>
      </trkpt>
      <trkpt lat="4.4598580" lon="-75.7106220">
        <ele>1358.8</ele>
        <time>2022-08-13T16:26:04Z</time>
      </trkpt>
      <trkpt lat="4.4597610" lon="-75.7106580">
        <ele>1358.4</ele>
        <time>2022-08-13T16:26:05Z</time>
      </trkpt>
      <trkpt lat="4.4592150" lon="-75.7108600">
        <ele>1357.4</ele>
        <time>2022-08-13T16:26:12Z</time>
      </trkpt>
      <trkpt lat="4.4591390" lon="-75.7108900">
        <ele>1357.4</ele>
        <time>2022-08-13T16:26:13Z</time>
      </trkpt>
      <trkpt lat="4.4586300" lon="-75.7110890">
        <ele>1357.0</ele>
        <time>2022-08-13T16:26:20Z</time>
      </trkpt>
      <trkpt lat="4.4583930" lon="-75.7111800">
        <ele>1356.8</ele>
        <time>2022-08-13T16:26:23Z</time>
      </trkpt>
      <trkpt lat="4.4578690" lon="-75.7113750">
        <ele>1357.0</ele>
        <time>2022-08-13T16:26:30Z</time>
      </trkpt>
      <trkpt lat="4.4576450" lon="-75.7114700">
        <ele>1357.0</ele>
        <time>2022-08-13T16:26:33Z</time>
      </trkpt>
      <trkpt lat="4.4571160" lon="-75.7117080">
        <ele>1356.8</ele>
        <time>2022-08-13T16:26:40Z</time>
      </trkpt>
      <trkpt lat="4.4568910" lon="-75.7118220">
        <ele>1356.8</ele>
        <time>2022-08-13T16:26:43Z</time>
      </trkpt>
      <trkpt lat="4.4566600" lon="-75.7119380">
        <ele>1356.0</ele>
        <time>2022-08-13T16:26:46Z</time>
      </trkpt>
      <trkpt lat="4.4564280" lon="-75.7120540">
        <ele>1355.2</ele>
        <time>2022-08-13T16:26:49Z</time>
      </trkpt>
      <trkpt lat="4.4560990" lon="-75.7122020">
        <ele>1354.2</ele>
        <time>2022-08-13T16:26:53Z</time>
      </trkpt>
      <trkpt lat="4.4560150" lon="-75.7122380">
        <ele>1353.8</ele>
        <time>2022-08-13T16:26:54Z</time>
      </trkpt>
      <trkpt lat="4.4555100" lon="-75.7124250">
        <ele>1352.8</ele>
        <time>2022-08-13T16:27:00Z</time>
      </trkpt>
      <trkpt lat="4.4554230" lon="-75.7124550">
        <ele>1352.6</ele>
        <time>2022-08-13T16:27:01Z</time>
      </trkpt>
      <trkpt lat="4.4552660" lon="-75.7125090">
        <ele>1351.8</ele>
        <time>2022-08-13T16:27:03Z</time>
      </trkpt>
      <trkpt lat="4.4549780" lon="-75.7126030">
        <ele>1350.8</ele>
        <time>2022-08-13T16:27:06Z</time>
      </trkpt>
      <trkpt lat="4.4546000" lon="-75.7127400">
        <ele>1349.8</ele>
        <time>2022-08-13T16:27:10Z</time>
      </trkpt>
      <trkpt lat="4.4545030" lon="-75.7127760">
        <ele>1349.0</ele>
        <time>2022-08-13T16:27:11Z</time>
      </trkpt>
      <trkpt lat="4.4542020" lon="-75.7128880">
        <ele>1347.6</ele>
        <time>2022-08-13T16:27:14Z</time>
      </trkpt>
      <trkpt lat="4.4539160" lon="-75.7129890">
        <ele>1346.2</ele>
        <time>2022-08-13T16:27:17Z</time>
      </trkpt>
      <trkpt lat="4.4537900" lon="-75.7130340">
        <ele>1345.4</ele>
        <time>2022-08-13T16:27:18Z</time>
      </trkpt>
      <trkpt lat="4.4536840" lon="-75.7130730">
        <ele>1344.8</ele>
        <time>2022-08-13T16:27:19Z</time>
      </trkpt>
      <trkpt lat="4.4534900" lon="-75.7131430">
        <ele>1343.6</ele>
        <time>2022-08-13T16:27:21Z</time>
      </trkpt>
      <trkpt lat="4.4532620" lon="-75.7132310">
        <ele>1342.4</ele>
        <time>2022-08-13T16:27:23Z</time>
      </trkpt>
      <trkpt lat="4.4530750" lon="-75.7133250">
        <ele>1340.6</ele>
        <time>2022-08-13T16:27:25Z</time>
      </trkpt>
      <trkpt lat="4.4527740" lon="-75.7135290">
        <ele>1339.8</ele>
        <time>2022-08-13T16:27:29Z</time>
      </trkpt>
      <trkpt lat="4.4524890" lon="-75.7137760">
        <ele>1339.8</ele>
        <time>2022-08-13T16:27:34Z</time>
      </trkpt>
      <trkpt lat="4.4522340" lon="-75.7140030">
        <ele>1341.8</ele>
        <time>2022-08-13T16:27:39Z</time>
      </trkpt>
      <trkpt lat="4.4520840" lon="-75.7141360">
        <ele>1343.2</ele>
        <time>2022-08-13T16:27:42Z</time>
      </trkpt>
      <trkpt lat="4.4516650" lon="-75.7145160">
        <ele>1344.2</ele>
        <time>2022-08-13T16:27:50Z</time>
      </trkpt>
      <trkpt lat="4.4516080" lon="-75.7145670">
        <ele>1344.2</ele>
        <time>2022-08-13T16:27:51Z</time>
      </trkpt>
      <trkpt lat="4.4511460" lon="-75.7149760">
        <ele>1344.0</ele>
        <time>2022-08-13T16:27:59Z</time>
      </trkpt>
      <trkpt lat="4.4506910" lon="-75.7153240">
        <ele>1342.4</ele>
        <time>2022-08-13T16:28:06Z</time>
      </trkpt>
      <trkpt lat="4.4506220" lon="-75.7153710">
        <ele>1342.2</ele>
        <time>2022-08-13T16:28:07Z</time>
      </trkpt>
      <trkpt lat="4.4505490" lon="-75.7154150">
        <ele>1341.8</ele>
        <time>2022-08-13T16:28:08Z</time>
      </trkpt>
      <trkpt lat="4.4501640" lon="-75.7156310">
        <ele>1340.8</ele>
        <time>2022-08-13T16:28:13Z</time>
      </trkpt>
      <trkpt lat="4.4499180" lon="-75.7157630">
        <ele>1340.4</ele>
        <time>2022-08-13T16:28:16Z</time>
      </trkpt>
      <trkpt lat="4.4495610" lon="-75.7159360">
        <ele>1339.6</ele>
        <time>2022-08-13T16:28:20Z</time>
      </trkpt>
      <trkpt lat="4.4494690" lon="-75.7159850">
        <ele>1339.2</ele>
        <time>2022-08-13T16:28:21Z</time>
      </trkpt>
      <trkpt lat="4.4491110" lon="-75.7161720">
        <ele>1338.4</ele>
        <time>2022-08-13T16:28:25Z</time>
      </trkpt>
      <trkpt lat="4.4486170" lon="-75.7164280">
        <ele>1337.4</ele>
        <time>2022-08-13T16:28:30Z</time>
      </trkpt>
      <trkpt lat="4.4483380" lon="-75.7165760">
        <ele>1336.2</ele>
        <time>2022-08-13T16:28:33Z</time>
      </trkpt>
      <trkpt lat="4.4481490" lon="-75.7166700">
        <ele>1335.0</ele>
        <time>2022-08-13T16:28:35Z</time>
      </trkpt>
      <trkpt lat="4.4478690" lon="-75.7168100">
        <ele>1333.8</ele>
        <time>2022-08-13T16:28:38Z</time>
      </trkpt>
      <trkpt lat="4.4475030" lon="-75.7169860">
        <ele>1332.6</ele>
        <time>2022-08-13T16:28:42Z</time>
      </trkpt>
      <trkpt lat="4.4471480" lon="-75.7171370">
        <ele>1331.8</ele>
        <time>2022-08-13T16:28:46Z</time>
      </trkpt>
      <trkpt lat="4.4469730" lon="-75.7172060">
        <ele>1331.6</ele>
        <time>2022-08-13T16:28:48Z</time>
      </trkpt>
      <trkpt lat="4.4465430" lon="-75.7173570">
        <ele>1331.6</ele>
        <time>2022-08-13T16:28:53Z</time>
      </trkpt>
      <trkpt lat="4.4459500" lon="-75.7175010">
        <ele>1331.6</ele>
        <time>2022-08-13T16:29:00Z</time>
      </trkpt>
      <trkpt lat="4.4453550" lon="-75.7175900">
        <ele>1331.8</ele>
        <time>2022-08-13T16:29:07Z</time>
      </trkpt>
      <trkpt lat="4.4451840" lon="-75.7176110">
        <ele>1331.8</ele>
        <time>2022-08-13T16:29:09Z</time>
      </trkpt>
      <trkpt lat="4.4445770" lon="-75.7176970">
        <ele>1331.6</ele>
        <time>2022-08-13T16:29:16Z</time>
      </trkpt>
      <trkpt lat="4.4443160" lon="-75.7177350">
        <ele>1331.2</ele>
        <time>2022-08-13T16:29:19Z</time>
      </trkpt>
      <trkpt lat="4.4441370" lon="-75.7177590">
        <ele>1330.4</ele>
        <time>2022-08-13T16:29:21Z</time>
      </trkpt>
      <trkpt lat="4.4437730" lon="-75.7178160">
        <ele>1329.4</ele>
        <time>2022-08-13T16:29:25Z</time>
      </trkpt>
      <trkpt lat="4.4433840" lon="-75.7178830">
        <ele>1328.4</ele>
        <time>2022-08-13T16:29:29Z</time>
      </trkpt>
      <trkpt lat="4.4432800" lon="-75.7179020">
        <ele>1328.0</ele>
        <time>2022-08-13T16:29:30Z</time>
      </trkpt>
      <trkpt lat="4.4428420" lon="-75.7179800">
        <ele>1327.2</ele>
        <time>2022-08-13T16:29:34Z</time>
      </trkpt>
      <trkpt lat="4.4427270" lon="-75.7180000">
        <ele>1326.8</ele>
        <time>2022-08-13T16:29:35Z</time>
      </trkpt>
      <trkpt lat="4.4423640" lon="-75.7180570">
        <ele>1326.0</ele>
        <time>2022-08-13T16:29:38Z</time>
      </trkpt>
      <trkpt lat="4.4419850" lon="-75.7181150">
        <ele>1324.4</ele>
        <time>2022-08-13T16:29:41Z</time>
      </trkpt>
      <trkpt lat="4.4417250" lon="-75.7181600">
        <ele>1322.8</ele>
        <time>2022-08-13T16:29:43Z</time>
      </trkpt>
      <trkpt lat="4.4415950" lon="-75.7181820">
        <ele>1321.8</ele>
        <time>2022-08-13T16:29:44Z</time>
      </trkpt>
      <trkpt lat="4.4414620" lon="-75.7182010">
        <ele>1320.6</ele>
        <time>2022-08-13T16:29:45Z</time>
      </trkpt>
      <trkpt lat="4.4413260" lon="-75.7182180">
        <ele>1319.6</ele>
        <time>2022-08-13T16:29:46Z</time>
      </trkpt>
      <trkpt lat="4.4411950" lon="-75.7182310">
        <ele>1318.4</ele>
        <time>2022-08-13T16:29:47Z</time>
      </trkpt>
      <trkpt lat="4.4410670" lon="-75.7182370">
        <ele>1317.2</ele>
        <time>2022-08-13T16:29:48Z</time>
      </trkpt>
      <trkpt lat="4.4409420" lon="-75.7182320">
        <ele>1316.0</ele>
        <time>2022-08-13T16:29:49Z</time>
      </trkpt>
      <trkpt lat="4.4408220" lon="-75.7182210">
        <ele>1315.0</ele>
        <time>2022-08-13T16:29:50Z</time>
      </trkpt>
      <trkpt lat="4.4407050" lon="-75.7182040">
        <ele>1314.0</ele>
        <time>2022-08-13T16:29:51Z</time>
      </trkpt>
      <trkpt lat="4.4405930" lon="-75.7181790">
        <ele>1313.0</ele>
        <time>2022-08-13T16:29:52Z</time>
      </trkpt>
      <trkpt lat="4.4404840" lon="-75.7181490">
        <ele>1312.0</ele>
        <time>2022-08-13T16:29:53Z</time>
      </trkpt>
      <trkpt lat="4.4400940" lon="-75.7180090">
        <ele>1311.2</ele>
        <time>2022-08-13T16:29:57Z</time>
      </trkpt>
      <trkpt lat="4.4399160" lon="-75.7179400">
        <ele>1311.0</ele>
        <time>2022-08-13T16:29:59Z</time>
      </trkpt>
      <trkpt lat="4.4395950" lon="-75.7178130">
        <ele>1311.0</ele>
        <time>2022-08-13T16:30:03Z</time>
      </trkpt>
      <trkpt lat="4.4393030" lon="-75.7176930">
        <ele>1312.0</ele>
        <time>2022-08-13T16:30:07Z</time>
      </trkpt>
      <trkpt lat="4.4390740" lon="-75.7175980">
        <ele>1313.2</ele>
        <time>2022-08-13T16:30:10Z</time>
      </trkpt>
      <trkpt lat="4.4389200" lon="-75.7175350">
        <ele>1314.0</ele>
        <time>2022-08-13T16:30:12Z</time>
      </trkpt>
      <trkpt lat="4.4383680" lon="-75.7173130">
        <ele>1314.2</ele>
        <time>2022-08-13T16:30:19Z</time>
      </trkpt>
      <trkpt lat="4.4382290" lon="-75.7172560">
        <ele>1314.4</ele>
        <time>2022-08-13T16:30:21Z</time>
      </trkpt>
      <trkpt lat="4.4378720" lon="-75.7171120">
        <ele>1314.6</ele>
        <time>2022-08-13T16:30:27Z</time>
      </trkpt>
      <trkpt lat="4.4375980" lon="-75.7170130">
        <ele>1315.6</ele>
        <time>2022-08-13T16:30:32Z</time>
      </trkpt>
      <trkpt lat="4.4374410" lon="-75.7169590">
        <ele>1316.6</ele>
        <time>2022-08-13T16:30:35Z</time>
      </trkpt>
      <trkpt lat="4.4373880" lon="-75.7169440">
        <ele>1316.8</ele>
        <time>2022-08-13T16:30:36Z</time>
      </trkpt>
      <trkpt lat="4.4371610" lon="-75.7168860">
        <ele>1317.8</ele>
        <time>2022-08-13T16:30:40Z</time>
      </trkpt>
      <trkpt lat="4.4369950" lon="-75.7168520">
        <ele>1318.4</ele>
        <time>2022-08-13T16:30:43Z</time>
      </trkpt>
      <trkpt lat="4.4367600" lon="-75.7168260">
        <ele>1319.0</ele>
        <time>2022-08-13T16:30:47Z</time>
      </trkpt>
      <trkpt lat="4.4365150" lon="-75.7168150">
        <ele>1319.0</ele>
        <time>2022-08-13T16:30:51Z</time>
      </trkpt>
      <trkpt lat="4.4359530" lon="-75.7168150">
        <ele>1319.0</ele>
        <time>2022-08-13T16:30:59Z</time>
      </trkpt>
      <trkpt lat="4.4355660" lon="-75.7168210">
        <ele>1318.0</ele>
        <time>2022-08-13T16:31:04Z</time>
      </trkpt>
      <trkpt lat="4.4352380" lon="-75.7168290">
        <ele>1317.4</ele>
        <time>2022-08-13T16:31:08Z</time>
      </trkpt>
      <trkpt lat="4.4349820" lon="-75.7168500">
        <ele>1316.6</ele>
        <time>2022-08-13T16:31:11Z</time>
      </trkpt>
      <trkpt lat="4.4346410" lon="-75.7169020">
        <ele>1315.6</ele>
        <time>2022-08-13T16:31:15Z</time>
      </trkpt>
      <trkpt lat="4.4343220" lon="-75.7170090">
        <ele>1314.4</ele>
        <time>2022-08-13T16:31:19Z</time>
      </trkpt>
      <trkpt lat="4.4341740" lon="-75.7170700">
        <ele>1314.0</ele>
        <time>2022-08-13T16:31:21Z</time>
      </trkpt>
      <trkpt lat="4.4339630" lon="-75.7171650">
        <ele>1313.2</ele>
        <time>2022-08-13T16:31:24Z</time>
      </trkpt>
      <trkpt lat="4.4338170" lon="-75.7172170">
        <ele>1312.4</ele>
        <time>2022-08-13T16:31:26Z</time>
      </trkpt>
      <trkpt lat="4.4336690" lon="-75.7172590">
        <ele>1312.2</ele>
        <time>2022-08-13T16:31:28Z</time>
      </trkpt>
      <trkpt lat="4.4334490" lon="-75.7173140">
        <ele>1311.8</ele>
        <time>2022-08-13T16:31:31Z</time>
      </trkpt>
      <trkpt lat="4.4333030" lon="-75.7173500">
        <ele>1311.8</ele>
        <time>2022-08-13T16:31:33Z</time>
      </trkpt>
      <trkpt lat="4.4330180" lon="-75.7174200">
        <ele>1311.2</ele>
        <time>2022-08-13T16:31:37Z</time>
      </trkpt>
      <trkpt lat="4.4328940" lon="-75.7174500">
        <ele>1311.2</ele>
        <time>2022-08-13T16:31:39Z</time>
      </trkpt>
      <trkpt lat="4.4328350" lon="-75.7174610">
        <ele>1311.0</ele>
        <time>2022-08-13T16:31:40Z</time>
      </trkpt>
      <trkpt lat="4.4327740" lon="-75.7174670">
        <ele>1310.8</ele>
        <time>2022-08-13T16:31:41Z</time>
      </trkpt>
      <trkpt lat="4.4327100" lon="-75.7174620">
        <ele>1310.4</ele>
        <time>2022-08-13T16:31:42Z</time>
      </trkpt>
      <trkpt lat="4.4326460" lon="-75.7174470">
        <ele>1310.2</ele>
        <time>2022-08-13T16:31:43Z</time>
      </trkpt>
      <trkpt lat="4.4325780" lon="-75.7174320">
        <ele>1310.0</ele>
        <time>2022-08-13T16:31:44Z</time>
      </trkpt>
      <trkpt lat="4.4323460" lon="-75.7174170">
        <ele>1309.8</ele>
        <time>2022-08-13T16:31:47Z</time>
      </trkpt>
      <trkpt lat="4.4320610" lon="-75.7174160">
        <ele>1308.8</ele>
        <time>2022-08-13T16:31:51Z</time>
      </trkpt>
      <trkpt lat="4.4319150" lon="-75.7174130">
        <ele>1307.8</ele>
        <time>2022-08-13T16:31:53Z</time>
      </trkpt>
      <trkpt lat="4.4318420" lon="-75.7174140">
        <ele>1307.4</ele>
        <time>2022-08-13T16:31:54Z</time>
      </trkpt>
      <trkpt lat="4.4315530" lon="-75.7174100">
        <ele>1306.6</ele>
        <time>2022-08-13T16:31:58Z</time>
      </trkpt>
      <trkpt lat="4.4312920" lon="-75.7174010">
        <ele>1306.0</ele>
        <time>2022-08-13T16:32:02Z</time>
      </trkpt>
      <trkpt lat="4.4311980" lon="-75.7174030">
        <ele>1305.8</ele>
        <time>2022-08-13T16:32:05Z</time>
      </trkpt>
      <trkpt lat="4.4311830" lon="-75.7174030">
        <ele>1305.6</ele>
        <time>2022-08-13T16:32:06Z</time>
      </trkpt>
      <trkpt lat="4.4311730" lon="-75.7174020">
        <ele>1305.6</ele>
        <time>2022-08-13T16:32:07Z</time>
      </trkpt>
      <trkpt lat="4.4311650" lon="-75.7174040">
        <ele>1305.6</ele>
        <time>2022-08-13T16:32:08Z</time>
      </trkpt>
      <trkpt lat="4.4311570" lon="-75.7174040">
        <ele>1305.4</ele>
        <time>2022-08-13T16:32:09Z</time>
      </trkpt>
      <trkpt lat="4.4310720" lon="-75.7173940">
        <ele>1305.4</ele>
        <time>2022-08-13T16:32:13Z</time>
      </trkpt>
      <trkpt lat="4.4308650" lon="-75.7173960">
        <ele>1305.2</ele>
        <time>2022-08-13T16:32:18Z</time>
      </trkpt>
      <trkpt lat="4.4305290" lon="-75.7173990">
        <ele>1304.8</ele>
        <time>2022-08-13T16:32:24Z</time>
      </trkpt>
      <trkpt lat="4.4304020" lon="-75.7173910">
        <ele>1304.8</ele>
        <time>2022-08-13T16:32:26Z</time>
      </trkpt>
      <trkpt lat="4.4303250" lon="-75.7173970">
        <ele>1304.6</ele>
        <time>2022-08-13T16:32:27Z</time>
      </trkpt>
      <trkpt lat="4.4302060" lon="-75.7174090">
        <ele>1304.2</ele>
        <time>2022-08-13T16:32:29Z</time>
      </trkpt>
      <trkpt lat="4.4300140" lon="-75.7174150">
        <ele>1303.4</ele>
        <time>2022-08-13T16:32:32Z</time>
      </trkpt>
      <trkpt lat="4.4298380" lon="-75.7174220">
        <ele>1302.4</ele>
        <time>2022-08-13T16:32:35Z</time>
      </trkpt>
      <trkpt lat="4.4297810" lon="-75.7174300">
        <ele>1302.2</ele>
        <time>2022-08-13T16:32:36Z</time>
      </trkpt>
      <trkpt lat="4.4297250" lon="-75.7174340">
        <ele>1301.6</ele>
        <time>2022-08-13T16:32:37Z</time>
      </trkpt>
      <trkpt lat="4.4296140" lon="-75.7174360">
        <ele>1301.0</ele>
        <time>2022-08-13T16:32:39Z</time>
      </trkpt>
      <trkpt lat="4.4295120" lon="-75.7174430">
        <ele>1300.8</ele>
        <time>2022-08-13T16:32:41Z</time>
      </trkpt>
      <trkpt lat="4.4292270" lon="-75.7174910">
        <ele>1300.8</ele>
        <time>2022-08-13T16:32:47Z</time>
      </trkpt>
      <trkpt lat="4.4290830" lon="-75.7175500">
        <ele>1300.8</ele>
        <time>2022-08-13T16:32:51Z</time>
      </trkpt>
      <trkpt lat="4.4290230" lon="-75.7175900">
        <ele>1301.0</ele>
        <time>2022-08-13T16:32:53Z</time>
      </trkpt>
      <trkpt lat="4.4289320" lon="-75.7176810">
        <ele>1301.6</ele>
        <time>2022-08-13T16:32:57Z</time>
      </trkpt>
      <trkpt lat="4.4288330" lon="-75.7177890">
        <ele>1301.8</ele>
        <time>2022-08-13T16:33:02Z</time>
      </trkpt>
      <trkpt lat="4.4286970" lon="-75.7179480">
        <ele>1301.8</ele>
        <time>2022-08-13T16:33:07Z</time>
      </trkpt>
      <trkpt lat="4.4285620" lon="-75.7181140">
        <ele>1301.8</ele>
        <time>2022-08-13T16:33:13Z</time>
      </trkpt>
      <trkpt lat="4.4286260" lon="-75.7181830">
        <ele>1301.6</ele>
        <time>2022-08-13T16:33:16Z</time>
      </trkpt>
      <trkpt lat="4.4287380" lon="-75.7183080">
        <ele>1301.6</ele>
        <time>2022-08-13T16:33:20Z</time>
      </trkpt>
      <trkpt lat="4.4288280" lon="-75.7184010">
        <ele>1301.6</ele>
        <time>2022-08-13T16:33:23Z</time>
      </trkpt>
      <trkpt lat="4.4289220" lon="-75.7184980">
        <ele>1301.6</ele>
        <time>2022-08-13T16:33:26Z</time>
      </trkpt>
      <trkpt lat="4.4290320" lon="-75.7185890">
        <ele>1300.8</ele>
        <time>2022-08-13T16:33:31Z</time>
      </trkpt>
      <trkpt lat="4.4290390" lon="-75.7185910">
        <ele>1300.6</ele>
        <time>2022-08-13T16:33:32Z</time>
      </trkpt>
      <trkpt lat="4.4290380" lon="-75.7185960">
        <ele>1300.6</ele>
        <time>2022-08-13T16:33:33Z</time>
      </trkpt>
      <trkpt lat="4.4290320" lon="-75.7186320">
        <ele>1300.6</ele>
        <time>2022-08-13T16:33:35Z</time>
      </trkpt>
      <trkpt lat="4.4289520" lon="-75.7187200">
        <ele>1300.4</ele>
        <time>2022-08-13T16:33:39Z</time>
      </trkpt>
      <trkpt lat="4.4288100" lon="-75.7188370">
        <ele>1300.2</ele>
        <time>2022-08-13T16:33:44Z</time>
      </trkpt>
      <trkpt lat="4.4287510" lon="-75.7188930">
        <ele>1300.2</ele>
        <time>2022-08-13T16:33:46Z</time>
      </trkpt>
      <trkpt lat="4.4285700" lon="-75.7190610">
        <ele>1300.0</ele>
        <time>2022-08-13T16:33:52Z</time>
      </trkpt>
      <trkpt lat="4.4283170" lon="-75.7193010">
        <ele>1299.8</ele>
        <time>2022-08-13T16:34:00Z</time>
      </trkpt>
      <trkpt lat="4.4282790" lon="-75.7193350">
        <ele>1299.6</ele>
        <time>2022-08-13T16:34:01Z</time>
      </trkpt>
      <trkpt lat="4.4281210" lon="-75.7194870">
        <ele>1299.2</ele>
        <time>2022-08-13T16:34:05Z</time>
      </trkpt>
      <trkpt lat="4.4279910" lon="-75.7196140">
        <ele>1298.6</ele>
        <time>2022-08-13T16:34:08Z</time>
      </trkpt>
      <trkpt lat="4.4278980" lon="-75.7196970">
        <ele>1298.0</ele>
        <time>2022-08-13T16:34:10Z</time>
      </trkpt>
      <trkpt lat="4.4276940" lon="-75.7198440">
        <ele>1297.0</ele>
        <time>2022-08-13T16:34:14Z</time>
      </trkpt>
      <trkpt lat="4.4276430" lon="-75.7198840">
        <ele>1296.6</ele>
        <time>2022-08-13T16:34:15Z</time>
      </trkpt>
      <trkpt lat="4.4275440" lon="-75.7199440">
        <ele>1296.2</ele>
        <time>2022-08-13T16:34:17Z</time>
      </trkpt>
      <trkpt lat="4.4274270" lon="-75.7200110">
        <ele>1295.8</ele>
        <time>2022-08-13T16:34:19Z</time>
      </trkpt>
      <trkpt lat="4.4270850" lon="-75.7201750">
        <ele>1295.0</ele>
        <time>2022-08-13T16:34:25Z</time>
      </trkpt>
      <trkpt lat="4.4270370" lon="-75.7201990">
        <ele>1294.6</ele>
        <time>2022-08-13T16:34:26Z</time>
      </trkpt>
      <trkpt lat="4.4268900" lon="-75.7202560">
        <ele>1293.6</ele>
        <time>2022-08-13T16:34:29Z</time>
      </trkpt>
      <trkpt lat="4.4267850" lon="-75.7202960">
        <ele>1293.2</ele>
        <time>2022-08-13T16:34:31Z</time>
      </trkpt>
      <trkpt lat="4.4265670" lon="-75.7203920">
        <ele>1292.8</ele>
        <time>2022-08-13T16:34:35Z</time>
      </trkpt>
      <trkpt lat="4.4265100" lon="-75.7204150">
        <ele>1292.6</ele>
        <time>2022-08-13T16:34:36Z</time>
      </trkpt>
      <trkpt lat="4.4264020" lon="-75.7204540">
        <ele>1292.4</ele>
        <time>2022-08-13T16:34:38Z</time>
      </trkpt>
      <trkpt lat="4.4263170" lon="-75.7204890">
        <ele>1292.0</ele>
        <time>2022-08-13T16:34:40Z</time>
      </trkpt>
      <trkpt lat="4.4262730" lon="-75.7205120">
        <ele>1291.6</ele>
        <time>2022-08-13T16:34:42Z</time>
      </trkpt>
      <trkpt lat="4.4262060" lon="-75.7205380">
        <ele>1291.4</ele>
        <time>2022-08-13T16:34:47Z</time>
      </trkpt>
      <trkpt lat="4.4261950" lon="-75.7205380">
        <ele>1291.4</ele>
        <time>2022-08-13T16:34:48Z</time>
      </trkpt>
      <trkpt lat="4.4261260" lon="-75.7205560">
        <ele>1291.4</ele>
        <time>2022-08-13T16:34:53Z</time>
      </trkpt>
      <trkpt lat="4.4261100" lon="-75.7205280">
        <ele>1291.6</ele>
        <time>2022-08-13T16:34:55Z</time>
      </trkpt>
      <trkpt lat="4.4262120" lon="-75.7204850">
        <ele>1292.0</ele>
        <time>2022-08-13T16:34:59Z</time>
      </trkpt>
      <trkpt lat="4.4262610" lon="-75.7204730">
        <ele>1292.0</ele>
        <time>2022-08-13T16:35:01Z</time>
      </trkpt>
      <trkpt lat="4.4262910" lon="-75.7205030">
        <ele>1292.0</ele>
        <time>2022-08-13T16:35:03Z</time>
      </trkpt>
      <trkpt lat="4.4262340" lon="-75.7205770">
        <ele>1292.0</ele>
        <time>2022-08-13T16:35:06Z</time>
      </trkpt>
      <trkpt lat="4.4261940" lon="-75.7206140">
        <ele>1292.0</ele>
        <time>2022-08-13T16:35:07Z</time>
      </trkpt>
      <trkpt lat="4.4260460" lon="-75.7207480">
        <ele>1292.0</ele>
        <time>2022-08-13T16:35:10Z</time>
      </trkpt>
      <trkpt lat="4.4258630" lon="-75.7208740">
        <ele>1292.0</ele>
        <time>2022-08-13T16:35:13Z</time>
      </trkpt>
      <trkpt lat="4.4256820" lon="-75.7210130">
        <ele>1289.8</ele>
        <time>2022-08-13T16:35:16Z</time>
      </trkpt>
      <trkpt lat="4.4255610" lon="-75.7211060">
        <ele>1288.4</ele>
        <time>2022-08-13T16:35:18Z</time>
      </trkpt>
      <trkpt lat="4.4254430" lon="-75.7211990">
        <ele>1287.0</ele>
        <time>2022-08-13T16:35:20Z</time>
      </trkpt>
      <trkpt lat="4.4252110" lon="-75.7213770">
        <ele>1286.0</ele>
        <time>2022-08-13T16:35:24Z</time>
      </trkpt>
      <trkpt lat="4.4250460" lon="-75.7215060">
        <ele>1285.4</ele>
        <time>2022-08-13T16:35:28Z</time>
      </trkpt>
      <trkpt lat="4.4248090" lon="-75.7216850">
        <ele>1285.2</ele>
        <time>2022-08-13T16:35:35Z</time>
      </trkpt>
      <trkpt lat="4.4247720" lon="-75.7217120">
        <ele>1285.0</ele>
        <time>2022-08-13T16:35:36Z</time>
      </trkpt>
      <trkpt lat="4.4245560" lon="-75.7218410">
        <ele>1285.2</ele>
        <time>2022-08-13T16:35:41Z</time>
      </trkpt>
      <trkpt lat="4.4242020" lon="-75.7219740">
        <ele>1284.2</ele>
        <time>2022-08-13T16:35:48Z</time>
      </trkpt>
      <trkpt lat="4.4241580" lon="-75.7219800">
        <ele>1284.0</ele>
        <time>2022-08-13T16:35:49Z</time>
      </trkpt>
      <trkpt lat="4.4238660" lon="-75.7220040">
        <ele>1283.4</ele>
        <time>2022-08-13T16:35:54Z</time>
      </trkpt>
      <trkpt lat="4.4237510" lon="-75.7220250">
        <ele>1283.4</ele>
        <time>2022-08-13T16:35:56Z</time>
      </trkpt>
      <trkpt lat="4.4235960" lon="-75.7220810">
        <ele>1283.0</ele>
        <time>2022-08-13T16:35:59Z</time>
      </trkpt>
      <trkpt lat="4.4235260" lon="-75.7221080">
        <ele>1283.0</ele>
        <time>2022-08-13T16:36:00Z</time>
      </trkpt>
      <trkpt lat="4.4232120" lon="-75.7222030">
        <ele>1282.4</ele>
        <time>2022-08-13T16:36:05Z</time>
      </trkpt>
      <trkpt lat="4.4231480" lon="-75.7222080">
        <ele>1282.2</ele>
        <time>2022-08-13T16:36:06Z</time>
      </trkpt>
      <trkpt lat="4.4230850" lon="-75.7222050">
        <ele>1281.8</ele>
        <time>2022-08-13T16:36:07Z</time>
      </trkpt>
      <trkpt lat="4.4229600" lon="-75.7221830">
        <ele>1281.0</ele>
        <time>2022-08-13T16:36:09Z</time>
      </trkpt>
      <trkpt lat="4.4228440" lon="-75.7221510">
        <ele>1280.2</ele>
        <time>2022-08-13T16:36:11Z</time>
      </trkpt>
      <trkpt lat="4.4227640" lon="-75.7221310">
        <ele>1280.0</ele>
        <time>2022-08-13T16:36:12Z</time>
      </trkpt>
      <trkpt lat="4.4225630" lon="-75.7220940">
        <ele>1278.6</ele>
        <time>2022-08-13T16:36:15Z</time>
      </trkpt>
      <trkpt lat="4.4224380" lon="-75.7220860">
        <ele>1278.0</ele>
        <time>2022-08-13T16:36:17Z</time>
      </trkpt>
      <trkpt lat="4.4222420" lon="-75.7220940">
        <ele>1277.4</ele>
        <time>2022-08-13T16:36:20Z</time>
      </trkpt>
      <trkpt lat="4.4218880" lon="-75.7220960">
        <ele>1277.0</ele>
        <time>2022-08-13T16:36:26Z</time>
      </trkpt>
      <trkpt lat="4.4217560" lon="-75.7220770">
        <ele>1277.0</ele>
        <time>2022-08-13T16:36:30Z</time>
      </trkpt>
      <trkpt lat="4.4215530" lon="-75.7221240">
        <ele>1277.6</ele>
        <time>2022-08-13T16:36:35Z</time>
      </trkpt>
      <trkpt lat="4.4213010" lon="-75.7222100">
        <ele>1278.4</ele>
        <time>2022-08-13T16:36:41Z</time>
      </trkpt>
      <trkpt lat="4.4211630" lon="-75.7222500">
        <ele>1278.4</ele>
        <time>2022-08-13T16:36:44Z</time>
      </trkpt>
      <trkpt lat="4.4211230" lon="-75.7222640">
        <ele>1278.4</ele>
        <time>2022-08-13T16:36:45Z</time>
      </trkpt>
      <trkpt lat="4.4209740" lon="-75.7223170">
        <ele>1278.8</ele>
        <time>2022-08-13T16:36:49Z</time>
      </trkpt>
      <trkpt lat="4.4208680" lon="-75.7223530">
        <ele>1278.8</ele>
        <time>2022-08-13T16:36:52Z</time>
      </trkpt>
      <trkpt lat="4.4208010" lon="-75.7223770">
        <ele>1279.2</ele>
        <time>2022-08-13T16:36:54Z</time>
      </trkpt>
      <trkpt lat="4.4207080" lon="-75.7224050">
        <ele>1279.8</ele>
        <time>2022-08-13T16:36:57Z</time>
      </trkpt>
      <trkpt lat="4.4206490" lon="-75.7224270">
        <ele>1280.2</ele>
        <time>2022-08-13T16:36:59Z</time>
      </trkpt>
      <trkpt lat="4.4205900" lon="-75.7224470">
        <ele>1281.0</ele>
        <time>2022-08-13T16:37:01Z</time>
      </trkpt>
      <trkpt lat="4.4205050" lon="-75.7224800">
        <ele>1282.2</ele>
        <time>2022-08-13T16:37:04Z</time>
      </trkpt>
      <trkpt lat="4.4204460" lon="-75.7224990">
        <ele>1282.6</ele>
        <time>2022-08-13T16:37:06Z</time>
      </trkpt>
      <trkpt lat="4.4203870" lon="-75.7225180">
        <ele>1283.4</ele>
        <time>2022-08-13T16:37:08Z</time>
      </trkpt>
      <trkpt lat="4.4202310" lon="-75.7225560">
        <ele>1284.4</ele>
        <time>2022-08-13T16:37:13Z</time>
      </trkpt>
      <trkpt lat="4.4201100" lon="-75.7225890">
        <ele>1285.2</ele>
        <time>2022-08-13T16:37:17Z</time>
      </trkpt>
      <trkpt lat="4.4200820" lon="-75.7226010">
        <ele>1285.6</ele>
        <time>2022-08-13T16:37:18Z</time>
      </trkpt>
      <trkpt lat="4.4199940" lon="-75.7226320">
        <ele>1286.2</ele>
        <time>2022-08-13T16:37:22Z</time>
      </trkpt>
      <trkpt lat="4.4199870" lon="-75.7226320">
        <ele>1286.4</ele>
        <time>2022-08-13T16:37:23Z</time>
      </trkpt>
      <trkpt lat="4.4199870" lon="-75.7226320">
        <ele>1286.6</ele>
        <time>2022-08-13T16:37:25Z</time>
      </trkpt>
      <trkpt lat="4.4199620" lon="-75.7226350">
        <ele>1287.8</ele>
        <time>2022-08-13T16:37:53Z</time>
      </trkpt>
      <trkpt lat="4.4198370" lon="-75.7226660">
        <ele>1287.8</ele>
        <time>2022-08-13T16:37:56Z</time>
      </trkpt>
      <trkpt lat="4.4197940" lon="-75.7226820">
        <ele>1287.8</ele>
        <time>2022-08-13T16:37:57Z</time>
      </trkpt>
      <trkpt lat="4.4196100" lon="-75.7227310">
        <ele>1287.8</ele>
        <time>2022-08-13T16:38:01Z</time>
      </trkpt>
      <trkpt lat="4.4192840" lon="-75.7228330">
        <ele>1288.0</ele>
        <time>2022-08-13T16:38:08Z</time>
      </trkpt>
      <trkpt lat="4.4188550" lon="-75.7229690">
        <ele>1288.2</ele>
        <time>2022-08-13T16:38:15Z</time>
      </trkpt>
      <trkpt lat="4.4183980" lon="-75.7231270">
        <ele>1287.4</ele>
        <time>2022-08-13T16:38:21Z</time>
      </trkpt>
      <trkpt lat="4.4179680" lon="-75.7233050">
        <ele>1287.0</ele>
        <time>2022-08-13T16:38:26Z</time>
      </trkpt>
      <trkpt lat="4.4178780" lon="-75.7233450">
        <ele>1286.8</ele>
        <time>2022-08-13T16:38:27Z</time>
      </trkpt>
      <trkpt lat="4.4176970" lon="-75.7234320">
        <ele>1286.2</ele>
        <time>2022-08-13T16:38:29Z</time>
      </trkpt>
      <trkpt lat="4.4175110" lon="-75.7235290">
        <ele>1285.8</ele>
        <time>2022-08-13T16:38:31Z</time>
      </trkpt>
      <trkpt lat="4.4172330" lon="-75.7236840">
        <ele>1285.0</ele>
        <time>2022-08-13T16:38:34Z</time>
      </trkpt>
      <trkpt lat="4.4171420" lon="-75.7237390">
        <ele>1284.6</ele>
        <time>2022-08-13T16:38:35Z</time>
      </trkpt>
      <trkpt lat="4.4168700" lon="-75.7239160">
        <ele>1283.6</ele>
        <time>2022-08-13T16:38:38Z</time>
      </trkpt>
      <trkpt lat="4.4166910" lon="-75.7240430">
        <ele>1282.8</ele>
        <time>2022-08-13T16:38:40Z</time>
      </trkpt>
      <trkpt lat="4.4166050" lon="-75.7241070">
        <ele>1282.4</ele>
        <time>2022-08-13T16:38:41Z</time>
      </trkpt>
      <trkpt lat="4.4163420" lon="-75.7243030">
        <ele>1280.8</ele>
        <time>2022-08-13T16:38:44Z</time>
      </trkpt>
      <trkpt lat="4.4160700" lon="-75.7244950">
        <ele>1279.4</ele>
        <time>2022-08-13T16:38:47Z</time>
      </trkpt>
      <trkpt lat="4.4157860" lon="-75.7246930">
        <ele>1278.2</ele>
        <time>2022-08-13T16:38:50Z</time>
      </trkpt>
      <trkpt lat="4.4156940" lon="-75.7247610">
        <ele>1278.0</ele>
        <time>2022-08-13T16:38:51Z</time>
      </trkpt>
      <trkpt lat="4.4155120" lon="-75.7248950">
        <ele>1277.0</ele>
        <time>2022-08-13T16:38:53Z</time>
      </trkpt>
      <trkpt lat="4.4151480" lon="-75.7251620">
        <ele>1276.0</ele>
        <time>2022-08-13T16:38:57Z</time>
      </trkpt>
      <trkpt lat="4.4150540" lon="-75.7252300">
        <ele>1275.8</ele>
        <time>2022-08-13T16:38:58Z</time>
      </trkpt>
      <trkpt lat="4.4148650" lon="-75.7253590">
        <ele>1274.8</ele>
        <time>2022-08-13T16:39:00Z</time>
      </trkpt>
      <trkpt lat="4.4144810" lon="-75.7256280">
        <ele>1273.6</ele>
        <time>2022-08-13T16:39:04Z</time>
      </trkpt>
      <trkpt lat="4.4142910" lon="-75.7257580">
        <ele>1272.4</ele>
        <time>2022-08-13T16:39:06Z</time>
      </trkpt>
      <trkpt lat="4.4141170" lon="-75.7258680">
        <ele>1271.8</ele>
        <time>2022-08-13T16:39:08Z</time>
      </trkpt>
      <trkpt lat="4.4140030" lon="-75.7259450">
        <ele>1271.4</ele>
        <time>2022-08-13T16:39:09Z</time>
      </trkpt>
      <trkpt lat="4.4138100" lon="-75.7260790">
        <ele>1270.4</ele>
        <time>2022-08-13T16:39:11Z</time>
      </trkpt>
      <trkpt lat="4.4134240" lon="-75.7263540">
        <ele>1269.8</ele>
        <time>2022-08-13T16:39:15Z</time>
      </trkpt>
      <trkpt lat="4.4129520" lon="-75.7266810">
        <ele>1269.6</ele>
        <time>2022-08-13T16:39:20Z</time>
      </trkpt>
      <trkpt lat="4.4127720" lon="-75.7267990">
        <ele>1269.4</ele>
        <time>2022-08-13T16:39:22Z</time>
      </trkpt>
      <trkpt lat="4.4123080" lon="-75.7270610">
        <ele>1268.4</ele>
        <time>2022-08-13T16:39:27Z</time>
      </trkpt>
      <trkpt lat="4.4122080" lon="-75.7271080">
        <ele>1268.2</ele>
        <time>2022-08-13T16:39:28Z</time>
      </trkpt>
      <trkpt lat="4.4116590" lon="-75.7272880">
        <ele>1267.4</ele>
        <time>2022-08-13T16:39:33Z</time>
      </trkpt>
      <trkpt lat="4.4114290" lon="-75.7273340">
        <ele>1266.8</ele>
        <time>2022-08-13T16:39:35Z</time>
      </trkpt>
      <trkpt lat="4.4111920" lon="-75.7273550">
        <ele>1266.0</ele>
        <time>2022-08-13T16:39:37Z</time>
      </trkpt>
      <trkpt lat="4.4108240" lon="-75.7273470">
        <ele>1265.0</ele>
        <time>2022-08-13T16:39:40Z</time>
      </trkpt>
      <trkpt lat="4.4105650" lon="-75.7273310">
        <ele>1264.0</ele>
        <time>2022-08-13T16:39:42Z</time>
      </trkpt>
      <trkpt lat="4.4103100" lon="-75.7273320">
        <ele>1263.4</ele>
        <time>2022-08-13T16:39:44Z</time>
      </trkpt>
      <trkpt lat="4.4100460" lon="-75.7273230">
        <ele>1261.8</ele>
        <time>2022-08-13T16:39:46Z</time>
      </trkpt>
      <trkpt lat="4.4097920" lon="-75.7273170">
        <ele>1260.6</ele>
        <time>2022-08-13T16:39:48Z</time>
      </trkpt>
      <trkpt lat="4.4096690" lon="-75.7273150">
        <ele>1259.8</ele>
        <time>2022-08-13T16:39:49Z</time>
      </trkpt>
      <trkpt lat="4.4095480" lon="-75.7273130">
        <ele>1259.2</ele>
        <time>2022-08-13T16:39:50Z</time>
      </trkpt>
      <trkpt lat="4.4093100" lon="-75.7272900">
        <ele>1258.0</ele>
        <time>2022-08-13T16:39:52Z</time>
      </trkpt>
      <trkpt lat="4.4090700" lon="-75.7272460">
        <ele>1256.4</ele>
        <time>2022-08-13T16:39:54Z</time>
      </trkpt>
      <trkpt lat="4.4089570" lon="-75.7272090">
        <ele>1255.6</ele>
        <time>2022-08-13T16:39:55Z</time>
      </trkpt>
      <trkpt lat="4.4088450" lon="-75.7271600">
        <ele>1255.0</ele>
        <time>2022-08-13T16:39:56Z</time>
      </trkpt>
      <trkpt lat="4.4087340" lon="-75.7271010">
        <ele>1254.6</ele>
        <time>2022-08-13T16:39:57Z</time>
      </trkpt>
      <trkpt lat="4.4085180" lon="-75.7269840">
        <ele>1253.6</ele>
        <time>2022-08-13T16:39:59Z</time>
      </trkpt>
      <trkpt lat="4.4083370" lon="-75.7268420">
        <ele>1252.8</ele>
        <time>2022-08-13T16:40:01Z</time>
      </trkpt>
      <trkpt lat="4.4082430" lon="-75.7267520">
        <ele>1252.2</ele>
        <time>2022-08-13T16:40:02Z</time>
      </trkpt>
      <trkpt lat="4.4080730" lon="-75.7265650">
        <ele>1251.0</ele>
        <time>2022-08-13T16:40:04Z</time>
      </trkpt>
      <trkpt lat="4.4079940" lon="-75.7264770">
        <ele>1250.4</ele>
        <time>2022-08-13T16:40:05Z</time>
      </trkpt>
      <trkpt lat="4.4079130" lon="-75.7263920">
        <ele>1249.4</ele>
        <time>2022-08-13T16:40:06Z</time>
      </trkpt>
      <trkpt lat="4.4078220" lon="-75.7263230">
        <ele>1249.4</ele>
        <time>2022-08-13T16:40:07Z</time>
      </trkpt>
      <trkpt lat="4.4076350" lon="-75.7262080">
        <ele>1247.6</ele>
        <time>2022-08-13T16:40:09Z</time>
      </trkpt>
      <trkpt lat="4.4074150" lon="-75.7261510">
        <ele>1245.6</ele>
        <time>2022-08-13T16:40:11Z</time>
      </trkpt>
      <trkpt lat="4.4072690" lon="-75.7261420">
        <ele>1244.6</ele>
        <time>2022-08-13T16:40:12Z</time>
      </trkpt>
      <trkpt lat="4.4070160" lon="-75.7261710">
        <ele>1242.6</ele>
        <time>2022-08-13T16:40:14Z</time>
      </trkpt>
      <trkpt lat="4.4068920" lon="-75.7262110">
        <ele>1241.6</ele>
        <time>2022-08-13T16:40:15Z</time>
      </trkpt>
      <trkpt lat="4.4067950" lon="-75.7262550">
        <ele>1240.6</ele>
        <time>2022-08-13T16:40:16Z</time>
      </trkpt>
      <trkpt lat="4.4066860" lon="-75.7263280">
        <ele>1239.8</ele>
        <time>2022-08-13T16:40:17Z</time>
      </trkpt>
      <trkpt lat="4.4065910" lon="-75.7264220">
        <ele>1239.2</ele>
        <time>2022-08-13T16:40:18Z</time>
      </trkpt>
      <trkpt lat="4.4065090" lon="-75.7265310">
        <ele>1238.0</ele>
        <time>2022-08-13T16:40:19Z</time>
      </trkpt>
      <trkpt lat="4.4064390" lon="-75.7266540">
        <ele>1237.0</ele>
        <time>2022-08-13T16:40:20Z</time>
      </trkpt>
      <trkpt lat="4.4063780" lon="-75.7267830">
        <ele>1235.8</ele>
        <time>2022-08-13T16:40:21Z</time>
      </trkpt>
      <trkpt lat="4.4063110" lon="-75.7269460">
        <ele>1234.6</ele>
        <time>2022-08-13T16:40:22Z</time>
      </trkpt>
      <trkpt lat="4.4062590" lon="-75.7270880">
        <ele>1233.2</ele>
        <time>2022-08-13T16:40:23Z</time>
      </trkpt>
      <trkpt lat="4.4062120" lon="-75.7272380">
        <ele>1232.0</ele>
        <time>2022-08-13T16:40:24Z</time>
      </trkpt>
      <trkpt lat="4.4061720" lon="-75.7273900">
        <ele>1230.8</ele>
        <time>2022-08-13T16:40:25Z</time>
      </trkpt>
      <trkpt lat="4.4061290" lon="-75.7275400">
        <ele>1229.6</ele>
        <time>2022-08-13T16:40:26Z</time>
      </trkpt>
      <trkpt lat="4.4060890" lon="-75.7276930">
        <ele>1228.6</ele>
        <time>2022-08-13T16:40:27Z</time>
      </trkpt>
      <trkpt lat="4.4060650" lon="-75.7278480">
        <ele>1227.2</ele>
        <time>2022-08-13T16:40:28Z</time>
      </trkpt>
      <trkpt lat="4.4060490" lon="-75.7280030">
        <ele>1225.2</ele>
        <time>2022-08-13T16:40:29Z</time>
      </trkpt>
      <trkpt lat="4.4060560" lon="-75.7281570">
        <ele>1222.0</ele>
        <time>2022-08-13T16:40:30Z</time>
      </trkpt>
      <trkpt lat="4.4060920" lon="-75.7284610">
        <ele>1219.0</ele>
        <time>2022-08-13T16:40:32Z</time>
      </trkpt>
      <trkpt lat="4.4061120" lon="-75.7286130">
        <ele>1216.6</ele>
        <time>2022-08-13T16:40:33Z</time>
      </trkpt>
      <trkpt lat="4.4061130" lon="-75.7287670">
        <ele>1215.0</ele>
        <time>2022-08-13T16:40:34Z</time>
      </trkpt>
      <trkpt lat="4.4061030" lon="-75.7289170">
        <ele>1214.0</ele>
        <time>2022-08-13T16:40:35Z</time>
      </trkpt>
      <trkpt lat="4.4060850" lon="-75.7290690">
        <ele>1212.8</ele>
        <time>2022-08-13T16:40:36Z</time>
      </trkpt>
      <trkpt lat="4.4060640" lon="-75.7292230">
        <ele>1211.4</ele>
        <time>2022-08-13T16:40:37Z</time>
      </trkpt>
      <trkpt lat="4.4060330" lon="-75.7293740">
        <ele>1210.4</ele>
        <time>2022-08-13T16:40:38Z</time>
      </trkpt>
      <trkpt lat="4.4060060" lon="-75.7295250">
        <ele>1209.2</ele>
        <time>2022-08-13T16:40:39Z</time>
      </trkpt>
      <trkpt lat="4.4059760" lon="-75.7296760">
        <ele>1208.2</ele>
        <time>2022-08-13T16:40:40Z</time>
      </trkpt>
      <trkpt lat="4.4059540" lon="-75.7297950">
        <ele>1206.6</ele>
        <time>2022-08-13T16:40:41Z</time>
      </trkpt>
      <trkpt lat="4.4059160" lon="-75.7299760">
        <ele>1205.2</ele>
        <time>2022-08-13T16:40:42Z</time>
      </trkpt>
      <trkpt lat="4.4058800" lon="-75.7301240">
        <ele>1203.6</ele>
        <time>2022-08-13T16:40:43Z</time>
      </trkpt>
      <trkpt lat="4.4058390" lon="-75.7302710">
        <ele>1202.2</ele>
        <time>2022-08-13T16:40:44Z</time>
      </trkpt>
      <trkpt lat="4.4057920" lon="-75.7304130">
        <ele>1200.8</ele>
        <time>2022-08-13T16:40:45Z</time>
      </trkpt>
      <trkpt lat="4.4057460" lon="-75.7305550">
        <ele>1199.2</ele>
        <time>2022-08-13T16:40:46Z</time>
      </trkpt>
      <trkpt lat="4.4057050" lon="-75.7307000">
        <ele>1197.8</ele>
        <time>2022-08-13T16:40:47Z</time>
      </trkpt>
      <trkpt lat="4.4056680" lon="-75.7308440">
        <ele>1196.2</ele>
        <time>2022-08-13T16:40:48Z</time>
      </trkpt>
      <trkpt lat="4.4056420" lon="-75.7309580">
        <ele>1194.8</ele>
        <time>2022-08-13T16:40:49Z</time>
      </trkpt>
      <trkpt lat="4.4056120" lon="-75.7310980">
        <ele>1193.6</ele>
        <time>2022-08-13T16:40:50Z</time>
      </trkpt>
      <trkpt lat="4.4055820" lon="-75.7312330">
        <ele>1192.4</ele>
        <time>2022-08-13T16:40:51Z</time>
      </trkpt>
      <trkpt lat="4.4055530" lon="-75.7313620">
        <ele>1191.4</ele>
        <time>2022-08-13T16:40:52Z</time>
      </trkpt>
      <trkpt lat="4.4055230" lon="-75.7314880">
        <ele>1190.0</ele>
        <time>2022-08-13T16:40:53Z</time>
      </trkpt>
      <trkpt lat="4.4054440" lon="-75.7317360">
        <ele>1188.4</ele>
        <time>2022-08-13T16:40:55Z</time>
      </trkpt>
      <trkpt lat="4.4053190" lon="-75.7319290">
        <ele>1187.6</ele>
        <time>2022-08-13T16:40:57Z</time>
      </trkpt>
      <trkpt lat="4.4052400" lon="-75.7320110">
        <ele>1187.2</ele>
        <time>2022-08-13T16:40:58Z</time>
      </trkpt>
      <trkpt lat="4.4051530" lon="-75.7320790">
        <ele>1187.0</ele>
        <time>2022-08-13T16:40:59Z</time>
      </trkpt>
      <trkpt lat="4.4049980" lon="-75.7321750">
        <ele>1186.6</ele>
        <time>2022-08-13T16:41:01Z</time>
      </trkpt>
      <trkpt lat="4.4047630" lon="-75.7323220">
        <ele>1186.4</ele>
        <time>2022-08-13T16:41:04Z</time>
      </trkpt>
      <trkpt lat="4.4046480" lon="-75.7323960">
        <ele>1186.4</ele>
        <time>2022-08-13T16:41:06Z</time>
      </trkpt>
      <trkpt lat="4.4045160" lon="-75.7324630">
        <ele>1186.6</ele>
        <time>2022-08-13T16:41:09Z</time>
      </trkpt>
      <trkpt lat="4.4044750" lon="-75.7324690">
        <ele>1186.6</ele>
        <time>2022-08-13T16:41:10Z</time>
      </trkpt>
      <trkpt lat="4.4044360" lon="-75.7324600">
        <ele>1186.8</ele>
        <time>2022-08-13T16:41:11Z</time>
      </trkpt>
      <trkpt lat="4.4043870" lon="-75.7324120">
        <ele>1187.0</ele>
        <time>2022-08-13T16:41:13Z</time>
      </trkpt>
      <trkpt lat="4.4043570" lon="-75.7322770">
        <ele>1188.8</ele>
        <time>2022-08-13T16:41:17Z</time>
      </trkpt>
      <trkpt lat="4.4043580" lon="-75.7322470">
        <ele>1189.2</ele>
        <time>2022-08-13T16:41:18Z</time>
      </trkpt>
      <trkpt lat="4.4043790" lon="-75.7321670">
        <ele>1189.8</ele>
        <time>2022-08-13T16:41:21Z</time>
      </trkpt>
      <trkpt lat="4.4043980" lon="-75.7321240">
        <ele>1190.4</ele>
        <time>2022-08-13T16:41:23Z</time>
      </trkpt>
      <trkpt lat="4.4044300" lon="-75.7320460">
        <ele>1191.0</ele>
        <time>2022-08-13T16:41:26Z</time>
      </trkpt>
      <trkpt lat="4.4044440" lon="-75.7320150">
        <ele>1191.2</ele>
        <time>2022-08-13T16:41:27Z</time>
      </trkpt>
      <trkpt lat="4.4045060" lon="-75.7319370">
        <ele>1191.6</ele>
        <time>2022-08-13T16:41:30Z</time>
      </trkpt>
      <trkpt lat="4.4046250" lon="-75.7318200">
        <ele>1192.0</ele>
        <time>2022-08-13T16:41:34Z</time>
      </trkpt>
      <trkpt lat="4.4046490" lon="-75.7317830">
        <ele>1192.0</ele>
        <time>2022-08-13T16:41:35Z</time>
      </trkpt>
      <trkpt lat="4.4047190" lon="-75.7316330">
        <ele>1192.2</ele>
        <time>2022-08-13T16:41:39Z</time>
      </trkpt>
      <trkpt lat="4.4047290" lon="-75.7315900">
        <ele>1192.2</ele>
        <time>2022-08-13T16:41:40Z</time>
      </trkpt>
      <trkpt lat="4.4047430" lon="-75.7314410">
        <ele>1192.0</ele>
        <time>2022-08-13T16:41:43Z</time>
      </trkpt>
      <trkpt lat="4.4047430" lon="-75.7313520">
        <ele>1192.2</ele>
        <time>2022-08-13T16:41:45Z</time>
      </trkpt>
      <trkpt lat="4.4047210" lon="-75.7310920">
        <ele>1192.2</ele>
        <time>2022-08-13T16:41:51Z</time>
      </trkpt>
      <trkpt lat="4.4047790" lon="-75.7309070">
        <ele>1192.2</ele>
        <time>2022-08-13T16:41:57Z</time>
      </trkpt>
      <trkpt lat="4.4047920" lon="-75.7308350">
        <ele>1192.6</ele>
        <time>2022-08-13T16:41:59Z</time>
      </trkpt>
      <trkpt lat="4.4047940" lon="-75.7307700">
        <ele>1193.2</ele>
        <time>2022-08-13T16:42:01Z</time>
      </trkpt>
      <trkpt lat="4.4048000" lon="-75.7307100">
        <ele>1194.0</ele>
        <time>2022-08-13T16:42:03Z</time>
      </trkpt>
      <trkpt lat="4.4048080" lon="-75.7305850">
        <ele>1195.2</ele>
        <time>2022-08-13T16:42:07Z</time>
      </trkpt>
      <trkpt lat="4.4048040" lon="-75.7304780">
        <ele>1195.6</ele>
        <time>2022-08-13T16:42:10Z</time>
      </trkpt>
      <trkpt lat="4.4047940" lon="-75.7302350">
        <ele>1196.4</ele>
        <time>2022-08-13T16:42:17Z</time>
      </trkpt>
      <trkpt lat="4.4047870" lon="-75.7299870">
        <ele>1197.4</ele>
        <time>2022-08-13T16:42:24Z</time>
      </trkpt>
      <trkpt lat="4.4047950" lon="-75.7299480">
        <ele>1197.6</ele>
        <time>2022-08-13T16:42:25Z</time>
      </trkpt>
      <trkpt lat="4.4048140" lon="-75.7298700">
        <ele>1197.8</ele>
        <time>2022-08-13T16:42:27Z</time>
      </trkpt>
      <trkpt lat="4.4048620" lon="-75.7296910">
        <ele>1198.2</ele>
        <time>2022-08-13T16:42:31Z</time>
      </trkpt>
      <trkpt lat="4.4049380" lon="-75.7294390">
        <ele>1198.2</ele>
        <time>2022-08-13T16:42:36Z</time>
      </trkpt>
      <trkpt lat="4.4050150" lon="-75.7291510">
        <ele>1198.0</ele>
        <time>2022-08-13T16:42:41Z</time>
      </trkpt>
      <trkpt lat="4.4050260" lon="-75.7290900">
        <ele>1197.8</ele>
        <time>2022-08-13T16:42:42Z</time>
      </trkpt>
      <trkpt lat="4.4050420" lon="-75.7287730">
        <ele>1197.0</ele>
        <time>2022-08-13T16:42:47Z</time>
      </trkpt>
      <trkpt lat="4.4050210" lon="-75.7286460">
        <ele>1196.6</ele>
        <time>2022-08-13T16:42:49Z</time>
      </trkpt>
      <trkpt lat="4.4049710" lon="-75.7284680">
        <ele>1196.2</ele>
        <time>2022-08-13T16:42:52Z</time>
      </trkpt>
      <trkpt lat="4.4049520" lon="-75.7284100">
        <ele>1196.2</ele>
        <time>2022-08-13T16:42:53Z</time>
      </trkpt>
      <trkpt lat="4.4048910" lon="-75.7281890">
        <ele>1196.0</ele>
        <time>2022-08-13T16:42:57Z</time>
      </trkpt>
      <trkpt lat="4.4048240" lon="-75.7279810">
        <ele>1196.0</ele>
        <time>2022-08-13T16:43:01Z</time>
      </trkpt>
      <trkpt lat="4.4046890" lon="-75.7275140">
        <ele>1196.8</ele>
        <time>2022-08-13T16:43:10Z</time>
      </trkpt>
      <trkpt lat="4.4045980" lon="-75.7271950">
        <ele>1196.8</ele>
        <time>2022-08-13T16:43:16Z</time>
      </trkpt>
      <trkpt lat="4.4045280" lon="-75.7269270">
        <ele>1197.0</ele>
        <time>2022-08-13T16:43:21Z</time>
      </trkpt>
      <trkpt lat="4.4044190" lon="-75.7265300">
        <ele>1197.0</ele>
        <time>2022-08-13T16:43:29Z</time>
      </trkpt>
      <trkpt lat="4.4043430" lon="-75.7262440">
        <ele>1197.8</ele>
        <time>2022-08-13T16:43:35Z</time>
      </trkpt>
      <trkpt lat="4.4043270" lon="-75.7261980">
        <ele>1197.8</ele>
        <time>2022-08-13T16:43:36Z</time>
      </trkpt>
      <trkpt lat="4.4042730" lon="-75.7260550">
        <ele>1198.0</ele>
        <time>2022-08-13T16:43:39Z</time>
      </trkpt>
      <trkpt lat="4.4041960" lon="-75.7259010">
        <ele>1198.2</ele>
        <time>2022-08-13T16:43:43Z</time>
      </trkpt>
      <trkpt lat="4.4041640" lon="-75.7258500">
        <ele>1198.4</ele>
        <time>2022-08-13T16:43:44Z</time>
      </trkpt>
      <trkpt lat="4.4039870" lon="-75.7256370">
        <ele>1198.6</ele>
        <time>2022-08-13T16:43:50Z</time>
      </trkpt>
      <trkpt lat="4.4039540" lon="-75.7256130">
        <ele>1198.6</ele>
        <time>2022-08-13T16:43:51Z</time>
      </trkpt>
      <trkpt lat="4.4038020" lon="-75.7255600">
        <ele>1199.2</ele>
        <time>2022-08-13T16:43:56Z</time>
      </trkpt>
      <trkpt lat="4.4037430" lon="-75.7255620">
        <ele>1199.4</ele>
        <time>2022-08-13T16:43:58Z</time>
      </trkpt>
      <trkpt lat="4.4037160" lon="-75.7255640">
        <ele>1199.6</ele>
        <time>2022-08-13T16:43:59Z</time>
      </trkpt>
      <trkpt lat="4.4036830" lon="-75.7255630">
        <ele>1200.0</ele>
        <time>2022-08-13T16:44:00Z</time>
      </trkpt>
      <trkpt lat="4.4036580" lon="-75.7255610">
        <ele>1200.4</ele>
        <time>2022-08-13T16:44:01Z</time>
      </trkpt>
      <trkpt lat="4.4035500" lon="-75.7255560">
        <ele>1201.6</ele>
        <time>2022-08-13T16:44:04Z</time>
      </trkpt>
      <trkpt lat="4.4034550" lon="-75.7255290">
        <ele>1202.4</ele>
        <time>2022-08-13T16:44:07Z</time>
      </trkpt>
      <trkpt lat="4.4033360" lon="-75.7254810">
        <ele>1202.6</ele>
        <time>2022-08-13T16:44:10Z</time>
      </trkpt>
      <trkpt lat="4.4032570" lon="-75.7254460">
        <ele>1202.8</ele>
        <time>2022-08-13T16:44:12Z</time>
      </trkpt>
      <trkpt lat="4.4032190" lon="-75.7254300">
        <ele>1203.0</ele>
        <time>2022-08-13T16:44:13Z</time>
      </trkpt>
      <trkpt lat="4.4029190" lon="-75.7252100">
        <ele>1203.2</ele>
        <time>2022-08-13T16:44:21Z</time>
      </trkpt>
      <trkpt lat="4.4026340" lon="-75.7249620">
        <ele>1203.4</ele>
        <time>2022-08-13T16:44:29Z</time>
      </trkpt>
      <trkpt lat="4.4024710" lon="-75.7248160">
        <ele>1203.4</ele>
        <time>2022-08-13T16:44:34Z</time>
      </trkpt>
      <trkpt lat="4.4023850" lon="-75.7247350">
        <ele>1203.6</ele>
        <time>2022-08-13T16:44:37Z</time>
      </trkpt>
      <trkpt lat="4.4022840" lon="-75.7246360">
        <ele>1203.8</ele>
        <time>2022-08-13T16:44:41Z</time>
      </trkpt>
      <trkpt lat="4.4022390" lon="-75.7245900">
        <ele>1204.2</ele>
        <time>2022-08-13T16:44:43Z</time>
      </trkpt>
      <trkpt lat="4.4021620" lon="-75.7245430">
        <ele>1205.0</ele>
        <time>2022-08-13T16:44:46Z</time>
      </trkpt>
      <trkpt lat="4.4021010" lon="-75.7245090">
        <ele>1205.8</ele>
        <time>2022-08-13T16:44:48Z</time>
      </trkpt>
      <trkpt lat="4.4020720" lon="-75.7244940">
        <ele>1206.2</ele>
        <time>2022-08-13T16:44:49Z</time>
      </trkpt>
      <trkpt lat="4.4019420" lon="-75.7244410">
        <ele>1207.6</ele>
        <time>2022-08-13T16:44:53Z</time>
      </trkpt>
      <trkpt lat="4.4018430" lon="-75.7243740">
        <ele>1208.6</ele>
        <time>2022-08-13T16:44:57Z</time>
      </trkpt>
      <trkpt lat="4.4018200" lon="-75.7243530">
        <ele>1208.8</ele>
        <time>2022-08-13T16:44:58Z</time>
      </trkpt>
      <trkpt lat="4.4016910" lon="-75.7241890">
        <ele>1209.4</ele>
        <time>2022-08-13T16:45:03Z</time>
      </trkpt>
      <trkpt lat="4.4016380" lon="-75.7241290">
        <ele>1209.8</ele>
        <time>2022-08-13T16:45:05Z</time>
      </trkpt>
      <trkpt lat="4.4015430" lon="-75.7240210">
        <ele>1210.0</ele>
        <time>2022-08-13T16:45:09Z</time>
      </trkpt>
      <trkpt lat="4.4013980" lon="-75.7238300">
        <ele>1210.8</ele>
        <time>2022-08-13T16:45:14Z</time>
      </trkpt>
      <trkpt lat="4.4013710" lon="-75.7238000">
        <ele>1211.0</ele>
        <time>2022-08-13T16:45:15Z</time>
      </trkpt>
      <trkpt lat="4.4011370" lon="-75.7236660">
        <ele>1211.8</ele>
        <time>2022-08-13T16:45:21Z</time>
      </trkpt>
      <trkpt lat="4.4010270" lon="-75.7235970">
        <ele>1212.0</ele>
        <time>2022-08-13T16:45:24Z</time>
      </trkpt>
      <trkpt lat="4.4009390" lon="-75.7235730">
        <ele>1212.0</ele>
        <time>2022-08-13T16:45:26Z</time>
      </trkpt>
      <trkpt lat="4.4007360" lon="-75.7235230">
        <ele>1212.6</ele>
        <time>2022-08-13T16:45:31Z</time>
      </trkpt>
      <trkpt lat="4.4006500" lon="-75.7234890">
        <ele>1213.0</ele>
        <time>2022-08-13T16:45:33Z</time>
      </trkpt>
      <trkpt lat="4.4006080" lon="-75.7234660">
        <ele>1213.0</ele>
        <time>2022-08-13T16:45:34Z</time>
      </trkpt>
      <trkpt lat="4.4005210" lon="-75.7234270">
        <ele>1213.2</ele>
        <time>2022-08-13T16:45:36Z</time>
      </trkpt>
      <trkpt lat="4.4004810" lon="-75.7234130">
        <ele>1213.2</ele>
        <time>2022-08-13T16:45:37Z</time>
      </trkpt>
      <trkpt lat="4.4003130" lon="-75.7233730">
        <ele>1213.6</ele>
        <time>2022-08-13T16:45:41Z</time>
      </trkpt>
      <trkpt lat="4.4002150" lon="-75.7233450">
        <ele>1213.8</ele>
        <time>2022-08-13T16:45:43Z</time>
      </trkpt>
      <trkpt lat="4.4001370" lon="-75.7233130">
        <ele>1213.8</ele>
        <time>2022-08-13T16:45:45Z</time>
      </trkpt>
      <trkpt lat="4.4000980" lon="-75.7232960">
        <ele>1214.0</ele>
        <time>2022-08-13T16:45:46Z</time>
      </trkpt>
      <trkpt lat="4.4000510" lon="-75.7232800">
        <ele>1214.0</ele>
        <time>2022-08-13T16:45:47Z</time>
      </trkpt>
      <trkpt lat="4.4000070" lon="-75.7232610">
        <ele>1214.2</ele>
        <time>2022-08-13T16:45:48Z</time>
      </trkpt>
      <trkpt lat="4.3998430" lon="-75.7231780">
        <ele>1214.6</ele>
        <time>2022-08-13T16:45:52Z</time>
      </trkpt>
      <trkpt lat="4.3998000" lon="-75.7231570">
        <ele>1214.8</ele>
        <time>2022-08-13T16:45:53Z</time>
      </trkpt>
      <trkpt lat="4.3996620" lon="-75.7231290">
        <ele>1215.2</ele>
        <time>2022-08-13T16:45:56Z</time>
      </trkpt>
      <trkpt lat="4.3996180" lon="-75.7231290">
        <ele>1215.2</ele>
        <time>2022-08-13T16:45:57Z</time>
      </trkpt>
      <trkpt lat="4.3994200" lon="-75.7231150">
        <ele>1216.2</ele>
        <time>2022-08-13T16:46:02Z</time>
      </trkpt>
      <trkpt lat="4.3993390" lon="-75.7231130">
        <ele>1216.6</ele>
        <time>2022-08-13T16:46:04Z</time>
      </trkpt>
      <trkpt lat="4.3992140" lon="-75.7231210">
        <ele>1217.4</ele>
        <time>2022-08-13T16:46:07Z</time>
      </trkpt>
      <trkpt lat="4.3991310" lon="-75.7231290">
        <ele>1218.0</ele>
        <time>2022-08-13T16:46:09Z</time>
      </trkpt>
      <trkpt lat="4.3990910" lon="-75.7231370">
        <ele>1218.2</ele>
        <time>2022-08-13T16:46:10Z</time>
      </trkpt>
      <trkpt lat="4.3990520" lon="-75.7231410">
        <ele>1218.4</ele>
        <time>2022-08-13T16:46:11Z</time>
      </trkpt>
      <trkpt lat="4.3990130" lon="-75.7231450">
        <ele>1218.6</ele>
        <time>2022-08-13T16:46:12Z</time>
      </trkpt>
      <trkpt lat="4.3989370" lon="-75.7231450">
        <ele>1218.8</ele>
        <time>2022-08-13T16:46:14Z</time>
      </trkpt>
      <trkpt lat="4.3989010" lon="-75.7231400">
        <ele>1219.0</ele>
        <time>2022-08-13T16:46:15Z</time>
      </trkpt>
      <trkpt lat="4.3988040" lon="-75.7231500">
        <ele>1219.6</ele>
        <time>2022-08-13T16:46:18Z</time>
      </trkpt>
      <trkpt lat="4.3987760" lon="-75.7231540">
        <ele>1219.8</ele>
        <time>2022-08-13T16:46:19Z</time>
      </trkpt>
      <trkpt lat="4.3986020" lon="-75.7231550">
        <ele>1220.6</ele>
        <time>2022-08-13T16:46:24Z</time>
      </trkpt>
      <trkpt lat="4.3985660" lon="-75.7231670">
        <ele>1220.8</ele>
        <time>2022-08-13T16:46:25Z</time>
      </trkpt>
      <trkpt lat="4.3983810" lon="-75.7232070">
        <ele>1221.8</ele>
        <time>2022-08-13T16:46:30Z</time>
      </trkpt>
      <trkpt lat="4.3981860" lon="-75.7232250">
        <ele>1222.0</ele>
        <time>2022-08-13T16:46:35Z</time>
      </trkpt>
      <trkpt lat="4.3979500" lon="-75.7232110">
        <ele>1222.8</ele>
        <time>2022-08-13T16:46:41Z</time>
      </trkpt>
      <trkpt lat="4.3979130" lon="-75.7232080">
        <ele>1223.0</ele>
        <time>2022-08-13T16:46:42Z</time>
      </trkpt>
      <trkpt lat="4.3976250" lon="-75.7231960">
        <ele>1224.0</ele>
        <time>2022-08-13T16:46:50Z</time>
      </trkpt>
      <trkpt lat="4.3975880" lon="-75.7231930">
        <ele>1224.2</ele>
        <time>2022-08-13T16:46:51Z</time>
      </trkpt>
      <trkpt lat="4.3973710" lon="-75.7231780">
        <ele>1225.2</ele>
        <time>2022-08-13T16:46:57Z</time>
      </trkpt>
      <trkpt lat="4.3971360" lon="-75.7231410">
        <ele>1226.2</ele>
        <time>2022-08-13T16:47:04Z</time>
      </trkpt>
      <trkpt lat="4.3971010" lon="-75.7231350">
        <ele>1226.4</ele>
        <time>2022-08-13T16:47:05Z</time>
      </trkpt>
      <trkpt lat="4.3969230" lon="-75.7231010">
        <ele>1227.6</ele>
        <time>2022-08-13T16:47:10Z</time>
      </trkpt>
      <trkpt lat="4.3968200" lon="-75.7230820">
        <ele>1228.0</ele>
        <time>2022-08-13T16:47:13Z</time>
      </trkpt>
      <trkpt lat="4.3966820" lon="-75.7230530">
        <ele>1228.8</ele>
        <time>2022-08-13T16:47:17Z</time>
      </trkpt>
      <trkpt lat="4.3965730" lon="-75.7230250">
        <ele>1229.4</ele>
        <time>2022-08-13T16:47:20Z</time>
      </trkpt>
      <trkpt lat="4.3964990" lon="-75.7230090">
        <ele>1229.8</ele>
        <time>2022-08-13T16:47:22Z</time>
      </trkpt>
      <trkpt lat="4.3963960" lon="-75.7229880">
        <ele>1230.2</ele>
        <time>2022-08-13T16:47:26Z</time>
      </trkpt>
      <trkpt lat="4.3963960" lon="-75.7229880">
        <ele>1230.2</ele>
        <time>2022-08-13T16:47:29Z</time>
      </trkpt>
      <trkpt lat="4.3963170" lon="-75.7229550">
        <ele>1230.6</ele>
        <time>2022-08-13T16:47:46Z</time>
      </trkpt>
      <trkpt lat="4.3961240" lon="-75.7229160">
        <ele>1230.6</ele>
        <time>2022-08-13T16:47:51Z</time>
      </trkpt>
      <trkpt lat="4.3959410" lon="-75.7228650">
        <ele>1230.6</ele>
        <time>2022-08-13T16:47:56Z</time>
      </trkpt>
      <trkpt lat="4.3958330" lon="-75.7228410">
        <ele>1230.8</ele>
        <time>2022-08-13T16:47:59Z</time>
      </trkpt>
      <trkpt lat="4.3957550" lon="-75.7228240">
        <ele>1231.2</ele>
        <time>2022-08-13T16:48:01Z</time>
      </trkpt>
      <trkpt lat="4.3954810" lon="-75.7227430">
        <ele>1232.2</ele>
        <time>2022-08-13T16:48:09Z</time>
      </trkpt>
      <trkpt lat="4.3953170" lon="-75.7226950">
        <ele>1233.2</ele>
        <time>2022-08-13T16:48:14Z</time>
      </trkpt>
      <trkpt lat="4.3952910" lon="-75.7226860">
        <ele>1233.6</ele>
        <time>2022-08-13T16:48:15Z</time>
      </trkpt>
      <trkpt lat="4.3951400" lon="-75.7226510">
        <ele>1234.4</ele>
        <time>2022-08-13T16:48:20Z</time>
      </trkpt>
      <trkpt lat="4.3950610" lon="-75.7226200">
        <ele>1234.8</ele>
        <time>2022-08-13T16:48:23Z</time>
      </trkpt>
      <trkpt lat="4.3949990" lon="-75.7225980">
        <ele>1235.4</ele>
        <time>2022-08-13T16:48:25Z</time>
      </trkpt>
      <trkpt lat="4.3948960" lon="-75.7225430">
        <ele>1236.4</ele>
        <time>2022-08-13T16:48:29Z</time>
      </trkpt>
      <trkpt lat="4.3948490" lon="-75.7225200">
        <ele>1237.0</ele>
        <time>2022-08-13T16:48:31Z</time>
      </trkpt>
      <trkpt lat="4.3947800" lon="-75.7224840">
        <ele>1237.6</ele>
        <time>2022-08-13T16:48:34Z</time>
      </trkpt>
      <trkpt lat="4.3946650" lon="-75.7223980">
        <ele>1238.8</ele>
        <time>2022-08-13T16:48:39Z</time>
      </trkpt>
      <trkpt lat="4.3946430" lon="-75.7223830">
        <ele>1239.0</ele>
        <time>2022-08-13T16:48:40Z</time>
      </trkpt>
      <trkpt lat="4.3945330" lon="-75.7223080">
        <ele>1240.0</ele>
        <time>2022-08-13T16:48:45Z</time>
      </trkpt>
      <trkpt lat="4.3944340" lon="-75.7222320">
        <ele>1241.0</ele>
        <time>2022-08-13T16:48:50Z</time>
      </trkpt>
      <trkpt lat="4.3943290" lon="-75.7221640">
        <ele>1242.2</ele>
        <time>2022-08-13T16:48:55Z</time>
      </trkpt>
      <trkpt lat="4.3943080" lon="-75.7221530">
        <ele>1242.4</ele>
        <time>2022-08-13T16:48:56Z</time>
      </trkpt>
      <trkpt lat="4.3942120" lon="-75.7220740">
        <ele>1243.4</ele>
        <time>2022-08-13T16:49:01Z</time>
      </trkpt>
      <trkpt lat="4.3941680" lon="-75.7220420">
        <ele>1243.8</ele>
        <time>2022-08-13T16:49:03Z</time>
      </trkpt>
      <trkpt lat="4.3940640" lon="-75.7220130">
        <ele>1244.6</ele>
        <time>2022-08-13T16:49:07Z</time>
      </trkpt>
      <trkpt lat="4.3939820" lon="-75.7220120">
        <ele>1245.2</ele>
        <time>2022-08-13T16:49:10Z</time>
      </trkpt>
      <trkpt lat="4.3939340" lon="-75.7220110">
        <ele>1245.6</ele>
        <time>2022-08-13T16:49:12Z</time>
      </trkpt>
      <trkpt lat="4.3938190" lon="-75.7220260">
        <ele>1246.4</ele>
        <time>2022-08-13T16:49:16Z</time>
      </trkpt>
      <trkpt lat="4.3937690" lon="-75.7220380">
        <ele>1246.8</ele>
        <time>2022-08-13T16:49:18Z</time>
      </trkpt>
      <trkpt lat="4.3936010" lon="-75.7220780">
        <ele>1248.2</ele>
        <time>2022-08-13T16:49:24Z</time>
      </trkpt>
      <trkpt lat="4.3934730" lon="-75.7221230">
        <ele>1249.4</ele>
        <time>2022-08-13T16:49:29Z</time>
      </trkpt>
      <trkpt lat="4.3934360" lon="-75.7221390">
        <ele>1249.4</ele>
        <time>2022-08-13T16:49:30Z</time>
      </trkpt>
      <trkpt lat="4.3934040" lon="-75.7221490">
        <ele>1249.6</ele>
        <time>2022-08-13T16:49:31Z</time>
      </trkpt>
      <trkpt lat="4.3932670" lon="-75.7221850">
        <ele>1250.6</ele>
        <time>2022-08-13T16:49:35Z</time>
      </trkpt>
      <trkpt lat="4.3932300" lon="-75.7221910">
        <ele>1250.8</ele>
        <time>2022-08-13T16:49:36Z</time>
      </trkpt>
      <trkpt lat="4.3930760" lon="-75.7222290">
        <ele>1251.8</ele>
        <time>2022-08-13T16:49:40Z</time>
      </trkpt>
      <trkpt lat="4.3929430" lon="-75.7222590">
        <ele>1252.4</ele>
        <time>2022-08-13T16:49:43Z</time>
      </trkpt>
      <trkpt lat="4.3928950" lon="-75.7222760">
        <ele>1252.6</ele>
        <time>2022-08-13T16:49:44Z</time>
      </trkpt>
      <trkpt lat="4.3928500" lon="-75.7222920">
        <ele>1252.8</ele>
        <time>2022-08-13T16:49:45Z</time>
      </trkpt>
      <trkpt lat="4.3928000" lon="-75.7222980">
        <ele>1253.0</ele>
        <time>2022-08-13T16:49:46Z</time>
      </trkpt>
      <trkpt lat="4.3927030" lon="-75.7223100">
        <ele>1253.2</ele>
        <time>2022-08-13T16:49:48Z</time>
      </trkpt>
      <trkpt lat="4.3925850" lon="-75.7223070">
        <ele>1253.4</ele>
        <time>2022-08-13T16:49:50Z</time>
      </trkpt>
      <trkpt lat="4.3924760" lon="-75.7222800">
        <ele>1253.4</ele>
        <time>2022-08-13T16:49:52Z</time>
      </trkpt>
      <trkpt lat="4.3923100" lon="-75.7222370">
        <ele>1253.4</ele>
        <time>2022-08-13T16:49:55Z</time>
      </trkpt>
      <trkpt lat="4.3920340" lon="-75.7221700">
        <ele>1253.4</ele>
        <time>2022-08-13T16:50:00Z</time>
      </trkpt>
      <trkpt lat="4.3919800" lon="-75.7221660">
        <ele>1253.4</ele>
        <time>2022-08-13T16:50:01Z</time>
      </trkpt>
      <trkpt lat="4.3918840" lon="-75.7221680">
        <ele>1253.4</ele>
        <time>2022-08-13T16:50:03Z</time>
      </trkpt>
      <trkpt lat="4.3916610" lon="-75.7221990">
        <ele>1253.4</ele>
        <time>2022-08-13T16:50:07Z</time>
      </trkpt>
      <trkpt lat="4.3914980" lon="-75.7222230">
        <ele>1254.0</ele>
        <time>2022-08-13T16:50:10Z</time>
      </trkpt>
      <trkpt lat="4.3913520" lon="-75.7222430">
        <ele>1254.8</ele>
        <time>2022-08-13T16:50:13Z</time>
      </trkpt>
      <trkpt lat="4.3912920" lon="-75.7222450">
        <ele>1255.0</ele>
        <time>2022-08-13T16:50:14Z</time>
      </trkpt>
      <trkpt lat="4.3912460" lon="-75.7222490">
        <ele>1255.4</ele>
        <time>2022-08-13T16:50:15Z</time>
      </trkpt>
      <trkpt lat="4.3911630" lon="-75.7222430">
        <ele>1255.8</ele>
        <time>2022-08-13T16:50:17Z</time>
      </trkpt>
      <trkpt lat="4.3910500" lon="-75.7222260">
        <ele>1256.2</ele>
        <time>2022-08-13T16:50:20Z</time>
      </trkpt>
      <trkpt lat="4.3909060" lon="-75.7221990">
        <ele>1257.2</ele>
        <time>2022-08-13T16:50:24Z</time>
      </trkpt>
      <trkpt lat="4.3908750" lon="-75.7221870">
        <ele>1257.6</ele>
        <time>2022-08-13T16:50:25Z</time>
      </trkpt>
      <trkpt lat="4.3907140" lon="-75.7221550">
        <ele>1258.2</ele>
        <time>2022-08-13T16:50:29Z</time>
      </trkpt>
      <trkpt lat="4.3906200" lon="-75.7221450">
        <ele>1258.4</ele>
        <time>2022-08-13T16:50:31Z</time>
      </trkpt>
      <trkpt lat="4.3905230" lon="-75.7221440">
        <ele>1258.6</ele>
        <time>2022-08-13T16:50:33Z</time>
      </trkpt>
      <trkpt lat="4.3904710" lon="-75.7221440">
        <ele>1258.8</ele>
        <time>2022-08-13T16:50:34Z</time>
      </trkpt>
      <trkpt lat="4.3904210" lon="-75.7221370">
        <ele>1259.0</ele>
        <time>2022-08-13T16:50:35Z</time>
      </trkpt>
      <trkpt lat="4.3900740" lon="-75.7220610">
        <ele>1259.6</ele>
        <time>2022-08-13T16:50:42Z</time>
      </trkpt>
      <trkpt lat="4.3900360" lon="-75.7220490">
        <ele>1259.8</ele>
        <time>2022-08-13T16:50:43Z</time>
      </trkpt>
      <trkpt lat="4.3897990" lon="-75.7219850">
        <ele>1260.4</ele>
        <time>2022-08-13T16:50:48Z</time>
      </trkpt>
      <trkpt lat="4.3897110" lon="-75.7219720">
        <ele>1260.6</ele>
        <time>2022-08-13T16:50:50Z</time>
      </trkpt>
      <trkpt lat="4.3896100" lon="-75.7219640">
        <ele>1261.0</ele>
        <time>2022-08-13T16:50:52Z</time>
      </trkpt>
      <trkpt lat="4.3894310" lon="-75.7219730">
        <ele>1262.2</ele>
        <time>2022-08-13T16:50:56Z</time>
      </trkpt>
      <trkpt lat="4.3893920" lon="-75.7219780">
        <ele>1262.4</ele>
        <time>2022-08-13T16:50:57Z</time>
      </trkpt>
      <trkpt lat="4.3892380" lon="-75.7219900">
        <ele>1263.4</ele>
        <time>2022-08-13T16:51:01Z</time>
      </trkpt>
      <trkpt lat="4.3891680" lon="-75.7219970">
        <ele>1264.0</ele>
        <time>2022-08-13T16:51:03Z</time>
      </trkpt>
      <trkpt lat="4.3890770" lon="-75.7220030">
        <ele>1264.4</ele>
        <time>2022-08-13T16:51:06Z</time>
      </trkpt>
      <trkpt lat="4.3889680" lon="-75.7219930">
        <ele>1264.8</ele>
        <time>2022-08-13T16:51:09Z</time>
      </trkpt>
      <trkpt lat="4.3888470" lon="-75.7219810">
        <ele>1265.6</ele>
        <time>2022-08-13T16:51:13Z</time>
      </trkpt>
      <trkpt lat="4.3887600" lon="-75.7219720">
        <ele>1265.8</ele>
        <time>2022-08-13T16:51:16Z</time>
      </trkpt>
      <trkpt lat="4.3885800" lon="-75.7219200">
        <ele>1266.6</ele>
        <time>2022-08-13T16:51:22Z</time>
      </trkpt>
      <trkpt lat="4.3885430" lon="-75.7219000">
        <ele>1266.8</ele>
        <time>2022-08-13T16:51:23Z</time>
      </trkpt>
      <trkpt lat="4.3883310" lon="-75.7217640">
        <ele>1267.6</ele>
        <time>2022-08-13T16:51:30Z</time>
      </trkpt>
      <trkpt lat="4.3882370" lon="-75.7217190">
        <ele>1268.0</ele>
        <time>2022-08-13T16:51:33Z</time>
      </trkpt>
      <trkpt lat="4.3881040" lon="-75.7216750">
        <ele>1268.6</ele>
        <time>2022-08-13T16:51:37Z</time>
      </trkpt>
      <trkpt lat="4.3879320" lon="-75.7216320">
        <ele>1269.6</ele>
        <time>2022-08-13T16:51:42Z</time>
      </trkpt>
      <trkpt lat="4.3878950" lon="-75.7216250">
        <ele>1269.8</ele>
        <time>2022-08-13T16:51:43Z</time>
      </trkpt>
      <trkpt lat="4.3877270" lon="-75.7216040">
        <ele>1271.0</ele>
        <time>2022-08-13T16:51:48Z</time>
      </trkpt>
      <trkpt lat="4.3875290" lon="-75.7216000">
        <ele>1272.2</ele>
        <time>2022-08-13T16:51:54Z</time>
      </trkpt>
      <trkpt lat="4.3874970" lon="-75.7215990">
        <ele>1272.4</ele>
        <time>2022-08-13T16:51:55Z</time>
      </trkpt>
      <trkpt lat="4.3873440" lon="-75.7216070">
        <ele>1273.2</ele>
        <time>2022-08-13T16:52:00Z</time>
      </trkpt>
      <trkpt lat="4.3872660" lon="-75.7216300">
        <ele>1274.0</ele>
        <time>2022-08-13T16:52:03Z</time>
      </trkpt>
      <trkpt lat="4.3872170" lon="-75.7216490">
        <ele>1274.4</ele>
        <time>2022-08-13T16:52:05Z</time>
      </trkpt>
      <trkpt lat="4.3870940" lon="-75.7216940">
        <ele>1275.4</ele>
        <time>2022-08-13T16:52:10Z</time>
      </trkpt>
      <trkpt lat="4.3870440" lon="-75.7217070">
        <ele>1275.8</ele>
        <time>2022-08-13T16:52:12Z</time>
      </trkpt>
      <trkpt lat="4.3869720" lon="-75.7217270">
        <ele>1276.4</ele>
        <time>2022-08-13T16:52:15Z</time>
      </trkpt>
      <trkpt lat="4.3868500" lon="-75.7217410">
        <ele>1277.6</ele>
        <time>2022-08-13T16:52:20Z</time>
      </trkpt>
      <trkpt lat="4.3868280" lon="-75.7217410">
        <ele>1278.0</ele>
        <time>2022-08-13T16:52:21Z</time>
      </trkpt>
      <trkpt lat="4.3867000" lon="-75.7217350">
        <ele>1279.0</ele>
        <time>2022-08-13T16:52:26Z</time>
      </trkpt>
      <trkpt lat="4.3865940" lon="-75.7217260">
        <ele>1279.8</ele>
        <time>2022-08-13T16:52:30Z</time>
      </trkpt>
      <trkpt lat="4.3865660" lon="-75.7217260">
        <ele>1280.0</ele>
        <time>2022-08-13T16:52:31Z</time>
      </trkpt>
      <trkpt lat="4.3864250" lon="-75.7217240">
        <ele>1281.2</ele>
        <time>2022-08-13T16:52:36Z</time>
      </trkpt>
      <trkpt lat="4.3863380" lon="-75.7217250">
        <ele>1281.8</ele>
        <time>2022-08-13T16:52:39Z</time>
      </trkpt>
      <trkpt lat="4.3862560" lon="-75.7217390">
        <ele>1282.2</ele>
        <time>2022-08-13T16:52:42Z</time>
      </trkpt>
      <trkpt lat="4.3861270" lon="-75.7217590">
        <ele>1283.0</ele>
        <time>2022-08-13T16:52:47Z</time>
      </trkpt>
      <trkpt lat="4.3860710" lon="-75.7217580">
        <ele>1283.4</ele>
        <time>2022-08-13T16:52:49Z</time>
      </trkpt>
      <trkpt lat="4.3859060" lon="-75.7217890">
        <ele>1284.4</ele>
        <time>2022-08-13T16:52:55Z</time>
      </trkpt>
      <trkpt lat="4.3858790" lon="-75.7217940">
        <ele>1284.6</ele>
        <time>2022-08-13T16:52:56Z</time>
      </trkpt>
      <trkpt lat="4.3858260" lon="-75.7218040">
        <ele>1285.2</ele>
        <time>2022-08-13T16:52:58Z</time>
      </trkpt>
      <trkpt lat="4.3857750" lon="-75.7218230">
        <ele>1285.6</ele>
        <time>2022-08-13T16:53:00Z</time>
      </trkpt>
      <trkpt lat="4.3856540" lon="-75.7218860">
        <ele>1286.4</ele>
        <time>2022-08-13T16:53:05Z</time>
      </trkpt>
      <trkpt lat="4.3856340" lon="-75.7219010">
        <ele>1286.6</ele>
        <time>2022-08-13T16:53:06Z</time>
      </trkpt>
      <trkpt lat="4.3855020" lon="-75.7219900">
        <ele>1287.8</ele>
        <time>2022-08-13T16:53:12Z</time>
      </trkpt>
      <trkpt lat="4.3854530" lon="-75.7220100">
        <ele>1288.2</ele>
        <time>2022-08-13T16:53:14Z</time>
      </trkpt>
      <trkpt lat="4.3853570" lon="-75.7220280">
        <ele>1289.2</ele>
        <time>2022-08-13T16:53:18Z</time>
      </trkpt>
      <trkpt lat="4.3852850" lon="-75.7220070">
        <ele>1289.8</ele>
        <time>2022-08-13T16:53:21Z</time>
      </trkpt>
      <trkpt lat="4.3852430" lon="-75.7219860">
        <ele>1290.4</ele>
        <time>2022-08-13T16:53:23Z</time>
      </trkpt>
      <trkpt lat="4.3851760" lon="-75.7219170">
        <ele>1291.2</ele>
        <time>2022-08-13T16:53:27Z</time>
      </trkpt>
      <trkpt lat="4.3851630" lon="-75.7219010">
        <ele>1291.4</ele>
        <time>2022-08-13T16:53:28Z</time>
      </trkpt>
      <trkpt lat="4.3850710" lon="-75.7217950">
        <ele>1292.6</ele>
        <time>2022-08-13T16:53:34Z</time>
      </trkpt>
      <trkpt lat="4.3849970" lon="-75.7217370">
        <ele>1293.0</ele>
        <time>2022-08-13T16:53:38Z</time>
      </trkpt>
      <trkpt lat="4.3849500" lon="-75.7217250">
        <ele>1293.6</ele>
        <time>2022-08-13T16:53:40Z</time>
      </trkpt>
      <trkpt lat="4.3848380" lon="-75.7217210">
        <ele>1294.4</ele>
        <time>2022-08-13T16:53:45Z</time>
      </trkpt>
      <trkpt lat="4.3847910" lon="-75.7217260">
        <ele>1295.0</ele>
        <time>2022-08-13T16:53:47Z</time>
      </trkpt>
      <trkpt lat="4.3846920" lon="-75.7217610">
        <ele>1296.0</ele>
        <time>2022-08-13T16:53:52Z</time>
      </trkpt>
      <trkpt lat="4.3846720" lon="-75.7217700">
        <ele>1296.4</ele>
        <time>2022-08-13T16:53:53Z</time>
      </trkpt>
      <trkpt lat="4.3846020" lon="-75.7218150">
        <ele>1297.2</ele>
        <time>2022-08-13T16:53:57Z</time>
      </trkpt>
      <trkpt lat="4.3845750" lon="-75.7218470">
        <ele>1297.8</ele>
        <time>2022-08-13T16:53:59Z</time>
      </trkpt>
      <trkpt lat="4.3845370" lon="-75.7219010">
        <ele>1298.4</ele>
        <time>2022-08-13T16:54:02Z</time>
      </trkpt>
      <trkpt lat="4.3844840" lon="-75.7219610">
        <ele>1300.0</ele>
        <time>2022-08-13T16:54:06Z</time>
      </trkpt>
      <trkpt lat="4.3844510" lon="-75.7219870">
        <ele>1300.6</ele>
        <time>2022-08-13T16:54:08Z</time>
      </trkpt>
      <trkpt lat="4.3844190" lon="-75.7220170">
        <ele>1301.0</ele>
        <time>2022-08-13T16:54:10Z</time>
      </trkpt>
      <trkpt lat="4.3843250" lon="-75.7220650">
        <ele>1301.8</ele>
        <time>2022-08-13T16:54:15Z</time>
      </trkpt>
      <trkpt lat="4.3843090" lon="-75.7220700">
        <ele>1302.0</ele>
        <time>2022-08-13T16:54:16Z</time>
      </trkpt>
      <trkpt lat="4.3842930" lon="-75.7220720">
        <ele>1302.2</ele>
        <time>2022-08-13T16:54:17Z</time>
      </trkpt>
      <trkpt lat="4.3842590" lon="-75.7220660">
        <ele>1302.6</ele>
        <time>2022-08-13T16:54:19Z</time>
      </trkpt>
      <trkpt lat="4.3842280" lon="-75.7220500">
        <ele>1303.0</ele>
        <time>2022-08-13T16:54:21Z</time>
      </trkpt>
      <trkpt lat="4.3841510" lon="-75.7219910">
        <ele>1303.8</ele>
        <time>2022-08-13T16:54:26Z</time>
      </trkpt>
      <trkpt lat="4.3841270" lon="-75.7219610">
        <ele>1304.2</ele>
        <time>2022-08-13T16:54:28Z</time>
      </trkpt>
      <trkpt lat="4.3840370" lon="-75.7218410">
        <ele>1305.6</ele>
        <time>2022-08-13T16:54:34Z</time>
      </trkpt>
      <trkpt lat="4.3839150" lon="-75.7217400">
        <ele>1306.8</ele>
        <time>2022-08-13T16:54:40Z</time>
      </trkpt>
      <trkpt lat="4.3838710" lon="-75.7217000">
        <ele>1307.2</ele>
        <time>2022-08-13T16:54:42Z</time>
      </trkpt>
      <trkpt lat="4.3838260" lon="-75.7216650">
        <ele>1307.6</ele>
        <time>2022-08-13T16:54:44Z</time>
      </trkpt>
      <trkpt lat="4.3837840" lon="-75.7216310">
        <ele>1308.0</ele>
        <time>2022-08-13T16:54:46Z</time>
      </trkpt>
      <trkpt lat="4.3837580" lon="-75.7216180">
        <ele>1308.0</ele>
        <time>2022-08-13T16:54:47Z</time>
      </trkpt>
      <trkpt lat="4.3836880" lon="-75.7215670">
        <ele>1308.4</ele>
        <time>2022-08-13T16:54:50Z</time>
      </trkpt>
      <trkpt lat="4.3835990" lon="-75.7215200">
        <ele>1309.0</ele>
        <time>2022-08-13T16:54:54Z</time>
      </trkpt>
      <trkpt lat="4.3835270" lon="-75.7214590">
        <ele>1309.8</ele>
        <time>2022-08-13T16:54:57Z</time>
      </trkpt>
      <trkpt lat="4.3834760" lon="-75.7214350">
        <ele>1310.2</ele>
        <time>2022-08-13T16:54:59Z</time>
      </trkpt>
      <trkpt lat="4.3833590" lon="-75.7213650">
        <ele>1311.0</ele>
        <time>2022-08-13T16:55:04Z</time>
      </trkpt>
      <trkpt lat="4.3833170" lon="-75.7213460">
        <ele>1311.4</ele>
        <time>2022-08-13T16:55:06Z</time>
      </trkpt>
      <trkpt lat="4.3831690" lon="-75.7212840">
        <ele>1312.4</ele>
        <time>2022-08-13T16:55:12Z</time>
      </trkpt>
      <trkpt lat="4.3831240" lon="-75.7212720">
        <ele>1312.6</ele>
        <time>2022-08-13T16:55:14Z</time>
      </trkpt>
      <trkpt lat="4.3829710" lon="-75.7212490">
        <ele>1313.8</ele>
        <time>2022-08-13T16:55:20Z</time>
      </trkpt>
      <trkpt lat="4.3829480" lon="-75.7212460">
        <ele>1314.0</ele>
        <time>2022-08-13T16:55:21Z</time>
      </trkpt>
      <trkpt lat="4.3829300" lon="-75.7212420">
        <ele>1314.2</ele>
        <time>2022-08-13T16:55:22Z</time>
      </trkpt>
      <trkpt lat="4.3828470" lon="-75.7212230">
        <ele>1315.0</ele>
        <time>2022-08-13T16:55:25Z</time>
      </trkpt>
      <trkpt lat="4.3828180" lon="-75.7212200">
        <ele>1315.4</ele>
        <time>2022-08-13T16:55:26Z</time>
      </trkpt>
      <trkpt lat="4.3827500" lon="-75.7212080">
        <ele>1316.2</ele>
        <time>2022-08-13T16:55:29Z</time>
      </trkpt>
      <trkpt lat="4.3826710" lon="-75.7211950">
        <ele>1316.8</ele>
        <time>2022-08-13T16:55:32Z</time>
      </trkpt>
      <trkpt lat="4.3826200" lon="-75.7211820">
        <ele>1317.4</ele>
        <time>2022-08-13T16:55:34Z</time>
      </trkpt>
      <trkpt lat="4.3825750" lon="-75.7211730">
        <ele>1317.6</ele>
        <time>2022-08-13T16:55:36Z</time>
      </trkpt>
      <trkpt lat="4.3825520" lon="-75.7211700">
        <ele>1317.8</ele>
        <time>2022-08-13T16:55:37Z</time>
      </trkpt>
      <trkpt lat="4.3824740" lon="-75.7211590">
        <ele>1318.4</ele>
        <time>2022-08-13T16:55:41Z</time>
      </trkpt>
      <trkpt lat="4.3823600" lon="-75.7211540">
        <ele>1319.6</ele>
        <time>2022-08-13T16:55:46Z</time>
      </trkpt>
      <trkpt lat="4.3822810" lon="-75.7211530">
        <ele>1320.2</ele>
        <time>2022-08-13T16:55:49Z</time>
      </trkpt>
      <trkpt lat="4.3822570" lon="-75.7211540">
        <ele>1320.4</ele>
        <time>2022-08-13T16:55:50Z</time>
      </trkpt>
      <trkpt lat="4.3822090" lon="-75.7211690">
        <ele>1320.6</ele>
        <time>2022-08-13T16:55:52Z</time>
      </trkpt>
      <trkpt lat="4.3821860" lon="-75.7211780">
        <ele>1320.8</ele>
        <time>2022-08-13T16:55:53Z</time>
      </trkpt>
      <trkpt lat="4.3820900" lon="-75.7212290">
        <ele>1321.8</ele>
        <time>2022-08-13T16:55:58Z</time>
      </trkpt>
      <trkpt lat="4.3820700" lon="-75.7212390">
        <ele>1322.0</ele>
        <time>2022-08-13T16:55:59Z</time>
      </trkpt>
      <trkpt lat="4.3820040" lon="-75.7212530">
        <ele>1322.8</ele>
        <time>2022-08-13T16:56:02Z</time>
      </trkpt>
      <trkpt lat="4.3819510" lon="-75.7212560">
        <ele>1323.0</ele>
        <time>2022-08-13T16:56:04Z</time>
      </trkpt>
      <trkpt lat="4.3818040" lon="-75.7212010">
        <ele>1324.0</ele>
        <time>2022-08-13T16:56:09Z</time>
      </trkpt>
      <trkpt lat="4.3816770" lon="-75.7211110">
        <ele>1325.0</ele>
        <time>2022-08-13T16:56:14Z</time>
      </trkpt>
      <trkpt lat="4.3816100" lon="-75.7210610">
        <ele>1325.6</ele>
        <time>2022-08-13T16:56:18Z</time>
      </trkpt>
      <trkpt lat="4.3815500" lon="-75.7210160">
        <ele>1326.2</ele>
        <time>2022-08-13T16:56:21Z</time>
      </trkpt>
      <trkpt lat="4.3814770" lon="-75.7209810">
        <ele>1327.0</ele>
        <time>2022-08-13T16:56:24Z</time>
      </trkpt>
      <trkpt lat="4.3814310" lon="-75.7209570">
        <ele>1327.2</ele>
        <time>2022-08-13T16:56:26Z</time>
      </trkpt>
      <trkpt lat="4.3812960" lon="-75.7208830">
        <ele>1328.4</ele>
        <time>2022-08-13T16:56:32Z</time>
      </trkpt>
      <trkpt lat="4.3811750" lon="-75.7208180">
        <ele>1329.6</ele>
        <time>2022-08-13T16:56:38Z</time>
      </trkpt>
      <trkpt lat="4.3810760" lon="-75.7207460">
        <ele>1330.6</ele>
        <time>2022-08-13T16:56:43Z</time>
      </trkpt>
      <trkpt lat="4.3810450" lon="-75.7207180">
        <ele>1331.0</ele>
        <time>2022-08-13T16:56:45Z</time>
      </trkpt>
      <trkpt lat="4.3809930" lon="-75.7206380">
        <ele>1331.8</ele>
        <time>2022-08-13T16:56:49Z</time>
      </trkpt>
      <trkpt lat="4.3809670" lon="-75.7205980">
        <ele>1332.2</ele>
        <time>2022-08-13T16:56:51Z</time>
      </trkpt>
      <trkpt lat="4.3809470" lon="-75.7205810">
        <ele>1332.2</ele>
        <time>2022-08-13T16:56:52Z</time>
      </trkpt>
      <trkpt lat="4.3809220" lon="-75.7205450">
        <ele>1332.8</ele>
        <time>2022-08-13T16:56:54Z</time>
      </trkpt>
      <trkpt lat="4.3808990" lon="-75.7205070">
        <ele>1333.4</ele>
        <time>2022-08-13T16:56:56Z</time>
      </trkpt>
      <trkpt lat="4.3808800" lon="-75.7204870">
        <ele>1333.6</ele>
        <time>2022-08-13T16:56:57Z</time>
      </trkpt>
      <trkpt lat="4.3808620" lon="-75.7204690">
        <ele>1333.8</ele>
        <time>2022-08-13T16:56:58Z</time>
      </trkpt>
      <trkpt lat="4.3808190" lon="-75.7203640">
        <ele>1334.8</ele>
        <time>2022-08-13T16:57:03Z</time>
      </trkpt>
      <trkpt lat="4.3808150" lon="-75.7203410">
        <ele>1335.0</ele>
        <time>2022-08-13T16:57:04Z</time>
      </trkpt>
      <trkpt lat="4.3807590" lon="-75.7202060">
        <ele>1336.0</ele>
        <time>2022-08-13T16:57:10Z</time>
      </trkpt>
      <trkpt lat="4.3806570" lon="-75.7200960">
        <ele>1337.0</ele>
        <time>2022-08-13T16:57:15Z</time>
      </trkpt>
      <trkpt lat="4.3806050" lon="-75.7200690">
        <ele>1337.2</ele>
        <time>2022-08-13T16:57:17Z</time>
      </trkpt>
      <trkpt lat="4.3805070" lon="-75.7200500">
        <ele>1338.0</ele>
        <time>2022-08-13T16:57:21Z</time>
      </trkpt>
      <trkpt lat="4.3804370" lon="-75.7200650">
        <ele>1338.4</ele>
        <time>2022-08-13T16:57:24Z</time>
      </trkpt>
      <trkpt lat="4.3803540" lon="-75.7200970">
        <ele>1339.2</ele>
        <time>2022-08-13T16:57:28Z</time>
      </trkpt>
      <trkpt lat="4.3803330" lon="-75.7201070">
        <ele>1339.6</ele>
        <time>2022-08-13T16:57:29Z</time>
      </trkpt>
      <trkpt lat="4.3802550" lon="-75.7201510">
        <ele>1340.6</ele>
        <time>2022-08-13T16:57:33Z</time>
      </trkpt>
      <trkpt lat="4.3802320" lon="-75.7201610">
        <ele>1340.8</ele>
        <time>2022-08-13T16:57:34Z</time>
      </trkpt>
      <trkpt lat="4.3802130" lon="-75.7201700">
        <ele>1341.2</ele>
        <time>2022-08-13T16:57:35Z</time>
      </trkpt>
      <trkpt lat="4.3801570" lon="-75.7202010">
        <ele>1341.8</ele>
        <time>2022-08-13T16:57:38Z</time>
      </trkpt>
      <trkpt lat="4.3801150" lon="-75.7202080">
        <ele>1342.4</ele>
        <time>2022-08-13T16:57:40Z</time>
      </trkpt>
      <trkpt lat="4.3800080" lon="-75.7202450">
        <ele>1343.0</ele>
        <time>2022-08-13T16:57:45Z</time>
      </trkpt>
      <trkpt lat="4.3799860" lon="-75.7202450">
        <ele>1343.0</ele>
        <time>2022-08-13T16:57:46Z</time>
      </trkpt>
      <trkpt lat="4.3799030" lon="-75.7202440">
        <ele>1343.8</ele>
        <time>2022-08-13T16:57:50Z</time>
      </trkpt>
      <trkpt lat="4.3798850" lon="-75.7202530">
        <ele>1344.2</ele>
        <time>2022-08-13T16:57:51Z</time>
      </trkpt>
      <trkpt lat="4.3798720" lon="-75.7202630">
        <ele>1344.2</ele>
        <time>2022-08-13T16:57:52Z</time>
      </trkpt>
      <trkpt lat="4.3798310" lon="-75.7202970">
        <ele>1345.0</ele>
        <time>2022-08-13T16:57:56Z</time>
      </trkpt>
      <trkpt lat="4.3798180" lon="-75.7203020">
        <ele>1345.2</ele>
        <time>2022-08-13T16:57:57Z</time>
      </trkpt>
      <trkpt lat="4.3798000" lon="-75.7203010">
        <ele>1345.4</ele>
        <time>2022-08-13T16:57:58Z</time>
      </trkpt>
      <trkpt lat="4.3797150" lon="-75.7202670">
        <ele>1346.0</ele>
        <time>2022-08-13T16:58:01Z</time>
      </trkpt>
      <trkpt lat="4.3796840" lon="-75.7202490">
        <ele>1346.4</ele>
        <time>2022-08-13T16:58:03Z</time>
      </trkpt>
      <trkpt lat="4.3796660" lon="-75.7202100">
        <ele>1346.6</ele>
        <time>2022-08-13T16:58:05Z</time>
      </trkpt>
      <trkpt lat="4.3796520" lon="-75.7200750">
        <ele>1347.2</ele>
        <time>2022-08-13T16:58:10Z</time>
      </trkpt>
      <trkpt lat="4.3796710" lon="-75.7200330">
        <ele>1347.4</ele>
        <time>2022-08-13T16:58:12Z</time>
      </trkpt>
      <trkpt lat="4.3797230" lon="-75.7199530">
        <ele>1348.0</ele>
        <time>2022-08-13T16:58:16Z</time>
      </trkpt>
      <trkpt lat="4.3797730" lon="-75.7199010">
        <ele>1348.6</ele>
        <time>2022-08-13T16:58:19Z</time>
      </trkpt>
      <trkpt lat="4.3797940" lon="-75.7198850">
        <ele>1348.8</ele>
        <time>2022-08-13T16:58:20Z</time>
      </trkpt>
      <trkpt lat="4.3798140" lon="-75.7198720">
        <ele>1349.2</ele>
        <time>2022-08-13T16:58:21Z</time>
      </trkpt>
      <trkpt lat="4.3798680" lon="-75.7198070">
        <ele>1349.8</ele>
        <time>2022-08-13T16:58:24Z</time>
      </trkpt>
      <trkpt lat="4.3799760" lon="-75.7196840">
        <ele>1350.4</ele>
        <time>2022-08-13T16:58:30Z</time>
      </trkpt>
      <trkpt lat="4.3799950" lon="-75.7196400">
        <ele>1350.8</ele>
        <time>2022-08-13T16:58:32Z</time>
      </trkpt>
      <trkpt lat="4.3800010" lon="-75.7195020">
        <ele>1351.6</ele>
        <time>2022-08-13T16:58:37Z</time>
      </trkpt>
      <trkpt lat="4.3799860" lon="-75.7194500">
        <ele>1352.0</ele>
        <time>2022-08-13T16:58:39Z</time>
      </trkpt>
      <trkpt lat="4.3799250" lon="-75.7193670">
        <ele>1353.2</ele>
        <time>2022-08-13T16:58:43Z</time>
      </trkpt>
      <trkpt lat="4.3798520" lon="-75.7193030">
        <ele>1354.2</ele>
        <time>2022-08-13T16:58:47Z</time>
      </trkpt>
      <trkpt lat="4.3798060" lon="-75.7192800">
        <ele>1354.6</ele>
        <time>2022-08-13T16:58:49Z</time>
      </trkpt>
      <trkpt lat="4.3797490" lon="-75.7192690">
        <ele>1355.4</ele>
        <time>2022-08-13T16:58:52Z</time>
      </trkpt>
      <trkpt lat="4.3796580" lon="-75.7192830">
        <ele>1356.2</ele>
        <time>2022-08-13T16:58:56Z</time>
      </trkpt>
      <trkpt lat="4.3796380" lon="-75.7192940">
        <ele>1356.4</ele>
        <time>2022-08-13T16:58:57Z</time>
      </trkpt>
      <trkpt lat="4.3795610" lon="-75.7193500">
        <ele>1357.6</ele>
        <time>2022-08-13T16:59:01Z</time>
      </trkpt>
      <trkpt lat="4.3795140" lon="-75.7193990">
        <ele>1358.4</ele>
        <time>2022-08-13T16:59:04Z</time>
      </trkpt>
      <trkpt lat="4.3794960" lon="-75.7194110">
        <ele>1358.6</ele>
        <time>2022-08-13T16:59:05Z</time>
      </trkpt>
      <trkpt lat="4.3794170" lon="-75.7194920">
        <ele>1359.8</ele>
        <time>2022-08-13T16:59:10Z</time>
      </trkpt>
      <trkpt lat="4.3793330" lon="-75.7195660">
        <ele>1361.0</ele>
        <time>2022-08-13T16:59:15Z</time>
      </trkpt>
      <trkpt lat="4.3793200" lon="-75.7195790">
        <ele>1361.2</ele>
        <time>2022-08-13T16:59:16Z</time>
      </trkpt>
      <trkpt lat="4.3792380" lon="-75.7196570">
        <ele>1362.0</ele>
        <time>2022-08-13T16:59:21Z</time>
      </trkpt>
      <trkpt lat="4.3792190" lon="-75.7196720">
        <ele>1362.0</ele>
        <time>2022-08-13T16:59:22Z</time>
      </trkpt>
      <trkpt lat="4.3791250" lon="-75.7197570">
        <ele>1363.2</ele>
        <time>2022-08-13T16:59:27Z</time>
      </trkpt>
      <trkpt lat="4.3791050" lon="-75.7197740">
        <ele>1363.2</ele>
        <time>2022-08-13T16:59:28Z</time>
      </trkpt>
      <trkpt lat="4.3790340" lon="-75.7198440">
        <ele>1364.2</ele>
        <time>2022-08-13T16:59:32Z</time>
      </trkpt>
      <trkpt lat="4.3790120" lon="-75.7198580">
        <ele>1364.2</ele>
        <time>2022-08-13T16:59:33Z</time>
      </trkpt>
      <trkpt lat="4.3789940" lon="-75.7198760">
        <ele>1364.4</ele>
        <time>2022-08-13T16:59:34Z</time>
      </trkpt>
      <trkpt lat="4.3788880" lon="-75.7199470">
        <ele>1365.2</ele>
        <time>2022-08-13T16:59:39Z</time>
      </trkpt>
      <trkpt lat="4.3788690" lon="-75.7199650">
        <ele>1365.4</ele>
        <time>2022-08-13T16:59:40Z</time>
      </trkpt>
      <trkpt lat="4.3787210" lon="-75.7200640">
        <ele>1366.4</ele>
        <time>2022-08-13T16:59:47Z</time>
      </trkpt>
      <trkpt lat="4.3785660" lon="-75.7201490">
        <ele>1367.6</ele>
        <time>2022-08-13T16:59:54Z</time>
      </trkpt>
      <trkpt lat="4.3784360" lon="-75.7202350">
        <ele>1368.8</ele>
        <time>2022-08-13T17:00:00Z</time>
      </trkpt>
      <trkpt lat="4.3783950" lon="-75.7202730">
        <ele>1369.2</ele>
        <time>2022-08-13T17:00:02Z</time>
      </trkpt>
      <trkpt lat="4.3783170" lon="-75.7203560">
        <ele>1370.0</ele>
        <time>2022-08-13T17:00:06Z</time>
      </trkpt>
      <trkpt lat="4.3782760" lon="-75.7204270">
        <ele>1370.4</ele>
        <time>2022-08-13T17:00:09Z</time>
      </trkpt>
      <trkpt lat="4.3782360" lon="-75.7205480">
        <ele>1371.2</ele>
        <time>2022-08-13T17:00:14Z</time>
      </trkpt>
      <trkpt lat="4.3782210" lon="-75.7206290">
        <ele>1371.8</ele>
        <time>2022-08-13T17:00:17Z</time>
      </trkpt>
      <trkpt lat="4.3782050" lon="-75.7207070">
        <ele>1372.4</ele>
        <time>2022-08-13T17:00:20Z</time>
      </trkpt>
      <trkpt lat="4.3781680" lon="-75.7208350">
        <ele>1373.2</ele>
        <time>2022-08-13T17:00:25Z</time>
      </trkpt>
      <trkpt lat="4.3781620" lon="-75.7208630">
        <ele>1373.6</ele>
        <time>2022-08-13T17:00:26Z</time>
      </trkpt>
      <trkpt lat="4.3781210" lon="-75.7210060">
        <ele>1374.8</ele>
        <time>2022-08-13T17:00:31Z</time>
      </trkpt>
      <trkpt lat="4.3780760" lon="-75.7210790">
        <ele>1375.2</ele>
        <time>2022-08-13T17:00:34Z</time>
      </trkpt>
      <trkpt lat="4.3780220" lon="-75.7211450">
        <ele>1375.8</ele>
        <time>2022-08-13T17:00:37Z</time>
      </trkpt>
      <trkpt lat="4.3779760" lon="-75.7211780">
        <ele>1376.0</ele>
        <time>2022-08-13T17:00:39Z</time>
      </trkpt>
      <trkpt lat="4.3779490" lon="-75.7211840">
        <ele>1376.2</ele>
        <time>2022-08-13T17:00:40Z</time>
      </trkpt>
      <trkpt lat="4.3778090" lon="-75.7212010">
        <ele>1376.8</ele>
        <time>2022-08-13T17:00:45Z</time>
      </trkpt>
      <trkpt lat="4.3775310" lon="-75.7212590">
        <ele>1378.0</ele>
        <time>2022-08-13T17:00:54Z</time>
      </trkpt>
      <trkpt lat="4.3773770" lon="-75.7213140">
        <ele>1378.6</ele>
        <time>2022-08-13T17:00:59Z</time>
      </trkpt>
      <trkpt lat="4.3773280" lon="-75.7213360">
        <ele>1379.2</ele>
        <time>2022-08-13T17:01:01Z</time>
      </trkpt>
      <trkpt lat="4.3772430" lon="-75.7213560">
        <ele>1379.4</ele>
        <time>2022-08-13T17:01:04Z</time>
      </trkpt>
      <trkpt lat="4.3771210" lon="-75.7213830">
        <ele>1380.2</ele>
        <time>2022-08-13T17:01:08Z</time>
      </trkpt>
      <trkpt lat="4.3770360" lon="-75.7214260">
        <ele>1380.6</ele>
        <time>2022-08-13T17:01:11Z</time>
      </trkpt>
      <trkpt lat="4.3769110" lon="-75.7214910">
        <ele>1381.2</ele>
        <time>2022-08-13T17:01:15Z</time>
      </trkpt>
      <trkpt lat="4.3768810" lon="-75.7215020">
        <ele>1381.4</ele>
        <time>2022-08-13T17:01:16Z</time>
      </trkpt>
      <trkpt lat="4.3768520" lon="-75.7215220">
        <ele>1381.6</ele>
        <time>2022-08-13T17:01:17Z</time>
      </trkpt>
      <trkpt lat="4.3766780" lon="-75.7216360">
        <ele>1382.2</ele>
        <time>2022-08-13T17:01:23Z</time>
      </trkpt>
      <trkpt lat="4.3766430" lon="-75.7216520">
        <ele>1382.4</ele>
        <time>2022-08-13T17:01:24Z</time>
      </trkpt>
      <trkpt lat="4.3764450" lon="-75.7217050">
        <ele>1383.4</ele>
        <time>2022-08-13T17:01:30Z</time>
      </trkpt>
      <trkpt lat="4.3762680" lon="-75.7217130">
        <ele>1384.0</ele>
        <time>2022-08-13T17:01:35Z</time>
      </trkpt>
      <trkpt lat="4.3761730" lon="-75.7217040">
        <ele>1384.6</ele>
        <time>2022-08-13T17:01:38Z</time>
      </trkpt>
      <trkpt lat="4.3760370" lon="-75.7217390">
        <ele>1385.4</ele>
        <time>2022-08-13T17:01:42Z</time>
      </trkpt>
      <trkpt lat="4.3759720" lon="-75.7217720">
        <ele>1385.6</ele>
        <time>2022-08-13T17:01:44Z</time>
      </trkpt>
      <trkpt lat="4.3758570" lon="-75.7218450">
        <ele>1386.2</ele>
        <time>2022-08-13T17:01:48Z</time>
      </trkpt>
      <trkpt lat="4.3757160" lon="-75.7219400">
        <ele>1386.8</ele>
        <time>2022-08-13T17:01:53Z</time>
      </trkpt>
      <trkpt lat="4.3756870" lon="-75.7219520">
        <ele>1387.0</ele>
        <time>2022-08-13T17:01:54Z</time>
      </trkpt>
      <trkpt lat="4.3755310" lon="-75.7219890">
        <ele>1388.0</ele>
        <time>2022-08-13T17:01:59Z</time>
      </trkpt>
      <trkpt lat="4.3754770" lon="-75.7219860">
        <ele>1388.2</ele>
        <time>2022-08-13T17:02:01Z</time>
      </trkpt>
      <trkpt lat="4.3753140" lon="-75.7219640">
        <ele>1389.2</ele>
        <time>2022-08-13T17:02:06Z</time>
      </trkpt>
      <trkpt lat="4.3752780" lon="-75.7219600">
        <ele>1389.4</ele>
        <time>2022-08-13T17:02:07Z</time>
      </trkpt>
      <trkpt lat="4.3750260" lon="-75.7219480">
        <ele>1390.2</ele>
        <time>2022-08-13T17:02:14Z</time>
      </trkpt>
      <trkpt lat="4.3749910" lon="-75.7219510">
        <ele>1390.2</ele>
        <time>2022-08-13T17:02:15Z</time>
      </trkpt>
      <trkpt lat="4.3747700" lon="-75.7219880">
        <ele>1391.2</ele>
        <time>2022-08-13T17:02:22Z</time>
      </trkpt>
      <trkpt lat="4.3746030" lon="-75.7220510">
        <ele>1392.2</ele>
        <time>2022-08-13T17:02:27Z</time>
      </trkpt>
      <trkpt lat="4.3745420" lon="-75.7220800">
        <ele>1392.6</ele>
        <time>2022-08-13T17:02:29Z</time>
      </trkpt>
      <trkpt lat="4.3744420" lon="-75.7221100">
        <ele>1393.4</ele>
        <time>2022-08-13T17:02:32Z</time>
      </trkpt>
      <trkpt lat="4.3743750" lon="-75.7221270">
        <ele>1393.8</ele>
        <time>2022-08-13T17:02:34Z</time>
      </trkpt>
      <trkpt lat="4.3742410" lon="-75.7221540">
        <ele>1394.4</ele>
        <time>2022-08-13T17:02:38Z</time>
      </trkpt>
      <trkpt lat="4.3741270" lon="-75.7221700">
        <ele>1394.6</ele>
        <time>2022-08-13T17:02:41Z</time>
      </trkpt>
      <trkpt lat="4.3739940" lon="-75.7222270">
        <ele>1395.0</ele>
        <time>2022-08-13T17:02:45Z</time>
      </trkpt>
      <trkpt lat="4.3738930" lon="-75.7222670">
        <ele>1395.4</ele>
        <time>2022-08-13T17:02:48Z</time>
      </trkpt>
      <trkpt lat="4.3737280" lon="-75.7223010">
        <ele>1396.2</ele>
        <time>2022-08-13T17:02:53Z</time>
      </trkpt>
      <trkpt lat="4.3736610" lon="-75.7223060">
        <ele>1396.6</ele>
        <time>2022-08-13T17:02:55Z</time>
      </trkpt>
      <trkpt lat="4.3733870" lon="-75.7223410">
        <ele>1397.6</ele>
        <time>2022-08-13T17:03:02Z</time>
      </trkpt>
      <trkpt lat="4.3733480" lon="-75.7223400">
        <ele>1398.0</ele>
        <time>2022-08-13T17:03:03Z</time>
      </trkpt>
      <trkpt lat="4.3732570" lon="-75.7223060">
        <ele>1398.2</ele>
        <time>2022-08-13T17:03:06Z</time>
      </trkpt>
      <trkpt lat="4.3731850" lon="-75.7221960">
        <ele>1398.8</ele>
        <time>2022-08-13T17:03:10Z</time>
      </trkpt>
      <trkpt lat="4.3731850" lon="-75.7221270">
        <ele>1399.0</ele>
        <time>2022-08-13T17:03:12Z</time>
      </trkpt>
      <trkpt lat="4.3732180" lon="-75.7220350">
        <ele>1399.2</ele>
        <time>2022-08-13T17:03:15Z</time>
      </trkpt>
      <trkpt lat="4.3733010" lon="-75.7219470">
        <ele>1399.4</ele>
        <time>2022-08-13T17:03:19Z</time>
      </trkpt>
      <trkpt lat="4.3734220" lon="-75.7218540">
        <ele>1399.8</ele>
        <time>2022-08-13T17:03:24Z</time>
      </trkpt>
      <trkpt lat="4.3734700" lon="-75.7218210">
        <ele>1400.2</ele>
        <time>2022-08-13T17:03:26Z</time>
      </trkpt>
      <trkpt lat="4.3735600" lon="-75.7217500">
        <ele>1401.0</ele>
        <time>2022-08-13T17:03:30Z</time>
      </trkpt>
      <trkpt lat="4.3735980" lon="-75.7217080">
        <ele>1401.2</ele>
        <time>2022-08-13T17:03:32Z</time>
      </trkpt>
      <trkpt lat="4.3736370" lon="-75.7216620">
        <ele>1401.6</ele>
        <time>2022-08-13T17:03:34Z</time>
      </trkpt>
      <trkpt lat="4.3736610" lon="-75.7216480">
        <ele>1401.8</ele>
        <time>2022-08-13T17:03:35Z</time>
      </trkpt>
      <trkpt lat="4.3737360" lon="-75.7215970">
        <ele>1402.4</ele>
        <time>2022-08-13T17:03:38Z</time>
      </trkpt>
      <trkpt lat="4.3737760" lon="-75.7215270">
        <ele>1403.2</ele>
        <time>2022-08-13T17:03:41Z</time>
      </trkpt>
      <trkpt lat="4.3737940" lon="-75.7215040">
        <ele>1403.4</ele>
        <time>2022-08-13T17:03:42Z</time>
      </trkpt>
      <trkpt lat="4.3738790" lon="-75.7213760">
        <ele>1404.4</ele>
        <time>2022-08-13T17:03:47Z</time>
      </trkpt>
      <trkpt lat="4.3738870" lon="-75.7213530">
        <ele>1404.6</ele>
        <time>2022-08-13T17:03:48Z</time>
      </trkpt>
      <trkpt lat="4.3739100" lon="-75.7211790">
        <ele>1405.8</ele>
        <time>2022-08-13T17:03:55Z</time>
      </trkpt>
      <trkpt lat="4.3739050" lon="-75.7211570">
        <ele>1406.0</ele>
        <time>2022-08-13T17:03:56Z</time>
      </trkpt>
      <trkpt lat="4.3738590" lon="-75.7210680">
        <ele>1407.2</ele>
        <time>2022-08-13T17:04:01Z</time>
      </trkpt>
      <trkpt lat="4.3738410" lon="-75.7210550">
        <ele>1407.4</ele>
        <time>2022-08-13T17:04:02Z</time>
      </trkpt>
      <trkpt lat="4.3737560" lon="-75.7209990">
        <ele>1408.4</ele>
        <time>2022-08-13T17:04:07Z</time>
      </trkpt>
      <trkpt lat="4.3737370" lon="-75.7209860">
        <ele>1408.6</ele>
        <time>2022-08-13T17:04:08Z</time>
      </trkpt>
      <trkpt lat="4.3737050" lon="-75.7209650">
        <ele>1409.4</ele>
        <time>2022-08-13T17:04:10Z</time>
      </trkpt>
      <trkpt lat="4.3736110" lon="-75.7208990">
        <ele>1410.6</ele>
        <time>2022-08-13T17:04:16Z</time>
      </trkpt>
      <trkpt lat="4.3735540" lon="-75.7208420">
        <ele>1411.6</ele>
        <time>2022-08-13T17:04:20Z</time>
      </trkpt>
      <trkpt lat="4.3734800" lon="-75.7207490">
        <ele>1412.6</ele>
        <time>2022-08-13T17:04:25Z</time>
      </trkpt>
      <trkpt lat="4.3734620" lon="-75.7207260">
        <ele>1412.8</ele>
        <time>2022-08-13T17:04:26Z</time>
      </trkpt>
      <trkpt lat="4.3734130" lon="-75.7206300">
        <ele>1414.0</ele>
        <time>2022-08-13T17:04:30Z</time>
      </trkpt>
      <trkpt lat="4.3734050" lon="-75.7205820">
        <ele>1414.4</ele>
        <time>2022-08-13T17:04:32Z</time>
      </trkpt>
      <trkpt lat="4.3734200" lon="-75.7204790">
        <ele>1415.0</ele>
        <time>2022-08-13T17:04:36Z</time>
      </trkpt>
      <trkpt lat="4.3734400" lon="-75.7204360">
        <ele>1415.4</ele>
        <time>2022-08-13T17:04:38Z</time>
      </trkpt>
      <trkpt lat="4.3735060" lon="-75.7203670">
        <ele>1416.2</ele>
        <time>2022-08-13T17:04:42Z</time>
      </trkpt>
      <trkpt lat="4.3735670" lon="-75.7203260">
        <ele>1416.6</ele>
        <time>2022-08-13T17:04:45Z</time>
      </trkpt>
      <trkpt lat="4.3736550" lon="-75.7202850">
        <ele>1417.4</ele>
        <time>2022-08-13T17:04:49Z</time>
      </trkpt>
      <trkpt lat="4.3736730" lon="-75.7202790">
        <ele>1417.6</ele>
        <time>2022-08-13T17:04:50Z</time>
      </trkpt>
      <trkpt lat="4.3737760" lon="-75.7202530">
        <ele>1418.4</ele>
        <time>2022-08-13T17:04:54Z</time>
      </trkpt>
      <trkpt lat="4.3738990" lon="-75.7202270">
        <ele>1419.0</ele>
        <time>2022-08-13T17:04:59Z</time>
      </trkpt>
      <trkpt lat="4.3739430" lon="-75.7202170">
        <ele>1419.4</ele>
        <time>2022-08-13T17:05:01Z</time>
      </trkpt>
      <trkpt lat="4.3741360" lon="-75.7201470">
        <ele>1420.6</ele>
        <time>2022-08-13T17:05:09Z</time>
      </trkpt>
      <trkpt lat="4.3742560" lon="-75.7200460">
        <ele>1421.6</ele>
        <time>2022-08-13T17:05:15Z</time>
      </trkpt>
      <trkpt lat="4.3742680" lon="-75.7200240">
        <ele>1421.8</ele>
        <time>2022-08-13T17:05:16Z</time>
      </trkpt>
      <trkpt lat="4.3743340" lon="-75.7199090">
        <ele>1423.0</ele>
        <time>2022-08-13T17:05:21Z</time>
      </trkpt>
      <trkpt lat="4.3744210" lon="-75.7198050">
        <ele>1423.8</ele>
        <time>2022-08-13T17:05:26Z</time>
      </trkpt>
      <trkpt lat="4.3744690" lon="-75.7197720">
        <ele>1424.0</ele>
        <time>2022-08-13T17:05:28Z</time>
      </trkpt>
      <trkpt lat="4.3745900" lon="-75.7197010">
        <ele>1424.8</ele>
        <time>2022-08-13T17:05:33Z</time>
      </trkpt>
      <trkpt lat="4.3746340" lon="-75.7196770">
        <ele>1425.2</ele>
        <time>2022-08-13T17:05:35Z</time>
      </trkpt>
      <trkpt lat="4.3747640" lon="-75.7195940">
        <ele>1426.0</ele>
        <time>2022-08-13T17:05:41Z</time>
      </trkpt>
      <trkpt lat="4.3748060" lon="-75.7195660">
        <ele>1426.4</ele>
        <time>2022-08-13T17:05:43Z</time>
      </trkpt>
      <trkpt lat="4.3749040" lon="-75.7195020">
        <ele>1427.2</ele>
        <time>2022-08-13T17:05:48Z</time>
      </trkpt>
      <trkpt lat="4.3749240" lon="-75.7194830">
        <ele>1427.4</ele>
        <time>2022-08-13T17:05:49Z</time>
      </trkpt>
      <trkpt lat="4.3749990" lon="-75.7194020">
        <ele>1428.2</ele>
        <time>2022-08-13T17:05:54Z</time>
      </trkpt>
      <trkpt lat="4.3750120" lon="-75.7193870">
        <ele>1428.4</ele>
        <time>2022-08-13T17:05:55Z</time>
      </trkpt>
      <trkpt lat="4.3750510" lon="-75.7193310">
        <ele>1429.2</ele>
        <time>2022-08-13T17:05:58Z</time>
      </trkpt>
      <trkpt lat="4.3750600" lon="-75.7193100">
        <ele>1429.4</ele>
        <time>2022-08-13T17:05:59Z</time>
      </trkpt>
      <trkpt lat="4.3750690" lon="-75.7192910">
        <ele>1429.6</ele>
        <time>2022-08-13T17:06:00Z</time>
      </trkpt>
      <trkpt lat="4.3751150" lon="-75.7191390">
        <ele>1430.8</ele>
        <time>2022-08-13T17:06:06Z</time>
      </trkpt>
      <trkpt lat="4.3751220" lon="-75.7190880">
        <ele>1431.4</ele>
        <time>2022-08-13T17:06:08Z</time>
      </trkpt>
      <trkpt lat="4.3751340" lon="-75.7190130">
        <ele>1432.0</ele>
        <time>2022-08-13T17:06:11Z</time>
      </trkpt>
      <trkpt lat="4.3751470" lon="-75.7188860">
        <ele>1433.0</ele>
        <time>2022-08-13T17:06:16Z</time>
      </trkpt>
      <trkpt lat="4.3751460" lon="-75.7188580">
        <ele>1433.0</ele>
        <time>2022-08-13T17:06:17Z</time>
      </trkpt>
      <trkpt lat="4.3751640" lon="-75.7187350">
        <ele>1434.2</ele>
        <time>2022-08-13T17:06:22Z</time>
      </trkpt>
      <trkpt lat="4.3751790" lon="-75.7186820">
        <ele>1434.4</ele>
        <time>2022-08-13T17:06:24Z</time>
      </trkpt>
      <trkpt lat="4.3752150" lon="-75.7185900">
        <ele>1435.2</ele>
        <time>2022-08-13T17:06:28Z</time>
      </trkpt>
      <trkpt lat="4.3752540" lon="-75.7184750">
        <ele>1436.2</ele>
        <time>2022-08-13T17:06:33Z</time>
      </trkpt>
      <trkpt lat="4.3752670" lon="-75.7184490">
        <ele>1436.2</ele>
        <time>2022-08-13T17:06:34Z</time>
      </trkpt>
      <trkpt lat="4.3753370" lon="-75.7182960">
        <ele>1437.4</ele>
        <time>2022-08-13T17:06:41Z</time>
      </trkpt>
      <trkpt lat="4.3753470" lon="-75.7182750">
        <ele>1437.4</ele>
        <time>2022-08-13T17:06:42Z</time>
      </trkpt>
      <trkpt lat="4.3754040" lon="-75.7181670">
        <ele>1438.4</ele>
        <time>2022-08-13T17:06:47Z</time>
      </trkpt>
      <trkpt lat="4.3754350" lon="-75.7180980">
        <ele>1439.0</ele>
        <time>2022-08-13T17:06:50Z</time>
      </trkpt>
      <trkpt lat="4.3754440" lon="-75.7180740">
        <ele>1439.2</ele>
        <time>2022-08-13T17:06:51Z</time>
      </trkpt>
      <trkpt lat="4.3754570" lon="-75.7180220">
        <ele>1439.4</ele>
        <time>2022-08-13T17:06:53Z</time>
      </trkpt>
      <trkpt lat="4.3754880" lon="-75.7179250">
        <ele>1440.2</ele>
        <time>2022-08-13T17:06:57Z</time>
      </trkpt>
      <trkpt lat="4.3754940" lon="-75.7178810">
        <ele>1440.6</ele>
        <time>2022-08-13T17:06:59Z</time>
      </trkpt>
      <trkpt lat="4.3754800" lon="-75.7177630">
        <ele>1441.4</ele>
        <time>2022-08-13T17:07:04Z</time>
      </trkpt>
      <trkpt lat="4.3754690" lon="-75.7177400">
        <ele>1441.6</ele>
        <time>2022-08-13T17:07:05Z</time>
      </trkpt>
      <trkpt lat="4.3753790" lon="-75.7176270">
        <ele>1442.6</ele>
        <time>2022-08-13T17:07:11Z</time>
      </trkpt>
      <trkpt lat="4.3753610" lon="-75.7176120">
        <ele>1442.8</ele>
        <time>2022-08-13T17:07:12Z</time>
      </trkpt>
      <trkpt lat="4.3752350" lon="-75.7175620">
        <ele>1443.6</ele>
        <time>2022-08-13T17:07:18Z</time>
      </trkpt>
      <trkpt lat="4.3751330" lon="-75.7175750">
        <ele>1444.8</ele>
        <time>2022-08-13T17:07:23Z</time>
      </trkpt>
      <trkpt lat="4.3750900" lon="-75.7175800">
        <ele>1445.2</ele>
        <time>2022-08-13T17:07:25Z</time>
      </trkpt>
      <trkpt lat="4.3750220" lon="-75.7175890">
        <ele>1446.0</ele>
        <time>2022-08-13T17:07:28Z</time>
      </trkpt>
      <trkpt lat="4.3749340" lon="-75.7176090">
        <ele>1446.6</ele>
        <time>2022-08-13T17:07:32Z</time>
      </trkpt>
      <trkpt lat="4.3748680" lon="-75.7176330">
        <ele>1447.0</ele>
        <time>2022-08-13T17:07:35Z</time>
      </trkpt>
      <trkpt lat="4.3748460" lon="-75.7176360">
        <ele>1447.2</ele>
        <time>2022-08-13T17:07:36Z</time>
      </trkpt>
      <trkpt lat="4.3747470" lon="-75.7176660">
        <ele>1448.0</ele>
        <time>2022-08-13T17:07:41Z</time>
      </trkpt>
      <trkpt lat="4.3747060" lon="-75.7176790">
        <ele>1448.4</ele>
        <time>2022-08-13T17:07:43Z</time>
      </trkpt>
      <trkpt lat="4.3746210" lon="-75.7177060">
        <ele>1449.2</ele>
        <time>2022-08-13T17:07:47Z</time>
      </trkpt>
      <trkpt lat="4.3745770" lon="-75.7177150">
        <ele>1449.6</ele>
        <time>2022-08-13T17:07:49Z</time>
      </trkpt>
      <trkpt lat="4.3745350" lon="-75.7177170">
        <ele>1450.2</ele>
        <time>2022-08-13T17:07:51Z</time>
      </trkpt>
      <trkpt lat="4.3744430" lon="-75.7176980">
        <ele>1451.0</ele>
        <time>2022-08-13T17:07:55Z</time>
      </trkpt>
      <trkpt lat="4.3743760" lon="-75.7176670">
        <ele>1451.4</ele>
        <time>2022-08-13T17:07:58Z</time>
      </trkpt>
      <trkpt lat="4.3743300" lon="-75.7176410">
        <ele>1451.8</ele>
        <time>2022-08-13T17:08:00Z</time>
      </trkpt>
      <trkpt lat="4.3742900" lon="-75.7176140">
        <ele>1452.0</ele>
        <time>2022-08-13T17:08:02Z</time>
      </trkpt>
      <trkpt lat="4.3742330" lon="-75.7175710">
        <ele>1452.6</ele>
        <time>2022-08-13T17:08:05Z</time>
      </trkpt>
      <trkpt lat="4.3741470" lon="-75.7175220">
        <ele>1453.2</ele>
        <time>2022-08-13T17:08:09Z</time>
      </trkpt>
      <trkpt lat="4.3741020" lon="-75.7175060">
        <ele>1453.6</ele>
        <time>2022-08-13T17:08:11Z</time>
      </trkpt>
      <trkpt lat="4.3739950" lon="-75.7174910">
        <ele>1454.8</ele>
        <time>2022-08-13T17:08:16Z</time>
      </trkpt>
      <trkpt lat="4.3739750" lon="-75.7174880">
        <ele>1454.8</ele>
        <time>2022-08-13T17:08:17Z</time>
      </trkpt>
      <trkpt lat="4.3738550" lon="-75.7174870">
        <ele>1455.8</ele>
        <time>2022-08-13T17:08:23Z</time>
      </trkpt>
      <trkpt lat="4.3738140" lon="-75.7174950">
        <ele>1456.4</ele>
        <time>2022-08-13T17:08:25Z</time>
      </trkpt>
      <trkpt lat="4.3737510" lon="-75.7174980">
        <ele>1457.0</ele>
        <time>2022-08-13T17:08:28Z</time>
      </trkpt>
      <trkpt lat="4.3736770" lon="-75.7175130">
        <ele>1457.6</ele>
        <time>2022-08-13T17:08:31Z</time>
      </trkpt>
      <trkpt lat="4.3736070" lon="-75.7175310">
        <ele>1458.2</ele>
        <time>2022-08-13T17:08:34Z</time>
      </trkpt>
      <trkpt lat="4.3735050" lon="-75.7175870">
        <ele>1459.0</ele>
        <time>2022-08-13T17:08:39Z</time>
      </trkpt>
      <trkpt lat="4.3734670" lon="-75.7176100">
        <ele>1459.4</ele>
        <time>2022-08-13T17:08:41Z</time>
      </trkpt>
      <trkpt lat="4.3733770" lon="-75.7177220">
        <ele>1460.2</ele>
        <time>2022-08-13T17:08:47Z</time>
      </trkpt>
      <trkpt lat="4.3733820" lon="-75.7177490">
        <ele>1460.6</ele>
        <time>2022-08-13T17:08:48Z</time>
      </trkpt>
      <trkpt lat="4.3733110" lon="-75.7178620">
        <ele>1461.6</ele>
        <time>2022-08-13T17:08:54Z</time>
      </trkpt>
      <trkpt lat="4.3732990" lon="-75.7178850">
        <ele>1461.6</ele>
        <time>2022-08-13T17:08:55Z</time>
      </trkpt>
      <trkpt lat="4.3732350" lon="-75.7179960">
        <ele>1462.8</ele>
        <time>2022-08-13T17:09:01Z</time>
      </trkpt>
      <trkpt lat="4.3732050" lon="-75.7180360">
        <ele>1463.2</ele>
        <time>2022-08-13T17:09:03Z</time>
      </trkpt>
      <trkpt lat="4.3731700" lon="-75.7180860">
        <ele>1463.8</ele>
        <time>2022-08-13T17:09:06Z</time>
      </trkpt>
      <trkpt lat="4.3731280" lon="-75.7181340">
        <ele>1464.4</ele>
        <time>2022-08-13T17:09:09Z</time>
      </trkpt>
      <trkpt lat="4.3731180" lon="-75.7181580">
        <ele>1464.6</ele>
        <time>2022-08-13T17:09:10Z</time>
      </trkpt>
      <trkpt lat="4.3730670" lon="-75.7182060">
        <ele>1465.0</ele>
        <time>2022-08-13T17:09:13Z</time>
      </trkpt>
      <trkpt lat="4.3730110" lon="-75.7182350">
        <ele>1465.6</ele>
        <time>2022-08-13T17:09:16Z</time>
      </trkpt>
      <trkpt lat="4.3729460" lon="-75.7182680">
        <ele>1466.0</ele>
        <time>2022-08-13T17:09:19Z</time>
      </trkpt>
      <trkpt lat="4.3728630" lon="-75.7183080">
        <ele>1466.6</ele>
        <time>2022-08-13T17:09:23Z</time>
      </trkpt>
      <trkpt lat="4.3727860" lon="-75.7183510">
        <ele>1467.2</ele>
        <time>2022-08-13T17:09:27Z</time>
      </trkpt>
      <trkpt lat="4.3726890" lon="-75.7184040">
        <ele>1468.0</ele>
        <time>2022-08-13T17:09:32Z</time>
      </trkpt>
      <trkpt lat="4.3726480" lon="-75.7184260">
        <ele>1468.4</ele>
        <time>2022-08-13T17:09:34Z</time>
      </trkpt>
      <trkpt lat="4.3725040" lon="-75.7184960">
        <ele>1469.4</ele>
        <time>2022-08-13T17:09:41Z</time>
      </trkpt>
      <trkpt lat="4.3723270" lon="-75.7185540">
        <ele>1470.6</ele>
        <time>2022-08-13T17:09:49Z</time>
      </trkpt>
      <trkpt lat="4.3721680" lon="-75.7185620">
        <ele>1471.8</ele>
        <time>2022-08-13T17:09:56Z</time>
      </trkpt>
      <trkpt lat="4.3721460" lon="-75.7185710">
        <ele>1472.0</ele>
        <time>2022-08-13T17:09:57Z</time>
      </trkpt>
      <trkpt lat="4.3720070" lon="-75.7185910">
        <ele>1472.8</ele>
        <time>2022-08-13T17:10:03Z</time>
      </trkpt>
      <trkpt lat="4.3719810" lon="-75.7186010">
        <ele>1473.0</ele>
        <time>2022-08-13T17:10:04Z</time>
      </trkpt>
      <trkpt lat="4.3719040" lon="-75.7186390">
        <ele>1473.4</ele>
        <time>2022-08-13T17:10:08Z</time>
      </trkpt>
      <trkpt lat="4.3718670" lon="-75.7186630">
        <ele>1473.8</ele>
        <time>2022-08-13T17:10:10Z</time>
      </trkpt>
      <trkpt lat="4.3717880" lon="-75.7187400">
        <ele>1475.0</ele>
        <time>2022-08-13T17:10:15Z</time>
      </trkpt>
      <trkpt lat="4.3717710" lon="-75.7187580">
        <ele>1475.2</ele>
        <time>2022-08-13T17:10:16Z</time>
      </trkpt>
      <trkpt lat="4.3716990" lon="-75.7188220">
        <ele>1476.0</ele>
        <time>2022-08-13T17:10:20Z</time>
      </trkpt>
      <trkpt lat="4.3716390" lon="-75.7188930">
        <ele>1476.8</ele>
        <time>2022-08-13T17:10:24Z</time>
      </trkpt>
      <trkpt lat="4.3716010" lon="-75.7189410">
        <ele>1477.2</ele>
        <time>2022-08-13T17:10:27Z</time>
      </trkpt>
      <trkpt lat="4.3715120" lon="-75.7190350">
        <ele>1478.2</ele>
        <time>2022-08-13T17:10:33Z</time>
      </trkpt>
      <trkpt lat="4.3714170" lon="-75.7191170">
        <ele>1479.4</ele>
        <time>2022-08-13T17:10:39Z</time>
      </trkpt>
      <trkpt lat="4.3713560" lon="-75.7191360">
        <ele>1480.0</ele>
        <time>2022-08-13T17:10:42Z</time>
      </trkpt>
      <trkpt lat="4.3713120" lon="-75.7191430">
        <ele>1480.4</ele>
        <time>2022-08-13T17:10:44Z</time>
      </trkpt>
      <trkpt lat="4.3712150" lon="-75.7191590">
        <ele>1481.4</ele>
        <time>2022-08-13T17:10:48Z</time>
      </trkpt>
      <trkpt lat="4.3711550" lon="-75.7191650">
        <ele>1481.8</ele>
        <time>2022-08-13T17:10:51Z</time>
      </trkpt>
      <trkpt lat="4.3710460" lon="-75.7191560">
        <ele>1482.4</ele>
        <time>2022-08-13T17:10:56Z</time>
      </trkpt>
      <trkpt lat="4.3709970" lon="-75.7191600">
        <ele>1482.8</ele>
        <time>2022-08-13T17:10:58Z</time>
      </trkpt>
      <trkpt lat="4.3709830" lon="-75.7191650">
        <ele>1483.0</ele>
        <time>2022-08-13T17:10:59Z</time>
      </trkpt>
      <trkpt lat="4.3709020" lon="-75.7191800">
        <ele>1483.6</ele>
        <time>2022-08-13T17:11:03Z</time>
      </trkpt>
      <trkpt lat="4.3708820" lon="-75.7191920">
        <ele>1483.8</ele>
        <time>2022-08-13T17:11:04Z</time>
      </trkpt>
      <trkpt lat="4.3707900" lon="-75.7192250">
        <ele>1484.8</ele>
        <time>2022-08-13T17:11:09Z</time>
      </trkpt>
      <trkpt lat="4.3706550" lon="-75.7192700">
        <ele>1485.8</ele>
        <time>2022-08-13T17:11:15Z</time>
      </trkpt>
      <trkpt lat="4.3706390" lon="-75.7192760">
        <ele>1486.0</ele>
        <time>2022-08-13T17:11:16Z</time>
      </trkpt>
      <trkpt lat="4.3705120" lon="-75.7193130">
        <ele>1487.0</ele>
        <time>2022-08-13T17:11:22Z</time>
      </trkpt>
      <trkpt lat="4.3703820" lon="-75.7193440">
        <ele>1488.0</ele>
        <time>2022-08-13T17:11:28Z</time>
      </trkpt>
      <trkpt lat="4.3703610" lon="-75.7193480">
        <ele>1488.2</ele>
        <time>2022-08-13T17:11:29Z</time>
      </trkpt>
      <trkpt lat="4.3703380" lon="-75.7193500">
        <ele>1488.4</ele>
        <time>2022-08-13T17:11:30Z</time>
      </trkpt>
      <trkpt lat="4.3702500" lon="-75.7193580">
        <ele>1489.2</ele>
        <time>2022-08-13T17:11:34Z</time>
      </trkpt>
      <trkpt lat="4.3701010" lon="-75.7193840">
        <ele>1490.2</ele>
        <time>2022-08-13T17:11:41Z</time>
      </trkpt>
      <trkpt lat="4.3700800" lon="-75.7193900">
        <ele>1490.2</ele>
        <time>2022-08-13T17:11:42Z</time>
      </trkpt>
      <trkpt lat="4.3699280" lon="-75.7193910">
        <ele>1491.0</ele>
        <time>2022-08-13T17:11:49Z</time>
      </trkpt>
      <trkpt lat="4.3698810" lon="-75.7193880">
        <ele>1491.4</ele>
        <time>2022-08-13T17:11:51Z</time>
      </trkpt>
      <trkpt lat="4.3697770" lon="-75.7193590">
        <ele>1492.0</ele>
        <time>2022-08-13T17:11:56Z</time>
      </trkpt>
      <trkpt lat="4.3697220" lon="-75.7193240">
        <ele>1492.4</ele>
        <time>2022-08-13T17:11:59Z</time>
      </trkpt>
      <trkpt lat="4.3696290" lon="-75.7192700">
        <ele>1493.2</ele>
        <time>2022-08-13T17:12:04Z</time>
      </trkpt>
      <trkpt lat="4.3695990" lon="-75.7192390">
        <ele>1493.4</ele>
        <time>2022-08-13T17:12:06Z</time>
      </trkpt>
      <trkpt lat="4.3695390" lon="-75.7191720">
        <ele>1493.8</ele>
        <time>2022-08-13T17:12:10Z</time>
      </trkpt>
      <trkpt lat="4.3694780" lon="-75.7190990">
        <ele>1494.6</ele>
        <time>2022-08-13T17:12:14Z</time>
      </trkpt>
      <trkpt lat="4.3694310" lon="-75.7190530">
        <ele>1495.0</ele>
        <time>2022-08-13T17:12:17Z</time>
      </trkpt>
      <trkpt lat="4.3693680" lon="-75.7190170">
        <ele>1495.6</ele>
        <time>2022-08-13T17:12:20Z</time>
      </trkpt>
      <trkpt lat="4.3693050" lon="-75.7190080">
        <ele>1496.0</ele>
        <time>2022-08-13T17:12:23Z</time>
      </trkpt>
      <trkpt lat="4.3692130" lon="-75.7190060">
        <ele>1496.8</ele>
        <time>2022-08-13T17:12:27Z</time>
      </trkpt>
      <trkpt lat="4.3691700" lon="-75.7190100">
        <ele>1497.4</ele>
        <time>2022-08-13T17:12:29Z</time>
      </trkpt>
      <trkpt lat="4.3691190" lon="-75.7190170">
        <ele>1497.8</ele>
        <time>2022-08-13T17:12:31Z</time>
      </trkpt>
      <trkpt lat="4.3689340" lon="-75.7190370">
        <ele>1499.0</ele>
        <time>2022-08-13T17:12:39Z</time>
      </trkpt>
      <trkpt lat="4.3687760" lon="-75.7190910">
        <ele>1500.2</ele>
        <time>2022-08-13T17:12:46Z</time>
      </trkpt>
      <trkpt lat="4.3687260" lon="-75.7191020">
        <ele>1500.6</ele>
        <time>2022-08-13T17:12:48Z</time>
      </trkpt>
      <trkpt lat="4.3686480" lon="-75.7191490">
        <ele>1501.4</ele>
        <time>2022-08-13T17:12:52Z</time>
      </trkpt>
      <trkpt lat="4.3686070" lon="-75.7191780">
        <ele>1501.8</ele>
        <time>2022-08-13T17:12:54Z</time>
      </trkpt>
      <trkpt lat="4.3685310" lon="-75.7192240">
        <ele>1502.4</ele>
        <time>2022-08-13T17:12:58Z</time>
      </trkpt>
      <trkpt lat="4.3684760" lon="-75.7192660">
        <ele>1502.8</ele>
        <time>2022-08-13T17:13:01Z</time>
      </trkpt>
      <trkpt lat="4.3683690" lon="-75.7193230">
        <ele>1503.6</ele>
        <time>2022-08-13T17:13:06Z</time>
      </trkpt>
      <trkpt lat="4.3683240" lon="-75.7193340">
        <ele>1504.0</ele>
        <time>2022-08-13T17:13:08Z</time>
      </trkpt>
      <trkpt lat="4.3682180" lon="-75.7193640">
        <ele>1504.6</ele>
        <time>2022-08-13T17:13:13Z</time>
      </trkpt>
      <trkpt lat="4.3681930" lon="-75.7193660">
        <ele>1504.6</ele>
        <time>2022-08-13T17:13:14Z</time>
      </trkpt>
      <trkpt lat="4.3680840" lon="-75.7193620">
        <ele>1505.4</ele>
        <time>2022-08-13T17:13:19Z</time>
      </trkpt>
      <trkpt lat="4.3680290" lon="-75.7193440">
        <ele>1505.8</ele>
        <time>2022-08-13T17:13:21Z</time>
      </trkpt>
      <trkpt lat="4.3679320" lon="-75.7193500">
        <ele>1506.6</ele>
        <time>2022-08-13T17:13:26Z</time>
      </trkpt>
      <trkpt lat="4.3679140" lon="-75.7193470">
        <ele>1506.8</ele>
        <time>2022-08-13T17:13:27Z</time>
      </trkpt>
      <trkpt lat="4.3678230" lon="-75.7193190">
        <ele>1508.0</ele>
        <time>2022-08-13T17:13:32Z</time>
      </trkpt>
      <trkpt lat="4.3678020" lon="-75.7193170">
        <ele>1508.2</ele>
        <time>2022-08-13T17:13:33Z</time>
      </trkpt>
      <trkpt lat="4.3677180" lon="-75.7192870">
        <ele>1509.0</ele>
        <time>2022-08-13T17:13:38Z</time>
      </trkpt>
      <trkpt lat="4.3676420" lon="-75.7192550">
        <ele>1509.8</ele>
        <time>2022-08-13T17:13:42Z</time>
      </trkpt>
      <trkpt lat="4.3676010" lon="-75.7192430">
        <ele>1510.2</ele>
        <time>2022-08-13T17:13:44Z</time>
      </trkpt>
      <trkpt lat="4.3674560" lon="-75.7192020">
        <ele>1511.4</ele>
        <time>2022-08-13T17:13:50Z</time>
      </trkpt>
      <trkpt lat="4.3674070" lon="-75.7191980">
        <ele>1511.6</ele>
        <time>2022-08-13T17:13:52Z</time>
      </trkpt>
      <trkpt lat="4.3672970" lon="-75.7191950">
        <ele>1512.4</ele>
        <time>2022-08-13T17:13:57Z</time>
      </trkpt>
      <trkpt lat="4.3672570" lon="-75.7191950">
        <ele>1512.8</ele>
        <time>2022-08-13T17:13:59Z</time>
      </trkpt>
      <trkpt lat="4.3671610" lon="-75.7192080">
        <ele>1513.4</ele>
        <time>2022-08-13T17:14:03Z</time>
      </trkpt>
      <trkpt lat="4.3670800" lon="-75.7192450">
        <ele>1514.2</ele>
        <time>2022-08-13T17:14:07Z</time>
      </trkpt>
      <trkpt lat="4.3670350" lon="-75.7192570">
        <ele>1514.6</ele>
        <time>2022-08-13T17:14:09Z</time>
      </trkpt>
      <trkpt lat="4.3669240" lon="-75.7193240">
        <ele>1515.4</ele>
        <time>2022-08-13T17:14:15Z</time>
      </trkpt>
      <trkpt lat="4.3668720" lon="-75.7193590">
        <ele>1515.4</ele>
        <time>2022-08-13T17:14:18Z</time>
      </trkpt>
      <trkpt lat="4.3667960" lon="-75.7193970">
        <ele>1516.2</ele>
        <time>2022-08-13T17:14:22Z</time>
      </trkpt>
      <trkpt lat="4.3667760" lon="-75.7194040">
        <ele>1516.4</ele>
        <time>2022-08-13T17:14:23Z</time>
      </trkpt>
      <trkpt lat="4.3667550" lon="-75.7194100">
        <ele>1516.6</ele>
        <time>2022-08-13T17:14:24Z</time>
      </trkpt>
      <trkpt lat="4.3666440" lon="-75.7194700">
        <ele>1517.6</ele>
        <time>2022-08-13T17:14:30Z</time>
      </trkpt>
      <trkpt lat="4.3665680" lon="-75.7194980">
        <ele>1518.4</ele>
        <time>2022-08-13T17:14:34Z</time>
      </trkpt>
      <trkpt lat="4.3665300" lon="-75.7195040">
        <ele>1518.8</ele>
        <time>2022-08-13T17:14:36Z</time>
      </trkpt>
      <trkpt lat="4.3664400" lon="-75.7194880">
        <ele>1520.0</ele>
        <time>2022-08-13T17:14:41Z</time>
      </trkpt>
      <trkpt lat="4.3663000" lon="-75.7194640">
        <ele>1521.0</ele>
        <time>2022-08-13T17:14:49Z</time>
      </trkpt>
      <trkpt lat="4.3661850" lon="-75.7194120">
        <ele>1522.2</ele>
        <time>2022-08-13T17:14:56Z</time>
      </trkpt>
      <trkpt lat="4.3661320" lon="-75.7193810">
        <ele>1522.4</ele>
        <time>2022-08-13T17:14:59Z</time>
      </trkpt>
      <trkpt lat="4.3660630" lon="-75.7193410">
        <ele>1523.0</ele>
        <time>2022-08-13T17:15:03Z</time>
      </trkpt>
      <trkpt lat="4.3659600" lon="-75.7192860">
        <ele>1523.8</ele>
        <time>2022-08-13T17:15:09Z</time>
      </trkpt>
      <trkpt lat="4.3659280" lon="-75.7192640">
        <ele>1524.2</ele>
        <time>2022-08-13T17:15:11Z</time>
      </trkpt>
      <trkpt lat="4.3658180" lon="-75.7191940">
        <ele>1525.2</ele>
        <time>2022-08-13T17:15:18Z</time>
      </trkpt>
      <trkpt lat="4.3657190" lon="-75.7191440">
        <ele>1526.2</ele>
        <time>2022-08-13T17:15:24Z</time>
      </trkpt>
      <trkpt lat="4.3657030" lon="-75.7191370">
        <ele>1526.4</ele>
        <time>2022-08-13T17:15:25Z</time>
      </trkpt>
      <trkpt lat="4.3656410" lon="-75.7191250">
        <ele>1527.2</ele>
        <time>2022-08-13T17:15:29Z</time>
      </trkpt>
      <trkpt lat="4.3656100" lon="-75.7191200">
        <ele>1527.4</ele>
        <time>2022-08-13T17:15:31Z</time>
      </trkpt>
      <trkpt lat="4.3654900" lon="-75.7190890">
        <ele>1528.4</ele>
        <time>2022-08-13T17:15:38Z</time>
      </trkpt>
      <trkpt lat="4.3654750" lon="-75.7190850">
        <ele>1528.6</ele>
        <time>2022-08-13T17:15:39Z</time>
      </trkpt>
      <trkpt lat="4.3654230" lon="-75.7190720">
        <ele>1529.2</ele>
        <time>2022-08-13T17:15:42Z</time>
      </trkpt>
      <trkpt lat="4.3653830" lon="-75.7190520">
        <ele>1529.4</ele>
        <time>2022-08-13T17:15:44Z</time>
      </trkpt>
      <trkpt lat="4.3653660" lon="-75.7190410">
        <ele>1529.6</ele>
        <time>2022-08-13T17:15:45Z</time>
      </trkpt>
      <trkpt lat="4.3653010" lon="-75.7189660">
        <ele>1530.2</ele>
        <time>2022-08-13T17:15:50Z</time>
      </trkpt>
      <trkpt lat="4.3652740" lon="-75.7188660">
        <ele>1530.6</ele>
        <time>2022-08-13T17:15:54Z</time>
      </trkpt>
      <trkpt lat="4.3652720" lon="-75.7188430">
        <ele>1530.6</ele>
        <time>2022-08-13T17:15:55Z</time>
      </trkpt>
      <trkpt lat="4.3653000" lon="-75.7187050">
        <ele>1531.2</ele>
        <time>2022-08-13T17:16:01Z</time>
      </trkpt>
      <trkpt lat="4.3653680" lon="-75.7186600">
        <ele>1531.4</ele>
        <time>2022-08-13T17:16:05Z</time>
      </trkpt>
      <trkpt lat="4.3654100" lon="-75.7186450">
        <ele>1531.8</ele>
        <time>2022-08-13T17:16:07Z</time>
      </trkpt>
      <trkpt lat="4.3654660" lon="-75.7186260">
        <ele>1532.6</ele>
        <time>2022-08-13T17:16:10Z</time>
      </trkpt>
      <trkpt lat="4.3655700" lon="-75.7185860">
        <ele>1533.4</ele>
        <time>2022-08-13T17:16:15Z</time>
      </trkpt>
      <trkpt lat="4.3656060" lon="-75.7185590">
        <ele>1533.6</ele>
        <time>2022-08-13T17:16:17Z</time>
      </trkpt>
      <trkpt lat="4.3657070" lon="-75.7184510">
        <ele>1534.8</ele>
        <time>2022-08-13T17:16:24Z</time>
      </trkpt>
      <trkpt lat="4.3657200" lon="-75.7184320">
        <ele>1534.8</ele>
        <time>2022-08-13T17:16:25Z</time>
      </trkpt>
      <trkpt lat="4.3657680" lon="-75.7183600">
        <ele>1535.6</ele>
        <time>2022-08-13T17:16:29Z</time>
      </trkpt>
      <trkpt lat="4.3657930" lon="-75.7183030">
        <ele>1536.4</ele>
        <time>2022-08-13T17:16:32Z</time>
      </trkpt>
      <trkpt lat="4.3658010" lon="-75.7182840">
        <ele>1536.8</ele>
        <time>2022-08-13T17:16:33Z</time>
      </trkpt>
      <trkpt lat="4.3658650" lon="-75.7181990">
        <ele>1537.8</ele>
        <time>2022-08-13T17:16:38Z</time>
      </trkpt>
      <trkpt lat="4.3658830" lon="-75.7181850">
        <ele>1538.2</ele>
        <time>2022-08-13T17:16:39Z</time>
      </trkpt>
      <trkpt lat="4.3659680" lon="-75.7181220">
        <ele>1539.0</ele>
        <time>2022-08-13T17:16:44Z</time>
      </trkpt>
      <trkpt lat="4.3660670" lon="-75.7180360">
        <ele>1539.8</ele>
        <time>2022-08-13T17:16:50Z</time>
      </trkpt>
      <trkpt lat="4.3660980" lon="-75.7179980">
        <ele>1540.0</ele>
        <time>2022-08-13T17:16:52Z</time>
      </trkpt>
      <trkpt lat="4.3661400" lon="-75.7179240">
        <ele>1540.8</ele>
        <time>2022-08-13T17:16:56Z</time>
      </trkpt>
      <trkpt lat="4.3661440" lon="-75.7178610">
        <ele>1541.2</ele>
        <time>2022-08-13T17:16:59Z</time>
      </trkpt>
      <trkpt lat="4.3661350" lon="-75.7178000">
        <ele>1541.6</ele>
        <time>2022-08-13T17:17:02Z</time>
      </trkpt>
      <trkpt lat="4.3661070" lon="-75.7177220">
        <ele>1542.2</ele>
        <time>2022-08-13T17:17:06Z</time>
      </trkpt>
      <trkpt lat="4.3660600" lon="-75.7176280">
        <ele>1543.0</ele>
        <time>2022-08-13T17:17:11Z</time>
      </trkpt>
      <trkpt lat="4.3660500" lon="-75.7176070">
        <ele>1543.4</ele>
        <time>2022-08-13T17:17:12Z</time>
      </trkpt>
      <trkpt lat="4.3660290" lon="-75.7174760">
        <ele>1544.4</ele>
        <time>2022-08-13T17:17:18Z</time>
      </trkpt>
      <trkpt lat="4.3660270" lon="-75.7174510">
        <ele>1544.4</ele>
        <time>2022-08-13T17:17:19Z</time>
      </trkpt>
      <trkpt lat="4.3660610" lon="-75.7173020">
        <ele>1545.4</ele>
        <time>2022-08-13T17:17:26Z</time>
      </trkpt>
      <trkpt lat="4.3661210" lon="-75.7171560">
        <ele>1546.6</ele>
        <time>2022-08-13T17:17:33Z</time>
      </trkpt>
      <trkpt lat="4.3661310" lon="-75.7171350">
        <ele>1546.8</ele>
        <time>2022-08-13T17:17:34Z</time>
      </trkpt>
      <trkpt lat="4.3661310" lon="-75.7170290">
        <ele>1547.8</ele>
        <time>2022-08-13T17:17:39Z</time>
      </trkpt>
      <trkpt lat="4.3661230" lon="-75.7170090">
        <ele>1548.0</ele>
        <time>2022-08-13T17:17:40Z</time>
      </trkpt>
      <trkpt lat="4.3660620" lon="-75.7169190">
        <ele>1548.8</ele>
        <time>2022-08-13T17:17:45Z</time>
      </trkpt>
      <trkpt lat="4.3660070" lon="-75.7168760">
        <ele>1549.4</ele>
        <time>2022-08-13T17:17:48Z</time>
      </trkpt>
      <trkpt lat="4.3659430" lon="-75.7168500">
        <ele>1550.0</ele>
        <time>2022-08-13T17:17:51Z</time>
      </trkpt>
      <trkpt lat="4.3658800" lon="-75.7168460">
        <ele>1550.4</ele>
        <time>2022-08-13T17:17:54Z</time>
      </trkpt>
      <trkpt lat="4.3657710" lon="-75.7168540">
        <ele>1551.0</ele>
        <time>2022-08-13T17:17:59Z</time>
      </trkpt>
      <trkpt lat="4.3656900" lon="-75.7168780">
        <ele>1551.6</ele>
        <time>2022-08-13T17:18:03Z</time>
      </trkpt>
      <trkpt lat="4.3656150" lon="-75.7169150">
        <ele>1552.2</ele>
        <time>2022-08-13T17:18:07Z</time>
      </trkpt>
      <trkpt lat="4.3655270" lon="-75.7169670">
        <ele>1553.0</ele>
        <time>2022-08-13T17:18:12Z</time>
      </trkpt>
      <trkpt lat="4.3655110" lon="-75.7169780">
        <ele>1553.2</ele>
        <time>2022-08-13T17:18:13Z</time>
      </trkpt>
      <trkpt lat="4.3654250" lon="-75.7170380">
        <ele>1554.2</ele>
        <time>2022-08-13T17:18:18Z</time>
      </trkpt>
      <trkpt lat="4.3653390" lon="-75.7171200">
        <ele>1555.4</ele>
        <time>2022-08-13T17:18:24Z</time>
      </trkpt>
      <trkpt lat="4.3652310" lon="-75.7172200">
        <ele>1556.4</ele>
        <time>2022-08-13T17:18:31Z</time>
      </trkpt>
      <trkpt lat="4.3652180" lon="-75.7172320">
        <ele>1556.6</ele>
        <time>2022-08-13T17:18:32Z</time>
      </trkpt>
      <trkpt lat="4.3651040" lon="-75.7172900">
        <ele>1557.6</ele>
        <time>2022-08-13T17:18:38Z</time>
      </trkpt>
      <trkpt lat="4.3650730" lon="-75.7173250">
        <ele>1558.0</ele>
        <time>2022-08-13T17:18:40Z</time>
      </trkpt>
      <trkpt lat="4.3649930" lon="-75.7173480">
        <ele>1558.6</ele>
        <time>2022-08-13T17:18:44Z</time>
      </trkpt>
      <trkpt lat="4.3649210" lon="-75.7173710">
        <ele>1559.0</ele>
        <time>2022-08-13T17:18:47Z</time>
      </trkpt>
      <trkpt lat="4.3648370" lon="-75.7174130">
        <ele>1559.8</ele>
        <time>2022-08-13T17:18:52Z</time>
      </trkpt>
      <trkpt lat="4.3648210" lon="-75.7174150">
        <ele>1559.8</ele>
        <time>2022-08-13T17:18:53Z</time>
      </trkpt>
      <trkpt lat="4.3646950" lon="-75.7174090">
        <ele>1560.8</ele>
        <time>2022-08-13T17:18:59Z</time>
      </trkpt>
      <trkpt lat="4.3646730" lon="-75.7174060">
        <ele>1560.8</ele>
        <time>2022-08-13T17:19:00Z</time>
      </trkpt>
      <trkpt lat="4.3645400" lon="-75.7173240">
        <ele>1562.0</ele>
        <time>2022-08-13T17:19:08Z</time>
      </trkpt>
      <trkpt lat="4.3644630" lon="-75.7172500">
        <ele>1562.8</ele>
        <time>2022-08-13T17:19:15Z</time>
      </trkpt>
      <trkpt lat="4.3644490" lon="-75.7172470">
        <ele>1563.4</ele>
        <time>2022-08-13T17:19:16Z</time>
      </trkpt>
      <trkpt lat="4.3644040" lon="-75.7172690">
        <ele>1564.2</ele>
        <time>2022-08-13T17:19:21Z</time>
      </trkpt>
      <trkpt lat="4.3643990" lon="-75.7172820">
        <ele>1564.4</ele>
        <time>2022-08-13T17:19:22Z</time>
      </trkpt>
      <trkpt lat="4.3643910" lon="-75.7172930">
        <ele>1564.6</ele>
        <time>2022-08-13T17:19:23Z</time>
      </trkpt>
      <trkpt lat="4.3643550" lon="-75.7173210">
        <ele>1565.4</ele>
        <time>2022-08-13T17:19:27Z</time>
      </trkpt>
      <trkpt lat="4.3643430" lon="-75.7173250">
        <ele>1566.0</ele>
        <time>2022-08-13T17:19:28Z</time>
      </trkpt>
      <trkpt lat="4.3643280" lon="-75.7173400">
        <ele>1566.4</ele>
        <time>2022-08-13T17:19:30Z</time>
      </trkpt>
      <trkpt lat="4.3643170" lon="-75.7173520">
        <ele>1567.2</ele>
        <time>2022-08-13T17:19:32Z</time>
      </trkpt>
      <trkpt lat="4.3643030" lon="-75.7173740">
        <ele>1567.8</ele>
        <time>2022-08-13T17:19:34Z</time>
      </trkpt>
      <trkpt lat="4.3642820" lon="-75.7174160">
        <ele>1568.8</ele>
        <time>2022-08-13T17:19:38Z</time>
      </trkpt>
      <trkpt lat="4.3642850" lon="-75.7174420">
        <ele>1569.2</ele>
        <time>2022-08-13T17:19:40Z</time>
      </trkpt>
      <trkpt lat="4.3642930" lon="-75.7174640">
        <ele>1569.8</ele>
        <time>2022-08-13T17:19:42Z</time>
      </trkpt>
      <trkpt lat="4.3642990" lon="-75.7175010">
        <ele>1571.2</ele>
        <time>2022-08-13T17:19:46Z</time>
      </trkpt>
      <trkpt lat="4.3643120" lon="-75.7175360">
        <ele>1572.2</ele>
        <time>2022-08-13T17:19:49Z</time>
      </trkpt>
      <trkpt lat="4.3643170" lon="-75.7175590">
        <ele>1572.8</ele>
        <time>2022-08-13T17:19:51Z</time>
      </trkpt>
      <trkpt lat="4.3643300" lon="-75.7175920">
        <ele>1573.2</ele>
        <time>2022-08-13T17:19:54Z</time>
      </trkpt>
      <trkpt lat="4.3643390" lon="-75.7176360">
        <ele>1574.4</ele>
        <time>2022-08-13T17:19:58Z</time>
      </trkpt>
      <trkpt lat="4.3643430" lon="-75.7176460">
        <ele>1574.6</ele>
        <time>2022-08-13T17:19:59Z</time>
      </trkpt>
      <trkpt lat="4.3643590" lon="-75.7176800">
        <ele>1575.4</ele>
        <time>2022-08-13T17:20:02Z</time>
      </trkpt>
      <trkpt lat="4.3643680" lon="-75.7177260">
        <ele>1576.6</ele>
        <time>2022-08-13T17:20:06Z</time>
      </trkpt>
      <trkpt lat="4.3643800" lon="-75.7177680">
        <ele>1577.6</ele>
        <time>2022-08-13T17:20:10Z</time>
      </trkpt>
      <trkpt lat="4.3643750" lon="-75.7178190">
        <ele>1578.6</ele>
        <time>2022-08-13T17:20:14Z</time>
      </trkpt>
      <trkpt lat="4.3643690" lon="-75.7178290">
        <ele>1578.8</ele>
        <time>2022-08-13T17:20:15Z</time>
      </trkpt>
      <trkpt lat="4.3643160" lon="-75.7178780">
        <ele>1580.0</ele>
        <time>2022-08-13T17:20:21Z</time>
      </trkpt>
      <trkpt lat="4.3642620" lon="-75.7179000">
        <ele>1581.0</ele>
        <time>2022-08-13T17:20:26Z</time>
      </trkpt>
      <trkpt lat="4.3642220" lon="-75.7179290">
        <ele>1581.6</ele>
        <time>2022-08-13T17:20:30Z</time>
      </trkpt>
      <trkpt lat="4.3641930" lon="-75.7179460">
        <ele>1582.2</ele>
        <time>2022-08-13T17:20:33Z</time>
      </trkpt>
      <trkpt lat="4.3641500" lon="-75.7179640">
        <ele>1583.2</ele>
        <time>2022-08-13T17:20:37Z</time>
      </trkpt>
      <trkpt lat="4.3641400" lon="-75.7179670">
        <ele>1583.4</ele>
        <time>2022-08-13T17:20:38Z</time>
      </trkpt>
      <trkpt lat="4.3640670" lon="-75.7179960">
        <ele>1584.6</ele>
        <time>2022-08-13T17:20:44Z</time>
      </trkpt>
      <trkpt lat="4.3640240" lon="-75.7180170">
        <ele>1585.8</ele>
        <time>2022-08-13T17:20:48Z</time>
      </trkpt>
      <trkpt lat="4.3639810" lon="-75.7180410">
        <ele>1587.0</ele>
        <time>2022-08-13T17:20:52Z</time>
      </trkpt>
      <trkpt lat="4.3639360" lon="-75.7180630">
        <ele>1588.0</ele>
        <time>2022-08-13T17:20:56Z</time>
      </trkpt>
      <trkpt lat="4.3638950" lon="-75.7180920">
        <ele>1589.2</ele>
        <time>2022-08-13T17:21:00Z</time>
      </trkpt>
      <trkpt lat="4.3638570" lon="-75.7181300">
        <ele>1590.2</ele>
        <time>2022-08-13T17:21:04Z</time>
      </trkpt>
      <trkpt lat="4.3638460" lon="-75.7181390">
        <ele>1590.4</ele>
        <time>2022-08-13T17:21:05Z</time>
      </trkpt>
      <trkpt lat="4.3637940" lon="-75.7181750">
        <ele>1591.2</ele>
        <time>2022-08-13T17:21:10Z</time>
      </trkpt>
      <trkpt lat="4.3637860" lon="-75.7181810">
        <ele>1591.4</ele>
        <time>2022-08-13T17:21:11Z</time>
      </trkpt>
      <trkpt lat="4.3637410" lon="-75.7182390">
        <ele>1592.4</ele>
        <time>2022-08-13T17:21:16Z</time>
      </trkpt>
      <trkpt lat="4.3637250" lon="-75.7182660">
        <ele>1592.8</ele>
        <time>2022-08-13T17:21:18Z</time>
      </trkpt>
      <trkpt lat="4.3636790" lon="-75.7183260">
        <ele>1593.4</ele>
        <time>2022-08-13T17:21:23Z</time>
      </trkpt>
      <trkpt lat="4.3636420" lon="-75.7183520">
        <ele>1594.0</ele>
        <time>2022-08-13T17:21:26Z</time>
      </trkpt>
      <trkpt lat="4.3635950" lon="-75.7183920">
        <ele>1594.6</ele>
        <time>2022-08-13T17:21:30Z</time>
      </trkpt>
      <trkpt lat="4.3635450" lon="-75.7184240">
        <ele>1595.0</ele>
        <time>2022-08-13T17:21:34Z</time>
      </trkpt>
      <trkpt lat="4.3634770" lon="-75.7184660">
        <ele>1595.6</ele>
        <time>2022-08-13T17:21:39Z</time>
      </trkpt>
      <trkpt lat="4.3634510" lon="-75.7184840">
        <ele>1595.8</ele>
        <time>2022-08-13T17:21:41Z</time>
      </trkpt>
      <trkpt lat="4.3633770" lon="-75.7185390">
        <ele>1596.6</ele>
        <time>2022-08-13T17:21:47Z</time>
      </trkpt>
      <trkpt lat="4.3633640" lon="-75.7185520">
        <ele>1596.8</ele>
        <time>2022-08-13T17:21:48Z</time>
      </trkpt>
      <trkpt lat="4.3633340" lon="-75.7185890">
        <ele>1597.0</ele>
        <time>2022-08-13T17:21:51Z</time>
      </trkpt>
      <trkpt lat="4.3633110" lon="-75.7186450">
        <ele>1597.6</ele>
        <time>2022-08-13T17:21:55Z</time>
      </trkpt>
      <trkpt lat="4.3633030" lon="-75.7186580">
        <ele>1597.8</ele>
        <time>2022-08-13T17:21:56Z</time>
      </trkpt>
      <trkpt lat="4.3632750" lon="-75.7186990">
        <ele>1598.0</ele>
        <time>2022-08-13T17:21:59Z</time>
      </trkpt>
      <trkpt lat="4.3632530" lon="-75.7187400">
        <ele>1598.2</ele>
        <time>2022-08-13T17:22:02Z</time>
      </trkpt>
      <trkpt lat="4.3632360" lon="-75.7187860">
        <ele>1598.6</ele>
        <time>2022-08-13T17:22:05Z</time>
      </trkpt>
      <trkpt lat="4.3632340" lon="-75.7188010">
        <ele>1598.6</ele>
        <time>2022-08-13T17:22:06Z</time>
      </trkpt>
      <trkpt lat="4.3632300" lon="-75.7188280">
        <ele>1599.0</ele>
        <time>2022-08-13T17:22:08Z</time>
      </trkpt>
      <trkpt lat="4.3632210" lon="-75.7188890">
        <ele>1599.4</ele>
        <time>2022-08-13T17:22:12Z</time>
      </trkpt>
      <trkpt lat="4.3632210" lon="-75.7189040">
        <ele>1599.6</ele>
        <time>2022-08-13T17:22:13Z</time>
      </trkpt>
      <trkpt lat="4.3632130" lon="-75.7189370">
        <ele>1599.8</ele>
        <time>2022-08-13T17:22:15Z</time>
      </trkpt>
      <trkpt lat="4.3632140" lon="-75.7190130">
        <ele>1600.8</ele>
        <time>2022-08-13T17:22:21Z</time>
      </trkpt>
      <trkpt lat="4.3632110" lon="-75.7190270">
        <ele>1601.0</ele>
        <time>2022-08-13T17:22:22Z</time>
      </trkpt>
      <trkpt lat="4.3632110" lon="-75.7191000">
        <ele>1601.8</ele>
        <time>2022-08-13T17:22:27Z</time>
      </trkpt>
      <trkpt lat="4.3632140" lon="-75.7191400">
        <ele>1602.4</ele>
        <time>2022-08-13T17:22:30Z</time>
      </trkpt>
      <trkpt lat="4.3632130" lon="-75.7191700">
        <ele>1603.0</ele>
        <time>2022-08-13T17:22:32Z</time>
      </trkpt>
      <trkpt lat="4.3632090" lon="-75.7191950">
        <ele>1603.4</ele>
        <time>2022-08-13T17:22:34Z</time>
      </trkpt>
      <trkpt lat="4.3632040" lon="-75.7192360">
        <ele>1604.2</ele>
        <time>2022-08-13T17:22:37Z</time>
      </trkpt>
      <trkpt lat="4.3631990" lon="-75.7192690">
        <ele>1604.8</ele>
        <time>2022-08-13T17:22:39Z</time>
      </trkpt>
      <trkpt lat="4.3631920" lon="-75.7192820">
        <ele>1605.0</ele>
        <time>2022-08-13T17:22:40Z</time>
      </trkpt>
      <trkpt lat="4.3631680" lon="-75.7193000">
        <ele>1605.4</ele>
        <time>2022-08-13T17:22:42Z</time>
      </trkpt>
      <trkpt lat="4.3631570" lon="-75.7193100">
        <ele>1605.8</ele>
        <time>2022-08-13T17:22:43Z</time>
      </trkpt>
      <trkpt lat="4.3631000" lon="-75.7193450">
        <ele>1606.6</ele>
        <time>2022-08-13T17:22:47Z</time>
      </trkpt>
      <trkpt lat="4.3630380" lon="-75.7194050">
        <ele>1607.6</ele>
        <time>2022-08-13T17:22:52Z</time>
      </trkpt>
      <trkpt lat="4.3630360" lon="-75.7194180">
        <ele>1607.8</ele>
        <time>2022-08-13T17:22:53Z</time>
      </trkpt>
      <trkpt lat="4.3630350" lon="-75.7194490">
        <ele>1608.0</ele>
        <time>2022-08-13T17:22:55Z</time>
      </trkpt>
      <trkpt lat="4.3630570" lon="-75.7194980">
        <ele>1608.2</ele>
        <time>2022-08-13T17:22:58Z</time>
      </trkpt>
      <trkpt lat="4.3631380" lon="-75.7195700">
        <ele>1608.8</ele>
        <time>2022-08-13T17:23:04Z</time>
      </trkpt>
      <trkpt lat="4.3631990" lon="-75.7196240">
        <ele>1609.2</ele>
        <time>2022-08-13T17:23:08Z</time>
      </trkpt>
      <trkpt lat="4.3632700" lon="-75.7196860">
        <ele>1609.8</ele>
        <time>2022-08-13T17:23:15Z</time>
      </trkpt>
      <trkpt lat="4.3632930" lon="-75.7197240">
        <ele>1610.2</ele>
        <time>2022-08-13T17:23:18Z</time>
      </trkpt>
      <trkpt lat="4.3632930" lon="-75.7198040">
        <ele>1610.8</ele>
        <time>2022-08-13T17:23:24Z</time>
      </trkpt>
      <trkpt lat="4.3632910" lon="-75.7198190">
        <ele>1611.0</ele>
        <time>2022-08-13T17:23:25Z</time>
      </trkpt>
      <trkpt lat="4.3632540" lon="-75.7198840">
        <ele>1612.0</ele>
        <time>2022-08-13T17:23:30Z</time>
      </trkpt>
      <trkpt lat="4.3632210" lon="-75.7199280">
        <ele>1613.0</ele>
        <time>2022-08-13T17:23:34Z</time>
      </trkpt>
      <trkpt lat="4.3631880" lon="-75.7199750">
        <ele>1614.0</ele>
        <time>2022-08-13T17:23:38Z</time>
      </trkpt>
      <trkpt lat="4.3631570" lon="-75.7200250">
        <ele>1615.2</ele>
        <time>2022-08-13T17:23:42Z</time>
      </trkpt>
      <trkpt lat="4.3631500" lon="-75.7200390">
        <ele>1615.2</ele>
        <time>2022-08-13T17:23:43Z</time>
      </trkpt>
      <trkpt lat="4.3631300" lon="-75.7200940">
        <ele>1616.2</ele>
        <time>2022-08-13T17:23:47Z</time>
      </trkpt>
      <trkpt lat="4.3631070" lon="-75.7201560">
        <ele>1617.2</ele>
        <time>2022-08-13T17:23:51Z</time>
      </trkpt>
      <trkpt lat="4.3630940" lon="-75.7202230">
        <ele>1617.8</ele>
        <time>2022-08-13T17:23:54Z</time>
      </trkpt>
      <trkpt lat="4.3630840" lon="-75.7202920">
        <ele>1618.4</ele>
        <time>2022-08-13T17:23:57Z</time>
      </trkpt>
      <trkpt lat="4.3631100" lon="-75.7203750">
        <ele>1618.4</ele>
        <time>2022-08-13T17:24:00Z</time>
      </trkpt>
      <trkpt lat="4.3632580" lon="-75.7204980">
        <ele>1618.6</ele>
        <time>2022-08-13T17:24:06Z</time>
      </trkpt>
      <trkpt lat="4.3634430" lon="-75.7206690">
        <ele>1618.6</ele>
        <time>2022-08-13T17:24:10Z</time>
      </trkpt>
      <trkpt lat="4.3635000" lon="-75.7207350">
        <ele>1618.6</ele>
        <time>2022-08-13T17:24:11Z</time>
      </trkpt>
      <trkpt lat="4.3636120" lon="-75.7208740">
        <ele>1618.6</ele>
        <time>2022-08-13T17:24:13Z</time>
      </trkpt>
      <trkpt lat="4.3636580" lon="-75.7209510">
        <ele>1618.6</ele>
        <time>2022-08-13T17:24:14Z</time>
      </trkpt>
      <trkpt lat="4.3636980" lon="-75.7211260">
        <ele>1617.8</ele>
        <time>2022-08-13T17:24:16Z</time>
      </trkpt>
      <trkpt lat="4.3636860" lon="-75.7212100">
        <ele>1617.0</ele>
        <time>2022-08-13T17:24:17Z</time>
      </trkpt>
      <trkpt lat="4.3636700" lon="-75.7212870">
        <ele>1615.8</ele>
        <time>2022-08-13T17:24:18Z</time>
      </trkpt>
      <trkpt lat="4.3636560" lon="-75.7213580">
        <ele>1614.2</ele>
        <time>2022-08-13T17:24:19Z</time>
      </trkpt>
      <trkpt lat="4.3636420" lon="-75.7214900">
        <ele>1613.2</ele>
        <time>2022-08-13T17:24:21Z</time>
      </trkpt>
      <trkpt lat="4.3636360" lon="-75.7216620">
        <ele>1612.8</ele>
        <time>2022-08-13T17:24:24Z</time>
      </trkpt>
      <trkpt lat="4.3636290" lon="-75.7218070">
        <ele>1612.8</ele>
        <time>2022-08-13T17:24:27Z</time>
      </trkpt>
      <trkpt lat="4.3635890" lon="-75.7218890">
        <ele>1613.0</ele>
        <time>2022-08-13T17:24:29Z</time>
      </trkpt>
      <trkpt lat="4.3635690" lon="-75.7219330">
        <ele>1613.4</ele>
        <time>2022-08-13T17:24:30Z</time>
      </trkpt>
      <trkpt lat="4.3635340" lon="-75.7220230">
        <ele>1614.2</ele>
        <time>2022-08-13T17:24:32Z</time>
      </trkpt>
      <trkpt lat="4.3635170" lon="-75.7220700">
        <ele>1614.6</ele>
        <time>2022-08-13T17:24:33Z</time>
      </trkpt>
      <trkpt lat="4.3635150" lon="-75.7221140">
        <ele>1614.6</ele>
        <time>2022-08-13T17:24:34Z</time>
      </trkpt>
      <trkpt lat="4.3635840" lon="-75.7221870">
        <ele>1615.6</ele>
        <time>2022-08-13T17:24:36Z</time>
      </trkpt>
      <trkpt lat="4.3636830" lon="-75.7221750">
        <ele>1616.0</ele>
        <time>2022-08-13T17:24:38Z</time>
      </trkpt>
      <trkpt lat="4.3637320" lon="-75.7221480">
        <ele>1616.0</ele>
        <time>2022-08-13T17:24:39Z</time>
      </trkpt>
      <trkpt lat="4.3638220" lon="-75.7220770">
        <ele>1616.0</ele>
        <time>2022-08-13T17:24:41Z</time>
      </trkpt>
      <trkpt lat="4.3638600" lon="-75.7220290">
        <ele>1616.0</ele>
        <time>2022-08-13T17:24:42Z</time>
      </trkpt>
      <trkpt lat="4.3638920" lon="-75.7219700">
        <ele>1616.0</ele>
        <time>2022-08-13T17:24:43Z</time>
      </trkpt>
      <trkpt lat="4.3639590" lon="-75.7218020">
        <ele>1616.0</ele>
        <time>2022-08-13T17:24:46Z</time>
      </trkpt>
      <trkpt lat="4.3639840" lon="-75.7217460">
        <ele>1616.0</ele>
        <time>2022-08-13T17:24:47Z</time>
      </trkpt>
      <trkpt lat="4.3640980" lon="-75.7216240">
        <ele>1616.0</ele>
        <time>2022-08-13T17:24:50Z</time>
      </trkpt>
      <trkpt lat="4.3643050" lon="-75.7215070">
        <ele>1616.0</ele>
        <time>2022-08-13T17:24:55Z</time>
      </trkpt>
      <trkpt lat="4.3644640" lon="-75.7214850">
        <ele>1616.0</ele>
        <time>2022-08-13T17:25:00Z</time>
      </trkpt>
      <trkpt lat="4.3645570" lon="-75.7214910">
        <ele>1616.8</ele>
        <time>2022-08-13T17:25:03Z</time>
      </trkpt>
      <trkpt lat="4.3646440" lon="-75.7214940">
        <ele>1618.0</ele>
        <time>2022-08-13T17:25:06Z</time>
      </trkpt>
      <trkpt lat="4.3647440" lon="-75.7215140">
        <ele>1619.0</ele>
        <time>2022-08-13T17:25:10Z</time>
      </trkpt>
      <trkpt lat="4.3648040" lon="-75.7215320">
        <ele>1619.6</ele>
        <time>2022-08-13T17:25:13Z</time>
      </trkpt>
      <trkpt lat="4.3648580" lon="-75.7215720">
        <ele>1620.2</ele>
        <time>2022-08-13T17:25:16Z</time>
      </trkpt>
      <trkpt lat="4.3648710" lon="-75.7215880">
        <ele>1620.4</ele>
        <time>2022-08-13T17:25:17Z</time>
      </trkpt>
      <trkpt lat="4.3648820" lon="-75.7216040">
        <ele>1620.6</ele>
        <time>2022-08-13T17:25:18Z</time>
      </trkpt>
      <trkpt lat="4.3648990" lon="-75.7216480">
        <ele>1621.0</ele>
        <time>2022-08-13T17:25:20Z</time>
      </trkpt>
      <trkpt lat="4.3649100" lon="-75.7217450">
        <ele>1622.0</ele>
        <time>2022-08-13T17:25:24Z</time>
      </trkpt>
      <trkpt lat="4.3649030" lon="-75.7218610">
        <ele>1623.0</ele>
        <time>2022-08-13T17:25:29Z</time>
      </trkpt>
      <trkpt lat="4.3649050" lon="-75.7218840">
        <ele>1623.4</ele>
        <time>2022-08-13T17:25:30Z</time>
      </trkpt>
      <trkpt lat="4.3649590" lon="-75.7220090">
        <ele>1624.2</ele>
        <time>2022-08-13T17:25:35Z</time>
      </trkpt>
      <trkpt lat="4.3649750" lon="-75.7220300">
        <ele>1624.2</ele>
        <time>2022-08-13T17:25:36Z</time>
      </trkpt>
      <trkpt lat="4.3650040" lon="-75.7220440">
        <ele>1624.4</ele>
        <time>2022-08-13T17:25:37Z</time>
      </trkpt>
      <trkpt lat="4.3650330" lon="-75.7220450">
        <ele>1624.4</ele>
        <time>2022-08-13T17:25:38Z</time>
      </trkpt>
      <trkpt lat="4.3652120" lon="-75.7219610">
        <ele>1625.0</ele>
        <time>2022-08-13T17:25:45Z</time>
      </trkpt>
      <trkpt lat="4.3652630" lon="-75.7219380">
        <ele>1625.0</ele>
        <time>2022-08-13T17:25:47Z</time>
      </trkpt>
      <trkpt lat="4.3654060" lon="-75.7218910">
        <ele>1625.6</ele>
        <time>2022-08-13T17:25:52Z</time>
      </trkpt>
      <trkpt lat="4.3654590" lon="-75.7218860">
        <ele>1625.8</ele>
        <time>2022-08-13T17:25:54Z</time>
      </trkpt>
      <trkpt lat="4.3655960" lon="-75.7218770">
        <ele>1626.6</ele>
        <time>2022-08-13T17:25:59Z</time>
      </trkpt>
      <trkpt lat="4.3657390" lon="-75.7218830">
        <ele>1627.6</ele>
        <time>2022-08-13T17:26:04Z</time>
      </trkpt>
      <trkpt lat="4.3657730" lon="-75.7218910">
        <ele>1627.8</ele>
        <time>2022-08-13T17:26:05Z</time>
      </trkpt>
      <trkpt lat="4.3659730" lon="-75.7218890">
        <ele>1628.4</ele>
        <time>2022-08-13T17:26:11Z</time>
      </trkpt>
      <trkpt lat="4.3661170" lon="-75.7217840">
        <ele>1628.6</ele>
        <time>2022-08-13T17:26:17Z</time>
      </trkpt>
      <trkpt lat="4.3662130" lon="-75.7217610">
        <ele>1629.0</ele>
        <time>2022-08-13T17:26:22Z</time>
      </trkpt>
      <trkpt lat="4.3662280" lon="-75.7217590">
        <ele>1629.2</ele>
        <time>2022-08-13T17:26:23Z</time>
      </trkpt>
      <trkpt lat="4.3662710" lon="-75.7217650">
        <ele>1630.0</ele>
        <time>2022-08-13T17:26:26Z</time>
      </trkpt>
      <trkpt lat="4.3663080" lon="-75.7217880">
        <ele>1630.8</ele>
        <time>2022-08-13T17:26:29Z</time>
      </trkpt>
      <trkpt lat="4.3663210" lon="-75.7217990">
        <ele>1631.0</ele>
        <time>2022-08-13T17:26:30Z</time>
      </trkpt>
      <trkpt lat="4.3663600" lon="-75.7218610">
        <ele>1632.0</ele>
        <time>2022-08-13T17:26:35Z</time>
      </trkpt>
      <trkpt lat="4.3663660" lon="-75.7218920">
        <ele>1632.6</ele>
        <time>2022-08-13T17:26:37Z</time>
      </trkpt>
      <trkpt lat="4.3663620" lon="-75.7219210">
        <ele>1633.0</ele>
        <time>2022-08-13T17:26:39Z</time>
      </trkpt>
      <trkpt lat="4.3663340" lon="-75.7220050">
        <ele>1634.0</ele>
        <time>2022-08-13T17:26:45Z</time>
      </trkpt>
      <trkpt lat="4.3662690" lon="-75.7220670">
        <ele>1635.2</ele>
        <time>2022-08-13T17:26:51Z</time>
      </trkpt>
      <trkpt lat="4.3662260" lon="-75.7220920">
        <ele>1635.8</ele>
        <time>2022-08-13T17:26:54Z</time>
      </trkpt>
      <trkpt lat="4.3661980" lon="-75.7221070">
        <ele>1636.2</ele>
        <time>2022-08-13T17:26:56Z</time>
      </trkpt>
      <trkpt lat="4.3661120" lon="-75.7221400">
        <ele>1637.4</ele>
        <time>2022-08-13T17:27:02Z</time>
      </trkpt>
      <trkpt lat="4.3660970" lon="-75.7221490">
        <ele>1637.6</ele>
        <time>2022-08-13T17:27:03Z</time>
      </trkpt>
      <trkpt lat="4.3660020" lon="-75.7221930">
        <ele>1638.6</ele>
        <time>2022-08-13T17:27:10Z</time>
      </trkpt>
      <trkpt lat="4.3659210" lon="-75.7222340">
        <ele>1639.8</ele>
        <time>2022-08-13T17:27:16Z</time>
      </trkpt>
      <trkpt lat="4.3658360" lon="-75.7222830">
        <ele>1640.8</ele>
        <time>2022-08-13T17:27:22Z</time>
      </trkpt>
      <trkpt lat="4.3657700" lon="-75.7223250">
        <ele>1641.8</ele>
        <time>2022-08-13T17:27:27Z</time>
      </trkpt>
      <trkpt lat="4.3657540" lon="-75.7223330">
        <ele>1642.0</ele>
        <time>2022-08-13T17:27:28Z</time>
      </trkpt>
      <trkpt lat="4.3656580" lon="-75.7223890">
        <ele>1643.0</ele>
        <time>2022-08-13T17:27:35Z</time>
      </trkpt>
      <trkpt lat="4.3656440" lon="-75.7223950">
        <ele>1643.2</ele>
        <time>2022-08-13T17:27:36Z</time>
      </trkpt>
      <trkpt lat="4.3655480" lon="-75.7224300">
        <ele>1644.2</ele>
        <time>2022-08-13T17:27:42Z</time>
      </trkpt>
      <trkpt lat="4.3653710" lon="-75.7224400">
        <ele>1645.2</ele>
        <time>2022-08-13T17:27:50Z</time>
      </trkpt>
      <trkpt lat="4.3653190" lon="-75.7224380">
        <ele>1645.2</ele>
        <time>2022-08-13T17:27:52Z</time>
      </trkpt>
      <trkpt lat="4.3650700" lon="-75.7224720">
        <ele>1646.4</ele>
        <time>2022-08-13T17:28:00Z</time>
      </trkpt>
      <trkpt lat="4.3647570" lon="-75.7225990">
        <ele>1647.0</ele>
        <time>2022-08-13T17:28:11Z</time>
      </trkpt>
      <trkpt lat="4.3647290" lon="-75.7226110">
        <ele>1647.2</ele>
        <time>2022-08-13T17:28:12Z</time>
      </trkpt>
      <trkpt lat="4.3645860" lon="-75.7227200">
        <ele>1648.4</ele>
        <time>2022-08-13T17:28:18Z</time>
      </trkpt>
      <trkpt lat="4.3645150" lon="-75.7228550">
        <ele>1649.2</ele>
        <time>2022-08-13T17:28:24Z</time>
      </trkpt>
      <trkpt lat="4.3645070" lon="-75.7228950">
        <ele>1649.4</ele>
        <time>2022-08-13T17:28:26Z</time>
      </trkpt>
      <trkpt lat="4.3644890" lon="-75.7229900">
        <ele>1650.2</ele>
        <time>2022-08-13T17:28:31Z</time>
      </trkpt>
      <trkpt lat="4.3644870" lon="-75.7230090">
        <ele>1650.6</ele>
        <time>2022-08-13T17:28:32Z</time>
      </trkpt>
      <trkpt lat="4.3644730" lon="-75.7230880">
        <ele>1651.6</ele>
        <time>2022-08-13T17:28:36Z</time>
      </trkpt>
      <trkpt lat="4.3644530" lon="-75.7231600">
        <ele>1652.4</ele>
        <time>2022-08-13T17:28:39Z</time>
      </trkpt>
      <trkpt lat="4.3644430" lon="-75.7231820">
        <ele>1652.8</ele>
        <time>2022-08-13T17:28:40Z</time>
      </trkpt>
      <trkpt lat="4.3643820" lon="-75.7233600">
        <ele>1653.8</ele>
        <time>2022-08-13T17:28:47Z</time>
      </trkpt>
      <trkpt lat="4.3643720" lon="-75.7233900">
        <ele>1653.8</ele>
        <time>2022-08-13T17:28:48Z</time>
      </trkpt>
      <trkpt lat="4.3643170" lon="-75.7235500">
        <ele>1654.0</ele>
        <time>2022-08-13T17:28:53Z</time>
      </trkpt>
      <trkpt lat="4.3642490" lon="-75.7237000">
        <ele>1654.0</ele>
        <time>2022-08-13T17:28:57Z</time>
      </trkpt>
      <trkpt lat="4.3641930" lon="-75.7237830">
        <ele>1654.0</ele>
        <time>2022-08-13T17:28:59Z</time>
      </trkpt>
      <trkpt lat="4.3640870" lon="-75.7239210">
        <ele>1654.0</ele>
        <time>2022-08-13T17:29:02Z</time>
      </trkpt>
      <trkpt lat="4.3640240" lon="-75.7240390">
        <ele>1653.4</ele>
        <time>2022-08-13T17:29:04Z</time>
      </trkpt>
      <trkpt lat="4.3639340" lon="-75.7241540">
        <ele>1652.8</ele>
        <time>2022-08-13T17:29:06Z</time>
      </trkpt>
      <trkpt lat="4.3638800" lon="-75.7242050">
        <ele>1652.4</ele>
        <time>2022-08-13T17:29:07Z</time>
      </trkpt>
      <trkpt lat="4.3638230" lon="-75.7242550">
        <ele>1652.2</ele>
        <time>2022-08-13T17:29:08Z</time>
      </trkpt>
      <trkpt lat="4.3636600" lon="-75.7243960">
        <ele>1651.4</ele>
        <time>2022-08-13T17:29:11Z</time>
      </trkpt>
      <trkpt lat="4.3636000" lon="-75.7245200">
        <ele>1650.2</ele>
        <time>2022-08-13T17:29:13Z</time>
      </trkpt>
      <trkpt lat="4.3635580" lon="-75.7247220">
        <ele>1648.4</ele>
        <time>2022-08-13T17:29:15Z</time>
      </trkpt>
      <trkpt lat="4.3635420" lon="-75.7248190">
        <ele>1647.2</ele>
        <time>2022-08-13T17:29:16Z</time>
      </trkpt>
      <trkpt lat="4.3635330" lon="-75.7248990">
        <ele>1646.0</ele>
        <time>2022-08-13T17:29:17Z</time>
      </trkpt>
      <trkpt lat="4.3635270" lon="-75.7249960">
        <ele>1644.6</ele>
        <time>2022-08-13T17:29:18Z</time>
      </trkpt>
      <trkpt lat="4.3635260" lon="-75.7250990">
        <ele>1643.0</ele>
        <time>2022-08-13T17:29:19Z</time>
      </trkpt>
      <trkpt lat="4.3635310" lon="-75.7251730">
        <ele>1641.4</ele>
        <time>2022-08-13T17:29:20Z</time>
      </trkpt>
      <trkpt lat="4.3635290" lon="-75.7252450">
        <ele>1639.6</ele>
        <time>2022-08-13T17:29:21Z</time>
      </trkpt>
      <trkpt lat="4.3635110" lon="-75.7253130">
        <ele>1637.6</ele>
        <time>2022-08-13T17:29:22Z</time>
      </trkpt>
      <trkpt lat="4.3634800" lon="-75.7253820">
        <ele>1635.4</ele>
        <time>2022-08-13T17:29:23Z</time>
      </trkpt>
      <trkpt lat="4.3634380" lon="-75.7254520">
        <ele>1632.8</ele>
        <time>2022-08-13T17:29:24Z</time>
      </trkpt>
      <trkpt lat="4.3633850" lon="-75.7255220">
        <ele>1631.0</ele>
        <time>2022-08-13T17:29:25Z</time>
      </trkpt>
      <trkpt lat="4.3632830" lon="-75.7256590">
        <ele>1629.6</ele>
        <time>2022-08-13T17:29:27Z</time>
      </trkpt>
      <trkpt lat="4.3632320" lon="-75.7257200">
        <ele>1629.2</ele>
        <time>2022-08-13T17:29:28Z</time>
      </trkpt>
      <trkpt lat="4.3631360" lon="-75.7258320">
        <ele>1628.4</ele>
        <time>2022-08-13T17:29:30Z</time>
      </trkpt>
      <trkpt lat="4.3630960" lon="-75.7258970">
        <ele>1627.2</ele>
        <time>2022-08-13T17:29:31Z</time>
      </trkpt>
      <trkpt lat="4.3630640" lon="-75.7259670">
        <ele>1626.0</ele>
        <time>2022-08-13T17:29:32Z</time>
      </trkpt>
      <trkpt lat="4.3630560" lon="-75.7260410">
        <ele>1625.0</ele>
        <time>2022-08-13T17:29:33Z</time>
      </trkpt>
      <trkpt lat="4.3630650" lon="-75.7261190">
        <ele>1625.0</ele>
        <time>2022-08-13T17:29:34Z</time>
      </trkpt>
      <trkpt lat="4.3631090" lon="-75.7262360">
        <ele>1623.2</ele>
        <time>2022-08-13T17:29:36Z</time>
      </trkpt>
      <trkpt lat="4.3631630" lon="-75.7262590">
        <ele>1622.2</ele>
        <time>2022-08-13T17:29:37Z</time>
      </trkpt>
      <trkpt lat="4.3632230" lon="-75.7262570">
        <ele>1621.2</ele>
        <time>2022-08-13T17:29:38Z</time>
      </trkpt>
      <trkpt lat="4.3632810" lon="-75.7262390">
        <ele>1620.2</ele>
        <time>2022-08-13T17:29:39Z</time>
      </trkpt>
      <trkpt lat="4.3633500" lon="-75.7262190">
        <ele>1618.6</ele>
        <time>2022-08-13T17:29:40Z</time>
      </trkpt>
      <trkpt lat="4.3634210" lon="-75.7262140">
        <ele>1617.8</ele>
        <time>2022-08-13T17:29:41Z</time>
      </trkpt>
      <trkpt lat="4.3634960" lon="-75.7262180">
        <ele>1617.2</ele>
        <time>2022-08-13T17:29:42Z</time>
      </trkpt>
      <trkpt lat="4.3635640" lon="-75.7262320">
        <ele>1616.8</ele>
        <time>2022-08-13T17:29:43Z</time>
      </trkpt>
      <trkpt lat="4.3636260" lon="-75.7262470">
        <ele>1616.6</ele>
        <time>2022-08-13T17:29:44Z</time>
      </trkpt>
      <trkpt lat="4.3636950" lon="-75.7262600">
        <ele>1616.6</ele>
        <time>2022-08-13T17:29:45Z</time>
      </trkpt>
      <trkpt lat="4.3638200" lon="-75.7262450">
        <ele>1616.4</ele>
        <time>2022-08-13T17:29:47Z</time>
      </trkpt>
      <trkpt lat="4.3639160" lon="-75.7262350">
        <ele>1616.2</ele>
        <time>2022-08-13T17:29:49Z</time>
      </trkpt>
      <trkpt lat="4.3639570" lon="-75.7262500">
        <ele>1616.2</ele>
        <time>2022-08-13T17:29:50Z</time>
      </trkpt>
      <trkpt lat="4.3640270" lon="-75.7263010">
        <ele>1616.2</ele>
        <time>2022-08-13T17:29:53Z</time>
      </trkpt>
      <trkpt lat="4.3640400" lon="-75.7263130">
        <ele>1616.2</ele>
        <time>2022-08-13T17:29:54Z</time>
      </trkpt>
      <trkpt lat="4.3640590" lon="-75.7263320">
        <ele>1616.2</ele>
        <time>2022-08-13T17:29:56Z</time>
      </trkpt>
      <trkpt lat="4.3640730" lon="-75.7263580">
        <ele>1616.2</ele>
        <time>2022-08-13T17:29:58Z</time>
      </trkpt>
      <trkpt lat="4.3641350" lon="-75.7264050">
        <ele>1617.6</ele>
        <time>2022-08-13T17:30:03Z</time>
      </trkpt>
      <trkpt lat="4.3641460" lon="-75.7264160">
        <ele>1618.0</ele>
        <time>2022-08-13T17:30:04Z</time>
      </trkpt>
      <trkpt lat="4.3641710" lon="-75.7264320">
        <ele>1618.8</ele>
        <time>2022-08-13T17:30:06Z</time>
      </trkpt>
      <trkpt lat="4.3642170" lon="-75.7264650">
        <ele>1620.0</ele>
        <time>2022-08-13T17:30:10Z</time>
      </trkpt>
      <trkpt lat="4.3642280" lon="-75.7264730">
        <ele>1620.2</ele>
        <time>2022-08-13T17:30:11Z</time>
      </trkpt>
      <trkpt lat="4.3642670" lon="-75.7264970">
        <ele>1621.0</ele>
        <time>2022-08-13T17:30:14Z</time>
      </trkpt>
      <trkpt lat="4.3643090" lon="-75.7265310">
        <ele>1622.0</ele>
        <time>2022-08-13T17:30:18Z</time>
      </trkpt>
      <trkpt lat="4.3643280" lon="-75.7265450">
        <ele>1622.6</ele>
        <time>2022-08-13T17:30:20Z</time>
      </trkpt>
      <trkpt lat="4.3643500" lon="-75.7265610">
        <ele>1623.2</ele>
        <time>2022-08-13T17:30:22Z</time>
      </trkpt>
      <trkpt lat="4.3643880" lon="-75.7265980">
        <ele>1624.0</ele>
        <time>2022-08-13T17:30:26Z</time>
      </trkpt>
      <trkpt lat="4.3643990" lon="-75.7266040">
        <ele>1624.2</ele>
        <time>2022-08-13T17:30:27Z</time>
      </trkpt>
      <trkpt lat="4.3644410" lon="-75.7266550">
        <ele>1625.4</ele>
        <time>2022-08-13T17:30:32Z</time>
      </trkpt>
      <trkpt lat="4.3644550" lon="-75.7266780">
        <ele>1626.0</ele>
        <time>2022-08-13T17:30:34Z</time>
      </trkpt>
      <trkpt lat="4.3644710" lon="-75.7267030">
        <ele>1626.6</ele>
        <time>2022-08-13T17:30:36Z</time>
      </trkpt>
      <trkpt lat="4.3645150" lon="-75.7267540">
        <ele>1627.6</ele>
        <time>2022-08-13T17:30:40Z</time>
      </trkpt>
      <trkpt lat="4.3645410" lon="-75.7267780">
        <ele>1628.0</ele>
        <time>2022-08-13T17:30:42Z</time>
      </trkpt>
      <trkpt lat="4.3645710" lon="-75.7267960">
        <ele>1628.4</ele>
        <time>2022-08-13T17:30:44Z</time>
      </trkpt>
      <trkpt lat="4.3645930" lon="-75.7267950">
        <ele>1628.4</ele>
        <time>2022-08-13T17:30:45Z</time>
      </trkpt>
      <trkpt lat="4.3646300" lon="-75.7268010">
        <ele>1628.6</ele>
        <time>2022-08-13T17:30:47Z</time>
      </trkpt>
      <trkpt lat="4.3646830" lon="-75.7268120">
        <ele>1628.6</ele>
        <time>2022-08-13T17:30:50Z</time>
      </trkpt>
      <trkpt lat="4.3647490" lon="-75.7268170">
        <ele>1628.8</ele>
        <time>2022-08-13T17:30:54Z</time>
      </trkpt>
      <trkpt lat="4.3647880" lon="-75.7268220">
        <ele>1629.0</ele>
        <time>2022-08-13T17:30:56Z</time>
      </trkpt>
      <trkpt lat="4.3648570" lon="-75.7268240">
        <ele>1629.4</ele>
        <time>2022-08-13T17:31:00Z</time>
      </trkpt>
      <trkpt lat="4.3648800" lon="-75.7268360">
        <ele>1629.8</ele>
        <time>2022-08-13T17:31:02Z</time>
      </trkpt>
      <trkpt lat="4.3649800" lon="-75.7268890">
        <ele>1631.0</ele>
        <time>2022-08-13T17:31:09Z</time>
      </trkpt>
      <trkpt lat="4.3650110" lon="-75.7269120">
        <ele>1631.0</ele>
        <time>2022-08-13T17:31:11Z</time>
      </trkpt>
      <trkpt lat="4.3650990" lon="-75.7269820">
        <ele>1631.2</ele>
        <time>2022-08-13T17:31:17Z</time>
      </trkpt>
      <trkpt lat="4.3651120" lon="-75.7269930">
        <ele>1631.2</ele>
        <time>2022-08-13T17:31:18Z</time>
      </trkpt>
      <trkpt lat="4.3652230" lon="-75.7270490">
        <ele>1631.8</ele>
        <time>2022-08-13T17:31:25Z</time>
      </trkpt>
      <trkpt lat="4.3652620" lon="-75.7270540">
        <ele>1631.8</ele>
        <time>2022-08-13T17:31:27Z</time>
      </trkpt>
      <trkpt lat="4.3652640" lon="-75.7270610">
        <ele>1631.8</ele>
        <time>2022-08-13T17:31:28Z</time>
      </trkpt>
      <trkpt lat="4.3653120" lon="-75.7270730">
        <ele>1632.2</ele>
        <time>2022-08-13T17:31:32Z</time>
      </trkpt>
      <trkpt lat="4.3653480" lon="-75.7270880">
        <ele>1632.8</ele>
        <time>2022-08-13T17:31:35Z</time>
      </trkpt>
      <trkpt lat="4.3653920" lon="-75.7271090">
        <ele>1633.4</ele>
        <time>2022-08-13T17:31:39Z</time>
      </trkpt>
      <trkpt lat="4.3654170" lon="-75.7271240">
        <ele>1633.8</ele>
        <time>2022-08-13T17:31:41Z</time>
      </trkpt>
      <trkpt lat="4.3654390" lon="-75.7271330">
        <ele>1634.4</ele>
        <time>2022-08-13T17:31:43Z</time>
      </trkpt>
      <trkpt lat="4.3654730" lon="-75.7271570">
        <ele>1635.0</ele>
        <time>2022-08-13T17:31:46Z</time>
      </trkpt>
      <trkpt lat="4.3655080" lon="-75.7271800">
        <ele>1636.0</ele>
        <time>2022-08-13T17:31:49Z</time>
      </trkpt>
      <trkpt lat="4.3655340" lon="-75.7272050">
        <ele>1636.6</ele>
        <time>2022-08-13T17:31:52Z</time>
      </trkpt>
      <trkpt lat="4.3655600" lon="-75.7272180">
        <ele>1637.2</ele>
        <time>2022-08-13T17:31:54Z</time>
      </trkpt>
      <trkpt lat="4.3656080" lon="-75.7272350">
        <ele>1638.4</ele>
        <time>2022-08-13T17:31:58Z</time>
      </trkpt>
      <trkpt lat="4.3656380" lon="-75.7272370">
        <ele>1638.8</ele>
        <time>2022-08-13T17:32:00Z</time>
      </trkpt>
      <trkpt lat="4.3657180" lon="-75.7272640">
        <ele>1639.6</ele>
        <time>2022-08-13T17:32:05Z</time>
      </trkpt>
      <trkpt lat="4.3657990" lon="-75.7273020">
        <ele>1640.6</ele>
        <time>2022-08-13T17:32:10Z</time>
      </trkpt>
      <trkpt lat="4.3658670" lon="-75.7273370">
        <ele>1641.4</ele>
        <time>2022-08-13T17:32:15Z</time>
      </trkpt>
      <trkpt lat="4.3659090" lon="-75.7273630">
        <ele>1641.6</ele>
        <time>2022-08-13T17:32:17Z</time>
      </trkpt>
      <trkpt lat="4.3659300" lon="-75.7273740">
        <ele>1641.6</ele>
        <time>2022-08-13T17:32:18Z</time>
      </trkpt>
      <trkpt lat="4.3659890" lon="-75.7273930">
        <ele>1642.2</ele>
        <time>2022-08-13T17:32:24Z</time>
      </trkpt>
      <trkpt lat="4.3660860" lon="-75.7274530">
        <ele>1642.6</ele>
        <time>2022-08-13T17:32:29Z</time>
      </trkpt>
      <trkpt lat="4.3661290" lon="-75.7275160">
        <ele>1643.2</ele>
        <time>2022-08-13T17:32:34Z</time>
      </trkpt>
      <trkpt lat="4.3661490" lon="-75.7275590">
        <ele>1643.6</ele>
        <time>2022-08-13T17:32:37Z</time>
      </trkpt>
      <trkpt lat="4.3661760" lon="-75.7276170">
        <ele>1644.2</ele>
        <time>2022-08-13T17:32:41Z</time>
      </trkpt>
      <trkpt lat="4.3661910" lon="-75.7276450">
        <ele>1644.6</ele>
        <time>2022-08-13T17:32:43Z</time>
      </trkpt>
      <trkpt lat="4.3662090" lon="-75.7276680">
        <ele>1644.8</ele>
        <time>2022-08-13T17:32:45Z</time>
      </trkpt>
      <trkpt lat="4.3662190" lon="-75.7276760">
        <ele>1645.0</ele>
        <time>2022-08-13T17:32:46Z</time>
      </trkpt>
      <trkpt lat="4.3662680" lon="-75.7277240">
        <ele>1645.6</ele>
        <time>2022-08-13T17:32:50Z</time>
      </trkpt>
      <trkpt lat="4.3662900" lon="-75.7277480">
        <ele>1645.8</ele>
        <time>2022-08-13T17:32:52Z</time>
      </trkpt>
      <trkpt lat="4.3663020" lon="-75.7277590">
        <ele>1646.0</ele>
        <time>2022-08-13T17:32:53Z</time>
      </trkpt>
      <trkpt lat="4.3663240" lon="-75.7277830">
        <ele>1646.4</ele>
        <time>2022-08-13T17:32:55Z</time>
      </trkpt>
      <trkpt lat="4.3663630" lon="-75.7278130">
        <ele>1646.8</ele>
        <time>2022-08-13T17:32:58Z</time>
      </trkpt>
      <trkpt lat="4.3663750" lon="-75.7278200">
        <ele>1646.8</ele>
        <time>2022-08-13T17:32:59Z</time>
      </trkpt>
      <trkpt lat="4.3663900" lon="-75.7278270">
        <ele>1647.0</ele>
        <time>2022-08-13T17:33:00Z</time>
      </trkpt>
      <trkpt lat="4.3664290" lon="-75.7278520">
        <ele>1647.6</ele>
        <time>2022-08-13T17:33:03Z</time>
      </trkpt>
      <trkpt lat="4.3664420" lon="-75.7278830">
        <ele>1648.2</ele>
        <time>2022-08-13T17:33:06Z</time>
      </trkpt>
      <trkpt lat="4.3664800" lon="-75.7279070">
        <ele>1648.8</ele>
        <time>2022-08-13T17:33:09Z</time>
      </trkpt>
      <trkpt lat="4.3664930" lon="-75.7279140">
        <ele>1649.2</ele>
        <time>2022-08-13T17:33:10Z</time>
      </trkpt>
      <trkpt lat="4.3665030" lon="-75.7279220">
        <ele>1649.4</ele>
        <time>2022-08-13T17:33:11Z</time>
      </trkpt>
      <trkpt lat="4.3665560" lon="-75.7279560">
        <ele>1650.2</ele>
        <time>2022-08-13T17:33:15Z</time>
      </trkpt>
      <trkpt lat="4.3665640" lon="-75.7279620">
        <ele>1650.6</ele>
        <time>2022-08-13T17:33:16Z</time>
      </trkpt>
      <trkpt lat="4.3666230" lon="-75.7279940">
        <ele>1651.6</ele>
        <time>2022-08-13T17:33:20Z</time>
      </trkpt>
      <trkpt lat="4.3666630" lon="-75.7280160">
        <ele>1652.2</ele>
        <time>2022-08-13T17:33:23Z</time>
      </trkpt>
      <trkpt lat="4.3666840" lon="-75.7280310">
        <ele>1652.6</ele>
        <time>2022-08-13T17:33:25Z</time>
      </trkpt>
      <trkpt lat="4.3667190" lon="-75.7280590">
        <ele>1653.4</ele>
        <time>2022-08-13T17:33:28Z</time>
      </trkpt>
      <trkpt lat="4.3667300" lon="-75.7280690">
        <ele>1653.6</ele>
        <time>2022-08-13T17:33:29Z</time>
      </trkpt>
      <trkpt lat="4.3667870" lon="-75.7281030">
        <ele>1654.6</ele>
        <time>2022-08-13T17:33:34Z</time>
      </trkpt>
      <trkpt lat="4.3668000" lon="-75.7281100">
        <ele>1655.0</ele>
        <time>2022-08-13T17:33:35Z</time>
      </trkpt>
      <trkpt lat="4.3668110" lon="-75.7281170">
        <ele>1655.2</ele>
        <time>2022-08-13T17:33:36Z</time>
      </trkpt>
      <trkpt lat="4.3668470" lon="-75.7281600">
        <ele>1655.8</ele>
        <time>2022-08-13T17:33:40Z</time>
      </trkpt>
      <trkpt lat="4.3668690" lon="-75.7281760">
        <ele>1656.2</ele>
        <time>2022-08-13T17:33:42Z</time>
      </trkpt>
      <trkpt lat="4.3669400" lon="-75.7282290">
        <ele>1657.0</ele>
        <time>2022-08-13T17:33:48Z</time>
      </trkpt>
      <trkpt lat="4.3669650" lon="-75.7282390">
        <ele>1657.2</ele>
        <time>2022-08-13T17:33:50Z</time>
      </trkpt>
      <trkpt lat="4.3670500" lon="-75.7282720">
        <ele>1658.2</ele>
        <time>2022-08-13T17:33:56Z</time>
      </trkpt>
      <trkpt lat="4.3670620" lon="-75.7282740">
        <ele>1658.4</ele>
        <time>2022-08-13T17:33:57Z</time>
      </trkpt>
      <trkpt lat="4.3670830" lon="-75.7282850">
        <ele>1658.8</ele>
        <time>2022-08-13T17:33:59Z</time>
      </trkpt>
      <trkpt lat="4.3671210" lon="-75.7282980">
        <ele>1659.4</ele>
        <time>2022-08-13T17:34:02Z</time>
      </trkpt>
      <trkpt lat="4.3672180" lon="-75.7283140">
        <ele>1660.6</ele>
        <time>2022-08-13T17:34:09Z</time>
      </trkpt>
      <trkpt lat="4.3672310" lon="-75.7283190">
        <ele>1660.8</ele>
        <time>2022-08-13T17:34:10Z</time>
      </trkpt>
      <trkpt lat="4.3672780" lon="-75.7283360">
        <ele>1661.6</ele>
        <time>2022-08-13T17:34:14Z</time>
      </trkpt>
      <trkpt lat="4.3673330" lon="-75.7283550">
        <ele>1662.6</ele>
        <time>2022-08-13T17:34:18Z</time>
      </trkpt>
      <trkpt lat="4.3673600" lon="-75.7283620">
        <ele>1663.0</ele>
        <time>2022-08-13T17:34:20Z</time>
      </trkpt>
      <trkpt lat="4.3673990" lon="-75.7283720">
        <ele>1663.8</ele>
        <time>2022-08-13T17:34:23Z</time>
      </trkpt>
      <trkpt lat="4.3674460" lon="-75.7283890">
        <ele>1664.8</ele>
        <time>2022-08-13T17:34:27Z</time>
      </trkpt>
      <trkpt lat="4.3674930" lon="-75.7284100">
        <ele>1665.2</ele>
        <time>2022-08-13T17:34:31Z</time>
      </trkpt>
      <trkpt lat="4.3675150" lon="-75.7284180">
        <ele>1666.0</ele>
        <time>2022-08-13T17:34:33Z</time>
      </trkpt>
      <trkpt lat="4.3675750" lon="-75.7284340">
        <ele>1667.0</ele>
        <time>2022-08-13T17:34:38Z</time>
      </trkpt>
      <trkpt lat="4.3676260" lon="-75.7284460">
        <ele>1667.6</ele>
        <time>2022-08-13T17:34:42Z</time>
      </trkpt>
      <trkpt lat="4.3676470" lon="-75.7284540">
        <ele>1668.2</ele>
        <time>2022-08-13T17:34:44Z</time>
      </trkpt>
      <trkpt lat="4.3677220" lon="-75.7284710">
        <ele>1669.4</ele>
        <time>2022-08-13T17:34:50Z</time>
      </trkpt>
      <trkpt lat="4.3677410" lon="-75.7284810">
        <ele>1669.6</ele>
        <time>2022-08-13T17:34:52Z</time>
      </trkpt>
      <trkpt lat="4.3677830" lon="-75.7285060">
        <ele>1670.2</ele>
        <time>2022-08-13T17:34:56Z</time>
      </trkpt>
      <trkpt lat="4.3678370" lon="-75.7285370">
        <ele>1671.4</ele>
        <time>2022-08-13T17:35:01Z</time>
      </trkpt>
      <trkpt lat="4.3678590" lon="-75.7285520">
        <ele>1671.8</ele>
        <time>2022-08-13T17:35:03Z</time>
      </trkpt>
      <trkpt lat="4.3678950" lon="-75.7285720">
        <ele>1672.6</ele>
        <time>2022-08-13T17:35:06Z</time>
      </trkpt>
      <trkpt lat="4.3679270" lon="-75.7285940">
        <ele>1673.2</ele>
        <time>2022-08-13T17:35:09Z</time>
      </trkpt>
      <trkpt lat="4.3679390" lon="-75.7286010">
        <ele>1673.4</ele>
        <time>2022-08-13T17:35:10Z</time>
      </trkpt>
      <trkpt lat="4.3679480" lon="-75.7286090">
        <ele>1673.8</ele>
        <time>2022-08-13T17:35:11Z</time>
      </trkpt>
      <trkpt lat="4.3679910" lon="-75.7286380">
        <ele>1674.8</ele>
        <time>2022-08-13T17:35:15Z</time>
      </trkpt>
      <trkpt lat="4.3680220" lon="-75.7286600">
        <ele>1675.2</ele>
        <time>2022-08-13T17:35:18Z</time>
      </trkpt>
      <trkpt lat="4.3680300" lon="-75.7286710">
        <ele>1675.4</ele>
        <time>2022-08-13T17:35:19Z</time>
      </trkpt>
      <trkpt lat="4.3680470" lon="-75.7286920">
        <ele>1676.2</ele>
        <time>2022-08-13T17:35:21Z</time>
      </trkpt>
      <trkpt lat="4.3680910" lon="-75.7287380">
        <ele>1677.6</ele>
        <time>2022-08-13T17:35:25Z</time>
      </trkpt>
      <trkpt lat="4.3681230" lon="-75.7287660">
        <ele>1678.4</ele>
        <time>2022-08-13T17:35:28Z</time>
      </trkpt>
      <trkpt lat="4.3681310" lon="-75.7287760">
        <ele>1678.6</ele>
        <time>2022-08-13T17:35:29Z</time>
      </trkpt>
      <trkpt lat="4.3681710" lon="-75.7288240">
        <ele>1679.8</ele>
        <time>2022-08-13T17:35:33Z</time>
      </trkpt>
      <trkpt lat="4.3681930" lon="-75.7288630">
        <ele>1680.4</ele>
        <time>2022-08-13T17:35:36Z</time>
      </trkpt>
      <trkpt lat="4.3682070" lon="-75.7288900">
        <ele>1680.8</ele>
        <time>2022-08-13T17:35:38Z</time>
      </trkpt>
      <trkpt lat="4.3682470" lon="-75.7289350">
        <ele>1681.6</ele>
        <time>2022-08-13T17:35:42Z</time>
      </trkpt>
      <trkpt lat="4.3682560" lon="-75.7289500">
        <ele>1681.8</ele>
        <time>2022-08-13T17:35:43Z</time>
      </trkpt>
      <trkpt lat="4.3682660" lon="-75.7289630">
        <ele>1682.0</ele>
        <time>2022-08-13T17:35:44Z</time>
      </trkpt>
      <trkpt lat="4.3682770" lon="-75.7289750">
        <ele>1682.8</ele>
        <time>2022-08-13T17:35:49Z</time>
      </trkpt>
      <trkpt lat="4.3682770" lon="-75.7289750">
        <ele>1682.8</ele>
        <time>2022-08-13T17:35:51Z</time>
      </trkpt>
      <trkpt lat="4.3682770" lon="-75.7289750">
        <ele>1683.0</ele>
        <time>2022-08-13T17:36:00Z</time>
      </trkpt>
      <trkpt lat="4.3682770" lon="-75.7289750">
        <ele>1683.0</ele>
        <time>2022-08-13T17:36:12Z</time>
      </trkpt>
      <trkpt lat="4.3682770" lon="-75.7289750">
        <ele>1683.2</ele>
        <time>2022-08-13T17:36:28Z</time>
      </trkpt>
      <trkpt lat="4.3682770" lon="-75.7289750">
        <ele>1683.2</ele>
        <time>2022-08-13T17:36:41Z</time>
      </trkpt>
      <trkpt lat="4.3682770" lon="-75.7289750">
        <ele>1683.0</ele>
        <time>2022-08-13T17:36:47Z</time>
      </trkpt>
      <trkpt lat="4.3682770" lon="-75.7289750">
        <ele>1683.2</ele>
        <time>2022-08-13T17:37:39Z</time>
      </trkpt>
      <trkpt lat="4.3682770" lon="-75.7289750">
        <ele>1683.4</ele>
        <time>2022-08-13T17:38:00Z</time>
      </trkpt>
      <trkpt lat="4.3682780" lon="-75.7289760">
        <ele>1683.4</ele>
        <time>2022-08-13T17:39:02Z</time>
      </trkpt>
      <trkpt lat="4.3682830" lon="-75.7289780">
        <ele>1683.4</ele>
        <time>2022-08-13T17:39:09Z</time>
      </trkpt>
      <trkpt lat="4.3682830" lon="-75.7289840">
        <ele>1683.2</ele>
        <time>2022-08-13T17:39:21Z</time>
      </trkpt>
      <trkpt lat="4.3682830" lon="-75.7289840">
        <ele>1683.4</ele>
        <time>2022-08-13T17:39:28Z</time>
      </trkpt>
      <trkpt lat="4.3682830" lon="-75.7289840">
        <ele>1683.4</ele>
        <time>2022-08-13T17:39:33Z</time>
      </trkpt>
      <trkpt lat="4.3682830" lon="-75.7289840">
        <ele>1683.4</ele>
        <time>2022-08-13T17:39:39Z</time>
      </trkpt>
      <trkpt lat="4.3682830" lon="-75.7289840">
        <ele>1683.4</ele>
        <time>2022-08-13T17:39:46Z</time>
      </trkpt>
      <trkpt lat="4.3682830" lon="-75.7289840">
        <ele>1683.2</ele>
        <time>2022-08-13T17:40:04Z</time>
      </trkpt>
      <trkpt lat="4.3682830" lon="-75.7289840">
        <ele>1683.4</ele>
        <time>2022-08-13T17:40:13Z</time>
      </trkpt>
      <trkpt lat="4.3682830" lon="-75.7289840">
        <ele>1683.8</ele>
        <time>2022-08-13T17:40:37Z</time>
      </trkpt>
      <trkpt lat="4.3682830" lon="-75.7289840">
        <ele>1684.0</ele>
        <time>2022-08-13T17:40:51Z</time>
      </trkpt>
      <trkpt lat="4.3682830" lon="-75.7289840">
        <ele>1683.8</ele>
        <time>2022-08-13T17:41:01Z</time>
      </trkpt>
      <trkpt lat="4.3682830" lon="-75.7289860">
        <ele>1683.8</ele>
        <time>2022-08-13T17:41:26Z</time>
      </trkpt>
      <trkpt lat="4.3683090" lon="-75.7290610">
        <ele>1683.8</ele>
        <time>2022-08-13T17:41:29Z</time>
      </trkpt>
      <trkpt lat="4.3683730" lon="-75.7292450">
        <ele>1683.8</ele>
        <time>2022-08-13T17:41:34Z</time>
      </trkpt>
      <trkpt lat="4.3683930" lon="-75.7292940">
        <ele>1683.6</ele>
        <time>2022-08-13T17:41:35Z</time>
      </trkpt>
      <trkpt lat="4.3684270" lon="-75.7293520">
        <ele>1683.6</ele>
        <time>2022-08-13T17:41:36Z</time>
      </trkpt>
      <trkpt lat="4.3684880" lon="-75.7294710">
        <ele>1683.0</ele>
        <time>2022-08-13T17:41:38Z</time>
      </trkpt>
      <trkpt lat="4.3685110" lon="-75.7295330">
        <ele>1682.6</ele>
        <time>2022-08-13T17:41:39Z</time>
      </trkpt>
      <trkpt lat="4.3685530" lon="-75.7296700">
        <ele>1681.6</ele>
        <time>2022-08-13T17:41:41Z</time>
      </trkpt>
      <trkpt lat="4.3685590" lon="-75.7298120">
        <ele>1681.0</ele>
        <time>2022-08-13T17:41:43Z</time>
      </trkpt>
      <trkpt lat="4.3685560" lon="-75.7298640">
        <ele>1680.2</ele>
        <time>2022-08-13T17:41:44Z</time>
      </trkpt>
      <trkpt lat="4.3685530" lon="-75.7299930">
        <ele>1678.0</ele>
        <time>2022-08-13T17:41:46Z</time>
      </trkpt>
      <trkpt lat="4.3685580" lon="-75.7300430">
        <ele>1677.0</ele>
        <time>2022-08-13T17:41:47Z</time>
      </trkpt>
      <trkpt lat="4.3685680" lon="-75.7300770">
        <ele>1676.0</ele>
        <time>2022-08-13T17:41:48Z</time>
      </trkpt>
      <trkpt lat="4.3686000" lon="-75.7301170">
        <ele>1674.8</ele>
        <time>2022-08-13T17:41:49Z</time>
      </trkpt>
      <trkpt lat="4.3686340" lon="-75.7301280">
        <ele>1673.6</ele>
        <time>2022-08-13T17:41:50Z</time>
      </trkpt>
      <trkpt lat="4.3686670" lon="-75.7301210">
        <ele>1672.2</ele>
        <time>2022-08-13T17:41:51Z</time>
      </trkpt>
      <trkpt lat="4.3687040" lon="-75.7300890">
        <ele>1671.0</ele>
        <time>2022-08-13T17:41:52Z</time>
      </trkpt>
      <trkpt lat="4.3687380" lon="-75.7300450">
        <ele>1669.6</ele>
        <time>2022-08-13T17:41:53Z</time>
      </trkpt>
      <trkpt lat="4.3687680" lon="-75.7299960">
        <ele>1668.6</ele>
        <time>2022-08-13T17:41:54Z</time>
      </trkpt>
      <trkpt lat="4.3687950" lon="-75.7299410">
        <ele>1667.6</ele>
        <time>2022-08-13T17:41:55Z</time>
      </trkpt>
      <trkpt lat="4.3688360" lon="-75.7298200">
        <ele>1665.8</ele>
        <time>2022-08-13T17:41:57Z</time>
      </trkpt>
      <trkpt lat="4.3688570" lon="-75.7297530">
        <ele>1664.8</ele>
        <time>2022-08-13T17:41:58Z</time>
      </trkpt>
      <trkpt lat="4.3688710" lon="-75.7296760">
        <ele>1663.8</ele>
        <time>2022-08-13T17:41:59Z</time>
      </trkpt>
      <trkpt lat="4.3688940" lon="-75.7295730">
        <ele>1662.4</ele>
        <time>2022-08-13T17:42:01Z</time>
      </trkpt>
      <trkpt lat="4.3689230" lon="-75.7295350">
        <ele>1661.8</ele>
        <time>2022-08-13T17:42:02Z</time>
      </trkpt>
      <trkpt lat="4.3689670" lon="-75.7295150">
        <ele>1661.2</ele>
        <time>2022-08-13T17:42:03Z</time>
      </trkpt>
      <trkpt lat="4.3690050" lon="-75.7295260">
        <ele>1660.6</ele>
        <time>2022-08-13T17:42:04Z</time>
      </trkpt>
      <trkpt lat="4.3690530" lon="-75.7295710">
        <ele>1659.8</ele>
        <time>2022-08-13T17:42:05Z</time>
      </trkpt>
      <trkpt lat="4.3690940" lon="-75.7296390">
        <ele>1659.2</ele>
        <time>2022-08-13T17:42:06Z</time>
      </trkpt>
      <trkpt lat="4.3691620" lon="-75.7297830">
        <ele>1658.2</ele>
        <time>2022-08-13T17:42:08Z</time>
      </trkpt>
      <trkpt lat="4.3692660" lon="-75.7299540">
        <ele>1657.0</ele>
        <time>2022-08-13T17:42:10Z</time>
      </trkpt>
      <trkpt lat="4.3693470" lon="-75.7300710">
        <ele>1655.8</ele>
        <time>2022-08-13T17:42:12Z</time>
      </trkpt>
      <trkpt lat="4.3694140" lon="-75.7301660">
        <ele>1653.8</ele>
        <time>2022-08-13T17:42:14Z</time>
      </trkpt>
      <trkpt lat="4.3694220" lon="-75.7301940">
        <ele>1652.2</ele>
        <time>2022-08-13T17:42:15Z</time>
      </trkpt>
      <trkpt lat="4.3694180" lon="-75.7302170">
        <ele>1650.6</ele>
        <time>2022-08-13T17:42:16Z</time>
      </trkpt>
      <trkpt lat="4.3693940" lon="-75.7302360">
        <ele>1649.0</ele>
        <time>2022-08-13T17:42:17Z</time>
      </trkpt>
      <trkpt lat="4.3693540" lon="-75.7302640">
        <ele>1647.4</ele>
        <time>2022-08-13T17:42:18Z</time>
      </trkpt>
      <trkpt lat="4.3693150" lon="-75.7302860">
        <ele>1646.2</ele>
        <time>2022-08-13T17:42:19Z</time>
      </trkpt>
      <trkpt lat="4.3692760" lon="-75.7303090">
        <ele>1645.0</ele>
        <time>2022-08-13T17:42:20Z</time>
      </trkpt>
      <trkpt lat="4.3692090" lon="-75.7303580">
        <ele>1643.2</ele>
        <time>2022-08-13T17:42:22Z</time>
      </trkpt>
      <trkpt lat="4.3691640" lon="-75.7303940">
        <ele>1642.8</ele>
        <time>2022-08-13T17:42:23Z</time>
      </trkpt>
      <trkpt lat="4.3690890" lon="-75.7304560">
        <ele>1642.0</ele>
        <time>2022-08-13T17:42:25Z</time>
      </trkpt>
      <trkpt lat="4.3689300" lon="-75.7306330">
        <ele>1641.2</ele>
        <time>2022-08-13T17:42:30Z</time>
      </trkpt>
      <trkpt lat="4.3688280" lon="-75.7308200">
        <ele>1641.2</ele>
        <time>2022-08-13T17:42:36Z</time>
      </trkpt>
      <trkpt lat="4.3687800" lon="-75.7309680">
        <ele>1642.0</ele>
        <time>2022-08-13T17:42:42Z</time>
      </trkpt>
      <trkpt lat="4.3687820" lon="-75.7310520">
        <ele>1643.4</ele>
        <time>2022-08-13T17:42:46Z</time>
      </trkpt>
      <trkpt lat="4.3687840" lon="-75.7311170">
        <ele>1644.2</ele>
        <time>2022-08-13T17:42:49Z</time>
      </trkpt>
      <trkpt lat="4.3687860" lon="-75.7311340">
        <ele>1644.4</ele>
        <time>2022-08-13T17:42:50Z</time>
      </trkpt>
      <trkpt lat="4.3687920" lon="-75.7312010">
        <ele>1645.0</ele>
        <time>2022-08-13T17:42:53Z</time>
      </trkpt>
      <trkpt lat="4.3687900" lon="-75.7312230">
        <ele>1645.2</ele>
        <time>2022-08-13T17:42:54Z</time>
      </trkpt>
      <trkpt lat="4.3687950" lon="-75.7312610">
        <ele>1645.4</ele>
        <time>2022-08-13T17:42:56Z</time>
      </trkpt>
      <trkpt lat="4.3688160" lon="-75.7313240">
        <ele>1646.2</ele>
        <time>2022-08-13T17:42:59Z</time>
      </trkpt>
      <trkpt lat="4.3688330" lon="-75.7313680">
        <ele>1646.6</ele>
        <time>2022-08-13T17:43:01Z</time>
      </trkpt>
      <trkpt lat="4.3688660" lon="-75.7314670">
        <ele>1647.6</ele>
        <time>2022-08-13T17:43:06Z</time>
      </trkpt>
      <trkpt lat="4.3688760" lon="-75.7314870">
        <ele>1647.6</ele>
        <time>2022-08-13T17:43:07Z</time>
      </trkpt>
      <trkpt lat="4.3689260" lon="-75.7316120">
        <ele>1648.8</ele>
        <time>2022-08-13T17:43:13Z</time>
      </trkpt>
      <trkpt lat="4.3689400" lon="-75.7316560">
        <ele>1649.2</ele>
        <time>2022-08-13T17:43:15Z</time>
      </trkpt>
      <trkpt lat="4.3689500" lon="-75.7317060">
        <ele>1649.4</ele>
        <time>2022-08-13T17:43:17Z</time>
      </trkpt>
      <trkpt lat="4.3689570" lon="-75.7317990">
        <ele>1649.8</ele>
        <time>2022-08-13T17:43:21Z</time>
      </trkpt>
      <trkpt lat="4.3689470" lon="-75.7318670">
        <ele>1650.2</ele>
        <time>2022-08-13T17:43:24Z</time>
      </trkpt>
      <trkpt lat="4.3688730" lon="-75.7319990">
        <ele>1651.0</ele>
        <time>2022-08-13T17:43:29Z</time>
      </trkpt>
      <trkpt lat="4.3688490" lon="-75.7320310">
        <ele>1651.0</ele>
        <time>2022-08-13T17:43:30Z</time>
      </trkpt>
      <trkpt lat="4.3688190" lon="-75.7320650">
        <ele>1651.0</ele>
        <time>2022-08-13T17:43:31Z</time>
      </trkpt>
      <trkpt lat="4.3687290" lon="-75.7321280">
        <ele>1651.0</ele>
        <time>2022-08-13T17:43:33Z</time>
      </trkpt>
      <trkpt lat="4.3686730" lon="-75.7321540">
        <ele>1651.0</ele>
        <time>2022-08-13T17:43:34Z</time>
      </trkpt>
      <trkpt lat="4.3683850" lon="-75.7322300">
        <ele>1650.8</ele>
        <time>2022-08-13T17:43:38Z</time>
      </trkpt>
      <trkpt lat="4.3682230" lon="-75.7322520">
        <ele>1650.2</ele>
        <time>2022-08-13T17:43:40Z</time>
      </trkpt>
      <trkpt lat="4.3681490" lon="-75.7322530">
        <ele>1649.6</ele>
        <time>2022-08-13T17:43:41Z</time>
      </trkpt>
      <trkpt lat="4.3680760" lon="-75.7322420">
        <ele>1648.8</ele>
        <time>2022-08-13T17:43:42Z</time>
      </trkpt>
      <trkpt lat="4.3679430" lon="-75.7321790">
        <ele>1648.2</ele>
        <time>2022-08-13T17:43:44Z</time>
      </trkpt>
      <trkpt lat="4.3678800" lon="-75.7321300">
        <ele>1647.2</ele>
        <time>2022-08-13T17:43:45Z</time>
      </trkpt>
      <trkpt lat="4.3678100" lon="-75.7320830">
        <ele>1646.6</ele>
        <time>2022-08-13T17:43:46Z</time>
      </trkpt>
      <trkpt lat="4.3676700" lon="-75.7319740">
        <ele>1645.4</ele>
        <time>2022-08-13T17:43:48Z</time>
      </trkpt>
      <trkpt lat="4.3674920" lon="-75.7318110">
        <ele>1644.0</ele>
        <time>2022-08-13T17:43:50Z</time>
      </trkpt>
      <trkpt lat="4.3673370" lon="-75.7316410">
        <ele>1642.2</ele>
        <time>2022-08-13T17:43:52Z</time>
      </trkpt>
      <trkpt lat="4.3672510" lon="-75.7315420">
        <ele>1641.0</ele>
        <time>2022-08-13T17:43:53Z</time>
      </trkpt>
      <trkpt lat="4.3671530" lon="-75.7314370">
        <ele>1639.4</ele>
        <time>2022-08-13T17:43:54Z</time>
      </trkpt>
      <trkpt lat="4.3670680" lon="-75.7313520">
        <ele>1638.0</ele>
        <time>2022-08-13T17:43:55Z</time>
      </trkpt>
      <trkpt lat="4.3669840" lon="-75.7312730">
        <ele>1636.8</ele>
        <time>2022-08-13T17:43:56Z</time>
      </trkpt>
      <trkpt lat="4.3669150" lon="-75.7312120">
        <ele>1635.4</ele>
        <time>2022-08-13T17:43:57Z</time>
      </trkpt>
      <trkpt lat="4.3668070" lon="-75.7311290">
        <ele>1633.8</ele>
        <time>2022-08-13T17:43:58Z</time>
      </trkpt>
      <trkpt lat="4.3667100" lon="-75.7310720">
        <ele>1632.6</ele>
        <time>2022-08-13T17:43:59Z</time>
      </trkpt>
      <trkpt lat="4.3666060" lon="-75.7310260">
        <ele>1631.4</ele>
        <time>2022-08-13T17:44:00Z</time>
      </trkpt>
      <trkpt lat="4.3665000" lon="-75.7309880">
        <ele>1630.0</ele>
        <time>2022-08-13T17:44:01Z</time>
      </trkpt>
      <trkpt lat="4.3664020" lon="-75.7309620">
        <ele>1628.8</ele>
        <time>2022-08-13T17:44:02Z</time>
      </trkpt>
      <trkpt lat="4.3663260" lon="-75.7309440">
        <ele>1627.6</ele>
        <time>2022-08-13T17:44:03Z</time>
      </trkpt>
      <trkpt lat="4.3661150" lon="-75.7308970">
        <ele>1625.4</ele>
        <time>2022-08-13T17:44:05Z</time>
      </trkpt>
      <trkpt lat="4.3660190" lon="-75.7308840">
        <ele>1624.0</ele>
        <time>2022-08-13T17:44:06Z</time>
      </trkpt>
      <trkpt lat="4.3657480" lon="-75.7308640">
        <ele>1622.6</ele>
        <time>2022-08-13T17:44:09Z</time>
      </trkpt>
      <trkpt lat="4.3656520" lon="-75.7308620">
        <ele>1622.2</ele>
        <time>2022-08-13T17:44:10Z</time>
      </trkpt>
      <trkpt lat="4.3653420" lon="-75.7308590">
        <ele>1621.6</ele>
        <time>2022-08-13T17:44:13Z</time>
      </trkpt>
      <trkpt lat="4.3651430" lon="-75.7308570">
        <ele>1620.6</ele>
        <time>2022-08-13T17:44:15Z</time>
      </trkpt>
      <trkpt lat="4.3649340" lon="-75.7308330">
        <ele>1619.4</ele>
        <time>2022-08-13T17:44:17Z</time>
      </trkpt>
      <trkpt lat="4.3647140" lon="-75.7307790">
        <ele>1618.0</ele>
        <time>2022-08-13T17:44:19Z</time>
      </trkpt>
      <trkpt lat="4.3644860" lon="-75.7307170">
        <ele>1616.6</ele>
        <time>2022-08-13T17:44:21Z</time>
      </trkpt>
      <trkpt lat="4.3643700" lon="-75.7306870">
        <ele>1616.2</ele>
        <time>2022-08-13T17:44:22Z</time>
      </trkpt>
      <trkpt lat="4.3640760" lon="-75.7305990">
        <ele>1615.0</ele>
        <time>2022-08-13T17:44:25Z</time>
      </trkpt>
      <trkpt lat="4.3639920" lon="-75.7305830">
        <ele>1614.2</ele>
        <time>2022-08-13T17:44:26Z</time>
      </trkpt>
      <trkpt lat="4.3639100" lon="-75.7305860">
        <ele>1613.0</ele>
        <time>2022-08-13T17:44:27Z</time>
      </trkpt>
      <trkpt lat="4.3638320" lon="-75.7306010">
        <ele>1612.0</ele>
        <time>2022-08-13T17:44:28Z</time>
      </trkpt>
      <trkpt lat="4.3637610" lon="-75.7306270">
        <ele>1610.8</ele>
        <time>2022-08-13T17:44:29Z</time>
      </trkpt>
      <trkpt lat="4.3635420" lon="-75.7307110">
        <ele>1610.0</ele>
        <time>2022-08-13T17:44:32Z</time>
      </trkpt>
      <trkpt lat="4.3634660" lon="-75.7307160">
        <ele>1609.6</ele>
        <time>2022-08-13T17:44:33Z</time>
      </trkpt>
      <trkpt lat="4.3633940" lon="-75.7307030">
        <ele>1609.4</ele>
        <time>2022-08-13T17:44:34Z</time>
      </trkpt>
      <trkpt lat="4.3632690" lon="-75.7306280">
        <ele>1609.2</ele>
        <time>2022-08-13T17:44:36Z</time>
      </trkpt>
      <trkpt lat="4.3632140" lon="-75.7305700">
        <ele>1609.2</ele>
        <time>2022-08-13T17:44:37Z</time>
      </trkpt>
      <trkpt lat="4.3630990" lon="-75.7304580">
        <ele>1609.0</ele>
        <time>2022-08-13T17:44:39Z</time>
      </trkpt>
      <trkpt lat="4.3629610" lon="-75.7303910">
        <ele>1609.0</ele>
        <time>2022-08-13T17:44:41Z</time>
      </trkpt>
      <trkpt lat="4.3628150" lon="-75.7303820">
        <ele>1608.8</ele>
        <time>2022-08-13T17:44:43Z</time>
      </trkpt>
      <trkpt lat="4.3627620" lon="-75.7303890">
        <ele>1608.8</ele>
        <time>2022-08-13T17:44:44Z</time>
      </trkpt>
      <trkpt lat="4.3627030" lon="-75.7303980">
        <ele>1608.4</ele>
        <time>2022-08-13T17:44:45Z</time>
      </trkpt>
      <trkpt lat="4.3624390" lon="-75.7304220">
        <ele>1608.0</ele>
        <time>2022-08-13T17:44:49Z</time>
      </trkpt>
      <trkpt lat="4.3623760" lon="-75.7304260">
        <ele>1608.0</ele>
        <time>2022-08-13T17:44:50Z</time>
      </trkpt>
      <trkpt lat="4.3621060" lon="-75.7304230">
        <ele>1607.4</ele>
        <time>2022-08-13T17:44:54Z</time>
      </trkpt>
      <trkpt lat="4.3620470" lon="-75.7304200">
        <ele>1607.2</ele>
        <time>2022-08-13T17:44:55Z</time>
      </trkpt>
      <trkpt lat="4.3619900" lon="-75.7304110">
        <ele>1607.2</ele>
        <time>2022-08-13T17:44:56Z</time>
      </trkpt>
      <trkpt lat="4.3618670" lon="-75.7303810">
        <ele>1607.2</ele>
        <time>2022-08-13T17:44:58Z</time>
      </trkpt>
      <trkpt lat="4.3617150" lon="-75.7303520">
        <ele>1607.0</ele>
        <time>2022-08-13T17:45:00Z</time>
      </trkpt>
      <trkpt lat="4.3615260" lon="-75.7303480">
        <ele>1607.0</ele>
        <time>2022-08-13T17:45:02Z</time>
      </trkpt>
      <trkpt lat="4.3611050" lon="-75.7303660">
        <ele>1605.8</ele>
        <time>2022-08-13T17:45:06Z</time>
      </trkpt>
      <trkpt lat="4.3610080" lon="-75.7303750">
        <ele>1605.0</ele>
        <time>2022-08-13T17:45:07Z</time>
      </trkpt>
      <trkpt lat="4.3609100" lon="-75.7303800">
        <ele>1603.6</ele>
        <time>2022-08-13T17:45:08Z</time>
      </trkpt>
      <trkpt lat="4.3608180" lon="-75.7303830">
        <ele>1602.4</ele>
        <time>2022-08-13T17:45:09Z</time>
      </trkpt>
      <trkpt lat="4.3607360" lon="-75.7303860">
        <ele>1601.0</ele>
        <time>2022-08-13T17:45:10Z</time>
      </trkpt>
      <trkpt lat="4.3606600" lon="-75.7303890">
        <ele>1600.0</ele>
        <time>2022-08-13T17:45:11Z</time>
      </trkpt>
      <trkpt lat="4.3605870" lon="-75.7303820">
        <ele>1598.6</ele>
        <time>2022-08-13T17:45:12Z</time>
      </trkpt>
      <trkpt lat="4.3605150" lon="-75.7303560">
        <ele>1597.4</ele>
        <time>2022-08-13T17:45:13Z</time>
      </trkpt>
      <trkpt lat="4.3604620" lon="-75.7303140">
        <ele>1596.4</ele>
        <time>2022-08-13T17:45:14Z</time>
      </trkpt>
      <trkpt lat="4.3604050" lon="-75.7302510">
        <ele>1595.4</ele>
        <time>2022-08-13T17:45:15Z</time>
      </trkpt>
      <trkpt lat="4.3603540" lon="-75.7301870">
        <ele>1594.4</ele>
        <time>2022-08-13T17:45:16Z</time>
      </trkpt>
      <trkpt lat="4.3602320" lon="-75.7300820">
        <ele>1592.6</ele>
        <time>2022-08-13T17:45:18Z</time>
      </trkpt>
      <trkpt lat="4.3601210" lon="-75.7300510">
        <ele>1591.8</ele>
        <time>2022-08-13T17:45:19Z</time>
      </trkpt>
      <trkpt lat="4.3600170" lon="-75.7300450">
        <ele>1591.2</ele>
        <time>2022-08-13T17:45:20Z</time>
      </trkpt>
      <trkpt lat="4.3598210" lon="-75.7300540">
        <ele>1590.6</ele>
        <time>2022-08-13T17:45:22Z</time>
      </trkpt>
      <trkpt lat="4.3597030" lon="-75.7300560">
        <ele>1589.6</ele>
        <time>2022-08-13T17:45:23Z</time>
      </trkpt>
      <trkpt lat="4.3596140" lon="-75.7300540">
        <ele>1588.4</ele>
        <time>2022-08-13T17:45:24Z</time>
      </trkpt>
      <trkpt lat="4.3595310" lon="-75.7300540">
        <ele>1586.8</ele>
        <time>2022-08-13T17:45:25Z</time>
      </trkpt>
      <trkpt lat="4.3594630" lon="-75.7300520">
        <ele>1585.4</ele>
        <time>2022-08-13T17:45:26Z</time>
      </trkpt>
      <trkpt lat="4.3594050" lon="-75.7300490">
        <ele>1583.8</ele>
        <time>2022-08-13T17:45:27Z</time>
      </trkpt>
      <trkpt lat="4.3593480" lon="-75.7300540">
        <ele>1581.6</ele>
        <time>2022-08-13T17:45:28Z</time>
      </trkpt>
      <trkpt lat="4.3592970" lon="-75.7300860">
        <ele>1579.6</ele>
        <time>2022-08-13T17:45:29Z</time>
      </trkpt>
      <trkpt lat="4.3592670" lon="-75.7301330">
        <ele>1577.6</ele>
        <time>2022-08-13T17:45:30Z</time>
      </trkpt>
      <trkpt lat="4.3592580" lon="-75.7301840">
        <ele>1576.2</ele>
        <time>2022-08-13T17:45:31Z</time>
      </trkpt>
      <trkpt lat="4.3592670" lon="-75.7302310">
        <ele>1575.4</ele>
        <time>2022-08-13T17:45:32Z</time>
      </trkpt>
      <trkpt lat="4.3592800" lon="-75.7302950">
        <ele>1575.0</ele>
        <time>2022-08-13T17:45:33Z</time>
      </trkpt>
      <trkpt lat="4.3592910" lon="-75.7303440">
        <ele>1574.8</ele>
        <time>2022-08-13T17:45:34Z</time>
      </trkpt>
      <trkpt lat="4.3593040" lon="-75.7303820">
        <ele>1574.8</ele>
        <time>2022-08-13T17:45:35Z</time>
      </trkpt>
      <trkpt lat="4.3593350" lon="-75.7305210">
        <ele>1574.6</ele>
        <time>2022-08-13T17:45:39Z</time>
      </trkpt>
      <trkpt lat="4.3593320" lon="-75.7305470">
        <ele>1574.6</ele>
        <time>2022-08-13T17:45:40Z</time>
      </trkpt>
      <trkpt lat="4.3593100" lon="-75.7306740">
        <ele>1576.0</ele>
        <time>2022-08-13T17:45:45Z</time>
      </trkpt>
      <trkpt lat="4.3593070" lon="-75.7306920">
        <ele>1576.4</ele>
        <time>2022-08-13T17:45:46Z</time>
      </trkpt>
      <trkpt lat="4.3593060" lon="-75.7307130">
        <ele>1576.8</ele>
        <time>2022-08-13T17:45:47Z</time>
      </trkpt>
      <trkpt lat="4.3592990" lon="-75.7307600">
        <ele>1577.8</ele>
        <time>2022-08-13T17:45:49Z</time>
      </trkpt>
      <trkpt lat="4.3592790" lon="-75.7308400">
        <ele>1578.8</ele>
        <time>2022-08-13T17:45:52Z</time>
      </trkpt>
      <trkpt lat="4.3592670" lon="-75.7308850">
        <ele>1579.4</ele>
        <time>2022-08-13T17:45:54Z</time>
      </trkpt>
      <trkpt lat="4.3592580" lon="-75.7309540">
        <ele>1580.2</ele>
        <time>2022-08-13T17:45:56Z</time>
      </trkpt>
      <trkpt lat="4.3592330" lon="-75.7310270">
        <ele>1581.4</ele>
        <time>2022-08-13T17:46:00Z</time>
      </trkpt>
      <trkpt lat="4.3592080" lon="-75.7311070">
        <ele>1582.4</ele>
        <time>2022-08-13T17:46:04Z</time>
      </trkpt>
      <trkpt lat="4.3591940" lon="-75.7311640">
        <ele>1583.2</ele>
        <time>2022-08-13T17:46:07Z</time>
      </trkpt>
      <trkpt lat="4.3591930" lon="-75.7311850">
        <ele>1583.4</ele>
        <time>2022-08-13T17:46:08Z</time>
      </trkpt>
      <trkpt lat="4.3591750" lon="-75.7313090">
        <ele>1584.4</ele>
        <time>2022-08-13T17:46:14Z</time>
      </trkpt>
      <trkpt lat="4.3591600" lon="-75.7314240">
        <ele>1585.6</ele>
        <time>2022-08-13T17:46:19Z</time>
      </trkpt>
      <trkpt lat="4.3591450" lon="-75.7314800">
        <ele>1585.8</ele>
        <time>2022-08-13T17:46:21Z</time>
      </trkpt>
      <trkpt lat="4.3590460" lon="-75.7316300">
        <ele>1586.4</ele>
        <time>2022-08-13T17:46:26Z</time>
      </trkpt>
      <trkpt lat="4.3589710" lon="-75.7316950">
        <ele>1586.4</ele>
        <time>2022-08-13T17:46:28Z</time>
      </trkpt>
      <trkpt lat="4.3588270" lon="-75.7318000">
        <ele>1586.4</ele>
        <time>2022-08-13T17:46:31Z</time>
      </trkpt>
      <trkpt lat="4.3587640" lon="-75.7319030">
        <ele>1586.4</ele>
        <time>2022-08-13T17:46:33Z</time>
      </trkpt>
      <trkpt lat="4.3587540" lon="-75.7319650">
        <ele>1586.2</ele>
        <time>2022-08-13T17:46:34Z</time>
      </trkpt>
      <trkpt lat="4.3587530" lon="-75.7320250">
        <ele>1586.0</ele>
        <time>2022-08-13T17:46:35Z</time>
      </trkpt>
      <trkpt lat="4.3587850" lon="-75.7321180">
        <ele>1585.2</ele>
        <time>2022-08-13T17:46:37Z</time>
      </trkpt>
      <trkpt lat="4.3588130" lon="-75.7321750">
        <ele>1584.6</ele>
        <time>2022-08-13T17:46:38Z</time>
      </trkpt>
      <trkpt lat="4.3588240" lon="-75.7322150">
        <ele>1584.0</ele>
        <time>2022-08-13T17:46:39Z</time>
      </trkpt>
      <trkpt lat="4.3588280" lon="-75.7323190">
        <ele>1583.6</ele>
        <time>2022-08-13T17:46:41Z</time>
      </trkpt>
      <trkpt lat="4.3588170" lon="-75.7324240">
        <ele>1583.4</ele>
        <time>2022-08-13T17:46:43Z</time>
      </trkpt>
      <trkpt lat="4.3587880" lon="-75.7325310">
        <ele>1583.4</ele>
        <time>2022-08-13T17:46:46Z</time>
      </trkpt>
      <trkpt lat="4.3587660" lon="-75.7326530">
        <ele>1583.4</ele>
        <time>2022-08-13T17:46:49Z</time>
      </trkpt>
      <trkpt lat="4.3587570" lon="-75.7327500">
        <ele>1583.4</ele>
        <time>2022-08-13T17:46:51Z</time>
      </trkpt>
      <trkpt lat="4.3587620" lon="-75.7328820">
        <ele>1583.4</ele>
        <time>2022-08-13T17:46:53Z</time>
      </trkpt>
      <trkpt lat="4.3587900" lon="-75.7329380">
        <ele>1583.4</ele>
        <time>2022-08-13T17:46:54Z</time>
      </trkpt>
      <trkpt lat="4.3588220" lon="-75.7329760">
        <ele>1583.4</ele>
        <time>2022-08-13T17:46:55Z</time>
      </trkpt>
      <trkpt lat="4.3588590" lon="-75.7330020">
        <ele>1583.4</ele>
        <time>2022-08-13T17:46:56Z</time>
      </trkpt>
      <trkpt lat="4.3588920" lon="-75.7330240">
        <ele>1583.4</ele>
        <time>2022-08-13T17:46:57Z</time>
      </trkpt>
      <trkpt lat="4.3589950" lon="-75.7330750">
        <ele>1583.4</ele>
        <time>2022-08-13T17:46:59Z</time>
      </trkpt>
      <trkpt lat="4.3590260" lon="-75.7331050">
        <ele>1583.4</ele>
        <time>2022-08-13T17:47:00Z</time>
      </trkpt>
      <trkpt lat="4.3591060" lon="-75.7332610">
        <ele>1583.6</ele>
        <time>2022-08-13T17:47:05Z</time>
      </trkpt>
      <trkpt lat="4.3590920" lon="-75.7333650">
        <ele>1583.8</ele>
        <time>2022-08-13T17:47:08Z</time>
      </trkpt>
      <trkpt lat="4.3590720" lon="-75.7333960">
        <ele>1584.0</ele>
        <time>2022-08-13T17:47:09Z</time>
      </trkpt>
      <trkpt lat="4.3589000" lon="-75.7335580">
        <ele>1584.2</ele>
        <time>2022-08-13T17:47:15Z</time>
      </trkpt>
      <trkpt lat="4.3588290" lon="-75.7337240">
        <ele>1584.2</ele>
        <time>2022-08-13T17:47:19Z</time>
      </trkpt>
      <trkpt lat="4.3588120" lon="-75.7338190">
        <ele>1584.2</ele>
        <time>2022-08-13T17:47:21Z</time>
      </trkpt>
      <trkpt lat="4.3588180" lon="-75.7339360">
        <ele>1583.8</ele>
        <time>2022-08-13T17:47:23Z</time>
      </trkpt>
      <trkpt lat="4.3588530" lon="-75.7340240">
        <ele>1583.4</ele>
        <time>2022-08-13T17:47:25Z</time>
      </trkpt>
      <trkpt lat="4.3589130" lon="-75.7341230">
        <ele>1582.6</ele>
        <time>2022-08-13T17:47:27Z</time>
      </trkpt>
      <trkpt lat="4.3589420" lon="-75.7341560">
        <ele>1582.0</ele>
        <time>2022-08-13T17:47:28Z</time>
      </trkpt>
      <trkpt lat="4.3589730" lon="-75.7341870">
        <ele>1581.4</ele>
        <time>2022-08-13T17:47:29Z</time>
      </trkpt>
      <trkpt lat="4.3590330" lon="-75.7342510">
        <ele>1581.0</ele>
        <time>2022-08-13T17:47:31Z</time>
      </trkpt>
      <trkpt lat="4.3590680" lon="-75.7342740">
        <ele>1581.0</ele>
        <time>2022-08-13T17:47:32Z</time>
      </trkpt>
      <trkpt lat="4.3592470" lon="-75.7344040">
        <ele>1581.0</ele>
        <time>2022-08-13T17:47:38Z</time>
      </trkpt>
      <trkpt lat="4.3593590" lon="-75.7345480">
        <ele>1581.8</ele>
        <time>2022-08-13T17:47:43Z</time>
      </trkpt>
      <trkpt lat="4.3593650" lon="-75.7345920">
        <ele>1582.0</ele>
        <time>2022-08-13T17:47:44Z</time>
      </trkpt>
      <trkpt lat="4.3593610" lon="-75.7346380">
        <ele>1582.0</ele>
        <time>2022-08-13T17:47:45Z</time>
      </trkpt>
      <trkpt lat="4.3593490" lon="-75.7346850">
        <ele>1582.0</ele>
        <time>2022-08-13T17:47:46Z</time>
      </trkpt>
      <trkpt lat="4.3593340" lon="-75.7347350">
        <ele>1582.0</ele>
        <time>2022-08-13T17:47:47Z</time>
      </trkpt>
      <trkpt lat="4.3592970" lon="-75.7348340">
        <ele>1582.0</ele>
        <time>2022-08-13T17:47:49Z</time>
      </trkpt>
      <trkpt lat="4.3592560" lon="-75.7348860">
        <ele>1582.0</ele>
        <time>2022-08-13T17:47:50Z</time>
      </trkpt>
      <trkpt lat="4.3591860" lon="-75.7349430">
        <ele>1582.0</ele>
        <time>2022-08-13T17:47:51Z</time>
      </trkpt>
      <trkpt lat="4.3590470" lon="-75.7350330">
        <ele>1582.0</ele>
        <time>2022-08-13T17:47:53Z</time>
      </trkpt>
      <trkpt lat="4.3589860" lon="-75.7350620">
        <ele>1582.0</ele>
        <time>2022-08-13T17:47:54Z</time>
      </trkpt>
      <trkpt lat="4.3588380" lon="-75.7351380">
        <ele>1581.2</ele>
        <time>2022-08-13T17:47:56Z</time>
      </trkpt>
      <trkpt lat="4.3587520" lon="-75.7351840">
        <ele>1580.6</ele>
        <time>2022-08-13T17:47:57Z</time>
      </trkpt>
      <trkpt lat="4.3586440" lon="-75.7352600">
        <ele>1579.0</ele>
        <time>2022-08-13T17:47:59Z</time>
      </trkpt>
      <trkpt lat="4.3586000" lon="-75.7353260">
        <ele>1577.8</ele>
        <time>2022-08-13T17:48:00Z</time>
      </trkpt>
      <trkpt lat="4.3585820" lon="-75.7353920">
        <ele>1576.4</ele>
        <time>2022-08-13T17:48:01Z</time>
      </trkpt>
      <trkpt lat="4.3585720" lon="-75.7354630">
        <ele>1575.2</ele>
        <time>2022-08-13T17:48:02Z</time>
      </trkpt>
      <trkpt lat="4.3585690" lon="-75.7355240">
        <ele>1573.8</ele>
        <time>2022-08-13T17:48:03Z</time>
      </trkpt>
      <trkpt lat="4.3585670" lon="-75.7356040">
        <ele>1572.8</ele>
        <time>2022-08-13T17:48:04Z</time>
      </trkpt>
      <trkpt lat="4.3585600" lon="-75.7357020">
        <ele>1571.8</ele>
        <time>2022-08-13T17:48:05Z</time>
      </trkpt>
      <trkpt lat="4.3585580" lon="-75.7357740">
        <ele>1570.6</ele>
        <time>2022-08-13T17:48:06Z</time>
      </trkpt>
      <trkpt lat="4.3585520" lon="-75.7359450">
        <ele>1569.2</ele>
        <time>2022-08-13T17:48:08Z</time>
      </trkpt>
      <trkpt lat="4.3585450" lon="-75.7360420">
        <ele>1568.2</ele>
        <time>2022-08-13T17:48:09Z</time>
      </trkpt>
      <trkpt lat="4.3585640" lon="-75.7362630">
        <ele>1567.4</ele>
        <time>2022-08-13T17:48:11Z</time>
      </trkpt>
      <trkpt lat="4.3585860" lon="-75.7363670">
        <ele>1566.6</ele>
        <time>2022-08-13T17:48:12Z</time>
      </trkpt>
      <trkpt lat="4.3586470" lon="-75.7366140">
        <ele>1565.2</ele>
        <time>2022-08-13T17:48:15Z</time>
      </trkpt>
      <trkpt lat="4.3586630" lon="-75.7366770">
        <ele>1564.4</ele>
        <time>2022-08-13T17:48:16Z</time>
      </trkpt>
      <trkpt lat="4.3586710" lon="-75.7367390">
        <ele>1563.6</ele>
        <time>2022-08-13T17:48:17Z</time>
      </trkpt>
      <trkpt lat="4.3586790" lon="-75.7368810">
        <ele>1561.6</ele>
        <time>2022-08-13T17:48:19Z</time>
      </trkpt>
      <trkpt lat="4.3586760" lon="-75.7369640">
        <ele>1560.6</ele>
        <time>2022-08-13T17:48:20Z</time>
      </trkpt>
      <trkpt lat="4.3586640" lon="-75.7370240">
        <ele>1559.8</ele>
        <time>2022-08-13T17:48:21Z</time>
      </trkpt>
      <trkpt lat="4.3586540" lon="-75.7370800">
        <ele>1559.2</ele>
        <time>2022-08-13T17:48:22Z</time>
      </trkpt>
      <trkpt lat="4.3586480" lon="-75.7371200">
        <ele>1558.8</ele>
        <time>2022-08-13T17:48:23Z</time>
      </trkpt>
      <trkpt lat="4.3586510" lon="-75.7371760">
        <ele>1558.4</ele>
        <time>2022-08-13T17:48:24Z</time>
      </trkpt>
      <trkpt lat="4.3586580" lon="-75.7372680">
        <ele>1557.0</ele>
        <time>2022-08-13T17:48:26Z</time>
      </trkpt>
      <trkpt lat="4.3586640" lon="-75.7373030">
        <ele>1556.2</ele>
        <time>2022-08-13T17:48:27Z</time>
      </trkpt>
      <trkpt lat="4.3586780" lon="-75.7373430">
        <ele>1555.4</ele>
        <time>2022-08-13T17:48:28Z</time>
      </trkpt>
      <trkpt lat="4.3587080" lon="-75.7373820">
        <ele>1554.8</ele>
        <time>2022-08-13T17:48:29Z</time>
      </trkpt>
      <trkpt lat="4.3587370" lon="-75.7374040">
        <ele>1554.2</ele>
        <time>2022-08-13T17:48:30Z</time>
      </trkpt>
      <trkpt lat="4.3587750" lon="-75.7374300">
        <ele>1553.8</ele>
        <time>2022-08-13T17:48:31Z</time>
      </trkpt>
      <trkpt lat="4.3588540" lon="-75.7374870">
        <ele>1553.0</ele>
        <time>2022-08-13T17:48:33Z</time>
      </trkpt>
      <trkpt lat="4.3589040" lon="-75.7375160">
        <ele>1552.4</ele>
        <time>2022-08-13T17:48:34Z</time>
      </trkpt>
      <trkpt lat="4.3589510" lon="-75.7375610">
        <ele>1551.6</ele>
        <time>2022-08-13T17:48:36Z</time>
      </trkpt>
      <trkpt lat="4.3590090" lon="-75.7376080">
        <ele>1549.8</ele>
        <time>2022-08-13T17:48:38Z</time>
      </trkpt>
      <trkpt lat="4.3590410" lon="-75.7376260">
        <ele>1548.6</ele>
        <time>2022-08-13T17:48:39Z</time>
      </trkpt>
      <trkpt lat="4.3590700" lon="-75.7376520">
        <ele>1547.4</ele>
        <time>2022-08-13T17:48:40Z</time>
      </trkpt>
      <trkpt lat="4.3591020" lon="-75.7376790">
        <ele>1546.4</ele>
        <time>2022-08-13T17:48:41Z</time>
      </trkpt>
      <trkpt lat="4.3591360" lon="-75.7377060">
        <ele>1545.2</ele>
        <time>2022-08-13T17:48:42Z</time>
      </trkpt>
      <trkpt lat="4.3591710" lon="-75.7377350">
        <ele>1544.2</ele>
        <time>2022-08-13T17:48:43Z</time>
      </trkpt>
      <trkpt lat="4.3592050" lon="-75.7377710">
        <ele>1543.4</ele>
        <time>2022-08-13T17:48:44Z</time>
      </trkpt>
      <trkpt lat="4.3592360" lon="-75.7378060">
        <ele>1542.6</ele>
        <time>2022-08-13T17:48:45Z</time>
      </trkpt>
      <trkpt lat="4.3592700" lon="-75.7378350">
        <ele>1541.6</ele>
        <time>2022-08-13T17:48:46Z</time>
      </trkpt>
      <trkpt lat="4.3593350" lon="-75.7378890">
        <ele>1539.8</ele>
        <time>2022-08-13T17:48:48Z</time>
      </trkpt>
      <trkpt lat="4.3593820" lon="-75.7379350">
        <ele>1538.4</ele>
        <time>2022-08-13T17:48:50Z</time>
      </trkpt>
      <trkpt lat="4.3594050" lon="-75.7380130">
        <ele>1537.6</ele>
        <time>2022-08-13T17:48:53Z</time>
      </trkpt>
      <trkpt lat="4.3593910" lon="-75.7380330">
        <ele>1537.4</ele>
        <time>2022-08-13T17:48:54Z</time>
      </trkpt>
      <trkpt lat="4.3592800" lon="-75.7381370">
        <ele>1537.4</ele>
        <time>2022-08-13T17:49:00Z</time>
      </trkpt>
      <trkpt lat="4.3592640" lon="-75.7381530">
        <ele>1537.4</ele>
        <time>2022-08-13T17:49:01Z</time>
      </trkpt>
      <trkpt lat="4.3591890" lon="-75.7382440">
        <ele>1537.8</ele>
        <time>2022-08-13T17:49:06Z</time>
      </trkpt>
      <trkpt lat="4.3591930" lon="-75.7383310">
        <ele>1539.0</ele>
        <time>2022-08-13T17:49:10Z</time>
      </trkpt>
      <trkpt lat="4.3592860" lon="-75.7384200">
        <ele>1539.6</ele>
        <time>2022-08-13T17:49:14Z</time>
      </trkpt>
      <trkpt lat="4.3593100" lon="-75.7384450">
        <ele>1539.6</ele>
        <time>2022-08-13T17:49:15Z</time>
      </trkpt>
      <trkpt lat="4.3594350" lon="-75.7385470">
        <ele>1539.6</ele>
        <time>2022-08-13T17:49:20Z</time>
      </trkpt>
      <trkpt lat="4.3595910" lon="-75.7387700">
        <ele>1539.0</ele>
        <time>2022-08-13T17:49:28Z</time>
      </trkpt>
      <trkpt lat="4.3597540" lon="-75.7389530">
        <ele>1539.0</ele>
        <time>2022-08-13T17:49:34Z</time>
      </trkpt>
      <trkpt lat="4.3599010" lon="-75.7391100">
        <ele>1538.8</ele>
        <time>2022-08-13T17:49:39Z</time>
      </trkpt>
      <trkpt lat="4.3599320" lon="-75.7391450">
        <ele>1538.8</ele>
        <time>2022-08-13T17:49:40Z</time>
      </trkpt>
      <trkpt lat="4.3600500" lon="-75.7392730">
        <ele>1538.8</ele>
        <time>2022-08-13T17:49:44Z</time>
      </trkpt>
      <trkpt lat="4.3600850" lon="-75.7393020">
        <ele>1538.8</ele>
        <time>2022-08-13T17:49:45Z</time>
      </trkpt>
      <trkpt lat="4.3601480" lon="-75.7393620">
        <ele>1538.6</ele>
        <time>2022-08-13T17:49:47Z</time>
      </trkpt>
      <trkpt lat="4.3602020" lon="-75.7394160">
        <ele>1538.6</ele>
        <time>2022-08-13T17:49:49Z</time>
      </trkpt>
      <trkpt lat="4.3602620" lon="-75.7394910">
        <ele>1538.6</ele>
        <time>2022-08-13T17:49:52Z</time>
      </trkpt>
      <trkpt lat="4.3603560" lon="-75.7396200">
        <ele>1538.8</ele>
        <time>2022-08-13T17:49:58Z</time>
      </trkpt>
      <trkpt lat="4.3603770" lon="-75.7397330">
        <ele>1540.0</ele>
        <time>2022-08-13T17:50:02Z</time>
      </trkpt>
      <trkpt lat="4.3603710" lon="-75.7397990">
        <ele>1540.6</ele>
        <time>2022-08-13T17:50:04Z</time>
      </trkpt>
      <trkpt lat="4.3603730" lon="-75.7399510">
        <ele>1540.8</ele>
        <time>2022-08-13T17:50:07Z</time>
      </trkpt>
      <trkpt lat="4.3603820" lon="-75.7399990">
        <ele>1540.8</ele>
        <time>2022-08-13T17:50:08Z</time>
      </trkpt>
      <trkpt lat="4.3604660" lon="-75.7403200">
        <ele>1540.8</ele>
        <time>2022-08-13T17:50:13Z</time>
      </trkpt>
      <trkpt lat="4.3605410" lon="-75.7405810">
        <ele>1538.8</ele>
        <time>2022-08-13T17:50:18Z</time>
      </trkpt>
      <trkpt lat="4.3606030" lon="-75.7407710">
        <ele>1538.0</ele>
        <time>2022-08-13T17:50:21Z</time>
      </trkpt>
      <trkpt lat="4.3606590" lon="-75.7409030">
        <ele>1537.8</ele>
        <time>2022-08-13T17:50:23Z</time>
      </trkpt>
      <trkpt lat="4.3607450" lon="-75.7411130">
        <ele>1537.4</ele>
        <time>2022-08-13T17:50:26Z</time>
      </trkpt>
      <trkpt lat="4.3608140" lon="-75.7413140">
        <ele>1536.6</ele>
        <time>2022-08-13T17:50:29Z</time>
      </trkpt>
      <trkpt lat="4.3608590" lon="-75.7414750">
        <ele>1535.4</ele>
        <time>2022-08-13T17:50:31Z</time>
      </trkpt>
      <trkpt lat="4.3608730" lon="-75.7415320">
        <ele>1534.4</ele>
        <time>2022-08-13T17:50:32Z</time>
      </trkpt>
      <trkpt lat="4.3608930" lon="-75.7416050">
        <ele>1533.8</ele>
        <time>2022-08-13T17:50:33Z</time>
      </trkpt>
      <trkpt lat="4.3609360" lon="-75.7417470">
        <ele>1532.6</ele>
        <time>2022-08-13T17:50:35Z</time>
      </trkpt>
      <trkpt lat="4.3610170" lon="-75.7420430">
        <ele>1531.4</ele>
        <time>2022-08-13T17:50:39Z</time>
      </trkpt>
      <trkpt lat="4.3610340" lon="-75.7420990">
        <ele>1531.0</ele>
        <time>2022-08-13T17:50:40Z</time>
      </trkpt>
      <trkpt lat="4.3611270" lon="-75.7422990">
        <ele>1530.0</ele>
        <time>2022-08-13T17:50:43Z</time>
      </trkpt>
      <trkpt lat="4.3612180" lon="-75.7424260">
        <ele>1529.8</ele>
        <time>2022-08-13T17:50:45Z</time>
      </trkpt>
      <trkpt lat="4.3614300" lon="-75.7426250">
        <ele>1528.8</ele>
        <time>2022-08-13T17:50:49Z</time>
      </trkpt>
      <trkpt lat="4.3614690" lon="-75.7426650">
        <ele>1528.4</ele>
        <time>2022-08-13T17:50:50Z</time>
      </trkpt>
      <trkpt lat="4.3615520" lon="-75.7427710">
        <ele>1527.0</ele>
        <time>2022-08-13T17:50:52Z</time>
      </trkpt>
      <trkpt lat="4.3615720" lon="-75.7428460">
        <ele>1525.8</ele>
        <time>2022-08-13T17:50:53Z</time>
      </trkpt>
      <trkpt lat="4.3615940" lon="-75.7429410">
        <ele>1524.6</ele>
        <time>2022-08-13T17:50:54Z</time>
      </trkpt>
      <trkpt lat="4.3616150" lon="-75.7430020">
        <ele>1523.6</ele>
        <time>2022-08-13T17:50:55Z</time>
      </trkpt>
      <trkpt lat="4.3616500" lon="-75.7430740">
        <ele>1522.4</ele>
        <time>2022-08-13T17:50:56Z</time>
      </trkpt>
      <trkpt lat="4.3617030" lon="-75.7431410">
        <ele>1521.2</ele>
        <time>2022-08-13T17:50:57Z</time>
      </trkpt>
      <trkpt lat="4.3617730" lon="-75.7432020">
        <ele>1520.2</ele>
        <time>2022-08-13T17:50:58Z</time>
      </trkpt>
      <trkpt lat="4.3618560" lon="-75.7432530">
        <ele>1518.8</ele>
        <time>2022-08-13T17:50:59Z</time>
      </trkpt>
      <trkpt lat="4.3619740" lon="-75.7433000">
        <ele>1517.4</ele>
        <time>2022-08-13T17:51:00Z</time>
      </trkpt>
      <trkpt lat="4.3621730" lon="-75.7433580">
        <ele>1516.0</ele>
        <time>2022-08-13T17:51:02Z</time>
      </trkpt>
      <trkpt lat="4.3622830" lon="-75.7433980">
        <ele>1514.8</ele>
        <time>2022-08-13T17:51:03Z</time>
      </trkpt>
      <trkpt lat="4.3623890" lon="-75.7434470">
        <ele>1513.6</ele>
        <time>2022-08-13T17:51:04Z</time>
      </trkpt>
      <trkpt lat="4.3624910" lon="-75.7435030">
        <ele>1512.0</ele>
        <time>2022-08-13T17:51:05Z</time>
      </trkpt>
      <trkpt lat="4.3625880" lon="-75.7435570">
        <ele>1510.6</ele>
        <time>2022-08-13T17:51:06Z</time>
      </trkpt>
      <trkpt lat="4.3626810" lon="-75.7436030">
        <ele>1509.0</ele>
        <time>2022-08-13T17:51:07Z</time>
      </trkpt>
      <trkpt lat="4.3627940" lon="-75.7436480">
        <ele>1507.2</ele>
        <time>2022-08-13T17:51:08Z</time>
      </trkpt>
      <trkpt lat="4.3628860" lon="-75.7436730">
        <ele>1505.8</ele>
        <time>2022-08-13T17:51:09Z</time>
      </trkpt>
      <trkpt lat="4.3629610" lon="-75.7436920">
        <ele>1504.0</ele>
        <time>2022-08-13T17:51:10Z</time>
      </trkpt>
      <trkpt lat="4.3630570" lon="-75.7437270">
        <ele>1502.2</ele>
        <time>2022-08-13T17:51:11Z</time>
      </trkpt>
      <trkpt lat="4.3631490" lon="-75.7437760">
        <ele>1500.6</ele>
        <time>2022-08-13T17:51:12Z</time>
      </trkpt>
      <trkpt lat="4.3632340" lon="-75.7438420">
        <ele>1499.2</ele>
        <time>2022-08-13T17:51:13Z</time>
      </trkpt>
      <trkpt lat="4.3633060" lon="-75.7439230">
        <ele>1498.0</ele>
        <time>2022-08-13T17:51:14Z</time>
      </trkpt>
      <trkpt lat="4.3633740" lon="-75.7440100">
        <ele>1496.8</ele>
        <time>2022-08-13T17:51:15Z</time>
      </trkpt>
      <trkpt lat="4.3634930" lon="-75.7441870">
        <ele>1494.8</ele>
        <time>2022-08-13T17:51:17Z</time>
      </trkpt>
      <trkpt lat="4.3635890" lon="-75.7443690">
        <ele>1492.8</ele>
        <time>2022-08-13T17:51:19Z</time>
      </trkpt>
      <trkpt lat="4.3636330" lon="-75.7444590">
        <ele>1491.4</ele>
        <time>2022-08-13T17:51:20Z</time>
      </trkpt>
      <trkpt lat="4.3636760" lon="-75.7445480">
        <ele>1489.8</ele>
        <time>2022-08-13T17:51:21Z</time>
      </trkpt>
      <trkpt lat="4.3637250" lon="-75.7446520">
        <ele>1488.6</ele>
        <time>2022-08-13T17:51:22Z</time>
      </trkpt>
      <trkpt lat="4.3637990" lon="-75.7448080">
        <ele>1487.0</ele>
        <time>2022-08-13T17:51:24Z</time>
      </trkpt>
      <trkpt lat="4.3638770" lon="-75.7449820">
        <ele>1486.8</ele>
        <time>2022-08-13T17:51:26Z</time>
      </trkpt>
      <trkpt lat="4.3640460" lon="-75.7453690">
        <ele>1486.4</ele>
        <time>2022-08-13T17:51:31Z</time>
      </trkpt>
      <trkpt lat="4.3642250" lon="-75.7459530">
        <ele>1486.2</ele>
        <time>2022-08-13T17:51:39Z</time>
      </trkpt>
      <trkpt lat="4.3642440" lon="-75.7460290">
        <ele>1486.0</ele>
        <time>2022-08-13T17:51:40Z</time>
      </trkpt>
      <trkpt lat="4.3642610" lon="-75.7461060">
        <ele>1485.8</ele>
        <time>2022-08-13T17:51:41Z</time>
      </trkpt>
      <trkpt lat="4.3644030" lon="-75.7464960">
        <ele>1485.4</ele>
        <time>2022-08-13T17:51:46Z</time>
      </trkpt>
      <trkpt lat="4.3645350" lon="-75.7467360">
        <ele>1484.6</ele>
        <time>2022-08-13T17:51:49Z</time>
      </trkpt>
      <trkpt lat="4.3646690" lon="-75.7469670">
        <ele>1483.8</ele>
        <time>2022-08-13T17:51:52Z</time>
      </trkpt>
      <trkpt lat="4.3647120" lon="-75.7470360">
        <ele>1483.4</ele>
        <time>2022-08-13T17:51:53Z</time>
      </trkpt>
      <trkpt lat="4.3647580" lon="-75.7470980">
        <ele>1482.8</ele>
        <time>2022-08-13T17:51:54Z</time>
      </trkpt>
      <trkpt lat="4.3648090" lon="-75.7471540">
        <ele>1482.2</ele>
        <time>2022-08-13T17:51:55Z</time>
      </trkpt>
      <trkpt lat="4.3648640" lon="-75.7472000">
        <ele>1482.0</ele>
        <time>2022-08-13T17:51:56Z</time>
      </trkpt>
      <trkpt lat="4.3650260" lon="-75.7472760">
        <ele>1481.8</ele>
        <time>2022-08-13T17:51:59Z</time>
      </trkpt>
      <trkpt lat="4.3651370" lon="-75.7473270">
        <ele>1481.6</ele>
        <time>2022-08-13T17:52:02Z</time>
      </trkpt>
      <trkpt lat="4.3651660" lon="-75.7473480">
        <ele>1481.6</ele>
        <time>2022-08-13T17:52:03Z</time>
      </trkpt>
      <trkpt lat="4.3652570" lon="-75.7474310">
        <ele>1483.4</ele>
        <time>2022-08-13T17:52:07Z</time>
      </trkpt>
      <trkpt lat="4.3652770" lon="-75.7474560">
        <ele>1484.4</ele>
        <time>2022-08-13T17:52:08Z</time>
      </trkpt>
      <trkpt lat="4.3652950" lon="-75.7474780">
        <ele>1485.4</ele>
        <time>2022-08-13T17:52:09Z</time>
      </trkpt>
      <trkpt lat="4.3653330" lon="-75.7475300">
        <ele>1486.6</ele>
        <time>2022-08-13T17:52:11Z</time>
      </trkpt>
      <trkpt lat="4.3653920" lon="-75.7476220">
        <ele>1488.2</ele>
        <time>2022-08-13T17:52:14Z</time>
      </trkpt>
      <trkpt lat="4.3654350" lon="-75.7476840">
        <ele>1488.4</ele>
        <time>2022-08-13T17:52:16Z</time>
      </trkpt>
      <trkpt lat="4.3655050" lon="-75.7478150">
        <ele>1489.2</ele>
        <time>2022-08-13T17:52:20Z</time>
      </trkpt>
      <trkpt lat="4.3655600" lon="-75.7479370">
        <ele>1489.4</ele>
        <time>2022-08-13T17:52:23Z</time>
      </trkpt>
      <trkpt lat="4.3656890" lon="-75.7482060">
        <ele>1489.4</ele>
        <time>2022-08-13T17:52:28Z</time>
      </trkpt>
      <trkpt lat="4.3658880" lon="-75.7486250">
        <ele>1488.4</ele>
        <time>2022-08-13T17:52:34Z</time>
      </trkpt>
      <trkpt lat="4.3659280" lon="-75.7487000">
        <ele>1487.8</ele>
        <time>2022-08-13T17:52:35Z</time>
      </trkpt>
      <trkpt lat="4.3660240" lon="-75.7488330">
        <ele>1486.6</ele>
        <time>2022-08-13T17:52:37Z</time>
      </trkpt>
      <trkpt lat="4.3660900" lon="-75.7488900">
        <ele>1486.2</ele>
        <time>2022-08-13T17:52:38Z</time>
      </trkpt>
      <trkpt lat="4.3661760" lon="-75.7489560">
        <ele>1485.6</ele>
        <time>2022-08-13T17:52:39Z</time>
      </trkpt>
      <trkpt lat="4.3663950" lon="-75.7490970">
        <ele>1484.2</ele>
        <time>2022-08-13T17:52:42Z</time>
      </trkpt>
      <trkpt lat="4.3664710" lon="-75.7491360">
        <ele>1483.6</ele>
        <time>2022-08-13T17:52:43Z</time>
      </trkpt>
      <trkpt lat="4.3665730" lon="-75.7491710">
        <ele>1482.8</ele>
        <time>2022-08-13T17:52:44Z</time>
      </trkpt>
      <trkpt lat="4.3666720" lon="-75.7491920">
        <ele>1482.0</ele>
        <time>2022-08-13T17:52:45Z</time>
      </trkpt>
      <trkpt lat="4.3667460" lon="-75.7492110">
        <ele>1481.0</ele>
        <time>2022-08-13T17:52:46Z</time>
      </trkpt>
      <trkpt lat="4.3668320" lon="-75.7492360">
        <ele>1479.8</ele>
        <time>2022-08-13T17:52:47Z</time>
      </trkpt>
      <trkpt lat="4.3669220" lon="-75.7492610">
        <ele>1478.8</ele>
        <time>2022-08-13T17:52:48Z</time>
      </trkpt>
      <trkpt lat="4.3670080" lon="-75.7492830">
        <ele>1478.0</ele>
        <time>2022-08-13T17:52:49Z</time>
      </trkpt>
      <trkpt lat="4.3670950" lon="-75.7492960">
        <ele>1477.4</ele>
        <time>2022-08-13T17:52:50Z</time>
      </trkpt>
      <trkpt lat="4.3672010" lon="-75.7492930">
        <ele>1476.4</ele>
        <time>2022-08-13T17:52:51Z</time>
      </trkpt>
      <trkpt lat="4.3672700" lon="-75.7492810">
        <ele>1475.4</ele>
        <time>2022-08-13T17:52:52Z</time>
      </trkpt>
      <trkpt lat="4.3673530" lon="-75.7492770">
        <ele>1474.6</ele>
        <time>2022-08-13T17:52:53Z</time>
      </trkpt>
      <trkpt lat="4.3675040" lon="-75.7493190">
        <ele>1473.0</ele>
        <time>2022-08-13T17:52:55Z</time>
      </trkpt>
      <trkpt lat="4.3676310" lon="-75.7494280">
        <ele>1471.2</ele>
        <time>2022-08-13T17:52:57Z</time>
      </trkpt>
      <trkpt lat="4.3676690" lon="-75.7495120">
        <ele>1470.4</ele>
        <time>2022-08-13T17:52:58Z</time>
      </trkpt>
      <trkpt lat="4.3676910" lon="-75.7496090">
        <ele>1469.6</ele>
        <time>2022-08-13T17:52:59Z</time>
      </trkpt>
      <trkpt lat="4.3677090" lon="-75.7498250">
        <ele>1467.8</ele>
        <time>2022-08-13T17:53:01Z</time>
      </trkpt>
      <trkpt lat="4.3677720" lon="-75.7500360">
        <ele>1466.0</ele>
        <time>2022-08-13T17:53:03Z</time>
      </trkpt>
      <trkpt lat="4.3678190" lon="-75.7501290">
        <ele>1466.0</ele>
        <time>2022-08-13T17:53:04Z</time>
      </trkpt>
      <trkpt lat="4.3679200" lon="-75.7503270">
        <ele>1464.0</ele>
        <time>2022-08-13T17:53:06Z</time>
      </trkpt>
      <trkpt lat="4.3679520" lon="-75.7504000">
        <ele>1462.6</ele>
        <time>2022-08-13T17:53:07Z</time>
      </trkpt>
      <trkpt lat="4.3679850" lon="-75.7504900">
        <ele>1461.2</ele>
        <time>2022-08-13T17:53:08Z</time>
      </trkpt>
      <trkpt lat="4.3680120" lon="-75.7505770">
        <ele>1459.6</ele>
        <time>2022-08-13T17:53:09Z</time>
      </trkpt>
      <trkpt lat="4.3680260" lon="-75.7506660">
        <ele>1458.0</ele>
        <time>2022-08-13T17:53:10Z</time>
      </trkpt>
      <trkpt lat="4.3680230" lon="-75.7507540">
        <ele>1456.6</ele>
        <time>2022-08-13T17:53:11Z</time>
      </trkpt>
      <trkpt lat="4.3680070" lon="-75.7508410">
        <ele>1455.6</ele>
        <time>2022-08-13T17:53:12Z</time>
      </trkpt>
      <trkpt lat="4.3679630" lon="-75.7509950">
        <ele>1454.0</ele>
        <time>2022-08-13T17:53:14Z</time>
      </trkpt>
      <trkpt lat="4.3679480" lon="-75.7510700">
        <ele>1453.2</ele>
        <time>2022-08-13T17:53:15Z</time>
      </trkpt>
      <trkpt lat="4.3679570" lon="-75.7511480">
        <ele>1452.2</ele>
        <time>2022-08-13T17:53:16Z</time>
      </trkpt>
      <trkpt lat="4.3679960" lon="-75.7512270">
        <ele>1451.2</ele>
        <time>2022-08-13T17:53:17Z</time>
      </trkpt>
      <trkpt lat="4.3680580" lon="-75.7513060">
        <ele>1450.4</ele>
        <time>2022-08-13T17:53:18Z</time>
      </trkpt>
      <trkpt lat="4.3681270" lon="-75.7513900">
        <ele>1449.2</ele>
        <time>2022-08-13T17:53:19Z</time>
      </trkpt>
      <trkpt lat="4.3682000" lon="-75.7514780">
        <ele>1448.0</ele>
        <time>2022-08-13T17:53:20Z</time>
      </trkpt>
      <trkpt lat="4.3682750" lon="-75.7515790">
        <ele>1446.6</ele>
        <time>2022-08-13T17:53:21Z</time>
      </trkpt>
      <trkpt lat="4.3683490" lon="-75.7516890">
        <ele>1445.2</ele>
        <time>2022-08-13T17:53:22Z</time>
      </trkpt>
      <trkpt lat="4.3684170" lon="-75.7518130">
        <ele>1444.0</ele>
        <time>2022-08-13T17:53:23Z</time>
      </trkpt>
      <trkpt lat="4.3684730" lon="-75.7519410">
        <ele>1442.8</ele>
        <time>2022-08-13T17:53:24Z</time>
      </trkpt>
      <trkpt lat="4.3685200" lon="-75.7520720">
        <ele>1441.2</ele>
        <time>2022-08-13T17:53:25Z</time>
      </trkpt>
      <trkpt lat="4.3685750" lon="-75.7522260">
        <ele>1439.2</ele>
        <time>2022-08-13T17:53:26Z</time>
      </trkpt>
      <trkpt lat="4.3686300" lon="-75.7523470">
        <ele>1437.0</ele>
        <time>2022-08-13T17:53:27Z</time>
      </trkpt>
      <trkpt lat="4.3686900" lon="-75.7524610">
        <ele>1434.4</ele>
        <time>2022-08-13T17:53:28Z</time>
      </trkpt>
      <trkpt lat="4.3687470" lon="-75.7525660">
        <ele>1434.4</ele>
        <time>2022-08-13T17:53:29Z</time>
      </trkpt>
      <trkpt lat="4.3688010" lon="-75.7526710">
        <ele>1432.4</ele>
        <time>2022-08-13T17:53:30Z</time>
      </trkpt>
      <trkpt lat="4.3688510" lon="-75.7527790">
        <ele>1429.8</ele>
        <time>2022-08-13T17:53:31Z</time>
      </trkpt>
      <trkpt lat="4.3688920" lon="-75.7528890">
        <ele>1427.2</ele>
        <time>2022-08-13T17:53:32Z</time>
      </trkpt>
      <trkpt lat="4.3689240" lon="-75.7529990">
        <ele>1425.0</ele>
        <time>2022-08-13T17:53:33Z</time>
      </trkpt>
      <trkpt lat="4.3689510" lon="-75.7531080">
        <ele>1422.6</ele>
        <time>2022-08-13T17:53:34Z</time>
      </trkpt>
      <trkpt lat="4.3689750" lon="-75.7532180">
        <ele>1420.4</ele>
        <time>2022-08-13T17:53:35Z</time>
      </trkpt>
      <trkpt lat="4.3689940" lon="-75.7533260">
        <ele>1418.6</ele>
        <time>2022-08-13T17:53:36Z</time>
      </trkpt>
      <trkpt lat="4.3690080" lon="-75.7534310">
        <ele>1417.2</ele>
        <time>2022-08-13T17:53:37Z</time>
      </trkpt>
      <trkpt lat="4.3690140" lon="-75.7535300">
        <ele>1416.2</ele>
        <time>2022-08-13T17:53:38Z</time>
      </trkpt>
      <trkpt lat="4.3689960" lon="-75.7537160">
        <ele>1414.6</ele>
        <time>2022-08-13T17:53:40Z</time>
      </trkpt>
      <trkpt lat="4.3689600" lon="-75.7538000">
        <ele>1413.2</ele>
        <time>2022-08-13T17:53:41Z</time>
      </trkpt>
      <trkpt lat="4.3689140" lon="-75.7538770">
        <ele>1411.2</ele>
        <time>2022-08-13T17:53:42Z</time>
      </trkpt>
      <trkpt lat="4.3688760" lon="-75.7539490">
        <ele>1409.6</ele>
        <time>2022-08-13T17:53:43Z</time>
      </trkpt>
      <trkpt lat="4.3688480" lon="-75.7540190">
        <ele>1408.0</ele>
        <time>2022-08-13T17:53:44Z</time>
      </trkpt>
      <trkpt lat="4.3688380" lon="-75.7540900">
        <ele>1406.6</ele>
        <time>2022-08-13T17:53:45Z</time>
      </trkpt>
      <trkpt lat="4.3688530" lon="-75.7541470">
        <ele>1405.2</ele>
        <time>2022-08-13T17:53:46Z</time>
      </trkpt>
      <trkpt lat="4.3688950" lon="-75.7542200">
        <ele>1404.2</ele>
        <time>2022-08-13T17:53:47Z</time>
      </trkpt>
      <trkpt lat="4.3689540" lon="-75.7542850">
        <ele>1403.0</ele>
        <time>2022-08-13T17:53:48Z</time>
      </trkpt>
      <trkpt lat="4.3690830" lon="-75.7544040">
        <ele>1401.0</ele>
        <time>2022-08-13T17:53:50Z</time>
      </trkpt>
      <trkpt lat="4.3691480" lon="-75.7544460">
        <ele>1400.0</ele>
        <time>2022-08-13T17:53:51Z</time>
      </trkpt>
      <trkpt lat="4.3693570" lon="-75.7544630">
        <ele>1399.0</ele>
        <time>2022-08-13T17:53:53Z</time>
      </trkpt>
      <trkpt lat="4.3694260" lon="-75.7544540">
        <ele>1398.0</ele>
        <time>2022-08-13T17:53:54Z</time>
      </trkpt>
      <trkpt lat="4.3695010" lon="-75.7544380">
        <ele>1396.8</ele>
        <time>2022-08-13T17:53:55Z</time>
      </trkpt>
      <trkpt lat="4.3695770" lon="-75.7544000">
        <ele>1395.4</ele>
        <time>2022-08-13T17:53:56Z</time>
      </trkpt>
      <trkpt lat="4.3696210" lon="-75.7543340">
        <ele>1394.0</ele>
        <time>2022-08-13T17:53:57Z</time>
      </trkpt>
      <trkpt lat="4.3696450" lon="-75.7542480">
        <ele>1392.8</ele>
        <time>2022-08-13T17:53:58Z</time>
      </trkpt>
      <trkpt lat="4.3696490" lon="-75.7541500">
        <ele>1391.2</ele>
        <time>2022-08-13T17:53:59Z</time>
      </trkpt>
      <trkpt lat="4.3696400" lon="-75.7540400">
        <ele>1389.6</ele>
        <time>2022-08-13T17:54:00Z</time>
      </trkpt>
      <trkpt lat="4.3696370" lon="-75.7539400">
        <ele>1387.6</ele>
        <time>2022-08-13T17:54:01Z</time>
      </trkpt>
      <trkpt lat="4.3696410" lon="-75.7538450">
        <ele>1386.2</ele>
        <time>2022-08-13T17:54:02Z</time>
      </trkpt>
      <trkpt lat="4.3696600" lon="-75.7537620">
        <ele>1385.4</ele>
        <time>2022-08-13T17:54:03Z</time>
      </trkpt>
      <trkpt lat="4.3697070" lon="-75.7536970">
        <ele>1384.8</ele>
        <time>2022-08-13T17:54:04Z</time>
      </trkpt>
      <trkpt lat="4.3697420" lon="-75.7536650">
        <ele>1384.0</ele>
        <time>2022-08-13T17:54:05Z</time>
      </trkpt>
      <trkpt lat="4.3698120" lon="-75.7536390">
        <ele>1382.8</ele>
        <time>2022-08-13T17:54:06Z</time>
      </trkpt>
      <trkpt lat="4.3698790" lon="-75.7536240">
        <ele>1381.6</ele>
        <time>2022-08-13T17:54:07Z</time>
      </trkpt>
      <trkpt lat="4.3699690" lon="-75.7535900">
        <ele>1380.2</ele>
        <time>2022-08-13T17:54:08Z</time>
      </trkpt>
      <trkpt lat="4.3700470" lon="-75.7535350">
        <ele>1378.8</ele>
        <time>2022-08-13T17:54:09Z</time>
      </trkpt>
      <trkpt lat="4.3701610" lon="-75.7533610">
        <ele>1377.6</ele>
        <time>2022-08-13T17:54:11Z</time>
      </trkpt>
      <trkpt lat="4.3701840" lon="-75.7532000">
        <ele>1376.2</ele>
        <time>2022-08-13T17:54:13Z</time>
      </trkpt>
      <trkpt lat="4.3702040" lon="-75.7531270">
        <ele>1375.2</ele>
        <time>2022-08-13T17:54:14Z</time>
      </trkpt>
      <trkpt lat="4.3702360" lon="-75.7530760">
        <ele>1373.8</ele>
        <time>2022-08-13T17:54:15Z</time>
      </trkpt>
      <trkpt lat="4.3702830" lon="-75.7530450">
        <ele>1372.4</ele>
        <time>2022-08-13T17:54:16Z</time>
      </trkpt>
      <trkpt lat="4.3703800" lon="-75.7530630">
        <ele>1371.0</ele>
        <time>2022-08-13T17:54:18Z</time>
      </trkpt>
      <trkpt lat="4.3704130" lon="-75.7530920">
        <ele>1369.6</ele>
        <time>2022-08-13T17:54:19Z</time>
      </trkpt>
      <trkpt lat="4.3704360" lon="-75.7531380">
        <ele>1368.8</ele>
        <time>2022-08-13T17:54:20Z</time>
      </trkpt>
      <trkpt lat="4.3704430" lon="-75.7532000">
        <ele>1368.2</ele>
        <time>2022-08-13T17:54:21Z</time>
      </trkpt>
      <trkpt lat="4.3704400" lon="-75.7532740">
        <ele>1367.8</ele>
        <time>2022-08-13T17:54:22Z</time>
      </trkpt>
      <trkpt lat="4.3704130" lon="-75.7534450">
        <ele>1367.2</ele>
        <time>2022-08-13T17:54:24Z</time>
      </trkpt>
      <trkpt lat="4.3703900" lon="-75.7535420">
        <ele>1367.2</ele>
        <time>2022-08-13T17:54:25Z</time>
      </trkpt>
      <trkpt lat="4.3702980" lon="-75.7537130">
        <ele>1365.6</ele>
        <time>2022-08-13T17:54:27Z</time>
      </trkpt>
      <trkpt lat="4.3702500" lon="-75.7537850">
        <ele>1364.4</ele>
        <time>2022-08-13T17:54:28Z</time>
      </trkpt>
      <trkpt lat="4.3702040" lon="-75.7538490">
        <ele>1363.2</ele>
        <time>2022-08-13T17:54:29Z</time>
      </trkpt>
      <trkpt lat="4.3701790" lon="-75.7539160">
        <ele>1362.0</ele>
        <time>2022-08-13T17:54:30Z</time>
      </trkpt>
      <trkpt lat="4.3701690" lon="-75.7540000">
        <ele>1360.2</ele>
        <time>2022-08-13T17:54:31Z</time>
      </trkpt>
      <trkpt lat="4.3701920" lon="-75.7540690">
        <ele>1358.6</ele>
        <time>2022-08-13T17:54:32Z</time>
      </trkpt>
      <trkpt lat="4.3702320" lon="-75.7541550">
        <ele>1356.8</ele>
        <time>2022-08-13T17:54:33Z</time>
      </trkpt>
      <trkpt lat="4.3702970" lon="-75.7542380">
        <ele>1355.4</ele>
        <time>2022-08-13T17:54:34Z</time>
      </trkpt>
      <trkpt lat="4.3703930" lon="-75.7543180">
        <ele>1354.6</ele>
        <time>2022-08-13T17:54:35Z</time>
      </trkpt>
      <trkpt lat="4.3704740" lon="-75.7543900">
        <ele>1353.6</ele>
        <time>2022-08-13T17:54:36Z</time>
      </trkpt>
      <trkpt lat="4.3705320" lon="-75.7544580">
        <ele>1352.8</ele>
        <time>2022-08-13T17:54:37Z</time>
      </trkpt>
      <trkpt lat="4.3705970" lon="-75.7545470">
        <ele>1352.2</ele>
        <time>2022-08-13T17:54:38Z</time>
      </trkpt>
      <trkpt lat="4.3706530" lon="-75.7546310">
        <ele>1350.8</ele>
        <time>2022-08-13T17:54:39Z</time>
      </trkpt>
      <trkpt lat="4.3707170" lon="-75.7547010">
        <ele>1349.8</ele>
        <time>2022-08-13T17:54:40Z</time>
      </trkpt>
      <trkpt lat="4.3708660" lon="-75.7548250">
        <ele>1348.2</ele>
        <time>2022-08-13T17:54:42Z</time>
      </trkpt>
      <trkpt lat="4.3709230" lon="-75.7548840">
        <ele>1346.2</ele>
        <time>2022-08-13T17:54:43Z</time>
      </trkpt>
      <trkpt lat="4.3709660" lon="-75.7549560">
        <ele>1345.0</ele>
        <time>2022-08-13T17:54:44Z</time>
      </trkpt>
      <trkpt lat="4.3709880" lon="-75.7550440">
        <ele>1343.4</ele>
        <time>2022-08-13T17:54:45Z</time>
      </trkpt>
      <trkpt lat="4.3709780" lon="-75.7551350">
        <ele>1342.0</ele>
        <time>2022-08-13T17:54:46Z</time>
      </trkpt>
      <trkpt lat="4.3709520" lon="-75.7552260">
        <ele>1340.2</ele>
        <time>2022-08-13T17:54:47Z</time>
      </trkpt>
      <trkpt lat="4.3709010" lon="-75.7553090">
        <ele>1338.6</ele>
        <time>2022-08-13T17:54:48Z</time>
      </trkpt>
      <trkpt lat="4.3708080" lon="-75.7553880">
        <ele>1337.4</ele>
        <time>2022-08-13T17:54:49Z</time>
      </trkpt>
      <trkpt lat="4.3707050" lon="-75.7554440">
        <ele>1336.4</ele>
        <time>2022-08-13T17:54:50Z</time>
      </trkpt>
      <trkpt lat="4.3705750" lon="-75.7555100">
        <ele>1335.4</ele>
        <time>2022-08-13T17:54:51Z</time>
      </trkpt>
      <trkpt lat="4.3704910" lon="-75.7555510">
        <ele>1334.6</ele>
        <time>2022-08-13T17:54:52Z</time>
      </trkpt>
      <trkpt lat="4.3704000" lon="-75.7556060">
        <ele>1333.8</ele>
        <time>2022-08-13T17:54:53Z</time>
      </trkpt>
      <trkpt lat="4.3703190" lon="-75.7556760">
        <ele>1332.6</ele>
        <time>2022-08-13T17:54:54Z</time>
      </trkpt>
      <trkpt lat="4.3702320" lon="-75.7557390">
        <ele>1331.4</ele>
        <time>2022-08-13T17:54:55Z</time>
      </trkpt>
      <trkpt lat="4.3701250" lon="-75.7557970">
        <ele>1329.8</ele>
        <time>2022-08-13T17:54:56Z</time>
      </trkpt>
      <trkpt lat="4.3700030" lon="-75.7558450">
        <ele>1328.4</ele>
        <time>2022-08-13T17:54:57Z</time>
      </trkpt>
      <trkpt lat="4.3698770" lon="-75.7558860">
        <ele>1327.4</ele>
        <time>2022-08-13T17:54:58Z</time>
      </trkpt>
      <trkpt lat="4.3697630" lon="-75.7559250">
        <ele>1326.8</ele>
        <time>2022-08-13T17:54:59Z</time>
      </trkpt>
      <trkpt lat="4.3696590" lon="-75.7559720">
        <ele>1326.0</ele>
        <time>2022-08-13T17:55:00Z</time>
      </trkpt>
      <trkpt lat="4.3695650" lon="-75.7560280">
        <ele>1325.4</ele>
        <time>2022-08-13T17:55:01Z</time>
      </trkpt>
      <trkpt lat="4.3694770" lon="-75.7560920">
        <ele>1325.0</ele>
        <time>2022-08-13T17:55:02Z</time>
      </trkpt>
      <trkpt lat="4.3693880" lon="-75.7561580">
        <ele>1324.2</ele>
        <time>2022-08-13T17:55:03Z</time>
      </trkpt>
      <trkpt lat="4.3692380" lon="-75.7563130">
        <ele>1323.2</ele>
        <time>2022-08-13T17:55:05Z</time>
      </trkpt>
      <trkpt lat="4.3691800" lon="-75.7564130">
        <ele>1322.0</ele>
        <time>2022-08-13T17:55:06Z</time>
      </trkpt>
      <trkpt lat="4.3691320" lon="-75.7565230">
        <ele>1320.4</ele>
        <time>2022-08-13T17:55:07Z</time>
      </trkpt>
      <trkpt lat="4.3690860" lon="-75.7566350">
        <ele>1318.8</ele>
        <time>2022-08-13T17:55:08Z</time>
      </trkpt>
      <trkpt lat="4.3689590" lon="-75.7568890">
        <ele>1317.0</ele>
        <time>2022-08-13T17:55:10Z</time>
      </trkpt>
      <trkpt lat="4.3688010" lon="-75.7570740">
        <ele>1315.4</ele>
        <time>2022-08-13T17:55:12Z</time>
      </trkpt>
      <trkpt lat="4.3686350" lon="-75.7572630">
        <ele>1313.4</ele>
        <time>2022-08-13T17:55:14Z</time>
      </trkpt>
      <trkpt lat="4.3685640" lon="-75.7573560">
        <ele>1312.0</ele>
        <time>2022-08-13T17:55:15Z</time>
      </trkpt>
      <trkpt lat="4.3685050" lon="-75.7574450">
        <ele>1310.6</ele>
        <time>2022-08-13T17:55:16Z</time>
      </trkpt>
      <trkpt lat="4.3684440" lon="-75.7575260">
        <ele>1309.0</ele>
        <time>2022-08-13T17:55:17Z</time>
      </trkpt>
      <trkpt lat="4.3683720" lon="-75.7575960">
        <ele>1307.0</ele>
        <time>2022-08-13T17:55:18Z</time>
      </trkpt>
      <trkpt lat="4.3682980" lon="-75.7576540">
        <ele>1305.2</ele>
        <time>2022-08-13T17:55:19Z</time>
      </trkpt>
      <trkpt lat="4.3682270" lon="-75.7577130">
        <ele>1303.2</ele>
        <time>2022-08-13T17:55:20Z</time>
      </trkpt>
      <trkpt lat="4.3681540" lon="-75.7577850">
        <ele>1302.0</ele>
        <time>2022-08-13T17:55:21Z</time>
      </trkpt>
      <trkpt lat="4.3681110" lon="-75.7578340">
        <ele>1301.2</ele>
        <time>2022-08-13T17:55:22Z</time>
      </trkpt>
      <trkpt lat="4.3680500" lon="-75.7578870">
        <ele>1300.6</ele>
        <time>2022-08-13T17:55:23Z</time>
      </trkpt>
      <trkpt lat="4.3679130" lon="-75.7579620">
        <ele>1299.6</ele>
        <time>2022-08-13T17:55:25Z</time>
      </trkpt>
      <trkpt lat="4.3678390" lon="-75.7579770">
        <ele>1298.8</ele>
        <time>2022-08-13T17:55:26Z</time>
      </trkpt>
      <trkpt lat="4.3677720" lon="-75.7579790">
        <ele>1298.2</ele>
        <time>2022-08-13T17:55:27Z</time>
      </trkpt>
      <trkpt lat="4.3677140" lon="-75.7579470">
        <ele>1297.4</ele>
        <time>2022-08-13T17:55:28Z</time>
      </trkpt>
      <trkpt lat="4.3676220" lon="-75.7578370">
        <ele>1296.6</ele>
        <time>2022-08-13T17:55:30Z</time>
      </trkpt>
      <trkpt lat="4.3675960" lon="-75.7577710">
        <ele>1296.0</ele>
        <time>2022-08-13T17:55:31Z</time>
      </trkpt>
      <trkpt lat="4.3675640" lon="-75.7576330">
        <ele>1294.8</ele>
        <time>2022-08-13T17:55:33Z</time>
      </trkpt>
      <trkpt lat="4.3675540" lon="-75.7575680">
        <ele>1293.8</ele>
        <time>2022-08-13T17:55:34Z</time>
      </trkpt>
      <trkpt lat="4.3675560" lon="-75.7574930">
        <ele>1293.0</ele>
        <time>2022-08-13T17:55:35Z</time>
      </trkpt>
      <trkpt lat="4.3675710" lon="-75.7574400">
        <ele>1292.2</ele>
        <time>2022-08-13T17:55:36Z</time>
      </trkpt>
      <trkpt lat="4.3675940" lon="-75.7573810">
        <ele>1291.6</ele>
        <time>2022-08-13T17:55:37Z</time>
      </trkpt>
      <trkpt lat="4.3676340" lon="-75.7572660">
        <ele>1290.4</ele>
        <time>2022-08-13T17:55:39Z</time>
      </trkpt>
      <trkpt lat="4.3676250" lon="-75.7572110">
        <ele>1289.6</ele>
        <time>2022-08-13T17:55:40Z</time>
      </trkpt>
      <trkpt lat="4.3676030" lon="-75.7571860">
        <ele>1289.2</ele>
        <time>2022-08-13T17:55:41Z</time>
      </trkpt>
      <trkpt lat="4.3675650" lon="-75.7571750">
        <ele>1288.6</ele>
        <time>2022-08-13T17:55:42Z</time>
      </trkpt>
      <trkpt lat="4.3675160" lon="-75.7572030">
        <ele>1288.2</ele>
        <time>2022-08-13T17:55:43Z</time>
      </trkpt>
      <trkpt lat="4.3674890" lon="-75.7572510">
        <ele>1288.0</ele>
        <time>2022-08-13T17:55:44Z</time>
      </trkpt>
      <trkpt lat="4.3674580" lon="-75.7573240">
        <ele>1287.6</ele>
        <time>2022-08-13T17:55:45Z</time>
      </trkpt>
      <trkpt lat="4.3674290" lon="-75.7574070">
        <ele>1287.2</ele>
        <time>2022-08-13T17:55:46Z</time>
      </trkpt>
      <trkpt lat="4.3674030" lon="-75.7574920">
        <ele>1286.4</ele>
        <time>2022-08-13T17:55:47Z</time>
      </trkpt>
      <trkpt lat="4.3673750" lon="-75.7576860">
        <ele>1285.2</ele>
        <time>2022-08-13T17:55:49Z</time>
      </trkpt>
      <trkpt lat="4.3673580" lon="-75.7578840">
        <ele>1283.6</ele>
        <time>2022-08-13T17:55:51Z</time>
      </trkpt>
      <trkpt lat="4.3673590" lon="-75.7579830">
        <ele>1282.4</ele>
        <time>2022-08-13T17:55:52Z</time>
      </trkpt>
      <trkpt lat="4.3673750" lon="-75.7580830">
        <ele>1280.8</ele>
        <time>2022-08-13T17:55:53Z</time>
      </trkpt>
      <trkpt lat="4.3674530" lon="-75.7582760">
        <ele>1279.4</ele>
        <time>2022-08-13T17:55:55Z</time>
      </trkpt>
      <trkpt lat="4.3675040" lon="-75.7583670">
        <ele>1278.0</ele>
        <time>2022-08-13T17:55:56Z</time>
      </trkpt>
      <trkpt lat="4.3675540" lon="-75.7584520">
        <ele>1276.6</ele>
        <time>2022-08-13T17:55:57Z</time>
      </trkpt>
      <trkpt lat="4.3676010" lon="-75.7585350">
        <ele>1275.0</ele>
        <time>2022-08-13T17:55:58Z</time>
      </trkpt>
      <trkpt lat="4.3676450" lon="-75.7586120">
        <ele>1274.0</ele>
        <time>2022-08-13T17:55:59Z</time>
      </trkpt>
      <trkpt lat="4.3676910" lon="-75.7587060">
        <ele>1272.4</ele>
        <time>2022-08-13T17:56:00Z</time>
      </trkpt>
      <trkpt lat="4.3677120" lon="-75.7587750">
        <ele>1271.4</ele>
        <time>2022-08-13T17:56:01Z</time>
      </trkpt>
      <trkpt lat="4.3677120" lon="-75.7588660">
        <ele>1270.2</ele>
        <time>2022-08-13T17:56:02Z</time>
      </trkpt>
      <trkpt lat="4.3676820" lon="-75.7589740">
        <ele>1268.8</ele>
        <time>2022-08-13T17:56:03Z</time>
      </trkpt>
      <trkpt lat="4.3676490" lon="-75.7590580">
        <ele>1267.8</ele>
        <time>2022-08-13T17:56:04Z</time>
      </trkpt>
      <trkpt lat="4.3676380" lon="-75.7592280">
        <ele>1266.0</ele>
        <time>2022-08-13T17:56:06Z</time>
      </trkpt>
      <trkpt lat="4.3677020" lon="-75.7594380">
        <ele>1264.6</ele>
        <time>2022-08-13T17:56:08Z</time>
      </trkpt>
      <trkpt lat="4.3677580" lon="-75.7595520">
        <ele>1263.4</ele>
        <time>2022-08-13T17:56:09Z</time>
      </trkpt>
      <trkpt lat="4.3678190" lon="-75.7596680">
        <ele>1262.0</ele>
        <time>2022-08-13T17:56:10Z</time>
      </trkpt>
      <trkpt lat="4.3678850" lon="-75.7597910">
        <ele>1260.4</ele>
        <time>2022-08-13T17:56:11Z</time>
      </trkpt>
      <trkpt lat="4.3679470" lon="-75.7599160">
        <ele>1259.0</ele>
        <time>2022-08-13T17:56:12Z</time>
      </trkpt>
      <trkpt lat="4.3680090" lon="-75.7600410">
        <ele>1257.6</ele>
        <time>2022-08-13T17:56:13Z</time>
      </trkpt>
      <trkpt lat="4.3680630" lon="-75.7601600">
        <ele>1256.0</ele>
        <time>2022-08-13T17:56:14Z</time>
      </trkpt>
      <trkpt lat="4.3681010" lon="-75.7602720">
        <ele>1254.0</ele>
        <time>2022-08-13T17:56:15Z</time>
      </trkpt>
      <trkpt lat="4.3681240" lon="-75.7603770">
        <ele>1252.4</ele>
        <time>2022-08-13T17:56:16Z</time>
      </trkpt>
      <trkpt lat="4.3681360" lon="-75.7604780">
        <ele>1250.6</ele>
        <time>2022-08-13T17:56:17Z</time>
      </trkpt>
      <trkpt lat="4.3681460" lon="-75.7605700">
        <ele>1248.6</ele>
        <time>2022-08-13T17:56:18Z</time>
      </trkpt>
      <trkpt lat="4.3681660" lon="-75.7606670">
        <ele>1248.6</ele>
        <time>2022-08-13T17:56:19Z</time>
      </trkpt>
      <trkpt lat="4.3681890" lon="-75.7607200">
        <ele>1246.6</ele>
        <time>2022-08-13T17:56:20Z</time>
      </trkpt>
      <trkpt lat="4.3682340" lon="-75.7607660">
        <ele>1245.6</ele>
        <time>2022-08-13T17:56:21Z</time>
      </trkpt>
      <trkpt lat="4.3682910" lon="-75.7607810">
        <ele>1245.2</ele>
        <time>2022-08-13T17:56:22Z</time>
      </trkpt>
      <trkpt lat="4.3683570" lon="-75.7607540">
        <ele>1244.8</ele>
        <time>2022-08-13T17:56:23Z</time>
      </trkpt>
      <trkpt lat="4.3684350" lon="-75.7606390">
        <ele>1244.0</ele>
        <time>2022-08-13T17:56:25Z</time>
      </trkpt>
      <trkpt lat="4.3685330" lon="-75.7604930">
        <ele>1243.2</ele>
        <time>2022-08-13T17:56:27Z</time>
      </trkpt>
      <trkpt lat="4.3686040" lon="-75.7604260">
        <ele>1242.8</ele>
        <time>2022-08-13T17:56:28Z</time>
      </trkpt>
      <trkpt lat="4.3687700" lon="-75.7603050">
        <ele>1242.0</ele>
        <time>2022-08-13T17:56:30Z</time>
      </trkpt>
      <trkpt lat="4.3688670" lon="-75.7602470">
        <ele>1241.6</ele>
        <time>2022-08-13T17:56:31Z</time>
      </trkpt>
      <trkpt lat="4.3692110" lon="-75.7600690">
        <ele>1241.0</ele>
        <time>2022-08-13T17:56:34Z</time>
      </trkpt>
      <trkpt lat="4.3693560" lon="-75.7600300">
        <ele>1240.8</ele>
        <time>2022-08-13T17:56:35Z</time>
      </trkpt>
      <trkpt lat="4.3694520" lon="-75.7600140">
        <ele>1240.8</ele>
        <time>2022-08-13T17:56:36Z</time>
      </trkpt>
      <trkpt lat="4.3695720" lon="-75.7599950">
        <ele>1239.8</ele>
        <time>2022-08-13T17:56:37Z</time>
      </trkpt>
      <trkpt lat="4.3697050" lon="-75.7599730">
        <ele>1238.8</ele>
        <time>2022-08-13T17:56:38Z</time>
      </trkpt>
      <trkpt lat="4.3698110" lon="-75.7599500">
        <ele>1237.2</ele>
        <time>2022-08-13T17:56:39Z</time>
      </trkpt>
      <trkpt lat="4.3698900" lon="-75.7599360">
        <ele>1235.4</ele>
        <time>2022-08-13T17:56:40Z</time>
      </trkpt>
      <trkpt lat="4.3699810" lon="-75.7599150">
        <ele>1234.4</ele>
        <time>2022-08-13T17:56:41Z</time>
      </trkpt>
      <trkpt lat="4.3700640" lon="-75.7598880">
        <ele>1234.0</ele>
        <time>2022-08-13T17:56:42Z</time>
      </trkpt>
      <trkpt lat="4.3702080" lon="-75.7598060">
        <ele>1233.6</ele>
        <time>2022-08-13T17:56:44Z</time>
      </trkpt>
      <trkpt lat="4.3702960" lon="-75.7596970">
        <ele>1233.4</ele>
        <time>2022-08-13T17:56:46Z</time>
      </trkpt>
      <trkpt lat="4.3703140" lon="-75.7596470">
        <ele>1233.4</ele>
        <time>2022-08-13T17:56:47Z</time>
      </trkpt>
      <trkpt lat="4.3703390" lon="-75.7596040">
        <ele>1233.4</ele>
        <time>2022-08-13T17:56:48Z</time>
      </trkpt>
      <trkpt lat="4.3704200" lon="-75.7595420">
        <ele>1233.4</ele>
        <time>2022-08-13T17:56:50Z</time>
      </trkpt>
      <trkpt lat="4.3704640" lon="-75.7595120">
        <ele>1233.4</ele>
        <time>2022-08-13T17:56:51Z</time>
      </trkpt>
      <trkpt lat="4.3705160" lon="-75.7594880">
        <ele>1233.8</ele>
        <time>2022-08-13T17:56:52Z</time>
      </trkpt>
      <trkpt lat="4.3705960" lon="-75.7594620">
        <ele>1235.4</ele>
        <time>2022-08-13T17:56:54Z</time>
      </trkpt>
      <trkpt lat="4.3706200" lon="-75.7594550">
        <ele>1235.8</ele>
        <time>2022-08-13T17:56:55Z</time>
      </trkpt>
      <trkpt lat="4.3706490" lon="-75.7594450">
        <ele>1236.4</ele>
        <time>2022-08-13T17:56:56Z</time>
      </trkpt>
      <trkpt lat="4.3707130" lon="-75.7594390">
        <ele>1237.6</ele>
        <time>2022-08-13T17:56:58Z</time>
      </trkpt>
      <trkpt lat="4.3707730" lon="-75.7594520">
        <ele>1238.4</ele>
        <time>2022-08-13T17:57:00Z</time>
      </trkpt>
      <trkpt lat="4.3707940" lon="-75.7594640">
        <ele>1238.8</ele>
        <time>2022-08-13T17:57:01Z</time>
      </trkpt>
      <trkpt lat="4.3708890" lon="-75.7595170">
        <ele>1240.0</ele>
        <time>2022-08-13T17:57:04Z</time>
      </trkpt>
      <trkpt lat="4.3710000" lon="-75.7595500">
        <ele>1240.8</ele>
        <time>2022-08-13T17:57:07Z</time>
      </trkpt>
      <trkpt lat="4.3710850" lon="-75.7595150">
        <ele>1241.2</ele>
        <time>2022-08-13T17:57:10Z</time>
      </trkpt>
      <trkpt lat="4.3711420" lon="-75.7593890">
        <ele>1242.2</ele>
        <time>2022-08-13T17:57:15Z</time>
      </trkpt>
      <trkpt lat="4.3711580" lon="-75.7593150">
        <ele>1242.6</ele>
        <time>2022-08-13T17:57:18Z</time>
      </trkpt>
      <trkpt lat="4.3711780" lon="-75.7592480">
        <ele>1243.2</ele>
        <time>2022-08-13T17:57:21Z</time>
      </trkpt>
      <trkpt lat="4.3711830" lon="-75.7592230">
        <ele>1243.6</ele>
        <time>2022-08-13T17:57:22Z</time>
      </trkpt>
      <trkpt lat="4.3712220" lon="-75.7591160">
        <ele>1245.0</ele>
        <time>2022-08-13T17:57:26Z</time>
      </trkpt>
      <trkpt lat="4.3712390" lon="-75.7590890">
        <ele>1245.2</ele>
        <time>2022-08-13T17:57:27Z</time>
      </trkpt>
      <trkpt lat="4.3713620" lon="-75.7590190">
        <ele>1246.2</ele>
        <time>2022-08-13T17:57:31Z</time>
      </trkpt>
      <trkpt lat="4.3714080" lon="-75.7590230">
        <ele>1246.2</ele>
        <time>2022-08-13T17:57:32Z</time>
      </trkpt>
      <trkpt lat="4.3715020" lon="-75.7590560">
        <ele>1246.2</ele>
        <time>2022-08-13T17:57:34Z</time>
      </trkpt>
      <trkpt lat="4.3716230" lon="-75.7591310">
        <ele>1246.2</ele>
        <time>2022-08-13T17:57:36Z</time>
      </trkpt>
      <trkpt lat="4.3717250" lon="-75.7592690">
        <ele>1246.2</ele>
        <time>2022-08-13T17:57:38Z</time>
      </trkpt>
      <trkpt lat="4.3717580" lon="-75.7593310">
        <ele>1246.2</ele>
        <time>2022-08-13T17:57:39Z</time>
      </trkpt>
      <trkpt lat="4.3719660" lon="-75.7596510">
        <ele>1245.0</ele>
        <time>2022-08-13T17:57:43Z</time>
      </trkpt>
      <trkpt lat="4.3720090" lon="-75.7597030">
        <ele>1244.0</ele>
        <time>2022-08-13T17:57:44Z</time>
      </trkpt>
      <trkpt lat="4.3720610" lon="-75.7597650">
        <ele>1243.0</ele>
        <time>2022-08-13T17:57:45Z</time>
      </trkpt>
      <trkpt lat="4.3721270" lon="-75.7598320">
        <ele>1241.8</ele>
        <time>2022-08-13T17:57:46Z</time>
      </trkpt>
      <trkpt lat="4.3721960" lon="-75.7598720">
        <ele>1240.4</ele>
        <time>2022-08-13T17:57:47Z</time>
      </trkpt>
      <trkpt lat="4.3722750" lon="-75.7598990">
        <ele>1239.2</ele>
        <time>2022-08-13T17:57:48Z</time>
      </trkpt>
      <trkpt lat="4.3723440" lon="-75.7599100">
        <ele>1238.2</ele>
        <time>2022-08-13T17:57:49Z</time>
      </trkpt>
      <trkpt lat="4.3724330" lon="-75.7599120">
        <ele>1236.8</ele>
        <time>2022-08-13T17:57:50Z</time>
      </trkpt>
      <trkpt lat="4.3726160" lon="-75.7599010">
        <ele>1235.2</ele>
        <time>2022-08-13T17:57:52Z</time>
      </trkpt>
      <trkpt lat="4.3728150" lon="-75.7599030">
        <ele>1233.8</ele>
        <time>2022-08-13T17:57:54Z</time>
      </trkpt>
      <trkpt lat="4.3729180" lon="-75.7599020">
        <ele>1233.0</ele>
        <time>2022-08-13T17:57:55Z</time>
      </trkpt>
      <trkpt lat="4.3730470" lon="-75.7598970">
        <ele>1231.8</ele>
        <time>2022-08-13T17:57:56Z</time>
      </trkpt>
      <trkpt lat="4.3732710" lon="-75.7598730">
        <ele>1230.4</ele>
        <time>2022-08-13T17:57:58Z</time>
      </trkpt>
      <trkpt lat="4.3733560" lon="-75.7598600">
        <ele>1229.0</ele>
        <time>2022-08-13T17:57:59Z</time>
      </trkpt>
      <trkpt lat="4.3734610" lon="-75.7598480">
        <ele>1227.6</ele>
        <time>2022-08-13T17:58:00Z</time>
      </trkpt>
      <trkpt lat="4.3735750" lon="-75.7598410">
        <ele>1226.0</ele>
        <time>2022-08-13T17:58:01Z</time>
      </trkpt>
      <trkpt lat="4.3736650" lon="-75.7598510">
        <ele>1224.4</ele>
        <time>2022-08-13T17:58:02Z</time>
      </trkpt>
      <trkpt lat="4.3737550" lon="-75.7598660">
        <ele>1222.6</ele>
        <time>2022-08-13T17:58:03Z</time>
      </trkpt>
      <trkpt lat="4.3738240" lon="-75.7598780">
        <ele>1221.0</ele>
        <time>2022-08-13T17:58:04Z</time>
      </trkpt>
      <trkpt lat="4.3739050" lon="-75.7598980">
        <ele>1219.0</ele>
        <time>2022-08-13T17:58:05Z</time>
      </trkpt>
      <trkpt lat="4.3739790" lon="-75.7599180">
        <ele>1216.8</ele>
        <time>2022-08-13T17:58:06Z</time>
      </trkpt>
      <trkpt lat="4.3740490" lon="-75.7599370">
        <ele>1214.6</ele>
        <time>2022-08-13T17:58:07Z</time>
      </trkpt>
      <trkpt lat="4.3741150" lon="-75.7599530">
        <ele>1213.6</ele>
        <time>2022-08-13T17:58:08Z</time>
      </trkpt>
      <trkpt lat="4.3742340" lon="-75.7599730">
        <ele>1212.2</ele>
        <time>2022-08-13T17:58:10Z</time>
      </trkpt>
      <trkpt lat="4.3742890" lon="-75.7599690">
        <ele>1211.6</ele>
        <time>2022-08-13T17:58:11Z</time>
      </trkpt>
      <trkpt lat="4.3743590" lon="-75.7599510">
        <ele>1211.0</ele>
        <time>2022-08-13T17:58:12Z</time>
      </trkpt>
      <trkpt lat="4.3745180" lon="-75.7598860">
        <ele>1210.6</ele>
        <time>2022-08-13T17:58:15Z</time>
      </trkpt>
      <trkpt lat="4.3747660" lon="-75.7597880">
        <ele>1210.4</ele>
        <time>2022-08-13T17:58:20Z</time>
      </trkpt>
      <trkpt lat="4.3749590" lon="-75.7596870">
        <ele>1211.0</ele>
        <time>2022-08-13T17:58:25Z</time>
      </trkpt>
      <trkpt lat="4.3750720" lon="-75.7596260">
        <ele>1212.4</ele>
        <time>2022-08-13T17:58:29Z</time>
      </trkpt>
      <trkpt lat="4.3751010" lon="-75.7596080">
        <ele>1212.6</ele>
        <time>2022-08-13T17:58:30Z</time>
      </trkpt>
      <trkpt lat="4.3751640" lon="-75.7595660">
        <ele>1213.6</ele>
        <time>2022-08-13T17:58:33Z</time>
      </trkpt>
      <trkpt lat="4.3752210" lon="-75.7595310">
        <ele>1214.6</ele>
        <time>2022-08-13T17:58:36Z</time>
      </trkpt>
      <trkpt lat="4.3752410" lon="-75.7595150">
        <ele>1215.0</ele>
        <time>2022-08-13T17:58:37Z</time>
      </trkpt>
      <trkpt lat="4.3753040" lon="-75.7594680">
        <ele>1216.2</ele>
        <time>2022-08-13T17:58:40Z</time>
      </trkpt>
      <trkpt lat="4.3753550" lon="-75.7594310">
        <ele>1217.4</ele>
        <time>2022-08-13T17:58:43Z</time>
      </trkpt>
      <trkpt lat="4.3753760" lon="-75.7594240">
        <ele>1217.8</ele>
        <time>2022-08-13T17:58:44Z</time>
      </trkpt>
      <trkpt lat="4.3754450" lon="-75.7594110">
        <ele>1218.6</ele>
        <time>2022-08-13T17:58:47Z</time>
      </trkpt>
      <trkpt lat="4.3754740" lon="-75.7594430">
        <ele>1219.4</ele>
        <time>2022-08-13T17:58:49Z</time>
      </trkpt>
      <trkpt lat="4.3754840" lon="-75.7594720">
        <ele>1219.8</ele>
        <time>2022-08-13T17:58:50Z</time>
      </trkpt>
      <trkpt lat="4.3754690" lon="-75.7595700">
        <ele>1220.4</ele>
        <time>2022-08-13T17:58:53Z</time>
      </trkpt>
      <trkpt lat="4.3754510" lon="-75.7596160">
        <ele>1220.4</ele>
        <time>2022-08-13T17:58:54Z</time>
      </trkpt>
      <trkpt lat="4.3753740" lon="-75.7597540">
        <ele>1220.4</ele>
        <time>2022-08-13T17:58:57Z</time>
      </trkpt>
      <trkpt lat="4.3752220" lon="-75.7600480">
        <ele>1219.8</ele>
        <time>2022-08-13T17:59:03Z</time>
      </trkpt>
      <trkpt lat="4.3751120" lon="-75.7603390">
        <ele>1219.0</ele>
        <time>2022-08-13T17:59:08Z</time>
      </trkpt>
      <trkpt lat="4.3750560" lon="-75.7606300">
        <ele>1218.2</ele>
        <time>2022-08-13T17:59:12Z</time>
      </trkpt>
      <trkpt lat="4.3750480" lon="-75.7606910">
        <ele>1218.2</ele>
        <time>2022-08-13T17:59:13Z</time>
      </trkpt>
      <trkpt lat="4.3750270" lon="-75.7608640">
        <ele>1217.8</ele>
        <time>2022-08-13T17:59:15Z</time>
      </trkpt>
      <trkpt lat="4.3749880" lon="-75.7611180">
        <ele>1216.8</ele>
        <time>2022-08-13T17:59:18Z</time>
      </trkpt>
      <trkpt lat="4.3749700" lon="-75.7612070">
        <ele>1216.2</ele>
        <time>2022-08-13T17:59:19Z</time>
      </trkpt>
      <trkpt lat="4.3749500" lon="-75.7612960">
        <ele>1215.6</ele>
        <time>2022-08-13T17:59:20Z</time>
      </trkpt>
      <trkpt lat="4.3749110" lon="-75.7614690">
        <ele>1214.4</ele>
        <time>2022-08-13T17:59:22Z</time>
      </trkpt>
      <trkpt lat="4.3748890" lon="-75.7615580">
        <ele>1214.0</ele>
        <time>2022-08-13T17:59:23Z</time>
      </trkpt>
      <trkpt lat="4.3748330" lon="-75.7617410">
        <ele>1213.0</ele>
        <time>2022-08-13T17:59:25Z</time>
      </trkpt>
      <trkpt lat="4.3747810" lon="-75.7620380">
        <ele>1212.0</ele>
        <time>2022-08-13T17:59:28Z</time>
      </trkpt>
      <trkpt lat="4.3747380" lon="-75.7622470">
        <ele>1211.8</ele>
        <time>2022-08-13T17:59:30Z</time>
      </trkpt>
      <trkpt lat="4.3746840" lon="-75.7626720">
        <ele>1211.0</ele>
        <time>2022-08-13T17:59:34Z</time>
      </trkpt>
      <trkpt lat="4.3746560" lon="-75.7628870">
        <ele>1210.4</ele>
        <time>2022-08-13T17:59:36Z</time>
      </trkpt>
      <trkpt lat="4.3746420" lon="-75.7629990">
        <ele>1210.0</ele>
        <time>2022-08-13T17:59:37Z</time>
      </trkpt>
      <trkpt lat="4.3746270" lon="-75.7631120">
        <ele>1209.4</ele>
        <time>2022-08-13T17:59:38Z</time>
      </trkpt>
      <trkpt lat="4.3745670" lon="-75.7635480">
        <ele>1208.4</ele>
        <time>2022-08-13T17:59:42Z</time>
      </trkpt>
      <trkpt lat="4.3744830" lon="-75.7638480">
        <ele>1207.2</ele>
        <time>2022-08-13T17:59:45Z</time>
      </trkpt>
      <trkpt lat="4.3744120" lon="-75.7641300">
        <ele>1206.2</ele>
        <time>2022-08-13T17:59:48Z</time>
      </trkpt>
      <trkpt lat="4.3743930" lon="-75.7642520">
        <ele>1206.0</ele>
        <time>2022-08-13T17:59:49Z</time>
      </trkpt>
      <trkpt lat="4.3743230" lon="-75.7647330">
        <ele>1205.0</ele>
        <time>2022-08-13T17:59:54Z</time>
      </trkpt>
      <trkpt lat="4.3743080" lon="-75.7648330">
        <ele>1204.8</ele>
        <time>2022-08-13T17:59:55Z</time>
      </trkpt>
      <trkpt lat="4.3742620" lon="-75.7651230">
        <ele>1204.2</ele>
        <time>2022-08-13T17:59:58Z</time>
      </trkpt>
      <trkpt lat="4.3742100" lon="-75.7654130">
        <ele>1204.0</ele>
        <time>2022-08-13T18:00:01Z</time>
      </trkpt>
      <trkpt lat="4.3741170" lon="-75.7659570">
        <ele>1203.4</ele>
        <time>2022-08-13T18:00:07Z</time>
      </trkpt>
      <trkpt lat="4.3741000" lon="-75.7660490">
        <ele>1203.4</ele>
        <time>2022-08-13T18:00:08Z</time>
      </trkpt>
      <trkpt lat="4.3739300" lon="-75.7666000">
        <ele>1203.4</ele>
        <time>2022-08-13T18:00:14Z</time>
      </trkpt>
      <trkpt lat="4.3738120" lon="-75.7667500">
        <ele>1203.0</ele>
        <time>2022-08-13T18:00:16Z</time>
      </trkpt>
      <trkpt lat="4.3736900" lon="-75.7668620">
        <ele>1202.8</ele>
        <time>2022-08-13T18:00:18Z</time>
      </trkpt>
      <trkpt lat="4.3734690" lon="-75.7670270">
        <ele>1202.2</ele>
        <time>2022-08-13T18:00:21Z</time>
      </trkpt>
      <trkpt lat="4.3733130" lon="-75.7671450">
        <ele>1201.6</ele>
        <time>2022-08-13T18:00:23Z</time>
      </trkpt>
      <trkpt lat="4.3730220" lon="-75.7673500">
        <ele>1201.4</ele>
        <time>2022-08-13T18:00:27Z</time>
      </trkpt>
      <trkpt lat="4.3728650" lon="-75.7674700">
        <ele>1201.2</ele>
        <time>2022-08-13T18:00:29Z</time>
      </trkpt>
      <trkpt lat="4.3724990" lon="-75.7677300">
        <ele>1200.4</ele>
        <time>2022-08-13T18:00:34Z</time>
      </trkpt>
      <trkpt lat="4.3722240" lon="-75.7679750">
        <ele>1199.4</ele>
        <time>2022-08-13T18:00:38Z</time>
      </trkpt>
      <trkpt lat="4.3718770" lon="-75.7682580">
        <ele>1198.2</ele>
        <time>2022-08-13T18:00:43Z</time>
      </trkpt>
      <trkpt lat="4.3718100" lon="-75.7683050">
        <ele>1198.0</ele>
        <time>2022-08-13T18:00:44Z</time>
      </trkpt>
      <trkpt lat="4.3717460" lon="-75.7683430">
        <ele>1197.6</ele>
        <time>2022-08-13T18:00:45Z</time>
      </trkpt>
      <trkpt lat="4.3716370" lon="-75.7683870">
        <ele>1197.4</ele>
        <time>2022-08-13T18:00:47Z</time>
      </trkpt>
      <trkpt lat="4.3714840" lon="-75.7684060">
        <ele>1197.2</ele>
        <time>2022-08-13T18:00:51Z</time>
      </trkpt>
      <trkpt lat="4.3714360" lon="-75.7684130">
        <ele>1197.0</ele>
        <time>2022-08-13T18:00:52Z</time>
      </trkpt>
      <trkpt lat="4.3712830" lon="-75.7684780">
        <ele>1196.6</ele>
        <time>2022-08-13T18:00:57Z</time>
      </trkpt>
      <trkpt lat="4.3711300" lon="-75.7686400">
        <ele>1196.6</ele>
        <time>2022-08-13T18:01:04Z</time>
      </trkpt>
      <trkpt lat="4.3711060" lon="-75.7686820">
        <ele>1196.4</ele>
        <time>2022-08-13T18:01:06Z</time>
      </trkpt>
      <trkpt lat="4.3710570" lon="-75.7687940">
        <ele>1196.0</ele>
        <time>2022-08-13T18:01:10Z</time>
      </trkpt>
      <trkpt lat="4.3710480" lon="-75.7689380">
        <ele>1196.0</ele>
        <time>2022-08-13T18:01:14Z</time>
      </trkpt>
      <trkpt lat="4.3710180" lon="-75.7690250">
        <ele>1196.0</ele>
        <time>2022-08-13T18:01:16Z</time>
      </trkpt>
      <trkpt lat="4.3709810" lon="-75.7690810">
        <ele>1196.0</ele>
        <time>2022-08-13T18:01:17Z</time>
      </trkpt>
      <trkpt lat="4.3708140" lon="-75.7692930">
        <ele>1196.0</ele>
        <time>2022-08-13T18:01:21Z</time>
      </trkpt>
      <trkpt lat="4.3707690" lon="-75.7693520">
        <ele>1196.0</ele>
        <time>2022-08-13T18:01:22Z</time>
      </trkpt>
      <trkpt lat="4.3706700" lon="-75.7694730">
        <ele>1195.4</ele>
        <time>2022-08-13T18:01:24Z</time>
      </trkpt>
      <trkpt lat="4.3704480" lon="-75.7697300">
        <ele>1194.2</ele>
        <time>2022-08-13T18:01:28Z</time>
      </trkpt>
      <trkpt lat="4.3703830" lon="-75.7697940">
        <ele>1193.8</ele>
        <time>2022-08-13T18:01:29Z</time>
      </trkpt>
      <trkpt lat="4.3702540" lon="-75.7699270">
        <ele>1193.2</ele>
        <time>2022-08-13T18:01:31Z</time>
      </trkpt>
      <trkpt lat="4.3701880" lon="-75.7699970">
        <ele>1193.2</ele>
        <time>2022-08-13T18:01:32Z</time>
      </trkpt>
      <trkpt lat="4.3699760" lon="-75.7702230">
        <ele>1192.2</ele>
        <time>2022-08-13T18:01:35Z</time>
      </trkpt>
      <trkpt lat="4.3698200" lon="-75.7703850">
        <ele>1191.2</ele>
        <time>2022-08-13T18:01:37Z</time>
      </trkpt>
      <trkpt lat="4.3695970" lon="-75.7706290">
        <ele>1190.0</ele>
        <time>2022-08-13T18:01:40Z</time>
      </trkpt>
      <trkpt lat="4.3694170" lon="-75.7708240">
        <ele>1188.8</ele>
        <time>2022-08-13T18:01:42Z</time>
      </trkpt>
      <trkpt lat="4.3692670" lon="-75.7709880">
        <ele>1187.2</ele>
        <time>2022-08-13T18:01:44Z</time>
      </trkpt>
      <trkpt lat="4.3691860" lon="-75.7710790">
        <ele>1186.4</ele>
        <time>2022-08-13T18:01:45Z</time>
      </trkpt>
      <trkpt lat="4.3690910" lon="-75.7711900">
        <ele>1185.2</ele>
        <time>2022-08-13T18:01:46Z</time>
      </trkpt>
      <trkpt lat="4.3690140" lon="-75.7712810">
        <ele>1184.2</ele>
        <time>2022-08-13T18:01:47Z</time>
      </trkpt>
      <trkpt lat="4.3688730" lon="-75.7714350">
        <ele>1183.0</ele>
        <time>2022-08-13T18:01:49Z</time>
      </trkpt>
      <trkpt lat="4.3687050" lon="-75.7716210">
        <ele>1181.6</ele>
        <time>2022-08-13T18:01:51Z</time>
      </trkpt>
      <trkpt lat="4.3686450" lon="-75.7716880">
        <ele>1181.0</ele>
        <time>2022-08-13T18:01:52Z</time>
      </trkpt>
      <trkpt lat="4.3685670" lon="-75.7717710">
        <ele>1180.6</ele>
        <time>2022-08-13T18:01:53Z</time>
      </trkpt>
      <trkpt lat="4.3682600" lon="-75.7720970">
        <ele>1179.6</ele>
        <time>2022-08-13T18:01:57Z</time>
      </trkpt>
      <trkpt lat="4.3678670" lon="-75.7725240">
        <ele>1179.0</ele>
        <time>2022-08-13T18:02:03Z</time>
      </trkpt>
      <trkpt lat="4.3675010" lon="-75.7730030">
        <ele>1178.8</ele>
        <time>2022-08-13T18:02:09Z</time>
      </trkpt>
      <trkpt lat="4.3673300" lon="-75.7732870">
        <ele>1178.8</ele>
        <time>2022-08-13T18:02:12Z</time>
      </trkpt>
      <trkpt lat="4.3671930" lon="-75.7735780">
        <ele>1178.2</ele>
        <time>2022-08-13T18:02:15Z</time>
      </trkpt>
      <trkpt lat="4.3671210" lon="-75.7737610">
        <ele>1177.4</ele>
        <time>2022-08-13T18:02:17Z</time>
      </trkpt>
      <trkpt lat="4.3670230" lon="-75.7740810">
        <ele>1176.2</ele>
        <time>2022-08-13T18:02:20Z</time>
      </trkpt>
      <trkpt lat="4.3669970" lon="-75.7741890">
        <ele>1175.8</ele>
        <time>2022-08-13T18:02:21Z</time>
      </trkpt>
      <trkpt lat="4.3669530" lon="-75.7744090">
        <ele>1174.6</ele>
        <time>2022-08-13T18:02:23Z</time>
      </trkpt>
      <trkpt lat="4.3668960" lon="-75.7747410">
        <ele>1173.2</ele>
        <time>2022-08-13T18:02:26Z</time>
      </trkpt>
      <trkpt lat="4.3668550" lon="-75.7749600">
        <ele>1172.4</ele>
        <time>2022-08-13T18:02:28Z</time>
      </trkpt>
      <trkpt lat="4.3668110" lon="-75.7751720">
        <ele>1171.8</ele>
        <time>2022-08-13T18:02:30Z</time>
      </trkpt>
      <trkpt lat="4.3667620" lon="-75.7753850">
        <ele>1170.2</ele>
        <time>2022-08-13T18:02:32Z</time>
      </trkpt>
      <trkpt lat="4.3666940" lon="-75.7757020">
        <ele>1169.2</ele>
        <time>2022-08-13T18:02:35Z</time>
      </trkpt>
      <trkpt lat="4.3666730" lon="-75.7758050">
        <ele>1169.0</ele>
        <time>2022-08-13T18:02:36Z</time>
      </trkpt>
      <trkpt lat="4.3665430" lon="-75.7763990">
        <ele>1168.8</ele>
        <time>2022-08-13T18:02:42Z</time>
      </trkpt>
      <trkpt lat="4.3664800" lon="-75.7766900">
        <ele>1168.6</ele>
        <time>2022-08-13T18:02:45Z</time>
      </trkpt>
      <trkpt lat="4.3663940" lon="-75.7770640">
        <ele>1168.6</ele>
        <time>2022-08-13T18:02:49Z</time>
      </trkpt>
      <trkpt lat="4.3662760" lon="-75.7776000">
        <ele>1168.4</ele>
        <time>2022-08-13T18:02:55Z</time>
      </trkpt>
      <trkpt lat="4.3661700" lon="-75.7780720">
        <ele>1168.8</ele>
        <time>2022-08-13T18:03:01Z</time>
      </trkpt>
      <trkpt lat="4.3660850" lon="-75.7784750">
        <ele>1169.6</ele>
        <time>2022-08-13T18:03:07Z</time>
      </trkpt>
      <trkpt lat="4.3660490" lon="-75.7786460">
        <ele>1170.8</ele>
        <time>2022-08-13T18:03:10Z</time>
      </trkpt>
      <trkpt lat="4.3660170" lon="-75.7788000">
        <ele>1171.4</ele>
        <time>2022-08-13T18:03:13Z</time>
      </trkpt>
      <trkpt lat="4.3659960" lon="-75.7789010">
        <ele>1172.2</ele>
        <time>2022-08-13T18:03:15Z</time>
      </trkpt>
      <trkpt lat="4.3659440" lon="-75.7791350">
        <ele>1173.4</ele>
        <time>2022-08-13T18:03:20Z</time>
      </trkpt>
      <trkpt lat="4.3659220" lon="-75.7792250">
        <ele>1174.0</ele>
        <time>2022-08-13T18:03:22Z</time>
      </trkpt>
      <trkpt lat="4.3658950" lon="-75.7793590">
        <ele>1174.8</ele>
        <time>2022-08-13T18:03:25Z</time>
      </trkpt>
      <trkpt lat="4.3658670" lon="-75.7794860">
        <ele>1175.8</ele>
        <time>2022-08-13T18:03:28Z</time>
      </trkpt>
      <trkpt lat="4.3658390" lon="-75.7796100">
        <ele>1176.6</ele>
        <time>2022-08-13T18:03:31Z</time>
      </trkpt>
      <trkpt lat="4.3658190" lon="-75.7796930">
        <ele>1176.8</ele>
        <time>2022-08-13T18:03:33Z</time>
      </trkpt>
      <trkpt lat="4.3658030" lon="-75.7798160">
        <ele>1177.8</ele>
        <time>2022-08-13T18:03:36Z</time>
      </trkpt>
      <trkpt lat="4.3657930" lon="-75.7798970">
        <ele>1178.0</ele>
        <time>2022-08-13T18:03:38Z</time>
      </trkpt>
      <trkpt lat="4.3657860" lon="-75.7799380">
        <ele>1178.4</ele>
        <time>2022-08-13T18:03:39Z</time>
      </trkpt>
      <trkpt lat="4.3657510" lon="-75.7800480">
        <ele>1179.0</ele>
        <time>2022-08-13T18:03:42Z</time>
      </trkpt>
      <trkpt lat="4.3657320" lon="-75.7800840">
        <ele>1179.2</ele>
        <time>2022-08-13T18:03:43Z</time>
      </trkpt>
      <trkpt lat="4.3657120" lon="-75.7801190">
        <ele>1179.2</ele>
        <time>2022-08-13T18:03:44Z</time>
      </trkpt>
      <trkpt lat="4.3656930" lon="-75.7801540">
        <ele>1179.4</ele>
        <time>2022-08-13T18:03:45Z</time>
      </trkpt>
      <trkpt lat="4.3656530" lon="-75.7802260">
        <ele>1179.8</ele>
        <time>2022-08-13T18:03:47Z</time>
      </trkpt>
      <trkpt lat="4.3655870" lon="-75.7802980">
        <ele>1180.0</ele>
        <time>2022-08-13T18:03:49Z</time>
      </trkpt>
      <trkpt lat="4.3655480" lon="-75.7803290">
        <ele>1180.4</ele>
        <time>2022-08-13T18:03:50Z</time>
      </trkpt>
      <trkpt lat="4.3655070" lon="-75.7803630">
        <ele>1180.6</ele>
        <time>2022-08-13T18:03:51Z</time>
      </trkpt>
      <trkpt lat="4.3654250" lon="-75.7804200">
        <ele>1180.8</ele>
        <time>2022-08-13T18:03:53Z</time>
      </trkpt>
      <trkpt lat="4.3653240" lon="-75.7804720">
        <ele>1180.8</ele>
        <time>2022-08-13T18:03:55Z</time>
      </trkpt>
      <trkpt lat="4.3652670" lon="-75.7804910">
        <ele>1180.8</ele>
        <time>2022-08-13T18:03:56Z</time>
      </trkpt>
      <trkpt lat="4.3650750" lon="-75.7805420">
        <ele>1180.8</ele>
        <time>2022-08-13T18:03:59Z</time>
      </trkpt>
      <trkpt lat="4.3646230" lon="-75.7806150">
        <ele>1180.4</ele>
        <time>2022-08-13T18:04:05Z</time>
      </trkpt>
      <trkpt lat="4.3643580" lon="-75.7806520">
        <ele>1179.2</ele>
        <time>2022-08-13T18:04:08Z</time>
      </trkpt>
      <trkpt lat="4.3640620" lon="-75.7806960">
        <ele>1178.4</ele>
        <time>2022-08-13T18:04:11Z</time>
      </trkpt>
      <trkpt lat="4.3639620" lon="-75.7807120">
        <ele>1178.0</ele>
        <time>2022-08-13T18:04:12Z</time>
      </trkpt>
      <trkpt lat="4.3637400" lon="-75.7807470">
        <ele>1176.8</ele>
        <time>2022-08-13T18:04:14Z</time>
      </trkpt>
      <trkpt lat="4.3635590" lon="-75.7807760">
        <ele>1175.6</ele>
        <time>2022-08-13T18:04:16Z</time>
      </trkpt>
      <trkpt lat="4.3633620" lon="-75.7808100">
        <ele>1174.4</ele>
        <time>2022-08-13T18:04:18Z</time>
      </trkpt>
      <trkpt lat="4.3632640" lon="-75.7808240">
        <ele>1173.6</ele>
        <time>2022-08-13T18:04:19Z</time>
      </trkpt>
      <trkpt lat="4.3631690" lon="-75.7808400">
        <ele>1172.8</ele>
        <time>2022-08-13T18:04:20Z</time>
      </trkpt>
      <trkpt lat="4.3629790" lon="-75.7808710">
        <ele>1171.2</ele>
        <time>2022-08-13T18:04:22Z</time>
      </trkpt>
      <trkpt lat="4.3627050" lon="-75.7809150">
        <ele>1170.4</ele>
        <time>2022-08-13T18:04:25Z</time>
      </trkpt>
      <trkpt lat="4.3624440" lon="-75.7809570">
        <ele>1170.2</ele>
        <time>2022-08-13T18:04:28Z</time>
      </trkpt>
      <trkpt lat="4.3619620" lon="-75.7810340">
        <ele>1170.2</ele>
        <time>2022-08-13T18:04:34Z</time>
      </trkpt>
      <trkpt lat="4.3618850" lon="-75.7810440">
        <ele>1170.2</ele>
        <time>2022-08-13T18:04:35Z</time>
      </trkpt>
      <trkpt lat="4.3614160" lon="-75.7811210">
        <ele>1171.0</ele>
        <time>2022-08-13T18:04:41Z</time>
      </trkpt>
      <trkpt lat="4.3613410" lon="-75.7811320">
        <ele>1171.2</ele>
        <time>2022-08-13T18:04:42Z</time>
      </trkpt>
      <trkpt lat="4.3610430" lon="-75.7811820">
        <ele>1171.4</ele>
        <time>2022-08-13T18:04:46Z</time>
      </trkpt>
      <trkpt lat="4.3606190" lon="-75.7812490">
        <ele>1171.4</ele>
        <time>2022-08-13T18:04:52Z</time>
      </trkpt>
      <trkpt lat="4.3604860" lon="-75.7812770">
        <ele>1171.6</ele>
        <time>2022-08-13T18:04:54Z</time>
      </trkpt>
      <trkpt lat="4.3602880" lon="-75.7813080">
        <ele>1171.6</ele>
        <time>2022-08-13T18:04:57Z</time>
      </trkpt>
      <trkpt lat="4.3598380" lon="-75.7813740">
        <ele>1172.0</ele>
        <time>2022-08-13T18:05:04Z</time>
      </trkpt>
      <trkpt lat="4.3592580" lon="-75.7814590">
        <ele>1173.0</ele>
        <time>2022-08-13T18:05:13Z</time>
      </trkpt>
      <trkpt lat="4.3591930" lon="-75.7814720">
        <ele>1173.0</ele>
        <time>2022-08-13T18:05:14Z</time>
      </trkpt>
      <trkpt lat="4.3587550" lon="-75.7815450">
        <ele>1173.2</ele>
        <time>2022-08-13T18:05:21Z</time>
      </trkpt>
      <trkpt lat="4.3581840" lon="-75.7816410">
        <ele>1173.4</ele>
        <time>2022-08-13T18:05:30Z</time>
      </trkpt>
      <trkpt lat="4.3576920" lon="-75.7817230">
        <ele>1174.2</ele>
        <time>2022-08-13T18:05:38Z</time>
      </trkpt>
      <trkpt lat="4.3572150" lon="-75.7817990">
        <ele>1175.4</ele>
        <time>2022-08-13T18:05:46Z</time>
      </trkpt>
      <trkpt lat="4.3570960" lon="-75.7818190">
        <ele>1175.6</ele>
        <time>2022-08-13T18:05:48Z</time>
      </trkpt>
      <trkpt lat="4.3565580" lon="-75.7818980">
        <ele>1176.6</ele>
        <time>2022-08-13T18:05:57Z</time>
      </trkpt>
      <trkpt lat="4.3563810" lon="-75.7819250">
        <ele>1177.0</ele>
        <time>2022-08-13T18:06:00Z</time>
      </trkpt>
      <trkpt lat="4.3561490" lon="-75.7819650">
        <ele>1177.8</ele>
        <time>2022-08-13T18:06:04Z</time>
      </trkpt>
      <trkpt lat="4.3558050" lon="-75.7820220">
        <ele>1178.6</ele>
        <time>2022-08-13T18:06:10Z</time>
      </trkpt>
      <trkpt lat="4.3556370" lon="-75.7820520">
        <ele>1179.0</ele>
        <time>2022-08-13T18:06:13Z</time>
      </trkpt>
      <trkpt lat="4.3553600" lon="-75.7820960">
        <ele>1179.8</ele>
        <time>2022-08-13T18:06:18Z</time>
      </trkpt>
      <trkpt lat="4.3552000" lon="-75.7821240">
        <ele>1180.2</ele>
        <time>2022-08-13T18:06:21Z</time>
      </trkpt>
      <trkpt lat="4.3550050" lon="-75.7821560">
        <ele>1181.0</ele>
        <time>2022-08-13T18:06:25Z</time>
      </trkpt>
      <trkpt lat="4.3549130" lon="-75.7821710">
        <ele>1181.2</ele>
        <time>2022-08-13T18:06:27Z</time>
      </trkpt>
      <trkpt lat="4.3548730" lon="-75.7821820">
        <ele>1181.4</ele>
        <time>2022-08-13T18:06:28Z</time>
      </trkpt>
      <trkpt lat="4.3547940" lon="-75.7821960">
        <ele>1181.8</ele>
        <time>2022-08-13T18:06:30Z</time>
      </trkpt>
      <trkpt lat="4.3546410" lon="-75.7822260">
        <ele>1182.4</ele>
        <time>2022-08-13T18:06:34Z</time>
      </trkpt>
      <trkpt lat="4.3545660" lon="-75.7822410">
        <ele>1183.0</ele>
        <time>2022-08-13T18:06:36Z</time>
      </trkpt>
      <trkpt lat="4.3544540" lon="-75.7822550">
        <ele>1184.0</ele>
        <time>2022-08-13T18:06:39Z</time>
      </trkpt>
      <trkpt lat="4.3543020" lon="-75.7822810">
        <ele>1184.6</ele>
        <time>2022-08-13T18:06:43Z</time>
      </trkpt>
      <trkpt lat="4.3542290" lon="-75.7822910">
        <ele>1185.0</ele>
        <time>2022-08-13T18:06:45Z</time>
      </trkpt>
      <trkpt lat="4.3540440" lon="-75.7823210">
        <ele>1186.4</ele>
        <time>2022-08-13T18:06:50Z</time>
      </trkpt>
      <trkpt lat="4.3540060" lon="-75.7823250">
        <ele>1186.8</ele>
        <time>2022-08-13T18:06:51Z</time>
      </trkpt>
      <trkpt lat="4.3539070" lon="-75.7823400">
        <ele>1187.6</ele>
        <time>2022-08-13T18:06:54Z</time>
      </trkpt>
      <trkpt lat="4.3537190" lon="-75.7823690">
        <ele>1188.6</ele>
        <time>2022-08-13T18:06:59Z</time>
      </trkpt>
      <trkpt lat="4.3536480" lon="-75.7823840">
        <ele>1189.2</ele>
        <time>2022-08-13T18:07:01Z</time>
      </trkpt>
      <trkpt lat="4.3535310" lon="-75.7824040">
        <ele>1189.8</ele>
        <time>2022-08-13T18:07:04Z</time>
      </trkpt>
      <trkpt lat="4.3534070" lon="-75.7824160">
        <ele>1190.2</ele>
        <time>2022-08-13T18:07:07Z</time>
      </trkpt>
      <trkpt lat="4.3532440" lon="-75.7824400">
        <ele>1191.0</ele>
        <time>2022-08-13T18:07:11Z</time>
      </trkpt>
      <trkpt lat="4.3531090" lon="-75.7824520">
        <ele>1191.6</ele>
        <time>2022-08-13T18:07:14Z</time>
      </trkpt>
      <trkpt lat="4.3529690" lon="-75.7824670">
        <ele>1192.2</ele>
        <time>2022-08-13T18:07:17Z</time>
      </trkpt>
      <trkpt lat="4.3526690" lon="-75.7825010">
        <ele>1192.8</ele>
        <time>2022-08-13T18:07:23Z</time>
      </trkpt>
      <trkpt lat="4.3523850" lon="-75.7825380">
        <ele>1193.0</ele>
        <time>2022-08-13T18:07:28Z</time>
      </trkpt>
      <trkpt lat="4.3519080" lon="-75.7826070">
        <ele>1192.8</ele>
        <time>2022-08-13T18:07:35Z</time>
      </trkpt>
      <trkpt lat="4.3513370" lon="-75.7826820">
        <ele>1191.4</ele>
        <time>2022-08-13T18:07:42Z</time>
      </trkpt>
      <trkpt lat="4.3510680" lon="-75.7827100">
        <ele>1190.4</ele>
        <time>2022-08-13T18:07:45Z</time>
      </trkpt>
      <trkpt lat="4.3509780" lon="-75.7827220">
        <ele>1190.0</ele>
        <time>2022-08-13T18:07:46Z</time>
      </trkpt>
      <trkpt lat="4.3507960" lon="-75.7827470">
        <ele>1189.2</ele>
        <time>2022-08-13T18:07:48Z</time>
      </trkpt>
      <trkpt lat="4.3505210" lon="-75.7827850">
        <ele>1187.8</ele>
        <time>2022-08-13T18:07:51Z</time>
      </trkpt>
      <trkpt lat="4.3501550" lon="-75.7828260">
        <ele>1186.6</ele>
        <time>2022-08-13T18:07:55Z</time>
      </trkpt>
      <trkpt lat="4.3495640" lon="-75.7829060">
        <ele>1185.8</ele>
        <time>2022-08-13T18:08:02Z</time>
      </trkpt>
      <trkpt lat="4.3493200" lon="-75.7829370">
        <ele>1185.8</ele>
        <time>2022-08-13T18:08:05Z</time>
      </trkpt>
      <trkpt lat="4.3488490" lon="-75.7830020">
        <ele>1186.0</ele>
        <time>2022-08-13T18:08:11Z</time>
      </trkpt>
      <trkpt lat="4.3482970" lon="-75.7831470">
        <ele>1186.6</ele>
        <time>2022-08-13T18:08:19Z</time>
      </trkpt>
      <trkpt lat="4.3477640" lon="-75.7833730">
        <ele>1187.2</ele>
        <time>2022-08-13T18:08:27Z</time>
      </trkpt>
      <trkpt lat="4.3476980" lon="-75.7834060">
        <ele>1187.2</ele>
        <time>2022-08-13T18:08:28Z</time>
      </trkpt>
      <trkpt lat="4.3473380" lon="-75.7836230">
        <ele>1187.4</ele>
        <time>2022-08-13T18:08:34Z</time>
      </trkpt>
      <trkpt lat="4.3472790" lon="-75.7836650">
        <ele>1187.4</ele>
        <time>2022-08-13T18:08:35Z</time>
      </trkpt>
      <trkpt lat="4.3470510" lon="-75.7838590">
        <ele>1187.4</ele>
        <time>2022-08-13T18:08:39Z</time>
      </trkpt>
      <trkpt lat="4.3467150" lon="-75.7842120">
        <ele>1187.4</ele>
        <time>2022-08-13T18:08:45Z</time>
      </trkpt>
      <trkpt lat="4.3463730" lon="-75.7845910">
        <ele>1186.6</ele>
        <time>2022-08-13T18:08:51Z</time>
      </trkpt>
      <trkpt lat="4.3461900" lon="-75.7847780">
        <ele>1186.2</ele>
        <time>2022-08-13T18:08:54Z</time>
      </trkpt>
      <trkpt lat="4.3459450" lon="-75.7850360">
        <ele>1185.2</ele>
        <time>2022-08-13T18:08:58Z</time>
      </trkpt>
      <trkpt lat="4.3458860" lon="-75.7850990">
        <ele>1185.0</ele>
        <time>2022-08-13T18:08:59Z</time>
      </trkpt>
      <trkpt lat="4.3455530" lon="-75.7854780">
        <ele>1184.2</ele>
        <time>2022-08-13T18:09:05Z</time>
      </trkpt>
      <trkpt lat="4.3454420" lon="-75.7855960">
        <ele>1184.0</ele>
        <time>2022-08-13T18:09:07Z</time>
      </trkpt>
      <trkpt lat="4.3452300" lon="-75.7858180">
        <ele>1184.0</ele>
        <time>2022-08-13T18:09:11Z</time>
      </trkpt>
      <trkpt lat="4.3449660" lon="-75.7861200">
        <ele>1184.0</ele>
        <time>2022-08-13T18:09:16Z</time>
      </trkpt>
      <trkpt lat="4.3446620" lon="-75.7864590">
        <ele>1183.8</ele>
        <time>2022-08-13T18:09:22Z</time>
      </trkpt>
      <trkpt lat="4.3446110" lon="-75.7865110">
        <ele>1183.8</ele>
        <time>2022-08-13T18:09:23Z</time>
      </trkpt>
      <trkpt lat="4.3443530" lon="-75.7867730">
        <ele>1183.8</ele>
        <time>2022-08-13T18:09:28Z</time>
      </trkpt>
      <trkpt lat="4.3440320" lon="-75.7871190">
        <ele>1184.0</ele>
        <time>2022-08-13T18:09:34Z</time>
      </trkpt>
      <trkpt lat="4.3436850" lon="-75.7874870">
        <ele>1184.0</ele>
        <time>2022-08-13T18:09:41Z</time>
      </trkpt>
      <trkpt lat="4.3433700" lon="-75.7878180">
        <ele>1184.2</ele>
        <time>2022-08-13T18:09:48Z</time>
      </trkpt>
      <trkpt lat="4.3431090" lon="-75.7880960">
        <ele>1185.2</ele>
        <time>2022-08-13T18:09:54Z</time>
      </trkpt>
      <trkpt lat="4.3429330" lon="-75.7882790">
        <ele>1185.8</ele>
        <time>2022-08-13T18:09:58Z</time>
      </trkpt>
      <trkpt lat="4.3427040" lon="-75.7885150">
        <ele>1186.0</ele>
        <time>2022-08-13T18:10:03Z</time>
      </trkpt>
      <trkpt lat="4.3423010" lon="-75.7889570">
        <ele>1185.4</ele>
        <time>2022-08-13T18:10:12Z</time>
      </trkpt>
      <trkpt lat="4.3422560" lon="-75.7890070">
        <ele>1185.4</ele>
        <time>2022-08-13T18:10:13Z</time>
      </trkpt>
      <trkpt lat="4.3418730" lon="-75.7894300">
        <ele>1185.2</ele>
        <time>2022-08-13T18:10:22Z</time>
      </trkpt>
      <trkpt lat="4.3418370" lon="-75.7894730">
        <ele>1185.2</ele>
        <time>2022-08-13T18:10:23Z</time>
      </trkpt>
      <trkpt lat="4.3416680" lon="-75.7896480">
        <ele>1185.8</ele>
        <time>2022-08-13T18:10:28Z</time>
      </trkpt>
      <trkpt lat="4.3415100" lon="-75.7898120">
        <ele>1187.4</ele>
        <time>2022-08-13T18:10:34Z</time>
      </trkpt>
      <trkpt lat="4.3414870" lon="-75.7898360">
        <ele>1188.0</ele>
        <time>2022-08-13T18:10:35Z</time>
      </trkpt>
      <trkpt lat="4.3414450" lon="-75.7898790">
        <ele>1188.8</ele>
        <time>2022-08-13T18:10:37Z</time>
      </trkpt>
      <trkpt lat="4.3413840" lon="-75.7899430">
        <ele>1189.8</ele>
        <time>2022-08-13T18:10:40Z</time>
      </trkpt>
      <trkpt lat="4.3413670" lon="-75.7899650">
        <ele>1190.2</ele>
        <time>2022-08-13T18:10:41Z</time>
      </trkpt>
      <trkpt lat="4.3413010" lon="-75.7900460">
        <ele>1191.2</ele>
        <time>2022-08-13T18:10:45Z</time>
      </trkpt>
      <trkpt lat="4.3412710" lon="-75.7900830">
        <ele>1192.2</ele>
        <time>2022-08-13T18:10:47Z</time>
      </trkpt>
      <trkpt lat="4.3412530" lon="-75.7901020">
        <ele>1192.6</ele>
        <time>2022-08-13T18:10:48Z</time>
      </trkpt>
      <trkpt lat="4.3411920" lon="-75.7901580">
        <ele>1193.6</ele>
        <time>2022-08-13T18:10:51Z</time>
      </trkpt>
      <trkpt lat="4.3410990" lon="-75.7902240">
        <ele>1194.4</ele>
        <time>2022-08-13T18:10:55Z</time>
      </trkpt>
      <trkpt lat="4.3410780" lon="-75.7902410">
        <ele>1194.8</ele>
        <time>2022-08-13T18:10:56Z</time>
      </trkpt>
      <trkpt lat="4.3409460" lon="-75.7903080">
        <ele>1195.8</ele>
        <time>2022-08-13T18:11:01Z</time>
      </trkpt>
      <trkpt lat="4.3408530" lon="-75.7903420">
        <ele>1196.6</ele>
        <time>2022-08-13T18:11:04Z</time>
      </trkpt>
      <trkpt lat="4.3408180" lon="-75.7903500">
        <ele>1196.8</ele>
        <time>2022-08-13T18:11:05Z</time>
      </trkpt>
      <trkpt lat="4.3406110" lon="-75.7903980">
        <ele>1197.8</ele>
        <time>2022-08-13T18:11:11Z</time>
      </trkpt>
      <trkpt lat="4.3405400" lon="-75.7904070">
        <ele>1198.2</ele>
        <time>2022-08-13T18:11:13Z</time>
      </trkpt>
      <trkpt lat="4.3403190" lon="-75.7904130">
        <ele>1198.6</ele>
        <time>2022-08-13T18:11:19Z</time>
      </trkpt>
      <trkpt lat="4.3401720" lon="-75.7904000">
        <ele>1199.4</ele>
        <time>2022-08-13T18:11:23Z</time>
      </trkpt>
      <trkpt lat="4.3400570" lon="-75.7903880">
        <ele>1199.6</ele>
        <time>2022-08-13T18:11:26Z</time>
      </trkpt>
      <trkpt lat="4.3397000" lon="-75.7903620">
        <ele>1200.0</ele>
        <time>2022-08-13T18:11:34Z</time>
      </trkpt>
      <trkpt lat="4.3396020" lon="-75.7903590">
        <ele>1200.0</ele>
        <time>2022-08-13T18:11:36Z</time>
      </trkpt>
      <trkpt lat="4.3393840" lon="-75.7903850">
        <ele>1200.0</ele>
        <time>2022-08-13T18:11:40Z</time>
      </trkpt>
      <trkpt lat="4.3391000" lon="-75.7904900">
        <ele>1199.2</ele>
        <time>2022-08-13T18:11:45Z</time>
      </trkpt>
      <trkpt lat="4.3389930" lon="-75.7905490">
        <ele>1199.2</ele>
        <time>2022-08-13T18:11:47Z</time>
      </trkpt>
      <trkpt lat="4.3388200" lon="-75.7906570">
        <ele>1198.8</ele>
        <time>2022-08-13T18:11:50Z</time>
      </trkpt>
      <trkpt lat="4.3387590" lon="-75.7906950">
        <ele>1198.4</ele>
        <time>2022-08-13T18:11:51Z</time>
      </trkpt>
      <trkpt lat="4.3385080" lon="-75.7908480">
        <ele>1197.4</ele>
        <time>2022-08-13T18:11:55Z</time>
      </trkpt>
      <trkpt lat="4.3383940" lon="-75.7909160">
        <ele>1196.8</ele>
        <time>2022-08-13T18:11:57Z</time>
      </trkpt>
      <trkpt lat="4.3382770" lon="-75.7909870">
        <ele>1196.2</ele>
        <time>2022-08-13T18:11:59Z</time>
      </trkpt>
      <trkpt lat="4.3380950" lon="-75.7911040">
        <ele>1195.4</ele>
        <time>2022-08-13T18:12:02Z</time>
      </trkpt>
      <trkpt lat="4.3380300" lon="-75.7911450">
        <ele>1195.2</ele>
        <time>2022-08-13T18:12:03Z</time>
      </trkpt>
      <trkpt lat="4.3379670" lon="-75.7911870">
        <ele>1195.2</ele>
        <time>2022-08-13T18:12:04Z</time>
      </trkpt>
      <trkpt lat="4.3377680" lon="-75.7913250">
        <ele>1193.6</ele>
        <time>2022-08-13T18:12:07Z</time>
      </trkpt>
      <trkpt lat="4.3376550" lon="-75.7914440">
        <ele>1193.4</ele>
        <time>2022-08-13T18:12:09Z</time>
      </trkpt>
      <trkpt lat="4.3376040" lon="-75.7915060">
        <ele>1193.2</ele>
        <time>2022-08-13T18:12:10Z</time>
      </trkpt>
      <trkpt lat="4.3374790" lon="-75.7917070">
        <ele>1192.4</ele>
        <time>2022-08-13T18:12:13Z</time>
      </trkpt>
      <trkpt lat="4.3374160" lon="-75.7918450">
        <ele>1192.0</ele>
        <time>2022-08-13T18:12:15Z</time>
      </trkpt>
      <trkpt lat="4.3373750" lon="-75.7919820">
        <ele>1191.2</ele>
        <time>2022-08-13T18:12:17Z</time>
      </trkpt>
      <trkpt lat="4.3373560" lon="-75.7920470">
        <ele>1190.8</ele>
        <time>2022-08-13T18:12:18Z</time>
      </trkpt>
      <trkpt lat="4.3373000" lon="-75.7922350">
        <ele>1190.2</ele>
        <time>2022-08-13T18:12:21Z</time>
      </trkpt>
      <trkpt lat="4.3372170" lon="-75.7924750">
        <ele>1190.0</ele>
        <time>2022-08-13T18:12:25Z</time>
      </trkpt>
      <trkpt lat="4.3370540" lon="-75.7930090">
        <ele>1190.2</ele>
        <time>2022-08-13T18:12:34Z</time>
      </trkpt>
      <trkpt lat="4.3370230" lon="-75.7931090">
        <ele>1190.2</ele>
        <time>2022-08-13T18:12:36Z</time>
      </trkpt>
      <trkpt lat="4.3369740" lon="-75.7932800">
        <ele>1190.4</ele>
        <time>2022-08-13T18:12:40Z</time>
      </trkpt>
      <trkpt lat="4.3369520" lon="-75.7933450">
        <ele>1190.8</ele>
        <time>2022-08-13T18:12:42Z</time>
      </trkpt>
      <trkpt lat="4.3369320" lon="-75.7934220">
        <ele>1191.6</ele>
        <time>2022-08-13T18:12:45Z</time>
      </trkpt>
      <trkpt lat="4.3369170" lon="-75.7934690">
        <ele>1192.6</ele>
        <time>2022-08-13T18:12:47Z</time>
      </trkpt>
      <trkpt lat="4.3369000" lon="-75.7935120">
        <ele>1193.2</ele>
        <time>2022-08-13T18:12:49Z</time>
      </trkpt>
      <trkpt lat="4.3368950" lon="-75.7935370">
        <ele>1193.8</ele>
        <time>2022-08-13T18:12:50Z</time>
      </trkpt>
      <trkpt lat="4.3368770" lon="-75.7936090">
        <ele>1194.8</ele>
        <time>2022-08-13T18:12:53Z</time>
      </trkpt>
      <trkpt lat="4.3368690" lon="-75.7936540">
        <ele>1195.6</ele>
        <time>2022-08-13T18:12:55Z</time>
      </trkpt>
      <trkpt lat="4.3368630" lon="-75.7936740">
        <ele>1195.8</ele>
        <time>2022-08-13T18:12:56Z</time>
      </trkpt>
      <trkpt lat="4.3368460" lon="-75.7937410">
        <ele>1196.4</ele>
        <time>2022-08-13T18:12:59Z</time>
      </trkpt>
      <trkpt lat="4.3368300" lon="-75.7937850">
        <ele>1196.8</ele>
        <time>2022-08-13T18:13:01Z</time>
      </trkpt>
      <trkpt lat="4.3368000" lon="-75.7938890">
        <ele>1198.0</ele>
        <time>2022-08-13T18:13:06Z</time>
      </trkpt>
      <trkpt lat="4.3367940" lon="-75.7939100">
        <ele>1198.2</ele>
        <time>2022-08-13T18:13:07Z</time>
      </trkpt>
      <trkpt lat="4.3367630" lon="-75.7939930">
        <ele>1199.2</ele>
        <time>2022-08-13T18:13:11Z</time>
      </trkpt>
      <trkpt lat="4.3367330" lon="-75.7940800">
        <ele>1200.6</ele>
        <time>2022-08-13T18:13:15Z</time>
      </trkpt>
      <trkpt lat="4.3367190" lon="-75.7941380">
        <ele>1201.2</ele>
        <time>2022-08-13T18:13:18Z</time>
      </trkpt>
      <trkpt lat="4.3367140" lon="-75.7941520">
        <ele>1201.6</ele>
        <time>2022-08-13T18:13:19Z</time>
      </trkpt>
      <trkpt lat="4.3367100" lon="-75.7941720">
        <ele>1201.8</ele>
        <time>2022-08-13T18:13:20Z</time>
      </trkpt>
      <trkpt lat="4.3366790" lon="-75.7942720">
        <ele>1202.8</ele>
        <time>2022-08-13T18:13:25Z</time>
      </trkpt>
      <trkpt lat="4.3366710" lon="-75.7942960">
        <ele>1203.2</ele>
        <time>2022-08-13T18:13:26Z</time>
      </trkpt>
      <trkpt lat="4.3366370" lon="-75.7943890">
        <ele>1204.2</ele>
        <time>2022-08-13T18:13:31Z</time>
      </trkpt>
      <trkpt lat="4.3366180" lon="-75.7944510">
        <ele>1205.0</ele>
        <time>2022-08-13T18:13:34Z</time>
      </trkpt>
      <trkpt lat="4.3366100" lon="-75.7944720">
        <ele>1205.2</ele>
        <time>2022-08-13T18:13:35Z</time>
      </trkpt>
      <trkpt lat="4.3365950" lon="-75.7945110">
        <ele>1205.6</ele>
        <time>2022-08-13T18:13:37Z</time>
      </trkpt>
      <trkpt lat="4.3365800" lon="-75.7945750">
        <ele>1206.2</ele>
        <time>2022-08-13T18:13:40Z</time>
      </trkpt>
      <trkpt lat="4.3365720" lon="-75.7945930">
        <ele>1206.4</ele>
        <time>2022-08-13T18:13:41Z</time>
      </trkpt>
      <trkpt lat="4.3365440" lon="-75.7946860">
        <ele>1207.6</ele>
        <time>2022-08-13T18:13:46Z</time>
      </trkpt>
      <trkpt lat="4.3365230" lon="-75.7947590">
        <ele>1208.4</ele>
        <time>2022-08-13T18:13:50Z</time>
      </trkpt>
      <trkpt lat="4.3365090" lon="-75.7947930">
        <ele>1208.8</ele>
        <time>2022-08-13T18:13:52Z</time>
      </trkpt>
      <trkpt lat="4.3364800" lon="-75.7948830">
        <ele>1210.0</ele>
        <time>2022-08-13T18:13:57Z</time>
      </trkpt>
      <trkpt lat="4.3364700" lon="-75.7948990">
        <ele>1210.2</ele>
        <time>2022-08-13T18:13:58Z</time>
      </trkpt>
      <trkpt lat="4.3364220" lon="-75.7950060">
        <ele>1211.2</ele>
        <time>2022-08-13T18:14:04Z</time>
      </trkpt>
      <trkpt lat="4.3363960" lon="-75.7950630">
        <ele>1211.6</ele>
        <time>2022-08-13T18:14:07Z</time>
      </trkpt>
      <trkpt lat="4.3363700" lon="-75.7951200">
        <ele>1212.2</ele>
        <time>2022-08-13T18:14:10Z</time>
      </trkpt>
      <trkpt lat="4.3363400" lon="-75.7951770">
        <ele>1212.8</ele>
        <time>2022-08-13T18:14:13Z</time>
      </trkpt>
      <trkpt lat="4.3362980" lon="-75.7952510">
        <ele>1213.4</ele>
        <time>2022-08-13T18:14:17Z</time>
      </trkpt>
      <trkpt lat="4.3362220" lon="-75.7953390">
        <ele>1214.6</ele>
        <time>2022-08-13T18:14:23Z</time>
      </trkpt>
      <trkpt lat="4.3361960" lon="-75.7953660">
        <ele>1215.0</ele>
        <time>2022-08-13T18:14:25Z</time>
      </trkpt>
      <trkpt lat="4.3361530" lon="-75.7954100">
        <ele>1216.0</ele>
        <time>2022-08-13T18:14:28Z</time>
      </trkpt>
      <trkpt lat="4.3360860" lon="-75.7954600">
        <ele>1217.0</ele>
        <time>2022-08-13T18:14:32Z</time>
      </trkpt>
      <trkpt lat="4.3360330" lon="-75.7954940">
        <ele>1217.4</ele>
        <time>2022-08-13T18:14:35Z</time>
      </trkpt>
      <trkpt lat="4.3359650" lon="-75.7955390">
        <ele>1218.0</ele>
        <time>2022-08-13T18:14:39Z</time>
      </trkpt>
      <trkpt lat="4.3358980" lon="-75.7955800">
        <ele>1218.6</ele>
        <time>2022-08-13T18:14:43Z</time>
      </trkpt>
      <trkpt lat="4.3358400" lon="-75.7956100">
        <ele>1219.2</ele>
        <time>2022-08-13T18:14:46Z</time>
      </trkpt>
      <trkpt lat="4.3357990" lon="-75.7956240">
        <ele>1219.6</ele>
        <time>2022-08-13T18:14:48Z</time>
      </trkpt>
      <trkpt lat="4.3357330" lon="-75.7956480">
        <ele>1220.4</ele>
        <time>2022-08-13T18:14:51Z</time>
      </trkpt>
      <trkpt lat="4.3357150" lon="-75.7956520">
        <ele>1220.6</ele>
        <time>2022-08-13T18:14:52Z</time>
      </trkpt>
      <trkpt lat="4.3356110" lon="-75.7956850">
        <ele>1221.6</ele>
        <time>2022-08-13T18:14:57Z</time>
      </trkpt>
      <trkpt lat="4.3355250" lon="-75.7957050">
        <ele>1222.2</ele>
        <time>2022-08-13T18:15:01Z</time>
      </trkpt>
      <trkpt lat="4.3354720" lon="-75.7957080">
        <ele>1222.8</ele>
        <time>2022-08-13T18:15:03Z</time>
      </trkpt>
      <trkpt lat="4.3353190" lon="-75.7957190">
        <ele>1223.8</ele>
        <time>2022-08-13T18:15:10Z</time>
      </trkpt>
      <trkpt lat="4.3352730" lon="-75.7957230">
        <ele>1224.2</ele>
        <time>2022-08-13T18:15:12Z</time>
      </trkpt>
      <trkpt lat="4.3352090" lon="-75.7957270">
        <ele>1224.8</ele>
        <time>2022-08-13T18:15:15Z</time>
      </trkpt>
      <trkpt lat="4.3351660" lon="-75.7957300">
        <ele>1225.2</ele>
        <time>2022-08-13T18:15:17Z</time>
      </trkpt>
      <trkpt lat="4.3351240" lon="-75.7957380">
        <ele>1225.6</ele>
        <time>2022-08-13T18:15:19Z</time>
      </trkpt>
      <trkpt lat="4.3350210" lon="-75.7957430">
        <ele>1226.2</ele>
        <time>2022-08-13T18:15:24Z</time>
      </trkpt>
      <trkpt lat="4.3349620" lon="-75.7957530">
        <ele>1226.6</ele>
        <time>2022-08-13T18:15:27Z</time>
      </trkpt>
      <trkpt lat="4.3348610" lon="-75.7958290">
        <ele>1227.2</ele>
        <time>2022-08-13T18:15:33Z</time>
      </trkpt>
      <trkpt lat="4.3348430" lon="-75.7958620">
        <ele>1227.8</ele>
        <time>2022-08-13T18:15:35Z</time>
      </trkpt>
      <trkpt lat="4.3348070" lon="-75.7959520">
        <ele>1228.6</ele>
        <time>2022-08-13T18:15:40Z</time>
      </trkpt>
      <trkpt lat="4.3348020" lon="-75.7959700">
        <ele>1228.8</ele>
        <time>2022-08-13T18:15:41Z</time>
      </trkpt>
      <trkpt lat="4.3347670" lon="-75.7960730">
        <ele>1229.8</ele>
        <time>2022-08-13T18:15:46Z</time>
      </trkpt>
      <trkpt lat="4.3347740" lon="-75.7961670">
        <ele>1230.6</ele>
        <time>2022-08-13T18:15:51Z</time>
      </trkpt>
      <trkpt lat="4.3347830" lon="-75.7961850">
        <ele>1230.8</ele>
        <time>2022-08-13T18:15:52Z</time>
      </trkpt>
      <trkpt lat="4.3348360" lon="-75.7962870">
        <ele>1231.8</ele>
        <time>2022-08-13T18:15:57Z</time>
      </trkpt>
      <trkpt lat="4.3348580" lon="-75.7963230">
        <ele>1232.0</ele>
        <time>2022-08-13T18:15:59Z</time>
      </trkpt>
      <trkpt lat="4.3349360" lon="-75.7963940">
        <ele>1233.0</ele>
        <time>2022-08-13T18:16:04Z</time>
      </trkpt>
      <trkpt lat="4.3349690" lon="-75.7964210">
        <ele>1233.4</ele>
        <time>2022-08-13T18:16:06Z</time>
      </trkpt>
      <trkpt lat="4.3350420" lon="-75.7964810">
        <ele>1234.0</ele>
        <time>2022-08-13T18:16:10Z</time>
      </trkpt>
      <trkpt lat="4.3350580" lon="-75.7964950">
        <ele>1234.2</ele>
        <time>2022-08-13T18:16:11Z</time>
      </trkpt>
      <trkpt lat="4.3351090" lon="-75.7965420">
        <ele>1234.6</ele>
        <time>2022-08-13T18:16:14Z</time>
      </trkpt>
      <trkpt lat="4.3351500" lon="-75.7965680">
        <ele>1235.2</ele>
        <time>2022-08-13T18:16:16Z</time>
      </trkpt>
      <trkpt lat="4.3352310" lon="-75.7966380">
        <ele>1236.4</ele>
        <time>2022-08-13T18:16:21Z</time>
      </trkpt>
      <trkpt lat="4.3352460" lon="-75.7966510">
        <ele>1236.8</ele>
        <time>2022-08-13T18:16:22Z</time>
      </trkpt>
      <trkpt lat="4.3353300" lon="-75.7967300">
        <ele>1237.4</ele>
        <time>2022-08-13T18:16:27Z</time>
      </trkpt>
      <trkpt lat="4.3353930" lon="-75.7967700">
        <ele>1238.0</ele>
        <time>2022-08-13T18:16:30Z</time>
      </trkpt>
      <trkpt lat="4.3354640" lon="-75.7968190">
        <ele>1238.6</ele>
        <time>2022-08-13T18:16:34Z</time>
      </trkpt>
      <trkpt lat="4.3355380" lon="-75.7968660">
        <ele>1239.6</ele>
        <time>2022-08-13T18:16:38Z</time>
      </trkpt>
      <trkpt lat="4.3355610" lon="-75.7968750">
        <ele>1239.8</ele>
        <time>2022-08-13T18:16:39Z</time>
      </trkpt>
      <trkpt lat="4.3356650" lon="-75.7969180">
        <ele>1241.0</ele>
        <time>2022-08-13T18:16:44Z</time>
      </trkpt>
      <trkpt lat="4.3356830" lon="-75.7969230">
        <ele>1241.2</ele>
        <time>2022-08-13T18:16:45Z</time>
      </trkpt>
      <trkpt lat="4.3358610" lon="-75.7969610">
        <ele>1242.2</ele>
        <time>2022-08-13T18:16:52Z</time>
      </trkpt>
      <trkpt lat="4.3360430" lon="-75.7969850">
        <ele>1243.2</ele>
        <time>2022-08-13T18:16:59Z</time>
      </trkpt>
      <trkpt lat="4.3361230" lon="-75.7969840">
        <ele>1244.0</ele>
        <time>2022-08-13T18:17:03Z</time>
      </trkpt>
      <trkpt lat="4.3361570" lon="-75.7969790">
        <ele>1244.2</ele>
        <time>2022-08-13T18:17:05Z</time>
      </trkpt>
      <trkpt lat="4.3362520" lon="-75.7969600">
        <ele>1245.6</ele>
        <time>2022-08-13T18:17:10Z</time>
      </trkpt>
      <trkpt lat="4.3363550" lon="-75.7969350">
        <ele>1246.6</ele>
        <time>2022-08-13T18:17:15Z</time>
      </trkpt>
      <trkpt lat="4.3363760" lon="-75.7969360">
        <ele>1247.0</ele>
        <time>2022-08-13T18:17:16Z</time>
      </trkpt>
      <trkpt lat="4.3365070" lon="-75.7969410">
        <ele>1248.0</ele>
        <time>2022-08-13T18:17:22Z</time>
      </trkpt>
      <trkpt lat="4.3365280" lon="-75.7969440">
        <ele>1248.0</ele>
        <time>2022-08-13T18:17:23Z</time>
      </trkpt>
      <trkpt lat="4.3366520" lon="-75.7969940">
        <ele>1249.0</ele>
        <time>2022-08-13T18:17:29Z</time>
      </trkpt>
      <trkpt lat="4.3367020" lon="-75.7970290">
        <ele>1249.8</ele>
        <time>2022-08-13T18:17:32Z</time>
      </trkpt>
      <trkpt lat="4.3367180" lon="-75.7970420">
        <ele>1250.2</ele>
        <time>2022-08-13T18:17:33Z</time>
      </trkpt>
      <trkpt lat="4.3368130" lon="-75.7971700">
        <ele>1251.2</ele>
        <time>2022-08-13T18:17:40Z</time>
      </trkpt>
      <trkpt lat="4.3368630" lon="-75.7972810">
        <ele>1252.6</ele>
        <time>2022-08-13T18:17:46Z</time>
      </trkpt>
      <trkpt lat="4.3368670" lon="-75.7973040">
        <ele>1252.8</ele>
        <time>2022-08-13T18:17:47Z</time>
      </trkpt>
      <trkpt lat="4.3368710" lon="-75.7974070">
        <ele>1253.8</ele>
        <time>2022-08-13T18:17:51Z</time>
      </trkpt>
      <trkpt lat="4.3368540" lon="-75.7975010">
        <ele>1255.0</ele>
        <time>2022-08-13T18:17:55Z</time>
      </trkpt>
      <trkpt lat="4.3367870" lon="-75.7976760">
        <ele>1256.0</ele>
        <time>2022-08-13T18:18:02Z</time>
      </trkpt>
      <trkpt lat="4.3367590" lon="-75.7977380">
        <ele>1256.4</ele>
        <time>2022-08-13T18:18:04Z</time>
      </trkpt>
      <trkpt lat="4.3366780" lon="-75.7979270">
        <ele>1257.2</ele>
        <time>2022-08-13T18:18:11Z</time>
      </trkpt>
      <trkpt lat="4.3366550" lon="-75.7979840">
        <ele>1257.2</ele>
        <time>2022-08-13T18:18:13Z</time>
      </trkpt>
      <trkpt lat="4.3365920" lon="-75.7981240">
        <ele>1258.4</ele>
        <time>2022-08-13T18:18:18Z</time>
      </trkpt>
      <trkpt lat="4.3365200" lon="-75.7982770">
        <ele>1259.6</ele>
        <time>2022-08-13T18:18:23Z</time>
      </trkpt>
      <trkpt lat="4.3365060" lon="-75.7983090">
        <ele>1259.8</ele>
        <time>2022-08-13T18:18:24Z</time>
      </trkpt>
      <trkpt lat="4.3364650" lon="-75.7984090">
        <ele>1260.6</ele>
        <time>2022-08-13T18:18:27Z</time>
      </trkpt>
      <trkpt lat="4.3363700" lon="-75.7986260">
        <ele>1261.6</ele>
        <time>2022-08-13T18:18:33Z</time>
      </trkpt>
      <trkpt lat="4.3363540" lon="-75.7986640">
        <ele>1262.0</ele>
        <time>2022-08-13T18:18:34Z</time>
      </trkpt>
      <trkpt lat="4.3362080" lon="-75.7990010">
        <ele>1262.6</ele>
        <time>2022-08-13T18:18:42Z</time>
      </trkpt>
      <trkpt lat="4.3361910" lon="-75.7990390">
        <ele>1262.6</ele>
        <time>2022-08-13T18:18:43Z</time>
      </trkpt>
      <trkpt lat="4.3361440" lon="-75.7991320">
        <ele>1262.6</ele>
        <time>2022-08-13T18:18:45Z</time>
      </trkpt>
      <trkpt lat="4.3360020" lon="-75.7994020">
        <ele>1262.6</ele>
        <time>2022-08-13T18:18:50Z</time>
      </trkpt>
      <trkpt lat="4.3357860" lon="-75.7997740">
        <ele>1262.2</ele>
        <time>2022-08-13T18:18:56Z</time>
      </trkpt>
      <trkpt lat="4.3355720" lon="-75.8001450">
        <ele>1260.8</ele>
        <time>2022-08-13T18:19:01Z</time>
      </trkpt>
      <trkpt lat="4.3355220" lon="-75.8002290">
        <ele>1260.4</ele>
        <time>2022-08-13T18:19:02Z</time>
      </trkpt>
      <trkpt lat="4.3353580" lon="-75.8004960">
        <ele>1259.2</ele>
        <time>2022-08-13T18:19:05Z</time>
      </trkpt>
      <trkpt lat="4.3352870" lon="-75.8006130">
        <ele>1259.0</ele>
        <time>2022-08-13T18:19:06Z</time>
      </trkpt>
      <trkpt lat="4.3351740" lon="-75.8007960">
        <ele>1258.0</ele>
        <time>2022-08-13T18:19:08Z</time>
      </trkpt>
      <trkpt lat="4.3349640" lon="-75.8011410">
        <ele>1256.4</ele>
        <time>2022-08-13T18:19:11Z</time>
      </trkpt>
      <trkpt lat="4.3348420" lon="-75.8013370">
        <ele>1254.8</ele>
        <time>2022-08-13T18:19:13Z</time>
      </trkpt>
      <trkpt lat="4.3346920" lon="-75.8015670">
        <ele>1253.2</ele>
        <time>2022-08-13T18:19:15Z</time>
      </trkpt>
      <trkpt lat="4.3346400" lon="-75.8016470">
        <ele>1252.2</ele>
        <time>2022-08-13T18:19:16Z</time>
      </trkpt>
      <trkpt lat="4.3345790" lon="-75.8017460">
        <ele>1251.0</ele>
        <time>2022-08-13T18:19:17Z</time>
      </trkpt>
      <trkpt lat="4.3345150" lon="-75.8018400">
        <ele>1249.2</ele>
        <time>2022-08-13T18:19:18Z</time>
      </trkpt>
      <trkpt lat="4.3343860" lon="-75.8020320">
        <ele>1248.0</ele>
        <time>2022-08-13T18:19:20Z</time>
      </trkpt>
      <trkpt lat="4.3342830" lon="-75.8021770">
        <ele>1247.6</ele>
        <time>2022-08-13T18:19:22Z</time>
      </trkpt>
      <trkpt lat="4.3340700" lon="-75.8025210">
        <ele>1247.6</ele>
        <time>2022-08-13T18:19:27Z</time>
      </trkpt>
      <trkpt lat="4.3339350" lon="-75.8027450">
        <ele>1249.2</ele>
        <time>2022-08-13T18:19:31Z</time>
      </trkpt>
      <trkpt lat="4.3338700" lon="-75.8028540">
        <ele>1250.2</ele>
        <time>2022-08-13T18:19:33Z</time>
      </trkpt>
      <trkpt lat="4.3338110" lon="-75.8029980">
        <ele>1252.0</ele>
        <time>2022-08-13T18:19:36Z</time>
      </trkpt>
      <trkpt lat="4.3337770" lon="-75.8031040">
        <ele>1253.2</ele>
        <time>2022-08-13T18:19:38Z</time>
      </trkpt>
      <trkpt lat="4.3337610" lon="-75.8031690">
        <ele>1253.4</ele>
        <time>2022-08-13T18:19:39Z</time>
      </trkpt>
      <trkpt lat="4.3337550" lon="-75.8032170">
        <ele>1253.6</ele>
        <time>2022-08-13T18:19:40Z</time>
      </trkpt>
      <trkpt lat="4.3337290" lon="-75.8034530">
        <ele>1254.2</ele>
        <time>2022-08-13T18:19:44Z</time>
      </trkpt>
      <trkpt lat="4.3337090" lon="-75.8037740">
        <ele>1254.6</ele>
        <time>2022-08-13T18:19:49Z</time>
      </trkpt>
      <trkpt lat="4.3336910" lon="-75.8041420">
        <ele>1254.6</ele>
        <time>2022-08-13T18:19:55Z</time>
      </trkpt>
      <trkpt lat="4.3336750" lon="-75.8043430">
        <ele>1254.6</ele>
        <time>2022-08-13T18:19:58Z</time>
      </trkpt>
      <trkpt lat="4.3336780" lon="-75.8047770">
        <ele>1254.6</ele>
        <time>2022-08-13T18:20:05Z</time>
      </trkpt>
      <trkpt lat="4.3337770" lon="-75.8051770">
        <ele>1254.6</ele>
        <time>2022-08-13T18:20:11Z</time>
      </trkpt>
      <trkpt lat="4.3339940" lon="-75.8056150">
        <ele>1254.4</ele>
        <time>2022-08-13T18:20:18Z</time>
      </trkpt>
      <trkpt lat="4.3342650" lon="-75.8060870">
        <ele>1253.4</ele>
        <time>2022-08-13T18:20:25Z</time>
      </trkpt>
      <trkpt lat="4.3342960" lon="-75.8061390">
        <ele>1253.4</ele>
        <time>2022-08-13T18:20:26Z</time>
      </trkpt>
      <trkpt lat="4.3346130" lon="-75.8066150">
        <ele>1252.6</ele>
        <time>2022-08-13T18:20:33Z</time>
      </trkpt>
      <trkpt lat="4.3347280" lon="-75.8067570">
        <ele>1252.6</ele>
        <time>2022-08-13T18:20:35Z</time>
      </trkpt>
      <trkpt lat="4.3349290" lon="-75.8069750">
        <ele>1252.0</ele>
        <time>2022-08-13T18:20:38Z</time>
      </trkpt>
      <trkpt lat="4.3351720" lon="-75.8072130">
        <ele>1250.8</ele>
        <time>2022-08-13T18:20:41Z</time>
      </trkpt>
      <trkpt lat="4.3353080" lon="-75.8073630">
        <ele>1249.2</ele>
        <time>2022-08-13T18:20:43Z</time>
      </trkpt>
      <trkpt lat="4.3353910" lon="-75.8074770">
        <ele>1248.4</ele>
        <time>2022-08-13T18:20:44Z</time>
      </trkpt>
      <trkpt lat="4.3354500" lon="-75.8075840">
        <ele>1247.8</ele>
        <time>2022-08-13T18:20:45Z</time>
      </trkpt>
      <trkpt lat="4.3355030" lon="-75.8076990">
        <ele>1247.6</ele>
        <time>2022-08-13T18:20:46Z</time>
      </trkpt>
      <trkpt lat="4.3355700" lon="-75.8079140">
        <ele>1246.2</ele>
        <time>2022-08-13T18:20:48Z</time>
      </trkpt>
      <trkpt lat="4.3356050" lon="-75.8081840">
        <ele>1245.8</ele>
        <time>2022-08-13T18:20:50Z</time>
      </trkpt>
      <trkpt lat="4.3356340" lon="-75.8084620">
        <ele>1244.8</ele>
        <time>2022-08-13T18:20:52Z</time>
      </trkpt>
      <trkpt lat="4.3356770" lon="-75.8087670">
        <ele>1243.0</ele>
        <time>2022-08-13T18:20:54Z</time>
      </trkpt>
      <trkpt lat="4.3356960" lon="-75.8089080">
        <ele>1242.0</ele>
        <time>2022-08-13T18:20:55Z</time>
      </trkpt>
      <trkpt lat="4.3357130" lon="-75.8090510">
        <ele>1241.0</ele>
        <time>2022-08-13T18:20:56Z</time>
      </trkpt>
      <trkpt lat="4.3357240" lon="-75.8091680">
        <ele>1240.0</ele>
        <time>2022-08-13T18:20:57Z</time>
      </trkpt>
      <trkpt lat="4.3357390" lon="-75.8093130">
        <ele>1238.6</ele>
        <time>2022-08-13T18:20:58Z</time>
      </trkpt>
      <trkpt lat="4.3357590" lon="-75.8094870">
        <ele>1237.0</ele>
        <time>2022-08-13T18:20:59Z</time>
      </trkpt>
      <trkpt lat="4.3357750" lon="-75.8096340">
        <ele>1235.4</ele>
        <time>2022-08-13T18:21:00Z</time>
      </trkpt>
      <trkpt lat="4.3357870" lon="-75.8097520">
        <ele>1234.0</ele>
        <time>2022-08-13T18:21:01Z</time>
      </trkpt>
      <trkpt lat="4.3358030" lon="-75.8098970">
        <ele>1232.6</ele>
        <time>2022-08-13T18:21:02Z</time>
      </trkpt>
      <trkpt lat="4.3358380" lon="-75.8102180">
        <ele>1230.6</ele>
        <time>2022-08-13T18:21:04Z</time>
      </trkpt>
      <trkpt lat="4.3358490" lon="-75.8103610">
        <ele>1229.6</ele>
        <time>2022-08-13T18:21:05Z</time>
      </trkpt>
      <trkpt lat="4.3358480" lon="-75.8105050">
        <ele>1228.2</ele>
        <time>2022-08-13T18:21:06Z</time>
      </trkpt>
      <trkpt lat="4.3358200" lon="-75.8108070">
        <ele>1226.4</ele>
        <time>2022-08-13T18:21:08Z</time>
      </trkpt>
      <trkpt lat="4.3357520" lon="-75.8111040">
        <ele>1224.8</ele>
        <time>2022-08-13T18:21:10Z</time>
      </trkpt>
      <trkpt lat="4.3356560" lon="-75.8113670">
        <ele>1222.8</ele>
        <time>2022-08-13T18:21:12Z</time>
      </trkpt>
      <trkpt lat="4.3355860" lon="-75.8115350">
        <ele>1221.8</ele>
        <time>2022-08-13T18:21:13Z</time>
      </trkpt>
      <trkpt lat="4.3355220" lon="-75.8116700">
        <ele>1220.4</ele>
        <time>2022-08-13T18:21:14Z</time>
      </trkpt>
      <trkpt lat="4.3354540" lon="-75.8117970">
        <ele>1219.4</ele>
        <time>2022-08-13T18:21:15Z</time>
      </trkpt>
      <trkpt lat="4.3353830" lon="-75.8119200">
        <ele>1217.8</ele>
        <time>2022-08-13T18:21:16Z</time>
      </trkpt>
      <trkpt lat="4.3352670" lon="-75.8121280">
        <ele>1216.2</ele>
        <time>2022-08-13T18:21:18Z</time>
      </trkpt>
      <trkpt lat="4.3351970" lon="-75.8122580">
        <ele>1215.4</ele>
        <time>2022-08-13T18:21:19Z</time>
      </trkpt>
      <trkpt lat="4.3351450" lon="-75.8123560">
        <ele>1215.2</ele>
        <time>2022-08-13T18:21:20Z</time>
      </trkpt>
      <trkpt lat="4.3349770" lon="-75.8126970">
        <ele>1214.8</ele>
        <time>2022-08-13T18:21:24Z</time>
      </trkpt>
      <trkpt lat="4.3348200" lon="-75.8130120">
        <ele>1215.6</ele>
        <time>2022-08-13T18:21:29Z</time>
      </trkpt>
      <trkpt lat="4.3347960" lon="-75.8130670">
        <ele>1216.4</ele>
        <time>2022-08-13T18:21:30Z</time>
      </trkpt>
      <trkpt lat="4.3347730" lon="-75.8131200">
        <ele>1217.6</ele>
        <time>2022-08-13T18:21:31Z</time>
      </trkpt>
      <trkpt lat="4.3347260" lon="-75.8132200">
        <ele>1219.6</ele>
        <time>2022-08-13T18:21:33Z</time>
      </trkpt>
      <trkpt lat="4.3347060" lon="-75.8132640">
        <ele>1220.6</ele>
        <time>2022-08-13T18:21:34Z</time>
      </trkpt>
      <trkpt lat="4.3346880" lon="-75.8133070">
        <ele>1221.4</ele>
        <time>2022-08-13T18:21:35Z</time>
      </trkpt>
      <trkpt lat="4.3346690" lon="-75.8133510">
        <ele>1222.2</ele>
        <time>2022-08-13T18:21:36Z</time>
      </trkpt>
      <trkpt lat="4.3346150" lon="-75.8134730">
        <ele>1223.6</ele>
        <time>2022-08-13T18:21:39Z</time>
      </trkpt>
      <trkpt lat="4.3345470" lon="-75.8136000">
        <ele>1224.4</ele>
        <time>2022-08-13T18:21:42Z</time>
      </trkpt>
      <trkpt lat="4.3345270" lon="-75.8136410">
        <ele>1225.0</ele>
        <time>2022-08-13T18:21:43Z</time>
      </trkpt>
      <trkpt lat="4.3344500" lon="-75.8138130">
        <ele>1226.0</ele>
        <time>2022-08-13T18:21:47Z</time>
      </trkpt>
      <trkpt lat="4.3344070" lon="-75.8139430">
        <ele>1226.6</ele>
        <time>2022-08-13T18:21:50Z</time>
      </trkpt>
      <trkpt lat="4.3343930" lon="-75.8140090">
        <ele>1227.0</ele>
        <time>2022-08-13T18:21:51Z</time>
      </trkpt>
      <trkpt lat="4.3343820" lon="-75.8141330">
        <ele>1227.0</ele>
        <time>2022-08-13T18:21:53Z</time>
      </trkpt>
      <trkpt lat="4.3343850" lon="-75.8141880">
        <ele>1227.0</ele>
        <time>2022-08-13T18:21:54Z</time>
      </trkpt>
      <trkpt lat="4.3344250" lon="-75.8146670">
        <ele>1227.0</ele>
        <time>2022-08-13T18:22:00Z</time>
      </trkpt>
      <trkpt lat="4.3344640" lon="-75.8150500">
        <ele>1225.4</ele>
        <time>2022-08-13T18:22:04Z</time>
      </trkpt>
      <trkpt lat="4.3344800" lon="-75.8151550">
        <ele>1224.6</ele>
        <time>2022-08-13T18:22:05Z</time>
      </trkpt>
      <trkpt lat="4.3345180" lon="-75.8153980">
        <ele>1223.6</ele>
        <time>2022-08-13T18:22:07Z</time>
      </trkpt>
      <trkpt lat="4.3345350" lon="-75.8155010">
        <ele>1222.8</ele>
        <time>2022-08-13T18:22:08Z</time>
      </trkpt>
      <trkpt lat="4.3345620" lon="-75.8157060">
        <ele>1221.4</ele>
        <time>2022-08-13T18:22:10Z</time>
      </trkpt>
      <trkpt lat="4.3346160" lon="-75.8160820">
        <ele>1219.8</ele>
        <time>2022-08-13T18:22:13Z</time>
      </trkpt>
      <trkpt lat="4.3346470" lon="-75.8162990">
        <ele>1218.2</ele>
        <time>2022-08-13T18:22:15Z</time>
      </trkpt>
      <trkpt lat="4.3346620" lon="-75.8164190">
        <ele>1216.8</ele>
        <time>2022-08-13T18:22:16Z</time>
      </trkpt>
      <trkpt lat="4.3346900" lon="-75.8166740">
        <ele>1215.2</ele>
        <time>2022-08-13T18:22:18Z</time>
      </trkpt>
      <trkpt lat="4.3347010" lon="-75.8167860">
        <ele>1214.2</ele>
        <time>2022-08-13T18:22:19Z</time>
      </trkpt>
      <trkpt lat="4.3347100" lon="-75.8169810">
        <ele>1212.8</ele>
        <time>2022-08-13T18:22:21Z</time>
      </trkpt>
      <trkpt lat="4.3346990" lon="-75.8171090">
        <ele>1212.0</ele>
        <time>2022-08-13T18:22:22Z</time>
      </trkpt>
      <trkpt lat="4.3346760" lon="-75.8172120">
        <ele>1211.6</ele>
        <time>2022-08-13T18:22:23Z</time>
      </trkpt>
      <trkpt lat="4.3345850" lon="-75.8174770">
        <ele>1211.2</ele>
        <time>2022-08-13T18:22:26Z</time>
      </trkpt>
      <trkpt lat="4.3344070" lon="-75.8178600">
        <ele>1211.0</ele>
        <time>2022-08-13T18:22:31Z</time>
      </trkpt>
      <trkpt lat="4.3342770" lon="-75.8181460">
        <ele>1211.8</ele>
        <time>2022-08-13T18:22:36Z</time>
      </trkpt>
      <trkpt lat="4.3342080" lon="-75.8182830">
        <ele>1212.8</ele>
        <time>2022-08-13T18:22:39Z</time>
      </trkpt>
      <trkpt lat="4.3341540" lon="-75.8183930">
        <ele>1214.4</ele>
        <time>2022-08-13T18:22:42Z</time>
      </trkpt>
      <trkpt lat="4.3341400" lon="-75.8184310">
        <ele>1215.2</ele>
        <time>2022-08-13T18:22:43Z</time>
      </trkpt>
      <trkpt lat="4.3341250" lon="-75.8184780">
        <ele>1215.8</ele>
        <time>2022-08-13T18:22:44Z</time>
      </trkpt>
      <trkpt lat="4.3340960" lon="-75.8185520">
        <ele>1216.6</ele>
        <time>2022-08-13T18:22:46Z</time>
      </trkpt>
      <trkpt lat="4.3340830" lon="-75.8185790">
        <ele>1217.0</ele>
        <time>2022-08-13T18:22:47Z</time>
      </trkpt>
      <trkpt lat="4.3340350" lon="-75.8186920">
        <ele>1218.4</ele>
        <time>2022-08-13T18:22:50Z</time>
      </trkpt>
      <trkpt lat="4.3340030" lon="-75.8187550">
        <ele>1219.0</ele>
        <time>2022-08-13T18:22:52Z</time>
      </trkpt>
      <trkpt lat="4.3339650" lon="-75.8188260">
        <ele>1219.8</ele>
        <time>2022-08-13T18:22:54Z</time>
      </trkpt>
      <trkpt lat="4.3338870" lon="-75.8189860">
        <ele>1221.0</ele>
        <time>2022-08-13T18:22:59Z</time>
      </trkpt>
      <trkpt lat="4.3338580" lon="-75.8190440">
        <ele>1221.4</ele>
        <time>2022-08-13T18:23:01Z</time>
      </trkpt>
      <trkpt lat="4.3337940" lon="-75.8191730">
        <ele>1222.2</ele>
        <time>2022-08-13T18:23:05Z</time>
      </trkpt>
      <trkpt lat="4.3337220" lon="-75.8193280">
        <ele>1223.4</ele>
        <time>2022-08-13T18:23:10Z</time>
      </trkpt>
      <trkpt lat="4.3336360" lon="-75.8195030">
        <ele>1224.6</ele>
        <time>2022-08-13T18:23:16Z</time>
      </trkpt>
      <trkpt lat="4.3336220" lon="-75.8195290">
        <ele>1224.8</ele>
        <time>2022-08-13T18:23:17Z</time>
      </trkpt>
      <trkpt lat="4.3335330" lon="-75.8197030">
        <ele>1225.8</ele>
        <time>2022-08-13T18:23:23Z</time>
      </trkpt>
      <trkpt lat="4.3335170" lon="-75.8197290">
        <ele>1226.0</ele>
        <time>2022-08-13T18:23:24Z</time>
      </trkpt>
      <trkpt lat="4.3334430" lon="-75.8198370">
        <ele>1227.0</ele>
        <time>2022-08-13T18:23:28Z</time>
      </trkpt>
      <trkpt lat="4.3333520" lon="-75.8199400">
        <ele>1227.4</ele>
        <time>2022-08-13T18:23:32Z</time>
      </trkpt>
      <trkpt lat="4.3332540" lon="-75.8200350">
        <ele>1228.0</ele>
        <time>2022-08-13T18:23:36Z</time>
      </trkpt>
      <trkpt lat="4.3331230" lon="-75.8201620">
        <ele>1228.8</ele>
        <time>2022-08-13T18:23:41Z</time>
      </trkpt>
      <trkpt lat="4.3330250" lon="-75.8202550">
        <ele>1229.4</ele>
        <time>2022-08-13T18:23:45Z</time>
      </trkpt>
      <trkpt lat="4.3329470" lon="-75.8203230">
        <ele>1229.8</ele>
        <time>2022-08-13T18:23:48Z</time>
      </trkpt>
      <trkpt lat="4.3328360" lon="-75.8204290">
        <ele>1230.4</ele>
        <time>2022-08-13T18:23:52Z</time>
      </trkpt>
      <trkpt lat="4.3327040" lon="-75.8205650">
        <ele>1231.2</ele>
        <time>2022-08-13T18:23:57Z</time>
      </trkpt>
      <trkpt lat="4.3326020" lon="-75.8206760">
        <ele>1231.8</ele>
        <time>2022-08-13T18:24:01Z</time>
      </trkpt>
      <trkpt lat="4.3324430" lon="-75.8208310">
        <ele>1232.2</ele>
        <time>2022-08-13T18:24:07Z</time>
      </trkpt>
      <trkpt lat="4.3323250" lon="-75.8209540">
        <ele>1232.8</ele>
        <time>2022-08-13T18:24:12Z</time>
      </trkpt>
      <trkpt lat="4.3322430" lon="-75.8210310">
        <ele>1233.2</ele>
        <time>2022-08-13T18:24:15Z</time>
      </trkpt>
      <trkpt lat="4.3320970" lon="-75.8211750">
        <ele>1233.8</ele>
        <time>2022-08-13T18:24:21Z</time>
      </trkpt>
      <trkpt lat="4.3320440" lon="-75.8212260">
        <ele>1234.0</ele>
        <time>2022-08-13T18:24:23Z</time>
      </trkpt>
      <trkpt lat="4.3318780" lon="-75.8214030">
        <ele>1235.0</ele>
        <time>2022-08-13T18:24:30Z</time>
      </trkpt>
      <trkpt lat="4.3318590" lon="-75.8214230">
        <ele>1235.2</ele>
        <time>2022-08-13T18:24:31Z</time>
      </trkpt>
      <trkpt lat="4.3317020" lon="-75.8215720">
        <ele>1235.8</ele>
        <time>2022-08-13T18:24:37Z</time>
      </trkpt>
      <trkpt lat="4.3316070" lon="-75.8216520">
        <ele>1236.2</ele>
        <time>2022-08-13T18:24:40Z</time>
      </trkpt>
      <trkpt lat="4.3314960" lon="-75.8217990">
        <ele>1237.2</ele>
        <time>2022-08-13T18:24:45Z</time>
      </trkpt>
      <trkpt lat="4.3314190" lon="-75.8219670">
        <ele>1237.6</ele>
        <time>2022-08-13T18:24:50Z</time>
      </trkpt>
      <trkpt lat="4.3313820" lon="-75.8221260">
        <ele>1238.6</ele>
        <time>2022-08-13T18:24:54Z</time>
      </trkpt>
      <trkpt lat="4.3313730" lon="-75.8221930">
        <ele>1239.0</ele>
        <time>2022-08-13T18:24:56Z</time>
      </trkpt>
      <trkpt lat="4.3313040" lon="-75.8224450">
        <ele>1239.6</ele>
        <time>2022-08-13T18:25:03Z</time>
      </trkpt>
      <trkpt lat="4.3312910" lon="-75.8224780">
        <ele>1239.6</ele>
        <time>2022-08-13T18:25:04Z</time>
      </trkpt>
      <trkpt lat="4.3312250" lon="-75.8225790">
        <ele>1239.8</ele>
        <time>2022-08-13T18:25:07Z</time>
      </trkpt>
      <trkpt lat="4.3311800" lon="-75.8226390">
        <ele>1240.2</ele>
        <time>2022-08-13T18:25:09Z</time>
      </trkpt>
      <trkpt lat="4.3311370" lon="-75.8227080">
        <ele>1241.0</ele>
        <time>2022-08-13T18:25:11Z</time>
      </trkpt>
      <trkpt lat="4.3310150" lon="-75.8229170">
        <ele>1242.0</ele>
        <time>2022-08-13T18:25:18Z</time>
      </trkpt>
      <trkpt lat="4.3310060" lon="-75.8229370">
        <ele>1242.2</ele>
        <time>2022-08-13T18:25:19Z</time>
      </trkpt>
      <trkpt lat="4.3310020" lon="-75.8229670">
        <ele>1242.2</ele>
        <time>2022-08-13T18:25:20Z</time>
      </trkpt>
      <trkpt lat="4.3310380" lon="-75.8230000">
        <ele>1242.6</ele>
        <time>2022-08-13T18:25:22Z</time>
      </trkpt>
      <trkpt lat="4.3311300" lon="-75.8229940">
        <ele>1243.2</ele>
        <time>2022-08-13T18:25:25Z</time>
      </trkpt>
      <trkpt lat="4.3311980" lon="-75.8229990">
        <ele>1243.6</ele>
        <time>2022-08-13T18:25:27Z</time>
      </trkpt>
      <trkpt lat="4.3313080" lon="-75.8230290">
        <ele>1244.4</ele>
        <time>2022-08-13T18:25:31Z</time>
      </trkpt>
      <trkpt lat="4.3313620" lon="-75.8230440">
        <ele>1244.6</ele>
        <time>2022-08-13T18:25:33Z</time>
      </trkpt>
      <trkpt lat="4.3315600" lon="-75.8231170">
        <ele>1245.6</ele>
        <time>2022-08-13T18:25:39Z</time>
      </trkpt>
      <trkpt lat="4.3316250" lon="-75.8231220">
        <ele>1246.0</ele>
        <time>2022-08-13T18:25:41Z</time>
      </trkpt>
      <trkpt lat="4.3317400" lon="-75.8231680">
        <ele>1246.2</ele>
        <time>2022-08-13T18:25:45Z</time>
      </trkpt>
      <trkpt lat="4.3317330" lon="-75.8232620">
        <ele>1246.4</ele>
        <time>2022-08-13T18:25:48Z</time>
      </trkpt>
      <trkpt lat="4.3316590" lon="-75.8235940">
        <ele>1246.6</ele>
        <time>2022-08-13T18:25:57Z</time>
      </trkpt>
      <trkpt lat="4.3316320" lon="-75.8237200">
        <ele>1246.8</ele>
        <time>2022-08-13T18:26:00Z</time>
      </trkpt>
      <trkpt lat="4.3316050" lon="-75.8238990">
        <ele>1246.8</ele>
        <time>2022-08-13T18:26:05Z</time>
      </trkpt>
      <trkpt lat="4.3315480" lon="-75.8241330">
        <ele>1246.6</ele>
        <time>2022-08-13T18:26:12Z</time>
      </trkpt>
      <trkpt lat="4.3315270" lon="-75.8243110">
        <ele>1246.0</ele>
        <time>2022-08-13T18:26:17Z</time>
      </trkpt>
      <trkpt lat="4.3314840" lon="-75.8244630">
        <ele>1245.8</ele>
        <time>2022-08-13T18:26:22Z</time>
      </trkpt>
      <trkpt lat="4.3314780" lon="-75.8245630">
        <ele>1246.0</ele>
        <time>2022-08-13T18:26:25Z</time>
      </trkpt>
      <trkpt lat="4.3314650" lon="-75.8246440">
        <ele>1245.6</ele>
        <time>2022-08-13T18:26:27Z</time>
      </trkpt>
      <trkpt lat="4.3314090" lon="-75.8249350">
        <ele>1246.0</ele>
        <time>2022-08-13T18:26:34Z</time>
      </trkpt>
      <trkpt lat="4.3313950" lon="-75.8250070">
        <ele>1246.0</ele>
        <time>2022-08-13T18:26:36Z</time>
      </trkpt>
      <trkpt lat="4.3313610" lon="-75.8251800">
        <ele>1246.0</ele>
        <time>2022-08-13T18:26:41Z</time>
      </trkpt>
      <trkpt lat="4.3313190" lon="-75.8254020">
        <ele>1247.0</ele>
        <time>2022-08-13T18:26:47Z</time>
      </trkpt>
      <trkpt lat="4.3313080" lon="-75.8255070">
        <ele>1247.8</ele>
        <time>2022-08-13T18:26:50Z</time>
      </trkpt>
      <trkpt lat="4.3312560" lon="-75.8256530">
        <ele>1248.2</ele>
        <time>2022-08-13T18:26:54Z</time>
      </trkpt>
      <trkpt lat="4.3312500" lon="-75.8256920">
        <ele>1248.2</ele>
        <time>2022-08-13T18:26:55Z</time>
      </trkpt>
      <trkpt lat="4.3311850" lon="-75.8260480">
        <ele>1248.6</ele>
        <time>2022-08-13T18:27:04Z</time>
      </trkpt>
      <trkpt lat="4.3311460" lon="-75.8263170">
        <ele>1249.2</ele>
        <time>2022-08-13T18:27:11Z</time>
      </trkpt>
      <trkpt lat="4.3311390" lon="-75.8263540">
        <ele>1249.4</ele>
        <time>2022-08-13T18:27:12Z</time>
      </trkpt>
      <trkpt lat="4.3311080" lon="-75.8265460">
        <ele>1250.4</ele>
        <time>2022-08-13T18:27:17Z</time>
      </trkpt>
      <trkpt lat="4.3311000" lon="-75.8266690">
        <ele>1251.2</ele>
        <time>2022-08-13T18:27:20Z</time>
      </trkpt>
      <trkpt lat="4.3310820" lon="-75.8267500">
        <ele>1251.4</ele>
        <time>2022-08-13T18:27:22Z</time>
      </trkpt>
      <trkpt lat="4.3310400" lon="-75.8269630">
        <ele>1251.6</ele>
        <time>2022-08-13T18:27:27Z</time>
      </trkpt>
      <trkpt lat="4.3310600" lon="-75.8269930">
        <ele>1251.6</ele>
        <time>2022-08-13T18:27:28Z</time>
      </trkpt>
      <trkpt lat="4.3311400" lon="-75.8270250">
        <ele>1251.6</ele>
        <time>2022-08-13T18:27:30Z</time>
      </trkpt>
      <trkpt lat="4.3312290" lon="-75.8270420">
        <ele>1251.8</ele>
        <time>2022-08-13T18:27:32Z</time>
      </trkpt>
      <trkpt lat="4.3312810" lon="-75.8270460">
        <ele>1251.4</ele>
        <time>2022-08-13T18:27:33Z</time>
      </trkpt>
      <trkpt lat="4.3313890" lon="-75.8270660">
        <ele>1251.0</ele>
        <time>2022-08-13T18:27:35Z</time>
      </trkpt>
      <trkpt lat="4.3315070" lon="-75.8270850">
        <ele>1250.4</ele>
        <time>2022-08-13T18:27:37Z</time>
      </trkpt>
      <trkpt lat="4.3316700" lon="-75.8271000">
        <ele>1249.2</ele>
        <time>2022-08-13T18:27:40Z</time>
      </trkpt>
      <trkpt lat="4.3317070" lon="-75.8271110">
        <ele>1248.6</ele>
        <time>2022-08-13T18:27:41Z</time>
      </trkpt>
      <trkpt lat="4.3317360" lon="-75.8271310">
        <ele>1248.0</ele>
        <time>2022-08-13T18:27:42Z</time>
      </trkpt>
      <trkpt lat="4.3317530" lon="-75.8271990">
        <ele>1247.2</ele>
        <time>2022-08-13T18:27:44Z</time>
      </trkpt>
      <trkpt lat="4.3317470" lon="-75.8272450">
        <ele>1246.6</ele>
        <time>2022-08-13T18:27:45Z</time>
      </trkpt>
      <trkpt lat="4.3317160" lon="-75.8273920">
        <ele>1245.6</ele>
        <time>2022-08-13T18:27:48Z</time>
      </trkpt>
      <trkpt lat="4.3317080" lon="-75.8274360">
        <ele>1245.4</ele>
        <time>2022-08-13T18:27:49Z</time>
      </trkpt>
      <trkpt lat="4.3316670" lon="-75.8276450">
        <ele>1244.8</ele>
        <time>2022-08-13T18:27:55Z</time>
      </trkpt>
      <trkpt lat="4.3316610" lon="-75.8276830">
        <ele>1244.8</ele>
        <time>2022-08-13T18:27:57Z</time>
      </trkpt>
      <trkpt lat="4.3316560" lon="-75.8277160">
        <ele>1244.8</ele>
        <time>2022-08-13T18:27:59Z</time>
      </trkpt>
      <trkpt lat="4.3316400" lon="-75.8277930">
        <ele>1246.4</ele>
        <time>2022-08-13T18:28:04Z</time>
      </trkpt>
      <trkpt lat="4.3316330" lon="-75.8278090">
        <ele>1246.8</ele>
        <time>2022-08-13T18:28:05Z</time>
      </trkpt>
      <trkpt lat="4.3316220" lon="-75.8278430">
        <ele>1247.6</ele>
        <time>2022-08-13T18:28:07Z</time>
      </trkpt>
      <trkpt lat="4.3316170" lon="-75.8278610">
        <ele>1248.0</ele>
        <time>2022-08-13T18:28:08Z</time>
      </trkpt>
      <trkpt lat="4.3315980" lon="-75.8278900">
        <ele>1248.8</ele>
        <time>2022-08-13T18:28:10Z</time>
      </trkpt>
      <trkpt lat="4.3315850" lon="-75.8279140">
        <ele>1249.2</ele>
        <time>2022-08-13T18:28:11Z</time>
      </trkpt>
      <trkpt lat="4.3315710" lon="-75.8279850">
        <ele>1249.6</ele>
        <time>2022-08-13T18:28:13Z</time>
      </trkpt>
      <trkpt lat="4.3315810" lon="-75.8280790">
        <ele>1250.2</ele>
        <time>2022-08-13T18:28:16Z</time>
      </trkpt>
      <trkpt lat="4.3315780" lon="-75.8281390">
        <ele>1250.6</ele>
        <time>2022-08-13T18:28:18Z</time>
      </trkpt>
      <trkpt lat="4.3315660" lon="-75.8282970">
        <ele>1251.4</ele>
        <time>2022-08-13T18:28:23Z</time>
      </trkpt>
      <trkpt lat="4.3315250" lon="-75.8285820">
        <ele>1252.4</ele>
        <time>2022-08-13T18:28:32Z</time>
      </trkpt>
      <trkpt lat="4.3315450" lon="-75.8286680">
        <ele>1253.0</ele>
        <time>2022-08-13T18:28:36Z</time>
      </trkpt>
      <trkpt lat="4.3315470" lon="-75.8287100">
        <ele>1253.0</ele>
        <time>2022-08-13T18:28:38Z</time>
      </trkpt>
      <trkpt lat="4.3315340" lon="-75.8287650">
        <ele>1253.6</ele>
        <time>2022-08-13T18:28:41Z</time>
      </trkpt>
      <trkpt lat="4.3315400" lon="-75.8287840">
        <ele>1253.6</ele>
        <time>2022-08-13T18:28:42Z</time>
      </trkpt>
      <trkpt lat="4.3315520" lon="-75.8288450">
        <ele>1253.8</ele>
        <time>2022-08-13T18:28:45Z</time>
      </trkpt>
      <trkpt lat="4.3315480" lon="-75.8288780">
        <ele>1253.8</ele>
        <time>2022-08-13T18:28:48Z</time>
      </trkpt>
      <trkpt lat="4.3315580" lon="-75.8288870">
        <ele>1253.8</ele>
        <time>2022-08-13T18:28:50Z</time>
      </trkpt>
      <trkpt lat="4.3315580" lon="-75.8288870">
        <ele>1253.8</ele>
        <time>2022-08-13T18:28:55Z</time>
      </trkpt>
      <trkpt lat="4.3315580" lon="-75.8288870">
        <ele>1253.8</ele>
        <time>2022-08-13T18:28:59Z</time>
      </trkpt>
      <trkpt lat="4.3315580" lon="-75.8288870">
        <ele>1253.8</ele>
        <time>2022-08-13T18:29:07Z</time>
      </trkpt>
      <trkpt lat="4.3315600" lon="-75.8288920">
        <ele>1254.0</ele>
        <time>2022-08-13T18:29:32Z</time>
      </trkpt>
      <trkpt lat="4.3315600" lon="-75.8288920">
        <ele>1254.4</ele>
        <time>2022-08-13T18:29:45Z</time>
      </trkpt>
      <trkpt lat="4.3315600" lon="-75.8288920">
        <ele>1254.4</ele>
        <time>2022-08-13T18:29:50Z</time>
      </trkpt>
      <trkpt lat="4.3315600" lon="-75.8288920">
        <ele>1254.4</ele>
        <time>2022-08-13T18:30:03Z</time>
      </trkpt>
      <trkpt lat="4.3315610" lon="-75.8288920">
        <ele>1254.2</ele>
        <time>2022-08-13T18:30:19Z</time>
      </trkpt>
      <trkpt lat="4.3315570" lon="-75.8288970">
        <ele>1254.8</ele>
        <time>2022-08-13T18:30:50Z</time>
      </trkpt>
      <trkpt lat="4.3315200" lon="-75.8287510">
        <ele>1204.2</ele>
        <time>2022-08-14T12:02:52Z</time>
      </trkpt>
      <trkpt lat="4.3315200" lon="-75.8287510">
        <ele>1193.8</ele>
        <time>2022-08-14T12:02:53Z</time>
      </trkpt>
      <trkpt lat="4.3315200" lon="-75.8287510">
        <ele>1194.0</ele>
        <time>2022-08-14T12:02:57Z</time>
      </trkpt>
      <trkpt lat="4.3315230" lon="-75.8287350">
        <ele>1194.0</ele>
        <time>2022-08-14T12:02:59Z</time>
      </trkpt>
      <trkpt lat="4.3315310" lon="-75.8287120">
        <ele>1194.0</ele>
        <time>2022-08-14T12:03:01Z</time>
      </trkpt>
      <trkpt lat="4.3315390" lon="-75.8286990">
        <ele>1194.0</ele>
        <time>2022-08-14T12:03:02Z</time>
      </trkpt>
      <trkpt lat="4.3315910" lon="-75.8286460">
        <ele>1194.0</ele>
        <time>2022-08-14T12:03:06Z</time>
      </trkpt>
      <trkpt lat="4.3316320" lon="-75.8286470">
        <ele>1194.0</ele>
        <time>2022-08-14T12:03:08Z</time>
      </trkpt>
      <trkpt lat="4.3318390" lon="-75.8286870">
        <ele>1194.0</ele>
        <time>2022-08-14T12:03:15Z</time>
      </trkpt>
      <trkpt lat="4.3320760" lon="-75.8287580">
        <ele>1193.6</ele>
        <time>2022-08-14T12:03:22Z</time>
      </trkpt>
      <trkpt lat="4.3321520" lon="-75.8288250">
        <ele>1193.4</ele>
        <time>2022-08-14T12:03:24Z</time>
      </trkpt>
      <trkpt lat="4.3321870" lon="-75.8289130">
        <ele>1193.4</ele>
        <time>2022-08-14T12:03:26Z</time>
      </trkpt>
      <trkpt lat="4.3321700" lon="-75.8291050">
        <ele>1193.2</ele>
        <time>2022-08-14T12:03:31Z</time>
      </trkpt>
      <trkpt lat="4.3321220" lon="-75.8293430">
        <ele>1193.0</ele>
        <time>2022-08-14T12:03:38Z</time>
      </trkpt>
      <trkpt lat="4.3320380" lon="-75.8294420">
        <ele>1193.0</ele>
        <time>2022-08-14T12:03:41Z</time>
      </trkpt>
      <trkpt lat="4.3320000" lon="-75.8294570">
        <ele>1193.0</ele>
        <time>2022-08-14T12:03:42Z</time>
      </trkpt>
      <trkpt lat="4.3317970" lon="-75.8294350">
        <ele>1193.2</ele>
        <time>2022-08-14T12:03:47Z</time>
      </trkpt>
      <trkpt lat="4.3315650" lon="-75.8293870">
        <ele>1193.4</ele>
        <time>2022-08-14T12:03:53Z</time>
      </trkpt>
      <trkpt lat="4.3313180" lon="-75.8293470">
        <ele>1193.6</ele>
        <time>2022-08-14T12:03:59Z</time>
      </trkpt>
      <trkpt lat="4.3311000" lon="-75.8293050">
        <ele>1194.0</ele>
        <time>2022-08-14T12:04:04Z</time>
      </trkpt>
      <trkpt lat="4.3309490" lon="-75.8292780">
        <ele>1194.4</ele>
        <time>2022-08-14T12:04:08Z</time>
      </trkpt>
      <trkpt lat="4.3308710" lon="-75.8292540">
        <ele>1194.6</ele>
        <time>2022-08-14T12:04:10Z</time>
      </trkpt>
      <trkpt lat="4.3308400" lon="-75.8292470">
        <ele>1194.6</ele>
        <time>2022-08-14T12:04:11Z</time>
      </trkpt>
      <trkpt lat="4.3307930" lon="-75.8292310">
        <ele>1194.8</ele>
        <time>2022-08-14T12:04:12Z</time>
      </trkpt>
      <trkpt lat="4.3307550" lon="-75.8292210">
        <ele>1195.0</ele>
        <time>2022-08-14T12:04:13Z</time>
      </trkpt>
      <trkpt lat="4.3306360" lon="-75.8291990">
        <ele>1195.4</ele>
        <time>2022-08-14T12:04:16Z</time>
      </trkpt>
      <trkpt lat="4.3304700" lon="-75.8291690">
        <ele>1195.8</ele>
        <time>2022-08-14T12:04:20Z</time>
      </trkpt>
      <trkpt lat="4.3303770" lon="-75.8291510">
        <ele>1196.0</ele>
        <time>2022-08-14T12:04:22Z</time>
      </trkpt>
      <trkpt lat="4.3302560" lon="-75.8291270">
        <ele>1196.4</ele>
        <time>2022-08-14T12:04:25Z</time>
      </trkpt>
      <trkpt lat="4.3300650" lon="-75.8290860">
        <ele>1196.8</ele>
        <time>2022-08-14T12:04:29Z</time>
      </trkpt>
      <trkpt lat="4.3296830" lon="-75.8290210">
        <ele>1197.8</ele>
        <time>2022-08-14T12:04:38Z</time>
      </trkpt>
      <trkpt lat="4.3296420" lon="-75.8290130">
        <ele>1197.8</ele>
        <time>2022-08-14T12:04:39Z</time>
      </trkpt>
      <trkpt lat="4.3295710" lon="-75.8290000">
        <ele>1198.0</ele>
        <time>2022-08-14T12:04:41Z</time>
      </trkpt>
      <trkpt lat="4.3294510" lon="-75.8289770">
        <ele>1198.4</ele>
        <time>2022-08-14T12:04:44Z</time>
      </trkpt>
      <trkpt lat="4.3293750" lon="-75.8289670">
        <ele>1198.6</ele>
        <time>2022-08-14T12:04:46Z</time>
      </trkpt>
      <trkpt lat="4.3292080" lon="-75.8289430">
        <ele>1199.0</ele>
        <time>2022-08-14T12:04:50Z</time>
      </trkpt>
      <trkpt lat="4.3289990" lon="-75.8289040">
        <ele>1199.6</ele>
        <time>2022-08-14T12:04:55Z</time>
      </trkpt>
      <trkpt lat="4.3288750" lon="-75.8288890">
        <ele>1200.0</ele>
        <time>2022-08-14T12:04:58Z</time>
      </trkpt>
      <trkpt lat="4.3288220" lon="-75.8288780">
        <ele>1200.0</ele>
        <time>2022-08-14T12:04:59Z</time>
      </trkpt>
      <trkpt lat="4.3286370" lon="-75.8288450">
        <ele>1200.4</ele>
        <time>2022-08-14T12:05:03Z</time>
      </trkpt>
      <trkpt lat="4.3284150" lon="-75.8288200">
        <ele>1200.6</ele>
        <time>2022-08-14T12:05:08Z</time>
      </trkpt>
      <trkpt lat="4.3283760" lon="-75.8288220">
        <ele>1200.6</ele>
        <time>2022-08-14T12:05:09Z</time>
      </trkpt>
      <trkpt lat="4.3283390" lon="-75.8288460">
        <ele>1200.6</ele>
        <time>2022-08-14T12:05:10Z</time>
      </trkpt>
      <trkpt lat="4.3283200" lon="-75.8288810">
        <ele>1200.6</ele>
        <time>2022-08-14T12:05:11Z</time>
      </trkpt>
      <trkpt lat="4.3282990" lon="-75.8290330">
        <ele>1200.6</ele>
        <time>2022-08-14T12:05:15Z</time>
      </trkpt>
      <trkpt lat="4.3282750" lon="-75.8291160">
        <ele>1200.6</ele>
        <time>2022-08-14T12:05:17Z</time>
      </trkpt>
      <trkpt lat="4.3282500" lon="-75.8292040">
        <ele>1200.6</ele>
        <time>2022-08-14T12:05:19Z</time>
      </trkpt>
      <trkpt lat="4.3282380" lon="-75.8292630">
        <ele>1200.4</ele>
        <time>2022-08-14T12:05:20Z</time>
      </trkpt>
      <trkpt lat="4.3281960" lon="-75.8295170">
        <ele>1199.4</ele>
        <time>2022-08-14T12:05:26Z</time>
      </trkpt>
      <trkpt lat="4.3281790" lon="-75.8295640">
        <ele>1198.8</ele>
        <time>2022-08-14T12:05:28Z</time>
      </trkpt>
      <trkpt lat="4.3281190" lon="-75.8295740">
        <ele>1198.4</ele>
        <time>2022-08-14T12:05:30Z</time>
      </trkpt>
      <trkpt lat="4.3280200" lon="-75.8295490">
        <ele>1197.4</ele>
        <time>2022-08-14T12:05:32Z</time>
      </trkpt>
      <trkpt lat="4.3278730" lon="-75.8295160">
        <ele>1196.6</ele>
        <time>2022-08-14T12:05:35Z</time>
      </trkpt>
      <trkpt lat="4.3277740" lon="-75.8295040">
        <ele>1195.8</ele>
        <time>2022-08-14T12:05:37Z</time>
      </trkpt>
      <trkpt lat="4.3276820" lon="-75.8294900">
        <ele>1194.4</ele>
        <time>2022-08-14T12:05:39Z</time>
      </trkpt>
      <trkpt lat="4.3276030" lon="-75.8294750">
        <ele>1194.0</ele>
        <time>2022-08-14T12:05:41Z</time>
      </trkpt>
      <trkpt lat="4.3275670" lon="-75.8294660">
        <ele>1193.8</ele>
        <time>2022-08-14T12:05:42Z</time>
      </trkpt>
      <trkpt lat="4.3275050" lon="-75.8294510">
        <ele>1193.8</ele>
        <time>2022-08-14T12:05:44Z</time>
      </trkpt>
      <trkpt lat="4.3273990" lon="-75.8294070">
        <ele>1193.8</ele>
        <time>2022-08-14T12:05:48Z</time>
      </trkpt>
      <trkpt lat="4.3272380" lon="-75.8293620">
        <ele>1195.6</ele>
        <time>2022-08-14T12:05:53Z</time>
      </trkpt>
      <trkpt lat="4.3271440" lon="-75.8293430">
        <ele>1196.2</ele>
        <time>2022-08-14T12:05:56Z</time>
      </trkpt>
      <trkpt lat="4.3270010" lon="-75.8293140">
        <ele>1196.8</ele>
        <time>2022-08-14T12:06:00Z</time>
      </trkpt>
      <trkpt lat="4.3268260" lon="-75.8292920">
        <ele>1197.8</ele>
        <time>2022-08-14T12:06:05Z</time>
      </trkpt>
      <trkpt lat="4.3266570" lon="-75.8293080">
        <ele>1198.6</ele>
        <time>2022-08-14T12:06:11Z</time>
      </trkpt>
      <trkpt lat="4.3266250" lon="-75.8294390">
        <ele>1198.8</ele>
        <time>2022-08-14T12:06:14Z</time>
      </trkpt>
      <trkpt lat="4.3265720" lon="-75.8297220">
        <ele>1198.8</ele>
        <time>2022-08-14T12:06:19Z</time>
      </trkpt>
      <trkpt lat="4.3264970" lon="-75.8300160">
        <ele>1198.0</ele>
        <time>2022-08-14T12:06:25Z</time>
      </trkpt>
      <trkpt lat="4.3264080" lon="-75.8302690">
        <ele>1198.0</ele>
        <time>2022-08-14T12:06:32Z</time>
      </trkpt>
      <trkpt lat="4.3263440" lon="-75.8304290">
        <ele>1199.2</ele>
        <time>2022-08-14T12:06:38Z</time>
      </trkpt>
      <trkpt lat="4.3263020" lon="-75.8305250">
        <ele>1200.2</ele>
        <time>2022-08-14T12:06:42Z</time>
      </trkpt>
      <trkpt lat="4.3262680" lon="-75.8306120">
        <ele>1200.8</ele>
        <time>2022-08-14T12:06:45Z</time>
      </trkpt>
      <trkpt lat="4.3262530" lon="-75.8306580">
        <ele>1201.4</ele>
        <time>2022-08-14T12:06:47Z</time>
      </trkpt>
      <trkpt lat="4.3262290" lon="-75.8307760">
        <ele>1202.6</ele>
        <time>2022-08-14T12:06:51Z</time>
      </trkpt>
      <trkpt lat="4.3262150" lon="-75.8308590">
        <ele>1203.4</ele>
        <time>2022-08-14T12:06:54Z</time>
      </trkpt>
      <trkpt lat="4.3262120" lon="-75.8308960">
        <ele>1203.8</ele>
        <time>2022-08-14T12:06:55Z</time>
      </trkpt>
      <trkpt lat="4.3262140" lon="-75.8310940">
        <ele>1205.0</ele>
        <time>2022-08-14T12:07:01Z</time>
      </trkpt>
      <trkpt lat="4.3262260" lon="-75.8311300">
        <ele>1205.0</ele>
        <time>2022-08-14T12:07:02Z</time>
      </trkpt>
      <trkpt lat="4.3262810" lon="-75.8313620">
        <ele>1205.8</ele>
        <time>2022-08-14T12:07:08Z</time>
      </trkpt>
      <trkpt lat="4.3263490" lon="-75.8316810">
        <ele>1205.8</ele>
        <time>2022-08-14T12:07:14Z</time>
      </trkpt>
      <trkpt lat="4.3263590" lon="-75.8317390">
        <ele>1205.8</ele>
        <time>2022-08-14T12:07:15Z</time>
      </trkpt>
      <trkpt lat="4.3264430" lon="-75.8319860">
        <ele>1205.6</ele>
        <time>2022-08-14T12:07:19Z</time>
      </trkpt>
      <trkpt lat="4.3265500" lon="-75.8323510">
        <ele>1204.4</ele>
        <time>2022-08-14T12:07:24Z</time>
      </trkpt>
      <trkpt lat="4.3265850" lon="-75.8325200">
        <ele>1203.6</ele>
        <time>2022-08-14T12:07:26Z</time>
      </trkpt>
      <trkpt lat="4.3265900" lon="-75.8326270">
        <ele>1203.2</ele>
        <time>2022-08-14T12:07:27Z</time>
      </trkpt>
      <trkpt lat="4.3265760" lon="-75.8327140">
        <ele>1202.6</ele>
        <time>2022-08-14T12:07:28Z</time>
      </trkpt>
      <trkpt lat="4.3265540" lon="-75.8327810">
        <ele>1202.0</ele>
        <time>2022-08-14T12:07:29Z</time>
      </trkpt>
      <trkpt lat="4.3265150" lon="-75.8328590">
        <ele>1201.4</ele>
        <time>2022-08-14T12:07:30Z</time>
      </trkpt>
      <trkpt lat="4.3264650" lon="-75.8329280">
        <ele>1200.8</ele>
        <time>2022-08-14T12:07:31Z</time>
      </trkpt>
      <trkpt lat="4.3263400" lon="-75.8330630">
        <ele>1199.8</ele>
        <time>2022-08-14T12:07:33Z</time>
      </trkpt>
      <trkpt lat="4.3262160" lon="-75.8331780">
        <ele>1197.8</ele>
        <time>2022-08-14T12:07:35Z</time>
      </trkpt>
      <trkpt lat="4.3261710" lon="-75.8332270">
        <ele>1197.0</ele>
        <time>2022-08-14T12:07:36Z</time>
      </trkpt>
      <trkpt lat="4.3261110" lon="-75.8332950">
        <ele>1196.6</ele>
        <time>2022-08-14T12:07:37Z</time>
      </trkpt>
      <trkpt lat="4.3259370" lon="-75.8334840">
        <ele>1196.0</ele>
        <time>2022-08-14T12:07:41Z</time>
      </trkpt>
      <trkpt lat="4.3257380" lon="-75.8337190">
        <ele>1196.0</ele>
        <time>2022-08-14T12:07:46Z</time>
      </trkpt>
      <trkpt lat="4.3256640" lon="-75.8338060">
        <ele>1196.0</ele>
        <time>2022-08-14T12:07:48Z</time>
      </trkpt>
      <trkpt lat="4.3254140" lon="-75.8341360">
        <ele>1197.4</ele>
        <time>2022-08-14T12:07:56Z</time>
      </trkpt>
      <trkpt lat="4.3253860" lon="-75.8341740">
        <ele>1197.6</ele>
        <time>2022-08-14T12:07:57Z</time>
      </trkpt>
      <trkpt lat="4.3252490" lon="-75.8343530">
        <ele>1198.4</ele>
        <time>2022-08-14T12:08:02Z</time>
      </trkpt>
      <trkpt lat="4.3252210" lon="-75.8343820">
        <ele>1198.4</ele>
        <time>2022-08-14T12:08:03Z</time>
      </trkpt>
      <trkpt lat="4.3252000" lon="-75.8343950">
        <ele>1199.0</ele>
        <time>2022-08-14T12:08:04Z</time>
      </trkpt>
      <trkpt lat="4.3251490" lon="-75.8344180">
        <ele>1199.4</ele>
        <time>2022-08-14T12:08:07Z</time>
      </trkpt>
      <trkpt lat="4.3251160" lon="-75.8344240">
        <ele>1200.0</ele>
        <time>2022-08-14T12:08:09Z</time>
      </trkpt>
      <trkpt lat="4.3251020" lon="-75.8344300">
        <ele>1200.2</ele>
        <time>2022-08-14T12:08:10Z</time>
      </trkpt>
      <trkpt lat="4.3250720" lon="-75.8344450">
        <ele>1201.4</ele>
        <time>2022-08-14T12:08:12Z</time>
      </trkpt>
      <trkpt lat="4.3250550" lon="-75.8344580">
        <ele>1201.8</ele>
        <time>2022-08-14T12:08:13Z</time>
      </trkpt>
      <trkpt lat="4.3250150" lon="-75.8344990">
        <ele>1202.6</ele>
        <time>2022-08-14T12:08:15Z</time>
      </trkpt>
      <trkpt lat="4.3249820" lon="-75.8345540">
        <ele>1203.4</ele>
        <time>2022-08-14T12:08:18Z</time>
      </trkpt>
      <trkpt lat="4.3249670" lon="-75.8345690">
        <ele>1203.8</ele>
        <time>2022-08-14T12:08:19Z</time>
      </trkpt>
      <trkpt lat="4.3249090" lon="-75.8346100">
        <ele>1204.8</ele>
        <time>2022-08-14T12:08:24Z</time>
      </trkpt>
      <trkpt lat="4.3248520" lon="-75.8346730">
        <ele>1206.0</ele>
        <time>2022-08-14T12:08:29Z</time>
      </trkpt>
      <trkpt lat="4.3248040" lon="-75.8347090">
        <ele>1206.8</ele>
        <time>2022-08-14T12:08:32Z</time>
      </trkpt>
      <trkpt lat="4.3247830" lon="-75.8347600">
        <ele>1207.2</ele>
        <time>2022-08-14T12:08:34Z</time>
      </trkpt>
      <trkpt lat="4.3247300" lon="-75.8348680">
        <ele>1208.2</ele>
        <time>2022-08-14T12:08:39Z</time>
      </trkpt>
      <trkpt lat="4.3247210" lon="-75.8348820">
        <ele>1208.6</ele>
        <time>2022-08-14T12:08:40Z</time>
      </trkpt>
      <trkpt lat="4.3246650" lon="-75.8349690">
        <ele>1209.6</ele>
        <time>2022-08-14T12:08:45Z</time>
      </trkpt>
      <trkpt lat="4.3246380" lon="-75.8350120">
        <ele>1210.0</ele>
        <time>2022-08-14T12:08:47Z</time>
      </trkpt>
      <trkpt lat="4.3246160" lon="-75.8350460">
        <ele>1210.6</ele>
        <time>2022-08-14T12:08:50Z</time>
      </trkpt>
      <trkpt lat="4.3245700" lon="-75.8351350">
        <ele>1211.8</ele>
        <time>2022-08-14T12:08:56Z</time>
      </trkpt>
      <trkpt lat="4.3245310" lon="-75.8352150">
        <ele>1213.0</ele>
        <time>2022-08-14T12:09:01Z</time>
      </trkpt>
      <trkpt lat="4.3245080" lon="-75.8352870">
        <ele>1214.0</ele>
        <time>2022-08-14T12:09:05Z</time>
      </trkpt>
      <trkpt lat="4.3244920" lon="-75.8353590">
        <ele>1214.4</ele>
        <time>2022-08-14T12:09:08Z</time>
      </trkpt>
      <trkpt lat="4.3244710" lon="-75.8354130">
        <ele>1215.2</ele>
        <time>2022-08-14T12:09:11Z</time>
      </trkpt>
      <trkpt lat="4.3244330" lon="-75.8354690">
        <ele>1215.8</ele>
        <time>2022-08-14T12:09:14Z</time>
      </trkpt>
      <trkpt lat="4.3244160" lon="-75.8354980">
        <ele>1216.2</ele>
        <time>2022-08-14T12:09:16Z</time>
      </trkpt>
      <trkpt lat="4.3243580" lon="-75.8355530">
        <ele>1217.4</ele>
        <time>2022-08-14T12:09:20Z</time>
      </trkpt>
      <trkpt lat="4.3243290" lon="-75.8355920">
        <ele>1217.8</ele>
        <time>2022-08-14T12:09:22Z</time>
      </trkpt>
      <trkpt lat="4.3243150" lon="-75.8356240">
        <ele>1218.4</ele>
        <time>2022-08-14T12:09:24Z</time>
      </trkpt>
      <trkpt lat="4.3242420" lon="-75.8356990">
        <ele>1219.4</ele>
        <time>2022-08-14T12:09:30Z</time>
      </trkpt>
      <trkpt lat="4.3242260" lon="-75.8357090">
        <ele>1219.4</ele>
        <time>2022-08-14T12:09:31Z</time>
      </trkpt>
      <trkpt lat="4.3241410" lon="-75.8357770">
        <ele>1220.6</ele>
        <time>2022-08-14T12:09:37Z</time>
      </trkpt>
      <trkpt lat="4.3241140" lon="-75.8358000">
        <ele>1221.2</ele>
        <time>2022-08-14T12:09:39Z</time>
      </trkpt>
      <trkpt lat="4.3240460" lon="-75.8358740">
        <ele>1221.8</ele>
        <time>2022-08-14T12:09:44Z</time>
      </trkpt>
      <trkpt lat="4.3240010" lon="-75.8359270">
        <ele>1222.6</ele>
        <time>2022-08-14T12:09:48Z</time>
      </trkpt>
      <trkpt lat="4.3239890" lon="-75.8359430">
        <ele>1222.8</ele>
        <time>2022-08-14T12:09:49Z</time>
      </trkpt>
      <trkpt lat="4.3239570" lon="-75.8359810">
        <ele>1223.2</ele>
        <time>2022-08-14T12:09:52Z</time>
      </trkpt>
      <trkpt lat="4.3239310" lon="-75.8360210">
        <ele>1223.4</ele>
        <time>2022-08-14T12:09:54Z</time>
      </trkpt>
      <trkpt lat="4.3238910" lon="-75.8360790">
        <ele>1224.0</ele>
        <time>2022-08-14T12:09:57Z</time>
      </trkpt>
      <trkpt lat="4.3238200" lon="-75.8361890">
        <ele>1225.2</ele>
        <time>2022-08-14T12:10:03Z</time>
      </trkpt>
      <trkpt lat="4.3238000" lon="-75.8362230">
        <ele>1225.4</ele>
        <time>2022-08-14T12:10:05Z</time>
      </trkpt>
      <trkpt lat="4.3237530" lon="-75.8363240">
        <ele>1226.2</ele>
        <time>2022-08-14T12:10:10Z</time>
      </trkpt>
      <trkpt lat="4.3237200" lon="-75.8363780">
        <ele>1226.8</ele>
        <time>2022-08-14T12:10:13Z</time>
      </trkpt>
      <trkpt lat="4.3236750" lon="-75.8364520">
        <ele>1227.4</ele>
        <time>2022-08-14T12:10:17Z</time>
      </trkpt>
      <trkpt lat="4.3236680" lon="-75.8364670">
        <ele>1227.4</ele>
        <time>2022-08-14T12:10:18Z</time>
      </trkpt>
      <trkpt lat="4.3236110" lon="-75.8366170">
        <ele>1228.6</ele>
        <time>2022-08-14T12:10:24Z</time>
      </trkpt>
      <trkpt lat="4.3235720" lon="-75.8367160">
        <ele>1229.2</ele>
        <time>2022-08-14T12:10:28Z</time>
      </trkpt>
      <trkpt lat="4.3235240" lon="-75.8368240">
        <ele>1229.6</ele>
        <time>2022-08-14T12:10:32Z</time>
      </trkpt>
      <trkpt lat="4.3234600" lon="-75.8369420">
        <ele>1230.4</ele>
        <time>2022-08-14T12:10:37Z</time>
      </trkpt>
      <trkpt lat="4.3234360" lon="-75.8369910">
        <ele>1230.6</ele>
        <time>2022-08-14T12:10:39Z</time>
      </trkpt>
      <trkpt lat="4.3233540" lon="-75.8371740">
        <ele>1231.8</ele>
        <time>2022-08-14T12:10:47Z</time>
      </trkpt>
      <trkpt lat="4.3233440" lon="-75.8371940">
        <ele>1232.0</ele>
        <time>2022-08-14T12:10:48Z</time>
      </trkpt>
      <trkpt lat="4.3233340" lon="-75.8372860">
        <ele>1232.8</ele>
        <time>2022-08-14T12:10:52Z</time>
      </trkpt>
      <trkpt lat="4.3233380" lon="-75.8373100">
        <ele>1233.0</ele>
        <time>2022-08-14T12:10:53Z</time>
      </trkpt>
      <trkpt lat="4.3233720" lon="-75.8374020">
        <ele>1234.0</ele>
        <time>2022-08-14T12:10:57Z</time>
      </trkpt>
      <trkpt lat="4.3234020" lon="-75.8374380">
        <ele>1234.4</ele>
        <time>2022-08-14T12:10:59Z</time>
      </trkpt>
      <trkpt lat="4.3234580" lon="-75.8374790">
        <ele>1235.0</ele>
        <time>2022-08-14T12:11:02Z</time>
      </trkpt>
      <trkpt lat="4.3235630" lon="-75.8375440">
        <ele>1236.0</ele>
        <time>2022-08-14T12:11:07Z</time>
      </trkpt>
      <trkpt lat="4.3236600" lon="-75.8376080">
        <ele>1237.2</ele>
        <time>2022-08-14T12:11:12Z</time>
      </trkpt>
      <trkpt lat="4.3237530" lon="-75.8376580">
        <ele>1238.4</ele>
        <time>2022-08-14T12:11:17Z</time>
      </trkpt>
      <trkpt lat="4.3238270" lon="-75.8376850">
        <ele>1239.4</ele>
        <time>2022-08-14T12:11:21Z</time>
      </trkpt>
      <trkpt lat="4.3238820" lon="-75.8376940">
        <ele>1240.2</ele>
        <time>2022-08-14T12:11:24Z</time>
      </trkpt>
      <trkpt lat="4.3239010" lon="-75.8376980">
        <ele>1240.4</ele>
        <time>2022-08-14T12:11:25Z</time>
      </trkpt>
      <trkpt lat="4.3239870" lon="-75.8377040">
        <ele>1241.2</ele>
        <time>2022-08-14T12:11:30Z</time>
      </trkpt>
      <trkpt lat="4.3240060" lon="-75.8377000">
        <ele>1241.6</ele>
        <time>2022-08-14T12:11:31Z</time>
      </trkpt>
      <trkpt lat="4.3240680" lon="-75.8376880">
        <ele>1242.6</ele>
        <time>2022-08-14T12:11:35Z</time>
      </trkpt>
      <trkpt lat="4.3241090" lon="-75.8376630">
        <ele>1243.2</ele>
        <time>2022-08-14T12:11:38Z</time>
      </trkpt>
      <trkpt lat="4.3241350" lon="-75.8376410">
        <ele>1243.8</ele>
        <time>2022-08-14T12:11:40Z</time>
      </trkpt>
      <trkpt lat="4.3242020" lon="-75.8375810">
        <ele>1245.0</ele>
        <time>2022-08-14T12:11:45Z</time>
      </trkpt>
      <trkpt lat="4.3242300" lon="-75.8375590">
        <ele>1245.4</ele>
        <time>2022-08-14T12:11:47Z</time>
      </trkpt>
      <trkpt lat="4.3242830" lon="-75.8375020">
        <ele>1246.0</ele>
        <time>2022-08-14T12:11:51Z</time>
      </trkpt>
      <trkpt lat="4.3243490" lon="-75.8374370">
        <ele>1246.8</ele>
        <time>2022-08-14T12:11:56Z</time>
      </trkpt>
      <trkpt lat="4.3243730" lon="-75.8374080">
        <ele>1247.2</ele>
        <time>2022-08-14T12:11:58Z</time>
      </trkpt>
      <trkpt lat="4.3244620" lon="-75.8373230">
        <ele>1248.4</ele>
        <time>2022-08-14T12:12:04Z</time>
      </trkpt>
      <trkpt lat="4.3245010" lon="-75.8373060">
        <ele>1248.8</ele>
        <time>2022-08-14T12:12:06Z</time>
      </trkpt>
      <trkpt lat="4.3246100" lon="-75.8373050">
        <ele>1249.4</ele>
        <time>2022-08-14T12:12:11Z</time>
      </trkpt>
      <trkpt lat="4.3246520" lon="-75.8373230">
        <ele>1250.0</ele>
        <time>2022-08-14T12:12:13Z</time>
      </trkpt>
      <trkpt lat="4.3247160" lon="-75.8373880">
        <ele>1250.6</ele>
        <time>2022-08-14T12:12:17Z</time>
      </trkpt>
      <trkpt lat="4.3247350" lon="-75.8374310">
        <ele>1250.8</ele>
        <time>2022-08-14T12:12:19Z</time>
      </trkpt>
      <trkpt lat="4.3247440" lon="-75.8375210">
        <ele>1251.6</ele>
        <time>2022-08-14T12:12:23Z</time>
      </trkpt>
      <trkpt lat="4.3247330" lon="-75.8376080">
        <ele>1252.4</ele>
        <time>2022-08-14T12:12:27Z</time>
      </trkpt>
      <trkpt lat="4.3247260" lon="-75.8376480">
        <ele>1252.8</ele>
        <time>2022-08-14T12:12:29Z</time>
      </trkpt>
      <trkpt lat="4.3247020" lon="-75.8377760">
        <ele>1253.8</ele>
        <time>2022-08-14T12:12:35Z</time>
      </trkpt>
      <trkpt lat="4.3246800" lon="-75.8378970">
        <ele>1255.0</ele>
        <time>2022-08-14T12:12:41Z</time>
      </trkpt>
      <trkpt lat="4.3246670" lon="-75.8380270">
        <ele>1256.0</ele>
        <time>2022-08-14T12:12:47Z</time>
      </trkpt>
      <trkpt lat="4.3246560" lon="-75.8381090">
        <ele>1256.8</ele>
        <time>2022-08-14T12:12:51Z</time>
      </trkpt>
      <trkpt lat="4.3246480" lon="-75.8381500">
        <ele>1257.2</ele>
        <time>2022-08-14T12:12:53Z</time>
      </trkpt>
      <trkpt lat="4.3246300" lon="-75.8382480">
        <ele>1258.4</ele>
        <time>2022-08-14T12:12:58Z</time>
      </trkpt>
      <trkpt lat="4.3246080" lon="-75.8383620">
        <ele>1259.6</ele>
        <time>2022-08-14T12:13:04Z</time>
      </trkpt>
      <trkpt lat="4.3245990" lon="-75.8384360">
        <ele>1260.4</ele>
        <time>2022-08-14T12:13:08Z</time>
      </trkpt>
      <trkpt lat="4.3245950" lon="-75.8384530">
        <ele>1260.6</ele>
        <time>2022-08-14T12:13:09Z</time>
      </trkpt>
      <trkpt lat="4.3245810" lon="-75.8385210">
        <ele>1261.6</ele>
        <time>2022-08-14T12:13:13Z</time>
      </trkpt>
      <trkpt lat="4.3245700" lon="-75.8385940">
        <ele>1262.8</ele>
        <time>2022-08-14T12:13:17Z</time>
      </trkpt>
      <trkpt lat="4.3245670" lon="-75.8386120">
        <ele>1263.0</ele>
        <time>2022-08-14T12:13:18Z</time>
      </trkpt>
      <trkpt lat="4.3245530" lon="-75.8386670">
        <ele>1263.8</ele>
        <time>2022-08-14T12:13:21Z</time>
      </trkpt>
      <trkpt lat="4.3245440" lon="-75.8387650">
        <ele>1264.8</ele>
        <time>2022-08-14T12:13:26Z</time>
      </trkpt>
      <trkpt lat="4.3245410" lon="-75.8387860">
        <ele>1265.0</ele>
        <time>2022-08-14T12:13:27Z</time>
      </trkpt>
      <trkpt lat="4.3245260" lon="-75.8388840">
        <ele>1266.0</ele>
        <time>2022-08-14T12:13:32Z</time>
      </trkpt>
      <trkpt lat="4.3245140" lon="-75.8389860">
        <ele>1267.0</ele>
        <time>2022-08-14T12:13:37Z</time>
      </trkpt>
      <trkpt lat="4.3245110" lon="-75.8390060">
        <ele>1267.2</ele>
        <time>2022-08-14T12:13:38Z</time>
      </trkpt>
      <trkpt lat="4.3245010" lon="-75.8390840">
        <ele>1268.2</ele>
        <time>2022-08-14T12:13:42Z</time>
      </trkpt>
      <trkpt lat="4.3244960" lon="-75.8391220">
        <ele>1268.6</ele>
        <time>2022-08-14T12:13:44Z</time>
      </trkpt>
      <trkpt lat="4.3244800" lon="-75.8392180">
        <ele>1269.4</ele>
        <time>2022-08-14T12:13:49Z</time>
      </trkpt>
      <trkpt lat="4.3244610" lon="-75.8393150">
        <ele>1270.4</ele>
        <time>2022-08-14T12:13:54Z</time>
      </trkpt>
      <trkpt lat="4.3244550" lon="-75.8393350">
        <ele>1270.6</ele>
        <time>2022-08-14T12:13:55Z</time>
      </trkpt>
      <trkpt lat="4.3244230" lon="-75.8394080">
        <ele>1271.6</ele>
        <time>2022-08-14T12:13:59Z</time>
      </trkpt>
      <trkpt lat="4.3243590" lon="-75.8394810">
        <ele>1272.6</ele>
        <time>2022-08-14T12:14:04Z</time>
      </trkpt>
      <trkpt lat="4.3243460" lon="-75.8394950">
        <ele>1272.8</ele>
        <time>2022-08-14T12:14:05Z</time>
      </trkpt>
      <trkpt lat="4.3242220" lon="-75.8396200">
        <ele>1273.8</ele>
        <time>2022-08-14T12:14:13Z</time>
      </trkpt>
      <trkpt lat="4.3242040" lon="-75.8396350">
        <ele>1274.0</ele>
        <time>2022-08-14T12:14:14Z</time>
      </trkpt>
      <trkpt lat="4.3242040" lon="-75.8396350">
        <ele>1274.8</ele>
        <time>2022-08-14T12:14:19Z</time>
      </trkpt>
      <trkpt lat="4.3240190" lon="-75.8397870">
        <ele>1275.6</ele>
        <time>2022-08-14T12:14:24Z</time>
      </trkpt>
      <trkpt lat="4.3239790" lon="-75.8398180">
        <ele>1276.0</ele>
        <time>2022-08-14T12:14:26Z</time>
      </trkpt>
      <trkpt lat="4.3238580" lon="-75.8399260">
        <ele>1277.0</ele>
        <time>2022-08-14T12:14:32Z</time>
      </trkpt>
      <trkpt lat="4.3238390" lon="-75.8399450">
        <ele>1277.0</ele>
        <time>2022-08-14T12:14:33Z</time>
      </trkpt>
      <trkpt lat="4.3237150" lon="-75.8400520">
        <ele>1278.2</ele>
        <time>2022-08-14T12:14:39Z</time>
      </trkpt>
      <trkpt lat="4.3236780" lon="-75.8400880">
        <ele>1278.4</ele>
        <time>2022-08-14T12:14:41Z</time>
      </trkpt>
      <trkpt lat="4.3235970" lon="-75.8402150">
        <ele>1279.2</ele>
        <time>2022-08-14T12:14:47Z</time>
      </trkpt>
      <trkpt lat="4.3235320" lon="-75.8403910">
        <ele>1280.2</ele>
        <time>2022-08-14T12:14:54Z</time>
      </trkpt>
      <trkpt lat="4.3235000" lon="-75.8404640">
        <ele>1280.4</ele>
        <time>2022-08-14T12:14:57Z</time>
      </trkpt>
      <trkpt lat="4.3234530" lon="-75.8405830">
        <ele>1281.4</ele>
        <time>2022-08-14T12:15:02Z</time>
      </trkpt>
      <trkpt lat="4.3234260" lon="-75.8406500">
        <ele>1282.0</ele>
        <time>2022-08-14T12:15:05Z</time>
      </trkpt>
      <trkpt lat="4.3234080" lon="-75.8406930">
        <ele>1282.6</ele>
        <time>2022-08-14T12:15:07Z</time>
      </trkpt>
      <trkpt lat="4.3233440" lon="-75.8408290">
        <ele>1283.6</ele>
        <time>2022-08-14T12:15:13Z</time>
      </trkpt>
      <trkpt lat="4.3233340" lon="-75.8408510">
        <ele>1283.8</ele>
        <time>2022-08-14T12:15:14Z</time>
      </trkpt>
      <trkpt lat="4.3232780" lon="-75.8409540">
        <ele>1284.8</ele>
        <time>2022-08-14T12:15:19Z</time>
      </trkpt>
      <trkpt lat="4.3232450" lon="-75.8410220">
        <ele>1285.4</ele>
        <time>2022-08-14T12:15:22Z</time>
      </trkpt>
      <trkpt lat="4.3232160" lon="-75.8411040">
        <ele>1286.0</ele>
        <time>2022-08-14T12:15:25Z</time>
      </trkpt>
      <trkpt lat="4.3231550" lon="-75.8412620">
        <ele>1287.0</ele>
        <time>2022-08-14T12:15:31Z</time>
      </trkpt>
      <trkpt lat="4.3231460" lon="-75.8412850">
        <ele>1287.0</ele>
        <time>2022-08-14T12:15:32Z</time>
      </trkpt>
      <trkpt lat="4.3231280" lon="-75.8414510">
        <ele>1288.2</ele>
        <time>2022-08-14T12:15:39Z</time>
      </trkpt>
      <trkpt lat="4.3231230" lon="-75.8415960">
        <ele>1289.2</ele>
        <time>2022-08-14T12:15:45Z</time>
      </trkpt>
      <trkpt lat="4.3231210" lon="-75.8416450">
        <ele>1289.6</ele>
        <time>2022-08-14T12:15:47Z</time>
      </trkpt>
      <trkpt lat="4.3231230" lon="-75.8417440">
        <ele>1290.6</ele>
        <time>2022-08-14T12:15:51Z</time>
      </trkpt>
      <trkpt lat="4.3231540" lon="-75.8418650">
        <ele>1291.4</ele>
        <time>2022-08-14T12:15:56Z</time>
      </trkpt>
      <trkpt lat="4.3231670" lon="-75.8418860">
        <ele>1291.6</ele>
        <time>2022-08-14T12:15:57Z</time>
      </trkpt>
      <trkpt lat="4.3232460" lon="-75.8419770">
        <ele>1292.6</ele>
        <time>2022-08-14T12:16:02Z</time>
      </trkpt>
      <trkpt lat="4.3232760" lon="-75.8420160">
        <ele>1293.0</ele>
        <time>2022-08-14T12:16:04Z</time>
      </trkpt>
      <trkpt lat="4.3233320" lon="-75.8420780">
        <ele>1293.6</ele>
        <time>2022-08-14T12:16:08Z</time>
      </trkpt>
      <trkpt lat="4.3233610" lon="-75.8421310">
        <ele>1294.4</ele>
        <time>2022-08-14T12:16:11Z</time>
      </trkpt>
      <trkpt lat="4.3233700" lon="-75.8421760">
        <ele>1294.8</ele>
        <time>2022-08-14T12:16:13Z</time>
      </trkpt>
      <trkpt lat="4.3233700" lon="-75.8422870">
        <ele>1296.0</ele>
        <time>2022-08-14T12:16:17Z</time>
      </trkpt>
      <trkpt lat="4.3233680" lon="-75.8423110">
        <ele>1296.4</ele>
        <time>2022-08-14T12:16:18Z</time>
      </trkpt>
      <trkpt lat="4.3233720" lon="-75.8423860">
        <ele>1297.0</ele>
        <time>2022-08-14T12:16:21Z</time>
      </trkpt>
      <trkpt lat="4.3233630" lon="-75.8424870">
        <ele>1297.6</ele>
        <time>2022-08-14T12:16:25Z</time>
      </trkpt>
      <trkpt lat="4.3233490" lon="-75.8425650">
        <ele>1298.2</ele>
        <time>2022-08-14T12:16:28Z</time>
      </trkpt>
      <trkpt lat="4.3232800" lon="-75.8426720">
        <ele>1299.0</ele>
        <time>2022-08-14T12:16:33Z</time>
      </trkpt>
      <trkpt lat="4.3232380" lon="-75.8426930">
        <ele>1299.4</ele>
        <time>2022-08-14T12:16:35Z</time>
      </trkpt>
      <trkpt lat="4.3231620" lon="-75.8426890">
        <ele>1299.8</ele>
        <time>2022-08-14T12:16:38Z</time>
      </trkpt>
      <trkpt lat="4.3230900" lon="-75.8426750">
        <ele>1300.4</ele>
        <time>2022-08-14T12:16:41Z</time>
      </trkpt>
      <trkpt lat="4.3230200" lon="-75.8426480">
        <ele>1301.0</ele>
        <time>2022-08-14T12:16:45Z</time>
      </trkpt>
      <trkpt lat="4.3229770" lon="-75.8426230">
        <ele>1301.6</ele>
        <time>2022-08-14T12:16:48Z</time>
      </trkpt>
      <trkpt lat="4.3229350" lon="-75.8426130">
        <ele>1302.0</ele>
        <time>2022-08-14T12:16:50Z</time>
      </trkpt>
      <trkpt lat="4.3228890" lon="-75.8426110">
        <ele>1302.8</ele>
        <time>2022-08-14T12:16:52Z</time>
      </trkpt>
      <trkpt lat="4.3227620" lon="-75.8426060">
        <ele>1303.8</ele>
        <time>2022-08-14T12:16:58Z</time>
      </trkpt>
      <trkpt lat="4.3227370" lon="-75.8426050">
        <ele>1304.0</ele>
        <time>2022-08-14T12:16:59Z</time>
      </trkpt>
      <trkpt lat="4.3226390" lon="-75.8425910">
        <ele>1305.2</ele>
        <time>2022-08-14T12:17:03Z</time>
      </trkpt>
      <trkpt lat="4.3225880" lon="-75.8425830">
        <ele>1305.8</ele>
        <time>2022-08-14T12:17:05Z</time>
      </trkpt>
      <trkpt lat="4.3225410" lon="-75.8425780">
        <ele>1306.4</ele>
        <time>2022-08-14T12:17:07Z</time>
      </trkpt>
      <trkpt lat="4.3224710" lon="-75.8425720">
        <ele>1307.2</ele>
        <time>2022-08-14T12:17:10Z</time>
      </trkpt>
      <trkpt lat="4.3224260" lon="-75.8425700">
        <ele>1307.6</ele>
        <time>2022-08-14T12:17:12Z</time>
      </trkpt>
      <trkpt lat="4.3223440" lon="-75.8425390">
        <ele>1308.4</ele>
        <time>2022-08-14T12:17:16Z</time>
      </trkpt>
      <trkpt lat="4.3223090" lon="-75.8425150">
        <ele>1308.6</ele>
        <time>2022-08-14T12:17:18Z</time>
      </trkpt>
      <trkpt lat="4.3222420" lon="-75.8424530">
        <ele>1309.8</ele>
        <time>2022-08-14T12:17:22Z</time>
      </trkpt>
      <trkpt lat="4.3222260" lon="-75.8424420">
        <ele>1310.0</ele>
        <time>2022-08-14T12:17:23Z</time>
      </trkpt>
      <trkpt lat="4.3221690" lon="-75.8424170">
        <ele>1310.8</ele>
        <time>2022-08-14T12:17:26Z</time>
      </trkpt>
      <trkpt lat="4.3220500" lon="-75.8423690">
        <ele>1312.0</ele>
        <time>2022-08-14T12:17:31Z</time>
      </trkpt>
      <trkpt lat="4.3220040" lon="-75.8423650">
        <ele>1312.2</ele>
        <time>2022-08-14T12:17:33Z</time>
      </trkpt>
      <trkpt lat="4.3219340" lon="-75.8423600">
        <ele>1313.2</ele>
        <time>2022-08-14T12:17:36Z</time>
      </trkpt>
      <trkpt lat="4.3218480" lon="-75.8423420">
        <ele>1314.0</ele>
        <time>2022-08-14T12:17:40Z</time>
      </trkpt>
      <trkpt lat="4.3218270" lon="-75.8423350">
        <ele>1314.2</ele>
        <time>2022-08-14T12:17:41Z</time>
      </trkpt>
      <trkpt lat="4.3217330" lon="-75.8422910">
        <ele>1315.4</ele>
        <time>2022-08-14T12:17:46Z</time>
      </trkpt>
      <trkpt lat="4.3216320" lon="-75.8422640">
        <ele>1316.6</ele>
        <time>2022-08-14T12:17:51Z</time>
      </trkpt>
      <trkpt lat="4.3216100" lon="-75.8422640">
        <ele>1316.8</ele>
        <time>2022-08-14T12:17:52Z</time>
      </trkpt>
      <trkpt lat="4.3215290" lon="-75.8422710">
        <ele>1317.6</ele>
        <time>2022-08-14T12:17:55Z</time>
      </trkpt>
      <trkpt lat="4.3215060" lon="-75.8422720">
        <ele>1317.8</ele>
        <time>2022-08-14T12:17:56Z</time>
      </trkpt>
      <trkpt lat="4.3214600" lon="-75.8422580">
        <ele>1318.6</ele>
        <time>2022-08-14T12:17:58Z</time>
      </trkpt>
      <trkpt lat="4.3214020" lon="-75.8422480">
        <ele>1319.2</ele>
        <time>2022-08-14T12:18:01Z</time>
      </trkpt>
      <trkpt lat="4.3213410" lon="-75.8422550">
        <ele>1319.8</ele>
        <time>2022-08-14T12:18:04Z</time>
      </trkpt>
      <trkpt lat="4.3213040" lon="-75.8422430">
        <ele>1320.4</ele>
        <time>2022-08-14T12:18:06Z</time>
      </trkpt>
      <trkpt lat="4.3212660" lon="-75.8422470">
        <ele>1320.8</ele>
        <time>2022-08-14T12:18:08Z</time>
      </trkpt>
      <trkpt lat="4.3212050" lon="-75.8422330">
        <ele>1321.8</ele>
        <time>2022-08-14T12:18:11Z</time>
      </trkpt>
      <trkpt lat="4.3211280" lon="-75.8422240">
        <ele>1323.2</ele>
        <time>2022-08-14T12:18:15Z</time>
      </trkpt>
      <trkpt lat="4.3210600" lon="-75.8422150">
        <ele>1324.2</ele>
        <time>2022-08-14T12:18:19Z</time>
      </trkpt>
      <trkpt lat="4.3210290" lon="-75.8422110">
        <ele>1324.8</ele>
        <time>2022-08-14T12:18:21Z</time>
      </trkpt>
      <trkpt lat="4.3210010" lon="-75.8421980">
        <ele>1325.4</ele>
        <time>2022-08-14T12:18:23Z</time>
      </trkpt>
      <trkpt lat="4.3209190" lon="-75.8421760">
        <ele>1326.6</ele>
        <time>2022-08-14T12:18:28Z</time>
      </trkpt>
      <trkpt lat="4.3208600" lon="-75.8421570">
        <ele>1327.8</ele>
        <time>2022-08-14T12:18:32Z</time>
      </trkpt>
      <trkpt lat="4.3208270" lon="-75.8421490">
        <ele>1328.4</ele>
        <time>2022-08-14T12:18:34Z</time>
      </trkpt>
      <trkpt lat="4.3207880" lon="-75.8421250">
        <ele>1328.8</ele>
        <time>2022-08-14T12:18:36Z</time>
      </trkpt>
      <trkpt lat="4.3207190" lon="-75.8421200">
        <ele>1329.8</ele>
        <time>2022-08-14T12:18:40Z</time>
      </trkpt>
      <trkpt lat="4.3207030" lon="-75.8421150">
        <ele>1330.0</ele>
        <time>2022-08-14T12:18:41Z</time>
      </trkpt>
      <trkpt lat="4.3206230" lon="-75.8420880">
        <ele>1331.0</ele>
        <time>2022-08-14T12:18:46Z</time>
      </trkpt>
      <trkpt lat="4.3205940" lon="-75.8420730">
        <ele>1331.4</ele>
        <time>2022-08-14T12:18:48Z</time>
      </trkpt>
      <trkpt lat="4.3205420" lon="-75.8420430">
        <ele>1332.2</ele>
        <time>2022-08-14T12:18:52Z</time>
      </trkpt>
      <trkpt lat="4.3205150" lon="-75.8420370">
        <ele>1332.8</ele>
        <time>2022-08-14T12:18:54Z</time>
      </trkpt>
      <trkpt lat="4.3205020" lon="-75.8420310">
        <ele>1333.0</ele>
        <time>2022-08-14T12:18:55Z</time>
      </trkpt>
      <trkpt lat="4.3204740" lon="-75.8420130">
        <ele>1333.4</ele>
        <time>2022-08-14T12:18:57Z</time>
      </trkpt>
      <trkpt lat="4.3204270" lon="-75.8419820">
        <ele>1334.6</ele>
        <time>2022-08-14T12:19:01Z</time>
      </trkpt>
      <trkpt lat="4.3203890" lon="-75.8419610">
        <ele>1335.2</ele>
        <time>2022-08-14T12:19:04Z</time>
      </trkpt>
      <trkpt lat="4.3203620" lon="-75.8419470">
        <ele>1335.8</ele>
        <time>2022-08-14T12:19:06Z</time>
      </trkpt>
      <trkpt lat="4.3203070" lon="-75.8419190">
        <ele>1336.8</ele>
        <time>2022-08-14T12:19:10Z</time>
      </trkpt>
      <trkpt lat="4.3202740" lon="-75.8419090">
        <ele>1337.0</ele>
        <time>2022-08-14T12:19:12Z</time>
      </trkpt>
      <trkpt lat="4.3202180" lon="-75.8418880">
        <ele>1338.0</ele>
        <time>2022-08-14T12:19:16Z</time>
      </trkpt>
      <trkpt lat="4.3201730" lon="-75.8418730">
        <ele>1338.6</ele>
        <time>2022-08-14T12:19:19Z</time>
      </trkpt>
      <trkpt lat="4.3201410" lon="-75.8418640">
        <ele>1339.0</ele>
        <time>2022-08-14T12:19:21Z</time>
      </trkpt>
      <trkpt lat="4.3200670" lon="-75.8418300">
        <ele>1340.0</ele>
        <time>2022-08-14T12:19:26Z</time>
      </trkpt>
      <trkpt lat="4.3200000" lon="-75.8417990">
        <ele>1341.4</ele>
        <time>2022-08-14T12:19:31Z</time>
      </trkpt>
      <trkpt lat="4.3199620" lon="-75.8417870">
        <ele>1342.0</ele>
        <time>2022-08-14T12:19:34Z</time>
      </trkpt>
      <trkpt lat="4.3199500" lon="-75.8417800">
        <ele>1342.4</ele>
        <time>2022-08-14T12:19:35Z</time>
      </trkpt>
      <trkpt lat="4.3198670" lon="-75.8417430">
        <ele>1343.4</ele>
        <time>2022-08-14T12:19:41Z</time>
      </trkpt>
      <trkpt lat="4.3198310" lon="-75.8417290">
        <ele>1343.8</ele>
        <time>2022-08-14T12:19:43Z</time>
      </trkpt>
      <trkpt lat="4.3197870" lon="-75.8417140">
        <ele>1344.6</ele>
        <time>2022-08-14T12:19:46Z</time>
      </trkpt>
      <trkpt lat="4.3197360" lon="-75.8417050">
        <ele>1345.4</ele>
        <time>2022-08-14T12:19:49Z</time>
      </trkpt>
      <trkpt lat="4.3197030" lon="-75.8417000">
        <ele>1345.8</ele>
        <time>2022-08-14T12:19:51Z</time>
      </trkpt>
      <trkpt lat="4.3196100" lon="-75.8416660">
        <ele>1346.8</ele>
        <time>2022-08-14T12:19:57Z</time>
      </trkpt>
      <trkpt lat="4.3195300" lon="-75.8416270">
        <ele>1347.8</ele>
        <time>2022-08-14T12:20:02Z</time>
      </trkpt>
      <trkpt lat="4.3195200" lon="-75.8416160">
        <ele>1348.0</ele>
        <time>2022-08-14T12:20:03Z</time>
      </trkpt>
      <trkpt lat="4.3195110" lon="-75.8416050">
        <ele>1348.2</ele>
        <time>2022-08-14T12:20:04Z</time>
      </trkpt>
      <trkpt lat="4.3194720" lon="-75.8415580">
        <ele>1349.0</ele>
        <time>2022-08-14T12:20:08Z</time>
      </trkpt>
      <trkpt lat="4.3194230" lon="-75.8414740">
        <ele>1350.0</ele>
        <time>2022-08-14T12:20:14Z</time>
      </trkpt>
      <trkpt lat="4.3193380" lon="-75.8414410">
        <ele>1351.2</ele>
        <time>2022-08-14T12:20:20Z</time>
      </trkpt>
      <trkpt lat="4.3193210" lon="-75.8414410">
        <ele>1351.4</ele>
        <time>2022-08-14T12:20:21Z</time>
      </trkpt>
      <trkpt lat="4.3192450" lon="-75.8414640">
        <ele>1352.4</ele>
        <time>2022-08-14T12:20:26Z</time>
      </trkpt>
      <trkpt lat="4.3192180" lon="-75.8414760">
        <ele>1352.8</ele>
        <time>2022-08-14T12:20:28Z</time>
      </trkpt>
      <trkpt lat="4.3191890" lon="-75.8415130">
        <ele>1353.4</ele>
        <time>2022-08-14T12:20:31Z</time>
      </trkpt>
      <trkpt lat="4.3191510" lon="-75.8415960">
        <ele>1354.6</ele>
        <time>2022-08-14T12:20:36Z</time>
      </trkpt>
      <trkpt lat="4.3191470" lon="-75.8416130">
        <ele>1354.8</ele>
        <time>2022-08-14T12:20:37Z</time>
      </trkpt>
      <trkpt lat="4.3191290" lon="-75.8416720">
        <ele>1355.6</ele>
        <time>2022-08-14T12:20:41Z</time>
      </trkpt>
      <trkpt lat="4.3191180" lon="-75.8417620">
        <ele>1356.6</ele>
        <time>2022-08-14T12:20:47Z</time>
      </trkpt>
      <trkpt lat="4.3191200" lon="-75.8418250">
        <ele>1357.6</ele>
        <time>2022-08-14T12:20:51Z</time>
      </trkpt>
      <trkpt lat="4.3191270" lon="-75.8418850">
        <ele>1358.8</ele>
        <time>2022-08-14T12:20:55Z</time>
      </trkpt>
      <trkpt lat="4.3191490" lon="-75.8419450">
        <ele>1359.8</ele>
        <time>2022-08-14T12:20:59Z</time>
      </trkpt>
      <trkpt lat="4.3191750" lon="-75.8420190">
        <ele>1361.0</ele>
        <time>2022-08-14T12:21:04Z</time>
      </trkpt>
      <trkpt lat="4.3191920" lon="-75.8420500">
        <ele>1361.4</ele>
        <time>2022-08-14T12:21:06Z</time>
      </trkpt>
      <trkpt lat="4.3192050" lon="-75.8420650">
        <ele>1361.4</ele>
        <time>2022-08-14T12:21:07Z</time>
      </trkpt>
      <trkpt lat="4.3192670" lon="-75.8421540">
        <ele>1362.0</ele>
        <time>2022-08-14T12:21:13Z</time>
      </trkpt>
      <trkpt lat="4.3192800" lon="-75.8421660">
        <ele>1362.2</ele>
        <time>2022-08-14T12:21:14Z</time>
      </trkpt>
      <trkpt lat="4.3193410" lon="-75.8422410">
        <ele>1363.0</ele>
        <time>2022-08-14T12:21:20Z</time>
      </trkpt>
      <trkpt lat="4.3193550" lon="-75.8422720">
        <ele>1363.4</ele>
        <time>2022-08-14T12:21:22Z</time>
      </trkpt>
      <trkpt lat="4.3193560" lon="-75.8423630">
        <ele>1364.2</ele>
        <time>2022-08-14T12:21:27Z</time>
      </trkpt>
      <trkpt lat="4.3193260" lon="-75.8424780">
        <ele>1365.4</ele>
        <time>2022-08-14T12:21:34Z</time>
      </trkpt>
      <trkpt lat="4.3193210" lon="-75.8424930">
        <ele>1365.6</ele>
        <time>2022-08-14T12:21:35Z</time>
      </trkpt>
      <trkpt lat="4.3192700" lon="-75.8425440">
        <ele>1366.4</ele>
        <time>2022-08-14T12:21:39Z</time>
      </trkpt>
      <trkpt lat="4.3192270" lon="-75.8425850">
        <ele>1367.0</ele>
        <time>2022-08-14T12:21:42Z</time>
      </trkpt>
      <trkpt lat="4.3192130" lon="-75.8425950">
        <ele>1367.4</ele>
        <time>2022-08-14T12:21:43Z</time>
      </trkpt>
      <trkpt lat="4.3191380" lon="-75.8426420">
        <ele>1368.4</ele>
        <time>2022-08-14T12:21:48Z</time>
      </trkpt>
      <trkpt lat="4.3191010" lon="-75.8426740">
        <ele>1369.2</ele>
        <time>2022-08-14T12:21:51Z</time>
      </trkpt>
      <trkpt lat="4.3190760" lon="-75.8426990">
        <ele>1369.6</ele>
        <time>2022-08-14T12:21:53Z</time>
      </trkpt>
      <trkpt lat="4.3189840" lon="-75.8427870">
        <ele>1370.8</ele>
        <time>2022-08-14T12:22:00Z</time>
      </trkpt>
      <trkpt lat="4.3189720" lon="-75.8428050">
        <ele>1371.0</ele>
        <time>2022-08-14T12:22:01Z</time>
      </trkpt>
      <trkpt lat="4.3189450" lon="-75.8428730">
        <ele>1371.8</ele>
        <time>2022-08-14T12:22:05Z</time>
      </trkpt>
      <trkpt lat="4.3189390" lon="-75.8429560">
        <ele>1372.6</ele>
        <time>2022-08-14T12:22:09Z</time>
      </trkpt>
      <trkpt lat="4.3189400" lon="-75.8429930">
        <ele>1373.0</ele>
        <time>2022-08-14T12:22:11Z</time>
      </trkpt>
      <trkpt lat="4.3189880" lon="-75.8430760">
        <ele>1373.6</ele>
        <time>2022-08-14T12:22:16Z</time>
      </trkpt>
      <trkpt lat="4.3190000" lon="-75.8430890">
        <ele>1373.8</ele>
        <time>2022-08-14T12:22:17Z</time>
      </trkpt>
      <trkpt lat="4.3190410" lon="-75.8431670">
        <ele>1374.4</ele>
        <time>2022-08-14T12:22:21Z</time>
      </trkpt>
      <trkpt lat="4.3190730" lon="-75.8432210">
        <ele>1375.0</ele>
        <time>2022-08-14T12:22:24Z</time>
      </trkpt>
      <trkpt lat="4.3191030" lon="-75.8432900">
        <ele>1375.8</ele>
        <time>2022-08-14T12:22:28Z</time>
      </trkpt>
      <trkpt lat="4.3191260" lon="-75.8433230">
        <ele>1376.0</ele>
        <time>2022-08-14T12:22:30Z</time>
      </trkpt>
      <trkpt lat="4.3191860" lon="-75.8434220">
        <ele>1377.0</ele>
        <time>2022-08-14T12:22:35Z</time>
      </trkpt>
      <trkpt lat="4.3192020" lon="-75.8434650">
        <ele>1377.4</ele>
        <time>2022-08-14T12:22:37Z</time>
      </trkpt>
      <trkpt lat="4.3192440" lon="-75.8435670">
        <ele>1378.2</ele>
        <time>2022-08-14T12:22:42Z</time>
      </trkpt>
      <trkpt lat="4.3192690" lon="-75.8436740">
        <ele>1378.8</ele>
        <time>2022-08-14T12:22:47Z</time>
      </trkpt>
      <trkpt lat="4.3192650" lon="-75.8437170">
        <ele>1379.4</ele>
        <time>2022-08-14T12:22:49Z</time>
      </trkpt>
      <trkpt lat="4.3192330" lon="-75.8438180">
        <ele>1380.2</ele>
        <time>2022-08-14T12:22:54Z</time>
      </trkpt>
      <trkpt lat="4.3192220" lon="-75.8438330">
        <ele>1380.4</ele>
        <time>2022-08-14T12:22:55Z</time>
      </trkpt>
      <trkpt lat="4.3191530" lon="-75.8439110">
        <ele>1381.2</ele>
        <time>2022-08-14T12:23:00Z</time>
      </trkpt>
      <trkpt lat="4.3191340" lon="-75.8439230">
        <ele>1381.4</ele>
        <time>2022-08-14T12:23:01Z</time>
      </trkpt>
      <trkpt lat="4.3190290" lon="-75.8440000">
        <ele>1382.2</ele>
        <time>2022-08-14T12:23:07Z</time>
      </trkpt>
      <trkpt lat="4.3190090" lon="-75.8440100">
        <ele>1382.4</ele>
        <time>2022-08-14T12:23:08Z</time>
      </trkpt>
      <trkpt lat="4.3189210" lon="-75.8440920">
        <ele>1383.4</ele>
        <time>2022-08-14T12:23:13Z</time>
      </trkpt>
      <trkpt lat="4.3189030" lon="-75.8441080">
        <ele>1383.4</ele>
        <time>2022-08-14T12:23:14Z</time>
      </trkpt>
      <trkpt lat="4.3188330" lon="-75.8441680">
        <ele>1384.6</ele>
        <time>2022-08-14T12:23:18Z</time>
      </trkpt>
      <trkpt lat="4.3187820" lon="-75.8442020">
        <ele>1385.6</ele>
        <time>2022-08-14T12:23:21Z</time>
      </trkpt>
      <trkpt lat="4.3187660" lon="-75.8442110">
        <ele>1385.8</ele>
        <time>2022-08-14T12:23:22Z</time>
      </trkpt>
      <trkpt lat="4.3186950" lon="-75.8442560">
        <ele>1386.8</ele>
        <time>2022-08-14T12:23:26Z</time>
      </trkpt>
      <trkpt lat="4.3186770" lon="-75.8442710">
        <ele>1387.2</ele>
        <time>2022-08-14T12:23:27Z</time>
      </trkpt>
      <trkpt lat="4.3185630" lon="-75.8443470">
        <ele>1388.0</ele>
        <time>2022-08-14T12:23:33Z</time>
      </trkpt>
      <trkpt lat="4.3184810" lon="-75.8444330">
        <ele>1389.0</ele>
        <time>2022-08-14T12:23:38Z</time>
      </trkpt>
      <trkpt lat="4.3184340" lon="-75.8444860">
        <ele>1389.6</ele>
        <time>2022-08-14T12:23:41Z</time>
      </trkpt>
      <trkpt lat="4.3184000" lon="-75.8445240">
        <ele>1390.2</ele>
        <time>2022-08-14T12:23:43Z</time>
      </trkpt>
      <trkpt lat="4.3183130" lon="-75.8446530">
        <ele>1391.4</ele>
        <time>2022-08-14T12:23:50Z</time>
      </trkpt>
      <trkpt lat="4.3183000" lon="-75.8446700">
        <ele>1391.6</ele>
        <time>2022-08-14T12:23:51Z</time>
      </trkpt>
      <trkpt lat="4.3182240" lon="-75.8447620">
        <ele>1392.4</ele>
        <time>2022-08-14T12:23:56Z</time>
      </trkpt>
      <trkpt lat="4.3181880" lon="-75.8447930">
        <ele>1392.6</ele>
        <time>2022-08-14T12:23:58Z</time>
      </trkpt>
      <trkpt lat="4.3180800" lon="-75.8448530">
        <ele>1393.6</ele>
        <time>2022-08-14T12:24:03Z</time>
      </trkpt>
      <trkpt lat="4.3180200" lon="-75.8448930">
        <ele>1394.2</ele>
        <time>2022-08-14T12:24:06Z</time>
      </trkpt>
      <trkpt lat="4.3179580" lon="-75.8449270">
        <ele>1394.8</ele>
        <time>2022-08-14T12:24:09Z</time>
      </trkpt>
      <trkpt lat="4.3178470" lon="-75.8449900">
        <ele>1395.4</ele>
        <time>2022-08-14T12:24:15Z</time>
      </trkpt>
      <trkpt lat="4.3178290" lon="-75.8450030">
        <ele>1396.0</ele>
        <time>2022-08-14T12:24:16Z</time>
      </trkpt>
      <trkpt lat="4.3177500" lon="-75.8450920">
        <ele>1397.0</ele>
        <time>2022-08-14T12:24:21Z</time>
      </trkpt>
      <trkpt lat="4.3177410" lon="-75.8451110">
        <ele>1397.2</ele>
        <time>2022-08-14T12:24:22Z</time>
      </trkpt>
      <trkpt lat="4.3177030" lon="-75.8451890">
        <ele>1398.0</ele>
        <time>2022-08-14T12:24:26Z</time>
      </trkpt>
      <trkpt lat="4.3176880" lon="-75.8452320">
        <ele>1398.6</ele>
        <time>2022-08-14T12:24:28Z</time>
      </trkpt>
      <trkpt lat="4.3176640" lon="-75.8452800">
        <ele>1399.2</ele>
        <time>2022-08-14T12:24:31Z</time>
      </trkpt>
      <trkpt lat="4.3176390" lon="-75.8453550">
        <ele>1400.4</ele>
        <time>2022-08-14T12:24:35Z</time>
      </trkpt>
      <trkpt lat="4.3175870" lon="-75.8454460">
        <ele>1401.6</ele>
        <time>2022-08-14T12:24:40Z</time>
      </trkpt>
      <trkpt lat="4.3175560" lon="-75.8455040">
        <ele>1402.2</ele>
        <time>2022-08-14T12:24:43Z</time>
      </trkpt>
      <trkpt lat="4.3175450" lon="-75.8455280">
        <ele>1402.6</ele>
        <time>2022-08-14T12:24:44Z</time>
      </trkpt>
      <trkpt lat="4.3175250" lon="-75.8455660">
        <ele>1402.8</ele>
        <time>2022-08-14T12:24:46Z</time>
      </trkpt>
      <trkpt lat="4.3174970" lon="-75.8456090">
        <ele>1403.4</ele>
        <time>2022-08-14T12:24:49Z</time>
      </trkpt>
      <trkpt lat="4.3174870" lon="-75.8456300">
        <ele>1403.6</ele>
        <time>2022-08-14T12:24:50Z</time>
      </trkpt>
      <trkpt lat="4.3174190" lon="-75.8457400">
        <ele>1404.6</ele>
        <time>2022-08-14T12:24:56Z</time>
      </trkpt>
      <trkpt lat="4.3173700" lon="-75.8458030">
        <ele>1405.4</ele>
        <time>2022-08-14T12:25:00Z</time>
      </trkpt>
      <trkpt lat="4.3173560" lon="-75.8458190">
        <ele>1405.6</ele>
        <time>2022-08-14T12:25:01Z</time>
      </trkpt>
      <trkpt lat="4.3172590" lon="-75.8458810">
        <ele>1406.6</ele>
        <time>2022-08-14T12:25:07Z</time>
      </trkpt>
      <trkpt lat="4.3171770" lon="-75.8459100">
        <ele>1407.4</ele>
        <time>2022-08-14T12:25:12Z</time>
      </trkpt>
      <trkpt lat="4.3171620" lon="-75.8459200">
        <ele>1407.8</ele>
        <time>2022-08-14T12:25:13Z</time>
      </trkpt>
      <trkpt lat="4.3170890" lon="-75.8459580">
        <ele>1409.0</ele>
        <time>2022-08-14T12:25:18Z</time>
      </trkpt>
      <trkpt lat="4.3170740" lon="-75.8459670">
        <ele>1409.2</ele>
        <time>2022-08-14T12:25:19Z</time>
      </trkpt>
      <trkpt lat="4.3169960" lon="-75.8460050">
        <ele>1410.0</ele>
        <time>2022-08-14T12:25:24Z</time>
      </trkpt>
      <trkpt lat="4.3169650" lon="-75.8460110">
        <ele>1410.2</ele>
        <time>2022-08-14T12:25:26Z</time>
      </trkpt>
      <trkpt lat="4.3168920" lon="-75.8460230">
        <ele>1411.0</ele>
        <time>2022-08-14T12:25:30Z</time>
      </trkpt>
      <trkpt lat="4.3168270" lon="-75.8460500">
        <ele>1412.0</ele>
        <time>2022-08-14T12:25:34Z</time>
      </trkpt>
      <trkpt lat="4.3168110" lon="-75.8460590">
        <ele>1412.2</ele>
        <time>2022-08-14T12:25:35Z</time>
      </trkpt>
      <trkpt lat="4.3167360" lon="-75.8461080">
        <ele>1413.4</ele>
        <time>2022-08-14T12:25:40Z</time>
      </trkpt>
      <trkpt lat="4.3167210" lon="-75.8461180">
        <ele>1413.6</ele>
        <time>2022-08-14T12:25:41Z</time>
      </trkpt>
      <trkpt lat="4.3166690" lon="-75.8461750">
        <ele>1414.4</ele>
        <time>2022-08-14T12:25:45Z</time>
      </trkpt>
      <trkpt lat="4.3166360" lon="-75.8462490">
        <ele>1414.8</ele>
        <time>2022-08-14T12:25:49Z</time>
      </trkpt>
      <trkpt lat="4.3166300" lon="-75.8463060">
        <ele>1415.6</ele>
        <time>2022-08-14T12:25:52Z</time>
      </trkpt>
      <trkpt lat="4.3166310" lon="-75.8463560">
        <ele>1416.2</ele>
        <time>2022-08-14T12:25:55Z</time>
      </trkpt>
      <trkpt lat="4.3166240" lon="-75.8463940">
        <ele>1416.6</ele>
        <time>2022-08-14T12:25:57Z</time>
      </trkpt>
      <trkpt lat="4.3165750" lon="-75.8464700">
        <ele>1417.4</ele>
        <time>2022-08-14T12:26:02Z</time>
      </trkpt>
      <trkpt lat="4.3164640" lon="-75.8465400">
        <ele>1418.6</ele>
        <time>2022-08-14T12:26:08Z</time>
      </trkpt>
      <trkpt lat="4.3163130" lon="-75.8466310">
        <ele>1419.4</ele>
        <time>2022-08-14T12:26:15Z</time>
      </trkpt>
      <trkpt lat="4.3163020" lon="-75.8466960">
        <ele>1419.8</ele>
        <time>2022-08-14T12:26:17Z</time>
      </trkpt>
      <trkpt lat="4.3163260" lon="-75.8467620">
        <ele>1420.0</ele>
        <time>2022-08-14T12:26:19Z</time>
      </trkpt>
      <trkpt lat="4.3164270" lon="-75.8468310">
        <ele>1420.8</ele>
        <time>2022-08-14T12:26:23Z</time>
      </trkpt>
      <trkpt lat="4.3164560" lon="-75.8468500">
        <ele>1420.8</ele>
        <time>2022-08-14T12:26:24Z</time>
      </trkpt>
      <trkpt lat="4.3166630" lon="-75.8469400">
        <ele>1421.6</ele>
        <time>2022-08-14T12:26:31Z</time>
      </trkpt>
      <trkpt lat="4.3167290" lon="-75.8469640">
        <ele>1421.8</ele>
        <time>2022-08-14T12:26:33Z</time>
      </trkpt>
      <trkpt lat="4.3168460" lon="-75.8470220">
        <ele>1422.0</ele>
        <time>2022-08-14T12:26:37Z</time>
      </trkpt>
      <trkpt lat="4.3169240" lon="-75.8471410">
        <ele>1422.8</ele>
        <time>2022-08-14T12:26:42Z</time>
      </trkpt>
      <trkpt lat="4.3169320" lon="-75.8471650">
        <ele>1423.0</ele>
        <time>2022-08-14T12:26:43Z</time>
      </trkpt>
      <trkpt lat="4.3169470" lon="-75.8472840">
        <ele>1424.0</ele>
        <time>2022-08-14T12:26:48Z</time>
      </trkpt>
      <trkpt lat="4.3169430" lon="-75.8473670">
        <ele>1425.2</ele>
        <time>2022-08-14T12:26:52Z</time>
      </trkpt>
      <trkpt lat="4.3169110" lon="-75.8474430">
        <ele>1426.2</ele>
        <time>2022-08-14T12:26:57Z</time>
      </trkpt>
      <trkpt lat="4.3168660" lon="-75.8475110">
        <ele>1427.2</ele>
        <time>2022-08-14T12:27:02Z</time>
      </trkpt>
      <trkpt lat="4.3168580" lon="-75.8475260">
        <ele>1427.4</ele>
        <time>2022-08-14T12:27:03Z</time>
      </trkpt>
      <trkpt lat="4.3168020" lon="-75.8475790">
        <ele>1428.6</ele>
        <time>2022-08-14T12:27:08Z</time>
      </trkpt>
      <trkpt lat="4.3167800" lon="-75.8476010">
        <ele>1429.2</ele>
        <time>2022-08-14T12:27:10Z</time>
      </trkpt>
      <trkpt lat="4.3167540" lon="-75.8476250">
        <ele>1429.6</ele>
        <time>2022-08-14T12:27:12Z</time>
      </trkpt>
      <trkpt lat="4.3166810" lon="-75.8476720">
        <ele>1430.6</ele>
        <time>2022-08-14T12:27:17Z</time>
      </trkpt>
      <trkpt lat="4.3166550" lon="-75.8476930">
        <ele>1431.0</ele>
        <time>2022-08-14T12:27:19Z</time>
      </trkpt>
      <trkpt lat="4.3166030" lon="-75.8477280">
        <ele>1431.8</ele>
        <time>2022-08-14T12:27:23Z</time>
      </trkpt>
      <trkpt lat="4.3165400" lon="-75.8477690">
        <ele>1433.0</ele>
        <time>2022-08-14T12:27:28Z</time>
      </trkpt>
      <trkpt lat="4.3165040" lon="-75.8478160">
        <ele>1434.2</ele>
        <time>2022-08-14T12:27:32Z</time>
      </trkpt>
      <trkpt lat="4.3164930" lon="-75.8478450">
        <ele>1434.6</ele>
        <time>2022-08-14T12:27:34Z</time>
      </trkpt>
      <trkpt lat="4.3164700" lon="-75.8478830">
        <ele>1435.2</ele>
        <time>2022-08-14T12:27:37Z</time>
      </trkpt>
      <trkpt lat="4.3164400" lon="-75.8479550">
        <ele>1436.2</ele>
        <time>2022-08-14T12:27:42Z</time>
      </trkpt>
      <trkpt lat="4.3164350" lon="-75.8479650">
        <ele>1436.2</ele>
        <time>2022-08-14T12:27:43Z</time>
      </trkpt>
      <trkpt lat="4.3163960" lon="-75.8480110">
        <ele>1437.4</ele>
        <time>2022-08-14T12:27:47Z</time>
      </trkpt>
      <trkpt lat="4.3163500" lon="-75.8480350">
        <ele>1438.0</ele>
        <time>2022-08-14T12:27:50Z</time>
      </trkpt>
      <trkpt lat="4.3163370" lon="-75.8480410">
        <ele>1438.2</ele>
        <time>2022-08-14T12:27:51Z</time>
      </trkpt>
      <trkpt lat="4.3163110" lon="-75.8480500">
        <ele>1438.6</ele>
        <time>2022-08-14T12:27:53Z</time>
      </trkpt>
      <trkpt lat="4.3162790" lon="-75.8480500">
        <ele>1439.4</ele>
        <time>2022-08-14T12:27:55Z</time>
      </trkpt>
      <trkpt lat="4.3162470" lon="-75.8480510">
        <ele>1439.8</ele>
        <time>2022-08-14T12:27:57Z</time>
      </trkpt>
      <trkpt lat="4.3162170" lon="-75.8480470">
        <ele>1440.4</ele>
        <time>2022-08-14T12:27:59Z</time>
      </trkpt>
      <trkpt lat="4.3161600" lon="-75.8480290">
        <ele>1441.4</ele>
        <time>2022-08-14T12:28:03Z</time>
      </trkpt>
      <trkpt lat="4.3161190" lon="-75.8480090">
        <ele>1442.0</ele>
        <time>2022-08-14T12:28:06Z</time>
      </trkpt>
      <trkpt lat="4.3160790" lon="-75.8479900">
        <ele>1442.6</ele>
        <time>2022-08-14T12:28:09Z</time>
      </trkpt>
      <trkpt lat="4.3160160" lon="-75.8479430">
        <ele>1443.8</ele>
        <time>2022-08-14T12:28:14Z</time>
      </trkpt>
      <trkpt lat="4.3159560" lon="-75.8479010">
        <ele>1444.8</ele>
        <time>2022-08-14T12:28:19Z</time>
      </trkpt>
      <trkpt lat="4.3158930" lon="-75.8478810">
        <ele>1445.8</ele>
        <time>2022-08-14T12:28:23Z</time>
      </trkpt>
      <trkpt lat="4.3158760" lon="-75.8478750">
        <ele>1446.0</ele>
        <time>2022-08-14T12:28:24Z</time>
      </trkpt>
      <trkpt lat="4.3157960" lon="-75.8478310">
        <ele>1447.0</ele>
        <time>2022-08-14T12:28:30Z</time>
      </trkpt>
      <trkpt lat="4.3157860" lon="-75.8478250">
        <ele>1447.2</ele>
        <time>2022-08-14T12:28:31Z</time>
      </trkpt>
      <trkpt lat="4.3157270" lon="-75.8478050">
        <ele>1448.2</ele>
        <time>2022-08-14T12:28:35Z</time>
      </trkpt>
      <trkpt lat="4.3156630" lon="-75.8477890">
        <ele>1449.0</ele>
        <time>2022-08-14T12:28:39Z</time>
      </trkpt>
      <trkpt lat="4.3156500" lon="-75.8477890">
        <ele>1449.2</ele>
        <time>2022-08-14T12:28:40Z</time>
      </trkpt>
      <trkpt lat="4.3156350" lon="-75.8477920">
        <ele>1449.4</ele>
        <time>2022-08-14T12:28:41Z</time>
      </trkpt>
      <trkpt lat="4.3155870" lon="-75.8478300">
        <ele>1450.2</ele>
        <time>2022-08-14T12:28:45Z</time>
      </trkpt>
      <trkpt lat="4.3155830" lon="-75.8478480">
        <ele>1450.4</ele>
        <time>2022-08-14T12:28:46Z</time>
      </trkpt>
      <trkpt lat="4.3155980" lon="-75.8479210">
        <ele>1451.4</ele>
        <time>2022-08-14T12:28:50Z</time>
      </trkpt>
      <trkpt lat="4.3156290" lon="-75.8480360">
        <ele>1452.2</ele>
        <time>2022-08-14T12:28:56Z</time>
      </trkpt>
      <trkpt lat="4.3156330" lon="-75.8480610">
        <ele>1452.4</ele>
        <time>2022-08-14T12:28:57Z</time>
      </trkpt>
      <trkpt lat="4.3156000" lon="-75.8482010">
        <ele>1453.4</ele>
        <time>2022-08-14T12:29:03Z</time>
      </trkpt>
      <trkpt lat="4.3155720" lon="-75.8482360">
        <ele>1453.6</ele>
        <time>2022-08-14T12:29:05Z</time>
      </trkpt>
      <trkpt lat="4.3154910" lon="-75.8483200">
        <ele>1454.6</ele>
        <time>2022-08-14T12:29:10Z</time>
      </trkpt>
      <trkpt lat="4.3154760" lon="-75.8483360">
        <ele>1454.8</ele>
        <time>2022-08-14T12:29:11Z</time>
      </trkpt>
      <trkpt lat="4.3153940" lon="-75.8484310">
        <ele>1455.8</ele>
        <time>2022-08-14T12:29:17Z</time>
      </trkpt>
      <trkpt lat="4.3153670" lon="-75.8484970">
        <ele>1456.4</ele>
        <time>2022-08-14T12:29:20Z</time>
      </trkpt>
      <trkpt lat="4.3153590" lon="-75.8485410">
        <ele>1457.0</ele>
        <time>2022-08-14T12:29:22Z</time>
      </trkpt>
      <trkpt lat="4.3153280" lon="-75.8486500">
        <ele>1457.8</ele>
        <time>2022-08-14T12:29:27Z</time>
      </trkpt>
      <trkpt lat="4.3153190" lon="-75.8486700">
        <ele>1458.0</ele>
        <time>2022-08-14T12:29:28Z</time>
      </trkpt>
      <trkpt lat="4.3152940" lon="-75.8487030">
        <ele>1458.4</ele>
        <time>2022-08-14T12:29:30Z</time>
      </trkpt>
      <trkpt lat="4.3152510" lon="-75.8487320">
        <ele>1459.0</ele>
        <time>2022-08-14T12:29:32Z</time>
      </trkpt>
      <trkpt lat="4.3152260" lon="-75.8487440">
        <ele>1459.2</ele>
        <time>2022-08-14T12:29:33Z</time>
      </trkpt>
      <trkpt lat="4.3151300" lon="-75.8487490">
        <ele>1460.2</ele>
        <time>2022-08-14T12:29:37Z</time>
      </trkpt>
      <trkpt lat="4.3150650" lon="-75.8487510">
        <ele>1460.6</ele>
        <time>2022-08-14T12:29:40Z</time>
      </trkpt>
      <trkpt lat="4.3149950" lon="-75.8487610">
        <ele>1461.4</ele>
        <time>2022-08-14T12:29:43Z</time>
      </trkpt>
      <trkpt lat="4.3148980" lon="-75.8487900">
        <ele>1462.4</ele>
        <time>2022-08-14T12:29:48Z</time>
      </trkpt>
      <trkpt lat="4.3148830" lon="-75.8488000">
        <ele>1462.6</ele>
        <time>2022-08-14T12:29:49Z</time>
      </trkpt>
      <trkpt lat="4.3148440" lon="-75.8488540">
        <ele>1463.4</ele>
        <time>2022-08-14T12:29:53Z</time>
      </trkpt>
      <trkpt lat="4.3148360" lon="-75.8488680">
        <ele>1463.6</ele>
        <time>2022-08-14T12:29:54Z</time>
      </trkpt>
      <trkpt lat="4.3148140" lon="-75.8489520">
        <ele>1464.6</ele>
        <time>2022-08-14T12:29:59Z</time>
      </trkpt>
      <trkpt lat="4.3148240" lon="-75.8489820">
        <ele>1464.6</ele>
        <time>2022-08-14T12:30:01Z</time>
      </trkpt>
      <trkpt lat="4.3148810" lon="-75.8490740">
        <ele>1465.8</ele>
        <time>2022-08-14T12:30:07Z</time>
      </trkpt>
      <trkpt lat="4.3148880" lon="-75.8490940">
        <ele>1466.0</ele>
        <time>2022-08-14T12:30:08Z</time>
      </trkpt>
      <trkpt lat="4.3149220" lon="-75.8491460">
        <ele>1467.0</ele>
        <time>2022-08-14T12:30:12Z</time>
      </trkpt>
      <trkpt lat="4.3149470" lon="-75.8492080">
        <ele>1467.8</ele>
        <time>2022-08-14T12:30:16Z</time>
      </trkpt>
      <trkpt lat="4.3149580" lon="-75.8492240">
        <ele>1468.2</ele>
        <time>2022-08-14T12:30:17Z</time>
      </trkpt>
      <trkpt lat="4.3149640" lon="-75.8493390">
        <ele>1469.0</ele>
        <time>2022-08-14T12:30:22Z</time>
      </trkpt>
      <trkpt lat="4.3149560" lon="-75.8493670">
        <ele>1469.2</ele>
        <time>2022-08-14T12:30:23Z</time>
      </trkpt>
      <trkpt lat="4.3148570" lon="-75.8495980">
        <ele>1469.8</ele>
        <time>2022-08-14T12:30:30Z</time>
      </trkpt>
      <trkpt lat="4.3148170" lon="-75.8496580">
        <ele>1470.0</ele>
        <time>2022-08-14T12:30:32Z</time>
      </trkpt>
      <trkpt lat="4.3147170" lon="-75.8497520">
        <ele>1470.2</ele>
        <time>2022-08-14T12:30:36Z</time>
      </trkpt>
      <trkpt lat="4.3145970" lon="-75.8498340">
        <ele>1470.6</ele>
        <time>2022-08-14T12:30:40Z</time>
      </trkpt>
      <trkpt lat="4.3145570" lon="-75.8499050">
        <ele>1470.6</ele>
        <time>2022-08-14T12:30:42Z</time>
      </trkpt>
      <trkpt lat="4.3145450" lon="-75.8500060">
        <ele>1470.8</ele>
        <time>2022-08-14T12:30:44Z</time>
      </trkpt>
      <trkpt lat="4.3145490" lon="-75.8500670">
        <ele>1470.8</ele>
        <time>2022-08-14T12:30:45Z</time>
      </trkpt>
      <trkpt lat="4.3145760" lon="-75.8503510">
        <ele>1470.8</ele>
        <time>2022-08-14T12:30:49Z</time>
      </trkpt>
      <trkpt lat="4.3145340" lon="-75.8504750">
        <ele>1470.8</ele>
        <time>2022-08-14T12:30:51Z</time>
      </trkpt>
      <trkpt lat="4.3144850" lon="-75.8505290">
        <ele>1470.4</ele>
        <time>2022-08-14T12:30:52Z</time>
      </trkpt>
      <trkpt lat="4.3144180" lon="-75.8505790">
        <ele>1470.0</ele>
        <time>2022-08-14T12:30:53Z</time>
      </trkpt>
      <trkpt lat="4.3142590" lon="-75.8506740">
        <ele>1468.4</ele>
        <time>2022-08-14T12:30:55Z</time>
      </trkpt>
      <trkpt lat="4.3141850" lon="-75.8507240">
        <ele>1467.4</ele>
        <time>2022-08-14T12:30:56Z</time>
      </trkpt>
      <trkpt lat="4.3141250" lon="-75.8507760">
        <ele>1466.6</ele>
        <time>2022-08-14T12:30:57Z</time>
      </trkpt>
      <trkpt lat="4.3140770" lon="-75.8508290">
        <ele>1466.0</ele>
        <time>2022-08-14T12:30:58Z</time>
      </trkpt>
      <trkpt lat="4.3140440" lon="-75.8508900">
        <ele>1465.2</ele>
        <time>2022-08-14T12:30:59Z</time>
      </trkpt>
      <trkpt lat="4.3140080" lon="-75.8510190">
        <ele>1463.2</ele>
        <time>2022-08-14T12:31:01Z</time>
      </trkpt>
      <trkpt lat="4.3139740" lon="-75.8511460">
        <ele>1461.6</ele>
        <time>2022-08-14T12:31:03Z</time>
      </trkpt>
      <trkpt lat="4.3139460" lon="-75.8512040">
        <ele>1461.2</ele>
        <time>2022-08-14T12:31:04Z</time>
      </trkpt>
      <trkpt lat="4.3139070" lon="-75.8512550">
        <ele>1460.8</ele>
        <time>2022-08-14T12:31:05Z</time>
      </trkpt>
      <trkpt lat="4.3138560" lon="-75.8512950">
        <ele>1460.6</ele>
        <time>2022-08-14T12:31:06Z</time>
      </trkpt>
      <trkpt lat="4.3137100" lon="-75.8513170">
        <ele>1460.6</ele>
        <time>2022-08-14T12:31:08Z</time>
      </trkpt>
      <trkpt lat="4.3136270" lon="-75.8513290">
        <ele>1460.4</ele>
        <time>2022-08-14T12:31:09Z</time>
      </trkpt>
      <trkpt lat="4.3134780" lon="-75.8514160">
        <ele>1460.4</ele>
        <time>2022-08-14T12:31:11Z</time>
      </trkpt>
      <trkpt lat="4.3134240" lon="-75.8514880">
        <ele>1460.6</ele>
        <time>2022-08-14T12:31:12Z</time>
      </trkpt>
      <trkpt lat="4.3133870" lon="-75.8515700">
        <ele>1460.2</ele>
        <time>2022-08-14T12:31:13Z</time>
      </trkpt>
      <trkpt lat="4.3133670" lon="-75.8516760">
        <ele>1460.2</ele>
        <time>2022-08-14T12:31:14Z</time>
      </trkpt>
      <trkpt lat="4.3133590" lon="-75.8518240">
        <ele>1459.0</ele>
        <time>2022-08-14T12:31:16Z</time>
      </trkpt>
      <trkpt lat="4.3133550" lon="-75.8519700">
        <ele>1457.4</ele>
        <time>2022-08-14T12:31:18Z</time>
      </trkpt>
      <trkpt lat="4.3133430" lon="-75.8520350">
        <ele>1457.0</ele>
        <time>2022-08-14T12:31:19Z</time>
      </trkpt>
      <trkpt lat="4.3132760" lon="-75.8521300">
        <ele>1456.8</ele>
        <time>2022-08-14T12:31:21Z</time>
      </trkpt>
      <trkpt lat="4.3131690" lon="-75.8521570">
        <ele>1456.8</ele>
        <time>2022-08-14T12:31:23Z</time>
      </trkpt>
      <trkpt lat="4.3131140" lon="-75.8521540">
        <ele>1456.8</ele>
        <time>2022-08-14T12:31:24Z</time>
      </trkpt>
      <trkpt lat="4.3130120" lon="-75.8521390">
        <ele>1456.8</ele>
        <time>2022-08-14T12:31:26Z</time>
      </trkpt>
      <trkpt lat="4.3129160" lon="-75.8521020">
        <ele>1457.0</ele>
        <time>2022-08-14T12:31:28Z</time>
      </trkpt>
      <trkpt lat="4.3128710" lon="-75.8520790">
        <ele>1457.0</ele>
        <time>2022-08-14T12:31:29Z</time>
      </trkpt>
      <trkpt lat="4.3127800" lon="-75.8520330">
        <ele>1457.8</ele>
        <time>2022-08-14T12:31:31Z</time>
      </trkpt>
      <trkpt lat="4.3126820" lon="-75.8520340">
        <ele>1458.6</ele>
        <time>2022-08-14T12:31:33Z</time>
      </trkpt>
      <trkpt lat="4.3126140" lon="-75.8520890">
        <ele>1458.8</ele>
        <time>2022-08-14T12:31:35Z</time>
      </trkpt>
      <trkpt lat="4.3125890" lon="-75.8521380">
        <ele>1458.8</ele>
        <time>2022-08-14T12:31:36Z</time>
      </trkpt>
      <trkpt lat="4.3124560" lon="-75.8523470">
        <ele>1459.2</ele>
        <time>2022-08-14T12:31:40Z</time>
      </trkpt>
      <trkpt lat="4.3124380" lon="-75.8524070">
        <ele>1459.2</ele>
        <time>2022-08-14T12:31:41Z</time>
      </trkpt>
      <trkpt lat="4.3124320" lon="-75.8524690">
        <ele>1459.2</ele>
        <time>2022-08-14T12:31:42Z</time>
      </trkpt>
      <trkpt lat="4.3124740" lon="-75.8525720">
        <ele>1459.2</ele>
        <time>2022-08-14T12:31:44Z</time>
      </trkpt>
      <trkpt lat="4.3125770" lon="-75.8526970">
        <ele>1459.2</ele>
        <time>2022-08-14T12:31:47Z</time>
      </trkpt>
      <trkpt lat="4.3126000" lon="-75.8527490">
        <ele>1459.2</ele>
        <time>2022-08-14T12:31:48Z</time>
      </trkpt>
      <trkpt lat="4.3126050" lon="-75.8527930">
        <ele>1459.2</ele>
        <time>2022-08-14T12:31:49Z</time>
      </trkpt>
      <trkpt lat="4.3125900" lon="-75.8528870">
        <ele>1459.4</ele>
        <time>2022-08-14T12:31:51Z</time>
      </trkpt>
      <trkpt lat="4.3125770" lon="-75.8529360">
        <ele>1459.4</ele>
        <time>2022-08-14T12:31:52Z</time>
      </trkpt>
      <trkpt lat="4.3124570" lon="-75.8533100">
        <ele>1460.2</ele>
        <time>2022-08-14T12:32:00Z</time>
      </trkpt>
      <trkpt lat="4.3124190" lon="-75.8533740">
        <ele>1460.4</ele>
        <time>2022-08-14T12:32:02Z</time>
      </trkpt>
      <trkpt lat="4.3123950" lon="-75.8534060">
        <ele>1460.2</ele>
        <time>2022-08-14T12:32:03Z</time>
      </trkpt>
      <trkpt lat="4.3123450" lon="-75.8534660">
        <ele>1460.4</ele>
        <time>2022-08-14T12:32:05Z</time>
      </trkpt>
      <trkpt lat="4.3122950" lon="-75.8535180">
        <ele>1460.8</ele>
        <time>2022-08-14T12:32:07Z</time>
      </trkpt>
      <trkpt lat="4.3122420" lon="-75.8535600">
        <ele>1461.4</ele>
        <time>2022-08-14T12:32:09Z</time>
      </trkpt>
      <trkpt lat="4.3121870" lon="-75.8535980">
        <ele>1461.8</ele>
        <time>2022-08-14T12:32:11Z</time>
      </trkpt>
      <trkpt lat="4.3121350" lon="-75.8536310">
        <ele>1462.4</ele>
        <time>2022-08-14T12:32:13Z</time>
      </trkpt>
      <trkpt lat="4.3120220" lon="-75.8536830">
        <ele>1463.6</ele>
        <time>2022-08-14T12:32:17Z</time>
      </trkpt>
      <trkpt lat="4.3118540" lon="-75.8537520">
        <ele>1464.8</ele>
        <time>2022-08-14T12:32:23Z</time>
      </trkpt>
      <trkpt lat="4.3118300" lon="-75.8537720">
        <ele>1465.0</ele>
        <time>2022-08-14T12:32:24Z</time>
      </trkpt>
      <trkpt lat="4.3117940" lon="-75.8538530">
        <ele>1465.8</ele>
        <time>2022-08-14T12:32:27Z</time>
      </trkpt>
      <trkpt lat="4.3117910" lon="-75.8538840">
        <ele>1466.0</ele>
        <time>2022-08-14T12:32:28Z</time>
      </trkpt>
      <trkpt lat="4.3117950" lon="-75.8540490">
        <ele>1467.0</ele>
        <time>2022-08-14T12:32:34Z</time>
      </trkpt>
      <trkpt lat="4.3117900" lon="-75.8541500">
        <ele>1467.8</ele>
        <time>2022-08-14T12:32:38Z</time>
      </trkpt>
      <trkpt lat="4.3117890" lon="-75.8541760">
        <ele>1468.2</ele>
        <time>2022-08-14T12:32:39Z</time>
      </trkpt>
      <trkpt lat="4.3117850" lon="-75.8543070">
        <ele>1469.0</ele>
        <time>2022-08-14T12:32:44Z</time>
      </trkpt>
      <trkpt lat="4.3117810" lon="-75.8543290">
        <ele>1469.0</ele>
        <time>2022-08-14T12:32:45Z</time>
      </trkpt>
      <trkpt lat="4.3117760" lon="-75.8543750">
        <ele>1469.4</ele>
        <time>2022-08-14T12:32:47Z</time>
      </trkpt>
      <trkpt lat="4.3117650" lon="-75.8544190">
        <ele>1470.0</ele>
        <time>2022-08-14T12:32:49Z</time>
      </trkpt>
      <trkpt lat="4.3117190" lon="-75.8545220">
        <ele>1476.2</ele>
        <time>2022-08-14T12:32:54Z</time>
      </trkpt>
      <trkpt lat="4.3117040" lon="-75.8545410">
        <ele>1471.2</ele>
        <time>2022-08-14T12:32:55Z</time>
      </trkpt>
      <trkpt lat="4.3116370" lon="-75.8546150">
        <ele>1472.2</ele>
        <time>2022-08-14T12:32:59Z</time>
      </trkpt>
      <trkpt lat="4.3115770" lon="-75.8546870">
        <ele>1473.0</ele>
        <time>2022-08-14T12:33:03Z</time>
      </trkpt>
      <trkpt lat="4.3115480" lon="-75.8547250">
        <ele>1473.0</ele>
        <time>2022-08-14T12:33:05Z</time>
      </trkpt>
      <trkpt lat="4.3114620" lon="-75.8548440">
        <ele>1474.2</ele>
        <time>2022-08-14T12:33:11Z</time>
      </trkpt>
      <trkpt lat="4.3114160" lon="-75.8549000">
        <ele>1474.6</ele>
        <time>2022-08-14T12:33:14Z</time>
      </trkpt>
      <trkpt lat="4.3113850" lon="-75.8549360">
        <ele>1475.2</ele>
        <time>2022-08-14T12:33:16Z</time>
      </trkpt>
      <trkpt lat="4.3112950" lon="-75.8550710">
        <ele>1476.4</ele>
        <time>2022-08-14T12:33:23Z</time>
      </trkpt>
      <trkpt lat="4.3112830" lon="-75.8550890">
        <ele>1476.6</ele>
        <time>2022-08-14T12:33:24Z</time>
      </trkpt>
      <trkpt lat="4.3112310" lon="-75.8551490">
        <ele>1477.4</ele>
        <time>2022-08-14T12:33:28Z</time>
      </trkpt>
      <trkpt lat="4.3111940" lon="-75.8551640">
        <ele>1478.0</ele>
        <time>2022-08-14T12:33:30Z</time>
      </trkpt>
      <trkpt lat="4.3111210" lon="-75.8551950">
        <ele>1478.6</ele>
        <time>2022-08-14T12:33:34Z</time>
      </trkpt>
      <trkpt lat="4.3110420" lon="-75.8552190">
        <ele>1479.6</ele>
        <time>2022-08-14T12:33:38Z</time>
      </trkpt>
      <trkpt lat="4.3110230" lon="-75.8552270">
        <ele>1479.8</ele>
        <time>2022-08-14T12:33:39Z</time>
      </trkpt>
      <trkpt lat="4.3109180" lon="-75.8552720">
        <ele>1480.8</ele>
        <time>2022-08-14T12:33:45Z</time>
      </trkpt>
      <trkpt lat="4.3108830" lon="-75.8552840">
        <ele>1481.2</ele>
        <time>2022-08-14T12:33:47Z</time>
      </trkpt>
      <trkpt lat="4.3108110" lon="-75.8553140">
        <ele>1481.8</ele>
        <time>2022-08-14T12:33:51Z</time>
      </trkpt>
      <trkpt lat="4.3107100" lon="-75.8553610">
        <ele>1483.2</ele>
        <time>2022-08-14T12:33:57Z</time>
      </trkpt>
      <trkpt lat="4.3106200" lon="-75.8554110">
        <ele>1484.2</ele>
        <time>2022-08-14T12:34:02Z</time>
      </trkpt>
      <trkpt lat="4.3105310" lon="-75.8554530">
        <ele>1485.4</ele>
        <time>2022-08-14T12:34:07Z</time>
      </trkpt>
      <trkpt lat="4.3105160" lon="-75.8554620">
        <ele>1485.6</ele>
        <time>2022-08-14T12:34:08Z</time>
      </trkpt>
      <trkpt lat="4.3104250" lon="-75.8555360">
        <ele>1486.4</ele>
        <time>2022-08-14T12:34:14Z</time>
      </trkpt>
      <trkpt lat="4.3103900" lon="-75.8555820">
        <ele>1486.8</ele>
        <time>2022-08-14T12:34:17Z</time>
      </trkpt>
      <trkpt lat="4.3103300" lon="-75.8556650">
        <ele>1487.6</ele>
        <time>2022-08-14T12:34:22Z</time>
      </trkpt>
      <trkpt lat="4.3103050" lon="-75.8556840">
        <ele>1488.0</ele>
        <time>2022-08-14T12:34:24Z</time>
      </trkpt>
      <trkpt lat="4.3102460" lon="-75.8557350">
        <ele>1488.6</ele>
        <time>2022-08-14T12:34:28Z</time>
      </trkpt>
      <trkpt lat="4.3101620" lon="-75.8557870">
        <ele>1490.0</ele>
        <time>2022-08-14T12:34:33Z</time>
      </trkpt>
      <trkpt lat="4.3100760" lon="-75.8558220">
        <ele>1491.0</ele>
        <time>2022-08-14T12:34:37Z</time>
      </trkpt>
      <trkpt lat="4.3099280" lon="-75.8558940">
        <ele>1491.8</ele>
        <time>2022-08-14T12:34:43Z</time>
      </trkpt>
      <trkpt lat="4.3099040" lon="-75.8559120">
        <ele>1492.0</ele>
        <time>2022-08-14T12:34:44Z</time>
      </trkpt>
      <trkpt lat="4.3097970" lon="-75.8560560">
        <ele>1492.4</ele>
        <time>2022-08-14T12:34:50Z</time>
      </trkpt>
      <trkpt lat="4.3096650" lon="-75.8562760">
        <ele>1492.8</ele>
        <time>2022-08-14T12:34:59Z</time>
      </trkpt>
      <trkpt lat="4.3095640" lon="-75.8564510">
        <ele>1493.8</ele>
        <time>2022-08-14T12:35:06Z</time>
      </trkpt>
      <trkpt lat="4.3095430" lon="-75.8564970">
        <ele>1494.0</ele>
        <time>2022-08-14T12:35:08Z</time>
      </trkpt>
      <trkpt lat="4.3095040" lon="-75.8566190">
        <ele>1494.8</ele>
        <time>2022-08-14T12:35:14Z</time>
      </trkpt>
      <trkpt lat="4.3095020" lon="-75.8566520">
        <ele>1495.2</ele>
        <time>2022-08-14T12:35:16Z</time>
      </trkpt>
      <trkpt lat="4.3095310" lon="-75.8567100">
        <ele>1496.0</ele>
        <time>2022-08-14T12:35:20Z</time>
      </trkpt>
      <trkpt lat="4.3095410" lon="-75.8567250">
        <ele>1496.4</ele>
        <time>2022-08-14T12:35:21Z</time>
      </trkpt>
      <trkpt lat="4.3095940" lon="-75.8567890">
        <ele>1497.6</ele>
        <time>2022-08-14T12:35:26Z</time>
      </trkpt>
      <trkpt lat="4.3096260" lon="-75.8568370">
        <ele>1498.0</ele>
        <time>2022-08-14T12:35:30Z</time>
      </trkpt>
      <trkpt lat="4.3096320" lon="-75.8568490">
        <ele>1498.4</ele>
        <time>2022-08-14T12:35:31Z</time>
      </trkpt>
      <trkpt lat="4.3096460" lon="-75.8569110">
        <ele>1499.6</ele>
        <time>2022-08-14T12:35:35Z</time>
      </trkpt>
      <trkpt lat="4.3096390" lon="-75.8569620">
        <ele>1500.2</ele>
        <time>2022-08-14T12:35:38Z</time>
      </trkpt>
      <trkpt lat="4.3096290" lon="-75.8569910">
        <ele>1500.8</ele>
        <time>2022-08-14T12:35:40Z</time>
      </trkpt>
      <trkpt lat="4.3095850" lon="-75.8570680">
        <ele>1501.8</ele>
        <time>2022-08-14T12:35:45Z</time>
      </trkpt>
      <trkpt lat="4.3095650" lon="-75.8570950">
        <ele>1502.2</ele>
        <time>2022-08-14T12:35:47Z</time>
      </trkpt>
      <trkpt lat="4.3095180" lon="-75.8571460">
        <ele>1502.8</ele>
        <time>2022-08-14T12:35:51Z</time>
      </trkpt>
      <trkpt lat="4.3094500" lon="-75.8572160">
        <ele>1504.0</ele>
        <time>2022-08-14T12:35:57Z</time>
      </trkpt>
      <trkpt lat="4.3094400" lon="-75.8572300">
        <ele>1504.2</ele>
        <time>2022-08-14T12:35:58Z</time>
      </trkpt>
      <trkpt lat="4.3093960" lon="-75.8572750">
        <ele>1505.0</ele>
        <time>2022-08-14T12:36:02Z</time>
      </trkpt>
      <trkpt lat="4.3093220" lon="-75.8573470">
        <ele>1506.0</ele>
        <time>2022-08-14T12:36:08Z</time>
      </trkpt>
      <trkpt lat="4.3092480" lon="-75.8574160">
        <ele>1507.2</ele>
        <time>2022-08-14T12:36:14Z</time>
      </trkpt>
      <trkpt lat="4.3092070" lon="-75.8574440">
        <ele>1507.6</ele>
        <time>2022-08-14T12:36:17Z</time>
      </trkpt>
      <trkpt lat="4.3091600" lon="-75.8574630">
        <ele>1508.2</ele>
        <time>2022-08-14T12:36:20Z</time>
      </trkpt>
      <trkpt lat="4.3090780" lon="-75.8574830">
        <ele>1509.2</ele>
        <time>2022-08-14T12:36:25Z</time>
      </trkpt>
      <trkpt lat="4.3090610" lon="-75.8574860">
        <ele>1509.4</ele>
        <time>2022-08-14T12:36:26Z</time>
      </trkpt>
      <trkpt lat="4.3089600" lon="-75.8575040">
        <ele>1510.4</ele>
        <time>2022-08-14T12:36:32Z</time>
      </trkpt>
      <trkpt lat="4.3089290" lon="-75.8575090">
        <ele>1510.8</ele>
        <time>2022-08-14T12:36:34Z</time>
      </trkpt>
      <trkpt lat="4.3088790" lon="-75.8575140">
        <ele>1511.4</ele>
        <time>2022-08-14T12:36:37Z</time>
      </trkpt>
      <trkpt lat="4.3087770" lon="-75.8575380">
        <ele>1512.6</ele>
        <time>2022-08-14T12:36:43Z</time>
      </trkpt>
      <trkpt lat="4.3087610" lon="-75.8575420">
        <ele>1512.8</ele>
        <time>2022-08-14T12:36:44Z</time>
      </trkpt>
      <trkpt lat="4.3086980" lon="-75.8575680">
        <ele>1513.8</ele>
        <time>2022-08-14T12:36:48Z</time>
      </trkpt>
      <trkpt lat="4.3086550" lon="-75.8575960">
        <ele>1514.4</ele>
        <time>2022-08-14T12:36:51Z</time>
      </trkpt>
      <trkpt lat="4.3086140" lon="-75.8576240">
        <ele>1514.8</ele>
        <time>2022-08-14T12:36:54Z</time>
      </trkpt>
      <trkpt lat="4.3085130" lon="-75.8576780">
        <ele>1516.0</ele>
        <time>2022-08-14T12:37:01Z</time>
      </trkpt>
      <trkpt lat="4.3084990" lon="-75.8576860">
        <ele>1516.2</ele>
        <time>2022-08-14T12:37:02Z</time>
      </trkpt>
      <trkpt lat="4.3084450" lon="-75.8577200">
        <ele>1517.0</ele>
        <time>2022-08-14T12:37:06Z</time>
      </trkpt>
      <trkpt lat="4.3084050" lon="-75.8577450">
        <ele>1517.6</ele>
        <time>2022-08-14T12:37:09Z</time>
      </trkpt>
      <trkpt lat="4.3083790" lon="-75.8577700">
        <ele>1518.0</ele>
        <time>2022-08-14T12:37:11Z</time>
      </trkpt>
      <trkpt lat="4.3083150" lon="-75.8578320">
        <ele>1519.0</ele>
        <time>2022-08-14T12:37:16Z</time>
      </trkpt>
      <trkpt lat="4.3082720" lon="-75.8578870">
        <ele>1519.6</ele>
        <time>2022-08-14T12:37:20Z</time>
      </trkpt>
      <trkpt lat="4.3082590" lon="-75.8579160">
        <ele>1520.0</ele>
        <time>2022-08-14T12:37:22Z</time>
      </trkpt>
      <trkpt lat="4.3082490" lon="-75.8580180">
        <ele>1521.0</ele>
        <time>2022-08-14T12:37:28Z</time>
      </trkpt>
      <trkpt lat="4.3082470" lon="-75.8580340">
        <ele>1521.2</ele>
        <time>2022-08-14T12:37:29Z</time>
      </trkpt>
      <trkpt lat="4.3082360" lon="-75.8581270">
        <ele>1522.0</ele>
        <time>2022-08-14T12:37:35Z</time>
      </trkpt>
      <trkpt lat="4.3082250" lon="-75.8581760">
        <ele>1522.4</ele>
        <time>2022-08-14T12:37:38Z</time>
      </trkpt>
      <trkpt lat="4.3082070" lon="-75.8582250">
        <ele>1523.0</ele>
        <time>2022-08-14T12:37:41Z</time>
      </trkpt>
      <trkpt lat="4.3081780" lon="-75.8583210">
        <ele>1524.2</ele>
        <time>2022-08-14T12:37:47Z</time>
      </trkpt>
      <trkpt lat="4.3081650" lon="-75.8583520">
        <ele>1524.4</ele>
        <time>2022-08-14T12:37:49Z</time>
      </trkpt>
      <trkpt lat="4.3081210" lon="-75.8584260">
        <ele>1525.4</ele>
        <time>2022-08-14T12:37:54Z</time>
      </trkpt>
      <trkpt lat="4.3080710" lon="-75.8585150">
        <ele>1526.4</ele>
        <time>2022-08-14T12:38:00Z</time>
      </trkpt>
      <trkpt lat="4.3080620" lon="-75.8585300">
        <ele>1526.6</ele>
        <time>2022-08-14T12:38:01Z</time>
      </trkpt>
      <trkpt lat="4.3080250" lon="-75.8585910">
        <ele>1527.4</ele>
        <time>2022-08-14T12:38:05Z</time>
      </trkpt>
      <trkpt lat="4.3079760" lon="-75.8586650">
        <ele>1528.6</ele>
        <time>2022-08-14T12:38:10Z</time>
      </trkpt>
      <trkpt lat="4.3079580" lon="-75.8586950">
        <ele>1528.8</ele>
        <time>2022-08-14T12:38:12Z</time>
      </trkpt>
      <trkpt lat="4.3079150" lon="-75.8587690">
        <ele>1529.6</ele>
        <time>2022-08-14T12:38:17Z</time>
      </trkpt>
      <trkpt lat="4.3078810" lon="-75.8588290">
        <ele>1530.4</ele>
        <time>2022-08-14T12:38:21Z</time>
      </trkpt>
      <trkpt lat="4.3078610" lon="-75.8588820">
        <ele>1530.8</ele>
        <time>2022-08-14T12:38:24Z</time>
      </trkpt>
      <trkpt lat="4.3078330" lon="-75.8590020">
        <ele>1531.8</ele>
        <time>2022-08-14T12:38:31Z</time>
      </trkpt>
      <trkpt lat="4.3078230" lon="-75.8590380">
        <ele>1532.0</ele>
        <time>2022-08-14T12:38:33Z</time>
      </trkpt>
      <trkpt lat="4.3078040" lon="-75.8591380">
        <ele>1532.8</ele>
        <time>2022-08-14T12:38:39Z</time>
      </trkpt>
      <trkpt lat="4.3077940" lon="-75.8591730">
        <ele>1533.0</ele>
        <time>2022-08-14T12:38:41Z</time>
      </trkpt>
      <trkpt lat="4.3077710" lon="-75.8592600">
        <ele>1534.0</ele>
        <time>2022-08-14T12:38:46Z</time>
      </trkpt>
      <trkpt lat="4.3077560" lon="-75.8593250">
        <ele>1534.6</ele>
        <time>2022-08-14T12:38:50Z</time>
      </trkpt>
      <trkpt lat="4.3077430" lon="-75.8593760">
        <ele>1535.2</ele>
        <time>2022-08-14T12:38:53Z</time>
      </trkpt>
      <trkpt lat="4.3076960" lon="-75.8594660">
        <ele>1536.2</ele>
        <time>2022-08-14T12:38:59Z</time>
      </trkpt>
      <trkpt lat="4.3076840" lon="-75.8594800">
        <ele>1536.2</ele>
        <time>2022-08-14T12:39:00Z</time>
      </trkpt>
      <trkpt lat="4.3076630" lon="-75.8595050">
        <ele>1536.6</ele>
        <time>2022-08-14T12:39:02Z</time>
      </trkpt>
      <trkpt lat="4.3076270" lon="-75.8595400">
        <ele>1537.2</ele>
        <time>2022-08-14T12:39:05Z</time>
      </trkpt>
      <trkpt lat="4.3076140" lon="-75.8595530">
        <ele>1537.4</ele>
        <time>2022-08-14T12:39:06Z</time>
      </trkpt>
      <trkpt lat="4.3075270" lon="-75.8596190">
        <ele>1538.2</ele>
        <time>2022-08-14T12:39:12Z</time>
      </trkpt>
      <trkpt lat="4.3074820" lon="-75.8596450">
        <ele>1538.6</ele>
        <time>2022-08-14T12:39:15Z</time>
      </trkpt>
      <trkpt lat="4.3074100" lon="-75.8596820">
        <ele>1539.4</ele>
        <time>2022-08-14T12:39:19Z</time>
      </trkpt>
      <trkpt lat="4.3073440" lon="-75.8596980">
        <ele>1539.8</ele>
        <time>2022-08-14T12:39:22Z</time>
      </trkpt>
      <trkpt lat="4.3072310" lon="-75.8597250">
        <ele>1540.4</ele>
        <time>2022-08-14T12:39:27Z</time>
      </trkpt>
      <trkpt lat="4.3071560" lon="-75.8597300">
        <ele>1540.8</ele>
        <time>2022-08-14T12:39:30Z</time>
      </trkpt>
      <trkpt lat="4.3070330" lon="-75.8597090">
        <ele>1541.2</ele>
        <time>2022-08-14T12:39:35Z</time>
      </trkpt>
      <trkpt lat="4.3070080" lon="-75.8596970">
        <ele>1541.4</ele>
        <time>2022-08-14T12:39:36Z</time>
      </trkpt>
      <trkpt lat="4.3069600" lon="-75.8596670">
        <ele>1541.8</ele>
        <time>2022-08-14T12:39:38Z</time>
      </trkpt>
      <trkpt lat="4.3068990" lon="-75.8595800">
        <ele>1542.2</ele>
        <time>2022-08-14T12:39:42Z</time>
      </trkpt>
      <trkpt lat="4.3069060" lon="-75.8594740">
        <ele>1542.2</ele>
        <time>2022-08-14T12:39:46Z</time>
      </trkpt>
      <trkpt lat="4.3069170" lon="-75.8593990">
        <ele>1542.6</ele>
        <time>2022-08-14T12:39:50Z</time>
      </trkpt>
      <trkpt lat="4.3069190" lon="-75.8593810">
        <ele>1542.8</ele>
        <time>2022-08-14T12:39:51Z</time>
      </trkpt>
      <trkpt lat="4.3069360" lon="-75.8593080">
        <ele>1543.6</ele>
        <time>2022-08-14T12:39:55Z</time>
      </trkpt>
      <trkpt lat="4.3069470" lon="-75.8592370">
        <ele>1544.2</ele>
        <time>2022-08-14T12:39:59Z</time>
      </trkpt>
      <trkpt lat="4.3069530" lon="-75.8591900">
        <ele>1544.8</ele>
        <time>2022-08-14T12:40:02Z</time>
      </trkpt>
      <trkpt lat="4.3069710" lon="-75.8591190">
        <ele>1545.4</ele>
        <time>2022-08-14T12:40:07Z</time>
      </trkpt>
      <trkpt lat="4.3069750" lon="-75.8591040">
        <ele>1545.8</ele>
        <time>2022-08-14T12:40:08Z</time>
      </trkpt>
      <trkpt lat="4.3069830" lon="-75.8590910">
        <ele>1546.0</ele>
        <time>2022-08-14T12:40:09Z</time>
      </trkpt>
      <trkpt lat="4.3070080" lon="-75.8590490">
        <ele>1546.8</ele>
        <time>2022-08-14T12:40:12Z</time>
      </trkpt>
      <trkpt lat="4.3070390" lon="-75.8589820">
        <ele>1547.8</ele>
        <time>2022-08-14T12:40:17Z</time>
      </trkpt>
      <trkpt lat="4.3070630" lon="-75.8589380">
        <ele>1548.4</ele>
        <time>2022-08-14T12:40:20Z</time>
      </trkpt>
      <trkpt lat="4.3071000" lon="-75.8588720">
        <ele>1549.0</ele>
        <time>2022-08-14T12:40:24Z</time>
      </trkpt>
      <trkpt lat="4.3071530" lon="-75.8588010">
        <ele>1549.4</ele>
        <time>2022-08-14T12:40:29Z</time>
      </trkpt>
      <trkpt lat="4.3072180" lon="-75.8587060">
        <ele>1550.2</ele>
        <time>2022-08-14T12:40:37Z</time>
      </trkpt>
      <trkpt lat="4.3072810" lon="-75.8586140">
        <ele>1551.0</ele>
        <time>2022-08-14T12:40:45Z</time>
      </trkpt>
      <trkpt lat="4.3073130" lon="-75.8585410">
        <ele>1551.8</ele>
        <time>2022-08-14T12:40:51Z</time>
      </trkpt>
      <trkpt lat="4.3073210" lon="-75.8585340">
        <ele>1551.8</ele>
        <time>2022-08-14T12:40:52Z</time>
      </trkpt>
      <trkpt lat="4.3073260" lon="-75.8585520">
        <ele>1552.0</ele>
        <time>2022-08-14T12:40:55Z</time>
      </trkpt>
      <trkpt lat="4.3073200" lon="-75.8585670">
        <ele>1552.2</ele>
        <time>2022-08-14T12:40:56Z</time>
      </trkpt>
      <trkpt lat="4.3072430" lon="-75.8586960">
        <ele>1552.2</ele>
        <time>2022-08-14T12:41:01Z</time>
      </trkpt>
      <trkpt lat="4.3071100" lon="-75.8588720">
        <ele>1552.2</ele>
        <time>2022-08-14T12:41:06Z</time>
      </trkpt>
      <trkpt lat="4.3070830" lon="-75.8589130">
        <ele>1552.0</ele>
        <time>2022-08-14T12:41:07Z</time>
      </trkpt>
      <trkpt lat="4.3070140" lon="-75.8590380">
        <ele>1551.0</ele>
        <time>2022-08-14T12:41:10Z</time>
      </trkpt>
      <trkpt lat="4.3069890" lon="-75.8590890">
        <ele>1550.8</ele>
        <time>2022-08-14T12:41:11Z</time>
      </trkpt>
      <trkpt lat="4.3069730" lon="-75.8591360">
        <ele>1550.4</ele>
        <time>2022-08-14T12:41:12Z</time>
      </trkpt>
      <trkpt lat="4.3069610" lon="-75.8591880">
        <ele>1550.2</ele>
        <time>2022-08-14T12:41:13Z</time>
      </trkpt>
      <trkpt lat="4.3069530" lon="-75.8592290">
        <ele>1549.8</ele>
        <time>2022-08-14T12:41:14Z</time>
      </trkpt>
      <trkpt lat="4.3069170" lon="-75.8594520">
        <ele>1548.4</ele>
        <time>2022-08-14T12:41:19Z</time>
      </trkpt>
      <trkpt lat="4.3069110" lon="-75.8594900">
        <ele>1548.0</ele>
        <time>2022-08-14T12:41:20Z</time>
      </trkpt>
      <trkpt lat="4.3068970" lon="-75.8595230">
        <ele>1546.8</ele>
        <time>2022-08-14T12:41:22Z</time>
      </trkpt>
      <trkpt lat="4.3068830" lon="-75.8595290">
        <ele>1546.0</ele>
        <time>2022-08-14T12:41:23Z</time>
      </trkpt>
      <trkpt lat="4.3068650" lon="-75.8595240">
        <ele>1545.6</ele>
        <time>2022-08-14T12:41:24Z</time>
      </trkpt>
      <trkpt lat="4.3068410" lon="-75.8594720">
        <ele>1544.4</ele>
        <time>2022-08-14T12:41:26Z</time>
      </trkpt>
      <trkpt lat="4.3068220" lon="-75.8593190">
        <ele>1543.2</ele>
        <time>2022-08-14T12:41:30Z</time>
      </trkpt>
      <trkpt lat="4.3068070" lon="-75.8592760">
        <ele>1542.8</ele>
        <time>2022-08-14T12:41:31Z</time>
      </trkpt>
      <trkpt lat="4.3067840" lon="-75.8592350">
        <ele>1542.6</ele>
        <time>2022-08-14T12:41:32Z</time>
      </trkpt>
      <trkpt lat="4.3067230" lon="-75.8591560">
        <ele>1542.2</ele>
        <time>2022-08-14T12:41:34Z</time>
      </trkpt>
      <trkpt lat="4.3066790" lon="-75.8591260">
        <ele>1541.8</ele>
        <time>2022-08-14T12:41:35Z</time>
      </trkpt>
      <trkpt lat="4.3066260" lon="-75.8591150">
        <ele>1541.4</ele>
        <time>2022-08-14T12:41:36Z</time>
      </trkpt>
      <trkpt lat="4.3065140" lon="-75.8591360">
        <ele>1541.0</ele>
        <time>2022-08-14T12:41:38Z</time>
      </trkpt>
      <trkpt lat="4.3064040" lon="-75.8591750">
        <ele>1540.6</ele>
        <time>2022-08-14T12:41:40Z</time>
      </trkpt>
      <trkpt lat="4.3063470" lon="-75.8591920">
        <ele>1540.4</ele>
        <time>2022-08-14T12:41:41Z</time>
      </trkpt>
      <trkpt lat="4.3062310" lon="-75.8592130">
        <ele>1540.0</ele>
        <time>2022-08-14T12:41:43Z</time>
      </trkpt>
      <trkpt lat="4.3061720" lon="-75.8592120">
        <ele>1540.0</ele>
        <time>2022-08-14T12:41:44Z</time>
      </trkpt>
      <trkpt lat="4.3061160" lon="-75.8592030">
        <ele>1539.8</ele>
        <time>2022-08-14T12:41:45Z</time>
      </trkpt>
      <trkpt lat="4.3059020" lon="-75.8591520">
        <ele>1539.6</ele>
        <time>2022-08-14T12:41:49Z</time>
      </trkpt>
      <trkpt lat="4.3058520" lon="-75.8591460">
        <ele>1539.6</ele>
        <time>2022-08-14T12:41:50Z</time>
      </trkpt>
      <trkpt lat="4.3057570" lon="-75.8591300">
        <ele>1539.6</ele>
        <time>2022-08-14T12:41:52Z</time>
      </trkpt>
      <trkpt lat="4.3056530" lon="-75.8591020">
        <ele>1539.4</ele>
        <time>2022-08-14T12:41:54Z</time>
      </trkpt>
      <trkpt lat="4.3056000" lon="-75.8590840">
        <ele>1539.4</ele>
        <time>2022-08-14T12:41:55Z</time>
      </trkpt>
      <trkpt lat="4.3054660" lon="-75.8589920">
        <ele>1539.2</ele>
        <time>2022-08-14T12:41:58Z</time>
      </trkpt>
      <trkpt lat="4.3052840" lon="-75.8588060">
        <ele>1538.2</ele>
        <time>2022-08-14T12:42:03Z</time>
      </trkpt>
      <trkpt lat="4.3052110" lon="-75.8587320">
        <ele>1537.6</ele>
        <time>2022-08-14T12:42:05Z</time>
      </trkpt>
      <trkpt lat="4.3051230" lon="-75.8586510">
        <ele>1537.2</ele>
        <time>2022-08-14T12:42:07Z</time>
      </trkpt>
      <trkpt lat="4.3050760" lon="-75.8586160">
        <ele>1536.6</ele>
        <time>2022-08-14T12:42:08Z</time>
      </trkpt>
      <trkpt lat="4.3050240" lon="-75.8585910">
        <ele>1536.0</ele>
        <time>2022-08-14T12:42:09Z</time>
      </trkpt>
      <trkpt lat="4.3049680" lon="-75.8585690">
        <ele>1535.4</ele>
        <time>2022-08-14T12:42:10Z</time>
      </trkpt>
      <trkpt lat="4.3049140" lon="-75.8585530">
        <ele>1534.6</ele>
        <time>2022-08-14T12:42:11Z</time>
      </trkpt>
      <trkpt lat="4.3048160" lon="-75.8585150">
        <ele>1534.0</ele>
        <time>2022-08-14T12:42:13Z</time>
      </trkpt>
      <trkpt lat="4.3047790" lon="-75.8584870">
        <ele>1533.6</ele>
        <time>2022-08-14T12:42:14Z</time>
      </trkpt>
      <trkpt lat="4.3047470" lon="-75.8584510">
        <ele>1532.8</ele>
        <time>2022-08-14T12:42:15Z</time>
      </trkpt>
      <trkpt lat="4.3046920" lon="-75.8583510">
        <ele>1531.6</ele>
        <time>2022-08-14T12:42:17Z</time>
      </trkpt>
      <trkpt lat="4.3046690" lon="-75.8582890">
        <ele>1531.2</ele>
        <time>2022-08-14T12:42:18Z</time>
      </trkpt>
      <trkpt lat="4.3046460" lon="-75.8582240">
        <ele>1530.2</ele>
        <time>2022-08-14T12:42:19Z</time>
      </trkpt>
      <trkpt lat="4.3045840" lon="-75.8580990">
        <ele>1529.6</ele>
        <time>2022-08-14T12:42:21Z</time>
      </trkpt>
      <trkpt lat="4.3044830" lon="-75.8579960">
        <ele>1528.4</ele>
        <time>2022-08-14T12:42:23Z</time>
      </trkpt>
      <trkpt lat="4.3042930" lon="-75.8578830">
        <ele>1527.0</ele>
        <time>2022-08-14T12:42:26Z</time>
      </trkpt>
      <trkpt lat="4.3042260" lon="-75.8578540">
        <ele>1525.8</ele>
        <time>2022-08-14T12:42:27Z</time>
      </trkpt>
      <trkpt lat="4.3041590" lon="-75.8578320">
        <ele>1524.8</ele>
        <time>2022-08-14T12:42:28Z</time>
      </trkpt>
      <trkpt lat="4.3040930" lon="-75.8578170">
        <ele>1524.0</ele>
        <time>2022-08-14T12:42:29Z</time>
      </trkpt>
      <trkpt lat="4.3040290" lon="-75.8578090">
        <ele>1523.6</ele>
        <time>2022-08-14T12:42:30Z</time>
      </trkpt>
      <trkpt lat="4.3039660" lon="-75.8578120">
        <ele>1522.8</ele>
        <time>2022-08-14T12:42:31Z</time>
      </trkpt>
      <trkpt lat="4.3039060" lon="-75.8578250">
        <ele>1522.8</ele>
        <time>2022-08-14T12:42:32Z</time>
      </trkpt>
      <trkpt lat="4.3038070" lon="-75.8578670">
        <ele>1522.2</ele>
        <time>2022-08-14T12:42:34Z</time>
      </trkpt>
      <trkpt lat="4.3037720" lon="-75.8579030">
        <ele>1522.2</ele>
        <time>2022-08-14T12:42:35Z</time>
      </trkpt>
      <trkpt lat="4.3037410" lon="-75.8579580">
        <ele>1522.2</ele>
        <time>2022-08-14T12:42:36Z</time>
      </trkpt>
      <trkpt lat="4.3036670" lon="-75.8580720">
        <ele>1522.2</ele>
        <time>2022-08-14T12:42:39Z</time>
      </trkpt>
      <trkpt lat="4.3036120" lon="-75.8581510">
        <ele>1522.2</ele>
        <time>2022-08-14T12:42:41Z</time>
      </trkpt>
      <trkpt lat="4.3035580" lon="-75.8582350">
        <ele>1522.2</ele>
        <time>2022-08-14T12:42:43Z</time>
      </trkpt>
      <trkpt lat="4.3033430" lon="-75.8585030">
        <ele>1522.6</ele>
        <time>2022-08-14T12:42:51Z</time>
      </trkpt>
      <trkpt lat="4.3032130" lon="-75.8586480">
        <ele>1523.0</ele>
        <time>2022-08-14T12:42:55Z</time>
      </trkpt>
      <trkpt lat="4.3031690" lon="-75.8586740">
        <ele>1523.0</ele>
        <time>2022-08-14T12:42:56Z</time>
      </trkpt>
      <trkpt lat="4.3031190" lon="-75.8586890">
        <ele>1523.0</ele>
        <time>2022-08-14T12:42:57Z</time>
      </trkpt>
      <trkpt lat="4.3030130" lon="-75.8586750">
        <ele>1523.0</ele>
        <time>2022-08-14T12:42:59Z</time>
      </trkpt>
      <trkpt lat="4.3029150" lon="-75.8586230">
        <ele>1523.0</ele>
        <time>2022-08-14T12:43:01Z</time>
      </trkpt>
      <trkpt lat="4.3028460" lon="-75.8585340">
        <ele>1523.0</ele>
        <time>2022-08-14T12:43:03Z</time>
      </trkpt>
      <trkpt lat="4.3027880" lon="-75.8583200">
        <ele>1522.4</ele>
        <time>2022-08-14T12:43:06Z</time>
      </trkpt>
      <trkpt lat="4.3027200" lon="-75.8581840">
        <ele>1521.4</ele>
        <time>2022-08-14T12:43:08Z</time>
      </trkpt>
      <trkpt lat="4.3026650" lon="-75.8581330">
        <ele>1521.0</ele>
        <time>2022-08-14T12:43:09Z</time>
      </trkpt>
      <trkpt lat="4.3026040" lon="-75.8581000">
        <ele>1520.6</ele>
        <time>2022-08-14T12:43:10Z</time>
      </trkpt>
      <trkpt lat="4.3025410" lon="-75.8580850">
        <ele>1519.8</ele>
        <time>2022-08-14T12:43:11Z</time>
      </trkpt>
      <trkpt lat="4.3024870" lon="-75.8580870">
        <ele>1519.8</ele>
        <time>2022-08-14T12:43:12Z</time>
      </trkpt>
      <trkpt lat="4.3024410" lon="-75.8581010">
        <ele>1518.8</ele>
        <time>2022-08-14T12:43:13Z</time>
      </trkpt>
      <trkpt lat="4.3023980" lon="-75.8581260">
        <ele>1517.2</ele>
        <time>2022-08-14T12:43:14Z</time>
      </trkpt>
      <trkpt lat="4.3023600" lon="-75.8581610">
        <ele>1515.8</ele>
        <time>2022-08-14T12:43:15Z</time>
      </trkpt>
      <trkpt lat="4.3023290" lon="-75.8582080">
        <ele>1515.0</ele>
        <time>2022-08-14T12:43:16Z</time>
      </trkpt>
      <trkpt lat="4.3023030" lon="-75.8582590">
        <ele>1514.0</ele>
        <time>2022-08-14T12:43:17Z</time>
      </trkpt>
      <trkpt lat="4.3022600" lon="-75.8583710">
        <ele>1513.2</ele>
        <time>2022-08-14T12:43:19Z</time>
      </trkpt>
      <trkpt lat="4.3022350" lon="-75.8584260">
        <ele>1512.8</ele>
        <time>2022-08-14T12:43:20Z</time>
      </trkpt>
      <trkpt lat="4.3021560" lon="-75.8585900">
        <ele>1512.2</ele>
        <time>2022-08-14T12:43:23Z</time>
      </trkpt>
      <trkpt lat="4.3021360" lon="-75.8586480">
        <ele>1512.0</ele>
        <time>2022-08-14T12:43:24Z</time>
      </trkpt>
      <trkpt lat="4.3021110" lon="-75.8587050">
        <ele>1511.0</ele>
        <time>2022-08-14T12:43:25Z</time>
      </trkpt>
      <trkpt lat="4.3020480" lon="-75.8588230">
        <ele>1510.4</ele>
        <time>2022-08-14T12:43:27Z</time>
      </trkpt>
      <trkpt lat="4.3020070" lon="-75.8588740">
        <ele>1510.0</ele>
        <time>2022-08-14T12:43:28Z</time>
      </trkpt>
      <trkpt lat="4.3019660" lon="-75.8589170">
        <ele>1509.8</ele>
        <time>2022-08-14T12:43:29Z</time>
      </trkpt>
      <trkpt lat="4.3018910" lon="-75.8589920">
        <ele>1508.8</ele>
        <time>2022-08-14T12:43:31Z</time>
      </trkpt>
      <trkpt lat="4.3018510" lon="-75.8590240">
        <ele>1508.6</ele>
        <time>2022-08-14T12:43:32Z</time>
      </trkpt>
      <trkpt lat="4.3017570" lon="-75.8590850">
        <ele>1508.2</ele>
        <time>2022-08-14T12:43:34Z</time>
      </trkpt>
      <trkpt lat="4.3017090" lon="-75.8591200">
        <ele>1508.2</ele>
        <time>2022-08-14T12:43:35Z</time>
      </trkpt>
      <trkpt lat="4.3016210" lon="-75.8592010">
        <ele>1507.8</ele>
        <time>2022-08-14T12:43:37Z</time>
      </trkpt>
      <trkpt lat="4.3015820" lon="-75.8592480">
        <ele>1507.4</ele>
        <time>2022-08-14T12:43:38Z</time>
      </trkpt>
      <trkpt lat="4.3015460" lon="-75.8592990">
        <ele>1507.0</ele>
        <time>2022-08-14T12:43:39Z</time>
      </trkpt>
      <trkpt lat="4.3014850" lon="-75.8594100">
        <ele>1506.4</ele>
        <time>2022-08-14T12:43:41Z</time>
      </trkpt>
      <trkpt lat="4.3014570" lon="-75.8594620">
        <ele>1505.8</ele>
        <time>2022-08-14T12:43:42Z</time>
      </trkpt>
      <trkpt lat="4.3014050" lon="-75.8595460">
        <ele>1505.2</ele>
        <time>2022-08-14T12:43:44Z</time>
      </trkpt>
      <trkpt lat="4.3013380" lon="-75.8596150">
        <ele>1504.2</ele>
        <time>2022-08-14T12:43:46Z</time>
      </trkpt>
      <trkpt lat="4.3012600" lon="-75.8596890">
        <ele>1502.6</ele>
        <time>2022-08-14T12:43:48Z</time>
      </trkpt>
      <trkpt lat="4.3011720" lon="-75.8597560">
        <ele>1501.4</ele>
        <time>2022-08-14T12:43:50Z</time>
      </trkpt>
      <trkpt lat="4.3010740" lon="-75.8598090">
        <ele>1500.4</ele>
        <time>2022-08-14T12:43:52Z</time>
      </trkpt>
      <trkpt lat="4.3010260" lon="-75.8598320">
        <ele>1499.8</ele>
        <time>2022-08-14T12:43:53Z</time>
      </trkpt>
      <trkpt lat="4.3009850" lon="-75.8598590">
        <ele>1499.2</ele>
        <time>2022-08-14T12:43:54Z</time>
      </trkpt>
      <trkpt lat="4.3009580" lon="-75.8598910">
        <ele>1498.6</ele>
        <time>2022-08-14T12:43:55Z</time>
      </trkpt>
      <trkpt lat="4.3009420" lon="-75.8599280">
        <ele>1497.6</ele>
        <time>2022-08-14T12:43:56Z</time>
      </trkpt>
      <trkpt lat="4.3009370" lon="-75.8599690">
        <ele>1496.6</ele>
        <time>2022-08-14T12:43:57Z</time>
      </trkpt>
      <trkpt lat="4.3009520" lon="-75.8600400">
        <ele>1496.2</ele>
        <time>2022-08-14T12:43:59Z</time>
      </trkpt>
      <trkpt lat="4.3010100" lon="-75.8601140">
        <ele>1495.2</ele>
        <time>2022-08-14T12:44:01Z</time>
      </trkpt>
      <trkpt lat="4.3010870" lon="-75.8601990">
        <ele>1494.4</ele>
        <time>2022-08-14T12:44:03Z</time>
      </trkpt>
      <trkpt lat="4.3011200" lon="-75.8602530">
        <ele>1494.0</ele>
        <time>2022-08-14T12:44:04Z</time>
      </trkpt>
      <trkpt lat="4.3011450" lon="-75.8603100">
        <ele>1493.8</ele>
        <time>2022-08-14T12:44:05Z</time>
      </trkpt>
      <trkpt lat="4.3011810" lon="-75.8604280">
        <ele>1493.2</ele>
        <time>2022-08-14T12:44:07Z</time>
      </trkpt>
      <trkpt lat="4.3011930" lon="-75.8604760">
        <ele>1492.8</ele>
        <time>2022-08-14T12:44:08Z</time>
      </trkpt>
      <trkpt lat="4.3012150" lon="-75.8606050">
        <ele>1491.6</ele>
        <time>2022-08-14T12:44:11Z</time>
      </trkpt>
      <trkpt lat="4.3012480" lon="-75.8607520">
        <ele>1490.4</ele>
        <time>2022-08-14T12:44:15Z</time>
      </trkpt>
      <trkpt lat="4.3012400" lon="-75.8607900">
        <ele>1490.2</ele>
        <time>2022-08-14T12:44:16Z</time>
      </trkpt>
      <trkpt lat="4.3012250" lon="-75.8608240">
        <ele>1490.0</ele>
        <time>2022-08-14T12:44:17Z</time>
      </trkpt>
      <trkpt lat="4.3011690" lon="-75.8608920">
        <ele>1489.2</ele>
        <time>2022-08-14T12:44:19Z</time>
      </trkpt>
      <trkpt lat="4.3011280" lon="-75.8609230">
        <ele>1489.0</ele>
        <time>2022-08-14T12:44:20Z</time>
      </trkpt>
      <trkpt lat="4.3010800" lon="-75.8609500">
        <ele>1488.8</ele>
        <time>2022-08-14T12:44:21Z</time>
      </trkpt>
      <trkpt lat="4.3009950" lon="-75.8609870">
        <ele>1488.2</ele>
        <time>2022-08-14T12:44:23Z</time>
      </trkpt>
      <trkpt lat="4.3009500" lon="-75.8609990">
        <ele>1487.8</ele>
        <time>2022-08-14T12:44:24Z</time>
      </trkpt>
      <trkpt lat="4.3008020" lon="-75.8610140">
        <ele>1486.6</ele>
        <time>2022-08-14T12:44:27Z</time>
      </trkpt>
      <trkpt lat="4.3006250" lon="-75.8610150">
        <ele>1485.6</ele>
        <time>2022-08-14T12:44:30Z</time>
      </trkpt>
      <trkpt lat="4.3004980" lon="-75.8610090">
        <ele>1484.6</ele>
        <time>2022-08-14T12:44:32Z</time>
      </trkpt>
      <trkpt lat="4.3004490" lon="-75.8610090">
        <ele>1484.4</ele>
        <time>2022-08-14T12:44:33Z</time>
      </trkpt>
      <trkpt lat="4.3003880" lon="-75.8610170">
        <ele>1484.2</ele>
        <time>2022-08-14T12:44:34Z</time>
      </trkpt>
      <trkpt lat="4.3002590" lon="-75.8610760">
        <ele>1483.2</ele>
        <time>2022-08-14T12:44:36Z</time>
      </trkpt>
      <trkpt lat="4.3002130" lon="-75.8611240">
        <ele>1482.2</ele>
        <time>2022-08-14T12:44:37Z</time>
      </trkpt>
      <trkpt lat="4.3001750" lon="-75.8611710">
        <ele>1481.8</ele>
        <time>2022-08-14T12:44:38Z</time>
      </trkpt>
      <trkpt lat="4.3001480" lon="-75.8612060">
        <ele>1481.4</ele>
        <time>2022-08-14T12:44:39Z</time>
      </trkpt>
      <trkpt lat="4.3001160" lon="-75.8612470">
        <ele>1481.2</ele>
        <time>2022-08-14T12:44:40Z</time>
      </trkpt>
      <trkpt lat="4.3000800" lon="-75.8613350">
        <ele>1480.4</ele>
        <time>2022-08-14T12:44:42Z</time>
      </trkpt>
      <trkpt lat="4.3000730" lon="-75.8613850">
        <ele>1479.8</ele>
        <time>2022-08-14T12:44:43Z</time>
      </trkpt>
      <trkpt lat="4.3000810" lon="-75.8614270">
        <ele>1479.6</ele>
        <time>2022-08-14T12:44:44Z</time>
      </trkpt>
      <trkpt lat="4.3000900" lon="-75.8614590">
        <ele>1479.4</ele>
        <time>2022-08-14T12:44:45Z</time>
      </trkpt>
      <trkpt lat="4.3000830" lon="-75.8615420">
        <ele>1479.2</ele>
        <time>2022-08-14T12:44:47Z</time>
      </trkpt>
      <trkpt lat="4.3000510" lon="-75.8616220">
        <ele>1479.2</ele>
        <time>2022-08-14T12:44:49Z</time>
      </trkpt>
      <trkpt lat="4.2998900" lon="-75.8618180">
        <ele>1479.0</ele>
        <time>2022-08-14T12:44:54Z</time>
      </trkpt>
      <trkpt lat="4.2998480" lon="-75.8618530">
        <ele>1479.0</ele>
        <time>2022-08-14T12:44:55Z</time>
      </trkpt>
      <trkpt lat="4.2997350" lon="-75.8618970">
        <ele>1479.0</ele>
        <time>2022-08-14T12:44:57Z</time>
      </trkpt>
      <trkpt lat="4.2995410" lon="-75.8619180">
        <ele>1479.0</ele>
        <time>2022-08-14T12:45:00Z</time>
      </trkpt>
      <trkpt lat="4.2994290" lon="-75.8619620">
        <ele>1478.4</ele>
        <time>2022-08-14T12:45:02Z</time>
      </trkpt>
      <trkpt lat="4.2993530" lon="-75.8620350">
        <ele>1478.0</ele>
        <time>2022-08-14T12:45:04Z</time>
      </trkpt>
      <trkpt lat="4.2993370" lon="-75.8620810">
        <ele>1477.6</ele>
        <time>2022-08-14T12:45:05Z</time>
      </trkpt>
      <trkpt lat="4.2993480" lon="-75.8621320">
        <ele>1477.4</ele>
        <time>2022-08-14T12:45:06Z</time>
      </trkpt>
      <trkpt lat="4.2993760" lon="-75.8621740">
        <ele>1477.0</ele>
        <time>2022-08-14T12:45:07Z</time>
      </trkpt>
      <trkpt lat="4.2994150" lon="-75.8622090">
        <ele>1476.6</ele>
        <time>2022-08-14T12:45:08Z</time>
      </trkpt>
      <trkpt lat="4.2995630" lon="-75.8622910">
        <ele>1476.4</ele>
        <time>2022-08-14T12:45:11Z</time>
      </trkpt>
      <trkpt lat="4.2997030" lon="-75.8623180">
        <ele>1476.0</ele>
        <time>2022-08-14T12:45:14Z</time>
      </trkpt>
      <trkpt lat="4.2997430" lon="-75.8623330">
        <ele>1476.0</ele>
        <time>2022-08-14T12:45:15Z</time>
      </trkpt>
      <trkpt lat="4.2997850" lon="-75.8623560">
        <ele>1475.8</ele>
        <time>2022-08-14T12:45:16Z</time>
      </trkpt>
      <trkpt lat="4.2998350" lon="-75.8624270">
        <ele>1475.6</ele>
        <time>2022-08-14T12:45:18Z</time>
      </trkpt>
      <trkpt lat="4.2998280" lon="-75.8625630">
        <ele>1475.4</ele>
        <time>2022-08-14T12:45:21Z</time>
      </trkpt>
      <trkpt lat="4.2998110" lon="-75.8626100">
        <ele>1475.2</ele>
        <time>2022-08-14T12:45:22Z</time>
      </trkpt>
      <trkpt lat="4.2997910" lon="-75.8626560">
        <ele>1475.0</ele>
        <time>2022-08-14T12:45:23Z</time>
      </trkpt>
      <trkpt lat="4.2996560" lon="-75.8627740">
        <ele>1474.6</ele>
        <time>2022-08-14T12:45:26Z</time>
      </trkpt>
      <trkpt lat="4.2995680" lon="-75.8628210">
        <ele>1474.2</ele>
        <time>2022-08-14T12:45:28Z</time>
      </trkpt>
      <trkpt lat="4.2995110" lon="-75.8628370">
        <ele>1474.0</ele>
        <time>2022-08-14T12:45:29Z</time>
      </trkpt>
      <trkpt lat="4.2994500" lon="-75.8628470">
        <ele>1473.6</ele>
        <time>2022-08-14T12:45:30Z</time>
      </trkpt>
      <trkpt lat="4.2992530" lon="-75.8628560">
        <ele>1472.8</ele>
        <time>2022-08-14T12:45:33Z</time>
      </trkpt>
      <trkpt lat="4.2991240" lon="-75.8628650">
        <ele>1472.4</ele>
        <time>2022-08-14T12:45:35Z</time>
      </trkpt>
      <trkpt lat="4.2990680" lon="-75.8628710">
        <ele>1471.8</ele>
        <time>2022-08-14T12:45:36Z</time>
      </trkpt>
      <trkpt lat="4.2989620" lon="-75.8628680">
        <ele>1470.6</ele>
        <time>2022-08-14T12:45:38Z</time>
      </trkpt>
      <trkpt lat="4.2989120" lon="-75.8628540">
        <ele>1470.4</ele>
        <time>2022-08-14T12:45:39Z</time>
      </trkpt>
      <trkpt lat="4.2988050" lon="-75.8628240">
        <ele>1469.6</ele>
        <time>2022-08-14T12:45:41Z</time>
      </trkpt>
      <trkpt lat="4.2987540" lon="-75.8627970">
        <ele>1469.2</ele>
        <time>2022-08-14T12:45:42Z</time>
      </trkpt>
      <trkpt lat="4.2987030" lon="-75.8627610">
        <ele>1469.0</ele>
        <time>2022-08-14T12:45:43Z</time>
      </trkpt>
      <trkpt lat="4.2986570" lon="-75.8627210">
        <ele>1468.8</ele>
        <time>2022-08-14T12:45:44Z</time>
      </trkpt>
      <trkpt lat="4.2986160" lon="-75.8626860">
        <ele>1468.8</ele>
        <time>2022-08-14T12:45:45Z</time>
      </trkpt>
      <trkpt lat="4.2985270" lon="-75.8626310">
        <ele>1468.0</ele>
        <time>2022-08-14T12:45:47Z</time>
      </trkpt>
      <trkpt lat="4.2985000" lon="-75.8626230">
        <ele>1467.4</ele>
        <time>2022-08-14T12:45:48Z</time>
      </trkpt>
      <trkpt lat="4.2984620" lon="-75.8626210">
        <ele>1467.0</ele>
        <time>2022-08-14T12:45:49Z</time>
      </trkpt>
      <trkpt lat="4.2984230" lon="-75.8626350">
        <ele>1466.6</ele>
        <time>2022-08-14T12:45:50Z</time>
      </trkpt>
      <trkpt lat="4.2983890" lon="-75.8626660">
        <ele>1466.0</ele>
        <time>2022-08-14T12:45:51Z</time>
      </trkpt>
      <trkpt lat="4.2983670" lon="-75.8627080">
        <ele>1465.6</ele>
        <time>2022-08-14T12:45:52Z</time>
      </trkpt>
      <trkpt lat="4.2983450" lon="-75.8627950">
        <ele>1465.4</ele>
        <time>2022-08-14T12:45:54Z</time>
      </trkpt>
      <trkpt lat="4.2983000" lon="-75.8629730">
        <ele>1465.4</ele>
        <time>2022-08-14T12:45:59Z</time>
      </trkpt>
      <trkpt lat="4.2982010" lon="-75.8631200">
        <ele>1465.8</ele>
        <time>2022-08-14T12:46:04Z</time>
      </trkpt>
      <trkpt lat="4.2980550" lon="-75.8633480">
        <ele>1466.4</ele>
        <time>2022-08-14T12:46:11Z</time>
      </trkpt>
      <trkpt lat="4.2980350" lon="-75.8633880">
        <ele>1466.6</ele>
        <time>2022-08-14T12:46:12Z</time>
      </trkpt>
      <trkpt lat="4.2980200" lon="-75.8634190">
        <ele>1466.6</ele>
        <time>2022-08-14T12:46:13Z</time>
      </trkpt>
      <trkpt lat="4.2978920" lon="-75.8635840">
        <ele>1466.8</ele>
        <time>2022-08-14T12:46:19Z</time>
      </trkpt>
      <trkpt lat="4.2977390" lon="-75.8636780">
        <ele>1466.8</ele>
        <time>2022-08-14T12:46:23Z</time>
      </trkpt>
      <trkpt lat="4.2976900" lon="-75.8637060">
        <ele>1466.8</ele>
        <time>2022-08-14T12:46:24Z</time>
      </trkpt>
      <trkpt lat="4.2975320" lon="-75.8637680">
        <ele>1466.6</ele>
        <time>2022-08-14T12:46:27Z</time>
      </trkpt>
      <trkpt lat="4.2974340" lon="-75.8638130">
        <ele>1466.4</ele>
        <time>2022-08-14T12:46:29Z</time>
      </trkpt>
      <trkpt lat="4.2973280" lon="-75.8638580">
        <ele>1465.4</ele>
        <time>2022-08-14T12:46:31Z</time>
      </trkpt>
      <trkpt lat="4.2972780" lon="-75.8638830">
        <ele>1464.8</ele>
        <time>2022-08-14T12:46:32Z</time>
      </trkpt>
      <trkpt lat="4.2971940" lon="-75.8639300">
        <ele>1463.4</ele>
        <time>2022-08-14T12:46:34Z</time>
      </trkpt>
      <trkpt lat="4.2971010" lon="-75.8639930">
        <ele>1462.2</ele>
        <time>2022-08-14T12:46:36Z</time>
      </trkpt>
      <trkpt lat="4.2970210" lon="-75.8640650">
        <ele>1460.8</ele>
        <time>2022-08-14T12:46:38Z</time>
      </trkpt>
      <trkpt lat="4.2969080" lon="-75.8641630">
        <ele>1459.6</ele>
        <time>2022-08-14T12:46:41Z</time>
      </trkpt>
      <trkpt lat="4.2968670" lon="-75.8641810">
        <ele>1459.4</ele>
        <time>2022-08-14T12:46:42Z</time>
      </trkpt>
      <trkpt lat="4.2968220" lon="-75.8641870">
        <ele>1458.6</ele>
        <time>2022-08-14T12:46:43Z</time>
      </trkpt>
      <trkpt lat="4.2967250" lon="-75.8641750">
        <ele>1457.6</ele>
        <time>2022-08-14T12:46:45Z</time>
      </trkpt>
      <trkpt lat="4.2966740" lon="-75.8641600">
        <ele>1457.2</ele>
        <time>2022-08-14T12:46:46Z</time>
      </trkpt>
      <trkpt lat="4.2966310" lon="-75.8641390">
        <ele>1456.8</ele>
        <time>2022-08-14T12:46:47Z</time>
      </trkpt>
      <trkpt lat="4.2965660" lon="-75.8641020">
        <ele>1456.2</ele>
        <time>2022-08-14T12:46:48Z</time>
      </trkpt>
      <trkpt lat="4.2964580" lon="-75.8640500">
        <ele>1455.4</ele>
        <time>2022-08-14T12:46:50Z</time>
      </trkpt>
      <trkpt lat="4.2964180" lon="-75.8640340">
        <ele>1455.0</ele>
        <time>2022-08-14T12:46:51Z</time>
      </trkpt>
      <trkpt lat="4.2963110" lon="-75.8640370">
        <ele>1454.2</ele>
        <time>2022-08-14T12:46:53Z</time>
      </trkpt>
      <trkpt lat="4.2962530" lon="-75.8641040">
        <ele>1453.6</ele>
        <time>2022-08-14T12:46:55Z</time>
      </trkpt>
      <trkpt lat="4.2962490" lon="-75.8641360">
        <ele>1453.0</ele>
        <time>2022-08-14T12:46:56Z</time>
      </trkpt>
      <trkpt lat="4.2962520" lon="-75.8641970">
        <ele>1452.2</ele>
        <time>2022-08-14T12:46:58Z</time>
      </trkpt>
      <trkpt lat="4.2962580" lon="-75.8642230">
        <ele>1451.8</ele>
        <time>2022-08-14T12:47:00Z</time>
      </trkpt>
      <trkpt lat="4.2962830" lon="-75.8643260">
        <ele>1451.6</ele>
        <time>2022-08-14T12:47:06Z</time>
      </trkpt>
      <trkpt lat="4.2963210" lon="-75.8644790">
        <ele>1451.4</ele>
        <time>2022-08-14T12:47:10Z</time>
      </trkpt>
      <trkpt lat="4.2964220" lon="-75.8647570">
        <ele>1451.2</ele>
        <time>2022-08-14T12:47:16Z</time>
      </trkpt>
      <trkpt lat="4.2964470" lon="-75.8648060">
        <ele>1451.2</ele>
        <time>2022-08-14T12:47:17Z</time>
      </trkpt>
      <trkpt lat="4.2965320" lon="-75.8649460">
        <ele>1451.0</ele>
        <time>2022-08-14T12:47:20Z</time>
      </trkpt>
      <trkpt lat="4.2966150" lon="-75.8651060">
        <ele>1450.8</ele>
        <time>2022-08-14T12:47:23Z</time>
      </trkpt>
      <trkpt lat="4.2967050" lon="-75.8653690">
        <ele>1450.0</ele>
        <time>2022-08-14T12:47:28Z</time>
      </trkpt>
      <trkpt lat="4.2967060" lon="-75.8654130">
        <ele>1449.8</ele>
        <time>2022-08-14T12:47:29Z</time>
      </trkpt>
      <trkpt lat="4.2967040" lon="-75.8654580">
        <ele>1449.6</ele>
        <time>2022-08-14T12:47:30Z</time>
      </trkpt>
      <trkpt lat="4.2966640" lon="-75.8656050">
        <ele>1449.0</ele>
        <time>2022-08-14T12:47:33Z</time>
      </trkpt>
      <trkpt lat="4.2966320" lon="-75.8656510">
        <ele>1448.6</ele>
        <time>2022-08-14T12:47:34Z</time>
      </trkpt>
      <trkpt lat="4.2965930" lon="-75.8656960">
        <ele>1448.4</ele>
        <time>2022-08-14T12:47:35Z</time>
      </trkpt>
      <trkpt lat="4.2965020" lon="-75.8657580">
        <ele>1448.2</ele>
        <time>2022-08-14T12:47:37Z</time>
      </trkpt>
      <trkpt lat="4.2963890" lon="-75.8658050">
        <ele>1447.6</ele>
        <time>2022-08-14T12:47:39Z</time>
      </trkpt>
      <trkpt lat="4.2961900" lon="-75.8658430">
        <ele>1446.8</ele>
        <time>2022-08-14T12:47:42Z</time>
      </trkpt>
      <trkpt lat="4.2961200" lon="-75.8658480">
        <ele>1446.2</ele>
        <time>2022-08-14T12:47:43Z</time>
      </trkpt>
      <trkpt lat="4.2959880" lon="-75.8658500">
        <ele>1445.0</ele>
        <time>2022-08-14T12:47:45Z</time>
      </trkpt>
      <trkpt lat="4.2958600" lon="-75.8658640">
        <ele>1444.2</ele>
        <time>2022-08-14T12:47:47Z</time>
      </trkpt>
      <trkpt lat="4.2958060" lon="-75.8658930">
        <ele>1443.2</ele>
        <time>2022-08-14T12:47:48Z</time>
      </trkpt>
      <trkpt lat="4.2957750" lon="-75.8659350">
        <ele>1443.2</ele>
        <time>2022-08-14T12:47:49Z</time>
      </trkpt>
      <trkpt lat="4.2957690" lon="-75.8659820">
        <ele>1442.6</ele>
        <time>2022-08-14T12:47:50Z</time>
      </trkpt>
      <trkpt lat="4.2957770" lon="-75.8660280">
        <ele>1442.4</ele>
        <time>2022-08-14T12:47:51Z</time>
      </trkpt>
      <trkpt lat="4.2957910" lon="-75.8660690">
        <ele>1442.2</ele>
        <time>2022-08-14T12:47:52Z</time>
      </trkpt>
      <trkpt lat="4.2958240" lon="-75.8661430">
        <ele>1442.2</ele>
        <time>2022-08-14T12:47:54Z</time>
      </trkpt>
      <trkpt lat="4.2958510" lon="-75.8662640">
        <ele>1442.2</ele>
        <time>2022-08-14T12:47:58Z</time>
      </trkpt>
      <trkpt lat="4.2958510" lon="-75.8662880">
        <ele>1442.2</ele>
        <time>2022-08-14T12:47:59Z</time>
      </trkpt>
      <trkpt lat="4.2958470" lon="-75.8663810">
        <ele>1443.2</ele>
        <time>2022-08-14T12:48:04Z</time>
      </trkpt>
      <trkpt lat="4.2958440" lon="-75.8663970">
        <ele>1443.6</ele>
        <time>2022-08-14T12:48:05Z</time>
      </trkpt>
      <trkpt lat="4.2958140" lon="-75.8664570">
        <ele>1444.6</ele>
        <time>2022-08-14T12:48:09Z</time>
      </trkpt>
      <trkpt lat="4.2957850" lon="-75.8664780">
        <ele>1445.2</ele>
        <time>2022-08-14T12:48:11Z</time>
      </trkpt>
      <trkpt lat="4.2957170" lon="-75.8665210">
        <ele>1445.8</ele>
        <time>2022-08-14T12:48:15Z</time>
      </trkpt>
      <trkpt lat="4.2956710" lon="-75.8665490">
        <ele>1446.2</ele>
        <time>2022-08-14T12:48:18Z</time>
      </trkpt>
      <trkpt lat="4.2955910" lon="-75.8665760">
        <ele>1447.0</ele>
        <time>2022-08-14T12:48:22Z</time>
      </trkpt>
      <trkpt lat="4.2954890" lon="-75.8666320">
        <ele>1447.8</ele>
        <time>2022-08-14T12:48:28Z</time>
      </trkpt>
      <trkpt lat="4.2954310" lon="-75.8666630">
        <ele>1448.0</ele>
        <time>2022-08-14T12:48:31Z</time>
      </trkpt>
      <trkpt lat="4.2953520" lon="-75.8666740">
        <ele>1448.4</ele>
        <time>2022-08-14T12:48:35Z</time>
      </trkpt>
      <trkpt lat="4.2952380" lon="-75.8666740">
        <ele>1449.0</ele>
        <time>2022-08-14T12:48:40Z</time>
      </trkpt>
      <trkpt lat="4.2952160" lon="-75.8666720">
        <ele>1449.2</ele>
        <time>2022-08-14T12:48:41Z</time>
      </trkpt>
      <trkpt lat="4.2951730" lon="-75.8666680">
        <ele>1449.4</ele>
        <time>2022-08-14T12:48:43Z</time>
      </trkpt>
      <trkpt lat="4.2950670" lon="-75.8666450">
        <ele>1450.0</ele>
        <time>2022-08-14T12:48:48Z</time>
      </trkpt>
      <trkpt lat="4.2949960" lon="-75.8666280">
        <ele>1450.4</ele>
        <time>2022-08-14T12:48:51Z</time>
      </trkpt>
      <trkpt lat="4.2947600" lon="-75.8665860">
        <ele>1451.0</ele>
        <time>2022-08-14T12:48:59Z</time>
      </trkpt>
      <trkpt lat="4.2946400" lon="-75.8666280">
        <ele>1451.2</ele>
        <time>2022-08-14T12:49:03Z</time>
      </trkpt>
      <trkpt lat="4.2946260" lon="-75.8667640">
        <ele>1451.2</ele>
        <time>2022-08-14T12:49:07Z</time>
      </trkpt>
      <trkpt lat="4.2947510" lon="-75.8670570">
        <ele>1451.4</ele>
        <time>2022-08-14T12:49:16Z</time>
      </trkpt>
      <trkpt lat="4.2947980" lon="-75.8672340">
        <ele>1451.6</ele>
        <time>2022-08-14T12:49:22Z</time>
      </trkpt>
      <trkpt lat="4.2948200" lon="-75.8672840">
        <ele>1451.8</ele>
        <time>2022-08-14T12:49:24Z</time>
      </trkpt>
      <trkpt lat="4.2948480" lon="-75.8673250">
        <ele>1452.0</ele>
        <time>2022-08-14T12:49:26Z</time>
      </trkpt>
      <trkpt lat="4.2948820" lon="-75.8673630">
        <ele>1452.2</ele>
        <time>2022-08-14T12:49:28Z</time>
      </trkpt>
      <trkpt lat="4.2949300" lon="-75.8674770">
        <ele>1453.0</ele>
        <time>2022-08-14T12:49:33Z</time>
      </trkpt>
      <trkpt lat="4.2949380" lon="-75.8675290">
        <ele>1453.4</ele>
        <time>2022-08-14T12:49:35Z</time>
      </trkpt>
      <trkpt lat="4.2949280" lon="-75.8676310">
        <ele>1454.0</ele>
        <time>2022-08-14T12:49:39Z</time>
      </trkpt>
      <trkpt lat="4.2949070" lon="-75.8676780">
        <ele>1454.0</ele>
        <time>2022-08-14T12:49:41Z</time>
      </trkpt>
      <trkpt lat="4.2948220" lon="-75.8677580">
        <ele>1454.2</ele>
        <time>2022-08-14T12:49:46Z</time>
      </trkpt>
      <trkpt lat="4.2947280" lon="-75.8677890">
        <ele>1455.2</ele>
        <time>2022-08-14T12:49:50Z</time>
      </trkpt>
      <trkpt lat="4.2946470" lon="-75.8678010">
        <ele>1455.6</ele>
        <time>2022-08-14T12:49:53Z</time>
      </trkpt>
      <trkpt lat="4.2944700" lon="-75.8677700">
        <ele>1456.0</ele>
        <time>2022-08-14T12:50:00Z</time>
      </trkpt>
      <trkpt lat="4.2944530" lon="-75.8677620">
        <ele>1456.2</ele>
        <time>2022-08-14T12:50:01Z</time>
      </trkpt>
      <trkpt lat="4.2943800" lon="-75.8677440">
        <ele>1456.8</ele>
        <time>2022-08-14T12:50:04Z</time>
      </trkpt>
      <trkpt lat="4.2942220" lon="-75.8677140">
        <ele>1457.2</ele>
        <time>2022-08-14T12:50:10Z</time>
      </trkpt>
      <trkpt lat="4.2941690" lon="-75.8676950">
        <ele>1457.4</ele>
        <time>2022-08-14T12:50:12Z</time>
      </trkpt>
      <trkpt lat="4.2939960" lon="-75.8676080">
        <ele>1458.2</ele>
        <time>2022-08-14T12:50:19Z</time>
      </trkpt>
      <trkpt lat="4.2938730" lon="-75.8674330">
        <ele>1458.8</ele>
        <time>2022-08-14T12:50:26Z</time>
      </trkpt>
      <trkpt lat="4.2937620" lon="-75.8672800">
        <ele>1459.2</ele>
        <time>2022-08-14T12:50:32Z</time>
      </trkpt>
      <trkpt lat="4.2937370" lon="-75.8672590">
        <ele>1459.4</ele>
        <time>2022-08-14T12:50:33Z</time>
      </trkpt>
      <trkpt lat="4.2936090" lon="-75.8671200">
        <ele>1460.2</ele>
        <time>2022-08-14T12:50:39Z</time>
      </trkpt>
      <trkpt lat="4.2935190" lon="-75.8670440">
        <ele>1460.6</ele>
        <time>2022-08-14T12:50:43Z</time>
      </trkpt>
      <trkpt lat="4.2934590" lon="-75.8670290">
        <ele>1461.0</ele>
        <time>2022-08-14T12:50:45Z</time>
      </trkpt>
      <trkpt lat="4.2934270" lon="-75.8670330">
        <ele>1461.0</ele>
        <time>2022-08-14T12:50:46Z</time>
      </trkpt>
      <trkpt lat="4.2933430" lon="-75.8670720">
        <ele>1461.4</ele>
        <time>2022-08-14T12:50:49Z</time>
      </trkpt>
      <trkpt lat="4.2933230" lon="-75.8670880">
        <ele>1461.4</ele>
        <time>2022-08-14T12:50:50Z</time>
      </trkpt>
      <trkpt lat="4.2932390" lon="-75.8671760">
        <ele>1462.0</ele>
        <time>2022-08-14T12:50:55Z</time>
      </trkpt>
      <trkpt lat="4.2931920" lon="-75.8672270">
        <ele>1462.4</ele>
        <time>2022-08-14T12:50:58Z</time>
      </trkpt>
      <trkpt lat="4.2931050" lon="-75.8672950">
        <ele>1463.2</ele>
        <time>2022-08-14T12:51:03Z</time>
      </trkpt>
      <trkpt lat="4.2930510" lon="-75.8673190">
        <ele>1463.6</ele>
        <time>2022-08-14T12:51:06Z</time>
      </trkpt>
      <trkpt lat="4.2929850" lon="-75.8673400">
        <ele>1464.8</ele>
        <time>2022-08-14T12:51:10Z</time>
      </trkpt>
      <trkpt lat="4.2928740" lon="-75.8673660">
        <ele>1466.0</ele>
        <time>2022-08-14T12:51:17Z</time>
      </trkpt>
      <trkpt lat="4.2928580" lon="-75.8673690">
        <ele>1466.4</ele>
        <time>2022-08-14T12:51:18Z</time>
      </trkpt>
      <trkpt lat="4.2928000" lon="-75.8673820">
        <ele>1467.0</ele>
        <time>2022-08-14T12:51:22Z</time>
      </trkpt>
      <trkpt lat="4.2927290" lon="-75.8673960">
        <ele>1468.2</ele>
        <time>2022-08-14T12:51:27Z</time>
      </trkpt>
      <trkpt lat="4.2927130" lon="-75.8674010">
        <ele>1468.4</ele>
        <time>2022-08-14T12:51:28Z</time>
      </trkpt>
      <trkpt lat="4.2926140" lon="-75.8674140">
        <ele>1469.4</ele>
        <time>2022-08-14T12:51:34Z</time>
      </trkpt>
      <trkpt lat="4.2925830" lon="-75.8674210">
        <ele>1469.6</ele>
        <time>2022-08-14T12:51:36Z</time>
      </trkpt>
      <trkpt lat="4.2925070" lon="-75.8674240">
        <ele>1470.4</ele>
        <time>2022-08-14T12:51:41Z</time>
      </trkpt>
      <trkpt lat="4.2924580" lon="-75.8674230">
        <ele>1471.0</ele>
        <time>2022-08-14T12:51:44Z</time>
      </trkpt>
      <trkpt lat="4.2924060" lon="-75.8674210">
        <ele>1471.6</ele>
        <time>2022-08-14T12:51:47Z</time>
      </trkpt>
      <trkpt lat="4.2923370" lon="-75.8674130">
        <ele>1472.0</ele>
        <time>2022-08-14T12:51:51Z</time>
      </trkpt>
      <trkpt lat="4.2922650" lon="-75.8674030">
        <ele>1472.4</ele>
        <time>2022-08-14T12:51:55Z</time>
      </trkpt>
      <trkpt lat="4.2921240" lon="-75.8673740">
        <ele>1473.4</ele>
        <time>2022-08-14T12:52:02Z</time>
      </trkpt>
      <trkpt lat="4.2920100" lon="-75.8674320">
        <ele>1474.0</ele>
        <time>2022-08-14T12:52:08Z</time>
      </trkpt>
      <trkpt lat="4.2919600" lon="-75.8675250">
        <ele>1474.4</ele>
        <time>2022-08-14T12:52:13Z</time>
      </trkpt>
      <trkpt lat="4.2919580" lon="-75.8675470">
        <ele>1474.4</ele>
        <time>2022-08-14T12:52:14Z</time>
      </trkpt>
      <trkpt lat="4.2919680" lon="-75.8676870">
        <ele>1475.2</ele>
        <time>2022-08-14T12:52:21Z</time>
      </trkpt>
      <trkpt lat="4.2919640" lon="-75.8677070">
        <ele>1475.4</ele>
        <time>2022-08-14T12:52:22Z</time>
      </trkpt>
      <trkpt lat="4.2919070" lon="-75.8678230">
        <ele>1476.4</ele>
        <time>2022-08-14T12:52:28Z</time>
      </trkpt>
      <trkpt lat="4.2918430" lon="-75.8679500">
        <ele>1477.6</ele>
        <time>2022-08-14T12:52:35Z</time>
      </trkpt>
      <trkpt lat="4.2918250" lon="-75.8679880">
        <ele>1477.8</ele>
        <time>2022-08-14T12:52:37Z</time>
      </trkpt>
      <trkpt lat="4.2918070" lon="-75.8680950">
        <ele>1478.6</ele>
        <time>2022-08-14T12:52:42Z</time>
      </trkpt>
      <trkpt lat="4.2918050" lon="-75.8681540">
        <ele>1478.8</ele>
        <time>2022-08-14T12:52:45Z</time>
      </trkpt>
      <trkpt lat="4.2917930" lon="-75.8682990">
        <ele>1479.8</ele>
        <time>2022-08-14T12:52:52Z</time>
      </trkpt>
      <trkpt lat="4.2917750" lon="-75.8683360">
        <ele>1480.2</ele>
        <time>2022-08-14T12:52:54Z</time>
      </trkpt>
      <trkpt lat="4.2916830" lon="-75.8684310">
        <ele>1480.8</ele>
        <time>2022-08-14T12:53:01Z</time>
      </trkpt>
      <trkpt lat="4.2916680" lon="-75.8684410">
        <ele>1481.0</ele>
        <time>2022-08-14T12:53:02Z</time>
      </trkpt>
      <trkpt lat="4.2915530" lon="-75.8684850">
        <ele>1481.8</ele>
        <time>2022-08-14T12:53:09Z</time>
      </trkpt>
      <trkpt lat="4.2915320" lon="-75.8684870">
        <ele>1482.0</ele>
        <time>2022-08-14T12:53:10Z</time>
      </trkpt>
      <trkpt lat="4.2914500" lon="-75.8684750">
        <ele>1482.8</ele>
        <time>2022-08-14T12:53:15Z</time>
      </trkpt>
      <trkpt lat="4.2914320" lon="-75.8684770">
        <ele>1483.2</ele>
        <time>2022-08-14T12:53:16Z</time>
      </trkpt>
      <trkpt lat="4.2913480" lon="-75.8684730">
        <ele>1484.0</ele>
        <time>2022-08-14T12:53:21Z</time>
      </trkpt>
      <trkpt lat="4.2913190" lon="-75.8684610">
        <ele>1484.2</ele>
        <time>2022-08-14T12:53:23Z</time>
      </trkpt>
      <trkpt lat="4.2912440" lon="-75.8684390">
        <ele>1485.2</ele>
        <time>2022-08-14T12:53:28Z</time>
      </trkpt>
      <trkpt lat="4.2911870" lon="-75.8684150">
        <ele>1485.8</ele>
        <time>2022-08-14T12:53:32Z</time>
      </trkpt>
      <trkpt lat="4.2911620" lon="-75.8684020">
        <ele>1486.2</ele>
        <time>2022-08-14T12:53:34Z</time>
      </trkpt>
      <trkpt lat="4.2910890" lon="-75.8683770">
        <ele>1487.0</ele>
        <time>2022-08-14T12:53:39Z</time>
      </trkpt>
      <trkpt lat="4.2910590" lon="-75.8683700">
        <ele>1487.4</ele>
        <time>2022-08-14T12:53:41Z</time>
      </trkpt>
      <trkpt lat="4.2909820" lon="-75.8683560">
        <ele>1488.4</ele>
        <time>2022-08-14T12:53:46Z</time>
      </trkpt>
      <trkpt lat="4.2909670" lon="-75.8683570">
        <ele>1488.4</ele>
        <time>2022-08-14T12:53:47Z</time>
      </trkpt>
      <trkpt lat="4.2908770" lon="-75.8683630">
        <ele>1489.4</ele>
        <time>2022-08-14T12:53:53Z</time>
      </trkpt>
      <trkpt lat="4.2908260" lon="-75.8683680">
        <ele>1490.0</ele>
        <time>2022-08-14T12:53:56Z</time>
      </trkpt>
      <trkpt lat="4.2907950" lon="-75.8683700">
        <ele>1490.4</ele>
        <time>2022-08-14T12:53:58Z</time>
      </trkpt>
      <trkpt lat="4.2907240" lon="-75.8683790">
        <ele>1491.2</ele>
        <time>2022-08-14T12:54:03Z</time>
      </trkpt>
      <trkpt lat="4.2906930" lon="-75.8683770">
        <ele>1491.6</ele>
        <time>2022-08-14T12:54:05Z</time>
      </trkpt>
      <trkpt lat="4.2906160" lon="-75.8683910">
        <ele>1492.6</ele>
        <time>2022-08-14T12:54:10Z</time>
      </trkpt>
      <trkpt lat="4.2905980" lon="-75.8683970">
        <ele>1492.8</ele>
        <time>2022-08-14T12:54:11Z</time>
      </trkpt>
      <trkpt lat="4.2905320" lon="-75.8684160">
        <ele>1493.6</ele>
        <time>2022-08-14T12:54:16Z</time>
      </trkpt>
      <trkpt lat="4.2905190" lon="-75.8684240">
        <ele>1494.0</ele>
        <time>2022-08-14T12:54:17Z</time>
      </trkpt>
      <trkpt lat="4.2904720" lon="-75.8684530">
        <ele>1494.8</ele>
        <time>2022-08-14T12:54:21Z</time>
      </trkpt>
      <trkpt lat="4.2904630" lon="-75.8684640">
        <ele>1494.8</ele>
        <time>2022-08-14T12:54:22Z</time>
      </trkpt>
      <trkpt lat="4.2904500" lon="-75.8684910">
        <ele>1495.2</ele>
        <time>2022-08-14T12:54:24Z</time>
      </trkpt>
      <trkpt lat="4.2904390" lon="-75.8685210">
        <ele>1495.8</ele>
        <time>2022-08-14T12:54:26Z</time>
      </trkpt>
      <trkpt lat="4.2904170" lon="-75.8686050">
        <ele>1496.8</ele>
        <time>2022-08-14T12:54:31Z</time>
      </trkpt>
      <trkpt lat="4.2904070" lon="-75.8686380">
        <ele>1497.4</ele>
        <time>2022-08-14T12:54:33Z</time>
      </trkpt>
      <trkpt lat="4.2903870" lon="-75.8687000">
        <ele>1497.8</ele>
        <time>2022-08-14T12:54:37Z</time>
      </trkpt>
      <trkpt lat="4.2903500" lon="-75.8687490">
        <ele>1498.6</ele>
        <time>2022-08-14T12:54:41Z</time>
      </trkpt>
      <trkpt lat="4.2903310" lon="-75.8687640">
        <ele>1498.8</ele>
        <time>2022-08-14T12:54:43Z</time>
      </trkpt>
      <trkpt lat="4.2902830" lon="-75.8687970">
        <ele>1499.4</ele>
        <time>2022-08-14T12:54:47Z</time>
      </trkpt>
      <trkpt lat="4.2902370" lon="-75.8688090">
        <ele>1500.0</ele>
        <time>2022-08-14T12:54:50Z</time>
      </trkpt>
      <trkpt lat="4.2901580" lon="-75.8688010">
        <ele>1500.8</ele>
        <time>2022-08-14T12:54:55Z</time>
      </trkpt>
      <trkpt lat="4.2901430" lon="-75.8687980">
        <ele>1500.8</ele>
        <time>2022-08-14T12:54:56Z</time>
      </trkpt>
      <trkpt lat="4.2901260" lon="-75.8687950">
        <ele>1501.2</ele>
        <time>2022-08-14T12:54:57Z</time>
      </trkpt>
      <trkpt lat="4.2900590" lon="-75.8687800">
        <ele>1502.0</ele>
        <time>2022-08-14T12:55:01Z</time>
      </trkpt>
      <trkpt lat="4.2900420" lon="-75.8687790">
        <ele>1502.2</ele>
        <time>2022-08-14T12:55:02Z</time>
      </trkpt>
      <trkpt lat="4.2899930" lon="-75.8687660">
        <ele>1503.0</ele>
        <time>2022-08-14T12:55:05Z</time>
      </trkpt>
      <trkpt lat="4.2899180" lon="-75.8687320">
        <ele>1503.8</ele>
        <time>2022-08-14T12:55:10Z</time>
      </trkpt>
      <trkpt lat="4.2899070" lon="-75.8687230">
        <ele>1504.2</ele>
        <time>2022-08-14T12:55:11Z</time>
      </trkpt>
      <trkpt lat="4.2898600" lon="-75.8686820">
        <ele>1505.2</ele>
        <time>2022-08-14T12:55:15Z</time>
      </trkpt>
      <trkpt lat="4.2898070" lon="-75.8686460">
        <ele>1505.8</ele>
        <time>2022-08-14T12:55:19Z</time>
      </trkpt>
      <trkpt lat="4.2897770" lon="-75.8686300">
        <ele>1506.2</ele>
        <time>2022-08-14T12:55:21Z</time>
      </trkpt>
      <trkpt lat="4.2897040" lon="-75.8685940">
        <ele>1507.4</ele>
        <time>2022-08-14T12:55:26Z</time>
      </trkpt>
      <trkpt lat="4.2896780" lon="-75.8685870">
        <ele>1507.6</ele>
        <time>2022-08-14T12:55:28Z</time>
      </trkpt>
      <trkpt lat="4.2896400" lon="-75.8685780">
        <ele>1508.4</ele>
        <time>2022-08-14T12:55:31Z</time>
      </trkpt>
      <trkpt lat="4.2895870" lon="-75.8685940">
        <ele>1509.0</ele>
        <time>2022-08-14T12:55:35Z</time>
      </trkpt>
      <trkpt lat="4.2895620" lon="-75.8686060">
        <ele>1509.6</ele>
        <time>2022-08-14T12:55:37Z</time>
      </trkpt>
      <trkpt lat="4.2894610" lon="-75.8686370">
        <ele>1510.8</ele>
        <time>2022-08-14T12:55:44Z</time>
      </trkpt>
      <trkpt lat="4.2894520" lon="-75.8686410">
        <ele>1511.0</ele>
        <time>2022-08-14T12:55:45Z</time>
      </trkpt>
      <trkpt lat="4.2893770" lon="-75.8686700">
        <ele>1511.6</ele>
        <time>2022-08-14T12:55:51Z</time>
      </trkpt>
      <trkpt lat="4.2893390" lon="-75.8686880">
        <ele>1512.4</ele>
        <time>2022-08-14T12:55:54Z</time>
      </trkpt>
      <trkpt lat="4.2892960" lon="-75.8687110">
        <ele>1512.8</ele>
        <time>2022-08-14T12:55:57Z</time>
      </trkpt>
      <trkpt lat="4.2892420" lon="-75.8687310">
        <ele>1513.4</ele>
        <time>2022-08-14T12:56:01Z</time>
      </trkpt>
      <trkpt lat="4.2892250" lon="-75.8687390">
        <ele>1513.6</ele>
        <time>2022-08-14T12:56:02Z</time>
      </trkpt>
      <trkpt lat="4.2892120" lon="-75.8687480">
        <ele>1514.0</ele>
        <time>2022-08-14T12:56:03Z</time>
      </trkpt>
      <trkpt lat="4.2891420" lon="-75.8687840">
        <ele>1515.2</ele>
        <time>2022-08-14T12:56:08Z</time>
      </trkpt>
      <trkpt lat="4.2890520" lon="-75.8688130">
        <ele>1516.4</ele>
        <time>2022-08-14T12:56:14Z</time>
      </trkpt>
      <trkpt lat="4.2890280" lon="-75.8688190">
        <ele>1516.6</ele>
        <time>2022-08-14T12:56:16Z</time>
      </trkpt>
      <trkpt lat="4.2889550" lon="-75.8688520">
        <ele>1517.4</ele>
        <time>2022-08-14T12:56:21Z</time>
      </trkpt>
      <trkpt lat="4.2888980" lon="-75.8688720">
        <ele>1518.0</ele>
        <time>2022-08-14T12:56:25Z</time>
      </trkpt>
      <trkpt lat="4.2888720" lon="-75.8688850">
        <ele>1518.4</ele>
        <time>2022-08-14T12:56:27Z</time>
      </trkpt>
      <trkpt lat="4.2888480" lon="-75.8688940">
        <ele>1518.6</ele>
        <time>2022-08-14T12:56:29Z</time>
      </trkpt>
      <trkpt lat="4.2888230" lon="-75.8688910">
        <ele>1519.2</ele>
        <time>2022-08-14T12:56:31Z</time>
      </trkpt>
      <trkpt lat="4.2888100" lon="-75.8688950">
        <ele>1519.4</ele>
        <time>2022-08-14T12:56:32Z</time>
      </trkpt>
      <trkpt lat="4.2887320" lon="-75.8689150">
        <ele>1520.6</ele>
        <time>2022-08-14T12:56:37Z</time>
      </trkpt>
      <trkpt lat="4.2886830" lon="-75.8689230">
        <ele>1521.2</ele>
        <time>2022-08-14T12:56:40Z</time>
      </trkpt>
      <trkpt lat="4.2886070" lon="-75.8689530">
        <ele>1521.8</ele>
        <time>2022-08-14T12:56:45Z</time>
      </trkpt>
      <trkpt lat="4.2885910" lon="-75.8689600">
        <ele>1522.0</ele>
        <time>2022-08-14T12:56:46Z</time>
      </trkpt>
      <trkpt lat="4.2885130" lon="-75.8690180">
        <ele>1522.8</ele>
        <time>2022-08-14T12:56:52Z</time>
      </trkpt>
      <trkpt lat="4.2885000" lon="-75.8690400">
        <ele>1523.2</ele>
        <time>2022-08-14T12:56:54Z</time>
      </trkpt>
      <trkpt lat="4.2884740" lon="-75.8690690">
        <ele>1523.8</ele>
        <time>2022-08-14T12:56:57Z</time>
      </trkpt>
      <trkpt lat="4.2884690" lon="-75.8690850">
        <ele>1524.0</ele>
        <time>2022-08-14T12:56:58Z</time>
      </trkpt>
      <trkpt lat="4.2884720" lon="-75.8691200">
        <ele>1524.2</ele>
        <time>2022-08-14T12:57:00Z</time>
      </trkpt>
      <trkpt lat="4.2885170" lon="-75.8692380">
        <ele>1524.8</ele>
        <time>2022-08-14T12:57:07Z</time>
      </trkpt>
      <trkpt lat="4.2885320" lon="-75.8692920">
        <ele>1525.2</ele>
        <time>2022-08-14T12:57:10Z</time>
      </trkpt>
      <trkpt lat="4.2885470" lon="-75.8693700">
        <ele>1526.0</ele>
        <time>2022-08-14T12:57:15Z</time>
      </trkpt>
      <trkpt lat="4.2885660" lon="-75.8693960">
        <ele>1526.4</ele>
        <time>2022-08-14T12:57:17Z</time>
      </trkpt>
      <trkpt lat="4.2885990" lon="-75.8694500">
        <ele>1527.0</ele>
        <time>2022-08-14T12:57:21Z</time>
      </trkpt>
      <trkpt lat="4.2886010" lon="-75.8694620">
        <ele>1527.2</ele>
        <time>2022-08-14T12:57:22Z</time>
      </trkpt>
      <trkpt lat="4.2886020" lon="-75.8694900">
        <ele>1527.4</ele>
        <time>2022-08-14T12:57:24Z</time>
      </trkpt>
      <trkpt lat="4.2885720" lon="-75.8695520">
        <ele>1528.2</ele>
        <time>2022-08-14T12:57:29Z</time>
      </trkpt>
      <trkpt lat="4.2885530" lon="-75.8695770">
        <ele>1528.8</ele>
        <time>2022-08-14T12:57:31Z</time>
      </trkpt>
      <trkpt lat="4.2885270" lon="-75.8696030">
        <ele>1529.2</ele>
        <time>2022-08-14T12:57:33Z</time>
      </trkpt>
      <trkpt lat="4.2884370" lon="-75.8696190">
        <ele>1530.0</ele>
        <time>2022-08-14T12:57:38Z</time>
      </trkpt>
      <trkpt lat="4.2884210" lon="-75.8696190">
        <ele>1530.2</ele>
        <time>2022-08-14T12:57:39Z</time>
      </trkpt>
      <trkpt lat="4.2882860" lon="-75.8696670">
        <ele>1531.0</ele>
        <time>2022-08-14T12:57:46Z</time>
      </trkpt>
      <trkpt lat="4.2882610" lon="-75.8696820">
        <ele>1531.2</ele>
        <time>2022-08-14T12:57:48Z</time>
      </trkpt>
      <trkpt lat="4.2881490" lon="-75.8697390">
        <ele>1532.2</ele>
        <time>2022-08-14T12:57:55Z</time>
      </trkpt>
      <trkpt lat="4.2881300" lon="-75.8697470">
        <ele>1532.4</ele>
        <time>2022-08-14T12:57:56Z</time>
      </trkpt>
      <trkpt lat="4.2880280" lon="-75.8698340">
        <ele>1533.4</ele>
        <time>2022-08-14T12:58:03Z</time>
      </trkpt>
      <trkpt lat="4.2879390" lon="-75.8700040">
        <ele>1534.4</ele>
        <time>2022-08-14T12:58:12Z</time>
      </trkpt>
      <trkpt lat="4.2879390" lon="-75.8701880">
        <ele>1535.2</ele>
        <time>2022-08-14T12:58:19Z</time>
      </trkpt>
      <trkpt lat="4.2879860" lon="-75.8702850">
        <ele>1535.2</ele>
        <time>2022-08-14T12:58:23Z</time>
      </trkpt>
      <trkpt lat="4.2880360" lon="-75.8703540">
        <ele>1535.6</ele>
        <time>2022-08-14T12:58:26Z</time>
      </trkpt>
      <trkpt lat="4.2882250" lon="-75.8704630">
        <ele>1536.4</ele>
        <time>2022-08-14T12:58:34Z</time>
      </trkpt>
      <trkpt lat="4.2883640" lon="-75.8705740">
        <ele>1537.0</ele>
        <time>2022-08-14T12:58:41Z</time>
      </trkpt>
      <trkpt lat="4.2883860" lon="-75.8706640">
        <ele>1537.4</ele>
        <time>2022-08-14T12:58:45Z</time>
      </trkpt>
      <trkpt lat="4.2883730" lon="-75.8707130">
        <ele>1537.8</ele>
        <time>2022-08-14T12:58:47Z</time>
      </trkpt>
      <trkpt lat="4.2883020" lon="-75.8707910">
        <ele>1538.6</ele>
        <time>2022-08-14T12:58:51Z</time>
      </trkpt>
      <trkpt lat="4.2882780" lon="-75.8708060">
        <ele>1538.4</ele>
        <time>2022-08-14T12:58:52Z</time>
      </trkpt>
      <trkpt lat="4.2881360" lon="-75.8708840">
        <ele>1539.0</ele>
        <time>2022-08-14T12:58:58Z</time>
      </trkpt>
      <trkpt lat="4.2880430" lon="-75.8709310">
        <ele>1539.4</ele>
        <time>2022-08-14T12:59:02Z</time>
      </trkpt>
      <trkpt lat="4.2879770" lon="-75.8709780">
        <ele>1539.6</ele>
        <time>2022-08-14T12:59:05Z</time>
      </trkpt>
      <trkpt lat="4.2879070" lon="-75.8710380">
        <ele>1540.4</ele>
        <time>2022-08-14T12:59:09Z</time>
      </trkpt>
      <trkpt lat="4.2878320" lon="-75.8710970">
        <ele>1541.2</ele>
        <time>2022-08-14T12:59:13Z</time>
      </trkpt>
      <trkpt lat="4.2878130" lon="-75.8711140">
        <ele>1541.6</ele>
        <time>2022-08-14T12:59:14Z</time>
      </trkpt>
      <trkpt lat="4.2877240" lon="-75.8712220">
        <ele>1542.4</ele>
        <time>2022-08-14T12:59:20Z</time>
      </trkpt>
      <trkpt lat="4.2877120" lon="-75.8712400">
        <ele>1542.6</ele>
        <time>2022-08-14T12:59:21Z</time>
      </trkpt>
      <trkpt lat="4.2876240" lon="-75.8713710">
        <ele>1543.6</ele>
        <time>2022-08-14T12:59:28Z</time>
      </trkpt>
      <trkpt lat="4.2876130" lon="-75.8713930">
        <ele>1543.4</ele>
        <time>2022-08-14T12:59:29Z</time>
      </trkpt>
      <trkpt lat="4.2875430" lon="-75.8715060">
        <ele>1544.4</ele>
        <time>2022-08-14T12:59:35Z</time>
      </trkpt>
      <trkpt lat="4.2875360" lon="-75.8715250">
        <ele>1544.8</ele>
        <time>2022-08-14T12:59:36Z</time>
      </trkpt>
      <trkpt lat="4.2875340" lon="-75.8716340">
        <ele>1545.4</ele>
        <time>2022-08-14T12:59:41Z</time>
      </trkpt>
      <trkpt lat="4.2875300" lon="-75.8716680">
        <ele>1545.8</ele>
        <time>2022-08-14T12:59:43Z</time>
      </trkpt>
      <trkpt lat="4.2874970" lon="-75.8717750">
        <ele>1546.4</ele>
        <time>2022-08-14T12:59:49Z</time>
      </trkpt>
      <trkpt lat="4.2874710" lon="-75.8718080">
        <ele>1547.0</ele>
        <time>2022-08-14T12:59:51Z</time>
      </trkpt>
      <trkpt lat="4.2873860" lon="-75.8718740">
        <ele>1547.6</ele>
        <time>2022-08-14T12:59:56Z</time>
      </trkpt>
      <trkpt lat="4.2873190" lon="-75.8719010">
        <ele>1548.0</ele>
        <time>2022-08-14T12:59:59Z</time>
      </trkpt>
      <trkpt lat="4.2871670" lon="-75.8719200">
        <ele>1548.6</ele>
        <time>2022-08-14T13:00:05Z</time>
      </trkpt>
      <trkpt lat="4.2870850" lon="-75.8718980">
        <ele>1548.8</ele>
        <time>2022-08-14T13:00:08Z</time>
      </trkpt>
      <trkpt lat="4.2869790" lon="-75.8718440">
        <ele>1549.4</ele>
        <time>2022-08-14T13:00:12Z</time>
      </trkpt>
      <trkpt lat="4.2868750" lon="-75.8717210">
        <ele>1549.8</ele>
        <time>2022-08-14T13:00:18Z</time>
      </trkpt>
      <trkpt lat="4.2868630" lon="-75.8716960">
        <ele>1550.0</ele>
        <time>2022-08-14T13:00:19Z</time>
      </trkpt>
      <trkpt lat="4.2868330" lon="-75.8715270">
        <ele>1551.0</ele>
        <time>2022-08-14T13:00:25Z</time>
      </trkpt>
      <trkpt lat="4.2868190" lon="-75.8713590">
        <ele>1551.2</ele>
        <time>2022-08-14T13:00:29Z</time>
      </trkpt>
      <trkpt lat="4.2868080" lon="-75.8713140">
        <ele>1551.2</ele>
        <time>2022-08-14T13:00:30Z</time>
      </trkpt>
      <trkpt lat="4.2867940" lon="-75.8712710">
        <ele>1551.2</ele>
        <time>2022-08-14T13:00:31Z</time>
      </trkpt>
      <trkpt lat="4.2867410" lon="-75.8711820">
        <ele>1551.2</ele>
        <time>2022-08-14T13:00:33Z</time>
      </trkpt>
      <trkpt lat="4.2867060" lon="-75.8711420">
        <ele>1551.2</ele>
        <time>2022-08-14T13:00:34Z</time>
      </trkpt>
      <trkpt lat="4.2866630" lon="-75.8711100">
        <ele>1551.2</ele>
        <time>2022-08-14T13:00:35Z</time>
      </trkpt>
      <trkpt lat="4.2865310" lon="-75.8710440">
        <ele>1550.0</ele>
        <time>2022-08-14T13:00:38Z</time>
      </trkpt>
      <trkpt lat="4.2864830" lon="-75.8710270">
        <ele>1549.6</ele>
        <time>2022-08-14T13:00:39Z</time>
      </trkpt>
      <trkpt lat="4.2863830" lon="-75.8709940">
        <ele>1548.8</ele>
        <time>2022-08-14T13:00:41Z</time>
      </trkpt>
      <trkpt lat="4.2863370" lon="-75.8709730">
        <ele>1548.4</ele>
        <time>2022-08-14T13:00:42Z</time>
      </trkpt>
      <trkpt lat="4.2862970" lon="-75.8709490">
        <ele>1548.0</ele>
        <time>2022-08-14T13:00:43Z</time>
      </trkpt>
      <trkpt lat="4.2862660" lon="-75.8709170">
        <ele>1548.0</ele>
        <time>2022-08-14T13:00:44Z</time>
      </trkpt>
      <trkpt lat="4.2862160" lon="-75.8708500">
        <ele>1547.4</ele>
        <time>2022-08-14T13:00:46Z</time>
      </trkpt>
      <trkpt lat="4.2861850" lon="-75.8708230">
        <ele>1547.0</ele>
        <time>2022-08-14T13:00:47Z</time>
      </trkpt>
      <trkpt lat="4.2861570" lon="-75.8707910">
        <ele>1547.0</ele>
        <time>2022-08-14T13:00:48Z</time>
      </trkpt>
      <trkpt lat="4.2861360" lon="-75.8707510">
        <ele>1546.6</ele>
        <time>2022-08-14T13:00:49Z</time>
      </trkpt>
      <trkpt lat="4.2860910" lon="-75.8706120">
        <ele>1545.8</ele>
        <time>2022-08-14T13:00:52Z</time>
      </trkpt>
      <trkpt lat="4.2860560" lon="-75.8704510">
        <ele>1544.6</ele>
        <time>2022-08-14T13:00:55Z</time>
      </trkpt>
      <trkpt lat="4.2860440" lon="-75.8702860">
        <ele>1543.8</ele>
        <time>2022-08-14T13:00:58Z</time>
      </trkpt>
      <trkpt lat="4.2860500" lon="-75.8702310">
        <ele>1543.6</ele>
        <time>2022-08-14T13:00:59Z</time>
      </trkpt>
      <trkpt lat="4.2860590" lon="-75.8701770">
        <ele>1543.6</ele>
        <time>2022-08-14T13:01:00Z</time>
      </trkpt>
      <trkpt lat="4.2860740" lon="-75.8700640">
        <ele>1543.0</ele>
        <time>2022-08-14T13:01:02Z</time>
      </trkpt>
      <trkpt lat="4.2860980" lon="-75.8698950">
        <ele>1542.4</ele>
        <time>2022-08-14T13:01:05Z</time>
      </trkpt>
      <trkpt lat="4.2861080" lon="-75.8697860">
        <ele>1542.0</ele>
        <time>2022-08-14T13:01:07Z</time>
      </trkpt>
      <trkpt lat="4.2860920" lon="-75.8696800">
        <ele>1541.8</ele>
        <time>2022-08-14T13:01:09Z</time>
      </trkpt>
      <trkpt lat="4.2860470" lon="-75.8695800">
        <ele>1541.6</ele>
        <time>2022-08-14T13:01:11Z</time>
      </trkpt>
      <trkpt lat="4.2859680" lon="-75.8695010">
        <ele>1541.6</ele>
        <time>2022-08-14T13:01:13Z</time>
      </trkpt>
      <trkpt lat="4.2859290" lon="-75.8694790">
        <ele>1541.6</ele>
        <time>2022-08-14T13:01:14Z</time>
      </trkpt>
      <trkpt lat="4.2858270" lon="-75.8694870">
        <ele>1541.6</ele>
        <time>2022-08-14T13:01:16Z</time>
      </trkpt>
      <trkpt lat="4.2857850" lon="-75.8695050">
        <ele>1541.6</ele>
        <time>2022-08-14T13:01:17Z</time>
      </trkpt>
      <trkpt lat="4.2856590" lon="-75.8695800">
        <ele>1541.6</ele>
        <time>2022-08-14T13:01:20Z</time>
      </trkpt>
      <trkpt lat="4.2855470" lon="-75.8696440">
        <ele>1541.8</ele>
        <time>2022-08-14T13:01:23Z</time>
      </trkpt>
      <trkpt lat="4.2854600" lon="-75.8696550">
        <ele>1541.8</ele>
        <time>2022-08-14T13:01:25Z</time>
      </trkpt>
      <trkpt lat="4.2853650" lon="-75.8696120">
        <ele>1542.0</ele>
        <time>2022-08-14T13:01:28Z</time>
      </trkpt>
      <trkpt lat="4.2853390" lon="-75.8695590">
        <ele>1542.2</ele>
        <time>2022-08-14T13:01:29Z</time>
      </trkpt>
      <trkpt lat="4.2852930" lon="-75.8693990">
        <ele>1543.4</ele>
        <time>2022-08-14T13:01:34Z</time>
      </trkpt>
      <trkpt lat="4.2852130" lon="-75.8692380">
        <ele>1543.8</ele>
        <time>2022-08-14T13:01:39Z</time>
      </trkpt>
      <trkpt lat="4.2850760" lon="-75.8691680">
        <ele>1544.0</ele>
        <time>2022-08-14T13:01:44Z</time>
      </trkpt>
      <trkpt lat="4.2850050" lon="-75.8691430">
        <ele>1544.4</ele>
        <time>2022-08-14T13:01:48Z</time>
      </trkpt>
      <trkpt lat="4.2849660" lon="-75.8691370">
        <ele>1544.8</ele>
        <time>2022-08-14T13:01:50Z</time>
      </trkpt>
      <trkpt lat="4.2849170" lon="-75.8691230">
        <ele>1545.4</ele>
        <time>2022-08-14T13:01:53Z</time>
      </trkpt>
      <trkpt lat="4.2848310" lon="-75.8691060">
        <ele>1546.6</ele>
        <time>2022-08-14T13:01:58Z</time>
      </trkpt>
      <trkpt lat="4.2848150" lon="-75.8691030">
        <ele>1546.8</ele>
        <time>2022-08-14T13:01:59Z</time>
      </trkpt>
      <trkpt lat="4.2847260" lon="-75.8690970">
        <ele>1547.8</ele>
        <time>2022-08-14T13:02:04Z</time>
      </trkpt>
      <trkpt lat="4.2846960" lon="-75.8690870">
        <ele>1548.2</ele>
        <time>2022-08-14T13:02:06Z</time>
      </trkpt>
      <trkpt lat="4.2846480" lon="-75.8690560">
        <ele>1548.8</ele>
        <time>2022-08-14T13:02:09Z</time>
      </trkpt>
      <trkpt lat="4.2846100" lon="-75.8690120">
        <ele>1549.2</ele>
        <time>2022-08-14T13:02:12Z</time>
      </trkpt>
      <trkpt lat="4.2845680" lon="-75.8689690">
        <ele>1549.8</ele>
        <time>2022-08-14T13:02:15Z</time>
      </trkpt>
      <trkpt lat="4.2845540" lon="-75.8689520">
        <ele>1549.8</ele>
        <time>2022-08-14T13:02:16Z</time>
      </trkpt>
      <trkpt lat="4.2844880" lon="-75.8688690">
        <ele>1550.4</ele>
        <time>2022-08-14T13:02:20Z</time>
      </trkpt>
      <trkpt lat="4.2843920" lon="-75.8686930">
        <ele>1551.0</ele>
        <time>2022-08-14T13:02:27Z</time>
      </trkpt>
      <trkpt lat="4.2843180" lon="-75.8685180">
        <ele>1551.4</ele>
        <time>2022-08-14T13:02:34Z</time>
      </trkpt>
      <trkpt lat="4.2842880" lon="-75.8684200">
        <ele>1551.6</ele>
        <time>2022-08-14T13:02:38Z</time>
      </trkpt>
      <trkpt lat="4.2842300" lon="-75.8683350">
        <ele>1551.6</ele>
        <time>2022-08-14T13:02:41Z</time>
      </trkpt>
      <trkpt lat="4.2841980" lon="-75.8683150">
        <ele>1551.6</ele>
        <time>2022-08-14T13:02:42Z</time>
      </trkpt>
      <trkpt lat="4.2840360" lon="-75.8682720">
        <ele>1551.6</ele>
        <time>2022-08-14T13:02:46Z</time>
      </trkpt>
      <trkpt lat="4.2839900" lon="-75.8682740">
        <ele>1551.6</ele>
        <time>2022-08-14T13:02:47Z</time>
      </trkpt>
      <trkpt lat="4.2837920" lon="-75.8682850">
        <ele>1551.2</ele>
        <time>2022-08-14T13:02:51Z</time>
      </trkpt>
      <trkpt lat="4.2836600" lon="-75.8683030">
        <ele>1551.0</ele>
        <time>2022-08-14T13:02:53Z</time>
      </trkpt>
      <trkpt lat="4.2835590" lon="-75.8683460">
        <ele>1550.6</ele>
        <time>2022-08-14T13:02:55Z</time>
      </trkpt>
      <trkpt lat="4.2834630" lon="-75.8684150">
        <ele>1550.6</ele>
        <time>2022-08-14T13:02:57Z</time>
      </trkpt>
      <trkpt lat="4.2834230" lon="-75.8684520">
        <ele>1550.4</ele>
        <time>2022-08-14T13:02:58Z</time>
      </trkpt>
      <trkpt lat="4.2833890" lon="-75.8684910">
        <ele>1549.8</ele>
        <time>2022-08-14T13:02:59Z</time>
      </trkpt>
      <trkpt lat="4.2832740" lon="-75.8685840">
        <ele>1548.6</ele>
        <time>2022-08-14T13:03:02Z</time>
      </trkpt>
      <trkpt lat="4.2832210" lon="-75.8686080">
        <ele>1548.4</ele>
        <time>2022-08-14T13:03:03Z</time>
      </trkpt>
      <trkpt lat="4.2831840" lon="-75.8686200">
        <ele>1548.2</ele>
        <time>2022-08-14T13:03:04Z</time>
      </trkpt>
      <trkpt lat="4.2829970" lon="-75.8686480">
        <ele>1548.0</ele>
        <time>2022-08-14T13:03:08Z</time>
      </trkpt>
      <trkpt lat="4.2829130" lon="-75.8686740">
        <ele>1548.0</ele>
        <time>2022-08-14T13:03:10Z</time>
      </trkpt>
      <trkpt lat="4.2828370" lon="-75.8686830">
        <ele>1548.0</ele>
        <time>2022-08-14T13:03:12Z</time>
      </trkpt>
      <trkpt lat="4.2826400" lon="-75.8686430">
        <ele>1548.0</ele>
        <time>2022-08-14T13:03:17Z</time>
      </trkpt>
      <trkpt lat="4.2824020" lon="-75.8685190">
        <ele>1548.0</ele>
        <time>2022-08-14T13:03:22Z</time>
      </trkpt>
      <trkpt lat="4.2822130" lon="-75.8683820">
        <ele>1547.4</ele>
        <time>2022-08-14T13:03:26Z</time>
      </trkpt>
      <trkpt lat="4.2821510" lon="-75.8682890">
        <ele>1546.6</ele>
        <time>2022-08-14T13:03:28Z</time>
      </trkpt>
      <trkpt lat="4.2821030" lon="-75.8682020">
        <ele>1546.0</ele>
        <time>2022-08-14T13:03:30Z</time>
      </trkpt>
      <trkpt lat="4.2820300" lon="-75.8681350">
        <ele>1545.4</ele>
        <time>2022-08-14T13:03:32Z</time>
      </trkpt>
      <trkpt lat="4.2819850" lon="-75.8681180">
        <ele>1545.0</ele>
        <time>2022-08-14T13:03:33Z</time>
      </trkpt>
      <trkpt lat="4.2819330" lon="-75.8681240">
        <ele>1544.8</ele>
        <time>2022-08-14T13:03:34Z</time>
      </trkpt>
      <trkpt lat="4.2818810" lon="-75.8681490">
        <ele>1544.8</ele>
        <time>2022-08-14T13:03:35Z</time>
      </trkpt>
      <trkpt lat="4.2818340" lon="-75.8681850">
        <ele>1544.4</ele>
        <time>2022-08-14T13:03:36Z</time>
      </trkpt>
      <trkpt lat="4.2817410" lon="-75.8682640">
        <ele>1543.6</ele>
        <time>2022-08-14T13:03:38Z</time>
      </trkpt>
      <trkpt lat="4.2816910" lon="-75.8682990">
        <ele>1542.6</ele>
        <time>2022-08-14T13:03:39Z</time>
      </trkpt>
      <trkpt lat="4.2816400" lon="-75.8683220">
        <ele>1541.8</ele>
        <time>2022-08-14T13:03:40Z</time>
      </trkpt>
      <trkpt lat="4.2815870" lon="-75.8683330">
        <ele>1541.4</ele>
        <time>2022-08-14T13:03:41Z</time>
      </trkpt>
      <trkpt lat="4.2814820" lon="-75.8683270">
        <ele>1540.8</ele>
        <time>2022-08-14T13:03:43Z</time>
      </trkpt>
      <trkpt lat="4.2814290" lon="-75.8683040">
        <ele>1540.2</ele>
        <time>2022-08-14T13:03:44Z</time>
      </trkpt>
      <trkpt lat="4.2813790" lon="-75.8682690">
        <ele>1540.2</ele>
        <time>2022-08-14T13:03:45Z</time>
      </trkpt>
      <trkpt lat="4.2813330" lon="-75.8682220">
        <ele>1539.8</ele>
        <time>2022-08-14T13:03:46Z</time>
      </trkpt>
      <trkpt lat="4.2812550" lon="-75.8681360">
        <ele>1539.0</ele>
        <time>2022-08-14T13:03:48Z</time>
      </trkpt>
      <trkpt lat="4.2811360" lon="-75.8680040">
        <ele>1538.0</ele>
        <time>2022-08-14T13:03:51Z</time>
      </trkpt>
      <trkpt lat="4.2811160" lon="-75.8679650">
        <ele>1537.6</ele>
        <time>2022-08-14T13:03:52Z</time>
      </trkpt>
      <trkpt lat="4.2811040" lon="-75.8679190">
        <ele>1537.2</ele>
        <time>2022-08-14T13:03:53Z</time>
      </trkpt>
      <trkpt lat="4.2810950" lon="-75.8678630">
        <ele>1536.6</ele>
        <time>2022-08-14T13:03:54Z</time>
      </trkpt>
      <trkpt lat="4.2810960" lon="-75.8678050">
        <ele>1535.8</ele>
        <time>2022-08-14T13:03:55Z</time>
      </trkpt>
      <trkpt lat="4.2811040" lon="-75.8677470">
        <ele>1535.2</ele>
        <time>2022-08-14T13:03:56Z</time>
      </trkpt>
      <trkpt lat="4.2811180" lon="-75.8676410">
        <ele>1534.4</ele>
        <time>2022-08-14T13:03:58Z</time>
      </trkpt>
      <trkpt lat="4.2811020" lon="-75.8675600">
        <ele>1534.0</ele>
        <time>2022-08-14T13:04:00Z</time>
      </trkpt>
      <trkpt lat="4.2810300" lon="-75.8675010">
        <ele>1533.4</ele>
        <time>2022-08-14T13:04:02Z</time>
      </trkpt>
      <trkpt lat="4.2809870" lon="-75.8674990">
        <ele>1532.6</ele>
        <time>2022-08-14T13:04:03Z</time>
      </trkpt>
      <trkpt lat="4.2808650" lon="-75.8675020">
        <ele>1531.0</ele>
        <time>2022-08-14T13:04:05Z</time>
      </trkpt>
      <trkpt lat="4.2807950" lon="-75.8675000">
        <ele>1530.6</ele>
        <time>2022-08-14T13:04:06Z</time>
      </trkpt>
      <trkpt lat="4.2806480" lon="-75.8675020">
        <ele>1530.0</ele>
        <time>2022-08-14T13:04:08Z</time>
      </trkpt>
      <trkpt lat="4.2803630" lon="-75.8675190">
        <ele>1528.8</ele>
        <time>2022-08-14T13:04:12Z</time>
      </trkpt>
      <trkpt lat="4.2802490" lon="-75.8675340">
        <ele>1526.8</ele>
        <time>2022-08-14T13:04:14Z</time>
      </trkpt>
      <trkpt lat="4.2801450" lon="-75.8675300">
        <ele>1525.8</ele>
        <time>2022-08-14T13:04:16Z</time>
      </trkpt>
      <trkpt lat="4.2799920" lon="-75.8674850">
        <ele>1524.8</ele>
        <time>2022-08-14T13:04:19Z</time>
      </trkpt>
      <trkpt lat="4.2797910" lon="-75.8674060">
        <ele>1523.6</ele>
        <time>2022-08-14T13:04:23Z</time>
      </trkpt>
      <trkpt lat="4.2796950" lon="-75.8673650">
        <ele>1523.4</ele>
        <time>2022-08-14T13:04:25Z</time>
      </trkpt>
      <trkpt lat="4.2796040" lon="-75.8673350">
        <ele>1522.2</ele>
        <time>2022-08-14T13:04:27Z</time>
      </trkpt>
      <trkpt lat="4.2795620" lon="-75.8673220">
        <ele>1521.8</ele>
        <time>2022-08-14T13:04:28Z</time>
      </trkpt>
      <trkpt lat="4.2794850" lon="-75.8672760">
        <ele>1521.0</ele>
        <time>2022-08-14T13:04:30Z</time>
      </trkpt>
      <trkpt lat="4.2794540" lon="-75.8672430">
        <ele>1520.4</ele>
        <time>2022-08-14T13:04:31Z</time>
      </trkpt>
      <trkpt lat="4.2794340" lon="-75.8672080">
        <ele>1520.4</ele>
        <time>2022-08-14T13:04:32Z</time>
      </trkpt>
      <trkpt lat="4.2794220" lon="-75.8671620">
        <ele>1520.0</ele>
        <time>2022-08-14T13:04:33Z</time>
      </trkpt>
      <trkpt lat="4.2794160" lon="-75.8670540">
        <ele>1519.2</ele>
        <time>2022-08-14T13:04:35Z</time>
      </trkpt>
      <trkpt lat="4.2794230" lon="-75.8669960">
        <ele>1519.2</ele>
        <time>2022-08-14T13:04:36Z</time>
      </trkpt>
      <trkpt lat="4.2794520" lon="-75.8668800">
        <ele>1518.8</ele>
        <time>2022-08-14T13:04:38Z</time>
      </trkpt>
      <trkpt lat="4.2794720" lon="-75.8668170">
        <ele>1518.6</ele>
        <time>2022-08-14T13:04:39Z</time>
      </trkpt>
      <trkpt lat="4.2795190" lon="-75.8666830">
        <ele>1517.4</ele>
        <time>2022-08-14T13:04:41Z</time>
      </trkpt>
      <trkpt lat="4.2795590" lon="-75.8665710">
        <ele>1516.0</ele>
        <time>2022-08-14T13:04:44Z</time>
      </trkpt>
      <trkpt lat="4.2795570" lon="-75.8665370">
        <ele>1515.6</ele>
        <time>2022-08-14T13:04:45Z</time>
      </trkpt>
      <trkpt lat="4.2794890" lon="-75.8664640">
        <ele>1514.4</ele>
        <time>2022-08-14T13:04:47Z</time>
      </trkpt>
      <trkpt lat="4.2794150" lon="-75.8664350">
        <ele>1513.4</ele>
        <time>2022-08-14T13:04:49Z</time>
      </trkpt>
      <trkpt lat="4.2793240" lon="-75.8664360">
        <ele>1513.0</ele>
        <time>2022-08-14T13:04:51Z</time>
      </trkpt>
      <trkpt lat="4.2791810" lon="-75.8664990">
        <ele>1512.4</ele>
        <time>2022-08-14T13:04:54Z</time>
      </trkpt>
      <trkpt lat="4.2791330" lon="-75.8665190">
        <ele>1512.4</ele>
        <time>2022-08-14T13:04:55Z</time>
      </trkpt>
      <trkpt lat="4.2790860" lon="-75.8665340">
        <ele>1512.4</ele>
        <time>2022-08-14T13:04:56Z</time>
      </trkpt>
      <trkpt lat="4.2789430" lon="-75.8666000">
        <ele>1511.2</ele>
        <time>2022-08-14T13:04:59Z</time>
      </trkpt>
      <trkpt lat="4.2788920" lon="-75.8666220">
        <ele>1510.6</ele>
        <time>2022-08-14T13:05:00Z</time>
      </trkpt>
      <trkpt lat="4.2788260" lon="-75.8666370">
        <ele>1510.4</ele>
        <time>2022-08-14T13:05:01Z</time>
      </trkpt>
      <trkpt lat="4.2787680" lon="-75.8666450">
        <ele>1510.2</ele>
        <time>2022-08-14T13:05:02Z</time>
      </trkpt>
      <trkpt lat="4.2786660" lon="-75.8666460">
        <ele>1509.6</ele>
        <time>2022-08-14T13:05:04Z</time>
      </trkpt>
      <trkpt lat="4.2786090" lon="-75.8666220">
        <ele>1509.0</ele>
        <time>2022-08-14T13:05:05Z</time>
      </trkpt>
      <trkpt lat="4.2785810" lon="-75.8665960">
        <ele>1508.8</ele>
        <time>2022-08-14T13:05:06Z</time>
      </trkpt>
      <trkpt lat="4.2785380" lon="-75.8665090">
        <ele>1508.2</ele>
        <time>2022-08-14T13:05:08Z</time>
      </trkpt>
      <trkpt lat="4.2785330" lon="-75.8664620">
        <ele>1507.8</ele>
        <time>2022-08-14T13:05:09Z</time>
      </trkpt>
      <trkpt lat="4.2785380" lon="-75.8664180">
        <ele>1507.6</ele>
        <time>2022-08-14T13:05:10Z</time>
      </trkpt>
      <trkpt lat="4.2785610" lon="-75.8663250">
        <ele>1507.4</ele>
        <time>2022-08-14T13:05:12Z</time>
      </trkpt>
      <trkpt lat="4.2785760" lon="-75.8662840">
        <ele>1507.2</ele>
        <time>2022-08-14T13:05:13Z</time>
      </trkpt>
      <trkpt lat="4.2785890" lon="-75.8662420">
        <ele>1506.6</ele>
        <time>2022-08-14T13:05:14Z</time>
      </trkpt>
      <trkpt lat="4.2786060" lon="-75.8661410">
        <ele>1505.8</ele>
        <time>2022-08-14T13:05:16Z</time>
      </trkpt>
      <trkpt lat="4.2786070" lon="-75.8660880">
        <ele>1505.2</ele>
        <time>2022-08-14T13:05:17Z</time>
      </trkpt>
      <trkpt lat="4.2786060" lon="-75.8660350">
        <ele>1504.4</ele>
        <time>2022-08-14T13:05:18Z</time>
      </trkpt>
      <trkpt lat="4.2786070" lon="-75.8659840">
        <ele>1504.4</ele>
        <time>2022-08-14T13:05:19Z</time>
      </trkpt>
      <trkpt lat="4.2786120" lon="-75.8659350">
        <ele>1504.0</ele>
        <time>2022-08-14T13:05:20Z</time>
      </trkpt>
      <trkpt lat="4.2786300" lon="-75.8658290">
        <ele>1503.6</ele>
        <time>2022-08-14T13:05:22Z</time>
      </trkpt>
      <trkpt lat="4.2786420" lon="-75.8657700">
        <ele>1503.4</ele>
        <time>2022-08-14T13:05:23Z</time>
      </trkpt>
      <trkpt lat="4.2786600" lon="-75.8657090">
        <ele>1502.4</ele>
        <time>2022-08-14T13:05:24Z</time>
      </trkpt>
      <trkpt lat="4.2786860" lon="-75.8656530">
        <ele>1501.8</ele>
        <time>2022-08-14T13:05:25Z</time>
      </trkpt>
      <trkpt lat="4.2787110" lon="-75.8656090">
        <ele>1501.2</ele>
        <time>2022-08-14T13:05:26Z</time>
      </trkpt>
      <trkpt lat="4.2787210" lon="-75.8655700">
        <ele>1501.0</ele>
        <time>2022-08-14T13:05:27Z</time>
      </trkpt>
      <trkpt lat="4.2787080" lon="-75.8655260">
        <ele>1500.8</ele>
        <time>2022-08-14T13:05:28Z</time>
      </trkpt>
      <trkpt lat="4.2786480" lon="-75.8654640">
        <ele>1500.0</ele>
        <time>2022-08-14T13:05:30Z</time>
      </trkpt>
      <trkpt lat="4.2786100" lon="-75.8654530">
        <ele>1499.8</ele>
        <time>2022-08-14T13:05:31Z</time>
      </trkpt>
      <trkpt lat="4.2785310" lon="-75.8654670">
        <ele>1498.6</ele>
        <time>2022-08-14T13:05:33Z</time>
      </trkpt>
      <trkpt lat="4.2784810" lon="-75.8654880">
        <ele>1498.2</ele>
        <time>2022-08-14T13:05:34Z</time>
      </trkpt>
      <trkpt lat="4.2784290" lon="-75.8655060">
        <ele>1498.0</ele>
        <time>2022-08-14T13:05:35Z</time>
      </trkpt>
      <trkpt lat="4.2783780" lon="-75.8655410">
        <ele>1497.8</ele>
        <time>2022-08-14T13:05:36Z</time>
      </trkpt>
      <trkpt lat="4.2783200" lon="-75.8655850">
        <ele>1497.6</ele>
        <time>2022-08-14T13:05:37Z</time>
      </trkpt>
      <trkpt lat="4.2782410" lon="-75.8656600">
        <ele>1497.4</ele>
        <time>2022-08-14T13:05:39Z</time>
      </trkpt>
      <trkpt lat="4.2780880" lon="-75.8659170">
        <ele>1496.2</ele>
        <time>2022-08-14T13:05:44Z</time>
      </trkpt>
      <trkpt lat="4.2780210" lon="-75.8660130">
        <ele>1495.0</ele>
        <time>2022-08-14T13:05:46Z</time>
      </trkpt>
      <trkpt lat="4.2779420" lon="-75.8660520">
        <ele>1493.8</ele>
        <time>2022-08-14T13:05:48Z</time>
      </trkpt>
      <trkpt lat="4.2778950" lon="-75.8660470">
        <ele>1493.2</ele>
        <time>2022-08-14T13:05:49Z</time>
      </trkpt>
      <trkpt lat="4.2777510" lon="-75.8660060">
        <ele>1492.6</ele>
        <time>2022-08-14T13:05:52Z</time>
      </trkpt>
      <trkpt lat="4.2776960" lon="-75.8659920">
        <ele>1492.2</ele>
        <time>2022-08-14T13:05:53Z</time>
      </trkpt>
      <trkpt lat="4.2775650" lon="-75.8660070">
        <ele>1491.6</ele>
        <time>2022-08-14T13:05:55Z</time>
      </trkpt>
      <trkpt lat="4.2774290" lon="-75.8660360">
        <ele>1491.2</ele>
        <time>2022-08-14T13:05:57Z</time>
      </trkpt>
      <trkpt lat="4.2772420" lon="-75.8660760">
        <ele>1489.8</ele>
        <time>2022-08-14T13:06:00Z</time>
      </trkpt>
      <trkpt lat="4.2771840" lon="-75.8660780">
        <ele>1489.0</ele>
        <time>2022-08-14T13:06:01Z</time>
      </trkpt>
      <trkpt lat="4.2771300" lon="-75.8660710">
        <ele>1488.6</ele>
        <time>2022-08-14T13:06:02Z</time>
      </trkpt>
      <trkpt lat="4.2770780" lon="-75.8660520">
        <ele>1488.2</ele>
        <time>2022-08-14T13:06:03Z</time>
      </trkpt>
      <trkpt lat="4.2770280" lon="-75.8660300">
        <ele>1487.8</ele>
        <time>2022-08-14T13:06:04Z</time>
      </trkpt>
      <trkpt lat="4.2769740" lon="-75.8660080">
        <ele>1487.2</ele>
        <time>2022-08-14T13:06:05Z</time>
      </trkpt>
      <trkpt lat="4.2769290" lon="-75.8659720">
        <ele>1487.2</ele>
        <time>2022-08-14T13:06:06Z</time>
      </trkpt>
      <trkpt lat="4.2768570" lon="-75.8658970">
        <ele>1486.4</ele>
        <time>2022-08-14T13:06:08Z</time>
      </trkpt>
      <trkpt lat="4.2767860" lon="-75.8657750">
        <ele>1485.4</ele>
        <time>2022-08-14T13:06:11Z</time>
      </trkpt>
      <trkpt lat="4.2767730" lon="-75.8656880">
        <ele>1484.4</ele>
        <time>2022-08-14T13:06:13Z</time>
      </trkpt>
      <trkpt lat="4.2768090" lon="-75.8656060">
        <ele>1483.8</ele>
        <time>2022-08-14T13:06:15Z</time>
      </trkpt>
      <trkpt lat="4.2768410" lon="-75.8655680">
        <ele>1483.4</ele>
        <time>2022-08-14T13:06:16Z</time>
      </trkpt>
      <trkpt lat="4.2768800" lon="-75.8655300">
        <ele>1483.2</ele>
        <time>2022-08-14T13:06:17Z</time>
      </trkpt>
      <trkpt lat="4.2770730" lon="-75.8653670">
        <ele>1482.2</ele>
        <time>2022-08-14T13:06:21Z</time>
      </trkpt>
      <trkpt lat="4.2772070" lon="-75.8652650">
        <ele>1480.8</ele>
        <time>2022-08-14T13:06:24Z</time>
      </trkpt>
      <trkpt lat="4.2772620" lon="-75.8652200">
        <ele>1480.0</ele>
        <time>2022-08-14T13:06:25Z</time>
      </trkpt>
      <trkpt lat="4.2772950" lon="-75.8651910">
        <ele>1479.6</ele>
        <time>2022-08-14T13:06:26Z</time>
      </trkpt>
      <trkpt lat="4.2773410" lon="-75.8651450">
        <ele>1479.2</ele>
        <time>2022-08-14T13:06:27Z</time>
      </trkpt>
      <trkpt lat="4.2774260" lon="-75.8650430">
        <ele>1478.4</ele>
        <time>2022-08-14T13:06:30Z</time>
      </trkpt>
      <trkpt lat="4.2774510" lon="-75.8650010">
        <ele>1478.0</ele>
        <time>2022-08-14T13:06:31Z</time>
      </trkpt>
      <trkpt lat="4.2774650" lon="-75.8649600">
        <ele>1477.6</ele>
        <time>2022-08-14T13:06:32Z</time>
      </trkpt>
      <trkpt lat="4.2774700" lon="-75.8649220">
        <ele>1477.4</ele>
        <time>2022-08-14T13:06:33Z</time>
      </trkpt>
      <trkpt lat="4.2774670" lon="-75.8648900">
        <ele>1477.2</ele>
        <time>2022-08-14T13:06:34Z</time>
      </trkpt>
      <trkpt lat="4.2774460" lon="-75.8648480">
        <ele>1477.0</ele>
        <time>2022-08-14T13:06:35Z</time>
      </trkpt>
      <trkpt lat="4.2774190" lon="-75.8648190">
        <ele>1476.2</ele>
        <time>2022-08-14T13:06:36Z</time>
      </trkpt>
      <trkpt lat="4.2773830" lon="-75.8647880">
        <ele>1475.8</ele>
        <time>2022-08-14T13:06:37Z</time>
      </trkpt>
      <trkpt lat="4.2773130" lon="-75.8647140">
        <ele>1475.0</ele>
        <time>2022-08-14T13:06:39Z</time>
      </trkpt>
      <trkpt lat="4.2772880" lon="-75.8646550">
        <ele>1474.8</ele>
        <time>2022-08-14T13:06:40Z</time>
      </trkpt>
      <trkpt lat="4.2772830" lon="-75.8646130">
        <ele>1474.4</ele>
        <time>2022-08-14T13:06:41Z</time>
      </trkpt>
      <trkpt lat="4.2772850" lon="-75.8644300">
        <ele>1473.6</ele>
        <time>2022-08-14T13:06:44Z</time>
      </trkpt>
      <trkpt lat="4.2772880" lon="-75.8643110">
        <ele>1473.0</ele>
        <time>2022-08-14T13:06:46Z</time>
      </trkpt>
      <trkpt lat="4.2772850" lon="-75.8642540">
        <ele>1473.0</ele>
        <time>2022-08-14T13:06:47Z</time>
      </trkpt>
      <trkpt lat="4.2772770" lon="-75.8642000">
        <ele>1472.6</ele>
        <time>2022-08-14T13:06:48Z</time>
      </trkpt>
      <trkpt lat="4.2772740" lon="-75.8641580">
        <ele>1472.4</ele>
        <time>2022-08-14T13:06:49Z</time>
      </trkpt>
      <trkpt lat="4.2772720" lon="-75.8641070">
        <ele>1472.2</ele>
        <time>2022-08-14T13:06:50Z</time>
      </trkpt>
      <trkpt lat="4.2772730" lon="-75.8639790">
        <ele>1471.6</ele>
        <time>2022-08-14T13:06:53Z</time>
      </trkpt>
      <trkpt lat="4.2772710" lon="-75.8639290">
        <ele>1471.6</ele>
        <time>2022-08-14T13:06:54Z</time>
      </trkpt>
      <trkpt lat="4.2772530" lon="-75.8638160">
        <ele>1471.2</ele>
        <time>2022-08-14T13:06:56Z</time>
      </trkpt>
      <trkpt lat="4.2772250" lon="-75.8637240">
        <ele>1470.4</ele>
        <time>2022-08-14T13:06:58Z</time>
      </trkpt>
      <trkpt lat="4.2771470" lon="-75.8635660">
        <ele>1470.0</ele>
        <time>2022-08-14T13:07:01Z</time>
      </trkpt>
      <trkpt lat="4.2770780" lon="-75.8634480">
        <ele>1469.2</ele>
        <time>2022-08-14T13:07:04Z</time>
      </trkpt>
      <trkpt lat="4.2770080" lon="-75.8633600">
        <ele>1468.4</ele>
        <time>2022-08-14T13:07:06Z</time>
      </trkpt>
      <trkpt lat="4.2769770" lon="-75.8633330">
        <ele>1467.8</ele>
        <time>2022-08-14T13:07:07Z</time>
      </trkpt>
      <trkpt lat="4.2769350" lon="-75.8633040">
        <ele>1467.4</ele>
        <time>2022-08-14T13:07:08Z</time>
      </trkpt>
      <trkpt lat="4.2768450" lon="-75.8632590">
        <ele>1467.0</ele>
        <time>2022-08-14T13:07:10Z</time>
      </trkpt>
      <trkpt lat="4.2767870" lon="-75.8632430">
        <ele>1466.6</ele>
        <time>2022-08-14T13:07:11Z</time>
      </trkpt>
      <trkpt lat="4.2766960" lon="-75.8632440">
        <ele>1466.2</ele>
        <time>2022-08-14T13:07:13Z</time>
      </trkpt>
      <trkpt lat="4.2766000" lon="-75.8632690">
        <ele>1466.2</ele>
        <time>2022-08-14T13:07:15Z</time>
      </trkpt>
      <trkpt lat="4.2765110" lon="-75.8633240">
        <ele>1466.0</ele>
        <time>2022-08-14T13:07:19Z</time>
      </trkpt>
      <trkpt lat="4.2764790" lon="-75.8634450">
        <ele>1466.0</ele>
        <time>2022-08-14T13:07:24Z</time>
      </trkpt>
      <trkpt lat="4.2764750" lon="-75.8636540">
        <ele>1466.2</ele>
        <time>2022-08-14T13:07:30Z</time>
      </trkpt>
      <trkpt lat="4.2764040" lon="-75.8637930">
        <ele>1466.4</ele>
        <time>2022-08-14T13:07:35Z</time>
      </trkpt>
      <trkpt lat="4.2762540" lon="-75.8638940">
        <ele>1466.8</ele>
        <time>2022-08-14T13:07:40Z</time>
      </trkpt>
      <trkpt lat="4.2762210" lon="-75.8639110">
        <ele>1467.0</ele>
        <time>2022-08-14T13:07:41Z</time>
      </trkpt>
      <trkpt lat="4.2760630" lon="-75.8639790">
        <ele>1467.6</ele>
        <time>2022-08-14T13:07:46Z</time>
      </trkpt>
      <trkpt lat="4.2760340" lon="-75.8639920">
        <ele>1468.0</ele>
        <time>2022-08-14T13:07:47Z</time>
      </trkpt>
      <trkpt lat="4.2759330" lon="-75.8640250">
        <ele>1468.4</ele>
        <time>2022-08-14T13:07:50Z</time>
      </trkpt>
      <trkpt lat="4.2757790" lon="-75.8640870">
        <ele>1469.0</ele>
        <time>2022-08-14T13:07:56Z</time>
      </trkpt>
      <trkpt lat="4.2757540" lon="-75.8640990">
        <ele>1469.2</ele>
        <time>2022-08-14T13:07:57Z</time>
      </trkpt>
      <trkpt lat="4.2756220" lon="-75.8642190">
        <ele>1470.4</ele>
        <time>2022-08-14T13:08:04Z</time>
      </trkpt>
      <trkpt lat="4.2755740" lon="-75.8643760">
        <ele>1471.4</ele>
        <time>2022-08-14T13:08:11Z</time>
      </trkpt>
      <trkpt lat="4.2755660" lon="-75.8643980">
        <ele>1471.6</ele>
        <time>2022-08-14T13:08:12Z</time>
      </trkpt>
      <trkpt lat="4.2754980" lon="-75.8645260">
        <ele>1472.6</ele>
        <time>2022-08-14T13:08:18Z</time>
      </trkpt>
      <trkpt lat="4.2754770" lon="-75.8645630">
        <ele>1473.0</ele>
        <time>2022-08-14T13:08:20Z</time>
      </trkpt>
      <trkpt lat="4.2754450" lon="-75.8647040">
        <ele>1473.6</ele>
        <time>2022-08-14T13:08:26Z</time>
      </trkpt>
      <trkpt lat="4.2754790" lon="-75.8649120">
        <ele>1474.6</ele>
        <time>2022-08-14T13:08:35Z</time>
      </trkpt>
      <trkpt lat="4.2754430" lon="-75.8650910">
        <ele>1475.6</ele>
        <time>2022-08-14T13:08:43Z</time>
      </trkpt>
      <trkpt lat="4.2754140" lon="-75.8651250">
        <ele>1476.0</ele>
        <time>2022-08-14T13:08:45Z</time>
      </trkpt>
      <trkpt lat="4.2753180" lon="-75.8652050">
        <ele>1476.6</ele>
        <time>2022-08-14T13:08:50Z</time>
      </trkpt>
      <trkpt lat="4.2753040" lon="-75.8652260">
        <ele>1476.6</ele>
        <time>2022-08-14T13:08:51Z</time>
      </trkpt>
      <trkpt lat="4.2752790" lon="-75.8653180">
        <ele>1476.8</ele>
        <time>2022-08-14T13:08:55Z</time>
      </trkpt>
      <trkpt lat="4.2752920" lon="-75.8654420">
        <ele>1477.6</ele>
        <time>2022-08-14T13:09:01Z</time>
      </trkpt>
      <trkpt lat="4.2752980" lon="-75.8654600">
        <ele>1477.8</ele>
        <time>2022-08-14T13:09:02Z</time>
      </trkpt>
      <trkpt lat="4.2753700" lon="-75.8655700">
        <ele>1478.8</ele>
        <time>2022-08-14T13:09:08Z</time>
      </trkpt>
      <trkpt lat="4.2753810" lon="-75.8657380">
        <ele>1479.4</ele>
        <time>2022-08-14T13:09:16Z</time>
      </trkpt>
      <trkpt lat="4.2753410" lon="-75.8658060">
        <ele>1479.8</ele>
        <time>2022-08-14T13:09:19Z</time>
      </trkpt>
      <trkpt lat="4.2752840" lon="-75.8658490">
        <ele>1480.4</ele>
        <time>2022-08-14T13:09:22Z</time>
      </trkpt>
      <trkpt lat="4.2752170" lon="-75.8658780">
        <ele>1481.0</ele>
        <time>2022-08-14T13:09:25Z</time>
      </trkpt>
      <trkpt lat="4.2751240" lon="-75.8659090">
        <ele>1481.6</ele>
        <time>2022-08-14T13:09:29Z</time>
      </trkpt>
      <trkpt lat="4.2750440" lon="-75.8659270">
        <ele>1481.8</ele>
        <time>2022-08-14T13:09:32Z</time>
      </trkpt>
      <trkpt lat="4.2749410" lon="-75.8659460">
        <ele>1482.0</ele>
        <time>2022-08-14T13:09:36Z</time>
      </trkpt>
      <trkpt lat="4.2748080" lon="-75.8660140">
        <ele>1483.0</ele>
        <time>2022-08-14T13:09:42Z</time>
      </trkpt>
      <trkpt lat="4.2747940" lon="-75.8660390">
        <ele>1483.0</ele>
        <time>2022-08-14T13:09:43Z</time>
      </trkpt>
      <trkpt lat="4.2747770" lon="-75.8661770">
        <ele>1483.6</ele>
        <time>2022-08-14T13:09:49Z</time>
      </trkpt>
      <trkpt lat="4.2747880" lon="-75.8662280">
        <ele>1484.0</ele>
        <time>2022-08-14T13:09:51Z</time>
      </trkpt>
      <trkpt lat="4.2748010" lon="-75.8663460">
        <ele>1485.2</ele>
        <time>2022-08-14T13:09:56Z</time>
      </trkpt>
      <trkpt lat="4.2747430" lon="-75.8664700">
        <ele>1486.0</ele>
        <time>2022-08-14T13:10:02Z</time>
      </trkpt>
      <trkpt lat="4.2746780" lon="-75.8665130">
        <ele>1486.2</ele>
        <time>2022-08-14T13:10:05Z</time>
      </trkpt>
      <trkpt lat="4.2745990" lon="-75.8665390">
        <ele>1486.6</ele>
        <time>2022-08-14T13:10:08Z</time>
      </trkpt>
      <trkpt lat="4.2745190" lon="-75.8665440">
        <ele>1487.4</ele>
        <time>2022-08-14T13:10:11Z</time>
      </trkpt>
      <trkpt lat="4.2744150" lon="-75.8665610">
        <ele>1487.8</ele>
        <time>2022-08-14T13:10:15Z</time>
      </trkpt>
      <trkpt lat="4.2743200" lon="-75.8666150">
        <ele>1488.4</ele>
        <time>2022-08-14T13:10:19Z</time>
      </trkpt>
      <trkpt lat="4.2742870" lon="-75.8666550">
        <ele>1488.6</ele>
        <time>2022-08-14T13:10:21Z</time>
      </trkpt>
      <trkpt lat="4.2742430" lon="-75.8668360">
        <ele>1489.6</ele>
        <time>2022-08-14T13:10:28Z</time>
      </trkpt>
      <trkpt lat="4.2743080" lon="-75.8670410">
        <ele>1490.6</ele>
        <time>2022-08-14T13:10:36Z</time>
      </trkpt>
      <trkpt lat="4.2743240" lon="-75.8670620">
        <ele>1490.8</ele>
        <time>2022-08-14T13:10:37Z</time>
      </trkpt>
      <trkpt lat="4.2744510" lon="-75.8671810">
        <ele>1491.6</ele>
        <time>2022-08-14T13:10:43Z</time>
      </trkpt>
      <trkpt lat="4.2744610" lon="-75.8672060">
        <ele>1491.8</ele>
        <time>2022-08-14T13:10:44Z</time>
      </trkpt>
      <trkpt lat="4.2744740" lon="-75.8673060">
        <ele>1492.4</ele>
        <time>2022-08-14T13:10:48Z</time>
      </trkpt>
      <trkpt lat="4.2744710" lon="-75.8673310">
        <ele>1492.4</ele>
        <time>2022-08-14T13:10:49Z</time>
      </trkpt>
      <trkpt lat="4.2744640" lon="-75.8674430">
        <ele>1493.0</ele>
        <time>2022-08-14T13:10:53Z</time>
      </trkpt>
      <trkpt lat="4.2744710" lon="-75.8675580">
        <ele>1493.6</ele>
        <time>2022-08-14T13:10:57Z</time>
      </trkpt>
      <trkpt lat="4.2744750" lon="-75.8676160">
        <ele>1494.0</ele>
        <time>2022-08-14T13:10:59Z</time>
      </trkpt>
      <trkpt lat="4.2745000" lon="-75.8678140">
        <ele>1495.0</ele>
        <time>2022-08-14T13:11:06Z</time>
      </trkpt>
      <trkpt lat="4.2744740" lon="-75.8679750">
        <ele>1496.0</ele>
        <time>2022-08-14T13:11:12Z</time>
      </trkpt>
      <trkpt lat="4.2744530" lon="-75.8680230">
        <ele>1496.4</ele>
        <time>2022-08-14T13:11:14Z</time>
      </trkpt>
      <trkpt lat="4.2743460" lon="-75.8681300">
        <ele>1496.8</ele>
        <time>2022-08-14T13:11:20Z</time>
      </trkpt>
      <trkpt lat="4.2743180" lon="-75.8681370">
        <ele>1497.0</ele>
        <time>2022-08-14T13:11:21Z</time>
      </trkpt>
      <trkpt lat="4.2742000" lon="-75.8681190">
        <ele>1497.8</ele>
        <time>2022-08-14T13:11:25Z</time>
      </trkpt>
      <trkpt lat="4.2741710" lon="-75.8681020">
        <ele>1498.0</ele>
        <time>2022-08-14T13:11:26Z</time>
      </trkpt>
      <trkpt lat="4.2740620" lon="-75.8680200">
        <ele>1498.2</ele>
        <time>2022-08-14T13:11:30Z</time>
      </trkpt>
      <trkpt lat="4.2739450" lon="-75.8679280">
        <ele>1498.2</ele>
        <time>2022-08-14T13:11:34Z</time>
      </trkpt>
      <trkpt lat="4.2738380" lon="-75.8678680">
        <ele>1498.2</ele>
        <time>2022-08-14T13:11:37Z</time>
      </trkpt>
      <trkpt lat="4.2737240" lon="-75.8678410">
        <ele>1498.0</ele>
        <time>2022-08-14T13:11:40Z</time>
      </trkpt>
      <trkpt lat="4.2735910" lon="-75.8678580">
        <ele>1497.8</ele>
        <time>2022-08-14T13:11:43Z</time>
      </trkpt>
      <trkpt lat="4.2735110" lon="-75.8679000">
        <ele>1497.4</ele>
        <time>2022-08-14T13:11:45Z</time>
      </trkpt>
      <trkpt lat="4.2734060" lon="-75.8679770">
        <ele>1496.8</ele>
        <time>2022-08-14T13:11:48Z</time>
      </trkpt>
      <trkpt lat="4.2733710" lon="-75.8680010">
        <ele>1496.8</ele>
        <time>2022-08-14T13:11:49Z</time>
      </trkpt>
      <trkpt lat="4.2732280" lon="-75.8681090">
        <ele>1496.4</ele>
        <time>2022-08-14T13:11:53Z</time>
      </trkpt>
      <trkpt lat="4.2731930" lon="-75.8681280">
        <ele>1496.2</ele>
        <time>2022-08-14T13:11:54Z</time>
      </trkpt>
      <trkpt lat="4.2731360" lon="-75.8681510">
        <ele>1496.2</ele>
        <time>2022-08-14T13:11:55Z</time>
      </trkpt>
      <trkpt lat="4.2730080" lon="-75.8681780">
        <ele>1496.0</ele>
        <time>2022-08-14T13:11:58Z</time>
      </trkpt>
      <trkpt lat="4.2729600" lon="-75.8681790">
        <ele>1495.8</ele>
        <time>2022-08-14T13:11:59Z</time>
      </trkpt>
      <trkpt lat="4.2729090" lon="-75.8681780">
        <ele>1495.8</ele>
        <time>2022-08-14T13:12:00Z</time>
      </trkpt>
      <trkpt lat="4.2727960" lon="-75.8681880">
        <ele>1495.4</ele>
        <time>2022-08-14T13:12:02Z</time>
      </trkpt>
      <trkpt lat="4.2726980" lon="-75.8682230">
        <ele>1494.8</ele>
        <time>2022-08-14T13:12:04Z</time>
      </trkpt>
      <trkpt lat="4.2726630" lon="-75.8682540">
        <ele>1494.4</ele>
        <time>2022-08-14T13:12:05Z</time>
      </trkpt>
      <trkpt lat="4.2726410" lon="-75.8682920">
        <ele>1493.8</ele>
        <time>2022-08-14T13:12:06Z</time>
      </trkpt>
      <trkpt lat="4.2726280" lon="-75.8683310">
        <ele>1493.4</ele>
        <time>2022-08-14T13:12:07Z</time>
      </trkpt>
      <trkpt lat="4.2726260" lon="-75.8683710">
        <ele>1492.4</ele>
        <time>2022-08-14T13:12:08Z</time>
      </trkpt>
      <trkpt lat="4.2726340" lon="-75.8684100">
        <ele>1491.8</ele>
        <time>2022-08-14T13:12:09Z</time>
      </trkpt>
      <trkpt lat="4.2726470" lon="-75.8684490">
        <ele>1491.4</ele>
        <time>2022-08-14T13:12:10Z</time>
      </trkpt>
      <trkpt lat="4.2727060" lon="-75.8685590">
        <ele>1490.8</ele>
        <time>2022-08-14T13:12:13Z</time>
      </trkpt>
      <trkpt lat="4.2727270" lon="-75.8685900">
        <ele>1490.6</ele>
        <time>2022-08-14T13:12:14Z</time>
      </trkpt>
      <trkpt lat="4.2727670" lon="-75.8686430">
        <ele>1490.6</ele>
        <time>2022-08-14T13:12:16Z</time>
      </trkpt>
      <trkpt lat="4.2728820" lon="-75.8687790">
        <ele>1490.8</ele>
        <time>2022-08-14T13:12:22Z</time>
      </trkpt>
      <trkpt lat="4.2729980" lon="-75.8688760">
        <ele>1491.8</ele>
        <time>2022-08-14T13:12:27Z</time>
      </trkpt>
      <trkpt lat="4.2731110" lon="-75.8688890">
        <ele>1492.4</ele>
        <time>2022-08-14T13:12:31Z</time>
      </trkpt>
      <trkpt lat="4.2731650" lon="-75.8688840">
        <ele>1492.8</ele>
        <time>2022-08-14T13:12:33Z</time>
      </trkpt>
      <trkpt lat="4.2731890" lon="-75.8688890">
        <ele>1493.0</ele>
        <time>2022-08-14T13:12:34Z</time>
      </trkpt>
      <trkpt lat="4.2732840" lon="-75.8688960">
        <ele>1494.0</ele>
        <time>2022-08-14T13:12:38Z</time>
      </trkpt>
      <trkpt lat="4.2733110" lon="-75.8689030">
        <ele>1494.2</ele>
        <time>2022-08-14T13:12:39Z</time>
      </trkpt>
      <trkpt lat="4.2734510" lon="-75.8688910">
        <ele>1495.2</ele>
        <time>2022-08-14T13:12:44Z</time>
      </trkpt>
      <trkpt lat="4.2734790" lon="-75.8688970">
        <ele>1495.4</ele>
        <time>2022-08-14T13:12:45Z</time>
      </trkpt>
      <trkpt lat="4.2736260" lon="-75.8689440">
        <ele>1496.4</ele>
        <time>2022-08-14T13:12:50Z</time>
      </trkpt>
      <trkpt lat="4.2736610" lon="-75.8689900">
        <ele>1496.8</ele>
        <time>2022-08-14T13:12:52Z</time>
      </trkpt>
      <trkpt lat="4.2736920" lon="-75.8691310">
        <ele>1497.6</ele>
        <time>2022-08-14T13:12:57Z</time>
      </trkpt>
      <trkpt lat="4.2737090" lon="-75.8691900">
        <ele>1497.8</ele>
        <time>2022-08-14T13:12:59Z</time>
      </trkpt>
      <trkpt lat="4.2737700" lon="-75.8693210">
        <ele>1498.6</ele>
        <time>2022-08-14T13:13:04Z</time>
      </trkpt>
      <trkpt lat="4.2738040" lon="-75.8693660">
        <ele>1498.8</ele>
        <time>2022-08-14T13:13:06Z</time>
      </trkpt>
      <trkpt lat="4.2738390" lon="-75.8694950">
        <ele>1499.4</ele>
        <time>2022-08-14T13:13:11Z</time>
      </trkpt>
      <trkpt lat="4.2738280" lon="-75.8695210">
        <ele>1499.6</ele>
        <time>2022-08-14T13:13:12Z</time>
      </trkpt>
      <trkpt lat="4.2738000" lon="-75.8696470">
        <ele>1500.4</ele>
        <time>2022-08-14T13:13:17Z</time>
      </trkpt>
      <trkpt lat="4.2737060" lon="-75.8698160">
        <ele>1501.2</ele>
        <time>2022-08-14T13:13:25Z</time>
      </trkpt>
      <trkpt lat="4.2736900" lon="-75.8698340">
        <ele>1501.6</ele>
        <time>2022-08-14T13:13:26Z</time>
      </trkpt>
      <trkpt lat="4.2735630" lon="-75.8699100">
        <ele>1502.6</ele>
        <time>2022-08-14T13:13:32Z</time>
      </trkpt>
      <trkpt lat="4.2733940" lon="-75.8699260">
        <ele>1503.6</ele>
        <time>2022-08-14T13:13:39Z</time>
      </trkpt>
      <trkpt lat="4.2733720" lon="-75.8699300">
        <ele>1503.6</ele>
        <time>2022-08-14T13:13:40Z</time>
      </trkpt>
      <trkpt lat="4.2732300" lon="-75.8699810">
        <ele>1504.4</ele>
        <time>2022-08-14T13:13:46Z</time>
      </trkpt>
      <trkpt lat="4.2731780" lon="-75.8700100">
        <ele>1504.8</ele>
        <time>2022-08-14T13:13:48Z</time>
      </trkpt>
      <trkpt lat="4.2731180" lon="-75.8700550">
        <ele>1505.0</ele>
        <time>2022-08-14T13:13:52Z</time>
      </trkpt>
      <trkpt lat="4.2730900" lon="-75.8700800">
        <ele>1505.4</ele>
        <time>2022-08-14T13:13:54Z</time>
      </trkpt>
      <trkpt lat="4.2730750" lon="-75.8700930">
        <ele>1505.6</ele>
        <time>2022-08-14T13:13:55Z</time>
      </trkpt>
      <trkpt lat="4.2729920" lon="-75.8701790">
        <ele>1506.2</ele>
        <time>2022-08-14T13:13:59Z</time>
      </trkpt>
      <trkpt lat="4.2729760" lon="-75.8701960">
        <ele>1506.4</ele>
        <time>2022-08-14T13:14:00Z</time>
      </trkpt>
      <trkpt lat="4.2729450" lon="-75.8702410">
        <ele>1506.6</ele>
        <time>2022-08-14T13:14:02Z</time>
      </trkpt>
      <trkpt lat="4.2729300" lon="-75.8702700">
        <ele>1506.8</ele>
        <time>2022-08-14T13:14:03Z</time>
      </trkpt>
      <trkpt lat="4.2729000" lon="-75.8703080">
        <ele>1506.8</ele>
        <time>2022-08-14T13:14:05Z</time>
      </trkpt>
      <trkpt lat="4.2728450" lon="-75.8704290">
        <ele>1507.8</ele>
        <time>2022-08-14T13:14:10Z</time>
      </trkpt>
      <trkpt lat="4.2728350" lon="-75.8704520">
        <ele>1508.0</ele>
        <time>2022-08-14T13:14:11Z</time>
      </trkpt>
      <trkpt lat="4.2727790" lon="-75.8705850">
        <ele>1509.0</ele>
        <time>2022-08-14T13:14:16Z</time>
      </trkpt>
      <trkpt lat="4.2727570" lon="-75.8706300">
        <ele>1509.2</ele>
        <time>2022-08-14T13:14:18Z</time>
      </trkpt>
      <trkpt lat="4.2727310" lon="-75.8707660">
        <ele>1510.0</ele>
        <time>2022-08-14T13:14:23Z</time>
      </trkpt>
      <trkpt lat="4.2727360" lon="-75.8707900">
        <ele>1510.2</ele>
        <time>2022-08-14T13:14:24Z</time>
      </trkpt>
      <trkpt lat="4.2727890" lon="-75.8710490">
        <ele>1511.0</ele>
        <time>2022-08-14T13:14:33Z</time>
      </trkpt>
      <trkpt lat="4.2727810" lon="-75.8710750">
        <ele>1511.0</ele>
        <time>2022-08-14T13:14:34Z</time>
      </trkpt>
      <trkpt lat="4.2727170" lon="-75.8711630">
        <ele>1511.4</ele>
        <time>2022-08-14T13:14:38Z</time>
      </trkpt>
      <trkpt lat="4.2726160" lon="-75.8711920">
        <ele>1512.2</ele>
        <time>2022-08-14T13:14:42Z</time>
      </trkpt>
      <trkpt lat="4.2725950" lon="-75.8711980">
        <ele>1512.4</ele>
        <time>2022-08-14T13:14:43Z</time>
      </trkpt>
      <trkpt lat="4.2724760" lon="-75.8712620">
        <ele>1513.2</ele>
        <time>2022-08-14T13:14:48Z</time>
      </trkpt>
      <trkpt lat="4.2724390" lon="-75.8712950">
        <ele>1513.6</ele>
        <time>2022-08-14T13:14:50Z</time>
      </trkpt>
      <trkpt lat="4.2723510" lon="-75.8714230">
        <ele>1514.2</ele>
        <time>2022-08-14T13:14:56Z</time>
      </trkpt>
      <trkpt lat="4.2723350" lon="-75.8714460">
        <ele>1514.4</ele>
        <time>2022-08-14T13:14:57Z</time>
      </trkpt>
      <trkpt lat="4.2721940" lon="-75.8716060">
        <ele>1515.2</ele>
        <time>2022-08-14T13:15:05Z</time>
      </trkpt>
      <trkpt lat="4.2721730" lon="-75.8716190">
        <ele>1515.4</ele>
        <time>2022-08-14T13:15:06Z</time>
      </trkpt>
      <trkpt lat="4.2720690" lon="-75.8716710">
        <ele>1516.0</ele>
        <time>2022-08-14T13:15:11Z</time>
      </trkpt>
      <trkpt lat="4.2719980" lon="-75.8716980">
        <ele>1516.6</ele>
        <time>2022-08-14T13:15:14Z</time>
      </trkpt>
      <trkpt lat="4.2718760" lon="-75.8717440">
        <ele>1517.6</ele>
        <time>2022-08-14T13:15:19Z</time>
      </trkpt>
      <trkpt lat="4.2718030" lon="-75.8717650">
        <ele>1518.0</ele>
        <time>2022-08-14T13:15:22Z</time>
      </trkpt>
      <trkpt lat="4.2716220" lon="-75.8718070">
        <ele>1518.8</ele>
        <time>2022-08-14T13:15:29Z</time>
      </trkpt>
      <trkpt lat="4.2714700" lon="-75.8718380">
        <ele>1519.8</ele>
        <time>2022-08-14T13:15:35Z</time>
      </trkpt>
      <trkpt lat="4.2712870" lon="-75.8718880">
        <ele>1520.8</ele>
        <time>2022-08-14T13:15:43Z</time>
      </trkpt>
      <trkpt lat="4.2712630" lon="-75.8718970">
        <ele>1521.2</ele>
        <time>2022-08-14T13:15:44Z</time>
      </trkpt>
      <trkpt lat="4.2712100" lon="-75.8719370">
        <ele>1521.8</ele>
        <time>2022-08-14T13:15:47Z</time>
      </trkpt>
      <trkpt lat="4.2712090" lon="-75.8719570">
        <ele>1521.8</ele>
        <time>2022-08-14T13:15:48Z</time>
      </trkpt>
      <trkpt lat="4.2712280" lon="-75.8720080">
        <ele>1522.2</ele>
        <time>2022-08-14T13:15:50Z</time>
      </trkpt>
      <trkpt lat="4.2712470" lon="-75.8720270">
        <ele>1522.4</ele>
        <time>2022-08-14T13:15:51Z</time>
      </trkpt>
      <trkpt lat="4.2712950" lon="-75.8720560">
        <ele>1522.6</ele>
        <time>2022-08-14T13:15:53Z</time>
      </trkpt>
      <trkpt lat="4.2715090" lon="-75.8721380">
        <ele>1523.2</ele>
        <time>2022-08-14T13:16:01Z</time>
      </trkpt>
      <trkpt lat="4.2715370" lon="-75.8721590">
        <ele>1523.2</ele>
        <time>2022-08-14T13:16:02Z</time>
      </trkpt>
      <trkpt lat="4.2716500" lon="-75.8722980">
        <ele>1523.8</ele>
        <time>2022-08-14T13:16:08Z</time>
      </trkpt>
      <trkpt lat="4.2716870" lon="-75.8724530">
        <ele>1524.0</ele>
        <time>2022-08-14T13:16:13Z</time>
      </trkpt>
      <trkpt lat="4.2716730" lon="-75.8726010">
        <ele>1524.2</ele>
        <time>2022-08-14T13:16:17Z</time>
      </trkpt>
      <trkpt lat="4.2716720" lon="-75.8726400">
        <ele>1524.2</ele>
        <time>2022-08-14T13:16:18Z</time>
      </trkpt>
      <trkpt lat="4.2716690" lon="-75.8727720">
        <ele>1524.2</ele>
        <time>2022-08-14T13:16:22Z</time>
      </trkpt>
      <trkpt lat="4.2716610" lon="-75.8728000">
        <ele>1524.4</ele>
        <time>2022-08-14T13:16:23Z</time>
      </trkpt>
      <trkpt lat="4.2716010" lon="-75.8729140">
        <ele>1524.8</ele>
        <time>2022-08-14T13:16:28Z</time>
      </trkpt>
      <trkpt lat="4.2715380" lon="-75.8730170">
        <ele>1525.4</ele>
        <time>2022-08-14T13:16:32Z</time>
      </trkpt>
      <trkpt lat="4.2715200" lon="-75.8730720">
        <ele>1525.6</ele>
        <time>2022-08-14T13:16:34Z</time>
      </trkpt>
      <trkpt lat="4.2715160" lon="-75.8732700">
        <ele>1526.2</ele>
        <time>2022-08-14T13:16:41Z</time>
      </trkpt>
      <trkpt lat="4.2715420" lon="-75.8733110">
        <ele>1526.2</ele>
        <time>2022-08-14T13:16:43Z</time>
      </trkpt>
      <trkpt lat="4.2715910" lon="-75.8733600">
        <ele>1526.4</ele>
        <time>2022-08-14T13:16:46Z</time>
      </trkpt>
      <trkpt lat="4.2716510" lon="-75.8734140">
        <ele>1527.2</ele>
        <time>2022-08-14T13:16:50Z</time>
      </trkpt>
      <trkpt lat="4.2716760" lon="-75.8734470">
        <ele>1527.6</ele>
        <time>2022-08-14T13:16:52Z</time>
      </trkpt>
      <trkpt lat="4.2717080" lon="-75.8735020">
        <ele>1528.2</ele>
        <time>2022-08-14T13:16:55Z</time>
      </trkpt>
      <trkpt lat="4.2717450" lon="-75.8736310">
        <ele>1529.2</ele>
        <time>2022-08-14T13:17:01Z</time>
      </trkpt>
      <trkpt lat="4.2717150" lon="-75.8737880">
        <ele>1530.6</ele>
        <time>2022-08-14T13:17:08Z</time>
      </trkpt>
      <trkpt lat="4.2717030" lon="-75.8738090">
        <ele>1530.8</ele>
        <time>2022-08-14T13:17:09Z</time>
      </trkpt>
      <trkpt lat="4.2716240" lon="-75.8739230">
        <ele>1531.8</ele>
        <time>2022-08-14T13:17:15Z</time>
      </trkpt>
      <trkpt lat="4.2715980" lon="-75.8739570">
        <ele>1532.0</ele>
        <time>2022-08-14T13:17:17Z</time>
      </trkpt>
      <trkpt lat="4.2715070" lon="-75.8740750">
        <ele>1532.8</ele>
        <time>2022-08-14T13:17:24Z</time>
      </trkpt>
      <trkpt lat="4.2713870" lon="-75.8741870">
        <ele>1533.6</ele>
        <time>2022-08-14T13:17:31Z</time>
      </trkpt>
      <trkpt lat="4.2713730" lon="-75.8742020">
        <ele>1533.6</ele>
        <time>2022-08-14T13:17:32Z</time>
      </trkpt>
      <trkpt lat="4.2713540" lon="-75.8742150">
        <ele>1533.8</ele>
        <time>2022-08-14T13:17:33Z</time>
      </trkpt>
      <trkpt lat="4.2713090" lon="-75.8742590">
        <ele>1534.2</ele>
        <time>2022-08-14T13:17:36Z</time>
      </trkpt>
      <trkpt lat="4.2712730" lon="-75.8743180">
        <ele>1535.0</ele>
        <time>2022-08-14T13:17:40Z</time>
      </trkpt>
      <trkpt lat="4.2712640" lon="-75.8743340">
        <ele>1535.4</ele>
        <time>2022-08-14T13:17:41Z</time>
      </trkpt>
      <trkpt lat="4.2712330" lon="-75.8744420">
        <ele>1536.2</ele>
        <time>2022-08-14T13:17:47Z</time>
      </trkpt>
      <trkpt lat="4.2712340" lon="-75.8744630">
        <ele>1536.4</ele>
        <time>2022-08-14T13:17:48Z</time>
      </trkpt>
      <trkpt lat="4.2712810" lon="-75.8745700">
        <ele>1537.2</ele>
        <time>2022-08-14T13:17:54Z</time>
      </trkpt>
      <trkpt lat="4.2713230" lon="-75.8746560">
        <ele>1537.8</ele>
        <time>2022-08-14T13:17:59Z</time>
      </trkpt>
      <trkpt lat="4.2713530" lon="-75.8747280">
        <ele>1538.4</ele>
        <time>2022-08-14T13:18:03Z</time>
      </trkpt>
      <trkpt lat="4.2713800" lon="-75.8748060">
        <ele>1539.0</ele>
        <time>2022-08-14T13:18:07Z</time>
      </trkpt>
      <trkpt lat="4.2713980" lon="-75.8748860">
        <ele>1539.6</ele>
        <time>2022-08-14T13:18:11Z</time>
      </trkpt>
      <trkpt lat="4.2714010" lon="-75.8749740">
        <ele>1540.2</ele>
        <time>2022-08-14T13:18:15Z</time>
      </trkpt>
      <trkpt lat="4.2713990" lon="-75.8749950">
        <ele>1540.4</ele>
        <time>2022-08-14T13:18:16Z</time>
      </trkpt>
      <trkpt lat="4.2713740" lon="-75.8751290">
        <ele>1541.4</ele>
        <time>2022-08-14T13:18:22Z</time>
      </trkpt>
      <trkpt lat="4.2713080" lon="-75.8752770">
        <ele>1542.6</ele>
        <time>2022-08-14T13:18:29Z</time>
      </trkpt>
      <trkpt lat="4.2712160" lon="-75.8754130">
        <ele>1543.8</ele>
        <time>2022-08-14T13:18:36Z</time>
      </trkpt>
      <trkpt lat="4.2711740" lon="-75.8755000">
        <ele>1544.4</ele>
        <time>2022-08-14T13:18:40Z</time>
      </trkpt>
      <trkpt lat="4.2711560" lon="-75.8755670">
        <ele>1545.0</ele>
        <time>2022-08-14T13:18:43Z</time>
      </trkpt>
      <trkpt lat="4.2711480" lon="-75.8756390">
        <ele>1545.4</ele>
        <time>2022-08-14T13:18:46Z</time>
      </trkpt>
      <trkpt lat="4.2711450" lon="-75.8757590">
        <ele>1546.0</ele>
        <time>2022-08-14T13:18:51Z</time>
      </trkpt>
      <trkpt lat="4.2711330" lon="-75.8758270">
        <ele>1546.2</ele>
        <time>2022-08-14T13:18:54Z</time>
      </trkpt>
      <trkpt lat="4.2710410" lon="-75.8759640">
        <ele>1547.0</ele>
        <time>2022-08-14T13:19:01Z</time>
      </trkpt>
      <trkpt lat="4.2709210" lon="-75.8760330">
        <ele>1548.0</ele>
        <time>2022-08-14T13:19:07Z</time>
      </trkpt>
      <trkpt lat="4.2708360" lon="-75.8760800">
        <ele>1549.0</ele>
        <time>2022-08-14T13:19:11Z</time>
      </trkpt>
      <trkpt lat="4.2707870" lon="-75.8761200">
        <ele>1549.4</ele>
        <time>2022-08-14T13:19:14Z</time>
      </trkpt>
      <trkpt lat="4.2706680" lon="-75.8762360">
        <ele>1550.2</ele>
        <time>2022-08-14T13:19:21Z</time>
      </trkpt>
      <trkpt lat="4.2706380" lon="-75.8762760">
        <ele>1550.6</ele>
        <time>2022-08-14T13:19:23Z</time>
      </trkpt>
      <trkpt lat="4.2705620" lon="-75.8763700">
        <ele>1551.2</ele>
        <time>2022-08-14T13:19:28Z</time>
      </trkpt>
      <trkpt lat="4.2705110" lon="-75.8764320">
        <ele>1551.6</ele>
        <time>2022-08-14T13:19:31Z</time>
      </trkpt>
      <trkpt lat="4.2704520" lon="-75.8764950">
        <ele>1552.2</ele>
        <time>2022-08-14T13:19:35Z</time>
      </trkpt>
      <trkpt lat="4.2703640" lon="-75.8765570">
        <ele>1553.0</ele>
        <time>2022-08-14T13:19:40Z</time>
      </trkpt>
      <trkpt lat="4.2703050" lon="-75.8765810">
        <ele>1553.4</ele>
        <time>2022-08-14T13:19:43Z</time>
      </trkpt>
      <trkpt lat="4.2702650" lon="-75.8765800">
        <ele>1553.8</ele>
        <time>2022-08-14T13:19:45Z</time>
      </trkpt>
      <trkpt lat="4.2701980" lon="-75.8765710">
        <ele>1554.4</ele>
        <time>2022-08-14T13:19:48Z</time>
      </trkpt>
      <trkpt lat="4.2700900" lon="-75.8765450">
        <ele>1555.6</ele>
        <time>2022-08-14T13:19:53Z</time>
      </trkpt>
      <trkpt lat="4.2700700" lon="-75.8765400">
        <ele>1555.8</ele>
        <time>2022-08-14T13:19:54Z</time>
      </trkpt>
      <trkpt lat="4.2699450" lon="-75.8765190">
        <ele>1556.6</ele>
        <time>2022-08-14T13:20:00Z</time>
      </trkpt>
      <trkpt lat="4.2697800" lon="-75.8764860">
        <ele>1557.4</ele>
        <time>2022-08-14T13:20:05Z</time>
      </trkpt>
      <trkpt lat="4.2695700" lon="-75.8764230">
        <ele>1557.6</ele>
        <time>2022-08-14T13:20:11Z</time>
      </trkpt>
      <trkpt lat="4.2695300" lon="-75.8764240">
        <ele>1557.6</ele>
        <time>2022-08-14T13:20:12Z</time>
      </trkpt>
      <trkpt lat="4.2694840" lon="-75.8764610">
        <ele>1557.6</ele>
        <time>2022-08-14T13:20:14Z</time>
      </trkpt>
      <trkpt lat="4.2694710" lon="-75.8764910">
        <ele>1557.6</ele>
        <time>2022-08-14T13:20:15Z</time>
      </trkpt>
      <trkpt lat="4.2694450" lon="-75.8765920">
        <ele>1557.6</ele>
        <time>2022-08-14T13:20:18Z</time>
      </trkpt>
      <trkpt lat="4.2694090" lon="-75.8767180">
        <ele>1557.4</ele>
        <time>2022-08-14T13:20:22Z</time>
      </trkpt>
      <trkpt lat="4.2693990" lon="-75.8767480">
        <ele>1557.4</ele>
        <time>2022-08-14T13:20:23Z</time>
      </trkpt>
      <trkpt lat="4.2693630" lon="-75.8768570">
        <ele>1557.2</ele>
        <time>2022-08-14T13:20:27Z</time>
      </trkpt>
      <trkpt lat="4.2693310" lon="-75.8769700">
        <ele>1557.2</ele>
        <time>2022-08-14T13:20:31Z</time>
      </trkpt>
      <trkpt lat="4.2692820" lon="-75.8771980">
        <ele>1556.6</ele>
        <time>2022-08-14T13:20:38Z</time>
      </trkpt>
      <trkpt lat="4.2692560" lon="-75.8773080">
        <ele>1556.6</ele>
        <time>2022-08-14T13:20:42Z</time>
      </trkpt>
      <trkpt lat="4.2692450" lon="-75.8773550">
        <ele>1556.4</ele>
        <time>2022-08-14T13:20:44Z</time>
      </trkpt>
      <trkpt lat="4.2692190" lon="-75.8774270">
        <ele>1556.4</ele>
        <time>2022-08-14T13:20:49Z</time>
      </trkpt>
      <trkpt lat="4.2691640" lon="-75.8775540">
        <ele>1556.4</ele>
        <time>2022-08-14T13:20:54Z</time>
      </trkpt>
      <trkpt lat="4.2691550" lon="-75.8775910">
        <ele>1556.4</ele>
        <time>2022-08-14T13:20:55Z</time>
      </trkpt>
      <trkpt lat="4.2691030" lon="-75.8777870">
        <ele>1556.4</ele>
        <time>2022-08-14T13:20:59Z</time>
      </trkpt>
      <trkpt lat="4.2691000" lon="-75.8778340">
        <ele>1556.4</ele>
        <time>2022-08-14T13:21:00Z</time>
      </trkpt>
      <trkpt lat="4.2691490" lon="-75.8779130">
        <ele>1556.4</ele>
        <time>2022-08-14T13:21:02Z</time>
      </trkpt>
      <trkpt lat="4.2693810" lon="-75.8780070">
        <ele>1556.0</ele>
        <time>2022-08-14T13:21:07Z</time>
      </trkpt>
      <trkpt lat="4.2694350" lon="-75.8780360">
        <ele>1556.0</ele>
        <time>2022-08-14T13:21:08Z</time>
      </trkpt>
      <trkpt lat="4.2695100" lon="-75.8780870">
        <ele>1555.8</ele>
        <time>2022-08-14T13:21:10Z</time>
      </trkpt>
      <trkpt lat="4.2695350" lon="-75.8781210">
        <ele>1555.8</ele>
        <time>2022-08-14T13:21:11Z</time>
      </trkpt>
      <trkpt lat="4.2695500" lon="-75.8781760">
        <ele>1555.6</ele>
        <time>2022-08-14T13:21:12Z</time>
      </trkpt>
      <trkpt lat="4.2695480" lon="-75.8782390">
        <ele>1555.4</ele>
        <time>2022-08-14T13:21:13Z</time>
      </trkpt>
      <trkpt lat="4.2695380" lon="-75.8782980">
        <ele>1555.2</ele>
        <time>2022-08-14T13:21:14Z</time>
      </trkpt>
      <trkpt lat="4.2694530" lon="-75.8786520">
        <ele>1554.4</ele>
        <time>2022-08-14T13:21:18Z</time>
      </trkpt>
      <trkpt lat="4.2694240" lon="-75.8787400">
        <ele>1554.0</ele>
        <time>2022-08-14T13:21:19Z</time>
      </trkpt>
      <trkpt lat="4.2693700" lon="-75.8788910">
        <ele>1552.4</ele>
        <time>2022-08-14T13:21:21Z</time>
      </trkpt>
      <trkpt lat="4.2693360" lon="-75.8789810">
        <ele>1551.2</ele>
        <time>2022-08-14T13:21:22Z</time>
      </trkpt>
      <trkpt lat="4.2693110" lon="-75.8790460">
        <ele>1550.0</ele>
        <time>2022-08-14T13:21:23Z</time>
      </trkpt>
      <trkpt lat="4.2692750" lon="-75.8791540">
        <ele>1548.6</ele>
        <time>2022-08-14T13:21:25Z</time>
      </trkpt>
      <trkpt lat="4.2692600" lon="-75.8792120">
        <ele>1548.2</ele>
        <time>2022-08-14T13:21:26Z</time>
      </trkpt>
      <trkpt lat="4.2692520" lon="-75.8792690">
        <ele>1548.2</ele>
        <time>2022-08-14T13:21:27Z</time>
      </trkpt>
      <trkpt lat="4.2692530" lon="-75.8793320">
        <ele>1548.0</ele>
        <time>2022-08-14T13:21:28Z</time>
      </trkpt>
      <trkpt lat="4.2692910" lon="-75.8794140">
        <ele>1547.8</ele>
        <time>2022-08-14T13:21:30Z</time>
      </trkpt>
      <trkpt lat="4.2693340" lon="-75.8794480">
        <ele>1547.4</ele>
        <time>2022-08-14T13:21:31Z</time>
      </trkpt>
      <trkpt lat="4.2693870" lon="-75.8794660">
        <ele>1547.2</ele>
        <time>2022-08-14T13:21:32Z</time>
      </trkpt>
      <trkpt lat="4.2694440" lon="-75.8794670">
        <ele>1547.0</ele>
        <time>2022-08-14T13:21:33Z</time>
      </trkpt>
      <trkpt lat="4.2695110" lon="-75.8794560">
        <ele>1546.8</ele>
        <time>2022-08-14T13:21:34Z</time>
      </trkpt>
      <trkpt lat="4.2696500" lon="-75.8794210">
        <ele>1546.4</ele>
        <time>2022-08-14T13:21:37Z</time>
      </trkpt>
      <trkpt lat="4.2697010" lon="-75.8794140">
        <ele>1546.2</ele>
        <time>2022-08-14T13:21:38Z</time>
      </trkpt>
      <trkpt lat="4.2697630" lon="-75.8794190">
        <ele>1545.8</ele>
        <time>2022-08-14T13:21:39Z</time>
      </trkpt>
      <trkpt lat="4.2699060" lon="-75.8794860">
        <ele>1545.4</ele>
        <time>2022-08-14T13:21:42Z</time>
      </trkpt>
      <trkpt lat="4.2699580" lon="-75.8795080">
        <ele>1545.2</ele>
        <time>2022-08-14T13:21:43Z</time>
      </trkpt>
      <trkpt lat="4.2700150" lon="-75.8795100">
        <ele>1544.8</ele>
        <time>2022-08-14T13:21:44Z</time>
      </trkpt>
      <trkpt lat="4.2700560" lon="-75.8795010">
        <ele>1544.4</ele>
        <time>2022-08-14T13:21:45Z</time>
      </trkpt>
      <trkpt lat="4.2701050" lon="-75.8794910">
        <ele>1543.6</ele>
        <time>2022-08-14T13:21:46Z</time>
      </trkpt>
      <trkpt lat="4.2702120" lon="-75.8794650">
        <ele>1542.2</ele>
        <time>2022-08-14T13:21:48Z</time>
      </trkpt>
      <trkpt lat="4.2703240" lon="-75.8794450">
        <ele>1540.8</ele>
        <time>2022-08-14T13:21:50Z</time>
      </trkpt>
      <trkpt lat="4.2703780" lon="-75.8794310">
        <ele>1539.4</ele>
        <time>2022-08-14T13:21:51Z</time>
      </trkpt>
      <trkpt lat="4.2704830" lon="-75.8794060">
        <ele>1538.4</ele>
        <time>2022-08-14T13:21:53Z</time>
      </trkpt>
      <trkpt lat="4.2705630" lon="-75.8793640">
        <ele>1537.2</ele>
        <time>2022-08-14T13:21:55Z</time>
      </trkpt>
      <trkpt lat="4.2706010" lon="-75.8793350">
        <ele>1536.6</ele>
        <time>2022-08-14T13:21:56Z</time>
      </trkpt>
      <trkpt lat="4.2706700" lon="-75.8792680">
        <ele>1534.8</ele>
        <time>2022-08-14T13:21:58Z</time>
      </trkpt>
      <trkpt lat="4.2707170" lon="-75.8791990">
        <ele>1533.8</ele>
        <time>2022-08-14T13:22:00Z</time>
      </trkpt>
      <trkpt lat="4.2707450" lon="-75.8791560">
        <ele>1533.4</ele>
        <time>2022-08-14T13:22:01Z</time>
      </trkpt>
      <trkpt lat="4.2707730" lon="-75.8791160">
        <ele>1532.8</ele>
        <time>2022-08-14T13:22:02Z</time>
      </trkpt>
      <trkpt lat="4.2708510" lon="-75.8790400">
        <ele>1532.4</ele>
        <time>2022-08-14T13:22:04Z</time>
      </trkpt>
      <trkpt lat="4.2708880" lon="-75.8790180">
        <ele>1532.2</ele>
        <time>2022-08-14T13:22:05Z</time>
      </trkpt>
      <trkpt lat="4.2709350" lon="-75.8789930">
        <ele>1531.4</ele>
        <time>2022-08-14T13:22:06Z</time>
      </trkpt>
      <trkpt lat="4.2710430" lon="-75.8789500">
        <ele>1530.0</ele>
        <time>2022-08-14T13:22:08Z</time>
      </trkpt>
      <trkpt lat="4.2711490" lon="-75.8789280">
        <ele>1529.0</ele>
        <time>2022-08-14T13:22:10Z</time>
      </trkpt>
      <trkpt lat="4.2712040" lon="-75.8789260">
        <ele>1528.0</ele>
        <time>2022-08-14T13:22:11Z</time>
      </trkpt>
      <trkpt lat="4.2712490" lon="-75.8789310">
        <ele>1527.2</ele>
        <time>2022-08-14T13:22:12Z</time>
      </trkpt>
      <trkpt lat="4.2713880" lon="-75.8789570">
        <ele>1526.4</ele>
        <time>2022-08-14T13:22:14Z</time>
      </trkpt>
      <trkpt lat="4.2714570" lon="-75.8789760">
        <ele>1525.0</ele>
        <time>2022-08-14T13:22:15Z</time>
      </trkpt>
      <trkpt lat="4.2715890" lon="-75.8790130">
        <ele>1523.6</ele>
        <time>2022-08-14T13:22:17Z</time>
      </trkpt>
      <trkpt lat="4.2716820" lon="-75.8790360">
        <ele>1522.8</ele>
        <time>2022-08-14T13:22:18Z</time>
      </trkpt>
      <trkpt lat="4.2717580" lon="-75.8790620">
        <ele>1521.8</ele>
        <time>2022-08-14T13:22:19Z</time>
      </trkpt>
      <trkpt lat="4.2718180" lon="-75.8790880">
        <ele>1520.4</ele>
        <time>2022-08-14T13:22:20Z</time>
      </trkpt>
      <trkpt lat="4.2718900" lon="-75.8791300">
        <ele>1519.2</ele>
        <time>2022-08-14T13:22:21Z</time>
      </trkpt>
      <trkpt lat="4.2719540" lon="-75.8791740">
        <ele>1518.2</ele>
        <time>2022-08-14T13:22:22Z</time>
      </trkpt>
      <trkpt lat="4.2720230" lon="-75.8792190">
        <ele>1516.8</ele>
        <time>2022-08-14T13:22:23Z</time>
      </trkpt>
      <trkpt lat="4.2721120" lon="-75.8792670">
        <ele>1515.2</ele>
        <time>2022-08-14T13:22:25Z</time>
      </trkpt>
      <trkpt lat="4.2722770" lon="-75.8793200">
        <ele>1514.2</ele>
        <time>2022-08-14T13:22:28Z</time>
      </trkpt>
      <trkpt lat="4.2723440" lon="-75.8793440">
        <ele>1514.0</ele>
        <time>2022-08-14T13:22:29Z</time>
      </trkpt>
      <trkpt lat="4.2725470" lon="-75.8794190">
        <ele>1513.2</ele>
        <time>2022-08-14T13:22:32Z</time>
      </trkpt>
      <trkpt lat="4.2727040" lon="-75.8794650">
        <ele>1512.8</ele>
        <time>2022-08-14T13:22:34Z</time>
      </trkpt>
      <trkpt lat="4.2728410" lon="-75.8794740">
        <ele>1511.2</ele>
        <time>2022-08-14T13:22:36Z</time>
      </trkpt>
      <trkpt lat="4.2730090" lon="-75.8794740">
        <ele>1509.4</ele>
        <time>2022-08-14T13:22:38Z</time>
      </trkpt>
      <trkpt lat="4.2730860" lon="-75.8794770">
        <ele>1508.4</ele>
        <time>2022-08-14T13:22:39Z</time>
      </trkpt>
      <trkpt lat="4.2731620" lon="-75.8794820">
        <ele>1507.6</ele>
        <time>2022-08-14T13:22:40Z</time>
      </trkpt>
      <trkpt lat="4.2732220" lon="-75.8794900">
        <ele>1506.8</ele>
        <time>2022-08-14T13:22:41Z</time>
      </trkpt>
      <trkpt lat="4.2734410" lon="-75.8795450">
        <ele>1506.0</ele>
        <time>2022-08-14T13:22:44Z</time>
      </trkpt>
      <trkpt lat="4.2734920" lon="-75.8795650">
        <ele>1506.0</ele>
        <time>2022-08-14T13:22:45Z</time>
      </trkpt>
      <trkpt lat="4.2735770" lon="-75.8796000">
        <ele>1505.6</ele>
        <time>2022-08-14T13:22:47Z</time>
      </trkpt>
      <trkpt lat="4.2736820" lon="-75.8796310">
        <ele>1505.4</ele>
        <time>2022-08-14T13:22:49Z</time>
      </trkpt>
      <trkpt lat="4.2737330" lon="-75.8796360">
        <ele>1505.4</ele>
        <time>2022-08-14T13:22:50Z</time>
      </trkpt>
      <trkpt lat="4.2738820" lon="-75.8796280">
        <ele>1505.2</ele>
        <time>2022-08-14T13:22:53Z</time>
      </trkpt>
      <trkpt lat="4.2739460" lon="-75.8796180">
        <ele>1505.2</ele>
        <time>2022-08-14T13:22:54Z</time>
      </trkpt>
      <trkpt lat="4.2741060" lon="-75.8795780">
        <ele>1505.0</ele>
        <time>2022-08-14T13:22:57Z</time>
      </trkpt>
      <trkpt lat="4.2742060" lon="-75.8795500">
        <ele>1505.2</ele>
        <time>2022-08-14T13:22:59Z</time>
      </trkpt>
      <trkpt lat="4.2742930" lon="-75.8795080">
        <ele>1505.2</ele>
        <time>2022-08-14T13:23:01Z</time>
      </trkpt>
      <trkpt lat="4.2743340" lon="-75.8794910">
        <ele>1505.2</ele>
        <time>2022-08-14T13:23:02Z</time>
      </trkpt>
      <trkpt lat="4.2744550" lon="-75.8794460">
        <ele>1505.6</ele>
        <time>2022-08-14T13:23:06Z</time>
      </trkpt>
      <trkpt lat="4.2745470" lon="-75.8794170">
        <ele>1506.2</ele>
        <time>2022-08-14T13:23:10Z</time>
      </trkpt>
      <trkpt lat="4.2745960" lon="-75.8794240">
        <ele>1507.0</ele>
        <time>2022-08-14T13:23:12Z</time>
      </trkpt>
      <trkpt lat="4.2746690" lon="-75.8794590">
        <ele>1507.4</ele>
        <time>2022-08-14T13:23:15Z</time>
      </trkpt>
      <trkpt lat="4.2747260" lon="-75.8795140">
        <ele>1508.0</ele>
        <time>2022-08-14T13:23:18Z</time>
      </trkpt>
      <trkpt lat="4.2747580" lon="-75.8795790">
        <ele>1508.6</ele>
        <time>2022-08-14T13:23:21Z</time>
      </trkpt>
      <trkpt lat="4.2747850" lon="-75.8796770">
        <ele>1509.2</ele>
        <time>2022-08-14T13:23:24Z</time>
      </trkpt>
      <trkpt lat="4.2747890" lon="-75.8797190">
        <ele>1509.4</ele>
        <time>2022-08-14T13:23:25Z</time>
      </trkpt>
      <trkpt lat="4.2748010" lon="-75.8798530">
        <ele>1509.6</ele>
        <time>2022-08-14T13:23:28Z</time>
      </trkpt>
      <trkpt lat="4.2748230" lon="-75.8799420">
        <ele>1509.6</ele>
        <time>2022-08-14T13:23:30Z</time>
      </trkpt>
      <trkpt lat="4.2748840" lon="-75.8800680">
        <ele>1509.6</ele>
        <time>2022-08-14T13:23:33Z</time>
      </trkpt>
      <trkpt lat="4.2749700" lon="-75.8801690">
        <ele>1509.6</ele>
        <time>2022-08-14T13:23:36Z</time>
      </trkpt>
      <trkpt lat="4.2750760" lon="-75.8802470">
        <ele>1509.4</ele>
        <time>2022-08-14T13:23:39Z</time>
      </trkpt>
      <trkpt lat="4.2751500" lon="-75.8802890">
        <ele>1508.6</ele>
        <time>2022-08-14T13:23:41Z</time>
      </trkpt>
      <trkpt lat="4.2753070" lon="-75.8803850">
        <ele>1508.2</ele>
        <time>2022-08-14T13:23:45Z</time>
      </trkpt>
      <trkpt lat="4.2755160" lon="-75.8804860">
        <ele>1507.6</ele>
        <time>2022-08-14T13:23:50Z</time>
      </trkpt>
      <trkpt lat="4.2755540" lon="-75.8805030">
        <ele>1507.6</ele>
        <time>2022-08-14T13:23:51Z</time>
      </trkpt>
      <trkpt lat="4.2756410" lon="-75.8805330">
        <ele>1507.2</ele>
        <time>2022-08-14T13:23:53Z</time>
      </trkpt>
      <trkpt lat="4.2756950" lon="-75.8805420">
        <ele>1507.0</ele>
        <time>2022-08-14T13:23:54Z</time>
      </trkpt>
      <trkpt lat="4.2757460" lon="-75.8805450">
        <ele>1506.8</ele>
        <time>2022-08-14T13:23:55Z</time>
      </trkpt>
      <trkpt lat="4.2759000" lon="-75.8805570">
        <ele>1506.0</ele>
        <time>2022-08-14T13:23:58Z</time>
      </trkpt>
      <trkpt lat="4.2761110" lon="-75.8806090">
        <ele>1505.0</ele>
        <time>2022-08-14T13:24:02Z</time>
      </trkpt>
      <trkpt lat="4.2763060" lon="-75.8807200">
        <ele>1503.4</ele>
        <time>2022-08-14T13:24:06Z</time>
      </trkpt>
      <trkpt lat="4.2763780" lon="-75.8807890">
        <ele>1502.2</ele>
        <time>2022-08-14T13:24:08Z</time>
      </trkpt>
      <trkpt lat="4.2764360" lon="-75.8808700">
        <ele>1500.6</ele>
        <time>2022-08-14T13:24:10Z</time>
      </trkpt>
      <trkpt lat="4.2764720" lon="-75.8809610">
        <ele>1499.8</ele>
        <time>2022-08-14T13:24:12Z</time>
      </trkpt>
      <trkpt lat="4.2765070" lon="-75.8810590">
        <ele>1499.0</ele>
        <time>2022-08-14T13:24:14Z</time>
      </trkpt>
      <trkpt lat="4.2765290" lon="-75.8811050">
        <ele>1498.2</ele>
        <time>2022-08-14T13:24:15Z</time>
      </trkpt>
      <trkpt lat="4.2765560" lon="-75.8811500">
        <ele>1497.6</ele>
        <time>2022-08-14T13:24:16Z</time>
      </trkpt>
      <trkpt lat="4.2765860" lon="-75.8811920">
        <ele>1497.0</ele>
        <time>2022-08-14T13:24:17Z</time>
      </trkpt>
      <trkpt lat="4.2766200" lon="-75.8812320">
        <ele>1496.6</ele>
        <time>2022-08-14T13:24:18Z</time>
      </trkpt>
      <trkpt lat="4.2766850" lon="-75.8813090">
        <ele>1495.2</ele>
        <time>2022-08-14T13:24:20Z</time>
      </trkpt>
      <trkpt lat="4.2767350" lon="-75.8813910">
        <ele>1494.0</ele>
        <time>2022-08-14T13:24:22Z</time>
      </trkpt>
      <trkpt lat="4.2767530" lon="-75.8814390">
        <ele>1493.8</ele>
        <time>2022-08-14T13:24:23Z</time>
      </trkpt>
      <trkpt lat="4.2767930" lon="-75.8815950">
        <ele>1492.4</ele>
        <time>2022-08-14T13:24:26Z</time>
      </trkpt>
      <trkpt lat="4.2768150" lon="-75.8816860">
        <ele>1491.2</ele>
        <time>2022-08-14T13:24:28Z</time>
      </trkpt>
      <trkpt lat="4.2768220" lon="-75.8817600">
        <ele>1490.6</ele>
        <time>2022-08-14T13:24:30Z</time>
      </trkpt>
      <trkpt lat="4.2768270" lon="-75.8818000">
        <ele>1490.2</ele>
        <time>2022-08-14T13:24:31Z</time>
      </trkpt>
      <trkpt lat="4.2768350" lon="-75.8818370">
        <ele>1489.6</ele>
        <time>2022-08-14T13:24:32Z</time>
      </trkpt>
      <trkpt lat="4.2768430" lon="-75.8819200">
        <ele>1488.8</ele>
        <time>2022-08-14T13:24:34Z</time>
      </trkpt>
      <trkpt lat="4.2768390" lon="-75.8819960">
        <ele>1488.2</ele>
        <time>2022-08-14T13:24:36Z</time>
      </trkpt>
      <trkpt lat="4.2768300" lon="-75.8821040">
        <ele>1487.4</ele>
        <time>2022-08-14T13:24:39Z</time>
      </trkpt>
      <trkpt lat="4.2768220" lon="-75.8821370">
        <ele>1486.8</ele>
        <time>2022-08-14T13:24:40Z</time>
      </trkpt>
      <trkpt lat="4.2767920" lon="-75.8822270">
        <ele>1485.6</ele>
        <time>2022-08-14T13:24:43Z</time>
      </trkpt>
      <trkpt lat="4.2767570" lon="-75.8823100">
        <ele>1484.6</ele>
        <time>2022-08-14T13:24:46Z</time>
      </trkpt>
      <trkpt lat="4.2767030" lon="-75.8824280">
        <ele>1483.2</ele>
        <time>2022-08-14T13:24:50Z</time>
      </trkpt>
      <trkpt lat="4.2766530" lon="-75.8825140">
        <ele>1481.6</ele>
        <time>2022-08-14T13:24:53Z</time>
      </trkpt>
      <trkpt lat="4.2766430" lon="-75.8825500">
        <ele>1481.2</ele>
        <time>2022-08-14T13:24:54Z</time>
      </trkpt>
      <trkpt lat="4.2766480" lon="-75.8825720">
        <ele>1480.4</ele>
        <time>2022-08-14T13:24:55Z</time>
      </trkpt>
      <trkpt lat="4.2767160" lon="-75.8826520">
        <ele>1479.2</ele>
        <time>2022-08-14T13:24:58Z</time>
      </trkpt>
      <trkpt lat="4.2768320" lon="-75.8826910">
        <ele>1477.8</ele>
        <time>2022-08-14T13:25:01Z</time>
      </trkpt>
      <trkpt lat="4.2768780" lon="-75.8826890">
        <ele>1477.4</ele>
        <time>2022-08-14T13:25:02Z</time>
      </trkpt>
      <trkpt lat="4.2769920" lon="-75.8826590">
        <ele>1476.4</ele>
        <time>2022-08-14T13:25:04Z</time>
      </trkpt>
      <trkpt lat="4.2770560" lon="-75.8826360">
        <ele>1476.2</ele>
        <time>2022-08-14T13:25:05Z</time>
      </trkpt>
      <trkpt lat="4.2770960" lon="-75.8826290">
        <ele>1475.4</ele>
        <time>2022-08-14T13:25:06Z</time>
      </trkpt>
      <trkpt lat="4.2771480" lon="-75.8826280">
        <ele>1475.0</ele>
        <time>2022-08-14T13:25:07Z</time>
      </trkpt>
      <trkpt lat="4.2772020" lon="-75.8826390">
        <ele>1474.4</ele>
        <time>2022-08-14T13:25:08Z</time>
      </trkpt>
      <trkpt lat="4.2772570" lon="-75.8826600">
        <ele>1473.6</ele>
        <time>2022-08-14T13:25:09Z</time>
      </trkpt>
      <trkpt lat="4.2773140" lon="-75.8826900">
        <ele>1472.6</ele>
        <time>2022-08-14T13:25:10Z</time>
      </trkpt>
      <trkpt lat="4.2774220" lon="-75.8827520">
        <ele>1471.8</ele>
        <time>2022-08-14T13:25:12Z</time>
      </trkpt>
      <trkpt lat="4.2774720" lon="-75.8827730">
        <ele>1471.0</ele>
        <time>2022-08-14T13:25:13Z</time>
      </trkpt>
      <trkpt lat="4.2775140" lon="-75.8827860">
        <ele>1470.0</ele>
        <time>2022-08-14T13:25:14Z</time>
      </trkpt>
      <trkpt lat="4.2775570" lon="-75.8828000">
        <ele>1469.4</ele>
        <time>2022-08-14T13:25:15Z</time>
      </trkpt>
      <trkpt lat="4.2776080" lon="-75.8828230">
        <ele>1468.2</ele>
        <time>2022-08-14T13:25:17Z</time>
      </trkpt>
      <trkpt lat="4.2776360" lon="-75.8828360">
        <ele>1467.2</ele>
        <time>2022-08-14T13:25:18Z</time>
      </trkpt>
      <trkpt lat="4.2776630" lon="-75.8828500">
        <ele>1466.6</ele>
        <time>2022-08-14T13:25:19Z</time>
      </trkpt>
      <trkpt lat="4.2777400" lon="-75.8828860">
        <ele>1465.6</ele>
        <time>2022-08-14T13:25:22Z</time>
      </trkpt>
      <trkpt lat="4.2777930" lon="-75.8829180">
        <ele>1465.2</ele>
        <time>2022-08-14T13:25:24Z</time>
      </trkpt>
      <trkpt lat="4.2778660" lon="-75.8829570">
        <ele>1464.2</ele>
        <time>2022-08-14T13:25:26Z</time>
      </trkpt>
      <trkpt lat="4.2779450" lon="-75.8829820">
        <ele>1463.2</ele>
        <time>2022-08-14T13:25:28Z</time>
      </trkpt>
      <trkpt lat="4.2780520" lon="-75.8830000">
        <ele>1462.0</ele>
        <time>2022-08-14T13:25:30Z</time>
      </trkpt>
      <trkpt lat="4.2781530" lon="-75.8830030">
        <ele>1460.6</ele>
        <time>2022-08-14T13:25:32Z</time>
      </trkpt>
      <trkpt lat="4.2782110" lon="-75.8830020">
        <ele>1460.6</ele>
        <time>2022-08-14T13:25:33Z</time>
      </trkpt>
      <trkpt lat="4.2783440" lon="-75.8830050">
        <ele>1459.2</ele>
        <time>2022-08-14T13:25:35Z</time>
      </trkpt>
      <trkpt lat="4.2784500" lon="-75.8830100">
        <ele>1458.2</ele>
        <time>2022-08-14T13:25:37Z</time>
      </trkpt>
      <trkpt lat="4.2785050" lon="-75.8830140">
        <ele>1457.6</ele>
        <time>2022-08-14T13:25:38Z</time>
      </trkpt>
      <trkpt lat="4.2785560" lon="-75.8830200">
        <ele>1457.0</ele>
        <time>2022-08-14T13:25:39Z</time>
      </trkpt>
      <trkpt lat="4.2786540" lon="-75.8830460">
        <ele>1456.2</ele>
        <time>2022-08-14T13:25:41Z</time>
      </trkpt>
      <trkpt lat="4.2787000" lon="-75.8830660">
        <ele>1455.8</ele>
        <time>2022-08-14T13:25:42Z</time>
      </trkpt>
      <trkpt lat="4.2787390" lon="-75.8830920">
        <ele>1455.6</ele>
        <time>2022-08-14T13:25:43Z</time>
      </trkpt>
      <trkpt lat="4.2787970" lon="-75.8831630">
        <ele>1455.2</ele>
        <time>2022-08-14T13:25:45Z</time>
      </trkpt>
      <trkpt lat="4.2788210" lon="-75.8832020">
        <ele>1454.8</ele>
        <time>2022-08-14T13:25:46Z</time>
      </trkpt>
      <trkpt lat="4.2788810" lon="-75.8833180">
        <ele>1453.6</ele>
        <time>2022-08-14T13:25:49Z</time>
      </trkpt>
      <trkpt lat="4.2789400" lon="-75.8834340">
        <ele>1452.4</ele>
        <time>2022-08-14T13:25:52Z</time>
      </trkpt>
      <trkpt lat="4.2789630" lon="-75.8834730">
        <ele>1451.8</ele>
        <time>2022-08-14T13:25:53Z</time>
      </trkpt>
      <trkpt lat="4.2789910" lon="-75.8835170">
        <ele>1450.6</ele>
        <time>2022-08-14T13:25:54Z</time>
      </trkpt>
      <trkpt lat="4.2790460" lon="-75.8835980">
        <ele>1449.6</ele>
        <time>2022-08-14T13:25:56Z</time>
      </trkpt>
      <trkpt lat="4.2791090" lon="-75.8836860">
        <ele>1449.0</ele>
        <time>2022-08-14T13:25:58Z</time>
      </trkpt>
      <trkpt lat="4.2791720" lon="-75.8837930">
        <ele>1447.8</ele>
        <time>2022-08-14T13:26:00Z</time>
      </trkpt>
      <trkpt lat="4.2792080" lon="-75.8839160">
        <ele>1446.2</ele>
        <time>2022-08-14T13:26:02Z</time>
      </trkpt>
      <trkpt lat="4.2792190" lon="-75.8839820">
        <ele>1445.0</ele>
        <time>2022-08-14T13:26:03Z</time>
      </trkpt>
      <trkpt lat="4.2792400" lon="-75.8840950">
        <ele>1444.0</ele>
        <time>2022-08-14T13:26:05Z</time>
      </trkpt>
      <trkpt lat="4.2792820" lon="-75.8842070">
        <ele>1442.6</ele>
        <time>2022-08-14T13:26:07Z</time>
      </trkpt>
      <trkpt lat="4.2793100" lon="-75.8842580">
        <ele>1442.0</ele>
        <time>2022-08-14T13:26:08Z</time>
      </trkpt>
      <trkpt lat="4.2793400" lon="-75.8843050">
        <ele>1441.2</ele>
        <time>2022-08-14T13:26:09Z</time>
      </trkpt>
      <trkpt lat="4.2793800" lon="-75.8843470">
        <ele>1440.8</ele>
        <time>2022-08-14T13:26:10Z</time>
      </trkpt>
      <trkpt lat="4.2794290" lon="-75.8843830">
        <ele>1440.4</ele>
        <time>2022-08-14T13:26:11Z</time>
      </trkpt>
      <trkpt lat="4.2794750" lon="-75.8844070">
        <ele>1440.0</ele>
        <time>2022-08-14T13:26:12Z</time>
      </trkpt>
      <trkpt lat="4.2796630" lon="-75.8844730">
        <ele>1439.2</ele>
        <time>2022-08-14T13:26:15Z</time>
      </trkpt>
      <trkpt lat="4.2797290" lon="-75.8844860">
        <ele>1438.4</ele>
        <time>2022-08-14T13:26:16Z</time>
      </trkpt>
      <trkpt lat="4.2800650" lon="-75.8845550">
        <ele>1437.2</ele>
        <time>2022-08-14T13:26:21Z</time>
      </trkpt>
      <trkpt lat="4.2801990" lon="-75.8846010">
        <ele>1436.0</ele>
        <time>2022-08-14T13:26:23Z</time>
      </trkpt>
      <trkpt lat="4.2804140" lon="-75.8846590">
        <ele>1434.8</ele>
        <time>2022-08-14T13:26:26Z</time>
      </trkpt>
      <trkpt lat="4.2805120" lon="-75.8846790">
        <ele>1434.4</ele>
        <time>2022-08-14T13:26:28Z</time>
      </trkpt>
      <trkpt lat="4.2805610" lon="-75.8846890">
        <ele>1434.2</ele>
        <time>2022-08-14T13:26:29Z</time>
      </trkpt>
      <trkpt lat="4.2807520" lon="-75.8847110">
        <ele>1434.0</ele>
        <time>2022-08-14T13:26:33Z</time>
      </trkpt>
      <trkpt lat="4.2809870" lon="-75.8847590">
        <ele>1434.0</ele>
        <time>2022-08-14T13:26:38Z</time>
      </trkpt>
      <trkpt lat="4.2810320" lon="-75.8847620">
        <ele>1434.0</ele>
        <time>2022-08-14T13:26:39Z</time>
      </trkpt>
      <trkpt lat="4.2810850" lon="-75.8847650">
        <ele>1434.0</ele>
        <time>2022-08-14T13:26:40Z</time>
      </trkpt>
      <trkpt lat="4.2811620" lon="-75.8847640">
        <ele>1434.0</ele>
        <time>2022-08-14T13:26:42Z</time>
      </trkpt>
      <trkpt lat="4.2812440" lon="-75.8847610">
        <ele>1434.2</ele>
        <time>2022-08-14T13:26:44Z</time>
      </trkpt>
      <trkpt lat="4.2813920" lon="-75.8847170">
        <ele>1434.4</ele>
        <time>2022-08-14T13:26:49Z</time>
      </trkpt>
      <trkpt lat="4.2815700" lon="-75.8846500">
        <ele>1434.4</ele>
        <time>2022-08-14T13:26:54Z</time>
      </trkpt>
      <trkpt lat="4.2818330" lon="-75.8846570">
        <ele>1434.6</ele>
        <time>2022-08-14T13:27:00Z</time>
      </trkpt>
      <trkpt lat="4.2819200" lon="-75.8846880">
        <ele>1435.0</ele>
        <time>2022-08-14T13:27:02Z</time>
      </trkpt>
      <trkpt lat="4.2819970" lon="-75.8847410">
        <ele>1434.8</ele>
        <time>2022-08-14T13:27:04Z</time>
      </trkpt>
      <trkpt lat="4.2820640" lon="-75.8848090">
        <ele>1434.8</ele>
        <time>2022-08-14T13:27:06Z</time>
      </trkpt>
      <trkpt lat="4.2821170" lon="-75.8849060">
        <ele>1435.0</ele>
        <time>2022-08-14T13:27:09Z</time>
      </trkpt>
      <trkpt lat="4.2821760" lon="-75.8850910">
        <ele>1435.6</ele>
        <time>2022-08-14T13:27:15Z</time>
      </trkpt>
      <trkpt lat="4.2821860" lon="-75.8851350">
        <ele>1435.6</ele>
        <time>2022-08-14T13:27:16Z</time>
      </trkpt>
      <trkpt lat="4.2822270" lon="-75.8852170">
        <ele>1435.6</ele>
        <time>2022-08-14T13:27:18Z</time>
      </trkpt>
      <trkpt lat="4.2822580" lon="-75.8852540">
        <ele>1435.6</ele>
        <time>2022-08-14T13:27:19Z</time>
      </trkpt>
      <trkpt lat="4.2822910" lon="-75.8852900">
        <ele>1435.6</ele>
        <time>2022-08-14T13:27:20Z</time>
      </trkpt>
      <trkpt lat="4.2823740" lon="-75.8853470">
        <ele>1435.6</ele>
        <time>2022-08-14T13:27:22Z</time>
      </trkpt>
      <trkpt lat="4.2824240" lon="-75.8853670">
        <ele>1435.6</ele>
        <time>2022-08-14T13:27:23Z</time>
      </trkpt>
      <trkpt lat="4.2824810" lon="-75.8853870">
        <ele>1434.8</ele>
        <time>2022-08-14T13:27:24Z</time>
      </trkpt>
      <trkpt lat="4.2825990" lon="-75.8854170">
        <ele>1433.8</ele>
        <time>2022-08-14T13:27:27Z</time>
      </trkpt>
      <trkpt lat="4.2826290" lon="-75.8854260">
        <ele>1433.8</ele>
        <time>2022-08-14T13:27:28Z</time>
      </trkpt>
      <trkpt lat="4.2826930" lon="-75.8854430">
        <ele>1432.6</ele>
        <time>2022-08-14T13:27:30Z</time>
      </trkpt>
      <trkpt lat="4.2828180" lon="-75.8854500">
        <ele>1431.6</ele>
        <time>2022-08-14T13:27:33Z</time>
      </trkpt>
      <trkpt lat="4.2829150" lon="-75.8854450">
        <ele>1431.0</ele>
        <time>2022-08-14T13:27:35Z</time>
      </trkpt>
      <trkpt lat="4.2830250" lon="-75.8854390">
        <ele>1430.4</ele>
        <time>2022-08-14T13:27:37Z</time>
      </trkpt>
      <trkpt lat="4.2831810" lon="-75.8854720">
        <ele>1430.0</ele>
        <time>2022-08-14T13:27:40Z</time>
      </trkpt>
      <trkpt lat="4.2832960" lon="-75.8855100">
        <ele>1429.4</ele>
        <time>2022-08-14T13:27:42Z</time>
      </trkpt>
      <trkpt lat="4.2834940" lon="-75.8855620">
        <ele>1428.0</ele>
        <time>2022-08-14T13:27:45Z</time>
      </trkpt>
      <trkpt lat="4.2836250" lon="-75.8855990">
        <ele>1427.2</ele>
        <time>2022-08-14T13:27:47Z</time>
      </trkpt>
      <trkpt lat="4.2836870" lon="-75.8856200">
        <ele>1426.8</ele>
        <time>2022-08-14T13:27:48Z</time>
      </trkpt>
      <trkpt lat="4.2838360" lon="-75.8856720">
        <ele>1426.2</ele>
        <time>2022-08-14T13:27:51Z</time>
      </trkpt>
      <trkpt lat="4.2838770" lon="-75.8856860">
        <ele>1425.4</ele>
        <time>2022-08-14T13:27:52Z</time>
      </trkpt>
      <trkpt lat="4.2839530" lon="-75.8857130">
        <ele>1424.4</ele>
        <time>2022-08-14T13:27:54Z</time>
      </trkpt>
      <trkpt lat="4.2839980" lon="-75.8857240">
        <ele>1424.0</ele>
        <time>2022-08-14T13:27:55Z</time>
      </trkpt>
      <trkpt lat="4.2840550" lon="-75.8857370">
        <ele>1423.8</ele>
        <time>2022-08-14T13:27:56Z</time>
      </trkpt>
      <trkpt lat="4.2841430" lon="-75.8857330">
        <ele>1423.2</ele>
        <time>2022-08-14T13:27:58Z</time>
      </trkpt>
      <trkpt lat="4.2842470" lon="-75.8857080">
        <ele>1423.0</ele>
        <time>2022-08-14T13:28:00Z</time>
      </trkpt>
      <trkpt lat="4.2843590" lon="-75.8856850">
        <ele>1422.4</ele>
        <time>2022-08-14T13:28:02Z</time>
      </trkpt>
      <trkpt lat="4.2844160" lon="-75.8856810">
        <ele>1422.0</ele>
        <time>2022-08-14T13:28:03Z</time>
      </trkpt>
      <trkpt lat="4.2844690" lon="-75.8856840">
        <ele>1421.6</ele>
        <time>2022-08-14T13:28:04Z</time>
      </trkpt>
      <trkpt lat="4.2845780" lon="-75.8857110">
        <ele>1420.8</ele>
        <time>2022-08-14T13:28:06Z</time>
      </trkpt>
      <trkpt lat="4.2848150" lon="-75.8857560">
        <ele>1419.6</ele>
        <time>2022-08-14T13:28:10Z</time>
      </trkpt>
      <trkpt lat="4.2851020" lon="-75.8858130">
        <ele>1418.6</ele>
        <time>2022-08-14T13:28:15Z</time>
      </trkpt>
      <trkpt lat="4.2852020" lon="-75.8858440">
        <ele>1417.4</ele>
        <time>2022-08-14T13:28:17Z</time>
      </trkpt>
      <trkpt lat="4.2853010" lon="-75.8858760">
        <ele>1416.2</ele>
        <time>2022-08-14T13:28:19Z</time>
      </trkpt>
      <trkpt lat="4.2854100" lon="-75.8858970">
        <ele>1415.0</ele>
        <time>2022-08-14T13:28:21Z</time>
      </trkpt>
      <trkpt lat="4.2854810" lon="-75.8859160">
        <ele>1414.6</ele>
        <time>2022-08-14T13:28:22Z</time>
      </trkpt>
      <trkpt lat="4.2855990" lon="-75.8859510">
        <ele>1413.8</ele>
        <time>2022-08-14T13:28:24Z</time>
      </trkpt>
      <trkpt lat="4.2857890" lon="-75.8860110">
        <ele>1412.6</ele>
        <time>2022-08-14T13:28:27Z</time>
      </trkpt>
      <trkpt lat="4.2858450" lon="-75.8860210">
        <ele>1412.2</ele>
        <time>2022-08-14T13:28:28Z</time>
      </trkpt>
      <trkpt lat="4.2859480" lon="-75.8860080">
        <ele>1410.6</ele>
        <time>2022-08-14T13:28:30Z</time>
      </trkpt>
      <trkpt lat="4.2860390" lon="-75.8859430">
        <ele>1409.4</ele>
        <time>2022-08-14T13:28:32Z</time>
      </trkpt>
      <trkpt lat="4.2861240" lon="-75.8858730">
        <ele>1408.2</ele>
        <time>2022-08-14T13:28:34Z</time>
      </trkpt>
      <trkpt lat="4.2861600" lon="-75.8858430">
        <ele>1408.0</ele>
        <time>2022-08-14T13:28:35Z</time>
      </trkpt>
      <trkpt lat="4.2862840" lon="-75.8857540">
        <ele>1407.0</ele>
        <time>2022-08-14T13:28:39Z</time>
      </trkpt>
      <trkpt lat="4.2863150" lon="-75.8857360">
        <ele>1406.6</ele>
        <time>2022-08-14T13:28:40Z</time>
      </trkpt>
      <trkpt lat="4.2863940" lon="-75.8857070">
        <ele>1405.8</ele>
        <time>2022-08-14T13:28:42Z</time>
      </trkpt>
      <trkpt lat="4.2864930" lon="-75.8856800">
        <ele>1404.8</ele>
        <time>2022-08-14T13:28:45Z</time>
      </trkpt>
      <trkpt lat="4.2865410" lon="-75.8856730">
        <ele>1404.4</ele>
        <time>2022-08-14T13:28:46Z</time>
      </trkpt>
      <trkpt lat="4.2866510" lon="-75.8856640">
        <ele>1403.4</ele>
        <time>2022-08-14T13:28:49Z</time>
      </trkpt>
      <trkpt lat="4.2867330" lon="-75.8856600">
        <ele>1402.2</ele>
        <time>2022-08-14T13:28:51Z</time>
      </trkpt>
      <trkpt lat="4.2867880" lon="-75.8856560">
        <ele>1401.8</ele>
        <time>2022-08-14T13:28:52Z</time>
      </trkpt>
      <trkpt lat="4.2868380" lon="-75.8856500">
        <ele>1401.2</ele>
        <time>2022-08-14T13:28:53Z</time>
      </trkpt>
      <trkpt lat="4.2869690" lon="-75.8856330">
        <ele>1399.6</ele>
        <time>2022-08-14T13:28:56Z</time>
      </trkpt>
      <trkpt lat="4.2870260" lon="-75.8856310">
        <ele>1399.2</ele>
        <time>2022-08-14T13:28:57Z</time>
      </trkpt>
      <trkpt lat="4.2870740" lon="-75.8856380">
        <ele>1398.6</ele>
        <time>2022-08-14T13:28:58Z</time>
      </trkpt>
      <trkpt lat="4.2871150" lon="-75.8856460">
        <ele>1397.4</ele>
        <time>2022-08-14T13:28:59Z</time>
      </trkpt>
      <trkpt lat="4.2872780" lon="-75.8856990">
        <ele>1396.0</ele>
        <time>2022-08-14T13:29:02Z</time>
      </trkpt>
      <trkpt lat="4.2873290" lon="-75.8857170">
        <ele>1395.2</ele>
        <time>2022-08-14T13:29:03Z</time>
      </trkpt>
      <trkpt lat="4.2873700" lon="-75.8857270">
        <ele>1394.6</ele>
        <time>2022-08-14T13:29:04Z</time>
      </trkpt>
      <trkpt lat="4.2875200" lon="-75.8857160">
        <ele>1393.6</ele>
        <time>2022-08-14T13:29:07Z</time>
      </trkpt>
      <trkpt lat="4.2876290" lon="-75.8857030">
        <ele>1392.2</ele>
        <time>2022-08-14T13:29:09Z</time>
      </trkpt>
      <trkpt lat="4.2877230" lon="-75.8856940">
        <ele>1390.8</ele>
        <time>2022-08-14T13:29:11Z</time>
      </trkpt>
      <trkpt lat="4.2878520" lon="-75.8856910">
        <ele>1389.6</ele>
        <time>2022-08-14T13:29:14Z</time>
      </trkpt>
      <trkpt lat="4.2879560" lon="-75.8856680">
        <ele>1388.4</ele>
        <time>2022-08-14T13:29:17Z</time>
      </trkpt>
      <trkpt lat="4.2880440" lon="-75.8856350">
        <ele>1387.2</ele>
        <time>2022-08-14T13:29:19Z</time>
      </trkpt>
      <trkpt lat="4.2881060" lon="-75.8856060">
        <ele>1386.0</ele>
        <time>2022-08-14T13:29:21Z</time>
      </trkpt>
      <trkpt lat="4.2881360" lon="-75.8855900">
        <ele>1385.8</ele>
        <time>2022-08-14T13:29:22Z</time>
      </trkpt>
      <trkpt lat="4.2882370" lon="-75.8855240">
        <ele>1384.4</ele>
        <time>2022-08-14T13:29:26Z</time>
      </trkpt>
      <trkpt lat="4.2882610" lon="-75.8855080">
        <ele>1384.0</ele>
        <time>2022-08-14T13:29:27Z</time>
      </trkpt>
      <trkpt lat="4.2882920" lon="-75.8854870">
        <ele>1383.2</ele>
        <time>2022-08-14T13:29:28Z</time>
      </trkpt>
      <trkpt lat="4.2883470" lon="-75.8854620">
        <ele>1381.8</ele>
        <time>2022-08-14T13:29:30Z</time>
      </trkpt>
      <trkpt lat="4.2884170" lon="-75.8854460">
        <ele>1380.4</ele>
        <time>2022-08-14T13:29:32Z</time>
      </trkpt>
      <trkpt lat="4.2884960" lon="-75.8854480">
        <ele>1379.6</ele>
        <time>2022-08-14T13:29:34Z</time>
      </trkpt>
      <trkpt lat="4.2885260" lon="-75.8854550">
        <ele>1379.2</ele>
        <time>2022-08-14T13:29:35Z</time>
      </trkpt>
      <trkpt lat="4.2885980" lon="-75.8855000">
        <ele>1378.0</ele>
        <time>2022-08-14T13:29:37Z</time>
      </trkpt>
      <trkpt lat="4.2886190" lon="-75.8855350">
        <ele>1377.4</ele>
        <time>2022-08-14T13:29:38Z</time>
      </trkpt>
      <trkpt lat="4.2886310" lon="-75.8855780">
        <ele>1377.0</ele>
        <time>2022-08-14T13:29:39Z</time>
      </trkpt>
      <trkpt lat="4.2886400" lon="-75.8856270">
        <ele>1376.4</ele>
        <time>2022-08-14T13:29:40Z</time>
      </trkpt>
      <trkpt lat="4.2886460" lon="-75.8857210">
        <ele>1375.4</ele>
        <time>2022-08-14T13:29:42Z</time>
      </trkpt>
      <trkpt lat="4.2886330" lon="-75.8858910">
        <ele>1374.0</ele>
        <time>2022-08-14T13:29:45Z</time>
      </trkpt>
      <trkpt lat="4.2886030" lon="-75.8860540">
        <ele>1372.4</ele>
        <time>2022-08-14T13:29:48Z</time>
      </trkpt>
      <trkpt lat="4.2885590" lon="-75.8861570">
        <ele>1371.6</ele>
        <time>2022-08-14T13:29:50Z</time>
      </trkpt>
      <trkpt lat="4.2885180" lon="-75.8862010">
        <ele>1370.8</ele>
        <time>2022-08-14T13:29:51Z</time>
      </trkpt>
      <trkpt lat="4.2884790" lon="-75.8862250">
        <ele>1370.0</ele>
        <time>2022-08-14T13:29:52Z</time>
      </trkpt>
      <trkpt lat="4.2883570" lon="-75.8862580">
        <ele>1369.4</ele>
        <time>2022-08-14T13:29:54Z</time>
      </trkpt>
      <trkpt lat="4.2882970" lon="-75.8862780">
        <ele>1369.0</ele>
        <time>2022-08-14T13:29:55Z</time>
      </trkpt>
      <trkpt lat="4.2882490" lon="-75.8863090">
        <ele>1368.4</ele>
        <time>2022-08-14T13:29:56Z</time>
      </trkpt>
      <trkpt lat="4.2881900" lon="-75.8863990">
        <ele>1367.6</ele>
        <time>2022-08-14T13:29:58Z</time>
      </trkpt>
      <trkpt lat="4.2881710" lon="-75.8864670">
        <ele>1367.2</ele>
        <time>2022-08-14T13:29:59Z</time>
      </trkpt>
      <trkpt lat="4.2881700" lon="-75.8865280">
        <ele>1366.8</ele>
        <time>2022-08-14T13:30:00Z</time>
      </trkpt>
      <trkpt lat="4.2881790" lon="-75.8865900">
        <ele>1366.4</ele>
        <time>2022-08-14T13:30:01Z</time>
      </trkpt>
      <trkpt lat="4.2881910" lon="-75.8866370">
        <ele>1365.8</ele>
        <time>2022-08-14T13:30:02Z</time>
      </trkpt>
      <trkpt lat="4.2882600" lon="-75.8868070">
        <ele>1365.2</ele>
        <time>2022-08-14T13:30:05Z</time>
      </trkpt>
      <trkpt lat="4.2882770" lon="-75.8868540">
        <ele>1365.0</ele>
        <time>2022-08-14T13:30:06Z</time>
      </trkpt>
      <trkpt lat="4.2882950" lon="-75.8868980">
        <ele>1364.6</ele>
        <time>2022-08-14T13:30:07Z</time>
      </trkpt>
      <trkpt lat="4.2883150" lon="-75.8869760">
        <ele>1364.4</ele>
        <time>2022-08-14T13:30:09Z</time>
      </trkpt>
      <trkpt lat="4.2883150" lon="-75.8870120">
        <ele>1364.4</ele>
        <time>2022-08-14T13:30:10Z</time>
      </trkpt>
      <trkpt lat="4.2882690" lon="-75.8871130">
        <ele>1364.0</ele>
        <time>2022-08-14T13:30:13Z</time>
      </trkpt>
      <trkpt lat="4.2882320" lon="-75.8871530">
        <ele>1363.8</ele>
        <time>2022-08-14T13:30:14Z</time>
      </trkpt>
      <trkpt lat="4.2881620" lon="-75.8872160">
        <ele>1363.6</ele>
        <time>2022-08-14T13:30:16Z</time>
      </trkpt>
      <trkpt lat="4.2881200" lon="-75.8872480">
        <ele>1363.0</ele>
        <time>2022-08-14T13:30:17Z</time>
      </trkpt>
      <trkpt lat="4.2880350" lon="-75.8873030">
        <ele>1362.2</ele>
        <time>2022-08-14T13:30:19Z</time>
      </trkpt>
      <trkpt lat="4.2879790" lon="-75.8873660">
        <ele>1361.0</ele>
        <time>2022-08-14T13:30:21Z</time>
      </trkpt>
      <trkpt lat="4.2879490" lon="-75.8874340">
        <ele>1359.8</ele>
        <time>2022-08-14T13:30:23Z</time>
      </trkpt>
      <trkpt lat="4.2879370" lon="-75.8874960">
        <ele>1359.2</ele>
        <time>2022-08-14T13:30:24Z</time>
      </trkpt>
      <trkpt lat="4.2879330" lon="-75.8875540">
        <ele>1359.0</ele>
        <time>2022-08-14T13:30:25Z</time>
      </trkpt>
      <trkpt lat="4.2879330" lon="-75.8876510">
        <ele>1357.6</ele>
        <time>2022-08-14T13:30:27Z</time>
      </trkpt>
      <trkpt lat="4.2879420" lon="-75.8877590">
        <ele>1356.8</ele>
        <time>2022-08-14T13:30:29Z</time>
      </trkpt>
      <trkpt lat="4.2879380" lon="-75.8878120">
        <ele>1356.4</ele>
        <time>2022-08-14T13:30:30Z</time>
      </trkpt>
      <trkpt lat="4.2879300" lon="-75.8879060">
        <ele>1355.0</ele>
        <time>2022-08-14T13:30:32Z</time>
      </trkpt>
      <trkpt lat="4.2879300" lon="-75.8879540">
        <ele>1354.4</ele>
        <time>2022-08-14T13:30:33Z</time>
      </trkpt>
      <trkpt lat="4.2879340" lon="-75.8880410">
        <ele>1353.8</ele>
        <time>2022-08-14T13:30:35Z</time>
      </trkpt>
      <trkpt lat="4.2879390" lon="-75.8881230">
        <ele>1352.8</ele>
        <time>2022-08-14T13:30:37Z</time>
      </trkpt>
      <trkpt lat="4.2879440" lon="-75.8881590">
        <ele>1352.6</ele>
        <time>2022-08-14T13:30:38Z</time>
      </trkpt>
      <trkpt lat="4.2879520" lon="-75.8882650">
        <ele>1351.2</ele>
        <time>2022-08-14T13:30:40Z</time>
      </trkpt>
      <trkpt lat="4.2879580" lon="-75.8883790">
        <ele>1350.2</ele>
        <time>2022-08-14T13:30:43Z</time>
      </trkpt>
      <trkpt lat="4.2879690" lon="-75.8884210">
        <ele>1350.2</ele>
        <time>2022-08-14T13:30:44Z</time>
      </trkpt>
      <trkpt lat="4.2879970" lon="-75.8884930">
        <ele>1350.0</ele>
        <time>2022-08-14T13:30:46Z</time>
      </trkpt>
      <trkpt lat="4.2880030" lon="-75.8885640">
        <ele>1349.4</ele>
        <time>2022-08-14T13:30:48Z</time>
      </trkpt>
      <trkpt lat="4.2880010" lon="-75.8886050">
        <ele>1349.0</ele>
        <time>2022-08-14T13:30:49Z</time>
      </trkpt>
      <trkpt lat="4.2879890" lon="-75.8888510">
        <ele>1347.8</ele>
        <time>2022-08-14T13:30:54Z</time>
      </trkpt>
      <trkpt lat="4.2879690" lon="-75.8890620">
        <ele>1346.8</ele>
        <time>2022-08-14T13:30:58Z</time>
      </trkpt>
      <trkpt lat="4.2879710" lon="-75.8891180">
        <ele>1346.4</ele>
        <time>2022-08-14T13:30:59Z</time>
      </trkpt>
      <trkpt lat="4.2879840" lon="-75.8891560">
        <ele>1345.4</ele>
        <time>2022-08-14T13:31:00Z</time>
      </trkpt>
      <trkpt lat="4.2880150" lon="-75.8892060">
        <ele>1344.4</ele>
        <time>2022-08-14T13:31:02Z</time>
      </trkpt>
      <trkpt lat="4.2880720" lon="-75.8892530">
        <ele>1343.4</ele>
        <time>2022-08-14T13:31:04Z</time>
      </trkpt>
      <trkpt lat="4.2881050" lon="-75.8892810">
        <ele>1343.2</ele>
        <time>2022-08-14T13:31:05Z</time>
      </trkpt>
      <trkpt lat="4.2882490" lon="-75.8894140">
        <ele>1342.4</ele>
        <time>2022-08-14T13:31:09Z</time>
      </trkpt>
      <trkpt lat="4.2882860" lon="-75.8894480">
        <ele>1341.8</ele>
        <time>2022-08-14T13:31:10Z</time>
      </trkpt>
      <trkpt lat="4.2883310" lon="-75.8894830">
        <ele>1341.4</ele>
        <time>2022-08-14T13:31:11Z</time>
      </trkpt>
      <trkpt lat="4.2884060" lon="-75.8895350">
        <ele>1340.6</ele>
        <time>2022-08-14T13:31:13Z</time>
      </trkpt>
      <trkpt lat="4.2884430" lon="-75.8895630">
        <ele>1340.2</ele>
        <time>2022-08-14T13:31:14Z</time>
      </trkpt>
      <trkpt lat="4.2885210" lon="-75.8896310">
        <ele>1339.6</ele>
        <time>2022-08-14T13:31:16Z</time>
      </trkpt>
      <trkpt lat="4.2886830" lon="-75.8897750">
        <ele>1338.4</ele>
        <time>2022-08-14T13:31:20Z</time>
      </trkpt>
      <trkpt lat="4.2887550" lon="-75.8898610">
        <ele>1337.6</ele>
        <time>2022-08-14T13:31:22Z</time>
      </trkpt>
      <trkpt lat="4.2888300" lon="-75.8899270">
        <ele>1337.4</ele>
        <time>2022-08-14T13:31:24Z</time>
      </trkpt>
      <trkpt lat="4.2888630" lon="-75.8899600">
        <ele>1337.2</ele>
        <time>2022-08-14T13:31:25Z</time>
      </trkpt>
      <trkpt lat="4.2889810" lon="-75.8900610">
        <ele>1336.2</ele>
        <time>2022-08-14T13:31:28Z</time>
      </trkpt>
      <trkpt lat="4.2890870" lon="-75.8901320">
        <ele>1335.0</ele>
        <time>2022-08-14T13:31:31Z</time>
      </trkpt>
      <trkpt lat="4.2892670" lon="-75.8902140">
        <ele>1333.8</ele>
        <time>2022-08-14T13:31:36Z</time>
      </trkpt>
      <trkpt lat="4.2893040" lon="-75.8902320">
        <ele>1333.8</ele>
        <time>2022-08-14T13:31:37Z</time>
      </trkpt>
      <trkpt lat="4.2894020" lon="-75.8902770">
        <ele>1332.8</ele>
        <time>2022-08-14T13:31:40Z</time>
      </trkpt>
      <trkpt lat="4.2894330" lon="-75.8902920">
        <ele>1332.6</ele>
        <time>2022-08-14T13:31:41Z</time>
      </trkpt>
      <trkpt lat="4.2895970" lon="-75.8903440">
        <ele>1331.8</ele>
        <time>2022-08-14T13:31:46Z</time>
      </trkpt>
      <trkpt lat="4.2896290" lon="-75.8903580">
        <ele>1331.2</ele>
        <time>2022-08-14T13:31:47Z</time>
      </trkpt>
      <trkpt lat="4.2897060" lon="-75.8903880">
        <ele>1329.8</ele>
        <time>2022-08-14T13:31:49Z</time>
      </trkpt>
      <trkpt lat="4.2897840" lon="-75.8904340">
        <ele>1329.2</ele>
        <time>2022-08-14T13:31:51Z</time>
      </trkpt>
      <trkpt lat="4.2898210" lon="-75.8904620">
        <ele>1328.6</ele>
        <time>2022-08-14T13:31:52Z</time>
      </trkpt>
      <trkpt lat="4.2898820" lon="-75.8905170">
        <ele>1327.6</ele>
        <time>2022-08-14T13:31:54Z</time>
      </trkpt>
      <trkpt lat="4.2899070" lon="-75.8905420">
        <ele>1327.2</ele>
        <time>2022-08-14T13:31:55Z</time>
      </trkpt>
      <trkpt lat="4.2899650" lon="-75.8905920">
        <ele>1326.2</ele>
        <time>2022-08-14T13:31:57Z</time>
      </trkpt>
      <trkpt lat="4.2900130" lon="-75.8906400">
        <ele>1324.8</ele>
        <time>2022-08-14T13:31:59Z</time>
      </trkpt>
      <trkpt lat="4.2900530" lon="-75.8906720">
        <ele>1323.0</ele>
        <time>2022-08-14T13:32:01Z</time>
      </trkpt>
      <trkpt lat="4.2901150" lon="-75.8907390">
        <ele>1321.8</ele>
        <time>2022-08-14T13:32:04Z</time>
      </trkpt>
      <trkpt lat="4.2901360" lon="-75.8907680">
        <ele>1321.6</ele>
        <time>2022-08-14T13:32:05Z</time>
      </trkpt>
      <trkpt lat="4.2902670" lon="-75.8908890">
        <ele>1320.4</ele>
        <time>2022-08-14T13:32:10Z</time>
      </trkpt>
      <trkpt lat="4.2902970" lon="-75.8909060">
        <ele>1320.0</ele>
        <time>2022-08-14T13:32:11Z</time>
      </trkpt>
      <trkpt lat="4.2903570" lon="-75.8909210">
        <ele>1319.0</ele>
        <time>2022-08-14T13:32:13Z</time>
      </trkpt>
      <trkpt lat="4.2904150" lon="-75.8909270">
        <ele>1317.8</ele>
        <time>2022-08-14T13:32:15Z</time>
      </trkpt>
      <trkpt lat="4.2904770" lon="-75.8909300">
        <ele>1316.8</ele>
        <time>2022-08-14T13:32:17Z</time>
      </trkpt>
      <trkpt lat="4.2905110" lon="-75.8909330">
        <ele>1316.6</ele>
        <time>2022-08-14T13:32:18Z</time>
      </trkpt>
      <trkpt lat="4.2905800" lon="-75.8909320">
        <ele>1314.8</ele>
        <time>2022-08-14T13:32:20Z</time>
      </trkpt>
      <trkpt lat="4.2906390" lon="-75.8909320">
        <ele>1313.8</ele>
        <time>2022-08-14T13:32:22Z</time>
      </trkpt>
      <trkpt lat="4.2907130" lon="-75.8909180">
        <ele>1312.6</ele>
        <time>2022-08-14T13:32:25Z</time>
      </trkpt>
      <trkpt lat="4.2907840" lon="-75.8908840">
        <ele>1311.2</ele>
        <time>2022-08-14T13:32:28Z</time>
      </trkpt>
      <trkpt lat="4.2908210" lon="-75.8908460">
        <ele>1310.8</ele>
        <time>2022-08-14T13:32:30Z</time>
      </trkpt>
      <trkpt lat="4.2908480" lon="-75.8908040">
        <ele>1309.8</ele>
        <time>2022-08-14T13:32:32Z</time>
      </trkpt>
      <trkpt lat="4.2908640" lon="-75.8907830">
        <ele>1308.6</ele>
        <time>2022-08-14T13:32:34Z</time>
      </trkpt>
      <trkpt lat="4.2908680" lon="-75.8907710">
        <ele>1308.2</ele>
        <time>2022-08-14T13:32:35Z</time>
      </trkpt>
      <trkpt lat="4.2908590" lon="-75.8907440">
        <ele>1307.2</ele>
        <time>2022-08-14T13:32:37Z</time>
      </trkpt>
      <trkpt lat="4.2908170" lon="-75.8907000">
        <ele>1306.0</ele>
        <time>2022-08-14T13:32:40Z</time>
      </trkpt>
      <trkpt lat="4.2907290" lon="-75.8906100">
        <ele>1305.4</ele>
        <time>2022-08-14T13:32:46Z</time>
      </trkpt>
      <trkpt lat="4.2907270" lon="-75.8906060">
        <ele>1304.8</ele>
        <time>2022-08-14T13:32:48Z</time>
      </trkpt>
      <trkpt lat="4.2907270" lon="-75.8906060">
        <ele>1304.0</ele>
        <time>2022-08-14T13:32:51Z</time>
      </trkpt>
      <trkpt lat="4.2907270" lon="-75.8906060">
        <ele>1303.8</ele>
        <time>2022-08-14T13:32:55Z</time>
      </trkpt>
      <trkpt lat="4.2907240" lon="-75.8906110">
        <ele>1303.6</ele>
        <time>2022-08-14T13:32:59Z</time>
      </trkpt>
      <trkpt lat="4.2907500" lon="-75.8906460">
        <ele>1303.6</ele>
        <time>2022-08-14T13:33:03Z</time>
      </trkpt>
      <trkpt lat="4.2907540" lon="-75.8906530">
        <ele>1303.6</ele>
        <time>2022-08-14T13:33:04Z</time>
      </trkpt>
      <trkpt lat="4.2907600" lon="-75.8906590">
        <ele>1303.6</ele>
        <time>2022-08-14T13:33:05Z</time>
      </trkpt>
      <trkpt lat="4.2908260" lon="-75.8907090">
        <ele>1303.8</ele>
        <time>2022-08-14T13:33:09Z</time>
      </trkpt>
      <trkpt lat="4.2908580" lon="-75.8907680">
        <ele>1304.0</ele>
        <time>2022-08-14T13:33:13Z</time>
      </trkpt>
      <trkpt lat="4.2908660" lon="-75.8907730">
        <ele>1304.0</ele>
        <time>2022-08-14T13:33:14Z</time>
      </trkpt>
      <trkpt lat="4.2908670" lon="-75.8907750">
        <ele>1304.6</ele>
        <time>2022-08-14T13:33:19Z</time>
      </trkpt>
      <trkpt lat="4.2908670" lon="-75.8907750">
        <ele>1305.0</ele>
        <time>2022-08-14T13:33:21Z</time>
      </trkpt>
      <trkpt lat="4.2908670" lon="-75.8907750">
        <ele>1305.6</ele>
        <time>2022-08-14T13:33:40Z</time>
      </trkpt>
      <trkpt lat="4.2908670" lon="-75.8907750">
        <ele>1305.8</ele>
        <time>2022-08-14T13:33:41Z</time>
      </trkpt>
      <trkpt lat="4.2908690" lon="-75.8907750">
        <ele>1305.8</ele>
        <time>2022-08-14T13:33:46Z</time>
      </trkpt>
      <trkpt lat="4.2909190" lon="-75.8908130">
        <ele>1305.8</ele>
        <time>2022-08-14T13:33:49Z</time>
      </trkpt>
      <trkpt lat="4.2909570" lon="-75.8908690">
        <ele>1305.6</ele>
        <time>2022-08-14T13:33:52Z</time>
      </trkpt>
      <trkpt lat="4.2909630" lon="-75.8909030">
        <ele>1305.6</ele>
        <time>2022-08-14T13:33:53Z</time>
      </trkpt>
      <trkpt lat="4.2909300" lon="-75.8910830">
        <ele>1304.0</ele>
        <time>2022-08-14T13:33:59Z</time>
      </trkpt>
      <trkpt lat="4.2909330" lon="-75.8911450">
        <ele>1303.0</ele>
        <time>2022-08-14T13:34:01Z</time>
      </trkpt>
      <trkpt lat="4.2909630" lon="-75.8911960">
        <ele>1302.4</ele>
        <time>2022-08-14T13:34:03Z</time>
      </trkpt>
      <trkpt lat="4.2909920" lon="-75.8912150">
        <ele>1302.2</ele>
        <time>2022-08-14T13:34:04Z</time>
      </trkpt>
      <trkpt lat="4.2910160" lon="-75.8912190">
        <ele>1301.4</ele>
        <time>2022-08-14T13:34:05Z</time>
      </trkpt>
      <trkpt lat="4.2910470" lon="-75.8912180">
        <ele>1300.8</ele>
        <time>2022-08-14T13:34:06Z</time>
      </trkpt>
      <trkpt lat="4.2911080" lon="-75.8911980">
        <ele>1299.8</ele>
        <time>2022-08-14T13:34:08Z</time>
      </trkpt>
      <trkpt lat="4.2911920" lon="-75.8911330">
        <ele>1298.6</ele>
        <time>2022-08-14T13:34:11Z</time>
      </trkpt>
      <trkpt lat="4.2912870" lon="-75.8910780">
        <ele>1297.4</ele>
        <time>2022-08-14T13:34:14Z</time>
      </trkpt>
      <trkpt lat="4.2913370" lon="-75.8910750">
        <ele>1296.4</ele>
        <time>2022-08-14T13:34:16Z</time>
      </trkpt>
      <trkpt lat="4.2913920" lon="-75.8910920">
        <ele>1295.2</ele>
        <time>2022-08-14T13:34:18Z</time>
      </trkpt>
      <trkpt lat="4.2914260" lon="-75.8911350">
        <ele>1294.0</ele>
        <time>2022-08-14T13:34:20Z</time>
      </trkpt>
      <trkpt lat="4.2914410" lon="-75.8911840">
        <ele>1293.0</ele>
        <time>2022-08-14T13:34:22Z</time>
      </trkpt>
      <trkpt lat="4.2914400" lon="-75.8912140">
        <ele>1292.6</ele>
        <time>2022-08-14T13:34:23Z</time>
      </trkpt>
      <trkpt lat="4.2914400" lon="-75.8912610">
        <ele>1292.2</ele>
        <time>2022-08-14T13:34:24Z</time>
      </trkpt>
      <trkpt lat="4.2914720" lon="-75.8914030">
        <ele>1291.4</ele>
        <time>2022-08-14T13:34:27Z</time>
      </trkpt>
      <trkpt lat="4.2914920" lon="-75.8914330">
        <ele>1291.2</ele>
        <time>2022-08-14T13:34:28Z</time>
      </trkpt>
      <trkpt lat="4.2915260" lon="-75.8914620">
        <ele>1290.8</ele>
        <time>2022-08-14T13:34:29Z</time>
      </trkpt>
      <trkpt lat="4.2915540" lon="-75.8914770">
        <ele>1290.2</ele>
        <time>2022-08-14T13:34:30Z</time>
      </trkpt>
      <trkpt lat="4.2915860" lon="-75.8914890">
        <ele>1289.4</ele>
        <time>2022-08-14T13:34:31Z</time>
      </trkpt>
      <trkpt lat="4.2916090" lon="-75.8914970">
        <ele>1289.2</ele>
        <time>2022-08-14T13:34:32Z</time>
      </trkpt>
      <trkpt lat="4.2916710" lon="-75.8915400">
        <ele>1288.8</ele>
        <time>2022-08-14T13:34:35Z</time>
      </trkpt>
      <trkpt lat="4.2916820" lon="-75.8915580">
        <ele>1288.8</ele>
        <time>2022-08-14T13:34:36Z</time>
      </trkpt>
      <trkpt lat="4.2916820" lon="-75.8916200">
        <ele>1288.8</ele>
        <time>2022-08-14T13:34:40Z</time>
      </trkpt>
      <trkpt lat="4.2916830" lon="-75.8916320">
        <ele>1288.8</ele>
        <time>2022-08-14T13:34:41Z</time>
      </trkpt>
      <trkpt lat="4.2916420" lon="-75.8916640">
        <ele>1289.4</ele>
        <time>2022-08-14T13:34:45Z</time>
      </trkpt>
      <trkpt lat="4.2915940" lon="-75.8916720">
        <ele>1290.0</ele>
        <time>2022-08-14T13:34:48Z</time>
      </trkpt>
      <trkpt lat="4.2915600" lon="-75.8916710">
        <ele>1290.2</ele>
        <time>2022-08-14T13:34:50Z</time>
      </trkpt>
      <trkpt lat="4.2915160" lon="-75.8916690">
        <ele>1291.0</ele>
        <time>2022-08-14T13:34:53Z</time>
      </trkpt>
      <trkpt lat="4.2914770" lon="-75.8916640">
        <ele>1291.4</ele>
        <time>2022-08-14T13:34:55Z</time>
      </trkpt>
      <trkpt lat="4.2914150" lon="-75.8916680">
        <ele>1292.2</ele>
        <time>2022-08-14T13:34:59Z</time>
      </trkpt>
      <trkpt lat="4.2913920" lon="-75.8916750">
        <ele>1292.2</ele>
        <time>2022-08-14T13:35:01Z</time>
      </trkpt>
      <trkpt lat="4.2913820" lon="-75.8916800">
        <ele>1292.4</ele>
        <time>2022-08-14T13:35:02Z</time>
      </trkpt>
      <trkpt lat="4.2913620" lon="-75.8917000">
        <ele>1292.8</ele>
        <time>2022-08-14T13:35:04Z</time>
      </trkpt>
      <trkpt lat="4.2913010" lon="-75.8917460">
        <ele>1293.4</ele>
        <time>2022-08-14T13:35:09Z</time>
      </trkpt>
      <trkpt lat="4.2912550" lon="-75.8917900">
        <ele>1294.0</ele>
        <time>2022-08-14T13:35:13Z</time>
      </trkpt>
      <trkpt lat="4.2912170" lon="-75.8918210">
        <ele>1294.8</ele>
        <time>2022-08-14T13:35:16Z</time>
      </trkpt>
      <trkpt lat="4.2911640" lon="-75.8918760">
        <ele>1295.8</ele>
        <time>2022-08-14T13:35:21Z</time>
      </trkpt>
      <trkpt lat="4.2911510" lon="-75.8918840">
        <ele>1296.0</ele>
        <time>2022-08-14T13:35:22Z</time>
      </trkpt>
      <trkpt lat="4.2910980" lon="-75.8919380">
        <ele>1297.0</ele>
        <time>2022-08-14T13:35:27Z</time>
      </trkpt>
      <trkpt lat="4.2910610" lon="-75.8919620">
        <ele>1297.4</ele>
        <time>2022-08-14T13:35:30Z</time>
      </trkpt>
      <trkpt lat="4.2910360" lon="-75.8919720">
        <ele>1298.2</ele>
        <time>2022-08-14T13:35:32Z</time>
      </trkpt>
      <trkpt lat="4.2909820" lon="-75.8920130">
        <ele>1299.2</ele>
        <time>2022-08-14T13:35:37Z</time>
      </trkpt>
      <trkpt lat="4.2909060" lon="-75.8920470">
        <ele>1300.4</ele>
        <time>2022-08-14T13:35:43Z</time>
      </trkpt>
      <trkpt lat="4.2908970" lon="-75.8920510">
        <ele>1300.6</ele>
        <time>2022-08-14T13:35:44Z</time>
      </trkpt>
      <trkpt lat="4.2908810" lon="-75.8920570">
        <ele>1300.8</ele>
        <time>2022-08-14T13:35:45Z</time>
      </trkpt>
      <trkpt lat="4.2908320" lon="-75.8920630">
        <ele>1301.6</ele>
        <time>2022-08-14T13:35:49Z</time>
      </trkpt>
      <trkpt lat="4.2907590" lon="-75.8920790">
        <ele>1302.6</ele>
        <time>2022-08-14T13:35:54Z</time>
      </trkpt>
      <trkpt lat="4.2907210" lon="-75.8920880">
        <ele>1303.2</ele>
        <time>2022-08-14T13:35:57Z</time>
      </trkpt>
      <trkpt lat="4.2906420" lon="-75.8920950">
        <ele>1304.0</ele>
        <time>2022-08-14T13:36:02Z</time>
      </trkpt>
      <trkpt lat="4.2906110" lon="-75.8921000">
        <ele>1304.2</ele>
        <time>2022-08-14T13:36:04Z</time>
      </trkpt>
      <trkpt lat="4.2905210" lon="-75.8921030">
        <ele>1305.0</ele>
        <time>2022-08-14T13:36:10Z</time>
      </trkpt>
      <trkpt lat="4.2904760" lon="-75.8921010">
        <ele>1305.4</ele>
        <time>2022-08-14T13:36:13Z</time>
      </trkpt>
      <trkpt lat="4.2903880" lon="-75.8920910">
        <ele>1306.4</ele>
        <time>2022-08-14T13:36:19Z</time>
      </trkpt>
      <trkpt lat="4.2903580" lon="-75.8920870">
        <ele>1306.6</ele>
        <time>2022-08-14T13:36:21Z</time>
      </trkpt>
      <trkpt lat="4.2903150" lon="-75.8920850">
        <ele>1307.0</ele>
        <time>2022-08-14T13:36:24Z</time>
      </trkpt>
      <trkpt lat="4.2902730" lon="-75.8920900">
        <ele>1307.4</ele>
        <time>2022-08-14T13:36:27Z</time>
      </trkpt>
      <trkpt lat="4.2902060" lon="-75.8920970">
        <ele>1308.2</ele>
        <time>2022-08-14T13:36:32Z</time>
      </trkpt>
      <trkpt lat="4.2901790" lon="-75.8920920">
        <ele>1308.4</ele>
        <time>2022-08-14T13:36:34Z</time>
      </trkpt>
      <trkpt lat="4.2900630" lon="-75.8920730">
        <ele>1309.6</ele>
        <time>2022-08-14T13:36:41Z</time>
      </trkpt>
      <trkpt lat="4.2900280" lon="-75.8920670">
        <ele>1309.8</ele>
        <time>2022-08-14T13:36:43Z</time>
      </trkpt>
      <trkpt lat="4.2899570" lon="-75.8920270">
        <ele>1310.6</ele>
        <time>2022-08-14T13:36:48Z</time>
      </trkpt>
      <trkpt lat="4.2899390" lon="-75.8920030">
        <ele>1310.8</ele>
        <time>2022-08-14T13:36:50Z</time>
      </trkpt>
      <trkpt lat="4.2898940" lon="-75.8919340">
        <ele>1311.8</ele>
        <time>2022-08-14T13:36:55Z</time>
      </trkpt>
      <trkpt lat="4.2898730" lon="-75.8919080">
        <ele>1312.2</ele>
        <time>2022-08-14T13:36:57Z</time>
      </trkpt>
      <trkpt lat="4.2898170" lon="-75.8918690">
        <ele>1313.0</ele>
        <time>2022-08-14T13:37:01Z</time>
      </trkpt>
      <trkpt lat="4.2897870" lon="-75.8918580">
        <ele>1313.2</ele>
        <time>2022-08-14T13:37:03Z</time>
      </trkpt>
      <trkpt lat="4.2897120" lon="-75.8918490">
        <ele>1314.0</ele>
        <time>2022-08-14T13:37:08Z</time>
      </trkpt>
      <trkpt lat="4.2896660" lon="-75.8918550">
        <ele>1314.4</ele>
        <time>2022-08-14T13:37:11Z</time>
      </trkpt>
      <trkpt lat="4.2896130" lon="-75.8918650">
        <ele>1315.0</ele>
        <time>2022-08-14T13:37:15Z</time>
      </trkpt>
      <trkpt lat="4.2895530" lon="-75.8918660">
        <ele>1315.8</ele>
        <time>2022-08-14T13:37:19Z</time>
      </trkpt>
      <trkpt lat="4.2895120" lon="-75.8918710">
        <ele>1316.6</ele>
        <time>2022-08-14T13:37:22Z</time>
      </trkpt>
      <trkpt lat="4.2894410" lon="-75.8918890">
        <ele>1317.6</ele>
        <time>2022-08-14T13:37:27Z</time>
      </trkpt>
      <trkpt lat="4.2894300" lon="-75.8918910">
        <ele>1317.8</ele>
        <time>2022-08-14T13:37:28Z</time>
      </trkpt>
      <trkpt lat="4.2893420" lon="-75.8919130">
        <ele>1319.0</ele>
        <time>2022-08-14T13:37:35Z</time>
      </trkpt>
      <trkpt lat="4.2893150" lon="-75.8919290">
        <ele>1319.6</ele>
        <time>2022-08-14T13:37:38Z</time>
      </trkpt>
      <trkpt lat="4.2892750" lon="-75.8919410">
        <ele>1320.2</ele>
        <time>2022-08-14T13:37:41Z</time>
      </trkpt>
      <trkpt lat="4.2892320" lon="-75.8919510">
        <ele>1320.6</ele>
        <time>2022-08-14T13:37:44Z</time>
      </trkpt>
      <trkpt lat="4.2891780" lon="-75.8919770">
        <ele>1321.2</ele>
        <time>2022-08-14T13:37:48Z</time>
      </trkpt>
      <trkpt lat="4.2891070" lon="-75.8920150">
        <ele>1322.0</ele>
        <time>2022-08-14T13:37:53Z</time>
      </trkpt>
      <trkpt lat="4.2890830" lon="-75.8920290">
        <ele>1322.2</ele>
        <time>2022-08-14T13:37:55Z</time>
      </trkpt>
      <trkpt lat="4.2890050" lon="-75.8920840">
        <ele>1323.6</ele>
        <time>2022-08-14T13:38:02Z</time>
      </trkpt>
      <trkpt lat="4.2889940" lon="-75.8920920">
        <ele>1323.8</ele>
        <time>2022-08-14T13:38:03Z</time>
      </trkpt>
      <trkpt lat="4.2889820" lon="-75.8921000">
        <ele>1324.0</ele>
        <time>2022-08-14T13:38:04Z</time>
      </trkpt>
      <trkpt lat="4.2889370" lon="-75.8921350">
        <ele>1324.8</ele>
        <time>2022-08-14T13:38:08Z</time>
      </trkpt>
      <trkpt lat="4.2889020" lon="-75.8921800">
        <ele>1325.4</ele>
        <time>2022-08-14T13:38:12Z</time>
      </trkpt>
      <trkpt lat="4.2888860" lon="-75.8922080">
        <ele>1325.8</ele>
        <time>2022-08-14T13:38:14Z</time>
      </trkpt>
      <trkpt lat="4.2888620" lon="-75.8922700">
        <ele>1326.8</ele>
        <time>2022-08-14T13:38:19Z</time>
      </trkpt>
      <trkpt lat="4.2888540" lon="-75.8922850">
        <ele>1326.8</ele>
        <time>2022-08-14T13:38:20Z</time>
      </trkpt>
      <trkpt lat="4.2887960" lon="-75.8923590">
        <ele>1328.0</ele>
        <time>2022-08-14T13:38:26Z</time>
      </trkpt>
      <trkpt lat="4.2887770" lon="-75.8923710">
        <ele>1328.4</ele>
        <time>2022-08-14T13:38:28Z</time>
      </trkpt>
      <trkpt lat="4.2887660" lon="-75.8923810">
        <ele>1328.6</ele>
        <time>2022-08-14T13:38:29Z</time>
      </trkpt>
      <trkpt lat="4.2887390" lon="-75.8923970">
        <ele>1329.0</ele>
        <time>2022-08-14T13:38:31Z</time>
      </trkpt>
      <trkpt lat="4.2887230" lon="-75.8924200">
        <ele>1329.2</ele>
        <time>2022-08-14T13:38:33Z</time>
      </trkpt>
      <trkpt lat="4.2886960" lon="-75.8924320">
        <ele>1329.6</ele>
        <time>2022-08-14T13:38:35Z</time>
      </trkpt>
      <trkpt lat="4.2886480" lon="-75.8924450">
        <ele>1330.6</ele>
        <time>2022-08-14T13:38:39Z</time>
      </trkpt>
      <trkpt lat="4.2885930" lon="-75.8924590">
        <ele>1331.0</ele>
        <time>2022-08-14T13:38:43Z</time>
      </trkpt>
      <trkpt lat="4.2885480" lon="-75.8924760">
        <ele>1331.6</ele>
        <time>2022-08-14T13:38:46Z</time>
      </trkpt>
      <trkpt lat="4.2884950" lon="-75.8925050">
        <ele>1332.2</ele>
        <time>2022-08-14T13:38:50Z</time>
      </trkpt>
      <trkpt lat="4.2884700" lon="-75.8925220">
        <ele>1332.6</ele>
        <time>2022-08-14T13:38:52Z</time>
      </trkpt>
      <trkpt lat="4.2883860" lon="-75.8925840">
        <ele>1333.8</ele>
        <time>2022-08-14T13:38:59Z</time>
      </trkpt>
      <trkpt lat="4.2883420" lon="-75.8926070">
        <ele>1334.6</ele>
        <time>2022-08-14T13:39:02Z</time>
      </trkpt>
      <trkpt lat="4.2883120" lon="-75.8926260">
        <ele>1334.8</ele>
        <time>2022-08-14T13:39:04Z</time>
      </trkpt>
      <trkpt lat="4.2882280" lon="-75.8926770">
        <ele>1335.4</ele>
        <time>2022-08-14T13:39:10Z</time>
      </trkpt>
      <trkpt lat="4.2881920" lon="-75.8927060">
        <ele>1335.8</ele>
        <time>2022-08-14T13:39:13Z</time>
      </trkpt>
      <trkpt lat="4.2881640" lon="-75.8927380">
        <ele>1336.4</ele>
        <time>2022-08-14T13:39:16Z</time>
      </trkpt>
      <trkpt lat="4.2881380" lon="-75.8927950">
        <ele>1336.8</ele>
        <time>2022-08-14T13:39:21Z</time>
      </trkpt>
      <trkpt lat="4.2881380" lon="-75.8928060">
        <ele>1337.0</ele>
        <time>2022-08-14T13:39:22Z</time>
      </trkpt>
      <trkpt lat="4.2881370" lon="-75.8928290">
        <ele>1337.2</ele>
        <time>2022-08-14T13:39:24Z</time>
      </trkpt>
      <trkpt lat="4.2881300" lon="-75.8928330">
        <ele>1337.6</ele>
        <time>2022-08-14T13:39:26Z</time>
      </trkpt>
      <trkpt lat="4.2881300" lon="-75.8928330">
        <ele>1337.8</ele>
        <time>2022-08-14T13:39:27Z</time>
      </trkpt>
      <trkpt lat="4.2881300" lon="-75.8928330">
        <ele>1338.4</ele>
        <time>2022-08-14T13:39:32Z</time>
      </trkpt>
      <trkpt lat="4.2881290" lon="-75.8928340">
        <ele>1338.8</ele>
        <time>2022-08-14T13:39:42Z</time>
      </trkpt>
      <trkpt lat="4.2881290" lon="-75.8928340">
        <ele>1338.8</ele>
        <time>2022-08-14T13:39:45Z</time>
      </trkpt>
      <trkpt lat="4.2881290" lon="-75.8928360">
        <ele>1339.0</ele>
        <time>2022-08-14T13:39:47Z</time>
      </trkpt>
      <trkpt lat="4.2881130" lon="-75.8928700">
        <ele>1339.2</ele>
        <time>2022-08-14T13:39:51Z</time>
      </trkpt>
      <trkpt lat="4.2881120" lon="-75.8928750">
        <ele>1339.4</ele>
        <time>2022-08-14T13:39:56Z</time>
      </trkpt>
      <trkpt lat="4.2881120" lon="-75.8928750">
        <ele>1339.8</ele>
        <time>2022-08-14T13:40:01Z</time>
      </trkpt>
      <trkpt lat="4.2880960" lon="-75.8929100">
        <ele>1340.2</ele>
        <time>2022-08-14T13:40:05Z</time>
      </trkpt>
      <trkpt lat="4.2880830" lon="-75.8929360">
        <ele>1340.4</ele>
        <time>2022-08-14T13:40:07Z</time>
      </trkpt>
      <trkpt lat="4.2880350" lon="-75.8929960">
        <ele>1340.8</ele>
        <time>2022-08-14T13:40:14Z</time>
      </trkpt>
      <trkpt lat="4.2880220" lon="-75.8929980">
        <ele>1341.2</ele>
        <time>2022-08-14T13:40:21Z</time>
      </trkpt>
      <trkpt lat="4.2880160" lon="-75.8930000">
        <ele>1341.2</ele>
        <time>2022-08-14T13:40:22Z</time>
      </trkpt>
      <trkpt lat="4.2879590" lon="-75.8930180">
        <ele>1341.6</ele>
        <time>2022-08-14T13:40:29Z</time>
      </trkpt>
      <trkpt lat="4.2879480" lon="-75.8930220">
        <ele>1341.6</ele>
        <time>2022-08-14T13:40:30Z</time>
      </trkpt>
      <trkpt lat="4.2879020" lon="-75.8930350">
        <ele>1342.2</ele>
        <time>2022-08-14T13:40:35Z</time>
      </trkpt>
      <trkpt lat="4.2878900" lon="-75.8930450">
        <ele>1342.6</ele>
        <time>2022-08-14T13:40:37Z</time>
      </trkpt>
      <trkpt lat="4.2878870" lon="-75.8930510">
        <ele>1342.6</ele>
        <time>2022-08-14T13:40:38Z</time>
      </trkpt>
      <trkpt lat="4.2878920" lon="-75.8930780">
        <ele>1343.6</ele>
        <time>2022-08-14T13:40:45Z</time>
      </trkpt>
      <trkpt lat="4.2878920" lon="-75.8930780">
        <ele>1343.8</ele>
        <time>2022-08-14T13:40:46Z</time>
      </trkpt>
      <trkpt lat="4.2879100" lon="-75.8930900">
        <ele>1344.2</ele>
        <time>2022-08-14T13:40:51Z</time>
      </trkpt>
      <trkpt lat="4.2879340" lon="-75.8931050">
        <ele>1344.4</ele>
        <time>2022-08-14T13:40:53Z</time>
      </trkpt>
      <trkpt lat="4.2880530" lon="-75.8931280">
        <ele>1344.8</ele>
        <time>2022-08-14T13:41:01Z</time>
      </trkpt>
      <trkpt lat="4.2881660" lon="-75.8931090">
        <ele>1345.6</ele>
        <time>2022-08-14T13:41:08Z</time>
      </trkpt>
      <trkpt lat="4.2881810" lon="-75.8931080">
        <ele>1346.0</ele>
        <time>2022-08-14T13:41:11Z</time>
      </trkpt>
      <trkpt lat="4.2881990" lon="-75.8931050">
        <ele>1346.2</ele>
        <time>2022-08-14T13:41:13Z</time>
      </trkpt>
      <trkpt lat="4.2882260" lon="-75.8930960">
        <ele>1347.0</ele>
        <time>2022-08-14T13:41:17Z</time>
      </trkpt>
      <trkpt lat="4.2882560" lon="-75.8930870">
        <ele>1347.8</ele>
        <time>2022-08-14T13:41:21Z</time>
      </trkpt>
      <trkpt lat="4.2882710" lon="-75.8930800">
        <ele>1348.2</ele>
        <time>2022-08-14T13:41:23Z</time>
      </trkpt>
      <trkpt lat="4.2883200" lon="-75.8930690">
        <ele>1349.2</ele>
        <time>2022-08-14T13:41:30Z</time>
      </trkpt>
      <trkpt lat="4.2883310" lon="-75.8930710">
        <ele>1349.8</ele>
        <time>2022-08-14T13:41:32Z</time>
      </trkpt>
      <trkpt lat="4.2883510" lon="-75.8930720">
        <ele>1350.4</ele>
        <time>2022-08-14T13:41:35Z</time>
      </trkpt>
      <trkpt lat="4.2883770" lon="-75.8930770">
        <ele>1351.6</ele>
        <time>2022-08-14T13:41:41Z</time>
      </trkpt>
      <trkpt lat="4.2883850" lon="-75.8930770">
        <ele>1351.6</ele>
        <time>2022-08-14T13:41:42Z</time>
      </trkpt>
      <trkpt lat="4.2884170" lon="-75.8930900">
        <ele>1352.6</ele>
        <time>2022-08-14T13:41:48Z</time>
      </trkpt>
      <trkpt lat="4.2884280" lon="-75.8931030">
        <ele>1353.2</ele>
        <time>2022-08-14T13:41:52Z</time>
      </trkpt>
      <trkpt lat="4.2884370" lon="-75.8931070">
        <ele>1353.8</ele>
        <time>2022-08-14T13:41:55Z</time>
      </trkpt>
      <trkpt lat="4.2884620" lon="-75.8931390">
        <ele>1354.4</ele>
        <time>2022-08-14T13:42:01Z</time>
      </trkpt>
      <trkpt lat="4.2884690" lon="-75.8931500">
        <ele>1354.8</ele>
        <time>2022-08-14T13:42:03Z</time>
      </trkpt>
      <trkpt lat="4.2884880" lon="-75.8931760">
        <ele>1356.0</ele>
        <time>2022-08-14T13:42:09Z</time>
      </trkpt>
      <trkpt lat="4.2884910" lon="-75.8931800">
        <ele>1356.2</ele>
        <time>2022-08-14T13:42:10Z</time>
      </trkpt>
      <trkpt lat="4.2885130" lon="-75.8932080">
        <ele>1357.2</ele>
        <time>2022-08-14T13:42:17Z</time>
      </trkpt>
      <trkpt lat="4.2885220" lon="-75.8932190">
        <ele>1357.4</ele>
        <time>2022-08-14T13:42:19Z</time>
      </trkpt>
      <trkpt lat="4.2885470" lon="-75.8932440">
        <ele>1358.2</ele>
        <time>2022-08-14T13:42:24Z</time>
      </trkpt>
      <trkpt lat="4.2885640" lon="-75.8932760">
        <ele>1359.0</ele>
        <time>2022-08-14T13:42:30Z</time>
      </trkpt>
      <trkpt lat="4.2885660" lon="-75.8932770">
        <ele>1359.2</ele>
        <time>2022-08-14T13:42:31Z</time>
      </trkpt>
      <trkpt lat="4.2885770" lon="-75.8932920">
        <ele>1360.2</ele>
        <time>2022-08-14T13:42:36Z</time>
      </trkpt>
      <trkpt lat="4.2885820" lon="-75.8932960">
        <ele>1360.4</ele>
        <time>2022-08-14T13:42:37Z</time>
      </trkpt>
      <trkpt lat="4.2886160" lon="-75.8933500">
        <ele>1361.4</ele>
        <time>2022-08-14T13:42:46Z</time>
      </trkpt>
      <trkpt lat="4.2886200" lon="-75.8933570">
        <ele>1361.4</ele>
        <time>2022-08-14T13:42:47Z</time>
      </trkpt>
      <trkpt lat="4.2886240" lon="-75.8933700">
        <ele>1361.8</ele>
        <time>2022-08-14T13:42:49Z</time>
      </trkpt>
      <trkpt lat="4.2886320" lon="-75.8933920">
        <ele>1362.4</ele>
        <time>2022-08-14T13:42:53Z</time>
      </trkpt>
      <trkpt lat="4.2886440" lon="-75.8934270">
        <ele>1363.2</ele>
        <time>2022-08-14T13:42:58Z</time>
      </trkpt>
      <trkpt lat="4.2886440" lon="-75.8934390">
        <ele>1363.4</ele>
        <time>2022-08-14T13:43:00Z</time>
      </trkpt>
      <trkpt lat="4.2886610" lon="-75.8935000">
        <ele>1364.4</ele>
        <time>2022-08-14T13:43:08Z</time>
      </trkpt>
      <trkpt lat="4.2886620" lon="-75.8935090">
        <ele>1364.4</ele>
        <time>2022-08-14T13:43:09Z</time>
      </trkpt>
      <trkpt lat="4.2886670" lon="-75.8935360">
        <ele>1364.8</ele>
        <time>2022-08-14T13:43:12Z</time>
      </trkpt>
      <trkpt lat="4.2886680" lon="-75.8936110">
        <ele>1365.8</ele>
        <time>2022-08-14T13:43:21Z</time>
      </trkpt>
      <trkpt lat="4.2886800" lon="-75.8936900">
        <ele>1366.6</ele>
        <time>2022-08-14T13:43:30Z</time>
      </trkpt>
      <trkpt lat="4.2886830" lon="-75.8936960">
        <ele>1366.8</ele>
        <time>2022-08-14T13:43:31Z</time>
      </trkpt>
      <trkpt lat="4.2887270" lon="-75.8937320">
        <ele>1368.0</ele>
        <time>2022-08-14T13:43:38Z</time>
      </trkpt>
      <trkpt lat="4.2887320" lon="-75.8937350">
        <ele>1368.0</ele>
        <time>2022-08-14T13:43:39Z</time>
      </trkpt>
      <trkpt lat="4.2887710" lon="-75.8937430">
        <ele>1369.0</ele>
        <time>2022-08-14T13:43:45Z</time>
      </trkpt>
      <trkpt lat="4.2887910" lon="-75.8937420">
        <ele>1369.8</ele>
        <time>2022-08-14T13:43:48Z</time>
      </trkpt>
      <trkpt lat="4.2888100" lon="-75.8937370">
        <ele>1370.4</ele>
        <time>2022-08-14T13:43:51Z</time>
      </trkpt>
      <trkpt lat="4.2888400" lon="-75.8937210">
        <ele>1371.4</ele>
        <time>2022-08-14T13:43:56Z</time>
      </trkpt>
      <trkpt lat="4.2888510" lon="-75.8937150">
        <ele>1371.8</ele>
        <time>2022-08-14T13:43:58Z</time>
      </trkpt>
      <trkpt lat="4.2888800" lon="-75.8936900">
        <ele>1372.6</ele>
        <time>2022-08-14T13:44:03Z</time>
      </trkpt>
      <trkpt lat="4.2889050" lon="-75.8936610">
        <ele>1373.4</ele>
        <time>2022-08-14T13:44:08Z</time>
      </trkpt>
      <trkpt lat="4.2889100" lon="-75.8936570">
        <ele>1373.6</ele>
        <time>2022-08-14T13:44:09Z</time>
      </trkpt>
      <trkpt lat="4.2889670" lon="-75.8936270">
        <ele>1374.6</ele>
        <time>2022-08-14T13:44:17Z</time>
      </trkpt>
      <trkpt lat="4.2889800" lon="-75.8936220">
        <ele>1374.8</ele>
        <time>2022-08-14T13:44:19Z</time>
      </trkpt>
      <trkpt lat="4.2890240" lon="-75.8936240">
        <ele>1375.8</ele>
        <time>2022-08-14T13:44:25Z</time>
      </trkpt>
      <trkpt lat="4.2890560" lon="-75.8936230">
        <ele>1376.8</ele>
        <time>2022-08-14T13:44:30Z</time>
      </trkpt>
      <trkpt lat="4.2890640" lon="-75.8936240">
        <ele>1377.0</ele>
        <time>2022-08-14T13:44:31Z</time>
      </trkpt>
      <trkpt lat="4.2891220" lon="-75.8936340">
        <ele>1377.8</ele>
        <time>2022-08-14T13:44:39Z</time>
      </trkpt>
      <trkpt lat="4.2891290" lon="-75.8936370">
        <ele>1378.0</ele>
        <time>2022-08-14T13:44:40Z</time>
      </trkpt>
      <trkpt lat="4.2891870" lon="-75.8936540">
        <ele>1379.2</ele>
        <time>2022-08-14T13:44:47Z</time>
      </trkpt>
      <trkpt lat="4.2892570" lon="-75.8936970">
        <ele>1380.2</ele>
        <time>2022-08-14T13:44:57Z</time>
      </trkpt>
      <trkpt lat="4.2892630" lon="-75.8937030">
        <ele>1380.4</ele>
        <time>2022-08-14T13:44:58Z</time>
      </trkpt>
      <trkpt lat="4.2892690" lon="-75.8937060">
        <ele>1380.4</ele>
        <time>2022-08-14T13:44:59Z</time>
      </trkpt>
      <trkpt lat="4.2892950" lon="-75.8937380">
        <ele>1381.6</ele>
        <time>2022-08-14T13:45:04Z</time>
      </trkpt>
      <trkpt lat="4.2893090" lon="-75.8937740">
        <ele>1382.4</ele>
        <time>2022-08-14T13:45:09Z</time>
      </trkpt>
      <trkpt lat="4.2893100" lon="-75.8937810">
        <ele>1382.6</ele>
        <time>2022-08-14T13:45:10Z</time>
      </trkpt>
      <trkpt lat="4.2892950" lon="-75.8938260">
        <ele>1383.6</ele>
        <time>2022-08-14T13:45:17Z</time>
      </trkpt>
      <trkpt lat="4.2892690" lon="-75.8938640">
        <ele>1384.6</ele>
        <time>2022-08-14T13:45:23Z</time>
      </trkpt>
      <trkpt lat="4.2892560" lon="-75.8938930">
        <ele>1385.4</ele>
        <time>2022-08-14T13:45:27Z</time>
      </trkpt>
      <trkpt lat="4.2892550" lon="-75.8939090">
        <ele>1385.8</ele>
        <time>2022-08-14T13:45:29Z</time>
      </trkpt>
      <trkpt lat="4.2892730" lon="-75.8939640">
        <ele>1386.8</ele>
        <time>2022-08-14T13:45:35Z</time>
      </trkpt>
      <trkpt lat="4.2892800" lon="-75.8939790">
        <ele>1387.0</ele>
        <time>2022-08-14T13:45:37Z</time>
      </trkpt>
      <trkpt lat="4.2892910" lon="-75.8940190">
        <ele>1388.0</ele>
        <time>2022-08-14T13:45:43Z</time>
      </trkpt>
      <trkpt lat="4.2892970" lon="-75.8940480">
        <ele>1388.4</ele>
        <time>2022-08-14T13:45:48Z</time>
      </trkpt>
      <trkpt lat="4.2893030" lon="-75.8940770">
        <ele>1389.2</ele>
        <time>2022-08-14T13:45:52Z</time>
      </trkpt>
      <trkpt lat="4.2893090" lon="-75.8941140">
        <ele>1390.2</ele>
        <time>2022-08-14T13:45:58Z</time>
      </trkpt>
      <trkpt lat="4.2893100" lon="-75.8941180">
        <ele>1390.2</ele>
        <time>2022-08-14T13:45:59Z</time>
      </trkpt>
      <trkpt lat="4.2893110" lon="-75.8941610">
        <ele>1391.4</ele>
        <time>2022-08-14T13:46:06Z</time>
      </trkpt>
      <trkpt lat="4.2893150" lon="-75.8941750">
        <ele>1391.6</ele>
        <time>2022-08-14T13:46:08Z</time>
      </trkpt>
      <trkpt lat="4.2893180" lon="-75.8942140">
        <ele>1392.4</ele>
        <time>2022-08-14T13:46:14Z</time>
      </trkpt>
      <trkpt lat="4.2893190" lon="-75.8942370">
        <ele>1393.0</ele>
        <time>2022-08-14T13:46:18Z</time>
      </trkpt>
      <trkpt lat="4.2893210" lon="-75.8942520">
        <ele>1393.4</ele>
        <time>2022-08-14T13:46:21Z</time>
      </trkpt>
      <trkpt lat="4.2893290" lon="-75.8942820">
        <ele>1394.4</ele>
        <time>2022-08-14T13:46:26Z</time>
      </trkpt>
      <trkpt lat="4.2893260" lon="-75.8943060">
        <ele>1395.2</ele>
        <time>2022-08-14T13:46:30Z</time>
      </trkpt>
      <trkpt lat="4.2893240" lon="-75.8943240">
        <ele>1395.8</ele>
        <time>2022-08-14T13:46:33Z</time>
      </trkpt>
      <trkpt lat="4.2893340" lon="-75.8943500">
        <ele>1396.6</ele>
        <time>2022-08-14T13:46:39Z</time>
      </trkpt>
      <trkpt lat="4.2893290" lon="-75.8943700">
        <ele>1397.0</ele>
        <time>2022-08-14T13:46:42Z</time>
      </trkpt>
      <trkpt lat="4.2893250" lon="-75.8944060">
        <ele>1398.0</ele>
        <time>2022-08-14T13:46:48Z</time>
      </trkpt>
      <trkpt lat="4.2893230" lon="-75.8944120">
        <ele>1398.2</ele>
        <time>2022-08-14T13:46:49Z</time>
      </trkpt>
      <trkpt lat="4.2893200" lon="-75.8944520">
        <ele>1399.2</ele>
        <time>2022-08-14T13:46:56Z</time>
      </trkpt>
      <trkpt lat="4.2893070" lon="-75.8944890">
        <ele>1400.4</ele>
        <time>2022-08-14T13:47:04Z</time>
      </trkpt>
      <trkpt lat="4.2893010" lon="-75.8945080">
        <ele>1400.8</ele>
        <time>2022-08-14T13:47:07Z</time>
      </trkpt>
      <trkpt lat="4.2892950" lon="-75.8945280">
        <ele>1401.4</ele>
        <time>2022-08-14T13:47:10Z</time>
      </trkpt>
      <trkpt lat="4.2892720" lon="-75.8945600">
        <ele>1402.6</ele>
        <time>2022-08-14T13:47:17Z</time>
      </trkpt>
      <trkpt lat="4.2892320" lon="-75.8945890">
        <ele>1403.6</ele>
        <time>2022-08-14T13:47:24Z</time>
      </trkpt>
      <trkpt lat="4.2892090" lon="-75.8946090">
        <ele>1404.4</ele>
        <time>2022-08-14T13:47:29Z</time>
      </trkpt>
      <trkpt lat="4.2891990" lon="-75.8946180">
        <ele>1404.8</ele>
        <time>2022-08-14T13:47:31Z</time>
      </trkpt>
      <trkpt lat="4.2891900" lon="-75.8946340">
        <ele>1405.4</ele>
        <time>2022-08-14T13:47:35Z</time>
      </trkpt>
      <trkpt lat="4.2891810" lon="-75.8946490">
        <ele>1406.0</ele>
        <time>2022-08-14T13:47:38Z</time>
      </trkpt>
      <trkpt lat="4.2891560" lon="-75.8946650">
        <ele>1406.8</ele>
        <time>2022-08-14T13:47:43Z</time>
      </trkpt>
      <trkpt lat="4.2891470" lon="-75.8946770">
        <ele>1407.0</ele>
        <time>2022-08-14T13:47:45Z</time>
      </trkpt>
      <trkpt lat="4.2891220" lon="-75.8947000">
        <ele>1407.8</ele>
        <time>2022-08-14T13:47:50Z</time>
      </trkpt>
      <trkpt lat="4.2891170" lon="-75.8947030">
        <ele>1408.0</ele>
        <time>2022-08-14T13:47:51Z</time>
      </trkpt>
      <trkpt lat="4.2890790" lon="-75.8947310">
        <ele>1409.0</ele>
        <time>2022-08-14T13:47:58Z</time>
      </trkpt>
      <trkpt lat="4.2890750" lon="-75.8947360">
        <ele>1409.0</ele>
        <time>2022-08-14T13:47:59Z</time>
      </trkpt>
      <trkpt lat="4.2890410" lon="-75.8947620">
        <ele>1410.2</ele>
        <time>2022-08-14T13:48:06Z</time>
      </trkpt>
      <trkpt lat="4.2890250" lon="-75.8947750">
        <ele>1410.6</ele>
        <time>2022-08-14T13:48:09Z</time>
      </trkpt>
      <trkpt lat="4.2890230" lon="-75.8947770">
        <ele>1410.8</ele>
        <time>2022-08-14T13:48:10Z</time>
      </trkpt>
      <trkpt lat="4.2890090" lon="-75.8947820">
        <ele>1411.2</ele>
        <time>2022-08-14T13:48:13Z</time>
      </trkpt>
      <trkpt lat="4.2889790" lon="-75.8948040">
        <ele>1412.0</ele>
        <time>2022-08-14T13:48:18Z</time>
      </trkpt>
      <trkpt lat="4.2889730" lon="-75.8948090">
        <ele>1412.2</ele>
        <time>2022-08-14T13:48:19Z</time>
      </trkpt>
      <trkpt lat="4.2889290" lon="-75.8948450">
        <ele>1413.4</ele>
        <time>2022-08-14T13:48:26Z</time>
      </trkpt>
      <trkpt lat="4.2889100" lon="-75.8948670">
        <ele>1413.8</ele>
        <time>2022-08-14T13:48:29Z</time>
      </trkpt>
      <trkpt lat="4.2888740" lon="-75.8948860">
        <ele>1414.4</ele>
        <time>2022-08-14T13:48:34Z</time>
      </trkpt>
      <trkpt lat="4.2888530" lon="-75.8948990">
        <ele>1414.8</ele>
        <time>2022-08-14T13:48:37Z</time>
      </trkpt>
      <trkpt lat="4.2888180" lon="-75.8949140">
        <ele>1415.6</ele>
        <time>2022-08-14T13:48:42Z</time>
      </trkpt>
      <trkpt lat="4.2887850" lon="-75.8949370">
        <ele>1416.2</ele>
        <time>2022-08-14T13:48:47Z</time>
      </trkpt>
      <trkpt lat="4.2887670" lon="-75.8949470">
        <ele>1416.6</ele>
        <time>2022-08-14T13:48:50Z</time>
      </trkpt>
      <trkpt lat="4.2887490" lon="-75.8949740">
        <ele>1417.4</ele>
        <time>2022-08-14T13:48:55Z</time>
      </trkpt>
      <trkpt lat="4.2887420" lon="-75.8949910">
        <ele>1417.8</ele>
        <time>2022-08-14T13:48:57Z</time>
      </trkpt>
      <trkpt lat="4.2887440" lon="-75.8950450">
        <ele>1418.8</ele>
        <time>2022-08-14T13:49:05Z</time>
      </trkpt>
      <trkpt lat="4.2887730" lon="-75.8950670">
        <ele>1419.8</ele>
        <time>2022-08-14T13:49:10Z</time>
      </trkpt>
      <trkpt lat="4.2888070" lon="-75.8950830">
        <ele>1420.6</ele>
        <time>2022-08-14T13:49:15Z</time>
      </trkpt>
      <trkpt lat="4.2888130" lon="-75.8950800">
        <ele>1421.0</ele>
        <time>2022-08-14T13:49:17Z</time>
      </trkpt>
      <trkpt lat="4.2888330" lon="-75.8950800">
        <ele>1421.4</ele>
        <time>2022-08-14T13:49:19Z</time>
      </trkpt>
      <trkpt lat="4.2888570" lon="-75.8950800">
        <ele>1421.8</ele>
        <time>2022-08-14T13:49:22Z</time>
      </trkpt>
      <trkpt lat="4.2888700" lon="-75.8950810">
        <ele>1422.0</ele>
        <time>2022-08-14T13:49:24Z</time>
      </trkpt>
      <trkpt lat="4.2889120" lon="-75.8950820">
        <ele>1423.0</ele>
        <time>2022-08-14T13:49:30Z</time>
      </trkpt>
      <trkpt lat="4.2889380" lon="-75.8950850">
        <ele>1423.8</ele>
        <time>2022-08-14T13:49:34Z</time>
      </trkpt>
      <trkpt lat="4.2889600" lon="-75.8950980">
        <ele>1424.2</ele>
        <time>2022-08-14T13:49:37Z</time>
      </trkpt>
      <trkpt lat="4.2889900" lon="-75.8951210">
        <ele>1425.2</ele>
        <time>2022-08-14T13:49:42Z</time>
      </trkpt>
      <trkpt lat="4.2889960" lon="-75.8951220">
        <ele>1425.4</ele>
        <time>2022-08-14T13:49:43Z</time>
      </trkpt>
      <trkpt lat="4.2890470" lon="-75.8951440">
        <ele>1426.2</ele>
        <time>2022-08-14T13:49:50Z</time>
      </trkpt>
      <trkpt lat="4.2890510" lon="-75.8951500">
        <ele>1426.4</ele>
        <time>2022-08-14T13:49:51Z</time>
      </trkpt>
      <trkpt lat="4.2890860" lon="-75.8951820">
        <ele>1427.6</ele>
        <time>2022-08-14T13:49:57Z</time>
      </trkpt>
      <trkpt lat="4.2890960" lon="-75.8951930">
        <ele>1427.8</ele>
        <time>2022-08-14T13:49:59Z</time>
      </trkpt>
      <trkpt lat="4.2891160" lon="-75.8952260">
        <ele>1428.8</ele>
        <time>2022-08-14T13:50:04Z</time>
      </trkpt>
      <trkpt lat="4.2891320" lon="-75.8952490">
        <ele>1429.4</ele>
        <time>2022-08-14T13:50:07Z</time>
      </trkpt>
      <trkpt lat="4.2891470" lon="-75.8952850">
        <ele>1429.8</ele>
        <time>2022-08-14T13:50:11Z</time>
      </trkpt>
      <trkpt lat="4.2891530" lon="-75.8953240">
        <ele>1430.0</ele>
        <time>2022-08-14T13:50:15Z</time>
      </trkpt>
      <trkpt lat="4.2891570" lon="-75.8953630">
        <ele>1430.8</ele>
        <time>2022-08-14T13:50:19Z</time>
      </trkpt>
      <trkpt lat="4.2891520" lon="-75.8954220">
        <ele>1432.0</ele>
        <time>2022-08-14T13:50:26Z</time>
      </trkpt>
      <trkpt lat="4.2891370" lon="-75.8954580">
        <ele>1432.6</ele>
        <time>2022-08-14T13:50:30Z</time>
      </trkpt>
      <trkpt lat="4.2891270" lon="-75.8954830">
        <ele>1433.0</ele>
        <time>2022-08-14T13:50:33Z</time>
      </trkpt>
      <trkpt lat="4.2891260" lon="-75.8954880">
        <ele>1433.0</ele>
        <time>2022-08-14T13:50:34Z</time>
      </trkpt>
      <trkpt lat="4.2890950" lon="-75.8955430">
        <ele>1434.0</ele>
        <time>2022-08-14T13:50:41Z</time>
      </trkpt>
      <trkpt lat="4.2890790" lon="-75.8955700">
        <ele>1434.6</ele>
        <time>2022-08-14T13:50:45Z</time>
      </trkpt>
      <trkpt lat="4.2890550" lon="-75.8955940">
        <ele>1435.2</ele>
        <time>2022-08-14T13:50:49Z</time>
      </trkpt>
      <trkpt lat="4.2890380" lon="-75.8956090">
        <ele>1435.8</ele>
        <time>2022-08-14T13:50:52Z</time>
      </trkpt>
      <trkpt lat="4.2890210" lon="-75.8956270">
        <ele>1436.2</ele>
        <time>2022-08-14T13:50:55Z</time>
      </trkpt>
      <trkpt lat="4.2889930" lon="-75.8956630">
        <ele>1437.0</ele>
        <time>2022-08-14T13:51:00Z</time>
      </trkpt>
      <trkpt lat="4.2889750" lon="-75.8956850">
        <ele>1437.2</ele>
        <time>2022-08-14T13:51:03Z</time>
      </trkpt>
      <trkpt lat="4.2889390" lon="-75.8957270">
        <ele>1438.2</ele>
        <time>2022-08-14T13:51:10Z</time>
      </trkpt>
      <trkpt lat="4.2889340" lon="-75.8957320">
        <ele>1438.4</ele>
        <time>2022-08-14T13:51:11Z</time>
      </trkpt>
      <trkpt lat="4.2889100" lon="-75.8957730">
        <ele>1439.2</ele>
        <time>2022-08-14T13:51:17Z</time>
      </trkpt>
      <trkpt lat="4.2888950" lon="-75.8957930">
        <ele>1439.6</ele>
        <time>2022-08-14T13:51:20Z</time>
      </trkpt>
      <trkpt lat="4.2888800" lon="-75.8958110">
        <ele>1440.0</ele>
        <time>2022-08-14T13:51:24Z</time>
      </trkpt>
      <trkpt lat="4.2888580" lon="-75.8958380">
        <ele>1440.6</ele>
        <time>2022-08-14T13:51:28Z</time>
      </trkpt>
      <trkpt lat="4.2888280" lon="-75.8958770">
        <ele>1441.4</ele>
        <time>2022-08-14T13:51:34Z</time>
      </trkpt>
      <trkpt lat="4.2888170" lon="-75.8958860">
        <ele>1441.8</ele>
        <time>2022-08-14T13:51:36Z</time>
      </trkpt>
      <trkpt lat="4.2887900" lon="-75.8959240">
        <ele>1442.8</ele>
        <time>2022-08-14T13:51:43Z</time>
      </trkpt>
      <trkpt lat="4.2887880" lon="-75.8959310">
        <ele>1443.0</ele>
        <time>2022-08-14T13:51:44Z</time>
      </trkpt>
      <trkpt lat="4.2887730" lon="-75.8959630">
        <ele>1443.8</ele>
        <time>2022-08-14T13:51:49Z</time>
      </trkpt>
      <trkpt lat="4.2887590" lon="-75.8959940">
        <ele>1445.0</ele>
        <time>2022-08-14T13:51:54Z</time>
      </trkpt>
      <trkpt lat="4.2887560" lon="-75.8960000">
        <ele>1445.2</ele>
        <time>2022-08-14T13:51:55Z</time>
      </trkpt>
      <trkpt lat="4.2887450" lon="-75.8960240">
        <ele>1446.0</ele>
        <time>2022-08-14T13:51:59Z</time>
      </trkpt>
      <trkpt lat="4.2887270" lon="-75.8960570">
        <ele>1446.8</ele>
        <time>2022-08-14T13:52:04Z</time>
      </trkpt>
      <trkpt lat="4.2887190" lon="-75.8960700">
        <ele>1447.2</ele>
        <time>2022-08-14T13:52:06Z</time>
      </trkpt>
      <trkpt lat="4.2887040" lon="-75.8961200">
        <ele>1447.8</ele>
        <time>2022-08-14T13:52:13Z</time>
      </trkpt>
      <trkpt lat="4.2887130" lon="-75.8961600">
        <ele>1447.8</ele>
        <time>2022-08-14T13:52:20Z</time>
      </trkpt>
      <trkpt lat="4.2887040" lon="-75.8961810">
        <ele>1448.2</ele>
        <time>2022-08-14T13:52:24Z</time>
      </trkpt>
      <trkpt lat="4.2886780" lon="-75.8961990">
        <ele>1448.6</ele>
        <time>2022-08-14T13:52:29Z</time>
      </trkpt>
      <trkpt lat="4.2886750" lon="-75.8962060">
        <ele>1449.2</ele>
        <time>2022-08-14T13:52:35Z</time>
      </trkpt>
      <trkpt lat="4.2886400" lon="-75.8962460">
        <ele>1449.8</ele>
        <time>2022-08-14T13:52:41Z</time>
      </trkpt>
      <trkpt lat="4.2885490" lon="-75.8963190">
        <ele>1450.4</ele>
        <time>2022-08-14T13:52:48Z</time>
      </trkpt>
      <trkpt lat="4.2884450" lon="-75.8963770">
        <ele>1451.2</ele>
        <time>2022-08-14T13:52:57Z</time>
      </trkpt>
      <trkpt lat="4.2884240" lon="-75.8963940">
        <ele>1451.4</ele>
        <time>2022-08-14T13:52:59Z</time>
      </trkpt>
      <trkpt lat="4.2883780" lon="-75.8964370">
        <ele>1452.4</ele>
        <time>2022-08-14T13:53:04Z</time>
      </trkpt>
      <trkpt lat="4.2883540" lon="-75.8964630">
        <ele>1453.0</ele>
        <time>2022-08-14T13:53:07Z</time>
      </trkpt>
      <trkpt lat="4.2883350" lon="-75.8964920">
        <ele>1453.8</ele>
        <time>2022-08-14T13:53:10Z</time>
      </trkpt>
      <trkpt lat="4.2883220" lon="-75.8965090">
        <ele>1454.4</ele>
        <time>2022-08-14T13:53:13Z</time>
      </trkpt>
      <trkpt lat="4.2883210" lon="-75.8965110">
        <ele>1455.0</ele>
        <time>2022-08-14T13:53:15Z</time>
      </trkpt>
      <trkpt lat="4.2883120" lon="-75.8965260">
        <ele>1455.2</ele>
        <time>2022-08-14T13:53:17Z</time>
      </trkpt>
      <trkpt lat="4.2883080" lon="-75.8965340">
        <ele>1455.4</ele>
        <time>2022-08-14T13:53:18Z</time>
      </trkpt>
      <trkpt lat="4.2883000" lon="-75.8965570">
        <ele>1456.0</ele>
        <time>2022-08-14T13:53:21Z</time>
      </trkpt>
      <trkpt lat="4.2882810" lon="-75.8966090">
        <ele>1456.6</ele>
        <time>2022-08-14T13:53:27Z</time>
      </trkpt>
      <trkpt lat="4.2882780" lon="-75.8966340">
        <ele>1457.0</ele>
        <time>2022-08-14T13:53:30Z</time>
      </trkpt>
      <trkpt lat="4.2882630" lon="-75.8966850">
        <ele>1458.2</ele>
        <time>2022-08-14T13:53:37Z</time>
      </trkpt>
      <trkpt lat="4.2882610" lon="-75.8966940">
        <ele>1458.4</ele>
        <time>2022-08-14T13:53:38Z</time>
      </trkpt>
      <trkpt lat="4.2882500" lon="-75.8967370">
        <ele>1459.2</ele>
        <time>2022-08-14T13:53:43Z</time>
      </trkpt>
      <trkpt lat="4.2882440" lon="-75.8967710">
        <ele>1460.0</ele>
        <time>2022-08-14T13:53:48Z</time>
      </trkpt>
      <trkpt lat="4.2882390" lon="-75.8967910">
        <ele>1460.4</ele>
        <time>2022-08-14T13:53:51Z</time>
      </trkpt>
      <trkpt lat="4.2882320" lon="-75.8968210">
        <ele>1461.2</ele>
        <time>2022-08-14T13:53:57Z</time>
      </trkpt>
      <trkpt lat="4.2882260" lon="-75.8968380">
        <ele>1461.4</ele>
        <time>2022-08-14T13:53:59Z</time>
      </trkpt>
      <trkpt lat="4.2882050" lon="-75.8968830">
        <ele>1462.4</ele>
        <time>2022-08-14T13:54:05Z</time>
      </trkpt>
      <trkpt lat="4.2882040" lon="-75.8968900">
        <ele>1462.6</ele>
        <time>2022-08-14T13:54:06Z</time>
      </trkpt>
      <trkpt lat="4.2881960" lon="-75.8969360">
        <ele>1463.4</ele>
        <time>2022-08-14T13:54:13Z</time>
      </trkpt>
      <trkpt lat="4.2881800" lon="-75.8969870">
        <ele>1464.8</ele>
        <time>2022-08-14T13:54:20Z</time>
      </trkpt>
      <trkpt lat="4.2881790" lon="-75.8970460">
        <ele>1465.8</ele>
        <time>2022-08-14T13:54:26Z</time>
      </trkpt>
      <trkpt lat="4.2881750" lon="-75.8970720">
        <ele>1466.2</ele>
        <time>2022-08-14T13:54:29Z</time>
      </trkpt>
      <trkpt lat="4.2881700" lon="-75.8971020">
        <ele>1466.8</ele>
        <time>2022-08-14T13:54:33Z</time>
      </trkpt>
      <trkpt lat="4.2881640" lon="-75.8971300">
        <ele>1467.6</ele>
        <time>2022-08-14T13:54:38Z</time>
      </trkpt>
      <trkpt lat="4.2881620" lon="-75.8971490">
        <ele>1468.0</ele>
        <time>2022-08-14T13:54:41Z</time>
      </trkpt>
      <trkpt lat="4.2881520" lon="-75.8971950">
        <ele>1469.0</ele>
        <time>2022-08-14T13:54:47Z</time>
      </trkpt>
      <trkpt lat="4.2881510" lon="-75.8972040">
        <ele>1469.2</ele>
        <time>2022-08-14T13:54:48Z</time>
      </trkpt>
      <trkpt lat="4.2881390" lon="-75.8972570">
        <ele>1470.0</ele>
        <time>2022-08-14T13:54:55Z</time>
      </trkpt>
      <trkpt lat="4.2881360" lon="-75.8972640">
        <ele>1470.2</ele>
        <time>2022-08-14T13:54:56Z</time>
      </trkpt>
      <trkpt lat="4.2881200" lon="-75.8973010">
        <ele>1471.0</ele>
        <time>2022-08-14T13:55:02Z</time>
      </trkpt>
      <trkpt lat="4.2881170" lon="-75.8973050">
        <ele>1471.0</ele>
        <time>2022-08-14T13:55:03Z</time>
      </trkpt>
      <trkpt lat="4.2881030" lon="-75.8973400">
        <ele>1472.0</ele>
        <time>2022-08-14T13:55:08Z</time>
      </trkpt>
      <trkpt lat="4.2880940" lon="-75.8973600">
        <ele>1472.6</ele>
        <time>2022-08-14T13:55:11Z</time>
      </trkpt>
      <trkpt lat="4.2880810" lon="-75.8973830">
        <ele>1473.2</ele>
        <time>2022-08-14T13:55:15Z</time>
      </trkpt>
      <trkpt lat="4.2880670" lon="-75.8974290">
        <ele>1474.2</ele>
        <time>2022-08-14T13:55:21Z</time>
      </trkpt>
      <trkpt lat="4.2880610" lon="-75.8974840">
        <ele>1475.4</ele>
        <time>2022-08-14T13:55:28Z</time>
      </trkpt>
      <trkpt lat="4.2880550" lon="-75.8974970">
        <ele>1475.8</ele>
        <time>2022-08-14T13:55:30Z</time>
      </trkpt>
      <trkpt lat="4.2880450" lon="-75.8975210">
        <ele>1476.6</ele>
        <time>2022-08-14T13:55:34Z</time>
      </trkpt>
      <trkpt lat="4.2880410" lon="-75.8975360">
        <ele>1476.8</ele>
        <time>2022-08-14T13:55:37Z</time>
      </trkpt>
      <trkpt lat="4.2880400" lon="-75.8975740">
        <ele>1477.6</ele>
        <time>2022-08-14T13:55:42Z</time>
      </trkpt>
      <trkpt lat="4.2880370" lon="-75.8976230">
        <ele>1478.4</ele>
        <time>2022-08-14T13:55:49Z</time>
      </trkpt>
      <trkpt lat="4.2880290" lon="-75.8976730">
        <ele>1479.4</ele>
        <time>2022-08-14T13:55:55Z</time>
      </trkpt>
      <trkpt lat="4.2880250" lon="-75.8976890">
        <ele>1479.8</ele>
        <time>2022-08-14T13:55:58Z</time>
      </trkpt>
      <trkpt lat="4.2880240" lon="-75.8977150">
        <ele>1480.4</ele>
        <time>2022-08-14T13:56:02Z</time>
      </trkpt>
      <trkpt lat="4.2880250" lon="-75.8977410">
        <ele>1481.4</ele>
        <time>2022-08-14T13:56:06Z</time>
      </trkpt>
      <trkpt lat="4.2880270" lon="-75.8977530">
        <ele>1481.6</ele>
        <time>2022-08-14T13:56:08Z</time>
      </trkpt>
      <trkpt lat="4.2880220" lon="-75.8977930">
        <ele>1482.4</ele>
        <time>2022-08-14T13:56:14Z</time>
      </trkpt>
      <trkpt lat="4.2880230" lon="-75.8978020">
        <ele>1482.6</ele>
        <time>2022-08-14T13:56:15Z</time>
      </trkpt>
      <trkpt lat="4.2880170" lon="-75.8978590">
        <ele>1483.6</ele>
        <time>2022-08-14T13:56:22Z</time>
      </trkpt>
      <trkpt lat="4.2880080" lon="-75.8978840">
        <ele>1484.2</ele>
        <time>2022-08-14T13:56:25Z</time>
      </trkpt>
      <trkpt lat="4.2880020" lon="-75.8979130">
        <ele>1484.8</ele>
        <time>2022-08-14T13:56:28Z</time>
      </trkpt>
      <trkpt lat="4.2879960" lon="-75.8979340">
        <ele>1485.6</ele>
        <time>2022-08-14T13:56:33Z</time>
      </trkpt>
      <trkpt lat="4.2879960" lon="-75.8979510">
        <ele>1485.8</ele>
        <time>2022-08-14T13:56:35Z</time>
      </trkpt>
      <trkpt lat="4.2879780" lon="-75.8979850">
        <ele>1486.2</ele>
        <time>2022-08-14T13:56:39Z</time>
      </trkpt>
      <trkpt lat="4.2879510" lon="-75.8980720">
        <ele>1486.6</ele>
        <time>2022-08-14T13:56:46Z</time>
      </trkpt>
      <trkpt lat="4.2879420" lon="-75.8980950">
        <ele>1487.0</ele>
        <time>2022-08-14T13:56:48Z</time>
      </trkpt>
      <trkpt lat="4.2879260" lon="-75.8981730">
        <ele>1488.2</ele>
        <time>2022-08-14T13:56:54Z</time>
      </trkpt>
      <trkpt lat="4.2879240" lon="-75.8982050">
        <ele>1488.6</ele>
        <time>2022-08-14T13:56:56Z</time>
      </trkpt>
      <trkpt lat="4.2879530" lon="-75.8982900">
        <ele>1489.4</ele>
        <time>2022-08-14T13:57:01Z</time>
      </trkpt>
      <trkpt lat="4.2879620" lon="-75.8983240">
        <ele>1489.4</ele>
        <time>2022-08-14T13:57:03Z</time>
      </trkpt>
      <trkpt lat="4.2879800" lon="-75.8984150">
        <ele>1490.2</ele>
        <time>2022-08-14T13:57:09Z</time>
      </trkpt>
      <trkpt lat="4.2879840" lon="-75.8984300">
        <ele>1490.2</ele>
        <time>2022-08-14T13:57:10Z</time>
      </trkpt>
      <trkpt lat="4.2880160" lon="-75.8985210">
        <ele>1491.2</ele>
        <time>2022-08-14T13:57:16Z</time>
      </trkpt>
      <trkpt lat="4.2880290" lon="-75.8985660">
        <ele>1491.6</ele>
        <time>2022-08-14T13:57:19Z</time>
      </trkpt>
      <trkpt lat="4.2880460" lon="-75.8986330">
        <ele>1492.2</ele>
        <time>2022-08-14T13:57:23Z</time>
      </trkpt>
      <trkpt lat="4.2880460" lon="-75.8987060">
        <ele>1492.6</ele>
        <time>2022-08-14T13:57:27Z</time>
      </trkpt>
      <trkpt lat="4.2880140" lon="-75.8988080">
        <ele>1493.4</ele>
        <time>2022-08-14T13:57:33Z</time>
      </trkpt>
      <trkpt lat="4.2880110" lon="-75.8988270">
        <ele>1493.6</ele>
        <time>2022-08-14T13:57:34Z</time>
      </trkpt>
      <trkpt lat="4.2879810" lon="-75.8989640">
        <ele>1494.4</ele>
        <time>2022-08-14T13:57:42Z</time>
      </trkpt>
      <trkpt lat="4.2879800" lon="-75.8989820">
        <ele>1494.6</ele>
        <time>2022-08-14T13:57:43Z</time>
      </trkpt>
      <trkpt lat="4.2879920" lon="-75.8991000">
        <ele>1495.2</ele>
        <time>2022-08-14T13:57:50Z</time>
      </trkpt>
      <trkpt lat="4.2880020" lon="-75.8991420">
        <ele>1495.4</ele>
        <time>2022-08-14T13:57:53Z</time>
      </trkpt>
      <trkpt lat="4.2879970" lon="-75.8991840">
        <ele>1495.8</ele>
        <time>2022-08-14T13:57:56Z</time>
      </trkpt>
      <trkpt lat="4.2879920" lon="-75.8992350">
        <ele>1496.8</ele>
        <time>2022-08-14T13:58:00Z</time>
      </trkpt>
      <trkpt lat="4.2879910" lon="-75.8992460">
        <ele>1497.0</ele>
        <time>2022-08-14T13:58:01Z</time>
      </trkpt>
      <trkpt lat="4.2879930" lon="-75.8992740">
        <ele>1497.4</ele>
        <time>2022-08-14T13:58:03Z</time>
      </trkpt>
      <trkpt lat="4.2879840" lon="-75.8993000">
        <ele>1498.0</ele>
        <time>2022-08-14T13:58:05Z</time>
      </trkpt>
      <trkpt lat="4.2879830" lon="-75.8993110">
        <ele>1498.2</ele>
        <time>2022-08-14T13:58:06Z</time>
      </trkpt>
      <trkpt lat="4.2879690" lon="-75.8993460">
        <ele>1498.8</ele>
        <time>2022-08-14T13:58:09Z</time>
      </trkpt>
      <trkpt lat="4.2879640" lon="-75.8993580">
        <ele>1499.2</ele>
        <time>2022-08-14T13:58:10Z</time>
      </trkpt>
      <trkpt lat="4.2879430" lon="-75.8994230">
        <ele>1500.4</ele>
        <time>2022-08-14T13:58:15Z</time>
      </trkpt>
      <trkpt lat="4.2879210" lon="-75.8994810">
        <ele>1501.4</ele>
        <time>2022-08-14T13:58:20Z</time>
      </trkpt>
      <trkpt lat="4.2879140" lon="-75.8995080">
        <ele>1501.6</ele>
        <time>2022-08-14T13:58:22Z</time>
      </trkpt>
      <trkpt lat="4.2879080" lon="-75.8995660">
        <ele>1502.6</ele>
        <time>2022-08-14T13:58:26Z</time>
      </trkpt>
      <trkpt lat="4.2879080" lon="-75.8996070">
        <ele>1503.2</ele>
        <time>2022-08-14T13:58:29Z</time>
      </trkpt>
      <trkpt lat="4.2879200" lon="-75.8996600">
        <ele>1503.6</ele>
        <time>2022-08-14T13:58:32Z</time>
      </trkpt>
      <trkpt lat="4.2879270" lon="-75.8997310">
        <ele>1504.2</ele>
        <time>2022-08-14T13:58:36Z</time>
      </trkpt>
      <trkpt lat="4.2879300" lon="-75.8997920">
        <ele>1504.6</ele>
        <time>2022-08-14T13:58:39Z</time>
      </trkpt>
      <trkpt lat="4.2879250" lon="-75.8998820">
        <ele>1505.0</ele>
        <time>2022-08-14T13:58:43Z</time>
      </trkpt>
      <trkpt lat="4.2879090" lon="-75.9001040">
        <ele>1505.6</ele>
        <time>2022-08-14T13:58:52Z</time>
      </trkpt>
      <trkpt lat="4.2879050" lon="-75.9001230">
        <ele>1505.8</ele>
        <time>2022-08-14T13:58:53Z</time>
      </trkpt>
      <trkpt lat="4.2878890" lon="-75.9001640">
        <ele>1506.2</ele>
        <time>2022-08-14T13:58:57Z</time>
      </trkpt>
      <trkpt lat="4.2878990" lon="-75.9001910">
        <ele>1506.8</ele>
        <time>2022-08-14T13:59:01Z</time>
      </trkpt>
      <trkpt lat="4.2879040" lon="-75.9002120">
        <ele>1507.6</ele>
        <time>2022-08-14T13:59:03Z</time>
      </trkpt>
      <trkpt lat="4.2879040" lon="-75.9002300">
        <ele>1508.0</ele>
        <time>2022-08-14T13:59:05Z</time>
      </trkpt>
      <trkpt lat="4.2879000" lon="-75.9002770">
        <ele>1509.0</ele>
        <time>2022-08-14T13:59:11Z</time>
      </trkpt>
      <trkpt lat="4.2878960" lon="-75.9002920">
        <ele>1509.0</ele>
        <time>2022-08-14T13:59:12Z</time>
      </trkpt>
      <trkpt lat="4.2878940" lon="-75.9003490">
        <ele>1509.4</ele>
        <time>2022-08-14T13:59:16Z</time>
      </trkpt>
      <trkpt lat="4.2878880" lon="-75.9003840">
        <ele>1509.6</ele>
        <time>2022-08-14T13:59:18Z</time>
      </trkpt>
      <trkpt lat="4.2878810" lon="-75.9004480">
        <ele>1510.2</ele>
        <time>2022-08-14T13:59:22Z</time>
      </trkpt>
      <trkpt lat="4.2878740" lon="-75.9005160">
        <ele>1510.8</ele>
        <time>2022-08-14T13:59:27Z</time>
      </trkpt>
      <trkpt lat="4.2878680" lon="-75.9005370">
        <ele>1511.2</ele>
        <time>2022-08-14T13:59:29Z</time>
      </trkpt>
      <trkpt lat="4.2878570" lon="-75.9006040">
        <ele>1512.0</ele>
        <time>2022-08-14T13:59:34Z</time>
      </trkpt>
      <trkpt lat="4.2878570" lon="-75.9006170">
        <ele>1512.2</ele>
        <time>2022-08-14T13:59:35Z</time>
      </trkpt>
      <trkpt lat="4.2878580" lon="-75.9006450">
        <ele>1512.4</ele>
        <time>2022-08-14T13:59:37Z</time>
      </trkpt>
      <trkpt lat="4.2878610" lon="-75.9006820">
        <ele>1513.2</ele>
        <time>2022-08-14T13:59:40Z</time>
      </trkpt>
      <trkpt lat="4.2878580" lon="-75.9006960">
        <ele>1513.8</ele>
        <time>2022-08-14T13:59:42Z</time>
      </trkpt>
      <trkpt lat="4.2878590" lon="-75.9007210">
        <ele>1514.2</ele>
        <time>2022-08-14T13:59:44Z</time>
      </trkpt>
      <trkpt lat="4.2878570" lon="-75.9007270">
        <ele>1514.6</ele>
        <time>2022-08-14T13:59:45Z</time>
      </trkpt>
      <trkpt lat="4.2878580" lon="-75.9007470">
        <ele>1515.4</ele>
        <time>2022-08-14T13:59:50Z</time>
      </trkpt>
      <trkpt lat="4.2878590" lon="-75.9007590">
        <ele>1515.4</ele>
        <time>2022-08-14T13:59:51Z</time>
      </trkpt>
      <trkpt lat="4.2878580" lon="-75.9007710">
        <ele>1515.6</ele>
        <time>2022-08-14T13:59:52Z</time>
      </trkpt>
      <trkpt lat="4.2878560" lon="-75.9008390">
        <ele>1516.4</ele>
        <time>2022-08-14T13:59:58Z</time>
      </trkpt>
      <trkpt lat="4.2878560" lon="-75.9008670">
        <ele>1516.6</ele>
        <time>2022-08-14T14:00:01Z</time>
      </trkpt>
      <trkpt lat="4.2878600" lon="-75.9009010">
        <ele>1517.8</ele>
        <time>2022-08-14T14:00:05Z</time>
      </trkpt>
      <trkpt lat="4.2878570" lon="-75.9009330">
        <ele>1518.8</ele>
        <time>2022-08-14T14:00:08Z</time>
      </trkpt>
      <trkpt lat="4.2878570" lon="-75.9009390">
        <ele>1519.0</ele>
        <time>2022-08-14T14:00:09Z</time>
      </trkpt>
      <trkpt lat="4.2878390" lon="-75.9010060">
        <ele>1520.2</ele>
        <time>2022-08-14T14:00:16Z</time>
      </trkpt>
      <trkpt lat="4.2878410" lon="-75.9010200">
        <ele>1520.4</ele>
        <time>2022-08-14T14:00:18Z</time>
      </trkpt>
      <trkpt lat="4.2878400" lon="-75.9010300">
        <ele>1520.6</ele>
        <time>2022-08-14T14:00:19Z</time>
      </trkpt>
      <trkpt lat="4.2878250" lon="-75.9011070">
        <ele>1521.0</ele>
        <time>2022-08-14T14:00:23Z</time>
      </trkpt>
      <trkpt lat="4.2877850" lon="-75.9012080">
        <ele>1521.2</ele>
        <time>2022-08-14T14:00:29Z</time>
      </trkpt>
      <trkpt lat="4.2877780" lon="-75.9012270">
        <ele>1521.2</ele>
        <time>2022-08-14T14:00:30Z</time>
      </trkpt>
      <trkpt lat="4.2877260" lon="-75.9013580">
        <ele>1521.6</ele>
        <time>2022-08-14T14:00:37Z</time>
      </trkpt>
      <trkpt lat="4.2877030" lon="-75.9014150">
        <ele>1522.2</ele>
        <time>2022-08-14T14:00:40Z</time>
      </trkpt>
      <trkpt lat="4.2876450" lon="-75.9015690">
        <ele>1523.0</ele>
        <time>2022-08-14T14:00:46Z</time>
      </trkpt>
      <trkpt lat="4.2876090" lon="-75.9016550">
        <ele>1523.0</ele>
        <time>2022-08-14T14:00:49Z</time>
      </trkpt>
      <trkpt lat="4.2875590" lon="-75.9017620">
        <ele>1523.4</ele>
        <time>2022-08-14T14:00:53Z</time>
      </trkpt>
      <trkpt lat="4.2875150" lon="-75.9018740">
        <ele>1524.2</ele>
        <time>2022-08-14T14:00:58Z</time>
      </trkpt>
      <trkpt lat="4.2874960" lon="-75.9019360">
        <ele>1524.4</ele>
        <time>2022-08-14T14:01:01Z</time>
      </trkpt>
      <trkpt lat="4.2874850" lon="-75.9020130">
        <ele>1525.4</ele>
        <time>2022-08-14T14:01:05Z</time>
      </trkpt>
      <trkpt lat="4.2874700" lon="-75.9020770">
        <ele>1526.2</ele>
        <time>2022-08-14T14:01:09Z</time>
      </trkpt>
      <trkpt lat="4.2874570" lon="-75.9021110">
        <ele>1526.6</ele>
        <time>2022-08-14T14:01:11Z</time>
      </trkpt>
      <trkpt lat="4.2874430" lon="-75.9021570">
        <ele>1527.4</ele>
        <time>2022-08-14T14:01:14Z</time>
      </trkpt>
      <trkpt lat="4.2874380" lon="-75.9021690">
        <ele>1527.6</ele>
        <time>2022-08-14T14:01:15Z</time>
      </trkpt>
      <trkpt lat="4.2874280" lon="-75.9021840">
        <ele>1528.0</ele>
        <time>2022-08-14T14:01:16Z</time>
      </trkpt>
      <trkpt lat="4.2874000" lon="-75.9022210">
        <ele>1528.8</ele>
        <time>2022-08-14T14:01:19Z</time>
      </trkpt>
      <trkpt lat="4.2873410" lon="-75.9022980">
        <ele>1530.0</ele>
        <time>2022-08-14T14:01:25Z</time>
      </trkpt>
      <trkpt lat="4.2872630" lon="-75.9023660">
        <ele>1531.0</ele>
        <time>2022-08-14T14:01:31Z</time>
      </trkpt>
      <trkpt lat="4.2871840" lon="-75.9024040">
        <ele>1531.6</ele>
        <time>2022-08-14T14:01:35Z</time>
      </trkpt>
      <trkpt lat="4.2870940" lon="-75.9024420">
        <ele>1532.2</ele>
        <time>2022-08-14T14:01:39Z</time>
      </trkpt>
      <trkpt lat="4.2870390" lon="-75.9024680">
        <ele>1532.6</ele>
        <time>2022-08-14T14:01:42Z</time>
      </trkpt>
      <trkpt lat="4.2868910" lon="-75.9025310">
        <ele>1533.2</ele>
        <time>2022-08-14T14:01:48Z</time>
      </trkpt>
      <trkpt lat="4.2868190" lon="-75.9025570">
        <ele>1533.6</ele>
        <time>2022-08-14T14:01:51Z</time>
      </trkpt>
      <trkpt lat="4.2866890" lon="-75.9026120">
        <ele>1534.4</ele>
        <time>2022-08-14T14:01:56Z</time>
      </trkpt>
      <trkpt lat="4.2865700" lon="-75.9026720">
        <ele>1535.4</ele>
        <time>2022-08-14T14:02:01Z</time>
      </trkpt>
      <trkpt lat="4.2865430" lon="-75.9026840">
        <ele>1535.6</ele>
        <time>2022-08-14T14:02:02Z</time>
      </trkpt>
      <trkpt lat="4.2864240" lon="-75.9027780">
        <ele>1536.8</ele>
        <time>2022-08-14T14:02:08Z</time>
      </trkpt>
      <trkpt lat="4.2864080" lon="-75.9027940">
        <ele>1537.0</ele>
        <time>2022-08-14T14:02:09Z</time>
      </trkpt>
      <trkpt lat="4.2863100" lon="-75.9028960">
        <ele>1537.8</ele>
        <time>2022-08-14T14:02:15Z</time>
      </trkpt>
      <trkpt lat="4.2862240" lon="-75.9029720">
        <ele>1538.8</ele>
        <time>2022-08-14T14:02:20Z</time>
      </trkpt>
      <trkpt lat="4.2862070" lon="-75.9029880">
        <ele>1539.0</ele>
        <time>2022-08-14T14:02:21Z</time>
      </trkpt>
      <trkpt lat="4.2861350" lon="-75.9030500">
        <ele>1539.8</ele>
        <time>2022-08-14T14:02:25Z</time>
      </trkpt>
      <trkpt lat="4.2860350" lon="-75.9031200">
        <ele>1540.8</ele>
        <time>2022-08-14T14:02:30Z</time>
      </trkpt>
      <trkpt lat="4.2859060" lon="-75.9031760">
        <ele>1542.2</ele>
        <time>2022-08-14T14:02:36Z</time>
      </trkpt>
      <trkpt lat="4.2858550" lon="-75.9031840">
        <ele>1542.4</ele>
        <time>2022-08-14T14:02:38Z</time>
      </trkpt>
      <trkpt lat="4.2857470" lon="-75.9031870">
        <ele>1543.2</ele>
        <time>2022-08-14T14:02:42Z</time>
      </trkpt>
      <trkpt lat="4.2856280" lon="-75.9031670">
        <ele>1544.0</ele>
        <time>2022-08-14T14:02:46Z</time>
      </trkpt>
      <trkpt lat="4.2855660" lon="-75.9031500">
        <ele>1544.4</ele>
        <time>2022-08-14T14:02:48Z</time>
      </trkpt>
      <trkpt lat="4.2853900" lon="-75.9030960">
        <ele>1545.2</ele>
        <time>2022-08-14T14:02:54Z</time>
      </trkpt>
      <trkpt lat="4.2853310" lon="-75.9030820">
        <ele>1545.4</ele>
        <time>2022-08-14T14:02:56Z</time>
      </trkpt>
      <trkpt lat="4.2851690" lon="-75.9030740">
        <ele>1546.2</ele>
        <time>2022-08-14T14:03:02Z</time>
      </trkpt>
      <trkpt lat="4.2851000" lon="-75.9030930">
        <ele>1546.6</ele>
        <time>2022-08-14T14:03:05Z</time>
      </trkpt>
      <trkpt lat="4.2850120" lon="-75.9031250">
        <ele>1547.4</ele>
        <time>2022-08-14T14:03:09Z</time>
      </trkpt>
      <trkpt lat="4.2849910" lon="-75.9031360">
        <ele>1547.6</ele>
        <time>2022-08-14T14:03:10Z</time>
      </trkpt>
      <trkpt lat="4.2848930" lon="-75.9032030">
        <ele>1548.6</ele>
        <time>2022-08-14T14:03:16Z</time>
      </trkpt>
      <trkpt lat="4.2848790" lon="-75.9032130">
        <ele>1548.8</ele>
        <time>2022-08-14T14:03:17Z</time>
      </trkpt>
      <trkpt lat="4.2848020" lon="-75.9032610">
        <ele>1549.6</ele>
        <time>2022-08-14T14:03:22Z</time>
      </trkpt>
      <trkpt lat="4.2847870" lon="-75.9032680">
        <ele>1549.8</ele>
        <time>2022-08-14T14:03:24Z</time>
      </trkpt>
      <trkpt lat="4.2847870" lon="-75.9032680">
        <ele>1550.2</ele>
        <time>2022-08-14T14:03:28Z</time>
      </trkpt>
      <trkpt lat="4.2847870" lon="-75.9032680">
        <ele>1550.4</ele>
        <time>2022-08-14T14:03:31Z</time>
      </trkpt>
      <trkpt lat="4.2847870" lon="-75.9032680">
        <ele>1550.6</ele>
        <time>2022-08-14T14:03:33Z</time>
      </trkpt>
      <trkpt lat="4.2847870" lon="-75.9032680">
        <ele>1550.6</ele>
        <time>2022-08-14T14:03:40Z</time>
      </trkpt>
      <trkpt lat="4.2847870" lon="-75.9032680">
        <ele>1550.6</ele>
        <time>2022-08-14T14:03:44Z</time>
      </trkpt>
      <trkpt lat="4.2847520" lon="-75.9032880">
        <ele>1550.8</ele>
        <time>2022-08-14T14:03:47Z</time>
      </trkpt>
      <trkpt lat="4.2847330" lon="-75.9033020">
        <ele>1550.8</ele>
        <time>2022-08-14T14:03:48Z</time>
      </trkpt>
      <trkpt lat="4.2845790" lon="-75.9034010">
        <ele>1551.2</ele>
        <time>2022-08-14T14:03:56Z</time>
      </trkpt>
      <trkpt lat="4.2844900" lon="-75.9034540">
        <ele>1551.6</ele>
        <time>2022-08-14T14:04:00Z</time>
      </trkpt>
      <trkpt lat="4.2843770" lon="-75.9035220">
        <ele>1552.4</ele>
        <time>2022-08-14T14:04:05Z</time>
      </trkpt>
      <trkpt lat="4.2843050" lon="-75.9035640">
        <ele>1552.8</ele>
        <time>2022-08-14T14:04:08Z</time>
      </trkpt>
      <trkpt lat="4.2841960" lon="-75.9036390">
        <ele>1553.6</ele>
        <time>2022-08-14T14:04:13Z</time>
      </trkpt>
      <trkpt lat="4.2841740" lon="-75.9036560">
        <ele>1553.6</ele>
        <time>2022-08-14T14:04:14Z</time>
      </trkpt>
      <trkpt lat="4.2841510" lon="-75.9036740">
        <ele>1553.8</ele>
        <time>2022-08-14T14:04:15Z</time>
      </trkpt>
      <trkpt lat="4.2840240" lon="-75.9037890">
        <ele>1554.8</ele>
        <time>2022-08-14T14:04:21Z</time>
      </trkpt>
      <trkpt lat="4.2839570" lon="-75.9038860">
        <ele>1555.4</ele>
        <time>2022-08-14T14:04:25Z</time>
      </trkpt>
      <trkpt lat="4.2839200" lon="-75.9039630">
        <ele>1555.8</ele>
        <time>2022-08-14T14:04:28Z</time>
      </trkpt>
      <trkpt lat="4.2839040" lon="-75.9040470">
        <ele>1556.6</ele>
        <time>2022-08-14T14:04:31Z</time>
      </trkpt>
      <trkpt lat="4.2838880" lon="-75.9041030">
        <ele>1557.0</ele>
        <time>2022-08-14T14:04:33Z</time>
      </trkpt>
      <trkpt lat="4.2838420" lon="-75.9042640">
        <ele>1558.0</ele>
        <time>2022-08-14T14:04:39Z</time>
      </trkpt>
      <trkpt lat="4.2838390" lon="-75.9042910">
        <ele>1558.2</ele>
        <time>2022-08-14T14:04:40Z</time>
      </trkpt>
      <trkpt lat="4.2838330" lon="-75.9044180">
        <ele>1559.2</ele>
        <time>2022-08-14T14:04:45Z</time>
      </trkpt>
      <trkpt lat="4.2838420" lon="-75.9044640">
        <ele>1559.6</ele>
        <time>2022-08-14T14:04:47Z</time>
      </trkpt>
      <trkpt lat="4.2838660" lon="-75.9045390">
        <ele>1560.4</ele>
        <time>2022-08-14T14:04:50Z</time>
      </trkpt>
      <trkpt lat="4.2839130" lon="-75.9046360">
        <ele>1561.4</ele>
        <time>2022-08-14T14:04:54Z</time>
      </trkpt>
      <trkpt lat="4.2839440" lon="-75.9048090">
        <ele>1562.6</ele>
        <time>2022-08-14T14:05:01Z</time>
      </trkpt>
      <trkpt lat="4.2839440" lon="-75.9048350">
        <ele>1562.8</ele>
        <time>2022-08-14T14:05:02Z</time>
      </trkpt>
      <trkpt lat="4.2839090" lon="-75.9049590">
        <ele>1563.6</ele>
        <time>2022-08-14T14:05:07Z</time>
      </trkpt>
      <trkpt lat="4.2838890" lon="-75.9049790">
        <ele>1564.0</ele>
        <time>2022-08-14T14:05:08Z</time>
      </trkpt>
      <trkpt lat="4.2837900" lon="-75.9050400">
        <ele>1564.8</ele>
        <time>2022-08-14T14:05:12Z</time>
      </trkpt>
      <trkpt lat="4.2837400" lon="-75.9050550">
        <ele>1565.2</ele>
        <time>2022-08-14T14:05:14Z</time>
      </trkpt>
      <trkpt lat="4.2836550" lon="-75.9050700">
        <ele>1565.8</ele>
        <time>2022-08-14T14:05:17Z</time>
      </trkpt>
      <trkpt lat="4.2834850" lon="-75.9050700">
        <ele>1566.6</ele>
        <time>2022-08-14T14:05:23Z</time>
      </trkpt>
      <trkpt lat="4.2834360" lon="-75.9050670">
        <ele>1566.8</ele>
        <time>2022-08-14T14:05:25Z</time>
      </trkpt>
      <trkpt lat="4.2832760" lon="-75.9050680">
        <ele>1567.8</ele>
        <time>2022-08-14T14:05:31Z</time>
      </trkpt>
      <trkpt lat="4.2832490" lon="-75.9050650">
        <ele>1567.8</ele>
        <time>2022-08-14T14:05:32Z</time>
      </trkpt>
      <trkpt lat="4.2831110" lon="-75.9050590">
        <ele>1569.0</ele>
        <time>2022-08-14T14:05:37Z</time>
      </trkpt>
      <trkpt lat="4.2830550" lon="-75.9050550">
        <ele>1569.4</ele>
        <time>2022-08-14T14:05:39Z</time>
      </trkpt>
      <trkpt lat="4.2829560" lon="-75.9050500">
        <ele>1570.4</ele>
        <time>2022-08-14T14:05:43Z</time>
      </trkpt>
      <trkpt lat="4.2828330" lon="-75.9050440">
        <ele>1571.4</ele>
        <time>2022-08-14T14:05:48Z</time>
      </trkpt>
      <trkpt lat="4.2828020" lon="-75.9050430">
        <ele>1571.4</ele>
        <time>2022-08-14T14:05:49Z</time>
      </trkpt>
      <trkpt lat="4.2826480" lon="-75.9050390">
        <ele>1572.6</ele>
        <time>2022-08-14T14:05:55Z</time>
      </trkpt>
      <trkpt lat="4.2826220" lon="-75.9050360">
        <ele>1572.8</ele>
        <time>2022-08-14T14:05:56Z</time>
      </trkpt>
      <trkpt lat="4.2825180" lon="-75.9050290">
        <ele>1573.6</ele>
        <time>2022-08-14T14:06:00Z</time>
      </trkpt>
      <trkpt lat="4.2824210" lon="-75.9050310">
        <ele>1574.4</ele>
        <time>2022-08-14T14:06:04Z</time>
      </trkpt>
      <trkpt lat="4.2823440" lon="-75.9050430">
        <ele>1575.0</ele>
        <time>2022-08-14T14:06:07Z</time>
      </trkpt>
      <trkpt lat="4.2822530" lon="-75.9050820">
        <ele>1575.6</ele>
        <time>2022-08-14T14:06:11Z</time>
      </trkpt>
      <trkpt lat="4.2821960" lon="-75.9051160">
        <ele>1576.4</ele>
        <time>2022-08-14T14:06:14Z</time>
      </trkpt>
      <trkpt lat="4.2821600" lon="-75.9051530">
        <ele>1576.8</ele>
        <time>2022-08-14T14:06:16Z</time>
      </trkpt>
      <trkpt lat="4.2820960" lon="-75.9052560">
        <ele>1577.8</ele>
        <time>2022-08-14T14:06:21Z</time>
      </trkpt>
      <trkpt lat="4.2820590" lon="-75.9053630">
        <ele>1578.8</ele>
        <time>2022-08-14T14:06:26Z</time>
      </trkpt>
      <trkpt lat="4.2820340" lon="-75.9054190">
        <ele>1579.4</ele>
        <time>2022-08-14T14:06:29Z</time>
      </trkpt>
      <trkpt lat="4.2820120" lon="-75.9054540">
        <ele>1580.0</ele>
        <time>2022-08-14T14:06:31Z</time>
      </trkpt>
      <trkpt lat="4.2819210" lon="-75.9055580">
        <ele>1581.0</ele>
        <time>2022-08-14T14:06:37Z</time>
      </trkpt>
      <trkpt lat="4.2818160" lon="-75.9056110">
        <ele>1582.2</ele>
        <time>2022-08-14T14:06:42Z</time>
      </trkpt>
      <trkpt lat="4.2817250" lon="-75.9056290">
        <ele>1582.8</ele>
        <time>2022-08-14T14:06:46Z</time>
      </trkpt>
      <trkpt lat="4.2817010" lon="-75.9056330">
        <ele>1583.2</ele>
        <time>2022-08-14T14:06:47Z</time>
      </trkpt>
      <trkpt lat="4.2815260" lon="-75.9056370">
        <ele>1584.2</ele>
        <time>2022-08-14T14:06:54Z</time>
      </trkpt>
      <trkpt lat="4.2814560" lon="-75.9056390">
        <ele>1584.6</ele>
        <time>2022-08-14T14:06:57Z</time>
      </trkpt>
      <trkpt lat="4.2813750" lon="-75.9056390">
        <ele>1584.8</ele>
        <time>2022-08-14T14:07:00Z</time>
      </trkpt>
      <trkpt lat="4.2813110" lon="-75.9056460">
        <ele>1585.2</ele>
        <time>2022-08-14T14:07:03Z</time>
      </trkpt>
      <trkpt lat="4.2812610" lon="-75.9056610">
        <ele>1585.6</ele>
        <time>2022-08-14T14:07:05Z</time>
      </trkpt>
      <trkpt lat="4.2812030" lon="-75.9056890">
        <ele>1586.2</ele>
        <time>2022-08-14T14:07:08Z</time>
      </trkpt>
      <trkpt lat="4.2811260" lon="-75.9057340">
        <ele>1587.0</ele>
        <time>2022-08-14T14:07:12Z</time>
      </trkpt>
      <trkpt lat="4.2811090" lon="-75.9057470">
        <ele>1587.2</ele>
        <time>2022-08-14T14:07:13Z</time>
      </trkpt>
      <trkpt lat="4.2809900" lon="-75.9058320">
        <ele>1588.2</ele>
        <time>2022-08-14T14:07:20Z</time>
      </trkpt>
      <trkpt lat="4.2809390" lon="-75.9058660">
        <ele>1588.6</ele>
        <time>2022-08-14T14:07:23Z</time>
      </trkpt>
      <trkpt lat="4.2808680" lon="-75.9059140">
        <ele>1589.4</ele>
        <time>2022-08-14T14:07:27Z</time>
      </trkpt>
      <trkpt lat="4.2808310" lon="-75.9059410">
        <ele>1589.8</ele>
        <time>2022-08-14T14:07:29Z</time>
      </trkpt>
      <trkpt lat="4.2807690" lon="-75.9059750">
        <ele>1590.4</ele>
        <time>2022-08-14T14:07:32Z</time>
      </trkpt>
      <trkpt lat="4.2807070" lon="-75.9060120">
        <ele>1590.8</ele>
        <time>2022-08-14T14:07:35Z</time>
      </trkpt>
      <trkpt lat="4.2806160" lon="-75.9060550">
        <ele>1591.4</ele>
        <time>2022-08-14T14:07:39Z</time>
      </trkpt>
      <trkpt lat="4.2805370" lon="-75.9061140">
        <ele>1592.2</ele>
        <time>2022-08-14T14:07:43Z</time>
      </trkpt>
      <trkpt lat="4.2804860" lon="-75.9061580">
        <ele>1592.2</ele>
        <time>2022-08-14T14:07:46Z</time>
      </trkpt>
      <trkpt lat="4.2803920" lon="-75.9062200">
        <ele>1593.2</ele>
        <time>2022-08-14T14:07:51Z</time>
      </trkpt>
      <trkpt lat="4.2803580" lon="-75.9062430">
        <ele>1593.4</ele>
        <time>2022-08-14T14:07:53Z</time>
      </trkpt>
      <trkpt lat="4.2802650" lon="-75.9063130">
        <ele>1594.4</ele>
        <time>2022-08-14T14:07:58Z</time>
      </trkpt>
      <trkpt lat="4.2802430" lon="-75.9063240">
        <ele>1594.6</ele>
        <time>2022-08-14T14:07:59Z</time>
      </trkpt>
      <trkpt lat="4.2801220" lon="-75.9064040">
        <ele>1595.6</ele>
        <time>2022-08-14T14:08:05Z</time>
      </trkpt>
      <trkpt lat="4.2800830" lon="-75.9064300">
        <ele>1595.8</ele>
        <time>2022-08-14T14:08:07Z</time>
      </trkpt>
      <trkpt lat="4.2799690" lon="-75.9064960">
        <ele>1596.6</ele>
        <time>2022-08-14T14:08:13Z</time>
      </trkpt>
      <trkpt lat="4.2799090" lon="-75.9065240">
        <ele>1597.0</ele>
        <time>2022-08-14T14:08:16Z</time>
      </trkpt>
      <trkpt lat="4.2798270" lon="-75.9065510">
        <ele>1597.6</ele>
        <time>2022-08-14T14:08:20Z</time>
      </trkpt>
      <trkpt lat="4.2797210" lon="-75.9065980">
        <ele>1598.4</ele>
        <time>2022-08-14T14:08:25Z</time>
      </trkpt>
      <trkpt lat="4.2796970" lon="-75.9066130">
        <ele>1598.6</ele>
        <time>2022-08-14T14:08:26Z</time>
      </trkpt>
      <trkpt lat="4.2796240" lon="-75.9066990">
        <ele>1599.2</ele>
        <time>2022-08-14T14:08:31Z</time>
      </trkpt>
      <trkpt lat="4.2795900" lon="-75.9067780">
        <ele>1599.6</ele>
        <time>2022-08-14T14:08:35Z</time>
      </trkpt>
      <trkpt lat="4.2795840" lon="-75.9068240">
        <ele>1600.2</ele>
        <time>2022-08-14T14:08:37Z</time>
      </trkpt>
      <trkpt lat="4.2795830" lon="-75.9068470">
        <ele>1600.4</ele>
        <time>2022-08-14T14:08:38Z</time>
      </trkpt>
      <trkpt lat="4.2795990" lon="-75.9068980">
        <ele>1600.8</ele>
        <time>2022-08-14T14:08:40Z</time>
      </trkpt>
      <trkpt lat="4.2796080" lon="-75.9069230">
        <ele>1600.8</ele>
        <time>2022-08-14T14:08:41Z</time>
      </trkpt>
      <trkpt lat="4.2796440" lon="-75.9070310">
        <ele>1601.8</ele>
        <time>2022-08-14T14:08:46Z</time>
      </trkpt>
      <trkpt lat="4.2796510" lon="-75.9070980">
        <ele>1602.2</ele>
        <time>2022-08-14T14:08:49Z</time>
      </trkpt>
      <trkpt lat="4.2796220" lon="-75.9072000">
        <ele>1602.8</ele>
        <time>2022-08-14T14:08:53Z</time>
      </trkpt>
      <trkpt lat="4.2795950" lon="-75.9072460">
        <ele>1603.2</ele>
        <time>2022-08-14T14:08:55Z</time>
      </trkpt>
      <trkpt lat="4.2795690" lon="-75.9073280">
        <ele>1603.6</ele>
        <time>2022-08-14T14:08:59Z</time>
      </trkpt>
      <trkpt lat="4.2795660" lon="-75.9073410">
        <ele>1603.8</ele>
        <time>2022-08-14T14:09:00Z</time>
      </trkpt>
      <trkpt lat="4.2795610" lon="-75.9073490">
        <ele>1604.0</ele>
        <time>2022-08-14T14:09:01Z</time>
      </trkpt>
      <trkpt lat="4.2795320" lon="-75.9073490">
        <ele>1604.0</ele>
        <time>2022-08-14T14:09:02Z</time>
      </trkpt>
      <trkpt lat="4.2794710" lon="-75.9073490">
        <ele>1604.2</ele>
        <time>2022-08-14T14:09:04Z</time>
      </trkpt>
      <trkpt lat="4.2792670" lon="-75.9073390">
        <ele>1604.8</ele>
        <time>2022-08-14T14:09:10Z</time>
      </trkpt>
      <trkpt lat="4.2792030" lon="-75.9073310">
        <ele>1605.0</ele>
        <time>2022-08-14T14:09:12Z</time>
      </trkpt>
      <trkpt lat="4.2790470" lon="-75.9073390">
        <ele>1605.2</ele>
        <time>2022-08-14T14:09:17Z</time>
      </trkpt>
      <trkpt lat="4.2789020" lon="-75.9074310">
        <ele>1605.8</ele>
        <time>2022-08-14T14:09:23Z</time>
      </trkpt>
      <trkpt lat="4.2788400" lon="-75.9075770">
        <ele>1607.0</ele>
        <time>2022-08-14T14:09:29Z</time>
      </trkpt>
      <trkpt lat="4.2788430" lon="-75.9076720">
        <ele>1607.8</ele>
        <time>2022-08-14T14:09:33Z</time>
      </trkpt>
      <trkpt lat="4.2788400" lon="-75.9076930">
        <ele>1608.0</ele>
        <time>2022-08-14T14:09:34Z</time>
      </trkpt>
      <trkpt lat="4.2788270" lon="-75.9077880">
        <ele>1609.0</ele>
        <time>2022-08-14T14:09:38Z</time>
      </trkpt>
      <trkpt lat="4.2788150" lon="-75.9078410">
        <ele>1609.4</ele>
        <time>2022-08-14T14:09:40Z</time>
      </trkpt>
      <trkpt lat="4.2787940" lon="-75.9079060">
        <ele>1610.2</ele>
        <time>2022-08-14T14:09:43Z</time>
      </trkpt>
      <trkpt lat="4.2787660" lon="-75.9079700">
        <ele>1610.6</ele>
        <time>2022-08-14T14:09:46Z</time>
      </trkpt>
      <trkpt lat="4.2787100" lon="-75.9080480">
        <ele>1611.2</ele>
        <time>2022-08-14T14:09:50Z</time>
      </trkpt>
      <trkpt lat="4.2786400" lon="-75.9081210">
        <ele>1612.0</ele>
        <time>2022-08-14T14:09:55Z</time>
      </trkpt>
      <trkpt lat="4.2786030" lon="-75.9081460">
        <ele>1612.2</ele>
        <time>2022-08-14T14:09:57Z</time>
      </trkpt>
      <trkpt lat="4.2785020" lon="-75.9081970">
        <ele>1613.4</ele>
        <time>2022-08-14T14:10:02Z</time>
      </trkpt>
      <trkpt lat="4.2784630" lon="-75.9082170">
        <ele>1613.8</ele>
        <time>2022-08-14T14:10:04Z</time>
      </trkpt>
      <trkpt lat="4.2783530" lon="-75.9082850">
        <ele>1614.2</ele>
        <time>2022-08-14T14:10:10Z</time>
      </trkpt>
      <trkpt lat="4.2783080" lon="-75.9083250">
        <ele>1614.8</ele>
        <time>2022-08-14T14:10:13Z</time>
      </trkpt>
      <trkpt lat="4.2782470" lon="-75.9083490">
        <ele>1615.4</ele>
        <time>2022-08-14T14:10:16Z</time>
      </trkpt>
      <trkpt lat="4.2781460" lon="-75.9084030">
        <ele>1616.2</ele>
        <time>2022-08-14T14:10:21Z</time>
      </trkpt>
      <trkpt lat="4.2781260" lon="-75.9084100">
        <ele>1616.4</ele>
        <time>2022-08-14T14:10:22Z</time>
      </trkpt>
      <trkpt lat="4.2780190" lon="-75.9084290">
        <ele>1617.4</ele>
        <time>2022-08-14T14:10:27Z</time>
      </trkpt>
      <trkpt lat="4.2779930" lon="-75.9084240">
        <ele>1617.4</ele>
        <time>2022-08-14T14:10:28Z</time>
      </trkpt>
      <trkpt lat="4.2779570" lon="-75.9084370">
        <ele>1617.8</ele>
        <time>2022-08-14T14:10:30Z</time>
      </trkpt>
      <trkpt lat="4.2778650" lon="-75.9084630">
        <ele>1618.4</ele>
        <time>2022-08-14T14:10:34Z</time>
      </trkpt>
      <trkpt lat="4.2777720" lon="-75.9084730">
        <ele>1619.0</ele>
        <time>2022-08-14T14:10:38Z</time>
      </trkpt>
      <trkpt lat="4.2777220" lon="-75.9084690">
        <ele>1619.4</ele>
        <time>2022-08-14T14:10:40Z</time>
      </trkpt>
      <trkpt lat="4.2775990" lon="-75.9084690">
        <ele>1620.0</ele>
        <time>2022-08-14T14:10:45Z</time>
      </trkpt>
      <trkpt lat="4.2775520" lon="-75.9084670">
        <ele>1620.4</ele>
        <time>2022-08-14T14:10:47Z</time>
      </trkpt>
      <trkpt lat="4.2774100" lon="-75.9084560">
        <ele>1621.4</ele>
        <time>2022-08-14T14:10:53Z</time>
      </trkpt>
      <trkpt lat="4.2773920" lon="-75.9084580">
        <ele>1621.6</ele>
        <time>2022-08-14T14:10:54Z</time>
      </trkpt>
      <trkpt lat="4.2772480" lon="-75.9084970">
        <ele>1622.4</ele>
        <time>2022-08-14T14:11:00Z</time>
      </trkpt>
      <trkpt lat="4.2771820" lon="-75.9085180">
        <ele>1622.8</ele>
        <time>2022-08-14T14:11:03Z</time>
      </trkpt>
      <trkpt lat="4.2771080" lon="-75.9085750">
        <ele>1623.4</ele>
        <time>2022-08-14T14:11:07Z</time>
      </trkpt>
      <trkpt lat="4.2770760" lon="-75.9086070">
        <ele>1623.6</ele>
        <time>2022-08-14T14:11:09Z</time>
      </trkpt>
      <trkpt lat="4.2770230" lon="-75.9086880">
        <ele>1624.6</ele>
        <time>2022-08-14T14:11:13Z</time>
      </trkpt>
      <trkpt lat="4.2769760" lon="-75.9087740">
        <ele>1625.2</ele>
        <time>2022-08-14T14:11:17Z</time>
      </trkpt>
      <trkpt lat="4.2769530" lon="-75.9088430">
        <ele>1625.6</ele>
        <time>2022-08-14T14:11:20Z</time>
      </trkpt>
      <trkpt lat="4.2769150" lon="-75.9089290">
        <ele>1626.2</ele>
        <time>2022-08-14T14:11:24Z</time>
      </trkpt>
      <trkpt lat="4.2768910" lon="-75.9089700">
        <ele>1626.6</ele>
        <time>2022-08-14T14:11:26Z</time>
      </trkpt>
      <trkpt lat="4.2768480" lon="-75.9090610">
        <ele>1627.4</ele>
        <time>2022-08-14T14:11:30Z</time>
      </trkpt>
      <trkpt lat="4.2768210" lon="-75.9090970">
        <ele>1627.8</ele>
        <time>2022-08-14T14:11:32Z</time>
      </trkpt>
      <trkpt lat="4.2767690" lon="-75.9091400">
        <ele>1628.4</ele>
        <time>2022-08-14T14:11:35Z</time>
      </trkpt>
      <trkpt lat="4.2767100" lon="-75.9091770">
        <ele>1629.0</ele>
        <time>2022-08-14T14:11:38Z</time>
      </trkpt>
      <trkpt lat="4.2766490" lon="-75.9091970">
        <ele>1629.4</ele>
        <time>2022-08-14T14:11:41Z</time>
      </trkpt>
      <trkpt lat="4.2765330" lon="-75.9091840">
        <ele>1630.0</ele>
        <time>2022-08-14T14:11:45Z</time>
      </trkpt>
      <trkpt lat="4.2764400" lon="-75.9091570">
        <ele>1630.6</ele>
        <time>2022-08-14T14:11:49Z</time>
      </trkpt>
      <trkpt lat="4.2763340" lon="-75.9090900">
        <ele>1631.2</ele>
        <time>2022-08-14T14:11:54Z</time>
      </trkpt>
      <trkpt lat="4.2763120" lon="-75.9090760">
        <ele>1631.4</ele>
        <time>2022-08-14T14:11:55Z</time>
      </trkpt>
      <trkpt lat="4.2761770" lon="-75.9090170">
        <ele>1632.0</ele>
        <time>2022-08-14T14:12:01Z</time>
      </trkpt>
      <trkpt lat="4.2761520" lon="-75.9090110">
        <ele>1632.2</ele>
        <time>2022-08-14T14:12:02Z</time>
      </trkpt>
      <trkpt lat="4.2760040" lon="-75.9090050">
        <ele>1633.0</ele>
        <time>2022-08-14T14:12:08Z</time>
      </trkpt>
      <trkpt lat="4.2758690" lon="-75.9091020">
        <ele>1634.2</ele>
        <time>2022-08-14T14:12:15Z</time>
      </trkpt>
      <trkpt lat="4.2757860" lon="-75.9092030">
        <ele>1635.2</ele>
        <time>2022-08-14T14:12:20Z</time>
      </trkpt>
      <trkpt lat="4.2757140" lon="-75.9093050">
        <ele>1636.4</ele>
        <time>2022-08-14T14:12:25Z</time>
      </trkpt>
      <trkpt lat="4.2757000" lon="-75.9093250">
        <ele>1636.6</ele>
        <time>2022-08-14T14:12:26Z</time>
      </trkpt>
      <trkpt lat="4.2756330" lon="-75.9094240">
        <ele>1637.6</ele>
        <time>2022-08-14T14:12:31Z</time>
      </trkpt>
      <trkpt lat="4.2755740" lon="-75.9094940">
        <ele>1638.4</ele>
        <time>2022-08-14T14:12:35Z</time>
      </trkpt>
      <trkpt lat="4.2755600" lon="-75.9095120">
        <ele>1638.6</ele>
        <time>2022-08-14T14:12:36Z</time>
      </trkpt>
      <trkpt lat="4.2754940" lon="-75.9095980">
        <ele>1639.6</ele>
        <time>2022-08-14T14:12:41Z</time>
      </trkpt>
      <trkpt lat="4.2754680" lon="-75.9096290">
        <ele>1640.0</ele>
        <time>2022-08-14T14:12:43Z</time>
      </trkpt>
      <trkpt lat="4.2754200" lon="-75.9096850">
        <ele>1640.6</ele>
        <time>2022-08-14T14:12:46Z</time>
      </trkpt>
      <trkpt lat="4.2753650" lon="-75.9097370">
        <ele>1641.0</ele>
        <time>2022-08-14T14:12:49Z</time>
      </trkpt>
      <trkpt lat="4.2752850" lon="-75.9098050">
        <ele>1641.6</ele>
        <time>2022-08-14T14:12:53Z</time>
      </trkpt>
      <trkpt lat="4.2751910" lon="-75.9098810">
        <ele>1642.6</ele>
        <time>2022-08-14T14:12:58Z</time>
      </trkpt>
      <trkpt lat="4.2751690" lon="-75.9098960">
        <ele>1642.8</ele>
        <time>2022-08-14T14:12:59Z</time>
      </trkpt>
      <trkpt lat="4.2750290" lon="-75.9099910">
        <ele>1643.6</ele>
        <time>2022-08-14T14:13:05Z</time>
      </trkpt>
      <trkpt lat="4.2749570" lon="-75.9100510">
        <ele>1644.2</ele>
        <time>2022-08-14T14:13:08Z</time>
      </trkpt>
      <trkpt lat="4.2749100" lon="-75.9100930">
        <ele>1644.6</ele>
        <time>2022-08-14T14:13:10Z</time>
      </trkpt>
      <trkpt lat="4.2748910" lon="-75.9101090">
        <ele>1644.8</ele>
        <time>2022-08-14T14:13:11Z</time>
      </trkpt>
      <trkpt lat="4.2746800" lon="-75.9102670">
        <ele>1646.0</ele>
        <time>2022-08-14T14:13:19Z</time>
      </trkpt>
      <trkpt lat="4.2744750" lon="-75.9104430">
        <ele>1647.0</ele>
        <time>2022-08-14T14:13:27Z</time>
      </trkpt>
      <trkpt lat="4.2743930" lon="-75.9105230">
        <ele>1647.4</ele>
        <time>2022-08-14T14:13:30Z</time>
      </trkpt>
      <trkpt lat="4.2741840" lon="-75.9108060">
        <ele>1647.8</ele>
        <time>2022-08-14T14:13:38Z</time>
      </trkpt>
      <trkpt lat="4.2739810" lon="-75.9111000">
        <ele>1647.8</ele>
        <time>2022-08-14T14:13:47Z</time>
      </trkpt>
      <trkpt lat="4.2738370" lon="-75.9113010">
        <ele>1649.0</ele>
        <time>2022-08-14T14:13:54Z</time>
      </trkpt>
      <trkpt lat="4.2738030" lon="-75.9113510">
        <ele>1649.4</ele>
        <time>2022-08-14T14:13:56Z</time>
      </trkpt>
      <trkpt lat="4.2737750" lon="-75.9113890">
        <ele>1649.8</ele>
        <time>2022-08-14T14:13:58Z</time>
      </trkpt>
      <trkpt lat="4.2737560" lon="-75.9114140">
        <ele>1650.2</ele>
        <time>2022-08-14T14:13:59Z</time>
      </trkpt>
      <trkpt lat="4.2736700" lon="-75.9115320">
        <ele>1651.4</ele>
        <time>2022-08-14T14:14:05Z</time>
      </trkpt>
      <trkpt lat="4.2735990" lon="-75.9116250">
        <ele>1652.6</ele>
        <time>2022-08-14T14:14:10Z</time>
      </trkpt>
      <trkpt lat="4.2735320" lon="-75.9117170">
        <ele>1653.4</ele>
        <time>2022-08-14T14:14:15Z</time>
      </trkpt>
      <trkpt lat="4.2734430" lon="-75.9118440">
        <ele>1654.4</ele>
        <time>2022-08-14T14:14:22Z</time>
      </trkpt>
      <trkpt lat="4.2733890" lon="-75.9119160">
        <ele>1655.2</ele>
        <time>2022-08-14T14:14:26Z</time>
      </trkpt>
      <trkpt lat="4.2733660" lon="-75.9119520">
        <ele>1655.4</ele>
        <time>2022-08-14T14:14:28Z</time>
      </trkpt>
      <trkpt lat="4.2732970" lon="-75.9120650">
        <ele>1656.6</ele>
        <time>2022-08-14T14:14:34Z</time>
      </trkpt>
      <trkpt lat="4.2732650" lon="-75.9121260">
        <ele>1657.2</ele>
        <time>2022-08-14T14:14:37Z</time>
      </trkpt>
      <trkpt lat="4.2732400" lon="-75.9121900">
        <ele>1657.8</ele>
        <time>2022-08-14T14:14:40Z</time>
      </trkpt>
      <trkpt lat="4.2732250" lon="-75.9122590">
        <ele>1658.4</ele>
        <time>2022-08-14T14:14:43Z</time>
      </trkpt>
      <trkpt lat="4.2732300" lon="-75.9123300">
        <ele>1658.8</ele>
        <time>2022-08-14T14:14:46Z</time>
      </trkpt>
      <trkpt lat="4.2732680" lon="-75.9124340">
        <ele>1659.6</ele>
        <time>2022-08-14T14:14:51Z</time>
      </trkpt>
      <trkpt lat="4.2732920" lon="-75.9125060">
        <ele>1660.0</ele>
        <time>2022-08-14T14:14:54Z</time>
      </trkpt>
      <trkpt lat="4.2733310" lon="-75.9126140">
        <ele>1660.8</ele>
        <time>2022-08-14T14:14:59Z</time>
      </trkpt>
      <trkpt lat="4.2733380" lon="-75.9126350">
        <ele>1661.0</ele>
        <time>2022-08-14T14:15:00Z</time>
      </trkpt>
      <trkpt lat="4.2733660" lon="-75.9127420">
        <ele>1662.2</ele>
        <time>2022-08-14T14:15:05Z</time>
      </trkpt>
      <trkpt lat="4.2733690" lon="-75.9127640">
        <ele>1662.4</ele>
        <time>2022-08-14T14:15:06Z</time>
      </trkpt>
      <trkpt lat="4.2733720" lon="-75.9127850">
        <ele>1662.6</ele>
        <time>2022-08-14T14:15:07Z</time>
      </trkpt>
      <trkpt lat="4.2733810" lon="-75.9128650">
        <ele>1663.2</ele>
        <time>2022-08-14T14:15:11Z</time>
      </trkpt>
      <trkpt lat="4.2733700" lon="-75.9129610">
        <ele>1664.0</ele>
        <time>2022-08-14T14:15:16Z</time>
      </trkpt>
      <trkpt lat="4.2733650" lon="-75.9129770">
        <ele>1664.2</ele>
        <time>2022-08-14T14:15:17Z</time>
      </trkpt>
      <trkpt lat="4.2733360" lon="-75.9130270">
        <ele>1665.2</ele>
        <time>2022-08-14T14:15:20Z</time>
      </trkpt>
      <trkpt lat="4.2732790" lon="-75.9130900">
        <ele>1666.4</ele>
        <time>2022-08-14T14:15:24Z</time>
      </trkpt>
      <trkpt lat="4.2732290" lon="-75.9131590">
        <ele>1667.6</ele>
        <time>2022-08-14T14:15:28Z</time>
      </trkpt>
      <trkpt lat="4.2731930" lon="-75.9132050">
        <ele>1668.4</ele>
        <time>2022-08-14T14:15:31Z</time>
      </trkpt>
      <trkpt lat="4.2731800" lon="-75.9132190">
        <ele>1668.6</ele>
        <time>2022-08-14T14:15:32Z</time>
      </trkpt>
      <trkpt lat="4.2730940" lon="-75.9132980">
        <ele>1669.8</ele>
        <time>2022-08-14T14:15:38Z</time>
      </trkpt>
      <trkpt lat="4.2730780" lon="-75.9133090">
        <ele>1670.0</ele>
        <time>2022-08-14T14:15:39Z</time>
      </trkpt>
      <trkpt lat="4.2730050" lon="-75.9133410">
        <ele>1671.0</ele>
        <time>2022-08-14T14:15:43Z</time>
      </trkpt>
      <trkpt lat="4.2729100" lon="-75.9133800">
        <ele>1672.0</ele>
        <time>2022-08-14T14:15:48Z</time>
      </trkpt>
      <trkpt lat="4.2727610" lon="-75.9134380">
        <ele>1673.0</ele>
        <time>2022-08-14T14:15:56Z</time>
      </trkpt>
      <trkpt lat="4.2727230" lon="-75.9134530">
        <ele>1673.4</ele>
        <time>2022-08-14T14:15:58Z</time>
      </trkpt>
      <trkpt lat="4.2726130" lon="-75.9134970">
        <ele>1674.0</ele>
        <time>2022-08-14T14:16:04Z</time>
      </trkpt>
      <trkpt lat="4.2725740" lon="-75.9135110">
        <ele>1674.4</ele>
        <time>2022-08-14T14:16:06Z</time>
      </trkpt>
      <trkpt lat="4.2725380" lon="-75.9135270">
        <ele>1674.6</ele>
        <time>2022-08-14T14:16:08Z</time>
      </trkpt>
      <trkpt lat="4.2725010" lon="-75.9135420">
        <ele>1675.0</ele>
        <time>2022-08-14T14:16:10Z</time>
      </trkpt>
      <trkpt lat="4.2723760" lon="-75.9135970">
        <ele>1676.2</ele>
        <time>2022-08-14T14:16:17Z</time>
      </trkpt>
      <trkpt lat="4.2722760" lon="-75.9136590">
        <ele>1677.4</ele>
        <time>2022-08-14T14:16:23Z</time>
      </trkpt>
      <trkpt lat="4.2722220" lon="-75.9137670">
        <ele>1678.6</ele>
        <time>2022-08-14T14:16:29Z</time>
      </trkpt>
      <trkpt lat="4.2722200" lon="-75.9137860">
        <ele>1678.6</ele>
        <time>2022-08-14T14:16:30Z</time>
      </trkpt>
      <trkpt lat="4.2722330" lon="-75.9138780">
        <ele>1679.6</ele>
        <time>2022-08-14T14:16:35Z</time>
      </trkpt>
      <trkpt lat="4.2722610" lon="-75.9139370">
        <ele>1680.2</ele>
        <time>2022-08-14T14:16:38Z</time>
      </trkpt>
      <trkpt lat="4.2722980" lon="-75.9139880">
        <ele>1680.6</ele>
        <time>2022-08-14T14:16:41Z</time>
      </trkpt>
      <trkpt lat="4.2723810" lon="-75.9140850">
        <ele>1681.8</ele>
        <time>2022-08-14T14:16:47Z</time>
      </trkpt>
      <trkpt lat="4.2723950" lon="-75.9141010">
        <ele>1682.0</ele>
        <time>2022-08-14T14:16:48Z</time>
      </trkpt>
      <trkpt lat="4.2724690" lon="-75.9142010">
        <ele>1683.0</ele>
        <time>2022-08-14T14:16:54Z</time>
      </trkpt>
      <trkpt lat="4.2725220" lon="-75.9142850">
        <ele>1684.2</ele>
        <time>2022-08-14T14:16:59Z</time>
      </trkpt>
      <trkpt lat="4.2725290" lon="-75.9143030">
        <ele>1684.2</ele>
        <time>2022-08-14T14:17:00Z</time>
      </trkpt>
      <trkpt lat="4.2725530" lon="-75.9144250">
        <ele>1685.2</ele>
        <time>2022-08-14T14:17:06Z</time>
      </trkpt>
      <trkpt lat="4.2725480" lon="-75.9144860">
        <ele>1685.8</ele>
        <time>2022-08-14T14:17:09Z</time>
      </trkpt>
      <trkpt lat="4.2725340" lon="-75.9145490">
        <ele>1686.2</ele>
        <time>2022-08-14T14:17:12Z</time>
      </trkpt>
      <trkpt lat="4.2724790" lon="-75.9146820">
        <ele>1687.0</ele>
        <time>2022-08-14T14:17:19Z</time>
      </trkpt>
      <trkpt lat="4.2724660" lon="-75.9147000">
        <ele>1687.2</ele>
        <time>2022-08-14T14:17:20Z</time>
      </trkpt>
      <trkpt lat="4.2723840" lon="-75.9148040">
        <ele>1688.2</ele>
        <time>2022-08-14T14:17:26Z</time>
      </trkpt>
      <trkpt lat="4.2723240" lon="-75.9148650">
        <ele>1688.8</ele>
        <time>2022-08-14T14:17:30Z</time>
      </trkpt>
      <trkpt lat="4.2722500" lon="-75.9149140">
        <ele>1689.2</ele>
        <time>2022-08-14T14:17:33Z</time>
      </trkpt>
      <trkpt lat="4.2721060" lon="-75.9150090">
        <ele>1690.4</ele>
        <time>2022-08-14T14:17:42Z</time>
      </trkpt>
      <trkpt lat="4.2720720" lon="-75.9150320">
        <ele>1690.6</ele>
        <time>2022-08-14T14:17:44Z</time>
      </trkpt>
      <trkpt lat="4.2720340" lon="-75.9150570">
        <ele>1691.0</ele>
        <time>2022-08-14T14:17:46Z</time>
      </trkpt>
      <trkpt lat="4.2719620" lon="-75.9151030">
        <ele>1691.4</ele>
        <time>2022-08-14T14:17:50Z</time>
      </trkpt>
      <trkpt lat="4.2718740" lon="-75.9151630">
        <ele>1692.0</ele>
        <time>2022-08-14T14:17:55Z</time>
      </trkpt>
      <trkpt lat="4.2718390" lon="-75.9151840">
        <ele>1692.6</ele>
        <time>2022-08-14T14:17:57Z</time>
      </trkpt>
      <trkpt lat="4.2717060" lon="-75.9152720">
        <ele>1693.4</ele>
        <time>2022-08-14T14:18:05Z</time>
      </trkpt>
      <trkpt lat="4.2716900" lon="-75.9152820">
        <ele>1693.6</ele>
        <time>2022-08-14T14:18:06Z</time>
      </trkpt>
      <trkpt lat="4.2716050" lon="-75.9153640">
        <ele>1694.6</ele>
        <time>2022-08-14T14:18:11Z</time>
      </trkpt>
      <trkpt lat="4.2715700" lon="-75.9154130">
        <ele>1695.6</ele>
        <time>2022-08-14T14:18:15Z</time>
      </trkpt>
      <trkpt lat="4.2715600" lon="-75.9154300">
        <ele>1695.8</ele>
        <time>2022-08-14T14:18:16Z</time>
      </trkpt>
      <trkpt lat="4.2715210" lon="-75.9155540">
        <ele>1697.0</ele>
        <time>2022-08-14T14:18:22Z</time>
      </trkpt>
      <trkpt lat="4.2715180" lon="-75.9155970">
        <ele>1697.4</ele>
        <time>2022-08-14T14:18:24Z</time>
      </trkpt>
      <trkpt lat="4.2715230" lon="-75.9156360">
        <ele>1697.6</ele>
        <time>2022-08-14T14:18:26Z</time>
      </trkpt>
      <trkpt lat="4.2715380" lon="-75.9156930">
        <ele>1698.2</ele>
        <time>2022-08-14T14:18:29Z</time>
      </trkpt>
      <trkpt lat="4.2715500" lon="-75.9157160">
        <ele>1698.2</ele>
        <time>2022-08-14T14:18:30Z</time>
      </trkpt>
      <trkpt lat="4.2716390" lon="-75.9158090">
        <ele>1699.0</ele>
        <time>2022-08-14T14:18:36Z</time>
      </trkpt>
      <trkpt lat="4.2717190" lon="-75.9158760">
        <ele>1700.2</ele>
        <time>2022-08-14T14:18:41Z</time>
      </trkpt>
      <trkpt lat="4.2717950" lon="-75.9159400">
        <ele>1701.2</ele>
        <time>2022-08-14T14:18:45Z</time>
      </trkpt>
      <trkpt lat="4.2717950" lon="-75.9159400">
        <ele>1701.6</ele>
        <time>2022-08-14T14:18:46Z</time>
      </trkpt>
      <trkpt lat="4.2718790" lon="-75.9160270">
        <ele>1702.4</ele>
        <time>2022-08-14T14:18:52Z</time>
      </trkpt>
      <trkpt lat="4.2719230" lon="-75.9160970">
        <ele>1703.0</ele>
        <time>2022-08-14T14:18:55Z</time>
      </trkpt>
      <trkpt lat="4.2719320" lon="-75.9161170">
        <ele>1703.4</ele>
        <time>2022-08-14T14:18:57Z</time>
      </trkpt>
      <trkpt lat="4.2719650" lon="-75.9162510">
        <ele>1704.6</ele>
        <time>2022-08-14T14:19:02Z</time>
      </trkpt>
      <trkpt lat="4.2719710" lon="-75.9163010">
        <ele>1705.0</ele>
        <time>2022-08-14T14:19:04Z</time>
      </trkpt>
      <trkpt lat="4.2719850" lon="-75.9163760">
        <ele>1705.6</ele>
        <time>2022-08-14T14:19:08Z</time>
      </trkpt>
      <trkpt lat="4.2719920" lon="-75.9165160">
        <ele>1706.4</ele>
        <time>2022-08-14T14:19:14Z</time>
      </trkpt>
      <trkpt lat="4.2719930" lon="-75.9165680">
        <ele>1706.6</ele>
        <time>2022-08-14T14:19:16Z</time>
      </trkpt>
      <trkpt lat="4.2719790" lon="-75.9167120">
        <ele>1707.8</ele>
        <time>2022-08-14T14:19:22Z</time>
      </trkpt>
      <trkpt lat="4.2719770" lon="-75.9168320">
        <ele>1708.8</ele>
        <time>2022-08-14T14:19:27Z</time>
      </trkpt>
      <trkpt lat="4.2719400" lon="-75.9169490">
        <ele>1709.6</ele>
        <time>2022-08-14T14:19:32Z</time>
      </trkpt>
      <trkpt lat="4.2719310" lon="-75.9169660">
        <ele>1710.0</ele>
        <time>2022-08-14T14:19:33Z</time>
      </trkpt>
      <trkpt lat="4.2718010" lon="-75.9170800">
        <ele>1710.4</ele>
        <time>2022-08-14T14:19:38Z</time>
      </trkpt>
      <trkpt lat="4.2717470" lon="-75.9171050">
        <ele>1711.0</ele>
        <time>2022-08-14T14:19:41Z</time>
      </trkpt>
      <trkpt lat="4.2715480" lon="-75.9171610">
        <ele>1711.4</ele>
        <time>2022-08-14T14:19:47Z</time>
      </trkpt>
      <trkpt lat="4.2713580" lon="-75.9172010">
        <ele>1712.2</ele>
        <time>2022-08-14T14:19:54Z</time>
      </trkpt>
      <trkpt lat="4.2712660" lon="-75.9172080">
        <ele>1712.8</ele>
        <time>2022-08-14T14:19:58Z</time>
      </trkpt>
      <trkpt lat="4.2711610" lon="-75.9172190">
        <ele>1713.0</ele>
        <time>2022-08-14T14:20:02Z</time>
      </trkpt>
      <trkpt lat="4.2709960" lon="-75.9171960">
        <ele>1714.0</ele>
        <time>2022-08-14T14:20:08Z</time>
      </trkpt>
      <trkpt lat="4.2708340" lon="-75.9170910">
        <ele>1714.8</ele>
        <time>2022-08-14T14:20:14Z</time>
      </trkpt>
      <trkpt lat="4.2708180" lon="-75.9170680">
        <ele>1715.2</ele>
        <time>2022-08-14T14:20:16Z</time>
      </trkpt>
      <trkpt lat="4.2707090" lon="-75.9169160">
        <ele>1716.2</ele>
        <time>2022-08-14T14:20:22Z</time>
      </trkpt>
      <trkpt lat="4.2706720" lon="-75.9168390">
        <ele>1716.6</ele>
        <time>2022-08-14T14:20:25Z</time>
      </trkpt>
      <trkpt lat="4.2706200" lon="-75.9167350">
        <ele>1717.2</ele>
        <time>2022-08-14T14:20:30Z</time>
      </trkpt>
      <trkpt lat="4.2705120" lon="-75.9166120">
        <ele>1718.2</ele>
        <time>2022-08-14T14:20:36Z</time>
      </trkpt>
      <trkpt lat="4.2704380" lon="-75.9165790">
        <ele>1718.2</ele>
        <time>2022-08-14T14:20:38Z</time>
      </trkpt>
      <trkpt lat="4.2703630" lon="-75.9165670">
        <ele>1719.0</ele>
        <time>2022-08-14T14:20:41Z</time>
      </trkpt>
      <trkpt lat="4.2703370" lon="-75.9165650">
        <ele>1719.4</ele>
        <time>2022-08-14T14:20:43Z</time>
      </trkpt>
      <trkpt lat="4.2702300" lon="-75.9165700">
        <ele>1720.4</ele>
        <time>2022-08-14T14:20:47Z</time>
      </trkpt>
      <trkpt lat="4.2701250" lon="-75.9165930">
        <ele>1721.4</ele>
        <time>2022-08-14T14:20:51Z</time>
      </trkpt>
      <trkpt lat="4.2701000" lon="-75.9165990">
        <ele>1721.6</ele>
        <time>2022-08-14T14:20:52Z</time>
      </trkpt>
      <trkpt lat="4.2699740" lon="-75.9166260">
        <ele>1722.6</ele>
        <time>2022-08-14T14:20:57Z</time>
      </trkpt>
      <trkpt lat="4.2699000" lon="-75.9166490">
        <ele>1723.0</ele>
        <time>2022-08-14T14:21:00Z</time>
      </trkpt>
      <trkpt lat="4.2698460" lon="-75.9166600">
        <ele>1723.6</ele>
        <time>2022-08-14T14:21:02Z</time>
      </trkpt>
      <trkpt lat="4.2697240" lon="-75.9167190">
        <ele>1724.6</ele>
        <time>2022-08-14T14:21:07Z</time>
      </trkpt>
      <trkpt lat="4.2696790" lon="-75.9167540">
        <ele>1725.0</ele>
        <time>2022-08-14T14:21:09Z</time>
      </trkpt>
      <trkpt lat="4.2696050" lon="-75.9168320">
        <ele>1725.8</ele>
        <time>2022-08-14T14:21:13Z</time>
      </trkpt>
      <trkpt lat="4.2695740" lon="-75.9168800">
        <ele>1726.2</ele>
        <time>2022-08-14T14:21:16Z</time>
      </trkpt>
      <trkpt lat="4.2695690" lon="-75.9168900">
        <ele>1726.4</ele>
        <time>2022-08-14T14:21:17Z</time>
      </trkpt>
      <trkpt lat="4.2695670" lon="-75.9169070">
        <ele>1726.8</ele>
        <time>2022-08-14T14:21:19Z</time>
      </trkpt>
      <trkpt lat="4.2695670" lon="-75.9169130">
        <ele>1727.2</ele>
        <time>2022-08-14T14:21:21Z</time>
      </trkpt>
      <trkpt lat="4.2695670" lon="-75.9169130">
        <ele>1727.8</ele>
        <time>2022-08-14T14:21:28Z</time>
      </trkpt>
      <trkpt lat="4.2695670" lon="-75.9169130">
        <ele>1727.6</ele>
        <time>2022-08-14T14:21:30Z</time>
      </trkpt>
      <trkpt lat="4.2695670" lon="-75.9169130">
        <ele>1727.6</ele>
        <time>2022-08-14T14:21:36Z</time>
      </trkpt>
      <trkpt lat="4.2695670" lon="-75.9169130">
        <ele>1727.6</ele>
        <time>2022-08-14T14:21:40Z</time>
      </trkpt>
      <trkpt lat="4.2695670" lon="-75.9169130">
        <ele>1727.6</ele>
        <time>2022-08-14T14:21:47Z</time>
      </trkpt>
      <trkpt lat="4.2695620" lon="-75.9169130">
        <ele>1727.8</ele>
        <time>2022-08-14T14:21:52Z</time>
      </trkpt>
      <trkpt lat="4.2695620" lon="-75.9169130">
        <ele>1727.8</ele>
        <time>2022-08-14T14:21:56Z</time>
      </trkpt>
      <trkpt lat="4.2695600" lon="-75.9169200">
        <ele>1728.0</ele>
        <time>2022-08-14T14:22:15Z</time>
      </trkpt>
      <trkpt lat="4.2695600" lon="-75.9169200">
        <ele>1727.6</ele>
        <time>2022-08-14T14:22:44Z</time>
      </trkpt>
      <trkpt lat="4.2695630" lon="-75.9169150">
        <ele>1727.8</ele>
        <time>2022-08-14T14:23:20Z</time>
      </trkpt>
      <trkpt lat="4.2695630" lon="-75.9169150">
        <ele>1727.8</ele>
        <time>2022-08-14T14:23:27Z</time>
      </trkpt>
      <trkpt lat="4.2695530" lon="-75.9169140">
        <ele>1728.0</ele>
        <time>2022-08-14T14:23:35Z</time>
      </trkpt>
      <trkpt lat="4.2695480" lon="-75.9169140">
        <ele>1728.0</ele>
        <time>2022-08-14T14:23:43Z</time>
      </trkpt>
      <trkpt lat="4.2695480" lon="-75.9169140">
        <ele>1728.2</ele>
        <time>2022-08-14T14:23:46Z</time>
      </trkpt>
      <trkpt lat="4.2695390" lon="-75.9169170">
        <ele>1728.2</ele>
        <time>2022-08-14T14:24:24Z</time>
      </trkpt>
      <trkpt lat="4.2695390" lon="-75.9169170">
        <ele>1728.2</ele>
        <time>2022-08-14T14:24:31Z</time>
      </trkpt>
      <trkpt lat="4.2695390" lon="-75.9169170">
        <ele>1728.2</ele>
        <time>2022-08-14T14:24:41Z</time>
      </trkpt>
      <trkpt lat="4.2695390" lon="-75.9169170">
        <ele>1728.2</ele>
        <time>2022-08-14T14:24:51Z</time>
      </trkpt>
      <trkpt lat="4.2695330" lon="-75.9169140">
        <ele>1728.0</ele>
        <time>2022-08-14T14:25:07Z</time>
      </trkpt>
      <trkpt lat="4.2695320" lon="-75.9169140">
        <ele>1728.0</ele>
        <time>2022-08-14T14:25:21Z</time>
      </trkpt>
      <trkpt lat="4.2695320" lon="-75.9169140">
        <ele>1728.2</ele>
        <time>2022-08-14T14:25:28Z</time>
      </trkpt>
      <trkpt lat="4.2695320" lon="-75.9169140">
        <ele>1728.4</ele>
        <time>2022-08-14T14:25:31Z</time>
      </trkpt>
      <trkpt lat="4.2695320" lon="-75.9169140">
        <ele>1728.4</ele>
        <time>2022-08-14T14:25:39Z</time>
      </trkpt>
      <trkpt lat="4.2695320" lon="-75.9169140">
        <ele>1728.6</ele>
        <time>2022-08-14T14:25:46Z</time>
      </trkpt>
      <trkpt lat="4.2695320" lon="-75.9169140">
        <ele>1728.4</ele>
        <time>2022-08-14T14:26:00Z</time>
      </trkpt>
      <trkpt lat="4.2695320" lon="-75.9169140">
        <ele>1728.6</ele>
        <time>2022-08-14T14:26:12Z</time>
      </trkpt>
      <trkpt lat="4.2695320" lon="-75.9169140">
        <ele>1728.6</ele>
        <time>2022-08-14T14:26:21Z</time>
      </trkpt>
      <trkpt lat="4.2695320" lon="-75.9169140">
        <ele>1728.4</ele>
        <time>2022-08-14T14:26:34Z</time>
      </trkpt>
      <trkpt lat="4.2695320" lon="-75.9169140">
        <ele>1728.6</ele>
        <time>2022-08-14T14:26:46Z</time>
      </trkpt>
      <trkpt lat="4.2695320" lon="-75.9169140">
        <ele>1728.4</ele>
        <time>2022-08-14T14:26:59Z</time>
      </trkpt>
      <trkpt lat="4.2695320" lon="-75.9169140">
        <ele>1728.6</ele>
        <time>2022-08-14T14:27:18Z</time>
      </trkpt>
      <trkpt lat="4.2695220" lon="-75.9169340">
        <ele>1728.4</ele>
        <time>2022-08-14T14:27:26Z</time>
      </trkpt>
      <trkpt lat="4.2695010" lon="-75.9169800">
        <ele>1728.4</ele>
        <time>2022-08-14T14:27:28Z</time>
      </trkpt>
      <trkpt lat="4.2694020" lon="-75.9171560">
        <ele>1728.4</ele>
        <time>2022-08-14T14:27:36Z</time>
      </trkpt>
      <trkpt lat="4.2693430" lon="-75.9173560">
        <ele>1728.4</ele>
        <time>2022-08-14T14:27:41Z</time>
      </trkpt>
      <trkpt lat="4.2693320" lon="-75.9173900">
        <ele>1728.4</ele>
        <time>2022-08-14T14:27:43Z</time>
      </trkpt>
      <trkpt lat="4.2692510" lon="-75.9176980">
        <ele>1728.0</ele>
        <time>2022-08-14T14:27:49Z</time>
      </trkpt>
      <trkpt lat="4.2691640" lon="-75.9180720">
        <ele>1727.2</ele>
        <time>2022-08-14T14:27:55Z</time>
      </trkpt>
      <trkpt lat="4.2691480" lon="-75.9181450">
        <ele>1726.8</ele>
        <time>2022-08-14T14:27:56Z</time>
      </trkpt>
      <trkpt lat="4.2691120" lon="-75.9183010">
        <ele>1726.0</ele>
        <time>2022-08-14T14:27:58Z</time>
      </trkpt>
      <trkpt lat="4.2690490" lon="-75.9185480">
        <ele>1724.6</ele>
        <time>2022-08-14T14:28:01Z</time>
      </trkpt>
      <trkpt lat="4.2690270" lon="-75.9186330">
        <ele>1724.2</ele>
        <time>2022-08-14T14:28:02Z</time>
      </trkpt>
      <trkpt lat="4.2689960" lon="-75.9187630">
        <ele>1723.4</ele>
        <time>2022-08-14T14:28:03Z</time>
      </trkpt>
      <trkpt lat="4.2689640" lon="-75.9188940">
        <ele>1722.0</ele>
        <time>2022-08-14T14:28:05Z</time>
      </trkpt>
      <trkpt lat="4.2689430" lon="-75.9189850">
        <ele>1721.0</ele>
        <time>2022-08-14T14:28:06Z</time>
      </trkpt>
      <trkpt lat="4.2688930" lon="-75.9191730">
        <ele>1719.8</ele>
        <time>2022-08-14T14:28:08Z</time>
      </trkpt>
      <trkpt lat="4.2688690" lon="-75.9192680">
        <ele>1719.2</ele>
        <time>2022-08-14T14:28:09Z</time>
      </trkpt>
      <trkpt lat="4.2688460" lon="-75.9193650">
        <ele>1718.4</ele>
        <time>2022-08-14T14:28:10Z</time>
      </trkpt>
      <trkpt lat="4.2687710" lon="-75.9196610">
        <ele>1716.8</ele>
        <time>2022-08-14T14:28:13Z</time>
      </trkpt>
      <trkpt lat="4.2687180" lon="-75.9198610">
        <ele>1715.2</ele>
        <time>2022-08-14T14:28:15Z</time>
      </trkpt>
      <trkpt lat="4.2686650" lon="-75.9200650">
        <ele>1713.4</ele>
        <time>2022-08-14T14:28:17Z</time>
      </trkpt>
      <trkpt lat="4.2686390" lon="-75.9201630">
        <ele>1712.2</ele>
        <time>2022-08-14T14:28:18Z</time>
      </trkpt>
      <trkpt lat="4.2685900" lon="-75.9203650">
        <ele>1710.8</ele>
        <time>2022-08-14T14:28:20Z</time>
      </trkpt>
      <trkpt lat="4.2685760" lon="-75.9204710">
        <ele>1709.6</ele>
        <time>2022-08-14T14:28:21Z</time>
      </trkpt>
      <trkpt lat="4.2685710" lon="-75.9205790">
        <ele>1708.4</ele>
        <time>2022-08-14T14:28:22Z</time>
      </trkpt>
      <trkpt lat="4.2685730" lon="-75.9206850">
        <ele>1707.4</ele>
        <time>2022-08-14T14:28:23Z</time>
      </trkpt>
      <trkpt lat="4.2685860" lon="-75.9207900">
        <ele>1706.0</ele>
        <time>2022-08-14T14:28:25Z</time>
      </trkpt>
      <trkpt lat="4.2686480" lon="-75.9211030">
        <ele>1704.4</ele>
        <time>2022-08-14T14:28:27Z</time>
      </trkpt>
      <trkpt lat="4.2686630" lon="-75.9211720">
        <ele>1704.0</ele>
        <time>2022-08-14T14:28:28Z</time>
      </trkpt>
      <trkpt lat="4.2686770" lon="-75.9212420">
        <ele>1703.2</ele>
        <time>2022-08-14T14:28:29Z</time>
      </trkpt>
      <trkpt lat="4.2687340" lon="-75.9215190">
        <ele>1701.4</ele>
        <time>2022-08-14T14:28:31Z</time>
      </trkpt>
      <trkpt lat="4.2687810" lon="-75.9217330">
        <ele>1699.8</ele>
        <time>2022-08-14T14:28:33Z</time>
      </trkpt>
      <trkpt lat="4.2688030" lon="-75.9218420">
        <ele>1698.0</ele>
        <time>2022-08-14T14:28:35Z</time>
      </trkpt>
      <trkpt lat="4.2688470" lon="-75.9221830">
        <ele>1697.2</ele>
        <time>2022-08-14T14:28:37Z</time>
      </trkpt>
      <trkpt lat="4.2688470" lon="-75.9222980">
        <ele>1696.2</ele>
        <time>2022-08-14T14:28:38Z</time>
      </trkpt>
      <trkpt lat="4.2688410" lon="-75.9224110">
        <ele>1695.0</ele>
        <time>2022-08-14T14:28:40Z</time>
      </trkpt>
      <trkpt lat="4.2688060" lon="-75.9225820">
        <ele>1694.2</ele>
        <time>2022-08-14T14:28:41Z</time>
      </trkpt>
      <trkpt lat="4.2687710" lon="-75.9227530">
        <ele>1693.4</ele>
        <time>2022-08-14T14:28:42Z</time>
      </trkpt>
      <trkpt lat="4.2687030" lon="-75.9229780">
        <ele>1692.0</ele>
        <time>2022-08-14T14:28:44Z</time>
      </trkpt>
      <trkpt lat="4.2686650" lon="-75.9230870">
        <ele>1690.2</ele>
        <time>2022-08-14T14:28:46Z</time>
      </trkpt>
      <trkpt lat="4.2686000" lon="-75.9232520">
        <ele>1689.2</ele>
        <time>2022-08-14T14:28:47Z</time>
      </trkpt>
      <trkpt lat="4.2685360" lon="-75.9234170">
        <ele>1688.0</ele>
        <time>2022-08-14T14:28:48Z</time>
      </trkpt>
      <trkpt lat="4.2684950" lon="-75.9235310">
        <ele>1687.0</ele>
        <time>2022-08-14T14:28:49Z</time>
      </trkpt>
      <trkpt lat="4.2684170" lon="-75.9237570">
        <ele>1684.8</ele>
        <time>2022-08-14T14:28:51Z</time>
      </trkpt>
      <trkpt lat="4.2683740" lon="-75.9238690">
        <ele>1683.2</ele>
        <time>2022-08-14T14:28:53Z</time>
      </trkpt>
      <trkpt lat="4.2683000" lon="-75.9240340">
        <ele>1682.2</ele>
        <time>2022-08-14T14:28:54Z</time>
      </trkpt>
      <trkpt lat="4.2682270" lon="-75.9242000">
        <ele>1681.2</ele>
        <time>2022-08-14T14:28:55Z</time>
      </trkpt>
      <trkpt lat="4.2681250" lon="-75.9244190">
        <ele>1679.6</ele>
        <time>2022-08-14T14:28:57Z</time>
      </trkpt>
      <trkpt lat="4.2680330" lon="-75.9246180">
        <ele>1678.2</ele>
        <time>2022-08-14T14:28:59Z</time>
      </trkpt>
      <trkpt lat="4.2679200" lon="-75.9248500">
        <ele>1677.2</ele>
        <time>2022-08-14T14:29:00Z</time>
      </trkpt>
      <trkpt lat="4.2678080" lon="-75.9250820">
        <ele>1675.4</ele>
        <time>2022-08-14T14:29:03Z</time>
      </trkpt>
      <trkpt lat="4.2677610" lon="-75.9251940">
        <ele>1674.2</ele>
        <time>2022-08-14T14:29:04Z</time>
      </trkpt>
      <trkpt lat="4.2677230" lon="-75.9252820">
        <ele>1673.2</ele>
        <time>2022-08-14T14:29:05Z</time>
      </trkpt>
      <trkpt lat="4.2676730" lon="-75.9253890">
        <ele>1672.0</ele>
        <time>2022-08-14T14:29:06Z</time>
      </trkpt>
      <trkpt lat="4.2675890" lon="-75.9255540">
        <ele>1670.8</ele>
        <time>2022-08-14T14:29:07Z</time>
      </trkpt>
      <trkpt lat="4.2675040" lon="-75.9257200">
        <ele>1668.4</ele>
        <time>2022-08-14T14:29:09Z</time>
      </trkpt>
      <trkpt lat="4.2674580" lon="-75.9258010">
        <ele>1667.2</ele>
        <time>2022-08-14T14:29:10Z</time>
      </trkpt>
      <trkpt lat="4.2673230" lon="-75.9259980">
        <ele>1665.2</ele>
        <time>2022-08-14T14:29:12Z</time>
      </trkpt>
      <trkpt lat="4.2672270" lon="-75.9261050">
        <ele>1664.4</ele>
        <time>2022-08-14T14:29:13Z</time>
      </trkpt>
      <trkpt lat="4.2671400" lon="-75.9261880">
        <ele>1663.2</ele>
        <time>2022-08-14T14:29:14Z</time>
      </trkpt>
      <trkpt lat="4.2669780" lon="-75.9263400">
        <ele>1661.6</ele>
        <time>2022-08-14T14:29:16Z</time>
      </trkpt>
      <trkpt lat="4.2667950" lon="-75.9265140">
        <ele>1659.8</ele>
        <time>2022-08-14T14:29:18Z</time>
      </trkpt>
      <trkpt lat="4.2667220" lon="-75.9265920">
        <ele>1659.0</ele>
        <time>2022-08-14T14:29:19Z</time>
      </trkpt>
      <trkpt lat="4.2666560" lon="-75.9266780">
        <ele>1658.0</ele>
        <time>2022-08-14T14:29:20Z</time>
      </trkpt>
      <trkpt lat="4.2666110" lon="-75.9267520">
        <ele>1657.0</ele>
        <time>2022-08-14T14:29:21Z</time>
      </trkpt>
      <trkpt lat="4.2665710" lon="-75.9268490">
        <ele>1656.0</ele>
        <time>2022-08-14T14:29:22Z</time>
      </trkpt>
      <trkpt lat="4.2665660" lon="-75.9269290">
        <ele>1655.0</ele>
        <time>2022-08-14T14:29:23Z</time>
      </trkpt>
      <trkpt lat="4.2665610" lon="-75.9270090">
        <ele>1653.8</ele>
        <time>2022-08-14T14:29:24Z</time>
      </trkpt>
      <trkpt lat="4.2665500" lon="-75.9271700">
        <ele>1653.8</ele>
        <time>2022-08-14T14:29:25Z</time>
      </trkpt>
      <trkpt lat="4.2665690" lon="-75.9272720">
        <ele>1652.6</ele>
        <time>2022-08-14T14:29:26Z</time>
      </trkpt>
      <trkpt lat="4.2665890" lon="-75.9273530">
        <ele>1651.4</ele>
        <time>2022-08-14T14:29:27Z</time>
      </trkpt>
      <trkpt lat="4.2666490" lon="-75.9275800">
        <ele>1649.8</ele>
        <time>2022-08-14T14:29:29Z</time>
      </trkpt>
      <trkpt lat="4.2667060" lon="-75.9277960">
        <ele>1648.0</ele>
        <time>2022-08-14T14:29:31Z</time>
      </trkpt>
      <trkpt lat="4.2667740" lon="-75.9280090">
        <ele>1646.4</ele>
        <time>2022-08-14T14:29:33Z</time>
      </trkpt>
      <trkpt lat="4.2668530" lon="-75.9282190">
        <ele>1644.8</ele>
        <time>2022-08-14T14:29:35Z</time>
      </trkpt>
      <trkpt lat="4.2669260" lon="-75.9284000">
        <ele>1643.4</ele>
        <time>2022-08-14T14:29:37Z</time>
      </trkpt>
      <trkpt lat="4.2669730" lon="-75.9285200">
        <ele>1642.8</ele>
        <time>2022-08-14T14:29:38Z</time>
      </trkpt>
      <trkpt lat="4.2670370" lon="-75.9286670">
        <ele>1641.4</ele>
        <time>2022-08-14T14:29:39Z</time>
      </trkpt>
      <trkpt lat="4.2671010" lon="-75.9288150">
        <ele>1639.6</ele>
        <time>2022-08-14T14:29:41Z</time>
      </trkpt>
      <trkpt lat="4.2671340" lon="-75.9288890">
        <ele>1638.4</ele>
        <time>2022-08-14T14:29:42Z</time>
      </trkpt>
      <trkpt lat="4.2672040" lon="-75.9290730">
        <ele>1636.8</ele>
        <time>2022-08-14T14:29:44Z</time>
      </trkpt>
      <trkpt lat="4.2672680" lon="-75.9292860">
        <ele>1635.4</ele>
        <time>2022-08-14T14:29:46Z</time>
      </trkpt>
      <trkpt lat="4.2672840" lon="-75.9293640">
        <ele>1634.2</ele>
        <time>2022-08-14T14:29:47Z</time>
      </trkpt>
      <trkpt lat="4.2673040" lon="-75.9295610">
        <ele>1632.4</ele>
        <time>2022-08-14T14:29:49Z</time>
      </trkpt>
      <trkpt lat="4.2673060" lon="-75.9296760">
        <ele>1632.4</ele>
        <time>2022-08-14T14:29:50Z</time>
      </trkpt>
      <trkpt lat="4.2673010" lon="-75.9297710">
        <ele>1631.8</ele>
        <time>2022-08-14T14:29:51Z</time>
      </trkpt>
      <trkpt lat="4.2672890" lon="-75.9298620">
        <ele>1631.0</ele>
        <time>2022-08-14T14:29:52Z</time>
      </trkpt>
      <trkpt lat="4.2672680" lon="-75.9300260">
        <ele>1629.2</ele>
        <time>2022-08-14T14:29:54Z</time>
      </trkpt>
      <trkpt lat="4.2672620" lon="-75.9300710">
        <ele>1628.6</ele>
        <time>2022-08-14T14:29:55Z</time>
      </trkpt>
      <trkpt lat="4.2672570" lon="-75.9301160">
        <ele>1627.8</ele>
        <time>2022-08-14T14:29:56Z</time>
      </trkpt>
      <trkpt lat="4.2672260" lon="-75.9303760">
        <ele>1626.4</ele>
        <time>2022-08-14T14:29:58Z</time>
      </trkpt>
      <trkpt lat="4.2672070" lon="-75.9305370">
        <ele>1624.6</ele>
        <time>2022-08-14T14:30:00Z</time>
      </trkpt>
      <trkpt lat="4.2671930" lon="-75.9306370">
        <ele>1623.0</ele>
        <time>2022-08-14T14:30:02Z</time>
      </trkpt>
      <trkpt lat="4.2671640" lon="-75.9308840">
        <ele>1622.0</ele>
        <time>2022-08-14T14:30:04Z</time>
      </trkpt>
      <trkpt lat="4.2671540" lon="-75.9309760">
        <ele>1620.8</ele>
        <time>2022-08-14T14:30:06Z</time>
      </trkpt>
      <trkpt lat="4.2671340" lon="-75.9312180">
        <ele>1619.6</ele>
        <time>2022-08-14T14:30:08Z</time>
      </trkpt>
      <trkpt lat="4.2671320" lon="-75.9312580">
        <ele>1619.2</ele>
        <time>2022-08-14T14:30:09Z</time>
      </trkpt>
      <trkpt lat="4.2671350" lon="-75.9313060">
        <ele>1618.4</ele>
        <time>2022-08-14T14:30:10Z</time>
      </trkpt>
      <trkpt lat="4.2671330" lon="-75.9313560">
        <ele>1617.6</ele>
        <time>2022-08-14T14:30:11Z</time>
      </trkpt>
      <trkpt lat="4.2671250" lon="-75.9314160">
        <ele>1616.8</ele>
        <time>2022-08-14T14:30:12Z</time>
      </trkpt>
      <trkpt lat="4.2671050" lon="-75.9315090">
        <ele>1616.4</ele>
        <time>2022-08-14T14:30:14Z</time>
      </trkpt>
      <trkpt lat="4.2670880" lon="-75.9316130">
        <ele>1615.8</ele>
        <time>2022-08-14T14:30:16Z</time>
      </trkpt>
      <trkpt lat="4.2670730" lon="-75.9316810">
        <ele>1615.4</ele>
        <time>2022-08-14T14:30:17Z</time>
      </trkpt>
      <trkpt lat="4.2670310" lon="-75.9318030">
        <ele>1615.0</ele>
        <time>2022-08-14T14:30:19Z</time>
      </trkpt>
      <trkpt lat="4.2669660" lon="-75.9319060">
        <ele>1614.4</ele>
        <time>2022-08-14T14:30:21Z</time>
      </trkpt>
      <trkpt lat="4.2667910" lon="-75.9320750">
        <ele>1613.6</ele>
        <time>2022-08-14T14:30:24Z</time>
      </trkpt>
      <trkpt lat="4.2666730" lon="-75.9321540">
        <ele>1613.0</ele>
        <time>2022-08-14T14:30:26Z</time>
      </trkpt>
      <trkpt lat="4.2665260" lon="-75.9322140">
        <ele>1611.8</ele>
        <time>2022-08-14T14:30:28Z</time>
      </trkpt>
      <trkpt lat="4.2664080" lon="-75.9322340">
        <ele>1610.4</ele>
        <time>2022-08-14T14:30:30Z</time>
      </trkpt>
      <trkpt lat="4.2661980" lon="-75.9322500">
        <ele>1609.6</ele>
        <time>2022-08-14T14:30:33Z</time>
      </trkpt>
      <trkpt lat="4.2661060" lon="-75.9322580">
        <ele>1609.4</ele>
        <time>2022-08-14T14:30:34Z</time>
      </trkpt>
      <trkpt lat="4.2660140" lon="-75.9322670">
        <ele>1608.8</ele>
        <time>2022-08-14T14:30:36Z</time>
      </trkpt>
      <trkpt lat="4.2657530" lon="-75.9322920">
        <ele>1608.4</ele>
        <time>2022-08-14T14:30:40Z</time>
      </trkpt>
      <trkpt lat="4.2656490" lon="-75.9322990">
        <ele>1608.2</ele>
        <time>2022-08-14T14:30:43Z</time>
      </trkpt>
      <trkpt lat="4.2654270" lon="-75.9323270">
        <ele>1608.2</ele>
        <time>2022-08-14T14:30:47Z</time>
      </trkpt>
      <trkpt lat="4.2652060" lon="-75.9323400">
        <ele>1608.2</ele>
        <time>2022-08-14T14:30:50Z</time>
      </trkpt>
      <trkpt lat="4.2648330" lon="-75.9323570">
        <ele>1608.8</ele>
        <time>2022-08-14T14:30:58Z</time>
      </trkpt>
      <trkpt lat="4.2646490" lon="-75.9323560">
        <ele>1609.2</ele>
        <time>2022-08-14T14:31:02Z</time>
      </trkpt>
      <trkpt lat="4.2644410" lon="-75.9323640">
        <ele>1609.4</ele>
        <time>2022-08-14T14:31:06Z</time>
      </trkpt>
      <trkpt lat="4.2642130" lon="-75.9323830">
        <ele>1609.6</ele>
        <time>2022-08-14T14:31:11Z</time>
      </trkpt>
      <trkpt lat="4.2641630" lon="-75.9323840">
        <ele>1609.6</ele>
        <time>2022-08-14T14:31:13Z</time>
      </trkpt>
      <trkpt lat="4.2640580" lon="-75.9323870">
        <ele>1610.0</ele>
        <time>2022-08-14T14:31:19Z</time>
      </trkpt>
      <trkpt lat="4.2639640" lon="-75.9324330">
        <ele>1610.4</ele>
        <time>2022-08-14T14:31:23Z</time>
      </trkpt>
      <trkpt lat="4.2639520" lon="-75.9325740">
        <ele>1610.4</ele>
        <time>2022-08-14T14:31:27Z</time>
      </trkpt>
      <trkpt lat="4.2639510" lon="-75.9326590">
        <ele>1610.4</ele>
        <time>2022-08-14T14:31:29Z</time>
      </trkpt>
      <trkpt lat="4.2639480" lon="-75.9327520">
        <ele>1610.4</ele>
        <time>2022-08-14T14:31:31Z</time>
      </trkpt>
      <trkpt lat="4.2639480" lon="-75.9330660">
        <ele>1610.4</ele>
        <time>2022-08-14T14:31:38Z</time>
      </trkpt>
      <trkpt lat="4.2639620" lon="-75.9331300">
        <ele>1610.6</ele>
        <time>2022-08-14T14:31:40Z</time>
      </trkpt>
      <trkpt lat="4.2639590" lon="-75.9331460">
        <ele>1610.6</ele>
        <time>2022-08-14T14:31:41Z</time>
      </trkpt>
      <trkpt lat="4.2639550" lon="-75.9331630">
        <ele>1610.8</ele>
        <time>2022-08-14T14:31:42Z</time>
      </trkpt>
      <trkpt lat="4.2639030" lon="-75.9332410">
        <ele>1611.0</ele>
        <time>2022-08-14T14:31:46Z</time>
      </trkpt>
      <trkpt lat="4.2638720" lon="-75.9332500">
        <ele>1611.0</ele>
        <time>2022-08-14T14:31:47Z</time>
      </trkpt>
      <trkpt lat="4.2636680" lon="-75.9332600">
        <ele>1611.0</ele>
        <time>2022-08-14T14:31:52Z</time>
      </trkpt>
      <trkpt lat="4.2633250" lon="-75.9332680">
        <ele>1610.4</ele>
        <time>2022-08-14T14:32:00Z</time>
      </trkpt>
      <trkpt lat="4.2631650" lon="-75.9332830">
        <ele>1610.0</ele>
        <time>2022-08-14T14:32:05Z</time>
      </trkpt>
      <trkpt lat="4.2631470" lon="-75.9333240">
        <ele>1609.8</ele>
        <time>2022-08-14T14:32:07Z</time>
      </trkpt>
      <trkpt lat="4.2631480" lon="-75.9333780">
        <ele>1609.8</ele>
        <time>2022-08-14T14:32:09Z</time>
      </trkpt>
      <trkpt lat="4.2631720" lon="-75.9335900">
        <ele>1609.6</ele>
        <time>2022-08-14T14:32:15Z</time>
      </trkpt>
      <trkpt lat="4.2631830" lon="-75.9338100">
        <ele>1609.6</ele>
        <time>2022-08-14T14:32:21Z</time>
      </trkpt>
      <trkpt lat="4.2632210" lon="-75.9340340">
        <ele>1610.2</ele>
        <time>2022-08-14T14:32:28Z</time>
      </trkpt>
      <trkpt lat="4.2632120" lon="-75.9340930">
        <ele>1610.4</ele>
        <time>2022-08-14T14:32:30Z</time>
      </trkpt>
      <trkpt lat="4.2632100" lon="-75.9341490">
        <ele>1610.4</ele>
        <time>2022-08-14T14:32:32Z</time>
      </trkpt>
      <trkpt lat="4.2632040" lon="-75.9344650">
        <ele>1610.8</ele>
        <time>2022-08-14T14:32:40Z</time>
      </trkpt>
      <trkpt lat="4.2632290" lon="-75.9347030">
        <ele>1610.8</ele>
        <time>2022-08-14T14:32:46Z</time>
      </trkpt>
      <trkpt lat="4.2632430" lon="-75.9348530">
        <ele>1611.0</ele>
        <time>2022-08-14T14:32:51Z</time>
      </trkpt>
      <trkpt lat="4.2632300" lon="-75.9351010">
        <ele>1611.2</ele>
        <time>2022-08-14T14:32:57Z</time>
      </trkpt>
      <trkpt lat="4.2632450" lon="-75.9354240">
        <ele>1611.0</ele>
        <time>2022-08-14T14:33:06Z</time>
      </trkpt>
      <trkpt lat="4.2632510" lon="-75.9354930">
        <ele>1610.8</ele>
        <time>2022-08-14T14:33:07Z</time>
      </trkpt>
      <trkpt lat="4.2632680" lon="-75.9355830">
        <ele>1610.8</ele>
        <time>2022-08-14T14:33:10Z</time>
      </trkpt>
      <trkpt lat="4.2632630" lon="-75.9356130">
        <ele>1610.8</ele>
        <time>2022-08-14T14:33:12Z</time>
      </trkpt>
      <trkpt lat="4.2632440" lon="-75.9356310">
        <ele>1610.8</ele>
        <time>2022-08-14T14:33:14Z</time>
      </trkpt>
      <trkpt lat="4.2632440" lon="-75.9356310">
        <ele>1611.0</ele>
        <time>2022-08-14T14:33:15Z</time>
      </trkpt>
      <trkpt lat="4.2631020" lon="-75.9356660">
        <ele>1611.0</ele>
        <time>2022-08-14T14:33:19Z</time>
      </trkpt>
      <trkpt lat="4.2627870" lon="-75.9356770">
        <ele>1611.0</ele>
        <time>2022-08-14T14:33:27Z</time>
      </trkpt>
      <trkpt lat="4.2626170" lon="-75.9357010">
        <ele>1610.8</ele>
        <time>2022-08-14T14:33:31Z</time>
      </trkpt>
      <trkpt lat="4.2625420" lon="-75.9357080">
        <ele>1610.8</ele>
        <time>2022-08-14T14:33:34Z</time>
      </trkpt>
      <trkpt lat="4.2624850" lon="-75.9357160">
        <ele>1610.6</ele>
        <time>2022-08-14T14:33:40Z</time>
      </trkpt>
      <trkpt lat="4.2624880" lon="-75.9357430">
        <ele>1610.4</ele>
        <time>2022-08-14T14:33:45Z</time>
      </trkpt>
      <trkpt lat="4.2624890" lon="-75.9357630">
        <ele>1610.4</ele>
        <time>2022-08-14T14:33:46Z</time>
      </trkpt>
      <trkpt lat="4.2625280" lon="-75.9359020">
        <ele>1610.4</ele>
        <time>2022-08-14T14:33:50Z</time>
      </trkpt>
      <trkpt lat="4.2625420" lon="-75.9360110">
        <ele>1610.4</ele>
        <time>2022-08-14T14:33:52Z</time>
      </trkpt>
      <trkpt lat="4.2625430" lon="-75.9361180">
        <ele>1610.4</ele>
        <time>2022-08-14T14:33:54Z</time>
      </trkpt>
      <trkpt lat="4.2625460" lon="-75.9361640">
        <ele>1610.4</ele>
        <time>2022-08-14T14:33:55Z</time>
      </trkpt>
      <trkpt lat="4.2625670" lon="-75.9363370">
        <ele>1609.8</ele>
        <time>2022-08-14T14:33:58Z</time>
      </trkpt>
      <trkpt lat="4.2625680" lon="-75.9363860">
        <ele>1609.4</ele>
        <time>2022-08-14T14:33:59Z</time>
      </trkpt>
      <trkpt lat="4.2625690" lon="-75.9364210">
        <ele>1608.8</ele>
        <time>2022-08-14T14:34:00Z</time>
      </trkpt>
      <trkpt lat="4.2625400" lon="-75.9365080">
        <ele>1607.8</ele>
        <time>2022-08-14T14:34:03Z</time>
      </trkpt>
      <trkpt lat="4.2624770" lon="-75.9365320">
        <ele>1606.4</ele>
        <time>2022-08-14T14:34:07Z</time>
      </trkpt>
      <trkpt lat="4.2624380" lon="-75.9365250">
        <ele>1606.2</ele>
        <time>2022-08-14T14:34:08Z</time>
      </trkpt>
      <trkpt lat="4.2623680" lon="-75.9365330">
        <ele>1605.4</ele>
        <time>2022-08-14T14:34:13Z</time>
      </trkpt>
      <trkpt lat="4.2623680" lon="-75.9365330">
        <ele>1604.2</ele>
        <time>2022-08-14T14:34:18Z</time>
      </trkpt>
      <trkpt lat="4.2623440" lon="-75.9365340">
        <ele>1603.4</ele>
        <time>2022-08-14T14:34:21Z</time>
      </trkpt>
      <trkpt lat="4.2623240" lon="-75.9365350">
        <ele>1603.2</ele>
        <time>2022-08-14T14:34:22Z</time>
      </trkpt>
      <trkpt lat="4.2622780" lon="-75.9365360">
        <ele>1602.8</ele>
        <time>2022-08-14T14:34:24Z</time>
      </trkpt>
      <trkpt lat="4.2621850" lon="-75.9365330">
        <ele>1602.0</ele>
        <time>2022-08-14T14:34:29Z</time>
      </trkpt>
      <trkpt lat="4.2621470" lon="-75.9365330">
        <ele>1601.0</ele>
        <time>2022-08-14T14:34:31Z</time>
      </trkpt>
      <trkpt lat="4.2621290" lon="-75.9365370">
        <ele>1600.6</ele>
        <time>2022-08-14T14:34:32Z</time>
      </trkpt>
      <trkpt lat="4.2620590" lon="-75.9365440">
        <ele>1599.2</ele>
        <time>2022-08-14T14:34:35Z</time>
      </trkpt>
      <trkpt lat="4.2619900" lon="-75.9365580">
        <ele>1597.8</ele>
        <time>2022-08-14T14:34:38Z</time>
      </trkpt>
      <trkpt lat="4.2619670" lon="-75.9365600">
        <ele>1597.2</ele>
        <time>2022-08-14T14:34:39Z</time>
      </trkpt>
      <trkpt lat="4.2619400" lon="-75.9365610">
        <ele>1596.8</ele>
        <time>2022-08-14T14:34:41Z</time>
      </trkpt>
      <trkpt lat="4.2618670" lon="-75.9365710">
        <ele>1595.6</ele>
        <time>2022-08-14T14:34:43Z</time>
      </trkpt>
      <trkpt lat="4.2618260" lon="-75.9365600">
        <ele>1594.2</ele>
        <time>2022-08-14T14:34:45Z</time>
      </trkpt>
      <trkpt lat="4.2618260" lon="-75.9365600">
        <ele>1593.4</ele>
        <time>2022-08-14T14:34:46Z</time>
      </trkpt>
      <trkpt lat="4.2618080" lon="-75.9365520">
        <ele>1592.8</ele>
        <time>2022-08-14T14:34:47Z</time>
      </trkpt>
      <trkpt lat="4.2618070" lon="-75.9365410">
        <ele>1591.6</ele>
        <time>2022-08-14T14:34:49Z</time>
      </trkpt>
      <trkpt lat="4.2617950" lon="-75.9364850">
        <ele>1590.4</ele>
        <time>2022-08-14T14:34:51Z</time>
      </trkpt>
      <trkpt lat="4.2617870" lon="-75.9364270">
        <ele>1589.2</ele>
        <time>2022-08-14T14:34:53Z</time>
      </trkpt>
      <trkpt lat="4.2617730" lon="-75.9363740">
        <ele>1588.4</ele>
        <time>2022-08-14T14:34:55Z</time>
      </trkpt>
      <trkpt lat="4.2617710" lon="-75.9363510">
        <ele>1588.0</ele>
        <time>2022-08-14T14:34:56Z</time>
      </trkpt>
      <trkpt lat="4.2617650" lon="-75.9362960">
        <ele>1587.6</ele>
        <time>2022-08-14T14:34:58Z</time>
      </trkpt>
      <trkpt lat="4.2617570" lon="-75.9362200">
        <ele>1587.6</ele>
        <time>2022-08-14T14:35:01Z</time>
      </trkpt>
      <trkpt lat="4.2617490" lon="-75.9361460">
        <ele>1587.6</ele>
        <time>2022-08-14T14:35:04Z</time>
      </trkpt>
      <trkpt lat="4.2617470" lon="-75.9361210">
        <ele>1587.6</ele>
        <time>2022-08-14T14:35:05Z</time>
      </trkpt>
      <trkpt lat="4.2617320" lon="-75.9360300">
        <ele>1588.2</ele>
        <time>2022-08-14T14:35:09Z</time>
      </trkpt>
      <trkpt lat="4.2617300" lon="-75.9359630">
        <ele>1589.0</ele>
        <time>2022-08-14T14:35:12Z</time>
      </trkpt>
      <trkpt lat="4.2617320" lon="-75.9359240">
        <ele>1589.4</ele>
        <time>2022-08-14T14:35:14Z</time>
      </trkpt>
      <trkpt lat="4.2617330" lon="-75.9358650">
        <ele>1590.2</ele>
        <time>2022-08-14T14:35:17Z</time>
      </trkpt>
      <trkpt lat="4.2617340" lon="-75.9358170">
        <ele>1590.6</ele>
        <time>2022-08-14T14:35:20Z</time>
      </trkpt>
      <trkpt lat="4.2617320" lon="-75.9358010">
        <ele>1590.8</ele>
        <time>2022-08-14T14:35:21Z</time>
      </trkpt>
      <trkpt lat="4.2616890" lon="-75.9357610">
        <ele>1591.2</ele>
        <time>2022-08-14T14:35:24Z</time>
      </trkpt>
      <trkpt lat="4.2615750" lon="-75.9357420">
        <ele>1591.4</ele>
        <time>2022-08-14T14:35:27Z</time>
      </trkpt>
      <trkpt lat="4.2615750" lon="-75.9357420">
        <ele>1591.4</ele>
        <time>2022-08-14T14:35:28Z</time>
      </trkpt>
      <trkpt lat="4.2613470" lon="-75.9357540">
        <ele>1591.4</ele>
        <time>2022-08-14T14:35:31Z</time>
      </trkpt>
      <trkpt lat="4.2612960" lon="-75.9357620">
        <ele>1591.4</ele>
        <time>2022-08-14T14:35:32Z</time>
      </trkpt>
      <trkpt lat="4.2611690" lon="-75.9357900">
        <ele>1591.6</ele>
        <time>2022-08-14T14:35:36Z</time>
      </trkpt>
      <trkpt lat="4.2610730" lon="-75.9358220">
        <ele>1592.0</ele>
        <time>2022-08-14T14:35:41Z</time>
      </trkpt>
      <trkpt lat="4.2610170" lon="-75.9358270">
        <ele>1592.2</ele>
        <time>2022-08-14T14:35:45Z</time>
      </trkpt>
      <trkpt lat="4.2610030" lon="-75.9358250">
        <ele>1592.6</ele>
        <time>2022-08-14T14:35:46Z</time>
      </trkpt>
      <trkpt lat="4.2609900" lon="-75.9358270">
        <ele>1592.8</ele>
        <time>2022-08-14T14:35:47Z</time>
      </trkpt>
      <trkpt lat="4.2609360" lon="-75.9358330">
        <ele>1593.8</ele>
        <time>2022-08-14T14:35:51Z</time>
      </trkpt>
      <trkpt lat="4.2608830" lon="-75.9358380">
        <ele>1595.0</ele>
        <time>2022-08-14T14:35:56Z</time>
      </trkpt>
      <trkpt lat="4.2608600" lon="-75.9358360">
        <ele>1595.2</ele>
        <time>2022-08-14T14:35:57Z</time>
      </trkpt>
      <trkpt lat="4.2608360" lon="-75.9358380">
        <ele>1596.0</ele>
        <time>2022-08-14T14:36:00Z</time>
      </trkpt>
      <trkpt lat="4.2607870" lon="-75.9358480">
        <ele>1597.0</ele>
        <time>2022-08-14T14:36:03Z</time>
      </trkpt>
      <trkpt lat="4.2607360" lon="-75.9358590">
        <ele>1598.2</ele>
        <time>2022-08-14T14:36:07Z</time>
      </trkpt>
      <trkpt lat="4.2606990" lon="-75.9358790">
        <ele>1599.2</ele>
        <time>2022-08-14T14:36:10Z</time>
      </trkpt>
      <trkpt lat="4.2606690" lon="-75.9359340">
        <ele>1600.4</ele>
        <time>2022-08-14T14:36:14Z</time>
      </trkpt>
      <trkpt lat="4.2606750" lon="-75.9359530">
        <ele>1600.6</ele>
        <time>2022-08-14T14:36:15Z</time>
      </trkpt>
      <trkpt lat="4.2606850" lon="-75.9360190">
        <ele>1600.8</ele>
        <time>2022-08-14T14:36:17Z</time>
      </trkpt>
      <trkpt lat="4.2607150" lon="-75.9362270">
        <ele>1601.0</ele>
        <time>2022-08-14T14:36:21Z</time>
      </trkpt>
      <trkpt lat="4.2607310" lon="-75.9362830">
        <ele>1601.0</ele>
        <time>2022-08-14T14:36:22Z</time>
      </trkpt>
      <trkpt lat="4.2608160" lon="-75.9365000">
        <ele>1601.0</ele>
        <time>2022-08-14T14:36:26Z</time>
      </trkpt>
      <trkpt lat="4.2608950" lon="-75.9367390">
        <ele>1599.2</ele>
        <time>2022-08-14T14:36:30Z</time>
      </trkpt>
      <trkpt lat="4.2609300" lon="-75.9368570">
        <ele>1598.0</ele>
        <time>2022-08-14T14:36:32Z</time>
      </trkpt>
      <trkpt lat="4.2610000" lon="-75.9370640">
        <ele>1596.6</ele>
        <time>2022-08-14T14:36:35Z</time>
      </trkpt>
      <trkpt lat="4.2610390" lon="-75.9372070">
        <ele>1595.2</ele>
        <time>2022-08-14T14:36:37Z</time>
      </trkpt>
      <trkpt lat="4.2610590" lon="-75.9373460">
        <ele>1594.4</ele>
        <time>2022-08-14T14:36:39Z</time>
      </trkpt>
      <trkpt lat="4.2610610" lon="-75.9374070">
        <ele>1593.8</ele>
        <time>2022-08-14T14:36:40Z</time>
      </trkpt>
      <trkpt lat="4.2610490" lon="-75.9374550">
        <ele>1593.4</ele>
        <time>2022-08-14T14:36:41Z</time>
      </trkpt>
      <trkpt lat="4.2610220" lon="-75.9374910">
        <ele>1592.6</ele>
        <time>2022-08-14T14:36:42Z</time>
      </trkpt>
      <trkpt lat="4.2609700" lon="-75.9375390">
        <ele>1591.6</ele>
        <time>2022-08-14T14:36:44Z</time>
      </trkpt>
      <trkpt lat="4.2609340" lon="-75.9375600">
        <ele>1590.4</ele>
        <time>2022-08-14T14:36:46Z</time>
      </trkpt>
      <trkpt lat="4.2609210" lon="-75.9375630">
        <ele>1589.6</ele>
        <time>2022-08-14T14:36:48Z</time>
      </trkpt>
      <trkpt lat="4.2609210" lon="-75.9375630">
        <ele>1589.2</ele>
        <time>2022-08-14T14:36:49Z</time>
      </trkpt>
      <trkpt lat="4.2609230" lon="-75.9375590">
        <ele>1588.0</ele>
        <time>2022-08-14T14:36:54Z</time>
      </trkpt>
      <trkpt lat="4.2609200" lon="-75.9375580">
        <ele>1587.8</ele>
        <time>2022-08-14T14:36:56Z</time>
      </trkpt>
      <trkpt lat="4.2609180" lon="-75.9375610">
        <ele>1587.4</ele>
        <time>2022-08-14T14:37:04Z</time>
      </trkpt>
      <trkpt lat="4.2609180" lon="-75.9375610">
        <ele>1587.4</ele>
        <time>2022-08-14T14:37:08Z</time>
      </trkpt>
      <trkpt lat="4.2609180" lon="-75.9375610">
        <ele>1587.6</ele>
        <time>2022-08-14T14:37:14Z</time>
      </trkpt>
      <trkpt lat="4.2609170" lon="-75.9375670">
        <ele>1587.8</ele>
        <time>2022-08-14T14:37:19Z</time>
      </trkpt>
      <trkpt lat="4.2609170" lon="-75.9375670">
        <ele>1587.8</ele>
        <time>2022-08-14T14:37:39Z</time>
      </trkpt>
      <trkpt lat="4.2608030" lon="-75.9375790">
        <ele>1587.8</ele>
        <time>2022-08-14T14:37:54Z</time>
      </trkpt>
      <trkpt lat="4.2604950" lon="-75.9375960">
        <ele>1587.8</ele>
        <time>2022-08-14T14:37:59Z</time>
      </trkpt>
      <trkpt lat="4.2604160" lon="-75.9376060">
        <ele>1587.6</ele>
        <time>2022-08-14T14:38:00Z</time>
      </trkpt>
      <trkpt lat="4.2602320" lon="-75.9376490">
        <ele>1587.2</ele>
        <time>2022-08-14T14:38:02Z</time>
      </trkpt>
      <trkpt lat="4.2601490" lon="-75.9376790">
        <ele>1586.6</ele>
        <time>2022-08-14T14:38:03Z</time>
      </trkpt>
      <trkpt lat="4.2599960" lon="-75.9377300">
        <ele>1585.8</ele>
        <time>2022-08-14T14:38:05Z</time>
      </trkpt>
      <trkpt lat="4.2598020" lon="-75.9377990">
        <ele>1584.6</ele>
        <time>2022-08-14T14:38:07Z</time>
      </trkpt>
      <trkpt lat="4.2596250" lon="-75.9378440">
        <ele>1583.0</ele>
        <time>2022-08-14T14:38:09Z</time>
      </trkpt>
      <trkpt lat="4.2595380" lon="-75.9378530">
        <ele>1582.4</ele>
        <time>2022-08-14T14:38:10Z</time>
      </trkpt>
      <trkpt lat="4.2594750" lon="-75.9378460">
        <ele>1582.0</ele>
        <time>2022-08-14T14:38:11Z</time>
      </trkpt>
      <trkpt lat="4.2594120" lon="-75.9378390">
        <ele>1581.4</ele>
        <time>2022-08-14T14:38:12Z</time>
      </trkpt>
      <trkpt lat="4.2592850" lon="-75.9378250">
        <ele>1580.4</ele>
        <time>2022-08-14T14:38:13Z</time>
      </trkpt>
      <trkpt lat="4.2592170" lon="-75.9378120">
        <ele>1579.8</ele>
        <time>2022-08-14T14:38:14Z</time>
      </trkpt>
      <trkpt lat="4.2591300" lon="-75.9377920">
        <ele>1579.2</ele>
        <time>2022-08-14T14:38:15Z</time>
      </trkpt>
      <trkpt lat="4.2589310" lon="-75.9377500">
        <ele>1578.0</ele>
        <time>2022-08-14T14:38:17Z</time>
      </trkpt>
      <trkpt lat="4.2586670" lon="-75.9376840">
        <ele>1576.4</ele>
        <time>2022-08-14T14:38:20Z</time>
      </trkpt>
      <trkpt lat="4.2585690" lon="-75.9376570">
        <ele>1575.8</ele>
        <time>2022-08-14T14:38:21Z</time>
      </trkpt>
      <trkpt lat="4.2584490" lon="-75.9376240">
        <ele>1575.4</ele>
        <time>2022-08-14T14:38:22Z</time>
      </trkpt>
      <trkpt lat="4.2583490" lon="-75.9375920">
        <ele>1574.0</ele>
        <time>2022-08-14T14:38:24Z</time>
      </trkpt>
      <trkpt lat="4.2580470" lon="-75.9374690">
        <ele>1572.4</ele>
        <time>2022-08-14T14:38:26Z</time>
      </trkpt>
      <trkpt lat="4.2577420" lon="-75.9373160">
        <ele>1571.0</ele>
        <time>2022-08-14T14:38:29Z</time>
      </trkpt>
      <trkpt lat="4.2575450" lon="-75.9371970">
        <ele>1569.2</ele>
        <time>2022-08-14T14:38:31Z</time>
      </trkpt>
      <trkpt lat="4.2573500" lon="-75.9370690">
        <ele>1567.8</ele>
        <time>2022-08-14T14:38:33Z</time>
      </trkpt>
      <trkpt lat="4.2571590" lon="-75.9369280">
        <ele>1566.4</ele>
        <time>2022-08-14T14:38:35Z</time>
      </trkpt>
      <trkpt lat="4.2570690" lon="-75.9368570">
        <ele>1564.4</ele>
        <time>2022-08-14T14:38:37Z</time>
      </trkpt>
      <trkpt lat="4.2569350" lon="-75.9367610">
        <ele>1563.4</ele>
        <time>2022-08-14T14:38:38Z</time>
      </trkpt>
      <trkpt lat="4.2568000" lon="-75.9366650">
        <ele>1562.4</ele>
        <time>2022-08-14T14:38:39Z</time>
      </trkpt>
      <trkpt lat="4.2565920" lon="-75.9365910">
        <ele>1560.8</ele>
        <time>2022-08-14T14:38:41Z</time>
      </trkpt>
      <trkpt lat="4.2562590" lon="-75.9365760">
        <ele>1559.4</ele>
        <time>2022-08-14T14:38:44Z</time>
      </trkpt>
      <trkpt lat="4.2561500" lon="-75.9365810">
        <ele>1558.8</ele>
        <time>2022-08-14T14:38:45Z</time>
      </trkpt>
      <trkpt lat="4.2560470" lon="-75.9365790">
        <ele>1558.2</ele>
        <time>2022-08-14T14:38:46Z</time>
      </trkpt>
      <trkpt lat="4.2558650" lon="-75.9365200">
        <ele>1557.0</ele>
        <time>2022-08-14T14:38:48Z</time>
      </trkpt>
      <trkpt lat="4.2555520" lon="-75.9363030">
        <ele>1555.4</ele>
        <time>2022-08-14T14:38:52Z</time>
      </trkpt>
      <trkpt lat="4.2554510" lon="-75.9362310">
        <ele>1554.2</ele>
        <time>2022-08-14T14:38:53Z</time>
      </trkpt>
      <trkpt lat="4.2553650" lon="-75.9361690">
        <ele>1553.6</ele>
        <time>2022-08-14T14:38:54Z</time>
      </trkpt>
      <trkpt lat="4.2550650" lon="-75.9360150">
        <ele>1552.2</ele>
        <time>2022-08-14T14:38:57Z</time>
      </trkpt>
      <trkpt lat="4.2549610" lon="-75.9359650">
        <ele>1551.6</ele>
        <time>2022-08-14T14:38:58Z</time>
      </trkpt>
      <trkpt lat="4.2548610" lon="-75.9359050">
        <ele>1550.8</ele>
        <time>2022-08-14T14:38:59Z</time>
      </trkpt>
      <trkpt lat="4.2547670" lon="-75.9358350">
        <ele>1550.2</ele>
        <time>2022-08-14T14:39:00Z</time>
      </trkpt>
      <trkpt lat="4.2547050" lon="-75.9357730">
        <ele>1549.4</ele>
        <time>2022-08-14T14:39:01Z</time>
      </trkpt>
      <trkpt lat="4.2546430" lon="-75.9357100">
        <ele>1548.6</ele>
        <time>2022-08-14T14:39:02Z</time>
      </trkpt>
      <trkpt lat="4.2545190" lon="-75.9355860">
        <ele>1547.8</ele>
        <time>2022-08-14T14:39:03Z</time>
      </trkpt>
      <trkpt lat="4.2544540" lon="-75.9354920">
        <ele>1547.0</ele>
        <time>2022-08-14T14:39:04Z</time>
      </trkpt>
      <trkpt lat="4.2544010" lon="-75.9353940">
        <ele>1546.2</ele>
        <time>2022-08-14T14:39:05Z</time>
      </trkpt>
      <trkpt lat="4.2543620" lon="-75.9352940">
        <ele>1545.4</ele>
        <time>2022-08-14T14:39:06Z</time>
      </trkpt>
      <trkpt lat="4.2543340" lon="-75.9351990">
        <ele>1545.4</ele>
        <time>2022-08-14T14:39:07Z</time>
      </trkpt>
      <trkpt lat="4.2543170" lon="-75.9351090">
        <ele>1544.8</ele>
        <time>2022-08-14T14:39:08Z</time>
      </trkpt>
      <trkpt lat="4.2543100" lon="-75.9349550">
        <ele>1543.2</ele>
        <time>2022-08-14T14:39:10Z</time>
      </trkpt>
      <trkpt lat="4.2543270" lon="-75.9348320">
        <ele>1541.6</ele>
        <time>2022-08-14T14:39:12Z</time>
      </trkpt>
      <trkpt lat="4.2543410" lon="-75.9346950">
        <ele>1540.2</ele>
        <time>2022-08-14T14:39:14Z</time>
      </trkpt>
      <trkpt lat="4.2543630" lon="-75.9345520">
        <ele>1538.8</ele>
        <time>2022-08-14T14:39:16Z</time>
      </trkpt>
      <trkpt lat="4.2543840" lon="-75.9344230">
        <ele>1537.6</ele>
        <time>2022-08-14T14:39:18Z</time>
      </trkpt>
      <trkpt lat="4.2543990" lon="-75.9343620">
        <ele>1537.2</ele>
        <time>2022-08-14T14:39:19Z</time>
      </trkpt>
      <trkpt lat="4.2544210" lon="-75.9343030">
        <ele>1537.0</ele>
        <time>2022-08-14T14:39:20Z</time>
      </trkpt>
      <trkpt lat="4.2544550" lon="-75.9342530">
        <ele>1536.8</ele>
        <time>2022-08-14T14:39:21Z</time>
      </trkpt>
      <trkpt lat="4.2544930" lon="-75.9342190">
        <ele>1535.4</ele>
        <time>2022-08-14T14:39:22Z</time>
      </trkpt>
      <trkpt lat="4.2545640" lon="-75.9341810">
        <ele>1534.4</ele>
        <time>2022-08-14T14:39:23Z</time>
      </trkpt>
      <trkpt lat="4.2547220" lon="-75.9341610">
        <ele>1533.2</ele>
        <time>2022-08-14T14:39:25Z</time>
      </trkpt>
      <trkpt lat="4.2548110" lon="-75.9341570">
        <ele>1532.8</ele>
        <time>2022-08-14T14:39:26Z</time>
      </trkpt>
      <trkpt lat="4.2551010" lon="-75.9341470">
        <ele>1532.0</ele>
        <time>2022-08-14T14:39:29Z</time>
      </trkpt>
      <trkpt lat="4.2552980" lon="-75.9341170">
        <ele>1531.8</ele>
        <time>2022-08-14T14:39:31Z</time>
      </trkpt>
      <trkpt lat="4.2554060" lon="-75.9340870">
        <ele>1531.4</ele>
        <time>2022-08-14T14:39:32Z</time>
      </trkpt>
      <trkpt lat="4.2554720" lon="-75.9340470">
        <ele>1530.8</ele>
        <time>2022-08-14T14:39:33Z</time>
      </trkpt>
      <trkpt lat="4.2555370" lon="-75.9340070">
        <ele>1530.2</ele>
        <time>2022-08-14T14:39:34Z</time>
      </trkpt>
      <trkpt lat="4.2556690" lon="-75.9339260">
        <ele>1529.2</ele>
        <time>2022-08-14T14:39:35Z</time>
      </trkpt>
      <trkpt lat="4.2558250" lon="-75.9337550">
        <ele>1527.4</ele>
        <time>2022-08-14T14:39:37Z</time>
      </trkpt>
      <trkpt lat="4.2558610" lon="-75.9336890">
        <ele>1526.2</ele>
        <time>2022-08-14T14:39:38Z</time>
      </trkpt>
      <trkpt lat="4.2558960" lon="-75.9336240">
        <ele>1525.4</ele>
        <time>2022-08-14T14:39:39Z</time>
      </trkpt>
      <trkpt lat="4.2559680" lon="-75.9334920">
        <ele>1524.4</ele>
        <time>2022-08-14T14:39:40Z</time>
      </trkpt>
      <trkpt lat="4.2559890" lon="-75.9334160">
        <ele>1523.4</ele>
        <time>2022-08-14T14:39:41Z</time>
      </trkpt>
      <trkpt lat="4.2559710" lon="-75.9332880">
        <ele>1522.0</ele>
        <time>2022-08-14T14:39:43Z</time>
      </trkpt>
      <trkpt lat="4.2558630" lon="-75.9332070">
        <ele>1520.0</ele>
        <time>2022-08-14T14:39:45Z</time>
      </trkpt>
      <trkpt lat="4.2557140" lon="-75.9332210">
        <ele>1519.0</ele>
        <time>2022-08-14T14:39:47Z</time>
      </trkpt>
      <trkpt lat="4.2556460" lon="-75.9332510">
        <ele>1518.8</ele>
        <time>2022-08-14T14:39:48Z</time>
      </trkpt>
      <trkpt lat="4.2555810" lon="-75.9332890">
        <ele>1518.4</ele>
        <time>2022-08-14T14:39:49Z</time>
      </trkpt>
      <trkpt lat="4.2554490" lon="-75.9333740">
        <ele>1518.0</ele>
        <time>2022-08-14T14:39:51Z</time>
      </trkpt>
      <trkpt lat="4.2552280" lon="-75.9334850">
        <ele>1517.6</ele>
        <time>2022-08-14T14:39:54Z</time>
      </trkpt>
      <trkpt lat="4.2550640" lon="-75.9335030">
        <ele>1517.4</ele>
        <time>2022-08-14T14:39:56Z</time>
      </trkpt>
      <trkpt lat="4.2549200" lon="-75.9334600">
        <ele>1517.2</ele>
        <time>2022-08-14T14:39:58Z</time>
      </trkpt>
      <trkpt lat="4.2548950" lon="-75.9334430">
        <ele>1517.2</ele>
        <time>2022-08-14T14:39:59Z</time>
      </trkpt>
      <trkpt lat="4.2548690" lon="-75.9334250">
        <ele>1517.0</ele>
        <time>2022-08-14T14:40:00Z</time>
      </trkpt>
      <trkpt lat="4.2547670" lon="-75.9333530">
        <ele>1516.8</ele>
        <time>2022-08-14T14:40:02Z</time>
      </trkpt>
      <trkpt lat="4.2547350" lon="-75.9333220">
        <ele>1516.4</ele>
        <time>2022-08-14T14:40:03Z</time>
      </trkpt>
      <trkpt lat="4.2546460" lon="-75.9332650">
        <ele>1515.6</ele>
        <time>2022-08-14T14:40:05Z</time>
      </trkpt>
      <trkpt lat="4.2545890" lon="-75.9332400">
        <ele>1515.4</ele>
        <time>2022-08-14T14:40:06Z</time>
      </trkpt>
      <trkpt lat="4.2544570" lon="-75.9331980">
        <ele>1515.0</ele>
        <time>2022-08-14T14:40:08Z</time>
      </trkpt>
      <trkpt lat="4.2543860" lon="-75.9331920">
        <ele>1515.0</ele>
        <time>2022-08-14T14:40:09Z</time>
      </trkpt>
      <trkpt lat="4.2542120" lon="-75.9331960">
        <ele>1514.0</ele>
        <time>2022-08-14T14:40:12Z</time>
      </trkpt>
      <trkpt lat="4.2541540" lon="-75.9332000">
        <ele>1513.0</ele>
        <time>2022-08-14T14:40:14Z</time>
      </trkpt>
      <trkpt lat="4.2540280" lon="-75.9332020">
        <ele>1512.4</ele>
        <time>2022-08-14T14:40:15Z</time>
      </trkpt>
      <trkpt lat="4.2539180" lon="-75.9332070">
        <ele>1512.0</ele>
        <time>2022-08-14T14:40:17Z</time>
      </trkpt>
      <trkpt lat="4.2538410" lon="-75.9332220">
        <ele>1511.8</ele>
        <time>2022-08-14T14:40:18Z</time>
      </trkpt>
      <trkpt lat="4.2537960" lon="-75.9332410">
        <ele>1511.8</ele>
        <time>2022-08-14T14:40:19Z</time>
      </trkpt>
      <trkpt lat="4.2537510" lon="-75.9332600">
        <ele>1511.4</ele>
        <time>2022-08-14T14:40:20Z</time>
      </trkpt>
      <trkpt lat="4.2534840" lon="-75.9333750">
        <ele>1511.0</ele>
        <time>2022-08-14T14:40:23Z</time>
      </trkpt>
      <trkpt lat="4.2534040" lon="-75.9334310">
        <ele>1510.6</ele>
        <time>2022-08-14T14:40:24Z</time>
      </trkpt>
      <trkpt lat="4.2533140" lon="-75.9335060">
        <ele>1510.4</ele>
        <time>2022-08-14T14:40:25Z</time>
      </trkpt>
      <trkpt lat="4.2531880" lon="-75.9336520">
        <ele>1509.8</ele>
        <time>2022-08-14T14:40:27Z</time>
      </trkpt>
      <trkpt lat="4.2531350" lon="-75.9337330">
        <ele>1509.4</ele>
        <time>2022-08-14T14:40:28Z</time>
      </trkpt>
      <trkpt lat="4.2530400" lon="-75.9339020">
        <ele>1507.8</ele>
        <time>2022-08-14T14:40:30Z</time>
      </trkpt>
      <trkpt lat="4.2529920" lon="-75.9339890">
        <ele>1506.6</ele>
        <time>2022-08-14T14:40:31Z</time>
      </trkpt>
      <trkpt lat="4.2529400" lon="-75.9340750">
        <ele>1506.0</ele>
        <time>2022-08-14T14:40:32Z</time>
      </trkpt>
      <trkpt lat="4.2528780" lon="-75.9341580">
        <ele>1505.0</ele>
        <time>2022-08-14T14:40:33Z</time>
      </trkpt>
      <trkpt lat="4.2528060" lon="-75.9342380">
        <ele>1504.0</ele>
        <time>2022-08-14T14:40:35Z</time>
      </trkpt>
      <trkpt lat="4.2526810" lon="-75.9343530">
        <ele>1503.4</ele>
        <time>2022-08-14T14:40:36Z</time>
      </trkpt>
      <trkpt lat="4.2525550" lon="-75.9344690">
        <ele>1502.8</ele>
        <time>2022-08-14T14:40:37Z</time>
      </trkpt>
      <trkpt lat="4.2523580" lon="-75.9346140">
        <ele>1501.6</ele>
        <time>2022-08-14T14:40:40Z</time>
      </trkpt>
      <trkpt lat="4.2520370" lon="-75.9348100">
        <ele>1501.2</ele>
        <time>2022-08-14T14:40:42Z</time>
      </trkpt>
      <trkpt lat="4.2519550" lon="-75.9348800">
        <ele>1500.2</ele>
        <time>2022-08-14T14:40:43Z</time>
      </trkpt>
      <trkpt lat="4.2518900" lon="-75.9349550">
        <ele>1499.2</ele>
        <time>2022-08-14T14:40:44Z</time>
      </trkpt>
      <trkpt lat="4.2518690" lon="-75.9350260">
        <ele>1498.4</ele>
        <time>2022-08-14T14:40:45Z</time>
      </trkpt>
      <trkpt lat="4.2518480" lon="-75.9350960">
        <ele>1497.4</ele>
        <time>2022-08-14T14:40:46Z</time>
      </trkpt>
      <trkpt lat="4.2518070" lon="-75.9352360">
        <ele>1496.2</ele>
        <time>2022-08-14T14:40:47Z</time>
      </trkpt>
      <trkpt lat="4.2517980" lon="-75.9353390">
        <ele>1494.6</ele>
        <time>2022-08-14T14:40:48Z</time>
      </trkpt>
      <trkpt lat="4.2517860" lon="-75.9354430">
        <ele>1493.0</ele>
        <time>2022-08-14T14:40:49Z</time>
      </trkpt>
      <trkpt lat="4.2517630" lon="-75.9356060">
        <ele>1491.8</ele>
        <time>2022-08-14T14:40:50Z</time>
      </trkpt>
      <trkpt lat="4.2517400" lon="-75.9357680">
        <ele>1490.8</ele>
        <time>2022-08-14T14:40:52Z</time>
      </trkpt>
      <trkpt lat="4.2517270" lon="-75.9358830">
        <ele>1490.8</ele>
        <time>2022-08-14T14:40:53Z</time>
      </trkpt>
      <trkpt lat="4.2516910" lon="-75.9363640">
        <ele>1489.2</ele>
        <time>2022-08-14T14:40:57Z</time>
      </trkpt>
      <trkpt lat="4.2516900" lon="-75.9364900">
        <ele>1488.6</ele>
        <time>2022-08-14T14:40:58Z</time>
      </trkpt>
      <trkpt lat="4.2516850" lon="-75.9366170">
        <ele>1487.6</ele>
        <time>2022-08-14T14:40:59Z</time>
      </trkpt>
      <trkpt lat="4.2516630" lon="-75.9368730">
        <ele>1486.0</ele>
        <time>2022-08-14T14:41:01Z</time>
      </trkpt>
      <trkpt lat="4.2516370" lon="-75.9370030">
        <ele>1485.0</ele>
        <time>2022-08-14T14:41:02Z</time>
      </trkpt>
      <trkpt lat="4.2516020" lon="-75.9371310">
        <ele>1484.0</ele>
        <time>2022-08-14T14:41:03Z</time>
      </trkpt>
      <trkpt lat="4.2515530" lon="-75.9372550">
        <ele>1482.8</ele>
        <time>2022-08-14T14:41:04Z</time>
      </trkpt>
      <trkpt lat="4.2514880" lon="-75.9373700">
        <ele>1481.8</ele>
        <time>2022-08-14T14:41:05Z</time>
      </trkpt>
      <trkpt lat="4.2514020" lon="-75.9374670">
        <ele>1481.8</ele>
        <time>2022-08-14T14:41:06Z</time>
      </trkpt>
      <trkpt lat="4.2513040" lon="-75.9375480">
        <ele>1480.6</ele>
        <time>2022-08-14T14:41:07Z</time>
      </trkpt>
      <trkpt lat="4.2512020" lon="-75.9376070">
        <ele>1479.8</ele>
        <time>2022-08-14T14:41:08Z</time>
      </trkpt>
      <trkpt lat="4.2510940" lon="-75.9376500">
        <ele>1478.6</ele>
        <time>2022-08-14T14:41:09Z</time>
      </trkpt>
      <trkpt lat="4.2510190" lon="-75.9376970">
        <ele>1476.8</ele>
        <time>2022-08-14T14:41:10Z</time>
      </trkpt>
      <trkpt lat="4.2509450" lon="-75.9377440">
        <ele>1475.2</ele>
        <time>2022-08-14T14:41:11Z</time>
      </trkpt>
      <trkpt lat="4.2507950" lon="-75.9378380">
        <ele>1473.8</ele>
        <time>2022-08-14T14:41:12Z</time>
      </trkpt>
      <trkpt lat="4.2507350" lon="-75.9379330">
        <ele>1472.6</ele>
        <time>2022-08-14T14:41:13Z</time>
      </trkpt>
      <trkpt lat="4.2507000" lon="-75.9380380">
        <ele>1471.4</ele>
        <time>2022-08-14T14:41:14Z</time>
      </trkpt>
      <trkpt lat="4.2506410" lon="-75.9382580">
        <ele>1470.2</ele>
        <time>2022-08-14T14:41:16Z</time>
      </trkpt>
      <trkpt lat="4.2505470" lon="-75.9384660">
        <ele>1469.4</ele>
        <time>2022-08-14T14:41:18Z</time>
      </trkpt>
      <trkpt lat="4.2504830" lon="-75.9385670">
        <ele>1469.0</ele>
        <time>2022-08-14T14:41:19Z</time>
      </trkpt>
      <trkpt lat="4.2503610" lon="-75.9387790">
        <ele>1468.0</ele>
        <time>2022-08-14T14:41:21Z</time>
      </trkpt>
      <trkpt lat="4.2503160" lon="-75.9388960">
        <ele>1467.4</ele>
        <time>2022-08-14T14:41:22Z</time>
      </trkpt>
      <trkpt lat="4.2502830" lon="-75.9390190">
        <ele>1466.6</ele>
        <time>2022-08-14T14:41:23Z</time>
      </trkpt>
      <trkpt lat="4.2502580" lon="-75.9391430">
        <ele>1465.6</ele>
        <time>2022-08-14T14:41:24Z</time>
      </trkpt>
      <trkpt lat="4.2502280" lon="-75.9392670">
        <ele>1464.4</ele>
        <time>2022-08-14T14:41:25Z</time>
      </trkpt>
      <trkpt lat="4.2501850" lon="-75.9393860">
        <ele>1463.6</ele>
        <time>2022-08-14T14:41:26Z</time>
      </trkpt>
      <trkpt lat="4.2501290" lon="-75.9394950">
        <ele>1462.8</ele>
        <time>2022-08-14T14:41:27Z</time>
      </trkpt>
      <trkpt lat="4.2499900" lon="-75.9397050">
        <ele>1460.8</ele>
        <time>2022-08-14T14:41:29Z</time>
      </trkpt>
      <trkpt lat="4.2497560" lon="-75.9399990">
        <ele>1459.0</ele>
        <time>2022-08-14T14:41:32Z</time>
      </trkpt>
      <trkpt lat="4.2496750" lon="-75.9400960">
        <ele>1458.0</ele>
        <time>2022-08-14T14:41:33Z</time>
      </trkpt>
      <trkpt lat="4.2495130" lon="-75.9402950">
        <ele>1456.8</ele>
        <time>2022-08-14T14:41:35Z</time>
      </trkpt>
      <trkpt lat="4.2494350" lon="-75.9403940">
        <ele>1455.8</ele>
        <time>2022-08-14T14:41:36Z</time>
      </trkpt>
      <trkpt lat="4.2493670" lon="-75.9404950">
        <ele>1455.4</ele>
        <time>2022-08-14T14:41:37Z</time>
      </trkpt>
      <trkpt lat="4.2492970" lon="-75.9407170">
        <ele>1453.8</ele>
        <time>2022-08-14T14:41:39Z</time>
      </trkpt>
      <trkpt lat="4.2492870" lon="-75.9409630">
        <ele>1452.6</ele>
        <time>2022-08-14T14:41:41Z</time>
      </trkpt>
      <trkpt lat="4.2492920" lon="-75.9412290">
        <ele>1451.4</ele>
        <time>2022-08-14T14:41:43Z</time>
      </trkpt>
      <trkpt lat="4.2492840" lon="-75.9415360">
        <ele>1450.2</ele>
        <time>2022-08-14T14:41:45Z</time>
      </trkpt>
      <trkpt lat="4.2492650" lon="-75.9418120">
        <ele>1449.2</ele>
        <time>2022-08-14T14:41:47Z</time>
      </trkpt>
      <trkpt lat="4.2492540" lon="-75.9419170">
        <ele>1448.2</ele>
        <time>2022-08-14T14:41:48Z</time>
      </trkpt>
      <trkpt lat="4.2492350" lon="-75.9420430">
        <ele>1446.8</ele>
        <time>2022-08-14T14:41:49Z</time>
      </trkpt>
      <trkpt lat="4.2492060" lon="-75.9421650">
        <ele>1445.2</ele>
        <time>2022-08-14T14:41:50Z</time>
      </trkpt>
      <trkpt lat="4.2491660" lon="-75.9422790">
        <ele>1443.4</ele>
        <time>2022-08-14T14:41:51Z</time>
      </trkpt>
      <trkpt lat="4.2491130" lon="-75.9423850">
        <ele>1441.6</ele>
        <time>2022-08-14T14:41:52Z</time>
      </trkpt>
      <trkpt lat="4.2490460" lon="-75.9424790">
        <ele>1440.2</ele>
        <time>2022-08-14T14:41:53Z</time>
      </trkpt>
      <trkpt lat="4.2489680" lon="-75.9425570">
        <ele>1440.2</ele>
        <time>2022-08-14T14:41:54Z</time>
      </trkpt>
      <trkpt lat="4.2488890" lon="-75.9426270">
        <ele>1439.2</ele>
        <time>2022-08-14T14:41:55Z</time>
      </trkpt>
      <trkpt lat="4.2487310" lon="-75.9427630">
        <ele>1437.8</ele>
        <time>2022-08-14T14:41:57Z</time>
      </trkpt>
      <trkpt lat="4.2485580" lon="-75.9428900">
        <ele>1436.6</ele>
        <time>2022-08-14T14:41:59Z</time>
      </trkpt>
      <trkpt lat="4.2484190" lon="-75.9429860">
        <ele>1436.2</ele>
        <time>2022-08-14T14:42:00Z</time>
      </trkpt>
      <trkpt lat="4.2482800" lon="-75.9430820">
        <ele>1434.6</ele>
        <time>2022-08-14T14:42:02Z</time>
      </trkpt>
      <trkpt lat="4.2480860" lon="-75.9432230">
        <ele>1433.0</ele>
        <time>2022-08-14T14:42:05Z</time>
      </trkpt>
      <trkpt lat="4.2477990" lon="-75.9434180">
        <ele>1432.2</ele>
        <time>2022-08-14T14:42:07Z</time>
      </trkpt>
      <trkpt lat="4.2477190" lon="-75.9434710">
        <ele>1431.6</ele>
        <time>2022-08-14T14:42:08Z</time>
      </trkpt>
      <trkpt lat="4.2476500" lon="-75.9435290">
        <ele>1430.6</ele>
        <time>2022-08-14T14:42:09Z</time>
      </trkpt>
      <trkpt lat="4.2475920" lon="-75.9436020">
        <ele>1429.6</ele>
        <time>2022-08-14T14:42:10Z</time>
      </trkpt>
      <trkpt lat="4.2475520" lon="-75.9436890">
        <ele>1428.8</ele>
        <time>2022-08-14T14:42:11Z</time>
      </trkpt>
      <trkpt lat="4.2475360" lon="-75.9437830">
        <ele>1427.6</ele>
        <time>2022-08-14T14:42:12Z</time>
      </trkpt>
      <trkpt lat="4.2475440" lon="-75.9438820">
        <ele>1426.6</ele>
        <time>2022-08-14T14:42:13Z</time>
      </trkpt>
      <trkpt lat="4.2475760" lon="-75.9439850">
        <ele>1425.8</ele>
        <time>2022-08-14T14:42:14Z</time>
      </trkpt>
      <trkpt lat="4.2476210" lon="-75.9440880">
        <ele>1425.0</ele>
        <time>2022-08-14T14:42:15Z</time>
      </trkpt>
      <trkpt lat="4.2476850" lon="-75.9441890">
        <ele>1424.2</ele>
        <time>2022-08-14T14:42:16Z</time>
      </trkpt>
      <trkpt lat="4.2477590" lon="-75.9442840">
        <ele>1424.2</ele>
        <time>2022-08-14T14:42:17Z</time>
      </trkpt>
      <trkpt lat="4.2478360" lon="-75.9443770">
        <ele>1423.6</ele>
        <time>2022-08-14T14:42:18Z</time>
      </trkpt>
      <trkpt lat="4.2479110" lon="-75.9444710">
        <ele>1422.0</ele>
        <time>2022-08-14T14:42:20Z</time>
      </trkpt>
      <trkpt lat="4.2479770" lon="-75.9445730">
        <ele>1421.0</ele>
        <time>2022-08-14T14:42:21Z</time>
      </trkpt>
      <trkpt lat="4.2480880" lon="-75.9449240">
        <ele>1418.8</ele>
        <time>2022-08-14T14:42:23Z</time>
      </trkpt>
      <trkpt lat="4.2481160" lon="-75.9451860">
        <ele>1417.2</ele>
        <time>2022-08-14T14:42:25Z</time>
      </trkpt>
      <trkpt lat="4.2481230" lon="-75.9453500">
        <ele>1415.8</ele>
        <time>2022-08-14T14:42:26Z</time>
      </trkpt>
      <trkpt lat="4.2481350" lon="-75.9454900">
        <ele>1414.4</ele>
        <time>2022-08-14T14:42:27Z</time>
      </trkpt>
      <trkpt lat="4.2481550" lon="-75.9456060">
        <ele>1413.4</ele>
        <time>2022-08-14T14:42:28Z</time>
      </trkpt>
      <trkpt lat="4.2481860" lon="-75.9457480">
        <ele>1412.2</ele>
        <time>2022-08-14T14:42:29Z</time>
      </trkpt>
      <trkpt lat="4.2482230" lon="-75.9458840">
        <ele>1411.2</ele>
        <time>2022-08-14T14:42:30Z</time>
      </trkpt>
      <trkpt lat="4.2482620" lon="-75.9460170">
        <ele>1410.0</ele>
        <time>2022-08-14T14:42:31Z</time>
      </trkpt>
      <trkpt lat="4.2482980" lon="-75.9461480">
        <ele>1409.0</ele>
        <time>2022-08-14T14:42:32Z</time>
      </trkpt>
      <trkpt lat="4.2483430" lon="-75.9463020">
        <ele>1408.0</ele>
        <time>2022-08-14T14:42:33Z</time>
      </trkpt>
      <trkpt lat="4.2483750" lon="-75.9464020">
        <ele>1406.6</ele>
        <time>2022-08-14T14:42:34Z</time>
      </trkpt>
      <trkpt lat="4.2484090" lon="-75.9465230">
        <ele>1405.2</ele>
        <time>2022-08-14T14:42:35Z</time>
      </trkpt>
      <trkpt lat="4.2484440" lon="-75.9466630">
        <ele>1404.2</ele>
        <time>2022-08-14T14:42:36Z</time>
      </trkpt>
      <trkpt lat="4.2484580" lon="-75.9467540">
        <ele>1403.2</ele>
        <time>2022-08-14T14:42:37Z</time>
      </trkpt>
      <trkpt lat="4.2484620" lon="-75.9468660">
        <ele>1401.6</ele>
        <time>2022-08-14T14:42:38Z</time>
      </trkpt>
      <trkpt lat="4.2484440" lon="-75.9469720">
        <ele>1399.8</ele>
        <time>2022-08-14T14:42:39Z</time>
      </trkpt>
      <trkpt lat="4.2484180" lon="-75.9470730">
        <ele>1398.4</ele>
        <time>2022-08-14T14:42:40Z</time>
      </trkpt>
      <trkpt lat="4.2483820" lon="-75.9472720">
        <ele>1397.0</ele>
        <time>2022-08-14T14:42:42Z</time>
      </trkpt>
      <trkpt lat="4.2483920" lon="-75.9473710">
        <ele>1396.0</ele>
        <time>2022-08-14T14:42:43Z</time>
      </trkpt>
      <trkpt lat="4.2484220" lon="-75.9474640">
        <ele>1394.6</ele>
        <time>2022-08-14T14:42:44Z</time>
      </trkpt>
      <trkpt lat="4.2485360" lon="-75.9476440">
        <ele>1393.4</ele>
        <time>2022-08-14T14:42:46Z</time>
      </trkpt>
      <trkpt lat="4.2486670" lon="-75.9478280">
        <ele>1392.4</ele>
        <time>2022-08-14T14:42:48Z</time>
      </trkpt>
      <trkpt lat="4.2487880" lon="-75.9480200">
        <ele>1391.2</ele>
        <time>2022-08-14T14:42:50Z</time>
      </trkpt>
      <trkpt lat="4.2488590" lon="-75.9481000">
        <ele>1390.4</ele>
        <time>2022-08-14T14:42:51Z</time>
      </trkpt>
      <trkpt lat="4.2489440" lon="-75.9481610">
        <ele>1389.4</ele>
        <time>2022-08-14T14:42:52Z</time>
      </trkpt>
      <trkpt lat="4.2490310" lon="-75.9482090">
        <ele>1388.8</ele>
        <time>2022-08-14T14:42:53Z</time>
      </trkpt>
      <trkpt lat="4.2491150" lon="-75.9482520">
        <ele>1388.2</ele>
        <time>2022-08-14T14:42:54Z</time>
      </trkpt>
      <trkpt lat="4.2491820" lon="-75.9483070">
        <ele>1387.2</ele>
        <time>2022-08-14T14:42:55Z</time>
      </trkpt>
      <trkpt lat="4.2492300" lon="-75.9483740">
        <ele>1386.6</ele>
        <time>2022-08-14T14:42:56Z</time>
      </trkpt>
      <trkpt lat="4.2492530" lon="-75.9484530">
        <ele>1386.0</ele>
        <time>2022-08-14T14:42:57Z</time>
      </trkpt>
      <trkpt lat="4.2492420" lon="-75.9485350">
        <ele>1384.6</ele>
        <time>2022-08-14T14:42:58Z</time>
      </trkpt>
      <trkpt lat="4.2491990" lon="-75.9486040">
        <ele>1383.4</ele>
        <time>2022-08-14T14:42:59Z</time>
      </trkpt>
      <trkpt lat="4.2490120" lon="-75.9486650">
        <ele>1381.2</ele>
        <time>2022-08-14T14:43:01Z</time>
      </trkpt>
      <trkpt lat="4.2488130" lon="-75.9486520">
        <ele>1380.2</ele>
        <time>2022-08-14T14:43:03Z</time>
      </trkpt>
      <trkpt lat="4.2487090" lon="-75.9486320">
        <ele>1379.6</ele>
        <time>2022-08-14T14:43:04Z</time>
      </trkpt>
      <trkpt lat="4.2486040" lon="-75.9486170">
        <ele>1379.6</ele>
        <time>2022-08-14T14:43:05Z</time>
      </trkpt>
      <trkpt lat="4.2483860" lon="-75.9486370">
        <ele>1378.6</ele>
        <time>2022-08-14T14:43:07Z</time>
      </trkpt>
      <trkpt lat="4.2482880" lon="-75.9486730">
        <ele>1378.0</ele>
        <time>2022-08-14T14:43:08Z</time>
      </trkpt>
      <trkpt lat="4.2482060" lon="-75.9487310">
        <ele>1377.4</ele>
        <time>2022-08-14T14:43:09Z</time>
      </trkpt>
      <trkpt lat="4.2481410" lon="-75.9488010">
        <ele>1376.6</ele>
        <time>2022-08-14T14:43:10Z</time>
      </trkpt>
      <trkpt lat="4.2480900" lon="-75.9488900">
        <ele>1375.8</ele>
        <time>2022-08-14T14:43:11Z</time>
      </trkpt>
      <trkpt lat="4.2480460" lon="-75.9489890">
        <ele>1375.4</ele>
        <time>2022-08-14T14:43:12Z</time>
      </trkpt>
      <trkpt lat="4.2479910" lon="-75.9490860">
        <ele>1374.6</ele>
        <time>2022-08-14T14:43:13Z</time>
      </trkpt>
      <trkpt lat="4.2479230" lon="-75.9491760">
        <ele>1374.2</ele>
        <time>2022-08-14T14:43:14Z</time>
      </trkpt>
      <trkpt lat="4.2478420" lon="-75.9492600">
        <ele>1373.6</ele>
        <time>2022-08-14T14:43:15Z</time>
      </trkpt>
      <trkpt lat="4.2477530" lon="-75.9493350">
        <ele>1372.8</ele>
        <time>2022-08-14T14:43:16Z</time>
      </trkpt>
      <trkpt lat="4.2475720" lon="-75.9494810">
        <ele>1370.6</ele>
        <time>2022-08-14T14:43:18Z</time>
      </trkpt>
      <trkpt lat="4.2474760" lon="-75.9495490">
        <ele>1369.2</ele>
        <time>2022-08-14T14:43:19Z</time>
      </trkpt>
      <trkpt lat="4.2473720" lon="-75.9496050">
        <ele>1368.4</ele>
        <time>2022-08-14T14:43:20Z</time>
      </trkpt>
      <trkpt lat="4.2472580" lon="-75.9496510">
        <ele>1367.2</ele>
        <time>2022-08-14T14:43:21Z</time>
      </trkpt>
      <trkpt lat="4.2470130" lon="-75.9497020">
        <ele>1365.6</ele>
        <time>2022-08-14T14:43:23Z</time>
      </trkpt>
      <trkpt lat="4.2467840" lon="-75.9497310">
        <ele>1364.2</ele>
        <time>2022-08-14T14:43:25Z</time>
      </trkpt>
      <trkpt lat="4.2466590" lon="-75.9497340">
        <ele>1363.2</ele>
        <time>2022-08-14T14:43:26Z</time>
      </trkpt>
      <trkpt lat="4.2465150" lon="-75.9497140">
        <ele>1362.0</ele>
        <time>2022-08-14T14:43:27Z</time>
      </trkpt>
      <trkpt lat="4.2461470" lon="-75.9496140">
        <ele>1360.4</ele>
        <time>2022-08-14T14:43:30Z</time>
      </trkpt>
      <trkpt lat="4.2460240" lon="-75.9495930">
        <ele>1359.2</ele>
        <time>2022-08-14T14:43:31Z</time>
      </trkpt>
      <trkpt lat="4.2459080" lon="-75.9495800">
        <ele>1358.4</ele>
        <time>2022-08-14T14:43:32Z</time>
      </trkpt>
      <trkpt lat="4.2458030" lon="-75.9495830">
        <ele>1357.4</ele>
        <time>2022-08-14T14:43:33Z</time>
      </trkpt>
      <trkpt lat="4.2457060" lon="-75.9496100">
        <ele>1356.6</ele>
        <time>2022-08-14T14:43:34Z</time>
      </trkpt>
      <trkpt lat="4.2456170" lon="-75.9496530">
        <ele>1356.0</ele>
        <time>2022-08-14T14:43:35Z</time>
      </trkpt>
      <trkpt lat="4.2455350" lon="-75.9497100">
        <ele>1355.4</ele>
        <time>2022-08-14T14:43:36Z</time>
      </trkpt>
      <trkpt lat="4.2454650" lon="-75.9497820">
        <ele>1354.4</ele>
        <time>2022-08-14T14:43:37Z</time>
      </trkpt>
      <trkpt lat="4.2454020" lon="-75.9498640">
        <ele>1353.0</ele>
        <time>2022-08-14T14:43:38Z</time>
      </trkpt>
      <trkpt lat="4.2453360" lon="-75.9499510">
        <ele>1351.8</ele>
        <time>2022-08-14T14:43:39Z</time>
      </trkpt>
      <trkpt lat="4.2452580" lon="-75.9500320">
        <ele>1351.2</ele>
        <time>2022-08-14T14:43:40Z</time>
      </trkpt>
      <trkpt lat="4.2451630" lon="-75.9501000">
        <ele>1350.6</ele>
        <time>2022-08-14T14:43:41Z</time>
      </trkpt>
      <trkpt lat="4.2450620" lon="-75.9501530">
        <ele>1350.4</ele>
        <time>2022-08-14T14:43:42Z</time>
      </trkpt>
      <trkpt lat="4.2448520" lon="-75.9502750">
        <ele>1348.8</ele>
        <time>2022-08-14T14:43:44Z</time>
      </trkpt>
      <trkpt lat="4.2446590" lon="-75.9504390">
        <ele>1347.0</ele>
        <time>2022-08-14T14:43:46Z</time>
      </trkpt>
      <trkpt lat="4.2445700" lon="-75.9505340">
        <ele>1345.8</ele>
        <time>2022-08-14T14:43:47Z</time>
      </trkpt>
      <trkpt lat="4.2444840" lon="-75.9506300">
        <ele>1344.4</ele>
        <time>2022-08-14T14:43:48Z</time>
      </trkpt>
      <trkpt lat="4.2443970" lon="-75.9507180">
        <ele>1343.4</ele>
        <time>2022-08-14T14:43:49Z</time>
      </trkpt>
      <trkpt lat="4.2443100" lon="-75.9507930">
        <ele>1342.2</ele>
        <time>2022-08-14T14:43:50Z</time>
      </trkpt>
      <trkpt lat="4.2442180" lon="-75.9508520">
        <ele>1341.6</ele>
        <time>2022-08-14T14:43:51Z</time>
      </trkpt>
      <trkpt lat="4.2439990" lon="-75.9509180">
        <ele>1340.4</ele>
        <time>2022-08-14T14:43:53Z</time>
      </trkpt>
      <trkpt lat="4.2438820" lon="-75.9509300">
        <ele>1339.2</ele>
        <time>2022-08-14T14:43:54Z</time>
      </trkpt>
      <trkpt lat="4.2437610" lon="-75.9509420">
        <ele>1337.6</ele>
        <time>2022-08-14T14:43:55Z</time>
      </trkpt>
      <trkpt lat="4.2436430" lon="-75.9509540">
        <ele>1336.2</ele>
        <time>2022-08-14T14:43:56Z</time>
      </trkpt>
      <trkpt lat="4.2435650" lon="-75.9509820">
        <ele>1335.4</ele>
        <time>2022-08-14T14:43:57Z</time>
      </trkpt>
      <trkpt lat="4.2434870" lon="-75.9510090">
        <ele>1334.4</ele>
        <time>2022-08-14T14:43:58Z</time>
      </trkpt>
      <trkpt lat="4.2433320" lon="-75.9510640">
        <ele>1333.8</ele>
        <time>2022-08-14T14:43:59Z</time>
      </trkpt>
      <trkpt lat="4.2431590" lon="-75.9512050">
        <ele>1332.4</ele>
        <time>2022-08-14T14:44:01Z</time>
      </trkpt>
      <trkpt lat="4.2429760" lon="-75.9513370">
        <ele>1330.6</ele>
        <time>2022-08-14T14:44:03Z</time>
      </trkpt>
      <trkpt lat="4.2428710" lon="-75.9513890">
        <ele>1329.6</ele>
        <time>2022-08-14T14:44:04Z</time>
      </trkpt>
      <trkpt lat="4.2427870" lon="-75.9514170">
        <ele>1328.2</ele>
        <time>2022-08-14T14:44:05Z</time>
      </trkpt>
      <trkpt lat="4.2427020" lon="-75.9514440">
        <ele>1327.4</ele>
        <time>2022-08-14T14:44:06Z</time>
      </trkpt>
      <trkpt lat="4.2425320" lon="-75.9514980">
        <ele>1326.8</ele>
        <time>2022-08-14T14:44:07Z</time>
      </trkpt>
      <trkpt lat="4.2424140" lon="-75.9515290">
        <ele>1326.0</ele>
        <time>2022-08-14T14:44:08Z</time>
      </trkpt>
      <trkpt lat="4.2422990" lon="-75.9515580">
        <ele>1325.4</ele>
        <time>2022-08-14T14:44:09Z</time>
      </trkpt>
      <trkpt lat="4.2421940" lon="-75.9515990">
        <ele>1325.0</ele>
        <time>2022-08-14T14:44:10Z</time>
      </trkpt>
      <trkpt lat="4.2420960" lon="-75.9516460">
        <ele>1324.2</ele>
        <time>2022-08-14T14:44:11Z</time>
      </trkpt>
      <trkpt lat="4.2420480" lon="-75.9517000">
        <ele>1323.6</ele>
        <time>2022-08-14T14:44:12Z</time>
      </trkpt>
      <trkpt lat="4.2419990" lon="-75.9517540">
        <ele>1322.8</ele>
        <time>2022-08-14T14:44:13Z</time>
      </trkpt>
      <trkpt lat="4.2419030" lon="-75.9518620">
        <ele>1322.0</ele>
        <time>2022-08-14T14:44:14Z</time>
      </trkpt>
      <trkpt lat="4.2418870" lon="-75.9519430">
        <ele>1320.6</ele>
        <time>2022-08-14T14:44:15Z</time>
      </trkpt>
      <trkpt lat="4.2418940" lon="-75.9520150">
        <ele>1319.6</ele>
        <time>2022-08-14T14:44:17Z</time>
      </trkpt>
      <trkpt lat="4.2419900" lon="-75.9520900">
        <ele>1319.0</ele>
        <time>2022-08-14T14:44:18Z</time>
      </trkpt>
      <trkpt lat="4.2420610" lon="-75.9520870">
        <ele>1318.6</ele>
        <time>2022-08-14T14:44:19Z</time>
      </trkpt>
      <trkpt lat="4.2421420" lon="-75.9520590">
        <ele>1318.2</ele>
        <time>2022-08-14T14:44:20Z</time>
      </trkpt>
      <trkpt lat="4.2422150" lon="-75.9520050">
        <ele>1317.0</ele>
        <time>2022-08-14T14:44:22Z</time>
      </trkpt>
      <trkpt lat="4.2424600" lon="-75.9518180">
        <ele>1316.0</ele>
        <time>2022-08-14T14:44:24Z</time>
      </trkpt>
      <trkpt lat="4.2425590" lon="-75.9517560">
        <ele>1315.8</ele>
        <time>2022-08-14T14:44:25Z</time>
      </trkpt>
      <trkpt lat="4.2426720" lon="-75.9517120">
        <ele>1315.6</ele>
        <time>2022-08-14T14:44:26Z</time>
      </trkpt>
      <trkpt lat="4.2429180" lon="-75.9516590">
        <ele>1314.2</ele>
        <time>2022-08-14T14:44:28Z</time>
      </trkpt>
      <trkpt lat="4.2430340" lon="-75.9516320">
        <ele>1312.8</ele>
        <time>2022-08-14T14:44:29Z</time>
      </trkpt>
      <trkpt lat="4.2431470" lon="-75.9516040">
        <ele>1311.8</ele>
        <time>2022-08-14T14:44:30Z</time>
      </trkpt>
      <trkpt lat="4.2432630" lon="-75.9515710">
        <ele>1310.8</ele>
        <time>2022-08-14T14:44:31Z</time>
      </trkpt>
      <trkpt lat="4.2433890" lon="-75.9515420">
        <ele>1309.6</ele>
        <time>2022-08-14T14:44:32Z</time>
      </trkpt>
      <trkpt lat="4.2435140" lon="-75.9515110">
        <ele>1309.0</ele>
        <time>2022-08-14T14:44:33Z</time>
      </trkpt>
      <trkpt lat="4.2437630" lon="-75.9514470">
        <ele>1308.0</ele>
        <time>2022-08-14T14:44:35Z</time>
      </trkpt>
      <trkpt lat="4.2438570" lon="-75.9514220">
        <ele>1307.2</ele>
        <time>2022-08-14T14:44:36Z</time>
      </trkpt>
      <trkpt lat="4.2439980" lon="-75.9513960">
        <ele>1306.4</ele>
        <time>2022-08-14T14:44:37Z</time>
      </trkpt>
      <trkpt lat="4.2441250" lon="-75.9513860">
        <ele>1305.6</ele>
        <time>2022-08-14T14:44:38Z</time>
      </trkpt>
      <trkpt lat="4.2442400" lon="-75.9513940">
        <ele>1305.6</ele>
        <time>2022-08-14T14:44:39Z</time>
      </trkpt>
      <trkpt lat="4.2443560" lon="-75.9514330">
        <ele>1305.0</ele>
        <time>2022-08-14T14:44:40Z</time>
      </trkpt>
      <trkpt lat="4.2444170" lon="-75.9514820">
        <ele>1304.4</ele>
        <time>2022-08-14T14:44:41Z</time>
      </trkpt>
      <trkpt lat="4.2444780" lon="-75.9515310">
        <ele>1303.8</ele>
        <time>2022-08-14T14:44:42Z</time>
      </trkpt>
      <trkpt lat="4.2446000" lon="-75.9516290">
        <ele>1303.0</ele>
        <time>2022-08-14T14:44:43Z</time>
      </trkpt>
      <trkpt lat="4.2446670" lon="-75.9517170">
        <ele>1302.0</ele>
        <time>2022-08-14T14:44:44Z</time>
      </trkpt>
      <trkpt lat="4.2448390" lon="-75.9518620">
        <ele>1300.8</ele>
        <time>2022-08-14T14:44:46Z</time>
      </trkpt>
      <trkpt lat="4.2449370" lon="-75.9519190">
        <ele>1300.0</ele>
        <time>2022-08-14T14:44:47Z</time>
      </trkpt>
      <trkpt lat="4.2450430" lon="-75.9519660">
        <ele>1299.8</ele>
        <time>2022-08-14T14:44:48Z</time>
      </trkpt>
      <trkpt lat="4.2452710" lon="-75.9520210">
        <ele>1298.4</ele>
        <time>2022-08-14T14:44:50Z</time>
      </trkpt>
      <trkpt lat="4.2454860" lon="-75.9520340">
        <ele>1297.0</ele>
        <time>2022-08-14T14:44:52Z</time>
      </trkpt>
      <trkpt lat="4.2456770" lon="-75.9520550">
        <ele>1295.6</ele>
        <time>2022-08-14T14:44:54Z</time>
      </trkpt>
      <trkpt lat="4.2457630" lon="-75.9520450">
        <ele>1295.0</ele>
        <time>2022-08-14T14:44:55Z</time>
      </trkpt>
      <trkpt lat="4.2458450" lon="-75.9520080">
        <ele>1294.0</ele>
        <time>2022-08-14T14:44:56Z</time>
      </trkpt>
      <trkpt lat="4.2459200" lon="-75.9519520">
        <ele>1293.4</ele>
        <time>2022-08-14T14:44:57Z</time>
      </trkpt>
      <trkpt lat="4.2459650" lon="-75.9519020">
        <ele>1293.0</ele>
        <time>2022-08-14T14:44:58Z</time>
      </trkpt>
      <trkpt lat="4.2460090" lon="-75.9518510">
        <ele>1292.6</ele>
        <time>2022-08-14T14:44:59Z</time>
      </trkpt>
      <trkpt lat="4.2461860" lon="-75.9516490">
        <ele>1291.6</ele>
        <time>2022-08-14T14:45:01Z</time>
      </trkpt>
      <trkpt lat="4.2464430" lon="-75.9514920">
        <ele>1290.2</ele>
        <time>2022-08-14T14:45:04Z</time>
      </trkpt>
      <trkpt lat="4.2465360" lon="-75.9514510">
        <ele>1289.8</ele>
        <time>2022-08-14T14:45:05Z</time>
      </trkpt>
      <trkpt lat="4.2466310" lon="-75.9514140">
        <ele>1289.0</ele>
        <time>2022-08-14T14:45:06Z</time>
      </trkpt>
      <trkpt lat="4.2468250" lon="-75.9513600">
        <ele>1287.6</ele>
        <time>2022-08-14T14:45:08Z</time>
      </trkpt>
      <trkpt lat="4.2469240" lon="-75.9513690">
        <ele>1286.8</ele>
        <time>2022-08-14T14:45:09Z</time>
      </trkpt>
      <trkpt lat="4.2470180" lon="-75.9514160">
        <ele>1286.2</ele>
        <time>2022-08-14T14:45:10Z</time>
      </trkpt>
      <trkpt lat="4.2471040" lon="-75.9514900">
        <ele>1285.8</ele>
        <time>2022-08-14T14:45:11Z</time>
      </trkpt>
      <trkpt lat="4.2471620" lon="-75.9515760">
        <ele>1285.2</ele>
        <time>2022-08-14T14:45:12Z</time>
      </trkpt>
      <trkpt lat="4.2471940" lon="-75.9516760">
        <ele>1284.4</ele>
        <time>2022-08-14T14:45:13Z</time>
      </trkpt>
      <trkpt lat="4.2472680" lon="-75.9519810">
        <ele>1283.2</ele>
        <time>2022-08-14T14:45:16Z</time>
      </trkpt>
      <trkpt lat="4.2473680" lon="-75.9521680">
        <ele>1281.4</ele>
        <time>2022-08-14T14:45:18Z</time>
      </trkpt>
      <trkpt lat="4.2475200" lon="-75.9523210">
        <ele>1280.2</ele>
        <time>2022-08-14T14:45:20Z</time>
      </trkpt>
      <trkpt lat="4.2476110" lon="-75.9523800">
        <ele>1280.0</ele>
        <time>2022-08-14T14:45:21Z</time>
      </trkpt>
      <trkpt lat="4.2477880" lon="-75.9524750">
        <ele>1279.0</ele>
        <time>2022-08-14T14:45:23Z</time>
      </trkpt>
      <trkpt lat="4.2479770" lon="-75.9524890">
        <ele>1278.2</ele>
        <time>2022-08-14T14:45:25Z</time>
      </trkpt>
      <trkpt lat="4.2480700" lon="-75.9524910">
        <ele>1277.8</ele>
        <time>2022-08-14T14:45:26Z</time>
      </trkpt>
      <trkpt lat="4.2481620" lon="-75.9524890">
        <ele>1277.8</ele>
        <time>2022-08-14T14:45:27Z</time>
      </trkpt>
      <trkpt lat="4.2483370" lon="-75.9524380">
        <ele>1277.0</ele>
        <time>2022-08-14T14:45:29Z</time>
      </trkpt>
      <trkpt lat="4.2484170" lon="-75.9523890">
        <ele>1276.6</ele>
        <time>2022-08-14T14:45:30Z</time>
      </trkpt>
      <trkpt lat="4.2485640" lon="-75.9522730">
        <ele>1275.4</ele>
        <time>2022-08-14T14:45:33Z</time>
      </trkpt>
      <trkpt lat="4.2486700" lon="-75.9522250">
        <ele>1275.0</ele>
        <time>2022-08-14T14:45:34Z</time>
      </trkpt>
      <trkpt lat="4.2488810" lon="-75.9521290">
        <ele>1274.6</ele>
        <time>2022-08-14T14:45:36Z</time>
      </trkpt>
      <trkpt lat="4.2492300" lon="-75.9521560">
        <ele>1273.6</ele>
        <time>2022-08-14T14:45:40Z</time>
      </trkpt>
      <trkpt lat="4.2496440" lon="-75.9522520">
        <ele>1272.4</ele>
        <time>2022-08-14T14:45:45Z</time>
      </trkpt>
      <trkpt lat="4.2497240" lon="-75.9522760">
        <ele>1272.2</ele>
        <time>2022-08-14T14:45:46Z</time>
      </trkpt>
      <trkpt lat="4.2502710" lon="-75.9524570">
        <ele>1271.8</ele>
        <time>2022-08-14T14:45:53Z</time>
      </trkpt>
      <trkpt lat="4.2504250" lon="-75.9525310">
        <ele>1271.6</ele>
        <time>2022-08-14T14:45:55Z</time>
      </trkpt>
      <trkpt lat="4.2505660" lon="-75.9526280">
        <ele>1271.4</ele>
        <time>2022-08-14T14:45:57Z</time>
      </trkpt>
      <trkpt lat="4.2506230" lon="-75.9526900">
        <ele>1271.4</ele>
        <time>2022-08-14T14:45:58Z</time>
      </trkpt>
      <trkpt lat="4.2506630" lon="-75.9527680">
        <ele>1271.2</ele>
        <time>2022-08-14T14:45:59Z</time>
      </trkpt>
      <trkpt lat="4.2506720" lon="-75.9529480">
        <ele>1270.6</ele>
        <time>2022-08-14T14:46:01Z</time>
      </trkpt>
      <trkpt lat="4.2506440" lon="-75.9530330">
        <ele>1270.2</ele>
        <time>2022-08-14T14:46:02Z</time>
      </trkpt>
      <trkpt lat="4.2505820" lon="-75.9531020">
        <ele>1269.8</ele>
        <time>2022-08-14T14:46:03Z</time>
      </trkpt>
      <trkpt lat="4.2505020" lon="-75.9531560">
        <ele>1269.4</ele>
        <time>2022-08-14T14:46:04Z</time>
      </trkpt>
      <trkpt lat="4.2504120" lon="-75.9531940">
        <ele>1268.8</ele>
        <time>2022-08-14T14:46:05Z</time>
      </trkpt>
      <trkpt lat="4.2502290" lon="-75.9531940">
        <ele>1267.8</ele>
        <time>2022-08-14T14:46:07Z</time>
      </trkpt>
      <trkpt lat="4.2501490" lon="-75.9531460">
        <ele>1267.6</ele>
        <time>2022-08-14T14:46:08Z</time>
      </trkpt>
      <trkpt lat="4.2500810" lon="-75.9530760">
        <ele>1266.8</ele>
        <time>2022-08-14T14:46:09Z</time>
      </trkpt>
      <trkpt lat="4.2500290" lon="-75.9529890">
        <ele>1266.4</ele>
        <time>2022-08-14T14:46:10Z</time>
      </trkpt>
      <trkpt lat="4.2499380" lon="-75.9528070">
        <ele>1265.0</ele>
        <time>2022-08-14T14:46:12Z</time>
      </trkpt>
      <trkpt lat="4.2498840" lon="-75.9527190">
        <ele>1264.6</ele>
        <time>2022-08-14T14:46:13Z</time>
      </trkpt>
      <trkpt lat="4.2498200" lon="-75.9526430">
        <ele>1264.0</ele>
        <time>2022-08-14T14:46:14Z</time>
      </trkpt>
      <trkpt lat="4.2497320" lon="-75.9525870">
        <ele>1264.0</ele>
        <time>2022-08-14T14:46:15Z</time>
      </trkpt>
      <trkpt lat="4.2496330" lon="-75.9525370">
        <ele>1263.4</ele>
        <time>2022-08-14T14:46:16Z</time>
      </trkpt>
      <trkpt lat="4.2495300" lon="-75.9525000">
        <ele>1262.6</ele>
        <time>2022-08-14T14:46:17Z</time>
      </trkpt>
      <trkpt lat="4.2493140" lon="-75.9524770">
        <ele>1260.8</ele>
        <time>2022-08-14T14:46:19Z</time>
      </trkpt>
      <trkpt lat="4.2492030" lon="-75.9524790">
        <ele>1259.8</ele>
        <time>2022-08-14T14:46:20Z</time>
      </trkpt>
      <trkpt lat="4.2490930" lon="-75.9524910">
        <ele>1259.0</ele>
        <time>2022-08-14T14:46:21Z</time>
      </trkpt>
      <trkpt lat="4.2489870" lon="-75.9525110">
        <ele>1258.4</ele>
        <time>2022-08-14T14:46:22Z</time>
      </trkpt>
      <trkpt lat="4.2488810" lon="-75.9525380">
        <ele>1257.4</ele>
        <time>2022-08-14T14:46:23Z</time>
      </trkpt>
      <trkpt lat="4.2486850" lon="-75.9526440">
        <ele>1255.6</ele>
        <time>2022-08-14T14:46:25Z</time>
      </trkpt>
      <trkpt lat="4.2485960" lon="-75.9527080">
        <ele>1254.8</ele>
        <time>2022-08-14T14:46:26Z</time>
      </trkpt>
      <trkpt lat="4.2485070" lon="-75.9527690">
        <ele>1254.2</ele>
        <time>2022-08-14T14:46:27Z</time>
      </trkpt>
      <trkpt lat="4.2483300" lon="-75.9528940">
        <ele>1252.8</ele>
        <time>2022-08-14T14:46:29Z</time>
      </trkpt>
      <trkpt lat="4.2481520" lon="-75.9530250">
        <ele>1251.6</ele>
        <time>2022-08-14T14:46:31Z</time>
      </trkpt>
      <trkpt lat="4.2478900" lon="-75.9532300">
        <ele>1250.4</ele>
        <time>2022-08-14T14:46:34Z</time>
      </trkpt>
      <trkpt lat="4.2478110" lon="-75.9533060">
        <ele>1250.2</ele>
        <time>2022-08-14T14:46:35Z</time>
      </trkpt>
      <trkpt lat="4.2476680" lon="-75.9534660">
        <ele>1249.2</ele>
        <time>2022-08-14T14:46:37Z</time>
      </trkpt>
      <trkpt lat="4.2475990" lon="-75.9535460">
        <ele>1248.2</ele>
        <time>2022-08-14T14:46:38Z</time>
      </trkpt>
      <trkpt lat="4.2473820" lon="-75.9537760">
        <ele>1246.8</ele>
        <time>2022-08-14T14:46:41Z</time>
      </trkpt>
      <trkpt lat="4.2473180" lon="-75.9538540">
        <ele>1246.0</ele>
        <time>2022-08-14T14:46:42Z</time>
      </trkpt>
      <trkpt lat="4.2472650" lon="-75.9539370">
        <ele>1245.6</ele>
        <time>2022-08-14T14:46:43Z</time>
      </trkpt>
      <trkpt lat="4.2472210" lon="-75.9540230">
        <ele>1244.4</ele>
        <time>2022-08-14T14:46:44Z</time>
      </trkpt>
      <trkpt lat="4.2471940" lon="-75.9541190">
        <ele>1243.6</ele>
        <time>2022-08-14T14:46:45Z</time>
      </trkpt>
      <trkpt lat="4.2471920" lon="-75.9542200">
        <ele>1243.0</ele>
        <time>2022-08-14T14:46:46Z</time>
      </trkpt>
      <trkpt lat="4.2472360" lon="-75.9544210">
        <ele>1242.6</ele>
        <time>2022-08-14T14:46:48Z</time>
      </trkpt>
      <trkpt lat="4.2472630" lon="-75.9545240">
        <ele>1242.0</ele>
        <time>2022-08-14T14:46:49Z</time>
      </trkpt>
      <trkpt lat="4.2473240" lon="-75.9547330">
        <ele>1240.8</ele>
        <time>2022-08-14T14:46:51Z</time>
      </trkpt>
      <trkpt lat="4.2474150" lon="-75.9550490">
        <ele>1238.8</ele>
        <time>2022-08-14T14:46:54Z</time>
      </trkpt>
      <trkpt lat="4.2474290" lon="-75.9551570">
        <ele>1238.2</ele>
        <time>2022-08-14T14:46:55Z</time>
      </trkpt>
      <trkpt lat="4.2474310" lon="-75.9552660">
        <ele>1237.6</ele>
        <time>2022-08-14T14:46:56Z</time>
      </trkpt>
      <trkpt lat="4.2474250" lon="-75.9553780">
        <ele>1237.0</ele>
        <time>2022-08-14T14:46:57Z</time>
      </trkpt>
      <trkpt lat="4.2474080" lon="-75.9554940">
        <ele>1236.4</ele>
        <time>2022-08-14T14:46:58Z</time>
      </trkpt>
      <trkpt lat="4.2473870" lon="-75.9556090">
        <ele>1235.8</ele>
        <time>2022-08-14T14:46:59Z</time>
      </trkpt>
      <trkpt lat="4.2473620" lon="-75.9557240">
        <ele>1235.2</ele>
        <time>2022-08-14T14:47:00Z</time>
      </trkpt>
      <trkpt lat="4.2473050" lon="-75.9559550">
        <ele>1233.4</ele>
        <time>2022-08-14T14:47:02Z</time>
      </trkpt>
      <trkpt lat="4.2472080" lon="-75.9563040">
        <ele>1232.6</ele>
        <time>2022-08-14T14:47:05Z</time>
      </trkpt>
      <trkpt lat="4.2471650" lon="-75.9564170">
        <ele>1232.2</ele>
        <time>2022-08-14T14:47:06Z</time>
      </trkpt>
      <trkpt lat="4.2471140" lon="-75.9565270">
        <ele>1232.0</ele>
        <time>2022-08-14T14:47:07Z</time>
      </trkpt>
      <trkpt lat="4.2469850" lon="-75.9567350">
        <ele>1230.4</ele>
        <time>2022-08-14T14:47:09Z</time>
      </trkpt>
      <trkpt lat="4.2469110" lon="-75.9568320">
        <ele>1229.4</ele>
        <time>2022-08-14T14:47:10Z</time>
      </trkpt>
      <trkpt lat="4.2467480" lon="-75.9570040">
        <ele>1228.0</ele>
        <time>2022-08-14T14:47:12Z</time>
      </trkpt>
      <trkpt lat="4.2466550" lon="-75.9570730">
        <ele>1227.2</ele>
        <time>2022-08-14T14:47:13Z</time>
      </trkpt>
      <trkpt lat="4.2465560" lon="-75.9571310">
        <ele>1226.2</ele>
        <time>2022-08-14T14:47:14Z</time>
      </trkpt>
      <trkpt lat="4.2464470" lon="-75.9571830">
        <ele>1225.2</ele>
        <time>2022-08-14T14:47:15Z</time>
      </trkpt>
      <trkpt lat="4.2463310" lon="-75.9572260">
        <ele>1224.0</ele>
        <time>2022-08-14T14:47:16Z</time>
      </trkpt>
      <trkpt lat="4.2460820" lon="-75.9572880">
        <ele>1222.0</ele>
        <time>2022-08-14T14:47:18Z</time>
      </trkpt>
      <trkpt lat="4.2458400" lon="-75.9573180">
        <ele>1220.8</ele>
        <time>2022-08-14T14:47:20Z</time>
      </trkpt>
      <trkpt lat="4.2454720" lon="-75.9573410">
        <ele>1219.6</ele>
        <time>2022-08-14T14:47:23Z</time>
      </trkpt>
      <trkpt lat="4.2453470" lon="-75.9573580">
        <ele>1219.4</ele>
        <time>2022-08-14T14:47:24Z</time>
      </trkpt>
      <trkpt lat="4.2452220" lon="-75.9573820">
        <ele>1218.0</ele>
        <time>2022-08-14T14:47:25Z</time>
      </trkpt>
      <trkpt lat="4.2448560" lon="-75.9574720">
        <ele>1216.6</ele>
        <time>2022-08-14T14:47:28Z</time>
      </trkpt>
      <trkpt lat="4.2447520" lon="-75.9574930">
        <ele>1215.8</ele>
        <time>2022-08-14T14:47:29Z</time>
      </trkpt>
      <trkpt lat="4.2446580" lon="-75.9575180">
        <ele>1215.2</ele>
        <time>2022-08-14T14:47:30Z</time>
      </trkpt>
      <trkpt lat="4.2444940" lon="-75.9576030">
        <ele>1213.6</ele>
        <time>2022-08-14T14:47:32Z</time>
      </trkpt>
      <trkpt lat="4.2444210" lon="-75.9577670">
        <ele>1211.4</ele>
        <time>2022-08-14T14:47:34Z</time>
      </trkpt>
      <trkpt lat="4.2444380" lon="-75.9579860">
        <ele>1209.4</ele>
        <time>2022-08-14T14:47:36Z</time>
      </trkpt>
      <trkpt lat="4.2444610" lon="-75.9581000">
        <ele>1208.6</ele>
        <time>2022-08-14T14:47:37Z</time>
      </trkpt>
      <trkpt lat="4.2444790" lon="-75.9582180">
        <ele>1208.2</ele>
        <time>2022-08-14T14:47:38Z</time>
      </trkpt>
      <trkpt lat="4.2444780" lon="-75.9584570">
        <ele>1207.4</ele>
        <time>2022-08-14T14:47:40Z</time>
      </trkpt>
      <trkpt lat="4.2444490" lon="-75.9585730">
        <ele>1206.2</ele>
        <time>2022-08-14T14:47:41Z</time>
      </trkpt>
      <trkpt lat="4.2443930" lon="-75.9586810">
        <ele>1205.2</ele>
        <time>2022-08-14T14:47:42Z</time>
      </trkpt>
      <trkpt lat="4.2443160" lon="-75.9587820">
        <ele>1204.0</ele>
        <time>2022-08-14T14:47:43Z</time>
      </trkpt>
      <trkpt lat="4.2441440" lon="-75.9589760">
        <ele>1202.2</ele>
        <time>2022-08-14T14:47:45Z</time>
      </trkpt>
      <trkpt lat="4.2440600" lon="-75.9590740">
        <ele>1201.2</ele>
        <time>2022-08-14T14:47:46Z</time>
      </trkpt>
      <trkpt lat="4.2439820" lon="-75.9591770">
        <ele>1199.8</ele>
        <time>2022-08-14T14:47:47Z</time>
      </trkpt>
      <trkpt lat="4.2439110" lon="-75.9592890">
        <ele>1198.4</ele>
        <time>2022-08-14T14:47:48Z</time>
      </trkpt>
      <trkpt lat="4.2438500" lon="-75.9594080">
        <ele>1197.0</ele>
        <time>2022-08-14T14:47:49Z</time>
      </trkpt>
      <trkpt lat="4.2438160" lon="-75.9595380">
        <ele>1195.6</ele>
        <time>2022-08-14T14:47:50Z</time>
      </trkpt>
      <trkpt lat="4.2438290" lon="-75.9596390">
        <ele>1195.6</ele>
        <time>2022-08-14T14:47:51Z</time>
      </trkpt>
      <trkpt lat="4.2438420" lon="-75.9597400">
        <ele>1194.6</ele>
        <time>2022-08-14T14:47:52Z</time>
      </trkpt>
      <trkpt lat="4.2438680" lon="-75.9599420">
        <ele>1193.6</ele>
        <time>2022-08-14T14:47:53Z</time>
      </trkpt>
      <trkpt lat="4.2439240" lon="-75.9600710">
        <ele>1192.6</ele>
        <time>2022-08-14T14:47:54Z</time>
      </trkpt>
      <trkpt lat="4.2440590" lon="-75.9603220">
        <ele>1190.2</ele>
        <time>2022-08-14T14:47:56Z</time>
      </trkpt>
      <trkpt lat="4.2441250" lon="-75.9604430">
        <ele>1188.8</ele>
        <time>2022-08-14T14:47:57Z</time>
      </trkpt>
      <trkpt lat="4.2441830" lon="-75.9605630">
        <ele>1187.4</ele>
        <time>2022-08-14T14:47:58Z</time>
      </trkpt>
      <trkpt lat="4.2442210" lon="-75.9606910">
        <ele>1186.4</ele>
        <time>2022-08-14T14:47:59Z</time>
      </trkpt>
      <trkpt lat="4.2442360" lon="-75.9608260">
        <ele>1185.2</ele>
        <time>2022-08-14T14:48:00Z</time>
      </trkpt>
      <trkpt lat="4.2442300" lon="-75.9609620">
        <ele>1183.8</ele>
        <time>2022-08-14T14:48:01Z</time>
      </trkpt>
      <trkpt lat="4.2442120" lon="-75.9610950">
        <ele>1182.6</ele>
        <time>2022-08-14T14:48:02Z</time>
      </trkpt>
      <trkpt lat="4.2441640" lon="-75.9612170">
        <ele>1181.2</ele>
        <time>2022-08-14T14:48:03Z</time>
      </trkpt>
      <trkpt lat="4.2440960" lon="-75.9613310">
        <ele>1179.8</ele>
        <time>2022-08-14T14:48:04Z</time>
      </trkpt>
      <trkpt lat="4.2440200" lon="-75.9614420">
        <ele>1178.8</ele>
        <time>2022-08-14T14:48:05Z</time>
      </trkpt>
      <trkpt lat="4.2438610" lon="-75.9616560">
        <ele>1177.0</ele>
        <time>2022-08-14T14:48:07Z</time>
      </trkpt>
      <trkpt lat="4.2437890" lon="-75.9617630">
        <ele>1176.0</ele>
        <time>2022-08-14T14:48:08Z</time>
      </trkpt>
      <trkpt lat="4.2437130" lon="-75.9618640">
        <ele>1175.2</ele>
        <time>2022-08-14T14:48:09Z</time>
      </trkpt>
      <trkpt lat="4.2435650" lon="-75.9620600">
        <ele>1173.8</ele>
        <time>2022-08-14T14:48:11Z</time>
      </trkpt>
      <trkpt lat="4.2434180" lon="-75.9622580">
        <ele>1172.8</ele>
        <time>2022-08-14T14:48:13Z</time>
      </trkpt>
      <trkpt lat="4.2431260" lon="-75.9626600">
        <ele>1171.8</ele>
        <time>2022-08-14T14:48:17Z</time>
      </trkpt>
      <trkpt lat="4.2429160" lon="-75.9629520">
        <ele>1171.4</ele>
        <time>2022-08-14T14:48:20Z</time>
      </trkpt>
      <trkpt lat="4.2427170" lon="-75.9632370">
        <ele>1170.0</ele>
        <time>2022-08-14T14:48:23Z</time>
      </trkpt>
      <trkpt lat="4.2425720" lon="-75.9634190">
        <ele>1169.0</ele>
        <time>2022-08-14T14:48:25Z</time>
      </trkpt>
      <trkpt lat="4.2424030" lon="-75.9635810">
        <ele>1167.4</ele>
        <time>2022-08-14T14:48:27Z</time>
      </trkpt>
      <trkpt lat="4.2422200" lon="-75.9637230">
        <ele>1166.0</ele>
        <time>2022-08-14T14:48:29Z</time>
      </trkpt>
      <trkpt lat="4.2420230" lon="-75.9638560">
        <ele>1164.8</ele>
        <time>2022-08-14T14:48:31Z</time>
      </trkpt>
      <trkpt lat="4.2417200" lon="-75.9640440">
        <ele>1163.6</ele>
        <time>2022-08-14T14:48:34Z</time>
      </trkpt>
      <trkpt lat="4.2415220" lon="-75.9641700">
        <ele>1162.2</ele>
        <time>2022-08-14T14:48:36Z</time>
      </trkpt>
      <trkpt lat="4.2413300" lon="-75.9642900">
        <ele>1160.8</ele>
        <time>2022-08-14T14:48:38Z</time>
      </trkpt>
      <trkpt lat="4.2410430" lon="-75.9644640">
        <ele>1159.6</ele>
        <time>2022-08-14T14:48:41Z</time>
      </trkpt>
      <trkpt lat="4.2407560" lon="-75.9646330">
        <ele>1158.2</ele>
        <time>2022-08-14T14:48:44Z</time>
      </trkpt>
      <trkpt lat="4.2406620" lon="-75.9646870">
        <ele>1158.0</ele>
        <time>2022-08-14T14:48:45Z</time>
      </trkpt>
      <trkpt lat="4.2401980" lon="-75.9649630">
        <ele>1157.2</ele>
        <time>2022-08-14T14:48:50Z</time>
      </trkpt>
      <trkpt lat="4.2400280" lon="-75.9650910">
        <ele>1157.2</ele>
        <time>2022-08-14T14:48:52Z</time>
      </trkpt>
      <trkpt lat="4.2399500" lon="-75.9651580">
        <ele>1157.0</ele>
        <time>2022-08-14T14:48:53Z</time>
      </trkpt>
      <trkpt lat="4.2396010" lon="-75.9655170">
        <ele>1156.2</ele>
        <time>2022-08-14T14:48:58Z</time>
      </trkpt>
      <trkpt lat="4.2394790" lon="-75.9656670">
        <ele>1155.0</ele>
        <time>2022-08-14T14:49:00Z</time>
      </trkpt>
      <trkpt lat="4.2392610" lon="-75.9659750">
        <ele>1154.4</ele>
        <time>2022-08-14T14:49:04Z</time>
      </trkpt>
      <trkpt lat="4.2391170" lon="-75.9662160">
        <ele>1154.0</ele>
        <time>2022-08-14T14:49:07Z</time>
      </trkpt>
      <trkpt lat="4.2389210" lon="-75.9665410">
        <ele>1153.4</ele>
        <time>2022-08-14T14:49:11Z</time>
      </trkpt>
      <trkpt lat="4.2388270" lon="-75.9667040">
        <ele>1153.0</ele>
        <time>2022-08-14T14:49:13Z</time>
      </trkpt>
      <trkpt lat="4.2387810" lon="-75.9667860">
        <ele>1153.0</ele>
        <time>2022-08-14T14:49:14Z</time>
      </trkpt>
      <trkpt lat="4.2385570" lon="-75.9671890">
        <ele>1152.0</ele>
        <time>2022-08-14T14:49:19Z</time>
      </trkpt>
      <trkpt lat="4.2385140" lon="-75.9672670">
        <ele>1151.6</ele>
        <time>2022-08-14T14:49:20Z</time>
      </trkpt>
      <trkpt lat="4.2383400" lon="-75.9675800">
        <ele>1151.2</ele>
        <time>2022-08-14T14:49:24Z</time>
      </trkpt>
      <trkpt lat="4.2381350" lon="-75.9679420">
        <ele>1151.0</ele>
        <time>2022-08-14T14:49:29Z</time>
      </trkpt>
      <trkpt lat="4.2379200" lon="-75.9683070">
        <ele>1151.4</ele>
        <time>2022-08-14T14:49:35Z</time>
      </trkpt>
      <trkpt lat="4.2378880" lon="-75.9683610">
        <ele>1151.6</ele>
        <time>2022-08-14T14:49:36Z</time>
      </trkpt>
      <trkpt lat="4.2377600" lon="-75.9685610">
        <ele>1152.4</ele>
        <time>2022-08-14T14:49:40Z</time>
      </trkpt>
      <trkpt lat="4.2376630" lon="-75.9687110">
        <ele>1153.6</ele>
        <time>2022-08-14T14:49:43Z</time>
      </trkpt>
      <trkpt lat="4.2375250" lon="-75.9689240">
        <ele>1154.8</ele>
        <time>2022-08-14T14:49:47Z</time>
      </trkpt>
      <trkpt lat="4.2372220" lon="-75.9693730">
        <ele>1155.8</ele>
        <time>2022-08-14T14:49:55Z</time>
      </trkpt>
      <trkpt lat="4.2371450" lon="-75.9694900">
        <ele>1155.8</ele>
        <time>2022-08-14T14:49:57Z</time>
      </trkpt>
      <trkpt lat="4.2369090" lon="-75.9698500">
        <ele>1155.4</ele>
        <time>2022-08-14T14:50:03Z</time>
      </trkpt>
      <trkpt lat="4.2366520" lon="-75.9702460">
        <ele>1155.0</ele>
        <time>2022-08-14T14:50:10Z</time>
      </trkpt>
      <trkpt lat="4.2366190" lon="-75.9702990">
        <ele>1155.0</ele>
        <time>2022-08-14T14:50:11Z</time>
      </trkpt>
      <trkpt lat="4.2364750" lon="-75.9705430">
        <ele>1155.2</ele>
        <time>2022-08-14T14:50:16Z</time>
      </trkpt>
      <trkpt lat="4.2363220" lon="-75.9708490">
        <ele>1156.4</ele>
        <time>2022-08-14T14:50:23Z</time>
      </trkpt>
      <trkpt lat="4.2362520" lon="-75.9710290">
        <ele>1157.6</ele>
        <time>2022-08-14T14:50:27Z</time>
      </trkpt>
      <trkpt lat="4.2362190" lon="-75.9711220">
        <ele>1158.2</ele>
        <time>2022-08-14T14:50:29Z</time>
      </trkpt>
      <trkpt lat="4.2362040" lon="-75.9711690">
        <ele>1158.8</ele>
        <time>2022-08-14T14:50:30Z</time>
      </trkpt>
      <trkpt lat="4.2361470" lon="-75.9713530">
        <ele>1159.4</ele>
        <time>2022-08-14T14:50:34Z</time>
      </trkpt>
      <trkpt lat="4.2360060" lon="-75.9717880">
        <ele>1160.0</ele>
        <time>2022-08-14T14:50:43Z</time>
      </trkpt>
      <trkpt lat="4.2359710" lon="-75.9718920">
        <ele>1160.0</ele>
        <time>2022-08-14T14:50:45Z</time>
      </trkpt>
      <trkpt lat="4.2358150" lon="-75.9723990">
        <ele>1160.0</ele>
        <time>2022-08-14T14:50:54Z</time>
      </trkpt>
      <trkpt lat="4.2356520" lon="-75.9729020">
        <ele>1159.0</ele>
        <time>2022-08-14T14:51:02Z</time>
      </trkpt>
      <trkpt lat="4.2356310" lon="-75.9729680">
        <ele>1159.0</ele>
        <time>2022-08-14T14:51:03Z</time>
      </trkpt>
      <trkpt lat="4.2354870" lon="-75.9734290">
        <ele>1158.4</ele>
        <time>2022-08-14T14:51:10Z</time>
      </trkpt>
      <trkpt lat="4.2354230" lon="-75.9736270">
        <ele>1158.2</ele>
        <time>2022-08-14T14:51:13Z</time>
      </trkpt>
      <trkpt lat="4.2353590" lon="-75.9738240">
        <ele>1158.0</ele>
        <time>2022-08-14T14:51:16Z</time>
      </trkpt>
      <trkpt lat="4.2352290" lon="-75.9742400">
        <ele>1157.6</ele>
        <time>2022-08-14T14:51:22Z</time>
      </trkpt>
      <trkpt lat="4.2351690" lon="-75.9744350">
        <ele>1157.4</ele>
        <time>2022-08-14T14:51:25Z</time>
      </trkpt>
      <trkpt lat="4.2349970" lon="-75.9749590">
        <ele>1156.2</ele>
        <time>2022-08-14T14:51:32Z</time>
      </trkpt>
      <trkpt lat="4.2348210" lon="-75.9755330">
        <ele>1155.2</ele>
        <time>2022-08-14T14:51:40Z</time>
      </trkpt>
      <trkpt lat="4.2347980" lon="-75.9756060">
        <ele>1155.2</ele>
        <time>2022-08-14T14:51:41Z</time>
      </trkpt>
      <trkpt lat="4.2346800" lon="-75.9759690">
        <ele>1155.0</ele>
        <time>2022-08-14T14:51:46Z</time>
      </trkpt>
      <trkpt lat="4.2345320" lon="-75.9764540">
        <ele>1155.0</ele>
        <time>2022-08-14T14:51:53Z</time>
      </trkpt>
      <trkpt lat="4.2344270" lon="-75.9767700">
        <ele>1155.2</ele>
        <time>2022-08-14T14:51:58Z</time>
      </trkpt>
      <trkpt lat="4.2342640" lon="-75.9772900">
        <ele>1156.4</ele>
        <time>2022-08-14T14:52:07Z</time>
      </trkpt>
      <trkpt lat="4.2342110" lon="-75.9774600">
        <ele>1156.6</ele>
        <time>2022-08-14T14:52:10Z</time>
      </trkpt>
      <trkpt lat="4.2340880" lon="-75.9778440">
        <ele>1157.2</ele>
        <time>2022-08-14T14:52:16Z</time>
      </trkpt>
      <trkpt lat="4.2339350" lon="-75.9783130">
        <ele>1157.2</ele>
        <time>2022-08-14T14:52:22Z</time>
      </trkpt>
      <trkpt lat="4.2337600" lon="-75.9788730">
        <ele>1155.6</ele>
        <time>2022-08-14T14:52:28Z</time>
      </trkpt>
      <trkpt lat="4.2336920" lon="-75.9790770">
        <ele>1153.8</ele>
        <time>2022-08-14T14:52:30Z</time>
      </trkpt>
      <trkpt lat="4.2336250" lon="-75.9792840">
        <ele>1152.4</ele>
        <time>2022-08-14T14:52:32Z</time>
      </trkpt>
      <trkpt lat="4.2335560" lon="-75.9794880">
        <ele>1151.4</ele>
        <time>2022-08-14T14:52:34Z</time>
      </trkpt>
      <trkpt lat="4.2334890" lon="-75.9796940">
        <ele>1150.2</ele>
        <time>2022-08-14T14:52:36Z</time>
      </trkpt>
      <trkpt lat="4.2334240" lon="-75.9798980">
        <ele>1148.4</ele>
        <time>2022-08-14T14:52:38Z</time>
      </trkpt>
      <trkpt lat="4.2333610" lon="-75.9800980">
        <ele>1147.2</ele>
        <time>2022-08-14T14:52:41Z</time>
      </trkpt>
      <trkpt lat="4.2332580" lon="-75.9804890">
        <ele>1146.2</ele>
        <time>2022-08-14T14:52:44Z</time>
      </trkpt>
      <trkpt lat="4.2332370" lon="-75.9805850">
        <ele>1145.8</ele>
        <time>2022-08-14T14:52:45Z</time>
      </trkpt>
      <trkpt lat="4.2331810" lon="-75.9809670">
        <ele>1145.2</ele>
        <time>2022-08-14T14:52:49Z</time>
      </trkpt>
      <trkpt lat="4.2331730" lon="-75.9811530">
        <ele>1144.8</ele>
        <time>2022-08-14T14:52:51Z</time>
      </trkpt>
      <trkpt lat="4.2332160" lon="-75.9816260">
        <ele>1144.2</ele>
        <time>2022-08-14T14:52:56Z</time>
      </trkpt>
      <trkpt lat="4.2332330" lon="-75.9817230">
        <ele>1143.8</ele>
        <time>2022-08-14T14:52:57Z</time>
      </trkpt>
      <trkpt lat="4.2333470" lon="-75.9822070">
        <ele>1143.0</ele>
        <time>2022-08-14T14:53:02Z</time>
      </trkpt>
      <trkpt lat="4.2334000" lon="-75.9824050">
        <ele>1142.8</ele>
        <time>2022-08-14T14:53:04Z</time>
      </trkpt>
      <trkpt lat="4.2334540" lon="-75.9826050">
        <ele>1141.8</ele>
        <time>2022-08-14T14:53:06Z</time>
      </trkpt>
      <trkpt lat="4.2335380" lon="-75.9829070">
        <ele>1140.2</ele>
        <time>2022-08-14T14:53:09Z</time>
      </trkpt>
      <trkpt lat="4.2336240" lon="-75.9832090">
        <ele>1139.2</ele>
        <time>2022-08-14T14:53:12Z</time>
      </trkpt>
      <trkpt lat="4.2336810" lon="-75.9834120">
        <ele>1138.4</ele>
        <time>2022-08-14T14:53:14Z</time>
      </trkpt>
      <trkpt lat="4.2337690" lon="-75.9837180">
        <ele>1136.8</ele>
        <time>2022-08-14T14:53:17Z</time>
      </trkpt>
      <trkpt lat="4.2338530" lon="-75.9840260">
        <ele>1135.6</ele>
        <time>2022-08-14T14:53:20Z</time>
      </trkpt>
      <trkpt lat="4.2339630" lon="-75.9844290">
        <ele>1134.4</ele>
        <time>2022-08-14T14:53:24Z</time>
      </trkpt>
      <trkpt lat="4.2340460" lon="-75.9847290">
        <ele>1133.2</ele>
        <time>2022-08-14T14:53:28Z</time>
      </trkpt>
      <trkpt lat="4.2341540" lon="-75.9851280">
        <ele>1132.0</ele>
        <time>2022-08-14T14:53:31Z</time>
      </trkpt>
      <trkpt lat="4.2342330" lon="-75.9854180">
        <ele>1131.6</ele>
        <time>2022-08-14T14:53:34Z</time>
      </trkpt>
      <trkpt lat="4.2343340" lon="-75.9858050">
        <ele>1130.2</ele>
        <time>2022-08-14T14:53:38Z</time>
      </trkpt>
      <trkpt lat="4.2343870" lon="-75.9860000">
        <ele>1129.0</ele>
        <time>2022-08-14T14:53:40Z</time>
      </trkpt>
      <trkpt lat="4.2344920" lon="-75.9863900">
        <ele>1128.2</ele>
        <time>2022-08-14T14:53:44Z</time>
      </trkpt>
      <trkpt lat="4.2345420" lon="-75.9865850">
        <ele>1128.0</ele>
        <time>2022-08-14T14:53:46Z</time>
      </trkpt>
      <trkpt lat="4.2345900" lon="-75.9867780">
        <ele>1127.4</ele>
        <time>2022-08-14T14:53:48Z</time>
      </trkpt>
      <trkpt lat="4.2346400" lon="-75.9869730">
        <ele>1127.0</ele>
        <time>2022-08-14T14:53:50Z</time>
      </trkpt>
      <trkpt lat="4.2347520" lon="-75.9873850">
        <ele>1125.8</ele>
        <time>2022-08-14T14:53:54Z</time>
      </trkpt>
      <trkpt lat="4.2348190" lon="-75.9876590">
        <ele>1125.0</ele>
        <time>2022-08-14T14:53:57Z</time>
      </trkpt>
      <trkpt lat="4.2348420" lon="-75.9877560">
        <ele>1124.8</ele>
        <time>2022-08-14T14:53:58Z</time>
      </trkpt>
      <trkpt lat="4.2349300" lon="-75.9881400">
        <ele>1123.8</ele>
        <time>2022-08-14T14:54:02Z</time>
      </trkpt>
      <trkpt lat="4.2349760" lon="-75.9884320">
        <ele>1123.0</ele>
        <time>2022-08-14T14:54:06Z</time>
      </trkpt>
      <trkpt lat="4.2349870" lon="-75.9885470">
        <ele>1122.6</ele>
        <time>2022-08-14T14:54:07Z</time>
      </trkpt>
      <trkpt lat="4.2350350" lon="-75.9890100">
        <ele>1121.6</ele>
        <time>2022-08-14T14:54:11Z</time>
      </trkpt>
      <trkpt lat="4.2350800" lon="-75.9894990">
        <ele>1120.4</ele>
        <time>2022-08-14T14:54:16Z</time>
      </trkpt>
      <trkpt lat="4.2350900" lon="-75.9895980">
        <ele>1120.2</ele>
        <time>2022-08-14T14:54:17Z</time>
      </trkpt>
      <trkpt lat="4.2351150" lon="-75.9898980">
        <ele>1119.2</ele>
        <time>2022-08-14T14:54:20Z</time>
      </trkpt>
      <trkpt lat="4.2351410" lon="-75.9902110">
        <ele>1117.8</ele>
        <time>2022-08-14T14:54:23Z</time>
      </trkpt>
      <trkpt lat="4.2351710" lon="-75.9905320">
        <ele>1116.8</ele>
        <time>2022-08-14T14:54:26Z</time>
      </trkpt>
      <trkpt lat="4.2351820" lon="-75.9906640">
        <ele>1116.2</ele>
        <time>2022-08-14T14:54:27Z</time>
      </trkpt>
      <trkpt lat="4.2351990" lon="-75.9908670">
        <ele>1115.6</ele>
        <time>2022-08-14T14:54:29Z</time>
      </trkpt>
      <trkpt lat="4.2352100" lon="-75.9909820">
        <ele>1115.2</ele>
        <time>2022-08-14T14:54:30Z</time>
      </trkpt>
      <trkpt lat="4.2352310" lon="-75.9912180">
        <ele>1114.0</ele>
        <time>2022-08-14T14:54:32Z</time>
      </trkpt>
      <trkpt lat="4.2352420" lon="-75.9913370">
        <ele>1113.4</ele>
        <time>2022-08-14T14:54:33Z</time>
      </trkpt>
      <trkpt lat="4.2352530" lon="-75.9914580">
        <ele>1112.8</ele>
        <time>2022-08-14T14:54:34Z</time>
      </trkpt>
      <trkpt lat="4.2352720" lon="-75.9917040">
        <ele>1111.6</ele>
        <time>2022-08-14T14:54:36Z</time>
      </trkpt>
      <trkpt lat="4.2352940" lon="-75.9919480">
        <ele>1109.8</ele>
        <time>2022-08-14T14:54:38Z</time>
      </trkpt>
      <trkpt lat="4.2353050" lon="-75.9920680">
        <ele>1108.6</ele>
        <time>2022-08-14T14:54:39Z</time>
      </trkpt>
      <trkpt lat="4.2353250" lon="-75.9923080">
        <ele>1107.0</ele>
        <time>2022-08-14T14:54:41Z</time>
      </trkpt>
      <trkpt lat="4.2353450" lon="-75.9925460">
        <ele>1105.4</ele>
        <time>2022-08-14T14:54:43Z</time>
      </trkpt>
      <trkpt lat="4.2353680" lon="-75.9927780">
        <ele>1104.2</ele>
        <time>2022-08-14T14:54:45Z</time>
      </trkpt>
      <trkpt lat="4.2353900" lon="-75.9930060">
        <ele>1102.6</ele>
        <time>2022-08-14T14:54:47Z</time>
      </trkpt>
      <trkpt lat="4.2354270" lon="-75.9933490">
        <ele>1101.4</ele>
        <time>2022-08-14T14:54:50Z</time>
      </trkpt>
      <trkpt lat="4.2354390" lon="-75.9934630">
        <ele>1101.0</ele>
        <time>2022-08-14T14:54:51Z</time>
      </trkpt>
      <trkpt lat="4.2354690" lon="-75.9938070">
        <ele>1100.0</ele>
        <time>2022-08-14T14:54:54Z</time>
      </trkpt>
      <trkpt lat="4.2354790" lon="-75.9939220">
        <ele>1099.0</ele>
        <time>2022-08-14T14:54:55Z</time>
      </trkpt>
      <trkpt lat="4.2355070" lon="-75.9942630">
        <ele>1097.8</ele>
        <time>2022-08-14T14:54:58Z</time>
      </trkpt>
      <trkpt lat="4.2355330" lon="-75.9946020">
        <ele>1096.8</ele>
        <time>2022-08-14T14:55:01Z</time>
      </trkpt>
      <trkpt lat="4.2355510" lon="-75.9948270">
        <ele>1096.2</ele>
        <time>2022-08-14T14:55:03Z</time>
      </trkpt>
      <trkpt lat="4.2355600" lon="-75.9949370">
        <ele>1095.6</ele>
        <time>2022-08-14T14:55:04Z</time>
      </trkpt>
      <trkpt lat="4.2355730" lon="-75.9952660">
        <ele>1094.2</ele>
        <time>2022-08-14T14:55:07Z</time>
      </trkpt>
      <trkpt lat="4.2355730" lon="-75.9954810">
        <ele>1093.0</ele>
        <time>2022-08-14T14:55:09Z</time>
      </trkpt>
      <trkpt lat="4.2355710" lon="-75.9955850">
        <ele>1092.6</ele>
        <time>2022-08-14T14:55:10Z</time>
      </trkpt>
      <trkpt lat="4.2355680" lon="-75.9956900">
        <ele>1091.8</ele>
        <time>2022-08-14T14:55:11Z</time>
      </trkpt>
      <trkpt lat="4.2355650" lon="-75.9958950">
        <ele>1090.8</ele>
        <time>2022-08-14T14:55:13Z</time>
      </trkpt>
      <trkpt lat="4.2355590" lon="-75.9962930">
        <ele>1090.2</ele>
        <time>2022-08-14T14:55:17Z</time>
      </trkpt>
      <trkpt lat="4.2355540" lon="-75.9964900">
        <ele>1090.2</ele>
        <time>2022-08-14T14:55:19Z</time>
      </trkpt>
      <trkpt lat="4.2355530" lon="-75.9965860">
        <ele>1090.0</ele>
        <time>2022-08-14T14:55:20Z</time>
      </trkpt>
      <trkpt lat="4.2355410" lon="-75.9971590">
        <ele>1089.4</ele>
        <time>2022-08-14T14:55:26Z</time>
      </trkpt>
      <trkpt lat="4.2355420" lon="-75.9973530">
        <ele>1089.2</ele>
        <time>2022-08-14T14:55:28Z</time>
      </trkpt>
      <trkpt lat="4.2355400" lon="-75.9974500">
        <ele>1089.2</ele>
        <time>2022-08-14T14:55:29Z</time>
      </trkpt>
      <trkpt lat="4.2355390" lon="-75.9975500">
        <ele>1089.0</ele>
        <time>2022-08-14T14:55:30Z</time>
      </trkpt>
      <trkpt lat="4.2355380" lon="-75.9981580">
        <ele>1088.4</ele>
        <time>2022-08-14T14:55:36Z</time>
      </trkpt>
      <trkpt lat="4.2355420" lon="-75.9982600">
        <ele>1088.0</ele>
        <time>2022-08-14T14:55:37Z</time>
      </trkpt>
      <trkpt lat="4.2355490" lon="-75.9983820">
        <ele>1087.4</ele>
        <time>2022-08-14T14:55:38Z</time>
      </trkpt>
      <trkpt lat="4.2355560" lon="-75.9984630">
        <ele>1087.0</ele>
        <time>2022-08-14T14:55:39Z</time>
      </trkpt>
      <trkpt lat="4.2356150" lon="-75.9988580">
        <ele>1085.8</ele>
        <time>2022-08-14T14:55:43Z</time>
      </trkpt>
      <trkpt lat="4.2356570" lon="-75.9990500">
        <ele>1085.6</ele>
        <time>2022-08-14T14:55:45Z</time>
      </trkpt>
      <trkpt lat="4.2357090" lon="-75.9992390">
        <ele>1084.8</ele>
        <time>2022-08-14T14:55:47Z</time>
      </trkpt>
      <trkpt lat="4.2357670" lon="-75.9994210">
        <ele>1083.6</ele>
        <time>2022-08-14T14:55:49Z</time>
      </trkpt>
      <trkpt lat="4.2358660" lon="-75.9996880">
        <ele>1083.2</ele>
        <time>2022-08-14T14:55:52Z</time>
      </trkpt>
      <trkpt lat="4.2359710" lon="-75.9999470">
        <ele>1082.6</ele>
        <time>2022-08-14T14:55:55Z</time>
      </trkpt>
      <trkpt lat="4.2361720" lon="-76.0004590">
        <ele>1082.2</ele>
        <time>2022-08-14T14:56:01Z</time>
      </trkpt>
      <trkpt lat="4.2362060" lon="-76.0005440">
        <ele>1082.2</ele>
        <time>2022-08-14T14:56:02Z</time>
      </trkpt>
      <trkpt lat="4.2363060" lon="-76.0007990">
        <ele>1082.2</ele>
        <time>2022-08-14T14:56:05Z</time>
      </trkpt>
      <trkpt lat="4.2365340" lon="-76.0013880">
        <ele>1082.0</ele>
        <time>2022-08-14T14:56:12Z</time>
      </trkpt>
      <trkpt lat="4.2365680" lon="-76.0014710">
        <ele>1081.8</ele>
        <time>2022-08-14T14:56:13Z</time>
      </trkpt>
      <trkpt lat="4.2367620" lon="-76.0019810">
        <ele>1081.0</ele>
        <time>2022-08-14T14:56:19Z</time>
      </trkpt>
      <trkpt lat="4.2368880" lon="-76.0023100">
        <ele>1081.0</ele>
        <time>2022-08-14T14:56:23Z</time>
      </trkpt>
      <trkpt lat="4.2370460" lon="-76.0027180">
        <ele>1079.8</ele>
        <time>2022-08-14T14:56:28Z</time>
      </trkpt>
      <trkpt lat="4.2370770" lon="-76.0028010">
        <ele>1079.4</ele>
        <time>2022-08-14T14:56:29Z</time>
      </trkpt>
      <trkpt lat="4.2372930" lon="-76.0033040">
        <ele>1079.0</ele>
        <time>2022-08-14T14:56:35Z</time>
      </trkpt>
      <trkpt lat="4.2374940" lon="-76.0038230">
        <ele>1078.4</ele>
        <time>2022-08-14T14:56:41Z</time>
      </trkpt>
      <trkpt lat="4.2376030" lon="-76.0040810">
        <ele>1077.8</ele>
        <time>2022-08-14T14:56:44Z</time>
      </trkpt>
      <trkpt lat="4.2376690" lon="-76.0042540">
        <ele>1077.2</ele>
        <time>2022-08-14T14:56:46Z</time>
      </trkpt>
      <trkpt lat="4.2377370" lon="-76.0044280">
        <ele>1076.6</ele>
        <time>2022-08-14T14:56:48Z</time>
      </trkpt>
      <trkpt lat="4.2379480" lon="-76.0049370">
        <ele>1075.6</ele>
        <time>2022-08-14T14:56:54Z</time>
      </trkpt>
      <trkpt lat="4.2380150" lon="-76.0051090">
        <ele>1074.8</ele>
        <time>2022-08-14T14:56:56Z</time>
      </trkpt>
      <trkpt lat="4.2380150" lon="-76.0051090">
        <ele>1074.6</ele>
        <time>2022-08-14T14:56:57Z</time>
      </trkpt>
      <trkpt lat="4.2382130" lon="-76.0056300">
        <ele>1073.6</ele>
        <time>2022-08-14T14:57:02Z</time>
      </trkpt>
      <trkpt lat="4.2384200" lon="-76.0061570">
        <ele>1072.8</ele>
        <time>2022-08-14T14:57:08Z</time>
      </trkpt>
      <trkpt lat="4.2385970" lon="-76.0065810">
        <ele>1071.8</ele>
        <time>2022-08-14T14:57:13Z</time>
      </trkpt>
      <trkpt lat="4.2386900" lon="-76.0068380">
        <ele>1071.2</ele>
        <time>2022-08-14T14:57:16Z</time>
      </trkpt>
      <trkpt lat="4.2388140" lon="-76.0071780">
        <ele>1070.6</ele>
        <time>2022-08-14T14:57:20Z</time>
      </trkpt>
      <trkpt lat="4.2389840" lon="-76.0076030">
        <ele>1070.2</ele>
        <time>2022-08-14T14:57:25Z</time>
      </trkpt>
      <trkpt lat="4.2390210" lon="-76.0076890">
        <ele>1070.0</ele>
        <time>2022-08-14T14:57:26Z</time>
      </trkpt>
      <trkpt lat="4.2390570" lon="-76.0077760">
        <ele>1069.8</ele>
        <time>2022-08-14T14:57:27Z</time>
      </trkpt>
      <trkpt lat="4.2392690" lon="-76.0083230">
        <ele>1069.0</ele>
        <time>2022-08-14T14:57:33Z</time>
      </trkpt>
      <trkpt lat="4.2393050" lon="-76.0084190">
        <ele>1068.8</ele>
        <time>2022-08-14T14:57:34Z</time>
      </trkpt>
      <trkpt lat="4.2394150" lon="-76.0087110">
        <ele>1067.8</ele>
        <time>2022-08-14T14:57:37Z</time>
      </trkpt>
      <trkpt lat="4.2394630" lon="-76.0089250">
        <ele>1067.0</ele>
        <time>2022-08-14T14:57:39Z</time>
      </trkpt>
      <trkpt lat="4.2394820" lon="-76.0090380">
        <ele>1066.4</ele>
        <time>2022-08-14T14:57:40Z</time>
      </trkpt>
      <trkpt lat="4.2395140" lon="-76.0092690">
        <ele>1065.2</ele>
        <time>2022-08-14T14:57:42Z</time>
      </trkpt>
      <trkpt lat="4.2395410" lon="-76.0095010">
        <ele>1063.8</ele>
        <time>2022-08-14T14:57:44Z</time>
      </trkpt>
      <trkpt lat="4.2395500" lon="-76.0096170">
        <ele>1062.8</ele>
        <time>2022-08-14T14:57:45Z</time>
      </trkpt>
      <trkpt lat="4.2395540" lon="-76.0097300">
        <ele>1061.8</ele>
        <time>2022-08-14T14:57:46Z</time>
      </trkpt>
      <trkpt lat="4.2395560" lon="-76.0099430">
        <ele>1060.0</ele>
        <time>2022-08-14T14:57:48Z</time>
      </trkpt>
      <trkpt lat="4.2395430" lon="-76.0101310">
        <ele>1059.2</ele>
        <time>2022-08-14T14:57:50Z</time>
      </trkpt>
      <trkpt lat="4.2395380" lon="-76.0102170">
        <ele>1058.4</ele>
        <time>2022-08-14T14:57:51Z</time>
      </trkpt>
      <trkpt lat="4.2395360" lon="-76.0103660">
        <ele>1056.8</ele>
        <time>2022-08-14T14:57:53Z</time>
      </trkpt>
      <trkpt lat="4.2395370" lon="-76.0104350">
        <ele>1056.4</ele>
        <time>2022-08-14T14:57:54Z</time>
      </trkpt>
      <trkpt lat="4.2395370" lon="-76.0104980">
        <ele>1055.8</ele>
        <time>2022-08-14T14:57:55Z</time>
      </trkpt>
      <trkpt lat="4.2395340" lon="-76.0106110">
        <ele>1054.8</ele>
        <time>2022-08-14T14:57:57Z</time>
      </trkpt>
      <trkpt lat="4.2395350" lon="-76.0106600">
        <ele>1054.2</ele>
        <time>2022-08-14T14:57:58Z</time>
      </trkpt>
      <trkpt lat="4.2395350" lon="-76.0107060">
        <ele>1053.6</ele>
        <time>2022-08-14T14:57:59Z</time>
      </trkpt>
      <trkpt lat="4.2395360" lon="-76.0108350">
        <ele>1052.8</ele>
        <time>2022-08-14T14:58:02Z</time>
      </trkpt>
      <trkpt lat="4.2395290" lon="-76.0108840">
        <ele>1052.4</ele>
        <time>2022-08-14T14:58:03Z</time>
      </trkpt>
      <trkpt lat="4.2395240" lon="-76.0109360">
        <ele>1052.2</ele>
        <time>2022-08-14T14:58:04Z</time>
      </trkpt>
      <trkpt lat="4.2395230" lon="-76.0110560">
        <ele>1051.4</ele>
        <time>2022-08-14T14:58:06Z</time>
      </trkpt>
      <trkpt lat="4.2395230" lon="-76.0112440">
        <ele>1051.0</ele>
        <time>2022-08-14T14:58:09Z</time>
      </trkpt>
      <trkpt lat="4.2395170" lon="-76.0113710">
        <ele>1050.2</ele>
        <time>2022-08-14T14:58:11Z</time>
      </trkpt>
      <trkpt lat="4.2395130" lon="-76.0114880">
        <ele>1049.0</ele>
        <time>2022-08-14T14:58:13Z</time>
      </trkpt>
      <trkpt lat="4.2395100" lon="-76.0116840">
        <ele>1047.6</ele>
        <time>2022-08-14T14:58:16Z</time>
      </trkpt>
      <trkpt lat="4.2395100" lon="-76.0117510">
        <ele>1047.2</ele>
        <time>2022-08-14T14:58:17Z</time>
      </trkpt>
      <trkpt lat="4.2395090" lon="-76.0118680">
        <ele>1046.4</ele>
        <time>2022-08-14T14:58:19Z</time>
      </trkpt>
      <trkpt lat="4.2395060" lon="-76.0119800">
        <ele>1045.8</ele>
        <time>2022-08-14T14:58:22Z</time>
      </trkpt>
      <trkpt lat="4.2395040" lon="-76.0120180">
        <ele>1045.0</ele>
        <time>2022-08-14T14:58:24Z</time>
      </trkpt>
      <trkpt lat="4.2395060" lon="-76.0120370">
        <ele>1044.8</ele>
        <time>2022-08-14T14:58:25Z</time>
      </trkpt>
      <trkpt lat="4.2395140" lon="-76.0120540">
        <ele>1044.6</ele>
        <time>2022-08-14T14:58:26Z</time>
      </trkpt>
      <trkpt lat="4.2395290" lon="-76.0120600">
        <ele>1044.4</ele>
        <time>2022-08-14T14:58:27Z</time>
      </trkpt>
      <trkpt lat="4.2395420" lon="-76.0120550">
        <ele>1043.8</ele>
        <time>2022-08-14T14:58:28Z</time>
      </trkpt>
      <trkpt lat="4.2395450" lon="-76.0120450">
        <ele>1043.6</ele>
        <time>2022-08-14T14:58:29Z</time>
      </trkpt>
      <trkpt lat="4.2395210" lon="-76.0119980">
        <ele>1043.4</ele>
        <time>2022-08-14T14:58:32Z</time>
      </trkpt>
      <trkpt lat="4.2394860" lon="-76.0119580">
        <ele>1043.2</ele>
        <time>2022-08-14T14:58:35Z</time>
      </trkpt>
      <trkpt lat="4.2394590" lon="-76.0119520">
        <ele>1043.2</ele>
        <time>2022-08-14T14:58:37Z</time>
      </trkpt>
      <trkpt lat="4.2394050" lon="-76.0119850">
        <ele>1043.4</ele>
        <time>2022-08-14T14:58:40Z</time>
      </trkpt>
      <trkpt lat="4.2393960" lon="-76.0120210">
        <ele>1043.2</ele>
        <time>2022-08-14T14:58:45Z</time>
      </trkpt>
      <trkpt lat="4.2393920" lon="-76.0120240">
        <ele>1043.2</ele>
        <time>2022-08-14T14:58:47Z</time>
      </trkpt>
      <trkpt lat="4.2393930" lon="-76.0120270">
        <ele>1043.0</ele>
        <time>2022-08-14T14:58:49Z</time>
      </trkpt>
      <trkpt lat="4.2393930" lon="-76.0120270">
        <ele>1043.2</ele>
        <time>2022-08-14T14:58:53Z</time>
      </trkpt>
      <trkpt lat="4.2393930" lon="-76.0120270">
        <ele>1043.2</ele>
        <time>2022-08-14T14:58:56Z</time>
      </trkpt>
      <trkpt lat="4.2393930" lon="-76.0120270">
        <ele>1043.2</ele>
        <time>2022-08-14T14:59:06Z</time>
      </trkpt>
      <trkpt lat="4.2393930" lon="-76.0120270">
        <ele>1043.2</ele>
        <time>2022-08-14T14:59:09Z</time>
      </trkpt>
      <trkpt lat="4.2393930" lon="-76.0120270">
        <ele>1043.2</ele>
        <time>2022-08-14T14:59:11Z</time>
      </trkpt>
      <trkpt lat="4.2394000" lon="-76.0120690">
        <ele>1043.2</ele>
        <time>2022-08-14T14:59:18Z</time>
      </trkpt>
      <trkpt lat="4.2394020" lon="-76.0121420">
        <ele>1042.8</ele>
        <time>2022-08-14T14:59:24Z</time>
      </trkpt>
      <trkpt lat="4.2394040" lon="-76.0121530">
        <ele>1042.6</ele>
        <time>2022-08-14T14:59:25Z</time>
      </trkpt>
      <trkpt lat="4.2394060" lon="-76.0121750">
        <ele>1042.4</ele>
        <time>2022-08-14T14:59:27Z</time>
      </trkpt>
      <trkpt lat="4.2394100" lon="-76.0121980">
        <ele>1042.2</ele>
        <time>2022-08-14T14:59:30Z</time>
      </trkpt>
      <trkpt lat="4.2394070" lon="-76.0122230">
        <ele>1042.0</ele>
        <time>2022-08-14T14:59:34Z</time>
      </trkpt>
      <trkpt lat="4.2393820" lon="-76.0122700">
        <ele>1041.8</ele>
        <time>2022-08-14T14:59:41Z</time>
      </trkpt>
      <trkpt lat="4.2393650" lon="-76.0123180">
        <ele>1041.6</ele>
        <time>2022-08-14T14:59:48Z</time>
      </trkpt>
      <trkpt lat="4.2393480" lon="-76.0124140">
        <ele>1041.2</ele>
        <time>2022-08-14T14:59:57Z</time>
      </trkpt>
      <trkpt lat="4.2393630" lon="-76.0124860">
        <ele>1041.0</ele>
        <time>2022-08-14T15:00:05Z</time>
      </trkpt>
      <trkpt lat="4.2393830" lon="-76.0125340">
        <ele>1040.8</ele>
        <time>2022-08-14T15:00:10Z</time>
      </trkpt>
      <trkpt lat="4.2393900" lon="-76.0125420">
        <ele>1040.8</ele>
        <time>2022-08-14T15:00:11Z</time>
      </trkpt>
      <trkpt lat="4.2393940" lon="-76.0125520">
        <ele>1040.8</ele>
        <time>2022-08-14T15:00:12Z</time>
      </trkpt>
      <trkpt lat="4.2394040" lon="-76.0125980">
        <ele>1040.8</ele>
        <time>2022-08-14T15:00:17Z</time>
      </trkpt>
      <trkpt lat="4.2394170" lon="-76.0126890">
        <ele>1040.6</ele>
        <time>2022-08-14T15:00:26Z</time>
      </trkpt>
      <trkpt lat="4.2394240" lon="-76.0127760">
        <ele>1040.6</ele>
        <time>2022-08-14T15:00:34Z</time>
      </trkpt>
      <trkpt lat="4.2394240" lon="-76.0127880">
        <ele>1040.6</ele>
        <time>2022-08-14T15:00:35Z</time>
      </trkpt>
      <trkpt lat="4.2394270" lon="-76.0128780">
        <ele>1040.2</ele>
        <time>2022-08-14T15:00:43Z</time>
      </trkpt>
      <trkpt lat="4.2394360" lon="-76.0129570">
        <ele>1040.0</ele>
        <time>2022-08-14T15:00:52Z</time>
      </trkpt>
      <trkpt lat="4.2394360" lon="-76.0129570">
        <ele>1040.0</ele>
        <time>2022-08-14T15:00:53Z</time>
      </trkpt>
      <trkpt lat="4.2394360" lon="-76.0129570">
        <ele>1040.0</ele>
        <time>2022-08-14T15:00:55Z</time>
      </trkpt>
      <trkpt lat="4.2394360" lon="-76.0129630">
        <ele>1039.8</ele>
        <time>2022-08-14T15:01:03Z</time>
      </trkpt>
      <trkpt lat="4.2394360" lon="-76.0129630">
        <ele>1039.6</ele>
        <time>2022-08-14T15:01:09Z</time>
      </trkpt>
      <trkpt lat="4.2394360" lon="-76.0129630">
        <ele>1039.4</ele>
        <time>2022-08-14T15:01:16Z</time>
      </trkpt>
      <trkpt lat="4.2394380" lon="-76.0129630">
        <ele>1040.0</ele>
        <time>2022-08-14T15:01:25Z</time>
      </trkpt>
      <trkpt lat="4.2394430" lon="-76.0129690">
        <ele>1040.2</ele>
        <time>2022-08-14T15:01:28Z</time>
      </trkpt>
      <trkpt lat="4.2394530" lon="-76.0129690">
        <ele>1040.2</ele>
        <time>2022-08-14T15:01:41Z</time>
      </trkpt>
      <trkpt lat="4.2394550" lon="-76.0129790">
        <ele>1040.2</ele>
        <time>2022-08-14T15:01:47Z</time>
      </trkpt>
      <trkpt lat="4.2394600" lon="-76.0129810">
        <ele>1040.2</ele>
        <time>2022-08-14T15:01:57Z</time>
      </trkpt>
      <trkpt lat="4.2395070" lon="-76.0130030">
        <ele>1040.2</ele>
        <time>2022-08-14T15:02:00Z</time>
      </trkpt>
      <trkpt lat="4.2395360" lon="-76.0130230">
        <ele>1040.0</ele>
        <time>2022-08-14T15:02:06Z</time>
      </trkpt>
      <trkpt lat="4.2395350" lon="-76.0130510">
        <ele>1040.2</ele>
        <time>2022-08-14T15:02:13Z</time>
      </trkpt>
      <trkpt lat="4.2395320" lon="-76.0130810">
        <ele>1040.2</ele>
        <time>2022-08-14T15:02:15Z</time>
      </trkpt>
      <trkpt lat="4.2395350" lon="-76.0132130">
        <ele>1040.0</ele>
        <time>2022-08-14T15:02:20Z</time>
      </trkpt>
      <trkpt lat="4.2395370" lon="-76.0134430">
        <ele>1039.8</ele>
        <time>2022-08-14T15:02:25Z</time>
      </trkpt>
      <trkpt lat="4.2395330" lon="-76.0136730">
        <ele>1039.2</ele>
        <time>2022-08-14T15:02:29Z</time>
      </trkpt>
      <trkpt lat="4.2395330" lon="-76.0137990">
        <ele>1038.6</ele>
        <time>2022-08-14T15:02:31Z</time>
      </trkpt>
      <trkpt lat="4.2395310" lon="-76.0140640">
        <ele>1038.2</ele>
        <time>2022-08-14T15:02:35Z</time>
      </trkpt>
      <trkpt lat="4.2395300" lon="-76.0143430">
        <ele>1037.6</ele>
        <time>2022-08-14T15:02:39Z</time>
      </trkpt>
      <trkpt lat="4.2395330" lon="-76.0144850">
        <ele>1037.2</ele>
        <time>2022-08-14T15:02:41Z</time>
      </trkpt>
      <trkpt lat="4.2395380" lon="-76.0147690">
        <ele>1036.2</ele>
        <time>2022-08-14T15:02:45Z</time>
      </trkpt>
      <trkpt lat="4.2395390" lon="-76.0149140">
        <ele>1035.8</ele>
        <time>2022-08-14T15:02:47Z</time>
      </trkpt>
      <trkpt lat="4.2395420" lon="-76.0153470">
        <ele>1035.0</ele>
        <time>2022-08-14T15:02:54Z</time>
      </trkpt>
      <trkpt lat="4.2395350" lon="-76.0157940">
        <ele>1035.0</ele>
        <time>2022-08-14T15:02:59Z</time>
      </trkpt>
      <trkpt lat="4.2395440" lon="-76.0163760">
        <ele>1034.6</ele>
        <time>2022-08-14T15:03:07Z</time>
      </trkpt>
      <trkpt lat="4.2395430" lon="-76.0164440">
        <ele>1034.8</ele>
        <time>2022-08-14T15:03:08Z</time>
      </trkpt>
      <trkpt lat="4.2395370" lon="-76.0170440">
        <ele>1035.0</ele>
        <time>2022-08-14T15:03:17Z</time>
      </trkpt>
      <trkpt lat="4.2395480" lon="-76.0175940">
        <ele>1035.6</ele>
        <time>2022-08-14T15:03:25Z</time>
      </trkpt>
      <trkpt lat="4.2395460" lon="-76.0181620">
        <ele>1035.4</ele>
        <time>2022-08-14T15:03:33Z</time>
      </trkpt>
      <trkpt lat="4.2395440" lon="-76.0183300">
        <ele>1035.2</ele>
        <time>2022-08-14T15:03:35Z</time>
      </trkpt>
      <trkpt lat="4.2395430" lon="-76.0189350">
        <ele>1035.2</ele>
        <time>2022-08-14T15:03:43Z</time>
      </trkpt>
      <trkpt lat="4.2395440" lon="-76.0190110">
        <ele>1035.0</ele>
        <time>2022-08-14T15:03:44Z</time>
      </trkpt>
      <trkpt lat="4.2395410" lon="-76.0194780">
        <ele>1035.0</ele>
        <time>2022-08-14T15:03:51Z</time>
      </trkpt>
      <trkpt lat="4.2395400" lon="-76.0196920">
        <ele>1035.0</ele>
        <time>2022-08-14T15:03:53Z</time>
      </trkpt>
      <trkpt lat="4.2395430" lon="-76.0202990">
        <ele>1033.8</ele>
        <time>2022-08-14T15:04:01Z</time>
      </trkpt>
      <trkpt lat="4.2395430" lon="-76.0203580">
        <ele>1033.8</ele>
        <time>2022-08-14T15:04:02Z</time>
      </trkpt>
      <trkpt lat="4.2395430" lon="-76.0205890">
        <ele>1033.4</ele>
        <time>2022-08-14T15:04:05Z</time>
      </trkpt>
      <trkpt lat="4.2395490" lon="-76.0210270">
        <ele>1033.2</ele>
        <time>2022-08-14T15:04:11Z</time>
      </trkpt>
      <trkpt lat="4.2395520" lon="-76.0210980">
        <ele>1033.0</ele>
        <time>2022-08-14T15:04:12Z</time>
      </trkpt>
      <trkpt lat="4.2395530" lon="-76.0216880">
        <ele>1032.6</ele>
        <time>2022-08-14T15:04:20Z</time>
      </trkpt>
      <trkpt lat="4.2395620" lon="-76.0222760">
        <ele>1032.4</ele>
        <time>2022-08-14T15:04:28Z</time>
      </trkpt>
      <trkpt lat="4.2395630" lon="-76.0224960">
        <ele>1032.2</ele>
        <time>2022-08-14T15:04:31Z</time>
      </trkpt>
      <trkpt lat="4.2395590" lon="-76.0229380">
        <ele>1032.2</ele>
        <time>2022-08-14T15:04:37Z</time>
      </trkpt>
      <trkpt lat="4.2395530" lon="-76.0233070">
        <ele>1032.4</ele>
        <time>2022-08-14T15:04:42Z</time>
      </trkpt>
      <trkpt lat="4.2395600" lon="-76.0238970">
        <ele>1032.4</ele>
        <time>2022-08-14T15:04:50Z</time>
      </trkpt>
      <trkpt lat="4.2395660" lon="-76.0240470">
        <ele>1032.4</ele>
        <time>2022-08-14T15:04:52Z</time>
      </trkpt>
      <trkpt lat="4.2395720" lon="-76.0243480">
        <ele>1032.6</ele>
        <time>2022-08-14T15:04:56Z</time>
      </trkpt>
      <trkpt lat="4.2395740" lon="-76.0248080">
        <ele>1032.4</ele>
        <time>2022-08-14T15:05:02Z</time>
      </trkpt>
      <trkpt lat="4.2395670" lon="-76.0253480">
        <ele>1031.6</ele>
        <time>2022-08-14T15:05:09Z</time>
      </trkpt>
      <trkpt lat="4.2395680" lon="-76.0256530">
        <ele>1031.2</ele>
        <time>2022-08-14T15:05:13Z</time>
      </trkpt>
      <trkpt lat="4.2395770" lon="-76.0259700">
        <ele>1030.4</ele>
        <time>2022-08-14T15:05:17Z</time>
      </trkpt>
      <trkpt lat="4.2395820" lon="-76.0265400">
        <ele>1030.0</ele>
        <time>2022-08-14T15:05:24Z</time>
      </trkpt>
      <trkpt lat="4.2395780" lon="-76.0266220">
        <ele>1029.8</ele>
        <time>2022-08-14T15:05:25Z</time>
      </trkpt>
      <trkpt lat="4.2395770" lon="-76.0267030">
        <ele>1029.4</ele>
        <time>2022-08-14T15:05:26Z</time>
      </trkpt>
      <trkpt lat="4.2395780" lon="-76.0271140">
        <ele>1028.2</ele>
        <time>2022-08-14T15:05:31Z</time>
      </trkpt>
      <trkpt lat="4.2395800" lon="-76.0275260">
        <ele>1027.4</ele>
        <time>2022-08-14T15:05:36Z</time>
      </trkpt>
      <trkpt lat="4.2395840" lon="-76.0276940">
        <ele>1027.2</ele>
        <time>2022-08-14T15:05:38Z</time>
      </trkpt>
      <trkpt lat="4.2395890" lon="-76.0282080">
        <ele>1026.6</ele>
        <time>2022-08-14T15:05:44Z</time>
      </trkpt>
      <trkpt lat="4.2395900" lon="-76.0284570">
        <ele>1026.4</ele>
        <time>2022-08-14T15:05:47Z</time>
      </trkpt>
      <trkpt lat="4.2395950" lon="-76.0290260">
        <ele>1025.6</ele>
        <time>2022-08-14T15:05:54Z</time>
      </trkpt>
      <trkpt lat="4.2395960" lon="-76.0291030">
        <ele>1025.2</ele>
        <time>2022-08-14T15:05:55Z</time>
      </trkpt>
      <trkpt lat="4.2395950" lon="-76.0291810">
        <ele>1025.2</ele>
        <time>2022-08-14T15:05:56Z</time>
      </trkpt>
      <trkpt lat="4.2395990" lon="-76.0297510">
        <ele>1024.4</ele>
        <time>2022-08-14T15:06:03Z</time>
      </trkpt>
      <trkpt lat="4.2395990" lon="-76.0300030">
        <ele>1024.4</ele>
        <time>2022-08-14T15:06:06Z</time>
      </trkpt>
      <trkpt lat="4.2396030" lon="-76.0305100">
        <ele>1023.2</ele>
        <time>2022-08-14T15:06:12Z</time>
      </trkpt>
      <trkpt lat="4.2396080" lon="-76.0307570">
        <ele>1022.2</ele>
        <time>2022-08-14T15:06:15Z</time>
      </trkpt>
      <trkpt lat="4.2396060" lon="-76.0308400">
        <ele>1022.0</ele>
        <time>2022-08-14T15:06:16Z</time>
      </trkpt>
      <trkpt lat="4.2396070" lon="-76.0310960">
        <ele>1021.4</ele>
        <time>2022-08-14T15:06:19Z</time>
      </trkpt>
      <trkpt lat="4.2396070" lon="-76.0311800">
        <ele>1021.2</ele>
        <time>2022-08-14T15:06:20Z</time>
      </trkpt>
      <trkpt lat="4.2396080" lon="-76.0315940">
        <ele>1020.8</ele>
        <time>2022-08-14T15:06:25Z</time>
      </trkpt>
      <trkpt lat="4.2396100" lon="-76.0317580">
        <ele>1020.2</ele>
        <time>2022-08-14T15:06:27Z</time>
      </trkpt>
      <trkpt lat="4.2396260" lon="-76.0322500">
        <ele>1019.2</ele>
        <time>2022-08-14T15:06:33Z</time>
      </trkpt>
      <trkpt lat="4.2396270" lon="-76.0323340">
        <ele>1019.2</ele>
        <time>2022-08-14T15:06:34Z</time>
      </trkpt>
      <trkpt lat="4.2396340" lon="-76.0328810">
        <ele>1018.8</ele>
        <time>2022-08-14T15:06:41Z</time>
      </trkpt>
      <trkpt lat="4.2396330" lon="-76.0329590">
        <ele>1018.8</ele>
        <time>2022-08-14T15:06:42Z</time>
      </trkpt>
      <trkpt lat="4.2396330" lon="-76.0335690">
        <ele>1018.8</ele>
        <time>2022-08-14T15:06:50Z</time>
      </trkpt>
      <trkpt lat="4.2396350" lon="-76.0336460">
        <ele>1018.6</ele>
        <time>2022-08-14T15:06:51Z</time>
      </trkpt>
      <trkpt lat="4.2396350" lon="-76.0337210">
        <ele>1018.6</ele>
        <time>2022-08-14T15:06:52Z</time>
      </trkpt>
      <trkpt lat="4.2396420" lon="-76.0343230">
        <ele>1018.8</ele>
        <time>2022-08-14T15:07:00Z</time>
      </trkpt>
      <trkpt lat="4.2396420" lon="-76.0343990">
        <ele>1018.8</ele>
        <time>2022-08-14T15:07:01Z</time>
      </trkpt>
      <trkpt lat="4.2396380" lon="-76.0350000">
        <ele>1019.0</ele>
        <time>2022-08-14T15:07:09Z</time>
      </trkpt>
      <trkpt lat="4.2396370" lon="-76.0350690">
        <ele>1019.0</ele>
        <time>2022-08-14T15:07:10Z</time>
      </trkpt>
      <trkpt lat="4.2396450" lon="-76.0356180">
        <ele>1019.0</ele>
        <time>2022-08-14T15:07:18Z</time>
      </trkpt>
      <trkpt lat="4.2396450" lon="-76.0356850">
        <ele>1019.2</ele>
        <time>2022-08-14T15:07:19Z</time>
      </trkpt>
      <trkpt lat="4.2396830" lon="-76.0361950">
        <ele>1019.2</ele>
        <time>2022-08-14T15:07:27Z</time>
      </trkpt>
      <trkpt lat="4.2397010" lon="-76.0363250">
        <ele>1020.0</ele>
        <time>2022-08-14T15:07:29Z</time>
      </trkpt>
      <trkpt lat="4.2397550" lon="-76.0365740">
        <ele>1020.8</ele>
        <time>2022-08-14T15:07:33Z</time>
      </trkpt>
      <trkpt lat="4.2399000" lon="-76.0371360">
        <ele>1021.2</ele>
        <time>2022-08-14T15:07:42Z</time>
      </trkpt>
      <trkpt lat="4.2400090" lon="-76.0376090">
        <ele>1021.2</ele>
        <time>2022-08-14T15:07:49Z</time>
      </trkpt>
      <trkpt lat="4.2400340" lon="-76.0378240">
        <ele>1021.2</ele>
        <time>2022-08-14T15:07:52Z</time>
      </trkpt>
      <trkpt lat="4.2400290" lon="-76.0380470">
        <ele>1020.4</ele>
        <time>2022-08-14T15:07:55Z</time>
      </trkpt>
      <trkpt lat="4.2400250" lon="-76.0381940">
        <ele>1020.0</ele>
        <time>2022-08-14T15:07:57Z</time>
      </trkpt>
      <trkpt lat="4.2399780" lon="-76.0387680">
        <ele>1019.4</ele>
        <time>2022-08-14T15:08:05Z</time>
      </trkpt>
      <trkpt lat="4.2398750" lon="-76.0393250">
        <ele>1019.4</ele>
        <time>2022-08-14T15:08:13Z</time>
      </trkpt>
      <trkpt lat="4.2398010" lon="-76.0397970">
        <ele>1019.2</ele>
        <time>2022-08-14T15:08:20Z</time>
      </trkpt>
      <trkpt lat="4.2397010" lon="-76.0403100">
        <ele>1019.2</ele>
        <time>2022-08-14T15:08:28Z</time>
      </trkpt>
      <trkpt lat="4.2396530" lon="-76.0406040">
        <ele>1019.6</ele>
        <time>2022-08-14T15:08:34Z</time>
      </trkpt>
      <trkpt lat="4.2396020" lon="-76.0408420">
        <ele>1021.4</ele>
        <time>2022-08-14T15:08:41Z</time>
      </trkpt>
      <trkpt lat="4.2395900" lon="-76.0409390">
        <ele>1022.4</ele>
        <time>2022-08-14T15:08:44Z</time>
      </trkpt>
      <trkpt lat="4.2395760" lon="-76.0410310">
        <ele>1023.8</ele>
        <time>2022-08-14T15:08:47Z</time>
      </trkpt>
      <trkpt lat="4.2395640" lon="-76.0410930">
        <ele>1024.2</ele>
        <time>2022-08-14T15:08:49Z</time>
      </trkpt>
      <trkpt lat="4.2395360" lon="-76.0412420">
        <ele>1024.8</ele>
        <time>2022-08-14T15:08:54Z</time>
      </trkpt>
      <trkpt lat="4.2395040" lon="-76.0413930">
        <ele>1026.0</ele>
        <time>2022-08-14T15:08:59Z</time>
      </trkpt>
      <trkpt lat="4.2394970" lon="-76.0414250">
        <ele>1026.0</ele>
        <time>2022-08-14T15:09:00Z</time>
      </trkpt>
      <trkpt lat="4.2394660" lon="-76.0416090">
        <ele>1027.2</ele>
        <time>2022-08-14T15:09:06Z</time>
      </trkpt>
      <trkpt lat="4.2394470" lon="-76.0417010">
        <ele>1027.6</ele>
        <time>2022-08-14T15:09:09Z</time>
      </trkpt>
      <trkpt lat="4.2394090" lon="-76.0418800">
        <ele>1028.4</ele>
        <time>2022-08-14T15:09:15Z</time>
      </trkpt>
      <trkpt lat="4.2393950" lon="-76.0419710">
        <ele>1028.8</ele>
        <time>2022-08-14T15:09:18Z</time>
      </trkpt>
      <trkpt lat="4.2393610" lon="-76.0421520">
        <ele>1029.6</ele>
        <time>2022-08-14T15:09:24Z</time>
      </trkpt>
      <trkpt lat="4.2393480" lon="-76.0422440">
        <ele>1030.0</ele>
        <time>2022-08-14T15:09:27Z</time>
      </trkpt>
      <trkpt lat="4.2393340" lon="-76.0423630">
        <ele>1030.8</ele>
        <time>2022-08-14T15:09:31Z</time>
      </trkpt>
      <trkpt lat="4.2393200" lon="-76.0425140">
        <ele>1031.6</ele>
        <time>2022-08-14T15:09:36Z</time>
      </trkpt>
      <trkpt lat="4.2393190" lon="-76.0425750">
        <ele>1031.8</ele>
        <time>2022-08-14T15:09:38Z</time>
      </trkpt>
      <trkpt lat="4.2393190" lon="-76.0427690">
        <ele>1032.2</ele>
        <time>2022-08-14T15:09:44Z</time>
      </trkpt>
      <trkpt lat="4.2393320" lon="-76.0429040">
        <ele>1033.2</ele>
        <time>2022-08-14T15:09:48Z</time>
      </trkpt>
      <trkpt lat="4.2393570" lon="-76.0430590">
        <ele>1033.6</ele>
        <time>2022-08-14T15:09:52Z</time>
      </trkpt>
      <trkpt lat="4.2394070" lon="-76.0432790">
        <ele>1034.2</ele>
        <time>2022-08-14T15:09:57Z</time>
      </trkpt>
      <trkpt lat="4.2394220" lon="-76.0433250">
        <ele>1034.4</ele>
        <time>2022-08-14T15:09:58Z</time>
      </trkpt>
      <trkpt lat="4.2394530" lon="-76.0434140">
        <ele>1034.4</ele>
        <time>2022-08-14T15:10:00Z</time>
      </trkpt>
      <trkpt lat="4.2394950" lon="-76.0436090">
        <ele>1034.8</ele>
        <time>2022-08-14T15:10:04Z</time>
      </trkpt>
      <trkpt lat="4.2395520" lon="-76.0438070">
        <ele>1034.8</ele>
        <time>2022-08-14T15:10:08Z</time>
      </trkpt>
      <trkpt lat="4.2395770" lon="-76.0439040">
        <ele>1034.8</ele>
        <time>2022-08-14T15:10:10Z</time>
      </trkpt>
      <trkpt lat="4.2396560" lon="-76.0442430">
        <ele>1034.6</ele>
        <time>2022-08-14T15:10:16Z</time>
      </trkpt>
      <trkpt lat="4.2397980" lon="-76.0447740">
        <ele>1034.8</ele>
        <time>2022-08-14T15:10:25Z</time>
      </trkpt>
      <trkpt lat="4.2399190" lon="-76.0452370">
        <ele>1035.4</ele>
        <time>2022-08-14T15:10:33Z</time>
      </trkpt>
      <trkpt lat="4.2400190" lon="-76.0455960">
        <ele>1035.8</ele>
        <time>2022-08-14T15:10:39Z</time>
      </trkpt>
      <trkpt lat="4.2400520" lon="-76.0457130">
        <ele>1035.8</ele>
        <time>2022-08-14T15:10:41Z</time>
      </trkpt>
      <trkpt lat="4.2401800" lon="-76.0462250">
        <ele>1036.2</ele>
        <time>2022-08-14T15:10:50Z</time>
      </trkpt>
      <trkpt lat="4.2403080" lon="-76.0466960">
        <ele>1036.2</ele>
        <time>2022-08-14T15:10:59Z</time>
      </trkpt>
      <trkpt lat="4.2404240" lon="-76.0471280">
        <ele>1036.8</ele>
        <time>2022-08-14T15:11:07Z</time>
      </trkpt>
      <trkpt lat="4.2404600" lon="-76.0472920">
        <ele>1037.0</ele>
        <time>2022-08-14T15:11:10Z</time>
      </trkpt>
      <trkpt lat="4.2404880" lon="-76.0473960">
        <ele>1037.0</ele>
        <time>2022-08-14T15:11:12Z</time>
      </trkpt>
      <trkpt lat="4.2405090" lon="-76.0474950">
        <ele>1037.2</ele>
        <time>2022-08-14T15:11:14Z</time>
      </trkpt>
      <trkpt lat="4.2405470" lon="-76.0476330">
        <ele>1037.2</ele>
        <time>2022-08-14T15:11:17Z</time>
      </trkpt>
      <trkpt lat="4.2406190" lon="-76.0479300">
        <ele>1038.4</ele>
        <time>2022-08-14T15:11:23Z</time>
      </trkpt>
      <trkpt lat="4.2406700" lon="-76.0480820">
        <ele>1039.4</ele>
        <time>2022-08-14T15:11:26Z</time>
      </trkpt>
      <trkpt lat="4.2407410" lon="-76.0483250">
        <ele>1040.0</ele>
        <time>2022-08-14T15:11:31Z</time>
      </trkpt>
      <trkpt lat="4.2407750" lon="-76.0484730">
        <ele>1040.0</ele>
        <time>2022-08-14T15:11:34Z</time>
      </trkpt>
      <trkpt lat="4.2407970" lon="-76.0486110">
        <ele>1040.2</ele>
        <time>2022-08-14T15:11:37Z</time>
      </trkpt>
      <trkpt lat="4.2408390" lon="-76.0488380">
        <ele>1040.4</ele>
        <time>2022-08-14T15:11:42Z</time>
      </trkpt>
      <trkpt lat="4.2408550" lon="-76.0489310">
        <ele>1040.6</ele>
        <time>2022-08-14T15:11:44Z</time>
      </trkpt>
      <trkpt lat="4.2408790" lon="-76.0491120">
        <ele>1041.8</ele>
        <time>2022-08-14T15:11:48Z</time>
      </trkpt>
      <trkpt lat="4.2408920" lon="-76.0492480">
        <ele>1042.4</ele>
        <time>2022-08-14T15:11:51Z</time>
      </trkpt>
      <trkpt lat="4.2409100" lon="-76.0493950">
        <ele>1043.0</ele>
        <time>2022-08-14T15:11:54Z</time>
      </trkpt>
      <trkpt lat="4.2409100" lon="-76.0494440">
        <ele>1043.2</ele>
        <time>2022-08-14T15:11:55Z</time>
      </trkpt>
      <trkpt lat="4.2409090" lon="-76.0495410">
        <ele>1043.6</ele>
        <time>2022-08-14T15:11:57Z</time>
      </trkpt>
      <trkpt lat="4.2409120" lon="-76.0495880">
        <ele>1043.8</ele>
        <time>2022-08-14T15:11:58Z</time>
      </trkpt>
      <trkpt lat="4.2409200" lon="-76.0496840">
        <ele>1044.2</ele>
        <time>2022-08-14T15:12:00Z</time>
      </trkpt>
      <trkpt lat="4.2409500" lon="-76.0499670">
        <ele>1044.8</ele>
        <time>2022-08-14T15:12:06Z</time>
      </trkpt>
      <trkpt lat="4.2409660" lon="-76.0501540">
        <ele>1045.4</ele>
        <time>2022-08-14T15:12:10Z</time>
      </trkpt>
      <trkpt lat="4.2409680" lon="-76.0503400">
        <ele>1045.8</ele>
        <time>2022-08-14T15:12:14Z</time>
      </trkpt>
      <trkpt lat="4.2409850" lon="-76.0505640">
        <ele>1046.4</ele>
        <time>2022-08-14T15:12:19Z</time>
      </trkpt>
      <trkpt lat="4.2409910" lon="-76.0507510">
        <ele>1046.8</ele>
        <time>2022-08-14T15:12:23Z</time>
      </trkpt>
      <trkpt lat="4.2410110" lon="-76.0510600">
        <ele>1047.6</ele>
        <time>2022-08-14T15:12:30Z</time>
      </trkpt>
      <trkpt lat="4.2410210" lon="-76.0512300">
        <ele>1048.4</ele>
        <time>2022-08-14T15:12:34Z</time>
      </trkpt>
      <trkpt lat="4.2410420" lon="-76.0514400">
        <ele>1049.0</ele>
        <time>2022-08-14T15:12:39Z</time>
      </trkpt>
      <trkpt lat="4.2410590" lon="-76.0516510">
        <ele>1049.8</ele>
        <time>2022-08-14T15:12:44Z</time>
      </trkpt>
      <trkpt lat="4.2410680" lon="-76.0517310">
        <ele>1050.0</ele>
        <time>2022-08-14T15:12:46Z</time>
      </trkpt>
      <trkpt lat="4.2410880" lon="-76.0519080">
        <ele>1051.0</ele>
        <time>2022-08-14T15:12:51Z</time>
      </trkpt>
      <trkpt lat="4.2410950" lon="-76.0519420">
        <ele>1051.4</ele>
        <time>2022-08-14T15:12:52Z</time>
      </trkpt>
      <trkpt lat="4.2411050" lon="-76.0519760">
        <ele>1051.6</ele>
        <time>2022-08-14T15:12:53Z</time>
      </trkpt>
      <trkpt lat="4.2411450" lon="-76.0521450">
        <ele>1052.4</ele>
        <time>2022-08-14T15:12:58Z</time>
      </trkpt>
      <trkpt lat="4.2411610" lon="-76.0522080">
        <ele>1053.0</ele>
        <time>2022-08-14T15:13:00Z</time>
      </trkpt>
      <trkpt lat="4.2411840" lon="-76.0522900">
        <ele>1053.6</ele>
        <time>2022-08-14T15:13:03Z</time>
      </trkpt>
      <trkpt lat="4.2412200" lon="-76.0524300">
        <ele>1054.4</ele>
        <time>2022-08-14T15:13:08Z</time>
      </trkpt>
      <trkpt lat="4.2412230" lon="-76.0524570">
        <ele>1054.6</ele>
        <time>2022-08-14T15:13:09Z</time>
      </trkpt>
      <trkpt lat="4.2412620" lon="-76.0525900">
        <ele>1056.0</ele>
        <time>2022-08-14T15:13:14Z</time>
      </trkpt>
      <trkpt lat="4.2412850" lon="-76.0526400">
        <ele>1056.4</ele>
        <time>2022-08-14T15:13:16Z</time>
      </trkpt>
      <trkpt lat="4.2413550" lon="-76.0527970">
        <ele>1057.2</ele>
        <time>2022-08-14T15:13:22Z</time>
      </trkpt>
      <trkpt lat="4.2413740" lon="-76.0528520">
        <ele>1057.6</ele>
        <time>2022-08-14T15:13:24Z</time>
      </trkpt>
      <trkpt lat="4.2414040" lon="-76.0529240">
        <ele>1058.2</ele>
        <time>2022-08-14T15:13:27Z</time>
      </trkpt>
      <trkpt lat="4.2414550" lon="-76.0530400">
        <ele>1059.2</ele>
        <time>2022-08-14T15:13:32Z</time>
      </trkpt>
      <trkpt lat="4.2414690" lon="-76.0530860">
        <ele>1059.8</ele>
        <time>2022-08-14T15:13:34Z</time>
      </trkpt>
      <trkpt lat="4.2415190" lon="-76.0532090">
        <ele>1060.8</ele>
        <time>2022-08-14T15:13:39Z</time>
      </trkpt>
      <trkpt lat="4.2415320" lon="-76.0532340">
        <ele>1061.0</ele>
        <time>2022-08-14T15:13:40Z</time>
      </trkpt>
      <trkpt lat="4.2415820" lon="-76.0533450">
        <ele>1061.8</ele>
        <time>2022-08-14T15:13:44Z</time>
      </trkpt>
      <trkpt lat="4.2416380" lon="-76.0534510">
        <ele>1062.6</ele>
        <time>2022-08-14T15:13:48Z</time>
      </trkpt>
      <trkpt lat="4.2416650" lon="-76.0535040">
        <ele>1063.0</ele>
        <time>2022-08-14T15:13:50Z</time>
      </trkpt>
      <trkpt lat="4.2417420" lon="-76.0536920">
        <ele>1064.0</ele>
        <time>2022-08-14T15:13:56Z</time>
      </trkpt>
      <trkpt lat="4.2418580" lon="-76.0538850">
        <ele>1065.4</ele>
        <time>2022-08-14T15:14:03Z</time>
      </trkpt>
      <trkpt lat="4.2419440" lon="-76.0540450">
        <ele>1066.4</ele>
        <time>2022-08-14T15:14:09Z</time>
      </trkpt>
      <trkpt lat="4.2419590" lon="-76.0540730">
        <ele>1066.4</ele>
        <time>2022-08-14T15:14:10Z</time>
      </trkpt>
      <trkpt lat="4.2420790" lon="-76.0542320">
        <ele>1067.8</ele>
        <time>2022-08-14T15:14:17Z</time>
      </trkpt>
      <trkpt lat="4.2421180" lon="-76.0542810">
        <ele>1068.2</ele>
        <time>2022-08-14T15:14:19Z</time>
      </trkpt>
      <trkpt lat="4.2421560" lon="-76.0543280">
        <ele>1068.6</ele>
        <time>2022-08-14T15:14:21Z</time>
      </trkpt>
      <trkpt lat="4.2421740" lon="-76.0543490">
        <ele>1068.8</ele>
        <time>2022-08-14T15:14:22Z</time>
      </trkpt>
      <trkpt lat="4.2422630" lon="-76.0544500">
        <ele>1069.8</ele>
        <time>2022-08-14T15:14:27Z</time>
      </trkpt>
      <trkpt lat="4.2423300" lon="-76.0545230">
        <ele>1070.4</ele>
        <time>2022-08-14T15:14:30Z</time>
      </trkpt>
      <trkpt lat="4.2423930" lon="-76.0545810">
        <ele>1071.0</ele>
        <time>2022-08-14T15:14:33Z</time>
      </trkpt>
      <trkpt lat="4.2425100" lon="-76.0546740">
        <ele>1071.8</ele>
        <time>2022-08-14T15:14:38Z</time>
      </trkpt>
      <trkpt lat="4.2425670" lon="-76.0547090">
        <ele>1072.4</ele>
        <time>2022-08-14T15:14:40Z</time>
      </trkpt>
      <trkpt lat="4.2426600" lon="-76.0547800">
        <ele>1073.4</ele>
        <time>2022-08-14T15:14:44Z</time>
      </trkpt>
      <trkpt lat="4.2426850" lon="-76.0547950">
        <ele>1073.6</ele>
        <time>2022-08-14T15:14:45Z</time>
      </trkpt>
      <trkpt lat="4.2428130" lon="-76.0548790">
        <ele>1074.4</ele>
        <time>2022-08-14T15:14:50Z</time>
      </trkpt>
      <trkpt lat="4.2428430" lon="-76.0548930">
        <ele>1074.6</ele>
        <time>2022-08-14T15:14:51Z</time>
      </trkpt>
      <trkpt lat="4.2429340" lon="-76.0549320">
        <ele>1075.2</ele>
        <time>2022-08-14T15:14:54Z</time>
      </trkpt>
      <trkpt lat="4.2430480" lon="-76.0549790">
        <ele>1075.8</ele>
        <time>2022-08-14T15:14:58Z</time>
      </trkpt>
      <trkpt lat="4.2431090" lon="-76.0550060">
        <ele>1076.4</ele>
        <time>2022-08-14T15:15:00Z</time>
      </trkpt>
      <trkpt lat="4.2432350" lon="-76.0550550">
        <ele>1077.0</ele>
        <time>2022-08-14T15:15:04Z</time>
      </trkpt>
      <trkpt lat="4.2434110" lon="-76.0551230">
        <ele>1077.4</ele>
        <time>2022-08-14T15:15:09Z</time>
      </trkpt>
      <trkpt lat="4.2435910" lon="-76.0551950">
        <ele>1078.0</ele>
        <time>2022-08-14T15:15:14Z</time>
      </trkpt>
      <trkpt lat="4.2437600" lon="-76.0552730">
        <ele>1078.6</ele>
        <time>2022-08-14T15:15:19Z</time>
      </trkpt>
      <trkpt lat="4.2438970" lon="-76.0553330">
        <ele>1079.0</ele>
        <time>2022-08-14T15:15:23Z</time>
      </trkpt>
      <trkpt lat="4.2439290" lon="-76.0553510">
        <ele>1079.4</ele>
        <time>2022-08-14T15:15:24Z</time>
      </trkpt>
      <trkpt lat="4.2440550" lon="-76.0554200">
        <ele>1079.8</ele>
        <time>2022-08-14T15:15:28Z</time>
      </trkpt>
      <trkpt lat="4.2441940" lon="-76.0555160">
        <ele>1080.4</ele>
        <time>2022-08-14T15:15:33Z</time>
      </trkpt>
      <trkpt lat="4.2442630" lon="-76.0555810">
        <ele>1081.0</ele>
        <time>2022-08-14T15:15:36Z</time>
      </trkpt>
      <trkpt lat="4.2443390" lon="-76.0556890">
        <ele>1081.6</ele>
        <time>2022-08-14T15:15:40Z</time>
      </trkpt>
      <trkpt lat="4.2443700" lon="-76.0557420">
        <ele>1082.2</ele>
        <time>2022-08-14T15:15:42Z</time>
      </trkpt>
      <trkpt lat="4.2444180" lon="-76.0558710">
        <ele>1083.0</ele>
        <time>2022-08-14T15:15:47Z</time>
      </trkpt>
      <trkpt lat="4.2444300" lon="-76.0559230">
        <ele>1083.2</ele>
        <time>2022-08-14T15:15:49Z</time>
      </trkpt>
      <trkpt lat="4.2444470" lon="-76.0560570">
        <ele>1084.2</ele>
        <time>2022-08-14T15:15:54Z</time>
      </trkpt>
      <trkpt lat="4.2444440" lon="-76.0561150">
        <ele>1084.6</ele>
        <time>2022-08-14T15:15:56Z</time>
      </trkpt>
      <trkpt lat="4.2444400" lon="-76.0562010">
        <ele>1085.2</ele>
        <time>2022-08-14T15:15:59Z</time>
      </trkpt>
      <trkpt lat="4.2444120" lon="-76.0563540">
        <ele>1086.0</ele>
        <time>2022-08-14T15:16:04Z</time>
      </trkpt>
      <trkpt lat="4.2444050" lon="-76.0563850">
        <ele>1086.2</ele>
        <time>2022-08-14T15:16:05Z</time>
      </trkpt>
      <trkpt lat="4.2443480" lon="-76.0565680">
        <ele>1087.6</ele>
        <time>2022-08-14T15:16:11Z</time>
      </trkpt>
      <trkpt lat="4.2443080" lon="-76.0566640">
        <ele>1088.0</ele>
        <time>2022-08-14T15:16:14Z</time>
      </trkpt>
      <trkpt lat="4.2442530" lon="-76.0568010">
        <ele>1088.6</ele>
        <time>2022-08-14T15:16:18Z</time>
      </trkpt>
      <trkpt lat="4.2441920" lon="-76.0569440">
        <ele>1088.8</ele>
        <time>2022-08-14T15:16:22Z</time>
      </trkpt>
      <trkpt lat="4.2440380" lon="-76.0572910">
        <ele>1089.8</ele>
        <time>2022-08-14T15:16:31Z</time>
      </trkpt>
      <trkpt lat="4.2440220" lon="-76.0573330">
        <ele>1089.8</ele>
        <time>2022-08-14T15:16:32Z</time>
      </trkpt>
      <trkpt lat="4.2439440" lon="-76.0574940">
        <ele>1090.0</ele>
        <time>2022-08-14T15:16:36Z</time>
      </trkpt>
      <trkpt lat="4.2438850" lon="-76.0576220">
        <ele>1090.2</ele>
        <time>2022-08-14T15:16:39Z</time>
      </trkpt>
      <trkpt lat="4.2438670" lon="-76.0576660">
        <ele>1090.4</ele>
        <time>2022-08-14T15:16:40Z</time>
      </trkpt>
      <trkpt lat="4.2437430" lon="-76.0579590">
        <ele>1090.8</ele>
        <time>2022-08-14T15:16:47Z</time>
      </trkpt>
      <trkpt lat="4.2437300" lon="-76.0579970">
        <ele>1090.8</ele>
        <time>2022-08-14T15:16:48Z</time>
      </trkpt>
      <trkpt lat="4.2436030" lon="-76.0583290">
        <ele>1091.6</ele>
        <time>2022-08-14T15:16:56Z</time>
      </trkpt>
      <trkpt lat="4.2435830" lon="-76.0584740">
        <ele>1091.8</ele>
        <time>2022-08-14T15:16:59Z</time>
      </trkpt>
      <trkpt lat="4.2435900" lon="-76.0585740">
        <ele>1092.0</ele>
        <time>2022-08-14T15:17:01Z</time>
      </trkpt>
      <trkpt lat="4.2435990" lon="-76.0586240">
        <ele>1092.0</ele>
        <time>2022-08-14T15:17:02Z</time>
      </trkpt>
      <trkpt lat="4.2437080" lon="-76.0590690">
        <ele>1092.6</ele>
        <time>2022-08-14T15:17:11Z</time>
      </trkpt>
      <trkpt lat="4.2438410" lon="-76.0595030">
        <ele>1093.0</ele>
        <time>2022-08-14T15:17:20Z</time>
      </trkpt>
      <trkpt lat="4.2439120" lon="-76.0597250">
        <ele>1093.2</ele>
        <time>2022-08-14T15:17:25Z</time>
      </trkpt>
      <trkpt lat="4.2439340" lon="-76.0598020">
        <ele>1093.4</ele>
        <time>2022-08-14T15:17:27Z</time>
      </trkpt>
      <trkpt lat="4.2439910" lon="-76.0599740">
        <ele>1094.4</ele>
        <time>2022-08-14T15:17:32Z</time>
      </trkpt>
      <trkpt lat="4.2440300" lon="-76.0600680">
        <ele>1095.0</ele>
        <time>2022-08-14T15:17:35Z</time>
      </trkpt>
      <trkpt lat="4.2440420" lon="-76.0600990">
        <ele>1095.4</ele>
        <time>2022-08-14T15:17:36Z</time>
      </trkpt>
      <trkpt lat="4.2441550" lon="-76.0602650">
        <ele>1096.4</ele>
        <time>2022-08-14T15:17:42Z</time>
      </trkpt>
      <trkpt lat="4.2441860" lon="-76.0602950">
        <ele>1096.6</ele>
        <time>2022-08-14T15:17:43Z</time>
      </trkpt>
      <trkpt lat="4.2443450" lon="-76.0603990">
        <ele>1097.8</ele>
        <time>2022-08-14T15:17:49Z</time>
      </trkpt>
      <trkpt lat="4.2443740" lon="-76.0604100">
        <ele>1097.8</ele>
        <time>2022-08-14T15:17:50Z</time>
      </trkpt>
      <trkpt lat="4.2445810" lon="-76.0604700">
        <ele>1098.6</ele>
        <time>2022-08-14T15:17:57Z</time>
      </trkpt>
      <trkpt lat="4.2446430" lon="-76.0604870">
        <ele>1098.8</ele>
        <time>2022-08-14T15:17:59Z</time>
      </trkpt>
      <trkpt lat="4.2448800" lon="-76.0605460">
        <ele>1100.0</ele>
        <time>2022-08-14T15:18:07Z</time>
      </trkpt>
      <trkpt lat="4.2450540" lon="-76.0605910">
        <ele>1101.4</ele>
        <time>2022-08-14T15:18:13Z</time>
      </trkpt>
      <trkpt lat="4.2451080" lon="-76.0606070">
        <ele>1101.6</ele>
        <time>2022-08-14T15:18:15Z</time>
      </trkpt>
      <trkpt lat="4.2452460" lon="-76.0606360">
        <ele>1102.6</ele>
        <time>2022-08-14T15:18:20Z</time>
      </trkpt>
      <trkpt lat="4.2453500" lon="-76.0606450">
        <ele>1103.4</ele>
        <time>2022-08-14T15:18:24Z</time>
      </trkpt>
      <trkpt lat="4.2453770" lon="-76.0606450">
        <ele>1103.6</ele>
        <time>2022-08-14T15:18:25Z</time>
      </trkpt>
      <trkpt lat="4.2455550" lon="-76.0606330">
        <ele>1104.8</ele>
        <time>2022-08-14T15:18:32Z</time>
      </trkpt>
      <trkpt lat="4.2456660" lon="-76.0606130">
        <ele>1106.0</ele>
        <time>2022-08-14T15:18:37Z</time>
      </trkpt>
      <trkpt lat="4.2457720" lon="-76.0605890">
        <ele>1106.6</ele>
        <time>2022-08-14T15:18:42Z</time>
      </trkpt>
      <trkpt lat="4.2458410" lon="-76.0605750">
        <ele>1107.2</ele>
        <time>2022-08-14T15:18:45Z</time>
      </trkpt>
      <trkpt lat="4.2459710" lon="-76.0605400">
        <ele>1108.2</ele>
        <time>2022-08-14T15:18:51Z</time>
      </trkpt>
      <trkpt lat="4.2459930" lon="-76.0605320">
        <ele>1108.4</ele>
        <time>2022-08-14T15:18:52Z</time>
      </trkpt>
      <trkpt lat="4.2461610" lon="-76.0604860">
        <ele>1109.4</ele>
        <time>2022-08-14T15:18:59Z</time>
      </trkpt>
      <trkpt lat="4.2462320" lon="-76.0604650">
        <ele>1109.8</ele>
        <time>2022-08-14T15:19:02Z</time>
      </trkpt>
      <trkpt lat="4.2463260" lon="-76.0604380">
        <ele>1110.6</ele>
        <time>2022-08-14T15:19:06Z</time>
      </trkpt>
      <trkpt lat="4.2464310" lon="-76.0604150">
        <ele>1111.8</ele>
        <time>2022-08-14T15:19:10Z</time>
      </trkpt>
      <trkpt lat="4.2464570" lon="-76.0604120">
        <ele>1112.0</ele>
        <time>2022-08-14T15:19:11Z</time>
      </trkpt>
      <trkpt lat="4.2466100" lon="-76.0604160">
        <ele>1113.0</ele>
        <time>2022-08-14T15:19:17Z</time>
      </trkpt>
      <trkpt lat="4.2466930" lon="-76.0604310">
        <ele>1113.4</ele>
        <time>2022-08-14T15:19:20Z</time>
      </trkpt>
      <trkpt lat="4.2468260" lon="-76.0604670">
        <ele>1114.2</ele>
        <time>2022-08-14T15:19:25Z</time>
      </trkpt>
      <trkpt lat="4.2469450" lon="-76.0605000">
        <ele>1114.8</ele>
        <time>2022-08-14T15:19:29Z</time>
      </trkpt>
      <trkpt lat="4.2470200" lon="-76.0605160">
        <ele>1115.4</ele>
        <time>2022-08-14T15:19:32Z</time>
      </trkpt>
      <trkpt lat="4.2471740" lon="-76.0605150">
        <ele>1116.0</ele>
        <time>2022-08-14T15:19:37Z</time>
      </trkpt>
      <trkpt lat="4.2473220" lon="-76.0604470">
        <ele>1116.6</ele>
        <time>2022-08-14T15:19:43Z</time>
      </trkpt>
      <trkpt lat="4.2473440" lon="-76.0604330">
        <ele>1116.8</ele>
        <time>2022-08-14T15:19:44Z</time>
      </trkpt>
      <trkpt lat="4.2474320" lon="-76.0603780">
        <ele>1117.6</ele>
        <time>2022-08-14T15:19:48Z</time>
      </trkpt>
      <trkpt lat="4.2474960" lon="-76.0603270">
        <ele>1118.0</ele>
        <time>2022-08-14T15:19:51Z</time>
      </trkpt>
      <trkpt lat="4.2475590" lon="-76.0602870">
        <ele>1118.6</ele>
        <time>2022-08-14T15:19:54Z</time>
      </trkpt>
      <trkpt lat="4.2476660" lon="-76.0602120">
        <ele>1119.6</ele>
        <time>2022-08-14T15:19:59Z</time>
      </trkpt>
      <trkpt lat="4.2476890" lon="-76.0601980">
        <ele>1119.6</ele>
        <time>2022-08-14T15:20:00Z</time>
      </trkpt>
      <trkpt lat="4.2478590" lon="-76.0601170">
        <ele>1120.8</ele>
        <time>2022-08-14T15:20:07Z</time>
      </trkpt>
      <trkpt lat="4.2478830" lon="-76.0601070">
        <ele>1121.0</ele>
        <time>2022-08-14T15:20:08Z</time>
      </trkpt>
      <trkpt lat="4.2481140" lon="-76.0600550">
        <ele>1122.0</ele>
        <time>2022-08-14T15:20:17Z</time>
      </trkpt>
      <trkpt lat="4.2481400" lon="-76.0600520">
        <ele>1122.2</ele>
        <time>2022-08-14T15:20:18Z</time>
      </trkpt>
      <trkpt lat="4.2482920" lon="-76.0600360">
        <ele>1123.0</ele>
        <time>2022-08-14T15:20:24Z</time>
      </trkpt>
      <trkpt lat="4.2483940" lon="-76.0600340">
        <ele>1124.0</ele>
        <time>2022-08-14T15:20:28Z</time>
      </trkpt>
      <trkpt lat="4.2484460" lon="-76.0600370">
        <ele>1124.2</ele>
        <time>2022-08-14T15:20:30Z</time>
      </trkpt>
      <trkpt lat="4.2485700" lon="-76.0600400">
        <ele>1125.4</ele>
        <time>2022-08-14T15:20:35Z</time>
      </trkpt>
      <trkpt lat="4.2486990" lon="-76.0600480">
        <ele>1126.6</ele>
        <time>2022-08-14T15:20:40Z</time>
      </trkpt>
      <trkpt lat="4.2488760" lon="-76.0600700">
        <ele>1127.6</ele>
        <time>2022-08-14T15:20:47Z</time>
      </trkpt>
      <trkpt lat="4.2489500" lon="-76.0600780">
        <ele>1128.2</ele>
        <time>2022-08-14T15:20:50Z</time>
      </trkpt>
      <trkpt lat="4.2490250" lon="-76.0600970">
        <ele>1128.6</ele>
        <time>2022-08-14T15:20:53Z</time>
      </trkpt>
      <trkpt lat="4.2491450" lon="-76.0601360">
        <ele>1129.6</ele>
        <time>2022-08-14T15:20:58Z</time>
      </trkpt>
      <trkpt lat="4.2491690" lon="-76.0601430">
        <ele>1129.6</ele>
        <time>2022-08-14T15:20:59Z</time>
      </trkpt>
      <trkpt lat="4.2493400" lon="-76.0601850">
        <ele>1130.6</ele>
        <time>2022-08-14T15:21:06Z</time>
      </trkpt>
      <trkpt lat="4.2493900" lon="-76.0601970">
        <ele>1131.0</ele>
        <time>2022-08-14T15:21:08Z</time>
      </trkpt>
      <trkpt lat="4.2495030" lon="-76.0602340">
        <ele>1132.0</ele>
        <time>2022-08-14T15:21:13Z</time>
      </trkpt>
      <trkpt lat="4.2495960" lon="-76.0602610">
        <ele>1132.8</ele>
        <time>2022-08-14T15:21:17Z</time>
      </trkpt>
      <trkpt lat="4.2496410" lon="-76.0602750">
        <ele>1133.2</ele>
        <time>2022-08-14T15:21:19Z</time>
      </trkpt>
      <trkpt lat="4.2497350" lon="-76.0603010">
        <ele>1134.2</ele>
        <time>2022-08-14T15:21:23Z</time>
      </trkpt>
      <trkpt lat="4.2498210" lon="-76.0603270">
        <ele>1135.0</ele>
        <time>2022-08-14T15:21:27Z</time>
      </trkpt>
      <trkpt lat="4.2498440" lon="-76.0603330">
        <ele>1135.2</ele>
        <time>2022-08-14T15:21:28Z</time>
      </trkpt>
      <trkpt lat="4.2500320" lon="-76.0603620">
        <ele>1136.2</ele>
        <time>2022-08-14T15:21:36Z</time>
      </trkpt>
      <trkpt lat="4.2502040" lon="-76.0603360">
        <ele>1137.2</ele>
        <time>2022-08-14T15:21:43Z</time>
      </trkpt>
      <trkpt lat="4.2502260" lon="-76.0603250">
        <ele>1137.6</ele>
        <time>2022-08-14T15:21:44Z</time>
      </trkpt>
      <trkpt lat="4.2503570" lon="-76.0602160">
        <ele>1138.6</ele>
        <time>2022-08-14T15:21:51Z</time>
      </trkpt>
      <trkpt lat="4.2503720" lon="-76.0602000">
        <ele>1138.8</ele>
        <time>2022-08-14T15:21:52Z</time>
      </trkpt>
      <trkpt lat="4.2504860" lon="-76.0600710">
        <ele>1139.6</ele>
        <time>2022-08-14T15:21:59Z</time>
      </trkpt>
      <trkpt lat="4.2505220" lon="-76.0600410">
        <ele>1139.8</ele>
        <time>2022-08-14T15:22:01Z</time>
      </trkpt>
      <trkpt lat="4.2506230" lon="-76.0599760">
        <ele>1140.8</ele>
        <time>2022-08-14T15:22:06Z</time>
      </trkpt>
      <trkpt lat="4.2506940" lon="-76.0599530">
        <ele>1141.2</ele>
        <time>2022-08-14T15:22:09Z</time>
      </trkpt>
      <trkpt lat="4.2507740" lon="-76.0599480">
        <ele>1141.8</ele>
        <time>2022-08-14T15:22:12Z</time>
      </trkpt>
      <trkpt lat="4.2508550" lon="-76.0599640">
        <ele>1142.2</ele>
        <time>2022-08-14T15:22:15Z</time>
      </trkpt>
      <trkpt lat="4.2509050" lon="-76.0599880">
        <ele>1142.8</ele>
        <time>2022-08-14T15:22:17Z</time>
      </trkpt>
      <trkpt lat="4.2509910" lon="-76.0600480">
        <ele>1143.0</ele>
        <time>2022-08-14T15:22:21Z</time>
      </trkpt>
      <trkpt lat="4.2510330" lon="-76.0600830">
        <ele>1143.4</ele>
        <time>2022-08-14T15:22:23Z</time>
      </trkpt>
      <trkpt lat="4.2512070" lon="-76.0602300">
        <ele>1144.2</ele>
        <time>2022-08-14T15:22:31Z</time>
      </trkpt>
      <trkpt lat="4.2512330" lon="-76.0602440">
        <ele>1144.2</ele>
        <time>2022-08-14T15:22:32Z</time>
      </trkpt>
      <trkpt lat="4.2514260" lon="-76.0603320">
        <ele>1145.4</ele>
        <time>2022-08-14T15:22:39Z</time>
      </trkpt>
      <trkpt lat="4.2516230" lon="-76.0603390">
        <ele>1146.4</ele>
        <time>2022-08-14T15:22:45Z</time>
      </trkpt>
      <trkpt lat="4.2516900" lon="-76.0603270">
        <ele>1146.6</ele>
        <time>2022-08-14T15:22:47Z</time>
      </trkpt>
      <trkpt lat="4.2520070" lon="-76.0602630">
        <ele>1147.0</ele>
        <time>2022-08-14T15:22:56Z</time>
      </trkpt>
      <trkpt lat="4.2522000" lon="-76.0602320">
        <ele>1147.4</ele>
        <time>2022-08-14T15:23:01Z</time>
      </trkpt>
      <trkpt lat="4.2523580" lon="-76.0602020">
        <ele>1147.6</ele>
        <time>2022-08-14T15:23:05Z</time>
      </trkpt>
      <trkpt lat="4.2526150" lon="-76.0601580">
        <ele>1147.8</ele>
        <time>2022-08-14T15:23:11Z</time>
      </trkpt>
      <trkpt lat="4.2528340" lon="-76.0601600">
        <ele>1148.0</ele>
        <time>2022-08-14T15:23:16Z</time>
      </trkpt>
      <trkpt lat="4.2529210" lon="-76.0601770">
        <ele>1148.0</ele>
        <time>2022-08-14T15:23:18Z</time>
      </trkpt>
      <trkpt lat="4.2531580" lon="-76.0603020">
        <ele>1147.8</ele>
        <time>2022-08-14T15:23:24Z</time>
      </trkpt>
      <trkpt lat="4.2532780" lon="-76.0604200">
        <ele>1147.6</ele>
        <time>2022-08-14T15:23:28Z</time>
      </trkpt>
      <trkpt lat="4.2533230" lon="-76.0604900">
        <ele>1147.6</ele>
        <time>2022-08-14T15:23:30Z</time>
      </trkpt>
      <trkpt lat="4.2534960" lon="-76.0607610">
        <ele>1147.6</ele>
        <time>2022-08-14T15:23:38Z</time>
      </trkpt>
      <trkpt lat="4.2535500" lon="-76.0608370">
        <ele>1147.6</ele>
        <time>2022-08-14T15:23:40Z</time>
      </trkpt>
      <trkpt lat="4.2536840" lon="-76.0610680">
        <ele>1148.2</ele>
        <time>2022-08-14T15:23:46Z</time>
      </trkpt>
      <trkpt lat="4.2537170" lon="-76.0611380">
        <ele>1148.4</ele>
        <time>2022-08-14T15:23:48Z</time>
      </trkpt>
      <trkpt lat="4.2537800" lon="-76.0613220">
        <ele>1148.6</ele>
        <time>2022-08-14T15:23:52Z</time>
      </trkpt>
      <trkpt lat="4.2537980" lon="-76.0614590">
        <ele>1148.8</ele>
        <time>2022-08-14T15:23:55Z</time>
      </trkpt>
      <trkpt lat="4.2538140" lon="-76.0618060">
        <ele>1148.8</ele>
        <time>2022-08-14T15:24:01Z</time>
      </trkpt>
      <trkpt lat="4.2538320" lon="-76.0622170">
        <ele>1148.2</ele>
        <time>2022-08-14T15:24:07Z</time>
      </trkpt>
      <trkpt lat="4.2538570" lon="-76.0623740">
        <ele>1148.0</ele>
        <time>2022-08-14T15:24:09Z</time>
      </trkpt>
      <trkpt lat="4.2539080" lon="-76.0625440">
        <ele>1147.6</ele>
        <time>2022-08-14T15:24:11Z</time>
      </trkpt>
      <trkpt lat="4.2539530" lon="-76.0626230">
        <ele>1147.0</ele>
        <time>2022-08-14T15:24:12Z</time>
      </trkpt>
      <trkpt lat="4.2540150" lon="-76.0626960">
        <ele>1147.0</ele>
        <time>2022-08-14T15:24:13Z</time>
      </trkpt>
      <trkpt lat="4.2540970" lon="-76.0627500">
        <ele>1146.4</ele>
        <time>2022-08-14T15:24:14Z</time>
      </trkpt>
      <trkpt lat="4.2541920" lon="-76.0627830">
        <ele>1145.8</ele>
        <time>2022-08-14T15:24:15Z</time>
      </trkpt>
      <trkpt lat="4.2542930" lon="-76.0628010">
        <ele>1145.2</ele>
        <time>2022-08-14T15:24:16Z</time>
      </trkpt>
      <trkpt lat="4.2543980" lon="-76.0628100">
        <ele>1144.8</ele>
        <time>2022-08-14T15:24:17Z</time>
      </trkpt>
      <trkpt lat="4.2544830" lon="-76.0628180">
        <ele>1143.8</ele>
        <time>2022-08-14T15:24:18Z</time>
      </trkpt>
      <trkpt lat="4.2546060" lon="-76.0628420">
        <ele>1143.0</ele>
        <time>2022-08-14T15:24:19Z</time>
      </trkpt>
      <trkpt lat="4.2546840" lon="-76.0628710">
        <ele>1142.0</ele>
        <time>2022-08-14T15:24:20Z</time>
      </trkpt>
      <trkpt lat="4.2547910" lon="-76.0629340">
        <ele>1141.2</ele>
        <time>2022-08-14T15:24:21Z</time>
      </trkpt>
      <trkpt lat="4.2548660" lon="-76.0630080">
        <ele>1140.0</ele>
        <time>2022-08-14T15:24:22Z</time>
      </trkpt>
      <trkpt lat="4.2549180" lon="-76.0630770">
        <ele>1139.0</ele>
        <time>2022-08-14T15:24:23Z</time>
      </trkpt>
      <trkpt lat="4.2549710" lon="-76.0631720">
        <ele>1138.2</ele>
        <time>2022-08-14T15:24:24Z</time>
      </trkpt>
      <trkpt lat="4.2550110" lon="-76.0632750">
        <ele>1137.4</ele>
        <time>2022-08-14T15:24:25Z</time>
      </trkpt>
      <trkpt lat="4.2550790" lon="-76.0635120">
        <ele>1135.4</ele>
        <time>2022-08-14T15:24:27Z</time>
      </trkpt>
      <trkpt lat="4.2551080" lon="-76.0636200">
        <ele>1134.4</ele>
        <time>2022-08-14T15:24:28Z</time>
      </trkpt>
      <trkpt lat="4.2551260" lon="-76.0637070">
        <ele>1133.6</ele>
        <time>2022-08-14T15:24:29Z</time>
      </trkpt>
      <trkpt lat="4.2551390" lon="-76.0638170">
        <ele>1133.0</ele>
        <time>2022-08-14T15:24:30Z</time>
      </trkpt>
      <trkpt lat="4.2551370" lon="-76.0639500">
        <ele>1132.0</ele>
        <time>2022-08-14T15:24:31Z</time>
      </trkpt>
      <trkpt lat="4.2551190" lon="-76.0640580">
        <ele>1131.2</ele>
        <time>2022-08-14T15:24:32Z</time>
      </trkpt>
      <trkpt lat="4.2550920" lon="-76.0641600">
        <ele>1130.4</ele>
        <time>2022-08-14T15:24:33Z</time>
      </trkpt>
      <trkpt lat="4.2550600" lon="-76.0642420">
        <ele>1129.6</ele>
        <time>2022-08-14T15:24:34Z</time>
      </trkpt>
      <trkpt lat="4.2550150" lon="-76.0643440">
        <ele>1128.4</ele>
        <time>2022-08-14T15:24:35Z</time>
      </trkpt>
      <trkpt lat="4.2549590" lon="-76.0644660">
        <ele>1127.2</ele>
        <time>2022-08-14T15:24:36Z</time>
      </trkpt>
      <trkpt lat="4.2548690" lon="-76.0646830">
        <ele>1125.6</ele>
        <time>2022-08-14T15:24:38Z</time>
      </trkpt>
      <trkpt lat="4.2548040" lon="-76.0648950">
        <ele>1125.2</ele>
        <time>2022-08-14T15:24:40Z</time>
      </trkpt>
      <trkpt lat="4.2547840" lon="-76.0650160">
        <ele>1125.0</ele>
        <time>2022-08-14T15:24:41Z</time>
      </trkpt>
      <trkpt lat="4.2547750" lon="-76.0652710">
        <ele>1124.4</ele>
        <time>2022-08-14T15:24:43Z</time>
      </trkpt>
      <trkpt lat="4.2547950" lon="-76.0654800">
        <ele>1122.6</ele>
        <time>2022-08-14T15:24:45Z</time>
      </trkpt>
      <trkpt lat="4.2548240" lon="-76.0656710">
        <ele>1120.2</ele>
        <time>2022-08-14T15:24:47Z</time>
      </trkpt>
      <trkpt lat="4.2548660" lon="-76.0658950">
        <ele>1119.2</ele>
        <time>2022-08-14T15:24:50Z</time>
      </trkpt>
      <trkpt lat="4.2548770" lon="-76.0659660">
        <ele>1119.2</ele>
        <time>2022-08-14T15:24:51Z</time>
      </trkpt>
      <trkpt lat="4.2549220" lon="-76.0662150">
        <ele>1119.0</ele>
        <time>2022-08-14T15:24:55Z</time>
      </trkpt>
      <trkpt lat="4.2549360" lon="-76.0663300">
        <ele>1119.2</ele>
        <time>2022-08-14T15:24:57Z</time>
      </trkpt>
      <trkpt lat="4.2549520" lon="-76.0664170">
        <ele>1120.4</ele>
        <time>2022-08-14T15:24:59Z</time>
      </trkpt>
      <trkpt lat="4.2549690" lon="-76.0665390">
        <ele>1122.0</ele>
        <time>2022-08-14T15:25:02Z</time>
      </trkpt>
      <trkpt lat="4.2549800" lon="-76.0666120">
        <ele>1122.8</ele>
        <time>2022-08-14T15:25:04Z</time>
      </trkpt>
      <trkpt lat="4.2549890" lon="-76.0666710">
        <ele>1123.2</ele>
        <time>2022-08-14T15:25:06Z</time>
      </trkpt>
      <trkpt lat="4.2550220" lon="-76.0667610">
        <ele>1124.4</ele>
        <time>2022-08-14T15:25:09Z</time>
      </trkpt>
      <trkpt lat="4.2550470" lon="-76.0668090">
        <ele>1125.0</ele>
        <time>2022-08-14T15:25:11Z</time>
      </trkpt>
      <trkpt lat="4.2550610" lon="-76.0668430">
        <ele>1125.4</ele>
        <time>2022-08-14T15:25:12Z</time>
      </trkpt>
      <trkpt lat="4.2551010" lon="-76.0669550">
        <ele>1126.4</ele>
        <time>2022-08-14T15:25:16Z</time>
      </trkpt>
      <trkpt lat="4.2551390" lon="-76.0670080">
        <ele>1127.0</ele>
        <time>2022-08-14T15:25:18Z</time>
      </trkpt>
      <trkpt lat="4.2551760" lon="-76.0670820">
        <ele>1127.8</ele>
        <time>2022-08-14T15:25:21Z</time>
      </trkpt>
      <trkpt lat="4.2552140" lon="-76.0671420">
        <ele>1128.2</ele>
        <time>2022-08-14T15:25:23Z</time>
      </trkpt>
      <trkpt lat="4.2552780" lon="-76.0672270">
        <ele>1128.6</ele>
        <time>2022-08-14T15:25:27Z</time>
      </trkpt>
      <trkpt lat="4.2552980" lon="-76.0672550">
        <ele>1129.0</ele>
        <time>2022-08-14T15:25:28Z</time>
      </trkpt>
      <trkpt lat="4.2553520" lon="-76.0673180">
        <ele>1129.4</ele>
        <time>2022-08-14T15:25:31Z</time>
      </trkpt>
      <trkpt lat="4.2554250" lon="-76.0673770">
        <ele>1130.0</ele>
        <time>2022-08-14T15:25:34Z</time>
      </trkpt>
      <trkpt lat="4.2554840" lon="-76.0674330">
        <ele>1130.6</ele>
        <time>2022-08-14T15:25:37Z</time>
      </trkpt>
      <trkpt lat="4.2555680" lon="-76.0675120">
        <ele>1131.2</ele>
        <time>2022-08-14T15:25:41Z</time>
      </trkpt>
      <trkpt lat="4.2556160" lon="-76.0675530">
        <ele>1131.6</ele>
        <time>2022-08-14T15:25:43Z</time>
      </trkpt>
      <trkpt lat="4.2556900" lon="-76.0676360">
        <ele>1132.2</ele>
        <time>2022-08-14T15:25:47Z</time>
      </trkpt>
      <trkpt lat="4.2557890" lon="-76.0677600">
        <ele>1132.8</ele>
        <time>2022-08-14T15:25:52Z</time>
      </trkpt>
      <trkpt lat="4.2558620" lon="-76.0679000">
        <ele>1133.2</ele>
        <time>2022-08-14T15:25:57Z</time>
      </trkpt>
      <trkpt lat="4.2558910" lon="-76.0679600">
        <ele>1133.6</ele>
        <time>2022-08-14T15:25:59Z</time>
      </trkpt>
      <trkpt lat="4.2559550" lon="-76.0681280">
        <ele>1134.4</ele>
        <time>2022-08-14T15:26:05Z</time>
      </trkpt>
      <trkpt lat="4.2560040" lon="-76.0682650">
        <ele>1135.2</ele>
        <time>2022-08-14T15:26:10Z</time>
      </trkpt>
      <trkpt lat="4.2560110" lon="-76.0682890">
        <ele>1135.4</ele>
        <time>2022-08-14T15:26:11Z</time>
      </trkpt>
      <trkpt lat="4.2560860" lon="-76.0684690">
        <ele>1136.8</ele>
        <time>2022-08-14T15:26:18Z</time>
      </trkpt>
      <trkpt lat="4.2561560" lon="-76.0686460">
        <ele>1138.0</ele>
        <time>2022-08-14T15:26:24Z</time>
      </trkpt>
      <trkpt lat="4.2561760" lon="-76.0687030">
        <ele>1138.2</ele>
        <time>2022-08-14T15:26:26Z</time>
      </trkpt>
      <trkpt lat="4.2562730" lon="-76.0688580">
        <ele>1139.0</ele>
        <time>2022-08-14T15:26:32Z</time>
      </trkpt>
      <trkpt lat="4.2562910" lon="-76.0688840">
        <ele>1139.0</ele>
        <time>2022-08-14T15:26:33Z</time>
      </trkpt>
      <trkpt lat="4.2563990" lon="-76.0690380">
        <ele>1140.0</ele>
        <time>2022-08-14T15:26:39Z</time>
      </trkpt>
      <trkpt lat="4.2564440" lon="-76.0691110">
        <ele>1140.4</ele>
        <time>2022-08-14T15:26:42Z</time>
      </trkpt>
      <trkpt lat="4.2565410" lon="-76.0692340">
        <ele>1141.2</ele>
        <time>2022-08-14T15:26:47Z</time>
      </trkpt>
      <trkpt lat="4.2565970" lon="-76.0693150">
        <ele>1141.6</ele>
        <time>2022-08-14T15:26:50Z</time>
      </trkpt>
      <trkpt lat="4.2567320" lon="-76.0695430">
        <ele>1142.2</ele>
        <time>2022-08-14T15:26:59Z</time>
      </trkpt>
      <trkpt lat="4.2567450" lon="-76.0695700">
        <ele>1142.4</ele>
        <time>2022-08-14T15:27:00Z</time>
      </trkpt>
      <trkpt lat="4.2567810" lon="-76.0696810">
        <ele>1143.4</ele>
        <time>2022-08-14T15:27:04Z</time>
      </trkpt>
      <trkpt lat="4.2567900" lon="-76.0697090">
        <ele>1143.6</ele>
        <time>2022-08-14T15:27:05Z</time>
      </trkpt>
      <trkpt lat="4.2568000" lon="-76.0697360">
        <ele>1143.8</ele>
        <time>2022-08-14T15:27:06Z</time>
      </trkpt>
      <trkpt lat="4.2568240" lon="-76.0698730">
        <ele>1144.6</ele>
        <time>2022-08-14T15:27:11Z</time>
      </trkpt>
      <trkpt lat="4.2568360" lon="-76.0699820">
        <ele>1145.2</ele>
        <time>2022-08-14T15:27:15Z</time>
      </trkpt>
      <trkpt lat="4.2568360" lon="-76.0700670">
        <ele>1145.8</ele>
        <time>2022-08-14T15:27:18Z</time>
      </trkpt>
      <trkpt lat="4.2568420" lon="-76.0702220">
        <ele>1147.0</ele>
        <time>2022-08-14T15:27:23Z</time>
      </trkpt>
      <trkpt lat="4.2568970" lon="-76.0704180">
        <ele>1147.8</ele>
        <time>2022-08-14T15:27:29Z</time>
      </trkpt>
      <trkpt lat="4.2569400" lon="-76.0705180">
        <ele>1148.0</ele>
        <time>2022-08-14T15:27:32Z</time>
      </trkpt>
      <trkpt lat="4.2570030" lon="-76.0706230">
        <ele>1148.4</ele>
        <time>2022-08-14T15:27:35Z</time>
      </trkpt>
      <trkpt lat="4.2570490" lon="-76.0706810">
        <ele>1148.6</ele>
        <time>2022-08-14T15:27:37Z</time>
      </trkpt>
      <trkpt lat="4.2572470" lon="-76.0708810">
        <ele>1148.8</ele>
        <time>2022-08-14T15:27:43Z</time>
      </trkpt>
      <trkpt lat="4.2572930" lon="-76.0709170">
        <ele>1148.8</ele>
        <time>2022-08-14T15:27:44Z</time>
      </trkpt>
      <trkpt lat="4.2574420" lon="-76.0710250">
        <ele>1148.8</ele>
        <time>2022-08-14T15:27:47Z</time>
      </trkpt>
      <trkpt lat="4.2576140" lon="-76.0711640">
        <ele>1148.2</ele>
        <time>2022-08-14T15:27:50Z</time>
      </trkpt>
      <trkpt lat="4.2576740" lon="-76.0712100">
        <ele>1147.8</ele>
        <time>2022-08-14T15:27:51Z</time>
      </trkpt>
      <trkpt lat="4.2577350" lon="-76.0712510">
        <ele>1147.0</ele>
        <time>2022-08-14T15:27:53Z</time>
      </trkpt>
      <trkpt lat="4.2579220" lon="-76.0713900">
        <ele>1146.2</ele>
        <time>2022-08-14T15:27:55Z</time>
      </trkpt>
      <trkpt lat="4.2579870" lon="-76.0714410">
        <ele>1145.8</ele>
        <time>2022-08-14T15:27:56Z</time>
      </trkpt>
      <trkpt lat="4.2582580" lon="-76.0716360">
        <ele>1144.6</ele>
        <time>2022-08-14T15:28:00Z</time>
      </trkpt>
      <trkpt lat="4.2583250" lon="-76.0716840">
        <ele>1144.2</ele>
        <time>2022-08-14T15:28:01Z</time>
      </trkpt>
      <trkpt lat="4.2583930" lon="-76.0717330">
        <ele>1143.4</ele>
        <time>2022-08-14T15:28:02Z</time>
      </trkpt>
      <trkpt lat="4.2585100" lon="-76.0718340">
        <ele>1142.0</ele>
        <time>2022-08-14T15:28:04Z</time>
      </trkpt>
      <trkpt lat="4.2585700" lon="-76.0718820">
        <ele>1141.4</ele>
        <time>2022-08-14T15:28:05Z</time>
      </trkpt>
      <trkpt lat="4.2588290" lon="-76.0720900">
        <ele>1141.0</ele>
        <time>2022-08-14T15:28:10Z</time>
      </trkpt>
      <trkpt lat="4.2589850" lon="-76.0722920">
        <ele>1141.0</ele>
        <time>2022-08-14T15:28:15Z</time>
      </trkpt>
      <trkpt lat="4.2590500" lon="-76.0724850">
        <ele>1143.4</ele>
        <time>2022-08-14T15:28:20Z</time>
      </trkpt>
      <trkpt lat="4.2590630" lon="-76.0725300">
        <ele>1143.8</ele>
        <time>2022-08-14T15:28:21Z</time>
      </trkpt>
      <trkpt lat="4.2590740" lon="-76.0725650">
        <ele>1144.4</ele>
        <time>2022-08-14T15:28:22Z</time>
      </trkpt>
      <trkpt lat="4.2591160" lon="-76.0727020">
        <ele>1145.6</ele>
        <time>2022-08-14T15:28:26Z</time>
      </trkpt>
      <trkpt lat="4.2591420" lon="-76.0727590">
        <ele>1146.0</ele>
        <time>2022-08-14T15:28:28Z</time>
      </trkpt>
      <trkpt lat="4.2591630" lon="-76.0727880">
        <ele>1146.2</ele>
        <time>2022-08-14T15:28:29Z</time>
      </trkpt>
      <trkpt lat="4.2592630" lon="-76.0728830">
        <ele>1147.0</ele>
        <time>2022-08-14T15:28:33Z</time>
      </trkpt>
      <trkpt lat="4.2592890" lon="-76.0729000">
        <ele>1147.2</ele>
        <time>2022-08-14T15:28:34Z</time>
      </trkpt>
      <trkpt lat="4.2593990" lon="-76.0729630">
        <ele>1148.2</ele>
        <time>2022-08-14T15:28:38Z</time>
      </trkpt>
      <trkpt lat="4.2595160" lon="-76.0730200">
        <ele>1149.2</ele>
        <time>2022-08-14T15:28:42Z</time>
      </trkpt>
      <trkpt lat="4.2596620" lon="-76.0730970">
        <ele>1150.2</ele>
        <time>2022-08-14T15:28:48Z</time>
      </trkpt>
      <trkpt lat="4.2597040" lon="-76.0731270">
        <ele>1150.8</ele>
        <time>2022-08-14T15:28:50Z</time>
      </trkpt>
      <trkpt lat="4.2597570" lon="-76.0731690">
        <ele>1151.6</ele>
        <time>2022-08-14T15:28:53Z</time>
      </trkpt>
      <trkpt lat="4.2598630" lon="-76.0732580">
        <ele>1152.4</ele>
        <time>2022-08-14T15:28:59Z</time>
      </trkpt>
      <trkpt lat="4.2598790" lon="-76.0732780">
        <ele>1152.6</ele>
        <time>2022-08-14T15:29:00Z</time>
      </trkpt>
      <trkpt lat="4.2599680" lon="-76.0733770">
        <ele>1153.8</ele>
        <time>2022-08-14T15:29:06Z</time>
      </trkpt>
      <trkpt lat="4.2599790" lon="-76.0733960">
        <ele>1154.0</ele>
        <time>2022-08-14T15:29:07Z</time>
      </trkpt>
      <trkpt lat="4.2600330" lon="-76.0734860">
        <ele>1154.8</ele>
        <time>2022-08-14T15:29:12Z</time>
      </trkpt>
      <trkpt lat="4.2600670" lon="-76.0735330">
        <ele>1155.6</ele>
        <time>2022-08-14T15:29:15Z</time>
      </trkpt>
      <trkpt lat="4.2601070" lon="-76.0736090">
        <ele>1156.2</ele>
        <time>2022-08-14T15:29:19Z</time>
      </trkpt>
      <trkpt lat="4.2601590" lon="-76.0737230">
        <ele>1157.4</ele>
        <time>2022-08-14T15:29:25Z</time>
      </trkpt>
      <trkpt lat="4.2602330" lon="-76.0738590">
        <ele>1158.0</ele>
        <time>2022-08-14T15:29:32Z</time>
      </trkpt>
      <trkpt lat="4.2602430" lon="-76.0738800">
        <ele>1158.4</ele>
        <time>2022-08-14T15:29:33Z</time>
      </trkpt>
      <trkpt lat="4.2602600" lon="-76.0739210">
        <ele>1158.8</ele>
        <time>2022-08-14T15:29:35Z</time>
      </trkpt>
      <trkpt lat="4.2603160" lon="-76.0740530">
        <ele>1159.6</ele>
        <time>2022-08-14T15:29:41Z</time>
      </trkpt>
      <trkpt lat="4.2603490" lon="-76.0741230">
        <ele>1160.4</ele>
        <time>2022-08-14T15:29:44Z</time>
      </trkpt>
      <trkpt lat="4.2603560" lon="-76.0741480">
        <ele>1160.6</ele>
        <time>2022-08-14T15:29:45Z</time>
      </trkpt>
      <trkpt lat="4.2603640" lon="-76.0741730">
        <ele>1161.0</ele>
        <time>2022-08-14T15:29:46Z</time>
      </trkpt>
      <trkpt lat="4.2604300" lon="-76.0743430">
        <ele>1162.0</ele>
        <time>2022-08-14T15:29:53Z</time>
      </trkpt>
      <trkpt lat="4.2604600" lon="-76.0744140">
        <ele>1162.6</ele>
        <time>2022-08-14T15:29:56Z</time>
      </trkpt>
      <trkpt lat="4.2604850" lon="-76.0744900">
        <ele>1163.2</ele>
        <time>2022-08-14T15:29:59Z</time>
      </trkpt>
      <trkpt lat="4.2605380" lon="-76.0746510">
        <ele>1164.2</ele>
        <time>2022-08-14T15:30:05Z</time>
      </trkpt>
      <trkpt lat="4.2605640" lon="-76.0747320">
        <ele>1164.6</ele>
        <time>2022-08-14T15:30:08Z</time>
      </trkpt>
      <trkpt lat="4.2606080" lon="-76.0748380">
        <ele>1165.2</ele>
        <time>2022-08-14T15:30:12Z</time>
      </trkpt>
      <trkpt lat="4.2606190" lon="-76.0748650">
        <ele>1165.4</ele>
        <time>2022-08-14T15:30:13Z</time>
      </trkpt>
      <trkpt lat="4.2606680" lon="-76.0749410">
        <ele>1165.6</ele>
        <time>2022-08-14T15:30:16Z</time>
      </trkpt>
      <trkpt lat="4.2608140" lon="-76.0751260">
        <ele>1166.4</ele>
        <time>2022-08-14T15:30:23Z</time>
      </trkpt>
      <trkpt lat="4.2608400" lon="-76.0751590">
        <ele>1166.6</ele>
        <time>2022-08-14T15:30:24Z</time>
      </trkpt>
      <trkpt lat="4.2609320" lon="-76.0752760">
        <ele>1167.0</ele>
        <time>2022-08-14T15:30:28Z</time>
      </trkpt>
      <trkpt lat="4.2610960" lon="-76.0754610">
        <ele>1167.6</ele>
        <time>2022-08-14T15:30:34Z</time>
      </trkpt>
      <trkpt lat="4.2612360" lon="-76.0756000">
        <ele>1167.8</ele>
        <time>2022-08-14T15:30:38Z</time>
      </trkpt>
      <trkpt lat="4.2613150" lon="-76.0756710">
        <ele>1167.8</ele>
        <time>2022-08-14T15:30:40Z</time>
      </trkpt>
      <trkpt lat="4.2616190" lon="-76.0759370">
        <ele>1167.6</ele>
        <time>2022-08-14T15:30:47Z</time>
      </trkpt>
      <trkpt lat="4.2616570" lon="-76.0759840">
        <ele>1167.6</ele>
        <time>2022-08-14T15:30:48Z</time>
      </trkpt>
      <trkpt lat="4.2617170" lon="-76.0760870">
        <ele>1167.6</ele>
        <time>2022-08-14T15:30:50Z</time>
      </trkpt>
      <trkpt lat="4.2617430" lon="-76.0762090">
        <ele>1167.2</ele>
        <time>2022-08-14T15:30:52Z</time>
      </trkpt>
      <trkpt lat="4.2617240" lon="-76.0763380">
        <ele>1167.0</ele>
        <time>2022-08-14T15:30:54Z</time>
      </trkpt>
      <trkpt lat="4.2616950" lon="-76.0764020">
        <ele>1166.8</ele>
        <time>2022-08-14T15:30:55Z</time>
      </trkpt>
      <trkpt lat="4.2616660" lon="-76.0764630">
        <ele>1166.6</ele>
        <time>2022-08-14T15:30:56Z</time>
      </trkpt>
      <trkpt lat="4.2616300" lon="-76.0765200">
        <ele>1166.4</ele>
        <time>2022-08-14T15:30:57Z</time>
      </trkpt>
      <trkpt lat="4.2615210" lon="-76.0766270">
        <ele>1166.0</ele>
        <time>2022-08-14T15:30:59Z</time>
      </trkpt>
      <trkpt lat="4.2614580" lon="-76.0766740">
        <ele>1165.6</ele>
        <time>2022-08-14T15:31:00Z</time>
      </trkpt>
      <trkpt lat="4.2613950" lon="-76.0767220">
        <ele>1165.2</ele>
        <time>2022-08-14T15:31:01Z</time>
      </trkpt>
      <trkpt lat="4.2612040" lon="-76.0768590">
        <ele>1164.6</ele>
        <time>2022-08-14T15:31:04Z</time>
      </trkpt>
      <trkpt lat="4.2610750" lon="-76.0769550">
        <ele>1163.8</ele>
        <time>2022-08-14T15:31:06Z</time>
      </trkpt>
      <trkpt lat="4.2610090" lon="-76.0770060">
        <ele>1163.4</ele>
        <time>2022-08-14T15:31:07Z</time>
      </trkpt>
      <trkpt lat="4.2606280" lon="-76.0773160">
        <ele>1162.4</ele>
        <time>2022-08-14T15:31:13Z</time>
      </trkpt>
      <trkpt lat="4.2604310" lon="-76.0774780">
        <ele>1161.6</ele>
        <time>2022-08-14T15:31:16Z</time>
      </trkpt>
      <trkpt lat="4.2603150" lon="-76.0776040">
        <ele>1161.2</ele>
        <time>2022-08-14T15:31:18Z</time>
      </trkpt>
      <trkpt lat="4.2602650" lon="-76.0776720">
        <ele>1161.2</ele>
        <time>2022-08-14T15:31:19Z</time>
      </trkpt>
      <trkpt lat="4.2601750" lon="-76.0778150">
        <ele>1161.0</ele>
        <time>2022-08-14T15:31:21Z</time>
      </trkpt>
      <trkpt lat="4.2599790" lon="-76.0782570">
        <ele>1160.2</ele>
        <time>2022-08-14T15:31:27Z</time>
      </trkpt>
      <trkpt lat="4.2599460" lon="-76.0783310">
        <ele>1160.0</ele>
        <time>2022-08-14T15:31:28Z</time>
      </trkpt>
      <trkpt lat="4.2597600" lon="-76.0787880">
        <ele>1159.8</ele>
        <time>2022-08-14T15:31:35Z</time>
      </trkpt>
      <trkpt lat="4.2595840" lon="-76.0791680">
        <ele>1160.2</ele>
        <time>2022-08-14T15:31:42Z</time>
      </trkpt>
      <trkpt lat="4.2594590" lon="-76.0793680">
        <ele>1161.2</ele>
        <time>2022-08-14T15:31:47Z</time>
      </trkpt>
      <trkpt lat="4.2594350" lon="-76.0793990">
        <ele>1161.8</ele>
        <time>2022-08-14T15:31:48Z</time>
      </trkpt>
      <trkpt lat="4.2593780" lon="-76.0794820">
        <ele>1162.6</ele>
        <time>2022-08-14T15:31:51Z</time>
      </trkpt>
      <trkpt lat="4.2593240" lon="-76.0795590">
        <ele>1163.6</ele>
        <time>2022-08-14T15:31:54Z</time>
      </trkpt>
      <trkpt lat="4.2593040" lon="-76.0795810">
        <ele>1163.8</ele>
        <time>2022-08-14T15:31:55Z</time>
      </trkpt>
      <trkpt lat="4.2592410" lon="-76.0796480">
        <ele>1164.8</ele>
        <time>2022-08-14T15:31:58Z</time>
      </trkpt>
      <trkpt lat="4.2591370" lon="-76.0797490">
        <ele>1166.0</ele>
        <time>2022-08-14T15:32:03Z</time>
      </trkpt>
      <trkpt lat="4.2590280" lon="-76.0798280">
        <ele>1167.0</ele>
        <time>2022-08-14T15:32:08Z</time>
      </trkpt>
      <trkpt lat="4.2589920" lon="-76.0798570">
        <ele>1167.4</ele>
        <time>2022-08-14T15:32:10Z</time>
      </trkpt>
      <trkpt lat="4.2589360" lon="-76.0799010">
        <ele>1168.2</ele>
        <time>2022-08-14T15:32:13Z</time>
      </trkpt>
      <trkpt lat="4.2588050" lon="-76.0800000">
        <ele>1169.6</ele>
        <time>2022-08-14T15:32:20Z</time>
      </trkpt>
      <trkpt lat="4.2587850" lon="-76.0800140">
        <ele>1169.8</ele>
        <time>2022-08-14T15:32:21Z</time>
      </trkpt>
      <trkpt lat="4.2587330" lon="-76.0800570">
        <ele>1170.6</ele>
        <time>2022-08-14T15:32:24Z</time>
      </trkpt>
      <trkpt lat="4.2586460" lon="-76.0801200">
        <ele>1171.8</ele>
        <time>2022-08-14T15:32:29Z</time>
      </trkpt>
      <trkpt lat="4.2586150" lon="-76.0801440">
        <ele>1172.2</ele>
        <time>2022-08-14T15:32:31Z</time>
      </trkpt>
      <trkpt lat="4.2585360" lon="-76.0802030">
        <ele>1173.0</ele>
        <time>2022-08-14T15:32:36Z</time>
      </trkpt>
      <trkpt lat="4.2585000" lon="-76.0802310">
        <ele>1173.4</ele>
        <time>2022-08-14T15:32:38Z</time>
      </trkpt>
      <trkpt lat="4.2584510" lon="-76.0802700">
        <ele>1174.2</ele>
        <time>2022-08-14T15:32:41Z</time>
      </trkpt>
      <trkpt lat="4.2583510" lon="-76.0803530">
        <ele>1175.2</ele>
        <time>2022-08-14T15:32:46Z</time>
      </trkpt>
      <trkpt lat="4.2582640" lon="-76.0804390">
        <ele>1176.0</ele>
        <time>2022-08-14T15:32:51Z</time>
      </trkpt>
      <trkpt lat="4.2582130" lon="-76.0804880">
        <ele>1176.6</ele>
        <time>2022-08-14T15:32:54Z</time>
      </trkpt>
      <trkpt lat="4.2581790" lon="-76.0805210">
        <ele>1177.0</ele>
        <time>2022-08-14T15:32:56Z</time>
      </trkpt>
      <trkpt lat="4.2581250" lon="-76.0805660">
        <ele>1177.4</ele>
        <time>2022-08-14T15:32:59Z</time>
      </trkpt>
      <trkpt lat="4.2580700" lon="-76.0806140">
        <ele>1177.6</ele>
        <time>2022-08-14T15:33:02Z</time>
      </trkpt>
      <trkpt lat="4.2579480" lon="-76.0807060">
        <ele>1178.8</ele>
        <time>2022-08-14T15:33:08Z</time>
      </trkpt>
      <trkpt lat="4.2579270" lon="-76.0807180">
        <ele>1178.8</ele>
        <time>2022-08-14T15:33:09Z</time>
      </trkpt>
      <trkpt lat="4.2578010" lon="-76.0808000">
        <ele>1179.8</ele>
        <time>2022-08-14T15:33:15Z</time>
      </trkpt>
      <trkpt lat="4.2577560" lon="-76.0808210">
        <ele>1180.0</ele>
        <time>2022-08-14T15:33:17Z</time>
      </trkpt>
      <trkpt lat="4.2577320" lon="-76.0808240">
        <ele>1180.2</ele>
        <time>2022-08-14T15:33:18Z</time>
      </trkpt>
      <trkpt lat="4.2576510" lon="-76.0808390">
        <ele>1180.8</ele>
        <time>2022-08-14T15:33:21Z</time>
      </trkpt>
      <trkpt lat="4.2575100" lon="-76.0808380">
        <ele>1181.6</ele>
        <time>2022-08-14T15:33:26Z</time>
      </trkpt>
      <trkpt lat="4.2574320" lon="-76.0808180">
        <ele>1181.8</ele>
        <time>2022-08-14T15:33:29Z</time>
      </trkpt>
      <trkpt lat="4.2572580" lon="-76.0807680">
        <ele>1182.8</ele>
        <time>2022-08-14T15:33:35Z</time>
      </trkpt>
      <trkpt lat="4.2571940" lon="-76.0807620">
        <ele>1183.0</ele>
        <time>2022-08-14T15:33:37Z</time>
      </trkpt>
      <trkpt lat="4.2569870" lon="-76.0807820">
        <ele>1183.8</ele>
        <time>2022-08-14T15:33:43Z</time>
      </trkpt>
      <trkpt lat="4.2569180" lon="-76.0808140">
        <ele>1184.2</ele>
        <time>2022-08-14T15:33:45Z</time>
      </trkpt>
      <trkpt lat="4.2568470" lon="-76.0808550">
        <ele>1184.8</ele>
        <time>2022-08-14T15:33:47Z</time>
      </trkpt>
      <trkpt lat="4.2567740" lon="-76.0809020">
        <ele>1185.0</ele>
        <time>2022-08-14T15:33:49Z</time>
      </trkpt>
      <trkpt lat="4.2565320" lon="-76.0811150">
        <ele>1185.0</ele>
        <time>2022-08-14T15:33:56Z</time>
      </trkpt>
      <trkpt lat="4.2564980" lon="-76.0811570">
        <ele>1185.0</ele>
        <time>2022-08-14T15:33:57Z</time>
      </trkpt>
      <trkpt lat="4.2564370" lon="-76.0812550">
        <ele>1185.0</ele>
        <time>2022-08-14T15:33:59Z</time>
      </trkpt>
      <trkpt lat="4.2563880" lon="-76.0813790">
        <ele>1185.0</ele>
        <time>2022-08-14T15:34:01Z</time>
      </trkpt>
      <trkpt lat="4.2563390" lon="-76.0815430">
        <ele>1184.6</ele>
        <time>2022-08-14T15:34:04Z</time>
      </trkpt>
      <trkpt lat="4.2563060" lon="-76.0816590">
        <ele>1184.6</ele>
        <time>2022-08-14T15:34:06Z</time>
      </trkpt>
      <trkpt lat="4.2562870" lon="-76.0817170">
        <ele>1184.4</ele>
        <time>2022-08-14T15:34:07Z</time>
      </trkpt>
      <trkpt lat="4.2562660" lon="-76.0817730">
        <ele>1184.0</ele>
        <time>2022-08-14T15:34:08Z</time>
      </trkpt>
      <trkpt lat="4.2561820" lon="-76.0819190">
        <ele>1183.4</ele>
        <time>2022-08-14T15:34:11Z</time>
      </trkpt>
      <trkpt lat="4.2561520" lon="-76.0819580">
        <ele>1183.2</ele>
        <time>2022-08-14T15:34:12Z</time>
      </trkpt>
      <trkpt lat="4.2561190" lon="-76.0819950">
        <ele>1183.0</ele>
        <time>2022-08-14T15:34:13Z</time>
      </trkpt>
      <trkpt lat="4.2559910" lon="-76.0821040">
        <ele>1182.6</ele>
        <time>2022-08-14T15:34:16Z</time>
      </trkpt>
      <trkpt lat="4.2559440" lon="-76.0821370">
        <ele>1182.6</ele>
        <time>2022-08-14T15:34:17Z</time>
      </trkpt>
      <trkpt lat="4.2555960" lon="-76.0823060">
        <ele>1182.4</ele>
        <time>2022-08-14T15:34:24Z</time>
      </trkpt>
      <trkpt lat="4.2552770" lon="-76.0824130">
        <ele>1182.8</ele>
        <time>2022-08-14T15:34:30Z</time>
      </trkpt>
      <trkpt lat="4.2549910" lon="-76.0825100">
        <ele>1182.8</ele>
        <time>2022-08-14T15:34:35Z</time>
      </trkpt>
      <trkpt lat="4.2544600" lon="-76.0826830">
        <ele>1182.6</ele>
        <time>2022-08-14T15:34:44Z</time>
      </trkpt>
      <trkpt lat="4.2541010" lon="-76.0828260">
        <ele>1182.0</ele>
        <time>2022-08-14T15:34:50Z</time>
      </trkpt>
      <trkpt lat="4.2539810" lon="-76.0828930">
        <ele>1181.8</ele>
        <time>2022-08-14T15:34:52Z</time>
      </trkpt>
      <trkpt lat="4.2538220" lon="-76.0830350">
        <ele>1181.2</ele>
        <time>2022-08-14T15:34:55Z</time>
      </trkpt>
      <trkpt lat="4.2537740" lon="-76.0830900">
        <ele>1180.6</ele>
        <time>2022-08-14T15:34:56Z</time>
      </trkpt>
      <trkpt lat="4.2536800" lon="-76.0832030">
        <ele>1180.0</ele>
        <time>2022-08-14T15:34:58Z</time>
      </trkpt>
      <trkpt lat="4.2536320" lon="-76.0832590">
        <ele>1179.4</ele>
        <time>2022-08-14T15:34:59Z</time>
      </trkpt>
      <trkpt lat="4.2534860" lon="-76.0834320">
        <ele>1178.8</ele>
        <time>2022-08-14T15:35:02Z</time>
      </trkpt>
      <trkpt lat="4.2533880" lon="-76.0835600">
        <ele>1178.2</ele>
        <time>2022-08-14T15:35:04Z</time>
      </trkpt>
      <trkpt lat="4.2533460" lon="-76.0836290">
        <ele>1178.0</ele>
        <time>2022-08-14T15:35:05Z</time>
      </trkpt>
      <trkpt lat="4.2532840" lon="-76.0837870">
        <ele>1177.0</ele>
        <time>2022-08-14T15:35:07Z</time>
      </trkpt>
      <trkpt lat="4.2532530" lon="-76.0839650">
        <ele>1176.6</ele>
        <time>2022-08-14T15:35:09Z</time>
      </trkpt>
      <trkpt lat="4.2532180" lon="-76.0842420">
        <ele>1175.8</ele>
        <time>2022-08-14T15:35:12Z</time>
      </trkpt>
      <trkpt lat="4.2531830" lon="-76.0844300">
        <ele>1174.6</ele>
        <time>2022-08-14T15:35:14Z</time>
      </trkpt>
      <trkpt lat="4.2531570" lon="-76.0845190">
        <ele>1173.6</ele>
        <time>2022-08-14T15:35:15Z</time>
      </trkpt>
      <trkpt lat="4.2531260" lon="-76.0846090">
        <ele>1173.0</ele>
        <time>2022-08-14T15:35:16Z</time>
      </trkpt>
      <trkpt lat="4.2530550" lon="-76.0847910">
        <ele>1171.2</ele>
        <time>2022-08-14T15:35:18Z</time>
      </trkpt>
      <trkpt lat="4.2529860" lon="-76.0849750">
        <ele>1170.2</ele>
        <time>2022-08-14T15:35:20Z</time>
      </trkpt>
      <trkpt lat="4.2529180" lon="-76.0851650">
        <ele>1168.6</ele>
        <time>2022-08-14T15:35:22Z</time>
      </trkpt>
      <trkpt lat="4.2528820" lon="-76.0852610">
        <ele>1167.4</ele>
        <time>2022-08-14T15:35:23Z</time>
      </trkpt>
      <trkpt lat="4.2528160" lon="-76.0854590">
        <ele>1166.0</ele>
        <time>2022-08-14T15:35:25Z</time>
      </trkpt>
      <trkpt lat="4.2527460" lon="-76.0856610">
        <ele>1164.6</ele>
        <time>2022-08-14T15:35:27Z</time>
      </trkpt>
      <trkpt lat="4.2527090" lon="-76.0857620">
        <ele>1163.6</ele>
        <time>2022-08-14T15:35:28Z</time>
      </trkpt>
      <trkpt lat="4.2526430" lon="-76.0859820">
        <ele>1161.6</ele>
        <time>2022-08-14T15:35:30Z</time>
      </trkpt>
      <trkpt lat="4.2526250" lon="-76.0860620">
        <ele>1160.4</ele>
        <time>2022-08-14T15:35:31Z</time>
      </trkpt>
      <trkpt lat="4.2526110" lon="-76.0861660">
        <ele>1159.4</ele>
        <time>2022-08-14T15:35:32Z</time>
      </trkpt>
      <trkpt lat="4.2526100" lon="-76.0862710">
        <ele>1158.4</ele>
        <time>2022-08-14T15:35:33Z</time>
      </trkpt>
      <trkpt lat="4.2526260" lon="-76.0863750">
        <ele>1157.6</ele>
        <time>2022-08-14T15:35:34Z</time>
      </trkpt>
      <trkpt lat="4.2526560" lon="-76.0864740">
        <ele>1156.8</ele>
        <time>2022-08-14T15:35:35Z</time>
      </trkpt>
      <trkpt lat="4.2527120" lon="-76.0866800">
        <ele>1155.2</ele>
        <time>2022-08-14T15:35:37Z</time>
      </trkpt>
      <trkpt lat="4.2527350" lon="-76.0867820">
        <ele>1154.4</ele>
        <time>2022-08-14T15:35:38Z</time>
      </trkpt>
      <trkpt lat="4.2527450" lon="-76.0868860">
        <ele>1153.6</ele>
        <time>2022-08-14T15:35:39Z</time>
      </trkpt>
      <trkpt lat="4.2527490" lon="-76.0869910">
        <ele>1152.6</ele>
        <time>2022-08-14T15:35:40Z</time>
      </trkpt>
      <trkpt lat="4.2527410" lon="-76.0871780">
        <ele>1150.6</ele>
        <time>2022-08-14T15:35:42Z</time>
      </trkpt>
      <trkpt lat="4.2527220" lon="-76.0872990">
        <ele>1149.4</ele>
        <time>2022-08-14T15:35:43Z</time>
      </trkpt>
      <trkpt lat="4.2527070" lon="-76.0873960">
        <ele>1148.2</ele>
        <time>2022-08-14T15:35:44Z</time>
      </trkpt>
      <trkpt lat="4.2527010" lon="-76.0874910">
        <ele>1147.2</ele>
        <time>2022-08-14T15:35:45Z</time>
      </trkpt>
      <trkpt lat="4.2527070" lon="-76.0875860">
        <ele>1146.2</ele>
        <time>2022-08-14T15:35:46Z</time>
      </trkpt>
      <trkpt lat="4.2527200" lon="-76.0876610">
        <ele>1146.2</ele>
        <time>2022-08-14T15:35:47Z</time>
      </trkpt>
      <trkpt lat="4.2528050" lon="-76.0878530">
        <ele>1144.4</ele>
        <time>2022-08-14T15:35:49Z</time>
      </trkpt>
      <trkpt lat="4.2529380" lon="-76.0880160">
        <ele>1142.6</ele>
        <time>2022-08-14T15:35:51Z</time>
      </trkpt>
      <trkpt lat="4.2530930" lon="-76.0881750">
        <ele>1141.6</ele>
        <time>2022-08-14T15:35:53Z</time>
      </trkpt>
      <trkpt lat="4.2531770" lon="-76.0882570">
        <ele>1141.2</ele>
        <time>2022-08-14T15:35:54Z</time>
      </trkpt>
      <trkpt lat="4.2533500" lon="-76.0884330">
        <ele>1139.4</ele>
        <time>2022-08-14T15:35:56Z</time>
      </trkpt>
      <trkpt lat="4.2534330" lon="-76.0885220">
        <ele>1138.0</ele>
        <time>2022-08-14T15:35:57Z</time>
      </trkpt>
      <trkpt lat="4.2535200" lon="-76.0886090">
        <ele>1136.8</ele>
        <time>2022-08-14T15:35:58Z</time>
      </trkpt>
      <trkpt lat="4.2536120" lon="-76.0886870">
        <ele>1135.8</ele>
        <time>2022-08-14T15:35:59Z</time>
      </trkpt>
      <trkpt lat="4.2537090" lon="-76.0887570">
        <ele>1134.4</ele>
        <time>2022-08-14T15:36:00Z</time>
      </trkpt>
      <trkpt lat="4.2538070" lon="-76.0888150">
        <ele>1133.0</ele>
        <time>2022-08-14T15:36:01Z</time>
      </trkpt>
      <trkpt lat="4.2539060" lon="-76.0888710">
        <ele>1131.6</ele>
        <time>2022-08-14T15:36:02Z</time>
      </trkpt>
      <trkpt lat="4.2540060" lon="-76.0889290">
        <ele>1130.2</ele>
        <time>2022-08-14T15:36:03Z</time>
      </trkpt>
      <trkpt lat="4.2541010" lon="-76.0889820">
        <ele>1128.8</ele>
        <time>2022-08-14T15:36:04Z</time>
      </trkpt>
      <trkpt lat="4.2541870" lon="-76.0890420">
        <ele>1127.6</ele>
        <time>2022-08-14T15:36:05Z</time>
      </trkpt>
      <trkpt lat="4.2543200" lon="-76.0891800">
        <ele>1126.8</ele>
        <time>2022-08-14T15:36:07Z</time>
      </trkpt>
      <trkpt lat="4.2543690" lon="-76.0892610">
        <ele>1126.8</ele>
        <time>2022-08-14T15:36:08Z</time>
      </trkpt>
      <trkpt lat="4.2544480" lon="-76.0894250">
        <ele>1126.6</ele>
        <time>2022-08-14T15:36:10Z</time>
      </trkpt>
      <trkpt lat="4.2544940" lon="-76.0895730">
        <ele>1126.6</ele>
        <time>2022-08-14T15:36:12Z</time>
      </trkpt>
      <trkpt lat="4.2545090" lon="-76.0896510">
        <ele>1126.6</ele>
        <time>2022-08-14T15:36:13Z</time>
      </trkpt>
      <trkpt lat="4.2545160" lon="-76.0897390">
        <ele>1126.6</ele>
        <time>2022-08-14T15:36:14Z</time>
      </trkpt>
      <trkpt lat="4.2544850" lon="-76.0898790">
        <ele>1126.6</ele>
        <time>2022-08-14T15:36:16Z</time>
      </trkpt>
      <trkpt lat="4.2544280" lon="-76.0899980">
        <ele>1126.6</ele>
        <time>2022-08-14T15:36:18Z</time>
      </trkpt>
      <trkpt lat="4.2543560" lon="-76.0901020">
        <ele>1127.0</ele>
        <time>2022-08-14T15:36:20Z</time>
      </trkpt>
      <trkpt lat="4.2542440" lon="-76.0902410">
        <ele>1128.0</ele>
        <time>2022-08-14T15:36:23Z</time>
      </trkpt>
      <trkpt lat="4.2541720" lon="-76.0903280">
        <ele>1128.8</ele>
        <time>2022-08-14T15:36:25Z</time>
      </trkpt>
      <trkpt lat="4.2541370" lon="-76.0903700">
        <ele>1129.2</ele>
        <time>2022-08-14T15:36:26Z</time>
      </trkpt>
      <trkpt lat="4.2541070" lon="-76.0904140">
        <ele>1129.6</ele>
        <time>2022-08-14T15:36:27Z</time>
      </trkpt>
      <trkpt lat="4.2540560" lon="-76.0905110">
        <ele>1130.4</ele>
        <time>2022-08-14T15:36:29Z</time>
      </trkpt>
      <trkpt lat="4.2540050" lon="-76.0906710">
        <ele>1131.2</ele>
        <time>2022-08-14T15:36:32Z</time>
      </trkpt>
      <trkpt lat="4.2539920" lon="-76.0907150">
        <ele>1131.4</ele>
        <time>2022-08-14T15:36:33Z</time>
      </trkpt>
      <trkpt lat="4.2539280" lon="-76.0911060">
        <ele>1132.0</ele>
        <time>2022-08-14T15:36:39Z</time>
      </trkpt>
      <trkpt lat="4.2539300" lon="-76.0912580">
        <ele>1132.0</ele>
        <time>2022-08-14T15:36:41Z</time>
      </trkpt>
      <trkpt lat="4.2539620" lon="-76.0914270">
        <ele>1132.0</ele>
        <time>2022-08-14T15:36:43Z</time>
      </trkpt>
      <trkpt lat="4.2541060" lon="-76.0918930">
        <ele>1131.0</ele>
        <time>2022-08-14T15:36:48Z</time>
      </trkpt>
      <trkpt lat="4.2541710" lon="-76.0920670">
        <ele>1130.2</ele>
        <time>2022-08-14T15:36:50Z</time>
      </trkpt>
      <trkpt lat="4.2542780" lon="-76.0922670">
        <ele>1128.2</ele>
        <time>2022-08-14T15:36:52Z</time>
      </trkpt>
      <trkpt lat="4.2543420" lon="-76.0923440">
        <ele>1127.2</ele>
        <time>2022-08-14T15:36:53Z</time>
      </trkpt>
      <trkpt lat="4.2544170" lon="-76.0924050">
        <ele>1126.2</ele>
        <time>2022-08-14T15:36:54Z</time>
      </trkpt>
      <trkpt lat="4.2544990" lon="-76.0924420">
        <ele>1125.2</ele>
        <time>2022-08-14T15:36:55Z</time>
      </trkpt>
      <trkpt lat="4.2545680" lon="-76.0924530">
        <ele>1124.0</ele>
        <time>2022-08-14T15:36:56Z</time>
      </trkpt>
      <trkpt lat="4.2546680" lon="-76.0924520">
        <ele>1122.8</ele>
        <time>2022-08-14T15:36:57Z</time>
      </trkpt>
      <trkpt lat="4.2547550" lon="-76.0924440">
        <ele>1121.8</ele>
        <time>2022-08-14T15:36:58Z</time>
      </trkpt>
      <trkpt lat="4.2548450" lon="-76.0924290">
        <ele>1121.2</ele>
        <time>2022-08-14T15:36:59Z</time>
      </trkpt>
      <trkpt lat="4.2550100" lon="-76.0923860">
        <ele>1120.2</ele>
        <time>2022-08-14T15:37:01Z</time>
      </trkpt>
      <trkpt lat="4.2551170" lon="-76.0923520">
        <ele>1119.8</ele>
        <time>2022-08-14T15:37:02Z</time>
      </trkpt>
      <trkpt lat="4.2552970" lon="-76.0922880">
        <ele>1119.0</ele>
        <time>2022-08-14T15:37:04Z</time>
      </trkpt>
      <trkpt lat="4.2555850" lon="-76.0921900">
        <ele>1117.8</ele>
        <time>2022-08-14T15:37:07Z</time>
      </trkpt>
      <trkpt lat="4.2557870" lon="-76.0921060">
        <ele>1116.0</ele>
        <time>2022-08-14T15:37:09Z</time>
      </trkpt>
      <trkpt lat="4.2559930" lon="-76.0920070">
        <ele>1115.0</ele>
        <time>2022-08-14T15:37:11Z</time>
      </trkpt>
      <trkpt lat="4.2560930" lon="-76.0919490">
        <ele>1114.0</ele>
        <time>2022-08-14T15:37:12Z</time>
      </trkpt>
      <trkpt lat="4.2561920" lon="-76.0918910">
        <ele>1113.0</ele>
        <time>2022-08-14T15:37:13Z</time>
      </trkpt>
      <trkpt lat="4.2562900" lon="-76.0918340">
        <ele>1112.0</ele>
        <time>2022-08-14T15:37:14Z</time>
      </trkpt>
      <trkpt lat="4.2564810" lon="-76.0917250">
        <ele>1110.0</ele>
        <time>2022-08-14T15:37:16Z</time>
      </trkpt>
      <trkpt lat="4.2565730" lon="-76.0916710">
        <ele>1109.0</ele>
        <time>2022-08-14T15:37:17Z</time>
      </trkpt>
      <trkpt lat="4.2567540" lon="-76.0915640">
        <ele>1107.0</ele>
        <time>2022-08-14T15:37:19Z</time>
      </trkpt>
      <trkpt lat="4.2569240" lon="-76.0914610">
        <ele>1105.2</ele>
        <time>2022-08-14T15:37:21Z</time>
      </trkpt>
      <trkpt lat="4.2570860" lon="-76.0913590">
        <ele>1104.4</ele>
        <time>2022-08-14T15:37:23Z</time>
      </trkpt>
      <trkpt lat="4.2571710" lon="-76.0913150">
        <ele>1104.2</ele>
        <time>2022-08-14T15:37:24Z</time>
      </trkpt>
      <trkpt lat="4.2574400" lon="-76.0912310">
        <ele>1103.6</ele>
        <time>2022-08-14T15:37:27Z</time>
      </trkpt>
      <trkpt lat="4.2576290" lon="-76.0912390">
        <ele>1103.4</ele>
        <time>2022-08-14T15:37:29Z</time>
      </trkpt>
      <trkpt lat="4.2576900" lon="-76.0912720">
        <ele>1103.4</ele>
        <time>2022-08-14T15:37:30Z</time>
      </trkpt>
      <trkpt lat="4.2577540" lon="-76.0913250">
        <ele>1103.2</ele>
        <time>2022-08-14T15:37:31Z</time>
      </trkpt>
      <trkpt lat="4.2578240" lon="-76.0914620">
        <ele>1103.4</ele>
        <time>2022-08-14T15:37:33Z</time>
      </trkpt>
      <trkpt lat="4.2578310" lon="-76.0915390">
        <ele>1103.2</ele>
        <time>2022-08-14T15:37:34Z</time>
      </trkpt>
      <trkpt lat="4.2578120" lon="-76.0916140">
        <ele>1103.0</ele>
        <time>2022-08-14T15:37:35Z</time>
      </trkpt>
      <trkpt lat="4.2577800" lon="-76.0916670">
        <ele>1103.0</ele>
        <time>2022-08-14T15:37:36Z</time>
      </trkpt>
      <trkpt lat="4.2577040" lon="-76.0917280">
        <ele>1103.0</ele>
        <time>2022-08-14T15:37:37Z</time>
      </trkpt>
      <trkpt lat="4.2576210" lon="-76.0917560">
        <ele>1103.2</ele>
        <time>2022-08-14T15:37:38Z</time>
      </trkpt>
      <trkpt lat="4.2575290" lon="-76.0917690">
        <ele>1102.8</ele>
        <time>2022-08-14T15:37:39Z</time>
      </trkpt>
      <trkpt lat="4.2572420" lon="-76.0917820">
        <ele>1102.4</ele>
        <time>2022-08-14T15:37:42Z</time>
      </trkpt>
      <trkpt lat="4.2571440" lon="-76.0917920">
        <ele>1102.2</ele>
        <time>2022-08-14T15:37:43Z</time>
      </trkpt>
      <trkpt lat="4.2569440" lon="-76.0918270">
        <ele>1101.8</ele>
        <time>2022-08-14T15:37:45Z</time>
      </trkpt>
      <trkpt lat="4.2567340" lon="-76.0918780">
        <ele>1101.4</ele>
        <time>2022-08-14T15:37:47Z</time>
      </trkpt>
      <trkpt lat="4.2566290" lon="-76.0919110">
        <ele>1100.8</ele>
        <time>2022-08-14T15:37:48Z</time>
      </trkpt>
      <trkpt lat="4.2564200" lon="-76.0919900">
        <ele>1099.6</ele>
        <time>2022-08-14T15:37:50Z</time>
      </trkpt>
      <trkpt lat="4.2562220" lon="-76.0920760">
        <ele>1098.4</ele>
        <time>2022-08-14T15:37:52Z</time>
      </trkpt>
      <trkpt lat="4.2561280" lon="-76.0921300">
        <ele>1097.6</ele>
        <time>2022-08-14T15:37:53Z</time>
      </trkpt>
      <trkpt lat="4.2560430" lon="-76.0921910">
        <ele>1096.8</ele>
        <time>2022-08-14T15:37:54Z</time>
      </trkpt>
      <trkpt lat="4.2558840" lon="-76.0923270">
        <ele>1095.4</ele>
        <time>2022-08-14T15:37:56Z</time>
      </trkpt>
      <trkpt lat="4.2558080" lon="-76.0923960">
        <ele>1094.2</ele>
        <time>2022-08-14T15:37:57Z</time>
      </trkpt>
      <trkpt lat="4.2556470" lon="-76.0925550">
        <ele>1092.8</ele>
        <time>2022-08-14T15:37:59Z</time>
      </trkpt>
      <trkpt lat="4.2555140" lon="-76.0926730">
        <ele>1090.8</ele>
        <time>2022-08-14T15:38:01Z</time>
      </trkpt>
      <trkpt lat="4.2553700" lon="-76.0927920">
        <ele>1089.8</ele>
        <time>2022-08-14T15:38:03Z</time>
      </trkpt>
      <trkpt lat="4.2552500" lon="-76.0929240">
        <ele>1089.6</ele>
        <time>2022-08-14T15:38:05Z</time>
      </trkpt>
      <trkpt lat="4.2552000" lon="-76.0930180">
        <ele>1089.2</ele>
        <time>2022-08-14T15:38:06Z</time>
      </trkpt>
      <trkpt lat="4.2551780" lon="-76.0930940">
        <ele>1088.4</ele>
        <time>2022-08-14T15:38:07Z</time>
      </trkpt>
      <trkpt lat="4.2551610" lon="-76.0931890">
        <ele>1088.0</ele>
        <time>2022-08-14T15:38:08Z</time>
      </trkpt>
      <trkpt lat="4.2551500" lon="-76.0933810">
        <ele>1087.2</ele>
        <time>2022-08-14T15:38:10Z</time>
      </trkpt>
      <trkpt lat="4.2551550" lon="-76.0935800">
        <ele>1086.2</ele>
        <time>2022-08-14T15:38:12Z</time>
      </trkpt>
      <trkpt lat="4.2551620" lon="-76.0937740">
        <ele>1084.8</ele>
        <time>2022-08-14T15:38:14Z</time>
      </trkpt>
      <trkpt lat="4.2551150" lon="-76.0939540">
        <ele>1083.6</ele>
        <time>2022-08-14T15:38:16Z</time>
      </trkpt>
      <trkpt lat="4.2550760" lon="-76.0940410">
        <ele>1082.8</ele>
        <time>2022-08-14T15:38:17Z</time>
      </trkpt>
      <trkpt lat="4.2550220" lon="-76.0941020">
        <ele>1081.8</ele>
        <time>2022-08-14T15:38:18Z</time>
      </trkpt>
      <trkpt lat="4.2549540" lon="-76.0941150">
        <ele>1081.0</ele>
        <time>2022-08-14T15:38:19Z</time>
      </trkpt>
      <trkpt lat="4.2548780" lon="-76.0941050">
        <ele>1080.2</ele>
        <time>2022-08-14T15:38:20Z</time>
      </trkpt>
      <trkpt lat="4.2547160" lon="-76.0940430">
        <ele>1079.0</ele>
        <time>2022-08-14T15:38:22Z</time>
      </trkpt>
      <trkpt lat="4.2544540" lon="-76.0939410">
        <ele>1077.8</ele>
        <time>2022-08-14T15:38:25Z</time>
      </trkpt>
      <trkpt lat="4.2542620" lon="-76.0938940">
        <ele>1077.2</ele>
        <time>2022-08-14T15:38:27Z</time>
      </trkpt>
      <trkpt lat="4.2540630" lon="-76.0938710">
        <ele>1076.4</ele>
        <time>2022-08-14T15:38:29Z</time>
      </trkpt>
      <trkpt lat="4.2537560" lon="-76.0938270">
        <ele>1075.0</ele>
        <time>2022-08-14T15:38:32Z</time>
      </trkpt>
      <trkpt lat="4.2535500" lon="-76.0937920">
        <ele>1073.6</ele>
        <time>2022-08-14T15:38:34Z</time>
      </trkpt>
      <trkpt lat="4.2533370" lon="-76.0937620">
        <ele>1072.0</ele>
        <time>2022-08-14T15:38:36Z</time>
      </trkpt>
      <trkpt lat="4.2531370" lon="-76.0937360">
        <ele>1070.8</ele>
        <time>2022-08-14T15:38:38Z</time>
      </trkpt>
      <trkpt lat="4.2530460" lon="-76.0937280">
        <ele>1070.2</ele>
        <time>2022-08-14T15:38:39Z</time>
      </trkpt>
      <trkpt lat="4.2529610" lon="-76.0937340">
        <ele>1069.4</ele>
        <time>2022-08-14T15:38:40Z</time>
      </trkpt>
      <trkpt lat="4.2528040" lon="-76.0937980">
        <ele>1067.8</ele>
        <time>2022-08-14T15:38:42Z</time>
      </trkpt>
      <trkpt lat="4.2526770" lon="-76.0939210">
        <ele>1066.4</ele>
        <time>2022-08-14T15:38:44Z</time>
      </trkpt>
      <trkpt lat="4.2526270" lon="-76.0939970">
        <ele>1066.0</ele>
        <time>2022-08-14T15:38:45Z</time>
      </trkpt>
      <trkpt lat="4.2525870" lon="-76.0940800">
        <ele>1065.6</ele>
        <time>2022-08-14T15:38:46Z</time>
      </trkpt>
      <trkpt lat="4.2525560" lon="-76.0941670">
        <ele>1065.2</ele>
        <time>2022-08-14T15:38:47Z</time>
      </trkpt>
      <trkpt lat="4.2525360" lon="-76.0942590">
        <ele>1065.0</ele>
        <time>2022-08-14T15:38:48Z</time>
      </trkpt>
      <trkpt lat="4.2525180" lon="-76.0944780">
        <ele>1064.0</ele>
        <time>2022-08-14T15:38:50Z</time>
      </trkpt>
      <trkpt lat="4.2525220" lon="-76.0946560">
        <ele>1062.2</ele>
        <time>2022-08-14T15:38:52Z</time>
      </trkpt>
      <trkpt lat="4.2524810" lon="-76.0948400">
        <ele>1061.0</ele>
        <time>2022-08-14T15:38:54Z</time>
      </trkpt>
      <trkpt lat="4.2524360" lon="-76.0949210">
        <ele>1060.4</ele>
        <time>2022-08-14T15:38:55Z</time>
      </trkpt>
      <trkpt lat="4.2523820" lon="-76.0949980">
        <ele>1059.6</ele>
        <time>2022-08-14T15:38:56Z</time>
      </trkpt>
      <trkpt lat="4.2521690" lon="-76.0952110">
        <ele>1058.2</ele>
        <time>2022-08-14T15:38:59Z</time>
      </trkpt>
      <trkpt lat="4.2519830" lon="-76.0954020">
        <ele>1056.6</ele>
        <time>2022-08-14T15:39:02Z</time>
      </trkpt>
      <trkpt lat="4.2519450" lon="-76.0954710">
        <ele>1056.2</ele>
        <time>2022-08-14T15:39:03Z</time>
      </trkpt>
      <trkpt lat="4.2519190" lon="-76.0955490">
        <ele>1055.6</ele>
        <time>2022-08-14T15:39:04Z</time>
      </trkpt>
      <trkpt lat="4.2519320" lon="-76.0957160">
        <ele>1053.8</ele>
        <time>2022-08-14T15:39:06Z</time>
      </trkpt>
      <trkpt lat="4.2519790" lon="-76.0957890">
        <ele>1052.6</ele>
        <time>2022-08-14T15:39:07Z</time>
      </trkpt>
      <trkpt lat="4.2520490" lon="-76.0958540">
        <ele>1051.8</ele>
        <time>2022-08-14T15:39:08Z</time>
      </trkpt>
      <trkpt lat="4.2521310" lon="-76.0959140">
        <ele>1051.4</ele>
        <time>2022-08-14T15:39:09Z</time>
      </trkpt>
      <trkpt lat="4.2523970" lon="-76.0960660">
        <ele>1050.2</ele>
        <time>2022-08-14T15:39:12Z</time>
      </trkpt>
      <trkpt lat="4.2525850" lon="-76.0961620">
        <ele>1048.2</ele>
        <time>2022-08-14T15:39:14Z</time>
      </trkpt>
      <trkpt lat="4.2526780" lon="-76.0962120">
        <ele>1047.0</ele>
        <time>2022-08-14T15:39:15Z</time>
      </trkpt>
      <trkpt lat="4.2527720" lon="-76.0962620">
        <ele>1045.8</ele>
        <time>2022-08-14T15:39:16Z</time>
      </trkpt>
      <trkpt lat="4.2528650" lon="-76.0963090">
        <ele>1044.8</ele>
        <time>2022-08-14T15:39:17Z</time>
      </trkpt>
      <trkpt lat="4.2529550" lon="-76.0963590">
        <ele>1043.8</ele>
        <time>2022-08-14T15:39:18Z</time>
      </trkpt>
      <trkpt lat="4.2530450" lon="-76.0964080">
        <ele>1042.8</ele>
        <time>2022-08-14T15:39:19Z</time>
      </trkpt>
      <trkpt lat="4.2531340" lon="-76.0964580">
        <ele>1042.2</ele>
        <time>2022-08-14T15:39:20Z</time>
      </trkpt>
      <trkpt lat="4.2532870" lon="-76.0965690">
        <ele>1040.4</ele>
        <time>2022-08-14T15:39:22Z</time>
      </trkpt>
      <trkpt lat="4.2533460" lon="-76.0966280">
        <ele>1039.6</ele>
        <time>2022-08-14T15:39:23Z</time>
      </trkpt>
      <trkpt lat="4.2533940" lon="-76.0966920">
        <ele>1039.6</ele>
        <time>2022-08-14T15:39:24Z</time>
      </trkpt>
      <trkpt lat="4.2534220" lon="-76.0967490">
        <ele>1038.6</ele>
        <time>2022-08-14T15:39:25Z</time>
      </trkpt>
      <trkpt lat="4.2534430" lon="-76.0968440">
        <ele>1037.6</ele>
        <time>2022-08-14T15:39:26Z</time>
      </trkpt>
      <trkpt lat="4.2534430" lon="-76.0969280">
        <ele>1036.8</ele>
        <time>2022-08-14T15:39:27Z</time>
      </trkpt>
      <trkpt lat="4.2534290" lon="-76.0970130">
        <ele>1036.0</ele>
        <time>2022-08-14T15:39:28Z</time>
      </trkpt>
      <trkpt lat="4.2534060" lon="-76.0971000">
        <ele>1035.2</ele>
        <time>2022-08-14T15:39:29Z</time>
      </trkpt>
      <trkpt lat="4.2533560" lon="-76.0972800">
        <ele>1034.0</ele>
        <time>2022-08-14T15:39:31Z</time>
      </trkpt>
      <trkpt lat="4.2532630" lon="-76.0975540">
        <ele>1033.0</ele>
        <time>2022-08-14T15:39:34Z</time>
      </trkpt>
      <trkpt lat="4.2531780" lon="-76.0978080">
        <ele>1031.4</ele>
        <time>2022-08-14T15:39:37Z</time>
      </trkpt>
      <trkpt lat="4.2531210" lon="-76.0979710">
        <ele>1030.2</ele>
        <time>2022-08-14T15:39:39Z</time>
      </trkpt>
      <trkpt lat="4.2530650" lon="-76.0981310">
        <ele>1029.2</ele>
        <time>2022-08-14T15:39:41Z</time>
      </trkpt>
      <trkpt lat="4.2529920" lon="-76.0983790">
        <ele>1028.0</ele>
        <time>2022-08-14T15:39:44Z</time>
      </trkpt>
      <trkpt lat="4.2529750" lon="-76.0984650">
        <ele>1027.8</ele>
        <time>2022-08-14T15:39:45Z</time>
      </trkpt>
      <trkpt lat="4.2529780" lon="-76.0986500">
        <ele>1027.6</ele>
        <time>2022-08-14T15:39:47Z</time>
      </trkpt>
      <trkpt lat="4.2530620" lon="-76.0990600">
        <ele>1027.4</ele>
        <time>2022-08-14T15:39:51Z</time>
      </trkpt>
      <trkpt lat="4.2531660" lon="-76.0994970">
        <ele>1027.0</ele>
        <time>2022-08-14T15:39:55Z</time>
      </trkpt>
      <trkpt lat="4.2531760" lon="-76.0995890">
        <ele>1026.4</ele>
        <time>2022-08-14T15:39:56Z</time>
      </trkpt>
      <trkpt lat="4.2531840" lon="-76.0997250">
        <ele>1025.6</ele>
        <time>2022-08-14T15:39:57Z</time>
      </trkpt>
      <trkpt lat="4.2531730" lon="-76.0999570">
        <ele>1023.6</ele>
        <time>2022-08-14T15:39:59Z</time>
      </trkpt>
      <trkpt lat="4.2531660" lon="-76.1000740">
        <ele>1022.2</ele>
        <time>2022-08-14T15:40:00Z</time>
      </trkpt>
      <trkpt lat="4.2531500" lon="-76.1003120">
        <ele>1021.0</ele>
        <time>2022-08-14T15:40:02Z</time>
      </trkpt>
      <trkpt lat="4.2531370" lon="-76.1005520">
        <ele>1019.4</ele>
        <time>2022-08-14T15:40:04Z</time>
      </trkpt>
      <trkpt lat="4.2531250" lon="-76.1006730">
        <ele>1018.4</ele>
        <time>2022-08-14T15:40:05Z</time>
      </trkpt>
      <trkpt lat="4.2531120" lon="-76.1007920">
        <ele>1017.4</ele>
        <time>2022-08-14T15:40:06Z</time>
      </trkpt>
      <trkpt lat="4.2530990" lon="-76.1009050">
        <ele>1016.8</ele>
        <time>2022-08-14T15:40:07Z</time>
      </trkpt>
      <trkpt lat="4.2530900" lon="-76.1010170">
        <ele>1016.2</ele>
        <time>2022-08-14T15:40:08Z</time>
      </trkpt>
      <trkpt lat="4.2530850" lon="-76.1011260">
        <ele>1015.4</ele>
        <time>2022-08-14T15:40:09Z</time>
      </trkpt>
      <trkpt lat="4.2530910" lon="-76.1012270">
        <ele>1014.2</ele>
        <time>2022-08-14T15:40:10Z</time>
      </trkpt>
      <trkpt lat="4.2531120" lon="-76.1013290">
        <ele>1013.4</ele>
        <time>2022-08-14T15:40:11Z</time>
      </trkpt>
      <trkpt lat="4.2531470" lon="-76.1014290">
        <ele>1012.6</ele>
        <time>2022-08-14T15:40:12Z</time>
      </trkpt>
      <trkpt lat="4.2532640" lon="-76.1016190">
        <ele>1010.4</ele>
        <time>2022-08-14T15:40:14Z</time>
      </trkpt>
      <trkpt lat="4.2533420" lon="-76.1017090">
        <ele>1009.4</ele>
        <time>2022-08-14T15:40:15Z</time>
      </trkpt>
      <trkpt lat="4.2535760" lon="-76.1019660">
        <ele>1007.8</ele>
        <time>2022-08-14T15:40:18Z</time>
      </trkpt>
      <trkpt lat="4.2537170" lon="-76.1021440">
        <ele>1006.4</ele>
        <time>2022-08-14T15:40:20Z</time>
      </trkpt>
      <trkpt lat="4.2537650" lon="-76.1022460">
        <ele>1005.4</ele>
        <time>2022-08-14T15:40:21Z</time>
      </trkpt>
      <trkpt lat="4.2538190" lon="-76.1024660">
        <ele>1003.4</ele>
        <time>2022-08-14T15:40:23Z</time>
      </trkpt>
      <trkpt lat="4.2538010" lon="-76.1026860">
        <ele>1001.6</ele>
        <time>2022-08-14T15:40:25Z</time>
      </trkpt>
      <trkpt lat="4.2537700" lon="-76.1027910">
        <ele>1001.0</ele>
        <time>2022-08-14T15:40:26Z</time>
      </trkpt>
      <trkpt lat="4.2537360" lon="-76.1028950">
        <ele>1000.4</ele>
        <time>2022-08-14T15:40:27Z</time>
      </trkpt>
      <trkpt lat="4.2536660" lon="-76.1030960">
        <ele>999.0</ele>
        <time>2022-08-14T15:40:29Z</time>
      </trkpt>
      <trkpt lat="4.2535840" lon="-76.1032980">
        <ele>997.8</ele>
        <time>2022-08-14T15:40:31Z</time>
      </trkpt>
      <trkpt lat="4.2535400" lon="-76.1033960">
        <ele>997.2</ele>
        <time>2022-08-14T15:40:32Z</time>
      </trkpt>
      <trkpt lat="4.2534980" lon="-76.1034910">
        <ele>996.4</ele>
        <time>2022-08-14T15:40:33Z</time>
      </trkpt>
      <trkpt lat="4.2534120" lon="-76.1036820">
        <ele>995.8</ele>
        <time>2022-08-14T15:40:35Z</time>
      </trkpt>
      <trkpt lat="4.2532960" lon="-76.1039550">
        <ele>995.4</ele>
        <time>2022-08-14T15:40:38Z</time>
      </trkpt>
      <trkpt lat="4.2532090" lon="-76.1041690">
        <ele>995.2</ele>
        <time>2022-08-14T15:40:40Z</time>
      </trkpt>
      <trkpt lat="4.2530420" lon="-76.1045290">
        <ele>995.0</ele>
        <time>2022-08-14T15:40:44Z</time>
      </trkpt>
      <trkpt lat="4.2529680" lon="-76.1046990">
        <ele>994.6</ele>
        <time>2022-08-14T15:40:46Z</time>
      </trkpt>
      <trkpt lat="4.2529300" lon="-76.1047810">
        <ele>994.2</ele>
        <time>2022-08-14T15:40:47Z</time>
      </trkpt>
      <trkpt lat="4.2527890" lon="-76.1051040">
        <ele>993.6</ele>
        <time>2022-08-14T15:40:51Z</time>
      </trkpt>
      <trkpt lat="4.2527670" lon="-76.1051830">
        <ele>993.4</ele>
        <time>2022-08-14T15:40:52Z</time>
      </trkpt>
      <trkpt lat="4.2527590" lon="-76.1052610">
        <ele>993.4</ele>
        <time>2022-08-14T15:40:53Z</time>
      </trkpt>
      <trkpt lat="4.2527710" lon="-76.1054920">
        <ele>993.4</ele>
        <time>2022-08-14T15:40:56Z</time>
      </trkpt>
      <trkpt lat="4.2528140" lon="-76.1056310">
        <ele>993.4</ele>
        <time>2022-08-14T15:40:58Z</time>
      </trkpt>
      <trkpt lat="4.2528450" lon="-76.1056910">
        <ele>993.4</ele>
        <time>2022-08-14T15:40:59Z</time>
      </trkpt>
      <trkpt lat="4.2528810" lon="-76.1057490">
        <ele>993.4</ele>
        <time>2022-08-14T15:41:00Z</time>
      </trkpt>
      <trkpt lat="4.2530280" lon="-76.1059300">
        <ele>994.4</ele>
        <time>2022-08-14T15:41:04Z</time>
      </trkpt>
      <trkpt lat="4.2532540" lon="-76.1061780">
        <ele>995.4</ele>
        <time>2022-08-14T15:41:10Z</time>
      </trkpt>
      <trkpt lat="4.2532840" lon="-76.1062250">
        <ele>995.8</ele>
        <time>2022-08-14T15:41:11Z</time>
      </trkpt>
      <trkpt lat="4.2534070" lon="-76.1064030">
        <ele>996.8</ele>
        <time>2022-08-14T15:41:15Z</time>
      </trkpt>
      <trkpt lat="4.2536110" lon="-76.1066480">
        <ele>997.6</ele>
        <time>2022-08-14T15:41:21Z</time>
      </trkpt>
      <trkpt lat="4.2536770" lon="-76.1067350">
        <ele>997.8</ele>
        <time>2022-08-14T15:41:23Z</time>
      </trkpt>
      <trkpt lat="4.2537630" lon="-76.1068840">
        <ele>998.2</ele>
        <time>2022-08-14T15:41:26Z</time>
      </trkpt>
      <trkpt lat="4.2537930" lon="-76.1069340">
        <ele>998.4</ele>
        <time>2022-08-14T15:41:27Z</time>
      </trkpt>
      <trkpt lat="4.2540310" lon="-76.1073980">
        <ele>998.6</ele>
        <time>2022-08-14T15:41:36Z</time>
      </trkpt>
      <trkpt lat="4.2542210" lon="-76.1078710">
        <ele>997.6</ele>
        <time>2022-08-14T15:41:44Z</time>
      </trkpt>
      <trkpt lat="4.2543790" lon="-76.1084320">
        <ele>996.8</ele>
        <time>2022-08-14T15:41:52Z</time>
      </trkpt>
      <trkpt lat="4.2544860" lon="-76.1087980">
        <ele>995.8</ele>
        <time>2022-08-14T15:41:57Z</time>
      </trkpt>
      <trkpt lat="4.2545280" lon="-76.1089440">
        <ele>995.6</ele>
        <time>2022-08-14T15:41:59Z</time>
      </trkpt>
      <trkpt lat="4.2546380" lon="-76.1093130">
        <ele>994.6</ele>
        <time>2022-08-14T15:42:04Z</time>
      </trkpt>
      <trkpt lat="4.2547480" lon="-76.1097130">
        <ele>993.8</ele>
        <time>2022-08-14T15:42:09Z</time>
      </trkpt>
      <trkpt lat="4.2548210" lon="-76.1099570">
        <ele>993.4</ele>
        <time>2022-08-14T15:42:12Z</time>
      </trkpt>
      <trkpt lat="4.2549640" lon="-76.1104390">
        <ele>992.8</ele>
        <time>2022-08-14T15:42:18Z</time>
      </trkpt>
      <trkpt lat="4.2549870" lon="-76.1105200">
        <ele>992.6</ele>
        <time>2022-08-14T15:42:19Z</time>
      </trkpt>
      <trkpt lat="4.2551010" lon="-76.1109190">
        <ele>991.4</ele>
        <time>2022-08-14T15:42:24Z</time>
      </trkpt>
      <trkpt lat="4.2551680" lon="-76.1111620">
        <ele>991.0</ele>
        <time>2022-08-14T15:42:27Z</time>
      </trkpt>
      <trkpt lat="4.2552880" lon="-76.1115540">
        <ele>990.2</ele>
        <time>2022-08-14T15:42:32Z</time>
      </trkpt>
      <trkpt lat="4.2553820" lon="-76.1118640">
        <ele>989.4</ele>
        <time>2022-08-14T15:42:36Z</time>
      </trkpt>
      <trkpt lat="4.2554030" lon="-76.1119260">
        <ele>989.2</ele>
        <time>2022-08-14T15:42:37Z</time>
      </trkpt>
      <trkpt lat="4.2555620" lon="-76.1124990">
        <ele>988.6</ele>
        <time>2022-08-14T15:42:44Z</time>
      </trkpt>
      <trkpt lat="4.2555830" lon="-76.1125790">
        <ele>988.4</ele>
        <time>2022-08-14T15:42:45Z</time>
      </trkpt>
      <trkpt lat="4.2555980" lon="-76.1126570">
        <ele>988.4</ele>
        <time>2022-08-14T15:42:46Z</time>
      </trkpt>
      <trkpt lat="4.2556150" lon="-76.1127360">
        <ele>988.2</ele>
        <time>2022-08-14T15:42:47Z</time>
      </trkpt>
      <trkpt lat="4.2556990" lon="-76.1130300">
        <ele>987.6</ele>
        <time>2022-08-14T15:42:51Z</time>
      </trkpt>
      <trkpt lat="4.2557770" lon="-76.1132750">
        <ele>987.4</ele>
        <time>2022-08-14T15:42:55Z</time>
      </trkpt>
      <trkpt lat="4.2557920" lon="-76.1133320">
        <ele>987.2</ele>
        <time>2022-08-14T15:42:56Z</time>
      </trkpt>
      <trkpt lat="4.2558100" lon="-76.1133890">
        <ele>987.0</ele>
        <time>2022-08-14T15:42:57Z</time>
      </trkpt>
      <trkpt lat="4.2558950" lon="-76.1136890">
        <ele>986.6</ele>
        <time>2022-08-14T15:43:02Z</time>
      </trkpt>
      <trkpt lat="4.2559380" lon="-76.1138340">
        <ele>986.6</ele>
        <time>2022-08-14T15:43:04Z</time>
      </trkpt>
      <trkpt lat="4.2560150" lon="-76.1140810">
        <ele>986.4</ele>
        <time>2022-08-14T15:43:08Z</time>
      </trkpt>
      <trkpt lat="4.2560440" lon="-76.1141820">
        <ele>986.6</ele>
        <time>2022-08-14T15:43:10Z</time>
      </trkpt>
      <trkpt lat="4.2561060" lon="-76.1143840">
        <ele>987.4</ele>
        <time>2022-08-14T15:43:15Z</time>
      </trkpt>
      <trkpt lat="4.2561360" lon="-76.1144990">
        <ele>988.6</ele>
        <time>2022-08-14T15:43:18Z</time>
      </trkpt>
      <trkpt lat="4.2561840" lon="-76.1146720">
        <ele>990.0</ele>
        <time>2022-08-14T15:43:22Z</time>
      </trkpt>
      <trkpt lat="4.2561990" lon="-76.1147230">
        <ele>990.2</ele>
        <time>2022-08-14T15:43:23Z</time>
      </trkpt>
      <trkpt lat="4.2563190" lon="-76.1151380">
        <ele>990.4</ele>
        <time>2022-08-14T15:43:30Z</time>
      </trkpt>
      <trkpt lat="4.2563630" lon="-76.1152970">
        <ele>990.4</ele>
        <time>2022-08-14T15:43:32Z</time>
      </trkpt>
      <trkpt lat="4.2564080" lon="-76.1154560">
        <ele>990.0</ele>
        <time>2022-08-14T15:43:34Z</time>
      </trkpt>
      <trkpt lat="4.2564950" lon="-76.1157390">
        <ele>988.4</ele>
        <time>2022-08-14T15:43:38Z</time>
      </trkpt>
      <trkpt lat="4.2565620" lon="-76.1159780">
        <ele>986.8</ele>
        <time>2022-08-14T15:43:40Z</time>
      </trkpt>
      <trkpt lat="4.2565830" lon="-76.1160540">
        <ele>985.4</ele>
        <time>2022-08-14T15:43:41Z</time>
      </trkpt>
      <trkpt lat="4.2566020" lon="-76.1161310">
        <ele>984.2</ele>
        <time>2022-08-14T15:43:42Z</time>
      </trkpt>
      <trkpt lat="4.2566210" lon="-76.1162060">
        <ele>983.2</ele>
        <time>2022-08-14T15:43:43Z</time>
      </trkpt>
      <trkpt lat="4.2566790" lon="-76.1164200">
        <ele>982.2</ele>
        <time>2022-08-14T15:43:46Z</time>
      </trkpt>
      <trkpt lat="4.2566930" lon="-76.1164850">
        <ele>982.2</ele>
        <time>2022-08-14T15:43:47Z</time>
      </trkpt>
      <trkpt lat="4.2567130" lon="-76.1165950">
        <ele>982.0</ele>
        <time>2022-08-14T15:43:49Z</time>
      </trkpt>
      <trkpt lat="4.2567150" lon="-76.1166530">
        <ele>982.0</ele>
        <time>2022-08-14T15:43:50Z</time>
      </trkpt>
      <trkpt lat="4.2567160" lon="-76.1167160">
        <ele>982.0</ele>
        <time>2022-08-14T15:43:51Z</time>
      </trkpt>
      <trkpt lat="4.2567120" lon="-76.1167620">
        <ele>982.0</ele>
        <time>2022-08-14T15:43:52Z</time>
      </trkpt>
      <trkpt lat="4.2566940" lon="-76.1168350">
        <ele>982.0</ele>
        <time>2022-08-14T15:43:54Z</time>
      </trkpt>
      <trkpt lat="4.2566630" lon="-76.1169170">
        <ele>982.4</ele>
        <time>2022-08-14T15:43:57Z</time>
      </trkpt>
      <trkpt lat="4.2566160" lon="-76.1170030">
        <ele>982.6</ele>
        <time>2022-08-14T15:44:00Z</time>
      </trkpt>
      <trkpt lat="4.2565020" lon="-76.1171350">
        <ele>982.8</ele>
        <time>2022-08-14T15:44:06Z</time>
      </trkpt>
      <trkpt lat="4.2564790" lon="-76.1171760">
        <ele>982.8</ele>
        <time>2022-08-14T15:44:09Z</time>
      </trkpt>
      <trkpt lat="4.2564760" lon="-76.1171760">
        <ele>982.8</ele>
        <time>2022-08-14T15:44:10Z</time>
      </trkpt>
      <trkpt lat="4.2564860" lon="-76.1171800">
        <ele>983.0</ele>
        <time>2022-08-14T15:44:15Z</time>
      </trkpt>
      <trkpt lat="4.2564860" lon="-76.1171800">
        <ele>983.0</ele>
        <time>2022-08-14T15:44:16Z</time>
      </trkpt>
      <trkpt lat="4.2564860" lon="-76.1171800">
        <ele>983.4</ele>
        <time>2022-08-14T15:44:23Z</time>
      </trkpt>
      <trkpt lat="4.2564860" lon="-76.1171800">
        <ele>983.4</ele>
        <time>2022-08-14T15:44:26Z</time>
      </trkpt>
      <trkpt lat="4.2564860" lon="-76.1171800">
        <ele>983.6</ele>
        <time>2022-08-14T15:44:32Z</time>
      </trkpt>
      <trkpt lat="4.2564860" lon="-76.1171800">
        <ele>983.6</ele>
        <time>2022-08-14T15:44:35Z</time>
      </trkpt>
      <trkpt lat="4.2564860" lon="-76.1171800">
        <ele>983.8</ele>
        <time>2022-08-14T15:44:41Z</time>
      </trkpt>
      <trkpt lat="4.2564860" lon="-76.1171800">
        <ele>983.6</ele>
        <time>2022-08-14T15:44:58Z</time>
      </trkpt>
      <trkpt lat="4.2564860" lon="-76.1171800">
        <ele>983.6</ele>
        <time>2022-08-14T15:45:02Z</time>
      </trkpt>
      <trkpt lat="4.2564860" lon="-76.1171800">
        <ele>983.8</ele>
        <time>2022-08-14T15:45:10Z</time>
      </trkpt>
      <trkpt lat="4.2564860" lon="-76.1171800">
        <ele>983.6</ele>
        <time>2022-08-14T15:45:19Z</time>
      </trkpt>
      <trkpt lat="4.2564860" lon="-76.1171800">
        <ele>983.6</ele>
        <time>2022-08-14T15:46:01Z</time>
      </trkpt>
      <trkpt lat="4.2564860" lon="-76.1171800">
        <ele>983.6</ele>
        <time>2022-08-14T15:46:04Z</time>
      </trkpt>
      <trkpt lat="4.2564860" lon="-76.1171800">
        <ele>983.8</ele>
        <time>2022-08-14T15:46:15Z</time>
      </trkpt>
      <trkpt lat="4.2564860" lon="-76.1171800">
        <ele>983.6</ele>
        <time>2022-08-14T15:46:24Z</time>
      </trkpt>
      <trkpt lat="4.2564860" lon="-76.1171800">
        <ele>983.4</ele>
        <time>2022-08-14T15:46:34Z</time>
      </trkpt>
      <trkpt lat="4.2564860" lon="-76.1171800">
        <ele>983.6</ele>
        <time>2022-08-14T15:46:37Z</time>
      </trkpt>
      <trkpt lat="4.2564860" lon="-76.1171800">
        <ele>983.6</ele>
        <time>2022-08-14T15:46:39Z</time>
      </trkpt>
      <trkpt lat="4.2564860" lon="-76.1171800">
        <ele>983.4</ele>
        <time>2022-08-14T15:46:42Z</time>
      </trkpt>
      <trkpt lat="4.2564860" lon="-76.1171800">
        <ele>983.4</ele>
        <time>2022-08-14T15:46:44Z</time>
      </trkpt>
      <trkpt lat="4.2564860" lon="-76.1171800">
        <ele>983.4</ele>
        <time>2022-08-14T15:46:48Z</time>
      </trkpt>
      <trkpt lat="4.2564920" lon="-76.1171660">
        <ele>983.4</ele>
        <time>2022-08-14T15:46:57Z</time>
      </trkpt>
      <trkpt lat="4.2564900" lon="-76.1171630">
        <ele>983.4</ele>
        <time>2022-08-14T15:47:03Z</time>
      </trkpt>
      <trkpt lat="4.2564520" lon="-76.1171670">
        <ele>983.4</ele>
        <time>2022-08-14T15:47:06Z</time>
      </trkpt>
      <trkpt lat="4.2563980" lon="-76.1171940">
        <ele>983.2</ele>
        <time>2022-08-14T15:47:09Z</time>
      </trkpt>
      <trkpt lat="4.2563430" lon="-76.1172260">
        <ele>983.2</ele>
        <time>2022-08-14T15:47:11Z</time>
      </trkpt>
      <trkpt lat="4.2562410" lon="-76.1172950">
        <ele>983.2</ele>
        <time>2022-08-14T15:47:14Z</time>
      </trkpt>
      <trkpt lat="4.2561120" lon="-76.1173740">
        <ele>983.2</ele>
        <time>2022-08-14T15:47:17Z</time>
      </trkpt>
      <trkpt lat="4.2559710" lon="-76.1174710">
        <ele>983.0</ele>
        <time>2022-08-14T15:47:20Z</time>
      </trkpt>
      <trkpt lat="4.2558730" lon="-76.1175350">
        <ele>982.6</ele>
        <time>2022-08-14T15:47:22Z</time>
      </trkpt>
      <trkpt lat="4.2557740" lon="-76.1176000">
        <ele>982.4</ele>
        <time>2022-08-14T15:47:24Z</time>
      </trkpt>
      <trkpt lat="4.2555270" lon="-76.1177660">
        <ele>982.2</ele>
        <time>2022-08-14T15:47:29Z</time>
      </trkpt>
      <trkpt lat="4.2552100" lon="-76.1179600">
        <ele>982.0</ele>
        <time>2022-08-14T15:47:35Z</time>
      </trkpt>
      <trkpt lat="4.2551190" lon="-76.1180170">
        <ele>981.8</ele>
        <time>2022-08-14T15:47:37Z</time>
      </trkpt>
      <trkpt lat="4.2547650" lon="-76.1182170">
        <ele>981.4</ele>
        <time>2022-08-14T15:47:44Z</time>
      </trkpt>
      <trkpt lat="4.2546620" lon="-76.1182720">
        <ele>981.2</ele>
        <time>2022-08-14T15:47:46Z</time>
      </trkpt>
      <trkpt lat="4.2542790" lon="-76.1184660">
        <ele>980.8</ele>
        <time>2022-08-14T15:47:53Z</time>
      </trkpt>
      <trkpt lat="4.2540150" lon="-76.1186010">
        <ele>980.6</ele>
        <time>2022-08-14T15:47:58Z</time>
      </trkpt>
      <trkpt lat="4.2536250" lon="-76.1188160">
        <ele>980.4</ele>
        <time>2022-08-14T15:48:05Z</time>
      </trkpt>
      <trkpt lat="4.2533340" lon="-76.1189630">
        <ele>980.2</ele>
        <time>2022-08-14T15:48:10Z</time>
      </trkpt>
      <trkpt lat="4.2532220" lon="-76.1190190">
        <ele>980.0</ele>
        <time>2022-08-14T15:48:12Z</time>
      </trkpt>
      <trkpt lat="4.2530500" lon="-76.1190980">
        <ele>979.8</ele>
        <time>2022-08-14T15:48:15Z</time>
      </trkpt>
      <trkpt lat="4.2526430" lon="-76.1192930">
        <ele>979.4</ele>
        <time>2022-08-14T15:48:22Z</time>
      </trkpt>
      <trkpt lat="4.2521440" lon="-76.1195340">
        <ele>979.2</ele>
        <time>2022-08-14T15:48:30Z</time>
      </trkpt>
      <trkpt lat="4.2520340" lon="-76.1195880">
        <ele>979.4</ele>
        <time>2022-08-14T15:48:32Z</time>
      </trkpt>
      <trkpt lat="4.2515470" lon="-76.1198420">
        <ele>979.8</ele>
        <time>2022-08-14T15:48:40Z</time>
      </trkpt>
      <trkpt lat="4.2514850" lon="-76.1198770">
        <ele>979.4</ele>
        <time>2022-08-14T15:48:41Z</time>
      </trkpt>
      <trkpt lat="4.2511380" lon="-76.1201550">
        <ele>979.6</ele>
        <time>2022-08-14T15:48:47Z</time>
      </trkpt>
      <trkpt lat="4.2508650" lon="-76.1204750">
        <ele>979.2</ele>
        <time>2022-08-14T15:48:53Z</time>
      </trkpt>
      <trkpt lat="4.2507770" lon="-76.1205900">
        <ele>979.2</ele>
        <time>2022-08-14T15:48:55Z</time>
      </trkpt>
      <trkpt lat="4.2506880" lon="-76.1207070">
        <ele>979.2</ele>
        <time>2022-08-14T15:48:57Z</time>
      </trkpt>
      <trkpt lat="4.2506060" lon="-76.1208310">
        <ele>979.2</ele>
        <time>2022-08-14T15:48:59Z</time>
      </trkpt>
      <trkpt lat="4.2505680" lon="-76.1208960">
        <ele>979.2</ele>
        <time>2022-08-14T15:49:00Z</time>
      </trkpt>
      <trkpt lat="4.2502520" lon="-76.1213300">
        <ele>979.0</ele>
        <time>2022-08-14T15:49:07Z</time>
      </trkpt>
      <trkpt lat="4.2498860" lon="-76.1217920">
        <ele>978.6</ele>
        <time>2022-08-14T15:49:15Z</time>
      </trkpt>
      <trkpt lat="4.2497540" lon="-76.1219490">
        <ele>978.6</ele>
        <time>2022-08-14T15:49:18Z</time>
      </trkpt>
      <trkpt lat="4.2493610" lon="-76.1224050">
        <ele>978.6</ele>
        <time>2022-08-14T15:49:26Z</time>
      </trkpt>
      <trkpt lat="4.2492170" lon="-76.1225690">
        <ele>978.6</ele>
        <time>2022-08-14T15:49:29Z</time>
      </trkpt>
      <trkpt lat="4.2490350" lon="-76.1227750">
        <ele>978.6</ele>
        <time>2022-08-14T15:49:33Z</time>
      </trkpt>
      <trkpt lat="4.2487600" lon="-76.1230840">
        <ele>978.2</ele>
        <time>2022-08-14T15:49:39Z</time>
      </trkpt>
      <trkpt lat="4.2483940" lon="-76.1234960">
        <ele>978.2</ele>
        <time>2022-08-14T15:49:47Z</time>
      </trkpt>
      <trkpt lat="4.2482620" lon="-76.1236510">
        <ele>978.2</ele>
        <time>2022-08-14T15:49:50Z</time>
      </trkpt>
      <trkpt lat="4.2480870" lon="-76.1238510">
        <ele>978.6</ele>
        <time>2022-08-14T15:49:54Z</time>
      </trkpt>
      <trkpt lat="4.2479180" lon="-76.1240510">
        <ele>979.0</ele>
        <time>2022-08-14T15:49:58Z</time>
      </trkpt>
      <trkpt lat="4.2475320" lon="-76.1244850">
        <ele>979.8</ele>
        <time>2022-08-14T15:50:07Z</time>
      </trkpt>
      <trkpt lat="4.2472980" lon="-76.1247230">
        <ele>980.4</ele>
        <time>2022-08-14T15:50:12Z</time>
      </trkpt>
      <trkpt lat="4.2468850" lon="-76.1250790">
        <ele>980.8</ele>
        <time>2022-08-14T15:50:20Z</time>
      </trkpt>
      <trkpt lat="4.2467170" lon="-76.1252000">
        <ele>980.8</ele>
        <time>2022-08-14T15:50:23Z</time>
      </trkpt>
      <trkpt lat="4.2462690" lon="-76.1255060">
        <ele>980.8</ele>
        <time>2022-08-14T15:50:31Z</time>
      </trkpt>
      <trkpt lat="4.2460960" lon="-76.1256260">
        <ele>980.8</ele>
        <time>2022-08-14T15:50:34Z</time>
      </trkpt>
      <trkpt lat="4.2456270" lon="-76.1259520">
        <ele>980.6</ele>
        <time>2022-08-14T15:50:42Z</time>
      </trkpt>
      <trkpt lat="4.2454390" lon="-76.1260850">
        <ele>980.6</ele>
        <time>2022-08-14T15:50:45Z</time>
      </trkpt>
      <trkpt lat="4.2449760" lon="-76.1264140">
        <ele>980.2</ele>
        <time>2022-08-14T15:50:53Z</time>
      </trkpt>
      <trkpt lat="4.2444960" lon="-76.1267420">
        <ele>980.0</ele>
        <time>2022-08-14T15:51:01Z</time>
      </trkpt>
      <trkpt lat="4.2443750" lon="-76.1268170">
        <ele>980.0</ele>
        <time>2022-08-14T15:51:03Z</time>
      </trkpt>
      <trkpt lat="4.2440360" lon="-76.1270770">
        <ele>980.0</ele>
        <time>2022-08-14T15:51:09Z</time>
      </trkpt>
      <trkpt lat="4.2435750" lon="-76.1274070">
        <ele>979.8</ele>
        <time>2022-08-14T15:51:17Z</time>
      </trkpt>
      <trkpt lat="4.2434090" lon="-76.1275250">
        <ele>979.6</ele>
        <time>2022-08-14T15:51:20Z</time>
      </trkpt>
      <trkpt lat="4.2429070" lon="-76.1278540">
        <ele>979.6</ele>
        <time>2022-08-14T15:51:29Z</time>
      </trkpt>
      <trkpt lat="4.2427290" lon="-76.1279520">
        <ele>980.0</ele>
        <time>2022-08-14T15:51:32Z</time>
      </trkpt>
      <trkpt lat="4.2423020" lon="-76.1281700">
        <ele>980.4</ele>
        <time>2022-08-14T15:51:39Z</time>
      </trkpt>
      <trkpt lat="4.2420620" lon="-76.1282880">
        <ele>980.6</ele>
        <time>2022-08-14T15:51:43Z</time>
      </trkpt>
      <trkpt lat="4.2415250" lon="-76.1285510">
        <ele>980.8</ele>
        <time>2022-08-14T15:51:52Z</time>
      </trkpt>
      <trkpt lat="4.2413990" lon="-76.1286160">
        <ele>980.8</ele>
        <time>2022-08-14T15:51:54Z</time>
      </trkpt>
      <trkpt lat="4.2412940" lon="-76.1286650">
        <ele>981.0</ele>
        <time>2022-08-14T15:51:56Z</time>
      </trkpt>
      <trkpt lat="4.2407700" lon="-76.1289260">
        <ele>981.4</ele>
        <time>2022-08-14T15:52:05Z</time>
      </trkpt>
      <trkpt lat="4.2407100" lon="-76.1289550">
        <ele>981.4</ele>
        <time>2022-08-14T15:52:06Z</time>
      </trkpt>
      <trkpt lat="4.2406500" lon="-76.1289840">
        <ele>981.4</ele>
        <time>2022-08-14T15:52:07Z</time>
      </trkpt>
      <trkpt lat="4.2402310" lon="-76.1291940">
        <ele>981.6</ele>
        <time>2022-08-14T15:52:14Z</time>
      </trkpt>
      <trkpt lat="4.2397590" lon="-76.1294310">
        <ele>982.2</ele>
        <time>2022-08-14T15:52:22Z</time>
      </trkpt>
      <trkpt lat="4.2395170" lon="-76.1295490">
        <ele>982.8</ele>
        <time>2022-08-14T15:52:26Z</time>
      </trkpt>
      <trkpt lat="4.2392120" lon="-76.1297030">
        <ele>983.2</ele>
        <time>2022-08-14T15:52:31Z</time>
      </trkpt>
      <trkpt lat="4.2390860" lon="-76.1297620">
        <ele>983.2</ele>
        <time>2022-08-14T15:52:33Z</time>
      </trkpt>
      <trkpt lat="4.2385840" lon="-76.1300160">
        <ele>983.2</ele>
        <time>2022-08-14T15:52:41Z</time>
      </trkpt>
      <trkpt lat="4.2384560" lon="-76.1300790">
        <ele>983.0</ele>
        <time>2022-08-14T15:52:43Z</time>
      </trkpt>
      <trkpt lat="4.2380280" lon="-76.1303240">
        <ele>982.8</ele>
        <time>2022-08-14T15:52:50Z</time>
      </trkpt>
      <trkpt lat="4.2377380" lon="-76.1305820">
        <ele>982.8</ele>
        <time>2022-08-14T15:52:56Z</time>
      </trkpt>
      <trkpt lat="4.2376890" lon="-76.1306240">
        <ele>982.8</ele>
        <time>2022-08-14T15:52:57Z</time>
      </trkpt>
      <trkpt lat="4.2376020" lon="-76.1307050">
        <ele>982.8</ele>
        <time>2022-08-14T15:52:59Z</time>
      </trkpt>
      <trkpt lat="4.2375390" lon="-76.1307810">
        <ele>983.0</ele>
        <time>2022-08-14T15:53:01Z</time>
      </trkpt>
      <trkpt lat="4.2375300" lon="-76.1308570">
        <ele>983.2</ele>
        <time>2022-08-14T15:53:03Z</time>
      </trkpt>
      <trkpt lat="4.2376210" lon="-76.1310060">
        <ele>983.2</ele>
        <time>2022-08-14T15:53:07Z</time>
      </trkpt>
      <trkpt lat="4.2376530" lon="-76.1310460">
        <ele>983.2</ele>
        <time>2022-08-14T15:53:08Z</time>
      </trkpt>
      <trkpt lat="4.2378150" lon="-76.1311910">
        <ele>983.6</ele>
        <time>2022-08-14T15:53:12Z</time>
      </trkpt>
      <trkpt lat="4.2380690" lon="-76.1314320">
        <ele>983.6</ele>
        <time>2022-08-14T15:53:18Z</time>
      </trkpt>
      <trkpt lat="4.2384720" lon="-76.1318440">
        <ele>983.4</ele>
        <time>2022-08-14T15:53:27Z</time>
      </trkpt>
      <trkpt lat="4.2387020" lon="-76.1320640">
        <ele>983.0</ele>
        <time>2022-08-14T15:53:32Z</time>
      </trkpt>
      <trkpt lat="4.2388530" lon="-76.1321830">
        <ele>982.8</ele>
        <time>2022-08-14T15:53:35Z</time>
      </trkpt>
      <trkpt lat="4.2391830" lon="-76.1324120">
        <ele>982.4</ele>
        <time>2022-08-14T15:53:41Z</time>
      </trkpt>
      <trkpt lat="4.2393470" lon="-76.1325340">
        <ele>982.4</ele>
        <time>2022-08-14T15:53:44Z</time>
      </trkpt>
      <trkpt lat="4.2396130" lon="-76.1327440">
        <ele>982.4</ele>
        <time>2022-08-14T15:53:49Z</time>
      </trkpt>
      <trkpt lat="4.2398790" lon="-76.1329610">
        <ele>982.0</ele>
        <time>2022-08-14T15:53:54Z</time>
      </trkpt>
      <trkpt lat="4.2403440" lon="-76.1333330">
        <ele>981.6</ele>
        <time>2022-08-14T15:54:03Z</time>
      </trkpt>
      <trkpt lat="4.2406130" lon="-76.1335500">
        <ele>981.2</ele>
        <time>2022-08-14T15:54:09Z</time>
      </trkpt>
      <trkpt lat="4.2406670" lon="-76.1335850">
        <ele>981.2</ele>
        <time>2022-08-14T15:54:10Z</time>
      </trkpt>
      <trkpt lat="4.2408400" lon="-76.1336710">
        <ele>980.8</ele>
        <time>2022-08-14T15:54:13Z</time>
      </trkpt>
      <trkpt lat="4.2409040" lon="-76.1336790">
        <ele>980.8</ele>
        <time>2022-08-14T15:54:14Z</time>
      </trkpt>
      <trkpt lat="4.2410350" lon="-76.1336750">
        <ele>980.8</ele>
        <time>2022-08-14T15:54:16Z</time>
      </trkpt>
      <trkpt lat="4.2413560" lon="-76.1336450">
        <ele>980.4</ele>
        <time>2022-08-14T15:54:21Z</time>
      </trkpt>
      <trkpt lat="4.2416000" lon="-76.1335650">
        <ele>980.4</ele>
        <time>2022-08-14T15:54:25Z</time>
      </trkpt>
      <trkpt lat="4.2417810" lon="-76.1335020">
        <ele>980.2</ele>
        <time>2022-08-14T15:54:28Z</time>
      </trkpt>
      <trkpt lat="4.2420120" lon="-76.1334300">
        <ele>980.0</ele>
        <time>2022-08-14T15:54:32Z</time>
      </trkpt>
      <trkpt lat="4.2421270" lon="-76.1334320">
        <ele>980.0</ele>
        <time>2022-08-14T15:54:34Z</time>
      </trkpt>
      <trkpt lat="4.2423990" lon="-76.1335180">
        <ele>979.8</ele>
        <time>2022-08-14T15:54:39Z</time>
      </trkpt>
      <trkpt lat="4.2427020" lon="-76.1337230">
        <ele>979.6</ele>
        <time>2022-08-14T15:54:45Z</time>
      </trkpt>
      <trkpt lat="4.2427940" lon="-76.1337770">
        <ele>979.8</ele>
        <time>2022-08-14T15:54:47Z</time>
      </trkpt>
      <trkpt lat="4.2429080" lon="-76.1338170">
        <ele>979.4</ele>
        <time>2022-08-14T15:54:49Z</time>
      </trkpt>
      <trkpt lat="4.2434710" lon="-76.1339340">
        <ele>979.0</ele>
        <time>2022-08-14T15:54:58Z</time>
      </trkpt>
      <trkpt lat="4.2435980" lon="-76.1339590">
        <ele>979.0</ele>
        <time>2022-08-14T15:55:00Z</time>
      </trkpt>
      <trkpt lat="4.2438390" lon="-76.1339950">
        <ele>978.8</ele>
        <time>2022-08-14T15:55:04Z</time>
      </trkpt>
      <trkpt lat="4.2442790" lon="-76.1340170">
        <ele>978.8</ele>
        <time>2022-08-14T15:55:11Z</time>
      </trkpt>
      <trkpt lat="4.2446010" lon="-76.1340210">
        <ele>978.6</ele>
        <time>2022-08-14T15:55:16Z</time>
      </trkpt>
      <trkpt lat="4.2446640" lon="-76.1340250">
        <ele>978.4</ele>
        <time>2022-08-14T15:55:17Z</time>
      </trkpt>
      <trkpt lat="4.2451640" lon="-76.1341220">
        <ele>977.8</ele>
        <time>2022-08-14T15:55:25Z</time>
      </trkpt>
      <trkpt lat="4.2455750" lon="-76.1342820">
        <ele>977.4</ele>
        <time>2022-08-14T15:55:32Z</time>
      </trkpt>
      <trkpt lat="4.2459620" lon="-76.1344490">
        <ele>977.2</ele>
        <time>2022-08-14T15:55:39Z</time>
      </trkpt>
      <trkpt lat="4.2460070" lon="-76.1344840">
        <ele>977.2</ele>
        <time>2022-08-14T15:55:40Z</time>
      </trkpt>
      <trkpt lat="4.2460920" lon="-76.1345540">
        <ele>977.0</ele>
        <time>2022-08-14T15:55:42Z</time>
      </trkpt>
      <trkpt lat="4.2462200" lon="-76.1346400">
        <ele>977.0</ele>
        <time>2022-08-14T15:55:45Z</time>
      </trkpt>
      <trkpt lat="4.2463420" lon="-76.1347330">
        <ele>976.8</ele>
        <time>2022-08-14T15:55:50Z</time>
      </trkpt>
      <trkpt lat="4.2463450" lon="-76.1347340">
        <ele>977.0</ele>
        <time>2022-08-14T15:55:54Z</time>
      </trkpt>
      <trkpt lat="4.2463450" lon="-76.1347340">
        <ele>978.0</ele>
        <time>2022-08-14T15:56:07Z</time>
      </trkpt>
      <trkpt lat="4.2463450" lon="-76.1347340">
        <ele>978.2</ele>
        <time>2022-08-14T15:56:49Z</time>
      </trkpt>
      <trkpt lat="4.2463450" lon="-76.1347340">
        <ele>978.2</ele>
        <time>2022-08-14T15:56:53Z</time>
      </trkpt>
      <trkpt lat="4.2463450" lon="-76.1347340">
        <ele>978.4</ele>
        <time>2022-08-14T15:57:16Z</time>
      </trkpt>
      <trkpt lat="4.2463450" lon="-76.1347340">
        <ele>978.4</ele>
        <time>2022-08-14T15:57:24Z</time>
      </trkpt>
      <trkpt lat="4.2463450" lon="-76.1347340">
        <ele>978.4</ele>
        <time>2022-08-14T15:57:37Z</time>
      </trkpt>
      <trkpt lat="4.2463450" lon="-76.1347340">
        <ele>978.4</ele>
        <time>2022-08-14T15:58:10Z</time>
      </trkpt>
      <trkpt lat="4.2463450" lon="-76.1347340">
        <ele>978.6</ele>
        <time>2022-08-14T15:58:24Z</time>
      </trkpt>
      <trkpt lat="4.2463450" lon="-76.1347340">
        <ele>978.4</ele>
        <time>2022-08-14T15:58:42Z</time>
      </trkpt>
      <trkpt lat="4.2463450" lon="-76.1347340">
        <ele>978.4</ele>
        <time>2022-08-14T15:58:58Z</time>
      </trkpt>
      <trkpt lat="4.2463780" lon="-76.1347590">
        <ele>978.4</ele>
        <time>2022-08-14T15:59:17Z</time>
      </trkpt>
      <trkpt lat="4.2464000" lon="-76.1347750">
        <ele>978.4</ele>
        <time>2022-08-14T15:59:18Z</time>
      </trkpt>
      <trkpt lat="4.2465970" lon="-76.1348950">
        <ele>978.4</ele>
        <time>2022-08-14T15:59:24Z</time>
      </trkpt>
      <trkpt lat="4.2468290" lon="-76.1350350">
        <ele>978.0</ele>
        <time>2022-08-14T15:59:30Z</time>
      </trkpt>
      <trkpt lat="4.2469090" lon="-76.1350770">
        <ele>977.8</ele>
        <time>2022-08-14T15:59:32Z</time>
      </trkpt>
      <trkpt lat="4.2471750" lon="-76.1352220">
        <ele>977.6</ele>
        <time>2022-08-14T15:59:38Z</time>
      </trkpt>
      <trkpt lat="4.2472210" lon="-76.1352450">
        <ele>977.6</ele>
        <time>2022-08-14T15:59:39Z</time>
      </trkpt>
      <trkpt lat="4.2474480" lon="-76.1353670">
        <ele>977.0</ele>
        <time>2022-08-14T15:59:44Z</time>
      </trkpt>
      <trkpt lat="4.2475390" lon="-76.1354110">
        <ele>976.8</ele>
        <time>2022-08-14T15:59:46Z</time>
      </trkpt>
      <trkpt lat="4.2476280" lon="-76.1354580">
        <ele>976.8</ele>
        <time>2022-08-14T15:59:48Z</time>
      </trkpt>
      <trkpt lat="4.2478110" lon="-76.1355420">
        <ele>976.6</ele>
        <time>2022-08-14T15:59:52Z</time>
      </trkpt>
      <trkpt lat="4.2479940" lon="-76.1356390">
        <ele>976.6</ele>
        <time>2022-08-14T15:59:56Z</time>
      </trkpt>
      <trkpt lat="4.2483530" lon="-76.1358170">
        <ele>976.6</ele>
        <time>2022-08-14T16:00:04Z</time>
      </trkpt>
      <trkpt lat="4.2483980" lon="-76.1358320">
        <ele>976.6</ele>
        <time>2022-08-14T16:00:05Z</time>
      </trkpt>
      <trkpt lat="4.2487580" lon="-76.1359170">
        <ele>976.2</ele>
        <time>2022-08-14T16:00:13Z</time>
      </trkpt>
      <trkpt lat="4.2490010" lon="-76.1359620">
        <ele>976.0</ele>
        <time>2022-08-14T16:00:18Z</time>
      </trkpt>
      <trkpt lat="4.2490980" lon="-76.1359890">
        <ele>975.8</ele>
        <time>2022-08-14T16:00:20Z</time>
      </trkpt>
      <trkpt lat="4.2494950" lon="-76.1360940">
        <ele>976.0</ele>
        <time>2022-08-14T16:00:28Z</time>
      </trkpt>
      <trkpt lat="4.2495420" lon="-76.1361100">
        <ele>976.0</ele>
        <time>2022-08-14T16:00:29Z</time>
      </trkpt>
      <trkpt lat="4.2496700" lon="-76.1361760">
        <ele>976.0</ele>
        <time>2022-08-14T16:00:32Z</time>
      </trkpt>
      <trkpt lat="4.2497210" lon="-76.1362080">
        <ele>976.0</ele>
        <time>2022-08-14T16:00:33Z</time>
      </trkpt>
      <trkpt lat="4.2499700" lon="-76.1363860">
        <ele>975.8</ele>
        <time>2022-08-14T16:00:39Z</time>
      </trkpt>
      <trkpt lat="4.2502410" lon="-76.1365720">
        <ele>975.6</ele>
        <time>2022-08-14T16:00:45Z</time>
      </trkpt>
      <trkpt lat="4.2502850" lon="-76.1366050">
        <ele>975.4</ele>
        <time>2022-08-14T16:00:47Z</time>
      </trkpt>
      <trkpt lat="4.2507340" lon="-76.1369050">
        <ele>975.2</ele>
        <time>2022-08-14T16:00:55Z</time>
      </trkpt>
      <trkpt lat="4.2508820" lon="-76.1369950">
        <ele>974.8</ele>
        <time>2022-08-14T16:00:58Z</time>
      </trkpt>
      <trkpt lat="4.2510260" lon="-76.1371020">
        <ele>974.8</ele>
        <time>2022-08-14T16:01:01Z</time>
      </trkpt>
      <trkpt lat="4.2512760" lon="-76.1372670">
        <ele>974.6</ele>
        <time>2022-08-14T16:01:06Z</time>
      </trkpt>
      <trkpt lat="4.2515610" lon="-76.1374610">
        <ele>974.6</ele>
        <time>2022-08-14T16:01:12Z</time>
      </trkpt>
      <trkpt lat="4.2517580" lon="-76.1376020">
        <ele>974.6</ele>
        <time>2022-08-14T16:01:16Z</time>
      </trkpt>
      <trkpt lat="4.2519100" lon="-76.1377050">
        <ele>974.6</ele>
        <time>2022-08-14T16:01:19Z</time>
      </trkpt>
      <trkpt lat="4.2522230" lon="-76.1379270">
        <ele>974.4</ele>
        <time>2022-08-14T16:01:26Z</time>
      </trkpt>
      <trkpt lat="4.2523110" lon="-76.1379850">
        <ele>974.2</ele>
        <time>2022-08-14T16:01:28Z</time>
      </trkpt>
      <trkpt lat="4.2525390" lon="-76.1381340">
        <ele>973.8</ele>
        <time>2022-08-14T16:01:33Z</time>
      </trkpt>
      <trkpt lat="4.2526340" lon="-76.1381860">
        <ele>973.8</ele>
        <time>2022-08-14T16:01:35Z</time>
      </trkpt>
      <trkpt lat="4.2528150" lon="-76.1382930">
        <ele>973.8</ele>
        <time>2022-08-14T16:01:39Z</time>
      </trkpt>
      <trkpt lat="4.2531070" lon="-76.1384460">
        <ele>973.4</ele>
        <time>2022-08-14T16:01:45Z</time>
      </trkpt>
      <trkpt lat="4.2532470" lon="-76.1385380">
        <ele>973.2</ele>
        <time>2022-08-14T16:01:48Z</time>
      </trkpt>
      <trkpt lat="4.2534330" lon="-76.1386680">
        <ele>973.0</ele>
        <time>2022-08-14T16:01:52Z</time>
      </trkpt>
      <trkpt lat="4.2535270" lon="-76.1387330">
        <ele>973.0</ele>
        <time>2022-08-14T16:01:54Z</time>
      </trkpt>
      <trkpt lat="4.2536070" lon="-76.1388090">
        <ele>972.8</ele>
        <time>2022-08-14T16:01:56Z</time>
      </trkpt>
      <trkpt lat="4.2536440" lon="-76.1388450">
        <ele>972.8</ele>
        <time>2022-08-14T16:01:57Z</time>
      </trkpt>
      <trkpt lat="4.2537530" lon="-76.1390170">
        <ele>972.8</ele>
        <time>2022-08-14T16:02:01Z</time>
      </trkpt>
      <trkpt lat="4.2538000" lon="-76.1392350">
        <ele>972.8</ele>
        <time>2022-08-14T16:02:05Z</time>
      </trkpt>
      <trkpt lat="4.2538180" lon="-76.1393540">
        <ele>972.8</ele>
        <time>2022-08-14T16:02:07Z</time>
      </trkpt>
      <trkpt lat="4.2538350" lon="-76.1397090">
        <ele>972.4</ele>
        <time>2022-08-14T16:02:13Z</time>
      </trkpt>
      <trkpt lat="4.2538330" lon="-76.1400790">
        <ele>972.0</ele>
        <time>2022-08-14T16:02:19Z</time>
      </trkpt>
      <trkpt lat="4.2538340" lon="-76.1402010">
        <ele>971.8</ele>
        <time>2022-08-14T16:02:21Z</time>
      </trkpt>
      <trkpt lat="4.2538430" lon="-76.1405820">
        <ele>971.6</ele>
        <time>2022-08-14T16:02:27Z</time>
      </trkpt>
      <trkpt lat="4.2538470" lon="-76.1407120">
        <ele>971.6</ele>
        <time>2022-08-14T16:02:29Z</time>
      </trkpt>
      <trkpt lat="4.2538830" lon="-76.1409650">
        <ele>971.4</ele>
        <time>2022-08-14T16:02:33Z</time>
      </trkpt>
      <trkpt lat="4.2539330" lon="-76.1410800">
        <ele>971.4</ele>
        <time>2022-08-14T16:02:35Z</time>
      </trkpt>
      <trkpt lat="4.2540590" lon="-76.1412110">
        <ele>971.2</ele>
        <time>2022-08-14T16:02:38Z</time>
      </trkpt>
      <trkpt lat="4.2541140" lon="-76.1412410">
        <ele>971.2</ele>
        <time>2022-08-14T16:02:39Z</time>
      </trkpt>
      <trkpt lat="4.2541710" lon="-76.1412620">
        <ele>971.2</ele>
        <time>2022-08-14T16:02:40Z</time>
      </trkpt>
      <trkpt lat="4.2544040" lon="-76.1413220">
        <ele>971.0</ele>
        <time>2022-08-14T16:02:44Z</time>
      </trkpt>
      <trkpt lat="4.2547450" lon="-76.1414200">
        <ele>970.8</ele>
        <time>2022-08-14T16:02:50Z</time>
      </trkpt>
      <trkpt lat="4.2548870" lon="-76.1414700">
        <ele>970.8</ele>
        <time>2022-08-14T16:02:53Z</time>
      </trkpt>
      <trkpt lat="4.2549370" lon="-76.1414800">
        <ele>970.8</ele>
        <time>2022-08-14T16:02:54Z</time>
      </trkpt>
      <trkpt lat="4.2550350" lon="-76.1415010">
        <ele>970.8</ele>
        <time>2022-08-14T16:02:56Z</time>
      </trkpt>
      <trkpt lat="4.2551240" lon="-76.1415420">
        <ele>970.6</ele>
        <time>2022-08-14T16:02:58Z</time>
      </trkpt>
      <trkpt lat="4.2552630" lon="-76.1416040">
        <ele>970.6</ele>
        <time>2022-08-14T16:03:01Z</time>
      </trkpt>
      <trkpt lat="4.2553610" lon="-76.1416370">
        <ele>970.6</ele>
        <time>2022-08-14T16:03:03Z</time>
      </trkpt>
      <trkpt lat="4.2556870" lon="-76.1418090">
        <ele>970.4</ele>
        <time>2022-08-14T16:03:10Z</time>
      </trkpt>
      <trkpt lat="4.2557340" lon="-76.1418400">
        <ele>970.4</ele>
        <time>2022-08-14T16:03:11Z</time>
      </trkpt>
      <trkpt lat="4.2559520" lon="-76.1419990">
        <ele>970.0</ele>
        <time>2022-08-14T16:03:16Z</time>
      </trkpt>
      <trkpt lat="4.2563300" lon="-76.1422540">
        <ele>969.4</ele>
        <time>2022-08-14T16:03:24Z</time>
      </trkpt>
      <trkpt lat="4.2565110" lon="-76.1423770">
        <ele>969.2</ele>
        <time>2022-08-14T16:03:28Z</time>
      </trkpt>
      <trkpt lat="4.2566910" lon="-76.1425020">
        <ele>969.0</ele>
        <time>2022-08-14T16:03:32Z</time>
      </trkpt>
      <trkpt lat="4.2568330" lon="-76.1425960">
        <ele>968.8</ele>
        <time>2022-08-14T16:03:35Z</time>
      </trkpt>
      <trkpt lat="4.2570260" lon="-76.1427130">
        <ele>968.8</ele>
        <time>2022-08-14T16:03:39Z</time>
      </trkpt>
      <trkpt lat="4.2573420" lon="-76.1429530">
        <ele>968.8</ele>
        <time>2022-08-14T16:03:46Z</time>
      </trkpt>
      <trkpt lat="4.2573950" lon="-76.1430010">
        <ele>968.8</ele>
        <time>2022-08-14T16:03:47Z</time>
      </trkpt>
      <trkpt lat="4.2576090" lon="-76.1432170">
        <ele>968.6</ele>
        <time>2022-08-14T16:03:52Z</time>
      </trkpt>
      <trkpt lat="4.2577390" lon="-76.1433440">
        <ele>968.2</ele>
        <time>2022-08-14T16:03:55Z</time>
      </trkpt>
      <trkpt lat="4.2580460" lon="-76.1436480">
        <ele>967.8</ele>
        <time>2022-08-14T16:04:02Z</time>
      </trkpt>
      <trkpt lat="4.2582200" lon="-76.1438170">
        <ele>967.6</ele>
        <time>2022-08-14T16:04:06Z</time>
      </trkpt>
      <trkpt lat="4.2583970" lon="-76.1439670">
        <ele>967.4</ele>
        <time>2022-08-14T16:04:10Z</time>
      </trkpt>
      <trkpt lat="4.2585420" lon="-76.1441050">
        <ele>967.2</ele>
        <time>2022-08-14T16:04:13Z</time>
      </trkpt>
      <trkpt lat="4.2587530" lon="-76.1443200">
        <ele>967.0</ele>
        <time>2022-08-14T16:04:18Z</time>
      </trkpt>
      <trkpt lat="4.2590000" lon="-76.1445650">
        <ele>966.8</ele>
        <time>2022-08-14T16:04:24Z</time>
      </trkpt>
      <trkpt lat="4.2592120" lon="-76.1447610">
        <ele>966.6</ele>
        <time>2022-08-14T16:04:29Z</time>
      </trkpt>
      <trkpt lat="4.2592890" lon="-76.1448410">
        <ele>966.6</ele>
        <time>2022-08-14T16:04:31Z</time>
      </trkpt>
      <trkpt lat="4.2594090" lon="-76.1449640">
        <ele>966.4</ele>
        <time>2022-08-14T16:04:34Z</time>
      </trkpt>
      <trkpt lat="4.2595300" lon="-76.1450820">
        <ele>966.4</ele>
        <time>2022-08-14T16:04:37Z</time>
      </trkpt>
      <trkpt lat="4.2596100" lon="-76.1451620">
        <ele>966.4</ele>
        <time>2022-08-14T16:04:39Z</time>
      </trkpt>
      <trkpt lat="4.2598570" lon="-76.1453860">
        <ele>966.2</ele>
        <time>2022-08-14T16:04:45Z</time>
      </trkpt>
      <trkpt lat="4.2598890" lon="-76.1454080">
        <ele>966.2</ele>
        <time>2022-08-14T16:04:46Z</time>
      </trkpt>
      <trkpt lat="4.2599420" lon="-76.1454500">
        <ele>966.2</ele>
        <time>2022-08-14T16:04:49Z</time>
      </trkpt>
      <trkpt lat="4.2599880" lon="-76.1454960">
        <ele>966.6</ele>
        <time>2022-08-14T16:04:55Z</time>
      </trkpt>
      <trkpt lat="4.2599930" lon="-76.1454990">
        <ele>966.6</ele>
        <time>2022-08-14T16:05:00Z</time>
      </trkpt>
      <trkpt lat="4.2599830" lon="-76.1454990">
        <ele>966.6</ele>
        <time>2022-08-14T16:05:09Z</time>
      </trkpt>
      <trkpt lat="4.2599830" lon="-76.1454990">
        <ele>966.6</ele>
        <time>2022-08-14T16:05:12Z</time>
      </trkpt>
      <trkpt lat="4.2599780" lon="-76.1455010">
        <ele>966.6</ele>
        <time>2022-08-14T16:05:20Z</time>
      </trkpt>
      <trkpt lat="4.2600310" lon="-76.1455540">
        <ele>966.4</ele>
        <time>2022-08-14T16:05:25Z</time>
      </trkpt>
      <trkpt lat="4.2600460" lon="-76.1455660">
        <ele>966.4</ele>
        <time>2022-08-14T16:05:26Z</time>
      </trkpt>
      <trkpt lat="4.2601150" lon="-76.1456050">
        <ele>966.4</ele>
        <time>2022-08-14T16:05:29Z</time>
      </trkpt>
      <trkpt lat="4.2601760" lon="-76.1456440">
        <ele>966.2</ele>
        <time>2022-08-14T16:05:31Z</time>
      </trkpt>
      <trkpt lat="4.2603430" lon="-76.1457820">
        <ele>966.2</ele>
        <time>2022-08-14T16:05:36Z</time>
      </trkpt>
      <trkpt lat="4.2605090" lon="-76.1459520">
        <ele>966.2</ele>
        <time>2022-08-14T16:05:41Z</time>
      </trkpt>
      <trkpt lat="4.2605480" lon="-76.1459910">
        <ele>966.2</ele>
        <time>2022-08-14T16:05:42Z</time>
      </trkpt>
      <trkpt lat="4.2607330" lon="-76.1461800">
        <ele>966.0</ele>
        <time>2022-08-14T16:05:47Z</time>
      </trkpt>
      <trkpt lat="4.2608120" lon="-76.1462540">
        <ele>966.0</ele>
        <time>2022-08-14T16:05:49Z</time>
      </trkpt>
      <trkpt lat="4.2610690" lon="-76.1464800">
        <ele>965.6</ele>
        <time>2022-08-14T16:05:55Z</time>
      </trkpt>
      <trkpt lat="4.2613690" lon="-76.1467480">
        <ele>965.2</ele>
        <time>2022-08-14T16:06:02Z</time>
      </trkpt>
      <trkpt lat="4.2614330" lon="-76.1468130">
        <ele>965.2</ele>
        <time>2022-08-14T16:06:04Z</time>
      </trkpt>
      <trkpt lat="4.2614990" lon="-76.1469020">
        <ele>965.2</ele>
        <time>2022-08-14T16:06:06Z</time>
      </trkpt>
      <trkpt lat="4.2615210" lon="-76.1469480">
        <ele>965.2</ele>
        <time>2022-08-14T16:06:07Z</time>
      </trkpt>
      <trkpt lat="4.2615950" lon="-76.1470900">
        <ele>965.2</ele>
        <time>2022-08-14T16:06:10Z</time>
      </trkpt>
      <trkpt lat="4.2617180" lon="-76.1472690">
        <ele>965.0</ele>
        <time>2022-08-14T16:06:14Z</time>
      </trkpt>
      <trkpt lat="4.2619720" lon="-76.1476590">
        <ele>965.0</ele>
        <time>2022-08-14T16:06:22Z</time>
      </trkpt>
      <trkpt lat="4.2620630" lon="-76.1477980">
        <ele>964.8</ele>
        <time>2022-08-14T16:06:25Z</time>
      </trkpt>
      <trkpt lat="4.2621560" lon="-76.1479160">
        <ele>964.6</ele>
        <time>2022-08-14T16:06:28Z</time>
      </trkpt>
      <trkpt lat="4.2621860" lon="-76.1479580">
        <ele>964.6</ele>
        <time>2022-08-14T16:06:29Z</time>
      </trkpt>
      <trkpt lat="4.2623900" lon="-76.1482630">
        <ele>964.2</ele>
        <time>2022-08-14T16:06:36Z</time>
      </trkpt>
      <trkpt lat="4.2626730" lon="-76.1486570">
        <ele>963.8</ele>
        <time>2022-08-14T16:06:45Z</time>
      </trkpt>
      <trkpt lat="4.2627810" lon="-76.1487660">
        <ele>963.6</ele>
        <time>2022-08-14T16:06:48Z</time>
      </trkpt>
      <trkpt lat="4.2629890" lon="-76.1489500">
        <ele>963.4</ele>
        <time>2022-08-14T16:06:53Z</time>
      </trkpt>
      <trkpt lat="4.2631200" lon="-76.1490670">
        <ele>963.2</ele>
        <time>2022-08-14T16:06:56Z</time>
      </trkpt>
      <trkpt lat="4.2634140" lon="-76.1493280">
        <ele>963.2</ele>
        <time>2022-08-14T16:07:03Z</time>
      </trkpt>
      <trkpt lat="4.2638170" lon="-76.1496810">
        <ele>962.8</ele>
        <time>2022-08-14T16:07:12Z</time>
      </trkpt>
      <trkpt lat="4.2639410" lon="-76.1497850">
        <ele>962.8</ele>
        <time>2022-08-14T16:07:15Z</time>
      </trkpt>
      <trkpt lat="4.2642480" lon="-76.1500390">
        <ele>962.4</ele>
        <time>2022-08-14T16:07:22Z</time>
      </trkpt>
      <trkpt lat="4.2646440" lon="-76.1503730">
        <ele>962.0</ele>
        <time>2022-08-14T16:07:31Z</time>
      </trkpt>
      <trkpt lat="4.2648050" lon="-76.1505220">
        <ele>961.8</ele>
        <time>2022-08-14T16:07:35Z</time>
      </trkpt>
      <trkpt lat="4.2649830" lon="-76.1506840">
        <ele>961.4</ele>
        <time>2022-08-14T16:07:39Z</time>
      </trkpt>
      <trkpt lat="4.2653290" lon="-76.1509770">
        <ele>961.0</ele>
        <time>2022-08-14T16:07:47Z</time>
      </trkpt>
      <trkpt lat="4.2654440" lon="-76.1510730">
        <ele>960.8</ele>
        <time>2022-08-14T16:07:50Z</time>
      </trkpt>
      <trkpt lat="4.2655700" lon="-76.1511900">
        <ele>960.6</ele>
        <time>2022-08-14T16:07:53Z</time>
      </trkpt>
      <trkpt lat="4.2656500" lon="-76.1512490">
        <ele>960.4</ele>
        <time>2022-08-14T16:07:55Z</time>
      </trkpt>
      <trkpt lat="4.2658370" lon="-76.1513860">
        <ele>960.6</ele>
        <time>2022-08-14T16:07:59Z</time>
      </trkpt>
      <trkpt lat="4.2659060" lon="-76.1514610">
        <ele>960.4</ele>
        <time>2022-08-14T16:08:01Z</time>
      </trkpt>
      <trkpt lat="4.2661960" lon="-76.1517200">
        <ele>960.2</ele>
        <time>2022-08-14T16:08:08Z</time>
      </trkpt>
      <trkpt lat="4.2666400" lon="-76.1520820">
        <ele>959.8</ele>
        <time>2022-08-14T16:08:18Z</time>
      </trkpt>
      <trkpt lat="4.2667830" lon="-76.1522040">
        <ele>959.8</ele>
        <time>2022-08-14T16:08:21Z</time>
      </trkpt>
      <trkpt lat="4.2669610" lon="-76.1523650">
        <ele>959.6</ele>
        <time>2022-08-14T16:08:25Z</time>
      </trkpt>
      <trkpt lat="4.2673550" lon="-76.1527020">
        <ele>959.4</ele>
        <time>2022-08-14T16:08:34Z</time>
      </trkpt>
      <trkpt lat="4.2675000" lon="-76.1528310">
        <ele>959.0</ele>
        <time>2022-08-14T16:08:37Z</time>
      </trkpt>
      <trkpt lat="4.2677300" lon="-76.1530250">
        <ele>958.8</ele>
        <time>2022-08-14T16:08:42Z</time>
      </trkpt>
      <trkpt lat="4.2680490" lon="-76.1533430">
        <ele>958.8</ele>
        <time>2022-08-14T16:08:50Z</time>
      </trkpt>
      <trkpt lat="4.2681030" lon="-76.1533860">
        <ele>958.8</ele>
        <time>2022-08-14T16:08:51Z</time>
      </trkpt>
      <trkpt lat="4.2682720" lon="-76.1535170">
        <ele>958.8</ele>
        <time>2022-08-14T16:08:55Z</time>
      </trkpt>
      <trkpt lat="4.2683170" lon="-76.1535540">
        <ele>958.8</ele>
        <time>2022-08-14T16:08:56Z</time>
      </trkpt>
      <trkpt lat="4.2684860" lon="-76.1537060">
        <ele>958.8</ele>
        <time>2022-08-14T16:09:00Z</time>
      </trkpt>
      <trkpt lat="4.2688510" lon="-76.1540210">
        <ele>958.8</ele>
        <time>2022-08-14T16:09:08Z</time>
      </trkpt>
      <trkpt lat="4.2690550" lon="-76.1542340">
        <ele>958.8</ele>
        <time>2022-08-14T16:09:13Z</time>
      </trkpt>
      <trkpt lat="4.2691310" lon="-76.1543080">
        <ele>959.0</ele>
        <time>2022-08-14T16:09:15Z</time>
      </trkpt>
      <trkpt lat="4.2692550" lon="-76.1544450">
        <ele>959.2</ele>
        <time>2022-08-14T16:09:18Z</time>
      </trkpt>
      <trkpt lat="4.2693210" lon="-76.1545190">
        <ele>959.2</ele>
        <time>2022-08-14T16:09:20Z</time>
      </trkpt>
      <trkpt lat="4.2693590" lon="-76.1545600">
        <ele>959.4</ele>
        <time>2022-08-14T16:09:21Z</time>
      </trkpt>
      <trkpt lat="4.2696050" lon="-76.1547980">
        <ele>959.4</ele>
        <time>2022-08-14T16:09:27Z</time>
      </trkpt>
      <trkpt lat="4.2697520" lon="-76.1549170">
        <ele>959.4</ele>
        <time>2022-08-14T16:09:30Z</time>
      </trkpt>
      <trkpt lat="4.2698340" lon="-76.1549810">
        <ele>959.4</ele>
        <time>2022-08-14T16:09:32Z</time>
      </trkpt>
      <trkpt lat="4.2698800" lon="-76.1550150">
        <ele>959.4</ele>
        <time>2022-08-14T16:09:33Z</time>
      </trkpt>
      <trkpt lat="4.2700170" lon="-76.1551210">
        <ele>959.4</ele>
        <time>2022-08-14T16:09:36Z</time>
      </trkpt>
      <trkpt lat="4.2700850" lon="-76.1551950">
        <ele>959.4</ele>
        <time>2022-08-14T16:09:38Z</time>
      </trkpt>
      <trkpt lat="4.2702850" lon="-76.1554020">
        <ele>959.4</ele>
        <time>2022-08-14T16:09:43Z</time>
      </trkpt>
      <trkpt lat="4.2703410" lon="-76.1554440">
        <ele>959.4</ele>
        <time>2022-08-14T16:09:44Z</time>
      </trkpt>
      <trkpt lat="4.2705500" lon="-76.1556450">
        <ele>959.2</ele>
        <time>2022-08-14T16:09:49Z</time>
      </trkpt>
      <trkpt lat="4.2708620" lon="-76.1559580">
        <ele>959.0</ele>
        <time>2022-08-14T16:09:56Z</time>
      </trkpt>
      <trkpt lat="4.2712190" lon="-76.1563050">
        <ele>958.8</ele>
        <time>2022-08-14T16:10:05Z</time>
      </trkpt>
      <trkpt lat="4.2712650" lon="-76.1563500">
        <ele>958.8</ele>
        <time>2022-08-14T16:10:06Z</time>
      </trkpt>
      <trkpt lat="4.2716920" lon="-76.1567580">
        <ele>958.8</ele>
        <time>2022-08-14T16:10:16Z</time>
      </trkpt>
      <trkpt lat="4.2720550" lon="-76.1571460">
        <ele>958.8</ele>
        <time>2022-08-14T16:10:25Z</time>
      </trkpt>
      <trkpt lat="4.2723720" lon="-76.1574920">
        <ele>959.0</ele>
        <time>2022-08-14T16:10:33Z</time>
      </trkpt>
      <trkpt lat="4.2724970" lon="-76.1576240">
        <ele>959.2</ele>
        <time>2022-08-14T16:10:36Z</time>
      </trkpt>
      <trkpt lat="4.2726840" lon="-76.1577900">
        <ele>959.0</ele>
        <time>2022-08-14T16:10:40Z</time>
      </trkpt>
      <trkpt lat="4.2727740" lon="-76.1578770">
        <ele>959.0</ele>
        <time>2022-08-14T16:10:42Z</time>
      </trkpt>
      <trkpt lat="4.2728880" lon="-76.1579640">
        <ele>958.8</ele>
        <time>2022-08-14T16:10:44Z</time>
      </trkpt>
      <trkpt lat="4.2729390" lon="-76.1580060">
        <ele>958.6</ele>
        <time>2022-08-14T16:10:45Z</time>
      </trkpt>
      <trkpt lat="4.2730800" lon="-76.1581310">
        <ele>958.4</ele>
        <time>2022-08-14T16:10:48Z</time>
      </trkpt>
      <trkpt lat="4.2731570" lon="-76.1582170">
        <ele>958.4</ele>
        <time>2022-08-14T16:10:50Z</time>
      </trkpt>
      <trkpt lat="4.2731910" lon="-76.1582500">
        <ele>958.4</ele>
        <time>2022-08-14T16:10:51Z</time>
      </trkpt>
      <trkpt lat="4.2735630" lon="-76.1586300">
        <ele>958.2</ele>
        <time>2022-08-14T16:11:00Z</time>
      </trkpt>
      <trkpt lat="4.2737860" lon="-76.1588620">
        <ele>958.2</ele>
        <time>2022-08-14T16:11:06Z</time>
      </trkpt>
      <trkpt lat="4.2738410" lon="-76.1589230">
        <ele>958.2</ele>
        <time>2022-08-14T16:11:08Z</time>
      </trkpt>
      <trkpt lat="4.2739480" lon="-76.1590400">
        <ele>958.2</ele>
        <time>2022-08-14T16:11:11Z</time>
      </trkpt>
      <trkpt lat="4.2742460" lon="-76.1593260">
        <ele>958.2</ele>
        <time>2022-08-14T16:11:19Z</time>
      </trkpt>
      <trkpt lat="4.2743340" lon="-76.1593980">
        <ele>958.2</ele>
        <time>2022-08-14T16:11:21Z</time>
      </trkpt>
      <trkpt lat="4.2744390" lon="-76.1595040">
        <ele>958.2</ele>
        <time>2022-08-14T16:11:24Z</time>
      </trkpt>
      <trkpt lat="4.2746420" lon="-76.1596830">
        <ele>958.2</ele>
        <time>2022-08-14T16:11:29Z</time>
      </trkpt>
      <trkpt lat="4.2747670" lon="-76.1597910">
        <ele>958.2</ele>
        <time>2022-08-14T16:11:32Z</time>
      </trkpt>
      <trkpt lat="4.2748040" lon="-76.1598290">
        <ele>958.2</ele>
        <time>2022-08-14T16:11:33Z</time>
      </trkpt>
      <trkpt lat="4.2749220" lon="-76.1599500">
        <ele>958.2</ele>
        <time>2022-08-14T16:11:36Z</time>
      </trkpt>
      <trkpt lat="4.2750330" lon="-76.1600610">
        <ele>958.2</ele>
        <time>2022-08-14T16:11:39Z</time>
      </trkpt>
      <trkpt lat="4.2751950" lon="-76.1602480">
        <ele>958.2</ele>
        <time>2022-08-14T16:11:44Z</time>
      </trkpt>
      <trkpt lat="4.2752570" lon="-76.1602980">
        <ele>958.2</ele>
        <time>2022-08-14T16:11:46Z</time>
      </trkpt>
      <trkpt lat="4.2753240" lon="-76.1603530">
        <ele>958.2</ele>
        <time>2022-08-14T16:11:48Z</time>
      </trkpt>
      <trkpt lat="4.2754330" lon="-76.1604660">
        <ele>958.2</ele>
        <time>2022-08-14T16:11:52Z</time>
      </trkpt>
      <trkpt lat="4.2756520" lon="-76.1606720">
        <ele>958.2</ele>
        <time>2022-08-14T16:11:59Z</time>
      </trkpt>
      <trkpt lat="4.2756760" lon="-76.1606990">
        <ele>958.2</ele>
        <time>2022-08-14T16:12:00Z</time>
      </trkpt>
      <trkpt lat="4.2757060" lon="-76.1607250">
        <ele>958.2</ele>
        <time>2022-08-14T16:12:01Z</time>
      </trkpt>
      <trkpt lat="4.2757740" lon="-76.1607730">
        <ele>958.0</ele>
        <time>2022-08-14T16:12:03Z</time>
      </trkpt>
      <trkpt lat="4.2758310" lon="-76.1608270">
        <ele>958.0</ele>
        <time>2022-08-14T16:12:05Z</time>
      </trkpt>
      <trkpt lat="4.2759870" lon="-76.1610060">
        <ele>957.8</ele>
        <time>2022-08-14T16:12:11Z</time>
      </trkpt>
      <trkpt lat="4.2761610" lon="-76.1611700">
        <ele>957.8</ele>
        <time>2022-08-14T16:12:17Z</time>
      </trkpt>
      <trkpt lat="4.2762710" lon="-76.1612920">
        <ele>957.6</ele>
        <time>2022-08-14T16:12:19Z</time>
      </trkpt>
      <trkpt lat="4.2764190" lon="-76.1614250">
        <ele>957.6</ele>
        <time>2022-08-14T16:12:23Z</time>
      </trkpt>
      <trkpt lat="4.2764550" lon="-76.1614600">
        <ele>957.6</ele>
        <time>2022-08-14T16:12:24Z</time>
      </trkpt>
      <trkpt lat="4.2766450" lon="-76.1616410">
        <ele>957.6</ele>
        <time>2022-08-14T16:12:29Z</time>
      </trkpt>
      <trkpt lat="4.2767600" lon="-76.1617470">
        <ele>957.6</ele>
        <time>2022-08-14T16:12:32Z</time>
      </trkpt>
      <trkpt lat="4.2768320" lon="-76.1618240">
        <ele>957.6</ele>
        <time>2022-08-14T16:12:34Z</time>
      </trkpt>
      <trkpt lat="4.2769070" lon="-76.1618970">
        <ele>957.6</ele>
        <time>2022-08-14T16:12:36Z</time>
      </trkpt>
      <trkpt lat="4.2772130" lon="-76.1621970">
        <ele>957.4</ele>
        <time>2022-08-14T16:12:44Z</time>
      </trkpt>
      <trkpt lat="4.2774840" lon="-76.1624730">
        <ele>957.4</ele>
        <time>2022-08-14T16:12:51Z</time>
      </trkpt>
      <trkpt lat="4.2775850" lon="-76.1625790">
        <ele>957.2</ele>
        <time>2022-08-14T16:12:54Z</time>
      </trkpt>
      <trkpt lat="4.2776220" lon="-76.1626160">
        <ele>957.2</ele>
        <time>2022-08-14T16:12:55Z</time>
      </trkpt>
      <trkpt lat="4.2777030" lon="-76.1627030">
        <ele>957.2</ele>
        <time>2022-08-14T16:12:57Z</time>
      </trkpt>
      <trkpt lat="4.2778170" lon="-76.1627850">
        <ele>957.0</ele>
        <time>2022-08-14T16:13:00Z</time>
      </trkpt>
      <trkpt lat="4.2779410" lon="-76.1628820">
        <ele>957.0</ele>
        <time>2022-08-14T16:13:03Z</time>
      </trkpt>
      <trkpt lat="4.2780450" lon="-76.1629880">
        <ele>956.8</ele>
        <time>2022-08-14T16:13:06Z</time>
      </trkpt>
      <trkpt lat="4.2782230" lon="-76.1631730">
        <ele>956.8</ele>
        <time>2022-08-14T16:13:12Z</time>
      </trkpt>
      <trkpt lat="4.2783750" lon="-76.1633380">
        <ele>956.8</ele>
        <time>2022-08-14T16:13:18Z</time>
      </trkpt>
      <trkpt lat="4.2785470" lon="-76.1635030">
        <ele>957.4</ele>
        <time>2022-08-14T16:13:25Z</time>
      </trkpt>
      <trkpt lat="4.2786920" lon="-76.1636360">
        <ele>957.4</ele>
        <time>2022-08-14T16:13:32Z</time>
      </trkpt>
      <trkpt lat="4.2788080" lon="-76.1637440">
        <ele>957.4</ele>
        <time>2022-08-14T16:13:37Z</time>
      </trkpt>
      <trkpt lat="4.2789660" lon="-76.1638710">
        <ele>957.4</ele>
        <time>2022-08-14T16:13:42Z</time>
      </trkpt>
      <trkpt lat="4.2791000" lon="-76.1640040">
        <ele>957.2</ele>
        <time>2022-08-14T16:13:48Z</time>
      </trkpt>
      <trkpt lat="4.2792560" lon="-76.1641340">
        <ele>957.2</ele>
        <time>2022-08-14T16:13:53Z</time>
      </trkpt>
      <trkpt lat="4.2794110" lon="-76.1642940">
        <ele>957.2</ele>
        <time>2022-08-14T16:13:59Z</time>
      </trkpt>
      <trkpt lat="4.2794640" lon="-76.1643480">
        <ele>957.2</ele>
        <time>2022-08-14T16:14:01Z</time>
      </trkpt>
      <trkpt lat="4.2795480" lon="-76.1644340">
        <ele>957.0</ele>
        <time>2022-08-14T16:14:04Z</time>
      </trkpt>
      <trkpt lat="4.2797080" lon="-76.1645630">
        <ele>957.2</ele>
        <time>2022-08-14T16:14:10Z</time>
      </trkpt>
      <trkpt lat="4.2798870" lon="-76.1647640">
        <ele>957.0</ele>
        <time>2022-08-14T16:14:17Z</time>
      </trkpt>
      <trkpt lat="4.2800000" lon="-76.1648620">
        <ele>957.0</ele>
        <time>2022-08-14T16:14:21Z</time>
      </trkpt>
      <trkpt lat="4.2802050" lon="-76.1649900">
        <ele>957.0</ele>
        <time>2022-08-14T16:14:28Z</time>
      </trkpt>
      <trkpt lat="4.2804370" lon="-76.1651380">
        <ele>957.0</ele>
        <time>2022-08-14T16:14:35Z</time>
      </trkpt>
      <trkpt lat="4.2807030" lon="-76.1653290">
        <ele>957.0</ele>
        <time>2022-08-14T16:14:43Z</time>
      </trkpt>
      <trkpt lat="4.2809660" lon="-76.1654990">
        <ele>957.2</ele>
        <time>2022-08-14T16:14:51Z</time>
      </trkpt>
      <trkpt lat="4.2811600" lon="-76.1656510">
        <ele>957.2</ele>
        <time>2022-08-14T16:14:57Z</time>
      </trkpt>
      <trkpt lat="4.2812320" lon="-76.1656930">
        <ele>957.2</ele>
        <time>2022-08-14T16:14:59Z</time>
      </trkpt>
      <trkpt lat="4.2814250" lon="-76.1658110">
        <ele>957.0</ele>
        <time>2022-08-14T16:15:04Z</time>
      </trkpt>
      <trkpt lat="4.2817170" lon="-76.1660170">
        <ele>956.8</ele>
        <time>2022-08-14T16:15:12Z</time>
      </trkpt>
      <trkpt lat="4.2817530" lon="-76.1660450">
        <ele>956.8</ele>
        <time>2022-08-14T16:15:13Z</time>
      </trkpt>
      <trkpt lat="4.2818270" lon="-76.1660940">
        <ele>956.8</ele>
        <time>2022-08-14T16:15:15Z</time>
      </trkpt>
      <trkpt lat="4.2819010" lon="-76.1661380">
        <ele>956.6</ele>
        <time>2022-08-14T16:15:17Z</time>
      </trkpt>
      <trkpt lat="4.2819970" lon="-76.1662060">
        <ele>956.4</ele>
        <time>2022-08-14T16:15:20Z</time>
      </trkpt>
      <trkpt lat="4.2820700" lon="-76.1662530">
        <ele>956.6</ele>
        <time>2022-08-14T16:15:22Z</time>
      </trkpt>
      <trkpt lat="4.2821980" lon="-76.1663370">
        <ele>956.4</ele>
        <time>2022-08-14T16:15:26Z</time>
      </trkpt>
      <trkpt lat="4.2823920" lon="-76.1664870">
        <ele>956.6</ele>
        <time>2022-08-14T16:15:32Z</time>
      </trkpt>
      <trkpt lat="4.2826600" lon="-76.1666360">
        <ele>957.0</ele>
        <time>2022-08-14T16:15:39Z</time>
      </trkpt>
      <trkpt lat="4.2829070" lon="-76.1667890">
        <ele>957.0</ele>
        <time>2022-08-14T16:15:46Z</time>
      </trkpt>
      <trkpt lat="4.2831190" lon="-76.1669270">
        <ele>957.0</ele>
        <time>2022-08-14T16:15:52Z</time>
      </trkpt>
      <trkpt lat="4.2833600" lon="-76.1670830">
        <ele>956.8</ele>
        <time>2022-08-14T16:15:59Z</time>
      </trkpt>
      <trkpt lat="4.2836950" lon="-76.1672700">
        <ele>956.8</ele>
        <time>2022-08-14T16:16:08Z</time>
      </trkpt>
      <trkpt lat="4.2839360" lon="-76.1674390">
        <ele>957.2</ele>
        <time>2022-08-14T16:16:15Z</time>
      </trkpt>
      <trkpt lat="4.2842170" lon="-76.1676200">
        <ele>957.2</ele>
        <time>2022-08-14T16:16:23Z</time>
      </trkpt>
      <trkpt lat="4.2845140" lon="-76.1678110">
        <ele>957.2</ele>
        <time>2022-08-14T16:16:31Z</time>
      </trkpt>
      <trkpt lat="4.2848620" lon="-76.1680090">
        <ele>957.2</ele>
        <time>2022-08-14T16:16:39Z</time>
      </trkpt>
      <trkpt lat="4.2849060" lon="-76.1680340">
        <ele>957.2</ele>
        <time>2022-08-14T16:16:40Z</time>
      </trkpt>
      <trkpt lat="4.2850760" lon="-76.1681370">
        <ele>957.0</ele>
        <time>2022-08-14T16:16:44Z</time>
      </trkpt>
      <trkpt lat="4.2851090" lon="-76.1681620">
        <ele>956.8</ele>
        <time>2022-08-14T16:16:45Z</time>
      </trkpt>
      <trkpt lat="4.2851910" lon="-76.1682510">
        <ele>956.8</ele>
        <time>2022-08-14T16:16:48Z</time>
      </trkpt>
      <trkpt lat="4.2852320" lon="-76.1683190">
        <ele>956.8</ele>
        <time>2022-08-14T16:16:50Z</time>
      </trkpt>
      <trkpt lat="4.2852450" lon="-76.1683570">
        <ele>956.8</ele>
        <time>2022-08-14T16:16:51Z</time>
      </trkpt>
      <trkpt lat="4.2852910" lon="-76.1684830">
        <ele>956.8</ele>
        <time>2022-08-14T16:16:54Z</time>
      </trkpt>
      <trkpt lat="4.2853970" lon="-76.1686440">
        <ele>957.0</ele>
        <time>2022-08-14T16:16:58Z</time>
      </trkpt>
      <trkpt lat="4.2854520" lon="-76.1687240">
        <ele>957.0</ele>
        <time>2022-08-14T16:17:00Z</time>
      </trkpt>
      <trkpt lat="4.2855120" lon="-76.1687940">
        <ele>957.0</ele>
        <time>2022-08-14T16:17:02Z</time>
      </trkpt>
      <trkpt lat="4.2855390" lon="-76.1688300">
        <ele>957.0</ele>
        <time>2022-08-14T16:17:03Z</time>
      </trkpt>
      <trkpt lat="4.2857800" lon="-76.1690380">
        <ele>957.0</ele>
        <time>2022-08-14T16:17:10Z</time>
      </trkpt>
      <trkpt lat="4.2859800" lon="-76.1691590">
        <ele>957.0</ele>
        <time>2022-08-14T16:17:15Z</time>
      </trkpt>
      <trkpt lat="4.2861160" lon="-76.1692120">
        <ele>957.0</ele>
        <time>2022-08-14T16:17:18Z</time>
      </trkpt>
      <trkpt lat="4.2863700" lon="-76.1693310">
        <ele>957.0</ele>
        <time>2022-08-14T16:17:24Z</time>
      </trkpt>
      <trkpt lat="4.2864590" lon="-76.1693690">
        <ele>957.0</ele>
        <time>2022-08-14T16:17:26Z</time>
      </trkpt>
      <trkpt lat="4.2866380" lon="-76.1694390">
        <ele>957.0</ele>
        <time>2022-08-14T16:17:30Z</time>
      </trkpt>
      <trkpt lat="4.2867810" lon="-76.1694990">
        <ele>957.0</ele>
        <time>2022-08-14T16:17:33Z</time>
      </trkpt>
      <trkpt lat="4.2870960" lon="-76.1696560">
        <ele>957.0</ele>
        <time>2022-08-14T16:17:40Z</time>
      </trkpt>
      <trkpt lat="4.2872270" lon="-76.1697160">
        <ele>957.0</ele>
        <time>2022-08-14T16:17:43Z</time>
      </trkpt>
      <trkpt lat="4.2873720" lon="-76.1697910">
        <ele>957.0</ele>
        <time>2022-08-14T16:17:46Z</time>
      </trkpt>
      <trkpt lat="4.2874190" lon="-76.1698120">
        <ele>957.0</ele>
        <time>2022-08-14T16:17:47Z</time>
      </trkpt>
      <trkpt lat="4.2877940" lon="-76.1699690">
        <ele>956.8</ele>
        <time>2022-08-14T16:17:55Z</time>
      </trkpt>
      <trkpt lat="4.2882880" lon="-76.1702010">
        <ele>956.8</ele>
        <time>2022-08-14T16:18:06Z</time>
      </trkpt>
      <trkpt lat="4.2883330" lon="-76.1702220">
        <ele>956.8</ele>
        <time>2022-08-14T16:18:07Z</time>
      </trkpt>
      <trkpt lat="4.2884270" lon="-76.1702570">
        <ele>956.6</ele>
        <time>2022-08-14T16:18:09Z</time>
      </trkpt>
      <trkpt lat="4.2885170" lon="-76.1703000">
        <ele>956.8</ele>
        <time>2022-08-14T16:18:11Z</time>
      </trkpt>
      <trkpt lat="4.2887020" lon="-76.1703820">
        <ele>956.6</ele>
        <time>2022-08-14T16:18:15Z</time>
      </trkpt>
      <trkpt lat="4.2887970" lon="-76.1704250">
        <ele>956.6</ele>
        <time>2022-08-14T16:18:17Z</time>
      </trkpt>
      <trkpt lat="4.2888390" lon="-76.1704490">
        <ele>956.6</ele>
        <time>2022-08-14T16:18:18Z</time>
      </trkpt>
      <trkpt lat="4.2890120" lon="-76.1705370">
        <ele>956.8</ele>
        <time>2022-08-14T16:18:22Z</time>
      </trkpt>
      <trkpt lat="4.2891370" lon="-76.1705840">
        <ele>956.8</ele>
        <time>2022-08-14T16:18:25Z</time>
      </trkpt>
      <trkpt lat="4.2893600" lon="-76.1706860">
        <ele>956.6</ele>
        <time>2022-08-14T16:18:30Z</time>
      </trkpt>
      <trkpt lat="4.2894600" lon="-76.1707260">
        <ele>956.6</ele>
        <time>2022-08-14T16:18:32Z</time>
      </trkpt>
      <trkpt lat="4.2898610" lon="-76.1709170">
        <ele>957.0</ele>
        <time>2022-08-14T16:18:41Z</time>
      </trkpt>
      <trkpt lat="4.2899160" lon="-76.1709480">
        <ele>957.0</ele>
        <time>2022-08-14T16:18:42Z</time>
      </trkpt>
      <trkpt lat="4.2903230" lon="-76.1711290">
        <ele>957.0</ele>
        <time>2022-08-14T16:18:51Z</time>
      </trkpt>
      <trkpt lat="4.2906490" lon="-76.1712800">
        <ele>957.4</ele>
        <time>2022-08-14T16:18:58Z</time>
      </trkpt>
      <trkpt lat="4.2910090" lon="-76.1714290">
        <ele>957.4</ele>
        <time>2022-08-14T16:19:06Z</time>
      </trkpt>
      <trkpt lat="4.2910560" lon="-76.1714400">
        <ele>957.6</ele>
        <time>2022-08-14T16:19:07Z</time>
      </trkpt>
      <trkpt lat="4.2911020" lon="-76.1714470">
        <ele>957.6</ele>
        <time>2022-08-14T16:19:08Z</time>
      </trkpt>
      <trkpt lat="4.2913120" lon="-76.1714280">
        <ele>957.8</ele>
        <time>2022-08-14T16:19:12Z</time>
      </trkpt>
      <trkpt lat="4.2916540" lon="-76.1713020">
        <ele>957.6</ele>
        <time>2022-08-14T16:19:19Z</time>
      </trkpt>
      <trkpt lat="4.2920970" lon="-76.1711310">
        <ele>957.6</ele>
        <time>2022-08-14T16:19:28Z</time>
      </trkpt>
      <trkpt lat="4.2922060" lon="-76.1710910">
        <ele>957.6</ele>
        <time>2022-08-14T16:19:30Z</time>
      </trkpt>
      <trkpt lat="4.2925550" lon="-76.1709610">
        <ele>957.8</ele>
        <time>2022-08-14T16:19:37Z</time>
      </trkpt>
      <trkpt lat="4.2931060" lon="-76.1707510">
        <ele>957.8</ele>
        <time>2022-08-14T16:19:48Z</time>
      </trkpt>
      <trkpt lat="4.2935440" lon="-76.1705900">
        <ele>957.6</ele>
        <time>2022-08-14T16:19:57Z</time>
      </trkpt>
      <trkpt lat="4.2936910" lon="-76.1705300">
        <ele>957.6</ele>
        <time>2022-08-14T16:20:00Z</time>
      </trkpt>
      <trkpt lat="4.2940170" lon="-76.1704340">
        <ele>957.6</ele>
        <time>2022-08-14T16:20:06Z</time>
      </trkpt>
      <trkpt lat="4.2943700" lon="-76.1704230">
        <ele>957.4</ele>
        <time>2022-08-14T16:20:12Z</time>
      </trkpt>
      <trkpt lat="4.2947960" lon="-76.1704500">
        <ele>957.4</ele>
        <time>2022-08-14T16:20:19Z</time>
      </trkpt>
      <trkpt lat="4.2948540" lon="-76.1704550">
        <ele>957.4</ele>
        <time>2022-08-14T16:20:20Z</time>
      </trkpt>
      <trkpt lat="4.2953010" lon="-76.1704430">
        <ele>957.4</ele>
        <time>2022-08-14T16:20:28Z</time>
      </trkpt>
      <trkpt lat="4.2953690" lon="-76.1704300">
        <ele>957.4</ele>
        <time>2022-08-14T16:20:29Z</time>
      </trkpt>
      <trkpt lat="4.2955730" lon="-76.1703490">
        <ele>957.4</ele>
        <time>2022-08-14T16:20:33Z</time>
      </trkpt>
      <trkpt lat="4.2958580" lon="-76.1701520">
        <ele>957.4</ele>
        <time>2022-08-14T16:20:39Z</time>
      </trkpt>
      <trkpt lat="4.2959120" lon="-76.1701070">
        <ele>957.4</ele>
        <time>2022-08-14T16:20:40Z</time>
      </trkpt>
      <trkpt lat="4.2963350" lon="-76.1696980">
        <ele>957.6</ele>
        <time>2022-08-14T16:20:50Z</time>
      </trkpt>
      <trkpt lat="4.2967340" lon="-76.1693240">
        <ele>958.0</ele>
        <time>2022-08-14T16:20:59Z</time>
      </trkpt>
      <trkpt lat="4.2968310" lon="-76.1692440">
        <ele>958.2</ele>
        <time>2022-08-14T16:21:01Z</time>
      </trkpt>
      <trkpt lat="4.2972390" lon="-76.1689520">
        <ele>958.4</ele>
        <time>2022-08-14T16:21:09Z</time>
      </trkpt>
      <trkpt lat="4.2973910" lon="-76.1688410">
        <ele>958.4</ele>
        <time>2022-08-14T16:21:12Z</time>
      </trkpt>
      <trkpt lat="4.2978580" lon="-76.1685160">
        <ele>958.4</ele>
        <time>2022-08-14T16:21:21Z</time>
      </trkpt>
      <trkpt lat="4.2979120" lon="-76.1684850">
        <ele>958.6</ele>
        <time>2022-08-14T16:21:22Z</time>
      </trkpt>
      <trkpt lat="4.2980240" lon="-76.1684350">
        <ele>958.4</ele>
        <time>2022-08-14T16:21:24Z</time>
      </trkpt>
      <trkpt lat="4.2981430" lon="-76.1684050">
        <ele>958.4</ele>
        <time>2022-08-14T16:21:26Z</time>
      </trkpt>
      <trkpt lat="4.2982040" lon="-76.1684010">
        <ele>958.4</ele>
        <time>2022-08-14T16:21:27Z</time>
      </trkpt>
      <trkpt lat="4.2983940" lon="-76.1684130">
        <ele>958.4</ele>
        <time>2022-08-14T16:21:30Z</time>
      </trkpt>
      <trkpt lat="4.2986530" lon="-76.1684320">
        <ele>958.6</ele>
        <time>2022-08-14T16:21:34Z</time>
      </trkpt>
      <trkpt lat="4.2987030" lon="-76.1684380">
        <ele>958.6</ele>
        <time>2022-08-14T16:21:35Z</time>
      </trkpt>
      <trkpt lat="4.2989560" lon="-76.1684800">
        <ele>958.4</ele>
        <time>2022-08-14T16:21:39Z</time>
      </trkpt>
      <trkpt lat="4.2993600" lon="-76.1685930">
        <ele>958.4</ele>
        <time>2022-08-14T16:21:46Z</time>
      </trkpt>
      <trkpt lat="4.2998160" lon="-76.1687830">
        <ele>958.0</ele>
        <time>2022-08-14T16:21:54Z</time>
      </trkpt>
      <trkpt lat="4.2999150" lon="-76.1688240">
        <ele>958.0</ele>
        <time>2022-08-14T16:21:56Z</time>
      </trkpt>
      <trkpt lat="4.3003650" lon="-76.1689990">
        <ele>958.0</ele>
        <time>2022-08-14T16:22:04Z</time>
      </trkpt>
      <trkpt lat="4.3008770" lon="-76.1692010">
        <ele>958.0</ele>
        <time>2022-08-14T16:22:13Z</time>
      </trkpt>
      <trkpt lat="4.3014050" lon="-76.1694020">
        <ele>958.0</ele>
        <time>2022-08-14T16:22:22Z</time>
      </trkpt>
      <trkpt lat="4.3016310" lon="-76.1694880">
        <ele>958.0</ele>
        <time>2022-08-14T16:22:26Z</time>
      </trkpt>
      <trkpt lat="4.3022010" lon="-76.1696840">
        <ele>957.6</ele>
        <time>2022-08-14T16:22:36Z</time>
      </trkpt>
      <trkpt lat="4.3025010" lon="-76.1697370">
        <ele>957.4</ele>
        <time>2022-08-14T16:22:41Z</time>
      </trkpt>
      <trkpt lat="4.3026350" lon="-76.1697500">
        <ele>957.2</ele>
        <time>2022-08-14T16:22:43Z</time>
      </trkpt>
      <trkpt lat="4.3031700" lon="-76.1698100">
        <ele>957.0</ele>
        <time>2022-08-14T16:22:52Z</time>
      </trkpt>
      <trkpt lat="4.3035230" lon="-76.1698370">
        <ele>957.4</ele>
        <time>2022-08-14T16:22:58Z</time>
      </trkpt>
      <trkpt lat="4.3038160" lon="-76.1698690">
        <ele>957.6</ele>
        <time>2022-08-14T16:23:03Z</time>
      </trkpt>
      <trkpt lat="4.3039330" lon="-76.1698720">
        <ele>957.6</ele>
        <time>2022-08-14T16:23:05Z</time>
      </trkpt>
      <trkpt lat="4.3044420" lon="-76.1699100">
        <ele>958.0</ele>
        <time>2022-08-14T16:23:14Z</time>
      </trkpt>
      <trkpt lat="4.3046650" lon="-76.1699300">
        <ele>958.2</ele>
        <time>2022-08-14T16:23:18Z</time>
      </trkpt>
      <trkpt lat="4.3048320" lon="-76.1699180">
        <ele>958.2</ele>
        <time>2022-08-14T16:23:21Z</time>
      </trkpt>
      <trkpt lat="4.3051200" lon="-76.1699110">
        <ele>958.6</ele>
        <time>2022-08-14T16:23:26Z</time>
      </trkpt>
      <trkpt lat="4.3052970" lon="-76.1699240">
        <ele>958.6</ele>
        <time>2022-08-14T16:23:29Z</time>
      </trkpt>
      <trkpt lat="4.3057600" lon="-76.1699530">
        <ele>958.4</ele>
        <time>2022-08-14T16:23:37Z</time>
      </trkpt>
      <trkpt lat="4.3059320" lon="-76.1699800">
        <ele>958.4</ele>
        <time>2022-08-14T16:23:40Z</time>
      </trkpt>
      <trkpt lat="4.3060480" lon="-76.1699950">
        <ele>958.4</ele>
        <time>2022-08-14T16:23:42Z</time>
      </trkpt>
      <trkpt lat="4.3061050" lon="-76.1700030">
        <ele>958.4</ele>
        <time>2022-08-14T16:23:43Z</time>
      </trkpt>
      <trkpt lat="4.3064720" lon="-76.1700090">
        <ele>958.4</ele>
        <time>2022-08-14T16:23:49Z</time>
      </trkpt>
      <trkpt lat="4.3068990" lon="-76.1700650">
        <ele>958.2</ele>
        <time>2022-08-14T16:23:56Z</time>
      </trkpt>
      <trkpt lat="4.3074610" lon="-76.1701720">
        <ele>958.0</ele>
        <time>2022-08-14T16:24:05Z</time>
      </trkpt>
      <trkpt lat="4.3075890" lon="-76.1701960">
        <ele>958.0</ele>
        <time>2022-08-14T16:24:07Z</time>
      </trkpt>
      <trkpt lat="4.3081640" lon="-76.1702960">
        <ele>957.8</ele>
        <time>2022-08-14T16:24:16Z</time>
      </trkpt>
      <trkpt lat="4.3082310" lon="-76.1703040">
        <ele>957.8</ele>
        <time>2022-08-14T16:24:17Z</time>
      </trkpt>
      <trkpt lat="4.3088120" lon="-76.1703910">
        <ele>957.8</ele>
        <time>2022-08-14T16:24:26Z</time>
      </trkpt>
      <trkpt lat="4.3090000" lon="-76.1704240">
        <ele>957.8</ele>
        <time>2022-08-14T16:24:29Z</time>
      </trkpt>
      <trkpt lat="4.3093070" lon="-76.1704810">
        <ele>957.6</ele>
        <time>2022-08-14T16:24:34Z</time>
      </trkpt>
      <trkpt lat="4.3098070" lon="-76.1705660">
        <ele>957.2</ele>
        <time>2022-08-14T16:24:42Z</time>
      </trkpt>
      <trkpt lat="4.3103550" lon="-76.1706180">
        <ele>957.2</ele>
        <time>2022-08-14T16:24:51Z</time>
      </trkpt>
      <trkpt lat="4.3104200" lon="-76.1706200">
        <ele>957.2</ele>
        <time>2022-08-14T16:24:52Z</time>
      </trkpt>
      <trkpt lat="4.3109970" lon="-76.1706060">
        <ele>957.2</ele>
        <time>2022-08-14T16:25:01Z</time>
      </trkpt>
      <trkpt lat="4.3110580" lon="-76.1706060">
        <ele>957.2</ele>
        <time>2022-08-14T16:25:02Z</time>
      </trkpt>
      <trkpt lat="4.3112380" lon="-76.1706010">
        <ele>957.2</ele>
        <time>2022-08-14T16:25:05Z</time>
      </trkpt>
      <trkpt lat="4.3115530" lon="-76.1705890">
        <ele>957.2</ele>
        <time>2022-08-14T16:25:10Z</time>
      </trkpt>
      <trkpt lat="4.3118120" lon="-76.1705590">
        <ele>957.2</ele>
        <time>2022-08-14T16:25:14Z</time>
      </trkpt>
      <trkpt lat="4.3119360" lon="-76.1705180">
        <ele>957.2</ele>
        <time>2022-08-14T16:25:16Z</time>
      </trkpt>
      <trkpt lat="4.3124130" lon="-76.1702990">
        <ele>957.2</ele>
        <time>2022-08-14T16:25:24Z</time>
      </trkpt>
      <trkpt lat="4.3129600" lon="-76.1700520">
        <ele>957.2</ele>
        <time>2022-08-14T16:25:33Z</time>
      </trkpt>
      <trkpt lat="4.3134640" lon="-76.1698350">
        <ele>957.6</ele>
        <time>2022-08-14T16:25:41Z</time>
      </trkpt>
      <trkpt lat="4.3135870" lon="-76.1697850">
        <ele>957.6</ele>
        <time>2022-08-14T16:25:43Z</time>
      </trkpt>
      <trkpt lat="4.3141440" lon="-76.1695650">
        <ele>957.6</ele>
        <time>2022-08-14T16:25:52Z</time>
      </trkpt>
      <trkpt lat="4.3144890" lon="-76.1694390">
        <ele>957.6</ele>
        <time>2022-08-14T16:25:58Z</time>
      </trkpt>
      <trkpt lat="4.3147350" lon="-76.1693340">
        <ele>957.8</ele>
        <time>2022-08-14T16:26:03Z</time>
      </trkpt>
      <trkpt lat="4.3150760" lon="-76.1691910">
        <ele>958.0</ele>
        <time>2022-08-14T16:26:10Z</time>
      </trkpt>
      <trkpt lat="4.3152300" lon="-76.1691390">
        <ele>958.0</ele>
        <time>2022-08-14T16:26:13Z</time>
      </trkpt>
      <trkpt lat="4.3153730" lon="-76.1690680">
        <ele>958.0</ele>
        <time>2022-08-14T16:26:16Z</time>
      </trkpt>
      <trkpt lat="4.3154590" lon="-76.1690330">
        <ele>958.2</ele>
        <time>2022-08-14T16:26:18Z</time>
      </trkpt>
      <trkpt lat="4.3155330" lon="-76.1690330">
        <ele>958.2</ele>
        <time>2022-08-14T16:26:20Z</time>
      </trkpt>
      <trkpt lat="4.3155830" lon="-76.1690630">
        <ele>958.2</ele>
        <time>2022-08-14T16:26:22Z</time>
      </trkpt>
      <trkpt lat="4.3156200" lon="-76.1691250">
        <ele>958.2</ele>
        <time>2022-08-14T16:26:24Z</time>
      </trkpt>
      <trkpt lat="4.3157760" lon="-76.1693660">
        <ele>958.4</ele>
        <time>2022-08-14T16:26:32Z</time>
      </trkpt>
      <trkpt lat="4.3158540" lon="-76.1694360">
        <ele>958.6</ele>
        <time>2022-08-14T16:26:38Z</time>
      </trkpt>
      <trkpt lat="4.3158750" lon="-76.1694680">
        <ele>958.8</ele>
        <time>2022-08-14T16:26:40Z</time>
      </trkpt>
      <trkpt lat="4.3159000" lon="-76.1694960">
        <ele>958.8</ele>
        <time>2022-08-14T16:26:42Z</time>
      </trkpt>
      <trkpt lat="4.3159110" lon="-76.1695060">
        <ele>958.8</ele>
        <time>2022-08-14T16:26:43Z</time>
      </trkpt>
      <trkpt lat="4.3159270" lon="-76.1695430">
        <ele>958.8</ele>
        <time>2022-08-14T16:26:47Z</time>
      </trkpt>
      <trkpt lat="4.3159200" lon="-76.1695520">
        <ele>958.8</ele>
        <time>2022-08-14T16:26:48Z</time>
      </trkpt>
      <trkpt lat="4.3159080" lon="-76.1695590">
        <ele>958.6</ele>
        <time>2022-08-14T16:26:49Z</time>
      </trkpt>
      <trkpt lat="4.3158820" lon="-76.1695520">
        <ele>958.6</ele>
        <time>2022-08-14T16:26:51Z</time>
      </trkpt>
      <trkpt lat="4.3158610" lon="-76.1695150">
        <ele>958.6</ele>
        <time>2022-08-14T16:26:53Z</time>
      </trkpt>
      <trkpt lat="4.3158320" lon="-76.1694470">
        <ele>958.6</ele>
        <time>2022-08-14T16:26:56Z</time>
      </trkpt>
      <trkpt lat="4.3157970" lon="-76.1693970">
        <ele>958.6</ele>
        <time>2022-08-14T16:26:58Z</time>
      </trkpt>
      <trkpt lat="4.3157590" lon="-76.1692890">
        <ele>958.6</ele>
        <time>2022-08-14T16:27:03Z</time>
      </trkpt>
      <trkpt lat="4.3157620" lon="-76.1692690">
        <ele>958.6</ele>
        <time>2022-08-14T16:27:04Z</time>
      </trkpt>
      <trkpt lat="4.3158420" lon="-76.1691670">
        <ele>958.8</ele>
        <time>2022-08-14T16:27:09Z</time>
      </trkpt>
      <trkpt lat="4.3159800" lon="-76.1690300">
        <ele>958.8</ele>
        <time>2022-08-14T16:27:14Z</time>
      </trkpt>
      <trkpt lat="4.3161380" lon="-76.1688740">
        <ele>959.0</ele>
        <time>2022-08-14T16:27:19Z</time>
      </trkpt>
      <trkpt lat="4.3163700" lon="-76.1686390">
        <ele>959.0</ele>
        <time>2022-08-14T16:27:26Z</time>
      </trkpt>
      <trkpt lat="4.3166110" lon="-76.1684110">
        <ele>959.0</ele>
        <time>2022-08-14T16:27:33Z</time>
      </trkpt>
      <trkpt lat="4.3167190" lon="-76.1683070">
        <ele>959.2</ele>
        <time>2022-08-14T16:27:38Z</time>
      </trkpt>
      <trkpt lat="4.3167510" lon="-76.1682440">
        <ele>959.2</ele>
        <time>2022-08-14T16:27:42Z</time>
      </trkpt>
      <trkpt lat="4.3167530" lon="-76.1682360">
        <ele>959.2</ele>
        <time>2022-08-14T16:27:43Z</time>
      </trkpt>
      <trkpt lat="4.3167240" lon="-76.1682310">
        <ele>959.4</ele>
        <time>2022-08-14T16:27:46Z</time>
      </trkpt>
      <trkpt lat="4.3167090" lon="-76.1682420">
        <ele>959.4</ele>
        <time>2022-08-14T16:27:47Z</time>
      </trkpt>
      <trkpt lat="4.3166900" lon="-76.1682560">
        <ele>959.4</ele>
        <time>2022-08-14T16:27:48Z</time>
      </trkpt>
      <trkpt lat="4.3165980" lon="-76.1683190">
        <ele>959.2</ele>
        <time>2022-08-14T16:27:51Z</time>
      </trkpt>
      <trkpt lat="4.3163280" lon="-76.1684900">
        <ele>959.0</ele>
        <time>2022-08-14T16:27:58Z</time>
      </trkpt>
      <trkpt lat="4.3159920" lon="-76.1686990">
        <ele>959.0</ele>
        <time>2022-08-14T16:28:05Z</time>
      </trkpt>
      <trkpt lat="4.3155950" lon="-76.1689650">
        <ele>958.8</ele>
        <time>2022-08-14T16:28:14Z</time>
      </trkpt>
      <trkpt lat="4.3155450" lon="-76.1690340">
        <ele>958.8</ele>
        <time>2022-08-14T16:28:16Z</time>
      </trkpt>
      <trkpt lat="4.3155500" lon="-76.1690940">
        <ele>958.8</ele>
        <time>2022-08-14T16:28:18Z</time>
      </trkpt>
      <trkpt lat="4.3156660" lon="-76.1692380">
        <ele>958.8</ele>
        <time>2022-08-14T16:28:23Z</time>
      </trkpt>
      <trkpt lat="4.3157780" lon="-76.1693770">
        <ele>959.2</ele>
        <time>2022-08-14T16:28:28Z</time>
      </trkpt>
      <trkpt lat="4.3157980" lon="-76.1694070">
        <ele>959.2</ele>
        <time>2022-08-14T16:28:29Z</time>
      </trkpt>
      <trkpt lat="4.3158840" lon="-76.1695230">
        <ele>959.4</ele>
        <time>2022-08-14T16:28:32Z</time>
      </trkpt>
      <trkpt lat="4.3159480" lon="-76.1696090">
        <ele>959.4</ele>
        <time>2022-08-14T16:28:34Z</time>
      </trkpt>
      <trkpt lat="4.3161430" lon="-76.1698550">
        <ele>958.6</ele>
        <time>2022-08-14T16:28:40Z</time>
      </trkpt>
      <trkpt lat="4.3163760" lon="-76.1701080">
        <ele>958.2</ele>
        <time>2022-08-14T16:28:47Z</time>
      </trkpt>
      <trkpt lat="4.3166320" lon="-76.1703410">
        <ele>958.2</ele>
        <time>2022-08-14T16:28:54Z</time>
      </trkpt>
      <trkpt lat="4.3169330" lon="-76.1705940">
        <ele>958.8</ele>
        <time>2022-08-14T16:29:02Z</time>
      </trkpt>
      <trkpt lat="4.3171700" lon="-76.1707620">
        <ele>959.2</ele>
        <time>2022-08-14T16:29:09Z</time>
      </trkpt>
      <trkpt lat="4.3172740" lon="-76.1708010">
        <ele>959.6</ele>
        <time>2022-08-14T16:29:12Z</time>
      </trkpt>
      <trkpt lat="4.3173280" lon="-76.1708120">
        <ele>960.6</ele>
        <time>2022-08-14T16:29:14Z</time>
      </trkpt>
      <trkpt lat="4.3173480" lon="-76.1708160">
        <ele>961.0</ele>
        <time>2022-08-14T16:29:15Z</time>
      </trkpt>
      <trkpt lat="4.3173640" lon="-76.1708180">
        <ele>961.4</ele>
        <time>2022-08-14T16:29:18Z</time>
      </trkpt>
      <trkpt lat="4.3174520" lon="-76.1708170">
        <ele>961.8</ele>
        <time>2022-08-14T16:29:23Z</time>
      </trkpt>
      <trkpt lat="4.3175680" lon="-76.1707670">
        <ele>962.0</ele>
        <time>2022-08-14T16:29:28Z</time>
      </trkpt>
      <trkpt lat="4.3176090" lon="-76.1707650">
        <ele>961.4</ele>
        <time>2022-08-14T16:29:31Z</time>
      </trkpt>
      <trkpt lat="4.3176200" lon="-76.1707710">
        <ele>961.4</ele>
        <time>2022-08-14T16:29:32Z</time>
      </trkpt>
      <trkpt lat="4.3176280" lon="-76.1707790">
        <ele>961.4</ele>
        <time>2022-08-14T16:29:33Z</time>
      </trkpt>
      <trkpt lat="4.3176320" lon="-76.1707880">
        <ele>961.0</ele>
        <time>2022-08-14T16:29:37Z</time>
      </trkpt>
      <trkpt lat="4.3176340" lon="-76.1707960">
        <ele>960.6</ele>
        <time>2022-08-14T16:29:40Z</time>
      </trkpt>
      <trkpt lat="4.3176570" lon="-76.1708150">
        <ele>960.0</ele>
        <time>2022-08-14T16:29:45Z</time>
      </trkpt>
      <trkpt lat="4.3176670" lon="-76.1708180">
        <ele>959.8</ele>
        <time>2022-08-14T16:29:46Z</time>
      </trkpt>
      <trkpt lat="4.3176770" lon="-76.1708210">
        <ele>959.6</ele>
        <time>2022-08-14T16:29:47Z</time>
      </trkpt>
      <trkpt lat="4.3177110" lon="-76.1708330">
        <ele>959.0</ele>
        <time>2022-08-14T16:29:51Z</time>
      </trkpt>
      <trkpt lat="4.3177110" lon="-76.1708330">
        <ele>958.8</ele>
        <time>2022-08-14T16:29:52Z</time>
      </trkpt>
      <trkpt lat="4.3177160" lon="-76.1708360">
        <ele>958.6</ele>
        <time>2022-08-14T16:29:53Z</time>
      </trkpt>
      <trkpt lat="4.3177180" lon="-76.1708390">
        <ele>958.2</ele>
        <time>2022-08-14T16:30:01Z</time>
      </trkpt>
      <trkpt lat="4.3177180" lon="-76.1708390">
        <ele>958.2</ele>
        <time>2022-08-14T16:30:05Z</time>
      </trkpt>
      <trkpt lat="4.3177180" lon="-76.1708390">
        <ele>958.2</ele>
        <time>2022-08-14T16:30:15Z</time>
      </trkpt>
      <trkpt lat="4.3177180" lon="-76.1708390">
        <ele>958.2</ele>
        <time>2022-08-14T16:30:18Z</time>
      </trkpt>
      <trkpt lat="4.3177180" lon="-76.1708390">
        <ele>958.2</ele>
        <time>2022-08-14T16:30:24Z</time>
      </trkpt>
      <trkpt lat="4.3177170" lon="-76.1708380">
        <ele>958.2</ele>
        <time>2022-08-14T16:30:34Z</time>
      </trkpt>
      <trkpt lat="4.3177170" lon="-76.1708360">
        <ele>958.0</ele>
        <time>2022-08-14T16:30:41Z</time>
      </trkpt>
      <trkpt lat="4.3177080" lon="-76.1708290">
        <ele>958.0</ele>
        <time>2022-08-14T16:30:54Z</time>
      </trkpt>
      <trkpt lat="4.3177080" lon="-76.1708290">
        <ele>958.2</ele>
        <time>2022-08-14T16:31:11Z</time>
      </trkpt>
      <trkpt lat="4.3177080" lon="-76.1708290">
        <ele>958.0</ele>
        <time>2022-08-14T16:31:19Z</time>
      </trkpt>
      <trkpt lat="4.3177080" lon="-76.1708290">
        <ele>958.0</ele>
        <time>2022-08-14T16:31:23Z</time>
      </trkpt>
      <trkpt lat="4.3177080" lon="-76.1708290">
        <ele>958.0</ele>
        <time>2022-08-14T16:31:27Z</time>
      </trkpt>
      <trkpt lat="4.3177080" lon="-76.1708290">
        <ele>958.0</ele>
        <time>2022-08-14T16:31:42Z</time>
      </trkpt>
      <trkpt lat="4.3177080" lon="-76.1708290">
        <ele>958.0</ele>
        <time>2022-08-14T16:31:52Z</time>
      </trkpt>
      <trkpt lat="4.3177080" lon="-76.1708290">
        <ele>958.0</ele>
        <time>2022-08-14T16:31:57Z</time>
      </trkpt>
      <trkpt lat="4.3177080" lon="-76.1708290">
        <ele>957.8</ele>
        <time>2022-08-14T16:32:05Z</time>
      </trkpt>
      <trkpt lat="4.3177080" lon="-76.1708290">
        <ele>957.8</ele>
        <time>2022-08-14T16:32:36Z</time>
      </trkpt>
      <trkpt lat="4.3177080" lon="-76.1708290">
        <ele>957.6</ele>
        <time>2022-08-14T16:33:06Z</time>
      </trkpt>
      <trkpt lat="4.3177080" lon="-76.1708290">
        <ele>957.8</ele>
        <time>2022-08-14T16:33:14Z</time>
      </trkpt>
      <trkpt lat="4.3177080" lon="-76.1708290">
        <ele>957.8</ele>
        <time>2022-08-14T16:33:27Z</time>
      </trkpt>
      <trkpt lat="4.3177080" lon="-76.1708290">
        <ele>957.6</ele>
        <time>2022-08-14T16:33:30Z</time>
      </trkpt>
      <trkpt lat="4.3179080" lon="-76.1709380">
        <ele>957.8</ele>
        <time>2022-08-14T16:34:05Z</time>
      </trkpt>
      <trkpt lat="4.3180180" lon="-76.1710010">
        <ele>957.8</ele>
        <time>2022-08-14T16:34:11Z</time>
      </trkpt>
      <trkpt lat="4.3181000" lon="-76.1710660">
        <ele>957.6</ele>
        <time>2022-08-14T16:34:21Z</time>
      </trkpt>
      <trkpt lat="4.3181520" lon="-76.1711090">
        <ele>957.6</ele>
        <time>2022-08-14T16:34:27Z</time>
      </trkpt>
      <trkpt lat="4.3182420" lon="-76.1712030">
        <ele>957.4</ele>
        <time>2022-08-14T16:34:40Z</time>
      </trkpt>
      <trkpt lat="4.3182590" lon="-76.1712270">
        <ele>957.8</ele>
        <time>2022-08-14T16:34:43Z</time>
      </trkpt>
      <trkpt lat="4.3182950" lon="-76.1712540">
        <ele>958.0</ele>
        <time>2022-08-14T16:34:49Z</time>
      </trkpt>
      <trkpt lat="4.3183080" lon="-76.1712740">
        <ele>958.2</ele>
        <time>2022-08-14T16:34:53Z</time>
      </trkpt>
      <trkpt lat="4.3183090" lon="-76.1712760">
        <ele>958.2</ele>
        <time>2022-08-14T16:34:56Z</time>
      </trkpt>
      <trkpt lat="4.3183090" lon="-76.1712760">
        <ele>958.4</ele>
        <time>2022-08-14T16:34:58Z</time>
      </trkpt>
      <trkpt lat="4.3183090" lon="-76.1712770">
        <ele>958.4</ele>
        <time>2022-08-14T16:35:07Z</time>
      </trkpt>
      <trkpt lat="4.3183070" lon="-76.1712740">
        <ele>958.4</ele>
        <time>2022-08-14T16:35:14Z</time>
      </trkpt>
      <trkpt lat="4.3183260" lon="-76.1713070">
        <ele>958.4</ele>
        <time>2022-08-14T16:35:35Z</time>
      </trkpt>
      <trkpt lat="4.3183360" lon="-76.1713370">
        <ele>959.2</ele>
        <time>2022-08-14T16:35:45Z</time>
      </trkpt>
      <trkpt lat="4.3183510" lon="-76.1713750">
        <ele>959.4</ele>
        <time>2022-08-14T16:35:48Z</time>
      </trkpt>
      <trkpt lat="4.3183580" lon="-76.1713990">
        <ele>959.6</ele>
        <time>2022-08-14T16:35:50Z</time>
      </trkpt>
      <trkpt lat="4.3183760" lon="-76.1714620">
        <ele>960.6</ele>
        <time>2022-08-14T16:35:57Z</time>
      </trkpt>
      <trkpt lat="4.3183760" lon="-76.1714620">
        <ele>960.8</ele>
        <time>2022-08-14T16:35:58Z</time>
      </trkpt>
      <trkpt lat="4.3184000" lon="-76.1714880">
        <ele>961.2</ele>
        <time>2022-08-14T16:36:05Z</time>
      </trkpt>
      <trkpt lat="4.3184040" lon="-76.1714990">
        <ele>961.2</ele>
        <time>2022-08-14T16:36:06Z</time>
      </trkpt>
      <trkpt lat="4.3184180" lon="-76.1715480">
        <ele>961.2</ele>
        <time>2022-08-14T16:36:09Z</time>
      </trkpt>
      <trkpt lat="4.3184660" lon="-76.1716160">
        <ele>961.4</ele>
        <time>2022-08-14T16:36:12Z</time>
      </trkpt>
      <trkpt lat="4.3185980" lon="-76.1718130">
        <ele>961.6</ele>
        <time>2022-08-14T16:36:19Z</time>
      </trkpt>
      <trkpt lat="4.3186960" lon="-76.1720020">
        <ele>962.0</ele>
        <time>2022-08-14T16:36:26Z</time>
      </trkpt>
      <trkpt lat="4.3188710" lon="-76.1722660">
        <ele>961.8</ele>
        <time>2022-08-14T16:36:34Z</time>
      </trkpt>
      <trkpt lat="4.3189310" lon="-76.1724060">
        <ele>961.8</ele>
        <time>2022-08-14T16:36:39Z</time>
      </trkpt>
      <trkpt lat="4.3189540" lon="-76.1725680">
        <ele>962.0</ele>
        <time>2022-08-14T16:36:44Z</time>
      </trkpt>
      <trkpt lat="4.3189690" lon="-76.1726730">
        <ele>961.8</ele>
        <time>2022-08-14T16:36:47Z</time>
      </trkpt>
      <trkpt lat="4.3189660" lon="-76.1728890">
        <ele>961.8</ele>
        <time>2022-08-14T16:36:53Z</time>
      </trkpt>
      <trkpt lat="4.3189370" lon="-76.1730850">
        <ele>961.8</ele>
        <time>2022-08-14T16:36:58Z</time>
      </trkpt>
      <trkpt lat="4.3189200" lon="-76.1731970">
        <ele>961.8</ele>
        <time>2022-08-14T16:37:01Z</time>
      </trkpt>
      <trkpt lat="4.3188890" lon="-76.1734590">
        <ele>961.4</ele>
        <time>2022-08-14T16:37:08Z</time>
      </trkpt>
      <trkpt lat="4.3188740" lon="-76.1736440">
        <ele>961.4</ele>
        <time>2022-08-14T16:37:13Z</time>
      </trkpt>
      <trkpt lat="4.3188370" lon="-76.1738580">
        <ele>961.4</ele>
        <time>2022-08-14T16:37:19Z</time>
      </trkpt>
      <trkpt lat="4.3188010" lon="-76.1742720">
        <ele>961.4</ele>
        <time>2022-08-14T16:37:30Z</time>
      </trkpt>
      <trkpt lat="4.3187620" lon="-76.1745270">
        <ele>961.4</ele>
        <time>2022-08-14T16:37:37Z</time>
      </trkpt>
      <trkpt lat="4.3187510" lon="-76.1746800">
        <ele>961.4</ele>
        <time>2022-08-14T16:37:41Z</time>
      </trkpt>
      <trkpt lat="4.3187360" lon="-76.1749660">
        <ele>961.6</ele>
        <time>2022-08-14T16:37:48Z</time>
      </trkpt>
      <trkpt lat="4.3187080" lon="-76.1751120">
        <ele>961.4</ele>
        <time>2022-08-14T16:37:52Z</time>
      </trkpt>
      <trkpt lat="4.3186620" lon="-76.1752430">
        <ele>961.4</ele>
        <time>2022-08-14T16:37:56Z</time>
      </trkpt>
      <trkpt lat="4.3185090" lon="-76.1755580">
        <ele>961.4</ele>
        <time>2022-08-14T16:38:05Z</time>
      </trkpt>
      <trkpt lat="4.3184900" lon="-76.1755910">
        <ele>961.4</ele>
        <time>2022-08-14T16:38:06Z</time>
      </trkpt>
      <trkpt lat="4.3184030" lon="-76.1758950">
        <ele>961.6</ele>
        <time>2022-08-14T16:38:14Z</time>
      </trkpt>
      <trkpt lat="4.3183960" lon="-76.1759350">
        <ele>961.6</ele>
        <time>2022-08-14T16:38:15Z</time>
      </trkpt>
      <trkpt lat="4.3183830" lon="-76.1762190">
        <ele>961.6</ele>
        <time>2022-08-14T16:38:22Z</time>
      </trkpt>
      <trkpt lat="4.3183930" lon="-76.1762610">
        <ele>961.6</ele>
        <time>2022-08-14T16:38:23Z</time>
      </trkpt>
      <trkpt lat="4.3184230" lon="-76.1763810">
        <ele>961.8</ele>
        <time>2022-08-14T16:38:26Z</time>
      </trkpt>
      <trkpt lat="4.3184950" lon="-76.1765370">
        <ele>962.0</ele>
        <time>2022-08-14T16:38:30Z</time>
      </trkpt>
      <trkpt lat="4.3185420" lon="-76.1766080">
        <ele>962.0</ele>
        <time>2022-08-14T16:38:32Z</time>
      </trkpt>
      <trkpt lat="4.3186050" lon="-76.1766710">
        <ele>962.0</ele>
        <time>2022-08-14T16:38:34Z</time>
      </trkpt>
      <trkpt lat="4.3186460" lon="-76.1766980">
        <ele>962.2</ele>
        <time>2022-08-14T16:38:35Z</time>
      </trkpt>
      <trkpt lat="4.3187560" lon="-76.1767940">
        <ele>962.0</ele>
        <time>2022-08-14T16:38:38Z</time>
      </trkpt>
      <trkpt lat="4.3189400" lon="-76.1769490">
        <ele>962.0</ele>
        <time>2022-08-14T16:38:43Z</time>
      </trkpt>
      <trkpt lat="4.3190410" lon="-76.1770470">
        <ele>962.0</ele>
        <time>2022-08-14T16:38:46Z</time>
      </trkpt>
      <trkpt lat="4.3191440" lon="-76.1771390">
        <ele>962.0</ele>
        <time>2022-08-14T16:38:49Z</time>
      </trkpt>
      <trkpt lat="4.3194220" lon="-76.1773420">
        <ele>961.8</ele>
        <time>2022-08-14T16:38:56Z</time>
      </trkpt>
      <trkpt lat="4.3198940" lon="-76.1775200">
        <ele>961.8</ele>
        <time>2022-08-14T16:39:06Z</time>
      </trkpt>
      <trkpt lat="4.3202860" lon="-76.1776690">
        <ele>961.8</ele>
        <time>2022-08-14T16:39:14Z</time>
      </trkpt>
      <trkpt lat="4.3203750" lon="-76.1777130">
        <ele>961.8</ele>
        <time>2022-08-14T16:39:16Z</time>
      </trkpt>
      <trkpt lat="4.3204600" lon="-76.1777570">
        <ele>961.8</ele>
        <time>2022-08-14T16:39:18Z</time>
      </trkpt>
      <trkpt lat="4.3206020" lon="-76.1778020">
        <ele>961.8</ele>
        <time>2022-08-14T16:39:21Z</time>
      </trkpt>
      <trkpt lat="4.3206520" lon="-76.1778120">
        <ele>962.0</ele>
        <time>2022-08-14T16:39:22Z</time>
      </trkpt>
      <trkpt lat="4.3209430" lon="-76.1778990">
        <ele>962.2</ele>
        <time>2022-08-14T16:39:29Z</time>
      </trkpt>
      <trkpt lat="4.3212110" lon="-76.1780030">
        <ele>963.2</ele>
        <time>2022-08-14T16:39:37Z</time>
      </trkpt>
      <trkpt lat="4.3213290" lon="-76.1780620">
        <ele>963.8</ele>
        <time>2022-08-14T16:39:40Z</time>
      </trkpt>
      <trkpt lat="4.3214200" lon="-76.1781140">
        <ele>964.4</ele>
        <time>2022-08-14T16:39:42Z</time>
      </trkpt>
      <trkpt lat="4.3214680" lon="-76.1781470">
        <ele>964.4</ele>
        <time>2022-08-14T16:39:43Z</time>
      </trkpt>
      <trkpt lat="4.3215660" lon="-76.1782270">
        <ele>964.4</ele>
        <time>2022-08-14T16:39:45Z</time>
      </trkpt>
      <trkpt lat="4.3216130" lon="-76.1782750">
        <ele>964.4</ele>
        <time>2022-08-14T16:39:46Z</time>
      </trkpt>
      <trkpt lat="4.3216570" lon="-76.1783260">
        <ele>964.4</ele>
        <time>2022-08-14T16:39:47Z</time>
      </trkpt>
      <trkpt lat="4.3217480" lon="-76.1784940">
        <ele>964.0</ele>
        <time>2022-08-14T16:39:50Z</time>
      </trkpt>
      <trkpt lat="4.3218150" lon="-76.1786620">
        <ele>962.2</ele>
        <time>2022-08-14T16:39:53Z</time>
      </trkpt>
      <trkpt lat="4.3218750" lon="-76.1788930">
        <ele>961.2</ele>
        <time>2022-08-14T16:39:57Z</time>
      </trkpt>
      <trkpt lat="4.3219170" lon="-76.1791160">
        <ele>961.0</ele>
        <time>2022-08-14T16:40:01Z</time>
      </trkpt>
      <trkpt lat="4.3219380" lon="-76.1792160">
        <ele>961.0</ele>
        <time>2022-08-14T16:40:03Z</time>
      </trkpt>
      <trkpt lat="4.3220280" lon="-76.1795640">
        <ele>961.4</ele>
        <time>2022-08-14T16:40:10Z</time>
      </trkpt>
      <trkpt lat="4.3220490" lon="-76.1796580">
        <ele>961.6</ele>
        <time>2022-08-14T16:40:12Z</time>
      </trkpt>
      <trkpt lat="4.3220860" lon="-76.1798070">
        <ele>961.6</ele>
        <time>2022-08-14T16:40:15Z</time>
      </trkpt>
      <trkpt lat="4.3221020" lon="-76.1798570">
        <ele>961.6</ele>
        <time>2022-08-14T16:40:16Z</time>
      </trkpt>
      <trkpt lat="4.3221470" lon="-76.1800490">
        <ele>961.8</ele>
        <time>2022-08-14T16:40:20Z</time>
      </trkpt>
      <trkpt lat="4.3221860" lon="-76.1801450">
        <ele>961.8</ele>
        <time>2022-08-14T16:40:22Z</time>
      </trkpt>
      <trkpt lat="4.3223180" lon="-76.1804680">
        <ele>961.8</ele>
        <time>2022-08-14T16:40:29Z</time>
      </trkpt>
      <trkpt lat="4.3223830" lon="-76.1806330">
        <ele>962.2</ele>
        <time>2022-08-14T16:40:34Z</time>
      </trkpt>
      <trkpt lat="4.3224050" lon="-76.1806750">
        <ele>962.2</ele>
        <time>2022-08-14T16:40:36Z</time>
      </trkpt>
      <trkpt lat="4.3224400" lon="-76.1807420">
        <ele>962.6</ele>
        <time>2022-08-14T16:40:39Z</time>
      </trkpt>
      <trkpt lat="4.3224790" lon="-76.1808220">
        <ele>963.8</ele>
        <time>2022-08-14T16:40:43Z</time>
      </trkpt>
      <trkpt lat="4.3224870" lon="-76.1808420">
        <ele>964.2</ele>
        <time>2022-08-14T16:40:44Z</time>
      </trkpt>
      <trkpt lat="4.3225050" lon="-76.1809070">
        <ele>965.0</ele>
        <time>2022-08-14T16:40:48Z</time>
      </trkpt>
      <trkpt lat="4.3225250" lon="-76.1809390">
        <ele>965.4</ele>
        <time>2022-08-14T16:40:50Z</time>
      </trkpt>
      <trkpt lat="4.3225540" lon="-76.1810100">
        <ele>966.2</ele>
        <time>2022-08-14T16:40:53Z</time>
      </trkpt>
      <trkpt lat="4.3226070" lon="-76.1810950">
        <ele>967.0</ele>
        <time>2022-08-14T16:40:56Z</time>
      </trkpt>
      <trkpt lat="4.3226360" lon="-76.1811280">
        <ele>967.4</ele>
        <time>2022-08-14T16:40:57Z</time>
      </trkpt>
      <trkpt lat="4.3228010" lon="-76.1812780">
        <ele>967.6</ele>
        <time>2022-08-14T16:41:01Z</time>
      </trkpt>
      <trkpt lat="4.3230220" lon="-76.1814690">
        <ele>967.6</ele>
        <time>2022-08-14T16:41:06Z</time>
      </trkpt>
      <trkpt lat="4.3231300" lon="-76.1815410">
        <ele>967.2</ele>
        <time>2022-08-14T16:41:08Z</time>
      </trkpt>
      <trkpt lat="4.3233550" lon="-76.1816660">
        <ele>966.0</ele>
        <time>2022-08-14T16:41:12Z</time>
      </trkpt>
      <trkpt lat="4.3234720" lon="-76.1817160">
        <ele>965.8</ele>
        <time>2022-08-14T16:41:14Z</time>
      </trkpt>
      <trkpt lat="4.3239660" lon="-76.1818890">
        <ele>965.4</ele>
        <time>2022-08-14T16:41:22Z</time>
      </trkpt>
      <trkpt lat="4.3242830" lon="-76.1819800">
        <ele>965.4</ele>
        <time>2022-08-14T16:41:27Z</time>
      </trkpt>
      <trkpt lat="4.3244810" lon="-76.1820310">
        <ele>965.4</ele>
        <time>2022-08-14T16:41:30Z</time>
      </trkpt>
      <trkpt lat="4.3245470" lon="-76.1820500">
        <ele>965.6</ele>
        <time>2022-08-14T16:41:31Z</time>
      </trkpt>
      <trkpt lat="4.3248110" lon="-76.1821310">
        <ele>965.8</ele>
        <time>2022-08-14T16:41:35Z</time>
      </trkpt>
      <trkpt lat="4.3252010" lon="-76.1822380">
        <ele>965.8</ele>
        <time>2022-08-14T16:41:41Z</time>
      </trkpt>
      <trkpt lat="4.3257140" lon="-76.1823720">
        <ele>965.8</ele>
        <time>2022-08-14T16:41:49Z</time>
      </trkpt>
      <trkpt lat="4.3261070" lon="-76.1824390">
        <ele>965.8</ele>
        <time>2022-08-14T16:41:55Z</time>
      </trkpt>
      <trkpt lat="4.3262350" lon="-76.1824480">
        <ele>966.0</ele>
        <time>2022-08-14T16:41:57Z</time>
      </trkpt>
      <trkpt lat="4.3262960" lon="-76.1824420">
        <ele>966.2</ele>
        <time>2022-08-14T16:41:58Z</time>
      </trkpt>
      <trkpt lat="4.3264980" lon="-76.1824610">
        <ele>966.2</ele>
        <time>2022-08-14T16:42:01Z</time>
      </trkpt>
      <trkpt lat="4.3269990" lon="-76.1825050">
        <ele>966.4</ele>
        <time>2022-08-14T16:42:09Z</time>
      </trkpt>
      <trkpt lat="4.3272010" lon="-76.1825350">
        <ele>966.4</ele>
        <time>2022-08-14T16:42:12Z</time>
      </trkpt>
      <trkpt lat="4.3273410" lon="-76.1825470">
        <ele>966.6</ele>
        <time>2022-08-14T16:42:14Z</time>
      </trkpt>
      <trkpt lat="4.3278100" lon="-76.1825020">
        <ele>966.6</ele>
        <time>2022-08-14T16:42:21Z</time>
      </trkpt>
      <trkpt lat="4.3282930" lon="-76.1823260">
        <ele>966.4</ele>
        <time>2022-08-14T16:42:28Z</time>
      </trkpt>
      <trkpt lat="4.3287240" lon="-76.1820510">
        <ele>966.0</ele>
        <time>2022-08-14T16:42:35Z</time>
      </trkpt>
      <trkpt lat="4.3291900" lon="-76.1817190">
        <ele>966.0</ele>
        <time>2022-08-14T16:42:43Z</time>
      </trkpt>
      <trkpt lat="4.3296600" lon="-76.1813770">
        <ele>965.6</ele>
        <time>2022-08-14T16:42:51Z</time>
      </trkpt>
      <trkpt lat="4.3297170" lon="-76.1813350">
        <ele>965.6</ele>
        <time>2022-08-14T16:42:52Z</time>
      </trkpt>
      <trkpt lat="4.3300670" lon="-76.1810670">
        <ele>965.2</ele>
        <time>2022-08-14T16:42:58Z</time>
      </trkpt>
      <trkpt lat="4.3301290" lon="-76.1810280">
        <ele>965.2</ele>
        <time>2022-08-14T16:42:59Z</time>
      </trkpt>
      <trkpt lat="4.3305960" lon="-76.1806860">
        <ele>965.2</ele>
        <time>2022-08-14T16:43:07Z</time>
      </trkpt>
      <trkpt lat="4.3306540" lon="-76.1806440">
        <ele>965.2</ele>
        <time>2022-08-14T16:43:08Z</time>
      </trkpt>
      <trkpt lat="4.3311320" lon="-76.1803200">
        <ele>965.4</ele>
        <time>2022-08-14T16:43:16Z</time>
      </trkpt>
      <trkpt lat="4.3313100" lon="-76.1801900">
        <ele>965.6</ele>
        <time>2022-08-14T16:43:19Z</time>
      </trkpt>
      <trkpt lat="4.3317960" lon="-76.1798570">
        <ele>965.6</ele>
        <time>2022-08-14T16:43:27Z</time>
      </trkpt>
      <trkpt lat="4.3322750" lon="-76.1795130">
        <ele>965.2</ele>
        <time>2022-08-14T16:43:35Z</time>
      </trkpt>
      <trkpt lat="4.3324390" lon="-76.1793840">
        <ele>965.2</ele>
        <time>2022-08-14T16:43:38Z</time>
      </trkpt>
      <trkpt lat="4.3328360" lon="-76.1790930">
        <ele>965.2</ele>
        <time>2022-08-14T16:43:45Z</time>
      </trkpt>
      <trkpt lat="4.3328950" lon="-76.1790570">
        <ele>965.4</ele>
        <time>2022-08-14T16:43:46Z</time>
      </trkpt>
      <trkpt lat="4.3332010" lon="-76.1788820">
        <ele>965.8</ele>
        <time>2022-08-14T16:43:51Z</time>
      </trkpt>
      <trkpt lat="4.3335960" lon="-76.1787600">
        <ele>966.4</ele>
        <time>2022-08-14T16:43:57Z</time>
      </trkpt>
      <trkpt lat="4.3338040" lon="-76.1787290">
        <ele>966.4</ele>
        <time>2022-08-14T16:44:00Z</time>
      </trkpt>
      <trkpt lat="4.3338750" lon="-76.1787200">
        <ele>966.6</ele>
        <time>2022-08-14T16:44:01Z</time>
      </trkpt>
      <trkpt lat="4.3340090" lon="-76.1786950">
        <ele>966.8</ele>
        <time>2022-08-14T16:44:03Z</time>
      </trkpt>
      <trkpt lat="4.3342910" lon="-76.1786630">
        <ele>967.0</ele>
        <time>2022-08-14T16:44:07Z</time>
      </trkpt>
      <trkpt lat="4.3344350" lon="-76.1786530">
        <ele>967.2</ele>
        <time>2022-08-14T16:44:09Z</time>
      </trkpt>
      <trkpt lat="4.3349300" lon="-76.1786130">
        <ele>967.2</ele>
        <time>2022-08-14T16:44:16Z</time>
      </trkpt>
      <trkpt lat="4.3353520" lon="-76.1785550">
        <ele>967.6</ele>
        <time>2022-08-14T16:44:23Z</time>
      </trkpt>
      <trkpt lat="4.3354150" lon="-76.1785510">
        <ele>967.6</ele>
        <time>2022-08-14T16:44:24Z</time>
      </trkpt>
      <trkpt lat="4.3355350" lon="-76.1785360">
        <ele>967.8</ele>
        <time>2022-08-14T16:44:26Z</time>
      </trkpt>
      <trkpt lat="4.3357560" lon="-76.1785110">
        <ele>968.0</ele>
        <time>2022-08-14T16:44:30Z</time>
      </trkpt>
      <trkpt lat="4.3359980" lon="-76.1784750">
        <ele>968.6</ele>
        <time>2022-08-14T16:44:35Z</time>
      </trkpt>
      <trkpt lat="4.3360240" lon="-76.1784530">
        <ele>969.2</ele>
        <time>2022-08-14T16:44:36Z</time>
      </trkpt>
      <trkpt lat="4.3360380" lon="-76.1784200">
        <ele>969.2</ele>
        <time>2022-08-14T16:44:37Z</time>
      </trkpt>
      <trkpt lat="4.3360270" lon="-76.1783400">
        <ele>969.4</ele>
        <time>2022-08-14T16:44:39Z</time>
      </trkpt>
      <trkpt lat="4.3359850" lon="-76.1781320">
        <ele>969.4</ele>
        <time>2022-08-14T16:44:43Z</time>
      </trkpt>
      <trkpt lat="4.3359950" lon="-76.1780230">
        <ele>969.4</ele>
        <time>2022-08-14T16:44:45Z</time>
      </trkpt>
      <trkpt lat="4.3360210" lon="-76.1779760">
        <ele>969.2</ele>
        <time>2022-08-14T16:44:46Z</time>
      </trkpt>
      <trkpt lat="4.3362770" lon="-76.1776770">
        <ele>968.2</ele>
        <time>2022-08-14T16:44:53Z</time>
      </trkpt>
      <trkpt lat="4.3365690" lon="-76.1773880">
        <ele>967.6</ele>
        <time>2022-08-14T16:45:00Z</time>
      </trkpt>
      <trkpt lat="4.3366960" lon="-76.1772660">
        <ele>967.6</ele>
        <time>2022-08-14T16:45:03Z</time>
      </trkpt>
      <trkpt lat="4.3369620" lon="-76.1770110">
        <ele>967.6</ele>
        <time>2022-08-14T16:45:09Z</time>
      </trkpt>
      <trkpt lat="4.3372950" lon="-76.1766330">
        <ele>967.6</ele>
        <time>2022-08-14T16:45:17Z</time>
      </trkpt>
      <trkpt lat="4.3373720" lon="-76.1763850">
        <ele>967.6</ele>
        <time>2022-08-14T16:45:21Z</time>
      </trkpt>
      <trkpt lat="4.3374920" lon="-76.1758490">
        <ele>967.4</ele>
        <time>2022-08-14T16:45:29Z</time>
      </trkpt>
      <trkpt lat="4.3375100" lon="-76.1757830">
        <ele>967.4</ele>
        <time>2022-08-14T16:45:30Z</time>
      </trkpt>
      <trkpt lat="4.3375310" lon="-76.1757190">
        <ele>967.2</ele>
        <time>2022-08-14T16:45:31Z</time>
      </trkpt>
      <trkpt lat="4.3375750" lon="-76.1755900">
        <ele>967.0</ele>
        <time>2022-08-14T16:45:33Z</time>
      </trkpt>
      <trkpt lat="4.3376540" lon="-76.1754030">
        <ele>967.0</ele>
        <time>2022-08-14T16:45:36Z</time>
      </trkpt>
      <trkpt lat="4.3378770" lon="-76.1749820">
        <ele>966.8</ele>
        <time>2022-08-14T16:45:43Z</time>
      </trkpt>
      <trkpt lat="4.3379850" lon="-76.1747260">
        <ele>966.8</ele>
        <time>2022-08-14T16:45:47Z</time>
      </trkpt>
      <trkpt lat="4.3379980" lon="-76.1745870">
        <ele>966.6</ele>
        <time>2022-08-14T16:45:49Z</time>
      </trkpt>
      <trkpt lat="4.3379770" lon="-76.1744440">
        <ele>966.6</ele>
        <time>2022-08-14T16:45:51Z</time>
      </trkpt>
      <trkpt lat="4.3379170" lon="-76.1742290">
        <ele>966.6</ele>
        <time>2022-08-14T16:45:54Z</time>
      </trkpt>
      <trkpt lat="4.3377150" lon="-76.1736620">
        <ele>966.2</ele>
        <time>2022-08-14T16:46:02Z</time>
      </trkpt>
      <trkpt lat="4.3376420" lon="-76.1735200">
        <ele>966.0</ele>
        <time>2022-08-14T16:46:04Z</time>
      </trkpt>
      <trkpt lat="4.3374130" lon="-76.1730950">
        <ele>965.8</ele>
        <time>2022-08-14T16:46:10Z</time>
      </trkpt>
      <trkpt lat="4.3371190" lon="-76.1726000">
        <ele>965.2</ele>
        <time>2022-08-14T16:46:17Z</time>
      </trkpt>
      <trkpt lat="4.3370740" lon="-76.1725330">
        <ele>965.0</ele>
        <time>2022-08-14T16:46:18Z</time>
      </trkpt>
      <trkpt lat="4.3369230" lon="-76.1722400">
        <ele>964.0</ele>
        <time>2022-08-14T16:46:22Z</time>
      </trkpt>
      <trkpt lat="4.3368920" lon="-76.1721640">
        <ele>963.8</ele>
        <time>2022-08-14T16:46:23Z</time>
      </trkpt>
      <trkpt lat="4.3367610" lon="-76.1716970">
        <ele>963.2</ele>
        <time>2022-08-14T16:46:29Z</time>
      </trkpt>
      <trkpt lat="4.3367390" lon="-76.1714590">
        <ele>963.0</ele>
        <time>2022-08-14T16:46:32Z</time>
      </trkpt>
      <trkpt lat="4.3367460" lon="-76.1712210">
        <ele>962.6</ele>
        <time>2022-08-14T16:46:35Z</time>
      </trkpt>
      <trkpt lat="4.3367510" lon="-76.1711440">
        <ele>962.6</ele>
        <time>2022-08-14T16:46:36Z</time>
      </trkpt>
      <trkpt lat="4.3367800" lon="-76.1708560">
        <ele>962.6</ele>
        <time>2022-08-14T16:46:40Z</time>
      </trkpt>
      <trkpt lat="4.3368370" lon="-76.1707360">
        <ele>962.6</ele>
        <time>2022-08-14T16:46:42Z</time>
      </trkpt>
      <trkpt lat="4.3370370" lon="-76.1705650">
        <ele>962.6</ele>
        <time>2022-08-14T16:46:46Z</time>
      </trkpt>
      <trkpt lat="4.3373190" lon="-76.1704020">
        <ele>962.8</ele>
        <time>2022-08-14T16:46:51Z</time>
      </trkpt>
      <trkpt lat="4.3376880" lon="-76.1703220">
        <ele>963.2</ele>
        <time>2022-08-14T16:46:57Z</time>
      </trkpt>
      <trkpt lat="4.3378110" lon="-76.1702950">
        <ele>963.4</ele>
        <time>2022-08-14T16:46:59Z</time>
      </trkpt>
      <trkpt lat="4.3379080" lon="-76.1702170">
        <ele>963.4</ele>
        <time>2022-08-14T16:47:01Z</time>
      </trkpt>
      <trkpt lat="4.3379520" lon="-76.1701690">
        <ele>963.4</ele>
        <time>2022-08-14T16:47:02Z</time>
      </trkpt>
      <trkpt lat="4.3382200" lon="-76.1698690">
        <ele>963.6</ele>
        <time>2022-08-14T16:47:08Z</time>
      </trkpt>
      <trkpt lat="4.3385940" lon="-76.1694350">
        <ele>963.8</ele>
        <time>2022-08-14T16:47:16Z</time>
      </trkpt>
      <trkpt lat="4.3388870" lon="-76.1691110">
        <ele>963.4</ele>
        <time>2022-08-14T16:47:22Z</time>
      </trkpt>
      <trkpt lat="4.3389290" lon="-76.1690500">
        <ele>963.4</ele>
        <time>2022-08-14T16:47:23Z</time>
      </trkpt>
      <trkpt lat="4.3389630" lon="-76.1689850">
        <ele>963.2</ele>
        <time>2022-08-14T16:47:24Z</time>
      </trkpt>
      <trkpt lat="4.3390220" lon="-76.1687670">
        <ele>963.0</ele>
        <time>2022-08-14T16:47:27Z</time>
      </trkpt>
      <trkpt lat="4.3390750" lon="-76.1683460">
        <ele>962.8</ele>
        <time>2022-08-14T16:47:33Z</time>
      </trkpt>
      <trkpt lat="4.3390650" lon="-76.1682150">
        <ele>962.6</ele>
        <time>2022-08-14T16:47:35Z</time>
      </trkpt>
      <trkpt lat="4.3390280" lon="-76.1680890">
        <ele>962.6</ele>
        <time>2022-08-14T16:47:37Z</time>
      </trkpt>
      <trkpt lat="4.3390010" lon="-76.1680290">
        <ele>962.6</ele>
        <time>2022-08-14T16:47:38Z</time>
      </trkpt>
      <trkpt lat="4.3388850" lon="-76.1677420">
        <ele>962.6</ele>
        <time>2022-08-14T16:47:43Z</time>
      </trkpt>
      <trkpt lat="4.3388210" lon="-76.1673130">
        <ele>962.8</ele>
        <time>2022-08-14T16:47:50Z</time>
      </trkpt>
      <trkpt lat="4.3388230" lon="-76.1672540">
        <ele>962.8</ele>
        <time>2022-08-14T16:47:51Z</time>
      </trkpt>
      <trkpt lat="4.3388770" lon="-76.1671560">
        <ele>963.0</ele>
        <time>2022-08-14T16:47:53Z</time>
      </trkpt>
      <trkpt lat="4.3389850" lon="-76.1671070">
        <ele>963.0</ele>
        <time>2022-08-14T16:47:55Z</time>
      </trkpt>
      <trkpt lat="4.3390470" lon="-76.1671010">
        <ele>963.0</ele>
        <time>2022-08-14T16:47:56Z</time>
      </trkpt>
      <trkpt lat="4.3395400" lon="-76.1670840">
        <ele>963.0</ele>
        <time>2022-08-14T16:48:04Z</time>
      </trkpt>
      <trkpt lat="4.3396000" lon="-76.1670830">
        <ele>963.0</ele>
        <time>2022-08-14T16:48:05Z</time>
      </trkpt>
      <trkpt lat="4.3398620" lon="-76.1670620">
        <ele>963.0</ele>
        <time>2022-08-14T16:48:10Z</time>
      </trkpt>
      <trkpt lat="4.3400130" lon="-76.1670930">
        <ele>963.0</ele>
        <time>2022-08-14T16:48:14Z</time>
      </trkpt>
      <trkpt lat="4.3401150" lon="-76.1671580">
        <ele>963.0</ele>
        <time>2022-08-14T16:48:17Z</time>
      </trkpt>
      <trkpt lat="4.3401920" lon="-76.1672010">
        <ele>963.2</ele>
        <time>2022-08-14T16:48:19Z</time>
      </trkpt>
      <trkpt lat="4.3404100" lon="-76.1673520">
        <ele>963.2</ele>
        <time>2022-08-14T16:48:25Z</time>
      </trkpt>
      <trkpt lat="4.3405110" lon="-76.1674530">
        <ele>963.2</ele>
        <time>2022-08-14T16:48:28Z</time>
      </trkpt>
      <trkpt lat="4.3406120" lon="-76.1675270">
        <ele>963.2</ele>
        <time>2022-08-14T16:48:31Z</time>
      </trkpt>
      <trkpt lat="4.3406450" lon="-76.1675500">
        <ele>963.0</ele>
        <time>2022-08-14T16:48:32Z</time>
      </trkpt>
      <trkpt lat="4.3407630" lon="-76.1676120">
        <ele>963.0</ele>
        <time>2022-08-14T16:48:35Z</time>
      </trkpt>
      <trkpt lat="4.3408090" lon="-76.1676230">
        <ele>963.0</ele>
        <time>2022-08-14T16:48:36Z</time>
      </trkpt>
      <trkpt lat="4.3412510" lon="-76.1676870">
        <ele>963.0</ele>
        <time>2022-08-14T16:48:45Z</time>
      </trkpt>
      <trkpt lat="4.3414940" lon="-76.1677010">
        <ele>963.0</ele>
        <time>2022-08-14T16:48:50Z</time>
      </trkpt>
      <trkpt lat="4.3416790" lon="-76.1676980">
        <ele>963.2</ele>
        <time>2022-08-14T16:48:54Z</time>
      </trkpt>
      <trkpt lat="4.3417680" lon="-76.1677010">
        <ele>963.2</ele>
        <time>2022-08-14T16:48:56Z</time>
      </trkpt>
      <trkpt lat="4.3420010" lon="-76.1677210">
        <ele>963.4</ele>
        <time>2022-08-14T16:49:01Z</time>
      </trkpt>
      <trkpt lat="4.3420860" lon="-76.1677490">
        <ele>963.8</ele>
        <time>2022-08-14T16:49:03Z</time>
      </trkpt>
      <trkpt lat="4.3421520" lon="-76.1677810">
        <ele>963.6</ele>
        <time>2022-08-14T16:49:05Z</time>
      </trkpt>
      <trkpt lat="4.3422400" lon="-76.1678550">
        <ele>964.2</ele>
        <time>2022-08-14T16:49:10Z</time>
      </trkpt>
      <trkpt lat="4.3422860" lon="-76.1679060">
        <ele>964.4</ele>
        <time>2022-08-14T16:49:11Z</time>
      </trkpt>
      <trkpt lat="4.3423770" lon="-76.1680000">
        <ele>965.6</ele>
        <time>2022-08-14T16:49:16Z</time>
      </trkpt>
      <trkpt lat="4.3425580" lon="-76.1681610">
        <ele>966.4</ele>
        <time>2022-08-14T16:49:21Z</time>
      </trkpt>
      <trkpt lat="4.3427800" lon="-76.1683330">
        <ele>966.4</ele>
        <time>2022-08-14T16:49:25Z</time>
      </trkpt>
      <trkpt lat="4.3431020" lon="-76.1685600">
        <ele>964.0</ele>
        <time>2022-08-14T16:49:31Z</time>
      </trkpt>
      <trkpt lat="4.3433960" lon="-76.1687670">
        <ele>963.0</ele>
        <time>2022-08-14T16:49:37Z</time>
      </trkpt>
      <trkpt lat="4.3434900" lon="-76.1688350">
        <ele>963.0</ele>
        <time>2022-08-14T16:49:39Z</time>
      </trkpt>
      <trkpt lat="4.3436380" lon="-76.1689510">
        <ele>963.0</ele>
        <time>2022-08-14T16:49:43Z</time>
      </trkpt>
      <trkpt lat="4.3436710" lon="-76.1689660">
        <ele>963.0</ele>
        <time>2022-08-14T16:49:44Z</time>
      </trkpt>
      <trkpt lat="4.3437350" lon="-76.1689590">
        <ele>963.0</ele>
        <time>2022-08-14T16:49:46Z</time>
      </trkpt>
      <trkpt lat="4.3437610" lon="-76.1689380">
        <ele>963.0</ele>
        <time>2022-08-14T16:49:47Z</time>
      </trkpt>
      <trkpt lat="4.3438350" lon="-76.1688050">
        <ele>963.0</ele>
        <time>2022-08-14T16:49:51Z</time>
      </trkpt>
      <trkpt lat="4.3439470" lon="-76.1686080">
        <ele>963.2</ele>
        <time>2022-08-14T16:49:56Z</time>
      </trkpt>
      <trkpt lat="4.3441730" lon="-76.1682080">
        <ele>962.8</ele>
        <time>2022-08-14T16:50:05Z</time>
      </trkpt>
      <trkpt lat="4.3443960" lon="-76.1678500">
        <ele>962.4</ele>
        <time>2022-08-14T16:50:13Z</time>
      </trkpt>
      <trkpt lat="4.3446650" lon="-76.1674290">
        <ele>962.2</ele>
        <time>2022-08-14T16:50:22Z</time>
      </trkpt>
      <trkpt lat="4.3449930" lon="-76.1669600">
        <ele>962.2</ele>
        <time>2022-08-14T16:50:32Z</time>
      </trkpt>
      <trkpt lat="4.3452090" lon="-76.1666530">
        <ele>962.0</ele>
        <time>2022-08-14T16:50:39Z</time>
      </trkpt>
      <trkpt lat="4.3454260" lon="-76.1663390">
        <ele>962.2</ele>
        <time>2022-08-14T16:50:46Z</time>
      </trkpt>
      <trkpt lat="4.3454890" lon="-76.1662420">
        <ele>962.2</ele>
        <time>2022-08-14T16:50:48Z</time>
      </trkpt>
      <trkpt lat="4.3455890" lon="-76.1660900">
        <ele>962.2</ele>
        <time>2022-08-14T16:50:51Z</time>
      </trkpt>
      <trkpt lat="4.3457770" lon="-76.1657180">
        <ele>962.0</ele>
        <time>2022-08-14T16:50:58Z</time>
      </trkpt>
      <trkpt lat="4.3458360" lon="-76.1656180">
        <ele>962.2</ele>
        <time>2022-08-14T16:51:00Z</time>
      </trkpt>
      <trkpt lat="4.3459110" lon="-76.1654490">
        <ele>962.2</ele>
        <time>2022-08-14T16:51:03Z</time>
      </trkpt>
      <trkpt lat="4.3461300" lon="-76.1650710">
        <ele>962.0</ele>
        <time>2022-08-14T16:51:10Z</time>
      </trkpt>
      <trkpt lat="4.3462080" lon="-76.1649770">
        <ele>962.0</ele>
        <time>2022-08-14T16:51:12Z</time>
      </trkpt>
      <trkpt lat="4.3463850" lon="-76.1647960">
        <ele>961.8</ele>
        <time>2022-08-14T16:51:16Z</time>
      </trkpt>
      <trkpt lat="4.3466820" lon="-76.1644720">
        <ele>961.6</ele>
        <time>2022-08-14T16:51:23Z</time>
      </trkpt>
      <trkpt lat="4.3467230" lon="-76.1644230">
        <ele>961.6</ele>
        <time>2022-08-14T16:51:24Z</time>
      </trkpt>
      <trkpt lat="4.3469920" lon="-76.1641680">
        <ele>961.6</ele>
        <time>2022-08-14T16:51:30Z</time>
      </trkpt>
      <trkpt lat="4.3473400" lon="-76.1640120">
        <ele>961.4</ele>
        <time>2022-08-14T16:51:36Z</time>
      </trkpt>
      <trkpt lat="4.3478210" lon="-76.1638190">
        <ele>961.4</ele>
        <time>2022-08-14T16:51:44Z</time>
      </trkpt>
      <trkpt lat="4.3483760" lon="-76.1636120">
        <ele>961.2</ele>
        <time>2022-08-14T16:51:53Z</time>
      </trkpt>
      <trkpt lat="4.3488940" lon="-76.1633910">
        <ele>961.2</ele>
        <time>2022-08-14T16:52:02Z</time>
      </trkpt>
      <trkpt lat="4.3494160" lon="-76.1631750">
        <ele>961.0</ele>
        <time>2022-08-14T16:52:11Z</time>
      </trkpt>
      <trkpt lat="4.3499460" lon="-76.1629500">
        <ele>961.0</ele>
        <time>2022-08-14T16:52:20Z</time>
      </trkpt>
      <trkpt lat="4.3504200" lon="-76.1627610">
        <ele>961.0</ele>
        <time>2022-08-14T16:52:28Z</time>
      </trkpt>
      <trkpt lat="4.3508060" lon="-76.1625310">
        <ele>961.0</ele>
        <time>2022-08-14T16:52:35Z</time>
      </trkpt>
      <trkpt lat="4.3508570" lon="-76.1624920">
        <ele>961.0</ele>
        <time>2022-08-14T16:52:36Z</time>
      </trkpt>
      <trkpt lat="4.3512530" lon="-76.1621860">
        <ele>960.4</ele>
        <time>2022-08-14T16:52:44Z</time>
      </trkpt>
      <trkpt lat="4.3514100" lon="-76.1620020">
        <ele>960.2</ele>
        <time>2022-08-14T16:52:48Z</time>
      </trkpt>
      <trkpt lat="4.3514340" lon="-76.1619440">
        <ele>960.2</ele>
        <time>2022-08-14T16:52:49Z</time>
      </trkpt>
      <trkpt lat="4.3514510" lon="-76.1618830">
        <ele>960.2</ele>
        <time>2022-08-14T16:52:50Z</time>
      </trkpt>
      <trkpt lat="4.3515380" lon="-76.1615200">
        <ele>960.2</ele>
        <time>2022-08-14T16:52:56Z</time>
      </trkpt>
      <trkpt lat="4.3516430" lon="-76.1610890">
        <ele>960.4</ele>
        <time>2022-08-14T16:53:03Z</time>
      </trkpt>
      <trkpt lat="4.3517430" lon="-76.1606430">
        <ele>960.0</ele>
        <time>2022-08-14T16:53:10Z</time>
      </trkpt>
      <trkpt lat="4.3518510" lon="-76.1600790">
        <ele>959.8</ele>
        <time>2022-08-14T16:53:19Z</time>
      </trkpt>
      <trkpt lat="4.3519580" lon="-76.1595280">
        <ele>959.8</ele>
        <time>2022-08-14T16:53:28Z</time>
      </trkpt>
      <trkpt lat="4.3520440" lon="-76.1590420">
        <ele>960.0</ele>
        <time>2022-08-14T16:53:36Z</time>
      </trkpt>
      <trkpt lat="4.3520810" lon="-76.1588050">
        <ele>960.0</ele>
        <time>2022-08-14T16:53:41Z</time>
      </trkpt>
      <trkpt lat="4.3521320" lon="-76.1585080">
        <ele>960.0</ele>
        <time>2022-08-14T16:53:47Z</time>
      </trkpt>
      <trkpt lat="4.3521960" lon="-76.1581840">
        <ele>959.8</ele>
        <time>2022-08-14T16:53:53Z</time>
      </trkpt>
      <trkpt lat="4.3522560" lon="-76.1577920">
        <ele>959.6</ele>
        <time>2022-08-14T16:54:00Z</time>
      </trkpt>
      <trkpt lat="4.3523330" lon="-76.1573980">
        <ele>959.8</ele>
        <time>2022-08-14T16:54:07Z</time>
      </trkpt>
      <trkpt lat="4.3524160" lon="-76.1569310">
        <ele>960.2</ele>
        <time>2022-08-14T16:54:15Z</time>
      </trkpt>
      <trkpt lat="4.3524670" lon="-76.1566250">
        <ele>959.8</ele>
        <time>2022-08-14T16:54:20Z</time>
      </trkpt>
      <trkpt lat="4.3524770" lon="-76.1565030">
        <ele>959.8</ele>
        <time>2022-08-14T16:54:22Z</time>
      </trkpt>
      <trkpt lat="4.3525020" lon="-76.1563260">
        <ele>960.0</ele>
        <time>2022-08-14T16:54:25Z</time>
      </trkpt>
      <trkpt lat="4.3525250" lon="-76.1561540">
        <ele>959.8</ele>
        <time>2022-08-14T16:54:28Z</time>
      </trkpt>
      <trkpt lat="4.3526150" lon="-76.1557130">
        <ele>960.2</ele>
        <time>2022-08-14T16:54:36Z</time>
      </trkpt>
      <trkpt lat="4.3526910" lon="-76.1552310">
        <ele>960.0</ele>
        <time>2022-08-14T16:54:44Z</time>
      </trkpt>
      <trkpt lat="4.3527050" lon="-76.1546820">
        <ele>959.6</ele>
        <time>2022-08-14T16:54:53Z</time>
      </trkpt>
      <trkpt lat="4.3527080" lon="-76.1544400">
        <ele>959.4</ele>
        <time>2022-08-14T16:54:57Z</time>
      </trkpt>
      <trkpt lat="4.3527340" lon="-76.1538390">
        <ele>959.4</ele>
        <time>2022-08-14T16:55:07Z</time>
      </trkpt>
      <trkpt lat="4.3527360" lon="-76.1537790">
        <ele>959.4</ele>
        <time>2022-08-14T16:55:08Z</time>
      </trkpt>
      <trkpt lat="4.3527510" lon="-76.1532300">
        <ele>959.8</ele>
        <time>2022-08-14T16:55:17Z</time>
      </trkpt>
      <trkpt lat="4.3527580" lon="-76.1531070">
        <ele>959.8</ele>
        <time>2022-08-14T16:55:19Z</time>
      </trkpt>
      <trkpt lat="4.3527730" lon="-76.1525250">
        <ele>960.2</ele>
        <time>2022-08-14T16:55:29Z</time>
      </trkpt>
      <trkpt lat="4.3527870" lon="-76.1521180">
        <ele>960.2</ele>
        <time>2022-08-14T16:55:36Z</time>
      </trkpt>
      <trkpt lat="4.3528020" lon="-76.1520600">
        <ele>960.2</ele>
        <time>2022-08-14T16:55:37Z</time>
      </trkpt>
      <trkpt lat="4.3528230" lon="-76.1520040">
        <ele>960.2</ele>
        <time>2022-08-14T16:55:38Z</time>
      </trkpt>
      <trkpt lat="4.3529200" lon="-76.1518550">
        <ele>960.2</ele>
        <time>2022-08-14T16:55:41Z</time>
      </trkpt>
      <trkpt lat="4.3532680" lon="-76.1515180">
        <ele>960.2</ele>
        <time>2022-08-14T16:55:49Z</time>
      </trkpt>
      <trkpt lat="4.3534850" lon="-76.1513020">
        <ele>960.0</ele>
        <time>2022-08-14T16:55:54Z</time>
      </trkpt>
      <trkpt lat="4.3535740" lon="-76.1512170">
        <ele>959.8</ele>
        <time>2022-08-14T16:55:56Z</time>
      </trkpt>
      <trkpt lat="4.3536590" lon="-76.1511320">
        <ele>959.6</ele>
        <time>2022-08-14T16:55:58Z</time>
      </trkpt>
      <trkpt lat="4.3538280" lon="-76.1509840">
        <ele>959.6</ele>
        <time>2022-08-14T16:56:02Z</time>
      </trkpt>
      <trkpt lat="4.3539290" lon="-76.1509410">
        <ele>959.6</ele>
        <time>2022-08-14T16:56:04Z</time>
      </trkpt>
      <trkpt lat="4.3543160" lon="-76.1508560">
        <ele>959.6</ele>
        <time>2022-08-14T16:56:11Z</time>
      </trkpt>
      <trkpt lat="4.3548190" lon="-76.1508010">
        <ele>959.8</ele>
        <time>2022-08-14T16:56:20Z</time>
      </trkpt>
      <trkpt lat="4.3551530" lon="-76.1507660">
        <ele>960.2</ele>
        <time>2022-08-14T16:56:26Z</time>
      </trkpt>
      <trkpt lat="4.3552050" lon="-76.1507740">
        <ele>960.2</ele>
        <time>2022-08-14T16:56:27Z</time>
      </trkpt>
      <trkpt lat="4.3552520" lon="-76.1507910">
        <ele>960.4</ele>
        <time>2022-08-14T16:56:28Z</time>
      </trkpt>
      <trkpt lat="4.3553380" lon="-76.1508370">
        <ele>960.2</ele>
        <time>2022-08-14T16:56:30Z</time>
      </trkpt>
      <trkpt lat="4.3553780" lon="-76.1508660">
        <ele>960.2</ele>
        <time>2022-08-14T16:56:31Z</time>
      </trkpt>
      <trkpt lat="4.3555970" lon="-76.1510370">
        <ele>960.6</ele>
        <time>2022-08-14T16:56:37Z</time>
      </trkpt>
      <trkpt lat="4.3558640" lon="-76.1512810">
        <ele>960.6</ele>
        <time>2022-08-14T16:56:45Z</time>
      </trkpt>
      <trkpt lat="4.3560650" lon="-76.1515180">
        <ele>960.8</ele>
        <time>2022-08-14T16:56:53Z</time>
      </trkpt>
      <trkpt lat="4.3562410" lon="-76.1516730">
        <ele>961.4</ele>
        <time>2022-08-14T16:56:59Z</time>
      </trkpt>
      <trkpt lat="4.3563840" lon="-76.1518130">
        <ele>961.2</ele>
        <time>2022-08-14T16:57:04Z</time>
      </trkpt>
      <trkpt lat="4.3566020" lon="-76.1520720">
        <ele>961.2</ele>
        <time>2022-08-14T16:57:13Z</time>
      </trkpt>
      <trkpt lat="4.3567220" lon="-76.1521930">
        <ele>961.2</ele>
        <time>2022-08-14T16:57:19Z</time>
      </trkpt>
      <trkpt lat="4.3568660" lon="-76.1523210">
        <ele>961.4</ele>
        <time>2022-08-14T16:57:27Z</time>
      </trkpt>
      <trkpt lat="4.3570020" lon="-76.1524410">
        <ele>961.4</ele>
        <time>2022-08-14T16:57:32Z</time>
      </trkpt>
      <trkpt lat="4.3570600" lon="-76.1524960">
        <ele>961.4</ele>
        <time>2022-08-14T16:57:34Z</time>
      </trkpt>
      <trkpt lat="4.3571930" lon="-76.1526090">
        <ele>961.4</ele>
        <time>2022-08-14T16:57:38Z</time>
      </trkpt>
      <trkpt lat="4.3574260" lon="-76.1528430">
        <ele>961.4</ele>
        <time>2022-08-14T16:57:45Z</time>
      </trkpt>
      <trkpt lat="4.3575890" lon="-76.1530040">
        <ele>961.2</ele>
        <time>2022-08-14T16:57:50Z</time>
      </trkpt>
      <trkpt lat="4.3577160" lon="-76.1531190">
        <ele>961.2</ele>
        <time>2022-08-14T16:57:54Z</time>
      </trkpt>
      <trkpt lat="4.3579180" lon="-76.1532570">
        <ele>961.4</ele>
        <time>2022-08-14T16:58:00Z</time>
      </trkpt>
      <trkpt lat="4.3580240" lon="-76.1533140">
        <ele>961.6</ele>
        <time>2022-08-14T16:58:03Z</time>
      </trkpt>
      <trkpt lat="4.3581380" lon="-76.1533650">
        <ele>961.4</ele>
        <time>2022-08-14T16:58:06Z</time>
      </trkpt>
      <trkpt lat="4.3583040" lon="-76.1534330">
        <ele>961.6</ele>
        <time>2022-08-14T16:58:11Z</time>
      </trkpt>
      <trkpt lat="4.3583670" lon="-76.1534570">
        <ele>961.6</ele>
        <time>2022-08-14T16:58:13Z</time>
      </trkpt>
      <trkpt lat="4.3585780" lon="-76.1535470">
        <ele>961.6</ele>
        <time>2022-08-14T16:58:20Z</time>
      </trkpt>
      <trkpt lat="4.3588400" lon="-76.1536550">
        <ele>962.0</ele>
        <time>2022-08-14T16:58:28Z</time>
      </trkpt>
      <trkpt lat="4.3589420" lon="-76.1536710">
        <ele>962.2</ele>
        <time>2022-08-14T16:58:31Z</time>
      </trkpt>
      <trkpt lat="4.3590340" lon="-76.1536750">
        <ele>962.4</ele>
        <time>2022-08-14T16:58:34Z</time>
      </trkpt>
      <trkpt lat="4.3591310" lon="-76.1536830">
        <ele>962.8</ele>
        <time>2022-08-14T16:58:37Z</time>
      </trkpt>
      <trkpt lat="4.3593100" lon="-76.1536660">
        <ele>963.0</ele>
        <time>2022-08-14T16:58:42Z</time>
      </trkpt>
      <trkpt lat="4.3595370" lon="-76.1535070">
        <ele>963.6</ele>
        <time>2022-08-14T16:58:50Z</time>
      </trkpt>
      <trkpt lat="4.3596210" lon="-76.1534400">
        <ele>963.8</ele>
        <time>2022-08-14T16:58:54Z</time>
      </trkpt>
      <trkpt lat="4.3597340" lon="-76.1534160">
        <ele>964.2</ele>
        <time>2022-08-14T16:58:58Z</time>
      </trkpt>
      <trkpt lat="4.3597810" lon="-76.1534610">
        <ele>964.4</ele>
        <time>2022-08-14T16:59:00Z</time>
      </trkpt>
      <trkpt lat="4.3597900" lon="-76.1534880">
        <ele>964.4</ele>
        <time>2022-08-14T16:59:01Z</time>
      </trkpt>
      <trkpt lat="4.3598060" lon="-76.1536070">
        <ele>964.8</ele>
        <time>2022-08-14T16:59:04Z</time>
      </trkpt>
      <trkpt lat="4.3598090" lon="-76.1536520">
        <ele>964.8</ele>
        <time>2022-08-14T16:59:05Z</time>
      </trkpt>
      <trkpt lat="4.3598110" lon="-76.1536910">
        <ele>964.8</ele>
        <time>2022-08-14T16:59:06Z</time>
      </trkpt>
      <trkpt lat="4.3598260" lon="-76.1539970">
        <ele>965.4</ele>
        <time>2022-08-14T16:59:13Z</time>
      </trkpt>
      <trkpt lat="4.3598280" lon="-76.1542150">
        <ele>965.6</ele>
        <time>2022-08-14T16:59:18Z</time>
      </trkpt>
      <trkpt lat="4.3598530" lon="-76.1543130">
        <ele>965.6</ele>
        <time>2022-08-14T16:59:20Z</time>
      </trkpt>
      <trkpt lat="4.3598690" lon="-76.1543630">
        <ele>965.6</ele>
        <time>2022-08-14T16:59:21Z</time>
      </trkpt>
      <trkpt lat="4.3599430" lon="-76.1545600">
        <ele>965.6</ele>
        <time>2022-08-14T16:59:25Z</time>
      </trkpt>
      <trkpt lat="4.3599820" lon="-76.1546680">
        <ele>965.6</ele>
        <time>2022-08-14T16:59:27Z</time>
      </trkpt>
      <trkpt lat="4.3600190" lon="-76.1548380">
        <ele>965.4</ele>
        <time>2022-08-14T16:59:30Z</time>
      </trkpt>
      <trkpt lat="4.3600750" lon="-76.1552430">
        <ele>964.0</ele>
        <time>2022-08-14T16:59:37Z</time>
      </trkpt>
      <trkpt lat="4.3600820" lon="-76.1552910">
        <ele>964.0</ele>
        <time>2022-08-14T16:59:38Z</time>
      </trkpt>
      <trkpt lat="4.3601110" lon="-76.1554890">
        <ele>963.6</ele>
        <time>2022-08-14T16:59:43Z</time>
      </trkpt>
      <trkpt lat="4.3601250" lon="-76.1557940">
        <ele>963.4</ele>
        <time>2022-08-14T16:59:48Z</time>
      </trkpt>
      <trkpt lat="4.3601230" lon="-76.1558950">
        <ele>963.2</ele>
        <time>2022-08-14T16:59:50Z</time>
      </trkpt>
      <trkpt lat="4.3601250" lon="-76.1559430">
        <ele>963.0</ele>
        <time>2022-08-14T16:59:51Z</time>
      </trkpt>
      <trkpt lat="4.3601440" lon="-76.1560300">
        <ele>963.0</ele>
        <time>2022-08-14T16:59:53Z</time>
      </trkpt>
      <trkpt lat="4.3601620" lon="-76.1560790">
        <ele>963.0</ele>
        <time>2022-08-14T16:59:54Z</time>
      </trkpt>
      <trkpt lat="4.3602530" lon="-76.1562910">
        <ele>963.0</ele>
        <time>2022-08-14T16:59:59Z</time>
      </trkpt>
      <trkpt lat="4.3603180" lon="-76.1563860">
        <ele>963.0</ele>
        <time>2022-08-14T17:00:01Z</time>
      </trkpt>
      <trkpt lat="4.3603960" lon="-76.1564800">
        <ele>963.0</ele>
        <time>2022-08-14T17:00:03Z</time>
      </trkpt>
      <trkpt lat="4.3604320" lon="-76.1565170">
        <ele>962.8</ele>
        <time>2022-08-14T17:00:04Z</time>
      </trkpt>
      <trkpt lat="4.3604880" lon="-76.1565660">
        <ele>962.8</ele>
        <time>2022-08-14T17:00:05Z</time>
      </trkpt>
      <trkpt lat="4.3608380" lon="-76.1567950">
        <ele>963.0</ele>
        <time>2022-08-14T17:00:12Z</time>
      </trkpt>
      <trkpt lat="4.3611470" lon="-76.1569630">
        <ele>962.8</ele>
        <time>2022-08-14T17:00:18Z</time>
      </trkpt>
      <trkpt lat="4.3612040" lon="-76.1569950">
        <ele>962.8</ele>
        <time>2022-08-14T17:00:19Z</time>
      </trkpt>
      <trkpt lat="4.3615800" lon="-76.1571800">
        <ele>963.0</ele>
        <time>2022-08-14T17:00:26Z</time>
      </trkpt>
      <trkpt lat="4.3617890" lon="-76.1573070">
        <ele>963.2</ele>
        <time>2022-08-14T17:00:31Z</time>
      </trkpt>
      <trkpt lat="4.3618280" lon="-76.1573330">
        <ele>963.2</ele>
        <time>2022-08-14T17:00:32Z</time>
      </trkpt>
      <trkpt lat="4.3620520" lon="-76.1574570">
        <ele>963.4</ele>
        <time>2022-08-14T17:00:37Z</time>
      </trkpt>
      <trkpt lat="4.3622840" lon="-76.1575880">
        <ele>963.6</ele>
        <time>2022-08-14T17:00:42Z</time>
      </trkpt>
      <trkpt lat="4.3623260" lon="-76.1576210">
        <ele>963.6</ele>
        <time>2022-08-14T17:00:43Z</time>
      </trkpt>
      <trkpt lat="4.3625960" lon="-76.1578690">
        <ele>964.2</ele>
        <time>2022-08-14T17:00:50Z</time>
      </trkpt>
      <trkpt lat="4.3626640" lon="-76.1579580">
        <ele>964.2</ele>
        <time>2022-08-14T17:00:52Z</time>
      </trkpt>
      <trkpt lat="4.3627670" lon="-76.1581930">
        <ele>964.4</ele>
        <time>2022-08-14T17:00:57Z</time>
      </trkpt>
      <trkpt lat="4.3627800" lon="-76.1582550">
        <ele>964.4</ele>
        <time>2022-08-14T17:00:58Z</time>
      </trkpt>
      <trkpt lat="4.3628170" lon="-76.1584560">
        <ele>964.6</ele>
        <time>2022-08-14T17:01:02Z</time>
      </trkpt>
      <trkpt lat="4.3628610" lon="-76.1586080">
        <ele>964.8</ele>
        <time>2022-08-14T17:01:05Z</time>
      </trkpt>
      <trkpt lat="4.3628950" lon="-76.1587600">
        <ele>964.8</ele>
        <time>2022-08-14T17:01:08Z</time>
      </trkpt>
      <trkpt lat="4.3628890" lon="-76.1589150">
        <ele>964.8</ele>
        <time>2022-08-14T17:01:11Z</time>
      </trkpt>
      <trkpt lat="4.3628700" lon="-76.1590200">
        <ele>964.8</ele>
        <time>2022-08-14T17:01:13Z</time>
      </trkpt>
      <trkpt lat="4.3627910" lon="-76.1592290">
        <ele>964.8</ele>
        <time>2022-08-14T17:01:17Z</time>
      </trkpt>
      <trkpt lat="4.3625560" lon="-76.1596050">
        <ele>964.8</ele>
        <time>2022-08-14T17:01:25Z</time>
      </trkpt>
      <trkpt lat="4.3624790" lon="-76.1597470">
        <ele>964.8</ele>
        <time>2022-08-14T17:01:28Z</time>
      </trkpt>
      <trkpt lat="4.3623870" lon="-76.1598890">
        <ele>964.8</ele>
        <time>2022-08-14T17:01:31Z</time>
      </trkpt>
      <trkpt lat="4.3622290" lon="-76.1600910">
        <ele>965.0</ele>
        <time>2022-08-14T17:01:36Z</time>
      </trkpt>
      <trkpt lat="4.3621360" lon="-76.1602110">
        <ele>965.0</ele>
        <time>2022-08-14T17:01:39Z</time>
      </trkpt>
      <trkpt lat="4.3621040" lon="-76.1602530">
        <ele>965.4</ele>
        <time>2022-08-14T17:01:40Z</time>
      </trkpt>
      <trkpt lat="4.3619370" lon="-76.1604640">
        <ele>966.4</ele>
        <time>2022-08-14T17:01:45Z</time>
      </trkpt>
      <trkpt lat="4.3618610" lon="-76.1605600">
        <ele>966.6</ele>
        <time>2022-08-14T17:01:47Z</time>
      </trkpt>
      <trkpt lat="4.3616590" lon="-76.1608260">
        <ele>966.6</ele>
        <time>2022-08-14T17:01:52Z</time>
      </trkpt>
      <trkpt lat="4.3616120" lon="-76.1608770">
        <ele>966.6</ele>
        <time>2022-08-14T17:01:53Z</time>
      </trkpt>
      <trkpt lat="4.3615720" lon="-76.1609310">
        <ele>966.6</ele>
        <time>2022-08-14T17:01:54Z</time>
      </trkpt>
      <trkpt lat="4.3614800" lon="-76.1611040">
        <ele>966.4</ele>
        <time>2022-08-14T17:01:57Z</time>
      </trkpt>
      <trkpt lat="4.3614430" lon="-76.1611540">
        <ele>966.2</ele>
        <time>2022-08-14T17:01:58Z</time>
      </trkpt>
      <trkpt lat="4.3612640" lon="-76.1613840">
        <ele>965.8</ele>
        <time>2022-08-14T17:02:03Z</time>
      </trkpt>
      <trkpt lat="4.3610940" lon="-76.1616120">
        <ele>965.6</ele>
        <time>2022-08-14T17:02:08Z</time>
      </trkpt>
      <trkpt lat="4.3610010" lon="-76.1617670">
        <ele>965.6</ele>
        <time>2022-08-14T17:02:11Z</time>
      </trkpt>
      <trkpt lat="4.3609170" lon="-76.1618570">
        <ele>965.6</ele>
        <time>2022-08-14T17:02:13Z</time>
      </trkpt>
      <trkpt lat="4.3608180" lon="-76.1619290">
        <ele>965.6</ele>
        <time>2022-08-14T17:02:15Z</time>
      </trkpt>
      <trkpt lat="4.3606260" lon="-76.1620540">
        <ele>965.4</ele>
        <time>2022-08-14T17:02:19Z</time>
      </trkpt>
      <trkpt lat="4.3605020" lon="-76.1621580">
        <ele>965.0</ele>
        <time>2022-08-14T17:02:22Z</time>
      </trkpt>
      <trkpt lat="4.3604270" lon="-76.1622160">
        <ele>964.8</ele>
        <time>2022-08-14T17:02:24Z</time>
      </trkpt>
      <trkpt lat="4.3603130" lon="-76.1622990">
        <ele>964.8</ele>
        <time>2022-08-14T17:02:27Z</time>
      </trkpt>
      <trkpt lat="4.3602040" lon="-76.1623840">
        <ele>964.8</ele>
        <time>2022-08-14T17:02:30Z</time>
      </trkpt>
      <trkpt lat="4.3600680" lon="-76.1625120">
        <ele>965.2</ele>
        <time>2022-08-14T17:02:34Z</time>
      </trkpt>
      <trkpt lat="4.3598190" lon="-76.1627190">
        <ele>966.0</ele>
        <time>2022-08-14T17:02:41Z</time>
      </trkpt>
      <trkpt lat="4.3597860" lon="-76.1627390">
        <ele>966.2</ele>
        <time>2022-08-14T17:02:42Z</time>
      </trkpt>
      <trkpt lat="4.3597120" lon="-76.1627950">
        <ele>966.6</ele>
        <time>2022-08-14T17:02:45Z</time>
      </trkpt>
      <trkpt lat="4.3597080" lon="-76.1628160">
        <ele>966.8</ele>
        <time>2022-08-14T17:02:46Z</time>
      </trkpt>
      <trkpt lat="4.3597250" lon="-76.1628540">
        <ele>967.0</ele>
        <time>2022-08-14T17:02:48Z</time>
      </trkpt>
      <trkpt lat="4.3597450" lon="-76.1628610">
        <ele>967.2</ele>
        <time>2022-08-14T17:02:49Z</time>
      </trkpt>
      <trkpt lat="4.3598560" lon="-76.1627870">
        <ele>967.4</ele>
        <time>2022-08-14T17:02:53Z</time>
      </trkpt>
      <trkpt lat="4.3599170" lon="-76.1627490">
        <ele>967.6</ele>
        <time>2022-08-14T17:02:55Z</time>
      </trkpt>
      <trkpt lat="4.3601430" lon="-76.1626080">
        <ele>968.0</ele>
        <time>2022-08-14T17:03:03Z</time>
      </trkpt>
      <trkpt lat="4.3602470" lon="-76.1625600">
        <ele>968.6</ele>
        <time>2022-08-14T17:03:07Z</time>
      </trkpt>
      <trkpt lat="4.3603460" lon="-76.1625080">
        <ele>969.4</ele>
        <time>2022-08-14T17:03:11Z</time>
      </trkpt>
      <trkpt lat="4.3603730" lon="-76.1624990">
        <ele>969.8</ele>
        <time>2022-08-14T17:03:12Z</time>
      </trkpt>
      <trkpt lat="4.3605140" lon="-76.1624380">
        <ele>970.8</ele>
        <time>2022-08-14T17:03:17Z</time>
      </trkpt>
      <trkpt lat="4.3605920" lon="-76.1623950">
        <ele>971.4</ele>
        <time>2022-08-14T17:03:20Z</time>
      </trkpt>
      <trkpt lat="4.3606620" lon="-76.1623500">
        <ele>971.8</ele>
        <time>2022-08-14T17:03:23Z</time>
      </trkpt>
      <trkpt lat="4.3607650" lon="-76.1623000">
        <ele>972.6</ele>
        <time>2022-08-14T17:03:27Z</time>
      </trkpt>
      <trkpt lat="4.3608180" lon="-76.1622700">
        <ele>973.0</ele>
        <time>2022-08-14T17:03:29Z</time>
      </trkpt>
      <trkpt lat="4.3609550" lon="-76.1622030">
        <ele>974.0</ele>
        <time>2022-08-14T17:03:34Z</time>
      </trkpt>
      <trkpt lat="4.3610100" lon="-76.1621760">
        <ele>974.4</ele>
        <time>2022-08-14T17:03:36Z</time>
      </trkpt>
      <trkpt lat="4.3611510" lon="-76.1621100">
        <ele>975.6</ele>
        <time>2022-08-14T17:03:41Z</time>
      </trkpt>
      <trkpt lat="4.3612050" lon="-76.1620820">
        <ele>976.0</ele>
        <time>2022-08-14T17:03:43Z</time>
      </trkpt>
      <trkpt lat="4.3613410" lon="-76.1620120">
        <ele>976.8</ele>
        <time>2022-08-14T17:03:48Z</time>
      </trkpt>
      <trkpt lat="4.3614820" lon="-76.1619450">
        <ele>977.4</ele>
        <time>2022-08-14T17:03:53Z</time>
      </trkpt>
      <trkpt lat="4.3615660" lon="-76.1619090">
        <ele>977.8</ele>
        <time>2022-08-14T17:03:56Z</time>
      </trkpt>
      <trkpt lat="4.3617220" lon="-76.1618230">
        <ele>978.8</ele>
        <time>2022-08-14T17:04:02Z</time>
      </trkpt>
      <trkpt lat="4.3617480" lon="-76.1618110">
        <ele>979.0</ele>
        <time>2022-08-14T17:04:03Z</time>
      </trkpt>
      <trkpt lat="4.3619000" lon="-76.1617360">
        <ele>980.2</ele>
        <time>2022-08-14T17:04:09Z</time>
      </trkpt>
      <trkpt lat="4.3619240" lon="-76.1617220">
        <ele>980.4</ele>
        <time>2022-08-14T17:04:10Z</time>
      </trkpt>
      <trkpt lat="4.3620530" lon="-76.1616590">
        <ele>981.4</ele>
        <time>2022-08-14T17:04:15Z</time>
      </trkpt>
      <trkpt lat="4.3621300" lon="-76.1616260">
        <ele>982.2</ele>
        <time>2022-08-14T17:04:18Z</time>
      </trkpt>
      <trkpt lat="4.3621530" lon="-76.1616120">
        <ele>982.4</ele>
        <time>2022-08-14T17:04:19Z</time>
      </trkpt>
      <trkpt lat="4.3623560" lon="-76.1615270">
        <ele>983.6</ele>
        <time>2022-08-14T17:04:27Z</time>
      </trkpt>
      <trkpt lat="4.3624870" lon="-76.1614840">
        <ele>984.8</ele>
        <time>2022-08-14T17:04:32Z</time>
      </trkpt>
      <trkpt lat="4.3626220" lon="-76.1614130">
        <ele>985.8</ele>
        <time>2022-08-14T17:04:38Z</time>
      </trkpt>
      <trkpt lat="4.3626450" lon="-76.1614020">
        <ele>986.0</ele>
        <time>2022-08-14T17:04:39Z</time>
      </trkpt>
      <trkpt lat="4.3627300" lon="-76.1613190">
        <ele>987.0</ele>
        <time>2022-08-14T17:04:44Z</time>
      </trkpt>
      <trkpt lat="4.3628410" lon="-76.1612010">
        <ele>988.2</ele>
        <time>2022-08-14T17:04:50Z</time>
      </trkpt>
      <trkpt lat="4.3628790" lon="-76.1611670">
        <ele>988.6</ele>
        <time>2022-08-14T17:04:52Z</time>
      </trkpt>
      <trkpt lat="4.3629670" lon="-76.1610760">
        <ele>989.6</ele>
        <time>2022-08-14T17:04:57Z</time>
      </trkpt>
      <trkpt lat="4.3629850" lon="-76.1610580">
        <ele>989.6</ele>
        <time>2022-08-14T17:04:58Z</time>
      </trkpt>
      <trkpt lat="4.3630560" lon="-76.1609510">
        <ele>990.6</ele>
        <time>2022-08-14T17:05:03Z</time>
      </trkpt>
      <trkpt lat="4.3630950" lon="-76.1608860">
        <ele>991.2</ele>
        <time>2022-08-14T17:05:06Z</time>
      </trkpt>
      <trkpt lat="4.3631370" lon="-76.1608250">
        <ele>991.8</ele>
        <time>2022-08-14T17:05:09Z</time>
      </trkpt>
      <trkpt lat="4.3632100" lon="-76.1607140">
        <ele>992.6</ele>
        <time>2022-08-14T17:05:14Z</time>
      </trkpt>
      <trkpt lat="4.3632230" lon="-76.1606880">
        <ele>992.8</ele>
        <time>2022-08-14T17:05:15Z</time>
      </trkpt>
      <trkpt lat="4.3633420" lon="-76.1605270">
        <ele>993.8</ele>
        <time>2022-08-14T17:05:22Z</time>
      </trkpt>
      <trkpt lat="4.3634700" lon="-76.1603330">
        <ele>994.8</ele>
        <time>2022-08-14T17:05:29Z</time>
      </trkpt>
      <trkpt lat="4.3635080" lon="-76.1602740">
        <ele>995.2</ele>
        <time>2022-08-14T17:05:31Z</time>
      </trkpt>
      <trkpt lat="4.3636760" lon="-76.1600220">
        <ele>995.8</ele>
        <time>2022-08-14T17:05:39Z</time>
      </trkpt>
      <trkpt lat="4.3637900" lon="-76.1598690">
        <ele>996.0</ele>
        <time>2022-08-14T17:05:44Z</time>
      </trkpt>
      <trkpt lat="4.3639240" lon="-76.1596670">
        <ele>996.4</ele>
        <time>2022-08-14T17:05:50Z</time>
      </trkpt>
      <trkpt lat="4.3640850" lon="-76.1594310">
        <ele>997.2</ele>
        <time>2022-08-14T17:05:57Z</time>
      </trkpt>
      <trkpt lat="4.3641690" lon="-76.1593000">
        <ele>997.6</ele>
        <time>2022-08-14T17:06:01Z</time>
      </trkpt>
      <trkpt lat="4.3643290" lon="-76.1590820">
        <ele>998.2</ele>
        <time>2022-08-14T17:06:08Z</time>
      </trkpt>
      <trkpt lat="4.3643720" lon="-76.1590240">
        <ele>998.4</ele>
        <time>2022-08-14T17:06:10Z</time>
      </trkpt>
      <trkpt lat="4.3644880" lon="-76.1588430">
        <ele>999.4</ele>
        <time>2022-08-14T17:06:16Z</time>
      </trkpt>
      <trkpt lat="4.3645680" lon="-76.1587390">
        <ele>1000.2</ele>
        <time>2022-08-14T17:06:20Z</time>
      </trkpt>
      <trkpt lat="4.3646010" lon="-76.1586820">
        <ele>1000.6</ele>
        <time>2022-08-14T17:06:22Z</time>
      </trkpt>
      <trkpt lat="4.3646540" lon="-76.1586010">
        <ele>1001.0</ele>
        <time>2022-08-14T17:06:25Z</time>
      </trkpt>
      <trkpt lat="4.3646710" lon="-76.1585750">
        <ele>1001.0</ele>
        <time>2022-08-14T17:06:26Z</time>
      </trkpt>
      <trkpt lat="4.3647390" lon="-76.1584800">
        <ele>1001.8</ele>
        <time>2022-08-14T17:06:30Z</time>
      </trkpt>
      <trkpt lat="4.3648020" lon="-76.1583790">
        <ele>1002.6</ele>
        <time>2022-08-14T17:06:34Z</time>
      </trkpt>
      <trkpt lat="4.3648170" lon="-76.1583530">
        <ele>1002.8</ele>
        <time>2022-08-14T17:06:35Z</time>
      </trkpt>
      <trkpt lat="4.3649160" lon="-76.1582230">
        <ele>1004.0</ele>
        <time>2022-08-14T17:06:41Z</time>
      </trkpt>
      <trkpt lat="4.3649850" lon="-76.1581120">
        <ele>1005.0</ele>
        <time>2022-08-14T17:06:46Z</time>
      </trkpt>
      <trkpt lat="4.3650010" lon="-76.1580910">
        <ele>1005.2</ele>
        <time>2022-08-14T17:06:47Z</time>
      </trkpt>
      <trkpt lat="4.3650170" lon="-76.1580720">
        <ele>1005.4</ele>
        <time>2022-08-14T17:06:48Z</time>
      </trkpt>
      <trkpt lat="4.3650620" lon="-76.1580060">
        <ele>1006.2</ele>
        <time>2022-08-14T17:06:51Z</time>
      </trkpt>
      <trkpt lat="4.3651120" lon="-76.1579450">
        <ele>1007.0</ele>
        <time>2022-08-14T17:06:54Z</time>
      </trkpt>
      <trkpt lat="4.3651260" lon="-76.1579240">
        <ele>1007.4</ele>
        <time>2022-08-14T17:06:55Z</time>
      </trkpt>
      <trkpt lat="4.3652060" lon="-76.1578270">
        <ele>1008.4</ele>
        <time>2022-08-14T17:07:00Z</time>
      </trkpt>
      <trkpt lat="4.3652570" lon="-76.1577700">
        <ele>1009.8</ele>
        <time>2022-08-14T17:07:03Z</time>
      </trkpt>
      <trkpt lat="4.3653290" lon="-76.1576930">
        <ele>1011.0</ele>
        <time>2022-08-14T17:07:07Z</time>
      </trkpt>
      <trkpt lat="4.3653720" lon="-76.1576560">
        <ele>1011.4</ele>
        <time>2022-08-14T17:07:09Z</time>
      </trkpt>
      <trkpt lat="4.3654510" lon="-76.1576120">
        <ele>1012.2</ele>
        <time>2022-08-14T17:07:12Z</time>
      </trkpt>
      <trkpt lat="4.3655610" lon="-76.1575490">
        <ele>1013.2</ele>
        <time>2022-08-14T17:07:16Z</time>
      </trkpt>
      <trkpt lat="4.3655890" lon="-76.1575350">
        <ele>1013.2</ele>
        <time>2022-08-14T17:07:17Z</time>
      </trkpt>
      <trkpt lat="4.3658380" lon="-76.1574360">
        <ele>1014.2</ele>
        <time>2022-08-14T17:07:25Z</time>
      </trkpt>
      <trkpt lat="4.3659450" lon="-76.1574210">
        <ele>1014.2</ele>
        <time>2022-08-14T17:07:28Z</time>
      </trkpt>
      <trkpt lat="4.3661420" lon="-76.1574090">
        <ele>1014.8</ele>
        <time>2022-08-14T17:07:33Z</time>
      </trkpt>
      <trkpt lat="4.3661850" lon="-76.1574040">
        <ele>1014.8</ele>
        <time>2022-08-14T17:07:34Z</time>
      </trkpt>
      <trkpt lat="4.3664870" lon="-76.1573870">
        <ele>1014.8</ele>
        <time>2022-08-14T17:07:40Z</time>
      </trkpt>
      <trkpt lat="4.3667220" lon="-76.1573700">
        <ele>1014.8</ele>
        <time>2022-08-14T17:07:44Z</time>
      </trkpt>
      <trkpt lat="4.3669170" lon="-76.1573530">
        <ele>1014.4</ele>
        <time>2022-08-14T17:07:47Z</time>
      </trkpt>
      <trkpt lat="4.3672390" lon="-76.1573240">
        <ele>1013.4</ele>
        <time>2022-08-14T17:07:51Z</time>
      </trkpt>
      <trkpt lat="4.3673320" lon="-76.1573150">
        <ele>1013.2</ele>
        <time>2022-08-14T17:07:52Z</time>
      </trkpt>
      <trkpt lat="4.3676460" lon="-76.1572920">
        <ele>1012.2</ele>
        <time>2022-08-14T17:07:55Z</time>
      </trkpt>
      <trkpt lat="4.3678740" lon="-76.1572800">
        <ele>1011.2</ele>
        <time>2022-08-14T17:07:57Z</time>
      </trkpt>
      <trkpt lat="4.3679920" lon="-76.1572850">
        <ele>1010.6</ele>
        <time>2022-08-14T17:07:58Z</time>
      </trkpt>
      <trkpt lat="4.3682470" lon="-76.1573350">
        <ele>1009.0</ele>
        <time>2022-08-14T17:08:00Z</time>
      </trkpt>
      <trkpt lat="4.3684500" lon="-76.1574250">
        <ele>1007.2</ele>
        <time>2022-08-14T17:08:02Z</time>
      </trkpt>
      <trkpt lat="4.3685700" lon="-76.1574850">
        <ele>1007.2</ele>
        <time>2022-08-14T17:08:03Z</time>
      </trkpt>
      <trkpt lat="4.3687180" lon="-76.1575550">
        <ele>1006.2</ele>
        <time>2022-08-14T17:08:04Z</time>
      </trkpt>
      <trkpt lat="4.3688210" lon="-76.1576000">
        <ele>1005.0</ele>
        <time>2022-08-14T17:08:05Z</time>
      </trkpt>
      <trkpt lat="4.3689520" lon="-76.1576600">
        <ele>1003.8</ele>
        <time>2022-08-14T17:08:06Z</time>
      </trkpt>
      <trkpt lat="4.3690890" lon="-76.1577230">
        <ele>1002.4</ele>
        <time>2022-08-14T17:08:07Z</time>
      </trkpt>
      <trkpt lat="4.3692220" lon="-76.1577820">
        <ele>1001.2</ele>
        <time>2022-08-14T17:08:08Z</time>
      </trkpt>
      <trkpt lat="4.3693560" lon="-76.1578320">
        <ele>999.4</ele>
        <time>2022-08-14T17:08:09Z</time>
      </trkpt>
      <trkpt lat="4.3694910" lon="-76.1578660">
        <ele>998.0</ele>
        <time>2022-08-14T17:08:10Z</time>
      </trkpt>
      <trkpt lat="4.3696340" lon="-76.1578820">
        <ele>996.6</ele>
        <time>2022-08-14T17:08:11Z</time>
      </trkpt>
      <trkpt lat="4.3697810" lon="-76.1578800">
        <ele>995.6</ele>
        <time>2022-08-14T17:08:12Z</time>
      </trkpt>
      <trkpt lat="4.3699290" lon="-76.1578600">
        <ele>994.6</ele>
        <time>2022-08-14T17:08:13Z</time>
      </trkpt>
      <trkpt lat="4.3700740" lon="-76.1578210">
        <ele>993.6</ele>
        <time>2022-08-14T17:08:14Z</time>
      </trkpt>
      <trkpt lat="4.3702110" lon="-76.1577620">
        <ele>992.4</ele>
        <time>2022-08-14T17:08:15Z</time>
      </trkpt>
      <trkpt lat="4.3703400" lon="-76.1576840">
        <ele>991.2</ele>
        <time>2022-08-14T17:08:16Z</time>
      </trkpt>
      <trkpt lat="4.3704660" lon="-76.1576070">
        <ele>990.0</ele>
        <time>2022-08-14T17:08:17Z</time>
      </trkpt>
      <trkpt lat="4.3705940" lon="-76.1575310">
        <ele>988.6</ele>
        <time>2022-08-14T17:08:18Z</time>
      </trkpt>
      <trkpt lat="4.3707220" lon="-76.1574530">
        <ele>987.2</ele>
        <time>2022-08-14T17:08:19Z</time>
      </trkpt>
      <trkpt lat="4.3708520" lon="-76.1573740">
        <ele>985.6</ele>
        <time>2022-08-14T17:08:20Z</time>
      </trkpt>
      <trkpt lat="4.3709800" lon="-76.1572920">
        <ele>984.0</ele>
        <time>2022-08-14T17:08:21Z</time>
      </trkpt>
      <trkpt lat="4.3711100" lon="-76.1572110">
        <ele>982.4</ele>
        <time>2022-08-14T17:08:22Z</time>
      </trkpt>
      <trkpt lat="4.3712410" lon="-76.1571270">
        <ele>981.0</ele>
        <time>2022-08-14T17:08:23Z</time>
      </trkpt>
      <trkpt lat="4.3715090" lon="-76.1569660">
        <ele>979.2</ele>
        <time>2022-08-14T17:08:25Z</time>
      </trkpt>
      <trkpt lat="4.3716440" lon="-76.1568860">
        <ele>977.8</ele>
        <time>2022-08-14T17:08:26Z</time>
      </trkpt>
      <trkpt lat="4.3717810" lon="-76.1568070">
        <ele>976.6</ele>
        <time>2022-08-14T17:08:27Z</time>
      </trkpt>
      <trkpt lat="4.3719170" lon="-76.1567260">
        <ele>975.6</ele>
        <time>2022-08-14T17:08:28Z</time>
      </trkpt>
      <trkpt lat="4.3720500" lon="-76.1566440">
        <ele>974.6</ele>
        <time>2022-08-14T17:08:29Z</time>
      </trkpt>
      <trkpt lat="4.3724440" lon="-76.1564120">
        <ele>973.4</ele>
        <time>2022-08-14T17:08:32Z</time>
      </trkpt>
      <trkpt lat="4.3726980" lon="-76.1562530">
        <ele>971.8</ele>
        <time>2022-08-14T17:08:34Z</time>
      </trkpt>
      <trkpt lat="4.3728180" lon="-76.1561770">
        <ele>970.6</ele>
        <time>2022-08-14T17:08:35Z</time>
      </trkpt>
      <trkpt lat="4.3730430" lon="-76.1560310">
        <ele>968.6</ele>
        <time>2022-08-14T17:08:37Z</time>
      </trkpt>
      <trkpt lat="4.3732750" lon="-76.1559080">
        <ele>967.4</ele>
        <time>2022-08-14T17:08:39Z</time>
      </trkpt>
      <trkpt lat="4.3733850" lon="-76.1558480">
        <ele>967.0</ele>
        <time>2022-08-14T17:08:40Z</time>
      </trkpt>
      <trkpt lat="4.3734950" lon="-76.1558070">
        <ele>966.8</ele>
        <time>2022-08-14T17:08:41Z</time>
      </trkpt>
      <trkpt lat="4.3736100" lon="-76.1557780">
        <ele>966.6</ele>
        <time>2022-08-14T17:08:42Z</time>
      </trkpt>
      <trkpt lat="4.3740550" lon="-76.1557230">
        <ele>966.2</ele>
        <time>2022-08-14T17:08:46Z</time>
      </trkpt>
      <trkpt lat="4.3745510" lon="-76.1556750">
        <ele>966.2</ele>
        <time>2022-08-14T17:08:51Z</time>
      </trkpt>
      <trkpt lat="4.3749060" lon="-76.1556440">
        <ele>966.2</ele>
        <time>2022-08-14T17:08:55Z</time>
      </trkpt>
      <trkpt lat="4.3749900" lon="-76.1556360">
        <ele>966.2</ele>
        <time>2022-08-14T17:08:56Z</time>
      </trkpt>
      <trkpt lat="4.3754750" lon="-76.1555980">
        <ele>966.4</ele>
        <time>2022-08-14T17:09:02Z</time>
      </trkpt>
      <trkpt lat="4.3759260" lon="-76.1555520">
        <ele>966.8</ele>
        <time>2022-08-14T17:09:08Z</time>
      </trkpt>
      <trkpt lat="4.3760780" lon="-76.1555370">
        <ele>966.8</ele>
        <time>2022-08-14T17:09:10Z</time>
      </trkpt>
      <trkpt lat="4.3763000" lon="-76.1555100">
        <ele>967.0</ele>
        <time>2022-08-14T17:09:13Z</time>
      </trkpt>
      <trkpt lat="4.3765860" lon="-76.1554730">
        <ele>967.4</ele>
        <time>2022-08-14T17:09:17Z</time>
      </trkpt>
      <trkpt lat="4.3769270" lon="-76.1554290">
        <ele>968.2</ele>
        <time>2022-08-14T17:09:22Z</time>
      </trkpt>
      <trkpt lat="4.3769950" lon="-76.1554200">
        <ele>968.4</ele>
        <time>2022-08-14T17:09:23Z</time>
      </trkpt>
      <trkpt lat="4.3771300" lon="-76.1554030">
        <ele>968.4</ele>
        <time>2022-08-14T17:09:25Z</time>
      </trkpt>
      <trkpt lat="4.3772630" lon="-76.1553880">
        <ele>968.6</ele>
        <time>2022-08-14T17:09:27Z</time>
      </trkpt>
      <trkpt lat="4.3776990" lon="-76.1553320">
        <ele>969.4</ele>
        <time>2022-08-14T17:09:34Z</time>
      </trkpt>
      <trkpt lat="4.3781220" lon="-76.1552780">
        <ele>970.0</ele>
        <time>2022-08-14T17:09:41Z</time>
      </trkpt>
      <trkpt lat="4.3784160" lon="-76.1551790">
        <ele>970.4</ele>
        <time>2022-08-14T17:09:46Z</time>
      </trkpt>
      <trkpt lat="4.3784730" lon="-76.1551480">
        <ele>970.4</ele>
        <time>2022-08-14T17:09:47Z</time>
      </trkpt>
      <trkpt lat="4.3786880" lon="-76.1549840">
        <ele>970.6</ele>
        <time>2022-08-14T17:09:51Z</time>
      </trkpt>
      <trkpt lat="4.3790380" lon="-76.1546420">
        <ele>970.4</ele>
        <time>2022-08-14T17:09:58Z</time>
      </trkpt>
      <trkpt lat="4.3794140" lon="-76.1542850">
        <ele>969.4</ele>
        <time>2022-08-14T17:10:05Z</time>
      </trkpt>
      <trkpt lat="4.3796920" lon="-76.1540110">
        <ele>968.2</ele>
        <time>2022-08-14T17:10:10Z</time>
      </trkpt>
      <trkpt lat="4.3798020" lon="-76.1539000">
        <ele>967.6</ele>
        <time>2022-08-14T17:10:12Z</time>
      </trkpt>
      <trkpt lat="4.3798550" lon="-76.1538450">
        <ele>967.4</ele>
        <time>2022-08-14T17:10:13Z</time>
      </trkpt>
      <trkpt lat="4.3799620" lon="-76.1537390">
        <ele>967.0</ele>
        <time>2022-08-14T17:10:15Z</time>
      </trkpt>
      <trkpt lat="4.3802030" lon="-76.1535030">
        <ele>967.0</ele>
        <time>2022-08-14T17:10:20Z</time>
      </trkpt>
      <trkpt lat="4.3804800" lon="-76.1532360">
        <ele>967.2</ele>
        <time>2022-08-14T17:10:27Z</time>
      </trkpt>
      <trkpt lat="4.3805140" lon="-76.1532010">
        <ele>967.4</ele>
        <time>2022-08-14T17:10:28Z</time>
      </trkpt>
      <trkpt lat="4.3806080" lon="-76.1531070">
        <ele>968.0</ele>
        <time>2022-08-14T17:10:31Z</time>
      </trkpt>
      <trkpt lat="4.3806340" lon="-76.1530760">
        <ele>968.6</ele>
        <time>2022-08-14T17:10:32Z</time>
      </trkpt>
      <trkpt lat="4.3807430" lon="-76.1529730">
        <ele>969.6</ele>
        <time>2022-08-14T17:10:36Z</time>
      </trkpt>
      <trkpt lat="4.3807930" lon="-76.1529200">
        <ele>969.8</ele>
        <time>2022-08-14T17:10:38Z</time>
      </trkpt>
      <trkpt lat="4.3808980" lon="-76.1528200">
        <ele>971.0</ele>
        <time>2022-08-14T17:10:42Z</time>
      </trkpt>
      <trkpt lat="4.3809980" lon="-76.1527260">
        <ele>972.0</ele>
        <time>2022-08-14T17:10:46Z</time>
      </trkpt>
      <trkpt lat="4.3811180" lon="-76.1526040">
        <ele>973.0</ele>
        <time>2022-08-14T17:10:51Z</time>
      </trkpt>
      <trkpt lat="4.3812620" lon="-76.1524650">
        <ele>974.2</ele>
        <time>2022-08-14T17:10:57Z</time>
      </trkpt>
      <trkpt lat="4.3813740" lon="-76.1523490">
        <ele>975.0</ele>
        <time>2022-08-14T17:11:02Z</time>
      </trkpt>
      <trkpt lat="4.3814200" lon="-76.1523020">
        <ele>975.4</ele>
        <time>2022-08-14T17:11:04Z</time>
      </trkpt>
      <trkpt lat="4.3815780" lon="-76.1521390">
        <ele>976.6</ele>
        <time>2022-08-14T17:11:11Z</time>
      </trkpt>
      <trkpt lat="4.3816500" lon="-76.1520700">
        <ele>977.0</ele>
        <time>2022-08-14T17:11:14Z</time>
      </trkpt>
      <trkpt lat="4.3817430" lon="-76.1519830">
        <ele>977.6</ele>
        <time>2022-08-14T17:11:18Z</time>
      </trkpt>
      <trkpt lat="4.3818830" lon="-76.1518570">
        <ele>978.8</ele>
        <time>2022-08-14T17:11:24Z</time>
      </trkpt>
      <trkpt lat="4.3819990" lon="-76.1517440">
        <ele>979.8</ele>
        <time>2022-08-14T17:11:29Z</time>
      </trkpt>
      <trkpt lat="4.3820930" lon="-76.1516560">
        <ele>980.6</ele>
        <time>2022-08-14T17:11:33Z</time>
      </trkpt>
      <trkpt lat="4.3821410" lon="-76.1516110">
        <ele>981.0</ele>
        <time>2022-08-14T17:11:35Z</time>
      </trkpt>
      <trkpt lat="4.3822560" lon="-76.1515030">
        <ele>981.8</ele>
        <time>2022-08-14T17:11:40Z</time>
      </trkpt>
      <trkpt lat="4.3823020" lon="-76.1514610">
        <ele>982.2</ele>
        <time>2022-08-14T17:11:42Z</time>
      </trkpt>
      <trkpt lat="4.3824470" lon="-76.1513290">
        <ele>983.4</ele>
        <time>2022-08-14T17:11:48Z</time>
      </trkpt>
      <trkpt lat="4.3826110" lon="-76.1512090">
        <ele>984.4</ele>
        <time>2022-08-14T17:11:54Z</time>
      </trkpt>
      <trkpt lat="4.3827380" lon="-76.1511410">
        <ele>985.2</ele>
        <time>2022-08-14T17:11:58Z</time>
      </trkpt>
      <trkpt lat="4.3828020" lon="-76.1511110">
        <ele>985.4</ele>
        <time>2022-08-14T17:12:00Z</time>
      </trkpt>
      <trkpt lat="4.3830710" lon="-76.1509840">
        <ele>986.6</ele>
        <time>2022-08-14T17:12:08Z</time>
      </trkpt>
      <trkpt lat="4.3833000" lon="-76.1508780">
        <ele>987.4</ele>
        <time>2022-08-14T17:12:15Z</time>
      </trkpt>
      <trkpt lat="4.3833990" lon="-76.1508260">
        <ele>987.6</ele>
        <time>2022-08-14T17:12:18Z</time>
      </trkpt>
      <trkpt lat="4.3836860" lon="-76.1506940">
        <ele>988.0</ele>
        <time>2022-08-14T17:12:26Z</time>
      </trkpt>
      <trkpt lat="4.3839380" lon="-76.1505690">
        <ele>988.8</ele>
        <time>2022-08-14T17:12:33Z</time>
      </trkpt>
      <trkpt lat="4.3840070" lon="-76.1505380">
        <ele>988.6</ele>
        <time>2022-08-14T17:12:35Z</time>
      </trkpt>
      <trkpt lat="4.3844240" lon="-76.1503200">
        <ele>989.4</ele>
        <time>2022-08-14T17:12:46Z</time>
      </trkpt>
      <trkpt lat="4.3845780" lon="-76.1502500">
        <ele>990.0</ele>
        <time>2022-08-14T17:12:50Z</time>
      </trkpt>
      <trkpt lat="4.3847380" lon="-76.1501740">
        <ele>990.4</ele>
        <time>2022-08-14T17:12:54Z</time>
      </trkpt>
      <trkpt lat="4.3849250" lon="-76.1500780">
        <ele>991.0</ele>
        <time>2022-08-14T17:12:59Z</time>
      </trkpt>
      <trkpt lat="4.3851960" lon="-76.1499350">
        <ele>991.4</ele>
        <time>2022-08-14T17:13:06Z</time>
      </trkpt>
      <trkpt lat="4.3854210" lon="-76.1498140">
        <ele>992.0</ele>
        <time>2022-08-14T17:13:12Z</time>
      </trkpt>
      <trkpt lat="4.3855360" lon="-76.1497560">
        <ele>992.4</ele>
        <time>2022-08-14T17:13:15Z</time>
      </trkpt>
      <trkpt lat="4.3857690" lon="-76.1496420">
        <ele>993.0</ele>
        <time>2022-08-14T17:13:21Z</time>
      </trkpt>
      <trkpt lat="4.3859120" lon="-76.1495710">
        <ele>993.4</ele>
        <time>2022-08-14T17:13:25Z</time>
      </trkpt>
      <trkpt lat="4.3861370" lon="-76.1494630">
        <ele>994.0</ele>
        <time>2022-08-14T17:13:31Z</time>
      </trkpt>
      <trkpt lat="4.3861710" lon="-76.1494430">
        <ele>994.2</ele>
        <time>2022-08-14T17:13:32Z</time>
      </trkpt>
      <trkpt lat="4.3862380" lon="-76.1493980">
        <ele>994.4</ele>
        <time>2022-08-14T17:13:34Z</time>
      </trkpt>
      <trkpt lat="4.3863290" lon="-76.1493290">
        <ele>995.0</ele>
        <time>2022-08-14T17:13:37Z</time>
      </trkpt>
      <trkpt lat="4.3864050" lon="-76.1492520">
        <ele>995.4</ele>
        <time>2022-08-14T17:13:40Z</time>
      </trkpt>
      <trkpt lat="4.3864280" lon="-76.1492260">
        <ele>995.4</ele>
        <time>2022-08-14T17:13:41Z</time>
      </trkpt>
      <trkpt lat="4.3865420" lon="-76.1490580">
        <ele>996.6</ele>
        <time>2022-08-14T17:13:47Z</time>
      </trkpt>
      <trkpt lat="4.3865590" lon="-76.1490270">
        <ele>997.0</ele>
        <time>2022-08-14T17:13:48Z</time>
      </trkpt>
      <trkpt lat="4.3866310" lon="-76.1489250">
        <ele>997.8</ele>
        <time>2022-08-14T17:13:52Z</time>
      </trkpt>
      <trkpt lat="4.3866800" lon="-76.1488500">
        <ele>998.4</ele>
        <time>2022-08-14T17:13:55Z</time>
      </trkpt>
      <trkpt lat="4.3867160" lon="-76.1488020">
        <ele>999.0</ele>
        <time>2022-08-14T17:13:57Z</time>
      </trkpt>
      <trkpt lat="4.3868070" lon="-76.1486870">
        <ele>1000.0</ele>
        <time>2022-08-14T17:14:02Z</time>
      </trkpt>
      <trkpt lat="4.3868880" lon="-76.1485680">
        <ele>1001.2</ele>
        <time>2022-08-14T17:14:07Z</time>
      </trkpt>
      <trkpt lat="4.3869380" lon="-76.1484980">
        <ele>1002.0</ele>
        <time>2022-08-14T17:14:10Z</time>
      </trkpt>
      <trkpt lat="4.3869670" lon="-76.1484480">
        <ele>1002.4</ele>
        <time>2022-08-14T17:14:12Z</time>
      </trkpt>
      <trkpt lat="4.3870490" lon="-76.1483340">
        <ele>1003.6</ele>
        <time>2022-08-14T17:14:17Z</time>
      </trkpt>
      <trkpt lat="4.3871460" lon="-76.1481940">
        <ele>1004.4</ele>
        <time>2022-08-14T17:14:23Z</time>
      </trkpt>
      <trkpt lat="4.3872090" lon="-76.1481020">
        <ele>1005.6</ele>
        <time>2022-08-14T17:14:27Z</time>
      </trkpt>
      <trkpt lat="4.3872420" lon="-76.1480620">
        <ele>1006.2</ele>
        <time>2022-08-14T17:14:29Z</time>
      </trkpt>
      <trkpt lat="4.3872730" lon="-76.1480200">
        <ele>1006.8</ele>
        <time>2022-08-14T17:14:31Z</time>
      </trkpt>
      <trkpt lat="4.3873310" lon="-76.1479330">
        <ele>1007.8</ele>
        <time>2022-08-14T17:14:35Z</time>
      </trkpt>
      <trkpt lat="4.3873690" lon="-76.1478650">
        <ele>1008.2</ele>
        <time>2022-08-14T17:14:38Z</time>
      </trkpt>
      <trkpt lat="4.3873990" lon="-76.1478220">
        <ele>1009.0</ele>
        <time>2022-08-14T17:14:40Z</time>
      </trkpt>
      <trkpt lat="4.3874700" lon="-76.1477060">
        <ele>1010.0</ele>
        <time>2022-08-14T17:14:45Z</time>
      </trkpt>
      <trkpt lat="4.3874850" lon="-76.1476840">
        <ele>1010.2</ele>
        <time>2022-08-14T17:14:46Z</time>
      </trkpt>
      <trkpt lat="4.3875600" lon="-76.1475740">
        <ele>1011.2</ele>
        <time>2022-08-14T17:14:51Z</time>
      </trkpt>
      <trkpt lat="4.3876070" lon="-76.1475090">
        <ele>1012.0</ele>
        <time>2022-08-14T17:14:54Z</time>
      </trkpt>
      <trkpt lat="4.3876320" lon="-76.1474620">
        <ele>1012.4</ele>
        <time>2022-08-14T17:14:56Z</time>
      </trkpt>
      <trkpt lat="4.3877240" lon="-76.1473310">
        <ele>1013.6</ele>
        <time>2022-08-14T17:15:02Z</time>
      </trkpt>
      <trkpt lat="4.3877660" lon="-76.1472610">
        <ele>1014.2</ele>
        <time>2022-08-14T17:15:05Z</time>
      </trkpt>
      <trkpt lat="4.3877950" lon="-76.1472190">
        <ele>1014.6</ele>
        <time>2022-08-14T17:15:07Z</time>
      </trkpt>
      <trkpt lat="4.3878670" lon="-76.1471000">
        <ele>1015.8</ele>
        <time>2022-08-14T17:15:12Z</time>
      </trkpt>
      <trkpt lat="4.3879150" lon="-76.1470220">
        <ele>1016.2</ele>
        <time>2022-08-14T17:15:15Z</time>
      </trkpt>
      <trkpt lat="4.3879850" lon="-76.1469220">
        <ele>1017.0</ele>
        <time>2022-08-14T17:15:19Z</time>
      </trkpt>
      <trkpt lat="4.3880790" lon="-76.1467940">
        <ele>1017.8</ele>
        <time>2022-08-14T17:15:24Z</time>
      </trkpt>
      <trkpt lat="4.3881010" lon="-76.1467700">
        <ele>1018.0</ele>
        <time>2022-08-14T17:15:25Z</time>
      </trkpt>
      <trkpt lat="4.3881950" lon="-76.1466330">
        <ele>1018.8</ele>
        <time>2022-08-14T17:15:30Z</time>
      </trkpt>
      <trkpt lat="4.3882340" lon="-76.1465790">
        <ele>1019.0</ele>
        <time>2022-08-14T17:15:32Z</time>
      </trkpt>
      <trkpt lat="4.3882550" lon="-76.1465500">
        <ele>1019.2</ele>
        <time>2022-08-14T17:15:33Z</time>
      </trkpt>
      <trkpt lat="4.3884070" lon="-76.1463500">
        <ele>1019.6</ele>
        <time>2022-08-14T17:15:40Z</time>
      </trkpt>
      <trkpt lat="4.3886070" lon="-76.1461340">
        <ele>1020.0</ele>
        <time>2022-08-14T17:15:47Z</time>
      </trkpt>
      <trkpt lat="4.3886800" lon="-76.1460650">
        <ele>1020.0</ele>
        <time>2022-08-14T17:15:49Z</time>
      </trkpt>
      <trkpt lat="4.3888180" lon="-76.1459580">
        <ele>1019.8</ele>
        <time>2022-08-14T17:15:52Z</time>
      </trkpt>
      <trkpt lat="4.3889770" lon="-76.1458250">
        <ele>1019.4</ele>
        <time>2022-08-14T17:15:55Z</time>
      </trkpt>
      <trkpt lat="4.3891560" lon="-76.1456660">
        <ele>1018.8</ele>
        <time>2022-08-14T17:15:58Z</time>
      </trkpt>
      <trkpt lat="4.3893050" lon="-76.1455410">
        <ele>1018.0</ele>
        <time>2022-08-14T17:16:00Z</time>
      </trkpt>
      <trkpt lat="4.3895100" lon="-76.1453660">
        <ele>1016.8</ele>
        <time>2022-08-14T17:16:03Z</time>
      </trkpt>
      <trkpt lat="4.3895850" lon="-76.1452990">
        <ele>1016.2</ele>
        <time>2022-08-14T17:16:04Z</time>
      </trkpt>
      <trkpt lat="4.3896770" lon="-76.1452170">
        <ele>1015.6</ele>
        <time>2022-08-14T17:16:05Z</time>
      </trkpt>
      <trkpt lat="4.3899190" lon="-76.1450390">
        <ele>1014.6</ele>
        <time>2022-08-14T17:16:08Z</time>
      </trkpt>
      <trkpt lat="4.3900110" lon="-76.1449820">
        <ele>1014.2</ele>
        <time>2022-08-14T17:16:09Z</time>
      </trkpt>
      <trkpt lat="4.3901080" lon="-76.1449320">
        <ele>1013.6</ele>
        <time>2022-08-14T17:16:10Z</time>
      </trkpt>
      <trkpt lat="4.3902380" lon="-76.1448880">
        <ele>1012.8</ele>
        <time>2022-08-14T17:16:11Z</time>
      </trkpt>
      <trkpt lat="4.3903490" lon="-76.1448580">
        <ele>1012.0</ele>
        <time>2022-08-14T17:16:12Z</time>
      </trkpt>
      <trkpt lat="4.3904410" lon="-76.1448380">
        <ele>1011.0</ele>
        <time>2022-08-14T17:16:13Z</time>
      </trkpt>
      <trkpt lat="4.3907000" lon="-76.1447900">
        <ele>1009.4</ele>
        <time>2022-08-14T17:16:15Z</time>
      </trkpt>
      <trkpt lat="4.3909410" lon="-76.1447460">
        <ele>1008.0</ele>
        <time>2022-08-14T17:16:17Z</time>
      </trkpt>
      <trkpt lat="4.3910360" lon="-76.1447270">
        <ele>1007.0</ele>
        <time>2022-08-14T17:16:18Z</time>
      </trkpt>
      <trkpt lat="4.3911560" lon="-76.1447050">
        <ele>1006.2</ele>
        <time>2022-08-14T17:16:19Z</time>
      </trkpt>
      <trkpt lat="4.3913010" lon="-76.1446790">
        <ele>1005.2</ele>
        <time>2022-08-14T17:16:20Z</time>
      </trkpt>
      <trkpt lat="4.3915470" lon="-76.1446340">
        <ele>1003.6</ele>
        <time>2022-08-14T17:16:22Z</time>
      </trkpt>
      <trkpt lat="4.3917690" lon="-76.1445910">
        <ele>1001.8</ele>
        <time>2022-08-14T17:16:24Z</time>
      </trkpt>
      <trkpt lat="4.3920140" lon="-76.1445460">
        <ele>1000.2</ele>
        <time>2022-08-14T17:16:26Z</time>
      </trkpt>
      <trkpt lat="4.3921390" lon="-76.1445280">
        <ele>999.2</ele>
        <time>2022-08-14T17:16:27Z</time>
      </trkpt>
      <trkpt lat="4.3922580" lon="-76.1445090">
        <ele>998.2</ele>
        <time>2022-08-14T17:16:28Z</time>
      </trkpt>
      <trkpt lat="4.3924740" lon="-76.1444720">
        <ele>996.8</ele>
        <time>2022-08-14T17:16:30Z</time>
      </trkpt>
      <trkpt lat="4.3928640" lon="-76.1444040">
        <ele>996.0</ele>
        <time>2022-08-14T17:16:34Z</time>
      </trkpt>
      <trkpt lat="4.3930540" lon="-76.1443700">
        <ele>995.4</ele>
        <time>2022-08-14T17:16:36Z</time>
      </trkpt>
      <trkpt lat="4.3934200" lon="-76.1442980">
        <ele>994.8</ele>
        <time>2022-08-14T17:16:40Z</time>
      </trkpt>
      <trkpt lat="4.3935090" lon="-76.1442820">
        <ele>994.2</ele>
        <time>2022-08-14T17:16:41Z</time>
      </trkpt>
      <trkpt lat="4.3936840" lon="-76.1442690">
        <ele>993.2</ele>
        <time>2022-08-14T17:16:43Z</time>
      </trkpt>
      <trkpt lat="4.3937690" lon="-76.1442710">
        <ele>992.8</ele>
        <time>2022-08-14T17:16:44Z</time>
      </trkpt>
      <trkpt lat="4.3940260" lon="-76.1443050">
        <ele>992.0</ele>
        <time>2022-08-14T17:16:47Z</time>
      </trkpt>
      <trkpt lat="4.3942770" lon="-76.1443570">
        <ele>991.6</ele>
        <time>2022-08-14T17:16:50Z</time>
      </trkpt>
      <trkpt lat="4.3946210" lon="-76.1444350">
        <ele>991.0</ele>
        <time>2022-08-14T17:16:54Z</time>
      </trkpt>
      <trkpt lat="4.3948800" lon="-76.1444930">
        <ele>990.0</ele>
        <time>2022-08-14T17:16:57Z</time>
      </trkpt>
      <trkpt lat="4.3950490" lon="-76.1445270">
        <ele>989.8</ele>
        <time>2022-08-14T17:16:59Z</time>
      </trkpt>
      <trkpt lat="4.3954560" lon="-76.1446120">
        <ele>988.6</ele>
        <time>2022-08-14T17:17:04Z</time>
      </trkpt>
      <trkpt lat="4.3956190" lon="-76.1446470">
        <ele>988.0</ele>
        <time>2022-08-14T17:17:06Z</time>
      </trkpt>
      <trkpt lat="4.3960120" lon="-76.1446990">
        <ele>987.6</ele>
        <time>2022-08-14T17:17:11Z</time>
      </trkpt>
      <trkpt lat="4.3961690" lon="-76.1447180">
        <ele>987.4</ele>
        <time>2022-08-14T17:17:13Z</time>
      </trkpt>
      <trkpt lat="4.3965540" lon="-76.1447840">
        <ele>987.0</ele>
        <time>2022-08-14T17:17:18Z</time>
      </trkpt>
      <trkpt lat="4.3967810" lon="-76.1448210">
        <ele>987.0</ele>
        <time>2022-08-14T17:17:21Z</time>
      </trkpt>
      <trkpt lat="4.3973190" lon="-76.1449720">
        <ele>986.4</ele>
        <time>2022-08-14T17:17:28Z</time>
      </trkpt>
      <trkpt lat="4.3973940" lon="-76.1449970">
        <ele>986.4</ele>
        <time>2022-08-14T17:17:29Z</time>
      </trkpt>
      <trkpt lat="4.3979290" lon="-76.1451570">
        <ele>985.4</ele>
        <time>2022-08-14T17:17:36Z</time>
      </trkpt>
      <trkpt lat="4.3980070" lon="-76.1451810">
        <ele>985.4</ele>
        <time>2022-08-14T17:17:37Z</time>
      </trkpt>
      <trkpt lat="4.3985300" lon="-76.1453510">
        <ele>984.8</ele>
        <time>2022-08-14T17:17:44Z</time>
      </trkpt>
      <trkpt lat="4.3987410" lon="-76.1454430">
        <ele>984.4</ele>
        <time>2022-08-14T17:17:47Z</time>
      </trkpt>
      <trkpt lat="4.3989360" lon="-76.1455600">
        <ele>984.2</ele>
        <time>2022-08-14T17:17:50Z</time>
      </trkpt>
      <trkpt lat="4.3992640" lon="-76.1458490">
        <ele>984.0</ele>
        <time>2022-08-14T17:17:56Z</time>
      </trkpt>
      <trkpt lat="4.3995180" lon="-76.1461980">
        <ele>984.0</ele>
        <time>2022-08-14T17:18:02Z</time>
      </trkpt>
      <trkpt lat="4.3998350" lon="-76.1466800">
        <ele>984.0</ele>
        <time>2022-08-14T17:18:10Z</time>
      </trkpt>
      <trkpt lat="4.3998810" lon="-76.1467370">
        <ele>984.0</ele>
        <time>2022-08-14T17:18:11Z</time>
      </trkpt>
      <trkpt lat="4.4002510" lon="-76.1470950">
        <ele>983.4</ele>
        <time>2022-08-14T17:18:18Z</time>
      </trkpt>
      <trkpt lat="4.4003070" lon="-76.1471400">
        <ele>983.4</ele>
        <time>2022-08-14T17:18:19Z</time>
      </trkpt>
      <trkpt lat="4.4005280" lon="-76.1472970">
        <ele>983.0</ele>
        <time>2022-08-14T17:18:23Z</time>
      </trkpt>
      <trkpt lat="4.4008780" lon="-76.1475260">
        <ele>983.0</ele>
        <time>2022-08-14T17:18:29Z</time>
      </trkpt>
      <trkpt lat="4.4010190" lon="-76.1476420">
        <ele>983.0</ele>
        <time>2022-08-14T17:18:32Z</time>
      </trkpt>
      <trkpt lat="4.4010580" lon="-76.1476860">
        <ele>983.0</ele>
        <time>2022-08-14T17:18:33Z</time>
      </trkpt>
      <trkpt lat="4.4010950" lon="-76.1477350">
        <ele>983.0</ele>
        <time>2022-08-14T17:18:34Z</time>
      </trkpt>
      <trkpt lat="4.4012500" lon="-76.1479340">
        <ele>983.0</ele>
        <time>2022-08-14T17:18:38Z</time>
      </trkpt>
      <trkpt lat="4.4015360" lon="-76.1483070">
        <ele>983.0</ele>
        <time>2022-08-14T17:18:45Z</time>
      </trkpt>
      <trkpt lat="4.4016870" lon="-76.1485050">
        <ele>982.4</ele>
        <time>2022-08-14T17:18:49Z</time>
      </trkpt>
      <trkpt lat="4.4018360" lon="-76.1487120">
        <ele>982.4</ele>
        <time>2022-08-14T17:18:53Z</time>
      </trkpt>
      <trkpt lat="4.4021170" lon="-76.1490530">
        <ele>982.2</ele>
        <time>2022-08-14T17:19:00Z</time>
      </trkpt>
      <trkpt lat="4.4021970" lon="-76.1491490">
        <ele>982.2</ele>
        <time>2022-08-14T17:19:02Z</time>
      </trkpt>
      <trkpt lat="4.4023510" lon="-76.1493380">
        <ele>982.2</ele>
        <time>2022-08-14T17:19:06Z</time>
      </trkpt>
      <trkpt lat="4.4026330" lon="-76.1495980">
        <ele>982.2</ele>
        <time>2022-08-14T17:19:12Z</time>
      </trkpt>
      <trkpt lat="4.4028800" lon="-76.1498450">
        <ele>982.0</ele>
        <time>2022-08-14T17:19:18Z</time>
      </trkpt>
      <trkpt lat="4.4029390" lon="-76.1499390">
        <ele>982.0</ele>
        <time>2022-08-14T17:19:20Z</time>
      </trkpt>
      <trkpt lat="4.4031450" lon="-76.1503220">
        <ele>982.6</ele>
        <time>2022-08-14T17:19:28Z</time>
      </trkpt>
      <trkpt lat="4.4033320" lon="-76.1506840">
        <ele>983.6</ele>
        <time>2022-08-14T17:19:36Z</time>
      </trkpt>
      <trkpt lat="4.4033570" lon="-76.1507300">
        <ele>983.8</ele>
        <time>2022-08-14T17:19:37Z</time>
      </trkpt>
      <trkpt lat="4.4035300" lon="-76.1510400">
        <ele>984.4</ele>
        <time>2022-08-14T17:19:44Z</time>
      </trkpt>
      <trkpt lat="4.4036270" lon="-76.1512070">
        <ele>984.8</ele>
        <time>2022-08-14T17:19:48Z</time>
      </trkpt>
      <trkpt lat="4.4036550" lon="-76.1512510">
        <ele>984.8</ele>
        <time>2022-08-14T17:19:49Z</time>
      </trkpt>
      <trkpt lat="4.4038350" lon="-76.1514990">
        <ele>985.2</ele>
        <time>2022-08-14T17:19:55Z</time>
      </trkpt>
      <trkpt lat="4.4039090" lon="-76.1515700">
        <ele>985.2</ele>
        <time>2022-08-14T17:19:57Z</time>
      </trkpt>
      <trkpt lat="4.4040810" lon="-76.1517020">
        <ele>985.4</ele>
        <time>2022-08-14T17:20:02Z</time>
      </trkpt>
      <trkpt lat="4.4041920" lon="-76.1517730">
        <ele>985.4</ele>
        <time>2022-08-14T17:20:05Z</time>
      </trkpt>
      <trkpt lat="4.4042730" lon="-76.1518230">
        <ele>985.4</ele>
        <time>2022-08-14T17:20:07Z</time>
      </trkpt>
      <trkpt lat="4.4043080" lon="-76.1518360">
        <ele>985.4</ele>
        <time>2022-08-14T17:20:08Z</time>
      </trkpt>
      <trkpt lat="4.4044730" lon="-76.1518960">
        <ele>985.4</ele>
        <time>2022-08-14T17:20:12Z</time>
      </trkpt>
      <trkpt lat="4.4046310" lon="-76.1519590">
        <ele>985.4</ele>
        <time>2022-08-14T17:20:16Z</time>
      </trkpt>
      <trkpt lat="4.4049360" lon="-76.1520690">
        <ele>985.4</ele>
        <time>2022-08-14T17:20:23Z</time>
      </trkpt>
      <trkpt lat="4.4049790" lon="-76.1520830">
        <ele>985.4</ele>
        <time>2022-08-14T17:20:24Z</time>
      </trkpt>
      <trkpt lat="4.4052650" lon="-76.1521750">
        <ele>985.6</ele>
        <time>2022-08-14T17:20:31Z</time>
      </trkpt>
      <trkpt lat="4.4053110" lon="-76.1521860">
        <ele>985.6</ele>
        <time>2022-08-14T17:20:32Z</time>
      </trkpt>
      <trkpt lat="4.4054050" lon="-76.1522110">
        <ele>985.6</ele>
        <time>2022-08-14T17:20:34Z</time>
      </trkpt>
      <trkpt lat="4.4054850" lon="-76.1522410">
        <ele>985.6</ele>
        <time>2022-08-14T17:20:36Z</time>
      </trkpt>
      <trkpt lat="4.4055600" lon="-76.1522610">
        <ele>985.6</ele>
        <time>2022-08-14T17:20:38Z</time>
      </trkpt>
      <trkpt lat="4.4058290" lon="-76.1523860">
        <ele>985.8</ele>
        <time>2022-08-14T17:20:45Z</time>
      </trkpt>
      <trkpt lat="4.4058700" lon="-76.1524090">
        <ele>985.8</ele>
        <time>2022-08-14T17:20:46Z</time>
      </trkpt>
      <trkpt lat="4.4061750" lon="-76.1525890">
        <ele>986.0</ele>
        <time>2022-08-14T17:20:53Z</time>
      </trkpt>
      <trkpt lat="4.4063120" lon="-76.1526670">
        <ele>986.0</ele>
        <time>2022-08-14T17:20:56Z</time>
      </trkpt>
      <trkpt lat="4.4064040" lon="-76.1527040">
        <ele>986.0</ele>
        <time>2022-08-14T17:20:58Z</time>
      </trkpt>
      <trkpt lat="4.4065010" lon="-76.1527350">
        <ele>986.0</ele>
        <time>2022-08-14T17:21:00Z</time>
      </trkpt>
      <trkpt lat="4.4065940" lon="-76.1527280">
        <ele>986.2</ele>
        <time>2022-08-14T17:21:02Z</time>
      </trkpt>
      <trkpt lat="4.4066390" lon="-76.1527150">
        <ele>986.2</ele>
        <time>2022-08-14T17:21:03Z</time>
      </trkpt>
      <trkpt lat="4.4068550" lon="-76.1526780">
        <ele>986.6</ele>
        <time>2022-08-14T17:21:08Z</time>
      </trkpt>
      <trkpt lat="4.4069440" lon="-76.1526540">
        <ele>987.0</ele>
        <time>2022-08-14T17:21:10Z</time>
      </trkpt>
      <trkpt lat="4.4069900" lon="-76.1526420">
        <ele>987.2</ele>
        <time>2022-08-14T17:21:11Z</time>
      </trkpt>
      <trkpt lat="4.4072560" lon="-76.1525880">
        <ele>987.4</ele>
        <time>2022-08-14T17:21:17Z</time>
      </trkpt>
      <trkpt lat="4.4073310" lon="-76.1525680">
        <ele>987.4</ele>
        <time>2022-08-14T17:21:19Z</time>
      </trkpt>
      <trkpt lat="4.4075740" lon="-76.1525010">
        <ele>987.4</ele>
        <time>2022-08-14T17:21:25Z</time>
      </trkpt>
      <trkpt lat="4.4076170" lon="-76.1524910">
        <ele>987.4</ele>
        <time>2022-08-14T17:21:26Z</time>
      </trkpt>
      <trkpt lat="4.4077810" lon="-76.1524620">
        <ele>987.4</ele>
        <time>2022-08-14T17:21:30Z</time>
      </trkpt>
      <trkpt lat="4.4080890" lon="-76.1523870">
        <ele>987.2</ele>
        <time>2022-08-14T17:21:37Z</time>
      </trkpt>
      <trkpt lat="4.4082540" lon="-76.1523360">
        <ele>987.0</ele>
        <time>2022-08-14T17:21:41Z</time>
      </trkpt>
      <trkpt lat="4.4083820" lon="-76.1523170">
        <ele>987.0</ele>
        <time>2022-08-14T17:21:44Z</time>
      </trkpt>
      <trkpt lat="4.4085070" lon="-76.1522880">
        <ele>987.0</ele>
        <time>2022-08-14T17:21:47Z</time>
      </trkpt>
      <trkpt lat="4.4086290" lon="-76.1522700">
        <ele>986.8</ele>
        <time>2022-08-14T17:21:50Z</time>
      </trkpt>
      <trkpt lat="4.4088480" lon="-76.1522260">
        <ele>987.0</ele>
        <time>2022-08-14T17:21:56Z</time>
      </trkpt>
      <trkpt lat="4.4090220" lon="-76.1521960">
        <ele>987.0</ele>
        <time>2022-08-14T17:22:02Z</time>
      </trkpt>
      <trkpt lat="4.4093200" lon="-76.1521310">
        <ele>987.0</ele>
        <time>2022-08-14T17:22:10Z</time>
      </trkpt>
      <trkpt lat="4.4096440" lon="-76.1520730">
        <ele>987.0</ele>
        <time>2022-08-14T17:22:18Z</time>
      </trkpt>
      <trkpt lat="4.4098930" lon="-76.1520100">
        <ele>986.8</ele>
        <time>2022-08-14T17:22:25Z</time>
      </trkpt>
      <trkpt lat="4.4101570" lon="-76.1519510">
        <ele>987.0</ele>
        <time>2022-08-14T17:22:32Z</time>
      </trkpt>
      <trkpt lat="4.4103440" lon="-76.1519000">
        <ele>987.0</ele>
        <time>2022-08-14T17:22:37Z</time>
      </trkpt>
      <trkpt lat="4.4105380" lon="-76.1518650">
        <ele>987.0</ele>
        <time>2022-08-14T17:22:42Z</time>
      </trkpt>
      <trkpt lat="4.4106090" lon="-76.1518530">
        <ele>987.0</ele>
        <time>2022-08-14T17:22:44Z</time>
      </trkpt>
      <trkpt lat="4.4106850" lon="-76.1518620">
        <ele>987.0</ele>
        <time>2022-08-14T17:22:47Z</time>
      </trkpt>
      <trkpt lat="4.4106920" lon="-76.1518790">
        <ele>987.0</ele>
        <time>2022-08-14T17:22:48Z</time>
      </trkpt>
      <trkpt lat="4.4106900" lon="-76.1519510">
        <ele>987.2</ele>
        <time>2022-08-14T17:22:51Z</time>
      </trkpt>
      <trkpt lat="4.4106970" lon="-76.1520140">
        <ele>987.4</ele>
        <time>2022-08-14T17:22:53Z</time>
      </trkpt>
      <trkpt lat="4.4107170" lon="-76.1522030">
        <ele>987.8</ele>
        <time>2022-08-14T17:23:00Z</time>
      </trkpt>
      <trkpt lat="4.4107380" lon="-76.1523810">
        <ele>988.2</ele>
        <time>2022-08-14T17:23:06Z</time>
      </trkpt>
      <trkpt lat="4.4107600" lon="-76.1525010">
        <ele>988.4</ele>
        <time>2022-08-14T17:23:11Z</time>
      </trkpt>
      <trkpt lat="4.4107660" lon="-76.1525450">
        <ele>988.6</ele>
        <time>2022-08-14T17:23:13Z</time>
      </trkpt>
      <trkpt lat="4.4107730" lon="-76.1525950">
        <ele>988.8</ele>
        <time>2022-08-14T17:23:15Z</time>
      </trkpt>
      <trkpt lat="4.4107880" lon="-76.1526910">
        <ele>989.0</ele>
        <time>2022-08-14T17:23:19Z</time>
      </trkpt>
      <trkpt lat="4.4108180" lon="-76.1529150">
        <ele>989.4</ele>
        <time>2022-08-14T17:23:28Z</time>
      </trkpt>
      <trkpt lat="4.4108130" lon="-76.1529590">
        <ele>989.8</ele>
        <time>2022-08-14T17:23:30Z</time>
      </trkpt>
      <trkpt lat="4.4108060" lon="-76.1530220">
        <ele>990.2</ele>
        <time>2022-08-14T17:23:33Z</time>
      </trkpt>
      <trkpt lat="4.4108270" lon="-76.1531960">
        <ele>990.8</ele>
        <time>2022-08-14T17:23:40Z</time>
      </trkpt>
      <trkpt lat="4.4108450" lon="-76.1533090">
        <ele>991.0</ele>
        <time>2022-08-14T17:23:44Z</time>
      </trkpt>
      <trkpt lat="4.4108520" lon="-76.1534250">
        <ele>991.4</ele>
        <time>2022-08-14T17:23:48Z</time>
      </trkpt>
      <trkpt lat="4.4108520" lon="-76.1536050">
        <ele>991.8</ele>
        <time>2022-08-14T17:23:55Z</time>
      </trkpt>
      <trkpt lat="4.4108560" lon="-76.1536500">
        <ele>991.8</ele>
        <time>2022-08-14T17:23:57Z</time>
      </trkpt>
      <trkpt lat="4.4108560" lon="-76.1536830">
        <ele>992.0</ele>
        <time>2022-08-14T17:23:59Z</time>
      </trkpt>
      <trkpt lat="4.4108610" lon="-76.1537150">
        <ele>992.2</ele>
        <time>2022-08-14T17:24:01Z</time>
      </trkpt>
      <trkpt lat="4.4108640" lon="-76.1537400">
        <ele>992.2</ele>
        <time>2022-08-14T17:24:03Z</time>
      </trkpt>
      <trkpt lat="4.4108710" lon="-76.1537900">
        <ele>992.4</ele>
        <time>2022-08-14T17:24:06Z</time>
      </trkpt>
      <trkpt lat="4.4108650" lon="-76.1539270">
        <ele>992.6</ele>
        <time>2022-08-14T17:24:14Z</time>
      </trkpt>
      <trkpt lat="4.4108830" lon="-76.1539780">
        <ele>993.0</ele>
        <time>2022-08-14T17:24:17Z</time>
      </trkpt>
      <trkpt lat="4.4109120" lon="-76.1540570">
        <ele>993.2</ele>
        <time>2022-08-14T17:24:21Z</time>
      </trkpt>
      <trkpt lat="4.4109440" lon="-76.1542100">
        <ele>993.4</ele>
        <time>2022-08-14T17:24:28Z</time>
      </trkpt>
      <trkpt lat="4.4109890" lon="-76.1543590">
        <ele>993.8</ele>
        <time>2022-08-14T17:24:35Z</time>
      </trkpt>
      <trkpt lat="4.4110380" lon="-76.1544520">
        <ele>994.0</ele>
        <time>2022-08-14T17:24:41Z</time>
      </trkpt>
      <trkpt lat="4.4110440" lon="-76.1544680">
        <ele>994.0</ele>
        <time>2022-08-14T17:24:42Z</time>
      </trkpt>
      <trkpt lat="4.4110470" lon="-76.1545070">
        <ele>994.0</ele>
        <time>2022-08-14T17:24:45Z</time>
      </trkpt>
      <trkpt lat="4.4110640" lon="-76.1545280">
        <ele>994.0</ele>
        <time>2022-08-14T17:24:47Z</time>
      </trkpt>
      <trkpt lat="4.4110800" lon="-76.1545470">
        <ele>994.0</ele>
        <time>2022-08-14T17:24:52Z</time>
      </trkpt>
      <trkpt lat="4.4110800" lon="-76.1545470">
        <ele>994.2</ele>
        <time>2022-08-14T17:24:53Z</time>
      </trkpt>
      <trkpt lat="4.4110800" lon="-76.1545470">
        <ele>994.2</ele>
        <time>2022-08-14T17:24:54Z</time>
      </trkpt>
      <trkpt lat="4.4110650" lon="-76.1545530">
        <ele>994.6</ele>
        <time>2022-08-14T17:24:59Z</time>
      </trkpt>
      <trkpt lat="4.4110560" lon="-76.1545450">
        <ele>994.6</ele>
        <time>2022-08-14T17:25:00Z</time>
      </trkpt>
      <trkpt lat="4.4110320" lon="-76.1545300">
        <ele>994.6</ele>
        <time>2022-08-14T17:25:02Z</time>
      </trkpt>
      <trkpt lat="4.4109960" lon="-76.1545240">
        <ele>994.6</ele>
        <time>2022-08-14T17:25:04Z</time>
      </trkpt>
      <trkpt lat="4.4108520" lon="-76.1545340">
        <ele>994.6</ele>
        <time>2022-08-14T17:25:09Z</time>
      </trkpt>
      <trkpt lat="4.4107300" lon="-76.1545570">
        <ele>994.4</ele>
        <time>2022-08-14T17:25:13Z</time>
      </trkpt>
      <trkpt lat="4.4106680" lon="-76.1545760">
        <ele>994.4</ele>
        <time>2022-08-14T17:25:15Z</time>
      </trkpt>
      <trkpt lat="4.4105540" lon="-76.1546240">
        <ele>994.4</ele>
        <time>2022-08-14T17:25:19Z</time>
      </trkpt>
      <trkpt lat="4.4103950" lon="-76.1546620">
        <ele>994.4</ele>
        <time>2022-08-14T17:25:24Z</time>
      </trkpt>
      <trkpt lat="4.4103340" lon="-76.1546950">
        <ele>994.4</ele>
        <time>2022-08-14T17:25:27Z</time>
      </trkpt>
      <trkpt lat="4.4103100" lon="-76.1547190">
        <ele>994.4</ele>
        <time>2022-08-14T17:25:29Z</time>
      </trkpt>
      <trkpt lat="4.4102500" lon="-76.1547620">
        <ele>994.6</ele>
        <time>2022-08-14T17:25:34Z</time>
      </trkpt>
      <trkpt lat="4.4102360" lon="-76.1547690">
        <ele>994.6</ele>
        <time>2022-08-14T17:25:35Z</time>
      </trkpt>
      <trkpt lat="4.4101920" lon="-76.1547820">
        <ele>994.6</ele>
        <time>2022-08-14T17:25:39Z</time>
      </trkpt>
      <trkpt lat="4.4101820" lon="-76.1547820">
        <ele>994.6</ele>
        <time>2022-08-14T17:25:41Z</time>
      </trkpt>
      <trkpt lat="4.4101820" lon="-76.1547820">
        <ele>995.2</ele>
        <time>2022-08-14T17:25:48Z</time>
      </trkpt>
      <trkpt lat="4.4101820" lon="-76.1547820">
        <ele>995.2</ele>
        <time>2022-08-14T17:25:57Z</time>
      </trkpt>
      <trkpt lat="4.4101820" lon="-76.1547820">
        <ele>995.2</ele>
        <time>2022-08-14T17:26:07Z</time>
      </trkpt>
      <trkpt lat="4.4101820" lon="-76.1547840">
        <ele>995.2</ele>
        <time>2022-08-14T17:26:08Z</time>
      </trkpt>
      <trkpt lat="4.4101900" lon="-76.1548120">
        <ele>995.2</ele>
        <time>2022-08-14T17:26:10Z</time>
      </trkpt>
      <trkpt lat="4.4102730" lon="-76.1549140">
        <ele>995.2</ele>
        <time>2022-08-14T17:26:15Z</time>
      </trkpt>
      <trkpt lat="4.4103730" lon="-76.1550720">
        <ele>995.2</ele>
        <time>2022-08-14T17:26:22Z</time>
      </trkpt>
      <trkpt lat="4.4103830" lon="-76.1550880">
        <ele>995.2</ele>
        <time>2022-08-14T17:26:23Z</time>
      </trkpt>
      <trkpt lat="4.4103950" lon="-76.1551270">
        <ele>995.4</ele>
        <time>2022-08-14T17:26:26Z</time>
      </trkpt>
      <trkpt lat="4.4103950" lon="-76.1551350">
        <ele>995.4</ele>
        <time>2022-08-14T17:26:27Z</time>
      </trkpt>
      <trkpt lat="4.4103920" lon="-76.1551390">
        <ele>995.6</ele>
        <time>2022-08-14T17:26:28Z</time>
      </trkpt>
      <trkpt lat="4.4103940" lon="-76.1551580">
        <ele>995.8</ele>
        <time>2022-08-14T17:26:35Z</time>
      </trkpt>
      <trkpt lat="4.4103940" lon="-76.1551580">
        <ele>996.0</ele>
        <time>2022-08-14T17:26:37Z</time>
      </trkpt>
      <trkpt lat="4.4104090" lon="-76.1551720">
        <ele>996.0</ele>
        <time>2022-08-14T17:26:39Z</time>
      </trkpt>
      <trkpt lat="4.4104300" lon="-76.1551920">
        <ele>996.0</ele>
        <time>2022-08-14T17:26:41Z</time>
      </trkpt>
      <trkpt lat="4.4104390" lon="-76.1552030">
        <ele>996.0</ele>
        <time>2022-08-14T17:26:42Z</time>
      </trkpt>
      <trkpt lat="4.4104570" lon="-76.1552170">
        <ele>996.0</ele>
        <time>2022-08-14T17:26:48Z</time>
      </trkpt>
      <trkpt lat="4.4104570" lon="-76.1552170">
        <ele>996.4</ele>
        <time>2022-08-14T17:26:56Z</time>
      </trkpt>
      <trkpt lat="4.4104570" lon="-76.1552170">
        <ele>996.6</ele>
        <time>2022-08-14T17:27:00Z</time>
      </trkpt>
      <trkpt lat="4.4104580" lon="-76.1552210">
        <ele>997.0</ele>
        <time>2022-08-14T17:27:05Z</time>
      </trkpt>
      <trkpt lat="4.4104900" lon="-76.1552560">
        <ele>997.2</ele>
        <time>2022-08-14T17:27:12Z</time>
      </trkpt>
      <trkpt lat="4.4105690" lon="-76.1553480">
        <ele>997.2</ele>
        <time>2022-08-14T17:27:20Z</time>
      </trkpt>
      <trkpt lat="4.4105770" lon="-76.1553550">
        <ele>997.2</ele>
        <time>2022-08-14T17:27:21Z</time>
      </trkpt>
      <trkpt lat="4.4106130" lon="-76.1554140">
        <ele>997.4</ele>
        <time>2022-08-14T17:27:27Z</time>
      </trkpt>
      <trkpt lat="4.4106320" lon="-76.1554650">
        <ele>997.6</ele>
        <time>2022-08-14T17:27:34Z</time>
      </trkpt>
      <trkpt lat="4.4106310" lon="-76.1554710">
        <ele>997.6</ele>
        <time>2022-08-14T17:27:36Z</time>
      </trkpt>
      <trkpt lat="4.4106290" lon="-76.1554740">
        <ele>997.6</ele>
        <time>2022-08-14T17:27:37Z</time>
      </trkpt>
      <trkpt lat="4.4106530" lon="-76.1554900">
        <ele>997.8</ele>
        <time>2022-08-14T17:27:41Z</time>
      </trkpt>
      <trkpt lat="4.4106910" lon="-76.1555380">
        <ele>997.8</ele>
        <time>2022-08-14T17:27:49Z</time>
      </trkpt>
      <trkpt lat="4.4106930" lon="-76.1555140">
        <ele>997.8</ele>
        <time>2022-08-14T17:27:53Z</time>
      </trkpt>
      <trkpt lat="4.4106710" lon="-76.1554860">
        <ele>997.6</ele>
        <time>2022-08-14T17:28:03Z</time>
      </trkpt>
      <trkpt lat="4.4106710" lon="-76.1554860">
        <ele>997.6</ele>
        <time>2022-08-14T17:28:14Z</time>
      </trkpt>
      <trkpt lat="4.4106390" lon="-76.1554410">
        <ele>997.8</ele>
        <time>2022-08-14T17:28:23Z</time>
      </trkpt>
      <trkpt lat="4.4106300" lon="-76.1554280">
        <ele>997.8</ele>
        <time>2022-08-14T17:28:24Z</time>
      </trkpt>
      <trkpt lat="4.4105810" lon="-76.1553500">
        <ele>997.6</ele>
        <time>2022-08-14T17:28:31Z</time>
      </trkpt>
      <trkpt lat="4.4105530" lon="-76.1553050">
        <ele>997.4</ele>
        <time>2022-08-14T17:28:35Z</time>
      </trkpt>
      <trkpt lat="4.4105410" lon="-76.1552840">
        <ele>997.4</ele>
        <time>2022-08-14T17:28:38Z</time>
      </trkpt>
      <trkpt lat="4.4105370" lon="-76.1552760">
        <ele>997.2</ele>
        <time>2022-08-14T17:28:39Z</time>
      </trkpt>
      <trkpt lat="4.4104970" lon="-76.1552030">
        <ele>997.2</ele>
        <time>2022-08-14T17:28:46Z</time>
      </trkpt>
      <trkpt lat="4.4104630" lon="-76.1551640">
        <ele>997.0</ele>
        <time>2022-08-14T17:28:52Z</time>
      </trkpt>
      <trkpt lat="4.4104480" lon="-76.1551520">
        <ele>997.0</ele>
        <time>2022-08-14T17:28:54Z</time>
      </trkpt>
      <trkpt lat="4.4104360" lon="-76.1551340">
        <ele>996.8</ele>
        <time>2022-08-14T17:29:00Z</time>
      </trkpt>
      <trkpt lat="4.4104360" lon="-76.1551340">
        <ele>996.8</ele>
        <time>2022-08-14T17:29:09Z</time>
      </trkpt>
      <trkpt lat="4.4104360" lon="-76.1551340">
        <ele>996.8</ele>
        <time>2022-08-14T17:29:14Z</time>
      </trkpt>
      <trkpt lat="4.4104360" lon="-76.1551340">
        <ele>996.8</ele>
        <time>2022-08-14T17:29:17Z</time>
      </trkpt>
      <trkpt lat="4.4104360" lon="-76.1551340">
        <ele>996.8</ele>
        <time>2022-08-14T17:29:28Z</time>
      </trkpt>
      <trkpt lat="4.4104360" lon="-76.1551340">
        <ele>996.8</ele>
        <time>2022-08-14T17:29:33Z</time>
      </trkpt>
      <trkpt lat="4.4104320" lon="-76.1551360">
        <ele>997.2</ele>
        <time>2022-08-14T17:29:46Z</time>
      </trkpt>
      <trkpt lat="4.4104260" lon="-76.1551380">
        <ele>997.4</ele>
        <time>2022-08-14T17:29:53Z</time>
      </trkpt>
      <trkpt lat="4.4104100" lon="-76.1551400">
        <ele>997.4</ele>
        <time>2022-08-14T17:29:55Z</time>
      </trkpt>
      <trkpt lat="4.4103630" lon="-76.1551460">
        <ele>997.4</ele>
        <time>2022-08-14T17:30:01Z</time>
      </trkpt>
      <trkpt lat="4.4103570" lon="-76.1551480">
        <ele>997.4</ele>
        <time>2022-08-14T17:30:18Z</time>
      </trkpt>
      <trkpt lat="4.4103570" lon="-76.1551480">
        <ele>997.6</ele>
        <time>2022-08-14T17:30:30Z</time>
      </trkpt>
      <trkpt lat="4.4103560" lon="-76.1551470">
        <ele>997.6</ele>
        <time>2022-08-14T17:30:57Z</time>
      </trkpt>
      <trkpt lat="4.4103470" lon="-76.1551390">
        <ele>997.6</ele>
        <time>2022-08-14T17:31:04Z</time>
      </trkpt>
      <trkpt lat="4.4103470" lon="-76.1551390">
        <ele>997.6</ele>
        <time>2022-08-14T17:31:06Z</time>
      </trkpt>
      <trkpt lat="4.4103470" lon="-76.1551390">
        <ele>997.8</ele>
        <time>2022-08-14T17:31:28Z</time>
      </trkpt>
      <trkpt lat="4.4103370" lon="-76.1551330">
        <ele>997.8</ele>
        <time>2022-08-14T17:32:03Z</time>
      </trkpt>
      <trkpt lat="4.4103270" lon="-76.1551300">
        <ele>997.8</ele>
        <time>2022-08-14T17:32:13Z</time>
      </trkpt>
      <trkpt lat="4.4103270" lon="-76.1551300">
        <ele>997.6</ele>
        <time>2022-08-14T17:32:21Z</time>
      </trkpt>
      <trkpt lat="4.4103110" lon="-76.1551160">
        <ele>997.6</ele>
        <time>2022-08-14T17:32:25Z</time>
      </trkpt>
      <trkpt lat="4.4103080" lon="-76.1551160">
        <ele>997.6</ele>
        <time>2022-08-14T17:32:39Z</time>
      </trkpt>
      <trkpt lat="4.4103060" lon="-76.1551130">
        <ele>998.0</ele>
        <time>2022-08-14T17:32:49Z</time>
      </trkpt>
      <trkpt lat="4.4103060" lon="-76.1551130">
        <ele>998.0</ele>
        <time>2022-08-14T17:32:55Z</time>
      </trkpt>
      <trkpt lat="4.4103060" lon="-76.1551130">
        <ele>998.0</ele>
        <time>2022-08-14T17:32:56Z</time>
      </trkpt>
      <trkpt lat="4.4103060" lon="-76.1551130">
        <ele>998.0</ele>
        <time>2022-08-14T17:33:12Z</time>
      </trkpt>
      <trkpt lat="4.4103060" lon="-76.1551130">
        <ele>998.0</ele>
        <time>2022-08-14T17:33:14Z</time>
      </trkpt>
      <trkpt lat="4.4103080" lon="-76.1551180">
        <ele>998.4</ele>
        <time>2022-08-14T17:33:40Z</time>
      </trkpt>
      <trkpt lat="4.4103080" lon="-76.1551180">
        <ele>998.2</ele>
        <time>2022-08-14T17:34:02Z</time>
      </trkpt>
      <trkpt lat="4.4103080" lon="-76.1551180">
        <ele>998.2</ele>
        <time>2022-08-14T17:34:07Z</time>
      </trkpt>
      <trkpt lat="4.4103080" lon="-76.1551180">
        <ele>998.2</ele>
        <time>2022-08-14T17:34:19Z</time>
      </trkpt>
      <trkpt lat="4.4103080" lon="-76.1551180">
        <ele>998.4</ele>
        <time>2022-08-14T17:34:38Z</time>
      </trkpt>
      <trkpt lat="4.4103080" lon="-76.1551180">
        <ele>998.2</ele>
        <time>2022-08-14T17:34:43Z</time>
      </trkpt>
      <trkpt lat="4.4103080" lon="-76.1551180">
        <ele>998.0</ele>
        <time>2022-08-14T17:35:11Z</time>
      </trkpt>
      <trkpt lat="4.4103080" lon="-76.1551180">
        <ele>998.0</ele>
        <time>2022-08-14T17:35:20Z</time>
      </trkpt>
      <trkpt lat="4.4103080" lon="-76.1551180">
        <ele>998.0</ele>
        <time>2022-08-14T17:35:41Z</time>
      </trkpt>
      <trkpt lat="4.4103080" lon="-76.1551180">
        <ele>998.2</ele>
        <time>2022-08-14T17:36:07Z</time>
      </trkpt>
      <trkpt lat="4.4103080" lon="-76.1551180">
        <ele>998.4</ele>
        <time>2022-08-14T17:36:16Z</time>
      </trkpt>
      <trkpt lat="4.4103080" lon="-76.1551180">
        <ele>998.6</ele>
        <time>2022-08-14T17:36:28Z</time>
      </trkpt>
      <trkpt lat="4.4103080" lon="-76.1551180">
        <ele>998.6</ele>
        <time>2022-08-14T17:36:40Z</time>
      </trkpt>
      <trkpt lat="4.4103080" lon="-76.1551180">
        <ele>998.8</ele>
        <time>2022-08-14T17:36:47Z</time>
      </trkpt>
      <trkpt lat="4.4103080" lon="-76.1551180">
        <ele>998.8</ele>
        <time>2022-08-14T17:36:50Z</time>
      </trkpt>
      <trkpt lat="4.4103080" lon="-76.1551180">
        <ele>999.0</ele>
        <time>2022-08-14T17:37:13Z</time>
      </trkpt>
      <trkpt lat="4.4103080" lon="-76.1551180">
        <ele>999.0</ele>
        <time>2022-08-14T17:37:41Z</time>
      </trkpt>
      <trkpt lat="4.4103070" lon="-76.1551180">
        <ele>999.2</ele>
        <time>2022-08-14T17:38:12Z</time>
      </trkpt>
      <trkpt lat="4.4103070" lon="-76.1551180">
        <ele>999.4</ele>
        <time>2022-08-14T17:38:41Z</time>
      </trkpt>
      <trkpt lat="4.4103060" lon="-76.1551180">
        <ele>999.4</ele>
        <time>2022-08-14T17:39:07Z</time>
      </trkpt>
      <trkpt lat="4.4103060" lon="-76.1551180">
        <ele>999.4</ele>
        <time>2022-08-14T17:39:19Z</time>
      </trkpt>
      <trkpt lat="4.4103050" lon="-76.1551190">
        <ele>999.4</ele>
        <time>2022-08-14T17:39:39Z</time>
      </trkpt>
      <trkpt lat="4.4103040" lon="-76.1551190">
        <ele>999.4</ele>
        <time>2022-08-14T17:39:42Z</time>
      </trkpt>
      <trkpt lat="4.4103040" lon="-76.1551190">
        <ele>999.6</ele>
        <time>2022-08-14T17:39:45Z</time>
      </trkpt>
      <trkpt lat="4.4102900" lon="-76.1551190">
        <ele>999.8</ele>
        <time>2022-08-14T17:39:55Z</time>
      </trkpt>
      <trkpt lat="4.4102900" lon="-76.1551190">
        <ele>999.6</ele>
        <time>2022-08-14T17:40:25Z</time>
      </trkpt>
      <trkpt lat="4.4102910" lon="-76.1551220">
        <ele>1000.0</ele>
        <time>2022-08-14T17:41:03Z</time>
      </trkpt>
      <trkpt lat="4.4102980" lon="-76.1551360">
        <ele>1000.0</ele>
        <time>2022-08-14T17:41:42Z</time>
      </trkpt>
      <trkpt lat="4.4102980" lon="-76.1551360">
        <ele>1000.2</ele>
        <time>2022-08-14T17:42:03Z</time>
      </trkpt>
      <trkpt lat="4.4102950" lon="-76.1551350">
        <ele>1000.2</ele>
        <time>2022-08-14T17:42:09Z</time>
      </trkpt>
      <trkpt lat="4.4102940" lon="-76.1551340">
        <ele>1000.2</ele>
        <time>2022-08-14T17:42:26Z</time>
      </trkpt>
      <trkpt lat="4.4103000" lon="-76.1551480">
        <ele>1000.4</ele>
        <time>2022-08-14T17:43:39Z</time>
      </trkpt>
      <trkpt lat="4.4103000" lon="-76.1551480">
        <ele>1000.4</ele>
        <time>2022-08-14T17:43:46Z</time>
      </trkpt>
      <trkpt lat="4.4103000" lon="-76.1551480">
        <ele>1000.4</ele>
        <time>2022-08-14T17:44:11Z</time>
      </trkpt>
      <trkpt lat="4.4103000" lon="-76.1551480">
        <ele>1000.4</ele>
        <time>2022-08-14T17:44:43Z</time>
      </trkpt>
      <trkpt lat="4.4103000" lon="-76.1551480">
        <ele>1000.4</ele>
        <time>2022-08-14T17:44:57Z</time>
      </trkpt>
      <trkpt lat="4.4103000" lon="-76.1551480">
        <ele>1000.6</ele>
        <time>2022-08-14T17:45:05Z</time>
      </trkpt>
      <trkpt lat="4.4103000" lon="-76.1551480">
        <ele>1000.6</ele>
        <time>2022-08-14T17:45:08Z</time>
      </trkpt>
      <trkpt lat="4.4103000" lon="-76.1551480">
        <ele>1000.8</ele>
        <time>2022-08-14T17:45:19Z</time>
      </trkpt>
      <trkpt lat="4.4103000" lon="-76.1551480">
        <ele>1000.8</ele>
        <time>2022-08-14T17:45:21Z</time>
      </trkpt>
      <trkpt lat="4.4102990" lon="-76.1551480">
        <ele>1000.8</ele>
        <time>2022-08-14T17:45:27Z</time>
      </trkpt>
      <trkpt lat="4.4102990" lon="-76.1551480">
        <ele>1000.8</ele>
        <time>2022-08-14T17:45:31Z</time>
      </trkpt>
      <trkpt lat="4.4102910" lon="-76.1551450">
        <ele>1000.8</ele>
        <time>2022-08-14T17:45:41Z</time>
      </trkpt>
      <trkpt lat="4.4102910" lon="-76.1551450">
        <ele>1000.6</ele>
        <time>2022-08-14T17:45:58Z</time>
      </trkpt>
      <trkpt lat="4.4102910" lon="-76.1551450">
        <ele>1000.6</ele>
        <time>2022-08-14T17:46:01Z</time>
      </trkpt>
      <trkpt lat="4.4102950" lon="-76.1551500">
        <ele>1000.8</ele>
        <time>2022-08-14T17:46:17Z</time>
      </trkpt>
      <trkpt lat="4.4102950" lon="-76.1551500">
        <ele>1000.8</ele>
        <time>2022-08-14T17:46:23Z</time>
      </trkpt>
      <trkpt lat="4.4102950" lon="-76.1551500">
        <ele>1000.8</ele>
        <time>2022-08-14T17:46:29Z</time>
      </trkpt>
      <trkpt lat="4.4102950" lon="-76.1551500">
        <ele>1000.8</ele>
        <time>2022-08-14T17:46:33Z</time>
      </trkpt>
      <trkpt lat="4.4102950" lon="-76.1551500">
        <ele>1000.8</ele>
        <time>2022-08-14T17:46:34Z</time>
      </trkpt>
      <trkpt lat="4.4102950" lon="-76.1551510">
        <ele>1000.6</ele>
        <time>2022-08-14T17:46:48Z</time>
      </trkpt>
      <trkpt lat="4.4102950" lon="-76.1551600">
        <ele>1001.0</ele>
        <time>2022-08-14T17:47:27Z</time>
      </trkpt>
      <trkpt lat="4.4102950" lon="-76.1551600">
        <ele>1001.0</ele>
        <time>2022-08-14T17:48:04Z</time>
      </trkpt>
      <trkpt lat="4.4103000" lon="-76.1551720">
        <ele>1001.2</ele>
        <time>2022-08-14T17:48:26Z</time>
      </trkpt>
      <trkpt lat="4.4103000" lon="-76.1551720">
        <ele>1001.2</ele>
        <time>2022-08-14T17:48:32Z</time>
      </trkpt>
      <trkpt lat="4.4103010" lon="-76.1551720">
        <ele>1001.2</ele>
        <time>2022-08-14T17:48:47Z</time>
      </trkpt>
      <trkpt lat="4.4103000" lon="-76.1551720">
        <ele>1001.2</ele>
        <time>2022-08-14T17:48:53Z</time>
      </trkpt>
      <trkpt lat="4.4103000" lon="-76.1551700">
        <ele>1001.4</ele>
        <time>2022-08-14T17:49:09Z</time>
      </trkpt>
      <trkpt lat="4.4103160" lon="-76.1551620">
        <ele>1001.2</ele>
        <time>2022-08-14T17:49:19Z</time>
      </trkpt>
      <trkpt lat="4.4103270" lon="-76.1551610">
        <ele>1001.2</ele>
        <time>2022-08-14T17:49:24Z</time>
      </trkpt>
      <trkpt lat="4.4103270" lon="-76.1551610">
        <ele>1000.8</ele>
        <time>2022-08-14T17:49:44Z</time>
      </trkpt>
      <trkpt lat="4.4103270" lon="-76.1551610">
        <ele>1001.0</ele>
        <time>2022-08-14T17:50:02Z</time>
      </trkpt>
      <trkpt lat="4.4103270" lon="-76.1551610">
        <ele>1001.0</ele>
        <time>2022-08-14T17:50:04Z</time>
      </trkpt>
      <trkpt lat="4.4103270" lon="-76.1551610">
        <ele>1001.0</ele>
        <time>2022-08-14T17:50:19Z</time>
      </trkpt>
      <trkpt lat="4.4103270" lon="-76.1551610">
        <ele>1001.0</ele>
        <time>2022-08-14T17:50:24Z</time>
      </trkpt>
      <trkpt lat="4.4103270" lon="-76.1551610">
        <ele>1001.0</ele>
        <time>2022-08-14T17:50:30Z</time>
      </trkpt>
      <trkpt lat="4.4103370" lon="-76.1551690">
        <ele>1001.2</ele>
        <time>2022-08-14T17:50:52Z</time>
      </trkpt>
      <trkpt lat="4.4103580" lon="-76.1551850">
        <ele>1001.2</ele>
        <time>2022-08-14T17:50:54Z</time>
      </trkpt>
      <trkpt lat="4.4103750" lon="-76.1551950">
        <ele>1001.2</ele>
        <time>2022-08-14T17:50:55Z</time>
      </trkpt>
      <trkpt lat="4.4104640" lon="-76.1552740">
        <ele>1001.2</ele>
        <time>2022-08-14T17:51:00Z</time>
      </trkpt>
      <trkpt lat="4.4105500" lon="-76.1553270">
        <ele>1001.6</ele>
        <time>2022-08-14T17:51:06Z</time>
      </trkpt>
      <trkpt lat="4.4106280" lon="-76.1554380">
        <ele>1002.0</ele>
        <time>2022-08-14T17:51:13Z</time>
      </trkpt>
      <trkpt lat="4.4106950" lon="-76.1555590">
        <ele>1002.0</ele>
        <time>2022-08-14T17:51:20Z</time>
      </trkpt>
      <trkpt lat="4.4107570" lon="-76.1556350">
        <ele>1002.2</ele>
        <time>2022-08-14T17:51:24Z</time>
      </trkpt>
      <trkpt lat="4.4107660" lon="-76.1556580">
        <ele>1002.4</ele>
        <time>2022-08-14T17:51:25Z</time>
      </trkpt>
      <trkpt lat="4.4107730" lon="-76.1556800">
        <ele>1002.4</ele>
        <time>2022-08-14T17:51:26Z</time>
      </trkpt>
      <trkpt lat="4.4108460" lon="-76.1558040">
        <ele>1002.4</ele>
        <time>2022-08-14T17:51:33Z</time>
      </trkpt>
      <trkpt lat="4.4109420" lon="-76.1559130">
        <ele>1002.8</ele>
        <time>2022-08-14T17:51:38Z</time>
      </trkpt>
      <trkpt lat="4.4109800" lon="-76.1559540">
        <ele>1002.8</ele>
        <time>2022-08-14T17:51:40Z</time>
      </trkpt>
      <trkpt lat="4.4110380" lon="-76.1560360">
        <ele>1003.0</ele>
        <time>2022-08-14T17:51:43Z</time>
      </trkpt>
      <trkpt lat="4.4111530" lon="-76.1561870">
        <ele>1003.2</ele>
        <time>2022-08-14T17:51:49Z</time>
      </trkpt>
      <trkpt lat="4.4111950" lon="-76.1562350">
        <ele>1003.4</ele>
        <time>2022-08-14T17:51:51Z</time>
      </trkpt>
      <trkpt lat="4.4113320" lon="-76.1564330">
        <ele>1003.8</ele>
        <time>2022-08-14T17:51:58Z</time>
      </trkpt>
      <trkpt lat="4.4113820" lon="-76.1565220">
        <ele>1003.8</ele>
        <time>2022-08-14T17:52:01Z</time>
      </trkpt>
      <trkpt lat="4.4114170" lon="-76.1565780">
        <ele>1004.2</ele>
        <time>2022-08-14T17:52:03Z</time>
      </trkpt>
      <trkpt lat="4.4114410" lon="-76.1566150">
        <ele>1004.4</ele>
        <time>2022-08-14T17:52:05Z</time>
      </trkpt>
      <trkpt lat="4.4115340" lon="-76.1567130">
        <ele>1005.2</ele>
        <time>2022-08-14T17:52:11Z</time>
      </trkpt>
      <trkpt lat="4.4116060" lon="-76.1568700">
        <ele>1005.6</ele>
        <time>2022-08-14T17:52:17Z</time>
      </trkpt>
      <trkpt lat="4.4116170" lon="-76.1568950">
        <ele>1005.8</ele>
        <time>2022-08-14T17:52:18Z</time>
      </trkpt>
      <trkpt lat="4.4117160" lon="-76.1570990">
        <ele>1006.0</ele>
        <time>2022-08-14T17:52:26Z</time>
      </trkpt>
      <trkpt lat="4.4117580" lon="-76.1572910">
        <ele>1006.4</ele>
        <time>2022-08-14T17:52:33Z</time>
      </trkpt>
      <trkpt lat="4.4117660" lon="-76.1573830">
        <ele>1006.8</ele>
        <time>2022-08-14T17:52:36Z</time>
      </trkpt>
      <trkpt lat="4.4117720" lon="-76.1575700">
        <ele>1007.4</ele>
        <time>2022-08-14T17:52:42Z</time>
      </trkpt>
      <trkpt lat="4.4118000" lon="-76.1577980">
        <ele>1008.0</ele>
        <time>2022-08-14T17:52:49Z</time>
      </trkpt>
      <trkpt lat="4.4118030" lon="-76.1578390">
        <ele>1008.2</ele>
        <time>2022-08-14T17:52:50Z</time>
      </trkpt>
      <trkpt lat="4.4118200" lon="-76.1581710">
        <ele>1008.8</ele>
        <time>2022-08-14T17:53:00Z</time>
      </trkpt>
      <trkpt lat="4.4118240" lon="-76.1582730">
        <ele>1009.0</ele>
        <time>2022-08-14T17:53:03Z</time>
      </trkpt>
      <trkpt lat="4.4118320" lon="-76.1584730">
        <ele>1009.4</ele>
        <time>2022-08-14T17:53:09Z</time>
      </trkpt>
      <trkpt lat="4.4118500" lon="-76.1588090">
        <ele>1010.0</ele>
        <time>2022-08-14T17:53:18Z</time>
      </trkpt>
      <trkpt lat="4.4118560" lon="-76.1589170">
        <ele>1010.0</ele>
        <time>2022-08-14T17:53:21Z</time>
      </trkpt>
      <trkpt lat="4.4118570" lon="-76.1589860">
        <ele>1010.0</ele>
        <time>2022-08-14T17:53:23Z</time>
      </trkpt>
      <trkpt lat="4.4118530" lon="-76.1590540">
        <ele>1010.2</ele>
        <time>2022-08-14T17:53:25Z</time>
      </trkpt>
      <trkpt lat="4.4118610" lon="-76.1593050">
        <ele>1010.4</ele>
        <time>2022-08-14T17:53:33Z</time>
      </trkpt>
      <trkpt lat="4.4118690" lon="-76.1594620">
        <ele>1010.8</ele>
        <time>2022-08-14T17:53:38Z</time>
      </trkpt>
      <trkpt lat="4.4118700" lon="-76.1595210">
        <ele>1011.2</ele>
        <time>2022-08-14T17:53:40Z</time>
      </trkpt>
      <trkpt lat="4.4118750" lon="-76.1597350">
        <ele>1012.0</ele>
        <time>2022-08-14T17:53:47Z</time>
      </trkpt>
      <trkpt lat="4.4118750" lon="-76.1598470">
        <ele>1012.4</ele>
        <time>2022-08-14T17:53:51Z</time>
      </trkpt>
      <trkpt lat="4.4118820" lon="-76.1599310">
        <ele>1012.8</ele>
        <time>2022-08-14T17:53:54Z</time>
      </trkpt>
      <trkpt lat="4.4118970" lon="-76.1600610">
        <ele>1013.4</ele>
        <time>2022-08-14T17:53:59Z</time>
      </trkpt>
      <trkpt lat="4.4119020" lon="-76.1602040">
        <ele>1014.0</ele>
        <time>2022-08-14T17:54:04Z</time>
      </trkpt>
      <trkpt lat="4.4119010" lon="-76.1602850">
        <ele>1014.4</ele>
        <time>2022-08-14T17:54:07Z</time>
      </trkpt>
      <trkpt lat="4.4119110" lon="-76.1604530">
        <ele>1015.2</ele>
        <time>2022-08-14T17:54:13Z</time>
      </trkpt>
      <trkpt lat="4.4119110" lon="-76.1605440">
        <ele>1015.4</ele>
        <time>2022-08-14T17:54:16Z</time>
      </trkpt>
      <trkpt lat="4.4119150" lon="-76.1606910">
        <ele>1016.0</ele>
        <time>2022-08-14T17:54:21Z</time>
      </trkpt>
      <trkpt lat="4.4119160" lon="-76.1609320">
        <ele>1016.6</ele>
        <time>2022-08-14T17:54:29Z</time>
      </trkpt>
      <trkpt lat="4.4119160" lon="-76.1610130">
        <ele>1016.6</ele>
        <time>2022-08-14T17:54:32Z</time>
      </trkpt>
      <trkpt lat="4.4119220" lon="-76.1612230">
        <ele>1017.2</ele>
        <time>2022-08-14T17:54:39Z</time>
      </trkpt>
      <trkpt lat="4.4119200" lon="-76.1613210">
        <ele>1017.8</ele>
        <time>2022-08-14T17:54:43Z</time>
      </trkpt>
      <trkpt lat="4.4119120" lon="-76.1614180">
        <ele>1018.2</ele>
        <time>2022-08-14T17:54:47Z</time>
      </trkpt>
      <trkpt lat="4.4119120" lon="-76.1614920">
        <ele>1018.8</ele>
        <time>2022-08-14T17:54:50Z</time>
      </trkpt>
      <trkpt lat="4.4119190" lon="-76.1616090">
        <ele>1019.2</ele>
        <time>2022-08-14T17:54:55Z</time>
      </trkpt>
      <trkpt lat="4.4119280" lon="-76.1617010">
        <ele>1019.8</ele>
        <time>2022-08-14T17:54:59Z</time>
      </trkpt>
      <trkpt lat="4.4119370" lon="-76.1617860">
        <ele>1020.6</ele>
        <time>2022-08-14T17:55:03Z</time>
      </trkpt>
      <trkpt lat="4.4119440" lon="-76.1618690">
        <ele>1021.0</ele>
        <time>2022-08-14T17:55:07Z</time>
      </trkpt>
      <trkpt lat="4.4119450" lon="-76.1619100">
        <ele>1021.4</ele>
        <time>2022-08-14T17:55:09Z</time>
      </trkpt>
      <trkpt lat="4.4119610" lon="-76.1620040">
        <ele>1022.4</ele>
        <time>2022-08-14T17:55:15Z</time>
      </trkpt>
      <trkpt lat="4.4119630" lon="-76.1620200">
        <ele>1022.6</ele>
        <time>2022-08-14T17:55:16Z</time>
      </trkpt>
      <trkpt lat="4.4119730" lon="-76.1620940">
        <ele>1023.4</ele>
        <time>2022-08-14T17:55:21Z</time>
      </trkpt>
      <trkpt lat="4.4119900" lon="-76.1621500">
        <ele>1024.0</ele>
        <time>2022-08-14T17:55:25Z</time>
      </trkpt>
      <trkpt lat="4.4120010" lon="-76.1621870">
        <ele>1024.4</ele>
        <time>2022-08-14T17:55:28Z</time>
      </trkpt>
      <trkpt lat="4.4120300" lon="-76.1622770">
        <ele>1025.4</ele>
        <time>2022-08-14T17:55:34Z</time>
      </trkpt>
      <trkpt lat="4.4120380" lon="-76.1622890">
        <ele>1025.6</ele>
        <time>2022-08-14T17:55:35Z</time>
      </trkpt>
      <trkpt lat="4.4120830" lon="-76.1623830">
        <ele>1026.8</ele>
        <time>2022-08-14T17:55:42Z</time>
      </trkpt>
      <trkpt lat="4.4121040" lon="-76.1624220">
        <ele>1027.6</ele>
        <time>2022-08-14T17:55:45Z</time>
      </trkpt>
      <trkpt lat="4.4121210" lon="-76.1624620">
        <ele>1028.2</ele>
        <time>2022-08-14T17:55:48Z</time>
      </trkpt>
      <trkpt lat="4.4121530" lon="-76.1625450">
        <ele>1029.4</ele>
        <time>2022-08-14T17:55:54Z</time>
      </trkpt>
      <trkpt lat="4.4121620" lon="-76.1625750">
        <ele>1029.6</ele>
        <time>2022-08-14T17:55:56Z</time>
      </trkpt>
      <trkpt lat="4.4121810" lon="-76.1626270">
        <ele>1030.4</ele>
        <time>2022-08-14T17:56:00Z</time>
      </trkpt>
      <trkpt lat="4.4122030" lon="-76.1627130">
        <ele>1031.4</ele>
        <time>2022-08-14T17:56:06Z</time>
      </trkpt>
      <trkpt lat="4.4122080" lon="-76.1627270">
        <ele>1031.6</ele>
        <time>2022-08-14T17:56:07Z</time>
      </trkpt>
      <trkpt lat="4.4122250" lon="-76.1628020">
        <ele>1032.8</ele>
        <time>2022-08-14T17:56:12Z</time>
      </trkpt>
      <trkpt lat="4.4122290" lon="-76.1628300">
        <ele>1033.2</ele>
        <time>2022-08-14T17:56:14Z</time>
      </trkpt>
      <trkpt lat="4.4122310" lon="-76.1628870">
        <ele>1033.8</ele>
        <time>2022-08-14T17:56:18Z</time>
      </trkpt>
      <trkpt lat="4.4122470" lon="-76.1629570">
        <ele>1034.6</ele>
        <time>2022-08-14T17:56:23Z</time>
      </trkpt>
      <trkpt lat="4.4122480" lon="-76.1629710">
        <ele>1034.8</ele>
        <time>2022-08-14T17:56:24Z</time>
      </trkpt>
      <trkpt lat="4.4122490" lon="-76.1630610">
        <ele>1036.0</ele>
        <time>2022-08-14T17:56:30Z</time>
      </trkpt>
      <trkpt lat="4.4122490" lon="-76.1631470">
        <ele>1036.6</ele>
        <time>2022-08-14T17:56:36Z</time>
      </trkpt>
      <trkpt lat="4.4122540" lon="-76.1631930">
        <ele>1037.2</ele>
        <time>2022-08-14T17:56:39Z</time>
      </trkpt>
      <trkpt lat="4.4122770" lon="-76.1632850">
        <ele>1038.2</ele>
        <time>2022-08-14T17:56:45Z</time>
      </trkpt>
      <trkpt lat="4.4122800" lon="-76.1633010">
        <ele>1038.6</ele>
        <time>2022-08-14T17:56:46Z</time>
      </trkpt>
      <trkpt lat="4.4122850" lon="-76.1633720">
        <ele>1039.6</ele>
        <time>2022-08-14T17:56:51Z</time>
      </trkpt>
      <trkpt lat="4.4122800" lon="-76.1634050">
        <ele>1039.8</ele>
        <time>2022-08-14T17:56:53Z</time>
      </trkpt>
      <trkpt lat="4.4122910" lon="-76.1634880">
        <ele>1040.4</ele>
        <time>2022-08-14T17:56:59Z</time>
      </trkpt>
      <trkpt lat="4.4122910" lon="-76.1635010">
        <ele>1040.6</ele>
        <time>2022-08-14T17:57:00Z</time>
      </trkpt>
      <trkpt lat="4.4122950" lon="-76.1635160">
        <ele>1040.8</ele>
        <time>2022-08-14T17:57:01Z</time>
      </trkpt>
      <trkpt lat="4.4123050" lon="-76.1636150">
        <ele>1041.6</ele>
        <time>2022-08-14T17:57:07Z</time>
      </trkpt>
      <trkpt lat="4.4122990" lon="-76.1636440">
        <ele>1041.8</ele>
        <time>2022-08-14T17:57:09Z</time>
      </trkpt>
      <trkpt lat="4.4122970" lon="-76.1636970">
        <ele>1042.6</ele>
        <time>2022-08-14T17:57:13Z</time>
      </trkpt>
      <trkpt lat="4.4123010" lon="-76.1637100">
        <ele>1042.8</ele>
        <time>2022-08-14T17:57:14Z</time>
      </trkpt>
      <trkpt lat="4.4123110" lon="-76.1637620">
        <ele>1043.4</ele>
        <time>2022-08-14T17:57:18Z</time>
      </trkpt>
      <trkpt lat="4.4123170" lon="-76.1637850">
        <ele>1044.0</ele>
        <time>2022-08-14T17:57:20Z</time>
      </trkpt>
      <trkpt lat="4.4123090" lon="-76.1638820">
        <ele>1045.2</ele>
        <time>2022-08-14T17:57:26Z</time>
      </trkpt>
      <trkpt lat="4.4123060" lon="-76.1638960">
        <ele>1045.2</ele>
        <time>2022-08-14T17:57:27Z</time>
      </trkpt>
      <trkpt lat="4.4123150" lon="-76.1639710">
        <ele>1046.2</ele>
        <time>2022-08-14T17:57:33Z</time>
      </trkpt>
      <trkpt lat="4.4123230" lon="-76.1640380">
        <ele>1047.2</ele>
        <time>2022-08-14T17:57:38Z</time>
      </trkpt>
      <trkpt lat="4.4123270" lon="-76.1640480">
        <ele>1047.4</ele>
        <time>2022-08-14T17:57:39Z</time>
      </trkpt>
      <trkpt lat="4.4123410" lon="-76.1641080">
        <ele>1048.4</ele>
        <time>2022-08-14T17:57:44Z</time>
      </trkpt>
      <trkpt lat="4.4123420" lon="-76.1641230">
        <ele>1048.6</ele>
        <time>2022-08-14T17:57:45Z</time>
      </trkpt>
      <trkpt lat="4.4123390" lon="-76.1641350">
        <ele>1048.8</ele>
        <time>2022-08-14T17:57:46Z</time>
      </trkpt>
      <trkpt lat="4.4123310" lon="-76.1641600">
        <ele>1049.0</ele>
        <time>2022-08-14T17:57:48Z</time>
      </trkpt>
      <trkpt lat="4.4123310" lon="-76.1641720">
        <ele>1049.2</ele>
        <time>2022-08-14T17:57:49Z</time>
      </trkpt>
      <trkpt lat="4.4123320" lon="-76.1641840">
        <ele>1049.6</ele>
        <time>2022-08-14T17:57:50Z</time>
      </trkpt>
      <trkpt lat="4.4123340" lon="-76.1642110">
        <ele>1049.8</ele>
        <time>2022-08-14T17:57:52Z</time>
      </trkpt>
      <trkpt lat="4.4123380" lon="-76.1642480">
        <ele>1050.2</ele>
        <time>2022-08-14T17:57:55Z</time>
      </trkpt>
      <trkpt lat="4.4123340" lon="-76.1642680">
        <ele>1050.8</ele>
        <time>2022-08-14T17:57:57Z</time>
      </trkpt>
      <trkpt lat="4.4123410" lon="-76.1643020">
        <ele>1051.6</ele>
        <time>2022-08-14T17:58:00Z</time>
      </trkpt>
      <trkpt lat="4.4123420" lon="-76.1643140">
        <ele>1051.8</ele>
        <time>2022-08-14T17:58:01Z</time>
      </trkpt>
      <trkpt lat="4.4123410" lon="-76.1643290">
        <ele>1052.0</ele>
        <time>2022-08-14T17:58:02Z</time>
      </trkpt>
      <trkpt lat="4.4123550" lon="-76.1644150">
        <ele>1053.0</ele>
        <time>2022-08-14T17:58:09Z</time>
      </trkpt>
      <trkpt lat="4.4123590" lon="-76.1644300">
        <ele>1053.4</ele>
        <time>2022-08-14T17:58:10Z</time>
      </trkpt>
      <trkpt lat="4.4124020" lon="-76.1645040">
        <ele>1054.2</ele>
        <time>2022-08-14T17:58:15Z</time>
      </trkpt>
      <trkpt lat="4.4124440" lon="-76.1645560">
        <ele>1055.0</ele>
        <time>2022-08-14T17:58:19Z</time>
      </trkpt>
      <trkpt lat="4.4124620" lon="-76.1645810">
        <ele>1055.6</ele>
        <time>2022-08-14T17:58:21Z</time>
      </trkpt>
      <trkpt lat="4.4125430" lon="-76.1646590">
        <ele>1056.6</ele>
        <time>2022-08-14T17:58:28Z</time>
      </trkpt>
      <trkpt lat="4.4126240" lon="-76.1647550">
        <ele>1057.6</ele>
        <time>2022-08-14T17:58:36Z</time>
      </trkpt>
      <trkpt lat="4.4126920" lon="-76.1648250">
        <ele>1058.2</ele>
        <time>2022-08-14T17:58:42Z</time>
      </trkpt>
      <trkpt lat="4.4127180" lon="-76.1648610">
        <ele>1058.8</ele>
        <time>2022-08-14T17:58:45Z</time>
      </trkpt>
      <trkpt lat="4.4127620" lon="-76.1649220">
        <ele>1059.2</ele>
        <time>2022-08-14T17:58:50Z</time>
      </trkpt>
      <trkpt lat="4.4127980" lon="-76.1649680">
        <ele>1059.8</ele>
        <time>2022-08-14T17:58:54Z</time>
      </trkpt>
      <trkpt lat="4.4128490" lon="-76.1650220">
        <ele>1060.6</ele>
        <time>2022-08-14T17:58:59Z</time>
      </trkpt>
      <trkpt lat="4.4128580" lon="-76.1650340">
        <ele>1060.8</ele>
        <time>2022-08-14T17:59:00Z</time>
      </trkpt>
      <trkpt lat="4.4129360" lon="-76.1651080">
        <ele>1061.6</ele>
        <time>2022-08-14T17:59:07Z</time>
      </trkpt>
      <trkpt lat="4.4129490" lon="-76.1651170">
        <ele>1061.8</ele>
        <time>2022-08-14T17:59:08Z</time>
      </trkpt>
      <trkpt lat="4.4130510" lon="-76.1651830">
        <ele>1063.2</ele>
        <time>2022-08-14T17:59:16Z</time>
      </trkpt>
      <trkpt lat="4.4130930" lon="-76.1652030">
        <ele>1063.4</ele>
        <time>2022-08-14T17:59:19Z</time>
      </trkpt>
      <trkpt lat="4.4131560" lon="-76.1652340">
        <ele>1064.2</ele>
        <time>2022-08-14T17:59:24Z</time>
      </trkpt>
      <trkpt lat="4.4132300" lon="-76.1652630">
        <ele>1065.0</ele>
        <time>2022-08-14T17:59:29Z</time>
      </trkpt>
      <trkpt lat="4.4132740" lon="-76.1652730">
        <ele>1065.4</ele>
        <time>2022-08-14T17:59:32Z</time>
      </trkpt>
      <trkpt lat="4.4133360" lon="-76.1652910">
        <ele>1066.0</ele>
        <time>2022-08-14T17:59:36Z</time>
      </trkpt>
      <trkpt lat="4.4133520" lon="-76.1652960">
        <ele>1066.2</ele>
        <time>2022-08-14T17:59:37Z</time>
      </trkpt>
      <trkpt lat="4.4133950" lon="-76.1653090">
        <ele>1066.6</ele>
        <time>2022-08-14T17:59:40Z</time>
      </trkpt>
      <trkpt lat="4.4134970" lon="-76.1653510">
        <ele>1067.6</ele>
        <time>2022-08-14T17:59:47Z</time>
      </trkpt>
      <trkpt lat="4.4135740" lon="-76.1653960">
        <ele>1068.6</ele>
        <time>2022-08-14T17:59:54Z</time>
      </trkpt>
      <trkpt lat="4.4135860" lon="-76.1654020">
        <ele>1068.8</ele>
        <time>2022-08-14T17:59:55Z</time>
      </trkpt>
      <trkpt lat="4.4136810" lon="-76.1654770">
        <ele>1069.8</ele>
        <time>2022-08-14T18:00:03Z</time>
      </trkpt>
      <trkpt lat="4.4137540" lon="-76.1655560">
        <ele>1071.0</ele>
        <time>2022-08-14T18:00:10Z</time>
      </trkpt>
      <trkpt lat="4.4137890" lon="-76.1655930">
        <ele>1071.4</ele>
        <time>2022-08-14T18:00:13Z</time>
      </trkpt>
      <trkpt lat="4.4138330" lon="-76.1656370">
        <ele>1072.0</ele>
        <time>2022-08-14T18:00:17Z</time>
      </trkpt>
      <trkpt lat="4.4138680" lon="-76.1656660">
        <ele>1072.6</ele>
        <time>2022-08-14T18:00:20Z</time>
      </trkpt>
      <trkpt lat="4.4139100" lon="-76.1657140">
        <ele>1073.2</ele>
        <time>2022-08-14T18:00:24Z</time>
      </trkpt>
      <trkpt lat="4.4139570" lon="-76.1657950">
        <ele>1074.4</ele>
        <time>2022-08-14T18:00:30Z</time>
      </trkpt>
      <trkpt lat="4.4139670" lon="-76.1658230">
        <ele>1074.8</ele>
        <time>2022-08-14T18:00:32Z</time>
      </trkpt>
      <trkpt lat="4.4139850" lon="-76.1658840">
        <ele>1075.6</ele>
        <time>2022-08-14T18:00:36Z</time>
      </trkpt>
      <trkpt lat="4.4140180" lon="-76.1659520">
        <ele>1076.4</ele>
        <time>2022-08-14T18:00:41Z</time>
      </trkpt>
      <trkpt lat="4.4140270" lon="-76.1659790">
        <ele>1076.8</ele>
        <time>2022-08-14T18:00:43Z</time>
      </trkpt>
      <trkpt lat="4.4140470" lon="-76.1660590">
        <ele>1077.6</ele>
        <time>2022-08-14T18:00:48Z</time>
      </trkpt>
      <trkpt lat="4.4140480" lon="-76.1660700">
        <ele>1077.8</ele>
        <time>2022-08-14T18:00:49Z</time>
      </trkpt>
      <trkpt lat="4.4140640" lon="-76.1661700">
        <ele>1078.8</ele>
        <time>2022-08-14T18:00:56Z</time>
      </trkpt>
      <trkpt lat="4.4140710" lon="-76.1662020">
        <ele>1079.2</ele>
        <time>2022-08-14T18:00:58Z</time>
      </trkpt>
      <trkpt lat="4.4140750" lon="-76.1662690">
        <ele>1080.0</ele>
        <time>2022-08-14T18:01:02Z</time>
      </trkpt>
      <trkpt lat="4.4140920" lon="-76.1663300">
        <ele>1080.4</ele>
        <time>2022-08-14T18:01:06Z</time>
      </trkpt>
      <trkpt lat="4.4140930" lon="-76.1663910">
        <ele>1081.0</ele>
        <time>2022-08-14T18:01:10Z</time>
      </trkpt>
      <trkpt lat="4.4140970" lon="-76.1664260">
        <ele>1081.2</ele>
        <time>2022-08-14T18:01:12Z</time>
      </trkpt>
      <trkpt lat="4.4141110" lon="-76.1665120">
        <ele>1082.2</ele>
        <time>2022-08-14T18:01:17Z</time>
      </trkpt>
      <trkpt lat="4.4141120" lon="-76.1665640">
        <ele>1083.0</ele>
        <time>2022-08-14T18:01:21Z</time>
      </trkpt>
      <trkpt lat="4.4141120" lon="-76.1665800">
        <ele>1083.2</ele>
        <time>2022-08-14T18:01:22Z</time>
      </trkpt>
      <trkpt lat="4.4141020" lon="-76.1666540">
        <ele>1084.4</ele>
        <time>2022-08-14T18:01:27Z</time>
      </trkpt>
      <trkpt lat="4.4140990" lon="-76.1667190">
        <ele>1085.2</ele>
        <time>2022-08-14T18:01:31Z</time>
      </trkpt>
      <trkpt lat="4.4141010" lon="-76.1667370">
        <ele>1085.4</ele>
        <time>2022-08-14T18:01:32Z</time>
      </trkpt>
      <trkpt lat="4.4141500" lon="-76.1668990">
        <ele>1086.6</ele>
        <time>2022-08-14T18:01:40Z</time>
      </trkpt>
      <trkpt lat="4.4142780" lon="-76.1670750">
        <ele>1087.4</ele>
        <time>2022-08-14T18:01:49Z</time>
      </trkpt>
      <trkpt lat="4.4142930" lon="-76.1670910">
        <ele>1087.6</ele>
        <time>2022-08-14T18:01:50Z</time>
      </trkpt>
      <trkpt lat="4.4144230" lon="-76.1672350">
        <ele>1088.6</ele>
        <time>2022-08-14T18:01:59Z</time>
      </trkpt>
      <trkpt lat="4.4144370" lon="-76.1672520">
        <ele>1088.8</ele>
        <time>2022-08-14T18:02:00Z</time>
      </trkpt>
      <trkpt lat="4.4145330" lon="-76.1674150">
        <ele>1089.8</ele>
        <time>2022-08-14T18:02:08Z</time>
      </trkpt>
      <trkpt lat="4.4145420" lon="-76.1674370">
        <ele>1090.0</ele>
        <time>2022-08-14T18:02:09Z</time>
      </trkpt>
      <trkpt lat="4.4145650" lon="-76.1676090">
        <ele>1090.8</ele>
        <time>2022-08-14T18:02:16Z</time>
      </trkpt>
      <trkpt lat="4.4145650" lon="-76.1676330">
        <ele>1091.0</ele>
        <time>2022-08-14T18:02:17Z</time>
      </trkpt>
      <trkpt lat="4.4145470" lon="-76.1678170">
        <ele>1091.4</ele>
        <time>2022-08-14T18:02:24Z</time>
      </trkpt>
      <trkpt lat="4.4145180" lon="-76.1679440">
        <ele>1092.0</ele>
        <time>2022-08-14T18:02:29Z</time>
      </trkpt>
      <trkpt lat="4.4145130" lon="-76.1680630">
        <ele>1092.4</ele>
        <time>2022-08-14T18:02:34Z</time>
      </trkpt>
      <trkpt lat="4.4144970" lon="-76.1681480">
        <ele>1093.0</ele>
        <time>2022-08-14T18:02:38Z</time>
      </trkpt>
      <trkpt lat="4.4144990" lon="-76.1682030">
        <ele>1093.4</ele>
        <time>2022-08-14T18:02:41Z</time>
      </trkpt>
      <trkpt lat="4.4145060" lon="-76.1682790">
        <ele>1094.2</ele>
        <time>2022-08-14T18:02:45Z</time>
      </trkpt>
      <trkpt lat="4.4145250" lon="-76.1683730">
        <ele>1095.0</ele>
        <time>2022-08-14T18:02:50Z</time>
      </trkpt>
      <trkpt lat="4.4145280" lon="-76.1683880">
        <ele>1095.2</ele>
        <time>2022-08-14T18:02:51Z</time>
      </trkpt>
      <trkpt lat="4.4145610" lon="-76.1684630">
        <ele>1096.0</ele>
        <time>2022-08-14T18:02:56Z</time>
      </trkpt>
      <trkpt lat="4.4145740" lon="-76.1684760">
        <ele>1096.2</ele>
        <time>2022-08-14T18:02:57Z</time>
      </trkpt>
      <trkpt lat="4.4146050" lon="-76.1685030">
        <ele>1096.4</ele>
        <time>2022-08-14T18:02:59Z</time>
      </trkpt>
      <trkpt lat="4.4147000" lon="-76.1685690">
        <ele>1097.4</ele>
        <time>2022-08-14T18:03:05Z</time>
      </trkpt>
      <trkpt lat="4.4147120" lon="-76.1685790">
        <ele>1097.6</ele>
        <time>2022-08-14T18:03:06Z</time>
      </trkpt>
      <trkpt lat="4.4148250" lon="-76.1686420">
        <ele>1098.6</ele>
        <time>2022-08-14T18:03:13Z</time>
      </trkpt>
      <trkpt lat="4.4148750" lon="-76.1686740">
        <ele>1099.0</ele>
        <time>2022-08-14T18:03:16Z</time>
      </trkpt>
      <trkpt lat="4.4149130" lon="-76.1687230">
        <ele>1099.6</ele>
        <time>2022-08-14T18:03:19Z</time>
      </trkpt>
      <trkpt lat="4.4149520" lon="-76.1688230">
        <ele>1100.6</ele>
        <time>2022-08-14T18:03:24Z</time>
      </trkpt>
      <trkpt lat="4.4149660" lon="-76.1688790">
        <ele>1100.8</ele>
        <time>2022-08-14T18:03:27Z</time>
      </trkpt>
      <trkpt lat="4.4150020" lon="-76.1689810">
        <ele>1101.4</ele>
        <time>2022-08-14T18:03:33Z</time>
      </trkpt>
      <trkpt lat="4.4150160" lon="-76.1690260">
        <ele>1102.0</ele>
        <time>2022-08-14T18:03:36Z</time>
      </trkpt>
      <trkpt lat="4.4150590" lon="-76.1691000">
        <ele>1102.8</ele>
        <time>2022-08-14T18:03:41Z</time>
      </trkpt>
      <trkpt lat="4.4150680" lon="-76.1691140">
        <ele>1103.0</ele>
        <time>2022-08-14T18:03:42Z</time>
      </trkpt>
      <trkpt lat="4.4151440" lon="-76.1692130">
        <ele>1104.0</ele>
        <time>2022-08-14T18:03:49Z</time>
      </trkpt>
      <trkpt lat="4.4151650" lon="-76.1692370">
        <ele>1104.4</ele>
        <time>2022-08-14T18:03:51Z</time>
      </trkpt>
      <trkpt lat="4.4152010" lon="-76.1693010">
        <ele>1105.2</ele>
        <time>2022-08-14T18:03:56Z</time>
      </trkpt>
      <trkpt lat="4.4152330" lon="-76.1693360">
        <ele>1105.8</ele>
        <time>2022-08-14T18:03:59Z</time>
      </trkpt>
      <trkpt lat="4.4152600" lon="-76.1693820">
        <ele>1106.2</ele>
        <time>2022-08-14T18:04:02Z</time>
      </trkpt>
      <trkpt lat="4.4153070" lon="-76.1694530">
        <ele>1107.0</ele>
        <time>2022-08-14T18:04:07Z</time>
      </trkpt>
      <trkpt lat="4.4153150" lon="-76.1694690">
        <ele>1107.2</ele>
        <time>2022-08-14T18:04:08Z</time>
      </trkpt>
      <trkpt lat="4.4153520" lon="-76.1695380">
        <ele>1107.8</ele>
        <time>2022-08-14T18:04:12Z</time>
      </trkpt>
      <trkpt lat="4.4153630" lon="-76.1695720">
        <ele>1108.2</ele>
        <time>2022-08-14T18:04:14Z</time>
      </trkpt>
      <trkpt lat="4.4153680" lon="-76.1695920">
        <ele>1108.2</ele>
        <time>2022-08-14T18:04:15Z</time>
      </trkpt>
      <trkpt lat="4.4154100" lon="-76.1697500">
        <ele>1109.0</ele>
        <time>2022-08-14T18:04:23Z</time>
      </trkpt>
      <trkpt lat="4.4154230" lon="-76.1698650">
        <ele>1109.4</ele>
        <time>2022-08-14T18:04:29Z</time>
      </trkpt>
      <trkpt lat="4.4154110" lon="-76.1699230">
        <ele>1109.6</ele>
        <time>2022-08-14T18:04:32Z</time>
      </trkpt>
      <trkpt lat="4.4154110" lon="-76.1700120">
        <ele>1109.8</ele>
        <time>2022-08-14T18:04:37Z</time>
      </trkpt>
      <trkpt lat="4.4154080" lon="-76.1700320">
        <ele>1110.0</ele>
        <time>2022-08-14T18:04:38Z</time>
      </trkpt>
      <trkpt lat="4.4154090" lon="-76.1700510">
        <ele>1110.0</ele>
        <time>2022-08-14T18:04:39Z</time>
      </trkpt>
      <trkpt lat="4.4154090" lon="-76.1701280">
        <ele>1110.4</ele>
        <time>2022-08-14T18:04:43Z</time>
      </trkpt>
      <trkpt lat="4.4154070" lon="-76.1702190">
        <ele>1110.8</ele>
        <time>2022-08-14T18:04:48Z</time>
      </trkpt>
      <trkpt lat="4.4154060" lon="-76.1703250">
        <ele>1111.6</ele>
        <time>2022-08-14T18:04:54Z</time>
      </trkpt>
      <trkpt lat="4.4154040" lon="-76.1703520">
        <ele>1111.8</ele>
        <time>2022-08-14T18:04:56Z</time>
      </trkpt>
      <trkpt lat="4.4154130" lon="-76.1704480">
        <ele>1112.8</ele>
        <time>2022-08-14T18:05:02Z</time>
      </trkpt>
      <trkpt lat="4.4154160" lon="-76.1704940">
        <ele>1113.2</ele>
        <time>2022-08-14T18:05:05Z</time>
      </trkpt>
      <trkpt lat="4.4154150" lon="-76.1705390">
        <ele>1114.0</ele>
        <time>2022-08-14T18:05:08Z</time>
      </trkpt>
      <trkpt lat="4.4154060" lon="-76.1705890">
        <ele>1114.8</ele>
        <time>2022-08-14T18:05:12Z</time>
      </trkpt>
      <trkpt lat="4.4154050" lon="-76.1706070">
        <ele>1115.0</ele>
        <time>2022-08-14T18:05:13Z</time>
      </trkpt>
      <trkpt lat="4.4153840" lon="-76.1706980">
        <ele>1116.2</ele>
        <time>2022-08-14T18:05:19Z</time>
      </trkpt>
      <trkpt lat="4.4153650" lon="-76.1707380">
        <ele>1116.8</ele>
        <time>2022-08-14T18:05:22Z</time>
      </trkpt>
      <trkpt lat="4.4153460" lon="-76.1707850">
        <ele>1117.2</ele>
        <time>2022-08-14T18:05:25Z</time>
      </trkpt>
      <trkpt lat="4.4153150" lon="-76.1708490">
        <ele>1118.2</ele>
        <time>2022-08-14T18:05:30Z</time>
      </trkpt>
      <trkpt lat="4.4153040" lon="-76.1708780">
        <ele>1118.4</ele>
        <time>2022-08-14T18:05:32Z</time>
      </trkpt>
      <trkpt lat="4.4152780" lon="-76.1709390">
        <ele>1119.0</ele>
        <time>2022-08-14T18:05:37Z</time>
      </trkpt>
      <trkpt lat="4.4152640" lon="-76.1709820">
        <ele>1119.6</ele>
        <time>2022-08-14T18:05:40Z</time>
      </trkpt>
      <trkpt lat="4.4152420" lon="-76.1710650">
        <ele>1120.6</ele>
        <time>2022-08-14T18:05:46Z</time>
      </trkpt>
      <trkpt lat="4.4152400" lon="-76.1710800">
        <ele>1120.6</ele>
        <time>2022-08-14T18:05:47Z</time>
      </trkpt>
      <trkpt lat="4.4152240" lon="-76.1711820">
        <ele>1122.0</ele>
        <time>2022-08-14T18:05:54Z</time>
      </trkpt>
      <trkpt lat="4.4152240" lon="-76.1711930">
        <ele>1122.2</ele>
        <time>2022-08-14T18:05:55Z</time>
      </trkpt>
      <trkpt lat="4.4152270" lon="-76.1712830">
        <ele>1123.0</ele>
        <time>2022-08-14T18:06:01Z</time>
      </trkpt>
      <trkpt lat="4.4152270" lon="-76.1712990">
        <ele>1123.2</ele>
        <time>2022-08-14T18:06:02Z</time>
      </trkpt>
      <trkpt lat="4.4152410" lon="-76.1713800">
        <ele>1124.2</ele>
        <time>2022-08-14T18:06:08Z</time>
      </trkpt>
      <trkpt lat="4.4152560" lon="-76.1714390">
        <ele>1124.8</ele>
        <time>2022-08-14T18:06:12Z</time>
      </trkpt>
      <trkpt lat="4.4152690" lon="-76.1714710">
        <ele>1125.4</ele>
        <time>2022-08-14T18:06:15Z</time>
      </trkpt>
      <trkpt lat="4.4153040" lon="-76.1715260">
        <ele>1126.6</ele>
        <time>2022-08-14T18:06:20Z</time>
      </trkpt>
      <trkpt lat="4.4153090" lon="-76.1715380">
        <ele>1126.8</ele>
        <time>2022-08-14T18:06:21Z</time>
      </trkpt>
      <trkpt lat="4.4153360" lon="-76.1715820">
        <ele>1127.8</ele>
        <time>2022-08-14T18:06:25Z</time>
      </trkpt>
      <trkpt lat="4.4153710" lon="-76.1716280">
        <ele>1128.6</ele>
        <time>2022-08-14T18:06:29Z</time>
      </trkpt>
      <trkpt lat="4.4153910" lon="-76.1716470">
        <ele>1128.8</ele>
        <time>2022-08-14T18:06:31Z</time>
      </trkpt>
      <trkpt lat="4.4154300" lon="-76.1716980">
        <ele>1130.0</ele>
        <time>2022-08-14T18:06:36Z</time>
      </trkpt>
      <trkpt lat="4.4154530" lon="-76.1717320">
        <ele>1130.4</ele>
        <time>2022-08-14T18:06:39Z</time>
      </trkpt>
      <trkpt lat="4.4154780" lon="-76.1717700">
        <ele>1131.0</ele>
        <time>2022-08-14T18:06:42Z</time>
      </trkpt>
      <trkpt lat="4.4155040" lon="-76.1718280">
        <ele>1132.2</ele>
        <time>2022-08-14T18:06:47Z</time>
      </trkpt>
      <trkpt lat="4.4155410" lon="-76.1718970">
        <ele>1133.4</ele>
        <time>2022-08-14T18:06:53Z</time>
      </trkpt>
      <trkpt lat="4.4155470" lon="-76.1719080">
        <ele>1133.6</ele>
        <time>2022-08-14T18:06:54Z</time>
      </trkpt>
      <trkpt lat="4.4155620" lon="-76.1719520">
        <ele>1134.4</ele>
        <time>2022-08-14T18:06:58Z</time>
      </trkpt>
      <trkpt lat="4.4155700" lon="-76.1719880">
        <ele>1135.0</ele>
        <time>2022-08-14T18:07:01Z</time>
      </trkpt>
      <trkpt lat="4.4155770" lon="-76.1720280">
        <ele>1135.6</ele>
        <time>2022-08-14T18:07:04Z</time>
      </trkpt>
      <trkpt lat="4.4155930" lon="-76.1721250">
        <ele>1136.6</ele>
        <time>2022-08-14T18:07:11Z</time>
      </trkpt>
      <trkpt lat="4.4155940" lon="-76.1721400">
        <ele>1136.8</ele>
        <time>2022-08-14T18:07:12Z</time>
      </trkpt>
      <trkpt lat="4.4155930" lon="-76.1722050">
        <ele>1137.6</ele>
        <time>2022-08-14T18:07:17Z</time>
      </trkpt>
      <trkpt lat="4.4155940" lon="-76.1722550">
        <ele>1138.4</ele>
        <time>2022-08-14T18:07:21Z</time>
      </trkpt>
      <trkpt lat="4.4155950" lon="-76.1722690">
        <ele>1138.8</ele>
        <time>2022-08-14T18:07:22Z</time>
      </trkpt>
      <trkpt lat="4.4155780" lon="-76.1723540">
        <ele>1140.0</ele>
        <time>2022-08-14T18:07:28Z</time>
      </trkpt>
      <trkpt lat="4.4155730" lon="-76.1723860">
        <ele>1140.4</ele>
        <time>2022-08-14T18:07:30Z</time>
      </trkpt>
      <trkpt lat="4.4155500" lon="-76.1724410">
        <ele>1141.0</ele>
        <time>2022-08-14T18:07:34Z</time>
      </trkpt>
      <trkpt lat="4.4155290" lon="-76.1725040">
        <ele>1142.2</ele>
        <time>2022-08-14T18:07:39Z</time>
      </trkpt>
      <trkpt lat="4.4155230" lon="-76.1725140">
        <ele>1142.4</ele>
        <time>2022-08-14T18:07:40Z</time>
      </trkpt>
      <trkpt lat="4.4154970" lon="-76.1725790">
        <ele>1143.2</ele>
        <time>2022-08-14T18:07:45Z</time>
      </trkpt>
      <trkpt lat="4.4154900" lon="-76.1726050">
        <ele>1143.6</ele>
        <time>2022-08-14T18:07:47Z</time>
      </trkpt>
      <trkpt lat="4.4154710" lon="-76.1726440">
        <ele>1144.2</ele>
        <time>2022-08-14T18:07:50Z</time>
      </trkpt>
      <trkpt lat="4.4154450" lon="-76.1727320">
        <ele>1145.6</ele>
        <time>2022-08-14T18:07:56Z</time>
      </trkpt>
      <trkpt lat="4.4154330" lon="-76.1727620">
        <ele>1146.0</ele>
        <time>2022-08-14T18:07:58Z</time>
      </trkpt>
      <trkpt lat="4.4154180" lon="-76.1728380">
        <ele>1146.8</ele>
        <time>2022-08-14T18:08:03Z</time>
      </trkpt>
      <trkpt lat="4.4154150" lon="-76.1729110">
        <ele>1147.6</ele>
        <time>2022-08-14T18:08:08Z</time>
      </trkpt>
      <trkpt lat="4.4154140" lon="-76.1729230">
        <ele>1148.0</ele>
        <time>2022-08-14T18:08:09Z</time>
      </trkpt>
      <trkpt lat="4.4154210" lon="-76.1730140">
        <ele>1149.2</ele>
        <time>2022-08-14T18:08:15Z</time>
      </trkpt>
      <trkpt lat="4.4154300" lon="-76.1730440">
        <ele>1149.4</ele>
        <time>2022-08-14T18:08:17Z</time>
      </trkpt>
      <trkpt lat="4.4154530" lon="-76.1731040">
        <ele>1150.2</ele>
        <time>2022-08-14T18:08:22Z</time>
      </trkpt>
      <trkpt lat="4.4154750" lon="-76.1731490">
        <ele>1151.0</ele>
        <time>2022-08-14T18:08:26Z</time>
      </trkpt>
      <trkpt lat="4.4154880" lon="-76.1731890">
        <ele>1151.4</ele>
        <time>2022-08-14T18:08:29Z</time>
      </trkpt>
      <trkpt lat="4.4155090" lon="-76.1732530">
        <ele>1152.6</ele>
        <time>2022-08-14T18:08:34Z</time>
      </trkpt>
      <trkpt lat="4.4155090" lon="-76.1732600">
        <ele>1153.0</ele>
        <time>2022-08-14T18:08:35Z</time>
      </trkpt>
      <trkpt lat="4.4155080" lon="-76.1732710">
        <ele>1153.2</ele>
        <time>2022-08-14T18:08:36Z</time>
      </trkpt>
      <trkpt lat="4.4155110" lon="-76.1733110">
        <ele>1153.8</ele>
        <time>2022-08-14T18:08:39Z</time>
      </trkpt>
      <trkpt lat="4.4155110" lon="-76.1733350">
        <ele>1154.4</ele>
        <time>2022-08-14T18:08:41Z</time>
      </trkpt>
      <trkpt lat="4.4155160" lon="-76.1733770">
        <ele>1155.0</ele>
        <time>2022-08-14T18:08:44Z</time>
      </trkpt>
      <trkpt lat="4.4155080" lon="-76.1734530">
        <ele>1156.0</ele>
        <time>2022-08-14T18:08:49Z</time>
      </trkpt>
      <trkpt lat="4.4155070" lon="-76.1734930">
        <ele>1156.6</ele>
        <time>2022-08-14T18:08:52Z</time>
      </trkpt>
      <trkpt lat="4.4155110" lon="-76.1735400">
        <ele>1157.0</ele>
        <time>2022-08-14T18:08:55Z</time>
      </trkpt>
      <trkpt lat="4.4155100" lon="-76.1736040">
        <ele>1157.6</ele>
        <time>2022-08-14T18:08:59Z</time>
      </trkpt>
      <trkpt lat="4.4155060" lon="-76.1736420">
        <ele>1158.2</ele>
        <time>2022-08-14T18:09:02Z</time>
      </trkpt>
      <trkpt lat="4.4155200" lon="-76.1737000">
        <ele>1159.0</ele>
        <time>2022-08-14T18:09:06Z</time>
      </trkpt>
      <trkpt lat="4.4155250" lon="-76.1737220">
        <ele>1159.4</ele>
        <time>2022-08-14T18:09:08Z</time>
      </trkpt>
      <trkpt lat="4.4155460" lon="-76.1738050">
        <ele>1160.4</ele>
        <time>2022-08-14T18:09:14Z</time>
      </trkpt>
      <trkpt lat="4.4155730" lon="-76.1738580">
        <ele>1161.4</ele>
        <time>2022-08-14T18:09:18Z</time>
      </trkpt>
      <trkpt lat="4.4156250" lon="-76.1739170">
        <ele>1162.4</ele>
        <time>2022-08-14T18:09:23Z</time>
      </trkpt>
      <trkpt lat="4.4156430" lon="-76.1739330">
        <ele>1162.6</ele>
        <time>2022-08-14T18:09:25Z</time>
      </trkpt>
      <trkpt lat="4.4157050" lon="-76.1739710">
        <ele>1163.4</ele>
        <time>2022-08-14T18:09:30Z</time>
      </trkpt>
      <trkpt lat="4.4157340" lon="-76.1739890">
        <ele>1163.8</ele>
        <time>2022-08-14T18:09:32Z</time>
      </trkpt>
      <trkpt lat="4.4158230" lon="-76.1740400">
        <ele>1164.6</ele>
        <time>2022-08-14T18:09:38Z</time>
      </trkpt>
      <trkpt lat="4.4158370" lon="-76.1740470">
        <ele>1164.8</ele>
        <time>2022-08-14T18:09:39Z</time>
      </trkpt>
      <trkpt lat="4.4159000" lon="-76.1741360">
        <ele>1165.8</ele>
        <time>2022-08-14T18:09:45Z</time>
      </trkpt>
      <trkpt lat="4.4159040" lon="-76.1741710">
        <ele>1166.0</ele>
        <time>2022-08-14T18:09:47Z</time>
      </trkpt>
      <trkpt lat="4.4158960" lon="-76.1742300">
        <ele>1166.4</ele>
        <time>2022-08-14T18:09:51Z</time>
      </trkpt>
      <trkpt lat="4.4158580" lon="-76.1742900">
        <ele>1167.0</ele>
        <time>2022-08-14T18:09:55Z</time>
      </trkpt>
      <trkpt lat="4.4158430" lon="-76.1743000">
        <ele>1167.0</ele>
        <time>2022-08-14T18:09:56Z</time>
      </trkpt>
      <trkpt lat="4.4158330" lon="-76.1743120">
        <ele>1167.2</ele>
        <time>2022-08-14T18:09:57Z</time>
      </trkpt>
      <trkpt lat="4.4157700" lon="-76.1744090">
        <ele>1168.0</ele>
        <time>2022-08-14T18:10:04Z</time>
      </trkpt>
      <trkpt lat="4.4157660" lon="-76.1744240">
        <ele>1168.0</ele>
        <time>2022-08-14T18:10:05Z</time>
      </trkpt>
      <trkpt lat="4.4157700" lon="-76.1745290">
        <ele>1169.2</ele>
        <time>2022-08-14T18:10:12Z</time>
      </trkpt>
      <trkpt lat="4.4158220" lon="-76.1746090">
        <ele>1170.2</ele>
        <time>2022-08-14T18:10:18Z</time>
      </trkpt>
      <trkpt lat="4.4159200" lon="-76.1746860">
        <ele>1171.0</ele>
        <time>2022-08-14T18:10:25Z</time>
      </trkpt>
      <trkpt lat="4.4159780" lon="-76.1747190">
        <ele>1171.4</ele>
        <time>2022-08-14T18:10:28Z</time>
      </trkpt>
      <trkpt lat="4.4160130" lon="-76.1747480">
        <ele>1171.6</ele>
        <time>2022-08-14T18:10:30Z</time>
      </trkpt>
      <trkpt lat="4.4161420" lon="-76.1748690">
        <ele>1172.4</ele>
        <time>2022-08-14T18:10:38Z</time>
      </trkpt>
      <trkpt lat="4.4161500" lon="-76.1748810">
        <ele>1172.6</ele>
        <time>2022-08-14T18:10:39Z</time>
      </trkpt>
      <trkpt lat="4.4162640" lon="-76.1750150">
        <ele>1173.2</ele>
        <time>2022-08-14T18:10:47Z</time>
      </trkpt>
      <trkpt lat="4.4162760" lon="-76.1750340">
        <ele>1173.4</ele>
        <time>2022-08-14T18:10:48Z</time>
      </trkpt>
      <trkpt lat="4.4162850" lon="-76.1750480">
        <ele>1173.6</ele>
        <time>2022-08-14T18:10:49Z</time>
      </trkpt>
      <trkpt lat="4.4163060" lon="-76.1751530">
        <ele>1174.2</ele>
        <time>2022-08-14T18:10:54Z</time>
      </trkpt>
      <trkpt lat="4.4162320" lon="-76.1752050">
        <ele>1174.6</ele>
        <time>2022-08-14T18:10:58Z</time>
      </trkpt>
      <trkpt lat="4.4162130" lon="-76.1752110">
        <ele>1174.8</ele>
        <time>2022-08-14T18:10:59Z</time>
      </trkpt>
      <trkpt lat="4.4161080" lon="-76.1752090">
        <ele>1175.6</ele>
        <time>2022-08-14T18:11:04Z</time>
      </trkpt>
      <trkpt lat="4.4160480" lon="-76.1751950">
        <ele>1176.2</ele>
        <time>2022-08-14T18:11:07Z</time>
      </trkpt>
      <trkpt lat="4.4159870" lon="-76.1751780">
        <ele>1176.6</ele>
        <time>2022-08-14T18:11:11Z</time>
      </trkpt>
      <trkpt lat="4.4158990" lon="-76.1751670">
        <ele>1177.6</ele>
        <time>2022-08-14T18:11:16Z</time>
      </trkpt>
      <trkpt lat="4.4158840" lon="-76.1751660">
        <ele>1177.8</ele>
        <time>2022-08-14T18:11:17Z</time>
      </trkpt>
      <trkpt lat="4.4157890" lon="-76.1751780">
        <ele>1178.8</ele>
        <time>2022-08-14T18:11:23Z</time>
      </trkpt>
      <trkpt lat="4.4157420" lon="-76.1751930">
        <ele>1179.2</ele>
        <time>2022-08-14T18:11:26Z</time>
      </trkpt>
      <trkpt lat="4.4157100" lon="-76.1752050">
        <ele>1179.6</ele>
        <time>2022-08-14T18:11:28Z</time>
      </trkpt>
      <trkpt lat="4.4156770" lon="-76.1752230">
        <ele>1179.8</ele>
        <time>2022-08-14T18:11:30Z</time>
      </trkpt>
      <trkpt lat="4.4156390" lon="-76.1752550">
        <ele>1180.2</ele>
        <time>2022-08-14T18:11:33Z</time>
      </trkpt>
      <trkpt lat="4.4155560" lon="-76.1753300">
        <ele>1181.0</ele>
        <time>2022-08-14T18:11:39Z</time>
      </trkpt>
      <trkpt lat="4.4155180" lon="-76.1753500">
        <ele>1181.2</ele>
        <time>2022-08-14T18:11:41Z</time>
      </trkpt>
      <trkpt lat="4.4153760" lon="-76.1753740">
        <ele>1182.0</ele>
        <time>2022-08-14T18:11:48Z</time>
      </trkpt>
      <trkpt lat="4.4153140" lon="-76.1753780">
        <ele>1182.6</ele>
        <time>2022-08-14T18:11:51Z</time>
      </trkpt>
      <trkpt lat="4.4152080" lon="-76.1753830">
        <ele>1183.2</ele>
        <time>2022-08-14T18:11:57Z</time>
      </trkpt>
      <trkpt lat="4.4151820" lon="-76.1753790">
        <ele>1183.6</ele>
        <time>2022-08-14T18:11:59Z</time>
      </trkpt>
      <trkpt lat="4.4151430" lon="-76.1753730">
        <ele>1184.0</ele>
        <time>2022-08-14T18:12:02Z</time>
      </trkpt>
      <trkpt lat="4.4150940" lon="-76.1753710">
        <ele>1184.8</ele>
        <time>2022-08-14T18:12:05Z</time>
      </trkpt>
      <trkpt lat="4.4150660" lon="-76.1753730">
        <ele>1185.2</ele>
        <time>2022-08-14T18:12:07Z</time>
      </trkpt>
      <trkpt lat="4.4149840" lon="-76.1753920">
        <ele>1186.2</ele>
        <time>2022-08-14T18:12:13Z</time>
      </trkpt>
      <trkpt lat="4.4149690" lon="-76.1753960">
        <ele>1186.4</ele>
        <time>2022-08-14T18:12:14Z</time>
      </trkpt>
      <trkpt lat="4.4148860" lon="-76.1754740">
        <ele>1187.4</ele>
        <time>2022-08-14T18:12:21Z</time>
      </trkpt>
      <trkpt lat="4.4148640" lon="-76.1755900">
        <ele>1188.6</ele>
        <time>2022-08-14T18:12:28Z</time>
      </trkpt>
      <trkpt lat="4.4148640" lon="-76.1756070">
        <ele>1188.8</ele>
        <time>2022-08-14T18:12:29Z</time>
      </trkpt>
      <trkpt lat="4.4148730" lon="-76.1756980">
        <ele>1189.6</ele>
        <time>2022-08-14T18:12:34Z</time>
      </trkpt>
      <trkpt lat="4.4148880" lon="-76.1757700">
        <ele>1190.0</ele>
        <time>2022-08-14T18:12:38Z</time>
      </trkpt>
      <trkpt lat="4.4149170" lon="-76.1758720">
        <ele>1190.6</ele>
        <time>2022-08-14T18:12:43Z</time>
      </trkpt>
      <trkpt lat="4.4149640" lon="-76.1759630">
        <ele>1191.4</ele>
        <time>2022-08-14T18:12:48Z</time>
      </trkpt>
      <trkpt lat="4.4149950" lon="-76.1760130">
        <ele>1191.8</ele>
        <time>2022-08-14T18:12:51Z</time>
      </trkpt>
      <trkpt lat="4.4150180" lon="-76.1761280">
        <ele>1192.8</ele>
        <time>2022-08-14T18:12:57Z</time>
      </trkpt>
      <trkpt lat="4.4150130" lon="-76.1761460">
        <ele>1193.0</ele>
        <time>2022-08-14T18:12:58Z</time>
      </trkpt>
      <trkpt lat="4.4149530" lon="-76.1762200">
        <ele>1194.0</ele>
        <time>2022-08-14T18:13:03Z</time>
      </trkpt>
      <trkpt lat="4.4149170" lon="-76.1762420">
        <ele>1194.0</ele>
        <time>2022-08-14T18:13:05Z</time>
      </trkpt>
      <trkpt lat="4.4147890" lon="-76.1763030">
        <ele>1195.0</ele>
        <time>2022-08-14T18:13:12Z</time>
      </trkpt>
      <trkpt lat="4.4147740" lon="-76.1763100">
        <ele>1195.2</ele>
        <time>2022-08-14T18:13:13Z</time>
      </trkpt>
      <trkpt lat="4.4146760" lon="-76.1763690">
        <ele>1196.2</ele>
        <time>2022-08-14T18:13:20Z</time>
      </trkpt>
      <trkpt lat="4.4145780" lon="-76.1764440">
        <ele>1197.2</ele>
        <time>2022-08-14T18:13:27Z</time>
      </trkpt>
      <trkpt lat="4.4145490" lon="-76.1764870">
        <ele>1197.8</ele>
        <time>2022-08-14T18:13:30Z</time>
      </trkpt>
      <trkpt lat="4.4145140" lon="-76.1765680">
        <ele>1198.2</ele>
        <time>2022-08-14T18:13:35Z</time>
      </trkpt>
      <trkpt lat="4.4144960" lon="-76.1766130">
        <ele>1198.8</ele>
        <time>2022-08-14T18:13:38Z</time>
      </trkpt>
      <trkpt lat="4.4144650" lon="-76.1766800">
        <ele>1199.4</ele>
        <time>2022-08-14T18:13:42Z</time>
      </trkpt>
      <trkpt lat="4.4144240" lon="-76.1767640">
        <ele>1200.2</ele>
        <time>2022-08-14T18:13:47Z</time>
      </trkpt>
      <trkpt lat="4.4144110" lon="-76.1767960">
        <ele>1200.6</ele>
        <time>2022-08-14T18:13:49Z</time>
      </trkpt>
      <trkpt lat="4.4144010" lon="-76.1769260">
        <ele>1201.2</ele>
        <time>2022-08-14T18:13:56Z</time>
      </trkpt>
      <trkpt lat="4.4144230" lon="-76.1770130">
        <ele>1201.6</ele>
        <time>2022-08-14T18:14:01Z</time>
      </trkpt>
      <trkpt lat="4.4144370" lon="-76.1770590">
        <ele>1202.2</ele>
        <time>2022-08-14T18:14:04Z</time>
      </trkpt>
      <trkpt lat="4.4144670" lon="-76.1771190">
        <ele>1202.8</ele>
        <time>2022-08-14T18:14:08Z</time>
      </trkpt>
      <trkpt lat="4.4145000" lon="-76.1772070">
        <ele>1203.6</ele>
        <time>2022-08-14T18:14:13Z</time>
      </trkpt>
      <trkpt lat="4.4145050" lon="-76.1772240">
        <ele>1203.8</ele>
        <time>2022-08-14T18:14:14Z</time>
      </trkpt>
      <trkpt lat="4.4145120" lon="-76.1773330">
        <ele>1204.8</ele>
        <time>2022-08-14T18:14:20Z</time>
      </trkpt>
      <trkpt lat="4.4144670" lon="-76.1774230">
        <ele>1205.8</ele>
        <time>2022-08-14T18:14:25Z</time>
      </trkpt>
      <trkpt lat="4.4144130" lon="-76.1774680">
        <ele>1206.2</ele>
        <time>2022-08-14T18:14:28Z</time>
      </trkpt>
      <trkpt lat="4.4142430" lon="-76.1774440">
        <ele>1207.0</ele>
        <time>2022-08-14T18:14:35Z</time>
      </trkpt>
      <trkpt lat="4.4140660" lon="-76.1773990">
        <ele>1207.8</ele>
        <time>2022-08-14T18:14:43Z</time>
      </trkpt>
      <trkpt lat="4.4140130" lon="-76.1773860">
        <ele>1208.0</ele>
        <time>2022-08-14T18:14:45Z</time>
      </trkpt>
      <trkpt lat="4.4137980" lon="-76.1773570">
        <ele>1209.0</ele>
        <time>2022-08-14T18:14:55Z</time>
      </trkpt>
      <trkpt lat="4.4137070" lon="-76.1774090">
        <ele>1209.8</ele>
        <time>2022-08-14T18:15:00Z</time>
      </trkpt>
      <trkpt lat="4.4136810" lon="-76.1774410">
        <ele>1210.2</ele>
        <time>2022-08-14T18:15:02Z</time>
      </trkpt>
      <trkpt lat="4.4136360" lon="-76.1775560">
        <ele>1211.2</ele>
        <time>2022-08-14T18:15:08Z</time>
      </trkpt>
      <trkpt lat="4.4136070" lon="-76.1776720">
        <ele>1212.4</ele>
        <time>2022-08-14T18:15:14Z</time>
      </trkpt>
      <trkpt lat="4.4135970" lon="-76.1777430">
        <ele>1213.0</ele>
        <time>2022-08-14T18:15:18Z</time>
      </trkpt>
      <trkpt lat="4.4135940" lon="-76.1777610">
        <ele>1213.0</ele>
        <time>2022-08-14T18:15:19Z</time>
      </trkpt>
      <trkpt lat="4.4135990" lon="-76.1778260">
        <ele>1213.4</ele>
        <time>2022-08-14T18:15:22Z</time>
      </trkpt>
      <trkpt lat="4.4135990" lon="-76.1778480">
        <ele>1213.6</ele>
        <time>2022-08-14T18:15:23Z</time>
      </trkpt>
      <trkpt lat="4.4136440" lon="-76.1779460">
        <ele>1214.6</ele>
        <time>2022-08-14T18:15:29Z</time>
      </trkpt>
      <trkpt lat="4.4136680" lon="-76.1779720">
        <ele>1214.8</ele>
        <time>2022-08-14T18:15:31Z</time>
      </trkpt>
      <trkpt lat="4.4137540" lon="-76.1780570">
        <ele>1215.6</ele>
        <time>2022-08-14T18:15:37Z</time>
      </trkpt>
      <trkpt lat="4.4138300" lon="-76.1781320">
        <ele>1216.4</ele>
        <time>2022-08-14T18:15:42Z</time>
      </trkpt>
      <trkpt lat="4.4138550" lon="-76.1781650">
        <ele>1216.8</ele>
        <time>2022-08-14T18:15:44Z</time>
      </trkpt>
      <trkpt lat="4.4139090" lon="-76.1782800">
        <ele>1217.4</ele>
        <time>2022-08-14T18:15:50Z</time>
      </trkpt>
      <trkpt lat="4.4139100" lon="-76.1783440">
        <ele>1217.8</ele>
        <time>2022-08-14T18:15:53Z</time>
      </trkpt>
      <trkpt lat="4.4138800" lon="-76.1784440">
        <ele>1218.6</ele>
        <time>2022-08-14T18:15:58Z</time>
      </trkpt>
      <trkpt lat="4.4138590" lon="-76.1784840">
        <ele>1218.8</ele>
        <time>2022-08-14T18:16:00Z</time>
      </trkpt>
      <trkpt lat="4.4137710" lon="-76.1785920">
        <ele>1220.0</ele>
        <time>2022-08-14T18:16:07Z</time>
      </trkpt>
      <trkpt lat="4.4135940" lon="-76.1786430">
        <ele>1220.8</ele>
        <time>2022-08-14T18:16:15Z</time>
      </trkpt>
      <trkpt lat="4.4135780" lon="-76.1786490">
        <ele>1221.0</ele>
        <time>2022-08-14T18:16:16Z</time>
      </trkpt>
      <trkpt lat="4.4134980" lon="-76.1787310">
        <ele>1221.8</ele>
        <time>2022-08-14T18:16:22Z</time>
      </trkpt>
      <trkpt lat="4.4134890" lon="-76.1787640">
        <ele>1222.0</ele>
        <time>2022-08-14T18:16:24Z</time>
      </trkpt>
      <trkpt lat="4.4134970" lon="-76.1788220">
        <ele>1222.6</ele>
        <time>2022-08-14T18:16:28Z</time>
      </trkpt>
      <trkpt lat="4.4135060" lon="-76.1788490">
        <ele>1223.2</ele>
        <time>2022-08-14T18:16:30Z</time>
      </trkpt>
      <trkpt lat="4.4135320" lon="-76.1789000">
        <ele>1224.2</ele>
        <time>2022-08-14T18:16:34Z</time>
      </trkpt>
      <trkpt lat="4.4135540" lon="-76.1789370">
        <ele>1224.8</ele>
        <time>2022-08-14T18:16:37Z</time>
      </trkpt>
      <trkpt lat="4.4135720" lon="-76.1789620">
        <ele>1225.2</ele>
        <time>2022-08-14T18:16:39Z</time>
      </trkpt>
      <trkpt lat="4.4136370" lon="-76.1790570">
        <ele>1226.2</ele>
        <time>2022-08-14T18:16:47Z</time>
      </trkpt>
      <trkpt lat="4.4136720" lon="-76.1791550">
        <ele>1227.4</ele>
        <time>2022-08-14T18:16:54Z</time>
      </trkpt>
      <trkpt lat="4.4136720" lon="-76.1791870">
        <ele>1227.6</ele>
        <time>2022-08-14T18:16:56Z</time>
      </trkpt>
      <trkpt lat="4.4136690" lon="-76.1792350">
        <ele>1228.4</ele>
        <time>2022-08-14T18:16:59Z</time>
      </trkpt>
      <trkpt lat="4.4136530" lon="-76.1793330">
        <ele>1229.4</ele>
        <time>2022-08-14T18:17:05Z</time>
      </trkpt>
      <trkpt lat="4.4136500" lon="-76.1793500">
        <ele>1229.6</ele>
        <time>2022-08-14T18:17:06Z</time>
      </trkpt>
      <trkpt lat="4.4136540" lon="-76.1794970">
        <ele>1230.6</ele>
        <time>2022-08-14T18:17:14Z</time>
      </trkpt>
      <trkpt lat="4.4136570" lon="-76.1795140">
        <ele>1230.6</ele>
        <time>2022-08-14T18:17:15Z</time>
      </trkpt>
      <trkpt lat="4.4136600" lon="-76.1796010">
        <ele>1231.6</ele>
        <time>2022-08-14T18:17:20Z</time>
      </trkpt>
      <trkpt lat="4.4136580" lon="-76.1796530">
        <ele>1232.2</ele>
        <time>2022-08-14T18:17:23Z</time>
      </trkpt>
      <trkpt lat="4.4136550" lon="-76.1797150">
        <ele>1232.8</ele>
        <time>2022-08-14T18:17:27Z</time>
      </trkpt>
      <trkpt lat="4.4136220" lon="-76.1797970">
        <ele>1233.2</ele>
        <time>2022-08-14T18:17:32Z</time>
      </trkpt>
      <trkpt lat="4.4135840" lon="-76.1798570">
        <ele>1233.8</ele>
        <time>2022-08-14T18:17:36Z</time>
      </trkpt>
      <trkpt lat="4.4135450" lon="-76.1799070">
        <ele>1234.0</ele>
        <time>2022-08-14T18:17:40Z</time>
      </trkpt>
      <trkpt lat="4.4135240" lon="-76.1799420">
        <ele>1234.4</ele>
        <time>2022-08-14T18:17:42Z</time>
      </trkpt>
      <trkpt lat="4.4135100" lon="-76.1799890">
        <ele>1234.8</ele>
        <time>2022-08-14T18:17:45Z</time>
      </trkpt>
      <trkpt lat="4.4135050" lon="-76.1800030">
        <ele>1235.0</ele>
        <time>2022-08-14T18:17:46Z</time>
      </trkpt>
      <trkpt lat="4.4134870" lon="-76.1800800">
        <ele>1236.0</ele>
        <time>2022-08-14T18:17:51Z</time>
      </trkpt>
      <trkpt lat="4.4134950" lon="-76.1801330">
        <ele>1236.6</ele>
        <time>2022-08-14T18:17:54Z</time>
      </trkpt>
      <trkpt lat="4.4134910" lon="-76.1801640">
        <ele>1237.0</ele>
        <time>2022-08-14T18:17:56Z</time>
      </trkpt>
      <trkpt lat="4.4134950" lon="-76.1802240">
        <ele>1237.8</ele>
        <time>2022-08-14T18:18:00Z</time>
      </trkpt>
      <trkpt lat="4.4135020" lon="-76.1802300">
        <ele>1238.0</ele>
        <time>2022-08-14T18:18:01Z</time>
      </trkpt>
      <trkpt lat="4.4135530" lon="-76.1802960">
        <ele>1239.2</ele>
        <time>2022-08-14T18:18:07Z</time>
      </trkpt>
      <trkpt lat="4.4135740" lon="-76.1803140">
        <ele>1239.6</ele>
        <time>2022-08-14T18:18:09Z</time>
      </trkpt>
      <trkpt lat="4.4135930" lon="-76.1803330">
        <ele>1240.0</ele>
        <time>2022-08-14T18:18:11Z</time>
      </trkpt>
      <trkpt lat="4.4136060" lon="-76.1803410">
        <ele>1240.2</ele>
        <time>2022-08-14T18:18:12Z</time>
      </trkpt>
      <trkpt lat="4.4136220" lon="-76.1803510">
        <ele>1240.4</ele>
        <time>2022-08-14T18:18:13Z</time>
      </trkpt>
      <trkpt lat="4.4137040" lon="-76.1803620">
        <ele>1241.4</ele>
        <time>2022-08-14T18:18:18Z</time>
      </trkpt>
      <trkpt lat="4.4137190" lon="-76.1803630">
        <ele>1241.6</ele>
        <time>2022-08-14T18:18:19Z</time>
      </trkpt>
      <trkpt lat="4.4137340" lon="-76.1803580">
        <ele>1241.6</ele>
        <time>2022-08-14T18:18:20Z</time>
      </trkpt>
      <trkpt lat="4.4138220" lon="-76.1803240">
        <ele>1242.4</ele>
        <time>2022-08-14T18:18:26Z</time>
      </trkpt>
      <trkpt lat="4.4138500" lon="-76.1803200">
        <ele>1242.8</ele>
        <time>2022-08-14T18:18:28Z</time>
      </trkpt>
      <trkpt lat="4.4139170" lon="-76.1802890">
        <ele>1243.4</ele>
        <time>2022-08-14T18:18:33Z</time>
      </trkpt>
      <trkpt lat="4.4139350" lon="-76.1802870">
        <ele>1243.6</ele>
        <time>2022-08-14T18:18:34Z</time>
      </trkpt>
      <trkpt lat="4.4139500" lon="-76.1802830">
        <ele>1243.8</ele>
        <time>2022-08-14T18:18:35Z</time>
      </trkpt>
      <trkpt lat="4.4140020" lon="-76.1802650">
        <ele>1244.2</ele>
        <time>2022-08-14T18:18:38Z</time>
      </trkpt>
      <trkpt lat="4.4140370" lon="-76.1802760">
        <ele>1244.4</ele>
        <time>2022-08-14T18:18:40Z</time>
      </trkpt>
      <trkpt lat="4.4140970" lon="-76.1803160">
        <ele>1245.2</ele>
        <time>2022-08-14T18:18:45Z</time>
      </trkpt>
      <trkpt lat="4.4141030" lon="-76.1803250">
        <ele>1245.4</ele>
        <time>2022-08-14T18:18:46Z</time>
      </trkpt>
      <trkpt lat="4.4141090" lon="-76.1803360">
        <ele>1245.4</ele>
        <time>2022-08-14T18:18:47Z</time>
      </trkpt>
      <trkpt lat="4.4141970" lon="-76.1803910">
        <ele>1246.0</ele>
        <time>2022-08-14T18:18:53Z</time>
      </trkpt>
      <trkpt lat="4.4143400" lon="-76.1804240">
        <ele>1246.4</ele>
        <time>2022-08-14T18:19:00Z</time>
      </trkpt>
      <trkpt lat="4.4143540" lon="-76.1804290">
        <ele>1246.6</ele>
        <time>2022-08-14T18:19:01Z</time>
      </trkpt>
      <trkpt lat="4.4144510" lon="-76.1804630">
        <ele>1247.2</ele>
        <time>2022-08-14T18:19:06Z</time>
      </trkpt>
      <trkpt lat="4.4144970" lon="-76.1804960">
        <ele>1247.8</ele>
        <time>2022-08-14T18:19:09Z</time>
      </trkpt>
      <trkpt lat="4.4145600" lon="-76.1805670">
        <ele>1248.6</ele>
        <time>2022-08-14T18:19:14Z</time>
      </trkpt>
      <trkpt lat="4.4145670" lon="-76.1805870">
        <ele>1248.6</ele>
        <time>2022-08-14T18:19:15Z</time>
      </trkpt>
      <trkpt lat="4.4145710" lon="-76.1806120">
        <ele>1248.6</ele>
        <time>2022-08-14T18:19:16Z</time>
      </trkpt>
      <trkpt lat="4.4145830" lon="-76.1806450">
        <ele>1249.0</ele>
        <time>2022-08-14T18:19:18Z</time>
      </trkpt>
      <trkpt lat="4.4145760" lon="-76.1806630">
        <ele>1249.0</ele>
        <time>2022-08-14T18:19:19Z</time>
      </trkpt>
      <trkpt lat="4.4145380" lon="-76.1807210">
        <ele>1249.6</ele>
        <time>2022-08-14T18:19:23Z</time>
      </trkpt>
      <trkpt lat="4.4145030" lon="-76.1807430">
        <ele>1249.8</ele>
        <time>2022-08-14T18:19:25Z</time>
      </trkpt>
      <trkpt lat="4.4143730" lon="-76.1808290">
        <ele>1250.6</ele>
        <time>2022-08-14T18:19:32Z</time>
      </trkpt>
      <trkpt lat="4.4143570" lon="-76.1808450">
        <ele>1250.6</ele>
        <time>2022-08-14T18:19:33Z</time>
      </trkpt>
      <trkpt lat="4.4142130" lon="-76.1810020">
        <ele>1251.8</ele>
        <time>2022-08-14T18:19:43Z</time>
      </trkpt>
      <trkpt lat="4.4142020" lon="-76.1810190">
        <ele>1251.8</ele>
        <time>2022-08-14T18:19:44Z</time>
      </trkpt>
      <trkpt lat="4.4141820" lon="-76.1811420">
        <ele>1252.4</ele>
        <time>2022-08-14T18:19:50Z</time>
      </trkpt>
      <trkpt lat="4.4141820" lon="-76.1811630">
        <ele>1252.6</ele>
        <time>2022-08-14T18:19:51Z</time>
      </trkpt>
      <trkpt lat="4.4141730" lon="-76.1812590">
        <ele>1253.0</ele>
        <time>2022-08-14T18:19:56Z</time>
      </trkpt>
      <trkpt lat="4.4141440" lon="-76.1813190">
        <ele>1253.8</ele>
        <time>2022-08-14T18:20:00Z</time>
      </trkpt>
      <trkpt lat="4.4141070" lon="-76.1813370">
        <ele>1254.0</ele>
        <time>2022-08-14T18:20:02Z</time>
      </trkpt>
      <trkpt lat="4.4140920" lon="-76.1813450">
        <ele>1254.2</ele>
        <time>2022-08-14T18:20:03Z</time>
      </trkpt>
      <trkpt lat="4.4140330" lon="-76.1813760">
        <ele>1254.8</ele>
        <time>2022-08-14T18:20:07Z</time>
      </trkpt>
      <trkpt lat="4.4140000" lon="-76.1813860">
        <ele>1255.0</ele>
        <time>2022-08-14T18:20:09Z</time>
      </trkpt>
      <trkpt lat="4.4139440" lon="-76.1814010">
        <ele>1255.8</ele>
        <time>2022-08-14T18:20:13Z</time>
      </trkpt>
      <trkpt lat="4.4138890" lon="-76.1814340">
        <ele>1256.6</ele>
        <time>2022-08-14T18:20:17Z</time>
      </trkpt>
      <trkpt lat="4.4138680" lon="-76.1814530">
        <ele>1256.8</ele>
        <time>2022-08-14T18:20:19Z</time>
      </trkpt>
      <trkpt lat="4.4138320" lon="-76.1815040">
        <ele>1257.6</ele>
        <time>2022-08-14T18:20:23Z</time>
      </trkpt>
      <trkpt lat="4.4138200" lon="-76.1815330">
        <ele>1258.0</ele>
        <time>2022-08-14T18:20:25Z</time>
      </trkpt>
      <trkpt lat="4.4137920" lon="-76.1816040">
        <ele>1259.2</ele>
        <time>2022-08-14T18:20:30Z</time>
      </trkpt>
      <trkpt lat="4.4137830" lon="-76.1816470">
        <ele>1259.4</ele>
        <time>2022-08-14T18:20:33Z</time>
      </trkpt>
      <trkpt lat="4.4137660" lon="-76.1817100">
        <ele>1260.0</ele>
        <time>2022-08-14T18:20:37Z</time>
      </trkpt>
      <trkpt lat="4.4137490" lon="-76.1817860">
        <ele>1260.8</ele>
        <time>2022-08-14T18:20:42Z</time>
      </trkpt>
      <trkpt lat="4.4137420" lon="-76.1818680">
        <ele>1261.2</ele>
        <time>2022-08-14T18:20:47Z</time>
      </trkpt>
      <trkpt lat="4.4137430" lon="-76.1819180">
        <ele>1261.6</ele>
        <time>2022-08-14T18:20:50Z</time>
      </trkpt>
      <trkpt lat="4.4137540" lon="-76.1820040">
        <ele>1262.2</ele>
        <time>2022-08-14T18:20:55Z</time>
      </trkpt>
      <trkpt lat="4.4137610" lon="-76.1820650">
        <ele>1262.4</ele>
        <time>2022-08-14T18:20:58Z</time>
      </trkpt>
      <trkpt lat="4.4137700" lon="-76.1821920">
        <ele>1263.2</ele>
        <time>2022-08-14T18:21:05Z</time>
      </trkpt>
      <trkpt lat="4.4137690" lon="-76.1822140">
        <ele>1263.2</ele>
        <time>2022-08-14T18:21:06Z</time>
      </trkpt>
      <trkpt lat="4.4137660" lon="-76.1822760">
        <ele>1263.8</ele>
        <time>2022-08-14T18:21:10Z</time>
      </trkpt>
      <trkpt lat="4.4137610" lon="-76.1822890">
        <ele>1263.8</ele>
        <time>2022-08-14T18:21:11Z</time>
      </trkpt>
      <trkpt lat="4.4137930" lon="-76.1823670">
        <ele>1264.4</ele>
        <time>2022-08-14T18:21:16Z</time>
      </trkpt>
      <trkpt lat="4.4138150" lon="-76.1823910">
        <ele>1264.6</ele>
        <time>2022-08-14T18:21:18Z</time>
      </trkpt>
      <trkpt lat="4.4138710" lon="-76.1824430">
        <ele>1265.4</ele>
        <time>2022-08-14T18:21:23Z</time>
      </trkpt>
      <trkpt lat="4.4138970" lon="-76.1824650">
        <ele>1265.8</ele>
        <time>2022-08-14T18:21:25Z</time>
      </trkpt>
      <trkpt lat="4.4139420" lon="-76.1824930">
        <ele>1266.4</ele>
        <time>2022-08-14T18:21:28Z</time>
      </trkpt>
      <trkpt lat="4.4140130" lon="-76.1825450">
        <ele>1267.4</ele>
        <time>2022-08-14T18:21:33Z</time>
      </trkpt>
      <trkpt lat="4.4140690" lon="-76.1826120">
        <ele>1268.2</ele>
        <time>2022-08-14T18:21:38Z</time>
      </trkpt>
      <trkpt lat="4.4140780" lon="-76.1826280">
        <ele>1268.2</ele>
        <time>2022-08-14T18:21:39Z</time>
      </trkpt>
      <trkpt lat="4.4140960" lon="-76.1826570">
        <ele>1268.6</ele>
        <time>2022-08-14T18:21:41Z</time>
      </trkpt>
      <trkpt lat="4.4141310" lon="-76.1827220">
        <ele>1269.0</ele>
        <time>2022-08-14T18:21:46Z</time>
      </trkpt>
      <trkpt lat="4.4141820" lon="-76.1828020">
        <ele>1269.6</ele>
        <time>2022-08-14T18:21:51Z</time>
      </trkpt>
      <trkpt lat="4.4141910" lon="-76.1828130">
        <ele>1269.8</ele>
        <time>2022-08-14T18:21:52Z</time>
      </trkpt>
      <trkpt lat="4.4142110" lon="-76.1828400">
        <ele>1270.0</ele>
        <time>2022-08-14T18:21:54Z</time>
      </trkpt>
      <trkpt lat="4.4142460" lon="-76.1828930">
        <ele>1270.8</ele>
        <time>2022-08-14T18:21:58Z</time>
      </trkpt>
      <trkpt lat="4.4142690" lon="-76.1829380">
        <ele>1271.4</ele>
        <time>2022-08-14T18:22:01Z</time>
      </trkpt>
      <trkpt lat="4.4142980" lon="-76.1829860">
        <ele>1271.6</ele>
        <time>2022-08-14T18:22:05Z</time>
      </trkpt>
      <trkpt lat="4.4143230" lon="-76.1830140">
        <ele>1272.2</ele>
        <time>2022-08-14T18:22:09Z</time>
      </trkpt>
      <trkpt lat="4.4143470" lon="-76.1830570">
        <ele>1272.8</ele>
        <time>2022-08-14T18:22:12Z</time>
      </trkpt>
      <trkpt lat="4.4143540" lon="-76.1830860">
        <ele>1273.0</ele>
        <time>2022-08-14T18:22:14Z</time>
      </trkpt>
      <trkpt lat="4.4143640" lon="-76.1831540">
        <ele>1273.8</ele>
        <time>2022-08-14T18:22:19Z</time>
      </trkpt>
      <trkpt lat="4.4143680" lon="-76.1831700">
        <ele>1274.0</ele>
        <time>2022-08-14T18:22:20Z</time>
      </trkpt>
      <trkpt lat="4.4143830" lon="-76.1831950">
        <ele>1274.4</ele>
        <time>2022-08-14T18:22:22Z</time>
      </trkpt>
      <trkpt lat="4.4143910" lon="-76.1832440">
        <ele>1275.0</ele>
        <time>2022-08-14T18:22:25Z</time>
      </trkpt>
      <trkpt lat="4.4143790" lon="-76.1833400">
        <ele>1275.8</ele>
        <time>2022-08-14T18:22:31Z</time>
      </trkpt>
      <trkpt lat="4.4143840" lon="-76.1833560">
        <ele>1275.8</ele>
        <time>2022-08-14T18:22:32Z</time>
      </trkpt>
      <trkpt lat="4.4143990" lon="-76.1834600">
        <ele>1277.0</ele>
        <time>2022-08-14T18:22:38Z</time>
      </trkpt>
      <trkpt lat="4.4144030" lon="-76.1834890">
        <ele>1277.4</ele>
        <time>2022-08-14T18:22:40Z</time>
      </trkpt>
      <trkpt lat="4.4144290" lon="-76.1835240">
        <ele>1278.0</ele>
        <time>2022-08-14T18:22:43Z</time>
      </trkpt>
      <trkpt lat="4.4144570" lon="-76.1835920">
        <ele>1279.4</ele>
        <time>2022-08-14T18:22:48Z</time>
      </trkpt>
      <trkpt lat="4.4144760" lon="-76.1836400">
        <ele>1280.4</ele>
        <time>2022-08-14T18:22:52Z</time>
      </trkpt>
      <trkpt lat="4.4144830" lon="-76.1836660">
        <ele>1280.8</ele>
        <time>2022-08-14T18:22:54Z</time>
      </trkpt>
      <trkpt lat="4.4145000" lon="-76.1837180">
        <ele>1281.4</ele>
        <time>2022-08-14T18:22:58Z</time>
      </trkpt>
      <trkpt lat="4.4145000" lon="-76.1837820">
        <ele>1282.2</ele>
        <time>2022-08-14T18:23:02Z</time>
      </trkpt>
      <trkpt lat="4.4145030" lon="-76.1837970">
        <ele>1282.2</ele>
        <time>2022-08-14T18:23:03Z</time>
      </trkpt>
      <trkpt lat="4.4145270" lon="-76.1838480">
        <ele>1283.2</ele>
        <time>2022-08-14T18:23:07Z</time>
      </trkpt>
      <trkpt lat="4.4145320" lon="-76.1838600">
        <ele>1283.4</ele>
        <time>2022-08-14T18:23:08Z</time>
      </trkpt>
      <trkpt lat="4.4145620" lon="-76.1839510">
        <ele>1284.4</ele>
        <time>2022-08-14T18:23:14Z</time>
      </trkpt>
      <trkpt lat="4.4145820" lon="-76.1839940">
        <ele>1285.0</ele>
        <time>2022-08-14T18:23:17Z</time>
      </trkpt>
      <trkpt lat="4.4146120" lon="-76.1840470">
        <ele>1285.6</ele>
        <time>2022-08-14T18:23:21Z</time>
      </trkpt>
      <trkpt lat="4.4146520" lon="-76.1841140">
        <ele>1286.2</ele>
        <time>2022-08-14T18:23:26Z</time>
      </trkpt>
      <trkpt lat="4.4146750" lon="-76.1841560">
        <ele>1286.6</ele>
        <time>2022-08-14T18:23:29Z</time>
      </trkpt>
      <trkpt lat="4.4147330" lon="-76.1842450">
        <ele>1287.4</ele>
        <time>2022-08-14T18:23:35Z</time>
      </trkpt>
      <trkpt lat="4.4147540" lon="-76.1842960">
        <ele>1287.6</ele>
        <time>2022-08-14T18:23:38Z</time>
      </trkpt>
      <trkpt lat="4.4147840" lon="-76.1843740">
        <ele>1288.0</ele>
        <time>2022-08-14T18:23:42Z</time>
      </trkpt>
      <trkpt lat="4.4148600" lon="-76.1844940">
        <ele>1288.2</ele>
        <time>2022-08-14T18:23:49Z</time>
      </trkpt>
      <trkpt lat="4.4148750" lon="-76.1846260">
        <ele>1288.4</ele>
        <time>2022-08-14T18:23:55Z</time>
      </trkpt>
      <trkpt lat="4.4148760" lon="-76.1847370">
        <ele>1288.8</ele>
        <time>2022-08-14T18:24:00Z</time>
      </trkpt>
      <trkpt lat="4.4148880" lon="-76.1847680">
        <ele>1289.0</ele>
        <time>2022-08-14T18:24:02Z</time>
      </trkpt>
      <trkpt lat="4.4148970" lon="-76.1847820">
        <ele>1289.0</ele>
        <time>2022-08-14T18:24:03Z</time>
      </trkpt>
      <trkpt lat="4.4149450" lon="-76.1848600">
        <ele>1289.8</ele>
        <time>2022-08-14T18:24:09Z</time>
      </trkpt>
      <trkpt lat="4.4149560" lon="-76.1848680">
        <ele>1290.0</ele>
        <time>2022-08-14T18:24:10Z</time>
      </trkpt>
      <trkpt lat="4.4150130" lon="-76.1849130">
        <ele>1290.6</ele>
        <time>2022-08-14T18:24:15Z</time>
      </trkpt>
      <trkpt lat="4.4150310" lon="-76.1849200">
        <ele>1290.8</ele>
        <time>2022-08-14T18:24:16Z</time>
      </trkpt>
      <trkpt lat="4.4150470" lon="-76.1849240">
        <ele>1291.0</ele>
        <time>2022-08-14T18:24:17Z</time>
      </trkpt>
      <trkpt lat="4.4150680" lon="-76.1849360">
        <ele>1291.4</ele>
        <time>2022-08-14T18:24:19Z</time>
      </trkpt>
      <trkpt lat="4.4150880" lon="-76.1849510">
        <ele>1291.8</ele>
        <time>2022-08-14T18:24:21Z</time>
      </trkpt>
      <trkpt lat="4.4150960" lon="-76.1849630">
        <ele>1292.0</ele>
        <time>2022-08-14T18:24:22Z</time>
      </trkpt>
      <trkpt lat="4.4151570" lon="-76.1850140">
        <ele>1293.2</ele>
        <time>2022-08-14T18:24:27Z</time>
      </trkpt>
      <trkpt lat="4.4152030" lon="-76.1850740">
        <ele>1294.0</ele>
        <time>2022-08-14T18:24:32Z</time>
      </trkpt>
      <trkpt lat="4.4152130" lon="-76.1850820">
        <ele>1294.2</ele>
        <time>2022-08-14T18:24:33Z</time>
      </trkpt>
      <trkpt lat="4.4152440" lon="-76.1851050">
        <ele>1295.0</ele>
        <time>2022-08-14T18:24:36Z</time>
      </trkpt>
      <trkpt lat="4.4152640" lon="-76.1851220">
        <ele>1295.4</ele>
        <time>2022-08-14T18:24:38Z</time>
      </trkpt>
      <trkpt lat="4.4152730" lon="-76.1851310">
        <ele>1295.6</ele>
        <time>2022-08-14T18:24:39Z</time>
      </trkpt>
      <trkpt lat="4.4152840" lon="-76.1851400">
        <ele>1295.6</ele>
        <time>2022-08-14T18:24:40Z</time>
      </trkpt>
      <trkpt lat="4.4153090" lon="-76.1851980">
        <ele>1296.4</ele>
        <time>2022-08-14T18:24:44Z</time>
      </trkpt>
      <trkpt lat="4.4153160" lon="-76.1852140">
        <ele>1296.6</ele>
        <time>2022-08-14T18:24:45Z</time>
      </trkpt>
      <trkpt lat="4.4153250" lon="-76.1852270">
        <ele>1296.8</ele>
        <time>2022-08-14T18:24:46Z</time>
      </trkpt>
      <trkpt lat="4.4153390" lon="-76.1852710">
        <ele>1297.6</ele>
        <time>2022-08-14T18:24:49Z</time>
      </trkpt>
      <trkpt lat="4.4153430" lon="-76.1852840">
        <ele>1297.8</ele>
        <time>2022-08-14T18:24:50Z</time>
      </trkpt>
      <trkpt lat="4.4153530" lon="-76.1852980">
        <ele>1298.0</ele>
        <time>2022-08-14T18:24:51Z</time>
      </trkpt>
      <trkpt lat="4.4153790" lon="-76.1853320">
        <ele>1298.6</ele>
        <time>2022-08-14T18:24:54Z</time>
      </trkpt>
      <trkpt lat="4.4153850" lon="-76.1853420">
        <ele>1298.8</ele>
        <time>2022-08-14T18:24:55Z</time>
      </trkpt>
      <trkpt lat="4.4153920" lon="-76.1853490">
        <ele>1299.0</ele>
        <time>2022-08-14T18:24:56Z</time>
      </trkpt>
      <trkpt lat="4.4154250" lon="-76.1853730">
        <ele>1299.6</ele>
        <time>2022-08-14T18:24:59Z</time>
      </trkpt>
      <trkpt lat="4.4154330" lon="-76.1853820">
        <ele>1299.8</ele>
        <time>2022-08-14T18:25:00Z</time>
      </trkpt>
      <trkpt lat="4.4154490" lon="-76.1853990">
        <ele>1300.4</ele>
        <time>2022-08-14T18:25:02Z</time>
      </trkpt>
      <trkpt lat="4.4154600" lon="-76.1854080">
        <ele>1300.6</ele>
        <time>2022-08-14T18:25:03Z</time>
      </trkpt>
      <trkpt lat="4.4154750" lon="-76.1854120">
        <ele>1300.8</ele>
        <time>2022-08-14T18:25:04Z</time>
      </trkpt>
      <trkpt lat="4.4155270" lon="-76.1854310">
        <ele>1301.8</ele>
        <time>2022-08-14T18:25:09Z</time>
      </trkpt>
      <trkpt lat="4.4155980" lon="-76.1854350">
        <ele>1303.2</ele>
        <time>2022-08-14T18:25:14Z</time>
      </trkpt>
      <trkpt lat="4.4156250" lon="-76.1854370">
        <ele>1303.6</ele>
        <time>2022-08-14T18:25:16Z</time>
      </trkpt>
      <trkpt lat="4.4156770" lon="-76.1854450">
        <ele>1304.2</ele>
        <time>2022-08-14T18:25:19Z</time>
      </trkpt>
      <trkpt lat="4.4157030" lon="-76.1854440">
        <ele>1304.6</ele>
        <time>2022-08-14T18:25:21Z</time>
      </trkpt>
      <trkpt lat="4.4157330" lon="-76.1854440">
        <ele>1305.0</ele>
        <time>2022-08-14T18:25:23Z</time>
      </trkpt>
      <trkpt lat="4.4157630" lon="-76.1854490">
        <ele>1305.4</ele>
        <time>2022-08-14T18:25:25Z</time>
      </trkpt>
      <trkpt lat="4.4158010" lon="-76.1854670">
        <ele>1305.8</ele>
        <time>2022-08-14T18:25:28Z</time>
      </trkpt>
      <trkpt lat="4.4158580" lon="-76.1854880">
        <ele>1306.4</ele>
        <time>2022-08-14T18:25:33Z</time>
      </trkpt>
      <trkpt lat="4.4158970" lon="-76.1855090">
        <ele>1307.2</ele>
        <time>2022-08-14T18:25:36Z</time>
      </trkpt>
      <trkpt lat="4.4159050" lon="-76.1855170">
        <ele>1307.4</ele>
        <time>2022-08-14T18:25:38Z</time>
      </trkpt>
      <trkpt lat="4.4159080" lon="-76.1855330">
        <ele>1307.6</ele>
        <time>2022-08-14T18:25:39Z</time>
      </trkpt>
      <trkpt lat="4.4159300" lon="-76.1855760">
        <ele>1308.2</ele>
        <time>2022-08-14T18:25:42Z</time>
      </trkpt>
      <trkpt lat="4.4159420" lon="-76.1856020">
        <ele>1308.6</ele>
        <time>2022-08-14T18:25:44Z</time>
      </trkpt>
      <trkpt lat="4.4159510" lon="-76.1856280">
        <ele>1309.0</ele>
        <time>2022-08-14T18:25:46Z</time>
      </trkpt>
      <trkpt lat="4.4159700" lon="-76.1856530">
        <ele>1309.4</ele>
        <time>2022-08-14T18:25:48Z</time>
      </trkpt>
      <trkpt lat="4.4159780" lon="-76.1856630">
        <ele>1309.8</ele>
        <time>2022-08-14T18:25:49Z</time>
      </trkpt>
      <trkpt lat="4.4160180" lon="-76.1857240">
        <ele>1310.8</ele>
        <time>2022-08-14T18:25:54Z</time>
      </trkpt>
      <trkpt lat="4.4160240" lon="-76.1857330">
        <ele>1310.8</ele>
        <time>2022-08-14T18:25:55Z</time>
      </trkpt>
      <trkpt lat="4.4160280" lon="-76.1857410">
        <ele>1311.0</ele>
        <time>2022-08-14T18:25:56Z</time>
      </trkpt>
      <trkpt lat="4.4160640" lon="-76.1858240">
        <ele>1311.8</ele>
        <time>2022-08-14T18:26:02Z</time>
      </trkpt>
      <trkpt lat="4.4160630" lon="-76.1858570">
        <ele>1312.2</ele>
        <time>2022-08-14T18:26:04Z</time>
      </trkpt>
      <trkpt lat="4.4160830" lon="-76.1858910">
        <ele>1312.6</ele>
        <time>2022-08-14T18:26:07Z</time>
      </trkpt>
      <trkpt lat="4.4160940" lon="-76.1859170">
        <ele>1313.2</ele>
        <time>2022-08-14T18:26:09Z</time>
      </trkpt>
      <trkpt lat="4.4161140" lon="-76.1859420">
        <ele>1313.6</ele>
        <time>2022-08-14T18:26:11Z</time>
      </trkpt>
      <trkpt lat="4.4161580" lon="-76.1859600">
        <ele>1314.2</ele>
        <time>2022-08-14T18:26:14Z</time>
      </trkpt>
      <trkpt lat="4.4162900" lon="-76.1859270">
        <ele>1315.0</ele>
        <time>2022-08-14T18:26:20Z</time>
      </trkpt>
      <trkpt lat="4.4164130" lon="-76.1858940">
        <ele>1315.0</ele>
        <time>2022-08-14T18:26:24Z</time>
      </trkpt>
      <trkpt lat="4.4164990" lon="-76.1859050">
        <ele>1315.0</ele>
        <time>2022-08-14T18:26:26Z</time>
      </trkpt>
      <trkpt lat="4.4165930" lon="-76.1859430">
        <ele>1315.0</ele>
        <time>2022-08-14T18:26:28Z</time>
      </trkpt>
      <trkpt lat="4.4166860" lon="-76.1860130">
        <ele>1315.0</ele>
        <time>2022-08-14T18:26:30Z</time>
      </trkpt>
      <trkpt lat="4.4167200" lon="-76.1860540">
        <ele>1315.0</ele>
        <time>2022-08-14T18:26:31Z</time>
      </trkpt>
      <trkpt lat="4.4167060" lon="-76.1861470">
        <ele>1314.4</ele>
        <time>2022-08-14T18:26:33Z</time>
      </trkpt>
      <trkpt lat="4.4166290" lon="-76.1862520">
        <ele>1314.0</ele>
        <time>2022-08-14T18:26:37Z</time>
      </trkpt>
      <trkpt lat="4.4165540" lon="-76.1863370">
        <ele>1314.2</ele>
        <time>2022-08-14T18:26:43Z</time>
      </trkpt>
      <trkpt lat="4.4165500" lon="-76.1863980">
        <ele>1314.8</ele>
        <time>2022-08-14T18:26:45Z</time>
      </trkpt>
      <trkpt lat="4.4165520" lon="-76.1864150">
        <ele>1315.2</ele>
        <time>2022-08-14T18:26:46Z</time>
      </trkpt>
      <trkpt lat="4.4165410" lon="-76.1864400">
        <ele>1315.8</ele>
        <time>2022-08-14T18:26:48Z</time>
      </trkpt>
      <trkpt lat="4.4165300" lon="-76.1864850">
        <ele>1316.4</ele>
        <time>2022-08-14T18:26:51Z</time>
      </trkpt>
      <trkpt lat="4.4165140" lon="-76.1865580">
        <ele>1317.4</ele>
        <time>2022-08-14T18:26:56Z</time>
      </trkpt>
      <trkpt lat="4.4165220" lon="-76.1866410">
        <ele>1318.4</ele>
        <time>2022-08-14T18:27:02Z</time>
      </trkpt>
      <trkpt lat="4.4165230" lon="-76.1866550">
        <ele>1318.6</ele>
        <time>2022-08-14T18:27:03Z</time>
      </trkpt>
      <trkpt lat="4.4165390" lon="-76.1867240">
        <ele>1319.4</ele>
        <time>2022-08-14T18:27:08Z</time>
      </trkpt>
      <trkpt lat="4.4165550" lon="-76.1867750">
        <ele>1320.2</ele>
        <time>2022-08-14T18:27:12Z</time>
      </trkpt>
      <trkpt lat="4.4165630" lon="-76.1868030">
        <ele>1320.6</ele>
        <time>2022-08-14T18:27:14Z</time>
      </trkpt>
      <trkpt lat="4.4166010" lon="-76.1868790">
        <ele>1321.8</ele>
        <time>2022-08-14T18:27:20Z</time>
      </trkpt>
      <trkpt lat="4.4166050" lon="-76.1868950">
        <ele>1322.0</ele>
        <time>2022-08-14T18:27:21Z</time>
      </trkpt>
      <trkpt lat="4.4166420" lon="-76.1869590">
        <ele>1322.8</ele>
        <time>2022-08-14T18:27:26Z</time>
      </trkpt>
      <trkpt lat="4.4166540" lon="-76.1870000">
        <ele>1323.4</ele>
        <time>2022-08-14T18:27:29Z</time>
      </trkpt>
      <trkpt lat="4.4166550" lon="-76.1870250">
        <ele>1324.0</ele>
        <time>2022-08-14T18:27:31Z</time>
      </trkpt>
      <trkpt lat="4.4166800" lon="-76.1870560">
        <ele>1324.4</ele>
        <time>2022-08-14T18:27:34Z</time>
      </trkpt>
      <trkpt lat="4.4167140" lon="-76.1871210">
        <ele>1325.2</ele>
        <time>2022-08-14T18:27:39Z</time>
      </trkpt>
      <trkpt lat="4.4167590" lon="-76.1871950">
        <ele>1326.0</ele>
        <time>2022-08-14T18:27:45Z</time>
      </trkpt>
      <trkpt lat="4.4167710" lon="-76.1872200">
        <ele>1326.4</ele>
        <time>2022-08-14T18:27:47Z</time>
      </trkpt>
      <trkpt lat="4.4168040" lon="-76.1873010">
        <ele>1327.4</ele>
        <time>2022-08-14T18:27:53Z</time>
      </trkpt>
      <trkpt lat="4.4168110" lon="-76.1873110">
        <ele>1327.6</ele>
        <time>2022-08-14T18:27:54Z</time>
      </trkpt>
      <trkpt lat="4.4168560" lon="-76.1873820">
        <ele>1328.4</ele>
        <time>2022-08-14T18:28:00Z</time>
      </trkpt>
      <trkpt lat="4.4168640" lon="-76.1873920">
        <ele>1328.6</ele>
        <time>2022-08-14T18:28:01Z</time>
      </trkpt>
      <trkpt lat="4.4169050" lon="-76.1874730">
        <ele>1329.6</ele>
        <time>2022-08-14T18:28:07Z</time>
      </trkpt>
      <trkpt lat="4.4169170" lon="-76.1875000">
        <ele>1330.0</ele>
        <time>2022-08-14T18:28:09Z</time>
      </trkpt>
      <trkpt lat="4.4169300" lon="-76.1875540">
        <ele>1330.8</ele>
        <time>2022-08-14T18:28:13Z</time>
      </trkpt>
      <trkpt lat="4.4169800" lon="-76.1876120">
        <ele>1331.4</ele>
        <time>2022-08-14T18:28:18Z</time>
      </trkpt>
      <trkpt lat="4.4170100" lon="-76.1876360">
        <ele>1331.8</ele>
        <time>2022-08-14T18:28:20Z</time>
      </trkpt>
      <trkpt lat="4.4171140" lon="-76.1877340">
        <ele>1332.8</ele>
        <time>2022-08-14T18:28:28Z</time>
      </trkpt>
      <trkpt lat="4.4171480" lon="-76.1878250">
        <ele>1333.4</ele>
        <time>2022-08-14T18:28:33Z</time>
      </trkpt>
      <trkpt lat="4.4171370" lon="-76.1879000">
        <ele>1334.0</ele>
        <time>2022-08-14T18:28:37Z</time>
      </trkpt>
      <trkpt lat="4.4171170" lon="-76.1879380">
        <ele>1334.2</ele>
        <time>2022-08-14T18:28:39Z</time>
      </trkpt>
      <trkpt lat="4.4170620" lon="-76.1880370">
        <ele>1335.0</ele>
        <time>2022-08-14T18:28:44Z</time>
      </trkpt>
      <trkpt lat="4.4170110" lon="-76.1881270">
        <ele>1335.8</ele>
        <time>2022-08-14T18:28:49Z</time>
      </trkpt>
      <trkpt lat="4.4170050" lon="-76.1881850">
        <ele>1336.2</ele>
        <time>2022-08-14T18:28:52Z</time>
      </trkpt>
      <trkpt lat="4.4170220" lon="-76.1882620">
        <ele>1337.0</ele>
        <time>2022-08-14T18:28:56Z</time>
      </trkpt>
      <trkpt lat="4.4170240" lon="-76.1882810">
        <ele>1337.2</ele>
        <time>2022-08-14T18:28:57Z</time>
      </trkpt>
      <trkpt lat="4.4170360" lon="-76.1883120">
        <ele>1337.4</ele>
        <time>2022-08-14T18:28:59Z</time>
      </trkpt>
      <trkpt lat="4.4170420" lon="-76.1883650">
        <ele>1337.8</ele>
        <time>2022-08-14T18:29:02Z</time>
      </trkpt>
      <trkpt lat="4.4170550" lon="-76.1884160">
        <ele>1338.4</ele>
        <time>2022-08-14T18:29:05Z</time>
      </trkpt>
      <trkpt lat="4.4170670" lon="-76.1884790">
        <ele>1339.0</ele>
        <time>2022-08-14T18:29:09Z</time>
      </trkpt>
      <trkpt lat="4.4170640" lon="-76.1885140">
        <ele>1339.4</ele>
        <time>2022-08-14T18:29:11Z</time>
      </trkpt>
      <trkpt lat="4.4170780" lon="-76.1886060">
        <ele>1340.6</ele>
        <time>2022-08-14T18:29:16Z</time>
      </trkpt>
      <trkpt lat="4.4171270" lon="-76.1886980">
        <ele>1341.6</ele>
        <time>2022-08-14T18:29:22Z</time>
      </trkpt>
      <trkpt lat="4.4171550" lon="-76.1887210">
        <ele>1341.8</ele>
        <time>2022-08-14T18:29:24Z</time>
      </trkpt>
      <trkpt lat="4.4172440" lon="-76.1887900">
        <ele>1342.8</ele>
        <time>2022-08-14T18:29:30Z</time>
      </trkpt>
      <trkpt lat="4.4172600" lon="-76.1887980">
        <ele>1343.0</ele>
        <time>2022-08-14T18:29:31Z</time>
      </trkpt>
      <trkpt lat="4.4173140" lon="-76.1888550">
        <ele>1343.8</ele>
        <time>2022-08-14T18:29:36Z</time>
      </trkpt>
      <trkpt lat="4.4173230" lon="-76.1888690">
        <ele>1344.0</ele>
        <time>2022-08-14T18:29:37Z</time>
      </trkpt>
      <trkpt lat="4.4173740" lon="-76.1889260">
        <ele>1344.8</ele>
        <time>2022-08-14T18:29:42Z</time>
      </trkpt>
      <trkpt lat="4.4174190" lon="-76.1889880">
        <ele>1345.4</ele>
        <time>2022-08-14T18:29:46Z</time>
      </trkpt>
      <trkpt lat="4.4174450" lon="-76.1890110">
        <ele>1345.8</ele>
        <time>2022-08-14T18:29:48Z</time>
      </trkpt>
      <trkpt lat="4.4174650" lon="-76.1890400">
        <ele>1346.0</ele>
        <time>2022-08-14T18:29:50Z</time>
      </trkpt>
      <trkpt lat="4.4174650" lon="-76.1890600">
        <ele>1346.2</ele>
        <time>2022-08-14T18:29:51Z</time>
      </trkpt>
      <trkpt lat="4.4174840" lon="-76.1891420">
        <ele>1346.8</ele>
        <time>2022-08-14T18:29:55Z</time>
      </trkpt>
      <trkpt lat="4.4175020" lon="-76.1891740">
        <ele>1347.4</ele>
        <time>2022-08-14T18:29:57Z</time>
      </trkpt>
      <trkpt lat="4.4175080" lon="-76.1892420">
        <ele>1348.0</ele>
        <time>2022-08-14T18:30:01Z</time>
      </trkpt>
      <trkpt lat="4.4175060" lon="-76.1893120">
        <ele>1348.2</ele>
        <time>2022-08-14T18:30:04Z</time>
      </trkpt>
      <trkpt lat="4.4175130" lon="-76.1894060">
        <ele>1349.0</ele>
        <time>2022-08-14T18:30:09Z</time>
      </trkpt>
      <trkpt lat="4.4175340" lon="-76.1894870">
        <ele>1349.6</ele>
        <time>2022-08-14T18:30:13Z</time>
      </trkpt>
      <trkpt lat="4.4175720" lon="-76.1895390">
        <ele>1350.0</ele>
        <time>2022-08-14T18:30:16Z</time>
      </trkpt>
      <trkpt lat="4.4176330" lon="-76.1896020">
        <ele>1350.8</ele>
        <time>2022-08-14T18:30:20Z</time>
      </trkpt>
      <trkpt lat="4.4176730" lon="-76.1896350">
        <ele>1351.2</ele>
        <time>2022-08-14T18:30:22Z</time>
      </trkpt>
      <trkpt lat="4.4177640" lon="-76.1896710">
        <ele>1351.6</ele>
        <time>2022-08-14T18:30:26Z</time>
      </trkpt>
      <trkpt lat="4.4178420" lon="-76.1897260">
        <ele>1352.2</ele>
        <time>2022-08-14T18:30:30Z</time>
      </trkpt>
      <trkpt lat="4.4178630" lon="-76.1897470">
        <ele>1352.4</ele>
        <time>2022-08-14T18:30:31Z</time>
      </trkpt>
      <trkpt lat="4.4179590" lon="-76.1898210">
        <ele>1353.0</ele>
        <time>2022-08-14T18:30:36Z</time>
      </trkpt>
      <trkpt lat="4.4180030" lon="-76.1898570">
        <ele>1353.2</ele>
        <time>2022-08-14T18:30:38Z</time>
      </trkpt>
      <trkpt lat="4.4181280" lon="-76.1899270">
        <ele>1353.6</ele>
        <time>2022-08-14T18:30:43Z</time>
      </trkpt>
      <trkpt lat="4.4182970" lon="-76.1900130">
        <ele>1353.8</ele>
        <time>2022-08-14T18:30:48Z</time>
      </trkpt>
      <trkpt lat="4.4183320" lon="-76.1900850">
        <ele>1353.8</ele>
        <time>2022-08-14T18:30:50Z</time>
      </trkpt>
      <trkpt lat="4.4183380" lon="-76.1902020">
        <ele>1353.8</ele>
        <time>2022-08-14T18:30:53Z</time>
      </trkpt>
      <trkpt lat="4.4183200" lon="-76.1902370">
        <ele>1353.8</ele>
        <time>2022-08-14T18:30:54Z</time>
      </trkpt>
      <trkpt lat="4.4182580" lon="-76.1903030">
        <ele>1353.8</ele>
        <time>2022-08-14T18:30:56Z</time>
      </trkpt>
      <trkpt lat="4.4181940" lon="-76.1903440">
        <ele>1353.8</ele>
        <time>2022-08-14T18:30:58Z</time>
      </trkpt>
      <trkpt lat="4.4181000" lon="-76.1903740">
        <ele>1353.8</ele>
        <time>2022-08-14T18:31:01Z</time>
      </trkpt>
      <trkpt lat="4.4179370" lon="-76.1904030">
        <ele>1354.2</ele>
        <time>2022-08-14T18:31:07Z</time>
      </trkpt>
      <trkpt lat="4.4178250" lon="-76.1903820">
        <ele>1355.2</ele>
        <time>2022-08-14T18:31:11Z</time>
      </trkpt>
      <trkpt lat="4.4177590" lon="-76.1903520">
        <ele>1356.2</ele>
        <time>2022-08-14T18:31:14Z</time>
      </trkpt>
      <trkpt lat="4.4177370" lon="-76.1903380">
        <ele>1356.4</ele>
        <time>2022-08-14T18:31:15Z</time>
      </trkpt>
      <trkpt lat="4.4175460" lon="-76.1902430">
        <ele>1357.4</ele>
        <time>2022-08-14T18:31:22Z</time>
      </trkpt>
      <trkpt lat="4.4175190" lon="-76.1902490">
        <ele>1357.6</ele>
        <time>2022-08-14T18:31:23Z</time>
      </trkpt>
      <trkpt lat="4.4174710" lon="-76.1902710">
        <ele>1357.6</ele>
        <time>2022-08-14T18:31:25Z</time>
      </trkpt>
      <trkpt lat="4.4174410" lon="-76.1903120">
        <ele>1357.8</ele>
        <time>2022-08-14T18:31:27Z</time>
      </trkpt>
      <trkpt lat="4.4174080" lon="-76.1904590">
        <ele>1358.4</ele>
        <time>2022-08-14T18:31:33Z</time>
      </trkpt>
      <trkpt lat="4.4174060" lon="-76.1904820">
        <ele>1358.6</ele>
        <time>2022-08-14T18:31:34Z</time>
      </trkpt>
      <trkpt lat="4.4173940" lon="-76.1906070">
        <ele>1359.4</ele>
        <time>2022-08-14T18:31:40Z</time>
      </trkpt>
      <trkpt lat="4.4174070" lon="-76.1906490">
        <ele>1359.8</ele>
        <time>2022-08-14T18:31:42Z</time>
      </trkpt>
      <trkpt lat="4.4174570" lon="-76.1907160">
        <ele>1360.4</ele>
        <time>2022-08-14T18:31:46Z</time>
      </trkpt>
      <trkpt lat="4.4175030" lon="-76.1907620">
        <ele>1361.0</ele>
        <time>2022-08-14T18:31:49Z</time>
      </trkpt>
      <trkpt lat="4.4175360" lon="-76.1908140">
        <ele>1361.6</ele>
        <time>2022-08-14T18:31:52Z</time>
      </trkpt>
      <trkpt lat="4.4175670" lon="-76.1908510">
        <ele>1362.0</ele>
        <time>2022-08-14T18:31:54Z</time>
      </trkpt>
      <trkpt lat="4.4176110" lon="-76.1909300">
        <ele>1362.4</ele>
        <time>2022-08-14T18:31:58Z</time>
      </trkpt>
      <trkpt lat="4.4176170" lon="-76.1909730">
        <ele>1362.6</ele>
        <time>2022-08-14T18:32:00Z</time>
      </trkpt>
      <trkpt lat="4.4176780" lon="-76.1910580">
        <ele>1363.0</ele>
        <time>2022-08-14T18:32:04Z</time>
      </trkpt>
      <trkpt lat="4.4177420" lon="-76.1911890">
        <ele>1363.6</ele>
        <time>2022-08-14T18:32:09Z</time>
      </trkpt>
      <trkpt lat="4.4178120" lon="-76.1912160">
        <ele>1363.8</ele>
        <time>2022-08-14T18:32:11Z</time>
      </trkpt>
      <trkpt lat="4.4179810" lon="-76.1913060">
        <ele>1364.4</ele>
        <time>2022-08-14T18:32:16Z</time>
      </trkpt>
      <trkpt lat="4.4180170" lon="-76.1913190">
        <ele>1364.4</ele>
        <time>2022-08-14T18:32:17Z</time>
      </trkpt>
      <trkpt lat="4.4181990" lon="-76.1913730">
        <ele>1364.4</ele>
        <time>2022-08-14T18:32:21Z</time>
      </trkpt>
      <trkpt lat="4.4182390" lon="-76.1914470">
        <ele>1364.4</ele>
        <time>2022-08-14T18:32:23Z</time>
      </trkpt>
      <trkpt lat="4.4181940" lon="-76.1915220">
        <ele>1364.0</ele>
        <time>2022-08-14T18:32:25Z</time>
      </trkpt>
      <trkpt lat="4.4181590" lon="-76.1915480">
        <ele>1364.0</ele>
        <time>2022-08-14T18:32:26Z</time>
      </trkpt>
      <trkpt lat="4.4181210" lon="-76.1915640">
        <ele>1363.8</ele>
        <time>2022-08-14T18:32:27Z</time>
      </trkpt>
      <trkpt lat="4.4179570" lon="-76.1916040">
        <ele>1363.6</ele>
        <time>2022-08-14T18:32:31Z</time>
      </trkpt>
      <trkpt lat="4.4177410" lon="-76.1916310">
        <ele>1363.6</ele>
        <time>2022-08-14T18:32:37Z</time>
      </trkpt>
      <trkpt lat="4.4175930" lon="-76.1915770">
        <ele>1364.2</ele>
        <time>2022-08-14T18:32:42Z</time>
      </trkpt>
      <trkpt lat="4.4174680" lon="-76.1915170">
        <ele>1365.4</ele>
        <time>2022-08-14T18:32:47Z</time>
      </trkpt>
      <trkpt lat="4.4174150" lon="-76.1915030">
        <ele>1365.6</ele>
        <time>2022-08-14T18:32:49Z</time>
      </trkpt>
      <trkpt lat="4.4173370" lon="-76.1914800">
        <ele>1366.4</ele>
        <time>2022-08-14T18:32:52Z</time>
      </trkpt>
      <trkpt lat="4.4172430" lon="-76.1914590">
        <ele>1367.0</ele>
        <time>2022-08-14T18:32:56Z</time>
      </trkpt>
      <trkpt lat="4.4172190" lon="-76.1914560">
        <ele>1367.2</ele>
        <time>2022-08-14T18:32:57Z</time>
      </trkpt>
      <trkpt lat="4.4171130" lon="-76.1914760">
        <ele>1368.0</ele>
        <time>2022-08-14T18:33:02Z</time>
      </trkpt>
      <trkpt lat="4.4170830" lon="-76.1914960">
        <ele>1368.4</ele>
        <time>2022-08-14T18:33:04Z</time>
      </trkpt>
      <trkpt lat="4.4170410" lon="-76.1915370">
        <ele>1368.8</ele>
        <time>2022-08-14T18:33:07Z</time>
      </trkpt>
      <trkpt lat="4.4170140" lon="-76.1915660">
        <ele>1369.4</ele>
        <time>2022-08-14T18:33:09Z</time>
      </trkpt>
      <trkpt lat="4.4169820" lon="-76.1915950">
        <ele>1369.8</ele>
        <time>2022-08-14T18:33:11Z</time>
      </trkpt>
      <trkpt lat="4.4169170" lon="-76.1916530">
        <ele>1370.4</ele>
        <time>2022-08-14T18:33:15Z</time>
      </trkpt>
      <trkpt lat="4.4169020" lon="-76.1916850">
        <ele>1370.8</ele>
        <time>2022-08-14T18:33:17Z</time>
      </trkpt>
      <trkpt lat="4.4168890" lon="-76.1917520">
        <ele>1371.4</ele>
        <time>2022-08-14T18:33:20Z</time>
      </trkpt>
      <trkpt lat="4.4168860" lon="-76.1918740">
        <ele>1372.6</ele>
        <time>2022-08-14T18:33:25Z</time>
      </trkpt>
      <trkpt lat="4.4169530" lon="-76.1920480">
        <ele>1373.2</ele>
        <time>2022-08-14T18:33:32Z</time>
      </trkpt>
      <trkpt lat="4.4169650" lon="-76.1920710">
        <ele>1373.4</ele>
        <time>2022-08-14T18:33:33Z</time>
      </trkpt>
      <trkpt lat="4.4170060" lon="-76.1921570">
        <ele>1374.0</ele>
        <time>2022-08-14T18:33:37Z</time>
      </trkpt>
      <trkpt lat="4.4170530" lon="-76.1922840">
        <ele>1374.4</ele>
        <time>2022-08-14T18:33:43Z</time>
      </trkpt>
      <trkpt lat="4.4170640" lon="-76.1923040">
        <ele>1374.6</ele>
        <time>2022-08-14T18:33:44Z</time>
      </trkpt>
      <trkpt lat="4.4171050" lon="-76.1924060">
        <ele>1375.4</ele>
        <time>2022-08-14T18:33:49Z</time>
      </trkpt>
      <trkpt lat="4.4171130" lon="-76.1924250">
        <ele>1375.6</ele>
        <time>2022-08-14T18:33:50Z</time>
      </trkpt>
      <trkpt lat="4.4171210" lon="-76.1924450">
        <ele>1375.8</ele>
        <time>2022-08-14T18:33:51Z</time>
      </trkpt>
      <trkpt lat="4.4171340" lon="-76.1924830">
        <ele>1376.2</ele>
        <time>2022-08-14T18:33:53Z</time>
      </trkpt>
      <trkpt lat="4.4171540" lon="-76.1925120">
        <ele>1376.6</ele>
        <time>2022-08-14T18:33:55Z</time>
      </trkpt>
      <trkpt lat="4.4171630" lon="-76.1925270">
        <ele>1376.8</ele>
        <time>2022-08-14T18:33:56Z</time>
      </trkpt>
      <trkpt lat="4.4172250" lon="-76.1926360">
        <ele>1378.0</ele>
        <time>2022-08-14T18:34:02Z</time>
      </trkpt>
      <trkpt lat="4.4172360" lon="-76.1926560">
        <ele>1378.2</ele>
        <time>2022-08-14T18:34:03Z</time>
      </trkpt>
      <trkpt lat="4.4172650" lon="-76.1926990">
        <ele>1378.4</ele>
        <time>2022-08-14T18:34:06Z</time>
      </trkpt>
      <trkpt lat="4.4172900" lon="-76.1927450">
        <ele>1378.8</ele>
        <time>2022-08-14T18:34:08Z</time>
      </trkpt>
      <trkpt lat="4.4173260" lon="-76.1928880">
        <ele>1379.8</ele>
        <time>2022-08-14T18:34:15Z</time>
      </trkpt>
      <trkpt lat="4.4173280" lon="-76.1929070">
        <ele>1379.8</ele>
        <time>2022-08-14T18:34:16Z</time>
      </trkpt>
      <trkpt lat="4.4173620" lon="-76.1930360">
        <ele>1380.8</ele>
        <time>2022-08-14T18:34:22Z</time>
      </trkpt>
      <trkpt lat="4.4173720" lon="-76.1930600">
        <ele>1381.0</ele>
        <time>2022-08-14T18:34:23Z</time>
      </trkpt>
      <trkpt lat="4.4174640" lon="-76.1932590">
        <ele>1382.0</ele>
        <time>2022-08-14T18:34:31Z</time>
      </trkpt>
      <trkpt lat="4.4175920" lon="-76.1933570">
        <ele>1382.4</ele>
        <time>2022-08-14T18:34:36Z</time>
      </trkpt>
      <trkpt lat="4.4176300" lon="-76.1934290">
        <ele>1382.2</ele>
        <time>2022-08-14T18:34:38Z</time>
      </trkpt>
      <trkpt lat="4.4176430" lon="-76.1934730">
        <ele>1382.2</ele>
        <time>2022-08-14T18:34:39Z</time>
      </trkpt>
      <trkpt lat="4.4176730" lon="-76.1935850">
        <ele>1382.2</ele>
        <time>2022-08-14T18:34:41Z</time>
      </trkpt>
      <trkpt lat="4.4176740" lon="-76.1936530">
        <ele>1382.2</ele>
        <time>2022-08-14T18:34:42Z</time>
      </trkpt>
      <trkpt lat="4.4176760" lon="-76.1937230">
        <ele>1382.2</ele>
        <time>2022-08-14T18:34:43Z</time>
      </trkpt>
      <trkpt lat="4.4177020" lon="-76.1938620">
        <ele>1382.4</ele>
        <time>2022-08-14T18:34:45Z</time>
      </trkpt>
      <trkpt lat="4.4177220" lon="-76.1939150">
        <ele>1382.2</ele>
        <time>2022-08-14T18:34:46Z</time>
      </trkpt>
      <trkpt lat="4.4177370" lon="-76.1939580">
        <ele>1381.6</ele>
        <time>2022-08-14T18:34:47Z</time>
      </trkpt>
      <trkpt lat="4.4177290" lon="-76.1940420">
        <ele>1380.2</ele>
        <time>2022-08-14T18:34:49Z</time>
      </trkpt>
      <trkpt lat="4.4176810" lon="-76.1941010">
        <ele>1379.0</ele>
        <time>2022-08-14T18:34:51Z</time>
      </trkpt>
      <trkpt lat="4.4176510" lon="-76.1941090">
        <ele>1378.8</ele>
        <time>2022-08-14T18:34:52Z</time>
      </trkpt>
      <trkpt lat="4.4175270" lon="-76.1940500">
        <ele>1378.6</ele>
        <time>2022-08-14T18:34:56Z</time>
      </trkpt>
      <trkpt lat="4.4174140" lon="-76.1939620">
        <ele>1378.6</ele>
        <time>2022-08-14T18:35:02Z</time>
      </trkpt>
      <trkpt lat="4.4173620" lon="-76.1939150">
        <ele>1379.0</ele>
        <time>2022-08-14T18:35:06Z</time>
      </trkpt>
      <trkpt lat="4.4173470" lon="-76.1939080">
        <ele>1379.2</ele>
        <time>2022-08-14T18:35:07Z</time>
      </trkpt>
      <trkpt lat="4.4173110" lon="-76.1938750">
        <ele>1380.2</ele>
        <time>2022-08-14T18:35:10Z</time>
      </trkpt>
      <trkpt lat="4.4172860" lon="-76.1938520">
        <ele>1380.6</ele>
        <time>2022-08-14T18:35:12Z</time>
      </trkpt>
      <trkpt lat="4.4172530" lon="-76.1938080">
        <ele>1381.4</ele>
        <time>2022-08-14T18:35:15Z</time>
      </trkpt>
      <trkpt lat="4.4172130" lon="-76.1937520">
        <ele>1382.4</ele>
        <time>2022-08-14T18:35:19Z</time>
      </trkpt>
      <trkpt lat="4.4172000" lon="-76.1937090">
        <ele>1382.8</ele>
        <time>2022-08-14T18:35:22Z</time>
      </trkpt>
      <trkpt lat="4.4171920" lon="-76.1936680">
        <ele>1383.4</ele>
        <time>2022-08-14T18:35:25Z</time>
      </trkpt>
      <trkpt lat="4.4171760" lon="-76.1935770">
        <ele>1384.4</ele>
        <time>2022-08-14T18:35:31Z</time>
      </trkpt>
      <trkpt lat="4.4171700" lon="-76.1935620">
        <ele>1384.6</ele>
        <time>2022-08-14T18:35:32Z</time>
      </trkpt>
      <trkpt lat="4.4171370" lon="-76.1934400">
        <ele>1385.6</ele>
        <time>2022-08-14T18:35:40Z</time>
      </trkpt>
      <trkpt lat="4.4171220" lon="-76.1933980">
        <ele>1386.2</ele>
        <time>2022-08-14T18:35:43Z</time>
      </trkpt>
      <trkpt lat="4.4170910" lon="-76.1933520">
        <ele>1386.4</ele>
        <time>2022-08-14T18:35:47Z</time>
      </trkpt>
      <trkpt lat="4.4170810" lon="-76.1933260">
        <ele>1386.6</ele>
        <time>2022-08-14T18:35:49Z</time>
      </trkpt>
      <trkpt lat="4.4169950" lon="-76.1932580">
        <ele>1387.6</ele>
        <time>2022-08-14T18:35:56Z</time>
      </trkpt>
      <trkpt lat="4.4169810" lon="-76.1932520">
        <ele>1388.0</ele>
        <time>2022-08-14T18:35:57Z</time>
      </trkpt>
      <trkpt lat="4.4169100" lon="-76.1932140">
        <ele>1388.8</ele>
        <time>2022-08-14T18:36:02Z</time>
      </trkpt>
      <trkpt lat="4.4168780" lon="-76.1931960">
        <ele>1389.2</ele>
        <time>2022-08-14T18:36:04Z</time>
      </trkpt>
      <trkpt lat="4.4168290" lon="-76.1931630">
        <ele>1389.8</ele>
        <time>2022-08-14T18:36:08Z</time>
      </trkpt>
      <trkpt lat="4.4167790" lon="-76.1931290">
        <ele>1390.4</ele>
        <time>2022-08-14T18:36:12Z</time>
      </trkpt>
      <trkpt lat="4.4167420" lon="-76.1931030">
        <ele>1390.8</ele>
        <time>2022-08-14T18:36:15Z</time>
      </trkpt>
      <trkpt lat="4.4167100" lon="-76.1930690">
        <ele>1391.2</ele>
        <time>2022-08-14T18:36:18Z</time>
      </trkpt>
      <trkpt lat="4.4166530" lon="-76.1930220">
        <ele>1392.0</ele>
        <time>2022-08-14T18:36:23Z</time>
      </trkpt>
      <trkpt lat="4.4166250" lon="-76.1929960">
        <ele>1392.2</ele>
        <time>2022-08-14T18:36:26Z</time>
      </trkpt>
      <trkpt lat="4.4165760" lon="-76.1929630">
        <ele>1393.0</ele>
        <time>2022-08-14T18:36:30Z</time>
      </trkpt>
      <trkpt lat="4.4165340" lon="-76.1929410">
        <ele>1393.6</ele>
        <time>2022-08-14T18:36:33Z</time>
      </trkpt>
      <trkpt lat="4.4165190" lon="-76.1929380">
        <ele>1393.6</ele>
        <time>2022-08-14T18:36:34Z</time>
      </trkpt>
      <trkpt lat="4.4164810" lon="-76.1929360">
        <ele>1394.0</ele>
        <time>2022-08-14T18:36:36Z</time>
      </trkpt>
      <trkpt lat="4.4164360" lon="-76.1929360">
        <ele>1394.4</ele>
        <time>2022-08-14T18:36:39Z</time>
      </trkpt>
      <trkpt lat="4.4163730" lon="-76.1929570">
        <ele>1395.2</ele>
        <time>2022-08-14T18:36:44Z</time>
      </trkpt>
      <trkpt lat="4.4163490" lon="-76.1929840">
        <ele>1396.0</ele>
        <time>2022-08-14T18:36:47Z</time>
      </trkpt>
      <trkpt lat="4.4163430" lon="-76.1929960">
        <ele>1396.2</ele>
        <time>2022-08-14T18:36:48Z</time>
      </trkpt>
      <trkpt lat="4.4163280" lon="-76.1930650">
        <ele>1397.4</ele>
        <time>2022-08-14T18:36:53Z</time>
      </trkpt>
      <trkpt lat="4.4163230" lon="-76.1930780">
        <ele>1397.6</ele>
        <time>2022-08-14T18:36:54Z</time>
      </trkpt>
      <trkpt lat="4.4163070" lon="-76.1931350">
        <ele>1398.4</ele>
        <time>2022-08-14T18:36:58Z</time>
      </trkpt>
      <trkpt lat="4.4162940" lon="-76.1931870">
        <ele>1398.8</ele>
        <time>2022-08-14T18:37:02Z</time>
      </trkpt>
      <trkpt lat="4.4162780" lon="-76.1932370">
        <ele>1399.4</ele>
        <time>2022-08-14T18:37:06Z</time>
      </trkpt>
      <trkpt lat="4.4162510" lon="-76.1932940">
        <ele>1400.4</ele>
        <time>2022-08-14T18:37:11Z</time>
      </trkpt>
      <trkpt lat="4.4162450" lon="-76.1933080">
        <ele>1400.6</ele>
        <time>2022-08-14T18:37:12Z</time>
      </trkpt>
      <trkpt lat="4.4162090" lon="-76.1934010">
        <ele>1401.8</ele>
        <time>2022-08-14T18:37:19Z</time>
      </trkpt>
      <trkpt lat="4.4161920" lon="-76.1934350">
        <ele>1402.2</ele>
        <time>2022-08-14T18:37:22Z</time>
      </trkpt>
      <trkpt lat="4.4161650" lon="-76.1934840">
        <ele>1402.8</ele>
        <time>2022-08-14T18:37:26Z</time>
      </trkpt>
      <trkpt lat="4.4161500" lon="-76.1935180">
        <ele>1403.2</ele>
        <time>2022-08-14T18:37:29Z</time>
      </trkpt>
      <trkpt lat="4.4161470" lon="-76.1935720">
        <ele>1403.8</ele>
        <time>2022-08-14T18:37:33Z</time>
      </trkpt>
      <trkpt lat="4.4161390" lon="-76.1936170">
        <ele>1404.4</ele>
        <time>2022-08-14T18:37:36Z</time>
      </trkpt>
      <trkpt lat="4.4161300" lon="-76.1936640">
        <ele>1405.0</ele>
        <time>2022-08-14T18:37:39Z</time>
      </trkpt>
      <trkpt lat="4.4161290" lon="-76.1937120">
        <ele>1405.6</ele>
        <time>2022-08-14T18:37:43Z</time>
      </trkpt>
      <trkpt lat="4.4161260" lon="-76.1937250">
        <ele>1405.6</ele>
        <time>2022-08-14T18:37:44Z</time>
      </trkpt>
      <trkpt lat="4.4161160" lon="-76.1937540">
        <ele>1406.0</ele>
        <time>2022-08-14T18:37:46Z</time>
      </trkpt>
      <trkpt lat="4.4160670" lon="-76.1938110">
        <ele>1406.8</ele>
        <time>2022-08-14T18:37:51Z</time>
      </trkpt>
      <trkpt lat="4.4160290" lon="-76.1938480">
        <ele>1407.0</ele>
        <time>2022-08-14T18:37:55Z</time>
      </trkpt>
      <trkpt lat="4.4159750" lon="-76.1939210">
        <ele>1407.8</ele>
        <time>2022-08-14T18:38:01Z</time>
      </trkpt>
      <trkpt lat="4.4159560" lon="-76.1939460">
        <ele>1408.2</ele>
        <time>2022-08-14T18:38:03Z</time>
      </trkpt>
      <trkpt lat="4.4159130" lon="-76.1939950">
        <ele>1408.8</ele>
        <time>2022-08-14T18:38:08Z</time>
      </trkpt>
      <trkpt lat="4.4158890" lon="-76.1940210">
        <ele>1409.2</ele>
        <time>2022-08-14T18:38:10Z</time>
      </trkpt>
      <trkpt lat="4.4158380" lon="-76.1940900">
        <ele>1410.2</ele>
        <time>2022-08-14T18:38:16Z</time>
      </trkpt>
      <trkpt lat="4.4158190" lon="-76.1941160">
        <ele>1410.4</ele>
        <time>2022-08-14T18:38:18Z</time>
      </trkpt>
      <trkpt lat="4.4157540" lon="-76.1941850">
        <ele>1411.4</ele>
        <time>2022-08-14T18:38:25Z</time>
      </trkpt>
      <trkpt lat="4.4156780" lon="-76.1942750">
        <ele>1412.2</ele>
        <time>2022-08-14T18:38:32Z</time>
      </trkpt>
      <trkpt lat="4.4156660" lon="-76.1942860">
        <ele>1412.4</ele>
        <time>2022-08-14T18:38:33Z</time>
      </trkpt>
      <trkpt lat="4.4156390" lon="-76.1943000">
        <ele>1412.8</ele>
        <time>2022-08-14T18:38:35Z</time>
      </trkpt>
      <trkpt lat="4.4155970" lon="-76.1943350">
        <ele>1413.4</ele>
        <time>2022-08-14T18:38:39Z</time>
      </trkpt>
      <trkpt lat="4.4155530" lon="-76.1943820">
        <ele>1414.0</ele>
        <time>2022-08-14T18:38:44Z</time>
      </trkpt>
      <trkpt lat="4.4155240" lon="-76.1944090">
        <ele>1414.4</ele>
        <time>2022-08-14T18:38:47Z</time>
      </trkpt>
      <trkpt lat="4.4154570" lon="-76.1944710">
        <ele>1415.2</ele>
        <time>2022-08-14T18:38:53Z</time>
      </trkpt>
      <trkpt lat="4.4154470" lon="-76.1944870">
        <ele>1415.4</ele>
        <time>2022-08-14T18:38:54Z</time>
      </trkpt>
      <trkpt lat="4.4153730" lon="-76.1945540">
        <ele>1416.4</ele>
        <time>2022-08-14T18:39:01Z</time>
      </trkpt>
      <trkpt lat="4.4153620" lon="-76.1945630">
        <ele>1416.6</ele>
        <time>2022-08-14T18:39:02Z</time>
      </trkpt>
      <trkpt lat="4.4152680" lon="-76.1946590">
        <ele>1417.6</ele>
        <time>2022-08-14T18:39:10Z</time>
      </trkpt>
      <trkpt lat="4.4152190" lon="-76.1947110">
        <ele>1418.4</ele>
        <time>2022-08-14T18:39:15Z</time>
      </trkpt>
      <trkpt lat="4.4151940" lon="-76.1947300">
        <ele>1418.6</ele>
        <time>2022-08-14T18:39:17Z</time>
      </trkpt>
      <trkpt lat="4.4151120" lon="-76.1948020">
        <ele>1419.6</ele>
        <time>2022-08-14T18:39:25Z</time>
      </trkpt>
      <trkpt lat="4.4151010" lon="-76.1948080">
        <ele>1419.8</ele>
        <time>2022-08-14T18:39:26Z</time>
      </trkpt>
      <trkpt lat="4.4150460" lon="-76.1948480">
        <ele>1420.8</ele>
        <time>2022-08-14T18:39:31Z</time>
      </trkpt>
      <trkpt lat="4.4150050" lon="-76.1948640">
        <ele>1421.2</ele>
        <time>2022-08-14T18:39:34Z</time>
      </trkpt>
      <trkpt lat="4.4149930" lon="-76.1948640">
        <ele>1421.4</ele>
        <time>2022-08-14T18:39:35Z</time>
      </trkpt>
      <trkpt lat="4.4149800" lon="-76.1948580">
        <ele>1421.8</ele>
        <time>2022-08-14T18:39:36Z</time>
      </trkpt>
      <trkpt lat="4.4149210" lon="-76.1948280">
        <ele>1422.6</ele>
        <time>2022-08-14T18:39:40Z</time>
      </trkpt>
      <trkpt lat="4.4148980" lon="-76.1947450">
        <ele>1423.6</ele>
        <time>2022-08-14T18:39:46Z</time>
      </trkpt>
      <trkpt lat="4.4148970" lon="-76.1947300">
        <ele>1423.8</ele>
        <time>2022-08-14T18:39:47Z</time>
      </trkpt>
      <trkpt lat="4.4149090" lon="-76.1946740">
        <ele>1424.4</ele>
        <time>2022-08-14T18:39:51Z</time>
      </trkpt>
      <trkpt lat="4.4149190" lon="-76.1946390">
        <ele>1424.8</ele>
        <time>2022-08-14T18:39:53Z</time>
      </trkpt>
      <trkpt lat="4.4149230" lon="-76.1946200">
        <ele>1425.0</ele>
        <time>2022-08-14T18:39:54Z</time>
      </trkpt>
      <trkpt lat="4.4149310" lon="-76.1945920">
        <ele>1425.2</ele>
        <time>2022-08-14T18:39:56Z</time>
      </trkpt>
      <trkpt lat="4.4149390" lon="-76.1945670">
        <ele>1425.4</ele>
        <time>2022-08-14T18:39:58Z</time>
      </trkpt>
      <trkpt lat="4.4149560" lon="-76.1945030">
        <ele>1426.0</ele>
        <time>2022-08-14T18:40:02Z</time>
      </trkpt>
      <trkpt lat="4.4149900" lon="-76.1943990">
        <ele>1426.6</ele>
        <time>2022-08-14T18:40:08Z</time>
      </trkpt>
      <trkpt lat="4.4149890" lon="-76.1943680">
        <ele>1426.8</ele>
        <time>2022-08-14T18:40:10Z</time>
      </trkpt>
      <trkpt lat="4.4149780" lon="-76.1943020">
        <ele>1427.4</ele>
        <time>2022-08-14T18:40:15Z</time>
      </trkpt>
      <trkpt lat="4.4149320" lon="-76.1942230">
        <ele>1427.8</ele>
        <time>2022-08-14T18:40:21Z</time>
      </trkpt>
      <trkpt lat="4.4149050" lon="-76.1942090">
        <ele>1428.2</ele>
        <time>2022-08-14T18:40:23Z</time>
      </trkpt>
      <trkpt lat="4.4148630" lon="-76.1941910">
        <ele>1428.6</ele>
        <time>2022-08-14T18:40:26Z</time>
      </trkpt>
      <trkpt lat="4.4148380" lon="-76.1941900">
        <ele>1428.8</ele>
        <time>2022-08-14T18:40:28Z</time>
      </trkpt>
      <trkpt lat="4.4148120" lon="-76.1941960">
        <ele>1429.4</ele>
        <time>2022-08-14T18:40:30Z</time>
      </trkpt>
      <trkpt lat="4.4147840" lon="-76.1942070">
        <ele>1429.8</ele>
        <time>2022-08-14T18:40:32Z</time>
      </trkpt>
      <trkpt lat="4.4147240" lon="-76.1942410">
        <ele>1431.2</ele>
        <time>2022-08-14T18:40:37Z</time>
      </trkpt>
      <trkpt lat="4.4147100" lon="-76.1942510">
        <ele>1431.4</ele>
        <time>2022-08-14T18:40:38Z</time>
      </trkpt>
      <trkpt lat="4.4147020" lon="-76.1942590">
        <ele>1431.4</ele>
        <time>2022-08-14T18:40:39Z</time>
      </trkpt>
      <trkpt lat="4.4146560" lon="-76.1943130">
        <ele>1432.2</ele>
        <time>2022-08-14T18:40:43Z</time>
      </trkpt>
      <trkpt lat="4.4146110" lon="-76.1943670">
        <ele>1433.4</ele>
        <time>2022-08-14T18:40:48Z</time>
      </trkpt>
      <trkpt lat="4.4146050" lon="-76.1943820">
        <ele>1433.6</ele>
        <time>2022-08-14T18:40:49Z</time>
      </trkpt>
      <trkpt lat="4.4145870" lon="-76.1944080">
        <ele>1434.0</ele>
        <time>2022-08-14T18:40:52Z</time>
      </trkpt>
      <trkpt lat="4.4145530" lon="-76.1944490">
        <ele>1434.2</ele>
        <time>2022-08-14T18:40:55Z</time>
      </trkpt>
      <trkpt lat="4.4145070" lon="-76.1944940">
        <ele>1434.8</ele>
        <time>2022-08-14T18:40:59Z</time>
      </trkpt>
      <trkpt lat="4.4144850" lon="-76.1945290">
        <ele>1435.4</ele>
        <time>2022-08-14T18:41:02Z</time>
      </trkpt>
      <trkpt lat="4.4144480" lon="-76.1945580">
        <ele>1436.0</ele>
        <time>2022-08-14T18:41:06Z</time>
      </trkpt>
      <trkpt lat="4.4144330" lon="-76.1945880">
        <ele>1436.4</ele>
        <time>2022-08-14T18:41:08Z</time>
      </trkpt>
      <trkpt lat="4.4143980" lon="-76.1946450">
        <ele>1437.0</ele>
        <time>2022-08-14T18:41:12Z</time>
      </trkpt>
      <trkpt lat="4.4143770" lon="-76.1946710">
        <ele>1437.2</ele>
        <time>2022-08-14T18:41:14Z</time>
      </trkpt>
      <trkpt lat="4.4143340" lon="-76.1947150">
        <ele>1437.8</ele>
        <time>2022-08-14T18:41:18Z</time>
      </trkpt>
      <trkpt lat="4.4142980" lon="-76.1947480">
        <ele>1438.2</ele>
        <time>2022-08-14T18:41:21Z</time>
      </trkpt>
      <trkpt lat="4.4142880" lon="-76.1947590">
        <ele>1438.4</ele>
        <time>2022-08-14T18:41:22Z</time>
      </trkpt>
      <trkpt lat="4.4142680" lon="-76.1947720">
        <ele>1438.8</ele>
        <time>2022-08-14T18:41:24Z</time>
      </trkpt>
      <trkpt lat="4.4142360" lon="-76.1947760">
        <ele>1439.4</ele>
        <time>2022-08-14T18:41:27Z</time>
      </trkpt>
      <trkpt lat="4.4142190" lon="-76.1947820">
        <ele>1439.8</ele>
        <time>2022-08-14T18:41:29Z</time>
      </trkpt>
      <trkpt lat="4.4141900" lon="-76.1947930">
        <ele>1440.0</ele>
        <time>2022-08-14T18:41:31Z</time>
      </trkpt>
      <trkpt lat="4.4141410" lon="-76.1948260">
        <ele>1440.4</ele>
        <time>2022-08-14T18:41:34Z</time>
      </trkpt>
      <trkpt lat="4.4140620" lon="-76.1948850">
        <ele>1441.4</ele>
        <time>2022-08-14T18:41:40Z</time>
      </trkpt>
      <trkpt lat="4.4140480" lon="-76.1948930">
        <ele>1441.6</ele>
        <time>2022-08-14T18:41:41Z</time>
      </trkpt>
      <trkpt lat="4.4139540" lon="-76.1949440">
        <ele>1442.6</ele>
        <time>2022-08-14T18:41:48Z</time>
      </trkpt>
      <trkpt lat="4.4139390" lon="-76.1949540">
        <ele>1442.8</ele>
        <time>2022-08-14T18:41:49Z</time>
      </trkpt>
      <trkpt lat="4.4138500" lon="-76.1949840">
        <ele>1443.4</ele>
        <time>2022-08-14T18:41:55Z</time>
      </trkpt>
      <trkpt lat="4.4138140" lon="-76.1949920">
        <ele>1443.8</ele>
        <time>2022-08-14T18:41:57Z</time>
      </trkpt>
      <trkpt lat="4.4138010" lon="-76.1949990">
        <ele>1444.0</ele>
        <time>2022-08-14T18:41:58Z</time>
      </trkpt>
      <trkpt lat="4.4137430" lon="-76.1950060">
        <ele>1444.6</ele>
        <time>2022-08-14T18:42:02Z</time>
      </trkpt>
      <trkpt lat="4.4137060" lon="-76.1950240">
        <ele>1445.2</ele>
        <time>2022-08-14T18:42:05Z</time>
      </trkpt>
      <trkpt lat="4.4136670" lon="-76.1950440">
        <ele>1445.8</ele>
        <time>2022-08-14T18:42:08Z</time>
      </trkpt>
      <trkpt lat="4.4136000" lon="-76.1950680">
        <ele>1446.4</ele>
        <time>2022-08-14T18:42:13Z</time>
      </trkpt>
      <trkpt lat="4.4135580" lon="-76.1950870">
        <ele>1446.8</ele>
        <time>2022-08-14T18:42:16Z</time>
      </trkpt>
      <trkpt lat="4.4134810" lon="-76.1951190">
        <ele>1447.6</ele>
        <time>2022-08-14T18:42:21Z</time>
      </trkpt>
      <trkpt lat="4.4134670" lon="-76.1951220">
        <ele>1447.8</ele>
        <time>2022-08-14T18:42:22Z</time>
      </trkpt>
      <trkpt lat="4.4134430" lon="-76.1951330">
        <ele>1448.2</ele>
        <time>2022-08-14T18:42:24Z</time>
      </trkpt>
      <trkpt lat="4.4134020" lon="-76.1951330">
        <ele>1448.8</ele>
        <time>2022-08-14T18:42:27Z</time>
      </trkpt>
      <trkpt lat="4.4133850" lon="-76.1951320">
        <ele>1449.0</ele>
        <time>2022-08-14T18:42:28Z</time>
      </trkpt>
      <trkpt lat="4.4132890" lon="-76.1951160">
        <ele>1450.0</ele>
        <time>2022-08-14T18:42:34Z</time>
      </trkpt>
      <trkpt lat="4.4132770" lon="-76.1951080">
        <ele>1450.2</ele>
        <time>2022-08-14T18:42:35Z</time>
      </trkpt>
      <trkpt lat="4.4131800" lon="-76.1950580">
        <ele>1451.2</ele>
        <time>2022-08-14T18:42:42Z</time>
      </trkpt>
      <trkpt lat="4.4131660" lon="-76.1950510">
        <ele>1451.4</ele>
        <time>2022-08-14T18:42:43Z</time>
      </trkpt>
      <trkpt lat="4.4130740" lon="-76.1949870">
        <ele>1452.2</ele>
        <time>2022-08-14T18:42:49Z</time>
      </trkpt>
      <trkpt lat="4.4130440" lon="-76.1949710">
        <ele>1452.4</ele>
        <time>2022-08-14T18:42:51Z</time>
      </trkpt>
      <trkpt lat="4.4129590" lon="-76.1949360">
        <ele>1453.2</ele>
        <time>2022-08-14T18:42:56Z</time>
      </trkpt>
      <trkpt lat="4.4129300" lon="-76.1949280">
        <ele>1453.6</ele>
        <time>2022-08-14T18:42:58Z</time>
      </trkpt>
      <trkpt lat="4.4128690" lon="-76.1949290">
        <ele>1454.0</ele>
        <time>2022-08-14T18:43:01Z</time>
      </trkpt>
      <trkpt lat="4.4128570" lon="-76.1949270">
        <ele>1454.4</ele>
        <time>2022-08-14T18:43:02Z</time>
      </trkpt>
      <trkpt lat="4.4127310" lon="-76.1949510">
        <ele>1455.4</ele>
        <time>2022-08-14T18:43:09Z</time>
      </trkpt>
      <trkpt lat="4.4127140" lon="-76.1949580">
        <ele>1455.6</ele>
        <time>2022-08-14T18:43:10Z</time>
      </trkpt>
      <trkpt lat="4.4126490" lon="-76.1950000">
        <ele>1456.4</ele>
        <time>2022-08-14T18:43:15Z</time>
      </trkpt>
      <trkpt lat="4.4126370" lon="-76.1950130">
        <ele>1456.6</ele>
        <time>2022-08-14T18:43:16Z</time>
      </trkpt>
      <trkpt lat="4.4125740" lon="-76.1951110">
        <ele>1457.6</ele>
        <time>2022-08-14T18:43:22Z</time>
      </trkpt>
      <trkpt lat="4.4125680" lon="-76.1951310">
        <ele>1457.8</ele>
        <time>2022-08-14T18:43:23Z</time>
      </trkpt>
      <trkpt lat="4.4125560" lon="-76.1952230">
        <ele>1458.4</ele>
        <time>2022-08-14T18:43:28Z</time>
      </trkpt>
      <trkpt lat="4.4125120" lon="-76.1953270">
        <ele>1459.6</ele>
        <time>2022-08-14T18:43:34Z</time>
      </trkpt>
      <trkpt lat="4.4124620" lon="-76.1954320">
        <ele>1460.6</ele>
        <time>2022-08-14T18:43:39Z</time>
      </trkpt>
      <trkpt lat="4.4124250" lon="-76.1955000">
        <ele>1461.2</ele>
        <time>2022-08-14T18:43:43Z</time>
      </trkpt>
      <trkpt lat="4.4123970" lon="-76.1955580">
        <ele>1461.6</ele>
        <time>2022-08-14T18:43:46Z</time>
      </trkpt>
      <trkpt lat="4.4123110" lon="-76.1956610">
        <ele>1462.4</ele>
        <time>2022-08-14T18:43:52Z</time>
      </trkpt>
      <trkpt lat="4.4122900" lon="-76.1956790">
        <ele>1462.6</ele>
        <time>2022-08-14T18:43:53Z</time>
      </trkpt>
      <trkpt lat="4.4121660" lon="-76.1957900">
        <ele>1463.8</ele>
        <time>2022-08-14T18:44:01Z</time>
      </trkpt>
      <trkpt lat="4.4121310" lon="-76.1958120">
        <ele>1464.0</ele>
        <time>2022-08-14T18:44:03Z</time>
      </trkpt>
      <trkpt lat="4.4120820" lon="-76.1958630">
        <ele>1464.8</ele>
        <time>2022-08-14T18:44:06Z</time>
      </trkpt>
      <trkpt lat="4.4120280" lon="-76.1959330">
        <ele>1465.6</ele>
        <time>2022-08-14T18:44:10Z</time>
      </trkpt>
      <trkpt lat="4.4120060" lon="-76.1959690">
        <ele>1466.0</ele>
        <time>2022-08-14T18:44:12Z</time>
      </trkpt>
      <trkpt lat="4.4119480" lon="-76.1960440">
        <ele>1467.2</ele>
        <time>2022-08-14T18:44:17Z</time>
      </trkpt>
      <trkpt lat="4.4118940" lon="-76.1961170">
        <ele>1468.2</ele>
        <time>2022-08-14T18:44:22Z</time>
      </trkpt>
      <trkpt lat="4.4118140" lon="-76.1961640">
        <ele>1468.6</ele>
        <time>2022-08-14T18:44:26Z</time>
      </trkpt>
      <trkpt lat="4.4117940" lon="-76.1961650">
        <ele>1468.6</ele>
        <time>2022-08-14T18:44:27Z</time>
      </trkpt>
      <trkpt lat="4.4117710" lon="-76.1961730">
        <ele>1468.8</ele>
        <time>2022-08-14T18:44:28Z</time>
      </trkpt>
      <trkpt lat="4.4117430" lon="-76.1961890">
        <ele>1469.0</ele>
        <time>2022-08-14T18:44:29Z</time>
      </trkpt>
      <trkpt lat="4.4117050" lon="-76.1962100">
        <ele>1469.4</ele>
        <time>2022-08-14T18:44:31Z</time>
      </trkpt>
      <trkpt lat="4.4116480" lon="-76.1962280">
        <ele>1470.2</ele>
        <time>2022-08-14T18:44:35Z</time>
      </trkpt>
      <trkpt lat="4.4116230" lon="-76.1962310">
        <ele>1470.8</ele>
        <time>2022-08-14T18:44:37Z</time>
      </trkpt>
      <trkpt lat="4.4115980" lon="-76.1962090">
        <ele>1471.0</ele>
        <time>2022-08-14T18:44:38Z</time>
      </trkpt>
      <trkpt lat="4.4115410" lon="-76.1961680">
        <ele>1471.6</ele>
        <time>2022-08-14T18:44:41Z</time>
      </trkpt>
      <trkpt lat="4.4115040" lon="-76.1960430">
        <ele>1472.6</ele>
        <time>2022-08-14T18:44:47Z</time>
      </trkpt>
      <trkpt lat="4.4114900" lon="-76.1960080">
        <ele>1472.8</ele>
        <time>2022-08-14T18:44:49Z</time>
      </trkpt>
      <trkpt lat="4.4114470" lon="-76.1958690">
        <ele>1473.4</ele>
        <time>2022-08-14T18:44:56Z</time>
      </trkpt>
      <trkpt lat="4.4114200" lon="-76.1957680">
        <ele>1474.6</ele>
        <time>2022-08-14T18:45:02Z</time>
      </trkpt>
      <trkpt lat="4.4113960" lon="-76.1956940">
        <ele>1476.0</ele>
        <time>2022-08-14T18:45:06Z</time>
      </trkpt>
      <trkpt lat="4.4113860" lon="-76.1956350">
        <ele>1476.8</ele>
        <time>2022-08-14T18:45:09Z</time>
      </trkpt>
      <trkpt lat="4.4113730" lon="-76.1956160">
        <ele>1477.0</ele>
        <time>2022-08-14T18:45:10Z</time>
      </trkpt>
      <trkpt lat="4.4113650" lon="-76.1955100">
        <ele>1478.0</ele>
        <time>2022-08-14T18:45:16Z</time>
      </trkpt>
      <trkpt lat="4.4113600" lon="-76.1954750">
        <ele>1478.4</ele>
        <time>2022-08-14T18:45:18Z</time>
      </trkpt>
      <trkpt lat="4.4113180" lon="-76.1954150">
        <ele>1479.2</ele>
        <time>2022-08-14T18:45:22Z</time>
      </trkpt>
      <trkpt lat="4.4112580" lon="-76.1953730">
        <ele>1480.0</ele>
        <time>2022-08-14T18:45:26Z</time>
      </trkpt>
      <trkpt lat="4.4112370" lon="-76.1953700">
        <ele>1480.2</ele>
        <time>2022-08-14T18:45:27Z</time>
      </trkpt>
      <trkpt lat="4.4111050" lon="-76.1953520">
        <ele>1481.2</ele>
        <time>2022-08-14T18:45:33Z</time>
      </trkpt>
      <trkpt lat="4.4110850" lon="-76.1953410">
        <ele>1481.4</ele>
        <time>2022-08-14T18:45:34Z</time>
      </trkpt>
      <trkpt lat="4.4110320" lon="-76.1952920">
        <ele>1481.8</ele>
        <time>2022-08-14T18:45:37Z</time>
      </trkpt>
      <trkpt lat="4.4110230" lon="-76.1952420">
        <ele>1482.2</ele>
        <time>2022-08-14T18:45:39Z</time>
      </trkpt>
      <trkpt lat="4.4110300" lon="-76.1952150">
        <ele>1482.2</ele>
        <time>2022-08-14T18:45:40Z</time>
      </trkpt>
      <trkpt lat="4.4110810" lon="-76.1951220">
        <ele>1482.6</ele>
        <time>2022-08-14T18:45:44Z</time>
      </trkpt>
      <trkpt lat="4.4112090" lon="-76.1949840">
        <ele>1483.2</ele>
        <time>2022-08-14T18:45:51Z</time>
      </trkpt>
      <trkpt lat="4.4112240" lon="-76.1949670">
        <ele>1483.4</ele>
        <time>2022-08-14T18:45:52Z</time>
      </trkpt>
      <trkpt lat="4.4113280" lon="-76.1947960">
        <ele>1484.0</ele>
        <time>2022-08-14T18:45:59Z</time>
      </trkpt>
      <trkpt lat="4.4113540" lon="-76.1947110">
        <ele>1484.4</ele>
        <time>2022-08-14T18:46:02Z</time>
      </trkpt>
      <trkpt lat="4.4113670" lon="-76.1946310">
        <ele>1484.8</ele>
        <time>2022-08-14T18:46:05Z</time>
      </trkpt>
      <trkpt lat="4.4113830" lon="-76.1945120">
        <ele>1485.4</ele>
        <time>2022-08-14T18:46:10Z</time>
      </trkpt>
      <trkpt lat="4.4113960" lon="-76.1944440">
        <ele>1486.0</ele>
        <time>2022-08-14T18:46:13Z</time>
      </trkpt>
      <trkpt lat="4.4114160" lon="-76.1943720">
        <ele>1486.2</ele>
        <time>2022-08-14T18:46:16Z</time>
      </trkpt>
      <trkpt lat="4.4114340" lon="-76.1942280">
        <ele>1487.4</ele>
        <time>2022-08-14T18:46:22Z</time>
      </trkpt>
      <trkpt lat="4.4114330" lon="-76.1942040">
        <ele>1487.4</ele>
        <time>2022-08-14T18:46:23Z</time>
      </trkpt>
      <trkpt lat="4.4114190" lon="-76.1940680">
        <ele>1488.4</ele>
        <time>2022-08-14T18:46:29Z</time>
      </trkpt>
      <trkpt lat="4.4113960" lon="-76.1939890">
        <ele>1489.0</ele>
        <time>2022-08-14T18:46:33Z</time>
      </trkpt>
      <trkpt lat="4.4113830" lon="-76.1939070">
        <ele>1489.4</ele>
        <time>2022-08-14T18:46:37Z</time>
      </trkpt>
      <trkpt lat="4.4113780" lon="-76.1938050">
        <ele>1490.2</ele>
        <time>2022-08-14T18:46:42Z</time>
      </trkpt>
      <trkpt lat="4.4113870" lon="-76.1937630">
        <ele>1490.6</ele>
        <time>2022-08-14T18:46:44Z</time>
      </trkpt>
      <trkpt lat="4.4114260" lon="-76.1936940">
        <ele>1491.4</ele>
        <time>2022-08-14T18:46:48Z</time>
      </trkpt>
      <trkpt lat="4.4114500" lon="-76.1936630">
        <ele>1491.6</ele>
        <time>2022-08-14T18:46:50Z</time>
      </trkpt>
      <trkpt lat="4.4115050" lon="-76.1935920">
        <ele>1492.4</ele>
        <time>2022-08-14T18:46:55Z</time>
      </trkpt>
      <trkpt lat="4.4115360" lon="-76.1935670">
        <ele>1492.6</ele>
        <time>2022-08-14T18:46:57Z</time>
      </trkpt>
      <trkpt lat="4.4116230" lon="-76.1934920">
        <ele>1493.6</ele>
        <time>2022-08-14T18:47:03Z</time>
      </trkpt>
      <trkpt lat="4.4116350" lon="-76.1934810">
        <ele>1493.8</ele>
        <time>2022-08-14T18:47:04Z</time>
      </trkpt>
      <trkpt lat="4.4117550" lon="-76.1933830">
        <ele>1494.8</ele>
        <time>2022-08-14T18:47:13Z</time>
      </trkpt>
      <trkpt lat="4.4118190" lon="-76.1933000">
        <ele>1496.0</ele>
        <time>2022-08-14T18:47:19Z</time>
      </trkpt>
      <trkpt lat="4.4118210" lon="-76.1932810">
        <ele>1496.0</ele>
        <time>2022-08-14T18:47:20Z</time>
      </trkpt>
      <trkpt lat="4.4118430" lon="-76.1931640">
        <ele>1497.2</ele>
        <time>2022-08-14T18:47:26Z</time>
      </trkpt>
      <trkpt lat="4.4118390" lon="-76.1931450">
        <ele>1497.2</ele>
        <time>2022-08-14T18:47:27Z</time>
      </trkpt>
      <trkpt lat="4.4117820" lon="-76.1930240">
        <ele>1498.0</ele>
        <time>2022-08-14T18:47:34Z</time>
      </trkpt>
      <trkpt lat="4.4117660" lon="-76.1930040">
        <ele>1498.2</ele>
        <time>2022-08-14T18:47:35Z</time>
      </trkpt>
      <trkpt lat="4.4116870" lon="-76.1929180">
        <ele>1499.0</ele>
        <time>2022-08-14T18:47:40Z</time>
      </trkpt>
      <trkpt lat="4.4116680" lon="-76.1928810">
        <ele>1499.4</ele>
        <time>2022-08-14T18:47:42Z</time>
      </trkpt>
      <trkpt lat="4.4116180" lon="-76.1927610">
        <ele>1500.2</ele>
        <time>2022-08-14T18:47:48Z</time>
      </trkpt>
      <trkpt lat="4.4116060" lon="-76.1926900">
        <ele>1500.6</ele>
        <time>2022-08-14T18:47:51Z</time>
      </trkpt>
      <trkpt lat="4.4116200" lon="-76.1925870">
        <ele>1501.2</ele>
        <time>2022-08-14T18:47:56Z</time>
      </trkpt>
      <trkpt lat="4.4116360" lon="-76.1925320">
        <ele>1501.8</ele>
        <time>2022-08-14T18:47:59Z</time>
      </trkpt>
      <trkpt lat="4.4116490" lon="-76.1925030">
        <ele>1502.4</ele>
        <time>2022-08-14T18:48:01Z</time>
      </trkpt>
      <trkpt lat="4.4117150" lon="-76.1924400">
        <ele>1503.2</ele>
        <time>2022-08-14T18:48:06Z</time>
      </trkpt>
      <trkpt lat="4.4117460" lon="-76.1924220">
        <ele>1503.4</ele>
        <time>2022-08-14T18:48:08Z</time>
      </trkpt>
      <trkpt lat="4.4118350" lon="-76.1923670">
        <ele>1504.4</ele>
        <time>2022-08-14T18:48:14Z</time>
      </trkpt>
      <trkpt lat="4.4118450" lon="-76.1923620">
        <ele>1504.6</ele>
        <time>2022-08-14T18:48:15Z</time>
      </trkpt>
      <trkpt lat="4.4119150" lon="-76.1923330">
        <ele>1505.4</ele>
        <time>2022-08-14T18:48:20Z</time>
      </trkpt>
      <trkpt lat="4.4119380" lon="-76.1923170">
        <ele>1505.8</ele>
        <time>2022-08-14T18:48:22Z</time>
      </trkpt>
      <trkpt lat="4.4119620" lon="-76.1922990">
        <ele>1506.4</ele>
        <time>2022-08-14T18:48:24Z</time>
      </trkpt>
      <trkpt lat="4.4119850" lon="-76.1922860">
        <ele>1506.8</ele>
        <time>2022-08-14T18:48:26Z</time>
      </trkpt>
      <trkpt lat="4.4120010" lon="-76.1922750">
        <ele>1506.8</ele>
        <time>2022-08-14T18:48:27Z</time>
      </trkpt>
      <trkpt lat="4.4120560" lon="-76.1922430">
        <ele>1507.4</ele>
        <time>2022-08-14T18:48:31Z</time>
      </trkpt>
      <trkpt lat="4.4120780" lon="-76.1922180">
        <ele>1507.8</ele>
        <time>2022-08-14T18:48:33Z</time>
      </trkpt>
      <trkpt lat="4.4120890" lon="-76.1922050">
        <ele>1508.0</ele>
        <time>2022-08-14T18:48:34Z</time>
      </trkpt>
      <trkpt lat="4.4121300" lon="-76.1921070">
        <ele>1508.8</ele>
        <time>2022-08-14T18:48:39Z</time>
      </trkpt>
      <trkpt lat="4.4121330" lon="-76.1920880">
        <ele>1509.0</ele>
        <time>2022-08-14T18:48:40Z</time>
      </trkpt>
      <trkpt lat="4.4121480" lon="-76.1920020">
        <ele>1510.0</ele>
        <time>2022-08-14T18:48:45Z</time>
      </trkpt>
      <trkpt lat="4.4121670" lon="-76.1919350">
        <ele>1510.8</ele>
        <time>2022-08-14T18:48:49Z</time>
      </trkpt>
      <trkpt lat="4.4121700" lon="-76.1919020">
        <ele>1511.0</ele>
        <time>2022-08-14T18:48:51Z</time>
      </trkpt>
      <trkpt lat="4.4122330" lon="-76.1917800">
        <ele>1512.2</ele>
        <time>2022-08-14T18:48:58Z</time>
      </trkpt>
      <trkpt lat="4.4122520" lon="-76.1917600">
        <ele>1512.2</ele>
        <time>2022-08-14T18:48:59Z</time>
      </trkpt>
      <trkpt lat="4.4124060" lon="-76.1916570">
        <ele>1513.0</ele>
        <time>2022-08-14T18:49:08Z</time>
      </trkpt>
      <trkpt lat="4.4125570" lon="-76.1915840">
        <ele>1514.0</ele>
        <time>2022-08-14T18:49:16Z</time>
      </trkpt>
      <trkpt lat="4.4126340" lon="-76.1915500">
        <ele>1514.6</ele>
        <time>2022-08-14T18:49:20Z</time>
      </trkpt>
      <trkpt lat="4.4127130" lon="-76.1915170">
        <ele>1515.2</ele>
        <time>2022-08-14T18:49:24Z</time>
      </trkpt>
      <trkpt lat="4.4128130" lon="-76.1914950">
        <ele>1515.8</ele>
        <time>2022-08-14T18:49:29Z</time>
      </trkpt>
      <trkpt lat="4.4128560" lon="-76.1914750">
        <ele>1516.0</ele>
        <time>2022-08-14T18:49:31Z</time>
      </trkpt>
      <trkpt lat="4.4129110" lon="-76.1914080">
        <ele>1516.6</ele>
        <time>2022-08-14T18:49:35Z</time>
      </trkpt>
      <trkpt lat="4.4129270" lon="-76.1913210">
        <ele>1517.0</ele>
        <time>2022-08-14T18:49:40Z</time>
      </trkpt>
      <trkpt lat="4.4129270" lon="-76.1913050">
        <ele>1517.2</ele>
        <time>2022-08-14T18:49:41Z</time>
      </trkpt>
      <trkpt lat="4.4129140" lon="-76.1912430">
        <ele>1518.2</ele>
        <time>2022-08-14T18:49:45Z</time>
      </trkpt>
      <trkpt lat="4.4129090" lon="-76.1912280">
        <ele>1518.6</ele>
        <time>2022-08-14T18:49:46Z</time>
      </trkpt>
      <trkpt lat="4.4128900" lon="-76.1911910">
        <ele>1519.4</ele>
        <time>2022-08-14T18:49:49Z</time>
      </trkpt>
      <trkpt lat="4.4128580" lon="-76.1911550">
        <ele>1519.8</ele>
        <time>2022-08-14T18:49:52Z</time>
      </trkpt>
      <trkpt lat="4.4128380" lon="-76.1911340">
        <ele>1520.2</ele>
        <time>2022-08-14T18:49:54Z</time>
      </trkpt>
      <trkpt lat="4.4127810" lon="-76.1910900">
        <ele>1521.4</ele>
        <time>2022-08-14T18:49:59Z</time>
      </trkpt>
      <trkpt lat="4.4126950" lon="-76.1910400">
        <ele>1522.4</ele>
        <time>2022-08-14T18:50:06Z</time>
      </trkpt>
      <trkpt lat="4.4126810" lon="-76.1910360">
        <ele>1522.6</ele>
        <time>2022-08-14T18:50:07Z</time>
      </trkpt>
      <trkpt lat="4.4125730" lon="-76.1910170">
        <ele>1523.4</ele>
        <time>2022-08-14T18:50:14Z</time>
      </trkpt>
      <trkpt lat="4.4125560" lon="-76.1910170">
        <ele>1523.8</ele>
        <time>2022-08-14T18:50:15Z</time>
      </trkpt>
      <trkpt lat="4.4124390" lon="-76.1910360">
        <ele>1525.0</ele>
        <time>2022-08-14T18:50:23Z</time>
      </trkpt>
      <trkpt lat="4.4123630" lon="-76.1910870">
        <ele>1525.8</ele>
        <time>2022-08-14T18:50:29Z</time>
      </trkpt>
      <trkpt lat="4.4123220" lon="-76.1911090">
        <ele>1526.2</ele>
        <time>2022-08-14T18:50:32Z</time>
      </trkpt>
      <trkpt lat="4.4122810" lon="-76.1911330">
        <ele>1526.8</ele>
        <time>2022-08-14T18:50:35Z</time>
      </trkpt>
      <trkpt lat="4.4122030" lon="-76.1911830">
        <ele>1527.8</ele>
        <time>2022-08-14T18:50:41Z</time>
      </trkpt>
      <trkpt lat="4.4121900" lon="-76.1911930">
        <ele>1528.0</ele>
        <time>2022-08-14T18:50:42Z</time>
      </trkpt>
      <trkpt lat="4.4121460" lon="-76.1912310">
        <ele>1528.8</ele>
        <time>2022-08-14T18:50:46Z</time>
      </trkpt>
      <trkpt lat="4.4121310" lon="-76.1912370">
        <ele>1528.8</ele>
        <time>2022-08-14T18:50:47Z</time>
      </trkpt>
      <trkpt lat="4.4121010" lon="-76.1912480">
        <ele>1529.0</ele>
        <time>2022-08-14T18:50:49Z</time>
      </trkpt>
      <trkpt lat="4.4120470" lon="-76.1912740">
        <ele>1529.8</ele>
        <time>2022-08-14T18:50:53Z</time>
      </trkpt>
      <trkpt lat="4.4119550" lon="-76.1913330">
        <ele>1530.8</ele>
        <time>2022-08-14T18:51:00Z</time>
      </trkpt>
      <trkpt lat="4.4118820" lon="-76.1914430">
        <ele>1531.8</ele>
        <time>2022-08-14T18:51:08Z</time>
      </trkpt>
      <trkpt lat="4.4118330" lon="-76.1915090">
        <ele>1532.6</ele>
        <time>2022-08-14T18:51:13Z</time>
      </trkpt>
      <trkpt lat="4.4118070" lon="-76.1915340">
        <ele>1533.0</ele>
        <time>2022-08-14T18:51:15Z</time>
      </trkpt>
      <trkpt lat="4.4117300" lon="-76.1916270">
        <ele>1533.8</ele>
        <time>2022-08-14T18:51:22Z</time>
      </trkpt>
      <trkpt lat="4.4117080" lon="-76.1916500">
        <ele>1533.8</ele>
        <time>2022-08-14T18:51:24Z</time>
      </trkpt>
      <trkpt lat="4.4116090" lon="-76.1917260">
        <ele>1535.0</ele>
        <time>2022-08-14T18:51:31Z</time>
      </trkpt>
      <trkpt lat="4.4115950" lon="-76.1917370">
        <ele>1535.2</ele>
        <time>2022-08-14T18:51:32Z</time>
      </trkpt>
      <trkpt lat="4.4115020" lon="-76.1918140">
        <ele>1536.2</ele>
        <time>2022-08-14T18:51:38Z</time>
      </trkpt>
      <trkpt lat="4.4114280" lon="-76.1918830">
        <ele>1536.6</ele>
        <time>2022-08-14T18:51:42Z</time>
      </trkpt>
      <trkpt lat="4.4113460" lon="-76.1919700">
        <ele>1537.0</ele>
        <time>2022-08-14T18:51:46Z</time>
      </trkpt>
      <trkpt lat="4.4112690" lon="-76.1920570">
        <ele>1537.0</ele>
        <time>2022-08-14T18:51:49Z</time>
      </trkpt>
      <trkpt lat="4.4110430" lon="-76.1922770">
        <ele>1537.2</ele>
        <time>2022-08-14T18:51:56Z</time>
      </trkpt>
      <trkpt lat="4.4108410" lon="-76.1923520">
        <ele>1537.2</ele>
        <time>2022-08-14T18:52:01Z</time>
      </trkpt>
      <trkpt lat="4.4106840" lon="-76.1923710">
        <ele>1537.2</ele>
        <time>2022-08-14T18:52:06Z</time>
      </trkpt>
      <trkpt lat="4.4105740" lon="-76.1923670">
        <ele>1537.6</ele>
        <time>2022-08-14T18:52:11Z</time>
      </trkpt>
      <trkpt lat="4.4105530" lon="-76.1923650">
        <ele>1537.8</ele>
        <time>2022-08-14T18:52:12Z</time>
      </trkpt>
      <trkpt lat="4.4104760" lon="-76.1923550">
        <ele>1538.6</ele>
        <time>2022-08-14T18:52:17Z</time>
      </trkpt>
      <trkpt lat="4.4104600" lon="-76.1923520">
        <ele>1539.0</ele>
        <time>2022-08-14T18:52:18Z</time>
      </trkpt>
      <trkpt lat="4.4103930" lon="-76.1923310">
        <ele>1540.2</ele>
        <time>2022-08-14T18:52:23Z</time>
      </trkpt>
      <trkpt lat="4.4103630" lon="-76.1923240">
        <ele>1540.4</ele>
        <time>2022-08-14T18:52:25Z</time>
      </trkpt>
      <trkpt lat="4.4103200" lon="-76.1923040">
        <ele>1541.2</ele>
        <time>2022-08-14T18:52:28Z</time>
      </trkpt>
      <trkpt lat="4.4102360" lon="-76.1922880">
        <ele>1542.2</ele>
        <time>2022-08-14T18:52:34Z</time>
      </trkpt>
      <trkpt lat="4.4101280" lon="-76.1923210">
        <ele>1543.4</ele>
        <time>2022-08-14T18:52:42Z</time>
      </trkpt>
      <trkpt lat="4.4100690" lon="-76.1923540">
        <ele>1544.4</ele>
        <time>2022-08-14T18:52:47Z</time>
      </trkpt>
      <trkpt lat="4.4100380" lon="-76.1923770">
        <ele>1545.2</ele>
        <time>2022-08-14T18:52:50Z</time>
      </trkpt>
      <trkpt lat="4.4100190" lon="-76.1923920">
        <ele>1545.6</ele>
        <time>2022-08-14T18:52:52Z</time>
      </trkpt>
      <trkpt lat="4.4099710" lon="-76.1924760">
        <ele>1546.8</ele>
        <time>2022-08-14T18:52:58Z</time>
      </trkpt>
      <trkpt lat="4.4099640" lon="-76.1924920">
        <ele>1547.0</ele>
        <time>2022-08-14T18:52:59Z</time>
      </trkpt>
      <trkpt lat="4.4099560" lon="-76.1925220">
        <ele>1547.4</ele>
        <time>2022-08-14T18:53:01Z</time>
      </trkpt>
      <trkpt lat="4.4099590" lon="-76.1925470">
        <ele>1547.8</ele>
        <time>2022-08-14T18:53:03Z</time>
      </trkpt>
      <trkpt lat="4.4099420" lon="-76.1926360">
        <ele>1549.0</ele>
        <time>2022-08-14T18:53:09Z</time>
      </trkpt>
      <trkpt lat="4.4099340" lon="-76.1926700">
        <ele>1549.4</ele>
        <time>2022-08-14T18:53:11Z</time>
      </trkpt>
      <trkpt lat="4.4099080" lon="-76.1927050">
        <ele>1550.0</ele>
        <time>2022-08-14T18:53:14Z</time>
      </trkpt>
      <trkpt lat="4.4098780" lon="-76.1927560">
        <ele>1550.8</ele>
        <time>2022-08-14T18:53:18Z</time>
      </trkpt>
      <trkpt lat="4.4098480" lon="-76.1928060">
        <ele>1551.0</ele>
        <time>2022-08-14T18:53:21Z</time>
      </trkpt>
      <trkpt lat="4.4097820" lon="-76.1928850">
        <ele>1552.0</ele>
        <time>2022-08-14T18:53:27Z</time>
      </trkpt>
      <trkpt lat="4.4097720" lon="-76.1928970">
        <ele>1552.2</ele>
        <time>2022-08-14T18:53:28Z</time>
      </trkpt>
      <trkpt lat="4.4096840" lon="-76.1929760">
        <ele>1553.4</ele>
        <time>2022-08-14T18:53:35Z</time>
      </trkpt>
      <trkpt lat="4.4096740" lon="-76.1929840">
        <ele>1553.6</ele>
        <time>2022-08-14T18:53:36Z</time>
      </trkpt>
      <trkpt lat="4.4096470" lon="-76.1929940">
        <ele>1554.0</ele>
        <time>2022-08-14T18:53:38Z</time>
      </trkpt>
      <trkpt lat="4.4095960" lon="-76.1930510">
        <ele>1554.4</ele>
        <time>2022-08-14T18:53:41Z</time>
      </trkpt>
      <trkpt lat="4.4095830" lon="-76.1930650">
        <ele>1554.6</ele>
        <time>2022-08-14T18:53:42Z</time>
      </trkpt>
      <trkpt lat="4.4094890" lon="-76.1931230">
        <ele>1555.6</ele>
        <time>2022-08-14T18:53:48Z</time>
      </trkpt>
      <trkpt lat="4.4094480" lon="-76.1931570">
        <ele>1555.6</ele>
        <time>2022-08-14T18:53:50Z</time>
      </trkpt>
      <trkpt lat="4.4094270" lon="-76.1931680">
        <ele>1555.6</ele>
        <time>2022-08-14T18:53:51Z</time>
      </trkpt>
      <trkpt lat="4.4093320" lon="-76.1932240">
        <ele>1556.4</ele>
        <time>2022-08-14T18:53:56Z</time>
      </trkpt>
      <trkpt lat="4.4093150" lon="-76.1932390">
        <ele>1556.6</ele>
        <time>2022-08-14T18:53:57Z</time>
      </trkpt>
      <trkpt lat="4.4093010" lon="-76.1932430">
        <ele>1557.0</ele>
        <time>2022-08-14T18:53:58Z</time>
      </trkpt>
      <trkpt lat="4.4092380" lon="-76.1932720">
        <ele>1557.2</ele>
        <time>2022-08-14T18:54:02Z</time>
      </trkpt>
      <trkpt lat="4.4092010" lon="-76.1932880">
        <ele>1557.6</ele>
        <time>2022-08-14T18:54:04Z</time>
      </trkpt>
      <trkpt lat="4.4091000" lon="-76.1933400">
        <ele>1558.2</ele>
        <time>2022-08-14T18:54:10Z</time>
      </trkpt>
      <trkpt lat="4.4090420" lon="-76.1933570">
        <ele>1558.4</ele>
        <time>2022-08-14T18:54:13Z</time>
      </trkpt>
      <trkpt lat="4.4089670" lon="-76.1933650">
        <ele>1559.0</ele>
        <time>2022-08-14T18:54:17Z</time>
      </trkpt>
      <trkpt lat="4.4088960" lon="-76.1933690">
        <ele>1559.4</ele>
        <time>2022-08-14T18:54:20Z</time>
      </trkpt>
      <trkpt lat="4.4088050" lon="-76.1933630">
        <ele>1560.4</ele>
        <time>2022-08-14T18:54:25Z</time>
      </trkpt>
      <trkpt lat="4.4087870" lon="-76.1933640">
        <ele>1560.4</ele>
        <time>2022-08-14T18:54:26Z</time>
      </trkpt>
      <trkpt lat="4.4087010" lon="-76.1933660">
        <ele>1561.6</ele>
        <time>2022-08-14T18:54:31Z</time>
      </trkpt>
      <trkpt lat="4.4086730" lon="-76.1933900">
        <ele>1562.2</ele>
        <time>2022-08-14T18:54:33Z</time>
      </trkpt>
      <trkpt lat="4.4086210" lon="-76.1934370">
        <ele>1562.8</ele>
        <time>2022-08-14T18:54:37Z</time>
      </trkpt>
      <trkpt lat="4.4085980" lon="-76.1934640">
        <ele>1563.0</ele>
        <time>2022-08-14T18:54:39Z</time>
      </trkpt>
      <trkpt lat="4.4085540" lon="-76.1935100">
        <ele>1563.8</ele>
        <time>2022-08-14T18:54:43Z</time>
      </trkpt>
      <trkpt lat="4.4085080" lon="-76.1935780">
        <ele>1564.6</ele>
        <time>2022-08-14T18:54:47Z</time>
      </trkpt>
      <trkpt lat="4.4084760" lon="-76.1936110">
        <ele>1565.0</ele>
        <time>2022-08-14T18:54:49Z</time>
      </trkpt>
      <trkpt lat="4.4084680" lon="-76.1936220">
        <ele>1565.0</ele>
        <time>2022-08-14T18:54:50Z</time>
      </trkpt>
      <trkpt lat="4.4084470" lon="-76.1936540">
        <ele>1565.4</ele>
        <time>2022-08-14T18:54:52Z</time>
      </trkpt>
      <trkpt lat="4.4084180" lon="-76.1936830">
        <ele>1565.6</ele>
        <time>2022-08-14T18:54:55Z</time>
      </trkpt>
      <trkpt lat="4.4084100" lon="-76.1936950">
        <ele>1565.8</ele>
        <time>2022-08-14T18:54:56Z</time>
      </trkpt>
      <trkpt lat="4.4083800" lon="-76.1937190">
        <ele>1566.4</ele>
        <time>2022-08-14T18:54:58Z</time>
      </trkpt>
      <trkpt lat="4.4083780" lon="-76.1937280">
        <ele>1566.6</ele>
        <time>2022-08-14T18:54:59Z</time>
      </trkpt>
      <trkpt lat="4.4083730" lon="-76.1937810">
        <ele>1566.8</ele>
        <time>2022-08-14T18:55:01Z</time>
      </trkpt>
      <trkpt lat="4.4083500" lon="-76.1938120">
        <ele>1567.0</ele>
        <time>2022-08-14T18:55:02Z</time>
      </trkpt>
      <trkpt lat="4.4083150" lon="-76.1938430">
        <ele>1567.4</ele>
        <time>2022-08-14T18:55:04Z</time>
      </trkpt>
      <trkpt lat="4.4082820" lon="-76.1938910">
        <ele>1568.0</ele>
        <time>2022-08-14T18:55:07Z</time>
      </trkpt>
      <trkpt lat="4.4082520" lon="-76.1939170">
        <ele>1568.8</ele>
        <time>2022-08-14T18:55:10Z</time>
      </trkpt>
      <trkpt lat="4.4082060" lon="-76.1939310">
        <ele>1569.0</ele>
        <time>2022-08-14T18:55:13Z</time>
      </trkpt>
      <trkpt lat="4.4081980" lon="-76.1939360">
        <ele>1569.2</ele>
        <time>2022-08-14T18:55:14Z</time>
      </trkpt>
      <trkpt lat="4.4081950" lon="-76.1939410">
        <ele>1569.2</ele>
        <time>2022-08-14T18:55:15Z</time>
      </trkpt>
      <trkpt lat="4.4081290" lon="-76.1939790">
        <ele>1570.0</ele>
        <time>2022-08-14T18:55:20Z</time>
      </trkpt>
      <trkpt lat="4.4081150" lon="-76.1939780">
        <ele>1570.2</ele>
        <time>2022-08-14T18:55:21Z</time>
      </trkpt>
      <trkpt lat="4.4080180" lon="-76.1939200">
        <ele>1571.2</ele>
        <time>2022-08-14T18:55:28Z</time>
      </trkpt>
      <trkpt lat="4.4080060" lon="-76.1939160">
        <ele>1571.2</ele>
        <time>2022-08-14T18:55:29Z</time>
      </trkpt>
      <trkpt lat="4.4079520" lon="-76.1938750">
        <ele>1572.2</ele>
        <time>2022-08-14T18:55:34Z</time>
      </trkpt>
      <trkpt lat="4.4079250" lon="-76.1938530">
        <ele>1572.6</ele>
        <time>2022-08-14T18:55:36Z</time>
      </trkpt>
      <trkpt lat="4.4079110" lon="-76.1938470">
        <ele>1572.8</ele>
        <time>2022-08-14T18:55:37Z</time>
      </trkpt>
      <trkpt lat="4.4078960" lon="-76.1938430">
        <ele>1573.0</ele>
        <time>2022-08-14T18:55:38Z</time>
      </trkpt>
      <trkpt lat="4.4078780" lon="-76.1938350">
        <ele>1573.2</ele>
        <time>2022-08-14T18:55:39Z</time>
      </trkpt>
      <trkpt lat="4.4078600" lon="-76.1938320">
        <ele>1573.2</ele>
        <time>2022-08-14T18:55:40Z</time>
      </trkpt>
      <trkpt lat="4.4077870" lon="-76.1938090">
        <ele>1574.2</ele>
        <time>2022-08-14T18:55:45Z</time>
      </trkpt>
      <trkpt lat="4.4077680" lon="-76.1937990">
        <ele>1574.4</ele>
        <time>2022-08-14T18:55:46Z</time>
      </trkpt>
      <trkpt lat="4.4077260" lon="-76.1937960">
        <ele>1574.6</ele>
        <time>2022-08-14T18:55:48Z</time>
      </trkpt>
      <trkpt lat="4.4076970" lon="-76.1938010">
        <ele>1575.2</ele>
        <time>2022-08-14T18:55:50Z</time>
      </trkpt>
      <trkpt lat="4.4076010" lon="-76.1938490">
        <ele>1576.2</ele>
        <time>2022-08-14T18:55:56Z</time>
      </trkpt>
      <trkpt lat="4.4075850" lon="-76.1938540">
        <ele>1576.2</ele>
        <time>2022-08-14T18:55:57Z</time>
      </trkpt>
      <trkpt lat="4.4074690" lon="-76.1938700">
        <ele>1577.2</ele>
        <time>2022-08-14T18:56:04Z</time>
      </trkpt>
      <trkpt lat="4.4073670" lon="-76.1938470">
        <ele>1578.2</ele>
        <time>2022-08-14T18:56:10Z</time>
      </trkpt>
      <trkpt lat="4.4073520" lon="-76.1938430">
        <ele>1578.2</ele>
        <time>2022-08-14T18:56:11Z</time>
      </trkpt>
      <trkpt lat="4.4072930" lon="-76.1937830">
        <ele>1579.2</ele>
        <time>2022-08-14T18:56:16Z</time>
      </trkpt>
      <trkpt lat="4.4072700" lon="-76.1937490">
        <ele>1579.4</ele>
        <time>2022-08-14T18:56:18Z</time>
      </trkpt>
      <trkpt lat="4.4071920" lon="-76.1936710">
        <ele>1580.6</ele>
        <time>2022-08-14T18:56:24Z</time>
      </trkpt>
      <trkpt lat="4.4071330" lon="-76.1935970">
        <ele>1581.4</ele>
        <time>2022-08-14T18:56:29Z</time>
      </trkpt>
      <trkpt lat="4.4071020" lon="-76.1935800">
        <ele>1581.6</ele>
        <time>2022-08-14T18:56:31Z</time>
      </trkpt>
      <trkpt lat="4.4070480" lon="-76.1935410">
        <ele>1582.2</ele>
        <time>2022-08-14T18:56:35Z</time>
      </trkpt>
      <trkpt lat="4.4070260" lon="-76.1935210">
        <ele>1582.4</ele>
        <time>2022-08-14T18:56:37Z</time>
      </trkpt>
      <trkpt lat="4.4069620" lon="-76.1934750">
        <ele>1583.4</ele>
        <time>2022-08-14T18:56:42Z</time>
      </trkpt>
      <trkpt lat="4.4069490" lon="-76.1934620">
        <ele>1583.6</ele>
        <time>2022-08-14T18:56:43Z</time>
      </trkpt>
      <trkpt lat="4.4069260" lon="-76.1934430">
        <ele>1584.2</ele>
        <time>2022-08-14T18:56:45Z</time>
      </trkpt>
      <trkpt lat="4.4069000" lon="-76.1934140">
        <ele>1584.4</ele>
        <time>2022-08-14T18:56:47Z</time>
      </trkpt>
      <trkpt lat="4.4068860" lon="-76.1934020">
        <ele>1584.6</ele>
        <time>2022-08-14T18:56:48Z</time>
      </trkpt>
      <trkpt lat="4.4068690" lon="-76.1933890">
        <ele>1584.8</ele>
        <time>2022-08-14T18:56:49Z</time>
      </trkpt>
      <trkpt lat="4.4068230" lon="-76.1933070">
        <ele>1585.4</ele>
        <time>2022-08-14T18:56:54Z</time>
      </trkpt>
      <trkpt lat="4.4068090" lon="-76.1932620">
        <ele>1585.6</ele>
        <time>2022-08-14T18:56:57Z</time>
      </trkpt>
      <trkpt lat="4.4067910" lon="-76.1931940">
        <ele>1586.4</ele>
        <time>2022-08-14T18:57:01Z</time>
      </trkpt>
      <trkpt lat="4.4067610" lon="-76.1931360">
        <ele>1586.8</ele>
        <time>2022-08-14T18:57:04Z</time>
      </trkpt>
      <trkpt lat="4.4067170" lon="-76.1930780">
        <ele>1587.4</ele>
        <time>2022-08-14T18:57:08Z</time>
      </trkpt>
      <trkpt lat="4.4066990" lon="-76.1930500">
        <ele>1588.0</ele>
        <time>2022-08-14T18:57:10Z</time>
      </trkpt>
      <trkpt lat="4.4066770" lon="-76.1930270">
        <ele>1588.4</ele>
        <time>2022-08-14T18:57:12Z</time>
      </trkpt>
      <trkpt lat="4.4066300" lon="-76.1930010">
        <ele>1589.0</ele>
        <time>2022-08-14T18:57:15Z</time>
      </trkpt>
      <trkpt lat="4.4066130" lon="-76.1929920">
        <ele>1589.0</ele>
        <time>2022-08-14T18:57:16Z</time>
      </trkpt>
      <trkpt lat="4.4065180" lon="-76.1929650">
        <ele>1590.0</ele>
        <time>2022-08-14T18:57:22Z</time>
      </trkpt>
      <trkpt lat="4.4065030" lon="-76.1929730">
        <ele>1590.2</ele>
        <time>2022-08-14T18:57:23Z</time>
      </trkpt>
      <trkpt lat="4.4064320" lon="-76.1930430">
        <ele>1591.4</ele>
        <time>2022-08-14T18:57:29Z</time>
      </trkpt>
      <trkpt lat="4.4064290" lon="-76.1931470">
        <ele>1592.2</ele>
        <time>2022-08-14T18:57:35Z</time>
      </trkpt>
      <trkpt lat="4.4064390" lon="-76.1931820">
        <ele>1592.2</ele>
        <time>2022-08-14T18:57:37Z</time>
      </trkpt>
      <trkpt lat="4.4064920" lon="-76.1933080">
        <ele>1593.0</ele>
        <time>2022-08-14T18:57:44Z</time>
      </trkpt>
      <trkpt lat="4.4065220" lon="-76.1933730">
        <ele>1593.4</ele>
        <time>2022-08-14T18:57:48Z</time>
      </trkpt>
      <trkpt lat="4.4065810" lon="-76.1935320">
        <ele>1594.4</ele>
        <time>2022-08-14T18:57:57Z</time>
      </trkpt>
      <trkpt lat="4.4066240" lon="-76.1936650">
        <ele>1595.4</ele>
        <time>2022-08-14T18:58:05Z</time>
      </trkpt>
      <trkpt lat="4.4066310" lon="-76.1937010">
        <ele>1595.6</ele>
        <time>2022-08-14T18:58:07Z</time>
      </trkpt>
      <trkpt lat="4.4066370" lon="-76.1937930">
        <ele>1596.4</ele>
        <time>2022-08-14T18:58:13Z</time>
      </trkpt>
      <trkpt lat="4.4066280" lon="-76.1938390">
        <ele>1597.0</ele>
        <time>2022-08-14T18:58:16Z</time>
      </trkpt>
      <trkpt lat="4.4066140" lon="-76.1938790">
        <ele>1597.4</ele>
        <time>2022-08-14T18:58:19Z</time>
      </trkpt>
      <trkpt lat="4.4065940" lon="-76.1939820">
        <ele>1598.6</ele>
        <time>2022-08-14T18:58:26Z</time>
      </trkpt>
      <trkpt lat="4.4065910" lon="-76.1939960">
        <ele>1598.8</ele>
        <time>2022-08-14T18:58:27Z</time>
      </trkpt>
      <trkpt lat="4.4065700" lon="-76.1940700">
        <ele>1599.4</ele>
        <time>2022-08-14T18:58:32Z</time>
      </trkpt>
      <trkpt lat="4.4065330" lon="-76.1941410">
        <ele>1600.4</ele>
        <time>2022-08-14T18:58:39Z</time>
      </trkpt>
      <trkpt lat="4.4065290" lon="-76.1941520">
        <ele>1600.6</ele>
        <time>2022-08-14T18:58:40Z</time>
      </trkpt>
      <trkpt lat="4.4064720" lon="-76.1942520">
        <ele>1601.6</ele>
        <time>2022-08-14T18:58:47Z</time>
      </trkpt>
      <trkpt lat="4.4064330" lon="-76.1943010">
        <ele>1602.4</ele>
        <time>2022-08-14T18:58:51Z</time>
      </trkpt>
      <trkpt lat="4.4064240" lon="-76.1943150">
        <ele>1602.8</ele>
        <time>2022-08-14T18:58:52Z</time>
      </trkpt>
      <trkpt lat="4.4063970" lon="-76.1943420">
        <ele>1603.2</ele>
        <time>2022-08-14T18:58:55Z</time>
      </trkpt>
      <trkpt lat="4.4063520" lon="-76.1943700">
        <ele>1603.6</ele>
        <time>2022-08-14T18:58:58Z</time>
      </trkpt>
      <trkpt lat="4.4063360" lon="-76.1943780">
        <ele>1603.8</ele>
        <time>2022-08-14T18:58:59Z</time>
      </trkpt>
      <trkpt lat="4.4062840" lon="-76.1944060">
        <ele>1604.2</ele>
        <time>2022-08-14T18:59:02Z</time>
      </trkpt>
      <trkpt lat="4.4062280" lon="-76.1944390">
        <ele>1605.0</ele>
        <time>2022-08-14T18:59:06Z</time>
      </trkpt>
      <trkpt lat="4.4061990" lon="-76.1944530">
        <ele>1605.4</ele>
        <time>2022-08-14T18:59:08Z</time>
      </trkpt>
      <trkpt lat="4.4061370" lon="-76.1944640">
        <ele>1606.2</ele>
        <time>2022-08-14T18:59:12Z</time>
      </trkpt>
      <trkpt lat="4.4060770" lon="-76.1944920">
        <ele>1606.6</ele>
        <time>2022-08-14T18:59:15Z</time>
      </trkpt>
      <trkpt lat="4.4060500" lon="-76.1945010">
        <ele>1607.2</ele>
        <time>2022-08-14T18:59:17Z</time>
      </trkpt>
      <trkpt lat="4.4060060" lon="-76.1945090">
        <ele>1607.8</ele>
        <time>2022-08-14T18:59:20Z</time>
      </trkpt>
      <trkpt lat="4.4059760" lon="-76.1945260">
        <ele>1608.2</ele>
        <time>2022-08-14T18:59:22Z</time>
      </trkpt>
      <trkpt lat="4.4059590" lon="-76.1945330">
        <ele>1608.4</ele>
        <time>2022-08-14T18:59:23Z</time>
      </trkpt>
      <trkpt lat="4.4058550" lon="-76.1945740">
        <ele>1609.4</ele>
        <time>2022-08-14T18:59:30Z</time>
      </trkpt>
      <trkpt lat="4.4058390" lon="-76.1945790">
        <ele>1609.6</ele>
        <time>2022-08-14T18:59:31Z</time>
      </trkpt>
      <trkpt lat="4.4057530" lon="-76.1946230">
        <ele>1610.4</ele>
        <time>2022-08-14T18:59:37Z</time>
      </trkpt>
      <trkpt lat="4.4056960" lon="-76.1946580">
        <ele>1611.2</ele>
        <time>2022-08-14T18:59:42Z</time>
      </trkpt>
      <trkpt lat="4.4056740" lon="-76.1946770">
        <ele>1611.4</ele>
        <time>2022-08-14T18:59:44Z</time>
      </trkpt>
      <trkpt lat="4.4056190" lon="-76.1947350">
        <ele>1612.4</ele>
        <time>2022-08-14T18:59:49Z</time>
      </trkpt>
      <trkpt lat="4.4055870" lon="-76.1947620">
        <ele>1612.6</ele>
        <time>2022-08-14T18:59:52Z</time>
      </trkpt>
      <trkpt lat="4.4055450" lon="-76.1947820">
        <ele>1613.2</ele>
        <time>2022-08-14T18:59:55Z</time>
      </trkpt>
      <trkpt lat="4.4055170" lon="-76.1947990">
        <ele>1613.6</ele>
        <time>2022-08-14T18:59:57Z</time>
      </trkpt>
      <trkpt lat="4.4054360" lon="-76.1948520">
        <ele>1614.4</ele>
        <time>2022-08-14T19:00:03Z</time>
      </trkpt>
      <trkpt lat="4.4054220" lon="-76.1948560">
        <ele>1614.8</ele>
        <time>2022-08-14T19:00:04Z</time>
      </trkpt>
      <trkpt lat="4.4054100" lon="-76.1948640">
        <ele>1615.0</ele>
        <time>2022-08-14T19:00:05Z</time>
      </trkpt>
      <trkpt lat="4.4053800" lon="-76.1948980">
        <ele>1615.6</ele>
        <time>2022-08-14T19:00:08Z</time>
      </trkpt>
      <trkpt lat="4.4053670" lon="-76.1949300">
        <ele>1616.2</ele>
        <time>2022-08-14T19:00:10Z</time>
      </trkpt>
      <trkpt lat="4.4053510" lon="-76.1949700">
        <ele>1616.8</ele>
        <time>2022-08-14T19:00:12Z</time>
      </trkpt>
      <trkpt lat="4.4053560" lon="-76.1950490">
        <ele>1617.6</ele>
        <time>2022-08-14T19:00:17Z</time>
      </trkpt>
      <trkpt lat="4.4053590" lon="-76.1950650">
        <ele>1617.8</ele>
        <time>2022-08-14T19:00:18Z</time>
      </trkpt>
      <trkpt lat="4.4053840" lon="-76.1951360">
        <ele>1618.8</ele>
        <time>2022-08-14T19:00:23Z</time>
      </trkpt>
      <trkpt lat="4.4054350" lon="-76.1952120">
        <ele>1619.8</ele>
        <time>2022-08-14T19:00:29Z</time>
      </trkpt>
      <trkpt lat="4.4054400" lon="-76.1952290">
        <ele>1620.2</ele>
        <time>2022-08-14T19:00:30Z</time>
      </trkpt>
      <trkpt lat="4.4054460" lon="-76.1952450">
        <ele>1620.2</ele>
        <time>2022-08-14T19:00:31Z</time>
      </trkpt>
      <trkpt lat="4.4054530" lon="-76.1953020">
        <ele>1620.8</ele>
        <time>2022-08-14T19:00:34Z</time>
      </trkpt>
      <trkpt lat="4.4054640" lon="-76.1953230">
        <ele>1621.0</ele>
        <time>2022-08-14T19:00:35Z</time>
      </trkpt>
      <trkpt lat="4.4055200" lon="-76.1954530">
        <ele>1621.8</ele>
        <time>2022-08-14T19:00:42Z</time>
      </trkpt>
      <trkpt lat="4.4055220" lon="-76.1954770">
        <ele>1622.0</ele>
        <time>2022-08-14T19:00:43Z</time>
      </trkpt>
      <trkpt lat="4.4055500" lon="-76.1955430">
        <ele>1622.8</ele>
        <time>2022-08-14T19:00:47Z</time>
      </trkpt>
      <trkpt lat="4.4055580" lon="-76.1955970">
        <ele>1623.0</ele>
        <time>2022-08-14T19:00:50Z</time>
      </trkpt>
      <trkpt lat="4.4055610" lon="-76.1956570">
        <ele>1623.6</ele>
        <time>2022-08-14T19:00:53Z</time>
      </trkpt>
      <trkpt lat="4.4055810" lon="-76.1957390">
        <ele>1624.4</ele>
        <time>2022-08-14T19:00:57Z</time>
      </trkpt>
      <trkpt lat="4.4055870" lon="-76.1957560">
        <ele>1624.8</ele>
        <time>2022-08-14T19:00:58Z</time>
      </trkpt>
      <trkpt lat="4.4055900" lon="-76.1957790">
        <ele>1624.8</ele>
        <time>2022-08-14T19:00:59Z</time>
      </trkpt>
      <trkpt lat="4.4056010" lon="-76.1958350">
        <ele>1625.4</ele>
        <time>2022-08-14T19:01:02Z</time>
      </trkpt>
      <trkpt lat="4.4056080" lon="-76.1958960">
        <ele>1626.0</ele>
        <time>2022-08-14T19:01:05Z</time>
      </trkpt>
      <trkpt lat="4.4056080" lon="-76.1959700">
        <ele>1626.4</ele>
        <time>2022-08-14T19:01:09Z</time>
      </trkpt>
      <trkpt lat="4.4056200" lon="-76.1960150">
        <ele>1626.8</ele>
        <time>2022-08-14T19:01:11Z</time>
      </trkpt>
      <trkpt lat="4.4056410" lon="-76.1960880">
        <ele>1627.6</ele>
        <time>2022-08-14T19:01:15Z</time>
      </trkpt>
      <trkpt lat="4.4056570" lon="-76.1961180">
        <ele>1628.0</ele>
        <time>2022-08-14T19:01:17Z</time>
      </trkpt>
      <trkpt lat="4.4056850" lon="-76.1961920">
        <ele>1628.6</ele>
        <time>2022-08-14T19:01:21Z</time>
      </trkpt>
      <trkpt lat="4.4057070" lon="-76.1962740">
        <ele>1629.2</ele>
        <time>2022-08-14T19:01:25Z</time>
      </trkpt>
      <trkpt lat="4.4057140" lon="-76.1963080">
        <ele>1629.8</ele>
        <time>2022-08-14T19:01:27Z</time>
      </trkpt>
      <trkpt lat="4.4057080" lon="-76.1963700">
        <ele>1630.4</ele>
        <time>2022-08-14T19:01:30Z</time>
      </trkpt>
      <trkpt lat="4.4056710" lon="-76.1964290">
        <ele>1631.0</ele>
        <time>2022-08-14T19:01:34Z</time>
      </trkpt>
      <trkpt lat="4.4056540" lon="-76.1964400">
        <ele>1631.2</ele>
        <time>2022-08-14T19:01:35Z</time>
      </trkpt>
      <trkpt lat="4.4056350" lon="-76.1964450">
        <ele>1631.4</ele>
        <time>2022-08-14T19:01:36Z</time>
      </trkpt>
      <trkpt lat="4.4055050" lon="-76.1964600">
        <ele>1632.0</ele>
        <time>2022-08-14T19:01:42Z</time>
      </trkpt>
      <trkpt lat="4.4054770" lon="-76.1964580">
        <ele>1632.0</ele>
        <time>2022-08-14T19:01:43Z</time>
      </trkpt>
      <trkpt lat="4.4054280" lon="-76.1964590">
        <ele>1632.2</ele>
        <time>2022-08-14T19:01:45Z</time>
      </trkpt>
      <trkpt lat="4.4053460" lon="-76.1964630">
        <ele>1632.6</ele>
        <time>2022-08-14T19:01:48Z</time>
      </trkpt>
      <trkpt lat="4.4052600" lon="-76.1964640">
        <ele>1632.8</ele>
        <time>2022-08-14T19:01:51Z</time>
      </trkpt>
      <trkpt lat="4.4052380" lon="-76.1964640">
        <ele>1633.0</ele>
        <time>2022-08-14T19:01:52Z</time>
      </trkpt>
      <trkpt lat="4.4050840" lon="-76.1964850">
        <ele>1633.4</ele>
        <time>2022-08-14T19:01:58Z</time>
      </trkpt>
      <trkpt lat="4.4049750" lon="-76.1965420">
        <ele>1634.0</ele>
        <time>2022-08-14T19:02:03Z</time>
      </trkpt>
      <trkpt lat="4.4049540" lon="-76.1965520">
        <ele>1634.2</ele>
        <time>2022-08-14T19:02:04Z</time>
      </trkpt>
      <trkpt lat="4.4048330" lon="-76.1966000">
        <ele>1635.0</ele>
        <time>2022-08-14T19:02:09Z</time>
      </trkpt>
      <trkpt lat="4.4047710" lon="-76.1966340">
        <ele>1635.6</ele>
        <time>2022-08-14T19:02:12Z</time>
      </trkpt>
      <trkpt lat="4.4047230" lon="-76.1966640">
        <ele>1636.0</ele>
        <time>2022-08-14T19:02:14Z</time>
      </trkpt>
      <trkpt lat="4.4046290" lon="-76.1967390">
        <ele>1637.2</ele>
        <time>2022-08-14T19:02:19Z</time>
      </trkpt>
      <trkpt lat="4.4045880" lon="-76.1967860">
        <ele>1637.6</ele>
        <time>2022-08-14T19:02:22Z</time>
      </trkpt>
      <trkpt lat="4.4045750" lon="-76.1968330">
        <ele>1638.2</ele>
        <time>2022-08-14T19:02:24Z</time>
      </trkpt>
      <trkpt lat="4.4045730" lon="-76.1968560">
        <ele>1638.6</ele>
        <time>2022-08-14T19:02:25Z</time>
      </trkpt>
      <trkpt lat="4.4045720" lon="-76.1968980">
        <ele>1639.0</ele>
        <time>2022-08-14T19:02:27Z</time>
      </trkpt>
      <trkpt lat="4.4045750" lon="-76.1969340">
        <ele>1639.4</ele>
        <time>2022-08-14T19:02:29Z</time>
      </trkpt>
      <trkpt lat="4.4045900" lon="-76.1970040">
        <ele>1640.4</ele>
        <time>2022-08-14T19:02:33Z</time>
      </trkpt>
      <trkpt lat="4.4046020" lon="-76.1970560">
        <ele>1641.2</ele>
        <time>2022-08-14T19:02:36Z</time>
      </trkpt>
      <trkpt lat="4.4046040" lon="-76.1970750">
        <ele>1641.4</ele>
        <time>2022-08-14T19:02:37Z</time>
      </trkpt>
      <trkpt lat="4.4046150" lon="-76.1972010">
        <ele>1642.4</ele>
        <time>2022-08-14T19:02:43Z</time>
      </trkpt>
      <trkpt lat="4.4046220" lon="-76.1972350">
        <ele>1642.8</ele>
        <time>2022-08-14T19:02:45Z</time>
      </trkpt>
      <trkpt lat="4.4046140" lon="-76.1973240">
        <ele>1643.2</ele>
        <time>2022-08-14T19:02:50Z</time>
      </trkpt>
      <trkpt lat="4.4046260" lon="-76.1974030">
        <ele>1644.0</ele>
        <time>2022-08-14T19:02:55Z</time>
      </trkpt>
      <trkpt lat="4.4046340" lon="-76.1974500">
        <ele>1644.4</ele>
        <time>2022-08-14T19:02:58Z</time>
      </trkpt>
      <trkpt lat="4.4046460" lon="-76.1975080">
        <ele>1645.4</ele>
        <time>2022-08-14T19:03:02Z</time>
      </trkpt>
      <trkpt lat="4.4046480" lon="-76.1975210">
        <ele>1645.4</ele>
        <time>2022-08-14T19:03:03Z</time>
      </trkpt>
      <trkpt lat="4.4046530" lon="-76.1975910">
        <ele>1646.6</ele>
        <time>2022-08-14T19:03:08Z</time>
      </trkpt>
      <trkpt lat="4.4046690" lon="-76.1976770">
        <ele>1647.6</ele>
        <time>2022-08-14T19:03:14Z</time>
      </trkpt>
      <trkpt lat="4.4046790" lon="-76.1977220">
        <ele>1648.2</ele>
        <time>2022-08-14T19:03:17Z</time>
      </trkpt>
      <trkpt lat="4.4046880" lon="-76.1977640">
        <ele>1648.6</ele>
        <time>2022-08-14T19:03:20Z</time>
      </trkpt>
      <trkpt lat="4.4046900" lon="-76.1978660">
        <ele>1649.8</ele>
        <time>2022-08-14T19:03:26Z</time>
      </trkpt>
      <trkpt lat="4.4046350" lon="-76.1979690">
        <ele>1650.4</ele>
        <time>2022-08-14T19:03:33Z</time>
      </trkpt>
      <trkpt lat="4.4046090" lon="-76.1980140">
        <ele>1650.6</ele>
        <time>2022-08-14T19:03:36Z</time>
      </trkpt>
      <trkpt lat="4.4045690" lon="-76.1980990">
        <ele>1651.4</ele>
        <time>2022-08-14T19:03:42Z</time>
      </trkpt>
      <trkpt lat="4.4045630" lon="-76.1981270">
        <ele>1651.8</ele>
        <time>2022-08-14T19:03:44Z</time>
      </trkpt>
      <trkpt lat="4.4045620" lon="-76.1982210">
        <ele>1652.8</ele>
        <time>2022-08-14T19:03:50Z</time>
      </trkpt>
      <trkpt lat="4.4045690" lon="-76.1982990">
        <ele>1653.8</ele>
        <time>2022-08-14T19:03:55Z</time>
      </trkpt>
      <trkpt lat="4.4045640" lon="-76.1983480">
        <ele>1654.4</ele>
        <time>2022-08-14T19:03:58Z</time>
      </trkpt>
      <trkpt lat="4.4045460" lon="-76.1983910">
        <ele>1654.8</ele>
        <time>2022-08-14T19:04:01Z</time>
      </trkpt>
      <trkpt lat="4.4045070" lon="-76.1984520">
        <ele>1655.8</ele>
        <time>2022-08-14T19:04:06Z</time>
      </trkpt>
      <trkpt lat="4.4044930" lon="-76.1984610">
        <ele>1655.8</ele>
        <time>2022-08-14T19:04:07Z</time>
      </trkpt>
      <trkpt lat="4.4044320" lon="-76.1985040">
        <ele>1657.0</ele>
        <time>2022-08-14T19:04:12Z</time>
      </trkpt>
      <trkpt lat="4.4044060" lon="-76.1985370">
        <ele>1657.6</ele>
        <time>2022-08-14T19:04:15Z</time>
      </trkpt>
      <trkpt lat="4.4043910" lon="-76.1985620">
        <ele>1658.0</ele>
        <time>2022-08-14T19:04:17Z</time>
      </trkpt>
      <trkpt lat="4.4043450" lon="-76.1986160">
        <ele>1659.2</ele>
        <time>2022-08-14T19:04:22Z</time>
      </trkpt>
      <trkpt lat="4.4043290" lon="-76.1986410">
        <ele>1659.6</ele>
        <time>2022-08-14T19:04:24Z</time>
      </trkpt>
      <trkpt lat="4.4042870" lon="-76.1986870">
        <ele>1660.2</ele>
        <time>2022-08-14T19:04:28Z</time>
      </trkpt>
      <trkpt lat="4.4042130" lon="-76.1987350">
        <ele>1661.2</ele>
        <time>2022-08-14T19:04:34Z</time>
      </trkpt>
      <trkpt lat="4.4042000" lon="-76.1987420">
        <ele>1661.4</ele>
        <time>2022-08-14T19:04:35Z</time>
      </trkpt>
      <trkpt lat="4.4041230" lon="-76.1987790">
        <ele>1662.4</ele>
        <time>2022-08-14T19:04:41Z</time>
      </trkpt>
      <trkpt lat="4.4041100" lon="-76.1987870">
        <ele>1662.6</ele>
        <time>2022-08-14T19:04:42Z</time>
      </trkpt>
      <trkpt lat="4.4040450" lon="-76.1988280">
        <ele>1663.6</ele>
        <time>2022-08-14T19:04:47Z</time>
      </trkpt>
      <trkpt lat="4.4039940" lon="-76.1988800">
        <ele>1664.2</ele>
        <time>2022-08-14T19:04:52Z</time>
      </trkpt>
      <trkpt lat="4.4039790" lon="-76.1989050">
        <ele>1664.6</ele>
        <time>2022-08-14T19:04:54Z</time>
      </trkpt>
      <trkpt lat="4.4039450" lon="-76.1989710">
        <ele>1665.4</ele>
        <time>2022-08-14T19:04:59Z</time>
      </trkpt>
      <trkpt lat="4.4039310" lon="-76.1989980">
        <ele>1665.8</ele>
        <time>2022-08-14T19:05:01Z</time>
      </trkpt>
      <trkpt lat="4.4039050" lon="-76.1990570">
        <ele>1666.6</ele>
        <time>2022-08-14T19:05:05Z</time>
      </trkpt>
      <trkpt lat="4.4038820" lon="-76.1991110">
        <ele>1667.2</ele>
        <time>2022-08-14T19:05:09Z</time>
      </trkpt>
      <trkpt lat="4.4038700" lon="-76.1991430">
        <ele>1667.6</ele>
        <time>2022-08-14T19:05:11Z</time>
      </trkpt>
      <trkpt lat="4.4038470" lon="-76.1992480">
        <ele>1668.4</ele>
        <time>2022-08-14T19:05:17Z</time>
      </trkpt>
      <trkpt lat="4.4038460" lon="-76.1992650">
        <ele>1668.6</ele>
        <time>2022-08-14T19:05:18Z</time>
      </trkpt>
      <trkpt lat="4.4038490" lon="-76.1992780">
        <ele>1668.6</ele>
        <time>2022-08-14T19:05:19Z</time>
      </trkpt>
      <trkpt lat="4.4038590" lon="-76.1993170">
        <ele>1669.2</ele>
        <time>2022-08-14T19:05:22Z</time>
      </trkpt>
      <trkpt lat="4.4038600" lon="-76.1993690">
        <ele>1669.6</ele>
        <time>2022-08-14T19:05:25Z</time>
      </trkpt>
      <trkpt lat="4.4038680" lon="-76.1993940">
        <ele>1670.0</ele>
        <time>2022-08-14T19:05:27Z</time>
      </trkpt>
      <trkpt lat="4.4038660" lon="-76.1994130">
        <ele>1670.2</ele>
        <time>2022-08-14T19:05:28Z</time>
      </trkpt>
      <trkpt lat="4.4038740" lon="-76.1994750">
        <ele>1670.4</ele>
        <time>2022-08-14T19:05:31Z</time>
      </trkpt>
      <trkpt lat="4.4038890" lon="-76.1995720">
        <ele>1671.4</ele>
        <time>2022-08-14T19:05:36Z</time>
      </trkpt>
      <trkpt lat="4.4038910" lon="-76.1995880">
        <ele>1671.6</ele>
        <time>2022-08-14T19:05:37Z</time>
      </trkpt>
      <trkpt lat="4.4039040" lon="-76.1996930">
        <ele>1672.4</ele>
        <time>2022-08-14T19:05:43Z</time>
      </trkpt>
      <trkpt lat="4.4039090" lon="-76.1997490">
        <ele>1672.6</ele>
        <time>2022-08-14T19:05:46Z</time>
      </trkpt>
      <trkpt lat="4.4039040" lon="-76.1998390">
        <ele>1673.0</ele>
        <time>2022-08-14T19:05:50Z</time>
      </trkpt>
      <trkpt lat="4.4039070" lon="-76.1998560">
        <ele>1673.2</ele>
        <time>2022-08-14T19:05:51Z</time>
      </trkpt>
      <trkpt lat="4.4039050" lon="-76.1998740">
        <ele>1673.4</ele>
        <time>2022-08-14T19:05:52Z</time>
      </trkpt>
      <trkpt lat="4.4038990" lon="-76.1998950">
        <ele>1673.6</ele>
        <time>2022-08-14T19:05:53Z</time>
      </trkpt>
      <trkpt lat="4.4038460" lon="-76.1999610">
        <ele>1674.6</ele>
        <time>2022-08-14T19:05:58Z</time>
      </trkpt>
      <trkpt lat="4.4037610" lon="-76.1999810">
        <ele>1675.4</ele>
        <time>2022-08-14T19:06:02Z</time>
      </trkpt>
      <trkpt lat="4.4037360" lon="-76.1999760">
        <ele>1675.4</ele>
        <time>2022-08-14T19:06:03Z</time>
      </trkpt>
      <trkpt lat="4.4036000" lon="-76.1999310">
        <ele>1676.6</ele>
        <time>2022-08-14T19:06:09Z</time>
      </trkpt>
      <trkpt lat="4.4034450" lon="-76.1998550">
        <ele>1677.4</ele>
        <time>2022-08-14T19:06:15Z</time>
      </trkpt>
      <trkpt lat="4.4033860" lon="-76.1998310">
        <ele>1677.4</ele>
        <time>2022-08-14T19:06:17Z</time>
      </trkpt>
      <trkpt lat="4.4032450" lon="-76.1997920">
        <ele>1677.8</ele>
        <time>2022-08-14T19:06:22Z</time>
      </trkpt>
      <trkpt lat="4.4031420" lon="-76.1997810">
        <ele>1678.2</ele>
        <time>2022-08-14T19:06:26Z</time>
      </trkpt>
      <trkpt lat="4.4031160" lon="-76.1997720">
        <ele>1678.4</ele>
        <time>2022-08-14T19:06:27Z</time>
      </trkpt>
      <trkpt lat="4.4028850" lon="-76.1997560">
        <ele>1679.4</ele>
        <time>2022-08-14T19:06:35Z</time>
      </trkpt>
      <trkpt lat="4.4027570" lon="-76.1998030">
        <ele>1680.2</ele>
        <time>2022-08-14T19:06:40Z</time>
      </trkpt>
      <trkpt lat="4.4027040" lon="-76.1998970">
        <ele>1681.4</ele>
        <time>2022-08-14T19:06:45Z</time>
      </trkpt>
      <trkpt lat="4.4027000" lon="-76.1999210">
        <ele>1681.6</ele>
        <time>2022-08-14T19:06:46Z</time>
      </trkpt>
      <trkpt lat="4.4026880" lon="-76.1999820">
        <ele>1682.4</ele>
        <time>2022-08-14T19:06:49Z</time>
      </trkpt>
      <trkpt lat="4.4026610" lon="-76.2000780">
        <ele>1683.4</ele>
        <time>2022-08-14T19:06:54Z</time>
      </trkpt>
      <trkpt lat="4.4026500" lon="-76.2001160">
        <ele>1683.8</ele>
        <time>2022-08-14T19:06:56Z</time>
      </trkpt>
      <trkpt lat="4.4026400" lon="-76.2001780">
        <ele>1684.6</ele>
        <time>2022-08-14T19:06:59Z</time>
      </trkpt>
      <trkpt lat="4.4025970" lon="-76.2002480">
        <ele>1685.6</ele>
        <time>2022-08-14T19:07:03Z</time>
      </trkpt>
      <trkpt lat="4.4025830" lon="-76.2002640">
        <ele>1685.8</ele>
        <time>2022-08-14T19:07:04Z</time>
      </trkpt>
      <trkpt lat="4.4025220" lon="-76.2003480">
        <ele>1686.8</ele>
        <time>2022-08-14T19:07:09Z</time>
      </trkpt>
      <trkpt lat="4.4024880" lon="-76.2003980">
        <ele>1687.2</ele>
        <time>2022-08-14T19:07:12Z</time>
      </trkpt>
      <trkpt lat="4.4024730" lon="-76.2004360">
        <ele>1687.6</ele>
        <time>2022-08-14T19:07:14Z</time>
      </trkpt>
      <trkpt lat="4.4024470" lon="-76.2005250">
        <ele>1688.6</ele>
        <time>2022-08-14T19:07:19Z</time>
      </trkpt>
      <trkpt lat="4.4024460" lon="-76.2005410">
        <ele>1688.8</ele>
        <time>2022-08-14T19:07:20Z</time>
      </trkpt>
      <trkpt lat="4.4024390" lon="-76.2006200">
        <ele>1690.0</ele>
        <time>2022-08-14T19:07:25Z</time>
      </trkpt>
      <trkpt lat="4.4024430" lon="-76.2006350">
        <ele>1690.2</ele>
        <time>2022-08-14T19:07:26Z</time>
      </trkpt>
      <trkpt lat="4.4024450" lon="-76.2006950">
        <ele>1690.8</ele>
        <time>2022-08-14T19:07:30Z</time>
      </trkpt>
      <trkpt lat="4.4024500" lon="-76.2007410">
        <ele>1691.6</ele>
        <time>2022-08-14T19:07:33Z</time>
      </trkpt>
      <trkpt lat="4.4024510" lon="-76.2007710">
        <ele>1692.0</ele>
        <time>2022-08-14T19:07:35Z</time>
      </trkpt>
      <trkpt lat="4.4024510" lon="-76.2007870">
        <ele>1692.2</ele>
        <time>2022-08-14T19:07:36Z</time>
      </trkpt>
      <trkpt lat="4.4024520" lon="-76.2008300">
        <ele>1692.6</ele>
        <time>2022-08-14T19:07:39Z</time>
      </trkpt>
      <trkpt lat="4.4024520" lon="-76.2008620">
        <ele>1693.0</ele>
        <time>2022-08-14T19:07:41Z</time>
      </trkpt>
      <trkpt lat="4.4024620" lon="-76.2010040">
        <ele>1694.0</ele>
        <time>2022-08-14T19:07:49Z</time>
      </trkpt>
      <trkpt lat="4.4024660" lon="-76.2010240">
        <ele>1694.2</ele>
        <time>2022-08-14T19:07:50Z</time>
      </trkpt>
      <trkpt lat="4.4024920" lon="-76.2011420">
        <ele>1695.2</ele>
        <time>2022-08-14T19:07:56Z</time>
      </trkpt>
      <trkpt lat="4.4024970" lon="-76.2011580">
        <ele>1695.4</ele>
        <time>2022-08-14T19:07:57Z</time>
      </trkpt>
      <trkpt lat="4.4025080" lon="-76.2012280">
        <ele>1696.0</ele>
        <time>2022-08-14T19:08:01Z</time>
      </trkpt>
      <trkpt lat="4.4025220" lon="-76.2012820">
        <ele>1696.8</ele>
        <time>2022-08-14T19:08:04Z</time>
      </trkpt>
      <trkpt lat="4.4025340" lon="-76.2013400">
        <ele>1697.2</ele>
        <time>2022-08-14T19:08:07Z</time>
      </trkpt>
      <trkpt lat="4.4025370" lon="-76.2013780">
        <ele>1697.6</ele>
        <time>2022-08-14T19:08:09Z</time>
      </trkpt>
      <trkpt lat="4.4025460" lon="-76.2014330">
        <ele>1698.4</ele>
        <time>2022-08-14T19:08:12Z</time>
      </trkpt>
      <trkpt lat="4.4025540" lon="-76.2015050">
        <ele>1699.4</ele>
        <time>2022-08-14T19:08:16Z</time>
      </trkpt>
      <trkpt lat="4.4025690" lon="-76.2015510">
        <ele>1700.2</ele>
        <time>2022-08-14T19:08:19Z</time>
      </trkpt>
      <trkpt lat="4.4025770" lon="-76.2015590">
        <ele>1700.2</ele>
        <time>2022-08-14T19:08:20Z</time>
      </trkpt>
      <trkpt lat="4.4025970" lon="-76.2016090">
        <ele>1701.4</ele>
        <time>2022-08-14T19:08:24Z</time>
      </trkpt>
      <trkpt lat="4.4026030" lon="-76.2016310">
        <ele>1702.0</ele>
        <time>2022-08-14T19:08:26Z</time>
      </trkpt>
      <trkpt lat="4.4026200" lon="-76.2016480">
        <ele>1702.4</ele>
        <time>2022-08-14T19:08:28Z</time>
      </trkpt>
      <trkpt lat="4.4026420" lon="-76.2016570">
        <ele>1702.8</ele>
        <time>2022-08-14T19:08:30Z</time>
      </trkpt>
      <trkpt lat="4.4026760" lon="-76.2017040">
        <ele>1703.6</ele>
        <time>2022-08-14T19:08:34Z</time>
      </trkpt>
      <trkpt lat="4.4027300" lon="-76.2017550">
        <ele>1704.6</ele>
        <time>2022-08-14T19:08:39Z</time>
      </trkpt>
      <trkpt lat="4.4027550" lon="-76.2017760">
        <ele>1705.0</ele>
        <time>2022-08-14T19:08:41Z</time>
      </trkpt>
      <trkpt lat="4.4028070" lon="-76.2018060">
        <ele>1705.8</ele>
        <time>2022-08-14T19:08:45Z</time>
      </trkpt>
      <trkpt lat="4.4028870" lon="-76.2018470">
        <ele>1707.0</ele>
        <time>2022-08-14T19:08:51Z</time>
      </trkpt>
      <trkpt lat="4.4028980" lon="-76.2018510">
        <ele>1707.0</ele>
        <time>2022-08-14T19:08:52Z</time>
      </trkpt>
      <trkpt lat="4.4029760" lon="-76.2018850">
        <ele>1708.0</ele>
        <time>2022-08-14T19:08:58Z</time>
      </trkpt>
      <trkpt lat="4.4030060" lon="-76.2018910">
        <ele>1708.2</ele>
        <time>2022-08-14T19:09:00Z</time>
      </trkpt>
      <trkpt lat="4.4030450" lon="-76.2019050">
        <ele>1709.0</ele>
        <time>2022-08-14T19:09:03Z</time>
      </trkpt>
      <trkpt lat="4.4031210" lon="-76.2019210">
        <ele>1710.0</ele>
        <time>2022-08-14T19:09:08Z</time>
      </trkpt>
      <trkpt lat="4.4032140" lon="-76.2019380">
        <ele>1711.2</ele>
        <time>2022-08-14T19:09:14Z</time>
      </trkpt>
      <trkpt lat="4.4032290" lon="-76.2019430">
        <ele>1711.2</ele>
        <time>2022-08-14T19:09:15Z</time>
      </trkpt>
      <trkpt lat="4.4033150" lon="-76.2020020">
        <ele>1712.0</ele>
        <time>2022-08-14T19:09:22Z</time>
      </trkpt>
      <trkpt lat="4.4033340" lon="-76.2020280">
        <ele>1712.4</ele>
        <time>2022-08-14T19:09:24Z</time>
      </trkpt>
      <trkpt lat="4.4033650" lon="-76.2021070">
        <ele>1713.2</ele>
        <time>2022-08-14T19:09:29Z</time>
      </trkpt>
      <trkpt lat="4.4033850" lon="-76.2021730">
        <ele>1713.8</ele>
        <time>2022-08-14T19:09:33Z</time>
      </trkpt>
      <trkpt lat="4.4033940" lon="-76.2022080">
        <ele>1714.2</ele>
        <time>2022-08-14T19:09:35Z</time>
      </trkpt>
      <trkpt lat="4.4034240" lon="-76.2023410">
        <ele>1715.4</ele>
        <time>2022-08-14T19:09:43Z</time>
      </trkpt>
      <trkpt lat="4.4034270" lon="-76.2023560">
        <ele>1715.6</ele>
        <time>2022-08-14T19:09:44Z</time>
      </trkpt>
      <trkpt lat="4.4034670" lon="-76.2024660">
        <ele>1716.4</ele>
        <time>2022-08-14T19:09:51Z</time>
      </trkpt>
      <trkpt lat="4.4034690" lon="-76.2024820">
        <ele>1716.8</ele>
        <time>2022-08-14T19:09:52Z</time>
      </trkpt>
      <trkpt lat="4.4034710" lon="-76.2025670">
        <ele>1717.4</ele>
        <time>2022-08-14T19:09:57Z</time>
      </trkpt>
      <trkpt lat="4.4034700" lon="-76.2026280">
        <ele>1717.8</ele>
        <time>2022-08-14T19:10:01Z</time>
      </trkpt>
      <trkpt lat="4.4034720" lon="-76.2026900">
        <ele>1718.4</ele>
        <time>2022-08-14T19:10:05Z</time>
      </trkpt>
      <trkpt lat="4.4034700" lon="-76.2027590">
        <ele>1719.2</ele>
        <time>2022-08-14T19:10:09Z</time>
      </trkpt>
      <trkpt lat="4.4034740" lon="-76.2028170">
        <ele>1719.6</ele>
        <time>2022-08-14T19:10:12Z</time>
      </trkpt>
      <trkpt lat="4.4034950" lon="-76.2028930">
        <ele>1720.4</ele>
        <time>2022-08-14T19:10:16Z</time>
      </trkpt>
      <trkpt lat="4.4035050" lon="-76.2029350">
        <ele>1720.8</ele>
        <time>2022-08-14T19:10:18Z</time>
      </trkpt>
      <trkpt lat="4.4035310" lon="-76.2030110">
        <ele>1721.4</ele>
        <time>2022-08-14T19:10:22Z</time>
      </trkpt>
      <trkpt lat="4.4035570" lon="-76.2030690">
        <ele>1721.6</ele>
        <time>2022-08-14T19:10:25Z</time>
      </trkpt>
      <trkpt lat="4.4036000" lon="-76.2031500">
        <ele>1722.0</ele>
        <time>2022-08-14T19:10:29Z</time>
      </trkpt>
      <trkpt lat="4.4036670" lon="-76.2032720">
        <ele>1722.6</ele>
        <time>2022-08-14T19:10:35Z</time>
      </trkpt>
      <trkpt lat="4.4036970" lon="-76.2033100">
        <ele>1722.6</ele>
        <time>2022-08-14T19:10:37Z</time>
      </trkpt>
      <trkpt lat="4.4037090" lon="-76.2033310">
        <ele>1722.6</ele>
        <time>2022-08-14T19:10:38Z</time>
      </trkpt>
      <trkpt lat="4.4038000" lon="-76.2034680">
        <ele>1723.4</ele>
        <time>2022-08-14T19:10:45Z</time>
      </trkpt>
      <trkpt lat="4.4038330" lon="-76.2035240">
        <ele>1723.6</ele>
        <time>2022-08-14T19:10:48Z</time>
      </trkpt>
      <trkpt lat="4.4038970" lon="-76.2036200">
        <ele>1724.2</ele>
        <time>2022-08-14T19:10:53Z</time>
      </trkpt>
      <trkpt lat="4.4039350" lon="-76.2036500">
        <ele>1724.8</ele>
        <time>2022-08-14T19:10:55Z</time>
      </trkpt>
      <trkpt lat="4.4040470" lon="-76.2037260">
        <ele>1725.4</ele>
        <time>2022-08-14T19:11:01Z</time>
      </trkpt>
      <trkpt lat="4.4040800" lon="-76.2037610">
        <ele>1725.6</ele>
        <time>2022-08-14T19:11:03Z</time>
      </trkpt>
      <trkpt lat="4.4041310" lon="-76.2038630">
        <ele>1726.4</ele>
        <time>2022-08-14T19:11:08Z</time>
      </trkpt>
      <trkpt lat="4.4041560" lon="-76.2039320">
        <ele>1726.8</ele>
        <time>2022-08-14T19:11:11Z</time>
      </trkpt>
      <trkpt lat="4.4041650" lon="-76.2039760">
        <ele>1727.2</ele>
        <time>2022-08-14T19:11:13Z</time>
      </trkpt>
      <trkpt lat="4.4041680" lon="-76.2040130">
        <ele>1727.6</ele>
        <time>2022-08-14T19:11:15Z</time>
      </trkpt>
      <trkpt lat="4.4041700" lon="-76.2040300">
        <ele>1727.8</ele>
        <time>2022-08-14T19:11:16Z</time>
      </trkpt>
      <trkpt lat="4.4041680" lon="-76.2041590">
        <ele>1728.8</ele>
        <time>2022-08-14T19:11:22Z</time>
      </trkpt>
      <trkpt lat="4.4040850" lon="-76.2043000">
        <ele>1730.0</ele>
        <time>2022-08-14T19:11:30Z</time>
      </trkpt>
      <trkpt lat="4.4040310" lon="-76.2044030">
        <ele>1730.8</ele>
        <time>2022-08-14T19:11:35Z</time>
      </trkpt>
      <trkpt lat="4.4040340" lon="-76.2044270">
        <ele>1731.0</ele>
        <time>2022-08-14T19:11:36Z</time>
      </trkpt>
      <trkpt lat="4.4040720" lon="-76.2044960">
        <ele>1732.0</ele>
        <time>2022-08-14T19:11:40Z</time>
      </trkpt>
      <trkpt lat="4.4040880" lon="-76.2045090">
        <ele>1732.2</ele>
        <time>2022-08-14T19:11:41Z</time>
      </trkpt>
      <trkpt lat="4.4041670" lon="-76.2045670">
        <ele>1733.0</ele>
        <time>2022-08-14T19:11:46Z</time>
      </trkpt>
      <trkpt lat="4.4042560" lon="-76.2046250">
        <ele>1734.2</ele>
        <time>2022-08-14T19:11:52Z</time>
      </trkpt>
      <trkpt lat="4.4043050" lon="-76.2046430">
        <ele>1735.2</ele>
        <time>2022-08-14T19:11:55Z</time>
      </trkpt>
      <trkpt lat="4.4043640" lon="-76.2046620">
        <ele>1736.2</ele>
        <time>2022-08-14T19:11:59Z</time>
      </trkpt>
      <trkpt lat="4.4043780" lon="-76.2046690">
        <ele>1736.4</ele>
        <time>2022-08-14T19:12:00Z</time>
      </trkpt>
      <trkpt lat="4.4044700" lon="-76.2046920">
        <ele>1737.2</ele>
        <time>2022-08-14T19:12:06Z</time>
      </trkpt>
      <trkpt lat="4.4044870" lon="-76.2046940">
        <ele>1737.4</ele>
        <time>2022-08-14T19:12:07Z</time>
      </trkpt>
      <trkpt lat="4.4045040" lon="-76.2046960">
        <ele>1737.6</ele>
        <time>2022-08-14T19:12:08Z</time>
      </trkpt>
      <trkpt lat="4.4045880" lon="-76.2047170">
        <ele>1738.4</ele>
        <time>2022-08-14T19:12:13Z</time>
      </trkpt>
      <trkpt lat="4.4046320" lon="-76.2047510">
        <ele>1738.8</ele>
        <time>2022-08-14T19:12:16Z</time>
      </trkpt>
      <trkpt lat="4.4046880" lon="-76.2048670">
        <ele>1739.0</ele>
        <time>2022-08-14T19:12:24Z</time>
      </trkpt>
      <trkpt lat="4.4046800" lon="-76.2048970">
        <ele>1739.2</ele>
        <time>2022-08-14T19:12:26Z</time>
      </trkpt>
      <trkpt lat="4.4046280" lon="-76.2049950">
        <ele>1740.4</ele>
        <time>2022-08-14T19:12:33Z</time>
      </trkpt>
      <trkpt lat="4.4045870" lon="-76.2050590">
        <ele>1741.4</ele>
        <time>2022-08-14T19:12:38Z</time>
      </trkpt>
      <trkpt lat="4.4045460" lon="-76.2051210">
        <ele>1742.2</ele>
        <time>2022-08-14T19:12:43Z</time>
      </trkpt>
      <trkpt lat="4.4045270" lon="-76.2051520">
        <ele>1742.4</ele>
        <time>2022-08-14T19:12:45Z</time>
      </trkpt>
      <trkpt lat="4.4044780" lon="-76.2052320">
        <ele>1743.4</ele>
        <time>2022-08-14T19:12:51Z</time>
      </trkpt>
      <trkpt lat="4.4044710" lon="-76.2052470">
        <ele>1743.6</ele>
        <time>2022-08-14T19:12:52Z</time>
      </trkpt>
      <trkpt lat="4.4044310" lon="-76.2053110">
        <ele>1744.4</ele>
        <time>2022-08-14T19:12:57Z</time>
      </trkpt>
      <trkpt lat="4.4044240" lon="-76.2053250">
        <ele>1744.6</ele>
        <time>2022-08-14T19:12:58Z</time>
      </trkpt>
      <trkpt lat="4.4043970" lon="-76.2053780">
        <ele>1744.8</ele>
        <time>2022-08-14T19:13:02Z</time>
      </trkpt>
      <trkpt lat="4.4043810" lon="-76.2054220">
        <ele>1745.4</ele>
        <time>2022-08-14T19:13:05Z</time>
      </trkpt>
      <trkpt lat="4.4043710" lon="-76.2055160">
        <ele>1746.2</ele>
        <time>2022-08-14T19:13:11Z</time>
      </trkpt>
      <trkpt lat="4.4043690" lon="-76.2055330">
        <ele>1746.4</ele>
        <time>2022-08-14T19:13:12Z</time>
      </trkpt>
      <trkpt lat="4.4043970" lon="-76.2056220">
        <ele>1747.4</ele>
        <time>2022-08-14T19:13:18Z</time>
      </trkpt>
      <trkpt lat="4.4044440" lon="-76.2056590">
        <ele>1748.6</ele>
        <time>2022-08-14T19:13:22Z</time>
      </trkpt>
      <trkpt lat="4.4044620" lon="-76.2056810">
        <ele>1749.0</ele>
        <time>2022-08-14T19:13:24Z</time>
      </trkpt>
      <trkpt lat="4.4045130" lon="-76.2057250">
        <ele>1749.8</ele>
        <time>2022-08-14T19:13:28Z</time>
      </trkpt>
      <trkpt lat="4.4045450" lon="-76.2057410">
        <ele>1750.0</ele>
        <time>2022-08-14T19:13:30Z</time>
      </trkpt>
      <trkpt lat="4.4046070" lon="-76.2057840">
        <ele>1750.8</ele>
        <time>2022-08-14T19:13:35Z</time>
      </trkpt>
      <trkpt lat="4.4046440" lon="-76.2058080">
        <ele>1751.6</ele>
        <time>2022-08-14T19:13:38Z</time>
      </trkpt>
      <trkpt lat="4.4046720" lon="-76.2058230">
        <ele>1752.0</ele>
        <time>2022-08-14T19:13:40Z</time>
      </trkpt>
      <trkpt lat="4.4046880" lon="-76.2058280">
        <ele>1752.2</ele>
        <time>2022-08-14T19:13:41Z</time>
      </trkpt>
      <trkpt lat="4.4047330" lon="-76.2058550">
        <ele>1753.0</ele>
        <time>2022-08-14T19:13:45Z</time>
      </trkpt>
      <trkpt lat="4.4047440" lon="-76.2058660">
        <ele>1753.0</ele>
        <time>2022-08-14T19:13:46Z</time>
      </trkpt>
      <trkpt lat="4.4048080" lon="-76.2059060">
        <ele>1753.8</ele>
        <time>2022-08-14T19:13:51Z</time>
      </trkpt>
      <trkpt lat="4.4048500" lon="-76.2059190">
        <ele>1754.2</ele>
        <time>2022-08-14T19:13:54Z</time>
      </trkpt>
      <trkpt lat="4.4049140" lon="-76.2059300">
        <ele>1754.8</ele>
        <time>2022-08-14T19:13:58Z</time>
      </trkpt>
      <trkpt lat="4.4049570" lon="-76.2059470">
        <ele>1755.0</ele>
        <time>2022-08-14T19:14:01Z</time>
      </trkpt>
      <trkpt lat="4.4049830" lon="-76.2059430">
        <ele>1755.4</ele>
        <time>2022-08-14T19:14:03Z</time>
      </trkpt>
      <trkpt lat="4.4050140" lon="-76.2059470">
        <ele>1755.8</ele>
        <time>2022-08-14T19:14:05Z</time>
      </trkpt>
      <trkpt lat="4.4050760" lon="-76.2059560">
        <ele>1756.4</ele>
        <time>2022-08-14T19:14:09Z</time>
      </trkpt>
      <trkpt lat="4.4051390" lon="-76.2059620">
        <ele>1757.0</ele>
        <time>2022-08-14T19:14:13Z</time>
      </trkpt>
      <trkpt lat="4.4051760" lon="-76.2059590">
        <ele>1757.4</ele>
        <time>2022-08-14T19:14:15Z</time>
      </trkpt>
      <trkpt lat="4.4052660" lon="-76.2059580">
        <ele>1758.2</ele>
        <time>2022-08-14T19:14:20Z</time>
      </trkpt>
      <trkpt lat="4.4052880" lon="-76.2059590">
        <ele>1758.4</ele>
        <time>2022-08-14T19:14:21Z</time>
      </trkpt>
      <trkpt lat="4.4053540" lon="-76.2059920">
        <ele>1759.2</ele>
        <time>2022-08-14T19:14:26Z</time>
      </trkpt>
      <trkpt lat="4.4053960" lon="-76.2060000">
        <ele>1759.6</ele>
        <time>2022-08-14T19:14:29Z</time>
      </trkpt>
      <trkpt lat="4.4054500" lon="-76.2060200">
        <ele>1760.2</ele>
        <time>2022-08-14T19:14:33Z</time>
      </trkpt>
      <trkpt lat="4.4055170" lon="-76.2060510">
        <ele>1761.2</ele>
        <time>2022-08-14T19:14:38Z</time>
      </trkpt>
      <trkpt lat="4.4055280" lon="-76.2060560">
        <ele>1761.2</ele>
        <time>2022-08-14T19:14:39Z</time>
      </trkpt>
      <trkpt lat="4.4056020" lon="-76.2060620">
        <ele>1762.0</ele>
        <time>2022-08-14T19:14:45Z</time>
      </trkpt>
      <trkpt lat="4.4056350" lon="-76.2060720">
        <ele>1762.2</ele>
        <time>2022-08-14T19:14:46Z</time>
      </trkpt>
      <trkpt lat="4.4057290" lon="-76.2060900">
        <ele>1763.0</ele>
        <time>2022-08-14T19:14:52Z</time>
      </trkpt>
      <trkpt lat="4.4057610" lon="-76.2060990">
        <ele>1763.4</ele>
        <time>2022-08-14T19:14:54Z</time>
      </trkpt>
      <trkpt lat="4.4057810" lon="-76.2061010">
        <ele>1763.4</ele>
        <time>2022-08-14T19:14:55Z</time>
      </trkpt>
      <trkpt lat="4.4058780" lon="-76.2061380">
        <ele>1764.4</ele>
        <time>2022-08-14T19:15:01Z</time>
      </trkpt>
      <trkpt lat="4.4059030" lon="-76.2061470">
        <ele>1764.6</ele>
        <time>2022-08-14T19:15:03Z</time>
      </trkpt>
      <trkpt lat="4.4059780" lon="-76.2061780">
        <ele>1765.4</ele>
        <time>2022-08-14T19:15:08Z</time>
      </trkpt>
      <trkpt lat="4.4060050" lon="-76.2061860">
        <ele>1765.6</ele>
        <time>2022-08-14T19:15:10Z</time>
      </trkpt>
      <trkpt lat="4.4060180" lon="-76.2061940">
        <ele>1765.8</ele>
        <time>2022-08-14T19:15:11Z</time>
      </trkpt>
      <trkpt lat="4.4060570" lon="-76.2062190">
        <ele>1766.4</ele>
        <time>2022-08-14T19:15:14Z</time>
      </trkpt>
      <trkpt lat="4.4060720" lon="-76.2062190">
        <ele>1766.6</ele>
        <time>2022-08-14T19:15:15Z</time>
      </trkpt>
      <trkpt lat="4.4061530" lon="-76.2062410">
        <ele>1767.2</ele>
        <time>2022-08-14T19:15:20Z</time>
      </trkpt>
      <trkpt lat="4.4062020" lon="-76.2062550">
        <ele>1767.8</ele>
        <time>2022-08-14T19:15:23Z</time>
      </trkpt>
      <trkpt lat="4.4062410" lon="-76.2062680">
        <ele>1768.4</ele>
        <time>2022-08-14T19:15:26Z</time>
      </trkpt>
      <trkpt lat="4.4063070" lon="-76.2062830">
        <ele>1769.2</ele>
        <time>2022-08-14T19:15:30Z</time>
      </trkpt>
      <trkpt lat="4.4063570" lon="-76.2062910">
        <ele>1769.6</ele>
        <time>2022-08-14T19:15:33Z</time>
      </trkpt>
      <trkpt lat="4.4063990" lon="-76.2063150">
        <ele>1770.4</ele>
        <time>2022-08-14T19:15:37Z</time>
      </trkpt>
      <trkpt lat="4.4064090" lon="-76.2063210">
        <ele>1770.6</ele>
        <time>2022-08-14T19:15:38Z</time>
      </trkpt>
      <trkpt lat="4.4064170" lon="-76.2063320">
        <ele>1770.8</ele>
        <time>2022-08-14T19:15:39Z</time>
      </trkpt>
      <trkpt lat="4.4064520" lon="-76.2063750">
        <ele>1770.8</ele>
        <time>2022-08-14T19:15:42Z</time>
      </trkpt>
      <trkpt lat="4.4065270" lon="-76.2064410">
        <ele>1771.6</ele>
        <time>2022-08-14T19:15:46Z</time>
      </trkpt>
      <trkpt lat="4.4065380" lon="-76.2064610">
        <ele>1771.6</ele>
        <time>2022-08-14T19:15:47Z</time>
      </trkpt>
      <trkpt lat="4.4066070" lon="-76.2065360">
        <ele>1772.4</ele>
        <time>2022-08-14T19:15:52Z</time>
      </trkpt>
      <trkpt lat="4.4066170" lon="-76.2065590">
        <ele>1772.4</ele>
        <time>2022-08-14T19:15:53Z</time>
      </trkpt>
      <trkpt lat="4.4066230" lon="-76.2065940">
        <ele>1772.6</ele>
        <time>2022-08-14T19:15:55Z</time>
      </trkpt>
      <trkpt lat="4.4066090" lon="-76.2066330">
        <ele>1772.8</ele>
        <time>2022-08-14T19:15:57Z</time>
      </trkpt>
      <trkpt lat="4.4065680" lon="-76.2066750">
        <ele>1773.4</ele>
        <time>2022-08-14T19:16:00Z</time>
      </trkpt>
      <trkpt lat="4.4065420" lon="-76.2066950">
        <ele>1773.8</ele>
        <time>2022-08-14T19:16:02Z</time>
      </trkpt>
      <trkpt lat="4.4065340" lon="-76.2067040">
        <ele>1774.0</ele>
        <time>2022-08-14T19:16:03Z</time>
      </trkpt>
      <trkpt lat="4.4064510" lon="-76.2067700">
        <ele>1774.6</ele>
        <time>2022-08-14T19:16:08Z</time>
      </trkpt>
      <trkpt lat="4.4064170" lon="-76.2067830">
        <ele>1775.0</ele>
        <time>2022-08-14T19:16:10Z</time>
      </trkpt>
      <trkpt lat="4.4063850" lon="-76.2067940">
        <ele>1775.4</ele>
        <time>2022-08-14T19:16:12Z</time>
      </trkpt>
      <trkpt lat="4.4063450" lon="-76.2068110">
        <ele>1775.6</ele>
        <time>2022-08-14T19:16:14Z</time>
      </trkpt>
      <trkpt lat="4.4062030" lon="-76.2069890">
        <ele>1776.6</ele>
        <time>2022-08-14T19:16:22Z</time>
      </trkpt>
      <trkpt lat="4.4061660" lon="-76.2071300">
        <ele>1777.6</ele>
        <time>2022-08-14T19:16:29Z</time>
      </trkpt>
      <trkpt lat="4.4061650" lon="-76.2071510">
        <ele>1777.8</ele>
        <time>2022-08-14T19:16:30Z</time>
      </trkpt>
      <trkpt lat="4.4061630" lon="-76.2072310">
        <ele>1778.0</ele>
        <time>2022-08-14T19:16:34Z</time>
      </trkpt>
      <trkpt lat="4.4061580" lon="-76.2072710">
        <ele>1778.2</ele>
        <time>2022-08-14T19:16:36Z</time>
      </trkpt>
      <trkpt lat="4.4061590" lon="-76.2072940">
        <ele>1778.4</ele>
        <time>2022-08-14T19:16:37Z</time>
      </trkpt>
      <trkpt lat="4.4061370" lon="-76.2073880">
        <ele>1779.4</ele>
        <time>2022-08-14T19:16:42Z</time>
      </trkpt>
      <trkpt lat="4.4061040" lon="-76.2074810">
        <ele>1780.8</ele>
        <time>2022-08-14T19:16:47Z</time>
      </trkpt>
      <trkpt lat="4.4060770" lon="-76.2075510">
        <ele>1781.8</ele>
        <time>2022-08-14T19:16:51Z</time>
      </trkpt>
      <trkpt lat="4.4060630" lon="-76.2075780">
        <ele>1782.0</ele>
        <time>2022-08-14T19:16:53Z</time>
      </trkpt>
      <trkpt lat="4.4060350" lon="-76.2075990">
        <ele>1782.2</ele>
        <time>2022-08-14T19:16:55Z</time>
      </trkpt>
      <trkpt lat="4.4060270" lon="-76.2076110">
        <ele>1782.4</ele>
        <time>2022-08-14T19:16:56Z</time>
      </trkpt>
      <trkpt lat="4.4060100" lon="-76.2076410">
        <ele>1782.6</ele>
        <time>2022-08-14T19:16:58Z</time>
      </trkpt>
      <trkpt lat="4.4059640" lon="-76.2077320">
        <ele>1783.6</ele>
        <time>2022-08-14T19:17:04Z</time>
      </trkpt>
      <trkpt lat="4.4059220" lon="-76.2078280">
        <ele>1784.6</ele>
        <time>2022-08-14T19:17:10Z</time>
      </trkpt>
      <trkpt lat="4.4059140" lon="-76.2078900">
        <ele>1785.6</ele>
        <time>2022-08-14T19:17:14Z</time>
      </trkpt>
      <trkpt lat="4.4059150" lon="-76.2079020">
        <ele>1785.8</ele>
        <time>2022-08-14T19:17:15Z</time>
      </trkpt>
      <trkpt lat="4.4059110" lon="-76.2079580">
        <ele>1786.8</ele>
        <time>2022-08-14T19:17:19Z</time>
      </trkpt>
      <trkpt lat="4.4059120" lon="-76.2079970">
        <ele>1787.2</ele>
        <time>2022-08-14T19:17:22Z</time>
      </trkpt>
      <trkpt lat="4.4059210" lon="-76.2080370">
        <ele>1788.0</ele>
        <time>2022-08-14T19:17:25Z</time>
      </trkpt>
      <trkpt lat="4.4059260" lon="-76.2080680">
        <ele>1788.8</ele>
        <time>2022-08-14T19:17:28Z</time>
      </trkpt>
      <trkpt lat="4.4059440" lon="-76.2080940">
        <ele>1789.2</ele>
        <time>2022-08-14T19:17:30Z</time>
      </trkpt>
      <trkpt lat="4.4059720" lon="-76.2081630">
        <ele>1790.0</ele>
        <time>2022-08-14T19:17:35Z</time>
      </trkpt>
      <trkpt lat="4.4059780" lon="-76.2081800">
        <ele>1790.2</ele>
        <time>2022-08-14T19:17:36Z</time>
      </trkpt>
      <trkpt lat="4.4059800" lon="-76.2082060">
        <ele>1790.6</ele>
        <time>2022-08-14T19:17:38Z</time>
      </trkpt>
      <trkpt lat="4.4059820" lon="-76.2082490">
        <ele>1791.2</ele>
        <time>2022-08-14T19:17:41Z</time>
      </trkpt>
      <trkpt lat="4.4059950" lon="-76.2082810">
        <ele>1791.4</ele>
        <time>2022-08-14T19:17:43Z</time>
      </trkpt>
      <trkpt lat="4.4059670" lon="-76.2083650">
        <ele>1792.2</ele>
        <time>2022-08-14T19:17:49Z</time>
      </trkpt>
      <trkpt lat="4.4059540" lon="-76.2083910">
        <ele>1792.6</ele>
        <time>2022-08-14T19:17:51Z</time>
      </trkpt>
      <trkpt lat="4.4059430" lon="-76.2084010">
        <ele>1792.6</ele>
        <time>2022-08-14T19:17:52Z</time>
      </trkpt>
      <trkpt lat="4.4058920" lon="-76.2084290">
        <ele>1793.2</ele>
        <time>2022-08-14T19:17:56Z</time>
      </trkpt>
      <trkpt lat="4.4058620" lon="-76.2084320">
        <ele>1793.6</ele>
        <time>2022-08-14T19:17:58Z</time>
      </trkpt>
      <trkpt lat="4.4058180" lon="-76.2084370">
        <ele>1794.2</ele>
        <time>2022-08-14T19:18:01Z</time>
      </trkpt>
      <trkpt lat="4.4057870" lon="-76.2084380">
        <ele>1794.2</ele>
        <time>2022-08-14T19:18:03Z</time>
      </trkpt>
      <trkpt lat="4.4057420" lon="-76.2084340">
        <ele>1794.8</ele>
        <time>2022-08-14T19:18:06Z</time>
      </trkpt>
      <trkpt lat="4.4057260" lon="-76.2084310">
        <ele>1795.0</ele>
        <time>2022-08-14T19:18:07Z</time>
      </trkpt>
      <trkpt lat="4.4056440" lon="-76.2084230">
        <ele>1796.0</ele>
        <time>2022-08-14T19:18:12Z</time>
      </trkpt>
      <trkpt lat="4.4056080" lon="-76.2084240">
        <ele>1796.2</ele>
        <time>2022-08-14T19:18:14Z</time>
      </trkpt>
      <trkpt lat="4.4055210" lon="-76.2084290">
        <ele>1796.8</ele>
        <time>2022-08-14T19:18:19Z</time>
      </trkpt>
      <trkpt lat="4.4054830" lon="-76.2084340">
        <ele>1797.2</ele>
        <time>2022-08-14T19:18:21Z</time>
      </trkpt>
      <trkpt lat="4.4053940" lon="-76.2084190">
        <ele>1797.8</ele>
        <time>2022-08-14T19:18:26Z</time>
      </trkpt>
      <trkpt lat="4.4053760" lon="-76.2084140">
        <ele>1798.0</ele>
        <time>2022-08-14T19:18:27Z</time>
      </trkpt>
      <trkpt lat="4.4052760" lon="-76.2083800">
        <ele>1799.2</ele>
        <time>2022-08-14T19:18:33Z</time>
      </trkpt>
      <trkpt lat="4.4052580" lon="-76.2083790">
        <ele>1799.4</ele>
        <time>2022-08-14T19:18:34Z</time>
      </trkpt>
      <trkpt lat="4.4052400" lon="-76.2083730">
        <ele>1799.6</ele>
        <time>2022-08-14T19:18:35Z</time>
      </trkpt>
      <trkpt lat="4.4051380" lon="-76.2083530">
        <ele>1800.2</ele>
        <time>2022-08-14T19:18:41Z</time>
      </trkpt>
      <trkpt lat="4.4051060" lon="-76.2083520">
        <ele>1800.4</ele>
        <time>2022-08-14T19:18:43Z</time>
      </trkpt>
      <trkpt lat="4.4050030" lon="-76.2083890">
        <ele>1801.4</ele>
        <time>2022-08-14T19:18:50Z</time>
      </trkpt>
      <trkpt lat="4.4049800" lon="-76.2084020">
        <ele>1801.6</ele>
        <time>2022-08-14T19:18:52Z</time>
      </trkpt>
      <trkpt lat="4.4049310" lon="-76.2084640">
        <ele>1802.2</ele>
        <time>2022-08-14T19:18:57Z</time>
      </trkpt>
      <trkpt lat="4.4049050" lon="-76.2085090">
        <ele>1802.6</ele>
        <time>2022-08-14T19:19:00Z</time>
      </trkpt>
      <trkpt lat="4.4048780" lon="-76.2085860">
        <ele>1803.2</ele>
        <time>2022-08-14T19:19:05Z</time>
      </trkpt>
      <trkpt lat="4.4048820" lon="-76.2086160">
        <ele>1803.6</ele>
        <time>2022-08-14T19:19:07Z</time>
      </trkpt>
      <trkpt lat="4.4048710" lon="-76.2086830">
        <ele>1804.2</ele>
        <time>2022-08-14T19:19:11Z</time>
      </trkpt>
      <trkpt lat="4.4048730" lon="-76.2087840">
        <ele>1805.2</ele>
        <time>2022-08-14T19:19:17Z</time>
      </trkpt>
      <trkpt lat="4.4048730" lon="-76.2088160">
        <ele>1805.6</ele>
        <time>2022-08-14T19:19:19Z</time>
      </trkpt>
      <trkpt lat="4.4048610" lon="-76.2089020">
        <ele>1806.2</ele>
        <time>2022-08-14T19:19:24Z</time>
      </trkpt>
      <trkpt lat="4.4048640" lon="-76.2089180">
        <ele>1806.4</ele>
        <time>2022-08-14T19:19:25Z</time>
      </trkpt>
      <trkpt lat="4.4048080" lon="-76.2090250">
        <ele>1807.2</ele>
        <time>2022-08-14T19:19:33Z</time>
      </trkpt>
      <trkpt lat="4.4047940" lon="-76.2090380">
        <ele>1807.4</ele>
        <time>2022-08-14T19:19:34Z</time>
      </trkpt>
      <trkpt lat="4.4047240" lon="-76.2091000">
        <ele>1808.4</ele>
        <time>2022-08-14T19:19:39Z</time>
      </trkpt>
      <trkpt lat="4.4047010" lon="-76.2091200">
        <ele>1808.4</ele>
        <time>2022-08-14T19:19:41Z</time>
      </trkpt>
      <trkpt lat="4.4046330" lon="-76.2091920">
        <ele>1809.2</ele>
        <time>2022-08-14T19:19:47Z</time>
      </trkpt>
      <trkpt lat="4.4045910" lon="-76.2092390">
        <ele>1810.0</ele>
        <time>2022-08-14T19:19:51Z</time>
      </trkpt>
      <trkpt lat="4.4045560" lon="-76.2092740">
        <ele>1810.4</ele>
        <time>2022-08-14T19:19:54Z</time>
      </trkpt>
      <trkpt lat="4.4044910" lon="-76.2093280">
        <ele>1811.4</ele>
        <time>2022-08-14T19:19:59Z</time>
      </trkpt>
      <trkpt lat="4.4044380" lon="-76.2094050">
        <ele>1812.6</ele>
        <time>2022-08-14T19:20:05Z</time>
      </trkpt>
      <trkpt lat="4.4044090" lon="-76.2094590">
        <ele>1813.0</ele>
        <time>2022-08-14T19:20:09Z</time>
      </trkpt>
      <trkpt lat="4.4043940" lon="-76.2094850">
        <ele>1813.4</ele>
        <time>2022-08-14T19:20:11Z</time>
      </trkpt>
      <trkpt lat="4.4043580" lon="-76.2095310">
        <ele>1814.6</ele>
        <time>2022-08-14T19:20:15Z</time>
      </trkpt>
      <trkpt lat="4.4043440" lon="-76.2095560">
        <ele>1814.8</ele>
        <time>2022-08-14T19:20:17Z</time>
      </trkpt>
      <trkpt lat="4.4043110" lon="-76.2096090">
        <ele>1815.6</ele>
        <time>2022-08-14T19:20:21Z</time>
      </trkpt>
      <trkpt lat="4.4042850" lon="-76.2096510">
        <ele>1816.2</ele>
        <time>2022-08-14T19:20:24Z</time>
      </trkpt>
      <trkpt lat="4.4042770" lon="-76.2096680">
        <ele>1816.4</ele>
        <time>2022-08-14T19:20:25Z</time>
      </trkpt>
      <trkpt lat="4.4042410" lon="-76.2097510">
        <ele>1817.6</ele>
        <time>2022-08-14T19:20:31Z</time>
      </trkpt>
      <trkpt lat="4.4042220" lon="-76.2097780">
        <ele>1818.0</ele>
        <time>2022-08-14T19:20:33Z</time>
      </trkpt>
      <trkpt lat="4.4041980" lon="-76.2098220">
        <ele>1818.6</ele>
        <time>2022-08-14T19:20:36Z</time>
      </trkpt>
      <trkpt lat="4.4041600" lon="-76.2099070">
        <ele>1819.8</ele>
        <time>2022-08-14T19:20:42Z</time>
      </trkpt>
      <trkpt lat="4.4041530" lon="-76.2099170">
        <ele>1819.8</ele>
        <time>2022-08-14T19:20:43Z</time>
      </trkpt>
      <trkpt lat="4.4041140" lon="-76.2099790">
        <ele>1820.8</ele>
        <time>2022-08-14T19:20:48Z</time>
      </trkpt>
      <trkpt lat="4.4040790" lon="-76.2100270">
        <ele>1821.4</ele>
        <time>2022-08-14T19:20:52Z</time>
      </trkpt>
      <trkpt lat="4.4040540" lon="-76.2100680">
        <ele>1821.8</ele>
        <time>2022-08-14T19:20:55Z</time>
      </trkpt>
      <trkpt lat="4.4040040" lon="-76.2101420">
        <ele>1823.2</ele>
        <time>2022-08-14T19:21:01Z</time>
      </trkpt>
      <trkpt lat="4.4039400" lon="-76.2102120">
        <ele>1824.2</ele>
        <time>2022-08-14T19:21:07Z</time>
      </trkpt>
      <trkpt lat="4.4039020" lon="-76.2102430">
        <ele>1824.6</ele>
        <time>2022-08-14T19:21:10Z</time>
      </trkpt>
      <trkpt lat="4.4038650" lon="-76.2102730">
        <ele>1825.2</ele>
        <time>2022-08-14T19:21:13Z</time>
      </trkpt>
      <trkpt lat="4.4038110" lon="-76.2103080">
        <ele>1826.0</ele>
        <time>2022-08-14T19:21:17Z</time>
      </trkpt>
      <trkpt lat="4.4037880" lon="-76.2103310">
        <ele>1826.4</ele>
        <time>2022-08-14T19:21:19Z</time>
      </trkpt>
      <trkpt lat="4.4037770" lon="-76.2103400">
        <ele>1826.6</ele>
        <time>2022-08-14T19:21:20Z</time>
      </trkpt>
      <trkpt lat="4.4037400" lon="-76.2103660">
        <ele>1827.0</ele>
        <time>2022-08-14T19:21:23Z</time>
      </trkpt>
      <trkpt lat="4.4037110" lon="-76.2103970">
        <ele>1827.4</ele>
        <time>2022-08-14T19:21:26Z</time>
      </trkpt>
      <trkpt lat="4.4036820" lon="-76.2104310">
        <ele>1827.8</ele>
        <time>2022-08-14T19:21:29Z</time>
      </trkpt>
      <trkpt lat="4.4036380" lon="-76.2105040">
        <ele>1828.4</ele>
        <time>2022-08-14T19:21:34Z</time>
      </trkpt>
      <trkpt lat="4.4036020" lon="-76.2105590">
        <ele>1829.4</ele>
        <time>2022-08-14T19:21:38Z</time>
      </trkpt>
      <trkpt lat="4.4035760" lon="-76.2106510">
        <ele>1830.4</ele>
        <time>2022-08-14T19:21:44Z</time>
      </trkpt>
      <trkpt lat="4.4035510" lon="-76.2107100">
        <ele>1831.0</ele>
        <time>2022-08-14T19:21:48Z</time>
      </trkpt>
      <trkpt lat="4.4035280" lon="-76.2107480">
        <ele>1831.6</ele>
        <time>2022-08-14T19:21:51Z</time>
      </trkpt>
      <trkpt lat="4.4034590" lon="-76.2108060">
        <ele>1832.4</ele>
        <time>2022-08-14T19:21:57Z</time>
      </trkpt>
      <trkpt lat="4.4033660" lon="-76.2108590">
        <ele>1833.4</ele>
        <time>2022-08-14T19:22:04Z</time>
      </trkpt>
      <trkpt lat="4.4033130" lon="-76.2108860">
        <ele>1834.6</ele>
        <time>2022-08-14T19:22:08Z</time>
      </trkpt>
      <trkpt lat="4.4032590" lon="-76.2109240">
        <ele>1835.2</ele>
        <time>2022-08-14T19:22:12Z</time>
      </trkpt>
      <trkpt lat="4.4032470" lon="-76.2109290">
        <ele>1835.4</ele>
        <time>2022-08-14T19:22:13Z</time>
      </trkpt>
      <trkpt lat="4.4031710" lon="-76.2109720">
        <ele>1836.4</ele>
        <time>2022-08-14T19:22:19Z</time>
      </trkpt>
      <trkpt lat="4.4031290" lon="-76.2109880">
        <ele>1837.0</ele>
        <time>2022-08-14T19:22:22Z</time>
      </trkpt>
      <trkpt lat="4.4030570" lon="-76.2110280">
        <ele>1837.6</ele>
        <time>2022-08-14T19:22:27Z</time>
      </trkpt>
      <trkpt lat="4.4030190" lon="-76.2110540">
        <ele>1838.2</ele>
        <time>2022-08-14T19:22:30Z</time>
      </trkpt>
      <trkpt lat="4.4029940" lon="-76.2110700">
        <ele>1838.6</ele>
        <time>2022-08-14T19:22:32Z</time>
      </trkpt>
      <trkpt lat="4.4029170" lon="-76.2111310">
        <ele>1839.4</ele>
        <time>2022-08-14T19:22:38Z</time>
      </trkpt>
      <trkpt lat="4.4028960" lon="-76.2111490">
        <ele>1839.4</ele>
        <time>2022-08-14T19:22:40Z</time>
      </trkpt>
      <trkpt lat="4.4028220" lon="-76.2112170">
        <ele>1840.4</ele>
        <time>2022-08-14T19:22:46Z</time>
      </trkpt>
      <trkpt lat="4.4027720" lon="-76.2112650">
        <ele>1840.8</ele>
        <time>2022-08-14T19:22:50Z</time>
      </trkpt>
      <trkpt lat="4.4027430" lon="-76.2113000">
        <ele>1841.4</ele>
        <time>2022-08-14T19:22:53Z</time>
      </trkpt>
      <trkpt lat="4.4026740" lon="-76.2113770">
        <ele>1842.6</ele>
        <time>2022-08-14T19:23:00Z</time>
      </trkpt>
      <trkpt lat="4.4026530" lon="-76.2113950">
        <ele>1843.0</ele>
        <time>2022-08-14T19:23:02Z</time>
      </trkpt>
      <trkpt lat="4.4026000" lon="-76.2114220">
        <ele>1843.6</ele>
        <time>2022-08-14T19:23:06Z</time>
      </trkpt>
      <trkpt lat="4.4025590" lon="-76.2114370">
        <ele>1844.0</ele>
        <time>2022-08-14T19:23:09Z</time>
      </trkpt>
      <trkpt lat="4.4024620" lon="-76.2114440">
        <ele>1844.6</ele>
        <time>2022-08-14T19:23:15Z</time>
      </trkpt>
      <trkpt lat="4.4024480" lon="-76.2114450">
        <ele>1845.0</ele>
        <time>2022-08-14T19:23:16Z</time>
      </trkpt>
      <trkpt lat="4.4023910" lon="-76.2114400">
        <ele>1845.8</ele>
        <time>2022-08-14T19:23:20Z</time>
      </trkpt>
      <trkpt lat="4.4023120" lon="-76.2114390">
        <ele>1846.8</ele>
        <time>2022-08-14T19:23:25Z</time>
      </trkpt>
      <trkpt lat="4.4022310" lon="-76.2114390">
        <ele>1847.6</ele>
        <time>2022-08-14T19:23:30Z</time>
      </trkpt>
      <trkpt lat="4.4021420" lon="-76.2114510">
        <ele>1848.6</ele>
        <time>2022-08-14T19:23:35Z</time>
      </trkpt>
      <trkpt lat="4.4021080" lon="-76.2114500">
        <ele>1848.8</ele>
        <time>2022-08-14T19:23:37Z</time>
      </trkpt>
      <trkpt lat="4.4020190" lon="-76.2114560">
        <ele>1849.6</ele>
        <time>2022-08-14T19:23:42Z</time>
      </trkpt>
      <trkpt lat="4.4019220" lon="-76.2114570">
        <ele>1850.4</ele>
        <time>2022-08-14T19:23:48Z</time>
      </trkpt>
      <trkpt lat="4.4019060" lon="-76.2114560">
        <ele>1850.6</ele>
        <time>2022-08-14T19:23:49Z</time>
      </trkpt>
      <trkpt lat="4.4018160" lon="-76.2114540">
        <ele>1851.8</ele>
        <time>2022-08-14T19:23:55Z</time>
      </trkpt>
      <trkpt lat="4.4017780" lon="-76.2114610">
        <ele>1852.0</ele>
        <time>2022-08-14T19:23:58Z</time>
      </trkpt>
      <trkpt lat="4.4017620" lon="-76.2114620">
        <ele>1852.4</ele>
        <time>2022-08-14T19:23:59Z</time>
      </trkpt>
      <trkpt lat="4.4017150" lon="-76.2114720">
        <ele>1852.8</ele>
        <time>2022-08-14T19:24:02Z</time>
      </trkpt>
      <trkpt lat="4.4016030" lon="-76.2114840">
        <ele>1853.8</ele>
        <time>2022-08-14T19:24:08Z</time>
      </trkpt>
      <trkpt lat="4.4015810" lon="-76.2114860">
        <ele>1854.0</ele>
        <time>2022-08-14T19:24:09Z</time>
      </trkpt>
      <trkpt lat="4.4014050" lon="-76.2114780">
        <ele>1855.0</ele>
        <time>2022-08-14T19:24:17Z</time>
      </trkpt>
      <trkpt lat="4.4012700" lon="-76.2114680">
        <ele>1856.0</ele>
        <time>2022-08-14T19:24:23Z</time>
      </trkpt>
      <trkpt lat="4.4012480" lon="-76.2114650">
        <ele>1856.4</ele>
        <time>2022-08-14T19:24:24Z</time>
      </trkpt>
      <trkpt lat="4.4011540" lon="-76.2114490">
        <ele>1857.2</ele>
        <time>2022-08-14T19:24:28Z</time>
      </trkpt>
      <trkpt lat="4.4010610" lon="-76.2114230">
        <ele>1857.6</ele>
        <time>2022-08-14T19:24:32Z</time>
      </trkpt>
      <trkpt lat="4.4010170" lon="-76.2114010">
        <ele>1858.2</ele>
        <time>2022-08-14T19:24:34Z</time>
      </trkpt>
      <trkpt lat="4.4008880" lon="-76.2113510">
        <ele>1859.0</ele>
        <time>2022-08-14T19:24:39Z</time>
      </trkpt>
      <trkpt lat="4.4008540" lon="-76.2113410">
        <ele>1859.2</ele>
        <time>2022-08-14T19:24:40Z</time>
      </trkpt>
      <trkpt lat="4.4007250" lon="-76.2113290">
        <ele>1859.6</ele>
        <time>2022-08-14T19:24:43Z</time>
      </trkpt>
      <trkpt lat="4.4004630" lon="-76.2113180">
        <ele>1859.6</ele>
        <time>2022-08-14T19:24:47Z</time>
      </trkpt>
      <trkpt lat="4.4000340" lon="-76.2113270">
        <ele>1859.0</ele>
        <time>2022-08-14T19:24:52Z</time>
      </trkpt>
      <trkpt lat="4.3998270" lon="-76.2113340">
        <ele>1857.2</ele>
        <time>2022-08-14T19:24:54Z</time>
      </trkpt>
      <trkpt lat="4.3995580" lon="-76.2113640">
        <ele>1855.2</ele>
        <time>2022-08-14T19:24:57Z</time>
      </trkpt>
      <trkpt lat="4.3994710" lon="-76.2113820">
        <ele>1854.2</ele>
        <time>2022-08-14T19:24:58Z</time>
      </trkpt>
      <trkpt lat="4.3991640" lon="-76.2114340">
        <ele>1853.2</ele>
        <time>2022-08-14T19:25:02Z</time>
      </trkpt>
      <trkpt lat="4.3990980" lon="-76.2114510">
        <ele>1853.2</ele>
        <time>2022-08-14T19:25:03Z</time>
      </trkpt>
      <trkpt lat="4.3990310" lon="-76.2114790">
        <ele>1853.2</ele>
        <time>2022-08-14T19:25:04Z</time>
      </trkpt>
      <trkpt lat="4.3989060" lon="-76.2115450">
        <ele>1853.2</ele>
        <time>2022-08-14T19:25:06Z</time>
      </trkpt>
      <trkpt lat="4.3985960" lon="-76.2116590">
        <ele>1854.0</ele>
        <time>2022-08-14T19:25:11Z</time>
      </trkpt>
      <trkpt lat="4.3985380" lon="-76.2116720">
        <ele>1854.2</ele>
        <time>2022-08-14T19:25:12Z</time>
      </trkpt>
      <trkpt lat="4.3982830" lon="-76.2117440">
        <ele>1855.2</ele>
        <time>2022-08-14T19:25:17Z</time>
      </trkpt>
      <trkpt lat="4.3982370" lon="-76.2117570">
        <ele>1855.0</ele>
        <time>2022-08-14T19:25:18Z</time>
      </trkpt>
      <trkpt lat="4.3980500" lon="-76.2118450">
        <ele>1856.0</ele>
        <time>2022-08-14T19:25:23Z</time>
      </trkpt>
      <trkpt lat="4.3980160" lon="-76.2118640">
        <ele>1856.4</ele>
        <time>2022-08-14T19:25:24Z</time>
      </trkpt>
      <trkpt lat="4.3979520" lon="-76.2119020">
        <ele>1857.2</ele>
        <time>2022-08-14T19:25:26Z</time>
      </trkpt>
      <trkpt lat="4.3978170" lon="-76.2119890">
        <ele>1858.6</ele>
        <time>2022-08-14T19:25:30Z</time>
      </trkpt>
      <trkpt lat="4.3976130" lon="-76.2121500">
        <ele>1859.6</ele>
        <time>2022-08-14T19:25:37Z</time>
      </trkpt>
      <trkpt lat="4.3975860" lon="-76.2121720">
        <ele>1859.6</ele>
        <time>2022-08-14T19:25:38Z</time>
      </trkpt>
      <trkpt lat="4.3974610" lon="-76.2122970">
        <ele>1860.4</ele>
        <time>2022-08-14T19:25:44Z</time>
      </trkpt>
      <trkpt lat="4.3973970" lon="-76.2123870">
        <ele>1861.0</ele>
        <time>2022-08-14T19:25:49Z</time>
      </trkpt>
      <trkpt lat="4.3973710" lon="-76.2124200">
        <ele>1861.6</ele>
        <time>2022-08-14T19:25:51Z</time>
      </trkpt>
      <trkpt lat="4.3973130" lon="-76.2124880">
        <ele>1862.6</ele>
        <time>2022-08-14T19:25:55Z</time>
      </trkpt>
      <trkpt lat="4.3972520" lon="-76.2125360">
        <ele>1863.6</ele>
        <time>2022-08-14T19:25:58Z</time>
      </trkpt>
      <trkpt lat="4.3972370" lon="-76.2125470">
        <ele>1863.8</ele>
        <time>2022-08-14T19:25:59Z</time>
      </trkpt>
      <trkpt lat="4.3971210" lon="-76.2126180">
        <ele>1864.8</ele>
        <time>2022-08-14T19:26:05Z</time>
      </trkpt>
      <trkpt lat="4.3970560" lon="-76.2126500">
        <ele>1865.4</ele>
        <time>2022-08-14T19:26:08Z</time>
      </trkpt>
      <trkpt lat="4.3969690" lon="-76.2127050">
        <ele>1866.0</ele>
        <time>2022-08-14T19:26:12Z</time>
      </trkpt>
      <trkpt lat="4.3969090" lon="-76.2127490">
        <ele>1866.6</ele>
        <time>2022-08-14T19:26:15Z</time>
      </trkpt>
      <trkpt lat="4.3968640" lon="-76.2127790">
        <ele>1867.0</ele>
        <time>2022-08-14T19:26:17Z</time>
      </trkpt>
      <trkpt lat="4.3967350" lon="-76.2128790">
        <ele>1867.8</ele>
        <time>2022-08-14T19:26:24Z</time>
      </trkpt>
      <trkpt lat="4.3967000" lon="-76.2129070">
        <ele>1868.0</ele>
        <time>2022-08-14T19:26:26Z</time>
      </trkpt>
      <trkpt lat="4.3966050" lon="-76.2129770">
        <ele>1869.0</ele>
        <time>2022-08-14T19:26:31Z</time>
      </trkpt>
      <trkpt lat="4.3965450" lon="-76.2130130">
        <ele>1869.6</ele>
        <time>2022-08-14T19:26:34Z</time>
      </trkpt>
      <trkpt lat="4.3965000" lon="-76.2130360">
        <ele>1870.0</ele>
        <time>2022-08-14T19:26:36Z</time>
      </trkpt>
      <trkpt lat="4.3963960" lon="-76.2130950">
        <ele>1871.0</ele>
        <time>2022-08-14T19:26:41Z</time>
      </trkpt>
      <trkpt lat="4.3963630" lon="-76.2131120">
        <ele>1871.6</ele>
        <time>2022-08-14T19:26:43Z</time>
      </trkpt>
      <trkpt lat="4.3962870" lon="-76.2131580">
        <ele>1872.2</ele>
        <time>2022-08-14T19:26:47Z</time>
      </trkpt>
      <trkpt lat="4.3962050" lon="-76.2132360">
        <ele>1872.8</ele>
        <time>2022-08-14T19:26:52Z</time>
      </trkpt>
      <trkpt lat="4.3960610" lon="-76.2133600">
        <ele>1873.0</ele>
        <time>2022-08-14T19:26:57Z</time>
      </trkpt>
      <trkpt lat="4.3959470" lon="-76.2134210">
        <ele>1873.0</ele>
        <time>2022-08-14T19:27:01Z</time>
      </trkpt>
      <trkpt lat="4.3958760" lon="-76.2134540">
        <ele>1872.2</ele>
        <time>2022-08-14T19:27:05Z</time>
      </trkpt>
      <trkpt lat="4.3958590" lon="-76.2134540">
        <ele>1871.6</ele>
        <time>2022-08-14T19:27:09Z</time>
      </trkpt>
      <trkpt lat="4.3958500" lon="-76.2134590">
        <ele>1870.8</ele>
        <time>2022-08-14T19:27:16Z</time>
      </trkpt>
      <trkpt lat="4.3958500" lon="-76.2134590">
        <ele>1870.8</ele>
        <time>2022-08-14T19:27:17Z</time>
      </trkpt>
      <trkpt lat="4.3958500" lon="-76.2134590">
        <ele>1870.6</ele>
        <time>2022-08-14T19:27:21Z</time>
      </trkpt>
      <trkpt lat="4.3958500" lon="-76.2134590">
        <ele>1870.6</ele>
        <time>2022-08-14T19:27:26Z</time>
      </trkpt>
      <trkpt lat="4.3958500" lon="-76.2134590">
        <ele>1870.8</ele>
        <time>2022-08-14T19:27:52Z</time>
      </trkpt>
      <trkpt lat="4.3958500" lon="-76.2134590">
        <ele>1870.8</ele>
        <time>2022-08-14T19:28:07Z</time>
      </trkpt>
      <trkpt lat="4.3958500" lon="-76.2134590">
        <ele>1870.8</ele>
        <time>2022-08-14T19:28:12Z</time>
      </trkpt>
      <trkpt lat="4.3958500" lon="-76.2134590">
        <ele>1870.8</ele>
        <time>2022-08-14T19:28:25Z</time>
      </trkpt>
      <trkpt lat="4.3958500" lon="-76.2134590">
        <ele>1870.8</ele>
        <time>2022-08-14T19:29:18Z</time>
      </trkpt>
      <trkpt lat="4.3958500" lon="-76.2134590">
        <ele>1871.0</ele>
        <time>2022-08-14T19:29:53Z</time>
      </trkpt>
      <trkpt lat="4.3958500" lon="-76.2134590">
        <ele>1870.8</ele>
        <time>2022-08-14T19:30:00Z</time>
      </trkpt>
      <trkpt lat="4.3958500" lon="-76.2134590">
        <ele>1871.2</ele>
        <time>2022-08-14T19:30:20Z</time>
      </trkpt>
      <trkpt lat="4.3958500" lon="-76.2134590">
        <ele>1871.0</ele>
        <time>2022-08-14T19:30:31Z</time>
      </trkpt>
      <trkpt lat="4.3958500" lon="-76.2134590">
        <ele>1871.2</ele>
        <time>2022-08-14T19:30:43Z</time>
      </trkpt>
      <trkpt lat="4.3958500" lon="-76.2134590">
        <ele>1871.0</ele>
        <time>2022-08-14T19:31:13Z</time>
      </trkpt>
      <trkpt lat="4.3957900" lon="-76.2134740">
        <ele>1870.8</ele>
        <time>2022-08-14T19:31:32Z</time>
      </trkpt>
      <trkpt lat="4.3956130" lon="-76.2135190">
        <ele>1870.8</ele>
        <time>2022-08-14T19:31:36Z</time>
      </trkpt>
      <trkpt lat="4.3952740" lon="-76.2136000">
        <ele>1869.4</ele>
        <time>2022-08-14T19:31:43Z</time>
      </trkpt>
      <trkpt lat="4.3952170" lon="-76.2136140">
        <ele>1869.0</ele>
        <time>2022-08-14T19:31:44Z</time>
      </trkpt>
      <trkpt lat="4.3950930" lon="-76.2136390">
        <ele>1868.2</ele>
        <time>2022-08-14T19:31:46Z</time>
      </trkpt>
      <trkpt lat="4.3948860" lon="-76.2136650">
        <ele>1867.0</ele>
        <time>2022-08-14T19:31:49Z</time>
      </trkpt>
      <trkpt lat="4.3947400" lon="-76.2136750">
        <ele>1865.8</ele>
        <time>2022-08-14T19:31:51Z</time>
      </trkpt>
      <trkpt lat="4.3945340" lon="-76.2136850">
        <ele>1864.4</ele>
        <time>2022-08-14T19:31:54Z</time>
      </trkpt>
      <trkpt lat="4.3944580" lon="-76.2136950">
        <ele>1863.8</ele>
        <time>2022-08-14T19:31:55Z</time>
      </trkpt>
      <trkpt lat="4.3943660" lon="-76.2137100">
        <ele>1863.4</ele>
        <time>2022-08-14T19:31:56Z</time>
      </trkpt>
      <trkpt lat="4.3942140" lon="-76.2137520">
        <ele>1861.6</ele>
        <time>2022-08-14T19:31:58Z</time>
      </trkpt>
      <trkpt lat="4.3940840" lon="-76.2138060">
        <ele>1860.8</ele>
        <time>2022-08-14T19:32:00Z</time>
      </trkpt>
      <trkpt lat="4.3940030" lon="-76.2138520">
        <ele>1860.2</ele>
        <time>2022-08-14T19:32:01Z</time>
      </trkpt>
      <trkpt lat="4.3938760" lon="-76.2139350">
        <ele>1859.2</ele>
        <time>2022-08-14T19:32:03Z</time>
      </trkpt>
      <trkpt lat="4.3937730" lon="-76.2140050">
        <ele>1857.6</ele>
        <time>2022-08-14T19:32:05Z</time>
      </trkpt>
      <trkpt lat="4.3936370" lon="-76.2140820">
        <ele>1856.4</ele>
        <time>2022-08-14T19:32:07Z</time>
      </trkpt>
      <trkpt lat="4.3935730" lon="-76.2141060">
        <ele>1855.6</ele>
        <time>2022-08-14T19:32:08Z</time>
      </trkpt>
      <trkpt lat="4.3935200" lon="-76.2141200">
        <ele>1855.2</ele>
        <time>2022-08-14T19:32:09Z</time>
      </trkpt>
      <trkpt lat="4.3934380" lon="-76.2141380">
        <ele>1854.8</ele>
        <time>2022-08-14T19:32:10Z</time>
      </trkpt>
      <trkpt lat="4.3933020" lon="-76.2141440">
        <ele>1854.2</ele>
        <time>2022-08-14T19:32:12Z</time>
      </trkpt>
      <trkpt lat="4.3931660" lon="-76.2141410">
        <ele>1853.0</ele>
        <time>2022-08-14T19:32:14Z</time>
      </trkpt>
      <trkpt lat="4.3930980" lon="-76.2141470">
        <ele>1852.2</ele>
        <time>2022-08-14T19:32:15Z</time>
      </trkpt>
      <trkpt lat="4.3930340" lon="-76.2141710">
        <ele>1852.2</ele>
        <time>2022-08-14T19:32:16Z</time>
      </trkpt>
      <trkpt lat="4.3929730" lon="-76.2142060">
        <ele>1851.4</ele>
        <time>2022-08-14T19:32:17Z</time>
      </trkpt>
      <trkpt lat="4.3929140" lon="-76.2142430">
        <ele>1850.8</ele>
        <time>2022-08-14T19:32:18Z</time>
      </trkpt>
      <trkpt lat="4.3928660" lon="-76.2142890">
        <ele>1850.0</ele>
        <time>2022-08-14T19:32:19Z</time>
      </trkpt>
      <trkpt lat="4.3928270" lon="-76.2143510">
        <ele>1849.2</ele>
        <time>2022-08-14T19:32:20Z</time>
      </trkpt>
      <trkpt lat="4.3927940" lon="-76.2144180">
        <ele>1848.4</ele>
        <time>2022-08-14T19:32:21Z</time>
      </trkpt>
      <trkpt lat="4.3927360" lon="-76.2145560">
        <ele>1847.2</ele>
        <time>2022-08-14T19:32:23Z</time>
      </trkpt>
      <trkpt lat="4.3927070" lon="-76.2146190">
        <ele>1846.6</ele>
        <time>2022-08-14T19:32:24Z</time>
      </trkpt>
      <trkpt lat="4.3926780" lon="-76.2146780">
        <ele>1845.8</ele>
        <time>2022-08-14T19:32:25Z</time>
      </trkpt>
      <trkpt lat="4.3926460" lon="-76.2147500">
        <ele>1845.0</ele>
        <time>2022-08-14T19:32:26Z</time>
      </trkpt>
      <trkpt lat="4.3926210" lon="-76.2147970">
        <ele>1844.2</ele>
        <time>2022-08-14T19:32:27Z</time>
      </trkpt>
      <trkpt lat="4.3925490" lon="-76.2149100">
        <ele>1842.6</ele>
        <time>2022-08-14T19:32:29Z</time>
      </trkpt>
      <trkpt lat="4.3925040" lon="-76.2149810">
        <ele>1842.0</ele>
        <time>2022-08-14T19:32:30Z</time>
      </trkpt>
      <trkpt lat="4.3924610" lon="-76.2150400">
        <ele>1841.2</ele>
        <time>2022-08-14T19:32:31Z</time>
      </trkpt>
      <trkpt lat="4.3923410" lon="-76.2152360">
        <ele>1840.2</ele>
        <time>2022-08-14T19:32:34Z</time>
      </trkpt>
      <trkpt lat="4.3923090" lon="-76.2153030">
        <ele>1839.8</ele>
        <time>2022-08-14T19:32:35Z</time>
      </trkpt>
      <trkpt lat="4.3922790" lon="-76.2153730">
        <ele>1839.2</ele>
        <time>2022-08-14T19:32:36Z</time>
      </trkpt>
      <trkpt lat="4.3922460" lon="-76.2154440">
        <ele>1838.8</ele>
        <time>2022-08-14T19:32:37Z</time>
      </trkpt>
      <trkpt lat="4.3922200" lon="-76.2155210">
        <ele>1838.0</ele>
        <time>2022-08-14T19:32:38Z</time>
      </trkpt>
      <trkpt lat="4.3922070" lon="-76.2155860">
        <ele>1837.2</ele>
        <time>2022-08-14T19:32:39Z</time>
      </trkpt>
      <trkpt lat="4.3922000" lon="-76.2156880">
        <ele>1837.2</ele>
        <time>2022-08-14T19:32:40Z</time>
      </trkpt>
      <trkpt lat="4.3922310" lon="-76.2158610">
        <ele>1835.4</ele>
        <time>2022-08-14T19:32:42Z</time>
      </trkpt>
      <trkpt lat="4.3922620" lon="-76.2159570">
        <ele>1834.8</ele>
        <time>2022-08-14T19:32:43Z</time>
      </trkpt>
      <trkpt lat="4.3923000" lon="-76.2160520">
        <ele>1834.0</ele>
        <time>2022-08-14T19:32:44Z</time>
      </trkpt>
      <trkpt lat="4.3923810" lon="-76.2162430">
        <ele>1832.6</ele>
        <time>2022-08-14T19:32:46Z</time>
      </trkpt>
      <trkpt lat="4.3924200" lon="-76.2163310">
        <ele>1831.6</ele>
        <time>2022-08-14T19:32:47Z</time>
      </trkpt>
      <trkpt lat="4.3925020" lon="-76.2164950">
        <ele>1829.8</ele>
        <time>2022-08-14T19:32:49Z</time>
      </trkpt>
      <trkpt lat="4.3925430" lon="-76.2165630">
        <ele>1828.8</ele>
        <time>2022-08-14T19:32:50Z</time>
      </trkpt>
      <trkpt lat="4.3926330" lon="-76.2166680">
        <ele>1827.4</ele>
        <time>2022-08-14T19:32:52Z</time>
      </trkpt>
      <trkpt lat="4.3927930" lon="-76.2168470">
        <ele>1827.0</ele>
        <time>2022-08-14T19:32:56Z</time>
      </trkpt>
      <trkpt lat="4.3928940" lon="-76.2170080">
        <ele>1826.4</ele>
        <time>2022-08-14T19:32:59Z</time>
      </trkpt>
      <trkpt lat="4.3929760" lon="-76.2171260">
        <ele>1825.6</ele>
        <time>2022-08-14T19:33:01Z</time>
      </trkpt>
      <trkpt lat="4.3930460" lon="-76.2172430">
        <ele>1825.2</ele>
        <time>2022-08-14T19:33:03Z</time>
      </trkpt>
      <trkpt lat="4.3930960" lon="-76.2173710">
        <ele>1825.0</ele>
        <time>2022-08-14T19:33:05Z</time>
      </trkpt>
      <trkpt lat="4.3931100" lon="-76.2174380">
        <ele>1825.0</ele>
        <time>2022-08-14T19:33:06Z</time>
      </trkpt>
      <trkpt lat="4.3931150" lon="-76.2175040">
        <ele>1825.0</ele>
        <time>2022-08-14T19:33:07Z</time>
      </trkpt>
      <trkpt lat="4.3930960" lon="-76.2176970">
        <ele>1824.8</ele>
        <time>2022-08-14T19:33:10Z</time>
      </trkpt>
      <trkpt lat="4.3931020" lon="-76.2178270">
        <ele>1823.8</ele>
        <time>2022-08-14T19:33:12Z</time>
      </trkpt>
      <trkpt lat="4.3931450" lon="-76.2179290">
        <ele>1823.2</ele>
        <time>2022-08-14T19:33:14Z</time>
      </trkpt>
      <trkpt lat="4.3932220" lon="-76.2180490">
        <ele>1822.6</ele>
        <time>2022-08-14T19:33:16Z</time>
      </trkpt>
      <trkpt lat="4.3932990" lon="-76.2181750">
        <ele>1821.6</ele>
        <time>2022-08-14T19:33:18Z</time>
      </trkpt>
      <trkpt lat="4.3933290" lon="-76.2182460">
        <ele>1820.8</ele>
        <time>2022-08-14T19:33:19Z</time>
      </trkpt>
      <trkpt lat="4.3933500" lon="-76.2183190">
        <ele>1820.0</ele>
        <time>2022-08-14T19:33:20Z</time>
      </trkpt>
      <trkpt lat="4.3933850" lon="-76.2184700">
        <ele>1818.4</ele>
        <time>2022-08-14T19:33:22Z</time>
      </trkpt>
      <trkpt lat="4.3934320" lon="-76.2186240">
        <ele>1816.6</ele>
        <time>2022-08-14T19:33:24Z</time>
      </trkpt>
      <trkpt lat="4.3934580" lon="-76.2187050">
        <ele>1815.8</ele>
        <time>2022-08-14T19:33:25Z</time>
      </trkpt>
      <trkpt lat="4.3934860" lon="-76.2187860">
        <ele>1815.0</ele>
        <time>2022-08-14T19:33:26Z</time>
      </trkpt>
      <trkpt lat="4.3935520" lon="-76.2189480">
        <ele>1813.2</ele>
        <time>2022-08-14T19:33:28Z</time>
      </trkpt>
      <trkpt lat="4.3936240" lon="-76.2191140">
        <ele>1812.0</ele>
        <time>2022-08-14T19:33:30Z</time>
      </trkpt>
      <trkpt lat="4.3936530" lon="-76.2192000">
        <ele>1810.8</ele>
        <time>2022-08-14T19:33:31Z</time>
      </trkpt>
      <trkpt lat="4.3936830" lon="-76.2192890">
        <ele>1809.6</ele>
        <time>2022-08-14T19:33:32Z</time>
      </trkpt>
      <trkpt lat="4.3937390" lon="-76.2194650">
        <ele>1808.0</ele>
        <time>2022-08-14T19:33:34Z</time>
      </trkpt>
      <trkpt lat="4.3937990" lon="-76.2196310">
        <ele>1806.4</ele>
        <time>2022-08-14T19:33:36Z</time>
      </trkpt>
      <trkpt lat="4.3938530" lon="-76.2197780">
        <ele>1804.8</ele>
        <time>2022-08-14T19:33:38Z</time>
      </trkpt>
      <trkpt lat="4.3938840" lon="-76.2198540">
        <ele>1803.6</ele>
        <time>2022-08-14T19:33:39Z</time>
      </trkpt>
      <trkpt lat="4.3939170" lon="-76.2199240">
        <ele>1802.6</ele>
        <time>2022-08-14T19:33:40Z</time>
      </trkpt>
      <trkpt lat="4.3939650" lon="-76.2199980">
        <ele>1802.0</ele>
        <time>2022-08-14T19:33:41Z</time>
      </trkpt>
      <trkpt lat="4.3940110" lon="-76.2200490">
        <ele>1801.4</ele>
        <time>2022-08-14T19:33:42Z</time>
      </trkpt>
      <trkpt lat="4.3940980" lon="-76.2201180">
        <ele>1801.0</ele>
        <time>2022-08-14T19:33:44Z</time>
      </trkpt>
      <trkpt lat="4.3941590" lon="-76.2201400">
        <ele>1801.0</ele>
        <time>2022-08-14T19:33:45Z</time>
      </trkpt>
      <trkpt lat="4.3942200" lon="-76.2201390">
        <ele>1801.0</ele>
        <time>2022-08-14T19:33:46Z</time>
      </trkpt>
      <trkpt lat="4.3942840" lon="-76.2201360">
        <ele>1800.8</ele>
        <time>2022-08-14T19:33:47Z</time>
      </trkpt>
      <trkpt lat="4.3944180" lon="-76.2201420">
        <ele>1800.6</ele>
        <time>2022-08-14T19:33:49Z</time>
      </trkpt>
      <trkpt lat="4.3945400" lon="-76.2201860">
        <ele>1800.2</ele>
        <time>2022-08-14T19:33:51Z</time>
      </trkpt>
      <trkpt lat="4.3945860" lon="-76.2202260">
        <ele>1800.0</ele>
        <time>2022-08-14T19:33:52Z</time>
      </trkpt>
      <trkpt lat="4.3946210" lon="-76.2202790">
        <ele>1800.0</ele>
        <time>2022-08-14T19:33:53Z</time>
      </trkpt>
      <trkpt lat="4.3946480" lon="-76.2204130">
        <ele>1799.8</ele>
        <time>2022-08-14T19:33:55Z</time>
      </trkpt>
      <trkpt lat="4.3946390" lon="-76.2204890">
        <ele>1799.6</ele>
        <time>2022-08-14T19:33:56Z</time>
      </trkpt>
      <trkpt lat="4.3946110" lon="-76.2206550">
        <ele>1799.2</ele>
        <time>2022-08-14T19:33:58Z</time>
      </trkpt>
      <trkpt lat="4.3946160" lon="-76.2207460">
        <ele>1799.0</ele>
        <time>2022-08-14T19:33:59Z</time>
      </trkpt>
      <trkpt lat="4.3946310" lon="-76.2208440">
        <ele>1798.8</ele>
        <time>2022-08-14T19:34:00Z</time>
      </trkpt>
      <trkpt lat="4.3946560" lon="-76.2209450">
        <ele>1798.4</ele>
        <time>2022-08-14T19:34:01Z</time>
      </trkpt>
      <trkpt lat="4.3946870" lon="-76.2210510">
        <ele>1798.0</ele>
        <time>2022-08-14T19:34:02Z</time>
      </trkpt>
      <trkpt lat="4.3947230" lon="-76.2211630">
        <ele>1797.4</ele>
        <time>2022-08-14T19:34:03Z</time>
      </trkpt>
      <trkpt lat="4.3948240" lon="-76.2213950">
        <ele>1795.4</ele>
        <time>2022-08-14T19:34:05Z</time>
      </trkpt>
      <trkpt lat="4.3948850" lon="-76.2215060">
        <ele>1794.4</ele>
        <time>2022-08-14T19:34:06Z</time>
      </trkpt>
      <trkpt lat="4.3949470" lon="-76.2216170">
        <ele>1793.4</ele>
        <time>2022-08-14T19:34:07Z</time>
      </trkpt>
      <trkpt lat="4.3949950" lon="-76.2217280">
        <ele>1792.4</ele>
        <time>2022-08-14T19:34:08Z</time>
      </trkpt>
      <trkpt lat="4.3950390" lon="-76.2218280">
        <ele>1791.0</ele>
        <time>2022-08-14T19:34:09Z</time>
      </trkpt>
      <trkpt lat="4.3950800" lon="-76.2219150">
        <ele>1790.0</ele>
        <time>2022-08-14T19:34:10Z</time>
      </trkpt>
      <trkpt lat="4.3951490" lon="-76.2220530">
        <ele>1788.0</ele>
        <time>2022-08-14T19:34:12Z</time>
      </trkpt>
      <trkpt lat="4.3951790" lon="-76.2221150">
        <ele>1786.2</ele>
        <time>2022-08-14T19:34:13Z</time>
      </trkpt>
      <trkpt lat="4.3952020" lon="-76.2221660">
        <ele>1784.2</ele>
        <time>2022-08-14T19:34:14Z</time>
      </trkpt>
      <trkpt lat="4.3952350" lon="-76.2222300">
        <ele>1783.0</ele>
        <time>2022-08-14T19:34:15Z</time>
      </trkpt>
      <trkpt lat="4.3952800" lon="-76.2223060">
        <ele>1782.0</ele>
        <time>2022-08-14T19:34:16Z</time>
      </trkpt>
      <trkpt lat="4.3953650" lon="-76.2224260">
        <ele>1781.6</ele>
        <time>2022-08-14T19:34:18Z</time>
      </trkpt>
      <trkpt lat="4.3954490" lon="-76.2226900">
        <ele>1780.6</ele>
        <time>2022-08-14T19:34:22Z</time>
      </trkpt>
      <trkpt lat="4.3955310" lon="-76.2229340">
        <ele>1779.4</ele>
        <time>2022-08-14T19:34:26Z</time>
      </trkpt>
      <trkpt lat="4.3955410" lon="-76.2230410">
        <ele>1778.4</ele>
        <time>2022-08-14T19:34:28Z</time>
      </trkpt>
      <trkpt lat="4.3955400" lon="-76.2230910">
        <ele>1777.6</ele>
        <time>2022-08-14T19:34:29Z</time>
      </trkpt>
      <trkpt lat="4.3955350" lon="-76.2231400">
        <ele>1777.0</ele>
        <time>2022-08-14T19:34:30Z</time>
      </trkpt>
      <trkpt lat="4.3955160" lon="-76.2232740">
        <ele>1775.4</ele>
        <time>2022-08-14T19:34:33Z</time>
      </trkpt>
      <trkpt lat="4.3954980" lon="-76.2233630">
        <ele>1774.2</ele>
        <time>2022-08-14T19:34:35Z</time>
      </trkpt>
      <trkpt lat="4.3954760" lon="-76.2234770">
        <ele>1773.2</ele>
        <time>2022-08-14T19:34:37Z</time>
      </trkpt>
      <trkpt lat="4.3954710" lon="-76.2235700">
        <ele>1772.0</ele>
        <time>2022-08-14T19:34:39Z</time>
      </trkpt>
      <trkpt lat="4.3954720" lon="-76.2236300">
        <ele>1771.6</ele>
        <time>2022-08-14T19:34:40Z</time>
      </trkpt>
      <trkpt lat="4.3955010" lon="-76.2237170">
        <ele>1771.0</ele>
        <time>2022-08-14T19:34:42Z</time>
      </trkpt>
      <trkpt lat="4.3955280" lon="-76.2237550">
        <ele>1770.4</ele>
        <time>2022-08-14T19:34:43Z</time>
      </trkpt>
      <trkpt lat="4.3955600" lon="-76.2237900">
        <ele>1769.6</ele>
        <time>2022-08-14T19:34:44Z</time>
      </trkpt>
      <trkpt lat="4.3956300" lon="-76.2238610">
        <ele>1768.4</ele>
        <time>2022-08-14T19:34:46Z</time>
      </trkpt>
      <trkpt lat="4.3957020" lon="-76.2239420">
        <ele>1766.4</ele>
        <time>2022-08-14T19:34:48Z</time>
      </trkpt>
      <trkpt lat="4.3957350" lon="-76.2239860">
        <ele>1766.2</ele>
        <time>2022-08-14T19:34:49Z</time>
      </trkpt>
      <trkpt lat="4.3957960" lon="-76.2240810">
        <ele>1765.2</ele>
        <time>2022-08-14T19:34:51Z</time>
      </trkpt>
      <trkpt lat="4.3958200" lon="-76.2241360">
        <ele>1763.8</ele>
        <time>2022-08-14T19:34:53Z</time>
      </trkpt>
      <trkpt lat="4.3958550" lon="-76.2242300">
        <ele>1763.2</ele>
        <time>2022-08-14T19:34:54Z</time>
      </trkpt>
      <trkpt lat="4.3958730" lon="-76.2242820">
        <ele>1762.8</ele>
        <time>2022-08-14T19:34:55Z</time>
      </trkpt>
      <trkpt lat="4.3959050" lon="-76.2243980">
        <ele>1761.8</ele>
        <time>2022-08-14T19:34:57Z</time>
      </trkpt>
      <trkpt lat="4.3959730" lon="-76.2246460">
        <ele>1761.4</ele>
        <time>2022-08-14T19:35:02Z</time>
      </trkpt>
      <trkpt lat="4.3960350" lon="-76.2248850">
        <ele>1761.4</ele>
        <time>2022-08-14T19:35:08Z</time>
      </trkpt>
      <trkpt lat="4.3961330" lon="-76.2252090">
        <ele>1762.0</ele>
        <time>2022-08-14T19:35:16Z</time>
      </trkpt>
      <trkpt lat="4.3961530" lon="-76.2252670">
        <ele>1762.0</ele>
        <time>2022-08-14T19:35:17Z</time>
      </trkpt>
      <trkpt lat="4.3962150" lon="-76.2254150">
        <ele>1762.0</ele>
        <time>2022-08-14T19:35:20Z</time>
      </trkpt>
      <trkpt lat="4.3962770" lon="-76.2255080">
        <ele>1761.6</ele>
        <time>2022-08-14T19:35:22Z</time>
      </trkpt>
      <trkpt lat="4.3963750" lon="-76.2256710">
        <ele>1760.4</ele>
        <time>2022-08-14T19:35:25Z</time>
      </trkpt>
      <trkpt lat="4.3964580" lon="-76.2258170">
        <ele>1759.8</ele>
        <time>2022-08-14T19:35:27Z</time>
      </trkpt>
      <trkpt lat="4.3964970" lon="-76.2258850">
        <ele>1759.4</ele>
        <time>2022-08-14T19:35:28Z</time>
      </trkpt>
      <trkpt lat="4.3966040" lon="-76.2260740">
        <ele>1758.2</ele>
        <time>2022-08-14T19:35:31Z</time>
      </trkpt>
      <trkpt lat="4.3966740" lon="-76.2262250">
        <ele>1757.0</ele>
        <time>2022-08-14T19:35:33Z</time>
      </trkpt>
      <trkpt lat="4.3966970" lon="-76.2262950">
        <ele>1756.2</ele>
        <time>2022-08-14T19:35:34Z</time>
      </trkpt>
      <trkpt lat="4.3967140" lon="-76.2263680">
        <ele>1755.2</ele>
        <time>2022-08-14T19:35:35Z</time>
      </trkpt>
      <trkpt lat="4.3967420" lon="-76.2265220">
        <ele>1753.4</ele>
        <time>2022-08-14T19:35:37Z</time>
      </trkpt>
      <trkpt lat="4.3968030" lon="-76.2268230">
        <ele>1752.6</ele>
        <time>2022-08-14T19:35:41Z</time>
      </trkpt>
      <trkpt lat="4.3968170" lon="-76.2268810">
        <ele>1752.4</ele>
        <time>2022-08-14T19:35:42Z</time>
      </trkpt>
      <trkpt lat="4.3968520" lon="-76.2269680">
        <ele>1752.2</ele>
        <time>2022-08-14T19:35:43Z</time>
      </trkpt>
      <trkpt lat="4.3969240" lon="-76.2271100">
        <ele>1751.4</ele>
        <time>2022-08-14T19:35:45Z</time>
      </trkpt>
      <trkpt lat="4.3969660" lon="-76.2271740">
        <ele>1750.8</ele>
        <time>2022-08-14T19:35:46Z</time>
      </trkpt>
      <trkpt lat="4.3970140" lon="-76.2272380">
        <ele>1750.2</ele>
        <time>2022-08-14T19:35:47Z</time>
      </trkpt>
      <trkpt lat="4.3970970" lon="-76.2273700">
        <ele>1749.2</ele>
        <time>2022-08-14T19:35:49Z</time>
      </trkpt>
      <trkpt lat="4.3971220" lon="-76.2274400">
        <ele>1749.0</ele>
        <time>2022-08-14T19:35:50Z</time>
      </trkpt>
      <trkpt lat="4.3971310" lon="-76.2275140">
        <ele>1748.4</ele>
        <time>2022-08-14T19:35:51Z</time>
      </trkpt>
      <trkpt lat="4.3971030" lon="-76.2276520">
        <ele>1747.4</ele>
        <time>2022-08-14T19:35:53Z</time>
      </trkpt>
      <trkpt lat="4.3970640" lon="-76.2277150">
        <ele>1747.4</ele>
        <time>2022-08-14T19:35:54Z</time>
      </trkpt>
      <trkpt lat="4.3969680" lon="-76.2278210">
        <ele>1745.8</ele>
        <time>2022-08-14T19:35:56Z</time>
      </trkpt>
      <trkpt lat="4.3968090" lon="-76.2280190">
        <ele>1744.6</ele>
        <time>2022-08-14T19:35:59Z</time>
      </trkpt>
      <trkpt lat="4.3966670" lon="-76.2282090">
        <ele>1743.4</ele>
        <time>2022-08-14T19:36:02Z</time>
      </trkpt>
      <trkpt lat="4.3965040" lon="-76.2284240">
        <ele>1742.2</ele>
        <time>2022-08-14T19:36:05Z</time>
      </trkpt>
      <trkpt lat="4.3964120" lon="-76.2285390">
        <ele>1740.8</ele>
        <time>2022-08-14T19:36:07Z</time>
      </trkpt>
      <trkpt lat="4.3963250" lon="-76.2286460">
        <ele>1739.0</ele>
        <time>2022-08-14T19:36:09Z</time>
      </trkpt>
      <trkpt lat="4.3962700" lon="-76.2287530">
        <ele>1737.4</ele>
        <time>2022-08-14T19:36:11Z</time>
      </trkpt>
      <trkpt lat="4.3962500" lon="-76.2288190">
        <ele>1736.4</ele>
        <time>2022-08-14T19:36:12Z</time>
      </trkpt>
      <trkpt lat="4.3962380" lon="-76.2288900">
        <ele>1735.6</ele>
        <time>2022-08-14T19:36:13Z</time>
      </trkpt>
      <trkpt lat="4.3962360" lon="-76.2289610">
        <ele>1735.0</ele>
        <time>2022-08-14T19:36:14Z</time>
      </trkpt>
      <trkpt lat="4.3962560" lon="-76.2290820">
        <ele>1734.6</ele>
        <time>2022-08-14T19:36:16Z</time>
      </trkpt>
      <trkpt lat="4.3962820" lon="-76.2291660">
        <ele>1734.2</ele>
        <time>2022-08-14T19:36:17Z</time>
      </trkpt>
      <trkpt lat="4.3963020" lon="-76.2292370">
        <ele>1734.2</ele>
        <time>2022-08-14T19:36:18Z</time>
      </trkpt>
      <trkpt lat="4.3962700" lon="-76.2293830">
        <ele>1733.8</ele>
        <time>2022-08-14T19:36:20Z</time>
      </trkpt>
      <trkpt lat="4.3962260" lon="-76.2294480">
        <ele>1733.0</ele>
        <time>2022-08-14T19:36:21Z</time>
      </trkpt>
      <trkpt lat="4.3961160" lon="-76.2295760">
        <ele>1732.0</ele>
        <time>2022-08-14T19:36:23Z</time>
      </trkpt>
      <trkpt lat="4.3960530" lon="-76.2296370">
        <ele>1731.4</ele>
        <time>2022-08-14T19:36:24Z</time>
      </trkpt>
      <trkpt lat="4.3959950" lon="-76.2297010">
        <ele>1730.8</ele>
        <time>2022-08-14T19:36:25Z</time>
      </trkpt>
      <trkpt lat="4.3959080" lon="-76.2298260">
        <ele>1729.2</ele>
        <time>2022-08-14T19:36:27Z</time>
      </trkpt>
      <trkpt lat="4.3958690" lon="-76.2298900">
        <ele>1728.2</ele>
        <time>2022-08-14T19:36:28Z</time>
      </trkpt>
      <trkpt lat="4.3958380" lon="-76.2299590">
        <ele>1727.2</ele>
        <time>2022-08-14T19:36:29Z</time>
      </trkpt>
      <trkpt lat="4.3958160" lon="-76.2300380">
        <ele>1726.0</ele>
        <time>2022-08-14T19:36:30Z</time>
      </trkpt>
      <trkpt lat="4.3958050" lon="-76.2301220">
        <ele>1725.2</ele>
        <time>2022-08-14T19:36:31Z</time>
      </trkpt>
      <trkpt lat="4.3957960" lon="-76.2302080">
        <ele>1724.4</ele>
        <time>2022-08-14T19:36:32Z</time>
      </trkpt>
      <trkpt lat="4.3957770" lon="-76.2303770">
        <ele>1723.2</ele>
        <time>2022-08-14T19:36:34Z</time>
      </trkpt>
      <trkpt lat="4.3957740" lon="-76.2304590">
        <ele>1722.8</ele>
        <time>2022-08-14T19:36:35Z</time>
      </trkpt>
      <trkpt lat="4.3957810" lon="-76.2305340">
        <ele>1722.0</ele>
        <time>2022-08-14T19:36:36Z</time>
      </trkpt>
      <trkpt lat="4.3957960" lon="-76.2306040">
        <ele>1721.2</ele>
        <time>2022-08-14T19:36:37Z</time>
      </trkpt>
      <trkpt lat="4.3958150" lon="-76.2306690">
        <ele>1720.8</ele>
        <time>2022-08-14T19:36:38Z</time>
      </trkpt>
      <trkpt lat="4.3958710" lon="-76.2307800">
        <ele>1719.6</ele>
        <time>2022-08-14T19:36:40Z</time>
      </trkpt>
      <trkpt lat="4.3959070" lon="-76.2308240">
        <ele>1719.0</ele>
        <time>2022-08-14T19:36:41Z</time>
      </trkpt>
      <trkpt lat="4.3959790" lon="-76.2309000">
        <ele>1718.6</ele>
        <time>2022-08-14T19:36:43Z</time>
      </trkpt>
      <trkpt lat="4.3960130" lon="-76.2309440">
        <ele>1718.4</ele>
        <time>2022-08-14T19:36:44Z</time>
      </trkpt>
      <trkpt lat="4.3960450" lon="-76.2309920">
        <ele>1718.2</ele>
        <time>2022-08-14T19:36:45Z</time>
      </trkpt>
      <trkpt lat="4.3960710" lon="-76.2310450">
        <ele>1718.0</ele>
        <time>2022-08-14T19:36:46Z</time>
      </trkpt>
      <trkpt lat="4.3961190" lon="-76.2312260">
        <ele>1717.6</ele>
        <time>2022-08-14T19:36:49Z</time>
      </trkpt>
      <trkpt lat="4.3961400" lon="-76.2312890">
        <ele>1717.2</ele>
        <time>2022-08-14T19:36:50Z</time>
      </trkpt>
      <trkpt lat="4.3961600" lon="-76.2314580">
        <ele>1716.0</ele>
        <time>2022-08-14T19:36:53Z</time>
      </trkpt>
      <trkpt lat="4.3961810" lon="-76.2315910">
        <ele>1714.4</ele>
        <time>2022-08-14T19:36:56Z</time>
      </trkpt>
      <trkpt lat="4.3961720" lon="-76.2317090">
        <ele>1713.0</ele>
        <time>2022-08-14T19:36:59Z</time>
      </trkpt>
      <trkpt lat="4.3961680" lon="-76.2317940">
        <ele>1711.6</ele>
        <time>2022-08-14T19:37:01Z</time>
      </trkpt>
      <trkpt lat="4.3961790" lon="-76.2318400">
        <ele>1711.2</ele>
        <time>2022-08-14T19:37:02Z</time>
      </trkpt>
      <trkpt lat="4.3962080" lon="-76.2319500">
        <ele>1710.0</ele>
        <time>2022-08-14T19:37:04Z</time>
      </trkpt>
      <trkpt lat="4.3962420" lon="-76.2320700">
        <ele>1709.2</ele>
        <time>2022-08-14T19:37:06Z</time>
      </trkpt>
      <trkpt lat="4.3962670" lon="-76.2321990">
        <ele>1709.0</ele>
        <time>2022-08-14T19:37:08Z</time>
      </trkpt>
      <trkpt lat="4.3962700" lon="-76.2322680">
        <ele>1708.2</ele>
        <time>2022-08-14T19:37:09Z</time>
      </trkpt>
      <trkpt lat="4.3962670" lon="-76.2323330">
        <ele>1707.8</ele>
        <time>2022-08-14T19:37:10Z</time>
      </trkpt>
      <trkpt lat="4.3962600" lon="-76.2323940">
        <ele>1707.4</ele>
        <time>2022-08-14T19:37:11Z</time>
      </trkpt>
      <trkpt lat="4.3962390" lon="-76.2325150">
        <ele>1706.2</ele>
        <time>2022-08-14T19:37:13Z</time>
      </trkpt>
      <trkpt lat="4.3962090" lon="-76.2326380">
        <ele>1704.8</ele>
        <time>2022-08-14T19:37:15Z</time>
      </trkpt>
      <trkpt lat="4.3961860" lon="-76.2327000">
        <ele>1704.0</ele>
        <time>2022-08-14T19:37:16Z</time>
      </trkpt>
      <trkpt lat="4.3961580" lon="-76.2327590">
        <ele>1703.6</ele>
        <time>2022-08-14T19:37:17Z</time>
      </trkpt>
      <trkpt lat="4.3960690" lon="-76.2329080">
        <ele>1702.2</ele>
        <time>2022-08-14T19:37:20Z</time>
      </trkpt>
      <trkpt lat="4.3960060" lon="-76.2329970">
        <ele>1701.4</ele>
        <time>2022-08-14T19:37:22Z</time>
      </trkpt>
      <trkpt lat="4.3959590" lon="-76.2330950">
        <ele>1701.2</ele>
        <time>2022-08-14T19:37:24Z</time>
      </trkpt>
      <trkpt lat="4.3959490" lon="-76.2331950">
        <ele>1701.0</ele>
        <time>2022-08-14T19:37:26Z</time>
      </trkpt>
      <trkpt lat="4.3959550" lon="-76.2332950">
        <ele>1701.0</ele>
        <time>2022-08-14T19:37:28Z</time>
      </trkpt>
      <trkpt lat="4.3959810" lon="-76.2333910">
        <ele>1700.8</ele>
        <time>2022-08-14T19:37:30Z</time>
      </trkpt>
      <trkpt lat="4.3960010" lon="-76.2334370">
        <ele>1700.8</ele>
        <time>2022-08-14T19:37:31Z</time>
      </trkpt>
      <trkpt lat="4.3960410" lon="-76.2335310">
        <ele>1700.8</ele>
        <time>2022-08-14T19:37:33Z</time>
      </trkpt>
      <trkpt lat="4.3961350" lon="-76.2337280">
        <ele>1700.2</ele>
        <time>2022-08-14T19:37:37Z</time>
      </trkpt>
      <trkpt lat="4.3961530" lon="-76.2337810">
        <ele>1700.2</ele>
        <time>2022-08-14T19:37:38Z</time>
      </trkpt>
      <trkpt lat="4.3961740" lon="-76.2339340">
        <ele>1699.4</ele>
        <time>2022-08-14T19:37:41Z</time>
      </trkpt>
      <trkpt lat="4.3961770" lon="-76.2339800">
        <ele>1699.2</ele>
        <time>2022-08-14T19:37:42Z</time>
      </trkpt>
      <trkpt lat="4.3961760" lon="-76.2340260">
        <ele>1699.0</ele>
        <time>2022-08-14T19:37:43Z</time>
      </trkpt>
      <trkpt lat="4.3961630" lon="-76.2343180">
        <ele>1697.8</ele>
        <time>2022-08-14T19:37:49Z</time>
      </trkpt>
      <trkpt lat="4.3961590" lon="-76.2343670">
        <ele>1697.6</ele>
        <time>2022-08-14T19:37:50Z</time>
      </trkpt>
      <trkpt lat="4.3961140" lon="-76.2345110">
        <ele>1696.6</ele>
        <time>2022-08-14T19:37:53Z</time>
      </trkpt>
      <trkpt lat="4.3960960" lon="-76.2345470">
        <ele>1695.8</ele>
        <time>2022-08-14T19:37:54Z</time>
      </trkpt>
      <trkpt lat="4.3960790" lon="-76.2345770">
        <ele>1695.6</ele>
        <time>2022-08-14T19:37:55Z</time>
      </trkpt>
      <trkpt lat="4.3960420" lon="-76.2346480">
        <ele>1695.0</ele>
        <time>2022-08-14T19:37:58Z</time>
      </trkpt>
      <trkpt lat="4.3960340" lon="-76.2346640">
        <ele>1694.4</ele>
        <time>2022-08-14T19:37:59Z</time>
      </trkpt>
      <trkpt lat="4.3960310" lon="-76.2346810">
        <ele>1693.6</ele>
        <time>2022-08-14T19:38:02Z</time>
      </trkpt>
      <trkpt lat="4.3960310" lon="-76.2346810">
        <ele>1693.4</ele>
        <time>2022-08-14T19:38:05Z</time>
      </trkpt>
      <trkpt lat="4.3960310" lon="-76.2346810">
        <ele>1692.8</ele>
        <time>2022-08-14T19:38:15Z</time>
      </trkpt>
      <trkpt lat="4.3960310" lon="-76.2346810">
        <ele>1692.8</ele>
        <time>2022-08-14T19:38:17Z</time>
      </trkpt>
      <trkpt lat="4.3960330" lon="-76.2346810">
        <ele>1693.6</ele>
        <time>2022-08-14T19:38:39Z</time>
      </trkpt>
      <trkpt lat="4.3960340" lon="-76.2346820">
        <ele>1693.8</ele>
        <time>2022-08-14T19:38:43Z</time>
      </trkpt>
      <trkpt lat="4.3960280" lon="-76.2346950">
        <ele>1693.8</ele>
        <time>2022-08-14T19:38:57Z</time>
      </trkpt>
      <trkpt lat="4.3960100" lon="-76.2347280">
        <ele>1693.4</ele>
        <time>2022-08-14T19:38:59Z</time>
      </trkpt>
      <trkpt lat="4.3959560" lon="-76.2348750">
        <ele>1693.0</ele>
        <time>2022-08-14T19:39:04Z</time>
      </trkpt>
      <trkpt lat="4.3959270" lon="-76.2351130">
        <ele>1692.2</ele>
        <time>2022-08-14T19:39:11Z</time>
      </trkpt>
      <trkpt lat="4.3959490" lon="-76.2351510">
        <ele>1691.0</ele>
        <time>2022-08-14T19:39:14Z</time>
      </trkpt>
      <trkpt lat="4.3959510" lon="-76.2351550">
        <ele>1690.6</ele>
        <time>2022-08-14T19:39:15Z</time>
      </trkpt>
      <trkpt lat="4.3959510" lon="-76.2351550">
        <ele>1689.6</ele>
        <time>2022-08-14T19:39:17Z</time>
      </trkpt>
      <trkpt lat="4.3959510" lon="-76.2351550">
        <ele>1689.2</ele>
        <time>2022-08-14T19:39:21Z</time>
      </trkpt>
      <trkpt lat="4.3959520" lon="-76.2351560">
        <ele>1689.2</ele>
        <time>2022-08-14T19:39:28Z</time>
      </trkpt>
      <trkpt lat="4.3959520" lon="-76.2351560">
        <ele>1690.0</ele>
        <time>2022-08-14T19:39:41Z</time>
      </trkpt>
      <trkpt lat="4.3959520" lon="-76.2351560">
        <ele>1690.0</ele>
        <time>2022-08-14T19:39:45Z</time>
      </trkpt>
      <trkpt lat="4.3959520" lon="-76.2351560">
        <ele>1690.0</ele>
        <time>2022-08-14T19:39:58Z</time>
      </trkpt>
      <trkpt lat="4.3959520" lon="-76.2351560">
        <ele>1690.4</ele>
        <time>2022-08-14T19:40:35Z</time>
      </trkpt>
      <trkpt lat="4.3959520" lon="-76.2351560">
        <ele>1690.4</ele>
        <time>2022-08-14T19:40:45Z</time>
      </trkpt>
      <trkpt lat="4.3959520" lon="-76.2351560">
        <ele>1690.4</ele>
        <time>2022-08-14T19:40:48Z</time>
      </trkpt>
      <trkpt lat="4.3959520" lon="-76.2351560">
        <ele>1690.4</ele>
        <time>2022-08-14T19:41:07Z</time>
      </trkpt>
      <trkpt lat="4.3959520" lon="-76.2351560">
        <ele>1690.4</ele>
        <time>2022-08-14T19:41:12Z</time>
      </trkpt>
      <trkpt lat="4.3959520" lon="-76.2351560">
        <ele>1690.8</ele>
        <time>2022-08-14T19:41:24Z</time>
      </trkpt>
      <trkpt lat="4.3959520" lon="-76.2351560">
        <ele>1691.0</ele>
        <time>2022-08-14T19:41:32Z</time>
      </trkpt>
      <trkpt lat="4.3959520" lon="-76.2351560">
        <ele>1691.0</ele>
        <time>2022-08-14T19:41:39Z</time>
      </trkpt>
      <trkpt lat="4.3959510" lon="-76.2351600">
        <ele>1690.6</ele>
        <time>2022-08-14T19:42:35Z</time>
      </trkpt>
      <trkpt lat="4.3959510" lon="-76.2351610">
        <ele>1690.8</ele>
        <time>2022-08-14T19:42:51Z</time>
      </trkpt>
      <trkpt lat="4.3959510" lon="-76.2351610">
        <ele>1690.6</ele>
        <time>2022-08-14T19:43:29Z</time>
      </trkpt>
      <trkpt lat="4.3959530" lon="-76.2351620">
        <ele>1690.8</ele>
        <time>2022-08-14T19:43:56Z</time>
      </trkpt>
      <trkpt lat="4.3959660" lon="-76.2351710">
        <ele>1690.8</ele>
        <time>2022-08-14T19:44:16Z</time>
      </trkpt>
      <trkpt lat="4.3959660" lon="-76.2351720">
        <ele>1690.6</ele>
        <time>2022-08-14T19:44:26Z</time>
      </trkpt>
      <trkpt lat="4.3959680" lon="-76.2351770">
        <ele>1690.6</ele>
        <time>2022-08-14T19:44:35Z</time>
      </trkpt>
      <trkpt lat="4.3959680" lon="-76.2351770">
        <ele>1690.6</ele>
        <time>2022-08-14T19:44:47Z</time>
      </trkpt>
      <trkpt lat="4.3959680" lon="-76.2351770">
        <ele>1690.6</ele>
        <time>2022-08-14T19:44:55Z</time>
      </trkpt>
      <trkpt lat="4.3959680" lon="-76.2351770">
        <ele>1690.8</ele>
        <time>2022-08-14T19:45:18Z</time>
      </trkpt>
      <trkpt lat="4.3959680" lon="-76.2351770">
        <ele>1690.8</ele>
        <time>2022-08-14T19:45:36Z</time>
      </trkpt>
      <trkpt lat="4.3959680" lon="-76.2351770">
        <ele>1691.0</ele>
        <time>2022-08-14T19:45:50Z</time>
      </trkpt>
      <trkpt lat="4.3959680" lon="-76.2351770">
        <ele>1691.0</ele>
        <time>2022-08-14T19:46:07Z</time>
      </trkpt>
      <trkpt lat="4.3959680" lon="-76.2351770">
        <ele>1691.0</ele>
        <time>2022-08-14T19:46:16Z</time>
      </trkpt>
      <trkpt lat="4.3959680" lon="-76.2351770">
        <ele>1691.4</ele>
        <time>2022-08-14T19:46:39Z</time>
      </trkpt>
      <trkpt lat="4.3959680" lon="-76.2351770">
        <ele>1691.0</ele>
        <time>2022-08-14T19:47:15Z</time>
      </trkpt>
      <trkpt lat="4.3959680" lon="-76.2351770">
        <ele>1691.6</ele>
        <time>2022-08-14T19:48:02Z</time>
      </trkpt>
      <trkpt lat="4.3959690" lon="-76.2351770">
        <ele>1691.2</ele>
        <time>2022-08-14T19:48:39Z</time>
      </trkpt>
      <trkpt lat="4.3959740" lon="-76.2351770">
        <ele>1690.8</ele>
        <time>2022-08-14T19:48:49Z</time>
      </trkpt>
      <trkpt lat="4.3959760" lon="-76.2351800">
        <ele>1691.0</ele>
        <time>2022-08-14T19:49:05Z</time>
      </trkpt>
      <trkpt lat="4.3959760" lon="-76.2351800">
        <ele>1691.8</ele>
        <time>2022-08-14T19:49:36Z</time>
      </trkpt>
      <trkpt lat="4.3959760" lon="-76.2351800">
        <ele>1691.8</ele>
        <time>2022-08-14T19:49:42Z</time>
      </trkpt>
      <trkpt lat="4.3959760" lon="-76.2351800">
        <ele>1691.8</ele>
        <time>2022-08-14T19:49:46Z</time>
      </trkpt>
      <trkpt lat="4.3959760" lon="-76.2351800">
        <ele>1692.2</ele>
        <time>2022-08-14T19:49:50Z</time>
      </trkpt>
      <trkpt lat="4.3959760" lon="-76.2351800">
        <ele>1693.4</ele>
        <time>2022-08-14T19:49:53Z</time>
      </trkpt>
      <trkpt lat="4.3959760" lon="-76.2351800">
        <ele>1694.8</ele>
        <time>2022-08-14T19:49:56Z</time>
      </trkpt>
      <trkpt lat="4.3959760" lon="-76.2351800">
        <ele>1696.0</ele>
        <time>2022-08-14T19:49:59Z</time>
      </trkpt>
      <trkpt lat="4.3959760" lon="-76.2351800">
        <ele>1697.4</ele>
        <time>2022-08-14T19:50:03Z</time>
      </trkpt>
      <trkpt lat="4.3959760" lon="-76.2351800">
        <ele>1698.8</ele>
        <time>2022-08-14T19:50:06Z</time>
      </trkpt>
      <trkpt lat="4.3959760" lon="-76.2351800">
        <ele>1700.0</ele>
        <time>2022-08-14T19:50:08Z</time>
      </trkpt>
      <trkpt lat="4.3959760" lon="-76.2351800">
        <ele>1701.0</ele>
        <time>2022-08-14T19:50:10Z</time>
      </trkpt>
      <trkpt lat="4.3959760" lon="-76.2351800">
        <ele>1702.2</ele>
        <time>2022-08-14T19:50:12Z</time>
      </trkpt>
      <trkpt lat="4.3959780" lon="-76.2351800">
        <ele>1703.2</ele>
        <time>2022-08-14T19:50:14Z</time>
      </trkpt>
      <trkpt lat="4.3959800" lon="-76.2351800">
        <ele>1704.4</ele>
        <time>2022-08-14T19:50:16Z</time>
      </trkpt>
      <trkpt lat="4.3959800" lon="-76.2351800">
        <ele>1704.8</ele>
        <time>2022-08-14T19:50:17Z</time>
      </trkpt>
      <trkpt lat="4.3959800" lon="-76.2351800">
        <ele>1705.4</ele>
        <time>2022-08-14T19:50:18Z</time>
      </trkpt>
      <trkpt lat="4.3959800" lon="-76.2351800">
        <ele>1706.8</ele>
        <time>2022-08-14T19:50:21Z</time>
      </trkpt>
      <trkpt lat="4.3959800" lon="-76.2351800">
        <ele>1708.2</ele>
        <time>2022-08-14T19:50:24Z</time>
      </trkpt>
      <trkpt lat="4.3959800" lon="-76.2351800">
        <ele>1709.6</ele>
        <time>2022-08-14T19:50:28Z</time>
      </trkpt>
      <trkpt lat="4.3959800" lon="-76.2351800">
        <ele>1711.0</ele>
        <time>2022-08-14T19:50:31Z</time>
      </trkpt>
      <trkpt lat="4.3959800" lon="-76.2351800">
        <ele>1712.2</ele>
        <time>2022-08-14T19:50:34Z</time>
      </trkpt>
      <trkpt lat="4.3959800" lon="-76.2351800">
        <ele>1713.6</ele>
        <time>2022-08-14T19:50:37Z</time>
      </trkpt>
      <trkpt lat="4.3959800" lon="-76.2351800">
        <ele>1714.8</ele>
        <time>2022-08-14T19:50:41Z</time>
      </trkpt>
      <trkpt lat="4.3959800" lon="-76.2351800">
        <ele>1715.6</ele>
        <time>2022-08-14T19:50:43Z</time>
      </trkpt>
      <trkpt lat="4.3959800" lon="-76.2351800">
        <ele>1715.8</ele>
        <time>2022-08-14T19:50:44Z</time>
      </trkpt>
      <trkpt lat="4.3959800" lon="-76.2351800">
        <ele>1717.2</ele>
        <time>2022-08-14T19:50:48Z</time>
      </trkpt>
      <trkpt lat="4.3959800" lon="-76.2351800">
        <ele>1718.4</ele>
        <time>2022-08-14T19:50:53Z</time>
      </trkpt>
      <trkpt lat="4.3959800" lon="-76.2351800">
        <ele>1719.6</ele>
        <time>2022-08-14T19:50:56Z</time>
      </trkpt>
      <trkpt lat="4.3959800" lon="-76.2351800">
        <ele>1720.8</ele>
        <time>2022-08-14T19:51:00Z</time>
      </trkpt>
      <trkpt lat="4.3959800" lon="-76.2351800">
        <ele>1722.0</ele>
        <time>2022-08-14T19:51:03Z</time>
      </trkpt>
      <trkpt lat="4.3959800" lon="-76.2351800">
        <ele>1722.6</ele>
        <time>2022-08-14T19:51:05Z</time>
      </trkpt>
      <trkpt lat="4.3959800" lon="-76.2351800">
        <ele>1723.4</ele>
        <time>2022-08-14T19:51:07Z</time>
      </trkpt>
      <trkpt lat="4.3959800" lon="-76.2351800">
        <ele>1724.6</ele>
        <time>2022-08-14T19:51:11Z</time>
      </trkpt>
      <trkpt lat="4.3959800" lon="-76.2351800">
        <ele>1725.8</ele>
        <time>2022-08-14T19:51:15Z</time>
      </trkpt>
      <trkpt lat="4.3959800" lon="-76.2351800">
        <ele>1726.4</ele>
        <time>2022-08-14T19:51:18Z</time>
      </trkpt>
      <trkpt lat="4.3959800" lon="-76.2351800">
        <ele>1727.0</ele>
        <time>2022-08-14T19:51:20Z</time>
      </trkpt>
      <trkpt lat="4.3959800" lon="-76.2351800">
        <ele>1728.4</ele>
        <time>2022-08-14T19:51:24Z</time>
      </trkpt>
      <trkpt lat="4.3959800" lon="-76.2351800">
        <ele>1729.4</ele>
        <time>2022-08-14T19:51:27Z</time>
      </trkpt>
      <trkpt lat="4.3959800" lon="-76.2351800">
        <ele>1730.6</ele>
        <time>2022-08-14T19:51:30Z</time>
      </trkpt>
      <trkpt lat="4.3959800" lon="-76.2351800">
        <ele>1731.6</ele>
        <time>2022-08-14T19:51:33Z</time>
      </trkpt>
      <trkpt lat="4.3959800" lon="-76.2351800">
        <ele>1733.2</ele>
        <time>2022-08-14T19:51:37Z</time>
      </trkpt>
      <trkpt lat="4.3959800" lon="-76.2351800">
        <ele>1734.6</ele>
        <time>2022-08-14T19:51:42Z</time>
      </trkpt>
      <trkpt lat="4.3959800" lon="-76.2351800">
        <ele>1735.8</ele>
        <time>2022-08-14T19:51:46Z</time>
      </trkpt>
      <trkpt lat="4.3959800" lon="-76.2351800">
        <ele>1737.2</ele>
        <time>2022-08-14T19:51:51Z</time>
      </trkpt>
      <trkpt lat="4.3959800" lon="-76.2351800">
        <ele>1738.2</ele>
        <time>2022-08-14T19:51:55Z</time>
      </trkpt>
      <trkpt lat="4.3959800" lon="-76.2351800">
        <ele>1739.4</ele>
        <time>2022-08-14T19:51:59Z</time>
      </trkpt>
      <trkpt lat="4.3959800" lon="-76.2351800">
        <ele>1740.4</ele>
        <time>2022-08-14T19:52:04Z</time>
      </trkpt>
      <trkpt lat="4.3959800" lon="-76.2351800">
        <ele>1741.8</ele>
        <time>2022-08-14T19:52:10Z</time>
      </trkpt>
      <trkpt lat="4.3959800" lon="-76.2351800">
        <ele>1742.0</ele>
        <time>2022-08-14T19:52:11Z</time>
      </trkpt>
      <trkpt lat="4.3959800" lon="-76.2351800">
        <ele>1743.0</ele>
        <time>2022-08-14T19:52:15Z</time>
      </trkpt>
      <trkpt lat="4.3959780" lon="-76.2351810">
        <ele>1743.4</ele>
        <time>2022-08-14T19:52:25Z</time>
      </trkpt>
      <trkpt lat="4.3959710" lon="-76.2352620">
        <ele>1742.8</ele>
        <time>2022-08-14T19:52:28Z</time>
      </trkpt>
      <trkpt lat="4.3959640" lon="-76.2353280">
        <ele>1742.4</ele>
        <time>2022-08-14T19:52:30Z</time>
      </trkpt>
      <trkpt lat="4.3959490" lon="-76.2355020">
        <ele>1741.4</ele>
        <time>2022-08-14T19:52:34Z</time>
      </trkpt>
      <trkpt lat="4.3959440" lon="-76.2356120">
        <ele>1740.2</ele>
        <time>2022-08-14T19:52:37Z</time>
      </trkpt>
      <trkpt lat="4.3959300" lon="-76.2357470">
        <ele>1739.4</ele>
        <time>2022-08-14T19:52:40Z</time>
      </trkpt>
      <trkpt lat="4.3959230" lon="-76.2357900">
        <ele>1739.2</ele>
        <time>2022-08-14T19:52:41Z</time>
      </trkpt>
      <trkpt lat="4.3959170" lon="-76.2358680">
        <ele>1738.4</ele>
        <time>2022-08-14T19:52:43Z</time>
      </trkpt>
      <trkpt lat="4.3959040" lon="-76.2359770">
        <ele>1737.2</ele>
        <time>2022-08-14T19:52:46Z</time>
      </trkpt>
      <trkpt lat="4.3958940" lon="-76.2360390">
        <ele>1736.4</ele>
        <time>2022-08-14T19:52:48Z</time>
      </trkpt>
      <trkpt lat="4.3958920" lon="-76.2360690">
        <ele>1736.2</ele>
        <time>2022-08-14T19:52:49Z</time>
      </trkpt>
      <trkpt lat="4.3958800" lon="-76.2361440">
        <ele>1735.0</ele>
        <time>2022-08-14T19:52:52Z</time>
      </trkpt>
      <trkpt lat="4.3958740" lon="-76.2362010">
        <ele>1734.4</ele>
        <time>2022-08-14T19:52:54Z</time>
      </trkpt>
      <trkpt lat="4.3958700" lon="-76.2362580">
        <ele>1734.0</ele>
        <time>2022-08-14T19:52:56Z</time>
      </trkpt>
      <trkpt lat="4.3958460" lon="-76.2363990">
        <ele>1732.8</ele>
        <time>2022-08-14T19:53:00Z</time>
      </trkpt>
      <trkpt lat="4.3958360" lon="-76.2364710">
        <ele>1732.2</ele>
        <time>2022-08-14T19:53:02Z</time>
      </trkpt>
      <trkpt lat="4.3958280" lon="-76.2365440">
        <ele>1731.6</ele>
        <time>2022-08-14T19:53:04Z</time>
      </trkpt>
      <trkpt lat="4.3958190" lon="-76.2366500">
        <ele>1730.8</ele>
        <time>2022-08-14T19:53:07Z</time>
      </trkpt>
      <trkpt lat="4.3958190" lon="-76.2367480">
        <ele>1729.8</ele>
        <time>2022-08-14T19:53:10Z</time>
      </trkpt>
      <trkpt lat="4.3958210" lon="-76.2368060">
        <ele>1729.2</ele>
        <time>2022-08-14T19:53:12Z</time>
      </trkpt>
      <trkpt lat="4.3958210" lon="-76.2368430">
        <ele>1728.8</ele>
        <time>2022-08-14T19:53:13Z</time>
      </trkpt>
      <trkpt lat="4.3958310" lon="-76.2369280">
        <ele>1727.6</ele>
        <time>2022-08-14T19:53:16Z</time>
      </trkpt>
      <trkpt lat="4.3958440" lon="-76.2369890">
        <ele>1727.0</ele>
        <time>2022-08-14T19:53:18Z</time>
      </trkpt>
      <trkpt lat="4.3958590" lon="-76.2370550">
        <ele>1726.2</ele>
        <time>2022-08-14T19:53:20Z</time>
      </trkpt>
      <trkpt lat="4.3958970" lon="-76.2371810">
        <ele>1725.0</ele>
        <time>2022-08-14T19:53:24Z</time>
      </trkpt>
      <trkpt lat="4.3959230" lon="-76.2372850">
        <ele>1723.8</ele>
        <time>2022-08-14T19:53:27Z</time>
      </trkpt>
      <trkpt lat="4.3959370" lon="-76.2373940">
        <ele>1722.6</ele>
        <time>2022-08-14T19:53:30Z</time>
      </trkpt>
      <trkpt lat="4.3959480" lon="-76.2375020">
        <ele>1721.4</ele>
        <time>2022-08-14T19:53:33Z</time>
      </trkpt>
      <trkpt lat="4.3959470" lon="-76.2375660">
        <ele>1720.4</ele>
        <time>2022-08-14T19:53:35Z</time>
      </trkpt>
      <trkpt lat="4.3959460" lon="-76.2376720">
        <ele>1719.0</ele>
        <time>2022-08-14T19:53:38Z</time>
      </trkpt>
      <trkpt lat="4.3959430" lon="-76.2377710">
        <ele>1717.8</ele>
        <time>2022-08-14T19:53:41Z</time>
      </trkpt>
      <trkpt lat="4.3959440" lon="-76.2378390">
        <ele>1717.4</ele>
        <time>2022-08-14T19:53:43Z</time>
      </trkpt>
      <trkpt lat="4.3959450" lon="-76.2378970">
        <ele>1716.6</ele>
        <time>2022-08-14T19:53:45Z</time>
      </trkpt>
      <trkpt lat="4.3959400" lon="-76.2380580">
        <ele>1715.4</ele>
        <time>2022-08-14T19:53:51Z</time>
      </trkpt>
      <trkpt lat="4.3959230" lon="-76.2381090">
        <ele>1714.4</ele>
        <time>2022-08-14T19:53:53Z</time>
      </trkpt>
      <trkpt lat="4.3959050" lon="-76.2381540">
        <ele>1713.0</ele>
        <time>2022-08-14T19:53:55Z</time>
      </trkpt>
      <trkpt lat="4.3958860" lon="-76.2382030">
        <ele>1711.8</ele>
        <time>2022-08-14T19:53:57Z</time>
      </trkpt>
      <trkpt lat="4.3958700" lon="-76.2382230">
        <ele>1710.6</ele>
        <time>2022-08-14T19:53:58Z</time>
      </trkpt>
      <trkpt lat="4.3958330" lon="-76.2382580">
        <ele>1709.0</ele>
        <time>2022-08-14T19:54:00Z</time>
      </trkpt>
      <trkpt lat="4.3957910" lon="-76.2382850">
        <ele>1707.2</ele>
        <time>2022-08-14T19:54:02Z</time>
      </trkpt>
      <trkpt lat="4.3957400" lon="-76.2383150">
        <ele>1705.4</ele>
        <time>2022-08-14T19:54:04Z</time>
      </trkpt>
      <trkpt lat="4.3956950" lon="-76.2383370">
        <ele>1703.6</ele>
        <time>2022-08-14T19:54:06Z</time>
      </trkpt>
      <trkpt lat="4.3956280" lon="-76.2383720">
        <ele>1702.0</ele>
        <time>2022-08-14T19:54:09Z</time>
      </trkpt>
      <trkpt lat="4.3955820" lon="-76.2383880">
        <ele>1700.2</ele>
        <time>2022-08-14T19:54:11Z</time>
      </trkpt>
      <trkpt lat="4.3955640" lon="-76.2383950">
        <ele>1699.4</ele>
        <time>2022-08-14T19:54:12Z</time>
      </trkpt>
      <trkpt lat="4.3955420" lon="-76.2384070">
        <ele>1698.8</ele>
        <time>2022-08-14T19:54:13Z</time>
      </trkpt>
      <trkpt lat="4.3954910" lon="-76.2384300">
        <ele>1697.2</ele>
        <time>2022-08-14T19:54:15Z</time>
      </trkpt>
      <trkpt lat="4.3954400" lon="-76.2384490">
        <ele>1695.8</ele>
        <time>2022-08-14T19:54:17Z</time>
      </trkpt>
      <trkpt lat="4.3953880" lon="-76.2384720">
        <ele>1694.4</ele>
        <time>2022-08-14T19:54:19Z</time>
      </trkpt>
      <trkpt lat="4.3953350" lon="-76.2385000">
        <ele>1693.0</ele>
        <time>2022-08-14T19:54:21Z</time>
      </trkpt>
      <trkpt lat="4.3952860" lon="-76.2385230">
        <ele>1691.6</ele>
        <time>2022-08-14T19:54:23Z</time>
      </trkpt>
      <trkpt lat="4.3952230" lon="-76.2385510">
        <ele>1690.2</ele>
        <time>2022-08-14T19:54:25Z</time>
      </trkpt>
      <trkpt lat="4.3951720" lon="-76.2385760">
        <ele>1689.0</ele>
        <time>2022-08-14T19:54:27Z</time>
      </trkpt>
      <trkpt lat="4.3951100" lon="-76.2386140">
        <ele>1687.8</ele>
        <time>2022-08-14T19:54:29Z</time>
      </trkpt>
      <trkpt lat="4.3950510" lon="-76.2386520">
        <ele>1686.4</ele>
        <time>2022-08-14T19:54:31Z</time>
      </trkpt>
      <trkpt lat="4.3950220" lon="-76.2386680">
        <ele>1686.4</ele>
        <time>2022-08-14T19:54:32Z</time>
      </trkpt>
      <trkpt lat="4.3949480" lon="-76.2387190">
        <ele>1684.8</ele>
        <time>2022-08-14T19:54:34Z</time>
      </trkpt>
      <trkpt lat="4.3948560" lon="-76.2387870">
        <ele>1683.4</ele>
        <time>2022-08-14T19:54:36Z</time>
      </trkpt>
      <trkpt lat="4.3948200" lon="-76.2388120">
        <ele>1682.8</ele>
        <time>2022-08-14T19:54:37Z</time>
      </trkpt>
      <trkpt lat="4.3947610" lon="-76.2388470">
        <ele>1682.4</ele>
        <time>2022-08-14T19:54:38Z</time>
      </trkpt>
      <trkpt lat="4.3946560" lon="-76.2389050">
        <ele>1681.2</ele>
        <time>2022-08-14T19:54:40Z</time>
      </trkpt>
      <trkpt lat="4.3945380" lon="-76.2389580">
        <ele>1679.8</ele>
        <time>2022-08-14T19:54:42Z</time>
      </trkpt>
      <trkpt lat="4.3944870" lon="-76.2389800">
        <ele>1679.2</ele>
        <time>2022-08-14T19:54:43Z</time>
      </trkpt>
      <trkpt lat="4.3944220" lon="-76.2390080">
        <ele>1678.6</ele>
        <time>2022-08-14T19:54:44Z</time>
      </trkpt>
      <trkpt lat="4.3942670" lon="-76.2390770">
        <ele>1677.0</ele>
        <time>2022-08-14T19:54:46Z</time>
      </trkpt>
      <trkpt lat="4.3941130" lon="-76.2391590">
        <ele>1676.0</ele>
        <time>2022-08-14T19:54:48Z</time>
      </trkpt>
      <trkpt lat="4.3938700" lon="-76.2393210">
        <ele>1674.8</ele>
        <time>2022-08-14T19:54:51Z</time>
      </trkpt>
      <trkpt lat="4.3938050" lon="-76.2393660">
        <ele>1674.4</ele>
        <time>2022-08-14T19:54:52Z</time>
      </trkpt>
      <trkpt lat="4.3936500" lon="-76.2394640">
        <ele>1673.8</ele>
        <time>2022-08-14T19:54:54Z</time>
      </trkpt>
      <trkpt lat="4.3934770" lon="-76.2395380">
        <ele>1673.8</ele>
        <time>2022-08-14T19:54:56Z</time>
      </trkpt>
      <trkpt lat="4.3933330" lon="-76.2395940">
        <ele>1673.6</ele>
        <time>2022-08-14T19:54:58Z</time>
      </trkpt>
      <trkpt lat="4.3932250" lon="-76.2396660">
        <ele>1673.6</ele>
        <time>2022-08-14T19:55:00Z</time>
      </trkpt>
      <trkpt lat="4.3931090" lon="-76.2397940">
        <ele>1673.6</ele>
        <time>2022-08-14T19:55:04Z</time>
      </trkpt>
      <trkpt lat="4.3929390" lon="-76.2399830">
        <ele>1674.0</ele>
        <time>2022-08-14T19:55:11Z</time>
      </trkpt>
      <trkpt lat="4.3927580" lon="-76.2401900">
        <ele>1673.8</ele>
        <time>2022-08-14T19:55:17Z</time>
      </trkpt>
      <trkpt lat="4.3925820" lon="-76.2404230">
        <ele>1673.8</ele>
        <time>2022-08-14T19:55:22Z</time>
      </trkpt>
      <trkpt lat="4.3923320" lon="-76.2407660">
        <ele>1673.2</ele>
        <time>2022-08-14T19:55:28Z</time>
      </trkpt>
      <trkpt lat="4.3919660" lon="-76.2411640">
        <ele>1673.0</ele>
        <time>2022-08-14T19:55:34Z</time>
      </trkpt>
      <trkpt lat="4.3918550" lon="-76.2412940">
        <ele>1672.6</ele>
        <time>2022-08-14T19:55:36Z</time>
      </trkpt>
      <trkpt lat="4.3917370" lon="-76.2414890">
        <ele>1672.6</ele>
        <time>2022-08-14T19:55:39Z</time>
      </trkpt>
      <trkpt lat="4.3915880" lon="-76.2417970">
        <ele>1672.4</ele>
        <time>2022-08-14T19:55:43Z</time>
      </trkpt>
      <trkpt lat="4.3914800" lon="-76.2420090">
        <ele>1672.4</ele>
        <time>2022-08-14T19:55:46Z</time>
      </trkpt>
      <trkpt lat="4.3912960" lon="-76.2423020">
        <ele>1673.0</ele>
        <time>2022-08-14T19:55:51Z</time>
      </trkpt>
      <trkpt lat="4.3911880" lon="-76.2424320">
        <ele>1674.2</ele>
        <time>2022-08-14T19:55:54Z</time>
      </trkpt>
      <trkpt lat="4.3911450" lon="-76.2424770">
        <ele>1674.4</ele>
        <time>2022-08-14T19:55:55Z</time>
      </trkpt>
      <trkpt lat="4.3910440" lon="-76.2425860">
        <ele>1675.4</ele>
        <time>2022-08-14T19:55:57Z</time>
      </trkpt>
      <trkpt lat="4.3909530" lon="-76.2426710">
        <ele>1676.6</ele>
        <time>2022-08-14T19:55:59Z</time>
      </trkpt>
      <trkpt lat="4.3908330" lon="-76.2427440">
        <ele>1678.0</ele>
        <time>2022-08-14T19:56:01Z</time>
      </trkpt>
      <trkpt lat="4.3906220" lon="-76.2428490">
        <ele>1679.2</ele>
        <time>2022-08-14T19:56:04Z</time>
      </trkpt>
      <trkpt lat="4.3904340" lon="-76.2429230">
        <ele>1680.2</ele>
        <time>2022-08-14T19:56:06Z</time>
      </trkpt>
      <trkpt lat="4.3903380" lon="-76.2429490">
        <ele>1680.6</ele>
        <time>2022-08-14T19:56:07Z</time>
      </trkpt>
      <trkpt lat="4.3900490" lon="-76.2429960">
        <ele>1681.8</ele>
        <time>2022-08-14T19:56:10Z</time>
      </trkpt>
      <trkpt lat="4.3896500" lon="-76.2430960">
        <ele>1682.8</ele>
        <time>2022-08-14T19:56:14Z</time>
      </trkpt>
      <trkpt lat="4.3895780" lon="-76.2431180">
        <ele>1683.2</ele>
        <time>2022-08-14T19:56:15Z</time>
      </trkpt>
      <trkpt lat="4.3893070" lon="-76.2432020">
        <ele>1684.4</ele>
        <time>2022-08-14T19:56:18Z</time>
      </trkpt>
      <trkpt lat="4.3891670" lon="-76.2432510">
        <ele>1685.4</ele>
        <time>2022-08-14T19:56:20Z</time>
      </trkpt>
      <trkpt lat="4.3889330" lon="-76.2433470">
        <ele>1687.0</ele>
        <time>2022-08-14T19:56:23Z</time>
      </trkpt>
      <trkpt lat="4.3887100" lon="-76.2434490">
        <ele>1688.0</ele>
        <time>2022-08-14T19:56:26Z</time>
      </trkpt>
      <trkpt lat="4.3886320" lon="-76.2434840">
        <ele>1688.4</ele>
        <time>2022-08-14T19:56:27Z</time>
      </trkpt>
      <trkpt lat="4.3884150" lon="-76.2435610">
        <ele>1689.4</ele>
        <time>2022-08-14T19:56:30Z</time>
      </trkpt>
      <trkpt lat="4.3882450" lon="-76.2435970">
        <ele>1690.4</ele>
        <time>2022-08-14T19:56:32Z</time>
      </trkpt>
      <trkpt lat="4.3881650" lon="-76.2436010">
        <ele>1690.6</ele>
        <time>2022-08-14T19:56:33Z</time>
      </trkpt>
      <trkpt lat="4.3878280" lon="-76.2435900">
        <ele>1691.8</ele>
        <time>2022-08-14T19:56:37Z</time>
      </trkpt>
      <trkpt lat="4.3876760" lon="-76.2435710">
        <ele>1692.4</ele>
        <time>2022-08-14T19:56:39Z</time>
      </trkpt>
      <trkpt lat="4.3875390" lon="-76.2435290">
        <ele>1693.2</ele>
        <time>2022-08-14T19:56:41Z</time>
      </trkpt>
      <trkpt lat="4.3872680" lon="-76.2434140">
        <ele>1693.8</ele>
        <time>2022-08-14T19:56:45Z</time>
      </trkpt>
      <trkpt lat="4.3871940" lon="-76.2433980">
        <ele>1694.0</ele>
        <time>2022-08-14T19:56:46Z</time>
      </trkpt>
      <trkpt lat="4.3871340" lon="-76.2433940">
        <ele>1694.2</ele>
        <time>2022-08-14T19:56:47Z</time>
      </trkpt>
      <trkpt lat="4.3868970" lon="-76.2434140">
        <ele>1694.8</ele>
        <time>2022-08-14T19:56:50Z</time>
      </trkpt>
      <trkpt lat="4.3866860" lon="-76.2434600">
        <ele>1695.4</ele>
        <time>2022-08-14T19:56:53Z</time>
      </trkpt>
      <trkpt lat="4.3865540" lon="-76.2435220">
        <ele>1695.8</ele>
        <time>2022-08-14T19:56:55Z</time>
      </trkpt>
      <trkpt lat="4.3864250" lon="-76.2435950">
        <ele>1696.0</ele>
        <time>2022-08-14T19:56:57Z</time>
      </trkpt>
      <trkpt lat="4.3862920" lon="-76.2436410">
        <ele>1696.4</ele>
        <time>2022-08-14T19:56:59Z</time>
      </trkpt>
      <trkpt lat="4.3862220" lon="-76.2436500">
        <ele>1696.4</ele>
        <time>2022-08-14T19:57:00Z</time>
      </trkpt>
      <trkpt lat="4.3861500" lon="-76.2436470">
        <ele>1696.6</ele>
        <time>2022-08-14T19:57:01Z</time>
      </trkpt>
      <trkpt lat="4.3859480" lon="-76.2435960">
        <ele>1697.2</ele>
        <time>2022-08-14T19:57:04Z</time>
      </trkpt>
      <trkpt lat="4.3858230" lon="-76.2435530">
        <ele>1697.8</ele>
        <time>2022-08-14T19:57:06Z</time>
      </trkpt>
      <trkpt lat="4.3857060" lon="-76.2435600">
        <ele>1698.0</ele>
        <time>2022-08-14T19:57:08Z</time>
      </trkpt>
      <trkpt lat="4.3855860" lon="-76.2436230">
        <ele>1698.2</ele>
        <time>2022-08-14T19:57:11Z</time>
      </trkpt>
      <trkpt lat="4.3854710" lon="-76.2437030">
        <ele>1698.6</ele>
        <time>2022-08-14T19:57:14Z</time>
      </trkpt>
      <trkpt lat="4.3854320" lon="-76.2437330">
        <ele>1698.6</ele>
        <time>2022-08-14T19:57:15Z</time>
      </trkpt>
      <trkpt lat="4.3853560" lon="-76.2437990">
        <ele>1698.6</ele>
        <time>2022-08-14T19:57:17Z</time>
      </trkpt>
      <trkpt lat="4.3851820" lon="-76.2439200">
        <ele>1698.8</ele>
        <time>2022-08-14T19:57:21Z</time>
      </trkpt>
      <trkpt lat="4.3850960" lon="-76.2439850">
        <ele>1698.8</ele>
        <time>2022-08-14T19:57:23Z</time>
      </trkpt>
      <trkpt lat="4.3850530" lon="-76.2440190">
        <ele>1699.0</ele>
        <time>2022-08-14T19:57:24Z</time>
      </trkpt>
      <trkpt lat="4.3850120" lon="-76.2440490">
        <ele>1699.2</ele>
        <time>2022-08-14T19:57:25Z</time>
      </trkpt>
      <trkpt lat="4.3848840" lon="-76.2441290">
        <ele>1699.2</ele>
        <time>2022-08-14T19:57:28Z</time>
      </trkpt>
      <trkpt lat="4.3848430" lon="-76.2441610">
        <ele>1699.2</ele>
        <time>2022-08-14T19:57:29Z</time>
      </trkpt>
      <trkpt lat="4.3846490" lon="-76.2443080">
        <ele>1700.0</ele>
        <time>2022-08-14T19:57:34Z</time>
      </trkpt>
      <trkpt lat="4.3846090" lon="-76.2443340">
        <ele>1700.0</ele>
        <time>2022-08-14T19:57:35Z</time>
      </trkpt>
      <trkpt lat="4.3844620" lon="-76.2444220">
        <ele>1700.6</ele>
        <time>2022-08-14T19:57:39Z</time>
      </trkpt>
      <trkpt lat="4.3844030" lon="-76.2444540">
        <ele>1700.8</ele>
        <time>2022-08-14T19:57:41Z</time>
      </trkpt>
      <trkpt lat="4.3842470" lon="-76.2445420">
        <ele>1702.0</ele>
        <time>2022-08-14T19:57:46Z</time>
      </trkpt>
      <trkpt lat="4.3841490" lon="-76.2446050">
        <ele>1702.2</ele>
        <time>2022-08-14T19:57:49Z</time>
      </trkpt>
      <trkpt lat="4.3840130" lon="-76.2447020">
        <ele>1702.4</ele>
        <time>2022-08-14T19:57:54Z</time>
      </trkpt>
      <trkpt lat="4.3839040" lon="-76.2447820">
        <ele>1702.4</ele>
        <time>2022-08-14T19:57:59Z</time>
      </trkpt>
      <trkpt lat="4.3838150" lon="-76.2448370">
        <ele>1702.2</ele>
        <time>2022-08-14T19:58:05Z</time>
      </trkpt>
      <trkpt lat="4.3837590" lon="-76.2448830">
        <ele>1701.2</ele>
        <time>2022-08-14T19:58:08Z</time>
      </trkpt>
      <trkpt lat="4.3836930" lon="-76.2449360">
        <ele>1700.4</ele>
        <time>2022-08-14T19:58:10Z</time>
      </trkpt>
      <trkpt lat="4.3836540" lon="-76.2449590">
        <ele>1700.0</ele>
        <time>2022-08-14T19:58:11Z</time>
      </trkpt>
      <trkpt lat="4.3835350" lon="-76.2450440">
        <ele>1698.8</ele>
        <time>2022-08-14T19:58:14Z</time>
      </trkpt>
      <trkpt lat="4.3834780" lon="-76.2450830">
        <ele>1698.8</ele>
        <time>2022-08-14T19:58:15Z</time>
      </trkpt>
      <trkpt lat="4.3833240" lon="-76.2452050">
        <ele>1697.4</ele>
        <time>2022-08-14T19:58:18Z</time>
      </trkpt>
      <trkpt lat="4.3832480" lon="-76.2452550">
        <ele>1696.8</ele>
        <time>2022-08-14T19:58:19Z</time>
      </trkpt>
      <trkpt lat="4.3831840" lon="-76.2452930">
        <ele>1696.4</ele>
        <time>2022-08-14T19:58:20Z</time>
      </trkpt>
      <trkpt lat="4.3830680" lon="-76.2453630">
        <ele>1695.4</ele>
        <time>2022-08-14T19:58:22Z</time>
      </trkpt>
      <trkpt lat="4.3829670" lon="-76.2454260">
        <ele>1694.4</ele>
        <time>2022-08-14T19:58:24Z</time>
      </trkpt>
      <trkpt lat="4.3828960" lon="-76.2454750">
        <ele>1693.6</ele>
        <time>2022-08-14T19:58:25Z</time>
      </trkpt>
      <trkpt lat="4.3828480" lon="-76.2455110">
        <ele>1693.0</ele>
        <time>2022-08-14T19:58:26Z</time>
      </trkpt>
      <trkpt lat="4.3826550" lon="-76.2456580">
        <ele>1691.4</ele>
        <time>2022-08-14T19:58:29Z</time>
      </trkpt>
      <trkpt lat="4.3825070" lon="-76.2457680">
        <ele>1690.4</ele>
        <time>2022-08-14T19:58:31Z</time>
      </trkpt>
      <trkpt lat="4.3824420" lon="-76.2458210">
        <ele>1690.0</ele>
        <time>2022-08-14T19:58:32Z</time>
      </trkpt>
      <trkpt lat="4.3823350" lon="-76.2459190">
        <ele>1689.6</ele>
        <time>2022-08-14T19:58:34Z</time>
      </trkpt>
      <trkpt lat="4.3821310" lon="-76.2461390">
        <ele>1689.0</ele>
        <time>2022-08-14T19:58:38Z</time>
      </trkpt>
      <trkpt lat="4.3820030" lon="-76.2463200">
        <ele>1688.8</ele>
        <time>2022-08-14T19:58:41Z</time>
      </trkpt>
      <trkpt lat="4.3819550" lon="-76.2464240">
        <ele>1688.6</ele>
        <time>2022-08-14T19:58:43Z</time>
      </trkpt>
      <trkpt lat="4.3819230" lon="-76.2465600">
        <ele>1688.6</ele>
        <time>2022-08-14T19:58:46Z</time>
      </trkpt>
      <trkpt lat="4.3819240" lon="-76.2466010">
        <ele>1688.4</ele>
        <time>2022-08-14T19:58:47Z</time>
      </trkpt>
      <trkpt lat="4.3819570" lon="-76.2467860">
        <ele>1688.0</ele>
        <time>2022-08-14T19:58:52Z</time>
      </trkpt>
      <trkpt lat="4.3819660" lon="-76.2468270">
        <ele>1688.0</ele>
        <time>2022-08-14T19:58:53Z</time>
      </trkpt>
      <trkpt lat="4.3819800" lon="-76.2470230">
        <ele>1688.0</ele>
        <time>2022-08-14T19:58:57Z</time>
      </trkpt>
      <trkpt lat="4.3819870" lon="-76.2471140">
        <ele>1687.8</ele>
        <time>2022-08-14T19:58:59Z</time>
      </trkpt>
      <trkpt lat="4.3820030" lon="-76.2474790">
        <ele>1687.4</ele>
        <time>2022-08-14T19:59:07Z</time>
      </trkpt>
      <trkpt lat="4.3820030" lon="-76.2476100">
        <ele>1686.8</ele>
        <time>2022-08-14T19:59:10Z</time>
      </trkpt>
      <trkpt lat="4.3819980" lon="-76.2476640">
        <ele>1686.6</ele>
        <time>2022-08-14T19:59:11Z</time>
      </trkpt>
      <trkpt lat="4.3819630" lon="-76.2478250">
        <ele>1686.2</ele>
        <time>2022-08-14T19:59:15Z</time>
      </trkpt>
      <trkpt lat="4.3819400" lon="-76.2479010">
        <ele>1685.8</ele>
        <time>2022-08-14T19:59:17Z</time>
      </trkpt>
      <trkpt lat="4.3818850" lon="-76.2480940">
        <ele>1685.0</ele>
        <time>2022-08-14T19:59:22Z</time>
      </trkpt>
      <trkpt lat="4.3817800" lon="-76.2484470">
        <ele>1684.0</ele>
        <time>2022-08-14T19:59:30Z</time>
      </trkpt>
      <trkpt lat="4.3817500" lon="-76.2485180">
        <ele>1683.8</ele>
        <time>2022-08-14T19:59:32Z</time>
      </trkpt>
      <trkpt lat="4.3817350" lon="-76.2486140">
        <ele>1683.4</ele>
        <time>2022-08-14T19:59:34Z</time>
      </trkpt>
      <trkpt lat="4.3817390" lon="-76.2486920">
        <ele>1683.4</ele>
        <time>2022-08-14T19:59:36Z</time>
      </trkpt>
      <trkpt lat="4.3817380" lon="-76.2488440">
        <ele>1683.0</ele>
        <time>2022-08-14T19:59:39Z</time>
      </trkpt>
      <trkpt lat="4.3817030" lon="-76.2489210">
        <ele>1683.0</ele>
        <time>2022-08-14T19:59:41Z</time>
      </trkpt>
      <trkpt lat="4.3815980" lon="-76.2490390">
        <ele>1683.0</ele>
        <time>2022-08-14T19:59:44Z</time>
      </trkpt>
      <trkpt lat="4.3815710" lon="-76.2490940">
        <ele>1683.0</ele>
        <time>2022-08-14T19:59:45Z</time>
      </trkpt>
      <trkpt lat="4.3815530" lon="-76.2491550">
        <ele>1683.0</ele>
        <time>2022-08-14T19:59:46Z</time>
      </trkpt>
      <trkpt lat="4.3815500" lon="-76.2492720">
        <ele>1683.2</ele>
        <time>2022-08-14T19:59:48Z</time>
      </trkpt>
      <trkpt lat="4.3816480" lon="-76.2494680">
        <ele>1683.6</ele>
        <time>2022-08-14T19:59:51Z</time>
      </trkpt>
      <trkpt lat="4.3816890" lon="-76.2495820">
        <ele>1683.8</ele>
        <time>2022-08-14T19:59:53Z</time>
      </trkpt>
      <trkpt lat="4.3816860" lon="-76.2496590">
        <ele>1683.8</ele>
        <time>2022-08-14T19:59:54Z</time>
      </trkpt>
      <trkpt lat="4.3816600" lon="-76.2497140">
        <ele>1683.8</ele>
        <time>2022-08-14T19:59:55Z</time>
      </trkpt>
      <trkpt lat="4.3816260" lon="-76.2497480">
        <ele>1683.8</ele>
        <time>2022-08-14T19:59:56Z</time>
      </trkpt>
      <trkpt lat="4.3814870" lon="-76.2498680">
        <ele>1684.2</ele>
        <time>2022-08-14T19:59:59Z</time>
      </trkpt>
      <trkpt lat="4.3814150" lon="-76.2499520">
        <ele>1684.4</ele>
        <time>2022-08-14T20:00:01Z</time>
      </trkpt>
      <trkpt lat="4.3813820" lon="-76.2499940">
        <ele>1684.4</ele>
        <time>2022-08-14T20:00:02Z</time>
      </trkpt>
      <trkpt lat="4.3812810" lon="-76.2501200">
        <ele>1684.8</ele>
        <time>2022-08-14T20:00:05Z</time>
      </trkpt>
      <trkpt lat="4.3812150" lon="-76.2501850">
        <ele>1685.0</ele>
        <time>2022-08-14T20:00:07Z</time>
      </trkpt>
      <trkpt lat="4.3810090" lon="-76.2504190">
        <ele>1685.0</ele>
        <time>2022-08-14T20:00:13Z</time>
      </trkpt>
      <trkpt lat="4.3809480" lon="-76.2505280">
        <ele>1684.8</ele>
        <time>2022-08-14T20:00:17Z</time>
      </trkpt>
      <trkpt lat="4.3808890" lon="-76.2507190">
        <ele>1684.0</ele>
        <time>2022-08-14T20:00:22Z</time>
      </trkpt>
      <trkpt lat="4.3808720" lon="-76.2507710">
        <ele>1683.6</ele>
        <time>2022-08-14T20:00:23Z</time>
      </trkpt>
      <trkpt lat="4.3808380" lon="-76.2508890">
        <ele>1683.0</ele>
        <time>2022-08-14T20:00:25Z</time>
      </trkpt>
      <trkpt lat="4.3807880" lon="-76.2509780">
        <ele>1682.4</ele>
        <time>2022-08-14T20:00:27Z</time>
      </trkpt>
      <trkpt lat="4.3807170" lon="-76.2510900">
        <ele>1681.6</ele>
        <time>2022-08-14T20:00:29Z</time>
      </trkpt>
      <trkpt lat="4.3806810" lon="-76.2511360">
        <ele>1681.2</ele>
        <time>2022-08-14T20:00:30Z</time>
      </trkpt>
      <trkpt lat="4.3806130" lon="-76.2512130">
        <ele>1680.4</ele>
        <time>2022-08-14T20:00:32Z</time>
      </trkpt>
      <trkpt lat="4.3805700" lon="-76.2512360">
        <ele>1679.8</ele>
        <time>2022-08-14T20:00:33Z</time>
      </trkpt>
      <trkpt lat="4.3805220" lon="-76.2512430">
        <ele>1679.2</ele>
        <time>2022-08-14T20:00:34Z</time>
      </trkpt>
      <trkpt lat="4.3804580" lon="-76.2512350">
        <ele>1678.4</ele>
        <time>2022-08-14T20:00:35Z</time>
      </trkpt>
      <trkpt lat="4.3803700" lon="-76.2512080">
        <ele>1677.4</ele>
        <time>2022-08-14T20:00:37Z</time>
      </trkpt>
      <trkpt lat="4.3802760" lon="-76.2511790">
        <ele>1676.2</ele>
        <time>2022-08-14T20:00:39Z</time>
      </trkpt>
      <trkpt lat="4.3802200" lon="-76.2511810">
        <ele>1675.8</ele>
        <time>2022-08-14T20:00:40Z</time>
      </trkpt>
      <trkpt lat="4.3800370" lon="-76.2512520">
        <ele>1675.2</ele>
        <time>2022-08-14T20:00:44Z</time>
      </trkpt>
      <trkpt lat="4.3799560" lon="-76.2513010">
        <ele>1675.0</ele>
        <time>2022-08-14T20:00:46Z</time>
      </trkpt>
      <trkpt lat="4.3798670" lon="-76.2513620">
        <ele>1674.6</ele>
        <time>2022-08-14T20:00:48Z</time>
      </trkpt>
      <trkpt lat="4.3798260" lon="-76.2513900">
        <ele>1674.4</ele>
        <time>2022-08-14T20:00:49Z</time>
      </trkpt>
      <trkpt lat="4.3797650" lon="-76.2514300">
        <ele>1673.8</ele>
        <time>2022-08-14T20:00:50Z</time>
      </trkpt>
      <trkpt lat="4.3797150" lon="-76.2514670">
        <ele>1673.4</ele>
        <time>2022-08-14T20:00:51Z</time>
      </trkpt>
      <trkpt lat="4.3796660" lon="-76.2515060">
        <ele>1673.0</ele>
        <time>2022-08-14T20:00:52Z</time>
      </trkpt>
      <trkpt lat="4.3795770" lon="-76.2515760">
        <ele>1672.2</ele>
        <time>2022-08-14T20:00:54Z</time>
      </trkpt>
      <trkpt lat="4.3795100" lon="-76.2516130">
        <ele>1671.8</ele>
        <time>2022-08-14T20:00:55Z</time>
      </trkpt>
      <trkpt lat="4.3794470" lon="-76.2516320">
        <ele>1671.2</ele>
        <time>2022-08-14T20:00:56Z</time>
      </trkpt>
      <trkpt lat="4.3793240" lon="-76.2516430">
        <ele>1670.6</ele>
        <time>2022-08-14T20:00:58Z</time>
      </trkpt>
      <trkpt lat="4.3792080" lon="-76.2516310">
        <ele>1669.8</ele>
        <time>2022-08-14T20:01:00Z</time>
      </trkpt>
      <trkpt lat="4.3791550" lon="-76.2516250">
        <ele>1669.6</ele>
        <time>2022-08-14T20:01:01Z</time>
      </trkpt>
      <trkpt lat="4.3790140" lon="-76.2516180">
        <ele>1668.4</ele>
        <time>2022-08-14T20:01:04Z</time>
      </trkpt>
      <trkpt lat="4.3789810" lon="-76.2516170">
        <ele>1668.2</ele>
        <time>2022-08-14T20:01:05Z</time>
      </trkpt>
      <trkpt lat="4.3789270" lon="-76.2516340">
        <ele>1667.2</ele>
        <time>2022-08-14T20:01:07Z</time>
      </trkpt>
      <trkpt lat="4.3788480" lon="-76.2516690">
        <ele>1666.4</ele>
        <time>2022-08-14T20:01:10Z</time>
      </trkpt>
      <trkpt lat="4.3788190" lon="-76.2516840">
        <ele>1666.0</ele>
        <time>2022-08-14T20:01:11Z</time>
      </trkpt>
      <trkpt lat="4.3787230" lon="-76.2517350">
        <ele>1664.8</ele>
        <time>2022-08-14T20:01:15Z</time>
      </trkpt>
      <trkpt lat="4.3786630" lon="-76.2517970">
        <ele>1663.6</ele>
        <time>2022-08-14T20:01:18Z</time>
      </trkpt>
      <trkpt lat="4.3786140" lon="-76.2518620">
        <ele>1662.6</ele>
        <time>2022-08-14T20:01:21Z</time>
      </trkpt>
      <trkpt lat="4.3785640" lon="-76.2519430">
        <ele>1661.4</ele>
        <time>2022-08-14T20:01:25Z</time>
      </trkpt>
      <trkpt lat="4.3784850" lon="-76.2520860">
        <ele>1660.6</ele>
        <time>2022-08-14T20:01:31Z</time>
      </trkpt>
      <trkpt lat="4.3784520" lon="-76.2521400">
        <ele>1660.6</ele>
        <time>2022-08-14T20:01:33Z</time>
      </trkpt>
      <trkpt lat="4.3783990" lon="-76.2523500">
        <ele>1660.6</ele>
        <time>2022-08-14T20:01:41Z</time>
      </trkpt>
      <trkpt lat="4.3784590" lon="-76.2525870">
        <ele>1660.4</ele>
        <time>2022-08-14T20:01:49Z</time>
      </trkpt>
      <trkpt lat="4.3784820" lon="-76.2526170">
        <ele>1660.2</ele>
        <time>2022-08-14T20:01:50Z</time>
      </trkpt>
      <trkpt lat="4.3785730" lon="-76.2528300">
        <ele>1659.0</ele>
        <time>2022-08-14T20:01:56Z</time>
      </trkpt>
      <trkpt lat="4.3785980" lon="-76.2529190">
        <ele>1657.8</ele>
        <time>2022-08-14T20:01:58Z</time>
      </trkpt>
      <trkpt lat="4.3786360" lon="-76.2530540">
        <ele>1656.6</ele>
        <time>2022-08-14T20:02:01Z</time>
      </trkpt>
      <trkpt lat="4.3786610" lon="-76.2531180">
        <ele>1655.6</ele>
        <time>2022-08-14T20:02:02Z</time>
      </trkpt>
      <trkpt lat="4.3786910" lon="-76.2531700">
        <ele>1655.0</ele>
        <time>2022-08-14T20:02:03Z</time>
      </trkpt>
      <trkpt lat="4.3787490" lon="-76.2532570">
        <ele>1653.4</ele>
        <time>2022-08-14T20:02:05Z</time>
      </trkpt>
      <trkpt lat="4.3788250" lon="-76.2533490">
        <ele>1651.8</ele>
        <time>2022-08-14T20:02:07Z</time>
      </trkpt>
      <trkpt lat="4.3788650" lon="-76.2534080">
        <ele>1651.0</ele>
        <time>2022-08-14T20:02:08Z</time>
      </trkpt>
      <trkpt lat="4.3788760" lon="-76.2534580">
        <ele>1650.0</ele>
        <time>2022-08-14T20:02:09Z</time>
      </trkpt>
      <trkpt lat="4.3788750" lon="-76.2535220">
        <ele>1649.2</ele>
        <time>2022-08-14T20:02:10Z</time>
      </trkpt>
      <trkpt lat="4.3788540" lon="-76.2535970">
        <ele>1648.6</ele>
        <time>2022-08-14T20:02:11Z</time>
      </trkpt>
      <trkpt lat="4.3787930" lon="-76.2537310">
        <ele>1647.2</ele>
        <time>2022-08-14T20:02:13Z</time>
      </trkpt>
      <trkpt lat="4.3787670" lon="-76.2538600">
        <ele>1645.8</ele>
        <time>2022-08-14T20:02:15Z</time>
      </trkpt>
      <trkpt lat="4.3787650" lon="-76.2539970">
        <ele>1644.0</ele>
        <time>2022-08-14T20:02:17Z</time>
      </trkpt>
      <trkpt lat="4.3787930" lon="-76.2541510">
        <ele>1642.6</ele>
        <time>2022-08-14T20:02:19Z</time>
      </trkpt>
      <trkpt lat="4.3788370" lon="-76.2542970">
        <ele>1641.0</ele>
        <time>2022-08-14T20:02:21Z</time>
      </trkpt>
      <trkpt lat="4.3788640" lon="-76.2543600">
        <ele>1640.6</ele>
        <time>2022-08-14T20:02:22Z</time>
      </trkpt>
      <trkpt lat="4.3789170" lon="-76.2544780">
        <ele>1639.8</ele>
        <time>2022-08-14T20:02:24Z</time>
      </trkpt>
      <trkpt lat="4.3789270" lon="-76.2545910">
        <ele>1639.4</ele>
        <time>2022-08-14T20:02:26Z</time>
      </trkpt>
      <trkpt lat="4.3788640" lon="-76.2546740">
        <ele>1638.2</ele>
        <time>2022-08-14T20:02:28Z</time>
      </trkpt>
      <trkpt lat="4.3787780" lon="-76.2546800">
        <ele>1637.4</ele>
        <time>2022-08-14T20:02:30Z</time>
      </trkpt>
      <trkpt lat="4.3787290" lon="-76.2546570">
        <ele>1637.0</ele>
        <time>2022-08-14T20:02:31Z</time>
      </trkpt>
      <trkpt lat="4.3786200" lon="-76.2546090">
        <ele>1636.6</ele>
        <time>2022-08-14T20:02:33Z</time>
      </trkpt>
      <trkpt lat="4.3785690" lon="-76.2546000">
        <ele>1636.4</ele>
        <time>2022-08-14T20:02:34Z</time>
      </trkpt>
      <trkpt lat="4.3785280" lon="-76.2546030">
        <ele>1636.6</ele>
        <time>2022-08-14T20:02:35Z</time>
      </trkpt>
      <trkpt lat="4.3784370" lon="-76.2546340">
        <ele>1636.6</ele>
        <time>2022-08-14T20:02:37Z</time>
      </trkpt>
      <trkpt lat="4.3781870" lon="-76.2548210">
        <ele>1636.8</ele>
        <time>2022-08-14T20:02:44Z</time>
      </trkpt>
      <trkpt lat="4.3781030" lon="-76.2548810">
        <ele>1637.2</ele>
        <time>2022-08-14T20:02:47Z</time>
      </trkpt>
      <trkpt lat="4.3780210" lon="-76.2549610">
        <ele>1637.4</ele>
        <time>2022-08-14T20:02:50Z</time>
      </trkpt>
      <trkpt lat="4.3778980" lon="-76.2551020">
        <ele>1638.0</ele>
        <time>2022-08-14T20:02:55Z</time>
      </trkpt>
      <trkpt lat="4.3778700" lon="-76.2551260">
        <ele>1637.8</ele>
        <time>2022-08-14T20:02:56Z</time>
      </trkpt>
      <trkpt lat="4.3776520" lon="-76.2552380">
        <ele>1638.6</ele>
        <time>2022-08-14T20:03:02Z</time>
      </trkpt>
      <trkpt lat="4.3776520" lon="-76.2552380">
        <ele>1638.8</ele>
        <time>2022-08-14T20:03:03Z</time>
      </trkpt>
      <trkpt lat="4.3773920" lon="-76.2553690">
        <ele>1638.8</ele>
        <time>2022-08-14T20:03:09Z</time>
      </trkpt>
      <trkpt lat="4.3772560" lon="-76.2554440">
        <ele>1637.2</ele>
        <time>2022-08-14T20:03:13Z</time>
      </trkpt>
      <trkpt lat="4.3771540" lon="-76.2555100">
        <ele>1636.2</ele>
        <time>2022-08-14T20:03:17Z</time>
      </trkpt>
      <trkpt lat="4.3770850" lon="-76.2555770">
        <ele>1635.8</ele>
        <time>2022-08-14T20:03:18Z</time>
      </trkpt>
      <trkpt lat="4.3769660" lon="-76.2557320">
        <ele>1635.0</ele>
        <time>2022-08-14T20:03:21Z</time>
      </trkpt>
      <trkpt lat="4.3769330" lon="-76.2557820">
        <ele>1635.0</ele>
        <time>2022-08-14T20:03:22Z</time>
      </trkpt>
      <trkpt lat="4.3768270" lon="-76.2559210">
        <ele>1634.6</ele>
        <time>2022-08-14T20:03:24Z</time>
      </trkpt>
      <trkpt lat="4.3767100" lon="-76.2560350">
        <ele>1634.4</ele>
        <time>2022-08-14T20:03:26Z</time>
      </trkpt>
      <trkpt lat="4.3765870" lon="-76.2561360">
        <ele>1634.2</ele>
        <time>2022-08-14T20:03:28Z</time>
      </trkpt>
      <trkpt lat="4.3765290" lon="-76.2561790">
        <ele>1633.6</ele>
        <time>2022-08-14T20:03:29Z</time>
      </trkpt>
      <trkpt lat="4.3764640" lon="-76.2562120">
        <ele>1633.4</ele>
        <time>2022-08-14T20:03:30Z</time>
      </trkpt>
      <trkpt lat="4.3763170" lon="-76.2562080">
        <ele>1633.2</ele>
        <time>2022-08-14T20:03:32Z</time>
      </trkpt>
      <trkpt lat="4.3762320" lon="-76.2561700">
        <ele>1633.0</ele>
        <time>2022-08-14T20:03:33Z</time>
      </trkpt>
      <trkpt lat="4.3759920" lon="-76.2560530">
        <ele>1633.0</ele>
        <time>2022-08-14T20:03:36Z</time>
      </trkpt>
      <trkpt lat="4.3758550" lon="-76.2560150">
        <ele>1633.0</ele>
        <time>2022-08-14T20:03:38Z</time>
      </trkpt>
      <trkpt lat="4.3756680" lon="-76.2560690">
        <ele>1633.0</ele>
        <time>2022-08-14T20:03:40Z</time>
      </trkpt>
      <trkpt lat="4.3755820" lon="-76.2561180">
        <ele>1633.0</ele>
        <time>2022-08-14T20:03:41Z</time>
      </trkpt>
      <trkpt lat="4.3755120" lon="-76.2561560">
        <ele>1633.4</ele>
        <time>2022-08-14T20:03:42Z</time>
      </trkpt>
      <trkpt lat="4.3752780" lon="-76.2562870">
        <ele>1634.4</ele>
        <time>2022-08-14T20:03:45Z</time>
      </trkpt>
      <trkpt lat="4.3752060" lon="-76.2563470">
        <ele>1634.6</ele>
        <time>2022-08-14T20:03:46Z</time>
      </trkpt>
      <trkpt lat="4.3750910" lon="-76.2564930">
        <ele>1635.2</ele>
        <time>2022-08-14T20:03:48Z</time>
      </trkpt>
      <trkpt lat="4.3750260" lon="-76.2566750">
        <ele>1635.8</ele>
        <time>2022-08-14T20:03:50Z</time>
      </trkpt>
      <trkpt lat="4.3750370" lon="-76.2567560">
        <ele>1636.2</ele>
        <time>2022-08-14T20:03:51Z</time>
      </trkpt>
      <trkpt lat="4.3750530" lon="-76.2568170">
        <ele>1636.8</ele>
        <time>2022-08-14T20:03:52Z</time>
      </trkpt>
      <trkpt lat="4.3750850" lon="-76.2568840">
        <ele>1637.0</ele>
        <time>2022-08-14T20:03:53Z</time>
      </trkpt>
      <trkpt lat="4.3751210" lon="-76.2569490">
        <ele>1637.4</ele>
        <time>2022-08-14T20:03:54Z</time>
      </trkpt>
      <trkpt lat="4.3751250" lon="-76.2570720">
        <ele>1638.2</ele>
        <time>2022-08-14T20:03:56Z</time>
      </trkpt>
      <trkpt lat="4.3750370" lon="-76.2571510">
        <ele>1639.4</ele>
        <time>2022-08-14T20:03:58Z</time>
      </trkpt>
      <trkpt lat="4.3749770" lon="-76.2571830">
        <ele>1639.8</ele>
        <time>2022-08-14T20:03:59Z</time>
      </trkpt>
      <trkpt lat="4.3748470" lon="-76.2572610">
        <ele>1640.8</ele>
        <time>2022-08-14T20:04:01Z</time>
      </trkpt>
      <trkpt lat="4.3746980" lon="-76.2573700">
        <ele>1641.8</ele>
        <time>2022-08-14T20:04:03Z</time>
      </trkpt>
      <trkpt lat="4.3745760" lon="-76.2574350">
        <ele>1643.0</ele>
        <time>2022-08-14T20:04:05Z</time>
      </trkpt>
      <trkpt lat="4.3744390" lon="-76.2574740">
        <ele>1643.2</ele>
        <time>2022-08-14T20:04:07Z</time>
      </trkpt>
      <trkpt lat="4.3742890" lon="-76.2574690">
        <ele>1644.2</ele>
        <time>2022-08-14T20:04:09Z</time>
      </trkpt>
      <trkpt lat="4.3741370" lon="-76.2574510">
        <ele>1644.6</ele>
        <time>2022-08-14T20:04:11Z</time>
      </trkpt>
      <trkpt lat="4.3739910" lon="-76.2574630">
        <ele>1645.2</ele>
        <time>2022-08-14T20:04:13Z</time>
      </trkpt>
      <trkpt lat="4.3739130" lon="-76.2574690">
        <ele>1645.4</ele>
        <time>2022-08-14T20:04:14Z</time>
      </trkpt>
      <trkpt lat="4.3737680" lon="-76.2574630">
        <ele>1646.0</ele>
        <time>2022-08-14T20:04:16Z</time>
      </trkpt>
      <trkpt lat="4.3736930" lon="-76.2574650">
        <ele>1646.4</ele>
        <time>2022-08-14T20:04:17Z</time>
      </trkpt>
      <trkpt lat="4.3736110" lon="-76.2574530">
        <ele>1646.6</ele>
        <time>2022-08-14T20:04:18Z</time>
      </trkpt>
      <trkpt lat="4.3734540" lon="-76.2573960">
        <ele>1647.4</ele>
        <time>2022-08-14T20:04:20Z</time>
      </trkpt>
      <trkpt lat="4.3733010" lon="-76.2573250">
        <ele>1648.0</ele>
        <time>2022-08-14T20:04:22Z</time>
      </trkpt>
      <trkpt lat="4.3731560" lon="-76.2572750">
        <ele>1648.6</ele>
        <time>2022-08-14T20:04:24Z</time>
      </trkpt>
      <trkpt lat="4.3729780" lon="-76.2572280">
        <ele>1649.0</ele>
        <time>2022-08-14T20:04:26Z</time>
      </trkpt>
      <trkpt lat="4.3729000" lon="-76.2571950">
        <ele>1649.0</ele>
        <time>2022-08-14T20:04:27Z</time>
      </trkpt>
      <trkpt lat="4.3725620" lon="-76.2570180">
        <ele>1649.4</ele>
        <time>2022-08-14T20:04:32Z</time>
      </trkpt>
      <trkpt lat="4.3723100" lon="-76.2568660">
        <ele>1649.6</ele>
        <time>2022-08-14T20:04:36Z</time>
      </trkpt>
      <trkpt lat="4.3722620" lon="-76.2568130">
        <ele>1649.6</ele>
        <time>2022-08-14T20:04:37Z</time>
      </trkpt>
      <trkpt lat="4.3722170" lon="-76.2567590">
        <ele>1649.8</ele>
        <time>2022-08-14T20:04:38Z</time>
      </trkpt>
      <trkpt lat="4.3720400" lon="-76.2565770">
        <ele>1650.4</ele>
        <time>2022-08-14T20:04:42Z</time>
      </trkpt>
      <trkpt lat="4.3719400" lon="-76.2564970">
        <ele>1650.4</ele>
        <time>2022-08-14T20:04:44Z</time>
      </trkpt>
      <trkpt lat="4.3718190" lon="-76.2564470">
        <ele>1650.6</ele>
        <time>2022-08-14T20:04:46Z</time>
      </trkpt>
      <trkpt lat="4.3717500" lon="-76.2564340">
        <ele>1650.6</ele>
        <time>2022-08-14T20:04:47Z</time>
      </trkpt>
      <trkpt lat="4.3716740" lon="-76.2564230">
        <ele>1650.6</ele>
        <time>2022-08-14T20:04:48Z</time>
      </trkpt>
      <trkpt lat="4.3715120" lon="-76.2564370">
        <ele>1650.6</ele>
        <time>2022-08-14T20:04:50Z</time>
      </trkpt>
      <trkpt lat="4.3710970" lon="-76.2565700">
        <ele>1650.4</ele>
        <time>2022-08-14T20:04:55Z</time>
      </trkpt>
      <trkpt lat="4.3707820" lon="-76.2566210">
        <ele>1650.2</ele>
        <time>2022-08-14T20:04:59Z</time>
      </trkpt>
      <trkpt lat="4.3707100" lon="-76.2566150">
        <ele>1650.4</ele>
        <time>2022-08-14T20:05:00Z</time>
      </trkpt>
      <trkpt lat="4.3706540" lon="-76.2566050">
        <ele>1650.4</ele>
        <time>2022-08-14T20:05:01Z</time>
      </trkpt>
      <trkpt lat="4.3705230" lon="-76.2565410">
        <ele>1650.6</ele>
        <time>2022-08-14T20:05:03Z</time>
      </trkpt>
      <trkpt lat="4.3704680" lon="-76.2565090">
        <ele>1650.6</ele>
        <time>2022-08-14T20:05:04Z</time>
      </trkpt>
      <trkpt lat="4.3703580" lon="-76.2564840">
        <ele>1650.6</ele>
        <time>2022-08-14T20:05:06Z</time>
      </trkpt>
      <trkpt lat="4.3702240" lon="-76.2565230">
        <ele>1650.6</ele>
        <time>2022-08-14T20:05:08Z</time>
      </trkpt>
      <trkpt lat="4.3701730" lon="-76.2565610">
        <ele>1650.6</ele>
        <time>2022-08-14T20:05:09Z</time>
      </trkpt>
      <trkpt lat="4.3700090" lon="-76.2566720">
        <ele>1650.8</ele>
        <time>2022-08-14T20:05:12Z</time>
      </trkpt>
      <trkpt lat="4.3698930" lon="-76.2566960">
        <ele>1651.4</ele>
        <time>2022-08-14T20:05:14Z</time>
      </trkpt>
      <trkpt lat="4.3697680" lon="-76.2566600">
        <ele>1652.0</ele>
        <time>2022-08-14T20:05:16Z</time>
      </trkpt>
      <trkpt lat="4.3697130" lon="-76.2566250">
        <ele>1652.6</ele>
        <time>2022-08-14T20:05:17Z</time>
      </trkpt>
      <trkpt lat="4.3696180" lon="-76.2565370">
        <ele>1653.2</ele>
        <time>2022-08-14T20:05:19Z</time>
      </trkpt>
      <trkpt lat="4.3695100" lon="-76.2564960">
        <ele>1654.0</ele>
        <time>2022-08-14T20:05:21Z</time>
      </trkpt>
      <trkpt lat="4.3694070" lon="-76.2565410">
        <ele>1654.6</ele>
        <time>2022-08-14T20:05:23Z</time>
      </trkpt>
      <trkpt lat="4.3693720" lon="-76.2565940">
        <ele>1655.2</ele>
        <time>2022-08-14T20:05:24Z</time>
      </trkpt>
      <trkpt lat="4.3693100" lon="-76.2567080">
        <ele>1656.4</ele>
        <time>2022-08-14T20:05:26Z</time>
      </trkpt>
      <trkpt lat="4.3692100" lon="-76.2568470">
        <ele>1657.6</ele>
        <time>2022-08-14T20:05:28Z</time>
      </trkpt>
      <trkpt lat="4.3691110" lon="-76.2569690">
        <ele>1658.6</ele>
        <time>2022-08-14T20:05:30Z</time>
      </trkpt>
      <trkpt lat="4.3690370" lon="-76.2571030">
        <ele>1659.8</ele>
        <time>2022-08-14T20:05:32Z</time>
      </trkpt>
      <trkpt lat="4.3689840" lon="-76.2571940">
        <ele>1660.2</ele>
        <time>2022-08-14T20:05:33Z</time>
      </trkpt>
      <trkpt lat="4.3688450" lon="-76.2573170">
        <ele>1661.0</ele>
        <time>2022-08-14T20:05:35Z</time>
      </trkpt>
      <trkpt lat="4.3687580" lon="-76.2573640">
        <ele>1661.6</ele>
        <time>2022-08-14T20:05:36Z</time>
      </trkpt>
      <trkpt lat="4.3686700" lon="-76.2574090">
        <ele>1662.4</ele>
        <time>2022-08-14T20:05:37Z</time>
      </trkpt>
      <trkpt lat="4.3685200" lon="-76.2575120">
        <ele>1663.4</ele>
        <time>2022-08-14T20:05:39Z</time>
      </trkpt>
      <trkpt lat="4.3684770" lon="-76.2575630">
        <ele>1663.8</ele>
        <time>2022-08-14T20:05:40Z</time>
      </trkpt>
      <trkpt lat="4.3684440" lon="-76.2576370">
        <ele>1664.0</ele>
        <time>2022-08-14T20:05:41Z</time>
      </trkpt>
      <trkpt lat="4.3684300" lon="-76.2577200">
        <ele>1664.4</ele>
        <time>2022-08-14T20:05:42Z</time>
      </trkpt>
      <trkpt lat="4.3684300" lon="-76.2577200">
        <ele>1664.8</ele>
        <time>2022-08-14T20:05:43Z</time>
      </trkpt>
      <trkpt lat="4.3684100" lon="-76.2581710">
        <ele>1666.0</ele>
        <time>2022-08-14T20:05:47Z</time>
      </trkpt>
      <trkpt lat="4.3684170" lon="-76.2582610">
        <ele>1666.0</ele>
        <time>2022-08-14T20:05:48Z</time>
      </trkpt>
      <trkpt lat="4.3684540" lon="-76.2583970">
        <ele>1666.8</ele>
        <time>2022-08-14T20:05:50Z</time>
      </trkpt>
      <trkpt lat="4.3684720" lon="-76.2584540">
        <ele>1667.4</ele>
        <time>2022-08-14T20:05:51Z</time>
      </trkpt>
      <trkpt lat="4.3684880" lon="-76.2585430">
        <ele>1667.8</ele>
        <time>2022-08-14T20:05:52Z</time>
      </trkpt>
      <trkpt lat="4.3684860" lon="-76.2586010">
        <ele>1668.2</ele>
        <time>2022-08-14T20:05:53Z</time>
      </trkpt>
      <trkpt lat="4.3684750" lon="-76.2587520">
        <ele>1668.6</ele>
        <time>2022-08-14T20:05:55Z</time>
      </trkpt>
      <trkpt lat="4.3684980" lon="-76.2588700">
        <ele>1669.4</ele>
        <time>2022-08-14T20:05:57Z</time>
      </trkpt>
      <trkpt lat="4.3685210" lon="-76.2589380">
        <ele>1669.8</ele>
        <time>2022-08-14T20:05:58Z</time>
      </trkpt>
      <trkpt lat="4.3685520" lon="-76.2590170">
        <ele>1670.2</ele>
        <time>2022-08-14T20:05:59Z</time>
      </trkpt>
      <trkpt lat="4.3685730" lon="-76.2590820">
        <ele>1670.6</ele>
        <time>2022-08-14T20:06:00Z</time>
      </trkpt>
      <trkpt lat="4.3685860" lon="-76.2592110">
        <ele>1671.2</ele>
        <time>2022-08-14T20:06:02Z</time>
      </trkpt>
      <trkpt lat="4.3685760" lon="-76.2592730">
        <ele>1671.6</ele>
        <time>2022-08-14T20:06:03Z</time>
      </trkpt>
      <trkpt lat="4.3685530" lon="-76.2593310">
        <ele>1672.0</ele>
        <time>2022-08-14T20:06:04Z</time>
      </trkpt>
      <trkpt lat="4.3685240" lon="-76.2593820">
        <ele>1672.4</ele>
        <time>2022-08-14T20:06:05Z</time>
      </trkpt>
      <trkpt lat="4.3684950" lon="-76.2594280">
        <ele>1672.8</ele>
        <time>2022-08-14T20:06:06Z</time>
      </trkpt>
      <trkpt lat="4.3684220" lon="-76.2595510">
        <ele>1674.2</ele>
        <time>2022-08-14T20:06:09Z</time>
      </trkpt>
      <trkpt lat="4.3684020" lon="-76.2595880">
        <ele>1674.6</ele>
        <time>2022-08-14T20:06:10Z</time>
      </trkpt>
      <trkpt lat="4.3683780" lon="-76.2596510">
        <ele>1675.8</ele>
        <time>2022-08-14T20:06:12Z</time>
      </trkpt>
      <trkpt lat="4.3683560" lon="-76.2597340">
        <ele>1676.4</ele>
        <time>2022-08-14T20:06:14Z</time>
      </trkpt>
      <trkpt lat="4.3683470" lon="-76.2597760">
        <ele>1676.8</ele>
        <time>2022-08-14T20:06:15Z</time>
      </trkpt>
      <trkpt lat="4.3683240" lon="-76.2599060">
        <ele>1678.0</ele>
        <time>2022-08-14T20:06:18Z</time>
      </trkpt>
      <trkpt lat="4.3682940" lon="-76.2600720">
        <ele>1679.6</ele>
        <time>2022-08-14T20:06:21Z</time>
      </trkpt>
      <trkpt lat="4.3682840" lon="-76.2601700">
        <ele>1680.8</ele>
        <time>2022-08-14T20:06:23Z</time>
      </trkpt>
      <trkpt lat="4.3682750" lon="-76.2603650">
        <ele>1682.0</ele>
        <time>2022-08-14T20:06:26Z</time>
      </trkpt>
      <trkpt lat="4.3682780" lon="-76.2604150">
        <ele>1682.2</ele>
        <time>2022-08-14T20:06:27Z</time>
      </trkpt>
      <trkpt lat="4.3682880" lon="-76.2604760">
        <ele>1682.6</ele>
        <time>2022-08-14T20:06:28Z</time>
      </trkpt>
      <trkpt lat="4.3683670" lon="-76.2607260">
        <ele>1682.8</ele>
        <time>2022-08-14T20:06:32Z</time>
      </trkpt>
      <trkpt lat="4.3683890" lon="-76.2608580">
        <ele>1682.8</ele>
        <time>2022-08-14T20:06:34Z</time>
      </trkpt>
      <trkpt lat="4.3683600" lon="-76.2610020">
        <ele>1682.6</ele>
        <time>2022-08-14T20:06:36Z</time>
      </trkpt>
      <trkpt lat="4.3682750" lon="-76.2611040">
        <ele>1682.6</ele>
        <time>2022-08-14T20:06:38Z</time>
      </trkpt>
      <trkpt lat="4.3682100" lon="-76.2611500">
        <ele>1682.8</ele>
        <time>2022-08-14T20:06:39Z</time>
      </trkpt>
      <trkpt lat="4.3677610" lon="-76.2614290">
        <ele>1681.8</ele>
        <time>2022-08-14T20:06:45Z</time>
      </trkpt>
      <trkpt lat="4.3674560" lon="-76.2615650">
        <ele>1681.2</ele>
        <time>2022-08-14T20:06:49Z</time>
      </trkpt>
      <trkpt lat="4.3673830" lon="-76.2616240">
        <ele>1681.4</ele>
        <time>2022-08-14T20:06:50Z</time>
      </trkpt>
      <trkpt lat="4.3672900" lon="-76.2617410">
        <ele>1681.2</ele>
        <time>2022-08-14T20:06:52Z</time>
      </trkpt>
      <trkpt lat="4.3672510" lon="-76.2617960">
        <ele>1681.2</ele>
        <time>2022-08-14T20:06:53Z</time>
      </trkpt>
      <trkpt lat="4.3671730" lon="-76.2618900">
        <ele>1681.2</ele>
        <time>2022-08-14T20:06:55Z</time>
      </trkpt>
      <trkpt lat="4.3671320" lon="-76.2619230">
        <ele>1681.2</ele>
        <time>2022-08-14T20:06:56Z</time>
      </trkpt>
      <trkpt lat="4.3670580" lon="-76.2619750">
        <ele>1681.2</ele>
        <time>2022-08-14T20:06:58Z</time>
      </trkpt>
      <trkpt lat="4.3669430" lon="-76.2620230">
        <ele>1681.2</ele>
        <time>2022-08-14T20:07:01Z</time>
      </trkpt>
      <trkpt lat="4.3667630" lon="-76.2620430">
        <ele>1681.4</ele>
        <time>2022-08-14T20:07:06Z</time>
      </trkpt>
      <trkpt lat="4.3664550" lon="-76.2620240">
        <ele>1682.0</ele>
        <time>2022-08-14T20:07:13Z</time>
      </trkpt>
      <trkpt lat="4.3662650" lon="-76.2619980">
        <ele>1683.4</ele>
        <time>2022-08-14T20:07:17Z</time>
      </trkpt>
      <trkpt lat="4.3660650" lon="-76.2619580">
        <ele>1684.2</ele>
        <time>2022-08-14T20:07:21Z</time>
      </trkpt>
      <trkpt lat="4.3660140" lon="-76.2619550">
        <ele>1684.2</ele>
        <time>2022-08-14T20:07:22Z</time>
      </trkpt>
      <trkpt lat="4.3659120" lon="-76.2619620">
        <ele>1684.2</ele>
        <time>2022-08-14T20:07:24Z</time>
      </trkpt>
      <trkpt lat="4.3658130" lon="-76.2619860">
        <ele>1684.2</ele>
        <time>2022-08-14T20:07:26Z</time>
      </trkpt>
      <trkpt lat="4.3657250" lon="-76.2620340">
        <ele>1684.2</ele>
        <time>2022-08-14T20:07:28Z</time>
      </trkpt>
      <trkpt lat="4.3656540" lon="-76.2621060">
        <ele>1684.2</ele>
        <time>2022-08-14T20:07:30Z</time>
      </trkpt>
      <trkpt lat="4.3654970" lon="-76.2623570">
        <ele>1684.2</ele>
        <time>2022-08-14T20:07:35Z</time>
      </trkpt>
      <trkpt lat="4.3654110" lon="-76.2624530">
        <ele>1683.8</ele>
        <time>2022-08-14T20:07:37Z</time>
      </trkpt>
      <trkpt lat="4.3653100" lon="-76.2625350">
        <ele>1683.4</ele>
        <time>2022-08-14T20:07:39Z</time>
      </trkpt>
      <trkpt lat="4.3652550" lon="-76.2625720">
        <ele>1683.0</ele>
        <time>2022-08-14T20:07:40Z</time>
      </trkpt>
      <trkpt lat="4.3650860" lon="-76.2626860">
        <ele>1682.4</ele>
        <time>2022-08-14T20:07:43Z</time>
      </trkpt>
      <trkpt lat="4.3650500" lon="-76.2627300">
        <ele>1682.0</ele>
        <time>2022-08-14T20:07:44Z</time>
      </trkpt>
      <trkpt lat="4.3649560" lon="-76.2628610">
        <ele>1681.6</ele>
        <time>2022-08-14T20:07:46Z</time>
      </trkpt>
      <trkpt lat="4.3648980" lon="-76.2629110">
        <ele>1681.0</ele>
        <time>2022-08-14T20:07:47Z</time>
      </trkpt>
      <trkpt lat="4.3648340" lon="-76.2629500">
        <ele>1680.6</ele>
        <time>2022-08-14T20:07:48Z</time>
      </trkpt>
      <trkpt lat="4.3646970" lon="-76.2629890">
        <ele>1680.4</ele>
        <time>2022-08-14T20:07:50Z</time>
      </trkpt>
      <trkpt lat="4.3646250" lon="-76.2629880">
        <ele>1680.0</ele>
        <time>2022-08-14T20:07:51Z</time>
      </trkpt>
      <trkpt lat="4.3644170" lon="-76.2629670">
        <ele>1679.2</ele>
        <time>2022-08-14T20:07:54Z</time>
      </trkpt>
      <trkpt lat="4.3643530" lon="-76.2629740">
        <ele>1678.8</ele>
        <time>2022-08-14T20:07:55Z</time>
      </trkpt>
      <trkpt lat="4.3642910" lon="-76.2629910">
        <ele>1678.6</ele>
        <time>2022-08-14T20:07:56Z</time>
      </trkpt>
      <trkpt lat="4.3641150" lon="-76.2630670">
        <ele>1678.0</ele>
        <time>2022-08-14T20:07:59Z</time>
      </trkpt>
      <trkpt lat="4.3640050" lon="-76.2631230">
        <ele>1678.0</ele>
        <time>2022-08-14T20:08:01Z</time>
      </trkpt>
      <trkpt lat="4.3639020" lon="-76.2631850">
        <ele>1677.8</ele>
        <time>2022-08-14T20:08:03Z</time>
      </trkpt>
      <trkpt lat="4.3638350" lon="-76.2632880">
        <ele>1678.0</ele>
        <time>2022-08-14T20:08:05Z</time>
      </trkpt>
      <trkpt lat="4.3638290" lon="-76.2634270">
        <ele>1678.0</ele>
        <time>2022-08-14T20:08:07Z</time>
      </trkpt>
      <trkpt lat="4.3638110" lon="-76.2634950">
        <ele>1678.0</ele>
        <time>2022-08-14T20:08:08Z</time>
      </trkpt>
      <trkpt lat="4.3637780" lon="-76.2635430">
        <ele>1678.0</ele>
        <time>2022-08-14T20:08:09Z</time>
      </trkpt>
      <trkpt lat="4.3637140" lon="-76.2635920">
        <ele>1678.2</ele>
        <time>2022-08-14T20:08:10Z</time>
      </trkpt>
      <trkpt lat="4.3632850" lon="-76.2637680">
        <ele>1679.2</ele>
        <time>2022-08-14T20:08:17Z</time>
      </trkpt>
      <trkpt lat="4.3630460" lon="-76.2639740">
        <ele>1680.0</ele>
        <time>2022-08-14T20:08:22Z</time>
      </trkpt>
      <trkpt lat="4.3627970" lon="-76.2642720">
        <ele>1681.4</ele>
        <time>2022-08-14T20:08:28Z</time>
      </trkpt>
      <trkpt lat="4.3627580" lon="-76.2643280">
        <ele>1681.8</ele>
        <time>2022-08-14T20:08:29Z</time>
      </trkpt>
      <trkpt lat="4.3627230" lon="-76.2643910">
        <ele>1682.0</ele>
        <time>2022-08-14T20:08:30Z</time>
      </trkpt>
      <trkpt lat="4.3626710" lon="-76.2645180">
        <ele>1682.8</ele>
        <time>2022-08-14T20:08:32Z</time>
      </trkpt>
      <trkpt lat="4.3626440" lon="-76.2646120">
        <ele>1683.0</ele>
        <time>2022-08-14T20:08:33Z</time>
      </trkpt>
      <trkpt lat="4.3626210" lon="-76.2646930">
        <ele>1683.4</ele>
        <time>2022-08-14T20:08:34Z</time>
      </trkpt>
      <trkpt lat="4.3625600" lon="-76.2648300">
        <ele>1684.0</ele>
        <time>2022-08-14T20:08:36Z</time>
      </trkpt>
      <trkpt lat="4.3624530" lon="-76.2649620">
        <ele>1684.4</ele>
        <time>2022-08-14T20:08:38Z</time>
      </trkpt>
      <trkpt lat="4.3623600" lon="-76.2650910">
        <ele>1685.0</ele>
        <time>2022-08-14T20:08:40Z</time>
      </trkpt>
      <trkpt lat="4.3623360" lon="-76.2651690">
        <ele>1685.4</ele>
        <time>2022-08-14T20:08:41Z</time>
      </trkpt>
      <trkpt lat="4.3623200" lon="-76.2653350">
        <ele>1685.8</ele>
        <time>2022-08-14T20:08:43Z</time>
      </trkpt>
      <trkpt lat="4.3623040" lon="-76.2655020">
        <ele>1686.2</ele>
        <time>2022-08-14T20:08:45Z</time>
      </trkpt>
      <trkpt lat="4.3622510" lon="-76.2656360">
        <ele>1686.6</ele>
        <time>2022-08-14T20:08:47Z</time>
      </trkpt>
      <trkpt lat="4.3622180" lon="-76.2656830">
        <ele>1687.2</ele>
        <time>2022-08-14T20:08:48Z</time>
      </trkpt>
      <trkpt lat="4.3620930" lon="-76.2657530">
        <ele>1688.0</ele>
        <time>2022-08-14T20:08:51Z</time>
      </trkpt>
      <trkpt lat="4.3620470" lon="-76.2657680">
        <ele>1688.2</ele>
        <time>2022-08-14T20:08:52Z</time>
      </trkpt>
      <trkpt lat="4.3619070" lon="-76.2658170">
        <ele>1689.4</ele>
        <time>2022-08-14T20:08:55Z</time>
      </trkpt>
      <trkpt lat="4.3617800" lon="-76.2658960">
        <ele>1690.2</ele>
        <time>2022-08-14T20:08:58Z</time>
      </trkpt>
      <trkpt lat="4.3616290" lon="-76.2660000">
        <ele>1690.6</ele>
        <time>2022-08-14T20:09:01Z</time>
      </trkpt>
      <trkpt lat="4.3615960" lon="-76.2660310">
        <ele>1691.0</ele>
        <time>2022-08-14T20:09:02Z</time>
      </trkpt>
      <trkpt lat="4.3615560" lon="-76.2660770">
        <ele>1691.0</ele>
        <time>2022-08-14T20:09:03Z</time>
      </trkpt>
      <trkpt lat="4.3614660" lon="-76.2661940">
        <ele>1691.6</ele>
        <time>2022-08-14T20:09:06Z</time>
      </trkpt>
      <trkpt lat="4.3613740" lon="-76.2662240">
        <ele>1691.6</ele>
        <time>2022-08-14T20:09:08Z</time>
      </trkpt>
      <trkpt lat="4.3612310" lon="-76.2662040">
        <ele>1692.2</ele>
        <time>2022-08-14T20:09:11Z</time>
      </trkpt>
      <trkpt lat="4.3611870" lon="-76.2662090">
        <ele>1692.2</ele>
        <time>2022-08-14T20:09:12Z</time>
      </trkpt>
      <trkpt lat="4.3611540" lon="-76.2662190">
        <ele>1692.4</ele>
        <time>2022-08-14T20:09:13Z</time>
      </trkpt>
      <trkpt lat="4.3611100" lon="-76.2662380">
        <ele>1692.6</ele>
        <time>2022-08-14T20:09:14Z</time>
      </trkpt>
      <trkpt lat="4.3610330" lon="-76.2662780">
        <ele>1692.8</ele>
        <time>2022-08-14T20:09:16Z</time>
      </trkpt>
      <trkpt lat="4.3609900" lon="-76.2662930">
        <ele>1693.0</ele>
        <time>2022-08-14T20:09:17Z</time>
      </trkpt>
      <trkpt lat="4.3608910" lon="-76.2662980">
        <ele>1693.2</ele>
        <time>2022-08-14T20:09:19Z</time>
      </trkpt>
      <trkpt lat="4.3608370" lon="-76.2662940">
        <ele>1693.2</ele>
        <time>2022-08-14T20:09:20Z</time>
      </trkpt>
      <trkpt lat="4.3605530" lon="-76.2662280">
        <ele>1693.8</ele>
        <time>2022-08-14T20:09:25Z</time>
      </trkpt>
      <trkpt lat="4.3601920" lon="-76.2661490">
        <ele>1694.0</ele>
        <time>2022-08-14T20:09:31Z</time>
      </trkpt>
      <trkpt lat="4.3597340" lon="-76.2661290">
        <ele>1694.4</ele>
        <time>2022-08-14T20:09:38Z</time>
      </trkpt>
      <trkpt lat="4.3595940" lon="-76.2660750">
        <ele>1694.4</ele>
        <time>2022-08-14T20:09:40Z</time>
      </trkpt>
      <trkpt lat="4.3594620" lon="-76.2660110">
        <ele>1694.2</ele>
        <time>2022-08-14T20:09:42Z</time>
      </trkpt>
      <trkpt lat="4.3593240" lon="-76.2660010">
        <ele>1694.4</ele>
        <time>2022-08-14T20:09:44Z</time>
      </trkpt>
      <trkpt lat="4.3592520" lon="-76.2660160">
        <ele>1694.2</ele>
        <time>2022-08-14T20:09:45Z</time>
      </trkpt>
      <trkpt lat="4.3588400" lon="-76.2661700">
        <ele>1693.8</ele>
        <time>2022-08-14T20:09:51Z</time>
      </trkpt>
      <trkpt lat="4.3586130" lon="-76.2663360">
        <ele>1693.8</ele>
        <time>2022-08-14T20:09:55Z</time>
      </trkpt>
      <trkpt lat="4.3585620" lon="-76.2663810">
        <ele>1693.8</ele>
        <time>2022-08-14T20:09:56Z</time>
      </trkpt>
      <trkpt lat="4.3582120" lon="-76.2666700">
        <ele>1693.8</ele>
        <time>2022-08-14T20:10:02Z</time>
      </trkpt>
      <trkpt lat="4.3581290" lon="-76.2667090">
        <ele>1693.6</ele>
        <time>2022-08-14T20:10:03Z</time>
      </trkpt>
      <trkpt lat="4.3580380" lon="-76.2667450">
        <ele>1693.6</ele>
        <time>2022-08-14T20:10:04Z</time>
      </trkpt>
      <trkpt lat="4.3577480" lon="-76.2668200">
        <ele>1693.2</ele>
        <time>2022-08-14T20:10:07Z</time>
      </trkpt>
      <trkpt lat="4.3575080" lon="-76.2669280">
        <ele>1693.0</ele>
        <time>2022-08-14T20:10:10Z</time>
      </trkpt>
      <trkpt lat="4.3574470" lon="-76.2669730">
        <ele>1693.0</ele>
        <time>2022-08-14T20:10:11Z</time>
      </trkpt>
      <trkpt lat="4.3573490" lon="-76.2670710">
        <ele>1692.2</ele>
        <time>2022-08-14T20:10:13Z</time>
      </trkpt>
      <trkpt lat="4.3572600" lon="-76.2671670">
        <ele>1691.0</ele>
        <time>2022-08-14T20:10:15Z</time>
      </trkpt>
      <trkpt lat="4.3571520" lon="-76.2672370">
        <ele>1689.8</ele>
        <time>2022-08-14T20:10:17Z</time>
      </trkpt>
      <trkpt lat="4.3570940" lon="-76.2672670">
        <ele>1689.2</ele>
        <time>2022-08-14T20:10:18Z</time>
      </trkpt>
      <trkpt lat="4.3570320" lon="-76.2672840">
        <ele>1688.6</ele>
        <time>2022-08-14T20:10:19Z</time>
      </trkpt>
      <trkpt lat="4.3569680" lon="-76.2672870">
        <ele>1688.0</ele>
        <time>2022-08-14T20:10:20Z</time>
      </trkpt>
      <trkpt lat="4.3568340" lon="-76.2672620">
        <ele>1687.4</ele>
        <time>2022-08-14T20:10:22Z</time>
      </trkpt>
      <trkpt lat="4.3566900" lon="-76.2672130">
        <ele>1685.8</ele>
        <time>2022-08-14T20:10:24Z</time>
      </trkpt>
      <trkpt lat="4.3565330" lon="-76.2671590">
        <ele>1683.8</ele>
        <time>2022-08-14T20:10:26Z</time>
      </trkpt>
      <trkpt lat="4.3564510" lon="-76.2671310">
        <ele>1682.8</ele>
        <time>2022-08-14T20:10:27Z</time>
      </trkpt>
      <trkpt lat="4.3563660" lon="-76.2671010">
        <ele>1681.6</ele>
        <time>2022-08-14T20:10:28Z</time>
      </trkpt>
      <trkpt lat="4.3562880" lon="-76.2670610">
        <ele>1680.4</ele>
        <time>2022-08-14T20:10:29Z</time>
      </trkpt>
      <trkpt lat="4.3562210" lon="-76.2670110">
        <ele>1679.6</ele>
        <time>2022-08-14T20:10:30Z</time>
      </trkpt>
      <trkpt lat="4.3561630" lon="-76.2669510">
        <ele>1678.0</ele>
        <time>2022-08-14T20:10:31Z</time>
      </trkpt>
      <trkpt lat="4.3561080" lon="-76.2668870">
        <ele>1676.4</ele>
        <time>2022-08-14T20:10:32Z</time>
      </trkpt>
      <trkpt lat="4.3560680" lon="-76.2668160">
        <ele>1674.8</ele>
        <time>2022-08-14T20:10:33Z</time>
      </trkpt>
      <trkpt lat="4.3560410" lon="-76.2667440">
        <ele>1673.0</ele>
        <time>2022-08-14T20:10:34Z</time>
      </trkpt>
      <trkpt lat="4.3560270" lon="-76.2666710">
        <ele>1671.0</ele>
        <time>2022-08-14T20:10:35Z</time>
      </trkpt>
      <trkpt lat="4.3560220" lon="-76.2666030">
        <ele>1669.0</ele>
        <time>2022-08-14T20:10:36Z</time>
      </trkpt>
      <trkpt lat="4.3560180" lon="-76.2665390">
        <ele>1666.8</ele>
        <time>2022-08-14T20:10:37Z</time>
      </trkpt>
      <trkpt lat="4.3560090" lon="-76.2664800">
        <ele>1665.2</ele>
        <time>2022-08-14T20:10:38Z</time>
      </trkpt>
      <trkpt lat="4.3559950" lon="-76.2664260">
        <ele>1663.4</ele>
        <time>2022-08-14T20:10:39Z</time>
      </trkpt>
      <trkpt lat="4.3559780" lon="-76.2663750">
        <ele>1661.6</ele>
        <time>2022-08-14T20:10:40Z</time>
      </trkpt>
      <trkpt lat="4.3559560" lon="-76.2663270">
        <ele>1659.4</ele>
        <time>2022-08-14T20:10:41Z</time>
      </trkpt>
      <trkpt lat="4.3559300" lon="-76.2662850">
        <ele>1657.6</ele>
        <time>2022-08-14T20:10:42Z</time>
      </trkpt>
      <trkpt lat="4.3559030" lon="-76.2662490">
        <ele>1656.4</ele>
        <time>2022-08-14T20:10:43Z</time>
      </trkpt>
      <trkpt lat="4.3558740" lon="-76.2662130">
        <ele>1654.4</ele>
        <time>2022-08-14T20:10:44Z</time>
      </trkpt>
      <trkpt lat="4.3558450" lon="-76.2661750">
        <ele>1652.8</ele>
        <time>2022-08-14T20:10:45Z</time>
      </trkpt>
      <trkpt lat="4.3558150" lon="-76.2661320">
        <ele>1652.8</ele>
        <time>2022-08-14T20:10:46Z</time>
      </trkpt>
      <trkpt lat="4.3557830" lon="-76.2660880">
        <ele>1651.2</ele>
        <time>2022-08-14T20:10:47Z</time>
      </trkpt>
      <trkpt lat="4.3557560" lon="-76.2660510">
        <ele>1649.6</ele>
        <time>2022-08-14T20:10:48Z</time>
      </trkpt>
      <trkpt lat="4.3557230" lon="-76.2660000">
        <ele>1648.2</ele>
        <time>2022-08-14T20:10:49Z</time>
      </trkpt>
      <trkpt lat="4.3556850" lon="-76.2659350">
        <ele>1646.6</ele>
        <time>2022-08-14T20:10:50Z</time>
      </trkpt>
      <trkpt lat="4.3556460" lon="-76.2658810">
        <ele>1645.2</ele>
        <time>2022-08-14T20:10:51Z</time>
      </trkpt>
      <trkpt lat="4.3555940" lon="-76.2658430">
        <ele>1643.6</ele>
        <time>2022-08-14T20:10:52Z</time>
      </trkpt>
      <trkpt lat="4.3555460" lon="-76.2658370">
        <ele>1642.2</ele>
        <time>2022-08-14T20:10:53Z</time>
      </trkpt>
      <trkpt lat="4.3554880" lon="-76.2658440">
        <ele>1640.6</ele>
        <time>2022-08-14T20:10:54Z</time>
      </trkpt>
      <trkpt lat="4.3554300" lon="-76.2658580">
        <ele>1639.2</ele>
        <time>2022-08-14T20:10:55Z</time>
      </trkpt>
      <trkpt lat="4.3553750" lon="-76.2658740">
        <ele>1637.6</ele>
        <time>2022-08-14T20:10:56Z</time>
      </trkpt>
      <trkpt lat="4.3553120" lon="-76.2658930">
        <ele>1636.4</ele>
        <time>2022-08-14T20:10:57Z</time>
      </trkpt>
      <trkpt lat="4.3552580" lon="-76.2659060">
        <ele>1635.0</ele>
        <time>2022-08-14T20:10:58Z</time>
      </trkpt>
      <trkpt lat="4.3552160" lon="-76.2659170">
        <ele>1633.6</ele>
        <time>2022-08-14T20:10:59Z</time>
      </trkpt>
      <trkpt lat="4.3551610" lon="-76.2659330">
        <ele>1632.2</ele>
        <time>2022-08-14T20:11:00Z</time>
      </trkpt>
      <trkpt lat="4.3551080" lon="-76.2659530">
        <ele>1630.8</ele>
        <time>2022-08-14T20:11:01Z</time>
      </trkpt>
      <trkpt lat="4.3550420" lon="-76.2659770">
        <ele>1629.2</ele>
        <time>2022-08-14T20:11:02Z</time>
      </trkpt>
      <trkpt lat="4.3549850" lon="-76.2659970">
        <ele>1627.8</ele>
        <time>2022-08-14T20:11:03Z</time>
      </trkpt>
      <trkpt lat="4.3549390" lon="-76.2660120">
        <ele>1626.6</ele>
        <time>2022-08-14T20:11:04Z</time>
      </trkpt>
      <trkpt lat="4.3548770" lon="-76.2660280">
        <ele>1625.2</ele>
        <time>2022-08-14T20:11:05Z</time>
      </trkpt>
      <trkpt lat="4.3548180" lon="-76.2660460">
        <ele>1624.0</ele>
        <time>2022-08-14T20:11:06Z</time>
      </trkpt>
      <trkpt lat="4.3547490" lon="-76.2660690">
        <ele>1622.8</ele>
        <time>2022-08-14T20:11:07Z</time>
      </trkpt>
      <trkpt lat="4.3546910" lon="-76.2660850">
        <ele>1621.8</ele>
        <time>2022-08-14T20:11:08Z</time>
      </trkpt>
      <trkpt lat="4.3546330" lon="-76.2661020">
        <ele>1620.4</ele>
        <time>2022-08-14T20:11:09Z</time>
      </trkpt>
      <trkpt lat="4.3545790" lon="-76.2661200">
        <ele>1619.2</ele>
        <time>2022-08-14T20:11:10Z</time>
      </trkpt>
      <trkpt lat="4.3545270" lon="-76.2661370">
        <ele>1619.2</ele>
        <time>2022-08-14T20:11:11Z</time>
      </trkpt>
      <trkpt lat="4.3544810" lon="-76.2661560">
        <ele>1618.0</ele>
        <time>2022-08-14T20:11:12Z</time>
      </trkpt>
      <trkpt lat="4.3544350" lon="-76.2661740">
        <ele>1616.8</ele>
        <time>2022-08-14T20:11:13Z</time>
      </trkpt>
      <trkpt lat="4.3543890" lon="-76.2661930">
        <ele>1615.6</ele>
        <time>2022-08-14T20:11:14Z</time>
      </trkpt>
      <trkpt lat="4.3543430" lon="-76.2662140">
        <ele>1614.6</ele>
        <time>2022-08-14T20:11:15Z</time>
      </trkpt>
      <trkpt lat="4.3542990" lon="-76.2662340">
        <ele>1613.6</ele>
        <time>2022-08-14T20:11:16Z</time>
      </trkpt>
      <trkpt lat="4.3542540" lon="-76.2662500">
        <ele>1612.6</ele>
        <time>2022-08-14T20:11:17Z</time>
      </trkpt>
      <trkpt lat="4.3542070" lon="-76.2662590">
        <ele>1611.6</ele>
        <time>2022-08-14T20:11:18Z</time>
      </trkpt>
      <trkpt lat="4.3541610" lon="-76.2662700">
        <ele>1610.8</ele>
        <time>2022-08-14T20:11:19Z</time>
      </trkpt>
      <trkpt lat="4.3541170" lon="-76.2662840">
        <ele>1610.0</ele>
        <time>2022-08-14T20:11:20Z</time>
      </trkpt>
      <trkpt lat="4.3540750" lon="-76.2662950">
        <ele>1609.2</ele>
        <time>2022-08-14T20:11:21Z</time>
      </trkpt>
      <trkpt lat="4.3540410" lon="-76.2663040">
        <ele>1608.4</ele>
        <time>2022-08-14T20:11:22Z</time>
      </trkpt>
      <trkpt lat="4.3539460" lon="-76.2663280">
        <ele>1606.6</ele>
        <time>2022-08-14T20:11:24Z</time>
      </trkpt>
      <trkpt lat="4.3538990" lon="-76.2663410">
        <ele>1605.4</ele>
        <time>2022-08-14T20:11:25Z</time>
      </trkpt>
      <trkpt lat="4.3538580" lon="-76.2663540">
        <ele>1604.2</ele>
        <time>2022-08-14T20:11:26Z</time>
      </trkpt>
      <trkpt lat="4.3538070" lon="-76.2663690">
        <ele>1603.0</ele>
        <time>2022-08-14T20:11:27Z</time>
      </trkpt>
      <trkpt lat="4.3537550" lon="-76.2663860">
        <ele>1601.6</ele>
        <time>2022-08-14T20:11:28Z</time>
      </trkpt>
      <trkpt lat="4.3536900" lon="-76.2664030">
        <ele>1600.4</ele>
        <time>2022-08-14T20:11:29Z</time>
      </trkpt>
      <trkpt lat="4.3536480" lon="-76.2664150">
        <ele>1599.2</ele>
        <time>2022-08-14T20:11:30Z</time>
      </trkpt>
      <trkpt lat="4.3535950" lon="-76.2664330">
        <ele>1598.4</ele>
        <time>2022-08-14T20:11:31Z</time>
      </trkpt>
      <trkpt lat="4.3535450" lon="-76.2664520">
        <ele>1597.4</ele>
        <time>2022-08-14T20:11:32Z</time>
      </trkpt>
      <trkpt lat="4.3534510" lon="-76.2664900">
        <ele>1596.0</ele>
        <time>2022-08-14T20:11:34Z</time>
      </trkpt>
      <trkpt lat="4.3533280" lon="-76.2665260">
        <ele>1594.4</ele>
        <time>2022-08-14T20:11:37Z</time>
      </trkpt>
      <trkpt lat="4.3532470" lon="-76.2665500">
        <ele>1593.4</ele>
        <time>2022-08-14T20:11:39Z</time>
      </trkpt>
      <trkpt lat="4.3531560" lon="-76.2665730">
        <ele>1592.0</ele>
        <time>2022-08-14T20:11:41Z</time>
      </trkpt>
      <trkpt lat="4.3530050" lon="-76.2666180">
        <ele>1590.2</ele>
        <time>2022-08-14T20:11:44Z</time>
      </trkpt>
      <trkpt lat="4.3528970" lon="-76.2666540">
        <ele>1589.0</ele>
        <time>2022-08-14T20:11:46Z</time>
      </trkpt>
      <trkpt lat="4.3527890" lon="-76.2666840">
        <ele>1587.2</ele>
        <time>2022-08-14T20:11:48Z</time>
      </trkpt>
      <trkpt lat="4.3526840" lon="-76.2667190">
        <ele>1586.0</ele>
        <time>2022-08-14T20:11:50Z</time>
      </trkpt>
      <trkpt lat="4.3525770" lon="-76.2667520">
        <ele>1584.8</ele>
        <time>2022-08-14T20:11:52Z</time>
      </trkpt>
      <trkpt lat="4.3524730" lon="-76.2667840">
        <ele>1583.6</ele>
        <time>2022-08-14T20:11:54Z</time>
      </trkpt>
      <trkpt lat="4.3524220" lon="-76.2667940">
        <ele>1583.2</ele>
        <time>2022-08-14T20:11:55Z</time>
      </trkpt>
      <trkpt lat="4.3523170" lon="-76.2668140">
        <ele>1582.2</ele>
        <time>2022-08-14T20:11:58Z</time>
      </trkpt>
      <trkpt lat="4.3522120" lon="-76.2668430">
        <ele>1582.0</ele>
        <time>2022-08-14T20:11:59Z</time>
      </trkpt>
      <trkpt lat="4.3519990" lon="-76.2669050">
        <ele>1581.2</ele>
        <time>2022-08-14T20:12:03Z</time>
      </trkpt>
      <trkpt lat="4.3519470" lon="-76.2669250">
        <ele>1581.0</ele>
        <time>2022-08-14T20:12:04Z</time>
      </trkpt>
      <trkpt lat="4.3517880" lon="-76.2669770">
        <ele>1580.0</ele>
        <time>2022-08-14T20:12:07Z</time>
      </trkpt>
      <trkpt lat="4.3517370" lon="-76.2669950">
        <ele>1579.8</ele>
        <time>2022-08-14T20:12:08Z</time>
      </trkpt>
      <trkpt lat="4.3516460" lon="-76.2670430">
        <ele>1579.2</ele>
        <time>2022-08-14T20:12:10Z</time>
      </trkpt>
      <trkpt lat="4.3516200" lon="-76.2670820">
        <ele>1578.8</ele>
        <time>2022-08-14T20:12:11Z</time>
      </trkpt>
      <trkpt lat="4.3516240" lon="-76.2671750">
        <ele>1578.0</ele>
        <time>2022-08-14T20:12:13Z</time>
      </trkpt>
      <trkpt lat="4.3516350" lon="-76.2672210">
        <ele>1577.8</ele>
        <time>2022-08-14T20:12:14Z</time>
      </trkpt>
      <trkpt lat="4.3516510" lon="-76.2672670">
        <ele>1577.6</ele>
        <time>2022-08-14T20:12:15Z</time>
      </trkpt>
      <trkpt lat="4.3517560" lon="-76.2675730">
        <ele>1577.4</ele>
        <time>2022-08-14T20:12:22Z</time>
      </trkpt>
      <trkpt lat="4.3518260" lon="-76.2678530">
        <ele>1578.2</ele>
        <time>2022-08-14T20:12:29Z</time>
      </trkpt>
      <trkpt lat="4.3518270" lon="-76.2678940">
        <ele>1578.4</ele>
        <time>2022-08-14T20:12:30Z</time>
      </trkpt>
      <trkpt lat="4.3518230" lon="-76.2679350">
        <ele>1578.8</ele>
        <time>2022-08-14T20:12:31Z</time>
      </trkpt>
      <trkpt lat="4.3518010" lon="-76.2680150">
        <ele>1579.6</ele>
        <time>2022-08-14T20:12:34Z</time>
      </trkpt>
      <trkpt lat="4.3517670" lon="-76.2681170">
        <ele>1580.0</ele>
        <time>2022-08-14T20:12:36Z</time>
      </trkpt>
      <trkpt lat="4.3517340" lon="-76.2682080">
        <ele>1580.8</ele>
        <time>2022-08-14T20:12:39Z</time>
      </trkpt>
      <trkpt lat="4.3517070" lon="-76.2682930">
        <ele>1581.6</ele>
        <time>2022-08-14T20:12:42Z</time>
      </trkpt>
      <trkpt lat="4.3516990" lon="-76.2683210">
        <ele>1582.0</ele>
        <time>2022-08-14T20:12:43Z</time>
      </trkpt>
      <trkpt lat="4.3516720" lon="-76.2683970">
        <ele>1583.0</ele>
        <time>2022-08-14T20:12:47Z</time>
      </trkpt>
      <trkpt lat="4.3516300" lon="-76.2685490">
        <ele>1584.4</ele>
        <time>2022-08-14T20:12:52Z</time>
      </trkpt>
      <trkpt lat="4.3516250" lon="-76.2685740">
        <ele>1584.6</ele>
        <time>2022-08-14T20:12:53Z</time>
      </trkpt>
      <trkpt lat="4.3515970" lon="-76.2686750">
        <ele>1585.8</ele>
        <time>2022-08-14T20:12:57Z</time>
      </trkpt>
      <trkpt lat="4.3515800" lon="-76.2687530">
        <ele>1587.2</ele>
        <time>2022-08-14T20:13:00Z</time>
      </trkpt>
      <trkpt lat="4.3515630" lon="-76.2688210">
        <ele>1588.2</ele>
        <time>2022-08-14T20:13:03Z</time>
      </trkpt>
      <trkpt lat="4.3515390" lon="-76.2689130">
        <ele>1589.2</ele>
        <time>2022-08-14T20:13:07Z</time>
      </trkpt>
      <trkpt lat="4.3515050" lon="-76.2690040">
        <ele>1589.8</ele>
        <time>2022-08-14T20:13:11Z</time>
      </trkpt>
      <trkpt lat="4.3514860" lon="-76.2690270">
        <ele>1590.2</ele>
        <time>2022-08-14T20:13:12Z</time>
      </trkpt>
      <trkpt lat="4.3513800" lon="-76.2691660">
        <ele>1590.8</ele>
        <time>2022-08-14T20:13:17Z</time>
      </trkpt>
      <trkpt lat="4.3512140" lon="-76.2694000">
        <ele>1591.0</ele>
        <time>2022-08-14T20:13:23Z</time>
      </trkpt>
      <trkpt lat="4.3510040" lon="-76.2696760">
        <ele>1590.2</ele>
        <time>2022-08-14T20:13:29Z</time>
      </trkpt>
      <trkpt lat="4.3507380" lon="-76.2700150">
        <ele>1589.2</ele>
        <time>2022-08-14T20:13:35Z</time>
      </trkpt>
      <trkpt lat="4.3506970" lon="-76.2700760">
        <ele>1589.0</ele>
        <time>2022-08-14T20:13:36Z</time>
      </trkpt>
      <trkpt lat="4.3505230" lon="-76.2704290">
        <ele>1587.4</ele>
        <time>2022-08-14T20:13:41Z</time>
      </trkpt>
      <trkpt lat="4.3504460" lon="-76.2705780">
        <ele>1586.4</ele>
        <time>2022-08-14T20:13:43Z</time>
      </trkpt>
      <trkpt lat="4.3504060" lon="-76.2706480">
        <ele>1586.0</ele>
        <time>2022-08-14T20:13:44Z</time>
      </trkpt>
      <trkpt lat="4.3503330" lon="-76.2707720">
        <ele>1584.8</ele>
        <time>2022-08-14T20:13:46Z</time>
      </trkpt>
      <trkpt lat="4.3503110" lon="-76.2708820">
        <ele>1583.8</ele>
        <time>2022-08-14T20:13:48Z</time>
      </trkpt>
      <trkpt lat="4.3503270" lon="-76.2709260">
        <ele>1583.6</ele>
        <time>2022-08-14T20:13:49Z</time>
      </trkpt>
      <trkpt lat="4.3504140" lon="-76.2709650">
        <ele>1582.4</ele>
        <time>2022-08-14T20:13:51Z</time>
      </trkpt>
      <trkpt lat="4.3504740" lon="-76.2709630">
        <ele>1582.2</ele>
        <time>2022-08-14T20:13:52Z</time>
      </trkpt>
      <trkpt lat="4.3506150" lon="-76.2709370">
        <ele>1581.4</ele>
        <time>2022-08-14T20:13:54Z</time>
      </trkpt>
      <trkpt lat="4.3507610" lon="-76.2708830">
        <ele>1580.8</ele>
        <time>2022-08-14T20:13:56Z</time>
      </trkpt>
      <trkpt lat="4.3509030" lon="-76.2707710">
        <ele>1580.2</ele>
        <time>2022-08-14T20:13:58Z</time>
      </trkpt>
      <trkpt lat="4.3509660" lon="-76.2707020">
        <ele>1580.0</ele>
        <time>2022-08-14T20:13:59Z</time>
      </trkpt>
      <trkpt lat="4.3510200" lon="-76.2706280">
        <ele>1579.6</ele>
        <time>2022-08-14T20:14:00Z</time>
      </trkpt>
      <trkpt lat="4.3510730" lon="-76.2705480">
        <ele>1579.0</ele>
        <time>2022-08-14T20:14:01Z</time>
      </trkpt>
      <trkpt lat="4.3511800" lon="-76.2704130">
        <ele>1577.8</ele>
        <time>2022-08-14T20:14:03Z</time>
      </trkpt>
      <trkpt lat="4.3512390" lon="-76.2703680">
        <ele>1577.8</ele>
        <time>2022-08-14T20:14:04Z</time>
      </trkpt>
      <trkpt lat="4.3513060" lon="-76.2703430">
        <ele>1577.4</ele>
        <time>2022-08-14T20:14:05Z</time>
      </trkpt>
      <trkpt lat="4.3513730" lon="-76.2703360">
        <ele>1577.0</ele>
        <time>2022-08-14T20:14:06Z</time>
      </trkpt>
      <trkpt lat="4.3514370" lon="-76.2703440">
        <ele>1576.4</ele>
        <time>2022-08-14T20:14:07Z</time>
      </trkpt>
      <trkpt lat="4.3514950" lon="-76.2703650">
        <ele>1576.0</ele>
        <time>2022-08-14T20:14:08Z</time>
      </trkpt>
      <trkpt lat="4.3515360" lon="-76.2704060">
        <ele>1575.2</ele>
        <time>2022-08-14T20:14:09Z</time>
      </trkpt>
      <trkpt lat="4.3515590" lon="-76.2704690">
        <ele>1574.4</ele>
        <time>2022-08-14T20:14:10Z</time>
      </trkpt>
      <trkpt lat="4.3515640" lon="-76.2705450">
        <ele>1573.4</ele>
        <time>2022-08-14T20:14:11Z</time>
      </trkpt>
      <trkpt lat="4.3515550" lon="-76.2706140">
        <ele>1572.4</ele>
        <time>2022-08-14T20:14:12Z</time>
      </trkpt>
      <trkpt lat="4.3515360" lon="-76.2707000">
        <ele>1571.2</ele>
        <time>2022-08-14T20:14:13Z</time>
      </trkpt>
      <trkpt lat="4.3515220" lon="-76.2708340">
        <ele>1570.2</ele>
        <time>2022-08-14T20:14:15Z</time>
      </trkpt>
      <trkpt lat="4.3515210" lon="-76.2709890">
        <ele>1569.6</ele>
        <time>2022-08-14T20:14:17Z</time>
      </trkpt>
      <trkpt lat="4.3515150" lon="-76.2711280">
        <ele>1569.0</ele>
        <time>2022-08-14T20:14:19Z</time>
      </trkpt>
      <trkpt lat="4.3514680" lon="-76.2712420">
        <ele>1568.6</ele>
        <time>2022-08-14T20:14:21Z</time>
      </trkpt>
      <trkpt lat="4.3513690" lon="-76.2713840">
        <ele>1567.8</ele>
        <time>2022-08-14T20:14:23Z</time>
      </trkpt>
      <trkpt lat="4.3513230" lon="-76.2714490">
        <ele>1567.4</ele>
        <time>2022-08-14T20:14:24Z</time>
      </trkpt>
      <trkpt lat="4.3512440" lon="-76.2715690">
        <ele>1566.8</ele>
        <time>2022-08-14T20:14:26Z</time>
      </trkpt>
      <trkpt lat="4.3511620" lon="-76.2716920">
        <ele>1565.8</ele>
        <time>2022-08-14T20:14:28Z</time>
      </trkpt>
      <trkpt lat="4.3510780" lon="-76.2717670">
        <ele>1565.2</ele>
        <time>2022-08-14T20:14:30Z</time>
      </trkpt>
      <trkpt lat="4.3510290" lon="-76.2718000">
        <ele>1564.6</ele>
        <time>2022-08-14T20:14:31Z</time>
      </trkpt>
      <trkpt lat="4.3509780" lon="-76.2718290">
        <ele>1563.8</ele>
        <time>2022-08-14T20:14:32Z</time>
      </trkpt>
      <trkpt lat="4.3508600" lon="-76.2718870">
        <ele>1562.8</ele>
        <time>2022-08-14T20:14:34Z</time>
      </trkpt>
      <trkpt lat="4.3508160" lon="-76.2719030">
        <ele>1562.6</ele>
        <time>2022-08-14T20:14:35Z</time>
      </trkpt>
      <trkpt lat="4.3506530" lon="-76.2719670">
        <ele>1562.4</ele>
        <time>2022-08-14T20:14:38Z</time>
      </trkpt>
      <trkpt lat="4.3505770" lon="-76.2720170">
        <ele>1562.2</ele>
        <time>2022-08-14T20:14:40Z</time>
      </trkpt>
      <trkpt lat="4.3505090" lon="-76.2721380">
        <ele>1562.2</ele>
        <time>2022-08-14T20:14:44Z</time>
      </trkpt>
      <trkpt lat="4.3504940" lon="-76.2722490">
        <ele>1562.8</ele>
        <time>2022-08-14T20:14:48Z</time>
      </trkpt>
      <trkpt lat="4.3504800" lon="-76.2723230">
        <ele>1563.2</ele>
        <time>2022-08-14T20:14:51Z</time>
      </trkpt>
      <trkpt lat="4.3504660" lon="-76.2724400">
        <ele>1563.8</ele>
        <time>2022-08-14T20:14:55Z</time>
      </trkpt>
      <trkpt lat="4.3504510" lon="-76.2726120">
        <ele>1564.8</ele>
        <time>2022-08-14T20:15:01Z</time>
      </trkpt>
      <trkpt lat="4.3504470" lon="-76.2726340">
        <ele>1565.0</ele>
        <time>2022-08-14T20:15:02Z</time>
      </trkpt>
      <trkpt lat="4.3503890" lon="-76.2727770">
        <ele>1566.0</ele>
        <time>2022-08-14T20:15:07Z</time>
      </trkpt>
      <trkpt lat="4.3503600" lon="-76.2728290">
        <ele>1566.4</ele>
        <time>2022-08-14T20:15:09Z</time>
      </trkpt>
      <trkpt lat="4.3503130" lon="-76.2729020">
        <ele>1567.0</ele>
        <time>2022-08-14T20:15:12Z</time>
      </trkpt>
      <trkpt lat="4.3502660" lon="-76.2730100">
        <ele>1567.8</ele>
        <time>2022-08-14T20:15:16Z</time>
      </trkpt>
      <trkpt lat="4.3502680" lon="-76.2730460">
        <ele>1568.0</ele>
        <time>2022-08-14T20:15:17Z</time>
      </trkpt>
      <trkpt lat="4.3503090" lon="-76.2731430">
        <ele>1568.0</ele>
        <time>2022-08-14T20:15:20Z</time>
      </trkpt>
      <trkpt lat="4.3504680" lon="-76.2734220">
        <ele>1568.2</ele>
        <time>2022-08-14T20:15:27Z</time>
      </trkpt>
      <trkpt lat="4.3504790" lon="-76.2735180">
        <ele>1568.2</ele>
        <time>2022-08-14T20:15:29Z</time>
      </trkpt>
      <trkpt lat="4.3504580" lon="-76.2736160">
        <ele>1568.2</ele>
        <time>2022-08-14T20:15:31Z</time>
      </trkpt>
      <trkpt lat="4.3503960" lon="-76.2738050">
        <ele>1568.2</ele>
        <time>2022-08-14T20:15:35Z</time>
      </trkpt>
      <trkpt lat="4.3503480" lon="-76.2738890">
        <ele>1568.2</ele>
        <time>2022-08-14T20:15:37Z</time>
      </trkpt>
      <trkpt lat="4.3503160" lon="-76.2739250">
        <ele>1568.2</ele>
        <time>2022-08-14T20:15:38Z</time>
      </trkpt>
      <trkpt lat="4.3501120" lon="-76.2741030">
        <ele>1568.8</ele>
        <time>2022-08-14T20:15:44Z</time>
      </trkpt>
      <trkpt lat="4.3500860" lon="-76.2741330">
        <ele>1569.0</ele>
        <time>2022-08-14T20:15:45Z</time>
      </trkpt>
      <trkpt lat="4.3500680" lon="-76.2741680">
        <ele>1569.0</ele>
        <time>2022-08-14T20:15:46Z</time>
      </trkpt>
      <trkpt lat="4.3500570" lon="-76.2742470">
        <ele>1569.0</ele>
        <time>2022-08-14T20:15:48Z</time>
      </trkpt>
      <trkpt lat="4.3500590" lon="-76.2742870">
        <ele>1569.0</ele>
        <time>2022-08-14T20:15:49Z</time>
      </trkpt>
      <trkpt lat="4.3501080" lon="-76.2744650">
        <ele>1569.0</ele>
        <time>2022-08-14T20:15:53Z</time>
      </trkpt>
      <trkpt lat="4.3501330" lon="-76.2745130">
        <ele>1569.0</ele>
        <time>2022-08-14T20:15:54Z</time>
      </trkpt>
      <trkpt lat="4.3502180" lon="-76.2746040">
        <ele>1568.4</ele>
        <time>2022-08-14T20:15:56Z</time>
      </trkpt>
      <trkpt lat="4.3502750" lon="-76.2746450">
        <ele>1568.4</ele>
        <time>2022-08-14T20:15:57Z</time>
      </trkpt>
      <trkpt lat="4.3503390" lon="-76.2746800">
        <ele>1568.4</ele>
        <time>2022-08-14T20:15:58Z</time>
      </trkpt>
      <trkpt lat="4.3504630" lon="-76.2747550">
        <ele>1568.0</ele>
        <time>2022-08-14T20:16:00Z</time>
      </trkpt>
      <trkpt lat="4.3505100" lon="-76.2748030">
        <ele>1567.8</ele>
        <time>2022-08-14T20:16:01Z</time>
      </trkpt>
      <trkpt lat="4.3505430" lon="-76.2748620">
        <ele>1567.2</ele>
        <time>2022-08-14T20:16:02Z</time>
      </trkpt>
      <trkpt lat="4.3505340" lon="-76.2749720">
        <ele>1566.2</ele>
        <time>2022-08-14T20:16:04Z</time>
      </trkpt>
      <trkpt lat="4.3504960" lon="-76.2750130">
        <ele>1566.0</ele>
        <time>2022-08-14T20:16:05Z</time>
      </trkpt>
      <trkpt lat="4.3504490" lon="-76.2750350">
        <ele>1565.8</ele>
        <time>2022-08-14T20:16:06Z</time>
      </trkpt>
      <trkpt lat="4.3504000" lon="-76.2750410">
        <ele>1565.4</ele>
        <time>2022-08-14T20:16:07Z</time>
      </trkpt>
      <trkpt lat="4.3503460" lon="-76.2750360">
        <ele>1564.8</ele>
        <time>2022-08-14T20:16:08Z</time>
      </trkpt>
      <trkpt lat="4.3502460" lon="-76.2750380">
        <ele>1564.8</ele>
        <time>2022-08-14T20:16:10Z</time>
      </trkpt>
      <trkpt lat="4.3502080" lon="-76.2750590">
        <ele>1564.6</ele>
        <time>2022-08-14T20:16:11Z</time>
      </trkpt>
      <trkpt lat="4.3501880" lon="-76.2750920">
        <ele>1564.6</ele>
        <time>2022-08-14T20:16:12Z</time>
      </trkpt>
      <trkpt lat="4.3501820" lon="-76.2751340">
        <ele>1564.6</ele>
        <time>2022-08-14T20:16:13Z</time>
      </trkpt>
      <trkpt lat="4.3502010" lon="-76.2752770">
        <ele>1564.6</ele>
        <time>2022-08-14T20:16:17Z</time>
      </trkpt>
      <trkpt lat="4.3501840" lon="-76.2754180">
        <ele>1565.6</ele>
        <time>2022-08-14T20:16:22Z</time>
      </trkpt>
      <trkpt lat="4.3501700" lon="-76.2754450">
        <ele>1565.8</ele>
        <time>2022-08-14T20:16:23Z</time>
      </trkpt>
      <trkpt lat="4.3501050" lon="-76.2754980">
        <ele>1567.0</ele>
        <time>2022-08-14T20:16:26Z</time>
      </trkpt>
      <trkpt lat="4.3500770" lon="-76.2755060">
        <ele>1567.2</ele>
        <time>2022-08-14T20:16:27Z</time>
      </trkpt>
      <trkpt lat="4.3499920" lon="-76.2755110">
        <ele>1568.0</ele>
        <time>2022-08-14T20:16:30Z</time>
      </trkpt>
      <trkpt lat="4.3499040" lon="-76.2755140">
        <ele>1569.0</ele>
        <time>2022-08-14T20:16:33Z</time>
      </trkpt>
      <trkpt lat="4.3497110" lon="-76.2755560">
        <ele>1570.0</ele>
        <time>2022-08-14T20:16:40Z</time>
      </trkpt>
      <trkpt lat="4.3496810" lon="-76.2756050">
        <ele>1570.2</ele>
        <time>2022-08-14T20:16:42Z</time>
      </trkpt>
      <trkpt lat="4.3496440" lon="-76.2757080">
        <ele>1570.6</ele>
        <time>2022-08-14T20:16:46Z</time>
      </trkpt>
      <trkpt lat="4.3496230" lon="-76.2757810">
        <ele>1571.4</ele>
        <time>2022-08-14T20:16:49Z</time>
      </trkpt>
      <trkpt lat="4.3495900" lon="-76.2758780">
        <ele>1572.4</ele>
        <time>2022-08-14T20:16:54Z</time>
      </trkpt>
      <trkpt lat="4.3495820" lon="-76.2759020">
        <ele>1572.6</ele>
        <time>2022-08-14T20:16:55Z</time>
      </trkpt>
      <trkpt lat="4.3495340" lon="-76.2760300">
        <ele>1573.2</ele>
        <time>2022-08-14T20:17:00Z</time>
      </trkpt>
      <trkpt lat="4.3495220" lon="-76.2760560">
        <ele>1573.4</ele>
        <time>2022-08-14T20:17:01Z</time>
      </trkpt>
      <trkpt lat="4.3494770" lon="-76.2761580">
        <ele>1574.4</ele>
        <time>2022-08-14T20:17:05Z</time>
      </trkpt>
      <trkpt lat="4.3494650" lon="-76.2761810">
        <ele>1574.6</ele>
        <time>2022-08-14T20:17:06Z</time>
      </trkpt>
      <trkpt lat="4.3493920" lon="-76.2763040">
        <ele>1575.4</ele>
        <time>2022-08-14T20:17:12Z</time>
      </trkpt>
      <trkpt lat="4.3493530" lon="-76.2763580">
        <ele>1576.0</ele>
        <time>2022-08-14T20:17:15Z</time>
      </trkpt>
      <trkpt lat="4.3493170" lon="-76.2764350">
        <ele>1576.6</ele>
        <time>2022-08-14T20:17:19Z</time>
      </trkpt>
      <trkpt lat="4.3493000" lon="-76.2765270">
        <ele>1577.2</ele>
        <time>2022-08-14T20:17:23Z</time>
      </trkpt>
      <trkpt lat="4.3492900" lon="-76.2765800">
        <ele>1577.8</ele>
        <time>2022-08-14T20:17:25Z</time>
      </trkpt>
      <trkpt lat="4.3492200" lon="-76.2767080">
        <ele>1579.0</ele>
        <time>2022-08-14T20:17:30Z</time>
      </trkpt>
      <trkpt lat="4.3490640" lon="-76.2767890">
        <ele>1579.4</ele>
        <time>2022-08-14T20:17:35Z</time>
      </trkpt>
      <trkpt lat="4.3488850" lon="-76.2768020">
        <ele>1579.8</ele>
        <time>2022-08-14T20:17:39Z</time>
      </trkpt>
      <trkpt lat="4.3488380" lon="-76.2768070">
        <ele>1579.8</ele>
        <time>2022-08-14T20:17:40Z</time>
      </trkpt>
      <trkpt lat="4.3487920" lon="-76.2768180">
        <ele>1579.8</ele>
        <time>2022-08-14T20:17:41Z</time>
      </trkpt>
      <trkpt lat="4.3487060" lon="-76.2769010">
        <ele>1579.8</ele>
        <time>2022-08-14T20:17:43Z</time>
      </trkpt>
      <trkpt lat="4.3486580" lon="-76.2770240">
        <ele>1579.8</ele>
        <time>2022-08-14T20:17:45Z</time>
      </trkpt>
      <trkpt lat="4.3486550" lon="-76.2770820">
        <ele>1579.8</ele>
        <time>2022-08-14T20:17:46Z</time>
      </trkpt>
      <trkpt lat="4.3486630" lon="-76.2771350">
        <ele>1579.8</ele>
        <time>2022-08-14T20:17:47Z</time>
      </trkpt>
      <trkpt lat="4.3487250" lon="-76.2772190">
        <ele>1579.6</ele>
        <time>2022-08-14T20:17:49Z</time>
      </trkpt>
      <trkpt lat="4.3489200" lon="-76.2773600">
        <ele>1577.8</ele>
        <time>2022-08-14T20:17:53Z</time>
      </trkpt>
      <trkpt lat="4.3490270" lon="-76.2774230">
        <ele>1576.4</ele>
        <time>2022-08-14T20:17:55Z</time>
      </trkpt>
      <trkpt lat="4.3491470" lon="-76.2774820">
        <ele>1575.4</ele>
        <time>2022-08-14T20:17:57Z</time>
      </trkpt>
      <trkpt lat="4.3492150" lon="-76.2775040">
        <ele>1574.8</ele>
        <time>2022-08-14T20:17:58Z</time>
      </trkpt>
      <trkpt lat="4.3492880" lon="-76.2775150">
        <ele>1574.2</ele>
        <time>2022-08-14T20:17:59Z</time>
      </trkpt>
      <trkpt lat="4.3493650" lon="-76.2775210">
        <ele>1573.8</ele>
        <time>2022-08-14T20:18:00Z</time>
      </trkpt>
      <trkpt lat="4.3495190" lon="-76.2775350">
        <ele>1573.0</ele>
        <time>2022-08-14T20:18:02Z</time>
      </trkpt>
      <trkpt lat="4.3496690" lon="-76.2775800">
        <ele>1571.8</ele>
        <time>2022-08-14T20:18:04Z</time>
      </trkpt>
      <trkpt lat="4.3497450" lon="-76.2776120">
        <ele>1571.2</ele>
        <time>2022-08-14T20:18:05Z</time>
      </trkpt>
      <trkpt lat="4.3498870" lon="-76.2776890">
        <ele>1570.4</ele>
        <time>2022-08-14T20:18:07Z</time>
      </trkpt>
      <trkpt lat="4.3500060" lon="-76.2777630">
        <ele>1569.2</ele>
        <time>2022-08-14T20:18:09Z</time>
      </trkpt>
      <trkpt lat="4.3500430" lon="-76.2777930">
        <ele>1569.0</ele>
        <time>2022-08-14T20:18:10Z</time>
      </trkpt>
      <trkpt lat="4.3500700" lon="-76.2778350">
        <ele>1568.6</ele>
        <time>2022-08-14T20:18:11Z</time>
      </trkpt>
      <trkpt lat="4.3500810" lon="-76.2778860">
        <ele>1568.0</ele>
        <time>2022-08-14T20:18:12Z</time>
      </trkpt>
      <trkpt lat="4.3500680" lon="-76.2779250">
        <ele>1568.0</ele>
        <time>2022-08-14T20:18:13Z</time>
      </trkpt>
      <trkpt lat="4.3500400" lon="-76.2779640">
        <ele>1567.8</ele>
        <time>2022-08-14T20:18:14Z</time>
      </trkpt>
      <trkpt lat="4.3499640" lon="-76.2780170">
        <ele>1567.2</ele>
        <time>2022-08-14T20:18:16Z</time>
      </trkpt>
      <trkpt lat="4.3497660" lon="-76.2780280">
        <ele>1567.2</ele>
        <time>2022-08-14T20:18:20Z</time>
      </trkpt>
      <trkpt lat="4.3496360" lon="-76.2780260">
        <ele>1567.2</ele>
        <time>2022-08-14T20:18:23Z</time>
      </trkpt>
      <trkpt lat="4.3495110" lon="-76.2780560">
        <ele>1567.4</ele>
        <time>2022-08-14T20:18:26Z</time>
      </trkpt>
      <trkpt lat="4.3494550" lon="-76.2781060">
        <ele>1567.4</ele>
        <time>2022-08-14T20:18:28Z</time>
      </trkpt>
      <trkpt lat="4.3494200" lon="-76.2781790">
        <ele>1567.8</ele>
        <time>2022-08-14T20:18:30Z</time>
      </trkpt>
      <trkpt lat="4.3493870" lon="-76.2783780">
        <ele>1568.8</ele>
        <time>2022-08-14T20:18:36Z</time>
      </trkpt>
      <trkpt lat="4.3493850" lon="-76.2784110">
        <ele>1568.8</ele>
        <time>2022-08-14T20:18:37Z</time>
      </trkpt>
      <trkpt lat="4.3493550" lon="-76.2786300">
        <ele>1569.4</ele>
        <time>2022-08-14T20:18:44Z</time>
      </trkpt>
      <trkpt lat="4.3493360" lon="-76.2786910">
        <ele>1570.0</ele>
        <time>2022-08-14T20:18:46Z</time>
      </trkpt>
      <trkpt lat="4.3492690" lon="-76.2788350">
        <ele>1571.0</ele>
        <time>2022-08-14T20:18:51Z</time>
      </trkpt>
      <trkpt lat="4.3492580" lon="-76.2788680">
        <ele>1571.2</ele>
        <time>2022-08-14T20:18:52Z</time>
      </trkpt>
      <trkpt lat="4.3492650" lon="-76.2789700">
        <ele>1571.4</ele>
        <time>2022-08-14T20:18:55Z</time>
      </trkpt>
      <trkpt lat="4.3492910" lon="-76.2790020">
        <ele>1571.4</ele>
        <time>2022-08-14T20:18:56Z</time>
      </trkpt>
      <trkpt lat="4.3494520" lon="-76.2791530">
        <ele>1571.4</ele>
        <time>2022-08-14T20:19:00Z</time>
      </trkpt>
      <trkpt lat="4.3494960" lon="-76.2792040">
        <ele>1571.4</ele>
        <time>2022-08-14T20:19:01Z</time>
      </trkpt>
      <trkpt lat="4.3495650" lon="-76.2793260">
        <ele>1571.4</ele>
        <time>2022-08-14T20:19:03Z</time>
      </trkpt>
      <trkpt lat="4.3495780" lon="-76.2794920">
        <ele>1570.8</ele>
        <time>2022-08-14T20:19:05Z</time>
      </trkpt>
      <trkpt lat="4.3495650" lon="-76.2795790">
        <ele>1570.2</ele>
        <time>2022-08-14T20:19:06Z</time>
      </trkpt>
      <trkpt lat="4.3495440" lon="-76.2796670">
        <ele>1569.8</ele>
        <time>2022-08-14T20:19:07Z</time>
      </trkpt>
      <trkpt lat="4.3495280" lon="-76.2797480">
        <ele>1569.2</ele>
        <time>2022-08-14T20:19:08Z</time>
      </trkpt>
      <trkpt lat="4.3495380" lon="-76.2798960">
        <ele>1568.2</ele>
        <time>2022-08-14T20:19:10Z</time>
      </trkpt>
      <trkpt lat="4.3495480" lon="-76.2800170">
        <ele>1567.2</ele>
        <time>2022-08-14T20:19:12Z</time>
      </trkpt>
      <trkpt lat="4.3495280" lon="-76.2800700">
        <ele>1566.8</ele>
        <time>2022-08-14T20:19:13Z</time>
      </trkpt>
      <trkpt lat="4.3494940" lon="-76.2801140">
        <ele>1566.2</ele>
        <time>2022-08-14T20:19:14Z</time>
      </trkpt>
      <trkpt lat="4.3494560" lon="-76.2801520">
        <ele>1565.6</ele>
        <time>2022-08-14T20:19:15Z</time>
      </trkpt>
      <trkpt lat="4.3493810" lon="-76.2802130">
        <ele>1564.4</ele>
        <time>2022-08-14T20:19:17Z</time>
      </trkpt>
      <trkpt lat="4.3493060" lon="-76.2802740">
        <ele>1563.4</ele>
        <time>2022-08-14T20:19:20Z</time>
      </trkpt>
      <trkpt lat="4.3492730" lon="-76.2803020">
        <ele>1563.2</ele>
        <time>2022-08-14T20:19:22Z</time>
      </trkpt>
      <trkpt lat="4.3491930" lon="-76.2804070">
        <ele>1563.2</ele>
        <time>2022-08-14T20:19:29Z</time>
      </trkpt>
      <trkpt lat="4.3491690" lon="-76.2804640">
        <ele>1564.4</ele>
        <time>2022-08-14T20:19:33Z</time>
      </trkpt>
      <trkpt lat="4.3491680" lon="-76.2805160">
        <ele>1565.8</ele>
        <time>2022-08-14T20:19:36Z</time>
      </trkpt>
      <trkpt lat="4.3491700" lon="-76.2806010">
        <ele>1567.0</ele>
        <time>2022-08-14T20:19:42Z</time>
      </trkpt>
      <trkpt lat="4.3491770" lon="-76.2806280">
        <ele>1567.2</ele>
        <time>2022-08-14T20:19:44Z</time>
      </trkpt>
      <trkpt lat="4.3491820" lon="-76.2806830">
        <ele>1568.0</ele>
        <time>2022-08-14T20:19:48Z</time>
      </trkpt>
      <trkpt lat="4.3491840" lon="-76.2807740">
        <ele>1569.0</ele>
        <time>2022-08-14T20:19:54Z</time>
      </trkpt>
      <trkpt lat="4.3491830" lon="-76.2807890">
        <ele>1569.4</ele>
        <time>2022-08-14T20:19:55Z</time>
      </trkpt>
      <trkpt lat="4.3491840" lon="-76.2808690">
        <ele>1570.2</ele>
        <time>2022-08-14T20:20:00Z</time>
      </trkpt>
      <trkpt lat="4.3491790" lon="-76.2809320">
        <ele>1571.2</ele>
        <time>2022-08-14T20:20:04Z</time>
      </trkpt>
      <trkpt lat="4.3491540" lon="-76.2810060">
        <ele>1572.4</ele>
        <time>2022-08-14T20:20:09Z</time>
      </trkpt>
      <trkpt lat="4.3491350" lon="-76.2810730">
        <ele>1573.4</ele>
        <time>2022-08-14T20:20:13Z</time>
      </trkpt>
      <trkpt lat="4.3490850" lon="-76.2811730">
        <ele>1574.6</ele>
        <time>2022-08-14T20:20:19Z</time>
      </trkpt>
      <trkpt lat="4.3490540" lon="-76.2812190">
        <ele>1575.2</ele>
        <time>2022-08-14T20:20:22Z</time>
      </trkpt>
      <trkpt lat="4.3490070" lon="-76.2812830">
        <ele>1575.8</ele>
        <time>2022-08-14T20:20:26Z</time>
      </trkpt>
      <trkpt lat="4.3489540" lon="-76.2813690">
        <ele>1576.0</ele>
        <time>2022-08-14T20:20:31Z</time>
      </trkpt>
      <trkpt lat="4.3488850" lon="-76.2814590">
        <ele>1576.8</ele>
        <time>2022-08-14T20:20:36Z</time>
      </trkpt>
      <trkpt lat="4.3488340" lon="-76.2815390">
        <ele>1577.8</ele>
        <time>2022-08-14T20:20:40Z</time>
      </trkpt>
      <trkpt lat="4.3488200" lon="-76.2815580">
        <ele>1578.0</ele>
        <time>2022-08-14T20:20:41Z</time>
      </trkpt>
      <trkpt lat="4.3487800" lon="-76.2816190">
        <ele>1578.4</ele>
        <time>2022-08-14T20:20:44Z</time>
      </trkpt>
      <trkpt lat="4.3487140" lon="-76.2817350">
        <ele>1579.0</ele>
        <time>2022-08-14T20:20:49Z</time>
      </trkpt>
      <trkpt lat="4.3487010" lon="-76.2817580">
        <ele>1579.0</ele>
        <time>2022-08-14T20:20:50Z</time>
      </trkpt>
      <trkpt lat="4.3485740" lon="-76.2819160">
        <ele>1579.6</ele>
        <time>2022-08-14T20:20:58Z</time>
      </trkpt>
      <trkpt lat="4.3484960" lon="-76.2819060">
        <ele>1579.6</ele>
        <time>2022-08-14T20:21:02Z</time>
      </trkpt>
      <trkpt lat="4.3484740" lon="-76.2818760">
        <ele>1579.6</ele>
        <time>2022-08-14T20:21:04Z</time>
      </trkpt>
      <trkpt lat="4.3484650" lon="-76.2818110">
        <ele>1579.8</ele>
        <time>2022-08-14T20:21:07Z</time>
      </trkpt>
      <trkpt lat="4.3484610" lon="-76.2817420">
        <ele>1580.4</ele>
        <time>2022-08-14T20:21:10Z</time>
      </trkpt>
      <trkpt lat="4.3484400" lon="-76.2816460">
        <ele>1581.2</ele>
        <time>2022-08-14T20:21:15Z</time>
      </trkpt>
      <trkpt lat="4.3484300" lon="-76.2816070">
        <ele>1581.6</ele>
        <time>2022-08-14T20:21:17Z</time>
      </trkpt>
      <trkpt lat="4.3483750" lon="-76.2814980">
        <ele>1582.4</ele>
        <time>2022-08-14T20:21:23Z</time>
      </trkpt>
      <trkpt lat="4.3483050" lon="-76.2814530">
        <ele>1583.6</ele>
        <time>2022-08-14T20:21:27Z</time>
      </trkpt>
      <trkpt lat="4.3482420" lon="-76.2814240">
        <ele>1584.4</ele>
        <time>2022-08-14T20:21:30Z</time>
      </trkpt>
      <trkpt lat="4.3482210" lon="-76.2814150">
        <ele>1584.6</ele>
        <time>2022-08-14T20:21:31Z</time>
      </trkpt>
      <trkpt lat="4.3481500" lon="-76.2813860">
        <ele>1585.4</ele>
        <time>2022-08-14T20:21:34Z</time>
      </trkpt>
      <trkpt lat="4.3481270" lon="-76.2813770">
        <ele>1585.6</ele>
        <time>2022-08-14T20:21:35Z</time>
      </trkpt>
      <trkpt lat="4.3480310" lon="-76.2813470">
        <ele>1586.4</ele>
        <time>2022-08-14T20:21:39Z</time>
      </trkpt>
      <trkpt lat="4.3480080" lon="-76.2813430">
        <ele>1586.8</ele>
        <time>2022-08-14T20:21:40Z</time>
      </trkpt>
      <trkpt lat="4.3478430" lon="-76.2812850">
        <ele>1587.8</ele>
        <time>2022-08-14T20:21:47Z</time>
      </trkpt>
      <trkpt lat="4.3477480" lon="-76.2812510">
        <ele>1589.0</ele>
        <time>2022-08-14T20:21:51Z</time>
      </trkpt>
      <trkpt lat="4.3476160" lon="-76.2811950">
        <ele>1589.8</ele>
        <time>2022-08-14T20:21:57Z</time>
      </trkpt>
      <trkpt lat="4.3475490" lon="-76.2811700">
        <ele>1590.0</ele>
        <time>2022-08-14T20:22:00Z</time>
      </trkpt>
      <trkpt lat="4.3474080" lon="-76.2811310">
        <ele>1590.8</ele>
        <time>2022-08-14T20:22:06Z</time>
      </trkpt>
      <trkpt lat="4.3473360" lon="-76.2811220">
        <ele>1591.2</ele>
        <time>2022-08-14T20:22:09Z</time>
      </trkpt>
      <trkpt lat="4.3471840" lon="-76.2811260">
        <ele>1591.8</ele>
        <time>2022-08-14T20:22:15Z</time>
      </trkpt>
      <trkpt lat="4.3471380" lon="-76.2811300">
        <ele>1592.0</ele>
        <time>2022-08-14T20:22:17Z</time>
      </trkpt>
      <trkpt lat="4.3470380" lon="-76.2811370">
        <ele>1593.0</ele>
        <time>2022-08-14T20:22:21Z</time>
      </trkpt>
      <trkpt lat="4.3469150" lon="-76.2811400">
        <ele>1593.6</ele>
        <time>2022-08-14T20:22:26Z</time>
      </trkpt>
      <trkpt lat="4.3467720" lon="-76.2811190">
        <ele>1594.0</ele>
        <time>2022-08-14T20:22:32Z</time>
      </trkpt>
      <trkpt lat="4.3467510" lon="-76.2811120">
        <ele>1594.4</ele>
        <time>2022-08-14T20:22:33Z</time>
      </trkpt>
      <trkpt lat="4.3466560" lon="-76.2810950">
        <ele>1595.2</ele>
        <time>2022-08-14T20:22:37Z</time>
      </trkpt>
      <trkpt lat="4.3464760" lon="-76.2811180">
        <ele>1596.4</ele>
        <time>2022-08-14T20:22:44Z</time>
      </trkpt>
      <trkpt lat="4.3463280" lon="-76.2812040">
        <ele>1597.2</ele>
        <time>2022-08-14T20:22:51Z</time>
      </trkpt>
      <trkpt lat="4.3462850" lon="-76.2812190">
        <ele>1597.4</ele>
        <time>2022-08-14T20:22:53Z</time>
      </trkpt>
      <trkpt lat="4.3461970" lon="-76.2812200">
        <ele>1598.0</ele>
        <time>2022-08-14T20:22:57Z</time>
      </trkpt>
      <trkpt lat="4.3460740" lon="-76.2811810">
        <ele>1598.6</ele>
        <time>2022-08-14T20:23:03Z</time>
      </trkpt>
      <trkpt lat="4.3460210" lon="-76.2811530">
        <ele>1599.0</ele>
        <time>2022-08-14T20:23:06Z</time>
      </trkpt>
      <trkpt lat="4.3459820" lon="-76.2811330">
        <ele>1599.4</ele>
        <time>2022-08-14T20:23:08Z</time>
      </trkpt>
      <trkpt lat="4.3459640" lon="-76.2811180">
        <ele>1599.8</ele>
        <time>2022-08-14T20:23:09Z</time>
      </trkpt>
      <trkpt lat="4.3458860" lon="-76.2810710">
        <ele>1600.8</ele>
        <time>2022-08-14T20:23:13Z</time>
      </trkpt>
      <trkpt lat="4.3457570" lon="-76.2809960">
        <ele>1602.0</ele>
        <time>2022-08-14T20:23:19Z</time>
      </trkpt>
      <trkpt lat="4.3456890" lon="-76.2809530">
        <ele>1602.2</ele>
        <time>2022-08-14T20:23:22Z</time>
      </trkpt>
      <trkpt lat="4.3455380" lon="-76.2808440">
        <ele>1602.6</ele>
        <time>2022-08-14T20:23:30Z</time>
      </trkpt>
      <trkpt lat="4.3454980" lon="-76.2808130">
        <ele>1603.0</ele>
        <time>2022-08-14T20:23:32Z</time>
      </trkpt>
      <trkpt lat="4.3453330" lon="-76.2806660">
        <ele>1604.0</ele>
        <time>2022-08-14T20:23:41Z</time>
      </trkpt>
      <trkpt lat="4.3453070" lon="-76.2806540">
        <ele>1604.0</ele>
        <time>2022-08-14T20:23:42Z</time>
      </trkpt>
      <trkpt lat="4.3452520" lon="-76.2806330">
        <ele>1604.4</ele>
        <time>2022-08-14T20:23:44Z</time>
      </trkpt>
      <trkpt lat="4.3451630" lon="-76.2806110">
        <ele>1605.2</ele>
        <time>2022-08-14T20:23:47Z</time>
      </trkpt>
      <trkpt lat="4.3451320" lon="-76.2806080">
        <ele>1605.4</ele>
        <time>2022-08-14T20:23:48Z</time>
      </trkpt>
      <trkpt lat="4.3449710" lon="-76.2805730">
        <ele>1606.4</ele>
        <time>2022-08-14T20:23:53Z</time>
      </trkpt>
      <trkpt lat="4.3448730" lon="-76.2805360">
        <ele>1607.0</ele>
        <time>2022-08-14T20:23:56Z</time>
      </trkpt>
      <trkpt lat="4.3447460" lon="-76.2804540">
        <ele>1607.4</ele>
        <time>2022-08-14T20:24:00Z</time>
      </trkpt>
      <trkpt lat="4.3447100" lon="-76.2804310">
        <ele>1607.4</ele>
        <time>2022-08-14T20:24:01Z</time>
      </trkpt>
      <trkpt lat="4.3446270" lon="-76.2803960">
        <ele>1607.4</ele>
        <time>2022-08-14T20:24:03Z</time>
      </trkpt>
      <trkpt lat="4.3445790" lon="-76.2803820">
        <ele>1607.4</ele>
        <time>2022-08-14T20:24:04Z</time>
      </trkpt>
      <trkpt lat="4.3443780" lon="-76.2803560">
        <ele>1607.4</ele>
        <time>2022-08-14T20:24:08Z</time>
      </trkpt>
      <trkpt lat="4.3440990" lon="-76.2803480">
        <ele>1607.2</ele>
        <time>2022-08-14T20:24:13Z</time>
      </trkpt>
      <trkpt lat="4.3439790" lon="-76.2803330">
        <ele>1606.8</ele>
        <time>2022-08-14T20:24:15Z</time>
      </trkpt>
      <trkpt lat="4.3437950" lon="-76.2803180">
        <ele>1606.4</ele>
        <time>2022-08-14T20:24:18Z</time>
      </trkpt>
      <trkpt lat="4.3436030" lon="-76.2803050">
        <ele>1605.8</ele>
        <time>2022-08-14T20:24:21Z</time>
      </trkpt>
      <trkpt lat="4.3434720" lon="-76.2802830">
        <ele>1605.4</ele>
        <time>2022-08-14T20:24:23Z</time>
      </trkpt>
      <trkpt lat="4.3434070" lon="-76.2802670">
        <ele>1605.2</ele>
        <time>2022-08-14T20:24:24Z</time>
      </trkpt>
      <trkpt lat="4.3432800" lon="-76.2802240">
        <ele>1604.8</ele>
        <time>2022-08-14T20:24:26Z</time>
      </trkpt>
      <trkpt lat="4.3431480" lon="-76.2801840">
        <ele>1604.2</ele>
        <time>2022-08-14T20:24:28Z</time>
      </trkpt>
      <trkpt lat="4.3430790" lon="-76.2801770">
        <ele>1604.2</ele>
        <time>2022-08-14T20:24:29Z</time>
      </trkpt>
      <trkpt lat="4.3430110" lon="-76.2801800">
        <ele>1604.2</ele>
        <time>2022-08-14T20:24:30Z</time>
      </trkpt>
      <trkpt lat="4.3428830" lon="-76.2802080">
        <ele>1603.6</ele>
        <time>2022-08-14T20:24:32Z</time>
      </trkpt>
      <trkpt lat="4.3427640" lon="-76.2802700">
        <ele>1603.2</ele>
        <time>2022-08-14T20:24:34Z</time>
      </trkpt>
      <trkpt lat="4.3427060" lon="-76.2803020">
        <ele>1603.2</ele>
        <time>2022-08-14T20:24:35Z</time>
      </trkpt>
      <trkpt lat="4.3425330" lon="-76.2803850">
        <ele>1601.8</ele>
        <time>2022-08-14T20:24:38Z</time>
      </trkpt>
      <trkpt lat="4.3424330" lon="-76.2803700">
        <ele>1601.4</ele>
        <time>2022-08-14T20:24:40Z</time>
      </trkpt>
      <trkpt lat="4.3423980" lon="-76.2803390">
        <ele>1601.4</ele>
        <time>2022-08-14T20:24:41Z</time>
      </trkpt>
      <trkpt lat="4.3423730" lon="-76.2803010">
        <ele>1601.2</ele>
        <time>2022-08-14T20:24:42Z</time>
      </trkpt>
      <trkpt lat="4.3423500" lon="-76.2802120">
        <ele>1601.2</ele>
        <time>2022-08-14T20:24:44Z</time>
      </trkpt>
      <trkpt lat="4.3423580" lon="-76.2800370">
        <ele>1601.0</ele>
        <time>2022-08-14T20:24:48Z</time>
      </trkpt>
      <trkpt lat="4.3423560" lon="-76.2799940">
        <ele>1601.2</ele>
        <time>2022-08-14T20:24:49Z</time>
      </trkpt>
      <trkpt lat="4.3423270" lon="-76.2798800">
        <ele>1601.2</ele>
        <time>2022-08-14T20:24:53Z</time>
      </trkpt>
      <trkpt lat="4.3422470" lon="-76.2797680">
        <ele>1602.0</ele>
        <time>2022-08-14T20:24:58Z</time>
      </trkpt>
      <trkpt lat="4.3422300" lon="-76.2797430">
        <ele>1602.2</ele>
        <time>2022-08-14T20:24:59Z</time>
      </trkpt>
      <trkpt lat="4.3421740" lon="-76.2796780">
        <ele>1603.0</ele>
        <time>2022-08-14T20:25:02Z</time>
      </trkpt>
      <trkpt lat="4.3420670" lon="-76.2795970">
        <ele>1604.0</ele>
        <time>2022-08-14T20:25:07Z</time>
      </trkpt>
      <trkpt lat="4.3420480" lon="-76.2795860">
        <ele>1604.0</ele>
        <time>2022-08-14T20:25:08Z</time>
      </trkpt>
      <trkpt lat="4.3419350" lon="-76.2795530">
        <ele>1604.8</ele>
        <time>2022-08-14T20:25:13Z</time>
      </trkpt>
      <trkpt lat="4.3418930" lon="-76.2795570">
        <ele>1605.2</ele>
        <time>2022-08-14T20:25:15Z</time>
      </trkpt>
      <trkpt lat="4.3417470" lon="-76.2795980">
        <ele>1606.2</ele>
        <time>2022-08-14T20:25:21Z</time>
      </trkpt>
      <trkpt lat="4.3416980" lon="-76.2796140">
        <ele>1606.4</ele>
        <time>2022-08-14T20:25:23Z</time>
      </trkpt>
      <trkpt lat="4.3415570" lon="-76.2796440">
        <ele>1607.0</ele>
        <time>2022-08-14T20:25:29Z</time>
      </trkpt>
      <trkpt lat="4.3415310" lon="-76.2796430">
        <ele>1607.2</ele>
        <time>2022-08-14T20:25:30Z</time>
      </trkpt>
      <trkpt lat="4.3413810" lon="-76.2796030">
        <ele>1608.2</ele>
        <time>2022-08-14T20:25:36Z</time>
      </trkpt>
      <trkpt lat="4.3411750" lon="-76.2795150">
        <ele>1609.2</ele>
        <time>2022-08-14T20:25:44Z</time>
      </trkpt>
      <trkpt lat="4.3409750" lon="-76.2794400">
        <ele>1610.4</ele>
        <time>2022-08-14T20:25:51Z</time>
      </trkpt>
      <trkpt lat="4.3409060" lon="-76.2794130">
        <ele>1610.6</ele>
        <time>2022-08-14T20:25:53Z</time>
      </trkpt>
      <trkpt lat="4.3406580" lon="-76.2793140">
        <ele>1610.8</ele>
        <time>2022-08-14T20:26:00Z</time>
      </trkpt>
      <trkpt lat="4.3404650" lon="-76.2791880">
        <ele>1610.6</ele>
        <time>2022-08-14T20:26:06Z</time>
      </trkpt>
      <trkpt lat="4.3403740" lon="-76.2790250">
        <ele>1610.4</ele>
        <time>2022-08-14T20:26:11Z</time>
      </trkpt>
      <trkpt lat="4.3403560" lon="-76.2789580">
        <ele>1610.4</ele>
        <time>2022-08-14T20:26:13Z</time>
      </trkpt>
      <trkpt lat="4.3403230" lon="-76.2788270">
        <ele>1610.6</ele>
        <time>2022-08-14T20:26:18Z</time>
      </trkpt>
      <trkpt lat="4.3402030" lon="-76.2786990">
        <ele>1611.0</ele>
        <time>2022-08-14T20:26:24Z</time>
      </trkpt>
      <trkpt lat="4.3401190" lon="-76.2786550">
        <ele>1611.6</ele>
        <time>2022-08-14T20:26:27Z</time>
      </trkpt>
      <trkpt lat="4.3400200" lon="-76.2786100">
        <ele>1612.0</ele>
        <time>2022-08-14T20:26:30Z</time>
      </trkpt>
      <trkpt lat="4.3398170" lon="-76.2784620">
        <ele>1612.4</ele>
        <time>2022-08-14T20:26:37Z</time>
      </trkpt>
      <trkpt lat="4.3398120" lon="-76.2783230">
        <ele>1612.6</ele>
        <time>2022-08-14T20:26:41Z</time>
      </trkpt>
      <trkpt lat="4.3399200" lon="-76.2782120">
        <ele>1612.6</ele>
        <time>2022-08-14T20:26:46Z</time>
      </trkpt>
      <trkpt lat="4.3399450" lon="-76.2781960">
        <ele>1612.6</ele>
        <time>2022-08-14T20:26:47Z</time>
      </trkpt>
      <trkpt lat="4.3400660" lon="-76.2781530">
        <ele>1612.8</ele>
        <time>2022-08-14T20:26:52Z</time>
      </trkpt>
      <trkpt lat="4.3401150" lon="-76.2781410">
        <ele>1613.8</ele>
        <time>2022-08-14T20:26:54Z</time>
      </trkpt>
      <trkpt lat="4.3401830" lon="-76.2781250">
        <ele>1615.0</ele>
        <time>2022-08-14T20:26:57Z</time>
      </trkpt>
      <trkpt lat="4.3402260" lon="-76.2781140">
        <ele>1615.6</ele>
        <time>2022-08-14T20:26:59Z</time>
      </trkpt>
      <trkpt lat="4.3402710" lon="-76.2781010">
        <ele>1616.0</ele>
        <time>2022-08-14T20:27:01Z</time>
      </trkpt>
      <trkpt lat="4.3404100" lon="-76.2780680">
        <ele>1617.0</ele>
        <time>2022-08-14T20:27:07Z</time>
      </trkpt>
      <trkpt lat="4.3404320" lon="-76.2780600">
        <ele>1617.2</ele>
        <time>2022-08-14T20:27:08Z</time>
      </trkpt>
      <trkpt lat="4.3405850" lon="-76.2780130">
        <ele>1618.0</ele>
        <time>2022-08-14T20:27:15Z</time>
      </trkpt>
      <trkpt lat="4.3406070" lon="-76.2780060">
        <ele>1618.2</ele>
        <time>2022-08-14T20:27:16Z</time>
      </trkpt>
      <trkpt lat="4.3407280" lon="-76.2779560">
        <ele>1619.4</ele>
        <time>2022-08-14T20:27:22Z</time>
      </trkpt>
      <trkpt lat="4.3407680" lon="-76.2779340">
        <ele>1619.6</ele>
        <time>2022-08-14T20:27:24Z</time>
      </trkpt>
      <trkpt lat="4.3408410" lon="-76.2778750">
        <ele>1620.6</ele>
        <time>2022-08-14T20:27:28Z</time>
      </trkpt>
      <trkpt lat="4.3409040" lon="-76.2778070">
        <ele>1620.8</ele>
        <time>2022-08-14T20:27:32Z</time>
      </trkpt>
      <trkpt lat="4.3409530" lon="-76.2777600">
        <ele>1621.6</ele>
        <time>2022-08-14T20:27:35Z</time>
      </trkpt>
      <trkpt lat="4.3410310" lon="-76.2776760">
        <ele>1622.2</ele>
        <time>2022-08-14T20:27:40Z</time>
      </trkpt>
      <trkpt lat="4.3410660" lon="-76.2776470">
        <ele>1622.8</ele>
        <time>2022-08-14T20:27:42Z</time>
      </trkpt>
      <trkpt lat="4.3411450" lon="-76.2776050">
        <ele>1623.8</ele>
        <time>2022-08-14T20:27:46Z</time>
      </trkpt>
      <trkpt lat="4.3411860" lon="-76.2775920">
        <ele>1624.2</ele>
        <time>2022-08-14T20:27:48Z</time>
      </trkpt>
      <trkpt lat="4.3412660" lon="-76.2775730">
        <ele>1625.0</ele>
        <time>2022-08-14T20:27:52Z</time>
      </trkpt>
      <trkpt lat="4.3413680" lon="-76.2775640">
        <ele>1625.8</ele>
        <time>2022-08-14T20:27:57Z</time>
      </trkpt>
      <trkpt lat="4.3413870" lon="-76.2775600">
        <ele>1626.0</ele>
        <time>2022-08-14T20:27:58Z</time>
      </trkpt>
      <trkpt lat="4.3414640" lon="-76.2775410">
        <ele>1627.2</ele>
        <time>2022-08-14T20:28:02Z</time>
      </trkpt>
      <trkpt lat="4.3415320" lon="-76.2775020">
        <ele>1628.4</ele>
        <time>2022-08-14T20:28:06Z</time>
      </trkpt>
      <trkpt lat="4.3416060" lon="-76.2773750">
        <ele>1629.6</ele>
        <time>2022-08-14T20:28:14Z</time>
      </trkpt>
      <trkpt lat="4.3416070" lon="-76.2773550">
        <ele>1629.6</ele>
        <time>2022-08-14T20:28:15Z</time>
      </trkpt>
      <trkpt lat="4.3415870" lon="-76.2772840">
        <ele>1630.6</ele>
        <time>2022-08-14T20:28:19Z</time>
      </trkpt>
      <trkpt lat="4.3415260" lon="-76.2772250">
        <ele>1631.2</ele>
        <time>2022-08-14T20:28:23Z</time>
      </trkpt>
      <trkpt lat="4.3414610" lon="-76.2772080">
        <ele>1631.6</ele>
        <time>2022-08-14T20:28:26Z</time>
      </trkpt>
      <trkpt lat="4.3413900" lon="-76.2772040">
        <ele>1632.0</ele>
        <time>2022-08-14T20:28:29Z</time>
      </trkpt>
      <trkpt lat="4.3412310" lon="-76.2772010">
        <ele>1632.6</ele>
        <time>2022-08-14T20:28:37Z</time>
      </trkpt>
      <trkpt lat="4.3411230" lon="-76.2771860">
        <ele>1633.2</ele>
        <time>2022-08-14T20:28:43Z</time>
      </trkpt>
      <trkpt lat="4.3410840" lon="-76.2771880">
        <ele>1633.6</ele>
        <time>2022-08-14T20:28:45Z</time>
      </trkpt>
      <trkpt lat="4.3410650" lon="-76.2771910">
        <ele>1633.8</ele>
        <time>2022-08-14T20:28:46Z</time>
      </trkpt>
      <trkpt lat="4.3409800" lon="-76.2772290">
        <ele>1634.6</ele>
        <time>2022-08-14T20:28:51Z</time>
      </trkpt>
      <trkpt lat="4.3409640" lon="-76.2772380">
        <ele>1634.8</ele>
        <time>2022-08-14T20:28:52Z</time>
      </trkpt>
      <trkpt lat="4.3408860" lon="-76.2772940">
        <ele>1636.0</ele>
        <time>2022-08-14T20:28:57Z</time>
      </trkpt>
      <trkpt lat="4.3408610" lon="-76.2773180">
        <ele>1636.2</ele>
        <time>2022-08-14T20:28:59Z</time>
      </trkpt>
      <trkpt lat="4.3408030" lon="-76.2773790">
        <ele>1637.0</ele>
        <time>2022-08-14T20:29:04Z</time>
      </trkpt>
      <trkpt lat="4.3407690" lon="-76.2774170">
        <ele>1637.8</ele>
        <time>2022-08-14T20:29:07Z</time>
      </trkpt>
      <trkpt lat="4.3407470" lon="-76.2774430">
        <ele>1638.2</ele>
        <time>2022-08-14T20:29:09Z</time>
      </trkpt>
      <trkpt lat="4.3406260" lon="-76.2775310">
        <ele>1639.2</ele>
        <time>2022-08-14T20:29:17Z</time>
      </trkpt>
      <trkpt lat="4.3404780" lon="-76.2775870">
        <ele>1640.2</ele>
        <time>2022-08-14T20:29:26Z</time>
      </trkpt>
      <trkpt lat="4.3404030" lon="-76.2775910">
        <ele>1641.2</ele>
        <time>2022-08-14T20:29:30Z</time>
      </trkpt>
      <trkpt lat="4.3403260" lon="-76.2775660">
        <ele>1642.4</ele>
        <time>2022-08-14T20:29:34Z</time>
      </trkpt>
      <trkpt lat="4.3403090" lon="-76.2775590">
        <ele>1642.4</ele>
        <time>2022-08-14T20:29:35Z</time>
      </trkpt>
      <trkpt lat="4.3401650" lon="-76.2775180">
        <ele>1643.2</ele>
        <time>2022-08-14T20:29:43Z</time>
      </trkpt>
      <trkpt lat="4.3401470" lon="-76.2775150">
        <ele>1643.4</ele>
        <time>2022-08-14T20:29:44Z</time>
      </trkpt>
      <trkpt lat="4.3400350" lon="-76.2774590">
        <ele>1644.4</ele>
        <time>2022-08-14T20:29:51Z</time>
      </trkpt>
      <trkpt lat="4.3400230" lon="-76.2774480">
        <ele>1644.6</ele>
        <time>2022-08-14T20:29:52Z</time>
      </trkpt>
      <trkpt lat="4.3399450" lon="-76.2773310">
        <ele>1645.8</ele>
        <time>2022-08-14T20:29:59Z</time>
      </trkpt>
      <trkpt lat="4.3399360" lon="-76.2773130">
        <ele>1646.2</ele>
        <time>2022-08-14T20:30:00Z</time>
      </trkpt>
      <trkpt lat="4.3399080" lon="-76.2772650">
        <ele>1646.8</ele>
        <time>2022-08-14T20:30:03Z</time>
      </trkpt>
      <trkpt lat="4.3398640" lon="-76.2772110">
        <ele>1647.4</ele>
        <time>2022-08-14T20:30:06Z</time>
      </trkpt>
      <trkpt lat="4.3398080" lon="-76.2771990">
        <ele>1648.4</ele>
        <time>2022-08-14T20:30:09Z</time>
      </trkpt>
      <trkpt lat="4.3397480" lon="-76.2772000">
        <ele>1649.0</ele>
        <time>2022-08-14T20:30:12Z</time>
      </trkpt>
      <trkpt lat="4.3397170" lon="-76.2772130">
        <ele>1649.2</ele>
        <time>2022-08-14T20:30:14Z</time>
      </trkpt>
      <trkpt lat="4.3397020" lon="-76.2772220">
        <ele>1649.4</ele>
        <time>2022-08-14T20:30:15Z</time>
      </trkpt>
      <trkpt lat="4.3396850" lon="-76.2772290">
        <ele>1649.4</ele>
        <time>2022-08-14T20:30:16Z</time>
      </trkpt>
      <trkpt lat="4.3395720" lon="-76.2773160">
        <ele>1650.2</ele>
        <time>2022-08-14T20:30:24Z</time>
      </trkpt>
      <trkpt lat="4.3395590" lon="-76.2773260">
        <ele>1650.6</ele>
        <time>2022-08-14T20:30:25Z</time>
      </trkpt>
      <trkpt lat="4.3395060" lon="-76.2773660">
        <ele>1651.0</ele>
        <time>2022-08-14T20:30:29Z</time>
      </trkpt>
      <trkpt lat="4.3394470" lon="-76.2774000">
        <ele>1651.4</ele>
        <time>2022-08-14T20:30:33Z</time>
      </trkpt>
      <trkpt lat="4.3394340" lon="-76.2774120">
        <ele>1651.4</ele>
        <time>2022-08-14T20:30:34Z</time>
      </trkpt>
      <trkpt lat="4.3393370" lon="-76.2774500">
        <ele>1652.4</ele>
        <time>2022-08-14T20:30:40Z</time>
      </trkpt>
      <trkpt lat="4.3392890" lon="-76.2774610">
        <ele>1653.4</ele>
        <time>2022-08-14T20:30:43Z</time>
      </trkpt>
      <trkpt lat="4.3392760" lon="-76.2774670">
        <ele>1653.6</ele>
        <time>2022-08-14T20:30:44Z</time>
      </trkpt>
      <trkpt lat="4.3391850" lon="-76.2774710">
        <ele>1654.6</ele>
        <time>2022-08-14T20:30:49Z</time>
      </trkpt>
      <trkpt lat="4.3391670" lon="-76.2774680">
        <ele>1654.8</ele>
        <time>2022-08-14T20:30:50Z</time>
      </trkpt>
      <trkpt lat="4.3390540" lon="-76.2773910">
        <ele>1655.4</ele>
        <time>2022-08-14T20:30:57Z</time>
      </trkpt>
      <trkpt lat="4.3390250" lon="-76.2773620">
        <ele>1655.6</ele>
        <time>2022-08-14T20:30:59Z</time>
      </trkpt>
      <trkpt lat="4.3389060" lon="-76.2773010">
        <ele>1656.8</ele>
        <time>2022-08-14T20:31:06Z</time>
      </trkpt>
      <trkpt lat="4.3388880" lon="-76.2772940">
        <ele>1657.0</ele>
        <time>2022-08-14T20:31:07Z</time>
      </trkpt>
      <trkpt lat="4.3387790" lon="-76.2772980">
        <ele>1658.0</ele>
        <time>2022-08-14T20:31:12Z</time>
      </trkpt>
      <trkpt lat="4.3387130" lon="-76.2772990">
        <ele>1658.8</ele>
        <time>2022-08-14T20:31:15Z</time>
      </trkpt>
      <trkpt lat="4.3386480" lon="-76.2772990">
        <ele>1659.2</ele>
        <time>2022-08-14T20:31:18Z</time>
      </trkpt>
      <trkpt lat="4.3385440" lon="-76.2772760">
        <ele>1660.2</ele>
        <time>2022-08-14T20:31:23Z</time>
      </trkpt>
      <trkpt lat="4.3384840" lon="-76.2772660">
        <ele>1660.8</ele>
        <time>2022-08-14T20:31:26Z</time>
      </trkpt>
      <trkpt lat="4.3384250" lon="-76.2772490">
        <ele>1661.2</ele>
        <time>2022-08-14T20:31:29Z</time>
      </trkpt>
      <trkpt lat="4.3383290" lon="-76.2772240">
        <ele>1661.8</ele>
        <time>2022-08-14T20:31:34Z</time>
      </trkpt>
      <trkpt lat="4.3383130" lon="-76.2772200">
        <ele>1662.0</ele>
        <time>2022-08-14T20:31:35Z</time>
      </trkpt>
      <trkpt lat="4.3382750" lon="-76.2772140">
        <ele>1662.4</ele>
        <time>2022-08-14T20:31:37Z</time>
      </trkpt>
      <trkpt lat="4.3381970" lon="-76.2771830">
        <ele>1663.8</ele>
        <time>2022-08-14T20:31:42Z</time>
      </trkpt>
      <trkpt lat="4.3381810" lon="-76.2771820">
        <ele>1664.0</ele>
        <time>2022-08-14T20:31:43Z</time>
      </trkpt>
      <trkpt lat="4.3380960" lon="-76.2771460">
        <ele>1664.8</ele>
        <time>2022-08-14T20:31:48Z</time>
      </trkpt>
      <trkpt lat="4.3379970" lon="-76.2770700">
        <ele>1666.0</ele>
        <time>2022-08-14T20:31:54Z</time>
      </trkpt>
      <trkpt lat="4.3379380" lon="-76.2770320">
        <ele>1667.0</ele>
        <time>2022-08-14T20:31:58Z</time>
      </trkpt>
      <trkpt lat="4.3379270" lon="-76.2770230">
        <ele>1667.2</ele>
        <time>2022-08-14T20:31:59Z</time>
      </trkpt>
      <trkpt lat="4.3378910" lon="-76.2769910">
        <ele>1668.4</ele>
        <time>2022-08-14T20:32:03Z</time>
      </trkpt>
      <trkpt lat="4.3378740" lon="-76.2769740">
        <ele>1668.6</ele>
        <time>2022-08-14T20:32:05Z</time>
      </trkpt>
      <trkpt lat="4.3378310" lon="-76.2769490">
        <ele>1669.6</ele>
        <time>2022-08-14T20:32:09Z</time>
      </trkpt>
      <trkpt lat="4.3378020" lon="-76.2769250">
        <ele>1670.0</ele>
        <time>2022-08-14T20:32:11Z</time>
      </trkpt>
      <trkpt lat="4.3377890" lon="-76.2768990">
        <ele>1670.6</ele>
        <time>2022-08-14T20:32:13Z</time>
      </trkpt>
      <trkpt lat="4.3377290" lon="-76.2767930">
        <ele>1671.6</ele>
        <time>2022-08-14T20:32:19Z</time>
      </trkpt>
      <trkpt lat="4.3376980" lon="-76.2767390">
        <ele>1672.0</ele>
        <time>2022-08-14T20:32:22Z</time>
      </trkpt>
      <trkpt lat="4.3376570" lon="-76.2767040">
        <ele>1672.6</ele>
        <time>2022-08-14T20:32:25Z</time>
      </trkpt>
      <trkpt lat="4.3376410" lon="-76.2766960">
        <ele>1672.8</ele>
        <time>2022-08-14T20:32:27Z</time>
      </trkpt>
      <trkpt lat="4.3375650" lon="-76.2766790">
        <ele>1673.6</ele>
        <time>2022-08-14T20:32:31Z</time>
      </trkpt>
      <trkpt lat="4.3375180" lon="-76.2766720">
        <ele>1674.2</ele>
        <time>2022-08-14T20:32:33Z</time>
      </trkpt>
      <trkpt lat="4.3374740" lon="-76.2766920">
        <ele>1675.0</ele>
        <time>2022-08-14T20:32:36Z</time>
      </trkpt>
      <trkpt lat="4.3374470" lon="-76.2767060">
        <ele>1675.4</ele>
        <time>2022-08-14T20:32:38Z</time>
      </trkpt>
      <trkpt lat="4.3374290" lon="-76.2767400">
        <ele>1676.2</ele>
        <time>2022-08-14T20:32:40Z</time>
      </trkpt>
      <trkpt lat="4.3374180" lon="-76.2767820">
        <ele>1676.4</ele>
        <time>2022-08-14T20:32:42Z</time>
      </trkpt>
      <trkpt lat="4.3373750" lon="-76.2768640">
        <ele>1677.2</ele>
        <time>2022-08-14T20:32:47Z</time>
      </trkpt>
      <trkpt lat="4.3373690" lon="-76.2768810">
        <ele>1677.6</ele>
        <time>2022-08-14T20:32:49Z</time>
      </trkpt>
      <trkpt lat="4.3373180" lon="-76.2769600">
        <ele>1678.4</ele>
        <time>2022-08-14T20:32:53Z</time>
      </trkpt>
      <trkpt lat="4.3372690" lon="-76.2770050">
        <ele>1678.6</ele>
        <time>2022-08-14T20:32:56Z</time>
      </trkpt>
      <trkpt lat="4.3371790" lon="-76.2770070">
        <ele>1679.2</ele>
        <time>2022-08-14T20:33:00Z</time>
      </trkpt>
      <trkpt lat="4.3371600" lon="-76.2770060">
        <ele>1679.6</ele>
        <time>2022-08-14T20:33:02Z</time>
      </trkpt>
      <trkpt lat="4.3371190" lon="-76.2770050">
        <ele>1680.4</ele>
        <time>2022-08-14T20:33:05Z</time>
      </trkpt>
      <trkpt lat="4.3370930" lon="-76.2770240">
        <ele>1680.6</ele>
        <time>2022-08-14T20:33:07Z</time>
      </trkpt>
      <trkpt lat="4.3370070" lon="-76.2770280">
        <ele>1680.8</ele>
        <time>2022-08-14T20:33:11Z</time>
      </trkpt>
      <trkpt lat="4.3369390" lon="-76.2770750">
        <ele>1681.6</ele>
        <time>2022-08-14T20:33:15Z</time>
      </trkpt>
      <trkpt lat="4.3368940" lon="-76.2770740">
        <ele>1681.8</ele>
        <time>2022-08-14T20:33:17Z</time>
      </trkpt>
      <trkpt lat="4.3368310" lon="-76.2770900">
        <ele>1682.2</ele>
        <time>2022-08-14T20:33:20Z</time>
      </trkpt>
      <trkpt lat="4.3367870" lon="-76.2771060">
        <ele>1682.4</ele>
        <time>2022-08-14T20:33:22Z</time>
      </trkpt>
      <trkpt lat="4.3367430" lon="-76.2771050">
        <ele>1682.4</ele>
        <time>2022-08-14T20:33:24Z</time>
      </trkpt>
      <trkpt lat="4.3366550" lon="-76.2770960">
        <ele>1683.0</ele>
        <time>2022-08-14T20:33:28Z</time>
      </trkpt>
      <trkpt lat="4.3366330" lon="-76.2770930">
        <ele>1683.4</ele>
        <time>2022-08-14T20:33:29Z</time>
      </trkpt>
      <trkpt lat="4.3366010" lon="-76.2770580">
        <ele>1684.0</ele>
        <time>2022-08-14T20:33:31Z</time>
      </trkpt>
      <trkpt lat="4.3365790" lon="-76.2770300">
        <ele>1684.4</ele>
        <time>2022-08-14T20:33:33Z</time>
      </trkpt>
      <trkpt lat="4.3365720" lon="-76.2770160">
        <ele>1684.6</ele>
        <time>2022-08-14T20:33:34Z</time>
      </trkpt>
      <trkpt lat="4.3365410" lon="-76.2769800">
        <ele>1685.2</ele>
        <time>2022-08-14T20:33:37Z</time>
      </trkpt>
      <trkpt lat="4.3365200" lon="-76.2769460">
        <ele>1685.6</ele>
        <time>2022-08-14T20:33:39Z</time>
      </trkpt>
      <trkpt lat="4.3364970" lon="-76.2769140">
        <ele>1686.2</ele>
        <time>2022-08-14T20:33:41Z</time>
      </trkpt>
      <trkpt lat="4.3364650" lon="-76.2768660">
        <ele>1686.8</ele>
        <time>2022-08-14T20:33:44Z</time>
      </trkpt>
      <trkpt lat="4.3364270" lon="-76.2768220">
        <ele>1687.2</ele>
        <time>2022-08-14T20:33:47Z</time>
      </trkpt>
      <trkpt lat="4.3363660" lon="-76.2767700">
        <ele>1688.0</ele>
        <time>2022-08-14T20:33:51Z</time>
      </trkpt>
      <trkpt lat="4.3363110" lon="-76.2767410">
        <ele>1688.4</ele>
        <time>2022-08-14T20:33:54Z</time>
      </trkpt>
      <trkpt lat="4.3362540" lon="-76.2767260">
        <ele>1689.0</ele>
        <time>2022-08-14T20:33:57Z</time>
      </trkpt>
      <trkpt lat="4.3361630" lon="-76.2767190">
        <ele>1689.8</ele>
        <time>2022-08-14T20:34:02Z</time>
      </trkpt>
      <trkpt lat="4.3361430" lon="-76.2767150">
        <ele>1690.2</ele>
        <time>2022-08-14T20:34:03Z</time>
      </trkpt>
      <trkpt lat="4.3360340" lon="-76.2766790">
        <ele>1691.4</ele>
        <time>2022-08-14T20:34:09Z</time>
      </trkpt>
      <trkpt lat="4.3360170" lon="-76.2766710">
        <ele>1691.8</ele>
        <time>2022-08-14T20:34:10Z</time>
      </trkpt>
      <trkpt lat="4.3359540" lon="-76.2766210">
        <ele>1692.6</ele>
        <time>2022-08-14T20:34:14Z</time>
      </trkpt>
      <trkpt lat="4.3359120" lon="-76.2765750">
        <ele>1693.6</ele>
        <time>2022-08-14T20:34:17Z</time>
      </trkpt>
      <trkpt lat="4.3358530" lon="-76.2765110">
        <ele>1694.6</ele>
        <time>2022-08-14T20:34:22Z</time>
      </trkpt>
      <trkpt lat="4.3358300" lon="-76.2764870">
        <ele>1694.8</ele>
        <time>2022-08-14T20:34:24Z</time>
      </trkpt>
      <trkpt lat="4.3357930" lon="-76.2764620">
        <ele>1695.4</ele>
        <time>2022-08-14T20:34:27Z</time>
      </trkpt>
      <trkpt lat="4.3357510" lon="-76.2764390">
        <ele>1695.8</ele>
        <time>2022-08-14T20:34:30Z</time>
      </trkpt>
      <trkpt lat="4.3356990" lon="-76.2764160">
        <ele>1696.6</ele>
        <time>2022-08-14T20:34:34Z</time>
      </trkpt>
      <trkpt lat="4.3356180" lon="-76.2763820">
        <ele>1697.4</ele>
        <time>2022-08-14T20:34:38Z</time>
      </trkpt>
      <trkpt lat="4.3356030" lon="-76.2763740">
        <ele>1697.6</ele>
        <time>2022-08-14T20:34:39Z</time>
      </trkpt>
      <trkpt lat="4.3355340" lon="-76.2763220">
        <ele>1698.6</ele>
        <time>2022-08-14T20:34:44Z</time>
      </trkpt>
      <trkpt lat="4.3355170" lon="-76.2763180">
        <ele>1698.8</ele>
        <time>2022-08-14T20:34:45Z</time>
      </trkpt>
      <trkpt lat="4.3354440" lon="-76.2762560">
        <ele>1699.6</ele>
        <time>2022-08-14T20:34:50Z</time>
      </trkpt>
      <trkpt lat="4.3354310" lon="-76.2762420">
        <ele>1699.8</ele>
        <time>2022-08-14T20:34:51Z</time>
      </trkpt>
      <trkpt lat="4.3353780" lon="-76.2761740">
        <ele>1700.8</ele>
        <time>2022-08-14T20:34:56Z</time>
      </trkpt>
      <trkpt lat="4.3353490" lon="-76.2761410">
        <ele>1701.6</ele>
        <time>2022-08-14T20:34:59Z</time>
      </trkpt>
      <trkpt lat="4.3353440" lon="-76.2761310">
        <ele>1701.8</ele>
        <time>2022-08-14T20:35:00Z</time>
      </trkpt>
      <trkpt lat="4.3352750" lon="-76.2760310">
        <ele>1702.6</ele>
        <time>2022-08-14T20:35:06Z</time>
      </trkpt>
      <trkpt lat="4.3352500" lon="-76.2759920">
        <ele>1703.0</ele>
        <time>2022-08-14T20:35:08Z</time>
      </trkpt>
      <trkpt lat="4.3352160" lon="-76.2759210">
        <ele>1703.8</ele>
        <time>2022-08-14T20:35:12Z</time>
      </trkpt>
      <trkpt lat="4.3352000" lon="-76.2758880">
        <ele>1704.4</ele>
        <time>2022-08-14T20:35:15Z</time>
      </trkpt>
      <trkpt lat="4.3351340" lon="-76.2758150">
        <ele>1705.0</ele>
        <time>2022-08-14T20:35:20Z</time>
      </trkpt>
      <trkpt lat="4.3351090" lon="-76.2757800">
        <ele>1705.4</ele>
        <time>2022-08-14T20:35:22Z</time>
      </trkpt>
      <trkpt lat="4.3350420" lon="-76.2757050">
        <ele>1706.0</ele>
        <time>2022-08-14T20:35:26Z</time>
      </trkpt>
      <trkpt lat="4.3349910" lon="-76.2756320">
        <ele>1706.8</ele>
        <time>2022-08-14T20:35:30Z</time>
      </trkpt>
      <trkpt lat="4.3349650" lon="-76.2755910">
        <ele>1707.4</ele>
        <time>2022-08-14T20:35:32Z</time>
      </trkpt>
      <trkpt lat="4.3349060" lon="-76.2754810">
        <ele>1708.2</ele>
        <time>2022-08-14T20:35:38Z</time>
      </trkpt>
      <trkpt lat="4.3348850" lon="-76.2754650">
        <ele>1708.4</ele>
        <time>2022-08-14T20:35:39Z</time>
      </trkpt>
      <trkpt lat="4.3348000" lon="-76.2753590">
        <ele>1709.2</ele>
        <time>2022-08-14T20:35:44Z</time>
      </trkpt>
      <trkpt lat="4.3347780" lon="-76.2752980">
        <ele>1709.4</ele>
        <time>2022-08-14T20:35:46Z</time>
      </trkpt>
      <trkpt lat="4.3347750" lon="-76.2752730">
        <ele>1709.6</ele>
        <time>2022-08-14T20:35:47Z</time>
      </trkpt>
      <trkpt lat="4.3347600" lon="-76.2752580">
        <ele>1709.6</ele>
        <time>2022-08-14T20:35:48Z</time>
      </trkpt>
      <trkpt lat="4.3347270" lon="-76.2752040">
        <ele>1710.4</ele>
        <time>2022-08-14T20:35:51Z</time>
      </trkpt>
      <trkpt lat="4.3346810" lon="-76.2751580">
        <ele>1710.6</ele>
        <time>2022-08-14T20:35:53Z</time>
      </trkpt>
      <trkpt lat="4.3346290" lon="-76.2750520">
        <ele>1711.6</ele>
        <time>2022-08-14T20:35:58Z</time>
      </trkpt>
      <trkpt lat="4.3345300" lon="-76.2749060">
        <ele>1712.8</ele>
        <time>2022-08-14T20:36:05Z</time>
      </trkpt>
      <trkpt lat="4.3344420" lon="-76.2748220">
        <ele>1713.6</ele>
        <time>2022-08-14T20:36:10Z</time>
      </trkpt>
      <trkpt lat="4.3343950" lon="-76.2747890">
        <ele>1713.8</ele>
        <time>2022-08-14T20:36:12Z</time>
      </trkpt>
      <trkpt lat="4.3342610" lon="-76.2747260">
        <ele>1714.6</ele>
        <time>2022-08-14T20:36:18Z</time>
      </trkpt>
      <trkpt lat="4.3341340" lon="-76.2747400">
        <ele>1715.8</ele>
        <time>2022-08-14T20:36:24Z</time>
      </trkpt>
      <trkpt lat="4.3340380" lon="-76.2747540">
        <ele>1716.8</ele>
        <time>2022-08-14T20:36:29Z</time>
      </trkpt>
      <trkpt lat="4.3339890" lon="-76.2747480">
        <ele>1717.6</ele>
        <time>2022-08-14T20:36:32Z</time>
      </trkpt>
      <trkpt lat="4.3339500" lon="-76.2747470">
        <ele>1718.0</ele>
        <time>2022-08-14T20:36:34Z</time>
      </trkpt>
      <trkpt lat="4.3339280" lon="-76.2747490">
        <ele>1718.2</ele>
        <time>2022-08-14T20:36:35Z</time>
      </trkpt>
      <trkpt lat="4.3338380" lon="-76.2747490">
        <ele>1719.2</ele>
        <time>2022-08-14T20:36:40Z</time>
      </trkpt>
      <trkpt lat="4.3338000" lon="-76.2747490">
        <ele>1719.6</ele>
        <time>2022-08-14T20:36:42Z</time>
      </trkpt>
      <trkpt lat="4.3337310" lon="-76.2747500">
        <ele>1720.4</ele>
        <time>2022-08-14T20:36:46Z</time>
      </trkpt>
      <trkpt lat="4.3336870" lon="-76.2747570">
        <ele>1720.6</ele>
        <time>2022-08-14T20:36:48Z</time>
      </trkpt>
      <trkpt lat="4.3336120" lon="-76.2747450">
        <ele>1721.4</ele>
        <time>2022-08-14T20:36:52Z</time>
      </trkpt>
      <trkpt lat="4.3335530" lon="-76.2747480">
        <ele>1721.8</ele>
        <time>2022-08-14T20:36:55Z</time>
      </trkpt>
      <trkpt lat="4.3334810" lon="-76.2747490">
        <ele>1722.6</ele>
        <time>2022-08-14T20:36:59Z</time>
      </trkpt>
      <trkpt lat="4.3334240" lon="-76.2747500">
        <ele>1723.0</ele>
        <time>2022-08-14T20:37:02Z</time>
      </trkpt>
      <trkpt lat="4.3333720" lon="-76.2747460">
        <ele>1723.6</ele>
        <time>2022-08-14T20:37:05Z</time>
      </trkpt>
      <trkpt lat="4.3332840" lon="-76.2747460">
        <ele>1724.4</ele>
        <time>2022-08-14T20:37:10Z</time>
      </trkpt>
      <trkpt lat="4.3332510" lon="-76.2747400">
        <ele>1725.0</ele>
        <time>2022-08-14T20:37:12Z</time>
      </trkpt>
      <trkpt lat="4.3332050" lon="-76.2747280">
        <ele>1725.6</ele>
        <time>2022-08-14T20:37:15Z</time>
      </trkpt>
      <trkpt lat="4.3331390" lon="-76.2747190">
        <ele>1726.6</ele>
        <time>2022-08-14T20:37:19Z</time>
      </trkpt>
      <trkpt lat="4.3331220" lon="-76.2747150">
        <ele>1726.8</ele>
        <time>2022-08-14T20:37:20Z</time>
      </trkpt>
      <trkpt lat="4.3330550" lon="-76.2746950">
        <ele>1727.4</ele>
        <time>2022-08-14T20:37:24Z</time>
      </trkpt>
      <trkpt lat="4.3330070" lon="-76.2746800">
        <ele>1728.0</ele>
        <time>2022-08-14T20:37:27Z</time>
      </trkpt>
      <trkpt lat="4.3329620" lon="-76.2746390">
        <ele>1728.6</ele>
        <time>2022-08-14T20:37:31Z</time>
      </trkpt>
      <trkpt lat="4.3329210" lon="-76.2746020">
        <ele>1729.2</ele>
        <time>2022-08-14T20:37:34Z</time>
      </trkpt>
      <trkpt lat="4.3328740" lon="-76.2745730">
        <ele>1729.8</ele>
        <time>2022-08-14T20:37:37Z</time>
      </trkpt>
      <trkpt lat="4.3327660" lon="-76.2745730">
        <ele>1730.2</ele>
        <time>2022-08-14T20:37:43Z</time>
      </trkpt>
      <trkpt lat="4.3327020" lon="-76.2746210">
        <ele>1731.2</ele>
        <time>2022-08-14T20:37:47Z</time>
      </trkpt>
      <trkpt lat="4.3326670" lon="-76.2746670">
        <ele>1731.8</ele>
        <time>2022-08-14T20:37:50Z</time>
      </trkpt>
      <trkpt lat="4.3326300" lon="-76.2747420">
        <ele>1732.4</ele>
        <time>2022-08-14T20:37:54Z</time>
      </trkpt>
      <trkpt lat="4.3325650" lon="-76.2748670">
        <ele>1733.8</ele>
        <time>2022-08-14T20:38:01Z</time>
      </trkpt>
      <trkpt lat="4.3325070" lon="-76.2749580">
        <ele>1734.8</ele>
        <time>2022-08-14T20:38:06Z</time>
      </trkpt>
      <trkpt lat="4.3324950" lon="-76.2749730">
        <ele>1735.2</ele>
        <time>2022-08-14T20:38:07Z</time>
      </trkpt>
      <trkpt lat="4.3324020" lon="-76.2750500">
        <ele>1735.8</ele>
        <time>2022-08-14T20:38:13Z</time>
      </trkpt>
      <trkpt lat="4.3323680" lon="-76.2750790">
        <ele>1735.8</ele>
        <time>2022-08-14T20:38:15Z</time>
      </trkpt>
      <trkpt lat="4.3323360" lon="-76.2751030">
        <ele>1736.0</ele>
        <time>2022-08-14T20:38:17Z</time>
      </trkpt>
      <trkpt lat="4.3322810" lon="-76.2751320">
        <ele>1736.8</ele>
        <time>2022-08-14T20:38:20Z</time>
      </trkpt>
      <trkpt lat="4.3322490" lon="-76.2751560">
        <ele>1737.2</ele>
        <time>2022-08-14T20:38:22Z</time>
      </trkpt>
      <trkpt lat="4.3322000" lon="-76.2751900">
        <ele>1738.0</ele>
        <time>2022-08-14T20:38:25Z</time>
      </trkpt>
      <trkpt lat="4.3321180" lon="-76.2752500">
        <ele>1739.0</ele>
        <time>2022-08-14T20:38:30Z</time>
      </trkpt>
      <trkpt lat="4.3321010" lon="-76.2752610">
        <ele>1739.2</ele>
        <time>2022-08-14T20:38:31Z</time>
      </trkpt>
      <trkpt lat="4.3320490" lon="-76.2752960">
        <ele>1740.0</ele>
        <time>2022-08-14T20:38:34Z</time>
      </trkpt>
      <trkpt lat="4.3319060" lon="-76.2753880">
        <ele>1741.2</ele>
        <time>2022-08-14T20:38:42Z</time>
      </trkpt>
      <trkpt lat="4.3318390" lon="-76.2754220">
        <ele>1742.4</ele>
        <time>2022-08-14T20:38:46Z</time>
      </trkpt>
      <trkpt lat="4.3317550" lon="-76.2754770">
        <ele>1743.0</ele>
        <time>2022-08-14T20:38:51Z</time>
      </trkpt>
      <trkpt lat="4.3317350" lon="-76.2754860">
        <ele>1743.4</ele>
        <time>2022-08-14T20:38:52Z</time>
      </trkpt>
      <trkpt lat="4.3316620" lon="-76.2755240">
        <ele>1744.4</ele>
        <time>2022-08-14T20:38:56Z</time>
      </trkpt>
      <trkpt lat="4.3315540" lon="-76.2755760">
        <ele>1745.6</ele>
        <time>2022-08-14T20:39:01Z</time>
      </trkpt>
      <trkpt lat="4.3315070" lon="-76.2755930">
        <ele>1745.8</ele>
        <time>2022-08-14T20:39:03Z</time>
      </trkpt>
      <trkpt lat="4.3313890" lon="-76.2756240">
        <ele>1746.4</ele>
        <time>2022-08-14T20:39:08Z</time>
      </trkpt>
      <trkpt lat="4.3313660" lon="-76.2756270">
        <ele>1746.4</ele>
        <time>2022-08-14T20:39:09Z</time>
      </trkpt>
      <trkpt lat="4.3312990" lon="-76.2756290">
        <ele>1746.6</ele>
        <time>2022-08-14T20:39:12Z</time>
      </trkpt>
      <trkpt lat="4.3312100" lon="-76.2756330">
        <ele>1747.6</ele>
        <time>2022-08-14T20:39:16Z</time>
      </trkpt>
      <trkpt lat="4.3311090" lon="-76.2756280">
        <ele>1748.2</ele>
        <time>2022-08-14T20:39:20Z</time>
      </trkpt>
      <trkpt lat="4.3310580" lon="-76.2756260">
        <ele>1748.6</ele>
        <time>2022-08-14T20:39:22Z</time>
      </trkpt>
      <trkpt lat="4.3309390" lon="-76.2756490">
        <ele>1749.2</ele>
        <time>2022-08-14T20:39:27Z</time>
      </trkpt>
      <trkpt lat="4.3308740" lon="-76.2756690">
        <ele>1749.8</ele>
        <time>2022-08-14T20:39:30Z</time>
      </trkpt>
      <trkpt lat="4.3307970" lon="-76.2756970">
        <ele>1750.4</ele>
        <time>2022-08-14T20:39:34Z</time>
      </trkpt>
      <trkpt lat="4.3307780" lon="-76.2757050">
        <ele>1750.8</ele>
        <time>2022-08-14T20:39:35Z</time>
      </trkpt>
      <trkpt lat="4.3306730" lon="-76.2757740">
        <ele>1751.6</ele>
        <time>2022-08-14T20:39:41Z</time>
      </trkpt>
      <trkpt lat="4.3306550" lon="-76.2757850">
        <ele>1751.6</ele>
        <time>2022-08-14T20:39:42Z</time>
      </trkpt>
      <trkpt lat="4.3305880" lon="-76.2758390">
        <ele>1753.0</ele>
        <time>2022-08-14T20:39:46Z</time>
      </trkpt>
      <trkpt lat="4.3305500" lon="-76.2758570">
        <ele>1753.4</ele>
        <time>2022-08-14T20:39:48Z</time>
      </trkpt>
      <trkpt lat="4.3304460" lon="-76.2759010">
        <ele>1754.0</ele>
        <time>2022-08-14T20:39:53Z</time>
      </trkpt>
      <trkpt lat="4.3303930" lon="-76.2759120">
        <ele>1754.6</ele>
        <time>2022-08-14T20:39:56Z</time>
      </trkpt>
      <trkpt lat="4.3303770" lon="-76.2759230">
        <ele>1755.0</ele>
        <time>2022-08-14T20:39:57Z</time>
      </trkpt>
      <trkpt lat="4.3303630" lon="-76.2759390">
        <ele>1755.2</ele>
        <time>2022-08-14T20:39:58Z</time>
      </trkpt>
      <trkpt lat="4.3303050" lon="-76.2759830">
        <ele>1755.8</ele>
        <time>2022-08-14T20:40:01Z</time>
      </trkpt>
      <trkpt lat="4.3302180" lon="-76.2760190">
        <ele>1756.4</ele>
        <time>2022-08-14T20:40:05Z</time>
      </trkpt>
      <trkpt lat="4.3301510" lon="-76.2760630">
        <ele>1756.8</ele>
        <time>2022-08-14T20:40:08Z</time>
      </trkpt>
      <trkpt lat="4.3300720" lon="-76.2761070">
        <ele>1757.6</ele>
        <time>2022-08-14T20:40:12Z</time>
      </trkpt>
      <trkpt lat="4.3300540" lon="-76.2761530">
        <ele>1758.0</ele>
        <time>2022-08-14T20:40:14Z</time>
      </trkpt>
      <trkpt lat="4.3300410" lon="-76.2761740">
        <ele>1758.2</ele>
        <time>2022-08-14T20:40:15Z</time>
      </trkpt>
      <trkpt lat="4.3300150" lon="-76.2762010">
        <ele>1758.6</ele>
        <time>2022-08-14T20:40:17Z</time>
      </trkpt>
      <trkpt lat="4.3299900" lon="-76.2762270">
        <ele>1759.0</ele>
        <time>2022-08-14T20:40:19Z</time>
      </trkpt>
      <trkpt lat="4.3299240" lon="-76.2762930">
        <ele>1760.0</ele>
        <time>2022-08-14T20:40:24Z</time>
      </trkpt>
      <trkpt lat="4.3299110" lon="-76.2763070">
        <ele>1760.0</ele>
        <time>2022-08-14T20:40:25Z</time>
      </trkpt>
      <trkpt lat="4.3298920" lon="-76.2763850">
        <ele>1761.2</ele>
        <time>2022-08-14T20:40:29Z</time>
      </trkpt>
      <trkpt lat="4.3298790" lon="-76.2764310">
        <ele>1761.4</ele>
        <time>2022-08-14T20:40:32Z</time>
      </trkpt>
      <trkpt lat="4.3298830" lon="-76.2764660">
        <ele>1761.4</ele>
        <time>2022-08-14T20:40:34Z</time>
      </trkpt>
      <trkpt lat="4.3298870" lon="-76.2764840">
        <ele>1761.8</ele>
        <time>2022-08-14T20:40:35Z</time>
      </trkpt>
      <trkpt lat="4.3298880" lon="-76.2765010">
        <ele>1762.2</ele>
        <time>2022-08-14T20:40:36Z</time>
      </trkpt>
      <trkpt lat="4.3298960" lon="-76.2765190">
        <ele>1762.4</ele>
        <time>2022-08-14T20:40:37Z</time>
      </trkpt>
      <trkpt lat="4.3299240" lon="-76.2765830">
        <ele>1763.2</ele>
        <time>2022-08-14T20:40:41Z</time>
      </trkpt>
      <trkpt lat="4.3299500" lon="-76.2766060">
        <ele>1763.6</ele>
        <time>2022-08-14T20:40:43Z</time>
      </trkpt>
      <trkpt lat="4.3299620" lon="-76.2766130">
        <ele>1763.6</ele>
        <time>2022-08-14T20:40:44Z</time>
      </trkpt>
      <trkpt lat="4.3300050" lon="-76.2766590">
        <ele>1764.2</ele>
        <time>2022-08-14T20:40:48Z</time>
      </trkpt>
      <trkpt lat="4.3300210" lon="-76.2766880">
        <ele>1764.6</ele>
        <time>2022-08-14T20:40:50Z</time>
      </trkpt>
      <trkpt lat="4.3300500" lon="-76.2768160">
        <ele>1765.4</ele>
        <time>2022-08-14T20:40:54Z</time>
      </trkpt>
      <trkpt lat="4.3300360" lon="-76.2768870">
        <ele>1766.0</ele>
        <time>2022-08-14T20:40:57Z</time>
      </trkpt>
      <trkpt lat="4.3300150" lon="-76.2769270">
        <ele>1766.6</ele>
        <time>2022-08-14T20:40:59Z</time>
      </trkpt>
      <trkpt lat="4.3299330" lon="-76.2769990">
        <ele>1767.8</ele>
        <time>2022-08-14T20:41:05Z</time>
      </trkpt>
      <trkpt lat="4.3298470" lon="-76.2770550">
        <ele>1768.8</ele>
        <time>2022-08-14T20:41:10Z</time>
      </trkpt>
      <trkpt lat="4.3298290" lon="-76.2770700">
        <ele>1769.2</ele>
        <time>2022-08-14T20:41:11Z</time>
      </trkpt>
      <trkpt lat="4.3297610" lon="-76.2771300">
        <ele>1770.0</ele>
        <time>2022-08-14T20:41:15Z</time>
      </trkpt>
      <trkpt lat="4.3297290" lon="-76.2771790">
        <ele>1770.6</ele>
        <time>2022-08-14T20:41:18Z</time>
      </trkpt>
      <trkpt lat="4.3297020" lon="-76.2772280">
        <ele>1771.0</ele>
        <time>2022-08-14T20:41:21Z</time>
      </trkpt>
      <trkpt lat="4.3296910" lon="-76.2772450">
        <ele>1771.0</ele>
        <time>2022-08-14T20:41:22Z</time>
      </trkpt>
      <trkpt lat="4.3296750" lon="-76.2772590">
        <ele>1771.4</ele>
        <time>2022-08-14T20:41:23Z</time>
      </trkpt>
      <trkpt lat="4.3296410" lon="-76.2772950">
        <ele>1772.0</ele>
        <time>2022-08-14T20:41:26Z</time>
      </trkpt>
      <trkpt lat="4.3296270" lon="-76.2773100">
        <ele>1772.2</ele>
        <time>2022-08-14T20:41:27Z</time>
      </trkpt>
      <trkpt lat="4.3295970" lon="-76.2773510">
        <ele>1772.8</ele>
        <time>2022-08-14T20:41:30Z</time>
      </trkpt>
      <trkpt lat="4.3295870" lon="-76.2773630">
        <ele>1773.2</ele>
        <time>2022-08-14T20:41:31Z</time>
      </trkpt>
      <trkpt lat="4.3295220" lon="-76.2774110">
        <ele>1774.2</ele>
        <time>2022-08-14T20:41:36Z</time>
      </trkpt>
      <trkpt lat="4.3295010" lon="-76.2774230">
        <ele>1774.4</ele>
        <time>2022-08-14T20:41:37Z</time>
      </trkpt>
      <trkpt lat="4.3294230" lon="-76.2774540">
        <ele>1775.0</ele>
        <time>2022-08-14T20:41:41Z</time>
      </trkpt>
      <trkpt lat="4.3294190" lon="-76.2774700">
        <ele>1775.4</ele>
        <time>2022-08-14T20:41:42Z</time>
      </trkpt>
      <trkpt lat="4.3294120" lon="-76.2774930">
        <ele>1775.6</ele>
        <time>2022-08-14T20:41:43Z</time>
      </trkpt>
      <trkpt lat="4.3293550" lon="-76.2775140">
        <ele>1776.2</ele>
        <time>2022-08-14T20:41:47Z</time>
      </trkpt>
      <trkpt lat="4.3293350" lon="-76.2775550">
        <ele>1776.6</ele>
        <time>2022-08-14T20:41:49Z</time>
      </trkpt>
      <trkpt lat="4.3292810" lon="-76.2776150">
        <ele>1777.4</ele>
        <time>2022-08-14T20:41:54Z</time>
      </trkpt>
      <trkpt lat="4.3292600" lon="-76.2776600">
        <ele>1777.8</ele>
        <time>2022-08-14T20:41:57Z</time>
      </trkpt>
      <trkpt lat="4.3292250" lon="-76.2777250">
        <ele>1778.4</ele>
        <time>2022-08-14T20:42:02Z</time>
      </trkpt>
      <trkpt lat="4.3292010" lon="-76.2777630">
        <ele>1778.8</ele>
        <time>2022-08-14T20:42:05Z</time>
      </trkpt>
      <trkpt lat="4.3291480" lon="-76.2778120">
        <ele>1779.4</ele>
        <time>2022-08-14T20:42:08Z</time>
      </trkpt>
      <trkpt lat="4.3290780" lon="-76.2778420">
        <ele>1780.6</ele>
        <time>2022-08-14T20:42:13Z</time>
      </trkpt>
      <trkpt lat="4.3290670" lon="-76.2778410">
        <ele>1781.0</ele>
        <time>2022-08-14T20:42:15Z</time>
      </trkpt>
      <trkpt lat="4.3290560" lon="-76.2778350">
        <ele>1781.4</ele>
        <time>2022-08-14T20:42:16Z</time>
      </trkpt>
      <trkpt lat="4.3290010" lon="-76.2777650">
        <ele>1782.6</ele>
        <time>2022-08-14T20:42:22Z</time>
      </trkpt>
      <trkpt lat="4.3289950" lon="-76.2777330">
        <ele>1783.0</ele>
        <time>2022-08-14T20:42:24Z</time>
      </trkpt>
      <trkpt lat="4.3289920" lon="-76.2777010">
        <ele>1783.4</ele>
        <time>2022-08-14T20:42:26Z</time>
      </trkpt>
      <trkpt lat="4.3289920" lon="-76.2776860">
        <ele>1783.6</ele>
        <time>2022-08-14T20:42:27Z</time>
      </trkpt>
      <trkpt lat="4.3289810" lon="-76.2776420">
        <ele>1784.2</ele>
        <time>2022-08-14T20:42:30Z</time>
      </trkpt>
      <trkpt lat="4.3289750" lon="-76.2776170">
        <ele>1784.4</ele>
        <time>2022-08-14T20:42:32Z</time>
      </trkpt>
      <trkpt lat="4.3289720" lon="-76.2776020">
        <ele>1784.6</ele>
        <time>2022-08-14T20:42:33Z</time>
      </trkpt>
      <trkpt lat="4.3289670" lon="-76.2775880">
        <ele>1784.8</ele>
        <time>2022-08-14T20:42:34Z</time>
      </trkpt>
      <trkpt lat="4.3289610" lon="-76.2775350">
        <ele>1785.8</ele>
        <time>2022-08-14T20:42:38Z</time>
      </trkpt>
      <trkpt lat="4.3289530" lon="-76.2775030">
        <ele>1786.0</ele>
        <time>2022-08-14T20:42:40Z</time>
      </trkpt>
      <trkpt lat="4.3289520" lon="-76.2774720">
        <ele>1786.6</ele>
        <time>2022-08-14T20:42:42Z</time>
      </trkpt>
      <trkpt lat="4.3289190" lon="-76.2773820">
        <ele>1787.6</ele>
        <time>2022-08-14T20:42:48Z</time>
      </trkpt>
      <trkpt lat="4.3288660" lon="-76.2773080">
        <ele>1788.8</ele>
        <time>2022-08-14T20:42:53Z</time>
      </trkpt>
      <trkpt lat="4.3288150" lon="-76.2772670">
        <ele>1789.4</ele>
        <time>2022-08-14T20:42:56Z</time>
      </trkpt>
      <trkpt lat="4.3287850" lon="-76.2772430">
        <ele>1789.6</ele>
        <time>2022-08-14T20:42:58Z</time>
      </trkpt>
      <trkpt lat="4.3287150" lon="-76.2771980">
        <ele>1790.4</ele>
        <time>2022-08-14T20:43:02Z</time>
      </trkpt>
      <trkpt lat="4.3287000" lon="-76.2771870">
        <ele>1790.6</ele>
        <time>2022-08-14T20:43:03Z</time>
      </trkpt>
      <trkpt lat="4.3285880" lon="-76.2771170">
        <ele>1791.8</ele>
        <time>2022-08-14T20:43:10Z</time>
      </trkpt>
      <trkpt lat="4.3285700" lon="-76.2770870">
        <ele>1792.2</ele>
        <time>2022-08-14T20:43:12Z</time>
      </trkpt>
      <trkpt lat="4.3285460" lon="-76.2770370">
        <ele>1792.8</ele>
        <time>2022-08-14T20:43:15Z</time>
      </trkpt>
      <trkpt lat="4.3285140" lon="-76.2769710">
        <ele>1793.6</ele>
        <time>2022-08-14T20:43:19Z</time>
      </trkpt>
      <trkpt lat="4.3285090" lon="-76.2769540">
        <ele>1793.8</ele>
        <time>2022-08-14T20:43:20Z</time>
      </trkpt>
      <trkpt lat="4.3284830" lon="-76.2768920">
        <ele>1794.6</ele>
        <time>2022-08-14T20:43:24Z</time>
      </trkpt>
      <trkpt lat="4.3284790" lon="-76.2768750">
        <ele>1794.8</ele>
        <time>2022-08-14T20:43:25Z</time>
      </trkpt>
      <trkpt lat="4.3284710" lon="-76.2768570">
        <ele>1795.0</ele>
        <time>2022-08-14T20:43:26Z</time>
      </trkpt>
      <trkpt lat="4.3284440" lon="-76.2767860">
        <ele>1795.8</ele>
        <time>2022-08-14T20:43:30Z</time>
      </trkpt>
      <trkpt lat="4.3284390" lon="-76.2767600">
        <ele>1796.0</ele>
        <time>2022-08-14T20:43:32Z</time>
      </trkpt>
      <trkpt lat="4.3283920" lon="-76.2766670">
        <ele>1797.0</ele>
        <time>2022-08-14T20:43:37Z</time>
      </trkpt>
      <trkpt lat="4.3283490" lon="-76.2766170">
        <ele>1797.6</ele>
        <time>2022-08-14T20:43:40Z</time>
      </trkpt>
      <trkpt lat="4.3283220" lon="-76.2765680">
        <ele>1798.2</ele>
        <time>2022-08-14T20:43:43Z</time>
      </trkpt>
      <trkpt lat="4.3282650" lon="-76.2765120">
        <ele>1798.8</ele>
        <time>2022-08-14T20:43:47Z</time>
      </trkpt>
      <trkpt lat="4.3282490" lon="-76.2764760">
        <ele>1799.2</ele>
        <time>2022-08-14T20:43:49Z</time>
      </trkpt>
      <trkpt lat="4.3281950" lon="-76.2764100">
        <ele>1800.2</ele>
        <time>2022-08-14T20:43:54Z</time>
      </trkpt>
      <trkpt lat="4.3281820" lon="-76.2763990">
        <ele>1800.6</ele>
        <time>2022-08-14T20:43:55Z</time>
      </trkpt>
      <trkpt lat="4.3281350" lon="-76.2763480">
        <ele>1801.2</ele>
        <time>2022-08-14T20:43:59Z</time>
      </trkpt>
      <trkpt lat="4.3280960" lon="-76.2762900">
        <ele>1801.8</ele>
        <time>2022-08-14T20:44:03Z</time>
      </trkpt>
      <trkpt lat="4.3280700" lon="-76.2762570">
        <ele>1802.2</ele>
        <time>2022-08-14T20:44:05Z</time>
      </trkpt>
      <trkpt lat="4.3279980" lon="-76.2761830">
        <ele>1803.4</ele>
        <time>2022-08-14T20:44:10Z</time>
      </trkpt>
      <trkpt lat="4.3279820" lon="-76.2761700">
        <ele>1803.6</ele>
        <time>2022-08-14T20:44:11Z</time>
      </trkpt>
      <trkpt lat="4.3279100" lon="-76.2761370">
        <ele>1804.6</ele>
        <time>2022-08-14T20:44:15Z</time>
      </trkpt>
      <trkpt lat="4.3278550" lon="-76.2761150">
        <ele>1805.4</ele>
        <time>2022-08-14T20:44:18Z</time>
      </trkpt>
      <trkpt lat="4.3278370" lon="-76.2761050">
        <ele>1805.8</ele>
        <time>2022-08-14T20:44:19Z</time>
      </trkpt>
      <trkpt lat="4.3277170" lon="-76.2760720">
        <ele>1806.6</ele>
        <time>2022-08-14T20:44:24Z</time>
      </trkpt>
      <trkpt lat="4.3276830" lon="-76.2760760">
        <ele>1806.8</ele>
        <time>2022-08-14T20:44:25Z</time>
      </trkpt>
      <trkpt lat="4.3276100" lon="-76.2760990">
        <ele>1807.0</ele>
        <time>2022-08-14T20:44:27Z</time>
      </trkpt>
      <trkpt lat="4.3275330" lon="-76.2761460">
        <ele>1807.0</ele>
        <time>2022-08-14T20:44:29Z</time>
      </trkpt>
      <trkpt lat="4.3274050" lon="-76.2763110">
        <ele>1807.0</ele>
        <time>2022-08-14T20:44:33Z</time>
      </trkpt>
      <trkpt lat="4.3273740" lon="-76.2763510">
        <ele>1807.0</ele>
        <time>2022-08-14T20:44:34Z</time>
      </trkpt>
      <trkpt lat="4.3273010" lon="-76.2764140">
        <ele>1806.6</ele>
        <time>2022-08-14T20:44:36Z</time>
      </trkpt>
      <trkpt lat="4.3272580" lon="-76.2764380">
        <ele>1806.6</ele>
        <time>2022-08-14T20:44:37Z</time>
      </trkpt>
      <trkpt lat="4.3271380" lon="-76.2765120">
        <ele>1806.0</ele>
        <time>2022-08-14T20:44:40Z</time>
      </trkpt>
      <trkpt lat="4.3270540" lon="-76.2765430">
        <ele>1805.4</ele>
        <time>2022-08-14T20:44:42Z</time>
      </trkpt>
      <trkpt lat="4.3270120" lon="-76.2765500">
        <ele>1805.4</ele>
        <time>2022-08-14T20:44:43Z</time>
      </trkpt>
      <trkpt lat="4.3269190" lon="-76.2765580">
        <ele>1805.2</ele>
        <time>2022-08-14T20:44:45Z</time>
      </trkpt>
      <trkpt lat="4.3268700" lon="-76.2765720">
        <ele>1805.0</ele>
        <time>2022-08-14T20:44:46Z</time>
      </trkpt>
      <trkpt lat="4.3267860" lon="-76.2766150">
        <ele>1804.6</ele>
        <time>2022-08-14T20:44:48Z</time>
      </trkpt>
      <trkpt lat="4.3267180" lon="-76.2767000">
        <ele>1804.4</ele>
        <time>2022-08-14T20:44:50Z</time>
      </trkpt>
      <trkpt lat="4.3265270" lon="-76.2769400">
        <ele>1803.8</ele>
        <time>2022-08-14T20:44:55Z</time>
      </trkpt>
      <trkpt lat="4.3264810" lon="-76.2769820">
        <ele>1803.8</ele>
        <time>2022-08-14T20:44:56Z</time>
      </trkpt>
      <trkpt lat="4.3264350" lon="-76.2770240">
        <ele>1803.6</ele>
        <time>2022-08-14T20:44:57Z</time>
      </trkpt>
      <trkpt lat="4.3263330" lon="-76.2770960">
        <ele>1803.4</ele>
        <time>2022-08-14T20:44:59Z</time>
      </trkpt>
      <trkpt lat="4.3262270" lon="-76.2771570">
        <ele>1802.8</ele>
        <time>2022-08-14T20:45:01Z</time>
      </trkpt>
      <trkpt lat="4.3261790" lon="-76.2771910">
        <ele>1802.6</ele>
        <time>2022-08-14T20:45:02Z</time>
      </trkpt>
      <trkpt lat="4.3260900" lon="-76.2772600">
        <ele>1802.0</ele>
        <time>2022-08-14T20:45:04Z</time>
      </trkpt>
      <trkpt lat="4.3260520" lon="-76.2773000">
        <ele>1801.6</ele>
        <time>2022-08-14T20:45:05Z</time>
      </trkpt>
      <trkpt lat="4.3259440" lon="-76.2774420">
        <ele>1800.8</ele>
        <time>2022-08-14T20:45:08Z</time>
      </trkpt>
      <trkpt lat="4.3259040" lon="-76.2775030">
        <ele>1800.8</ele>
        <time>2022-08-14T20:45:09Z</time>
      </trkpt>
      <trkpt lat="4.3258420" lon="-76.2776020">
        <ele>1800.4</ele>
        <time>2022-08-14T20:45:11Z</time>
      </trkpt>
      <trkpt lat="4.3256640" lon="-76.2777240">
        <ele>1800.0</ele>
        <time>2022-08-14T20:45:15Z</time>
      </trkpt>
      <trkpt lat="4.3256160" lon="-76.2777430">
        <ele>1799.8</ele>
        <time>2022-08-14T20:45:16Z</time>
      </trkpt>
      <trkpt lat="4.3253310" lon="-76.2778410">
        <ele>1798.6</ele>
        <time>2022-08-14T20:45:22Z</time>
      </trkpt>
      <trkpt lat="4.3252700" lon="-76.2778540">
        <ele>1798.4</ele>
        <time>2022-08-14T20:45:23Z</time>
      </trkpt>
      <trkpt lat="4.3252210" lon="-76.2778540">
        <ele>1798.2</ele>
        <time>2022-08-14T20:45:24Z</time>
      </trkpt>
      <trkpt lat="4.3251740" lon="-76.2778430">
        <ele>1798.2</ele>
        <time>2022-08-14T20:45:25Z</time>
      </trkpt>
      <trkpt lat="4.3250370" lon="-76.2777850">
        <ele>1797.2</ele>
        <time>2022-08-14T20:45:28Z</time>
      </trkpt>
      <trkpt lat="4.3249160" lon="-76.2777200">
        <ele>1796.4</ele>
        <time>2022-08-14T20:45:31Z</time>
      </trkpt>
      <trkpt lat="4.3248830" lon="-76.2776910">
        <ele>1796.0</ele>
        <time>2022-08-14T20:45:32Z</time>
      </trkpt>
      <trkpt lat="4.3248550" lon="-76.2776570">
        <ele>1796.0</ele>
        <time>2022-08-14T20:45:33Z</time>
      </trkpt>
      <trkpt lat="4.3248300" lon="-76.2776220">
        <ele>1795.8</ele>
        <time>2022-08-14T20:45:34Z</time>
      </trkpt>
      <trkpt lat="4.3247980" lon="-76.2775330">
        <ele>1795.4</ele>
        <time>2022-08-14T20:45:36Z</time>
      </trkpt>
      <trkpt lat="4.3247950" lon="-76.2774770">
        <ele>1795.4</ele>
        <time>2022-08-14T20:45:37Z</time>
      </trkpt>
      <trkpt lat="4.3247980" lon="-76.2772430">
        <ele>1795.0</ele>
        <time>2022-08-14T20:45:41Z</time>
      </trkpt>
      <trkpt lat="4.3248020" lon="-76.2771760">
        <ele>1794.6</ele>
        <time>2022-08-14T20:45:42Z</time>
      </trkpt>
      <trkpt lat="4.3248190" lon="-76.2768820">
        <ele>1793.8</ele>
        <time>2022-08-14T20:45:46Z</time>
      </trkpt>
      <trkpt lat="4.3248280" lon="-76.2767380">
        <ele>1793.0</ele>
        <time>2022-08-14T20:45:48Z</time>
      </trkpt>
      <trkpt lat="4.3248230" lon="-76.2766550">
        <ele>1792.2</ele>
        <time>2022-08-14T20:45:49Z</time>
      </trkpt>
      <trkpt lat="4.3247870" lon="-76.2765460">
        <ele>1791.2</ele>
        <time>2022-08-14T20:45:51Z</time>
      </trkpt>
      <trkpt lat="4.3247540" lon="-76.2764950">
        <ele>1790.6</ele>
        <time>2022-08-14T20:45:52Z</time>
      </trkpt>
      <trkpt lat="4.3247100" lon="-76.2764560">
        <ele>1790.0</ele>
        <time>2022-08-14T20:45:53Z</time>
      </trkpt>
      <trkpt lat="4.3245990" lon="-76.2764290">
        <ele>1788.8</ele>
        <time>2022-08-14T20:45:55Z</time>
      </trkpt>
      <trkpt lat="4.3245410" lon="-76.2764250">
        <ele>1788.0</ele>
        <time>2022-08-14T20:45:56Z</time>
      </trkpt>
      <trkpt lat="4.3244420" lon="-76.2764510">
        <ele>1787.4</ele>
        <time>2022-08-14T20:45:58Z</time>
      </trkpt>
      <trkpt lat="4.3243620" lon="-76.2765100">
        <ele>1787.0</ele>
        <time>2022-08-14T20:46:00Z</time>
      </trkpt>
      <trkpt lat="4.3243000" lon="-76.2765800">
        <ele>1786.8</ele>
        <time>2022-08-14T20:46:02Z</time>
      </trkpt>
      <trkpt lat="4.3242430" lon="-76.2766430">
        <ele>1786.6</ele>
        <time>2022-08-14T20:46:04Z</time>
      </trkpt>
      <trkpt lat="4.3241710" lon="-76.2766880">
        <ele>1786.2</ele>
        <time>2022-08-14T20:46:06Z</time>
      </trkpt>
      <trkpt lat="4.3241310" lon="-76.2767020">
        <ele>1786.0</ele>
        <time>2022-08-14T20:46:07Z</time>
      </trkpt>
      <trkpt lat="4.3240870" lon="-76.2767120">
        <ele>1784.8</ele>
        <time>2022-08-14T20:46:08Z</time>
      </trkpt>
      <trkpt lat="4.3240390" lon="-76.2767200">
        <ele>1783.4</ele>
        <time>2022-08-14T20:46:09Z</time>
      </trkpt>
      <trkpt lat="4.3239890" lon="-76.2767260">
        <ele>1782.8</ele>
        <time>2022-08-14T20:46:10Z</time>
      </trkpt>
      <trkpt lat="4.3239370" lon="-76.2767280">
        <ele>1782.4</ele>
        <time>2022-08-14T20:46:11Z</time>
      </trkpt>
      <trkpt lat="4.3238880" lon="-76.2767320">
        <ele>1782.2</ele>
        <time>2022-08-14T20:46:12Z</time>
      </trkpt>
      <trkpt lat="4.3237980" lon="-76.2767720">
        <ele>1781.0</ele>
        <time>2022-08-14T20:46:14Z</time>
      </trkpt>
      <trkpt lat="4.3237590" lon="-76.2768070">
        <ele>1780.6</ele>
        <time>2022-08-14T20:46:15Z</time>
      </trkpt>
      <trkpt lat="4.3237210" lon="-76.2768510">
        <ele>1780.2</ele>
        <time>2022-08-14T20:46:16Z</time>
      </trkpt>
      <trkpt lat="4.3236850" lon="-76.2768970">
        <ele>1779.8</ele>
        <time>2022-08-14T20:46:17Z</time>
      </trkpt>
      <trkpt lat="4.3236470" lon="-76.2769380">
        <ele>1779.2</ele>
        <time>2022-08-14T20:46:18Z</time>
      </trkpt>
      <trkpt lat="4.3236030" lon="-76.2769700">
        <ele>1778.4</ele>
        <time>2022-08-14T20:46:19Z</time>
      </trkpt>
      <trkpt lat="4.3235580" lon="-76.2769920">
        <ele>1778.0</ele>
        <time>2022-08-14T20:46:20Z</time>
      </trkpt>
      <trkpt lat="4.3234640" lon="-76.2770090">
        <ele>1777.8</ele>
        <time>2022-08-14T20:46:22Z</time>
      </trkpt>
      <trkpt lat="4.3234180" lon="-76.2770060">
        <ele>1777.6</ele>
        <time>2022-08-14T20:46:23Z</time>
      </trkpt>
      <trkpt lat="4.3233710" lon="-76.2770020">
        <ele>1777.4</ele>
        <time>2022-08-14T20:46:24Z</time>
      </trkpt>
      <trkpt lat="4.3232810" lon="-76.2770070">
        <ele>1776.6</ele>
        <time>2022-08-14T20:46:26Z</time>
      </trkpt>
      <trkpt lat="4.3232360" lon="-76.2770230">
        <ele>1776.2</ele>
        <time>2022-08-14T20:46:27Z</time>
      </trkpt>
      <trkpt lat="4.3231910" lon="-76.2770430">
        <ele>1776.0</ele>
        <time>2022-08-14T20:46:28Z</time>
      </trkpt>
      <trkpt lat="4.3231460" lon="-76.2770670">
        <ele>1775.4</ele>
        <time>2022-08-14T20:46:29Z</time>
      </trkpt>
      <trkpt lat="4.3230980" lon="-76.2770920">
        <ele>1775.2</ele>
        <time>2022-08-14T20:46:30Z</time>
      </trkpt>
      <trkpt lat="4.3230460" lon="-76.2771140">
        <ele>1775.0</ele>
        <time>2022-08-14T20:46:31Z</time>
      </trkpt>
      <trkpt lat="4.3229370" lon="-76.2771360">
        <ele>1774.6</ele>
        <time>2022-08-14T20:46:33Z</time>
      </trkpt>
      <trkpt lat="4.3228820" lon="-76.2771400">
        <ele>1774.0</ele>
        <time>2022-08-14T20:46:34Z</time>
      </trkpt>
      <trkpt lat="4.3227200" lon="-76.2771370">
        <ele>1772.4</ele>
        <time>2022-08-14T20:46:37Z</time>
      </trkpt>
      <trkpt lat="4.3226710" lon="-76.2771360">
        <ele>1772.0</ele>
        <time>2022-08-14T20:46:38Z</time>
      </trkpt>
      <trkpt lat="4.3225710" lon="-76.2771370">
        <ele>1771.2</ele>
        <time>2022-08-14T20:46:40Z</time>
      </trkpt>
      <trkpt lat="4.3224170" lon="-76.2771340">
        <ele>1769.0</ele>
        <time>2022-08-14T20:46:43Z</time>
      </trkpt>
      <trkpt lat="4.3223230" lon="-76.2771460">
        <ele>1768.4</ele>
        <time>2022-08-14T20:46:45Z</time>
      </trkpt>
      <trkpt lat="4.3222810" lon="-76.2771700">
        <ele>1767.4</ele>
        <time>2022-08-14T20:46:46Z</time>
      </trkpt>
      <trkpt lat="4.3222430" lon="-76.2771980">
        <ele>1766.8</ele>
        <time>2022-08-14T20:46:47Z</time>
      </trkpt>
      <trkpt lat="4.3222020" lon="-76.2772350">
        <ele>1766.2</ele>
        <time>2022-08-14T20:46:48Z</time>
      </trkpt>
      <trkpt lat="4.3220190" lon="-76.2774550">
        <ele>1764.6</ele>
        <time>2022-08-14T20:46:52Z</time>
      </trkpt>
      <trkpt lat="4.3218500" lon="-76.2776660">
        <ele>1762.8</ele>
        <time>2022-08-14T20:46:55Z</time>
      </trkpt>
      <trkpt lat="4.3217940" lon="-76.2777390">
        <ele>1762.2</ele>
        <time>2022-08-14T20:46:56Z</time>
      </trkpt>
      <trkpt lat="4.3217450" lon="-76.2778190">
        <ele>1761.8</ele>
        <time>2022-08-14T20:46:57Z</time>
      </trkpt>
      <trkpt lat="4.3216680" lon="-76.2779950">
        <ele>1760.0</ele>
        <time>2022-08-14T20:46:59Z</time>
      </trkpt>
      <trkpt lat="4.3216260" lon="-76.2780810">
        <ele>1759.2</ele>
        <time>2022-08-14T20:47:00Z</time>
      </trkpt>
      <trkpt lat="4.3215750" lon="-76.2781600">
        <ele>1758.2</ele>
        <time>2022-08-14T20:47:01Z</time>
      </trkpt>
      <trkpt lat="4.3214590" lon="-76.2783070">
        <ele>1756.2</ele>
        <time>2022-08-14T20:47:03Z</time>
      </trkpt>
      <trkpt lat="4.3213950" lon="-76.2783750">
        <ele>1755.2</ele>
        <time>2022-08-14T20:47:04Z</time>
      </trkpt>
      <trkpt lat="4.3212630" lon="-76.2785050">
        <ele>1753.8</ele>
        <time>2022-08-14T20:47:06Z</time>
      </trkpt>
      <trkpt lat="4.3211960" lon="-76.2785670">
        <ele>1752.6</ele>
        <time>2022-08-14T20:47:07Z</time>
      </trkpt>
      <trkpt lat="4.3210270" lon="-76.2787400">
        <ele>1751.2</ele>
        <time>2022-08-14T20:47:10Z</time>
      </trkpt>
      <trkpt lat="4.3209890" lon="-76.2787880">
        <ele>1750.0</ele>
        <time>2022-08-14T20:47:11Z</time>
      </trkpt>
      <trkpt lat="4.3209230" lon="-76.2788900">
        <ele>1748.4</ele>
        <time>2022-08-14T20:47:13Z</time>
      </trkpt>
      <trkpt lat="4.3208880" lon="-76.2789480">
        <ele>1747.4</ele>
        <time>2022-08-14T20:47:14Z</time>
      </trkpt>
      <trkpt lat="4.3208540" lon="-76.2790070">
        <ele>1746.0</ele>
        <time>2022-08-14T20:47:15Z</time>
      </trkpt>
      <trkpt lat="4.3208260" lon="-76.2790650">
        <ele>1744.8</ele>
        <time>2022-08-14T20:47:16Z</time>
      </trkpt>
      <trkpt lat="4.3207390" lon="-76.2792300">
        <ele>1743.4</ele>
        <time>2022-08-14T20:47:19Z</time>
      </trkpt>
      <trkpt lat="4.3206960" lon="-76.2792720">
        <ele>1742.2</ele>
        <time>2022-08-14T20:47:20Z</time>
      </trkpt>
      <trkpt lat="4.3206480" lon="-76.2793040">
        <ele>1741.6</ele>
        <time>2022-08-14T20:47:21Z</time>
      </trkpt>
      <trkpt lat="4.3205900" lon="-76.2793300">
        <ele>1740.8</ele>
        <time>2022-08-14T20:47:22Z</time>
      </trkpt>
      <trkpt lat="4.3204030" lon="-76.2793990">
        <ele>1739.2</ele>
        <time>2022-08-14T20:47:25Z</time>
      </trkpt>
      <trkpt lat="4.3203430" lon="-76.2794280">
        <ele>1738.6</ele>
        <time>2022-08-14T20:47:26Z</time>
      </trkpt>
      <trkpt lat="4.3202290" lon="-76.2794930">
        <ele>1738.0</ele>
        <time>2022-08-14T20:47:28Z</time>
      </trkpt>
      <trkpt lat="4.3201180" lon="-76.2795710">
        <ele>1737.0</ele>
        <time>2022-08-14T20:47:30Z</time>
      </trkpt>
      <trkpt lat="4.3198770" lon="-76.2797630">
        <ele>1735.0</ele>
        <time>2022-08-14T20:47:34Z</time>
      </trkpt>
      <trkpt lat="4.3198300" lon="-76.2798010">
        <ele>1733.8</ele>
        <time>2022-08-14T20:47:35Z</time>
      </trkpt>
      <trkpt lat="4.3197280" lon="-76.2798950">
        <ele>1732.4</ele>
        <time>2022-08-14T20:47:37Z</time>
      </trkpt>
      <trkpt lat="4.3196870" lon="-76.2799380">
        <ele>1731.8</ele>
        <time>2022-08-14T20:47:38Z</time>
      </trkpt>
      <trkpt lat="4.3196560" lon="-76.2799850">
        <ele>1730.6</ele>
        <time>2022-08-14T20:47:39Z</time>
      </trkpt>
      <trkpt lat="4.3196390" lon="-76.2800390">
        <ele>1729.8</ele>
        <time>2022-08-14T20:47:40Z</time>
      </trkpt>
      <trkpt lat="4.3196370" lon="-76.2800940">
        <ele>1729.2</ele>
        <time>2022-08-14T20:47:41Z</time>
      </trkpt>
      <trkpt lat="4.3196520" lon="-76.2801490">
        <ele>1728.2</ele>
        <time>2022-08-14T20:47:42Z</time>
      </trkpt>
      <trkpt lat="4.3196750" lon="-76.2802040">
        <ele>1727.6</ele>
        <time>2022-08-14T20:47:43Z</time>
      </trkpt>
      <trkpt lat="4.3197070" lon="-76.2802550">
        <ele>1726.8</ele>
        <time>2022-08-14T20:47:44Z</time>
      </trkpt>
      <trkpt lat="4.3197550" lon="-76.2803110">
        <ele>1726.6</ele>
        <time>2022-08-14T20:47:45Z</time>
      </trkpt>
      <trkpt lat="4.3197890" lon="-76.2803450">
        <ele>1726.2</ele>
        <time>2022-08-14T20:47:46Z</time>
      </trkpt>
      <trkpt lat="4.3198210" lon="-76.2804430">
        <ele>1725.2</ele>
        <time>2022-08-14T20:47:48Z</time>
      </trkpt>
      <trkpt lat="4.3198130" lon="-76.2804760">
        <ele>1725.0</ele>
        <time>2022-08-14T20:47:49Z</time>
      </trkpt>
      <trkpt lat="4.3197910" lon="-76.2805070">
        <ele>1724.6</ele>
        <time>2022-08-14T20:47:50Z</time>
      </trkpt>
      <trkpt lat="4.3197120" lon="-76.2805380">
        <ele>1723.8</ele>
        <time>2022-08-14T20:47:52Z</time>
      </trkpt>
      <trkpt lat="4.3196650" lon="-76.2805290">
        <ele>1723.6</ele>
        <time>2022-08-14T20:47:53Z</time>
      </trkpt>
      <trkpt lat="4.3195800" lon="-76.2804950">
        <ele>1723.4</ele>
        <time>2022-08-14T20:47:55Z</time>
      </trkpt>
      <trkpt lat="4.3195310" lon="-76.2804740">
        <ele>1723.2</ele>
        <time>2022-08-14T20:47:56Z</time>
      </trkpt>
      <trkpt lat="4.3194870" lon="-76.2804470">
        <ele>1723.2</ele>
        <time>2022-08-14T20:47:57Z</time>
      </trkpt>
      <trkpt lat="4.3193730" lon="-76.2803690">
        <ele>1723.0</ele>
        <time>2022-08-14T20:48:00Z</time>
      </trkpt>
      <trkpt lat="4.3193330" lon="-76.2803500">
        <ele>1722.8</ele>
        <time>2022-08-14T20:48:01Z</time>
      </trkpt>
      <trkpt lat="4.3192930" lon="-76.2803340">
        <ele>1722.8</ele>
        <time>2022-08-14T20:48:02Z</time>
      </trkpt>
      <trkpt lat="4.3192040" lon="-76.2803320">
        <ele>1722.8</ele>
        <time>2022-08-14T20:48:04Z</time>
      </trkpt>
      <trkpt lat="4.3191650" lon="-76.2803450">
        <ele>1722.8</ele>
        <time>2022-08-14T20:48:05Z</time>
      </trkpt>
      <trkpt lat="4.3190400" lon="-76.2804150">
        <ele>1722.8</ele>
        <time>2022-08-14T20:48:08Z</time>
      </trkpt>
      <trkpt lat="4.3189230" lon="-76.2804920">
        <ele>1722.4</ele>
        <time>2022-08-14T20:48:11Z</time>
      </trkpt>
      <trkpt lat="4.3187560" lon="-76.2805990">
        <ele>1721.8</ele>
        <time>2022-08-14T20:48:15Z</time>
      </trkpt>
      <trkpt lat="4.3185780" lon="-76.2807070">
        <ele>1721.2</ele>
        <time>2022-08-14T20:48:19Z</time>
      </trkpt>
      <trkpt lat="4.3183990" lon="-76.2808490">
        <ele>1720.6</ele>
        <time>2022-08-14T20:48:23Z</time>
      </trkpt>
      <trkpt lat="4.3183120" lon="-76.2809280">
        <ele>1720.4</ele>
        <time>2022-08-14T20:48:25Z</time>
      </trkpt>
      <trkpt lat="4.3182640" lon="-76.2809660">
        <ele>1720.2</ele>
        <time>2022-08-14T20:48:26Z</time>
      </trkpt>
      <trkpt lat="4.3180430" lon="-76.2811030">
        <ele>1719.6</ele>
        <time>2022-08-14T20:48:30Z</time>
      </trkpt>
      <trkpt lat="4.3178750" lon="-76.2812140">
        <ele>1718.6</ele>
        <time>2022-08-14T20:48:33Z</time>
      </trkpt>
      <trkpt lat="4.3176480" lon="-76.2813820">
        <ele>1717.6</ele>
        <time>2022-08-14T20:48:37Z</time>
      </trkpt>
      <trkpt lat="4.3175900" lon="-76.2814240">
        <ele>1717.4</ele>
        <time>2022-08-14T20:48:38Z</time>
      </trkpt>
      <trkpt lat="4.3174680" lon="-76.2815110">
        <ele>1716.2</ele>
        <time>2022-08-14T20:48:40Z</time>
      </trkpt>
      <trkpt lat="4.3173410" lon="-76.2816060">
        <ele>1714.8</ele>
        <time>2022-08-14T20:48:42Z</time>
      </trkpt>
      <trkpt lat="4.3171610" lon="-76.2817590">
        <ele>1714.4</ele>
        <time>2022-08-14T20:48:45Z</time>
      </trkpt>
      <trkpt lat="4.3170000" lon="-76.2819000">
        <ele>1713.8</ele>
        <time>2022-08-14T20:48:48Z</time>
      </trkpt>
      <trkpt lat="4.3168720" lon="-76.2820500">
        <ele>1712.4</ele>
        <time>2022-08-14T20:48:51Z</time>
      </trkpt>
      <trkpt lat="4.3167930" lon="-76.2821410">
        <ele>1711.2</ele>
        <time>2022-08-14T20:48:53Z</time>
      </trkpt>
      <trkpt lat="4.3167030" lon="-76.2822150">
        <ele>1710.8</ele>
        <time>2022-08-14T20:48:55Z</time>
      </trkpt>
      <trkpt lat="4.3165550" lon="-76.2823300">
        <ele>1710.0</ele>
        <time>2022-08-14T20:48:58Z</time>
      </trkpt>
      <trkpt lat="4.3164330" lon="-76.2824410">
        <ele>1709.0</ele>
        <time>2022-08-14T20:49:01Z</time>
      </trkpt>
      <trkpt lat="4.3163860" lon="-76.2824830">
        <ele>1708.8</ele>
        <time>2022-08-14T20:49:02Z</time>
      </trkpt>
      <trkpt lat="4.3160650" lon="-76.2827970">
        <ele>1708.0</ele>
        <time>2022-08-14T20:49:09Z</time>
      </trkpt>
      <trkpt lat="4.3160230" lon="-76.2828400">
        <ele>1707.6</ele>
        <time>2022-08-14T20:49:10Z</time>
      </trkpt>
      <trkpt lat="4.3158520" lon="-76.2830120">
        <ele>1706.8</ele>
        <time>2022-08-14T20:49:14Z</time>
      </trkpt>
      <trkpt lat="4.3158030" lon="-76.2830530">
        <ele>1706.6</ele>
        <time>2022-08-14T20:49:15Z</time>
      </trkpt>
      <trkpt lat="4.3157540" lon="-76.2830890">
        <ele>1706.2</ele>
        <time>2022-08-14T20:49:16Z</time>
      </trkpt>
      <trkpt lat="4.3155850" lon="-76.2832060">
        <ele>1705.4</ele>
        <time>2022-08-14T20:49:19Z</time>
      </trkpt>
      <trkpt lat="4.3153560" lon="-76.2833800">
        <ele>1705.0</ele>
        <time>2022-08-14T20:49:23Z</time>
      </trkpt>
      <trkpt lat="4.3153010" lon="-76.2834300">
        <ele>1704.8</ele>
        <time>2022-08-14T20:49:24Z</time>
      </trkpt>
      <trkpt lat="4.3151430" lon="-76.2835840">
        <ele>1704.4</ele>
        <time>2022-08-14T20:49:27Z</time>
      </trkpt>
      <trkpt lat="4.3148250" lon="-76.2837840">
        <ele>1703.8</ele>
        <time>2022-08-14T20:49:32Z</time>
      </trkpt>
      <trkpt lat="4.3146850" lon="-76.2838500">
        <ele>1703.0</ele>
        <time>2022-08-14T20:49:34Z</time>
      </trkpt>
      <trkpt lat="4.3146200" lon="-76.2838850">
        <ele>1702.6</ele>
        <time>2022-08-14T20:49:35Z</time>
      </trkpt>
      <trkpt lat="4.3144980" lon="-76.2839660">
        <ele>1702.0</ele>
        <time>2022-08-14T20:49:37Z</time>
      </trkpt>
      <trkpt lat="4.3142140" lon="-76.2841710">
        <ele>1700.8</ele>
        <time>2022-08-14T20:49:42Z</time>
      </trkpt>
      <trkpt lat="4.3141520" lon="-76.2842110">
        <ele>1700.4</ele>
        <time>2022-08-14T20:49:43Z</time>
      </trkpt>
      <trkpt lat="4.3138380" lon="-76.2844330">
        <ele>1699.6</ele>
        <time>2022-08-14T20:49:48Z</time>
      </trkpt>
      <trkpt lat="4.3136660" lon="-76.2845620">
        <ele>1699.6</ele>
        <time>2022-08-14T20:49:51Z</time>
      </trkpt>
      <trkpt lat="4.3132870" lon="-76.2848340">
        <ele>1699.0</ele>
        <time>2022-08-14T20:49:57Z</time>
      </trkpt>
      <trkpt lat="4.3132250" lon="-76.2848740">
        <ele>1698.8</ele>
        <time>2022-08-14T20:49:58Z</time>
      </trkpt>
      <trkpt lat="4.3131630" lon="-76.2849170">
        <ele>1698.4</ele>
        <time>2022-08-14T20:49:59Z</time>
      </trkpt>
      <trkpt lat="4.3130580" lon="-76.2850000">
        <ele>1697.4</ele>
        <time>2022-08-14T20:50:01Z</time>
      </trkpt>
      <trkpt lat="4.3129490" lon="-76.2851090">
        <ele>1696.8</ele>
        <time>2022-08-14T20:50:03Z</time>
      </trkpt>
      <trkpt lat="4.3128610" lon="-76.2852130">
        <ele>1696.6</ele>
        <time>2022-08-14T20:50:05Z</time>
      </trkpt>
      <trkpt lat="4.3127880" lon="-76.2853160">
        <ele>1696.4</ele>
        <time>2022-08-14T20:50:07Z</time>
      </trkpt>
      <trkpt lat="4.3127290" lon="-76.2853740">
        <ele>1696.2</ele>
        <time>2022-08-14T20:50:08Z</time>
      </trkpt>
      <trkpt lat="4.3126340" lon="-76.2854480">
        <ele>1696.0</ele>
        <time>2022-08-14T20:50:10Z</time>
      </trkpt>
      <trkpt lat="4.3125760" lon="-76.2854800">
        <ele>1695.8</ele>
        <time>2022-08-14T20:50:11Z</time>
      </trkpt>
      <trkpt lat="4.3124700" lon="-76.2855430">
        <ele>1695.2</ele>
        <time>2022-08-14T20:50:13Z</time>
      </trkpt>
      <trkpt lat="4.3123790" lon="-76.2856370">
        <ele>1694.8</ele>
        <time>2022-08-14T20:50:15Z</time>
      </trkpt>
      <trkpt lat="4.3123170" lon="-76.2857470">
        <ele>1694.8</ele>
        <time>2022-08-14T20:50:17Z</time>
      </trkpt>
      <trkpt lat="4.3122710" lon="-76.2858550">
        <ele>1694.4</ele>
        <time>2022-08-14T20:50:19Z</time>
      </trkpt>
      <trkpt lat="4.3122270" lon="-76.2859830">
        <ele>1694.2</ele>
        <time>2022-08-14T20:50:21Z</time>
      </trkpt>
      <trkpt lat="4.3122270" lon="-76.2860960">
        <ele>1694.0</ele>
        <time>2022-08-14T20:50:23Z</time>
      </trkpt>
      <trkpt lat="4.3122400" lon="-76.2861590">
        <ele>1693.8</ele>
        <time>2022-08-14T20:50:24Z</time>
      </trkpt>
      <trkpt lat="4.3122650" lon="-76.2862500">
        <ele>1693.8</ele>
        <time>2022-08-14T20:50:26Z</time>
      </trkpt>
      <trkpt lat="4.3122620" lon="-76.2862840">
        <ele>1693.8</ele>
        <time>2022-08-14T20:50:27Z</time>
      </trkpt>
      <trkpt lat="4.3122580" lon="-76.2863230">
        <ele>1693.8</ele>
        <time>2022-08-14T20:50:28Z</time>
      </trkpt>
      <trkpt lat="4.3121940" lon="-76.2863860">
        <ele>1693.6</ele>
        <time>2022-08-14T20:50:30Z</time>
      </trkpt>
      <trkpt lat="4.3121470" lon="-76.2863890">
        <ele>1693.6</ele>
        <time>2022-08-14T20:50:31Z</time>
      </trkpt>
      <trkpt lat="4.3120590" lon="-76.2863480">
        <ele>1693.6</ele>
        <time>2022-08-14T20:50:33Z</time>
      </trkpt>
      <trkpt lat="4.3119180" lon="-76.2862400">
        <ele>1693.6</ele>
        <time>2022-08-14T20:50:36Z</time>
      </trkpt>
      <trkpt lat="4.3118760" lon="-76.2862200">
        <ele>1693.6</ele>
        <time>2022-08-14T20:50:37Z</time>
      </trkpt>
      <trkpt lat="4.3118200" lon="-76.2862000">
        <ele>1693.4</ele>
        <time>2022-08-14T20:50:38Z</time>
      </trkpt>
      <trkpt lat="4.3116910" lon="-76.2861790">
        <ele>1693.4</ele>
        <time>2022-08-14T20:50:40Z</time>
      </trkpt>
      <trkpt lat="4.3116330" lon="-76.2861890">
        <ele>1693.4</ele>
        <time>2022-08-14T20:50:41Z</time>
      </trkpt>
      <trkpt lat="4.3115780" lon="-76.2862100">
        <ele>1693.2</ele>
        <time>2022-08-14T20:50:42Z</time>
      </trkpt>
      <trkpt lat="4.3114760" lon="-76.2862710">
        <ele>1692.6</ele>
        <time>2022-08-14T20:50:44Z</time>
      </trkpt>
      <trkpt lat="4.3114270" lon="-76.2863010">
        <ele>1692.6</ele>
        <time>2022-08-14T20:50:45Z</time>
      </trkpt>
      <trkpt lat="4.3113250" lon="-76.2863520">
        <ele>1691.4</ele>
        <time>2022-08-14T20:50:47Z</time>
      </trkpt>
      <trkpt lat="4.3112210" lon="-76.2864090">
        <ele>1690.4</ele>
        <time>2022-08-14T20:50:49Z</time>
      </trkpt>
      <trkpt lat="4.3111200" lon="-76.2864710">
        <ele>1690.0</ele>
        <time>2022-08-14T20:50:51Z</time>
      </trkpt>
      <trkpt lat="4.3110750" lon="-76.2865010">
        <ele>1690.0</ele>
        <time>2022-08-14T20:50:52Z</time>
      </trkpt>
      <trkpt lat="4.3108660" lon="-76.2867530">
        <ele>1689.4</ele>
        <time>2022-08-14T20:50:58Z</time>
      </trkpt>
      <trkpt lat="4.3108300" lon="-76.2867890">
        <ele>1689.4</ele>
        <time>2022-08-14T20:50:59Z</time>
      </trkpt>
      <trkpt lat="4.3107120" lon="-76.2868870">
        <ele>1688.8</ele>
        <time>2022-08-14T20:51:02Z</time>
      </trkpt>
      <trkpt lat="4.3106660" lon="-76.2869060">
        <ele>1688.8</ele>
        <time>2022-08-14T20:51:03Z</time>
      </trkpt>
      <trkpt lat="4.3106160" lon="-76.2869140">
        <ele>1688.6</ele>
        <time>2022-08-14T20:51:04Z</time>
      </trkpt>
      <trkpt lat="4.3105080" lon="-76.2869160">
        <ele>1688.6</ele>
        <time>2022-08-14T20:51:06Z</time>
      </trkpt>
      <trkpt lat="4.3104540" lon="-76.2869060">
        <ele>1688.6</ele>
        <time>2022-08-14T20:51:07Z</time>
      </trkpt>
      <trkpt lat="4.3101120" lon="-76.2867970">
        <ele>1688.4</ele>
        <time>2022-08-14T20:51:13Z</time>
      </trkpt>
      <trkpt lat="4.3100540" lon="-76.2867730">
        <ele>1688.2</ele>
        <time>2022-08-14T20:51:14Z</time>
      </trkpt>
      <trkpt lat="4.3099380" lon="-76.2867340">
        <ele>1688.2</ele>
        <time>2022-08-14T20:51:16Z</time>
      </trkpt>
      <trkpt lat="4.3098610" lon="-76.2867210">
        <ele>1688.2</ele>
        <time>2022-08-14T20:51:18Z</time>
      </trkpt>
      <trkpt lat="4.3098220" lon="-76.2867090">
        <ele>1688.0</ele>
        <time>2022-08-14T20:51:20Z</time>
      </trkpt>
      <trkpt lat="4.3098160" lon="-76.2867000">
        <ele>1688.0</ele>
        <time>2022-08-14T20:51:21Z</time>
      </trkpt>
      <trkpt lat="4.3098200" lon="-76.2866910">
        <ele>1688.0</ele>
        <time>2022-08-14T20:51:22Z</time>
      </trkpt>
      <trkpt lat="4.3098470" lon="-76.2866880">
        <ele>1687.8</ele>
        <time>2022-08-14T20:51:24Z</time>
      </trkpt>
      <trkpt lat="4.3099900" lon="-76.2867520">
        <ele>1687.4</ele>
        <time>2022-08-14T20:51:31Z</time>
      </trkpt>
      <trkpt lat="4.3100590" lon="-76.2868600">
        <ele>1687.4</ele>
        <time>2022-08-14T20:51:36Z</time>
      </trkpt>
      <trkpt lat="4.3099970" lon="-76.2869250">
        <ele>1687.4</ele>
        <time>2022-08-14T20:51:41Z</time>
      </trkpt>
      <trkpt lat="4.3098670" lon="-76.2869950">
        <ele>1689.4</ele>
        <time>2022-08-14T20:51:48Z</time>
      </trkpt>
      <trkpt lat="4.3098180" lon="-76.2870220">
        <ele>1690.0</ele>
        <time>2022-08-14T20:51:51Z</time>
      </trkpt>
      <trkpt lat="4.3098020" lon="-76.2870320">
        <ele>1690.4</ele>
        <time>2022-08-14T20:51:52Z</time>
      </trkpt>
      <trkpt lat="4.3097650" lon="-76.2870690">
        <ele>1691.4</ele>
        <time>2022-08-14T20:51:55Z</time>
      </trkpt>
      <trkpt lat="4.3097410" lon="-76.2870990">
        <ele>1692.2</ele>
        <time>2022-08-14T20:51:57Z</time>
      </trkpt>
      <trkpt lat="4.3097240" lon="-76.2871370">
        <ele>1692.6</ele>
        <time>2022-08-14T20:51:59Z</time>
      </trkpt>
      <trkpt lat="4.3096950" lon="-76.2872260">
        <ele>1693.4</ele>
        <time>2022-08-14T20:52:04Z</time>
      </trkpt>
      <trkpt lat="4.3096960" lon="-76.2872450">
        <ele>1693.6</ele>
        <time>2022-08-14T20:52:05Z</time>
      </trkpt>
      <trkpt lat="4.3097350" lon="-76.2873540">
        <ele>1694.2</ele>
        <time>2022-08-14T20:52:11Z</time>
      </trkpt>
      <trkpt lat="4.3097820" lon="-76.2873910">
        <ele>1694.8</ele>
        <time>2022-08-14T20:52:14Z</time>
      </trkpt>
      <trkpt lat="4.3098020" lon="-76.2873950">
        <ele>1695.2</ele>
        <time>2022-08-14T20:52:15Z</time>
      </trkpt>
      <trkpt lat="4.3098230" lon="-76.2873990">
        <ele>1695.4</ele>
        <time>2022-08-14T20:52:16Z</time>
      </trkpt>
      <trkpt lat="4.3098610" lon="-76.2874040">
        <ele>1695.6</ele>
        <time>2022-08-14T20:52:18Z</time>
      </trkpt>
      <trkpt lat="4.3099230" lon="-76.2873900">
        <ele>1696.0</ele>
        <time>2022-08-14T20:52:21Z</time>
      </trkpt>
      <trkpt lat="4.3099600" lon="-76.2873740">
        <ele>1696.0</ele>
        <time>2022-08-14T20:52:23Z</time>
      </trkpt>
      <trkpt lat="4.3099750" lon="-76.2873640">
        <ele>1696.2</ele>
        <time>2022-08-14T20:52:24Z</time>
      </trkpt>
      <trkpt lat="4.3100370" lon="-76.2873270">
        <ele>1696.4</ele>
        <time>2022-08-14T20:52:28Z</time>
      </trkpt>
      <trkpt lat="4.3100850" lon="-76.2873010">
        <ele>1697.2</ele>
        <time>2022-08-14T20:52:31Z</time>
      </trkpt>
      <trkpt lat="4.3101010" lon="-76.2872920">
        <ele>1697.4</ele>
        <time>2022-08-14T20:52:32Z</time>
      </trkpt>
      <trkpt lat="4.3101710" lon="-76.2872480">
        <ele>1698.6</ele>
        <time>2022-08-14T20:52:37Z</time>
      </trkpt>
      <trkpt lat="4.3102750" lon="-76.2872190">
        <ele>1699.4</ele>
        <time>2022-08-14T20:52:43Z</time>
      </trkpt>
      <trkpt lat="4.3102950" lon="-76.2872210">
        <ele>1699.4</ele>
        <time>2022-08-14T20:52:44Z</time>
      </trkpt>
      <trkpt lat="4.3103150" lon="-76.2872260">
        <ele>1699.6</ele>
        <time>2022-08-14T20:52:45Z</time>
      </trkpt>
      <trkpt lat="4.3103260" lon="-76.2872300">
        <ele>1699.8</ele>
        <time>2022-08-14T20:52:46Z</time>
      </trkpt>
      <trkpt lat="4.3103800" lon="-76.2872340">
        <ele>1700.6</ele>
        <time>2022-08-14T20:52:51Z</time>
      </trkpt>
      <trkpt lat="4.3103890" lon="-76.2872370">
        <ele>1700.8</ele>
        <time>2022-08-14T20:52:52Z</time>
      </trkpt>
      <trkpt lat="4.3104020" lon="-76.2872600">
        <ele>1701.2</ele>
        <time>2022-08-14T20:52:54Z</time>
      </trkpt>
      <trkpt lat="4.3104000" lon="-76.2872740">
        <ele>1701.4</ele>
        <time>2022-08-14T20:52:55Z</time>
      </trkpt>
      <trkpt lat="4.3103940" lon="-76.2872820">
        <ele>1701.8</ele>
        <time>2022-08-14T20:52:56Z</time>
      </trkpt>
      <trkpt lat="4.3103880" lon="-76.2872870">
        <ele>1702.2</ele>
        <time>2022-08-14T20:52:57Z</time>
      </trkpt>
      <trkpt lat="4.3103580" lon="-76.2872760">
        <ele>1702.4</ele>
        <time>2022-08-14T20:53:00Z</time>
      </trkpt>
      <trkpt lat="4.3103520" lon="-76.2872680">
        <ele>1702.4</ele>
        <time>2022-08-14T20:53:01Z</time>
      </trkpt>
      <trkpt lat="4.3103370" lon="-76.2872410">
        <ele>1702.4</ele>
        <time>2022-08-14T20:53:07Z</time>
      </trkpt>
      <trkpt lat="4.3103350" lon="-76.2872410">
        <ele>1702.2</ele>
        <time>2022-08-14T20:53:09Z</time>
      </trkpt>
      <trkpt lat="4.3102780" lon="-76.2872450">
        <ele>1702.0</ele>
        <time>2022-08-14T20:53:11Z</time>
      </trkpt>
      <trkpt lat="4.3101250" lon="-76.2873260">
        <ele>1701.8</ele>
        <time>2022-08-14T20:53:15Z</time>
      </trkpt>
      <trkpt lat="4.3100230" lon="-76.2873810">
        <ele>1701.8</ele>
        <time>2022-08-14T20:53:17Z</time>
      </trkpt>
      <trkpt lat="4.3099380" lon="-76.2874130">
        <ele>1701.4</ele>
        <time>2022-08-14T20:53:19Z</time>
      </trkpt>
      <trkpt lat="4.3098890" lon="-76.2874210">
        <ele>1701.0</ele>
        <time>2022-08-14T20:53:20Z</time>
      </trkpt>
      <trkpt lat="4.3098400" lon="-76.2874220">
        <ele>1700.6</ele>
        <time>2022-08-14T20:53:21Z</time>
      </trkpt>
      <trkpt lat="4.3097500" lon="-76.2873870">
        <ele>1699.8</ele>
        <time>2022-08-14T20:53:23Z</time>
      </trkpt>
      <trkpt lat="4.3097180" lon="-76.2873510">
        <ele>1699.6</ele>
        <time>2022-08-14T20:53:24Z</time>
      </trkpt>
      <trkpt lat="4.3096940" lon="-76.2873040">
        <ele>1699.2</ele>
        <time>2022-08-14T20:53:25Z</time>
      </trkpt>
      <trkpt lat="4.3096790" lon="-76.2872060">
        <ele>1698.2</ele>
        <time>2022-08-14T20:53:27Z</time>
      </trkpt>
      <trkpt lat="4.3096900" lon="-76.2871620">
        <ele>1698.0</ele>
        <time>2022-08-14T20:53:28Z</time>
      </trkpt>
      <trkpt lat="4.3097100" lon="-76.2871170">
        <ele>1697.4</ele>
        <time>2022-08-14T20:53:29Z</time>
      </trkpt>
      <trkpt lat="4.3097340" lon="-76.2870770">
        <ele>1696.8</ele>
        <time>2022-08-14T20:53:30Z</time>
      </trkpt>
      <trkpt lat="4.3097990" lon="-76.2869960">
        <ele>1696.0</ele>
        <time>2022-08-14T20:53:32Z</time>
      </trkpt>
      <trkpt lat="4.3098340" lon="-76.2869680">
        <ele>1695.6</ele>
        <time>2022-08-14T20:53:33Z</time>
      </trkpt>
      <trkpt lat="4.3098720" lon="-76.2869450">
        <ele>1695.4</ele>
        <time>2022-08-14T20:53:34Z</time>
      </trkpt>
      <trkpt lat="4.3099800" lon="-76.2868880">
        <ele>1694.8</ele>
        <time>2022-08-14T20:53:37Z</time>
      </trkpt>
      <trkpt lat="4.3100050" lon="-76.2868650">
        <ele>1694.4</ele>
        <time>2022-08-14T20:53:38Z</time>
      </trkpt>
      <trkpt lat="4.3100240" lon="-76.2868090">
        <ele>1693.2</ele>
        <time>2022-08-14T20:53:40Z</time>
      </trkpt>
      <trkpt lat="4.3100200" lon="-76.2867770">
        <ele>1692.4</ele>
        <time>2022-08-14T20:53:41Z</time>
      </trkpt>
      <trkpt lat="4.3099990" lon="-76.2867480">
        <ele>1691.6</ele>
        <time>2022-08-14T20:53:42Z</time>
      </trkpt>
      <trkpt lat="4.3099570" lon="-76.2867230">
        <ele>1691.0</ele>
        <time>2022-08-14T20:53:43Z</time>
      </trkpt>
      <trkpt lat="4.3098770" lon="-76.2867040">
        <ele>1690.0</ele>
        <time>2022-08-14T20:53:45Z</time>
      </trkpt>
      <trkpt lat="4.3097400" lon="-76.2866750">
        <ele>1688.8</ele>
        <time>2022-08-14T20:53:48Z</time>
      </trkpt>
      <trkpt lat="4.3096460" lon="-76.2866610">
        <ele>1688.4</ele>
        <time>2022-08-14T20:53:50Z</time>
      </trkpt>
      <trkpt lat="4.3094650" lon="-76.2866580">
        <ele>1687.8</ele>
        <time>2022-08-14T20:53:53Z</time>
      </trkpt>
      <trkpt lat="4.3091120" lon="-76.2866740">
        <ele>1687.2</ele>
        <time>2022-08-14T20:53:58Z</time>
      </trkpt>
      <trkpt lat="4.3090190" lon="-76.2866710">
        <ele>1686.8</ele>
        <time>2022-08-14T20:53:59Z</time>
      </trkpt>
      <trkpt lat="4.3088020" lon="-76.2866780">
        <ele>1686.0</ele>
        <time>2022-08-14T20:54:02Z</time>
      </trkpt>
      <trkpt lat="4.3087320" lon="-76.2866760">
        <ele>1685.6</ele>
        <time>2022-08-14T20:54:03Z</time>
      </trkpt>
      <trkpt lat="4.3085570" lon="-76.2866640">
        <ele>1684.6</ele>
        <time>2022-08-14T20:54:06Z</time>
      </trkpt>
      <trkpt lat="4.3085090" lon="-76.2866420">
        <ele>1684.2</ele>
        <time>2022-08-14T20:54:07Z</time>
      </trkpt>
      <trkpt lat="4.3084630" lon="-76.2866080">
        <ele>1684.0</ele>
        <time>2022-08-14T20:54:08Z</time>
      </trkpt>
      <trkpt lat="4.3083970" lon="-76.2865170">
        <ele>1682.4</ele>
        <time>2022-08-14T20:54:10Z</time>
      </trkpt>
      <trkpt lat="4.3083400" lon="-76.2864130">
        <ele>1681.4</ele>
        <time>2022-08-14T20:54:12Z</time>
      </trkpt>
      <trkpt lat="4.3082570" lon="-76.2862530">
        <ele>1681.0</ele>
        <time>2022-08-14T20:54:15Z</time>
      </trkpt>
      <trkpt lat="4.3081720" lon="-76.2860900">
        <ele>1680.8</ele>
        <time>2022-08-14T20:54:18Z</time>
      </trkpt>
      <trkpt lat="4.3080440" lon="-76.2859570">
        <ele>1680.6</ele>
        <time>2022-08-14T20:54:21Z</time>
      </trkpt>
      <trkpt lat="4.3079370" lon="-76.2858960">
        <ele>1680.4</ele>
        <time>2022-08-14T20:54:23Z</time>
      </trkpt>
      <trkpt lat="4.3077670" lon="-76.2858450">
        <ele>1680.4</ele>
        <time>2022-08-14T20:54:26Z</time>
      </trkpt>
      <trkpt lat="4.3076510" lon="-76.2858190">
        <ele>1680.4</ele>
        <time>2022-08-14T20:54:28Z</time>
      </trkpt>
      <trkpt lat="4.3075290" lon="-76.2857790">
        <ele>1680.2</ele>
        <time>2022-08-14T20:54:30Z</time>
      </trkpt>
      <trkpt lat="4.3074250" lon="-76.2857070">
        <ele>1680.2</ele>
        <time>2022-08-14T20:54:32Z</time>
      </trkpt>
      <trkpt lat="4.3072890" lon="-76.2855740">
        <ele>1680.2</ele>
        <time>2022-08-14T20:54:35Z</time>
      </trkpt>
      <trkpt lat="4.3071760" lon="-76.2855110">
        <ele>1680.0</ele>
        <time>2022-08-14T20:54:37Z</time>
      </trkpt>
      <trkpt lat="4.3067970" lon="-76.2853910">
        <ele>1679.4</ele>
        <time>2022-08-14T20:54:43Z</time>
      </trkpt>
      <trkpt lat="4.3067280" lon="-76.2853750">
        <ele>1679.2</ele>
        <time>2022-08-14T20:54:44Z</time>
      </trkpt>
      <trkpt lat="4.3065890" lon="-76.2853550">
        <ele>1678.6</ele>
        <time>2022-08-14T20:54:46Z</time>
      </trkpt>
      <trkpt lat="4.3065220" lon="-76.2853570">
        <ele>1678.2</ele>
        <time>2022-08-14T20:54:47Z</time>
      </trkpt>
      <trkpt lat="4.3064550" lon="-76.2853630">
        <ele>1677.8</ele>
        <time>2022-08-14T20:54:48Z</time>
      </trkpt>
      <trkpt lat="4.3063300" lon="-76.2854130">
        <ele>1677.0</ele>
        <time>2022-08-14T20:54:50Z</time>
      </trkpt>
      <trkpt lat="4.3062760" lon="-76.2854560">
        <ele>1676.8</ele>
        <time>2022-08-14T20:54:51Z</time>
      </trkpt>
      <trkpt lat="4.3061220" lon="-76.2856090">
        <ele>1676.6</ele>
        <time>2022-08-14T20:54:54Z</time>
      </trkpt>
      <trkpt lat="4.3059930" lon="-76.2856730">
        <ele>1675.4</ele>
        <time>2022-08-14T20:54:56Z</time>
      </trkpt>
      <trkpt lat="4.3057650" lon="-76.2856520">
        <ele>1674.0</ele>
        <time>2022-08-14T20:54:59Z</time>
      </trkpt>
      <trkpt lat="4.3056910" lon="-76.2856350">
        <ele>1673.6</ele>
        <time>2022-08-14T20:55:00Z</time>
      </trkpt>
      <trkpt lat="4.3055450" lon="-76.2856050">
        <ele>1673.0</ele>
        <time>2022-08-14T20:55:02Z</time>
      </trkpt>
      <trkpt lat="4.3054730" lon="-76.2855990">
        <ele>1672.6</ele>
        <time>2022-08-14T20:55:03Z</time>
      </trkpt>
      <trkpt lat="4.3054040" lon="-76.2855990">
        <ele>1672.2</ele>
        <time>2022-08-14T20:55:04Z</time>
      </trkpt>
      <trkpt lat="4.3053380" lon="-76.2856080">
        <ele>1672.0</ele>
        <time>2022-08-14T20:55:05Z</time>
      </trkpt>
      <trkpt lat="4.3052750" lon="-76.2856250">
        <ele>1671.6</ele>
        <time>2022-08-14T20:55:06Z</time>
      </trkpt>
      <trkpt lat="4.3051540" lon="-76.2856470">
        <ele>1671.0</ele>
        <time>2022-08-14T20:55:08Z</time>
      </trkpt>
      <trkpt lat="4.3050920" lon="-76.2856410">
        <ele>1670.8</ele>
        <time>2022-08-14T20:55:09Z</time>
      </trkpt>
      <trkpt lat="4.3050330" lon="-76.2856170">
        <ele>1670.6</ele>
        <time>2022-08-14T20:55:10Z</time>
      </trkpt>
      <trkpt lat="4.3049860" lon="-76.2855770">
        <ele>1670.6</ele>
        <time>2022-08-14T20:55:11Z</time>
      </trkpt>
      <trkpt lat="4.3049460" lon="-76.2855270">
        <ele>1670.4</ele>
        <time>2022-08-14T20:55:12Z</time>
      </trkpt>
      <trkpt lat="4.3048330" lon="-76.2853600">
        <ele>1669.8</ele>
        <time>2022-08-14T20:55:15Z</time>
      </trkpt>
      <trkpt lat="4.3047890" lon="-76.2853160">
        <ele>1669.6</ele>
        <time>2022-08-14T20:55:16Z</time>
      </trkpt>
      <trkpt lat="4.3047430" lon="-76.2852800">
        <ele>1669.6</ele>
        <time>2022-08-14T20:55:17Z</time>
      </trkpt>
      <trkpt lat="4.3046460" lon="-76.2852550">
        <ele>1669.0</ele>
        <time>2022-08-14T20:55:19Z</time>
      </trkpt>
      <trkpt lat="4.3045730" lon="-76.2853150">
        <ele>1668.6</ele>
        <time>2022-08-14T20:55:21Z</time>
      </trkpt>
      <trkpt lat="4.3045590" lon="-76.2853680">
        <ele>1668.4</ele>
        <time>2022-08-14T20:55:22Z</time>
      </trkpt>
      <trkpt lat="4.3045590" lon="-76.2854300">
        <ele>1668.4</ele>
        <time>2022-08-14T20:55:23Z</time>
      </trkpt>
      <trkpt lat="4.3045310" lon="-76.2856360">
        <ele>1667.4</ele>
        <time>2022-08-14T20:55:26Z</time>
      </trkpt>
      <trkpt lat="4.3044960" lon="-76.2857050">
        <ele>1667.2</ele>
        <time>2022-08-14T20:55:27Z</time>
      </trkpt>
      <trkpt lat="4.3044060" lon="-76.2858230">
        <ele>1666.4</ele>
        <time>2022-08-14T20:55:29Z</time>
      </trkpt>
      <trkpt lat="4.3043640" lon="-76.2858680">
        <ele>1666.0</ele>
        <time>2022-08-14T20:55:30Z</time>
      </trkpt>
      <trkpt lat="4.3043160" lon="-76.2858920">
        <ele>1665.4</ele>
        <time>2022-08-14T20:55:31Z</time>
      </trkpt>
      <trkpt lat="4.3042670" lon="-76.2858990">
        <ele>1664.6</ele>
        <time>2022-08-14T20:55:32Z</time>
      </trkpt>
      <trkpt lat="4.3042180" lon="-76.2858860">
        <ele>1663.8</ele>
        <time>2022-08-14T20:55:33Z</time>
      </trkpt>
      <trkpt lat="4.3041630" lon="-76.2858730">
        <ele>1663.2</ele>
        <time>2022-08-14T20:55:34Z</time>
      </trkpt>
      <trkpt lat="4.3041110" lon="-76.2858740">
        <ele>1662.2</ele>
        <time>2022-08-14T20:55:35Z</time>
      </trkpt>
      <trkpt lat="4.3040580" lon="-76.2858890">
        <ele>1661.4</ele>
        <time>2022-08-14T20:55:36Z</time>
      </trkpt>
      <trkpt lat="4.3040110" lon="-76.2859200">
        <ele>1660.8</ele>
        <time>2022-08-14T20:55:37Z</time>
      </trkpt>
      <trkpt lat="4.3039740" lon="-76.2859710">
        <ele>1660.4</ele>
        <time>2022-08-14T20:55:38Z</time>
      </trkpt>
      <trkpt lat="4.3039470" lon="-76.2860370">
        <ele>1659.8</ele>
        <time>2022-08-14T20:55:39Z</time>
      </trkpt>
      <trkpt lat="4.3038850" lon="-76.2861510">
        <ele>1658.6</ele>
        <time>2022-08-14T20:55:41Z</time>
      </trkpt>
      <trkpt lat="4.3037890" lon="-76.2862480">
        <ele>1658.0</ele>
        <time>2022-08-14T20:55:43Z</time>
      </trkpt>
      <trkpt lat="4.3037320" lon="-76.2862900">
        <ele>1657.4</ele>
        <time>2022-08-14T20:55:44Z</time>
      </trkpt>
      <trkpt lat="4.3036050" lon="-76.2863610">
        <ele>1656.0</ele>
        <time>2022-08-14T20:55:46Z</time>
      </trkpt>
      <trkpt lat="4.3035380" lon="-76.2863990">
        <ele>1655.6</ele>
        <time>2022-08-14T20:55:47Z</time>
      </trkpt>
      <trkpt lat="4.3034080" lon="-76.2864810">
        <ele>1654.8</ele>
        <time>2022-08-14T20:55:49Z</time>
      </trkpt>
      <trkpt lat="4.3032270" lon="-76.2866050">
        <ele>1653.0</ele>
        <time>2022-08-14T20:55:52Z</time>
      </trkpt>
      <trkpt lat="4.3031180" lon="-76.2866850">
        <ele>1651.4</ele>
        <time>2022-08-14T20:55:54Z</time>
      </trkpt>
      <trkpt lat="4.3030690" lon="-76.2867260">
        <ele>1651.2</ele>
        <time>2022-08-14T20:55:55Z</time>
      </trkpt>
      <trkpt lat="4.3029900" lon="-76.2868130">
        <ele>1650.8</ele>
        <time>2022-08-14T20:55:57Z</time>
      </trkpt>
      <trkpt lat="4.3028930" lon="-76.2869390">
        <ele>1650.8</ele>
        <time>2022-08-14T20:56:00Z</time>
      </trkpt>
      <trkpt lat="4.3027180" lon="-76.2871180">
        <ele>1651.4</ele>
        <time>2022-08-14T20:56:06Z</time>
      </trkpt>
      <trkpt lat="4.3025970" lon="-76.2872020">
        <ele>1652.8</ele>
        <time>2022-08-14T20:56:12Z</time>
      </trkpt>
      <trkpt lat="4.3025250" lon="-76.2872210">
        <ele>1654.0</ele>
        <time>2022-08-14T20:56:15Z</time>
      </trkpt>
      <trkpt lat="4.3024830" lon="-76.2872420">
        <ele>1654.6</ele>
        <time>2022-08-14T20:56:17Z</time>
      </trkpt>
      <trkpt lat="4.3024610" lon="-76.2872520">
        <ele>1654.8</ele>
        <time>2022-08-14T20:56:18Z</time>
      </trkpt>
      <trkpt lat="4.3024230" lon="-76.2872590">
        <ele>1655.2</ele>
        <time>2022-08-14T20:56:20Z</time>
      </trkpt>
      <trkpt lat="4.3023480" lon="-76.2872800">
        <ele>1655.6</ele>
        <time>2022-08-14T20:56:23Z</time>
      </trkpt>
      <trkpt lat="4.3023040" lon="-76.2872860">
        <ele>1656.0</ele>
        <time>2022-08-14T20:56:25Z</time>
      </trkpt>
      <trkpt lat="4.3022560" lon="-76.2873020">
        <ele>1656.2</ele>
        <time>2022-08-14T20:56:27Z</time>
      </trkpt>
      <trkpt lat="4.3021930" lon="-76.2873060">
        <ele>1656.8</ele>
        <time>2022-08-14T20:56:30Z</time>
      </trkpt>
      <trkpt lat="4.3021750" lon="-76.2873160">
        <ele>1657.0</ele>
        <time>2022-08-14T20:56:31Z</time>
      </trkpt>
      <trkpt lat="4.3021480" lon="-76.2873160">
        <ele>1657.0</ele>
        <time>2022-08-14T20:56:32Z</time>
      </trkpt>
      <trkpt lat="4.3020930" lon="-76.2873100">
        <ele>1657.4</ele>
        <time>2022-08-14T20:56:34Z</time>
      </trkpt>
      <trkpt lat="4.3020660" lon="-76.2873100">
        <ele>1657.6</ele>
        <time>2022-08-14T20:56:35Z</time>
      </trkpt>
      <trkpt lat="4.3020040" lon="-76.2873380">
        <ele>1658.4</ele>
        <time>2022-08-14T20:56:38Z</time>
      </trkpt>
      <trkpt lat="4.3019910" lon="-76.2873610">
        <ele>1658.6</ele>
        <time>2022-08-14T20:56:39Z</time>
      </trkpt>
      <trkpt lat="4.3019810" lon="-76.2873820">
        <ele>1658.6</ele>
        <time>2022-08-14T20:56:40Z</time>
      </trkpt>
      <trkpt lat="4.3019810" lon="-76.2875080">
        <ele>1659.6</ele>
        <time>2022-08-14T20:56:44Z</time>
      </trkpt>
      <trkpt lat="4.3019780" lon="-76.2875300">
        <ele>1659.8</ele>
        <time>2022-08-14T20:56:45Z</time>
      </trkpt>
      <trkpt lat="4.3019130" lon="-76.2876580">
        <ele>1660.6</ele>
        <time>2022-08-14T20:56:50Z</time>
      </trkpt>
      <trkpt lat="4.3018870" lon="-76.2876760">
        <ele>1660.6</ele>
        <time>2022-08-14T20:56:51Z</time>
      </trkpt>
      <trkpt lat="4.3017680" lon="-76.2877280">
        <ele>1661.2</ele>
        <time>2022-08-14T20:56:55Z</time>
      </trkpt>
      <trkpt lat="4.3016110" lon="-76.2877490">
        <ele>1661.4</ele>
        <time>2022-08-14T20:57:00Z</time>
      </trkpt>
      <trkpt lat="4.3014940" lon="-76.2878320">
        <ele>1661.8</ele>
        <time>2022-08-14T20:57:05Z</time>
      </trkpt>
      <trkpt lat="4.3014770" lon="-76.2878440">
        <ele>1661.8</ele>
        <time>2022-08-14T20:57:06Z</time>
      </trkpt>
      <trkpt lat="4.3014400" lon="-76.2879300">
        <ele>1662.4</ele>
        <time>2022-08-14T20:57:09Z</time>
      </trkpt>
      <trkpt lat="4.3013920" lon="-76.2880070">
        <ele>1662.8</ele>
        <time>2022-08-14T20:57:12Z</time>
      </trkpt>
      <trkpt lat="4.3012810" lon="-76.2881020">
        <ele>1663.4</ele>
        <time>2022-08-14T20:57:17Z</time>
      </trkpt>
      <trkpt lat="4.3011930" lon="-76.2881390">
        <ele>1663.8</ele>
        <time>2022-08-14T20:57:20Z</time>
      </trkpt>
      <trkpt lat="4.3011270" lon="-76.2881400">
        <ele>1664.0</ele>
        <time>2022-08-14T20:57:22Z</time>
      </trkpt>
      <trkpt lat="4.3010380" lon="-76.2881330">
        <ele>1664.0</ele>
        <time>2022-08-14T20:57:25Z</time>
      </trkpt>
      <trkpt lat="4.3009860" lon="-76.2881470">
        <ele>1664.2</ele>
        <time>2022-08-14T20:57:27Z</time>
      </trkpt>
      <trkpt lat="4.3008660" lon="-76.2882110">
        <ele>1664.6</ele>
        <time>2022-08-14T20:57:32Z</time>
      </trkpt>
      <trkpt lat="4.3008210" lon="-76.2882560">
        <ele>1665.0</ele>
        <time>2022-08-14T20:57:34Z</time>
      </trkpt>
      <trkpt lat="4.3007190" lon="-76.2883750">
        <ele>1665.6</ele>
        <time>2022-08-14T20:57:39Z</time>
      </trkpt>
      <trkpt lat="4.3006790" lon="-76.2884270">
        <ele>1665.8</ele>
        <time>2022-08-14T20:57:41Z</time>
      </trkpt>
      <trkpt lat="4.3006300" lon="-76.2884900">
        <ele>1666.2</ele>
        <time>2022-08-14T20:57:43Z</time>
      </trkpt>
      <trkpt lat="4.3005720" lon="-76.2885180">
        <ele>1666.4</ele>
        <time>2022-08-14T20:57:45Z</time>
      </trkpt>
      <trkpt lat="4.3005170" lon="-76.2885060">
        <ele>1666.4</ele>
        <time>2022-08-14T20:57:47Z</time>
      </trkpt>
      <trkpt lat="4.3004610" lon="-76.2884740">
        <ele>1667.0</ele>
        <time>2022-08-14T20:57:49Z</time>
      </trkpt>
      <trkpt lat="4.3002860" lon="-76.2884030">
        <ele>1668.0</ele>
        <time>2022-08-14T20:57:55Z</time>
      </trkpt>
      <trkpt lat="4.3000890" lon="-76.2884240">
        <ele>1668.8</ele>
        <time>2022-08-14T20:58:01Z</time>
      </trkpt>
      <trkpt lat="4.3000260" lon="-76.2884570">
        <ele>1669.2</ele>
        <time>2022-08-14T20:58:03Z</time>
      </trkpt>
      <trkpt lat="4.2999370" lon="-76.2884980">
        <ele>1669.6</ele>
        <time>2022-08-14T20:58:06Z</time>
      </trkpt>
      <trkpt lat="4.2997290" lon="-76.2885190">
        <ele>1670.2</ele>
        <time>2022-08-14T20:58:12Z</time>
      </trkpt>
      <trkpt lat="4.2996470" lon="-76.2884160">
        <ele>1670.6</ele>
        <time>2022-08-14T20:58:16Z</time>
      </trkpt>
      <trkpt lat="4.2995760" lon="-76.2883140">
        <ele>1670.8</ele>
        <time>2022-08-14T20:58:20Z</time>
      </trkpt>
      <trkpt lat="4.2995560" lon="-76.2882970">
        <ele>1670.8</ele>
        <time>2022-08-14T20:58:21Z</time>
      </trkpt>
      <trkpt lat="4.2994620" lon="-76.2882140">
        <ele>1671.4</ele>
        <time>2022-08-14T20:58:25Z</time>
      </trkpt>
      <trkpt lat="4.2994390" lon="-76.2882010">
        <ele>1671.4</ele>
        <time>2022-08-14T20:58:26Z</time>
      </trkpt>
      <trkpt lat="4.2993190" lon="-76.2881610">
        <ele>1672.2</ele>
        <time>2022-08-14T20:58:31Z</time>
      </trkpt>
      <trkpt lat="4.2992970" lon="-76.2881470">
        <ele>1672.8</ele>
        <time>2022-08-14T20:58:32Z</time>
      </trkpt>
      <trkpt lat="4.2992360" lon="-76.2881170">
        <ele>1673.2</ele>
        <time>2022-08-14T20:58:35Z</time>
      </trkpt>
      <trkpt lat="4.2992150" lon="-76.2881050">
        <ele>1673.2</ele>
        <time>2022-08-14T20:58:36Z</time>
      </trkpt>
      <trkpt lat="4.2991800" lon="-76.2880810">
        <ele>1673.8</ele>
        <time>2022-08-14T20:58:38Z</time>
      </trkpt>
      <trkpt lat="4.2991370" lon="-76.2880590">
        <ele>1674.6</ele>
        <time>2022-08-14T20:58:40Z</time>
      </trkpt>
      <trkpt lat="4.2991180" lon="-76.2880370">
        <ele>1674.8</ele>
        <time>2022-08-14T20:58:41Z</time>
      </trkpt>
      <trkpt lat="4.2990630" lon="-76.2880290">
        <ele>1675.6</ele>
        <time>2022-08-14T20:58:44Z</time>
      </trkpt>
      <trkpt lat="4.2990460" lon="-76.2880250">
        <ele>1675.8</ele>
        <time>2022-08-14T20:58:45Z</time>
      </trkpt>
      <trkpt lat="4.2990110" lon="-76.2880080">
        <ele>1676.4</ele>
        <time>2022-08-14T20:58:47Z</time>
      </trkpt>
      <trkpt lat="4.2990020" lon="-76.2879950">
        <ele>1676.6</ele>
        <time>2022-08-14T20:58:48Z</time>
      </trkpt>
      <trkpt lat="4.2989460" lon="-76.2879820">
        <ele>1677.6</ele>
        <time>2022-08-14T20:58:52Z</time>
      </trkpt>
      <trkpt lat="4.2989140" lon="-76.2879750">
        <ele>1678.2</ele>
        <time>2022-08-14T20:58:54Z</time>
      </trkpt>
      <trkpt lat="4.2988590" lon="-76.2879490">
        <ele>1678.8</ele>
        <time>2022-08-14T20:58:57Z</time>
      </trkpt>
      <trkpt lat="4.2987410" lon="-76.2879170">
        <ele>1679.6</ele>
        <time>2022-08-14T20:59:03Z</time>
      </trkpt>
      <trkpt lat="4.2987200" lon="-76.2878990">
        <ele>1679.8</ele>
        <time>2022-08-14T20:59:04Z</time>
      </trkpt>
      <trkpt lat="4.2986310" lon="-76.2878520">
        <ele>1680.8</ele>
        <time>2022-08-14T20:59:09Z</time>
      </trkpt>
      <trkpt lat="4.2986120" lon="-76.2878430">
        <ele>1681.0</ele>
        <time>2022-08-14T20:59:10Z</time>
      </trkpt>
      <trkpt lat="4.2985700" lon="-76.2878270">
        <ele>1681.6</ele>
        <time>2022-08-14T20:59:13Z</time>
      </trkpt>
      <trkpt lat="4.2985580" lon="-76.2878200">
        <ele>1682.0</ele>
        <time>2022-08-14T20:59:14Z</time>
      </trkpt>
      <trkpt lat="4.2985460" lon="-76.2878190">
        <ele>1682.2</ele>
        <time>2022-08-14T20:59:15Z</time>
      </trkpt>
      <trkpt lat="4.2985380" lon="-76.2878150">
        <ele>1682.4</ele>
        <time>2022-08-14T20:59:16Z</time>
      </trkpt>
      <trkpt lat="4.2985260" lon="-76.2878070">
        <ele>1682.4</ele>
        <time>2022-08-14T20:59:17Z</time>
      </trkpt>
      <trkpt lat="4.2985020" lon="-76.2877890">
        <ele>1683.0</ele>
        <time>2022-08-14T20:59:19Z</time>
      </trkpt>
      <trkpt lat="4.2984880" lon="-76.2877820">
        <ele>1683.4</ele>
        <time>2022-08-14T20:59:20Z</time>
      </trkpt>
      <trkpt lat="4.2984310" lon="-76.2877630">
        <ele>1683.8</ele>
        <time>2022-08-14T20:59:23Z</time>
      </trkpt>
      <trkpt lat="4.2983700" lon="-76.2877310">
        <ele>1684.8</ele>
        <time>2022-08-14T20:59:27Z</time>
      </trkpt>
      <trkpt lat="4.2983150" lon="-76.2877220">
        <ele>1685.4</ele>
        <time>2022-08-14T20:59:31Z</time>
      </trkpt>
      <trkpt lat="4.2982750" lon="-76.2877240">
        <ele>1686.0</ele>
        <time>2022-08-14T20:59:33Z</time>
      </trkpt>
      <trkpt lat="4.2981940" lon="-76.2877350">
        <ele>1686.4</ele>
        <time>2022-08-14T20:59:37Z</time>
      </trkpt>
      <trkpt lat="4.2981440" lon="-76.2877500">
        <ele>1687.2</ele>
        <time>2022-08-14T20:59:40Z</time>
      </trkpt>
      <trkpt lat="4.2980540" lon="-76.2877610">
        <ele>1688.0</ele>
        <time>2022-08-14T20:59:45Z</time>
      </trkpt>
      <trkpt lat="4.2980320" lon="-76.2877580">
        <ele>1688.2</ele>
        <time>2022-08-14T20:59:46Z</time>
      </trkpt>
      <trkpt lat="4.2979450" lon="-76.2877780">
        <ele>1688.8</ele>
        <time>2022-08-14T20:59:51Z</time>
      </trkpt>
      <trkpt lat="4.2978930" lon="-76.2877920">
        <ele>1689.2</ele>
        <time>2022-08-14T20:59:54Z</time>
      </trkpt>
      <trkpt lat="4.2978360" lon="-76.2878080">
        <ele>1690.0</ele>
        <time>2022-08-14T20:59:58Z</time>
      </trkpt>
      <trkpt lat="4.2978040" lon="-76.2878280">
        <ele>1690.4</ele>
        <time>2022-08-14T21:00:00Z</time>
      </trkpt>
      <trkpt lat="4.2977050" lon="-76.2878430">
        <ele>1691.4</ele>
        <time>2022-08-14T21:00:06Z</time>
      </trkpt>
      <trkpt lat="4.2976880" lon="-76.2878420">
        <ele>1691.6</ele>
        <time>2022-08-14T21:00:07Z</time>
      </trkpt>
      <trkpt lat="4.2976200" lon="-76.2878380">
        <ele>1692.6</ele>
        <time>2022-08-14T21:00:11Z</time>
      </trkpt>
      <trkpt lat="4.2976040" lon="-76.2878280">
        <ele>1692.6</ele>
        <time>2022-08-14T21:00:12Z</time>
      </trkpt>
      <trkpt lat="4.2975360" lon="-76.2877790">
        <ele>1693.8</ele>
        <time>2022-08-14T21:00:17Z</time>
      </trkpt>
      <trkpt lat="4.2975200" lon="-76.2877460">
        <ele>1694.4</ele>
        <time>2022-08-14T21:00:19Z</time>
      </trkpt>
      <trkpt lat="4.2975060" lon="-76.2877080">
        <ele>1694.8</ele>
        <time>2022-08-14T21:00:21Z</time>
      </trkpt>
      <trkpt lat="4.2975030" lon="-76.2876710">
        <ele>1695.4</ele>
        <time>2022-08-14T21:00:23Z</time>
      </trkpt>
      <trkpt lat="4.2975160" lon="-76.2876330">
        <ele>1695.6</ele>
        <time>2022-08-14T21:00:25Z</time>
      </trkpt>
      <trkpt lat="4.2975230" lon="-76.2876130">
        <ele>1695.8</ele>
        <time>2022-08-14T21:00:26Z</time>
      </trkpt>
      <trkpt lat="4.2975510" lon="-76.2874880">
        <ele>1697.0</ele>
        <time>2022-08-14T21:00:32Z</time>
      </trkpt>
      <trkpt lat="4.2975510" lon="-76.2874660">
        <ele>1697.2</ele>
        <time>2022-08-14T21:00:33Z</time>
      </trkpt>
      <trkpt lat="4.2975480" lon="-76.2874480">
        <ele>1697.4</ele>
        <time>2022-08-14T21:00:34Z</time>
      </trkpt>
      <trkpt lat="4.2975140" lon="-76.2873940">
        <ele>1698.0</ele>
        <time>2022-08-14T21:00:37Z</time>
      </trkpt>
      <trkpt lat="4.2974970" lon="-76.2873810">
        <ele>1698.4</ele>
        <time>2022-08-14T21:00:38Z</time>
      </trkpt>
      <trkpt lat="4.2974610" lon="-76.2873690">
        <ele>1699.0</ele>
        <time>2022-08-14T21:00:40Z</time>
      </trkpt>
      <trkpt lat="4.2973780" lon="-76.2873570">
        <ele>1700.2</ele>
        <time>2022-08-14T21:00:44Z</time>
      </trkpt>
      <trkpt lat="4.2972480" lon="-76.2873470">
        <ele>1701.2</ele>
        <time>2022-08-14T21:00:51Z</time>
      </trkpt>
      <trkpt lat="4.2972290" lon="-76.2873460">
        <ele>1701.4</ele>
        <time>2022-08-14T21:00:52Z</time>
      </trkpt>
      <trkpt lat="4.2971690" lon="-76.2873540">
        <ele>1701.8</ele>
        <time>2022-08-14T21:00:55Z</time>
      </trkpt>
      <trkpt lat="4.2971380" lon="-76.2873660">
        <ele>1702.4</ele>
        <time>2022-08-14T21:00:57Z</time>
      </trkpt>
      <trkpt lat="4.2971230" lon="-76.2873700">
        <ele>1702.8</ele>
        <time>2022-08-14T21:00:58Z</time>
      </trkpt>
      <trkpt lat="4.2969860" lon="-76.2874240">
        <ele>1703.4</ele>
        <time>2022-08-14T21:01:06Z</time>
      </trkpt>
      <trkpt lat="4.2969560" lon="-76.2874530">
        <ele>1704.0</ele>
        <time>2022-08-14T21:01:08Z</time>
      </trkpt>
      <trkpt lat="4.2968820" lon="-76.2874860">
        <ele>1704.8</ele>
        <time>2022-08-14T21:01:12Z</time>
      </trkpt>
      <trkpt lat="4.2968460" lon="-76.2874980">
        <ele>1705.0</ele>
        <time>2022-08-14T21:01:14Z</time>
      </trkpt>
      <trkpt lat="4.2967670" lon="-76.2875380">
        <ele>1705.8</ele>
        <time>2022-08-14T21:01:18Z</time>
      </trkpt>
      <trkpt lat="4.2967510" lon="-76.2875430">
        <ele>1706.0</ele>
        <time>2022-08-14T21:01:19Z</time>
      </trkpt>
      <trkpt lat="4.2967210" lon="-76.2875440">
        <ele>1706.0</ele>
        <time>2022-08-14T21:01:20Z</time>
      </trkpt>
      <trkpt lat="4.2966540" lon="-76.2875380">
        <ele>1706.4</ele>
        <time>2022-08-14T21:01:23Z</time>
      </trkpt>
      <trkpt lat="4.2966000" lon="-76.2874420">
        <ele>1707.0</ele>
        <time>2022-08-14T21:01:30Z</time>
      </trkpt>
      <trkpt lat="4.2966030" lon="-76.2874270">
        <ele>1707.2</ele>
        <time>2022-08-14T21:01:31Z</time>
      </trkpt>
      <trkpt lat="4.2966040" lon="-76.2873360">
        <ele>1708.2</ele>
        <time>2022-08-14T21:01:36Z</time>
      </trkpt>
      <trkpt lat="4.2965980" lon="-76.2872990">
        <ele>1708.6</ele>
        <time>2022-08-14T21:01:38Z</time>
      </trkpt>
      <trkpt lat="4.2965960" lon="-76.2872300">
        <ele>1709.4</ele>
        <time>2022-08-14T21:01:41Z</time>
      </trkpt>
      <trkpt lat="4.2965590" lon="-76.2871110">
        <ele>1710.4</ele>
        <time>2022-08-14T21:01:46Z</time>
      </trkpt>
      <trkpt lat="4.2965440" lon="-76.2870920">
        <ele>1710.6</ele>
        <time>2022-08-14T21:01:47Z</time>
      </trkpt>
      <trkpt lat="4.2964450" lon="-76.2870020">
        <ele>1711.0</ele>
        <time>2022-08-14T21:01:52Z</time>
      </trkpt>
      <trkpt lat="4.2964170" lon="-76.2869690">
        <ele>1711.4</ele>
        <time>2022-08-14T21:01:54Z</time>
      </trkpt>
      <trkpt lat="4.2963250" lon="-76.2868830">
        <ele>1712.6</ele>
        <time>2022-08-14T21:02:00Z</time>
      </trkpt>
      <trkpt lat="4.2962860" lon="-76.2868540">
        <ele>1713.2</ele>
        <time>2022-08-14T21:02:02Z</time>
      </trkpt>
      <trkpt lat="4.2962510" lon="-76.2868240">
        <ele>1713.6</ele>
        <time>2022-08-14T21:02:04Z</time>
      </trkpt>
      <trkpt lat="4.2961300" lon="-76.2867480">
        <ele>1714.6</ele>
        <time>2022-08-14T21:02:10Z</time>
      </trkpt>
      <trkpt lat="4.2960860" lon="-76.2867250">
        <ele>1715.0</ele>
        <time>2022-08-14T21:02:12Z</time>
      </trkpt>
      <trkpt lat="4.2959500" lon="-76.2866380">
        <ele>1715.8</ele>
        <time>2022-08-14T21:02:18Z</time>
      </trkpt>
      <trkpt lat="4.2958710" lon="-76.2865740">
        <ele>1716.0</ele>
        <time>2022-08-14T21:02:22Z</time>
      </trkpt>
      <trkpt lat="4.2957600" lon="-76.2864840">
        <ele>1716.6</ele>
        <time>2022-08-14T21:02:28Z</time>
      </trkpt>
      <trkpt lat="4.2957390" lon="-76.2864690">
        <ele>1716.8</ele>
        <time>2022-08-14T21:02:29Z</time>
      </trkpt>
      <trkpt lat="4.2956130" lon="-76.2863930">
        <ele>1718.0</ele>
        <time>2022-08-14T21:02:35Z</time>
      </trkpt>
      <trkpt lat="4.2954600" lon="-76.2862820">
        <ele>1719.0</ele>
        <time>2022-08-14T21:02:43Z</time>
      </trkpt>
      <trkpt lat="4.2954390" lon="-76.2862700">
        <ele>1719.2</ele>
        <time>2022-08-14T21:02:44Z</time>
      </trkpt>
      <trkpt lat="4.2953220" lon="-76.2862180">
        <ele>1719.8</ele>
        <time>2022-08-14T21:02:49Z</time>
      </trkpt>
      <trkpt lat="4.2951950" lon="-76.2861210">
        <ele>1720.4</ele>
        <time>2022-08-14T21:02:55Z</time>
      </trkpt>
      <trkpt lat="4.2951520" lon="-76.2860870">
        <ele>1720.6</ele>
        <time>2022-08-14T21:02:57Z</time>
      </trkpt>
      <trkpt lat="4.2949770" lon="-76.2859870">
        <ele>1721.2</ele>
        <time>2022-08-14T21:03:05Z</time>
      </trkpt>
      <trkpt lat="4.2948970" lon="-76.2859690">
        <ele>1721.4</ele>
        <time>2022-08-14T21:03:08Z</time>
      </trkpt>
      <trkpt lat="4.2948230" lon="-76.2859570">
        <ele>1722.0</ele>
        <time>2022-08-14T21:03:11Z</time>
      </trkpt>
      <trkpt lat="4.2946320" lon="-76.2859430">
        <ele>1722.4</ele>
        <time>2022-08-14T21:03:18Z</time>
      </trkpt>
      <trkpt lat="4.2945830" lon="-76.2859530">
        <ele>1722.8</ele>
        <time>2022-08-14T21:03:20Z</time>
      </trkpt>
      <trkpt lat="4.2944790" lon="-76.2859800">
        <ele>1723.6</ele>
        <time>2022-08-14T21:03:24Z</time>
      </trkpt>
      <trkpt lat="4.2944560" lon="-76.2859840">
        <ele>1723.6</ele>
        <time>2022-08-14T21:03:25Z</time>
      </trkpt>
      <trkpt lat="4.2942840" lon="-76.2860370">
        <ele>1724.4</ele>
        <time>2022-08-14T21:03:32Z</time>
      </trkpt>
      <trkpt lat="4.2942250" lon="-76.2860830">
        <ele>1724.8</ele>
        <time>2022-08-14T21:03:35Z</time>
      </trkpt>
      <trkpt lat="4.2941730" lon="-76.2861360">
        <ele>1725.4</ele>
        <time>2022-08-14T21:03:38Z</time>
      </trkpt>
      <trkpt lat="4.2940950" lon="-76.2862160">
        <ele>1725.8</ele>
        <time>2022-08-14T21:03:42Z</time>
      </trkpt>
      <trkpt lat="4.2940460" lon="-76.2862790">
        <ele>1726.0</ele>
        <time>2022-08-14T21:03:45Z</time>
      </trkpt>
      <trkpt lat="4.2938790" lon="-76.2864190">
        <ele>1726.8</ele>
        <time>2022-08-14T21:03:53Z</time>
      </trkpt>
      <trkpt lat="4.2938380" lon="-76.2864440">
        <ele>1726.8</ele>
        <time>2022-08-14T21:03:55Z</time>
      </trkpt>
      <trkpt lat="4.2937400" lon="-76.2864820">
        <ele>1727.4</ele>
        <time>2022-08-14T21:03:59Z</time>
      </trkpt>
      <trkpt lat="4.2936460" lon="-76.2865220">
        <ele>1728.0</ele>
        <time>2022-08-14T21:04:03Z</time>
      </trkpt>
      <trkpt lat="4.2934900" lon="-76.2865860">
        <ele>1729.0</ele>
        <time>2022-08-14T21:04:09Z</time>
      </trkpt>
      <trkpt lat="4.2934660" lon="-76.2865970">
        <ele>1729.2</ele>
        <time>2022-08-14T21:04:10Z</time>
      </trkpt>
      <trkpt lat="4.2932580" lon="-76.2866960">
        <ele>1730.0</ele>
        <time>2022-08-14T21:04:20Z</time>
      </trkpt>
      <trkpt lat="4.2932360" lon="-76.2867040">
        <ele>1730.2</ele>
        <time>2022-08-14T21:04:21Z</time>
      </trkpt>
      <trkpt lat="4.2931020" lon="-76.2867250">
        <ele>1730.6</ele>
        <time>2022-08-14T21:04:26Z</time>
      </trkpt>
      <trkpt lat="4.2929710" lon="-76.2867020">
        <ele>1731.0</ele>
        <time>2022-08-14T21:04:31Z</time>
      </trkpt>
      <trkpt lat="4.2928830" lon="-76.2866760">
        <ele>1731.4</ele>
        <time>2022-08-14T21:04:34Z</time>
      </trkpt>
      <trkpt lat="4.2927260" lon="-76.2866100">
        <ele>1732.0</ele>
        <time>2022-08-14T21:04:40Z</time>
      </trkpt>
      <trkpt lat="4.2926390" lon="-76.2865730">
        <ele>1732.2</ele>
        <time>2022-08-14T21:04:43Z</time>
      </trkpt>
      <trkpt lat="4.2924550" lon="-76.2864950">
        <ele>1732.8</ele>
        <time>2022-08-14T21:04:50Z</time>
      </trkpt>
      <trkpt lat="4.2924110" lon="-76.2864730">
        <ele>1733.0</ele>
        <time>2022-08-14T21:04:52Z</time>
      </trkpt>
      <trkpt lat="4.2922220" lon="-76.2863900">
        <ele>1733.6</ele>
        <time>2022-08-14T21:04:59Z</time>
      </trkpt>
      <trkpt lat="4.2920700" lon="-76.2863150">
        <ele>1734.0</ele>
        <time>2022-08-14T21:05:05Z</time>
      </trkpt>
      <trkpt lat="4.2920460" lon="-76.2863020">
        <ele>1734.2</ele>
        <time>2022-08-14T21:05:06Z</time>
      </trkpt>
      <trkpt lat="4.2918860" lon="-76.2862230">
        <ele>1734.4</ele>
        <time>2022-08-14T21:05:12Z</time>
      </trkpt>
      <trkpt lat="4.2916670" lon="-76.2860860">
        <ele>1734.8</ele>
        <time>2022-08-14T21:05:20Z</time>
      </trkpt>
      <trkpt lat="4.2915750" lon="-76.2860290">
        <ele>1735.2</ele>
        <time>2022-08-14T21:05:24Z</time>
      </trkpt>
      <trkpt lat="4.2915140" lon="-76.2859900">
        <ele>1735.2</ele>
        <time>2022-08-14T21:05:26Z</time>
      </trkpt>
      <trkpt lat="4.2914560" lon="-76.2859540">
        <ele>1735.4</ele>
        <time>2022-08-14T21:05:28Z</time>
      </trkpt>
      <trkpt lat="4.2912260" lon="-76.2858750">
        <ele>1735.8</ele>
        <time>2022-08-14T21:05:35Z</time>
      </trkpt>
      <trkpt lat="4.2910680" lon="-76.2858620">
        <ele>1736.2</ele>
        <time>2022-08-14T21:05:40Z</time>
      </trkpt>
      <trkpt lat="4.2909980" lon="-76.2858600">
        <ele>1736.6</ele>
        <time>2022-08-14T21:05:42Z</time>
      </trkpt>
      <trkpt lat="4.2908060" lon="-76.2858570">
        <ele>1737.4</ele>
        <time>2022-08-14T21:05:47Z</time>
      </trkpt>
      <trkpt lat="4.2907010" lon="-76.2858550">
        <ele>1737.6</ele>
        <time>2022-08-14T21:05:50Z</time>
      </trkpt>
      <trkpt lat="4.2903800" lon="-76.2858160">
        <ele>1738.4</ele>
        <time>2022-08-14T21:05:59Z</time>
      </trkpt>
      <trkpt lat="4.2903050" lon="-76.2857990">
        <ele>1738.4</ele>
        <time>2022-08-14T21:06:01Z</time>
      </trkpt>
      <trkpt lat="4.2900400" lon="-76.2857700">
        <ele>1739.2</ele>
        <time>2022-08-14T21:06:09Z</time>
      </trkpt>
      <trkpt lat="4.2900020" lon="-76.2857650">
        <ele>1739.6</ele>
        <time>2022-08-14T21:06:10Z</time>
      </trkpt>
      <trkpt lat="4.2897370" lon="-76.2856980">
        <ele>1740.4</ele>
        <time>2022-08-14T21:06:18Z</time>
      </trkpt>
      <trkpt lat="4.2896630" lon="-76.2856600">
        <ele>1740.6</ele>
        <time>2022-08-14T21:06:20Z</time>
      </trkpt>
      <trkpt lat="4.2894550" lon="-76.2855310">
        <ele>1741.6</ele>
        <time>2022-08-14T21:06:27Z</time>
      </trkpt>
      <trkpt lat="4.2894240" lon="-76.2855120">
        <ele>1741.6</ele>
        <time>2022-08-14T21:06:28Z</time>
      </trkpt>
      <trkpt lat="4.2892480" lon="-76.2854350">
        <ele>1741.6</ele>
        <time>2022-08-14T21:06:34Z</time>
      </trkpt>
      <trkpt lat="4.2891410" lon="-76.2854100">
        <ele>1742.0</ele>
        <time>2022-08-14T21:06:39Z</time>
      </trkpt>
      <trkpt lat="4.2891060" lon="-76.2854030">
        <ele>1742.4</ele>
        <time>2022-08-14T21:06:41Z</time>
      </trkpt>
      <trkpt lat="4.2890930" lon="-76.2853980">
        <ele>1742.4</ele>
        <time>2022-08-14T21:06:42Z</time>
      </trkpt>
      <trkpt lat="4.2889640" lon="-76.2853600">
        <ele>1743.0</ele>
        <time>2022-08-14T21:06:48Z</time>
      </trkpt>
      <trkpt lat="4.2887940" lon="-76.2853020">
        <ele>1743.2</ele>
        <time>2022-08-14T21:06:54Z</time>
      </trkpt>
      <trkpt lat="4.2886170" lon="-76.2852310">
        <ele>1743.4</ele>
        <time>2022-08-14T21:07:00Z</time>
      </trkpt>
      <trkpt lat="4.2884950" lon="-76.2851830">
        <ele>1743.6</ele>
        <time>2022-08-14T21:07:04Z</time>
      </trkpt>
      <trkpt lat="4.2883180" lon="-76.2850660">
        <ele>1743.8</ele>
        <time>2022-08-14T21:07:10Z</time>
      </trkpt>
      <trkpt lat="4.2881930" lon="-76.2849800">
        <ele>1743.8</ele>
        <time>2022-08-14T21:07:15Z</time>
      </trkpt>
      <trkpt lat="4.2879950" lon="-76.2848980">
        <ele>1743.8</ele>
        <time>2022-08-14T21:07:21Z</time>
      </trkpt>
      <trkpt lat="4.2877710" lon="-76.2848890">
        <ele>1743.8</ele>
        <time>2022-08-14T21:07:27Z</time>
      </trkpt>
      <trkpt lat="4.2875280" lon="-76.2849060">
        <ele>1744.2</ele>
        <time>2022-08-14T21:07:33Z</time>
      </trkpt>
      <trkpt lat="4.2873330" lon="-76.2848580">
        <ele>1744.6</ele>
        <time>2022-08-14T21:07:38Z</time>
      </trkpt>
      <trkpt lat="4.2872950" lon="-76.2848370">
        <ele>1744.6</ele>
        <time>2022-08-14T21:07:39Z</time>
      </trkpt>
      <trkpt lat="4.2871060" lon="-76.2847540">
        <ele>1744.8</ele>
        <time>2022-08-14T21:07:44Z</time>
      </trkpt>
      <trkpt lat="4.2869430" lon="-76.2846590">
        <ele>1744.8</ele>
        <time>2022-08-14T21:07:49Z</time>
      </trkpt>
      <trkpt lat="4.2867630" lon="-76.2845320">
        <ele>1744.6</ele>
        <time>2022-08-14T21:07:54Z</time>
      </trkpt>
      <trkpt lat="4.2866910" lon="-76.2844880">
        <ele>1744.6</ele>
        <time>2022-08-14T21:07:56Z</time>
      </trkpt>
      <trkpt lat="4.2865740" lon="-76.2844380">
        <ele>1744.4</ele>
        <time>2022-08-14T21:07:59Z</time>
      </trkpt>
      <trkpt lat="4.2862810" lon="-76.2843830">
        <ele>1744.4</ele>
        <time>2022-08-14T21:08:07Z</time>
      </trkpt>
      <trkpt lat="4.2859680" lon="-76.2843600">
        <ele>1745.0</ele>
        <time>2022-08-14T21:08:16Z</time>
      </trkpt>
      <trkpt lat="4.2858600" lon="-76.2843530">
        <ele>1745.6</ele>
        <time>2022-08-14T21:08:20Z</time>
      </trkpt>
      <trkpt lat="4.2858160" lon="-76.2843540">
        <ele>1746.0</ele>
        <time>2022-08-14T21:08:22Z</time>
      </trkpt>
      <trkpt lat="4.2857510" lon="-76.2843480">
        <ele>1746.8</ele>
        <time>2022-08-14T21:08:25Z</time>
      </trkpt>
      <trkpt lat="4.2856710" lon="-76.2843420">
        <ele>1747.8</ele>
        <time>2022-08-14T21:08:29Z</time>
      </trkpt>
      <trkpt lat="4.2856540" lon="-76.2843360">
        <ele>1748.0</ele>
        <time>2022-08-14T21:08:30Z</time>
      </trkpt>
      <trkpt lat="4.2855510" lon="-76.2843300">
        <ele>1749.0</ele>
        <time>2022-08-14T21:08:36Z</time>
      </trkpt>
      <trkpt lat="4.2854810" lon="-76.2843210">
        <ele>1749.4</ele>
        <time>2022-08-14T21:08:40Z</time>
      </trkpt>
      <trkpt lat="4.2854330" lon="-76.2843080">
        <ele>1750.2</ele>
        <time>2022-08-14T21:08:43Z</time>
      </trkpt>
      <trkpt lat="4.2853360" lon="-76.2842960">
        <ele>1751.2</ele>
        <time>2022-08-14T21:08:49Z</time>
      </trkpt>
      <trkpt lat="4.2852090" lon="-76.2842860">
        <ele>1752.4</ele>
        <time>2022-08-14T21:08:56Z</time>
      </trkpt>
      <trkpt lat="4.2851920" lon="-76.2842820">
        <ele>1752.4</ele>
        <time>2022-08-14T21:08:57Z</time>
      </trkpt>
      <trkpt lat="4.2850690" lon="-76.2842650">
        <ele>1753.2</ele>
        <time>2022-08-14T21:09:03Z</time>
      </trkpt>
      <trkpt lat="4.2850410" lon="-76.2842640">
        <ele>1753.4</ele>
        <time>2022-08-14T21:09:04Z</time>
      </trkpt>
      <trkpt lat="4.2849670" lon="-76.2842700">
        <ele>1754.0</ele>
        <time>2022-08-14T21:09:07Z</time>
      </trkpt>
      <trkpt lat="4.2849100" lon="-76.2842580">
        <ele>1754.2</ele>
        <time>2022-08-14T21:09:09Z</time>
      </trkpt>
      <trkpt lat="4.2848610" lon="-76.2842600">
        <ele>1754.4</ele>
        <time>2022-08-14T21:09:11Z</time>
      </trkpt>
      <trkpt lat="4.2846790" lon="-76.2842540">
        <ele>1755.4</ele>
        <time>2022-08-14T21:09:18Z</time>
      </trkpt>
      <trkpt lat="4.2846540" lon="-76.2842490">
        <ele>1755.6</ele>
        <time>2022-08-14T21:09:19Z</time>
      </trkpt>
      <trkpt lat="4.2845200" lon="-76.2842110">
        <ele>1756.4</ele>
        <time>2022-08-14T21:09:25Z</time>
      </trkpt>
      <trkpt lat="4.2844500" lon="-76.2841980">
        <ele>1756.6</ele>
        <time>2022-08-14T21:09:28Z</time>
      </trkpt>
      <trkpt lat="4.2843320" lon="-76.2841860">
        <ele>1757.4</ele>
        <time>2022-08-14T21:09:33Z</time>
      </trkpt>
      <trkpt lat="4.2842780" lon="-76.2841890">
        <ele>1757.6</ele>
        <time>2022-08-14T21:09:35Z</time>
      </trkpt>
      <trkpt lat="4.2841590" lon="-76.2842140">
        <ele>1758.2</ele>
        <time>2022-08-14T21:09:40Z</time>
      </trkpt>
      <trkpt lat="4.2840420" lon="-76.2842660">
        <ele>1758.6</ele>
        <time>2022-08-14T21:09:45Z</time>
      </trkpt>
      <trkpt lat="4.2839740" lon="-76.2842890">
        <ele>1758.8</ele>
        <time>2022-08-14T21:09:48Z</time>
      </trkpt>
      <trkpt lat="4.2838350" lon="-76.2843040">
        <ele>1759.6</ele>
        <time>2022-08-14T21:09:54Z</time>
      </trkpt>
      <trkpt lat="4.2838170" lon="-76.2843110">
        <ele>1759.8</ele>
        <time>2022-08-14T21:09:55Z</time>
      </trkpt>
      <trkpt lat="4.2837480" lon="-76.2843260">
        <ele>1760.2</ele>
        <time>2022-08-14T21:09:59Z</time>
      </trkpt>
      <trkpt lat="4.2837320" lon="-76.2843400">
        <ele>1760.4</ele>
        <time>2022-08-14T21:10:00Z</time>
      </trkpt>
      <trkpt lat="4.2837140" lon="-76.2843800">
        <ele>1760.6</ele>
        <time>2022-08-14T21:10:02Z</time>
      </trkpt>
      <trkpt lat="4.2837130" lon="-76.2844690">
        <ele>1761.6</ele>
        <time>2022-08-14T21:10:06Z</time>
      </trkpt>
      <trkpt lat="4.2837190" lon="-76.2844910">
        <ele>1761.8</ele>
        <time>2022-08-14T21:10:07Z</time>
      </trkpt>
      <trkpt lat="4.2837210" lon="-76.2846200">
        <ele>1763.0</ele>
        <time>2022-08-14T21:10:13Z</time>
      </trkpt>
      <trkpt lat="4.2836940" lon="-76.2847630">
        <ele>1764.2</ele>
        <time>2022-08-14T21:10:20Z</time>
      </trkpt>
      <trkpt lat="4.2836650" lon="-76.2848390">
        <ele>1765.0</ele>
        <time>2022-08-14T21:10:24Z</time>
      </trkpt>
      <trkpt lat="4.2836570" lon="-76.2848530">
        <ele>1765.2</ele>
        <time>2022-08-14T21:10:25Z</time>
      </trkpt>
      <trkpt lat="4.2836090" lon="-76.2849370">
        <ele>1765.8</ele>
        <time>2022-08-14T21:10:30Z</time>
      </trkpt>
      <trkpt lat="4.2835760" lon="-76.2850040">
        <ele>1766.6</ele>
        <time>2022-08-14T21:10:34Z</time>
      </trkpt>
      <trkpt lat="4.2835650" lon="-76.2850310">
        <ele>1766.8</ele>
        <time>2022-08-14T21:10:36Z</time>
      </trkpt>
      <trkpt lat="4.2835600" lon="-76.2850650">
        <ele>1767.2</ele>
        <time>2022-08-14T21:10:38Z</time>
      </trkpt>
      <trkpt lat="4.2835530" lon="-76.2850990">
        <ele>1767.6</ele>
        <time>2022-08-14T21:10:40Z</time>
      </trkpt>
      <trkpt lat="4.2834840" lon="-76.2851850">
        <ele>1768.6</ele>
        <time>2022-08-14T21:10:46Z</time>
      </trkpt>
      <trkpt lat="4.2834050" lon="-76.2852540">
        <ele>1769.8</ele>
        <time>2022-08-14T21:10:52Z</time>
      </trkpt>
      <trkpt lat="4.2833770" lon="-76.2852790">
        <ele>1770.2</ele>
        <time>2022-08-14T21:10:54Z</time>
      </trkpt>
      <trkpt lat="4.2833450" lon="-76.2852980">
        <ele>1770.8</ele>
        <time>2022-08-14T21:10:56Z</time>
      </trkpt>
      <trkpt lat="4.2832450" lon="-76.2853220">
        <ele>1771.8</ele>
        <time>2022-08-14T21:11:02Z</time>
      </trkpt>
      <trkpt lat="4.2832270" lon="-76.2853230">
        <ele>1771.8</ele>
        <time>2022-08-14T21:11:03Z</time>
      </trkpt>
      <trkpt lat="4.2830930" lon="-76.2852800">
        <ele>1773.0</ele>
        <time>2022-08-14T21:11:10Z</time>
      </trkpt>
      <trkpt lat="4.2830260" lon="-76.2852360">
        <ele>1774.0</ele>
        <time>2022-08-14T21:11:15Z</time>
      </trkpt>
      <trkpt lat="4.2830070" lon="-76.2852300">
        <ele>1774.2</ele>
        <time>2022-08-14T21:11:16Z</time>
      </trkpt>
      <trkpt lat="4.2829010" lon="-76.2852030">
        <ele>1775.2</ele>
        <time>2022-08-14T21:11:21Z</time>
      </trkpt>
      <trkpt lat="4.2828860" lon="-76.2851990">
        <ele>1775.4</ele>
        <time>2022-08-14T21:11:22Z</time>
      </trkpt>
      <trkpt lat="4.2827980" lon="-76.2851830">
        <ele>1776.2</ele>
        <time>2022-08-14T21:11:28Z</time>
      </trkpt>
      <trkpt lat="4.2827840" lon="-76.2851780">
        <ele>1776.4</ele>
        <time>2022-08-14T21:11:29Z</time>
      </trkpt>
      <trkpt lat="4.2827330" lon="-76.2851690">
        <ele>1776.8</ele>
        <time>2022-08-14T21:11:31Z</time>
      </trkpt>
      <trkpt lat="4.2827050" lon="-76.2851680">
        <ele>1777.2</ele>
        <time>2022-08-14T21:11:33Z</time>
      </trkpt>
      <trkpt lat="4.2826750" lon="-76.2851650">
        <ele>1777.6</ele>
        <time>2022-08-14T21:11:35Z</time>
      </trkpt>
      <trkpt lat="4.2826080" lon="-76.2851740">
        <ele>1778.2</ele>
        <time>2022-08-14T21:11:38Z</time>
      </trkpt>
      <trkpt lat="4.2825320" lon="-76.2851510">
        <ele>1779.0</ele>
        <time>2022-08-14T21:11:42Z</time>
      </trkpt>
      <trkpt lat="4.2825100" lon="-76.2851420">
        <ele>1779.2</ele>
        <time>2022-08-14T21:11:43Z</time>
      </trkpt>
      <trkpt lat="4.2824370" lon="-76.2851380">
        <ele>1780.0</ele>
        <time>2022-08-14T21:11:46Z</time>
      </trkpt>
      <trkpt lat="4.2823920" lon="-76.2851300">
        <ele>1780.2</ele>
        <time>2022-08-14T21:11:49Z</time>
      </trkpt>
      <trkpt lat="4.2823810" lon="-76.2851230">
        <ele>1780.4</ele>
        <time>2022-08-14T21:11:50Z</time>
      </trkpt>
      <trkpt lat="4.2823150" lon="-76.2850850">
        <ele>1781.4</ele>
        <time>2022-08-14T21:11:55Z</time>
      </trkpt>
      <trkpt lat="4.2822840" lon="-76.2850670">
        <ele>1781.8</ele>
        <time>2022-08-14T21:11:57Z</time>
      </trkpt>
      <trkpt lat="4.2822450" lon="-76.2850420">
        <ele>1782.4</ele>
        <time>2022-08-14T21:12:00Z</time>
      </trkpt>
      <trkpt lat="4.2821830" lon="-76.2850030">
        <ele>1783.0</ele>
        <time>2022-08-14T21:12:04Z</time>
      </trkpt>
      <trkpt lat="4.2821450" lon="-76.2849880">
        <ele>1783.4</ele>
        <time>2022-08-14T21:12:06Z</time>
      </trkpt>
      <trkpt lat="4.2820980" lon="-76.2849640">
        <ele>1784.0</ele>
        <time>2022-08-14T21:12:09Z</time>
      </trkpt>
      <trkpt lat="4.2820860" lon="-76.2849530">
        <ele>1784.2</ele>
        <time>2022-08-14T21:12:10Z</time>
      </trkpt>
      <trkpt lat="4.2820220" lon="-76.2849180">
        <ele>1784.6</ele>
        <time>2022-08-14T21:12:14Z</time>
      </trkpt>
      <trkpt lat="4.2819450" lon="-76.2848980">
        <ele>1785.4</ele>
        <time>2022-08-14T21:12:18Z</time>
      </trkpt>
      <trkpt lat="4.2819390" lon="-76.2848670">
        <ele>1785.8</ele>
        <time>2022-08-14T21:12:20Z</time>
      </trkpt>
      <trkpt lat="4.2819240" lon="-76.2848610">
        <ele>1786.0</ele>
        <time>2022-08-14T21:12:21Z</time>
      </trkpt>
      <trkpt lat="4.2818940" lon="-76.2848480">
        <ele>1786.4</ele>
        <time>2022-08-14T21:12:23Z</time>
      </trkpt>
      <trkpt lat="4.2818480" lon="-76.2848430">
        <ele>1786.6</ele>
        <time>2022-08-14T21:12:25Z</time>
      </trkpt>
      <trkpt lat="4.2818260" lon="-76.2848390">
        <ele>1786.8</ele>
        <time>2022-08-14T21:12:26Z</time>
      </trkpt>
      <trkpt lat="4.2818040" lon="-76.2848420">
        <ele>1787.2</ele>
        <time>2022-08-14T21:12:27Z</time>
      </trkpt>
      <trkpt lat="4.2817720" lon="-76.2848410">
        <ele>1787.2</ele>
        <time>2022-08-14T21:12:28Z</time>
      </trkpt>
      <trkpt lat="4.2817120" lon="-76.2848070">
        <ele>1788.2</ele>
        <time>2022-08-14T21:12:33Z</time>
      </trkpt>
      <trkpt lat="4.2817030" lon="-76.2848050">
        <ele>1788.4</ele>
        <time>2022-08-14T21:12:34Z</time>
      </trkpt>
      <trkpt lat="4.2816950" lon="-76.2848040">
        <ele>1788.6</ele>
        <time>2022-08-14T21:12:35Z</time>
      </trkpt>
      <trkpt lat="4.2816860" lon="-76.2848050">
        <ele>1788.6</ele>
        <time>2022-08-14T21:12:36Z</time>
      </trkpt>
      <trkpt lat="4.2816120" lon="-76.2848180">
        <ele>1789.2</ele>
        <time>2022-08-14T21:12:42Z</time>
      </trkpt>
      <trkpt lat="4.2815990" lon="-76.2848220">
        <ele>1789.4</ele>
        <time>2022-08-14T21:12:43Z</time>
      </trkpt>
      <trkpt lat="4.2815480" lon="-76.2848390">
        <ele>1790.2</ele>
        <time>2022-08-14T21:12:47Z</time>
      </trkpt>
      <trkpt lat="4.2815170" lon="-76.2848490">
        <ele>1790.8</ele>
        <time>2022-08-14T21:12:49Z</time>
      </trkpt>
      <trkpt lat="4.2814680" lon="-76.2848550">
        <ele>1791.4</ele>
        <time>2022-08-14T21:12:52Z</time>
      </trkpt>
      <trkpt lat="4.2813910" lon="-76.2848620">
        <ele>1792.4</ele>
        <time>2022-08-14T21:12:58Z</time>
      </trkpt>
      <trkpt lat="4.2813210" lon="-76.2848500">
        <ele>1793.2</ele>
        <time>2022-08-14T21:13:03Z</time>
      </trkpt>
      <trkpt lat="4.2812910" lon="-76.2848380">
        <ele>1793.6</ele>
        <time>2022-08-14T21:13:05Z</time>
      </trkpt>
      <trkpt lat="4.2812230" lon="-76.2848280">
        <ele>1794.4</ele>
        <time>2022-08-14T21:13:09Z</time>
      </trkpt>
      <trkpt lat="4.2812070" lon="-76.2848290">
        <ele>1794.6</ele>
        <time>2022-08-14T21:13:10Z</time>
      </trkpt>
      <trkpt lat="4.2811190" lon="-76.2848220">
        <ele>1795.4</ele>
        <time>2022-08-14T21:13:15Z</time>
      </trkpt>
      <trkpt lat="4.2810580" lon="-76.2848220">
        <ele>1796.0</ele>
        <time>2022-08-14T21:13:18Z</time>
      </trkpt>
      <trkpt lat="4.2809690" lon="-76.2848400">
        <ele>1796.4</ele>
        <time>2022-08-14T21:13:22Z</time>
      </trkpt>
      <trkpt lat="4.2809130" lon="-76.2848500">
        <ele>1796.8</ele>
        <time>2022-08-14T21:13:25Z</time>
      </trkpt>
      <trkpt lat="4.2808250" lon="-76.2848730">
        <ele>1797.6</ele>
        <time>2022-08-14T21:13:30Z</time>
      </trkpt>
      <trkpt lat="4.2807660" lon="-76.2849000">
        <ele>1798.0</ele>
        <time>2022-08-14T21:13:33Z</time>
      </trkpt>
      <trkpt lat="4.2807410" lon="-76.2849120">
        <ele>1798.2</ele>
        <time>2022-08-14T21:13:34Z</time>
      </trkpt>
      <trkpt lat="4.2806830" lon="-76.2849300">
        <ele>1798.6</ele>
        <time>2022-08-14T21:13:37Z</time>
      </trkpt>
      <trkpt lat="4.2806610" lon="-76.2849350">
        <ele>1798.8</ele>
        <time>2022-08-14T21:13:38Z</time>
      </trkpt>
      <trkpt lat="4.2805480" lon="-76.2849490">
        <ele>1799.8</ele>
        <time>2022-08-14T21:13:43Z</time>
      </trkpt>
      <trkpt lat="4.2804490" lon="-76.2849260">
        <ele>1800.8</ele>
        <time>2022-08-14T21:13:47Z</time>
      </trkpt>
      <trkpt lat="4.2804270" lon="-76.2849210">
        <ele>1801.2</ele>
        <time>2022-08-14T21:13:48Z</time>
      </trkpt>
      <trkpt lat="4.2803070" lon="-76.2848760">
        <ele>1802.4</ele>
        <time>2022-08-14T21:13:54Z</time>
      </trkpt>
      <trkpt lat="4.2802900" lon="-76.2848650">
        <ele>1802.6</ele>
        <time>2022-08-14T21:13:55Z</time>
      </trkpt>
      <trkpt lat="4.2802410" lon="-76.2848280">
        <ele>1803.4</ele>
        <time>2022-08-14T21:13:58Z</time>
      </trkpt>
      <trkpt lat="4.2801080" lon="-76.2847180">
        <ele>1804.6</ele>
        <time>2022-08-14T21:14:05Z</time>
      </trkpt>
      <trkpt lat="4.2799680" lon="-76.2845840">
        <ele>1804.8</ele>
        <time>2022-08-14T21:14:10Z</time>
      </trkpt>
      <trkpt lat="4.2797560" lon="-76.2843870">
        <ele>1804.8</ele>
        <time>2022-08-14T21:14:15Z</time>
      </trkpt>
      <trkpt lat="4.2795200" lon="-76.2841650">
        <ele>1803.2</ele>
        <time>2022-08-14T21:14:20Z</time>
      </trkpt>
      <trkpt lat="4.2794380" lon="-76.2840820">
        <ele>1802.6</ele>
        <time>2022-08-14T21:14:22Z</time>
      </trkpt>
      <trkpt lat="4.2793550" lon="-76.2839850">
        <ele>1802.0</ele>
        <time>2022-08-14T21:14:24Z</time>
      </trkpt>
      <trkpt lat="4.2792270" lon="-76.2838480">
        <ele>1801.0</ele>
        <time>2022-08-14T21:14:27Z</time>
      </trkpt>
      <trkpt lat="4.2790380" lon="-76.2836740">
        <ele>1800.2</ele>
        <time>2022-08-14T21:14:31Z</time>
      </trkpt>
      <trkpt lat="4.2788520" lon="-76.2835220">
        <ele>1800.0</ele>
        <time>2022-08-14T21:14:35Z</time>
      </trkpt>
      <trkpt lat="4.2787770" lon="-76.2834550">
        <ele>1800.0</ele>
        <time>2022-08-14T21:14:37Z</time>
      </trkpt>
      <trkpt lat="4.2786390" lon="-76.2833590">
        <ele>1799.6</ele>
        <time>2022-08-14T21:14:40Z</time>
      </trkpt>
      <trkpt lat="4.2785560" lon="-76.2833320">
        <ele>1799.6</ele>
        <time>2022-08-14T21:14:42Z</time>
      </trkpt>
      <trkpt lat="4.2782740" lon="-76.2832470">
        <ele>1799.2</ele>
        <time>2022-08-14T21:14:48Z</time>
      </trkpt>
      <trkpt lat="4.2780380" lon="-76.2831790">
        <ele>1799.4</ele>
        <time>2022-08-14T21:14:54Z</time>
      </trkpt>
      <trkpt lat="4.2778370" lon="-76.2831030">
        <ele>1799.4</ele>
        <time>2022-08-14T21:14:59Z</time>
      </trkpt>
      <trkpt lat="4.2776130" lon="-76.2829860">
        <ele>1799.6</ele>
        <time>2022-08-14T21:15:04Z</time>
      </trkpt>
      <trkpt lat="4.2775500" lon="-76.2829100">
        <ele>1799.6</ele>
        <time>2022-08-14T21:15:06Z</time>
      </trkpt>
      <trkpt lat="4.2774870" lon="-76.2827770">
        <ele>1799.6</ele>
        <time>2022-08-14T21:15:09Z</time>
      </trkpt>
      <trkpt lat="4.2774030" lon="-76.2826150">
        <ele>1799.4</ele>
        <time>2022-08-14T21:15:13Z</time>
      </trkpt>
      <trkpt lat="4.2773630" lon="-76.2825580">
        <ele>1799.2</ele>
        <time>2022-08-14T21:15:15Z</time>
      </trkpt>
      <trkpt lat="4.2772710" lon="-76.2824340">
        <ele>1798.8</ele>
        <time>2022-08-14T21:15:20Z</time>
      </trkpt>
      <trkpt lat="4.2772440" lon="-76.2824160">
        <ele>1798.8</ele>
        <time>2022-08-14T21:15:21Z</time>
      </trkpt>
      <trkpt lat="4.2769930" lon="-76.2823140">
        <ele>1798.6</ele>
        <time>2022-08-14T21:15:28Z</time>
      </trkpt>
      <trkpt lat="4.2766300" lon="-76.2821960">
        <ele>1799.4</ele>
        <time>2022-08-14T21:15:37Z</time>
      </trkpt>
      <trkpt lat="4.2764770" lon="-76.2821350">
        <ele>1799.8</ele>
        <time>2022-08-14T21:15:41Z</time>
      </trkpt>
      <trkpt lat="4.2763300" lon="-76.2820870">
        <ele>1800.2</ele>
        <time>2022-08-14T21:15:45Z</time>
      </trkpt>
      <trkpt lat="4.2761200" lon="-76.2820650">
        <ele>1800.8</ele>
        <time>2022-08-14T21:15:51Z</time>
      </trkpt>
      <trkpt lat="4.2759370" lon="-76.2821050">
        <ele>1801.2</ele>
        <time>2022-08-14T21:15:57Z</time>
      </trkpt>
      <trkpt lat="4.2758630" lon="-76.2821350">
        <ele>1802.0</ele>
        <time>2022-08-14T21:16:00Z</time>
      </trkpt>
      <trkpt lat="4.2758080" lon="-76.2821480">
        <ele>1802.4</ele>
        <time>2022-08-14T21:16:02Z</time>
      </trkpt>
      <trkpt lat="4.2757610" lon="-76.2821750">
        <ele>1803.0</ele>
        <time>2022-08-14T21:16:04Z</time>
      </trkpt>
      <trkpt lat="4.2756910" lon="-76.2822080">
        <ele>1803.6</ele>
        <time>2022-08-14T21:16:07Z</time>
      </trkpt>
      <trkpt lat="4.2756070" lon="-76.2822490">
        <ele>1804.2</ele>
        <time>2022-08-14T21:16:10Z</time>
      </trkpt>
      <trkpt lat="4.2755020" lon="-76.2823120">
        <ele>1804.8</ele>
        <time>2022-08-14T21:16:14Z</time>
      </trkpt>
      <trkpt lat="4.2754770" lon="-76.2823270">
        <ele>1805.0</ele>
        <time>2022-08-14T21:16:15Z</time>
      </trkpt>
      <trkpt lat="4.2754510" lon="-76.2823390">
        <ele>1805.4</ele>
        <time>2022-08-14T21:16:16Z</time>
      </trkpt>
      <trkpt lat="4.2752830" lon="-76.2824230">
        <ele>1806.4</ele>
        <time>2022-08-14T21:16:22Z</time>
      </trkpt>
      <trkpt lat="4.2751710" lon="-76.2824870">
        <ele>1807.0</ele>
        <time>2022-08-14T21:16:26Z</time>
      </trkpt>
      <trkpt lat="4.2751280" lon="-76.2824880">
        <ele>1807.4</ele>
        <time>2022-08-14T21:16:28Z</time>
      </trkpt>
      <trkpt lat="4.2750370" lon="-76.2824290">
        <ele>1808.6</ele>
        <time>2022-08-14T21:16:32Z</time>
      </trkpt>
      <trkpt lat="4.2750150" lon="-76.2824030">
        <ele>1809.0</ele>
        <time>2022-08-14T21:16:33Z</time>
      </trkpt>
      <trkpt lat="4.2749710" lon="-76.2822890">
        <ele>1809.6</ele>
        <time>2022-08-14T21:16:36Z</time>
      </trkpt>
      <trkpt lat="4.2749670" lon="-76.2822390">
        <ele>1809.6</ele>
        <time>2022-08-14T21:16:37Z</time>
      </trkpt>
      <trkpt lat="4.2749680" lon="-76.2821900">
        <ele>1809.6</ele>
        <time>2022-08-14T21:16:38Z</time>
      </trkpt>
      <trkpt lat="4.2750140" lon="-76.2819840">
        <ele>1809.6</ele>
        <time>2022-08-14T21:16:42Z</time>
      </trkpt>
      <trkpt lat="4.2750250" lon="-76.2819350">
        <ele>1809.6</ele>
        <time>2022-08-14T21:16:43Z</time>
      </trkpt>
      <trkpt lat="4.2750820" lon="-76.2817130">
        <ele>1808.2</ele>
        <time>2022-08-14T21:16:47Z</time>
      </trkpt>
      <trkpt lat="4.2750850" lon="-76.2816470">
        <ele>1807.8</ele>
        <time>2022-08-14T21:16:48Z</time>
      </trkpt>
      <trkpt lat="4.2750820" lon="-76.2815740">
        <ele>1807.2</ele>
        <time>2022-08-14T21:16:49Z</time>
      </trkpt>
      <trkpt lat="4.2750540" lon="-76.2813230">
        <ele>1806.0</ele>
        <time>2022-08-14T21:16:52Z</time>
      </trkpt>
      <trkpt lat="4.2750240" lon="-76.2811190">
        <ele>1804.8</ele>
        <time>2022-08-14T21:16:54Z</time>
      </trkpt>
      <trkpt lat="4.2749880" lon="-76.2809320">
        <ele>1803.0</ele>
        <time>2022-08-14T21:16:56Z</time>
      </trkpt>
      <trkpt lat="4.2749670" lon="-76.2808480">
        <ele>1802.4</ele>
        <time>2022-08-14T21:16:57Z</time>
      </trkpt>
      <trkpt lat="4.2749340" lon="-76.2807720">
        <ele>1801.6</ele>
        <time>2022-08-14T21:16:58Z</time>
      </trkpt>
      <trkpt lat="4.2748890" lon="-76.2807020">
        <ele>1800.2</ele>
        <time>2022-08-14T21:16:59Z</time>
      </trkpt>
      <trkpt lat="4.2748200" lon="-76.2806560">
        <ele>1798.8</ele>
        <time>2022-08-14T21:17:00Z</time>
      </trkpt>
      <trkpt lat="4.2747330" lon="-76.2806290">
        <ele>1797.2</ele>
        <time>2022-08-14T21:17:01Z</time>
      </trkpt>
      <trkpt lat="4.2745410" lon="-76.2805710">
        <ele>1796.2</ele>
        <time>2022-08-14T21:17:03Z</time>
      </trkpt>
      <trkpt lat="4.2743430" lon="-76.2805280">
        <ele>1794.4</ele>
        <time>2022-08-14T21:17:05Z</time>
      </trkpt>
      <trkpt lat="4.2741420" lon="-76.2805440">
        <ele>1793.0</ele>
        <time>2022-08-14T21:17:07Z</time>
      </trkpt>
      <trkpt lat="4.2740770" lon="-76.2805600">
        <ele>1791.6</ele>
        <time>2022-08-14T21:17:08Z</time>
      </trkpt>
      <trkpt lat="4.2739930" lon="-76.2805720">
        <ele>1790.4</ele>
        <time>2022-08-14T21:17:09Z</time>
      </trkpt>
      <trkpt lat="4.2739090" lon="-76.2805620">
        <ele>1788.6</ele>
        <time>2022-08-14T21:17:10Z</time>
      </trkpt>
      <trkpt lat="4.2738270" lon="-76.2805280">
        <ele>1787.6</ele>
        <time>2022-08-14T21:17:11Z</time>
      </trkpt>
      <trkpt lat="4.2737550" lon="-76.2804740">
        <ele>1786.4</ele>
        <time>2022-08-14T21:17:12Z</time>
      </trkpt>
      <trkpt lat="4.2736780" lon="-76.2804130">
        <ele>1785.4</ele>
        <time>2022-08-14T21:17:13Z</time>
      </trkpt>
      <trkpt lat="4.2735890" lon="-76.2803580">
        <ele>1784.6</ele>
        <time>2022-08-14T21:17:14Z</time>
      </trkpt>
      <trkpt lat="4.2734900" lon="-76.2803090">
        <ele>1784.0</ele>
        <time>2022-08-14T21:17:15Z</time>
      </trkpt>
      <trkpt lat="4.2733870" lon="-76.2802650">
        <ele>1783.6</ele>
        <time>2022-08-14T21:17:16Z</time>
      </trkpt>
      <trkpt lat="4.2732800" lon="-76.2802260">
        <ele>1782.8</ele>
        <time>2022-08-14T21:17:17Z</time>
      </trkpt>
      <trkpt lat="4.2730660" lon="-76.2801770">
        <ele>1781.2</ele>
        <time>2022-08-14T21:17:19Z</time>
      </trkpt>
      <trkpt lat="4.2729640" lon="-76.2801700">
        <ele>1780.2</ele>
        <time>2022-08-14T21:17:20Z</time>
      </trkpt>
      <trkpt lat="4.2728680" lon="-76.2801700">
        <ele>1778.6</ele>
        <time>2022-08-14T21:17:21Z</time>
      </trkpt>
      <trkpt lat="4.2727740" lon="-76.2801690">
        <ele>1777.0</ele>
        <time>2022-08-14T21:17:22Z</time>
      </trkpt>
      <trkpt lat="4.2726780" lon="-76.2801600">
        <ele>1775.6</ele>
        <time>2022-08-14T21:17:23Z</time>
      </trkpt>
      <trkpt lat="4.2725940" lon="-76.2801310">
        <ele>1774.2</ele>
        <time>2022-08-14T21:17:24Z</time>
      </trkpt>
      <trkpt lat="4.2725140" lon="-76.2800880">
        <ele>1773.4</ele>
        <time>2022-08-14T21:17:25Z</time>
      </trkpt>
      <trkpt lat="4.2724450" lon="-76.2800290">
        <ele>1772.4</ele>
        <time>2022-08-14T21:17:26Z</time>
      </trkpt>
      <trkpt lat="4.2723810" lon="-76.2799690">
        <ele>1772.4</ele>
        <time>2022-08-14T21:17:27Z</time>
      </trkpt>
      <trkpt lat="4.2722500" lon="-76.2798540">
        <ele>1770.8</ele>
        <time>2022-08-14T21:17:29Z</time>
      </trkpt>
      <trkpt lat="4.2720910" lon="-76.2797500">
        <ele>1768.6</ele>
        <time>2022-08-14T21:17:31Z</time>
      </trkpt>
      <trkpt lat="4.2720040" lon="-76.2797010">
        <ele>1767.8</ele>
        <time>2022-08-14T21:17:32Z</time>
      </trkpt>
      <trkpt lat="4.2719090" lon="-76.2796640">
        <ele>1766.8</ele>
        <time>2022-08-14T21:17:33Z</time>
      </trkpt>
      <trkpt lat="4.2718150" lon="-76.2796340">
        <ele>1765.8</ele>
        <time>2022-08-14T21:17:34Z</time>
      </trkpt>
      <trkpt lat="4.2717220" lon="-76.2796020">
        <ele>1764.8</ele>
        <time>2022-08-14T21:17:35Z</time>
      </trkpt>
      <trkpt lat="4.2716370" lon="-76.2795650">
        <ele>1764.0</ele>
        <time>2022-08-14T21:17:36Z</time>
      </trkpt>
      <trkpt lat="4.2715590" lon="-76.2795190">
        <ele>1762.6</ele>
        <time>2022-08-14T21:17:37Z</time>
      </trkpt>
      <trkpt lat="4.2714970" lon="-76.2794610">
        <ele>1761.0</ele>
        <time>2022-08-14T21:17:38Z</time>
      </trkpt>
      <trkpt lat="4.2714460" lon="-76.2793940">
        <ele>1759.6</ele>
        <time>2022-08-14T21:17:39Z</time>
      </trkpt>
      <trkpt lat="4.2714080" lon="-76.2793130">
        <ele>1758.8</ele>
        <time>2022-08-14T21:17:40Z</time>
      </trkpt>
      <trkpt lat="4.2713830" lon="-76.2792120">
        <ele>1757.6</ele>
        <time>2022-08-14T21:17:41Z</time>
      </trkpt>
      <trkpt lat="4.2713620" lon="-76.2789810">
        <ele>1755.8</ele>
        <time>2022-08-14T21:17:43Z</time>
      </trkpt>
      <trkpt lat="4.2713490" lon="-76.2788810">
        <ele>1755.0</ele>
        <time>2022-08-14T21:17:44Z</time>
      </trkpt>
      <trkpt lat="4.2713380" lon="-76.2787910">
        <ele>1754.4</ele>
        <time>2022-08-14T21:17:45Z</time>
      </trkpt>
      <trkpt lat="4.2713370" lon="-76.2787070">
        <ele>1753.6</ele>
        <time>2022-08-14T21:17:46Z</time>
      </trkpt>
      <trkpt lat="4.2713610" lon="-76.2786370">
        <ele>1752.4</ele>
        <time>2022-08-14T21:17:47Z</time>
      </trkpt>
      <trkpt lat="4.2714100" lon="-76.2785820">
        <ele>1751.0</ele>
        <time>2022-08-14T21:17:48Z</time>
      </trkpt>
      <trkpt lat="4.2714780" lon="-76.2785260">
        <ele>1749.4</ele>
        <time>2022-08-14T21:17:49Z</time>
      </trkpt>
      <trkpt lat="4.2715440" lon="-76.2784630">
        <ele>1747.2</ele>
        <time>2022-08-14T21:17:50Z</time>
      </trkpt>
      <trkpt lat="4.2716370" lon="-76.2783390">
        <ele>1744.8</ele>
        <time>2022-08-14T21:17:52Z</time>
      </trkpt>
      <trkpt lat="4.2716530" lon="-76.2782790">
        <ele>1743.4</ele>
        <time>2022-08-14T21:17:53Z</time>
      </trkpt>
      <trkpt lat="4.2716480" lon="-76.2782260">
        <ele>1742.8</ele>
        <time>2022-08-14T21:17:54Z</time>
      </trkpt>
      <trkpt lat="4.2716200" lon="-76.2781790">
        <ele>1742.4</ele>
        <time>2022-08-14T21:17:55Z</time>
      </trkpt>
      <trkpt lat="4.2715550" lon="-76.2781410">
        <ele>1741.8</ele>
        <time>2022-08-14T21:17:56Z</time>
      </trkpt>
      <trkpt lat="4.2714570" lon="-76.2781150">
        <ele>1741.0</ele>
        <time>2022-08-14T21:17:57Z</time>
      </trkpt>
      <trkpt lat="4.2713660" lon="-76.2781010">
        <ele>1740.4</ele>
        <time>2022-08-14T21:17:58Z</time>
      </trkpt>
      <trkpt lat="4.2712820" lon="-76.2781120">
        <ele>1739.8</ele>
        <time>2022-08-14T21:17:59Z</time>
      </trkpt>
      <trkpt lat="4.2711980" lon="-76.2781450">
        <ele>1739.2</ele>
        <time>2022-08-14T21:18:00Z</time>
      </trkpt>
      <trkpt lat="4.2711050" lon="-76.2781830">
        <ele>1738.6</ele>
        <time>2022-08-14T21:18:01Z</time>
      </trkpt>
      <trkpt lat="4.2708980" lon="-76.2782580">
        <ele>1737.4</ele>
        <time>2022-08-14T21:18:03Z</time>
      </trkpt>
      <trkpt lat="4.2707780" lon="-76.2783180">
        <ele>1736.2</ele>
        <time>2022-08-14T21:18:04Z</time>
      </trkpt>
      <trkpt lat="4.2705570" lon="-76.2783680">
        <ele>1734.8</ele>
        <time>2022-08-14T21:18:06Z</time>
      </trkpt>
      <trkpt lat="4.2704400" lon="-76.2783790">
        <ele>1733.6</ele>
        <time>2022-08-14T21:18:07Z</time>
      </trkpt>
      <trkpt lat="4.2703240" lon="-76.2783600">
        <ele>1732.0</ele>
        <time>2022-08-14T21:18:08Z</time>
      </trkpt>
      <trkpt lat="4.2702070" lon="-76.2783390">
        <ele>1730.4</ele>
        <time>2022-08-14T21:18:09Z</time>
      </trkpt>
      <trkpt lat="4.2700930" lon="-76.2783180">
        <ele>1729.4</ele>
        <time>2022-08-14T21:18:10Z</time>
      </trkpt>
      <trkpt lat="4.2699680" lon="-76.2783090">
        <ele>1728.6</ele>
        <time>2022-08-14T21:18:11Z</time>
      </trkpt>
      <trkpt lat="4.2698460" lon="-76.2783170">
        <ele>1727.6</ele>
        <time>2022-08-14T21:18:12Z</time>
      </trkpt>
      <trkpt lat="4.2697270" lon="-76.2783340">
        <ele>1727.0</ele>
        <time>2022-08-14T21:18:13Z</time>
      </trkpt>
      <trkpt lat="4.2696130" lon="-76.2783740">
        <ele>1726.4</ele>
        <time>2022-08-14T21:18:14Z</time>
      </trkpt>
      <trkpt lat="4.2695000" lon="-76.2784220">
        <ele>1726.4</ele>
        <time>2022-08-14T21:18:15Z</time>
      </trkpt>
      <trkpt lat="4.2692790" lon="-76.2785310">
        <ele>1724.8</ele>
        <time>2022-08-14T21:18:17Z</time>
      </trkpt>
      <trkpt lat="4.2690620" lon="-76.2786330">
        <ele>1723.2</ele>
        <time>2022-08-14T21:18:19Z</time>
      </trkpt>
      <trkpt lat="4.2689600" lon="-76.2786830">
        <ele>1721.8</ele>
        <time>2022-08-14T21:18:20Z</time>
      </trkpt>
      <trkpt lat="4.2688650" lon="-76.2787370">
        <ele>1720.4</ele>
        <time>2022-08-14T21:18:21Z</time>
      </trkpt>
      <trkpt lat="4.2687740" lon="-76.2787910">
        <ele>1718.8</ele>
        <time>2022-08-14T21:18:22Z</time>
      </trkpt>
      <trkpt lat="4.2686840" lon="-76.2788470">
        <ele>1717.2</ele>
        <time>2022-08-14T21:18:23Z</time>
      </trkpt>
      <trkpt lat="4.2686020" lon="-76.2789090">
        <ele>1716.2</ele>
        <time>2022-08-14T21:18:24Z</time>
      </trkpt>
      <trkpt lat="4.2685210" lon="-76.2789720">
        <ele>1715.8</ele>
        <time>2022-08-14T21:18:25Z</time>
      </trkpt>
      <trkpt lat="4.2682260" lon="-76.2792430">
        <ele>1715.0</ele>
        <time>2022-08-14T21:18:29Z</time>
      </trkpt>
      <trkpt lat="4.2681650" lon="-76.2793140">
        <ele>1714.8</ele>
        <time>2022-08-14T21:18:30Z</time>
      </trkpt>
      <trkpt lat="4.2680750" lon="-76.2794710">
        <ele>1714.6</ele>
        <time>2022-08-14T21:18:32Z</time>
      </trkpt>
      <trkpt lat="4.2679610" lon="-76.2797180">
        <ele>1714.0</ele>
        <time>2022-08-14T21:18:35Z</time>
      </trkpt>
      <trkpt lat="4.2679030" lon="-76.2797890">
        <ele>1713.4</ele>
        <time>2022-08-14T21:18:36Z</time>
      </trkpt>
      <trkpt lat="4.2678300" lon="-76.2798500">
        <ele>1712.8</ele>
        <time>2022-08-14T21:18:37Z</time>
      </trkpt>
      <trkpt lat="4.2676520" lon="-76.2799470">
        <ele>1712.2</ele>
        <time>2022-08-14T21:18:39Z</time>
      </trkpt>
      <trkpt lat="4.2673790" lon="-76.2800850">
        <ele>1710.2</ele>
        <time>2022-08-14T21:18:42Z</time>
      </trkpt>
      <trkpt lat="4.2672940" lon="-76.2801380">
        <ele>1709.0</ele>
        <time>2022-08-14T21:18:43Z</time>
      </trkpt>
      <trkpt lat="4.2671490" lon="-76.2802540">
        <ele>1707.6</ele>
        <time>2022-08-14T21:18:45Z</time>
      </trkpt>
      <trkpt lat="4.2670880" lon="-76.2803180">
        <ele>1706.6</ele>
        <time>2022-08-14T21:18:46Z</time>
      </trkpt>
      <trkpt lat="4.2669860" lon="-76.2804500">
        <ele>1705.2</ele>
        <time>2022-08-14T21:18:48Z</time>
      </trkpt>
      <trkpt lat="4.2669340" lon="-76.2805140">
        <ele>1705.0</ele>
        <time>2022-08-14T21:18:49Z</time>
      </trkpt>
      <trkpt lat="4.2668820" lon="-76.2805740">
        <ele>1705.0</ele>
        <time>2022-08-14T21:18:50Z</time>
      </trkpt>
      <trkpt lat="4.2667380" lon="-76.2807390">
        <ele>1704.8</ele>
        <time>2022-08-14T21:18:53Z</time>
      </trkpt>
      <trkpt lat="4.2667060" lon="-76.2807940">
        <ele>1704.8</ele>
        <time>2022-08-14T21:18:54Z</time>
      </trkpt>
      <trkpt lat="4.2666860" lon="-76.2808460">
        <ele>1704.8</ele>
        <time>2022-08-14T21:18:55Z</time>
      </trkpt>
      <trkpt lat="4.2666500" lon="-76.2809950">
        <ele>1705.0</ele>
        <time>2022-08-14T21:18:58Z</time>
      </trkpt>
      <trkpt lat="4.2666120" lon="-76.2811150">
        <ele>1705.6</ele>
        <time>2022-08-14T21:19:01Z</time>
      </trkpt>
      <trkpt lat="4.2665680" lon="-76.2811840">
        <ele>1706.2</ele>
        <time>2022-08-14T21:19:03Z</time>
      </trkpt>
      <trkpt lat="4.2665050" lon="-76.2812480">
        <ele>1706.4</ele>
        <time>2022-08-14T21:19:05Z</time>
      </trkpt>
      <trkpt lat="4.2664290" lon="-76.2813010">
        <ele>1708.4</ele>
        <time>2022-08-14T21:19:07Z</time>
      </trkpt>
      <trkpt lat="4.2663450" lon="-76.2813510">
        <ele>1709.6</ele>
        <time>2022-08-14T21:19:09Z</time>
      </trkpt>
      <trkpt lat="4.2662140" lon="-76.2814300">
        <ele>1710.2</ele>
        <time>2022-08-14T21:19:12Z</time>
      </trkpt>
      <trkpt lat="4.2660960" lon="-76.2815420">
        <ele>1710.6</ele>
        <time>2022-08-14T21:19:15Z</time>
      </trkpt>
      <trkpt lat="4.2659430" lon="-76.2817010">
        <ele>1710.8</ele>
        <time>2022-08-14T21:19:19Z</time>
      </trkpt>
      <trkpt lat="4.2657890" lon="-76.2818780">
        <ele>1710.8</ele>
        <time>2022-08-14T21:19:23Z</time>
      </trkpt>
      <trkpt lat="4.2654550" lon="-76.2822650">
        <ele>1710.0</ele>
        <time>2022-08-14T21:19:31Z</time>
      </trkpt>
      <trkpt lat="4.2653280" lon="-76.2824300">
        <ele>1709.4</ele>
        <time>2022-08-14T21:19:34Z</time>
      </trkpt>
      <trkpt lat="4.2651550" lon="-76.2826630">
        <ele>1708.4</ele>
        <time>2022-08-14T21:19:38Z</time>
      </trkpt>
      <trkpt lat="4.2651090" lon="-76.2827200">
        <ele>1708.4</ele>
        <time>2022-08-14T21:19:39Z</time>
      </trkpt>
      <trkpt lat="4.2648850" lon="-76.2830350">
        <ele>1707.0</ele>
        <time>2022-08-14T21:19:44Z</time>
      </trkpt>
      <trkpt lat="4.2648440" lon="-76.2831030">
        <ele>1706.4</ele>
        <time>2022-08-14T21:19:45Z</time>
      </trkpt>
      <trkpt lat="4.2647990" lon="-76.2831650">
        <ele>1705.8</ele>
        <time>2022-08-14T21:19:46Z</time>
      </trkpt>
      <trkpt lat="4.2646880" lon="-76.2832830">
        <ele>1705.0</ele>
        <time>2022-08-14T21:19:48Z</time>
      </trkpt>
      <trkpt lat="4.2646210" lon="-76.2833380">
        <ele>1704.6</ele>
        <time>2022-08-14T21:19:49Z</time>
      </trkpt>
      <trkpt lat="4.2644620" lon="-76.2834450">
        <ele>1704.0</ele>
        <time>2022-08-14T21:19:51Z</time>
      </trkpt>
      <trkpt lat="4.2642880" lon="-76.2835600">
        <ele>1703.8</ele>
        <time>2022-08-14T21:19:53Z</time>
      </trkpt>
      <trkpt lat="4.2641980" lon="-76.2836270">
        <ele>1703.4</ele>
        <time>2022-08-14T21:19:54Z</time>
      </trkpt>
      <trkpt lat="4.2639210" lon="-76.2838220">
        <ele>1702.0</ele>
        <time>2022-08-14T21:19:57Z</time>
      </trkpt>
      <trkpt lat="4.2638290" lon="-76.2838850">
        <ele>1701.0</ele>
        <time>2022-08-14T21:19:58Z</time>
      </trkpt>
      <trkpt lat="4.2637440" lon="-76.2839400">
        <ele>1700.0</ele>
        <time>2022-08-14T21:19:59Z</time>
      </trkpt>
      <trkpt lat="4.2636640" lon="-76.2839930">
        <ele>1699.0</ele>
        <time>2022-08-14T21:20:00Z</time>
      </trkpt>
      <trkpt lat="4.2635250" lon="-76.2840820">
        <ele>1697.2</ele>
        <time>2022-08-14T21:20:02Z</time>
      </trkpt>
      <trkpt lat="4.2634650" lon="-76.2841120">
        <ele>1695.6</ele>
        <time>2022-08-14T21:20:03Z</time>
      </trkpt>
      <trkpt lat="4.2634040" lon="-76.2841270">
        <ele>1694.4</ele>
        <time>2022-08-14T21:20:04Z</time>
      </trkpt>
      <trkpt lat="4.2633380" lon="-76.2841300">
        <ele>1693.6</ele>
        <time>2022-08-14T21:20:05Z</time>
      </trkpt>
      <trkpt lat="4.2632710" lon="-76.2841150">
        <ele>1693.0</ele>
        <time>2022-08-14T21:20:06Z</time>
      </trkpt>
      <trkpt lat="4.2632000" lon="-76.2840750">
        <ele>1692.2</ele>
        <time>2022-08-14T21:20:07Z</time>
      </trkpt>
      <trkpt lat="4.2631250" lon="-76.2840150">
        <ele>1691.6</ele>
        <time>2022-08-14T21:20:08Z</time>
      </trkpt>
      <trkpt lat="4.2630470" lon="-76.2839570">
        <ele>1691.2</ele>
        <time>2022-08-14T21:20:09Z</time>
      </trkpt>
      <trkpt lat="4.2629640" lon="-76.2839090">
        <ele>1691.0</ele>
        <time>2022-08-14T21:20:10Z</time>
      </trkpt>
      <trkpt lat="4.2627920" lon="-76.2838500">
        <ele>1690.2</ele>
        <time>2022-08-14T21:20:12Z</time>
      </trkpt>
      <trkpt lat="4.2626160" lon="-76.2838660">
        <ele>1688.6</ele>
        <time>2022-08-14T21:20:14Z</time>
      </trkpt>
      <trkpt lat="4.2625290" lon="-76.2838940">
        <ele>1687.4</ele>
        <time>2022-08-14T21:20:15Z</time>
      </trkpt>
      <trkpt lat="4.2624430" lon="-76.2839320">
        <ele>1686.2</ele>
        <time>2022-08-14T21:20:16Z</time>
      </trkpt>
      <trkpt lat="4.2623680" lon="-76.2839790">
        <ele>1686.2</ele>
        <time>2022-08-14T21:20:17Z</time>
      </trkpt>
      <trkpt lat="4.2623070" lon="-76.2840360">
        <ele>1684.8</ele>
        <time>2022-08-14T21:20:18Z</time>
      </trkpt>
      <trkpt lat="4.2622580" lon="-76.2841070">
        <ele>1684.0</ele>
        <time>2022-08-14T21:20:19Z</time>
      </trkpt>
      <trkpt lat="4.2622140" lon="-76.2841880">
        <ele>1683.4</ele>
        <time>2022-08-14T21:20:20Z</time>
      </trkpt>
      <trkpt lat="4.2621690" lon="-76.2842790">
        <ele>1682.8</ele>
        <time>2022-08-14T21:20:21Z</time>
      </trkpt>
      <trkpt lat="4.2621120" lon="-76.2843720">
        <ele>1682.2</ele>
        <time>2022-08-14T21:20:22Z</time>
      </trkpt>
      <trkpt lat="4.2619710" lon="-76.2845560">
        <ele>1681.0</ele>
        <time>2022-08-14T21:20:24Z</time>
      </trkpt>
      <trkpt lat="4.2618260" lon="-76.2847470">
        <ele>1679.2</ele>
        <time>2022-08-14T21:20:26Z</time>
      </trkpt>
      <trkpt lat="4.2617050" lon="-76.2849500">
        <ele>1677.8</ele>
        <time>2022-08-14T21:20:28Z</time>
      </trkpt>
      <trkpt lat="4.2616540" lon="-76.2850560">
        <ele>1677.0</ele>
        <time>2022-08-14T21:20:29Z</time>
      </trkpt>
      <trkpt lat="4.2616130" lon="-76.2851530">
        <ele>1676.2</ele>
        <time>2022-08-14T21:20:30Z</time>
      </trkpt>
      <trkpt lat="4.2615770" lon="-76.2852430">
        <ele>1675.0</ele>
        <time>2022-08-14T21:20:31Z</time>
      </trkpt>
      <trkpt lat="4.2615520" lon="-76.2853350">
        <ele>1673.4</ele>
        <time>2022-08-14T21:20:32Z</time>
      </trkpt>
      <trkpt lat="4.2615410" lon="-76.2854360">
        <ele>1671.6</ele>
        <time>2022-08-14T21:20:33Z</time>
      </trkpt>
      <trkpt lat="4.2615430" lon="-76.2855460">
        <ele>1670.4</ele>
        <time>2022-08-14T21:20:34Z</time>
      </trkpt>
      <trkpt lat="4.2615480" lon="-76.2856520">
        <ele>1669.2</ele>
        <time>2022-08-14T21:20:35Z</time>
      </trkpt>
      <trkpt lat="4.2615400" lon="-76.2858660">
        <ele>1668.2</ele>
        <time>2022-08-14T21:20:37Z</time>
      </trkpt>
      <trkpt lat="4.2615540" lon="-76.2860880">
        <ele>1667.0</ele>
        <time>2022-08-14T21:20:39Z</time>
      </trkpt>
      <trkpt lat="4.2615900" lon="-76.2862030">
        <ele>1666.0</ele>
        <time>2022-08-14T21:20:40Z</time>
      </trkpt>
      <trkpt lat="4.2616280" lon="-76.2863090">
        <ele>1666.0</ele>
        <time>2022-08-14T21:20:41Z</time>
      </trkpt>
      <trkpt lat="4.2617340" lon="-76.2865400">
        <ele>1664.8</ele>
        <time>2022-08-14T21:20:43Z</time>
      </trkpt>
      <trkpt lat="4.2617820" lon="-76.2866380">
        <ele>1663.6</ele>
        <time>2022-08-14T21:20:44Z</time>
      </trkpt>
      <trkpt lat="4.2618130" lon="-76.2867260">
        <ele>1662.2</ele>
        <time>2022-08-14T21:20:45Z</time>
      </trkpt>
      <trkpt lat="4.2618390" lon="-76.2868030">
        <ele>1661.4</ele>
        <time>2022-08-14T21:20:46Z</time>
      </trkpt>
      <trkpt lat="4.2618380" lon="-76.2868780">
        <ele>1660.4</ele>
        <time>2022-08-14T21:20:47Z</time>
      </trkpt>
      <trkpt lat="4.2618150" lon="-76.2869470">
        <ele>1659.0</ele>
        <time>2022-08-14T21:20:48Z</time>
      </trkpt>
      <trkpt lat="4.2617580" lon="-76.2870000">
        <ele>1657.6</ele>
        <time>2022-08-14T21:20:49Z</time>
      </trkpt>
      <trkpt lat="4.2616750" lon="-76.2870400">
        <ele>1656.4</ele>
        <time>2022-08-14T21:20:50Z</time>
      </trkpt>
      <trkpt lat="4.2615840" lon="-76.2870630">
        <ele>1655.0</ele>
        <time>2022-08-14T21:20:51Z</time>
      </trkpt>
      <trkpt lat="4.2614850" lon="-76.2870730">
        <ele>1654.2</ele>
        <time>2022-08-14T21:20:52Z</time>
      </trkpt>
      <trkpt lat="4.2613790" lon="-76.2870820">
        <ele>1653.0</ele>
        <time>2022-08-14T21:20:53Z</time>
      </trkpt>
      <trkpt lat="4.2611560" lon="-76.2870890">
        <ele>1651.8</ele>
        <time>2022-08-14T21:20:55Z</time>
      </trkpt>
      <trkpt lat="4.2610410" lon="-76.2870750">
        <ele>1651.4</ele>
        <time>2022-08-14T21:20:56Z</time>
      </trkpt>
      <trkpt lat="4.2609250" lon="-76.2870500">
        <ele>1650.8</ele>
        <time>2022-08-14T21:20:57Z</time>
      </trkpt>
      <trkpt lat="4.2606860" lon="-76.2869840">
        <ele>1649.0</ele>
        <time>2022-08-14T21:20:59Z</time>
      </trkpt>
      <trkpt lat="4.2605680" lon="-76.2869490">
        <ele>1647.6</ele>
        <time>2022-08-14T21:21:00Z</time>
      </trkpt>
      <trkpt lat="4.2604620" lon="-76.2869090">
        <ele>1646.2</ele>
        <time>2022-08-14T21:21:01Z</time>
      </trkpt>
      <trkpt lat="4.2603650" lon="-76.2868630">
        <ele>1645.0</ele>
        <time>2022-08-14T21:21:02Z</time>
      </trkpt>
      <trkpt lat="4.2602720" lon="-76.2868030">
        <ele>1643.6</ele>
        <time>2022-08-14T21:21:03Z</time>
      </trkpt>
      <trkpt lat="4.2601880" lon="-76.2867300">
        <ele>1642.2</ele>
        <time>2022-08-14T21:21:04Z</time>
      </trkpt>
      <trkpt lat="4.2601080" lon="-76.2866510">
        <ele>1640.8</ele>
        <time>2022-08-14T21:21:05Z</time>
      </trkpt>
      <trkpt lat="4.2600390" lon="-76.2865730">
        <ele>1640.8</ele>
        <time>2022-08-14T21:21:06Z</time>
      </trkpt>
      <trkpt lat="4.2599760" lon="-76.2865000">
        <ele>1639.6</ele>
        <time>2022-08-14T21:21:07Z</time>
      </trkpt>
      <trkpt lat="4.2599110" lon="-76.2864480">
        <ele>1638.4</ele>
        <time>2022-08-14T21:21:08Z</time>
      </trkpt>
      <trkpt lat="4.2598380" lon="-76.2864130">
        <ele>1637.2</ele>
        <time>2022-08-14T21:21:09Z</time>
      </trkpt>
      <trkpt lat="4.2597480" lon="-76.2863980">
        <ele>1636.4</ele>
        <time>2022-08-14T21:21:10Z</time>
      </trkpt>
      <trkpt lat="4.2596660" lon="-76.2864090">
        <ele>1635.6</ele>
        <time>2022-08-14T21:21:11Z</time>
      </trkpt>
      <trkpt lat="4.2596070" lon="-76.2864440">
        <ele>1634.6</ele>
        <time>2022-08-14T21:21:12Z</time>
      </trkpt>
      <trkpt lat="4.2595610" lon="-76.2865060">
        <ele>1634.0</ele>
        <time>2022-08-14T21:21:13Z</time>
      </trkpt>
      <trkpt lat="4.2595260" lon="-76.2865620">
        <ele>1633.8</ele>
        <time>2022-08-14T21:21:14Z</time>
      </trkpt>
      <trkpt lat="4.2595090" lon="-76.2866140">
        <ele>1633.6</ele>
        <time>2022-08-14T21:21:15Z</time>
      </trkpt>
      <trkpt lat="4.2595000" lon="-76.2866800">
        <ele>1633.6</ele>
        <time>2022-08-14T21:21:16Z</time>
      </trkpt>
      <trkpt lat="4.2594790" lon="-76.2867940">
        <ele>1633.6</ele>
        <time>2022-08-14T21:21:18Z</time>
      </trkpt>
      <trkpt lat="4.2594730" lon="-76.2868470">
        <ele>1633.6</ele>
        <time>2022-08-14T21:21:19Z</time>
      </trkpt>
      <trkpt lat="4.2594610" lon="-76.2869010">
        <ele>1633.6</ele>
        <time>2022-08-14T21:21:20Z</time>
      </trkpt>
      <trkpt lat="4.2594130" lon="-76.2869940">
        <ele>1633.6</ele>
        <time>2022-08-14T21:21:22Z</time>
      </trkpt>
      <trkpt lat="4.2593760" lon="-76.2870380">
        <ele>1633.6</ele>
        <time>2022-08-14T21:21:23Z</time>
      </trkpt>
      <trkpt lat="4.2592770" lon="-76.2871210">
        <ele>1633.6</ele>
        <time>2022-08-14T21:21:25Z</time>
      </trkpt>
      <trkpt lat="4.2592160" lon="-76.2871440">
        <ele>1633.6</ele>
        <time>2022-08-14T21:21:26Z</time>
      </trkpt>
      <trkpt lat="4.2591490" lon="-76.2871580">
        <ele>1633.6</ele>
        <time>2022-08-14T21:21:27Z</time>
      </trkpt>
      <trkpt lat="4.2589210" lon="-76.2872060">
        <ele>1633.6</ele>
        <time>2022-08-14T21:21:30Z</time>
      </trkpt>
      <trkpt lat="4.2586210" lon="-76.2873540">
        <ele>1633.4</ele>
        <time>2022-08-14T21:21:34Z</time>
      </trkpt>
      <trkpt lat="4.2584630" lon="-76.2874500">
        <ele>1633.2</ele>
        <time>2022-08-14T21:21:36Z</time>
      </trkpt>
      <trkpt lat="4.2583080" lon="-76.2875470">
        <ele>1632.0</ele>
        <time>2022-08-14T21:21:38Z</time>
      </trkpt>
      <trkpt lat="4.2582350" lon="-76.2876040">
        <ele>1631.4</ele>
        <time>2022-08-14T21:21:39Z</time>
      </trkpt>
      <trkpt lat="4.2581660" lon="-76.2876690">
        <ele>1630.4</ele>
        <time>2022-08-14T21:21:40Z</time>
      </trkpt>
      <trkpt lat="4.2581030" lon="-76.2877470">
        <ele>1630.0</ele>
        <time>2022-08-14T21:21:41Z</time>
      </trkpt>
      <trkpt lat="4.2580460" lon="-76.2878300">
        <ele>1629.4</ele>
        <time>2022-08-14T21:21:42Z</time>
      </trkpt>
      <trkpt lat="4.2579480" lon="-76.2879960">
        <ele>1628.2</ele>
        <time>2022-08-14T21:21:44Z</time>
      </trkpt>
      <trkpt lat="4.2578620" lon="-76.2881650">
        <ele>1627.0</ele>
        <time>2022-08-14T21:21:46Z</time>
      </trkpt>
      <trkpt lat="4.2578150" lon="-76.2882480">
        <ele>1626.6</ele>
        <time>2022-08-14T21:21:47Z</time>
      </trkpt>
      <trkpt lat="4.2577230" lon="-76.2884130">
        <ele>1625.2</ele>
        <time>2022-08-14T21:21:49Z</time>
      </trkpt>
      <trkpt lat="4.2576470" lon="-76.2885790">
        <ele>1624.4</ele>
        <time>2022-08-14T21:21:51Z</time>
      </trkpt>
      <trkpt lat="4.2576260" lon="-76.2886670">
        <ele>1624.0</ele>
        <time>2022-08-14T21:21:52Z</time>
      </trkpt>
      <trkpt lat="4.2576190" lon="-76.2887660">
        <ele>1623.8</ele>
        <time>2022-08-14T21:21:53Z</time>
      </trkpt>
      <trkpt lat="4.2576870" lon="-76.2891610">
        <ele>1623.0</ele>
        <time>2022-08-14T21:21:57Z</time>
      </trkpt>
      <trkpt lat="4.2577910" lon="-76.2893440">
        <ele>1622.4</ele>
        <time>2022-08-14T21:21:59Z</time>
      </trkpt>
      <trkpt lat="4.2578600" lon="-76.2894270">
        <ele>1622.0</ele>
        <time>2022-08-14T21:22:00Z</time>
      </trkpt>
      <trkpt lat="4.2579350" lon="-76.2895090">
        <ele>1621.6</ele>
        <time>2022-08-14T21:22:01Z</time>
      </trkpt>
      <trkpt lat="4.2580810" lon="-76.2896880">
        <ele>1620.4</ele>
        <time>2022-08-14T21:22:03Z</time>
      </trkpt>
      <trkpt lat="4.2582290" lon="-76.2898420">
        <ele>1619.2</ele>
        <time>2022-08-14T21:22:05Z</time>
      </trkpt>
      <trkpt lat="4.2582970" lon="-76.2899320">
        <ele>1618.6</ele>
        <time>2022-08-14T21:22:06Z</time>
      </trkpt>
      <trkpt lat="4.2583480" lon="-76.2900180">
        <ele>1617.8</ele>
        <time>2022-08-14T21:22:07Z</time>
      </trkpt>
      <trkpt lat="4.2583850" lon="-76.2901080">
        <ele>1616.6</ele>
        <time>2022-08-14T21:22:08Z</time>
      </trkpt>
      <trkpt lat="4.2584050" lon="-76.2902060">
        <ele>1615.2</ele>
        <time>2022-08-14T21:22:09Z</time>
      </trkpt>
      <trkpt lat="4.2584080" lon="-76.2903150">
        <ele>1614.0</ele>
        <time>2022-08-14T21:22:10Z</time>
      </trkpt>
      <trkpt lat="4.2584040" lon="-76.2904260">
        <ele>1612.8</ele>
        <time>2022-08-14T21:22:11Z</time>
      </trkpt>
      <trkpt lat="4.2583930" lon="-76.2906310">
        <ele>1611.6</ele>
        <time>2022-08-14T21:22:13Z</time>
      </trkpt>
      <trkpt lat="4.2584000" lon="-76.2908180">
        <ele>1609.8</ele>
        <time>2022-08-14T21:22:15Z</time>
      </trkpt>
      <trkpt lat="4.2584240" lon="-76.2909110">
        <ele>1608.8</ele>
        <time>2022-08-14T21:22:16Z</time>
      </trkpt>
      <trkpt lat="4.2584580" lon="-76.2910020">
        <ele>1608.0</ele>
        <time>2022-08-14T21:22:17Z</time>
      </trkpt>
      <trkpt lat="4.2586040" lon="-76.2912690">
        <ele>1606.2</ele>
        <time>2022-08-14T21:22:20Z</time>
      </trkpt>
      <trkpt lat="4.2586660" lon="-76.2914580">
        <ele>1605.4</ele>
        <time>2022-08-14T21:22:22Z</time>
      </trkpt>
      <trkpt lat="4.2586730" lon="-76.2915550">
        <ele>1604.8</ele>
        <time>2022-08-14T21:22:23Z</time>
      </trkpt>
      <trkpt lat="4.2586620" lon="-76.2916540">
        <ele>1604.2</ele>
        <time>2022-08-14T21:22:24Z</time>
      </trkpt>
      <trkpt lat="4.2586460" lon="-76.2917520">
        <ele>1603.2</ele>
        <time>2022-08-14T21:22:25Z</time>
      </trkpt>
      <trkpt lat="4.2586030" lon="-76.2919160">
        <ele>1602.2</ele>
        <time>2022-08-14T21:22:27Z</time>
      </trkpt>
      <trkpt lat="4.2585160" lon="-76.2920450">
        <ele>1601.0</ele>
        <time>2022-08-14T21:22:29Z</time>
      </trkpt>
      <trkpt lat="4.2584500" lon="-76.2920620">
        <ele>1600.2</ele>
        <time>2022-08-14T21:22:30Z</time>
      </trkpt>
      <trkpt lat="4.2583770" lon="-76.2920520">
        <ele>1599.0</ele>
        <time>2022-08-14T21:22:31Z</time>
      </trkpt>
      <trkpt lat="4.2583030" lon="-76.2920100">
        <ele>1598.2</ele>
        <time>2022-08-14T21:22:32Z</time>
      </trkpt>
      <trkpt lat="4.2581530" lon="-76.2918750">
        <ele>1597.0</ele>
        <time>2022-08-14T21:22:34Z</time>
      </trkpt>
      <trkpt lat="4.2580710" lon="-76.2918120">
        <ele>1596.6</ele>
        <time>2022-08-14T21:22:35Z</time>
      </trkpt>
      <trkpt lat="4.2578780" lon="-76.2917310">
        <ele>1595.2</ele>
        <time>2022-08-14T21:22:37Z</time>
      </trkpt>
      <trkpt lat="4.2577690" lon="-76.2917180">
        <ele>1594.2</ele>
        <time>2022-08-14T21:22:38Z</time>
      </trkpt>
      <trkpt lat="4.2576510" lon="-76.2917180">
        <ele>1592.6</ele>
        <time>2022-08-14T21:22:39Z</time>
      </trkpt>
      <trkpt lat="4.2575300" lon="-76.2917200">
        <ele>1591.0</ele>
        <time>2022-08-14T21:22:40Z</time>
      </trkpt>
      <trkpt lat="4.2574070" lon="-76.2917220">
        <ele>1589.4</ele>
        <time>2022-08-14T21:22:41Z</time>
      </trkpt>
      <trkpt lat="4.2571760" lon="-76.2917240">
        <ele>1588.2</ele>
        <time>2022-08-14T21:22:43Z</time>
      </trkpt>
      <trkpt lat="4.2570700" lon="-76.2917210">
        <ele>1586.8</ele>
        <time>2022-08-14T21:22:44Z</time>
      </trkpt>
      <trkpt lat="4.2569640" lon="-76.2917150">
        <ele>1585.4</ele>
        <time>2022-08-14T21:22:45Z</time>
      </trkpt>
      <trkpt lat="4.2568690" lon="-76.2917060">
        <ele>1584.4</ele>
        <time>2022-08-14T21:22:46Z</time>
      </trkpt>
      <trkpt lat="4.2567810" lon="-76.2916930">
        <ele>1583.0</ele>
        <time>2022-08-14T21:22:47Z</time>
      </trkpt>
      <trkpt lat="4.2567010" lon="-76.2916860">
        <ele>1581.6</ele>
        <time>2022-08-14T21:22:48Z</time>
      </trkpt>
      <trkpt lat="4.2566310" lon="-76.2916910">
        <ele>1579.6</ele>
        <time>2022-08-14T21:22:49Z</time>
      </trkpt>
      <trkpt lat="4.2565720" lon="-76.2917130">
        <ele>1578.0</ele>
        <time>2022-08-14T21:22:50Z</time>
      </trkpt>
      <trkpt lat="4.2565150" lon="-76.2917620">
        <ele>1576.8</ele>
        <time>2022-08-14T21:22:51Z</time>
      </trkpt>
      <trkpt lat="4.2564600" lon="-76.2918490">
        <ele>1576.0</ele>
        <time>2022-08-14T21:22:52Z</time>
      </trkpt>
      <trkpt lat="4.2563990" lon="-76.2919360">
        <ele>1575.0</ele>
        <time>2022-08-14T21:22:53Z</time>
      </trkpt>
      <trkpt lat="4.2562580" lon="-76.2921030">
        <ele>1573.6</ele>
        <time>2022-08-14T21:22:55Z</time>
      </trkpt>
      <trkpt lat="4.2561210" lon="-76.2922550">
        <ele>1572.0</ele>
        <time>2022-08-14T21:22:57Z</time>
      </trkpt>
      <trkpt lat="4.2560710" lon="-76.2923400">
        <ele>1570.8</ele>
        <time>2022-08-14T21:22:58Z</time>
      </trkpt>
      <trkpt lat="4.2560340" lon="-76.2924380">
        <ele>1569.4</ele>
        <time>2022-08-14T21:22:59Z</time>
      </trkpt>
      <trkpt lat="4.2560160" lon="-76.2925390">
        <ele>1567.8</ele>
        <time>2022-08-14T21:23:00Z</time>
      </trkpt>
      <trkpt lat="4.2559960" lon="-76.2926340">
        <ele>1565.6</ele>
        <time>2022-08-14T21:23:01Z</time>
      </trkpt>
      <trkpt lat="4.2559720" lon="-76.2927250">
        <ele>1563.4</ele>
        <time>2022-08-14T21:23:02Z</time>
      </trkpt>
      <trkpt lat="4.2559330" lon="-76.2928030">
        <ele>1562.0</ele>
        <time>2022-08-14T21:23:03Z</time>
      </trkpt>
      <trkpt lat="4.2558710" lon="-76.2928730">
        <ele>1561.2</ele>
        <time>2022-08-14T21:23:04Z</time>
      </trkpt>
      <trkpt lat="4.2557870" lon="-76.2929380">
        <ele>1560.0</ele>
        <time>2022-08-14T21:23:05Z</time>
      </trkpt>
      <trkpt lat="4.2556850" lon="-76.2929990">
        <ele>1558.4</ele>
        <time>2022-08-14T21:23:06Z</time>
      </trkpt>
      <trkpt lat="4.2554550" lon="-76.2931150">
        <ele>1557.2</ele>
        <time>2022-08-14T21:23:08Z</time>
      </trkpt>
      <trkpt lat="4.2553360" lon="-76.2931680">
        <ele>1556.0</ele>
        <time>2022-08-14T21:23:09Z</time>
      </trkpt>
      <trkpt lat="4.2552240" lon="-76.2932260">
        <ele>1554.8</ele>
        <time>2022-08-14T21:23:10Z</time>
      </trkpt>
      <trkpt lat="4.2551240" lon="-76.2932860">
        <ele>1553.4</ele>
        <time>2022-08-14T21:23:11Z</time>
      </trkpt>
      <trkpt lat="4.2550360" lon="-76.2933560">
        <ele>1551.8</ele>
        <time>2022-08-14T21:23:12Z</time>
      </trkpt>
      <trkpt lat="4.2549570" lon="-76.2934390">
        <ele>1550.0</ele>
        <time>2022-08-14T21:23:13Z</time>
      </trkpt>
      <trkpt lat="4.2548830" lon="-76.2935270">
        <ele>1548.2</ele>
        <time>2022-08-14T21:23:14Z</time>
      </trkpt>
      <trkpt lat="4.2548080" lon="-76.2936090">
        <ele>1545.8</ele>
        <time>2022-08-14T21:23:15Z</time>
      </trkpt>
      <trkpt lat="4.2547320" lon="-76.2937020">
        <ele>1543.6</ele>
        <time>2022-08-14T21:23:16Z</time>
      </trkpt>
      <trkpt lat="4.2546460" lon="-76.2937840">
        <ele>1542.2</ele>
        <time>2022-08-14T21:23:17Z</time>
      </trkpt>
      <trkpt lat="4.2545500" lon="-76.2938460">
        <ele>1541.0</ele>
        <time>2022-08-14T21:23:18Z</time>
      </trkpt>
      <trkpt lat="4.2544430" lon="-76.2938940">
        <ele>1540.2</ele>
        <time>2022-08-14T21:23:19Z</time>
      </trkpt>
      <trkpt lat="4.2543360" lon="-76.2939320">
        <ele>1539.4</ele>
        <time>2022-08-14T21:23:20Z</time>
      </trkpt>
      <trkpt lat="4.2542300" lon="-76.2939630">
        <ele>1538.8</ele>
        <time>2022-08-14T21:23:21Z</time>
      </trkpt>
      <trkpt lat="4.2541300" lon="-76.2939890">
        <ele>1538.2</ele>
        <time>2022-08-14T21:23:22Z</time>
      </trkpt>
      <trkpt lat="4.2540350" lon="-76.2940100">
        <ele>1537.2</ele>
        <time>2022-08-14T21:23:23Z</time>
      </trkpt>
      <trkpt lat="4.2539420" lon="-76.2940090">
        <ele>1536.4</ele>
        <time>2022-08-14T21:23:24Z</time>
      </trkpt>
      <trkpt lat="4.2538510" lon="-76.2939870">
        <ele>1535.8</ele>
        <time>2022-08-14T21:23:25Z</time>
      </trkpt>
      <trkpt lat="4.2537690" lon="-76.2939490">
        <ele>1535.0</ele>
        <time>2022-08-14T21:23:26Z</time>
      </trkpt>
      <trkpt lat="4.2536920" lon="-76.2939070">
        <ele>1534.4</ele>
        <time>2022-08-14T21:23:27Z</time>
      </trkpt>
      <trkpt lat="4.2536210" lon="-76.2938800">
        <ele>1533.6</ele>
        <time>2022-08-14T21:23:28Z</time>
      </trkpt>
      <trkpt lat="4.2534860" lon="-76.2938790">
        <ele>1532.6</ele>
        <time>2022-08-14T21:23:30Z</time>
      </trkpt>
      <trkpt lat="4.2533820" lon="-76.2939740">
        <ele>1532.2</ele>
        <time>2022-08-14T21:23:32Z</time>
      </trkpt>
      <trkpt lat="4.2533350" lon="-76.2940320">
        <ele>1531.8</ele>
        <time>2022-08-14T21:23:33Z</time>
      </trkpt>
      <trkpt lat="4.2532830" lon="-76.2941050">
        <ele>1531.2</ele>
        <time>2022-08-14T21:23:34Z</time>
      </trkpt>
      <trkpt lat="4.2531610" lon="-76.2942730">
        <ele>1530.6</ele>
        <time>2022-08-14T21:23:36Z</time>
      </trkpt>
      <trkpt lat="4.2530190" lon="-76.2944280">
        <ele>1530.2</ele>
        <time>2022-08-14T21:23:38Z</time>
      </trkpt>
      <trkpt lat="4.2529500" lon="-76.2944910">
        <ele>1529.6</ele>
        <time>2022-08-14T21:23:39Z</time>
      </trkpt>
      <trkpt lat="4.2528830" lon="-76.2945370">
        <ele>1528.6</ele>
        <time>2022-08-14T21:23:40Z</time>
      </trkpt>
      <trkpt lat="4.2528160" lon="-76.2945760">
        <ele>1527.6</ele>
        <time>2022-08-14T21:23:41Z</time>
      </trkpt>
      <trkpt lat="4.2527460" lon="-76.2945920">
        <ele>1526.4</ele>
        <time>2022-08-14T21:23:42Z</time>
      </trkpt>
      <trkpt lat="4.2526760" lon="-76.2945940">
        <ele>1524.8</ele>
        <time>2022-08-14T21:23:43Z</time>
      </trkpt>
      <trkpt lat="4.2526060" lon="-76.2945910">
        <ele>1523.0</ele>
        <time>2022-08-14T21:23:44Z</time>
      </trkpt>
      <trkpt lat="4.2525440" lon="-76.2945830">
        <ele>1521.8</ele>
        <time>2022-08-14T21:23:45Z</time>
      </trkpt>
      <trkpt lat="4.2524130" lon="-76.2945960">
        <ele>1520.4</ele>
        <time>2022-08-14T21:23:47Z</time>
      </trkpt>
      <trkpt lat="4.2522720" lon="-76.2946740">
        <ele>1519.0</ele>
        <time>2022-08-14T21:23:49Z</time>
      </trkpt>
      <trkpt lat="4.2522000" lon="-76.2947200">
        <ele>1518.4</ele>
        <time>2022-08-14T21:23:50Z</time>
      </trkpt>
      <trkpt lat="4.2520580" lon="-76.2948500">
        <ele>1517.6</ele>
        <time>2022-08-14T21:23:52Z</time>
      </trkpt>
      <trkpt lat="4.2518930" lon="-76.2950050">
        <ele>1515.8</ele>
        <time>2022-08-14T21:23:54Z</time>
      </trkpt>
      <trkpt lat="4.2518150" lon="-76.2950870">
        <ele>1514.8</ele>
        <time>2022-08-14T21:23:55Z</time>
      </trkpt>
      <trkpt lat="4.2516540" lon="-76.2952470">
        <ele>1513.4</ele>
        <time>2022-08-14T21:23:57Z</time>
      </trkpt>
      <trkpt lat="4.2515010" lon="-76.2953950">
        <ele>1511.2</ele>
        <time>2022-08-14T21:23:59Z</time>
      </trkpt>
      <trkpt lat="4.2514110" lon="-76.2954630">
        <ele>1509.6</ele>
        <time>2022-08-14T21:24:00Z</time>
      </trkpt>
      <trkpt lat="4.2513120" lon="-76.2955200">
        <ele>1508.0</ele>
        <time>2022-08-14T21:24:01Z</time>
      </trkpt>
      <trkpt lat="4.2512070" lon="-76.2955620">
        <ele>1506.4</ele>
        <time>2022-08-14T21:24:02Z</time>
      </trkpt>
      <trkpt lat="4.2510800" lon="-76.2955730">
        <ele>1505.2</ele>
        <time>2022-08-14T21:24:03Z</time>
      </trkpt>
      <trkpt lat="4.2509660" lon="-76.2955800">
        <ele>1504.0</ele>
        <time>2022-08-14T21:24:04Z</time>
      </trkpt>
      <trkpt lat="4.2508600" lon="-76.2955910">
        <ele>1502.8</ele>
        <time>2022-08-14T21:24:05Z</time>
      </trkpt>
      <trkpt lat="4.2507630" lon="-76.2956120">
        <ele>1501.6</ele>
        <time>2022-08-14T21:24:06Z</time>
      </trkpt>
      <trkpt lat="4.2506800" lon="-76.2956380">
        <ele>1500.4</ele>
        <time>2022-08-14T21:24:07Z</time>
      </trkpt>
      <trkpt lat="4.2506110" lon="-76.2956690">
        <ele>1499.2</ele>
        <time>2022-08-14T21:24:08Z</time>
      </trkpt>
      <trkpt lat="4.2505540" lon="-76.2957100">
        <ele>1497.8</ele>
        <time>2022-08-14T21:24:09Z</time>
      </trkpt>
      <trkpt lat="4.2505180" lon="-76.2957620">
        <ele>1496.4</ele>
        <time>2022-08-14T21:24:10Z</time>
      </trkpt>
      <trkpt lat="4.2505020" lon="-76.2958100">
        <ele>1494.6</ele>
        <time>2022-08-14T21:24:11Z</time>
      </trkpt>
      <trkpt lat="4.2505060" lon="-76.2958600">
        <ele>1493.0</ele>
        <time>2022-08-14T21:24:12Z</time>
      </trkpt>
      <trkpt lat="4.2505310" lon="-76.2959390">
        <ele>1492.0</ele>
        <time>2022-08-14T21:24:13Z</time>
      </trkpt>
      <trkpt lat="4.2505510" lon="-76.2960410">
        <ele>1491.2</ele>
        <time>2022-08-14T21:24:14Z</time>
      </trkpt>
      <trkpt lat="4.2505630" lon="-76.2961450">
        <ele>1490.6</ele>
        <time>2022-08-14T21:24:15Z</time>
      </trkpt>
      <trkpt lat="4.2505710" lon="-76.2962430">
        <ele>1489.8</ele>
        <time>2022-08-14T21:24:16Z</time>
      </trkpt>
      <trkpt lat="4.2505660" lon="-76.2963320">
        <ele>1489.0</ele>
        <time>2022-08-14T21:24:17Z</time>
      </trkpt>
      <trkpt lat="4.2505340" lon="-76.2964180">
        <ele>1488.0</ele>
        <time>2022-08-14T21:24:18Z</time>
      </trkpt>
      <trkpt lat="4.2504730" lon="-76.2964990">
        <ele>1487.0</ele>
        <time>2022-08-14T21:24:19Z</time>
      </trkpt>
      <trkpt lat="4.2503930" lon="-76.2965780">
        <ele>1486.2</ele>
        <time>2022-08-14T21:24:20Z</time>
      </trkpt>
      <trkpt lat="4.2502350" lon="-76.2967550">
        <ele>1485.4</ele>
        <time>2022-08-14T21:24:22Z</time>
      </trkpt>
      <trkpt lat="4.2501720" lon="-76.2968600">
        <ele>1484.6</ele>
        <time>2022-08-14T21:24:23Z</time>
      </trkpt>
      <trkpt lat="4.2501160" lon="-76.2969850">
        <ele>1483.2</ele>
        <time>2022-08-14T21:24:24Z</time>
      </trkpt>
      <trkpt lat="4.2500670" lon="-76.2970900">
        <ele>1482.2</ele>
        <time>2022-08-14T21:24:25Z</time>
      </trkpt>
      <trkpt lat="4.2500190" lon="-76.2971810">
        <ele>1481.0</ele>
        <time>2022-08-14T21:24:26Z</time>
      </trkpt>
      <trkpt lat="4.2499700" lon="-76.2972590">
        <ele>1479.8</ele>
        <time>2022-08-14T21:24:27Z</time>
      </trkpt>
      <trkpt lat="4.2498990" lon="-76.2973310">
        <ele>1478.6</ele>
        <time>2022-08-14T21:24:28Z</time>
      </trkpt>
      <trkpt lat="4.2498180" lon="-76.2973930">
        <ele>1477.6</ele>
        <time>2022-08-14T21:24:29Z</time>
      </trkpt>
      <trkpt lat="4.2497350" lon="-76.2974420">
        <ele>1476.6</ele>
        <time>2022-08-14T21:24:30Z</time>
      </trkpt>
      <trkpt lat="4.2496600" lon="-76.2974840">
        <ele>1475.6</ele>
        <time>2022-08-14T21:24:31Z</time>
      </trkpt>
      <trkpt lat="4.2495710" lon="-76.2975170">
        <ele>1474.6</ele>
        <time>2022-08-14T21:24:32Z</time>
      </trkpt>
      <trkpt lat="4.2494800" lon="-76.2975470">
        <ele>1473.8</ele>
        <time>2022-08-14T21:24:33Z</time>
      </trkpt>
      <trkpt lat="4.2493890" lon="-76.2975620">
        <ele>1473.2</ele>
        <time>2022-08-14T21:24:34Z</time>
      </trkpt>
      <trkpt lat="4.2492940" lon="-76.2975620">
        <ele>1472.6</ele>
        <time>2022-08-14T21:24:35Z</time>
      </trkpt>
      <trkpt lat="4.2492010" lon="-76.2975590">
        <ele>1471.8</ele>
        <time>2022-08-14T21:24:36Z</time>
      </trkpt>
      <trkpt lat="4.2489920" lon="-76.2975510">
        <ele>1470.0</ele>
        <time>2022-08-14T21:24:38Z</time>
      </trkpt>
      <trkpt lat="4.2488930" lon="-76.2975610">
        <ele>1469.6</ele>
        <time>2022-08-14T21:24:39Z</time>
      </trkpt>
      <trkpt lat="4.2486790" lon="-76.2975990">
        <ele>1468.4</ele>
        <time>2022-08-14T21:24:41Z</time>
      </trkpt>
      <trkpt lat="4.2485600" lon="-76.2976030">
        <ele>1467.4</ele>
        <time>2022-08-14T21:24:42Z</time>
      </trkpt>
      <trkpt lat="4.2484400" lon="-76.2976010">
        <ele>1466.6</ele>
        <time>2022-08-14T21:24:43Z</time>
      </trkpt>
      <trkpt lat="4.2483200" lon="-76.2976000">
        <ele>1465.8</ele>
        <time>2022-08-14T21:24:44Z</time>
      </trkpt>
      <trkpt lat="4.2481130" lon="-76.2975530">
        <ele>1464.6</ele>
        <time>2022-08-14T21:24:47Z</time>
      </trkpt>
      <trkpt lat="4.2480230" lon="-76.2975300">
        <ele>1463.0</ele>
        <time>2022-08-14T21:24:49Z</time>
      </trkpt>
      <trkpt lat="4.2479770" lon="-76.2975280">
        <ele>1462.6</ele>
        <time>2022-08-14T21:24:50Z</time>
      </trkpt>
      <trkpt lat="4.2479330" lon="-76.2975300">
        <ele>1462.2</ele>
        <time>2022-08-14T21:24:51Z</time>
      </trkpt>
      <trkpt lat="4.2478920" lon="-76.2975330">
        <ele>1462.0</ele>
        <time>2022-08-14T21:24:52Z</time>
      </trkpt>
      <trkpt lat="4.2478560" lon="-76.2975400">
        <ele>1461.8</ele>
        <time>2022-08-14T21:24:53Z</time>
      </trkpt>
      <trkpt lat="4.2478020" lon="-76.2975680">
        <ele>1461.6</ele>
        <time>2022-08-14T21:24:55Z</time>
      </trkpt>
      <trkpt lat="4.2476970" lon="-76.2976730">
        <ele>1461.6</ele>
        <time>2022-08-14T21:25:00Z</time>
      </trkpt>
      <trkpt lat="4.2476800" lon="-76.2977160">
        <ele>1461.6</ele>
        <time>2022-08-14T21:25:01Z</time>
      </trkpt>
      <trkpt lat="4.2476790" lon="-76.2978350">
        <ele>1461.6</ele>
        <time>2022-08-14T21:25:03Z</time>
      </trkpt>
      <trkpt lat="4.2477350" lon="-76.2981600">
        <ele>1460.8</ele>
        <time>2022-08-14T21:25:07Z</time>
      </trkpt>
      <trkpt lat="4.2477410" lon="-76.2983190">
        <ele>1459.4</ele>
        <time>2022-08-14T21:25:09Z</time>
      </trkpt>
      <trkpt lat="4.2477310" lon="-76.2983970">
        <ele>1459.4</ele>
        <time>2022-08-14T21:25:10Z</time>
      </trkpt>
      <trkpt lat="4.2477120" lon="-76.2984690">
        <ele>1458.8</ele>
        <time>2022-08-14T21:25:11Z</time>
      </trkpt>
      <trkpt lat="4.2476920" lon="-76.2985440">
        <ele>1458.2</ele>
        <time>2022-08-14T21:25:12Z</time>
      </trkpt>
      <trkpt lat="4.2476630" lon="-76.2986190">
        <ele>1458.0</ele>
        <time>2022-08-14T21:25:13Z</time>
      </trkpt>
      <trkpt lat="4.2476370" lon="-76.2986910">
        <ele>1457.4</ele>
        <time>2022-08-14T21:25:14Z</time>
      </trkpt>
      <trkpt lat="4.2476130" lon="-76.2987590">
        <ele>1457.2</ele>
        <time>2022-08-14T21:25:15Z</time>
      </trkpt>
      <trkpt lat="4.2475380" lon="-76.2988800">
        <ele>1456.8</ele>
        <time>2022-08-14T21:25:17Z</time>
      </trkpt>
      <trkpt lat="4.2474780" lon="-76.2989280">
        <ele>1456.8</ele>
        <time>2022-08-14T21:25:18Z</time>
      </trkpt>
      <trkpt lat="4.2473880" lon="-76.2989670">
        <ele>1456.6</ele>
        <time>2022-08-14T21:25:19Z</time>
      </trkpt>
      <trkpt lat="4.2473310" lon="-76.2989790">
        <ele>1456.6</ele>
        <time>2022-08-14T21:25:20Z</time>
      </trkpt>
      <trkpt lat="4.2472510" lon="-76.2989870">
        <ele>1456.6</ele>
        <time>2022-08-14T21:25:21Z</time>
      </trkpt>
      <trkpt lat="4.2471110" lon="-76.2989870">
        <ele>1456.4</ele>
        <time>2022-08-14T21:25:23Z</time>
      </trkpt>
      <trkpt lat="4.2470480" lon="-76.2989890">
        <ele>1456.4</ele>
        <time>2022-08-14T21:25:24Z</time>
      </trkpt>
      <trkpt lat="4.2466310" lon="-76.2989280">
        <ele>1456.2</ele>
        <time>2022-08-14T21:25:30Z</time>
      </trkpt>
      <trkpt lat="4.2464940" lon="-76.2989620">
        <ele>1456.0</ele>
        <time>2022-08-14T21:25:32Z</time>
      </trkpt>
      <trkpt lat="4.2464340" lon="-76.2989950">
        <ele>1455.6</ele>
        <time>2022-08-14T21:25:33Z</time>
      </trkpt>
      <trkpt lat="4.2463820" lon="-76.2990380">
        <ele>1455.4</ele>
        <time>2022-08-14T21:25:34Z</time>
      </trkpt>
      <trkpt lat="4.2463170" lon="-76.2991630">
        <ele>1455.2</ele>
        <time>2022-08-14T21:25:36Z</time>
      </trkpt>
      <trkpt lat="4.2463060" lon="-76.2994090">
        <ele>1454.0</ele>
        <time>2022-08-14T21:25:39Z</time>
      </trkpt>
      <trkpt lat="4.2462280" lon="-76.2995580">
        <ele>1452.8</ele>
        <time>2022-08-14T21:25:41Z</time>
      </trkpt>
      <trkpt lat="4.2460850" lon="-76.2996610">
        <ele>1451.6</ele>
        <time>2022-08-14T21:25:43Z</time>
      </trkpt>
      <trkpt lat="4.2460030" lon="-76.2997050">
        <ele>1451.2</ele>
        <time>2022-08-14T21:25:44Z</time>
      </trkpt>
      <trkpt lat="4.2459170" lon="-76.2997490">
        <ele>1450.2</ele>
        <time>2022-08-14T21:25:45Z</time>
      </trkpt>
      <trkpt lat="4.2458260" lon="-76.2997930">
        <ele>1449.0</ele>
        <time>2022-08-14T21:25:46Z</time>
      </trkpt>
      <trkpt lat="4.2457350" lon="-76.2998390">
        <ele>1448.0</ele>
        <time>2022-08-14T21:25:47Z</time>
      </trkpt>
      <trkpt lat="4.2455560" lon="-76.2999060">
        <ele>1446.2</ele>
        <time>2022-08-14T21:25:49Z</time>
      </trkpt>
      <trkpt lat="4.2453770" lon="-76.2999450">
        <ele>1444.6</ele>
        <time>2022-08-14T21:25:51Z</time>
      </trkpt>
      <trkpt lat="4.2452930" lon="-76.2999550">
        <ele>1443.6</ele>
        <time>2022-08-14T21:25:52Z</time>
      </trkpt>
      <trkpt lat="4.2452160" lon="-76.2999500">
        <ele>1442.6</ele>
        <time>2022-08-14T21:25:53Z</time>
      </trkpt>
      <trkpt lat="4.2451420" lon="-76.2999280">
        <ele>1441.4</ele>
        <time>2022-08-14T21:25:54Z</time>
      </trkpt>
      <trkpt lat="4.2450240" lon="-76.2998220">
        <ele>1440.4</ele>
        <time>2022-08-14T21:25:56Z</time>
      </trkpt>
      <trkpt lat="4.2449690" lon="-76.2997550">
        <ele>1439.8</ele>
        <time>2022-08-14T21:25:57Z</time>
      </trkpt>
      <trkpt lat="4.2449100" lon="-76.2996910">
        <ele>1439.0</ele>
        <time>2022-08-14T21:25:58Z</time>
      </trkpt>
      <trkpt lat="4.2448340" lon="-76.2996230">
        <ele>1439.0</ele>
        <time>2022-08-14T21:25:59Z</time>
      </trkpt>
      <trkpt lat="4.2447730" lon="-76.2995900">
        <ele>1438.4</ele>
        <time>2022-08-14T21:26:00Z</time>
      </trkpt>
      <trkpt lat="4.2446730" lon="-76.2995430">
        <ele>1438.2</ele>
        <time>2022-08-14T21:26:01Z</time>
      </trkpt>
      <trkpt lat="4.2445840" lon="-76.2995130">
        <ele>1438.0</ele>
        <time>2022-08-14T21:26:02Z</time>
      </trkpt>
      <trkpt lat="4.2444290" lon="-76.2994520">
        <ele>1437.2</ele>
        <time>2022-08-14T21:26:04Z</time>
      </trkpt>
      <trkpt lat="4.2443470" lon="-76.2994240">
        <ele>1436.6</ele>
        <time>2022-08-14T21:26:05Z</time>
      </trkpt>
      <trkpt lat="4.2441850" lon="-76.2993900">
        <ele>1435.2</ele>
        <time>2022-08-14T21:26:07Z</time>
      </trkpt>
      <trkpt lat="4.2441070" lon="-76.2993810">
        <ele>1434.6</ele>
        <time>2022-08-14T21:26:08Z</time>
      </trkpt>
      <trkpt lat="4.2440240" lon="-76.2993730">
        <ele>1434.0</ele>
        <time>2022-08-14T21:26:09Z</time>
      </trkpt>
      <trkpt lat="4.2439400" lon="-76.2993750">
        <ele>1433.6</ele>
        <time>2022-08-14T21:26:10Z</time>
      </trkpt>
      <trkpt lat="4.2438590" lon="-76.2993870">
        <ele>1433.0</ele>
        <time>2022-08-14T21:26:11Z</time>
      </trkpt>
      <trkpt lat="4.2437780" lon="-76.2993950">
        <ele>1432.6</ele>
        <time>2022-08-14T21:26:12Z</time>
      </trkpt>
      <trkpt lat="4.2436180" lon="-76.2994050">
        <ele>1432.2</ele>
        <time>2022-08-14T21:26:14Z</time>
      </trkpt>
      <trkpt lat="4.2435420" lon="-76.2994110">
        <ele>1431.6</ele>
        <time>2022-08-14T21:26:15Z</time>
      </trkpt>
      <trkpt lat="4.2434660" lon="-76.2994110">
        <ele>1431.2</ele>
        <time>2022-08-14T21:26:16Z</time>
      </trkpt>
      <trkpt lat="4.2433100" lon="-76.2993920">
        <ele>1430.4</ele>
        <time>2022-08-14T21:26:18Z</time>
      </trkpt>
      <trkpt lat="4.2432310" lon="-76.2993840">
        <ele>1430.0</ele>
        <time>2022-08-14T21:26:19Z</time>
      </trkpt>
      <trkpt lat="4.2431530" lon="-76.2993830">
        <ele>1429.6</ele>
        <time>2022-08-14T21:26:20Z</time>
      </trkpt>
      <trkpt lat="4.2429980" lon="-76.2994170">
        <ele>1429.4</ele>
        <time>2022-08-14T21:26:22Z</time>
      </trkpt>
      <trkpt lat="4.2429180" lon="-76.2994370">
        <ele>1429.4</ele>
        <time>2022-08-14T21:26:23Z</time>
      </trkpt>
      <trkpt lat="4.2426830" lon="-76.2994870">
        <ele>1429.0</ele>
        <time>2022-08-14T21:26:26Z</time>
      </trkpt>
      <trkpt lat="4.2425260" lon="-76.2994910">
        <ele>1428.8</ele>
        <time>2022-08-14T21:26:28Z</time>
      </trkpt>
      <trkpt lat="4.2422140" lon="-76.2994970">
        <ele>1428.2</ele>
        <time>2022-08-14T21:26:32Z</time>
      </trkpt>
      <trkpt lat="4.2420600" lon="-76.2995170">
        <ele>1427.8</ele>
        <time>2022-08-14T21:26:34Z</time>
      </trkpt>
      <trkpt lat="4.2416910" lon="-76.2995300">
        <ele>1427.6</ele>
        <time>2022-08-14T21:26:39Z</time>
      </trkpt>
      <trkpt lat="4.2416220" lon="-76.2995280">
        <ele>1427.6</ele>
        <time>2022-08-14T21:26:40Z</time>
      </trkpt>
      <trkpt lat="4.2414950" lon="-76.2995100">
        <ele>1427.6</ele>
        <time>2022-08-14T21:26:42Z</time>
      </trkpt>
      <trkpt lat="4.2413810" lon="-76.2994690">
        <ele>1427.6</ele>
        <time>2022-08-14T21:26:44Z</time>
      </trkpt>
      <trkpt lat="4.2413280" lon="-76.2994360">
        <ele>1427.6</ele>
        <time>2022-08-14T21:26:45Z</time>
      </trkpt>
      <trkpt lat="4.2411930" lon="-76.2993250">
        <ele>1427.8</ele>
        <time>2022-08-14T21:26:48Z</time>
      </trkpt>
      <trkpt lat="4.2411530" lon="-76.2992880">
        <ele>1428.0</ele>
        <time>2022-08-14T21:26:49Z</time>
      </trkpt>
      <trkpt lat="4.2411130" lon="-76.2992550">
        <ele>1428.2</ele>
        <time>2022-08-14T21:26:50Z</time>
      </trkpt>
      <trkpt lat="4.2410200" lon="-76.2992030">
        <ele>1428.6</ele>
        <time>2022-08-14T21:26:52Z</time>
      </trkpt>
      <trkpt lat="4.2409100" lon="-76.2992060">
        <ele>1428.6</ele>
        <time>2022-08-14T21:26:54Z</time>
      </trkpt>
      <trkpt lat="4.2408100" lon="-76.2992550">
        <ele>1428.8</ele>
        <time>2022-08-14T21:26:56Z</time>
      </trkpt>
      <trkpt lat="4.2407300" lon="-76.2993390">
        <ele>1428.8</ele>
        <time>2022-08-14T21:26:58Z</time>
      </trkpt>
      <trkpt lat="4.2406970" lon="-76.2993990">
        <ele>1428.8</ele>
        <time>2022-08-14T21:26:59Z</time>
      </trkpt>
      <trkpt lat="4.2406460" lon="-76.2995240">
        <ele>1428.8</ele>
        <time>2022-08-14T21:27:01Z</time>
      </trkpt>
      <trkpt lat="4.2405700" lon="-76.2996610">
        <ele>1428.8</ele>
        <time>2022-08-14T21:27:03Z</time>
      </trkpt>
      <trkpt lat="4.2404330" lon="-76.2997670">
        <ele>1428.4</ele>
        <time>2022-08-14T21:27:05Z</time>
      </trkpt>
      <trkpt lat="4.2403490" lon="-76.2998050">
        <ele>1428.4</ele>
        <time>2022-08-14T21:27:06Z</time>
      </trkpt>
      <trkpt lat="4.2401640" lon="-76.2998700">
        <ele>1427.6</ele>
        <time>2022-08-14T21:27:08Z</time>
      </trkpt>
      <trkpt lat="4.2400650" lon="-76.2999050">
        <ele>1427.4</ele>
        <time>2022-08-14T21:27:09Z</time>
      </trkpt>
      <trkpt lat="4.2398580" lon="-76.2999870">
        <ele>1425.8</ele>
        <time>2022-08-14T21:27:11Z</time>
      </trkpt>
      <trkpt lat="4.2395470" lon="-76.3001570">
        <ele>1423.8</ele>
        <time>2022-08-14T21:27:14Z</time>
      </trkpt>
      <trkpt lat="4.2394400" lon="-76.3002100">
        <ele>1422.8</ele>
        <time>2022-08-14T21:27:15Z</time>
      </trkpt>
      <trkpt lat="4.2393300" lon="-76.3002530">
        <ele>1422.0</ele>
        <time>2022-08-14T21:27:16Z</time>
      </trkpt>
      <trkpt lat="4.2391120" lon="-76.3003150">
        <ele>1420.0</ele>
        <time>2022-08-14T21:27:18Z</time>
      </trkpt>
      <trkpt lat="4.2390080" lon="-76.3003320">
        <ele>1418.6</ele>
        <time>2022-08-14T21:27:19Z</time>
      </trkpt>
      <trkpt lat="4.2389080" lon="-76.3003430">
        <ele>1417.6</ele>
        <time>2022-08-14T21:27:20Z</time>
      </trkpt>
      <trkpt lat="4.2386520" lon="-76.3003460">
        <ele>1416.6</ele>
        <time>2022-08-14T21:27:23Z</time>
      </trkpt>
      <trkpt lat="4.2385090" lon="-76.3003450">
        <ele>1416.6</ele>
        <time>2022-08-14T21:27:25Z</time>
      </trkpt>
      <trkpt lat="4.2382150" lon="-76.3003390">
        <ele>1416.6</ele>
        <time>2022-08-14T21:27:29Z</time>
      </trkpt>
      <trkpt lat="4.2380660" lon="-76.3003030">
        <ele>1416.8</ele>
        <time>2022-08-14T21:27:31Z</time>
      </trkpt>
      <trkpt lat="4.2379250" lon="-76.3002300">
        <ele>1416.8</ele>
        <time>2022-08-14T21:27:33Z</time>
      </trkpt>
      <trkpt lat="4.2375810" lon="-76.3000280">
        <ele>1416.8</ele>
        <time>2022-08-14T21:27:38Z</time>
      </trkpt>
      <trkpt lat="4.2375020" lon="-76.3000070">
        <ele>1416.8</ele>
        <time>2022-08-14T21:27:39Z</time>
      </trkpt>
      <trkpt lat="4.2371630" lon="-76.2999540">
        <ele>1416.6</ele>
        <time>2022-08-14T21:27:43Z</time>
      </trkpt>
      <trkpt lat="4.2370830" lon="-76.2999610">
        <ele>1416.6</ele>
        <time>2022-08-14T21:27:44Z</time>
      </trkpt>
      <trkpt lat="4.2370120" lon="-76.2999840">
        <ele>1416.4</ele>
        <time>2022-08-14T21:27:45Z</time>
      </trkpt>
      <trkpt lat="4.2369100" lon="-76.3000790">
        <ele>1416.2</ele>
        <time>2022-08-14T21:27:47Z</time>
      </trkpt>
      <trkpt lat="4.2368190" lon="-76.3002760">
        <ele>1416.2</ele>
        <time>2022-08-14T21:27:50Z</time>
      </trkpt>
      <trkpt lat="4.2367110" lon="-76.3003820">
        <ele>1415.8</ele>
        <time>2022-08-14T21:27:52Z</time>
      </trkpt>
      <trkpt lat="4.2365960" lon="-76.3004780">
        <ele>1415.6</ele>
        <time>2022-08-14T21:27:54Z</time>
      </trkpt>
      <trkpt lat="4.2364710" lon="-76.3006130">
        <ele>1415.4</ele>
        <time>2022-08-14T21:27:57Z</time>
      </trkpt>
      <trkpt lat="4.2364400" lon="-76.3006550">
        <ele>1415.4</ele>
        <time>2022-08-14T21:27:58Z</time>
      </trkpt>
      <trkpt lat="4.2363310" lon="-76.3008120">
        <ele>1415.4</ele>
        <time>2022-08-14T21:28:02Z</time>
      </trkpt>
      <trkpt lat="4.2362560" lon="-76.3008690">
        <ele>1415.4</ele>
        <time>2022-08-14T21:28:04Z</time>
      </trkpt>
      <trkpt lat="4.2361640" lon="-76.3008830">
        <ele>1415.8</ele>
        <time>2022-08-14T21:28:06Z</time>
      </trkpt>
      <trkpt lat="4.2361180" lon="-76.3008820">
        <ele>1416.0</ele>
        <time>2022-08-14T21:28:07Z</time>
      </trkpt>
      <trkpt lat="4.2360700" lon="-76.3008740">
        <ele>1416.2</ele>
        <time>2022-08-14T21:28:08Z</time>
      </trkpt>
      <trkpt lat="4.2358890" lon="-76.3008260">
        <ele>1416.8</ele>
        <time>2022-08-14T21:28:12Z</time>
      </trkpt>
      <trkpt lat="4.2358480" lon="-76.3008250">
        <ele>1417.0</ele>
        <time>2022-08-14T21:28:13Z</time>
      </trkpt>
      <trkpt lat="4.2358060" lon="-76.3008270">
        <ele>1417.0</ele>
        <time>2022-08-14T21:28:14Z</time>
      </trkpt>
      <trkpt lat="4.2356840" lon="-76.3008540">
        <ele>1417.4</ele>
        <time>2022-08-14T21:28:17Z</time>
      </trkpt>
      <trkpt lat="4.2355410" lon="-76.3009110">
        <ele>1418.2</ele>
        <time>2022-08-14T21:28:21Z</time>
      </trkpt>
      <trkpt lat="4.2354360" lon="-76.3009510">
        <ele>1418.6</ele>
        <time>2022-08-14T21:28:24Z</time>
      </trkpt>
      <trkpt lat="4.2352190" lon="-76.3009540">
        <ele>1419.4</ele>
        <time>2022-08-14T21:28:30Z</time>
      </trkpt>
      <trkpt lat="4.2350250" lon="-76.3008660">
        <ele>1420.6</ele>
        <time>2022-08-14T21:28:36Z</time>
      </trkpt>
      <trkpt lat="4.2349930" lon="-76.3008500">
        <ele>1420.8</ele>
        <time>2022-08-14T21:28:37Z</time>
      </trkpt>
      <trkpt lat="4.2347490" lon="-76.3007700">
        <ele>1421.6</ele>
        <time>2022-08-14T21:28:44Z</time>
      </trkpt>
      <trkpt lat="4.2345860" lon="-76.3008330">
        <ele>1422.4</ele>
        <time>2022-08-14T21:28:49Z</time>
      </trkpt>
      <trkpt lat="4.2345550" lon="-76.3009640">
        <ele>1422.4</ele>
        <time>2022-08-14T21:28:53Z</time>
      </trkpt>
      <trkpt lat="4.2346310" lon="-76.3011070">
        <ele>1423.0</ele>
        <time>2022-08-14T21:28:58Z</time>
      </trkpt>
      <trkpt lat="4.2347670" lon="-76.3013310">
        <ele>1423.8</ele>
        <time>2022-08-14T21:29:05Z</time>
      </trkpt>
      <trkpt lat="4.2348680" lon="-76.3016240">
        <ele>1424.2</ele>
        <time>2022-08-14T21:29:14Z</time>
      </trkpt>
      <trkpt lat="4.2348710" lon="-76.3016600">
        <ele>1424.4</ele>
        <time>2022-08-14T21:29:15Z</time>
      </trkpt>
      <trkpt lat="4.2348460" lon="-76.3017920">
        <ele>1425.0</ele>
        <time>2022-08-14T21:29:19Z</time>
      </trkpt>
      <trkpt lat="4.2347860" lon="-76.3018600">
        <ele>1425.6</ele>
        <time>2022-08-14T21:29:22Z</time>
      </trkpt>
      <trkpt lat="4.2347370" lon="-76.3018950">
        <ele>1425.8</ele>
        <time>2022-08-14T21:29:24Z</time>
      </trkpt>
      <trkpt lat="4.2346020" lon="-76.3019760">
        <ele>1427.0</ele>
        <time>2022-08-14T21:29:30Z</time>
      </trkpt>
      <trkpt lat="4.2344770" lon="-76.3020290">
        <ele>1428.0</ele>
        <time>2022-08-14T21:29:34Z</time>
      </trkpt>
      <trkpt lat="4.2344440" lon="-76.3020330">
        <ele>1428.4</ele>
        <time>2022-08-14T21:29:35Z</time>
      </trkpt>
      <trkpt lat="4.2342480" lon="-76.3020170">
        <ele>1429.2</ele>
        <time>2022-08-14T21:29:41Z</time>
      </trkpt>
      <trkpt lat="4.2341590" lon="-76.3019760">
        <ele>1429.8</ele>
        <time>2022-08-14T21:29:45Z</time>
      </trkpt>
      <trkpt lat="4.2340580" lon="-76.3019510">
        <ele>1430.4</ele>
        <time>2022-08-14T21:29:49Z</time>
      </trkpt>
      <trkpt lat="4.2340010" lon="-76.3019540">
        <ele>1430.8</ele>
        <time>2022-08-14T21:29:51Z</time>
      </trkpt>
      <trkpt lat="4.2339680" lon="-76.3019630">
        <ele>1431.0</ele>
        <time>2022-08-14T21:29:52Z</time>
      </trkpt>
      <trkpt lat="4.2339070" lon="-76.3019840">
        <ele>1431.6</ele>
        <time>2022-08-14T21:29:54Z</time>
      </trkpt>
      <trkpt lat="4.2338380" lon="-76.3020410">
        <ele>1432.2</ele>
        <time>2022-08-14T21:29:57Z</time>
      </trkpt>
      <trkpt lat="4.2337030" lon="-76.3022330">
        <ele>1432.8</ele>
        <time>2022-08-14T21:30:02Z</time>
      </trkpt>
      <trkpt lat="4.2335400" lon="-76.3025330">
        <ele>1432.8</ele>
        <time>2022-08-14T21:30:08Z</time>
      </trkpt>
      <trkpt lat="4.2334460" lon="-76.3026070">
        <ele>1432.6</ele>
        <time>2022-08-14T21:30:10Z</time>
      </trkpt>
      <trkpt lat="4.2333190" lon="-76.3027080">
        <ele>1432.2</ele>
        <time>2022-08-14T21:30:13Z</time>
      </trkpt>
      <trkpt lat="4.2331100" lon="-76.3028660">
        <ele>1431.6</ele>
        <time>2022-08-14T21:30:18Z</time>
      </trkpt>
      <trkpt lat="4.2329770" lon="-76.3029680">
        <ele>1431.4</ele>
        <time>2022-08-14T21:30:21Z</time>
      </trkpt>
      <trkpt lat="4.2327820" lon="-76.3030860">
        <ele>1431.4</ele>
        <time>2022-08-14T21:30:25Z</time>
      </trkpt>
      <trkpt lat="4.2326650" lon="-76.3031310">
        <ele>1431.4</ele>
        <time>2022-08-14T21:30:27Z</time>
      </trkpt>
      <trkpt lat="4.2325980" lon="-76.3031430">
        <ele>1431.2</ele>
        <time>2022-08-14T21:30:28Z</time>
      </trkpt>
      <trkpt lat="4.2324180" lon="-76.3031310">
        <ele>1431.2</ele>
        <time>2022-08-14T21:30:31Z</time>
      </trkpt>
      <trkpt lat="4.2322900" lon="-76.3030900">
        <ele>1431.4</ele>
        <time>2022-08-14T21:30:33Z</time>
      </trkpt>
      <trkpt lat="4.2322240" lon="-76.3030780">
        <ele>1431.2</ele>
        <time>2022-08-14T21:30:34Z</time>
      </trkpt>
      <trkpt lat="4.2321560" lon="-76.3030750">
        <ele>1431.0</ele>
        <time>2022-08-14T21:30:35Z</time>
      </trkpt>
      <trkpt lat="4.2320970" lon="-76.3030860">
        <ele>1430.8</ele>
        <time>2022-08-14T21:30:36Z</time>
      </trkpt>
      <trkpt lat="4.2320230" lon="-76.3031520">
        <ele>1430.4</ele>
        <time>2022-08-14T21:30:38Z</time>
      </trkpt>
      <trkpt lat="4.2320060" lon="-76.3032690">
        <ele>1430.0</ele>
        <time>2022-08-14T21:30:40Z</time>
      </trkpt>
      <trkpt lat="4.2320060" lon="-76.3033440">
        <ele>1430.0</ele>
        <time>2022-08-14T21:30:41Z</time>
      </trkpt>
      <trkpt lat="4.2320080" lon="-76.3034130">
        <ele>1429.8</ele>
        <time>2022-08-14T21:30:42Z</time>
      </trkpt>
      <trkpt lat="4.2319960" lon="-76.3035520">
        <ele>1429.6</ele>
        <time>2022-08-14T21:30:44Z</time>
      </trkpt>
      <trkpt lat="4.2319430" lon="-76.3036930">
        <ele>1429.4</ele>
        <time>2022-08-14T21:30:46Z</time>
      </trkpt>
      <trkpt lat="4.2318210" lon="-76.3037910">
        <ele>1429.4</ele>
        <time>2022-08-14T21:30:48Z</time>
      </trkpt>
      <trkpt lat="4.2317380" lon="-76.3038200">
        <ele>1429.2</ele>
        <time>2022-08-14T21:30:49Z</time>
      </trkpt>
      <trkpt lat="4.2316530" lon="-76.3038470">
        <ele>1428.8</ele>
        <time>2022-08-14T21:30:50Z</time>
      </trkpt>
      <trkpt lat="4.2315680" lon="-76.3038690">
        <ele>1428.4</ele>
        <time>2022-08-14T21:30:51Z</time>
      </trkpt>
      <trkpt lat="4.2313980" lon="-76.3038660">
        <ele>1427.8</ele>
        <time>2022-08-14T21:30:53Z</time>
      </trkpt>
      <trkpt lat="4.2312280" lon="-76.3038570">
        <ele>1426.6</ele>
        <time>2022-08-14T21:30:55Z</time>
      </trkpt>
      <trkpt lat="4.2310480" lon="-76.3038590">
        <ele>1426.0</ele>
        <time>2022-08-14T21:30:57Z</time>
      </trkpt>
      <trkpt lat="4.2308720" lon="-76.3039010">
        <ele>1425.4</ele>
        <time>2022-08-14T21:30:59Z</time>
      </trkpt>
      <trkpt lat="4.2306510" lon="-76.3040340">
        <ele>1424.4</ele>
        <time>2022-08-14T21:31:02Z</time>
      </trkpt>
      <trkpt lat="4.2305980" lon="-76.3040840">
        <ele>1424.0</ele>
        <time>2022-08-14T21:31:03Z</time>
      </trkpt>
      <trkpt lat="4.2305530" lon="-76.3041370">
        <ele>1423.6</ele>
        <time>2022-08-14T21:31:04Z</time>
      </trkpt>
      <trkpt lat="4.2305160" lon="-76.3041970">
        <ele>1423.0</ele>
        <time>2022-08-14T21:31:05Z</time>
      </trkpt>
      <trkpt lat="4.2305140" lon="-76.3042600">
        <ele>1422.4</ele>
        <time>2022-08-14T21:31:06Z</time>
      </trkpt>
      <trkpt lat="4.2305370" lon="-76.3043140">
        <ele>1421.8</ele>
        <time>2022-08-14T21:31:07Z</time>
      </trkpt>
      <trkpt lat="4.2305760" lon="-76.3043640">
        <ele>1421.4</ele>
        <time>2022-08-14T21:31:08Z</time>
      </trkpt>
      <trkpt lat="4.2307400" lon="-76.3045090">
        <ele>1420.4</ele>
        <time>2022-08-14T21:31:11Z</time>
      </trkpt>
      <trkpt lat="4.2307990" lon="-76.3045590">
        <ele>1420.0</ele>
        <time>2022-08-14T21:31:12Z</time>
      </trkpt>
      <trkpt lat="4.2308600" lon="-76.3046040">
        <ele>1419.8</ele>
        <time>2022-08-14T21:31:13Z</time>
      </trkpt>
      <trkpt lat="4.2310110" lon="-76.3046550">
        <ele>1419.0</ele>
        <time>2022-08-14T21:31:15Z</time>
      </trkpt>
      <trkpt lat="4.2312320" lon="-76.3047160">
        <ele>1418.0</ele>
        <time>2022-08-14T21:31:18Z</time>
      </trkpt>
      <trkpt lat="4.2313550" lon="-76.3047940">
        <ele>1417.0</ele>
        <time>2022-08-14T21:31:20Z</time>
      </trkpt>
      <trkpt lat="4.2314730" lon="-76.3049170">
        <ele>1416.6</ele>
        <time>2022-08-14T21:31:22Z</time>
      </trkpt>
      <trkpt lat="4.2316220" lon="-76.3050610">
        <ele>1415.6</ele>
        <time>2022-08-14T21:31:24Z</time>
      </trkpt>
      <trkpt lat="4.2318410" lon="-76.3053060">
        <ele>1414.6</ele>
        <time>2022-08-14T21:31:27Z</time>
      </trkpt>
      <trkpt lat="4.2319630" lon="-76.3054890">
        <ele>1413.4</ele>
        <time>2022-08-14T21:31:29Z</time>
      </trkpt>
      <trkpt lat="4.2320610" lon="-76.3057010">
        <ele>1412.0</ele>
        <time>2022-08-14T21:31:31Z</time>
      </trkpt>
      <trkpt lat="4.2321140" lon="-76.3058090">
        <ele>1410.8</ele>
        <time>2022-08-14T21:31:32Z</time>
      </trkpt>
      <trkpt lat="4.2321720" lon="-76.3059110">
        <ele>1409.6</ele>
        <time>2022-08-14T21:31:33Z</time>
      </trkpt>
      <trkpt lat="4.2322270" lon="-76.3060020">
        <ele>1408.6</ele>
        <time>2022-08-14T21:31:34Z</time>
      </trkpt>
      <trkpt lat="4.2323230" lon="-76.3061710">
        <ele>1406.6</ele>
        <time>2022-08-14T21:31:36Z</time>
      </trkpt>
      <trkpt lat="4.2323620" lon="-76.3062490">
        <ele>1405.2</ele>
        <time>2022-08-14T21:31:37Z</time>
      </trkpt>
      <trkpt lat="4.2323930" lon="-76.3063320">
        <ele>1404.0</ele>
        <time>2022-08-14T21:31:38Z</time>
      </trkpt>
      <trkpt lat="4.2324000" lon="-76.3064120">
        <ele>1402.8</ele>
        <time>2022-08-14T21:31:39Z</time>
      </trkpt>
      <trkpt lat="4.2323830" lon="-76.3064870">
        <ele>1401.8</ele>
        <time>2022-08-14T21:31:40Z</time>
      </trkpt>
      <trkpt lat="4.2323540" lon="-76.3065640">
        <ele>1401.0</ele>
        <time>2022-08-14T21:31:41Z</time>
      </trkpt>
      <trkpt lat="4.2322510" lon="-76.3067140">
        <ele>1399.6</ele>
        <time>2022-08-14T21:31:43Z</time>
      </trkpt>
      <trkpt lat="4.2321620" lon="-76.3068670">
        <ele>1398.8</ele>
        <time>2022-08-14T21:31:45Z</time>
      </trkpt>
      <trkpt lat="4.2321370" lon="-76.3069540">
        <ele>1398.8</ele>
        <time>2022-08-14T21:31:46Z</time>
      </trkpt>
      <trkpt lat="4.2321230" lon="-76.3070430">
        <ele>1398.2</ele>
        <time>2022-08-14T21:31:47Z</time>
      </trkpt>
      <trkpt lat="4.2321230" lon="-76.3072230">
        <ele>1396.6</ele>
        <time>2022-08-14T21:31:49Z</time>
      </trkpt>
      <trkpt lat="4.2321340" lon="-76.3073060">
        <ele>1395.8</ele>
        <time>2022-08-14T21:31:50Z</time>
      </trkpt>
      <trkpt lat="4.2321530" lon="-76.3073860">
        <ele>1394.8</ele>
        <time>2022-08-14T21:31:51Z</time>
      </trkpt>
      <trkpt lat="4.2321830" lon="-76.3074660">
        <ele>1393.8</ele>
        <time>2022-08-14T21:31:52Z</time>
      </trkpt>
      <trkpt lat="4.2322270" lon="-76.3075400">
        <ele>1393.0</ele>
        <time>2022-08-14T21:31:53Z</time>
      </trkpt>
      <trkpt lat="4.2323380" lon="-76.3076570">
        <ele>1391.4</ele>
        <time>2022-08-14T21:31:55Z</time>
      </trkpt>
      <trkpt lat="4.2324290" lon="-76.3076950">
        <ele>1391.0</ele>
        <time>2022-08-14T21:31:56Z</time>
      </trkpt>
      <trkpt lat="4.2325290" lon="-76.3077210">
        <ele>1390.6</ele>
        <time>2022-08-14T21:31:57Z</time>
      </trkpt>
      <trkpt lat="4.2325940" lon="-76.3077510">
        <ele>1390.2</ele>
        <time>2022-08-14T21:31:58Z</time>
      </trkpt>
      <trkpt lat="4.2326640" lon="-76.3077810">
        <ele>1389.6</ele>
        <time>2022-08-14T21:31:59Z</time>
      </trkpt>
      <trkpt lat="4.2327260" lon="-76.3078290">
        <ele>1389.0</ele>
        <time>2022-08-14T21:32:00Z</time>
      </trkpt>
      <trkpt lat="4.2327710" lon="-76.3078830">
        <ele>1388.0</ele>
        <time>2022-08-14T21:32:01Z</time>
      </trkpt>
      <trkpt lat="4.2327980" lon="-76.3079550">
        <ele>1387.2</ele>
        <time>2022-08-14T21:32:02Z</time>
      </trkpt>
      <trkpt lat="4.2328040" lon="-76.3080340">
        <ele>1386.4</ele>
        <time>2022-08-14T21:32:03Z</time>
      </trkpt>
      <trkpt lat="4.2327890" lon="-76.3081000">
        <ele>1385.8</ele>
        <time>2022-08-14T21:32:04Z</time>
      </trkpt>
      <trkpt lat="4.2327660" lon="-76.3081610">
        <ele>1385.2</ele>
        <time>2022-08-14T21:32:05Z</time>
      </trkpt>
      <trkpt lat="4.2327400" lon="-76.3082150">
        <ele>1385.0</ele>
        <time>2022-08-14T21:32:06Z</time>
      </trkpt>
      <trkpt lat="4.2327060" lon="-76.3082570">
        <ele>1384.8</ele>
        <time>2022-08-14T21:32:07Z</time>
      </trkpt>
      <trkpt lat="4.2326290" lon="-76.3082970">
        <ele>1384.6</ele>
        <time>2022-08-14T21:32:09Z</time>
      </trkpt>
      <trkpt lat="4.2325200" lon="-76.3083240">
        <ele>1384.6</ele>
        <time>2022-08-14T21:32:13Z</time>
      </trkpt>
      <trkpt lat="4.2325020" lon="-76.3083280">
        <ele>1384.6</ele>
        <time>2022-08-14T21:32:14Z</time>
      </trkpt>
      <trkpt lat="4.2324840" lon="-76.3083310">
        <ele>1384.6</ele>
        <time>2022-08-14T21:32:15Z</time>
      </trkpt>
      <trkpt lat="4.2324400" lon="-76.3083530">
        <ele>1386.2</ele>
        <time>2022-08-14T21:32:18Z</time>
      </trkpt>
      <trkpt lat="4.2324220" lon="-76.3083520">
        <ele>1387.0</ele>
        <time>2022-08-14T21:32:19Z</time>
      </trkpt>
      <trkpt lat="4.2324100" lon="-76.3083510">
        <ele>1387.6</ele>
        <time>2022-08-14T21:32:20Z</time>
      </trkpt>
      <trkpt lat="4.2323630" lon="-76.3083660">
        <ele>1389.0</ele>
        <time>2022-08-14T21:32:23Z</time>
      </trkpt>
      <trkpt lat="4.2323280" lon="-76.3083780">
        <ele>1389.6</ele>
        <time>2022-08-14T21:32:25Z</time>
      </trkpt>
      <trkpt lat="4.2322790" lon="-76.3083890">
        <ele>1390.2</ele>
        <time>2022-08-14T21:32:28Z</time>
      </trkpt>
      <trkpt lat="4.2322330" lon="-76.3084060">
        <ele>1390.8</ele>
        <time>2022-08-14T21:32:31Z</time>
      </trkpt>
      <trkpt lat="4.2321930" lon="-76.3084390">
        <ele>1391.4</ele>
        <time>2022-08-14T21:32:34Z</time>
      </trkpt>
      <trkpt lat="4.2321040" lon="-76.3084640">
        <ele>1392.2</ele>
        <time>2022-08-14T21:32:40Z</time>
      </trkpt>
      <trkpt lat="4.2320890" lon="-76.3084670">
        <ele>1392.4</ele>
        <time>2022-08-14T21:32:41Z</time>
      </trkpt>
      <trkpt lat="4.2320170" lon="-76.3085040">
        <ele>1393.6</ele>
        <time>2022-08-14T21:32:46Z</time>
      </trkpt>
      <trkpt lat="4.2320000" lon="-76.3085140">
        <ele>1393.8</ele>
        <time>2022-08-14T21:32:47Z</time>
      </trkpt>
      <trkpt lat="4.2319840" lon="-76.3085220">
        <ele>1394.0</ele>
        <time>2022-08-14T21:32:48Z</time>
      </trkpt>
      <trkpt lat="4.2318750" lon="-76.3085480">
        <ele>1394.8</ele>
        <time>2022-08-14T21:32:54Z</time>
      </trkpt>
      <trkpt lat="4.2318150" lon="-76.3085490">
        <ele>1395.4</ele>
        <time>2022-08-14T21:32:57Z</time>
      </trkpt>
      <trkpt lat="4.2317310" lon="-76.3085710">
        <ele>1396.2</ele>
        <time>2022-08-14T21:33:02Z</time>
      </trkpt>
      <trkpt lat="4.2316820" lon="-76.3085980">
        <ele>1396.8</ele>
        <time>2022-08-14T21:33:05Z</time>
      </trkpt>
      <trkpt lat="4.2316170" lon="-76.3086310">
        <ele>1397.4</ele>
        <time>2022-08-14T21:33:09Z</time>
      </trkpt>
      <trkpt lat="4.2315630" lon="-76.3086470">
        <ele>1398.0</ele>
        <time>2022-08-14T21:33:12Z</time>
      </trkpt>
      <trkpt lat="4.2315260" lon="-76.3086590">
        <ele>1398.4</ele>
        <time>2022-08-14T21:33:14Z</time>
      </trkpt>
      <trkpt lat="4.2314330" lon="-76.3087070">
        <ele>1399.6</ele>
        <time>2022-08-14T21:33:19Z</time>
      </trkpt>
      <trkpt lat="4.2313500" lon="-76.3087330">
        <ele>1400.6</ele>
        <time>2022-08-14T21:33:23Z</time>
      </trkpt>
      <trkpt lat="4.2312410" lon="-76.3087600">
        <ele>1401.6</ele>
        <time>2022-08-14T21:33:29Z</time>
      </trkpt>
      <trkpt lat="4.2311360" lon="-76.3088040">
        <ele>1403.0</ele>
        <time>2022-08-14T21:33:35Z</time>
      </trkpt>
      <trkpt lat="4.2310480" lon="-76.3088350">
        <ele>1404.0</ele>
        <time>2022-08-14T21:33:40Z</time>
      </trkpt>
      <trkpt lat="4.2310290" lon="-76.3088380">
        <ele>1404.2</ele>
        <time>2022-08-14T21:33:41Z</time>
      </trkpt>
      <trkpt lat="4.2309410" lon="-76.3088560">
        <ele>1405.0</ele>
        <time>2022-08-14T21:33:46Z</time>
      </trkpt>
      <trkpt lat="4.2309230" lon="-76.3088540">
        <ele>1405.2</ele>
        <time>2022-08-14T21:33:47Z</time>
      </trkpt>
      <trkpt lat="4.2308890" lon="-76.3088450">
        <ele>1405.6</ele>
        <time>2022-08-14T21:33:49Z</time>
      </trkpt>
      <trkpt lat="4.2308560" lon="-76.3088430">
        <ele>1406.2</ele>
        <time>2022-08-14T21:33:51Z</time>
      </trkpt>
      <trkpt lat="4.2308270" lon="-76.3088360">
        <ele>1406.6</ele>
        <time>2022-08-14T21:33:53Z</time>
      </trkpt>
      <trkpt lat="4.2308000" lon="-76.3088240">
        <ele>1407.0</ele>
        <time>2022-08-14T21:33:55Z</time>
      </trkpt>
      <trkpt lat="4.2307870" lon="-76.3088090">
        <ele>1407.2</ele>
        <time>2022-08-14T21:33:56Z</time>
      </trkpt>
      <trkpt lat="4.2307640" lon="-76.3087600">
        <ele>1407.8</ele>
        <time>2022-08-14T21:33:59Z</time>
      </trkpt>
      <trkpt lat="4.2307450" lon="-76.3087350">
        <ele>1408.2</ele>
        <time>2022-08-14T21:34:01Z</time>
      </trkpt>
      <trkpt lat="4.2307060" lon="-76.3086590">
        <ele>1408.8</ele>
        <time>2022-08-14T21:34:05Z</time>
      </trkpt>
      <trkpt lat="4.2306820" lon="-76.3086010">
        <ele>1409.2</ele>
        <time>2022-08-14T21:34:08Z</time>
      </trkpt>
      <trkpt lat="4.2306410" lon="-76.3085340">
        <ele>1409.8</ele>
        <time>2022-08-14T21:34:12Z</time>
      </trkpt>
      <trkpt lat="4.2305420" lon="-76.3084300">
        <ele>1411.0</ele>
        <time>2022-08-14T21:34:19Z</time>
      </trkpt>
      <trkpt lat="4.2305250" lon="-76.3084230">
        <ele>1411.2</ele>
        <time>2022-08-14T21:34:20Z</time>
      </trkpt>
      <trkpt lat="4.2303910" lon="-76.3083830">
        <ele>1412.4</ele>
        <time>2022-08-14T21:34:27Z</time>
      </trkpt>
      <trkpt lat="4.2303710" lon="-76.3083820">
        <ele>1412.4</ele>
        <time>2022-08-14T21:34:28Z</time>
      </trkpt>
      <trkpt lat="4.2302380" lon="-76.3083910">
        <ele>1413.8</ele>
        <time>2022-08-14T21:34:35Z</time>
      </trkpt>
      <trkpt lat="4.2302230" lon="-76.3083950">
        <ele>1413.8</ele>
        <time>2022-08-14T21:34:36Z</time>
      </trkpt>
      <trkpt lat="4.2301350" lon="-76.3084430">
        <ele>1414.8</ele>
        <time>2022-08-14T21:34:42Z</time>
      </trkpt>
      <trkpt lat="4.2301230" lon="-76.3084540">
        <ele>1415.0</ele>
        <time>2022-08-14T21:34:43Z</time>
      </trkpt>
      <trkpt lat="4.2300760" lon="-76.3085000">
        <ele>1416.0</ele>
        <time>2022-08-14T21:34:47Z</time>
      </trkpt>
      <trkpt lat="4.2300300" lon="-76.3085550">
        <ele>1417.0</ele>
        <time>2022-08-14T21:34:51Z</time>
      </trkpt>
      <trkpt lat="4.2299920" lon="-76.3086030">
        <ele>1418.0</ele>
        <time>2022-08-14T21:34:55Z</time>
      </trkpt>
      <trkpt lat="4.2299550" lon="-76.3086400">
        <ele>1419.0</ele>
        <time>2022-08-14T21:34:58Z</time>
      </trkpt>
      <trkpt lat="4.2299300" lon="-76.3086680">
        <ele>1419.4</ele>
        <time>2022-08-14T21:35:00Z</time>
      </trkpt>
      <trkpt lat="4.2299190" lon="-76.3086800">
        <ele>1419.8</ele>
        <time>2022-08-14T21:35:01Z</time>
      </trkpt>
      <trkpt lat="4.2298790" lon="-76.3087280">
        <ele>1420.2</ele>
        <time>2022-08-14T21:35:04Z</time>
      </trkpt>
      <trkpt lat="4.2298430" lon="-76.3087660">
        <ele>1420.6</ele>
        <time>2022-08-14T21:35:06Z</time>
      </trkpt>
      <trkpt lat="4.2297610" lon="-76.3088830">
        <ele>1420.8</ele>
        <time>2022-08-14T21:35:10Z</time>
      </trkpt>
      <trkpt lat="4.2297520" lon="-76.3089220">
        <ele>1420.8</ele>
        <time>2022-08-14T21:35:11Z</time>
      </trkpt>
      <trkpt lat="4.2297680" lon="-76.3090090">
        <ele>1420.8</ele>
        <time>2022-08-14T21:35:13Z</time>
      </trkpt>
      <trkpt lat="4.2298590" lon="-76.3090820">
        <ele>1421.0</ele>
        <time>2022-08-14T21:35:15Z</time>
      </trkpt>
      <trkpt lat="4.2299230" lon="-76.3091080">
        <ele>1421.0</ele>
        <time>2022-08-14T21:35:16Z</time>
      </trkpt>
      <trkpt lat="4.2300590" lon="-76.3091720">
        <ele>1420.4</ele>
        <time>2022-08-14T21:35:18Z</time>
      </trkpt>
      <trkpt lat="4.2301880" lon="-76.3092570">
        <ele>1419.8</ele>
        <time>2022-08-14T21:35:20Z</time>
      </trkpt>
      <trkpt lat="4.2302480" lon="-76.3093100">
        <ele>1419.4</ele>
        <time>2022-08-14T21:35:21Z</time>
      </trkpt>
      <trkpt lat="4.2303500" lon="-76.3094290">
        <ele>1417.4</ele>
        <time>2022-08-14T21:35:23Z</time>
      </trkpt>
      <trkpt lat="4.2303840" lon="-76.3095020">
        <ele>1416.6</ele>
        <time>2022-08-14T21:35:24Z</time>
      </trkpt>
      <trkpt lat="4.2304120" lon="-76.3095750">
        <ele>1415.6</ele>
        <time>2022-08-14T21:35:25Z</time>
      </trkpt>
      <trkpt lat="4.2304750" lon="-76.3097990">
        <ele>1414.0</ele>
        <time>2022-08-14T21:35:28Z</time>
      </trkpt>
      <trkpt lat="4.2304920" lon="-76.3098750">
        <ele>1413.6</ele>
        <time>2022-08-14T21:35:29Z</time>
      </trkpt>
      <trkpt lat="4.2305100" lon="-76.3099490">
        <ele>1412.8</ele>
        <time>2022-08-14T21:35:30Z</time>
      </trkpt>
      <trkpt lat="4.2305230" lon="-76.3100220">
        <ele>1412.2</ele>
        <time>2022-08-14T21:35:31Z</time>
      </trkpt>
      <trkpt lat="4.2305190" lon="-76.3101500">
        <ele>1411.4</ele>
        <time>2022-08-14T21:35:33Z</time>
      </trkpt>
      <trkpt lat="4.2304710" lon="-76.3102230">
        <ele>1410.2</ele>
        <time>2022-08-14T21:35:35Z</time>
      </trkpt>
      <trkpt lat="4.2303840" lon="-76.3102260">
        <ele>1408.4</ele>
        <time>2022-08-14T21:35:37Z</time>
      </trkpt>
      <trkpt lat="4.2303400" lon="-76.3102020">
        <ele>1407.6</ele>
        <time>2022-08-14T21:35:38Z</time>
      </trkpt>
      <trkpt lat="4.2303020" lon="-76.3101710">
        <ele>1407.2</ele>
        <time>2022-08-14T21:35:39Z</time>
      </trkpt>
      <trkpt lat="4.2301930" lon="-76.3100650">
        <ele>1406.4</ele>
        <time>2022-08-14T21:35:42Z</time>
      </trkpt>
      <trkpt lat="4.2300890" lon="-76.3099930">
        <ele>1406.4</ele>
        <time>2022-08-14T21:35:44Z</time>
      </trkpt>
      <trkpt lat="4.2300230" lon="-76.3099670">
        <ele>1406.2</ele>
        <time>2022-08-14T21:35:45Z</time>
      </trkpt>
      <trkpt lat="4.2298650" lon="-76.3099420">
        <ele>1406.2</ele>
        <time>2022-08-14T21:35:47Z</time>
      </trkpt>
      <trkpt lat="4.2296110" lon="-76.3099360">
        <ele>1406.2</ele>
        <time>2022-08-14T21:35:50Z</time>
      </trkpt>
      <trkpt lat="4.2294380" lon="-76.3099230">
        <ele>1405.8</ele>
        <time>2022-08-14T21:35:52Z</time>
      </trkpt>
      <trkpt lat="4.2293500" lon="-76.3099080">
        <ele>1405.2</ele>
        <time>2022-08-14T21:35:53Z</time>
      </trkpt>
      <trkpt lat="4.2291850" lon="-76.3098970">
        <ele>1403.6</ele>
        <time>2022-08-14T21:35:55Z</time>
      </trkpt>
      <trkpt lat="4.2291050" lon="-76.3099120">
        <ele>1403.0</ele>
        <time>2022-08-14T21:35:56Z</time>
      </trkpt>
      <trkpt lat="4.2290330" lon="-76.3099400">
        <ele>1402.2</ele>
        <time>2022-08-14T21:35:57Z</time>
      </trkpt>
      <trkpt lat="4.2288820" lon="-76.3100250">
        <ele>1400.8</ele>
        <time>2022-08-14T21:35:59Z</time>
      </trkpt>
      <trkpt lat="4.2287980" lon="-76.3100560">
        <ele>1400.0</ele>
        <time>2022-08-14T21:36:00Z</time>
      </trkpt>
      <trkpt lat="4.2287080" lon="-76.3100800">
        <ele>1399.2</ele>
        <time>2022-08-14T21:36:01Z</time>
      </trkpt>
      <trkpt lat="4.2286170" lon="-76.3100830">
        <ele>1398.4</ele>
        <time>2022-08-14T21:36:02Z</time>
      </trkpt>
      <trkpt lat="4.2285310" lon="-76.3100760">
        <ele>1397.6</ele>
        <time>2022-08-14T21:36:03Z</time>
      </trkpt>
      <trkpt lat="4.2284520" lon="-76.3100630">
        <ele>1397.0</ele>
        <time>2022-08-14T21:36:04Z</time>
      </trkpt>
      <trkpt lat="4.2283890" lon="-76.3100390">
        <ele>1396.6</ele>
        <time>2022-08-14T21:36:05Z</time>
      </trkpt>
      <trkpt lat="4.2283460" lon="-76.3099950">
        <ele>1396.2</ele>
        <time>2022-08-14T21:36:06Z</time>
      </trkpt>
      <trkpt lat="4.2283170" lon="-76.3099360">
        <ele>1395.8</ele>
        <time>2022-08-14T21:36:07Z</time>
      </trkpt>
      <trkpt lat="4.2282750" lon="-76.3098730">
        <ele>1395.4</ele>
        <time>2022-08-14T21:36:08Z</time>
      </trkpt>
      <trkpt lat="4.2282300" lon="-76.3098130">
        <ele>1395.0</ele>
        <time>2022-08-14T21:36:09Z</time>
      </trkpt>
      <trkpt lat="4.2281690" lon="-76.3097730">
        <ele>1394.4</ele>
        <time>2022-08-14T21:36:10Z</time>
      </trkpt>
      <trkpt lat="4.2280990" lon="-76.3097480">
        <ele>1394.2</ele>
        <time>2022-08-14T21:36:11Z</time>
      </trkpt>
      <trkpt lat="4.2279430" lon="-76.3097430">
        <ele>1393.6</ele>
        <time>2022-08-14T21:36:13Z</time>
      </trkpt>
      <trkpt lat="4.2278680" lon="-76.3097620">
        <ele>1393.0</ele>
        <time>2022-08-14T21:36:14Z</time>
      </trkpt>
      <trkpt lat="4.2277980" lon="-76.3097950">
        <ele>1392.6</ele>
        <time>2022-08-14T21:36:15Z</time>
      </trkpt>
      <trkpt lat="4.2276720" lon="-76.3098970">
        <ele>1392.2</ele>
        <time>2022-08-14T21:36:17Z</time>
      </trkpt>
      <trkpt lat="4.2275760" lon="-76.3100200">
        <ele>1391.6</ele>
        <time>2022-08-14T21:36:19Z</time>
      </trkpt>
      <trkpt lat="4.2275640" lon="-76.3100920">
        <ele>1391.2</ele>
        <time>2022-08-14T21:36:20Z</time>
      </trkpt>
      <trkpt lat="4.2275680" lon="-76.3104730">
        <ele>1390.2</ele>
        <time>2022-08-14T21:36:25Z</time>
      </trkpt>
      <trkpt lat="4.2275680" lon="-76.3105370">
        <ele>1389.8</ele>
        <time>2022-08-14T21:36:26Z</time>
      </trkpt>
      <trkpt lat="4.2275610" lon="-76.3106400">
        <ele>1389.2</ele>
        <time>2022-08-14T21:36:28Z</time>
      </trkpt>
      <trkpt lat="4.2275460" lon="-76.3106730">
        <ele>1388.8</ele>
        <time>2022-08-14T21:36:29Z</time>
      </trkpt>
      <trkpt lat="4.2275150" lon="-76.3106930">
        <ele>1388.6</ele>
        <time>2022-08-14T21:36:30Z</time>
      </trkpt>
      <trkpt lat="4.2274340" lon="-76.3107270">
        <ele>1387.8</ele>
        <time>2022-08-14T21:36:32Z</time>
      </trkpt>
      <trkpt lat="4.2273580" lon="-76.3107540">
        <ele>1387.4</ele>
        <time>2022-08-14T21:36:34Z</time>
      </trkpt>
      <trkpt lat="4.2272870" lon="-76.3107840">
        <ele>1387.4</ele>
        <time>2022-08-14T21:36:36Z</time>
      </trkpt>
      <trkpt lat="4.2271890" lon="-76.3108290">
        <ele>1387.4</ele>
        <time>2022-08-14T21:36:39Z</time>
      </trkpt>
      <trkpt lat="4.2270960" lon="-76.3108730">
        <ele>1387.4</ele>
        <time>2022-08-14T21:36:42Z</time>
      </trkpt>
      <trkpt lat="4.2269980" lon="-76.3109300">
        <ele>1388.0</ele>
        <time>2022-08-14T21:36:46Z</time>
      </trkpt>
      <trkpt lat="4.2269580" lon="-76.3109590">
        <ele>1388.6</ele>
        <time>2022-08-14T21:36:48Z</time>
      </trkpt>
      <trkpt lat="4.2269130" lon="-76.3109870">
        <ele>1389.0</ele>
        <time>2022-08-14T21:36:50Z</time>
      </trkpt>
      <trkpt lat="4.2268720" lon="-76.3110070">
        <ele>1389.8</ele>
        <time>2022-08-14T21:36:52Z</time>
      </trkpt>
      <trkpt lat="4.2268510" lon="-76.3110140">
        <ele>1390.2</ele>
        <time>2022-08-14T21:36:53Z</time>
      </trkpt>
      <trkpt lat="4.2267450" lon="-76.3110700">
        <ele>1391.4</ele>
        <time>2022-08-14T21:36:57Z</time>
      </trkpt>
      <trkpt lat="4.2266850" lon="-76.3111000">
        <ele>1391.8</ele>
        <time>2022-08-14T21:36:59Z</time>
      </trkpt>
      <trkpt lat="4.2266140" lon="-76.3110940">
        <ele>1392.6</ele>
        <time>2022-08-14T21:37:02Z</time>
      </trkpt>
      <trkpt lat="4.2265900" lon="-76.3110930">
        <ele>1392.8</ele>
        <time>2022-08-14T21:37:03Z</time>
      </trkpt>
      <trkpt lat="4.2265630" lon="-76.3110960">
        <ele>1393.2</ele>
        <time>2022-08-14T21:37:04Z</time>
      </trkpt>
      <trkpt lat="4.2264890" lon="-76.3110940">
        <ele>1393.8</ele>
        <time>2022-08-14T21:37:08Z</time>
      </trkpt>
      <trkpt lat="4.2264230" lon="-76.3111210">
        <ele>1394.6</ele>
        <time>2022-08-14T21:37:11Z</time>
      </trkpt>
      <trkpt lat="4.2264030" lon="-76.3111300">
        <ele>1394.8</ele>
        <time>2022-08-14T21:37:12Z</time>
      </trkpt>
      <trkpt lat="4.2263110" lon="-76.3111880">
        <ele>1396.2</ele>
        <time>2022-08-14T21:37:17Z</time>
      </trkpt>
      <trkpt lat="4.2262650" lon="-76.3112430">
        <ele>1396.8</ele>
        <time>2022-08-14T21:37:20Z</time>
      </trkpt>
      <trkpt lat="4.2262360" lon="-76.3114110">
        <ele>1397.0</ele>
        <time>2022-08-14T21:37:25Z</time>
      </trkpt>
      <trkpt lat="4.2262650" lon="-76.3115020">
        <ele>1397.0</ele>
        <time>2022-08-14T21:37:27Z</time>
      </trkpt>
      <trkpt lat="4.2263120" lon="-76.3116040">
        <ele>1397.0</ele>
        <time>2022-08-14T21:37:29Z</time>
      </trkpt>
      <trkpt lat="4.2263120" lon="-76.3117290">
        <ele>1397.0</ele>
        <time>2022-08-14T21:37:31Z</time>
      </trkpt>
      <trkpt lat="4.2262870" lon="-76.3117970">
        <ele>1396.8</ele>
        <time>2022-08-14T21:37:32Z</time>
      </trkpt>
      <trkpt lat="4.2262420" lon="-76.3118670">
        <ele>1396.8</ele>
        <time>2022-08-14T21:37:33Z</time>
      </trkpt>
      <trkpt lat="4.2261200" lon="-76.3119980">
        <ele>1396.4</ele>
        <time>2022-08-14T21:37:35Z</time>
      </trkpt>
      <trkpt lat="4.2260550" lon="-76.3120530">
        <ele>1395.8</ele>
        <time>2022-08-14T21:37:36Z</time>
      </trkpt>
      <trkpt lat="4.2259270" lon="-76.3121210">
        <ele>1394.8</ele>
        <time>2022-08-14T21:37:38Z</time>
      </trkpt>
      <trkpt lat="4.2258300" lon="-76.3121820">
        <ele>1393.4</ele>
        <time>2022-08-14T21:37:40Z</time>
      </trkpt>
      <trkpt lat="4.2257980" lon="-76.3122270">
        <ele>1392.6</ele>
        <time>2022-08-14T21:37:41Z</time>
      </trkpt>
      <trkpt lat="4.2257790" lon="-76.3122990">
        <ele>1391.6</ele>
        <time>2022-08-14T21:37:42Z</time>
      </trkpt>
      <trkpt lat="4.2257700" lon="-76.3123670">
        <ele>1390.6</ele>
        <time>2022-08-14T21:37:43Z</time>
      </trkpt>
      <trkpt lat="4.2257670" lon="-76.3124540">
        <ele>1390.0</ele>
        <time>2022-08-14T21:37:44Z</time>
      </trkpt>
      <trkpt lat="4.2257420" lon="-76.3126220">
        <ele>1389.4</ele>
        <time>2022-08-14T21:37:46Z</time>
      </trkpt>
      <trkpt lat="4.2256740" lon="-76.3127830">
        <ele>1389.0</ele>
        <time>2022-08-14T21:37:48Z</time>
      </trkpt>
      <trkpt lat="4.2255990" lon="-76.3129320">
        <ele>1387.4</ele>
        <time>2022-08-14T21:37:50Z</time>
      </trkpt>
      <trkpt lat="4.2255700" lon="-76.3130000">
        <ele>1386.2</ele>
        <time>2022-08-14T21:37:51Z</time>
      </trkpt>
      <trkpt lat="4.2255440" lon="-76.3130700">
        <ele>1385.2</ele>
        <time>2022-08-14T21:37:52Z</time>
      </trkpt>
      <trkpt lat="4.2255040" lon="-76.3131930">
        <ele>1384.0</ele>
        <time>2022-08-14T21:37:54Z</time>
      </trkpt>
      <trkpt lat="4.2254920" lon="-76.3132540">
        <ele>1384.0</ele>
        <time>2022-08-14T21:37:55Z</time>
      </trkpt>
      <trkpt lat="4.2254280" lon="-76.3134180">
        <ele>1383.6</ele>
        <time>2022-08-14T21:37:58Z</time>
      </trkpt>
      <trkpt lat="4.2253240" lon="-76.3135810">
        <ele>1383.6</ele>
        <time>2022-08-14T21:38:02Z</time>
      </trkpt>
      <trkpt lat="4.2253020" lon="-76.3136040">
        <ele>1383.6</ele>
        <time>2022-08-14T21:38:03Z</time>
      </trkpt>
      <trkpt lat="4.2252070" lon="-76.3136820">
        <ele>1385.2</ele>
        <time>2022-08-14T21:38:08Z</time>
      </trkpt>
      <trkpt lat="4.2251910" lon="-76.3136900">
        <ele>1385.6</ele>
        <time>2022-08-14T21:38:09Z</time>
      </trkpt>
      <trkpt lat="4.2251750" lon="-76.3136960">
        <ele>1386.2</ele>
        <time>2022-08-14T21:38:10Z</time>
      </trkpt>
      <trkpt lat="4.2251260" lon="-76.3137280">
        <ele>1387.6</ele>
        <time>2022-08-14T21:38:13Z</time>
      </trkpt>
      <trkpt lat="4.2251000" lon="-76.3137410">
        <ele>1388.2</ele>
        <time>2022-08-14T21:38:15Z</time>
      </trkpt>
      <trkpt lat="4.2250760" lon="-76.3137550">
        <ele>1389.0</ele>
        <time>2022-08-14T21:38:17Z</time>
      </trkpt>
      <trkpt lat="4.2250220" lon="-76.3138170">
        <ele>1390.2</ele>
        <time>2022-08-14T21:38:22Z</time>
      </trkpt>
      <trkpt lat="4.2250120" lon="-76.3138300">
        <ele>1390.6</ele>
        <time>2022-08-14T21:38:23Z</time>
      </trkpt>
      <trkpt lat="4.2250010" lon="-76.3138750">
        <ele>1391.2</ele>
        <time>2022-08-14T21:38:26Z</time>
      </trkpt>
      <trkpt lat="4.2250000" lon="-76.3138930">
        <ele>1391.6</ele>
        <time>2022-08-14T21:38:27Z</time>
      </trkpt>
      <trkpt lat="4.2249900" lon="-76.3139820">
        <ele>1392.4</ele>
        <time>2022-08-14T21:38:31Z</time>
      </trkpt>
      <trkpt lat="4.2249840" lon="-76.3140040">
        <ele>1392.6</ele>
        <time>2022-08-14T21:38:32Z</time>
      </trkpt>
      <trkpt lat="4.2249470" lon="-76.3141200">
        <ele>1393.6</ele>
        <time>2022-08-14T21:38:37Z</time>
      </trkpt>
      <trkpt lat="4.2249350" lon="-76.3141930">
        <ele>1394.2</ele>
        <time>2022-08-14T21:38:40Z</time>
      </trkpt>
      <trkpt lat="4.2249170" lon="-76.3142540">
        <ele>1394.8</ele>
        <time>2022-08-14T21:38:43Z</time>
      </trkpt>
      <trkpt lat="4.2248860" lon="-76.3143550">
        <ele>1395.6</ele>
        <time>2022-08-14T21:38:48Z</time>
      </trkpt>
      <trkpt lat="4.2248860" lon="-76.3143800">
        <ele>1395.8</ele>
        <time>2022-08-14T21:38:49Z</time>
      </trkpt>
      <trkpt lat="4.2248810" lon="-76.3144520">
        <ele>1397.0</ele>
        <time>2022-08-14T21:38:53Z</time>
      </trkpt>
      <trkpt lat="4.2248850" lon="-76.3144720">
        <ele>1397.0</ele>
        <time>2022-08-14T21:38:54Z</time>
      </trkpt>
      <trkpt lat="4.2248960" lon="-76.3145440">
        <ele>1398.0</ele>
        <time>2022-08-14T21:38:58Z</time>
      </trkpt>
      <trkpt lat="4.2249000" lon="-76.3145830">
        <ele>1398.4</ele>
        <time>2022-08-14T21:39:00Z</time>
      </trkpt>
      <trkpt lat="4.2249230" lon="-76.3146560">
        <ele>1399.0</ele>
        <time>2022-08-14T21:39:04Z</time>
      </trkpt>
      <trkpt lat="4.2249490" lon="-76.3148020">
        <ele>1400.4</ele>
        <time>2022-08-14T21:39:11Z</time>
      </trkpt>
      <trkpt lat="4.2249930" lon="-76.3149540">
        <ele>1401.4</ele>
        <time>2022-08-14T21:39:18Z</time>
      </trkpt>
      <trkpt lat="4.2250590" lon="-76.3150700">
        <ele>1402.2</ele>
        <time>2022-08-14T21:39:24Z</time>
      </trkpt>
      <trkpt lat="4.2250620" lon="-76.3150920">
        <ele>1402.4</ele>
        <time>2022-08-14T21:39:25Z</time>
      </trkpt>
      <trkpt lat="4.2250700" lon="-76.3151940">
        <ele>1403.8</ele>
        <time>2022-08-14T21:39:30Z</time>
      </trkpt>
      <trkpt lat="4.2250560" lon="-76.3152030">
        <ele>1404.0</ele>
        <time>2022-08-14T21:39:31Z</time>
      </trkpt>
      <trkpt lat="4.2249750" lon="-76.3151980">
        <ele>1405.0</ele>
        <time>2022-08-14T21:39:35Z</time>
      </trkpt>
      <trkpt lat="4.2249330" lon="-76.3151720">
        <ele>1405.4</ele>
        <time>2022-08-14T21:39:37Z</time>
      </trkpt>
      <trkpt lat="4.2248430" lon="-76.3150930">
        <ele>1406.0</ele>
        <time>2022-08-14T21:39:42Z</time>
      </trkpt>
      <trkpt lat="4.2248110" lon="-76.3150590">
        <ele>1406.2</ele>
        <time>2022-08-14T21:39:44Z</time>
      </trkpt>
      <trkpt lat="4.2247620" lon="-76.3150140">
        <ele>1406.4</ele>
        <time>2022-08-14T21:39:47Z</time>
      </trkpt>
      <trkpt lat="4.2246620" lon="-76.3149250">
        <ele>1407.4</ele>
        <time>2022-08-14T21:39:52Z</time>
      </trkpt>
      <trkpt lat="4.2246180" lon="-76.3149160">
        <ele>1408.0</ele>
        <time>2022-08-14T21:39:54Z</time>
      </trkpt>
      <trkpt lat="4.2245550" lon="-76.3149130">
        <ele>1408.6</ele>
        <time>2022-08-14T21:39:57Z</time>
      </trkpt>
      <trkpt lat="4.2244920" lon="-76.3149220">
        <ele>1409.0</ele>
        <time>2022-08-14T21:40:00Z</time>
      </trkpt>
      <trkpt lat="4.2244290" lon="-76.3149370">
        <ele>1409.8</ele>
        <time>2022-08-14T21:40:03Z</time>
      </trkpt>
      <trkpt lat="4.2243280" lon="-76.3149640">
        <ele>1410.8</ele>
        <time>2022-08-14T21:40:08Z</time>
      </trkpt>
      <trkpt lat="4.2241970" lon="-76.3149780">
        <ele>1412.4</ele>
        <time>2022-08-14T21:40:14Z</time>
      </trkpt>
      <trkpt lat="4.2241750" lon="-76.3149810">
        <ele>1412.6</ele>
        <time>2022-08-14T21:40:15Z</time>
      </trkpt>
      <trkpt lat="4.2241070" lon="-76.3149890">
        <ele>1413.4</ele>
        <time>2022-08-14T21:40:18Z</time>
      </trkpt>
      <trkpt lat="4.2240140" lon="-76.3149890">
        <ele>1414.0</ele>
        <time>2022-08-14T21:40:22Z</time>
      </trkpt>
      <trkpt lat="4.2239900" lon="-76.3149820">
        <ele>1414.6</ele>
        <time>2022-08-14T21:40:23Z</time>
      </trkpt>
      <trkpt lat="4.2238630" lon="-76.3149790">
        <ele>1415.6</ele>
        <time>2022-08-14T21:40:28Z</time>
      </trkpt>
      <trkpt lat="4.2236890" lon="-76.3149770">
        <ele>1416.8</ele>
        <time>2022-08-14T21:40:34Z</time>
      </trkpt>
      <trkpt lat="4.2234690" lon="-76.3149470">
        <ele>1417.2</ele>
        <time>2022-08-14T21:40:39Z</time>
      </trkpt>
      <trkpt lat="4.2234150" lon="-76.3149340">
        <ele>1417.2</ele>
        <time>2022-08-14T21:40:40Z</time>
      </trkpt>
      <trkpt lat="4.2231770" lon="-76.3148370">
        <ele>1417.2</ele>
        <time>2022-08-14T21:40:44Z</time>
      </trkpt>
      <trkpt lat="4.2231090" lon="-76.3148110">
        <ele>1417.0</ele>
        <time>2022-08-14T21:40:45Z</time>
      </trkpt>
      <trkpt lat="4.2229480" lon="-76.3148030">
        <ele>1416.6</ele>
        <time>2022-08-14T21:40:47Z</time>
      </trkpt>
      <trkpt lat="4.2227110" lon="-76.3148580">
        <ele>1415.8</ele>
        <time>2022-08-14T21:40:50Z</time>
      </trkpt>
      <trkpt lat="4.2226410" lon="-76.3148780">
        <ele>1415.0</ele>
        <time>2022-08-14T21:40:51Z</time>
      </trkpt>
      <trkpt lat="4.2225770" lon="-76.3148900">
        <ele>1414.4</ele>
        <time>2022-08-14T21:40:52Z</time>
      </trkpt>
      <trkpt lat="4.2224860" lon="-76.3149530">
        <ele>1412.8</ele>
        <time>2022-08-14T21:40:54Z</time>
      </trkpt>
      <trkpt lat="4.2224580" lon="-76.3150190">
        <ele>1411.8</ele>
        <time>2022-08-14T21:40:55Z</time>
      </trkpt>
      <trkpt lat="4.2224520" lon="-76.3151040">
        <ele>1411.0</ele>
        <time>2022-08-14T21:40:56Z</time>
      </trkpt>
      <trkpt lat="4.2224730" lon="-76.3152070">
        <ele>1410.2</ele>
        <time>2022-08-14T21:40:57Z</time>
      </trkpt>
      <trkpt lat="4.2224830" lon="-76.3152900">
        <ele>1409.2</ele>
        <time>2022-08-14T21:40:58Z</time>
      </trkpt>
      <trkpt lat="4.2224830" lon="-76.3153750">
        <ele>1408.4</ele>
        <time>2022-08-14T21:40:59Z</time>
      </trkpt>
      <trkpt lat="4.2224660" lon="-76.3154610">
        <ele>1407.8</ele>
        <time>2022-08-14T21:41:00Z</time>
      </trkpt>
      <trkpt lat="4.2224370" lon="-76.3155480">
        <ele>1407.4</ele>
        <time>2022-08-14T21:41:01Z</time>
      </trkpt>
      <trkpt lat="4.2223800" lon="-76.3157130">
        <ele>1405.8</ele>
        <time>2022-08-14T21:41:03Z</time>
      </trkpt>
      <trkpt lat="4.2223540" lon="-76.3157850">
        <ele>1404.6</ele>
        <time>2022-08-14T21:41:04Z</time>
      </trkpt>
      <trkpt lat="4.2223190" lon="-76.3158470">
        <ele>1403.4</ele>
        <time>2022-08-14T21:41:05Z</time>
      </trkpt>
      <trkpt lat="4.2222690" lon="-76.3159000">
        <ele>1402.2</ele>
        <time>2022-08-14T21:41:06Z</time>
      </trkpt>
      <trkpt lat="4.2222080" lon="-76.3159400">
        <ele>1401.0</ele>
        <time>2022-08-14T21:41:07Z</time>
      </trkpt>
      <trkpt lat="4.2221430" lon="-76.3159560">
        <ele>1399.8</ele>
        <time>2022-08-14T21:41:08Z</time>
      </trkpt>
      <trkpt lat="4.2220790" lon="-76.3159620">
        <ele>1398.6</ele>
        <time>2022-08-14T21:41:09Z</time>
      </trkpt>
      <trkpt lat="4.2219570" lon="-76.3159630">
        <ele>1398.0</ele>
        <time>2022-08-14T21:41:11Z</time>
      </trkpt>
      <trkpt lat="4.2219010" lon="-76.3159550">
        <ele>1397.8</ele>
        <time>2022-08-14T21:41:12Z</time>
      </trkpt>
      <trkpt lat="4.2217990" lon="-76.3159380">
        <ele>1397.6</ele>
        <time>2022-08-14T21:41:14Z</time>
      </trkpt>
      <trkpt lat="4.2217530" lon="-76.3159300">
        <ele>1397.6</ele>
        <time>2022-08-14T21:41:15Z</time>
      </trkpt>
      <trkpt lat="4.2216660" lon="-76.3159140">
        <ele>1397.6</ele>
        <time>2022-08-14T21:41:17Z</time>
      </trkpt>
      <trkpt lat="4.2216240" lon="-76.3159010">
        <ele>1397.6</ele>
        <time>2022-08-14T21:41:18Z</time>
      </trkpt>
      <trkpt lat="4.2215420" lon="-76.3158610">
        <ele>1397.6</ele>
        <time>2022-08-14T21:41:20Z</time>
      </trkpt>
      <trkpt lat="4.2215030" lon="-76.3158370">
        <ele>1397.8</ele>
        <time>2022-08-14T21:41:21Z</time>
      </trkpt>
      <trkpt lat="4.2214660" lon="-76.3158100">
        <ele>1398.2</ele>
        <time>2022-08-14T21:41:22Z</time>
      </trkpt>
      <trkpt lat="4.2214080" lon="-76.3157470">
        <ele>1398.8</ele>
        <time>2022-08-14T21:41:24Z</time>
      </trkpt>
      <trkpt lat="4.2213590" lon="-76.3156810">
        <ele>1399.2</ele>
        <time>2022-08-14T21:41:26Z</time>
      </trkpt>
      <trkpt lat="4.2212800" lon="-76.3155760">
        <ele>1399.8</ele>
        <time>2022-08-14T21:41:29Z</time>
      </trkpt>
      <trkpt lat="4.2211840" lon="-76.3154520">
        <ele>1400.8</ele>
        <time>2022-08-14T21:41:33Z</time>
      </trkpt>
      <trkpt lat="4.2211620" lon="-76.3154210">
        <ele>1401.0</ele>
        <time>2022-08-14T21:41:34Z</time>
      </trkpt>
      <trkpt lat="4.2210350" lon="-76.3152890">
        <ele>1402.4</ele>
        <time>2022-08-14T21:41:39Z</time>
      </trkpt>
      <trkpt lat="4.2208740" lon="-76.3152520">
        <ele>1403.2</ele>
        <time>2022-08-14T21:41:43Z</time>
      </trkpt>
      <trkpt lat="4.2208290" lon="-76.3152550">
        <ele>1403.6</ele>
        <time>2022-08-14T21:41:44Z</time>
      </trkpt>
      <trkpt lat="4.2206830" lon="-76.3152810">
        <ele>1403.8</ele>
        <time>2022-08-14T21:41:47Z</time>
      </trkpt>
      <trkpt lat="4.2203390" lon="-76.3153740">
        <ele>1403.8</ele>
        <time>2022-08-14T21:41:53Z</time>
      </trkpt>
      <trkpt lat="4.2199970" lon="-76.3154340">
        <ele>1402.8</ele>
        <time>2022-08-14T21:41:58Z</time>
      </trkpt>
      <trkpt lat="4.2199170" lon="-76.3154420">
        <ele>1402.4</ele>
        <time>2022-08-14T21:41:59Z</time>
      </trkpt>
      <trkpt lat="4.2196730" lon="-76.3155030">
        <ele>1402.0</ele>
        <time>2022-08-14T21:42:02Z</time>
      </trkpt>
      <trkpt lat="4.2195980" lon="-76.3155300">
        <ele>1401.8</ele>
        <time>2022-08-14T21:42:03Z</time>
      </trkpt>
      <trkpt lat="4.2195220" lon="-76.3155640">
        <ele>1401.4</ele>
        <time>2022-08-14T21:42:04Z</time>
      </trkpt>
      <trkpt lat="4.2193650" lon="-76.3156360">
        <ele>1400.4</ele>
        <time>2022-08-14T21:42:06Z</time>
      </trkpt>
      <trkpt lat="4.2191970" lon="-76.3157070">
        <ele>1398.8</ele>
        <time>2022-08-14T21:42:08Z</time>
      </trkpt>
      <trkpt lat="4.2191080" lon="-76.3157360">
        <ele>1398.2</ele>
        <time>2022-08-14T21:42:09Z</time>
      </trkpt>
      <trkpt lat="4.2190180" lon="-76.3157590">
        <ele>1397.6</ele>
        <time>2022-08-14T21:42:10Z</time>
      </trkpt>
      <trkpt lat="4.2189290" lon="-76.3157740">
        <ele>1397.0</ele>
        <time>2022-08-14T21:42:11Z</time>
      </trkpt>
      <trkpt lat="4.2188380" lon="-76.3157750">
        <ele>1396.4</ele>
        <time>2022-08-14T21:42:12Z</time>
      </trkpt>
      <trkpt lat="4.2187460" lon="-76.3157710">
        <ele>1395.4</ele>
        <time>2022-08-14T21:42:13Z</time>
      </trkpt>
      <trkpt lat="4.2186570" lon="-76.3157610">
        <ele>1394.4</ele>
        <time>2022-08-14T21:42:14Z</time>
      </trkpt>
      <trkpt lat="4.2185680" lon="-76.3157470">
        <ele>1393.0</ele>
        <time>2022-08-14T21:42:15Z</time>
      </trkpt>
      <trkpt lat="4.2184780" lon="-76.3157330">
        <ele>1391.8</ele>
        <time>2022-08-14T21:42:16Z</time>
      </trkpt>
      <trkpt lat="4.2183880" lon="-76.3157230">
        <ele>1390.6</ele>
        <time>2022-08-14T21:42:17Z</time>
      </trkpt>
      <trkpt lat="4.2183030" lon="-76.3157150">
        <ele>1389.6</ele>
        <time>2022-08-14T21:42:18Z</time>
      </trkpt>
      <trkpt lat="4.2182180" lon="-76.3157050">
        <ele>1389.0</ele>
        <time>2022-08-14T21:42:19Z</time>
      </trkpt>
      <trkpt lat="4.2181360" lon="-76.3156870">
        <ele>1388.4</ele>
        <time>2022-08-14T21:42:20Z</time>
      </trkpt>
      <trkpt lat="4.2180620" lon="-76.3156660">
        <ele>1387.6</ele>
        <time>2022-08-14T21:42:21Z</time>
      </trkpt>
      <trkpt lat="4.2179920" lon="-76.3156430">
        <ele>1387.0</ele>
        <time>2022-08-14T21:42:22Z</time>
      </trkpt>
      <trkpt lat="4.2179290" lon="-76.3156180">
        <ele>1386.4</ele>
        <time>2022-08-14T21:42:23Z</time>
      </trkpt>
      <trkpt lat="4.2177070" lon="-76.3155280">
        <ele>1385.4</ele>
        <time>2022-08-14T21:42:27Z</time>
      </trkpt>
      <trkpt lat="4.2176580" lon="-76.3155020">
        <ele>1385.2</ele>
        <time>2022-08-14T21:42:28Z</time>
      </trkpt>
      <trkpt lat="4.2176130" lon="-76.3154750">
        <ele>1384.8</ele>
        <time>2022-08-14T21:42:29Z</time>
      </trkpt>
      <trkpt lat="4.2175380" lon="-76.3154140">
        <ele>1384.8</ele>
        <time>2022-08-14T21:42:31Z</time>
      </trkpt>
      <trkpt lat="4.2175080" lon="-76.3153930">
        <ele>1384.4</ele>
        <time>2022-08-14T21:42:32Z</time>
      </trkpt>
      <trkpt lat="4.2174000" lon="-76.3153700">
        <ele>1384.6</ele>
        <time>2022-08-14T21:42:35Z</time>
      </trkpt>
      <trkpt lat="4.2173270" lon="-76.3153630">
        <ele>1384.6</ele>
        <time>2022-08-14T21:42:37Z</time>
      </trkpt>
      <trkpt lat="4.2170450" lon="-76.3153350">
        <ele>1385.8</ele>
        <time>2022-08-14T21:42:44Z</time>
      </trkpt>
      <trkpt lat="4.2169690" lon="-76.3153420">
        <ele>1386.0</ele>
        <time>2022-08-14T21:42:46Z</time>
      </trkpt>
      <trkpt lat="4.2169080" lon="-76.3153580">
        <ele>1386.2</ele>
        <time>2022-08-14T21:42:49Z</time>
      </trkpt>
      <trkpt lat="4.2167690" lon="-76.3153630">
        <ele>1386.6</ele>
        <time>2022-08-14T21:42:55Z</time>
      </trkpt>
      <trkpt lat="4.2166120" lon="-76.3153550">
        <ele>1386.4</ele>
        <time>2022-08-14T21:42:59Z</time>
      </trkpt>
      <trkpt lat="4.2165360" lon="-76.3153490">
        <ele>1386.4</ele>
        <time>2022-08-14T21:43:01Z</time>
      </trkpt>
      <trkpt lat="4.2163500" lon="-76.3153480">
        <ele>1385.4</ele>
        <time>2022-08-14T21:43:06Z</time>
      </trkpt>
      <trkpt lat="4.2162970" lon="-76.3153600">
        <ele>1384.6</ele>
        <time>2022-08-14T21:43:08Z</time>
      </trkpt>
      <trkpt lat="4.2162670" lon="-76.3153770">
        <ele>1384.2</ele>
        <time>2022-08-14T21:43:09Z</time>
      </trkpt>
      <trkpt lat="4.2161740" lon="-76.3154440">
        <ele>1383.0</ele>
        <time>2022-08-14T21:43:12Z</time>
      </trkpt>
      <trkpt lat="4.2160470" lon="-76.3155300">
        <ele>1382.4</ele>
        <time>2022-08-14T21:43:16Z</time>
      </trkpt>
      <trkpt lat="4.2159760" lon="-76.3155820">
        <ele>1381.8</ele>
        <time>2022-08-14T21:43:18Z</time>
      </trkpt>
      <trkpt lat="4.2159390" lon="-76.3156070">
        <ele>1381.6</ele>
        <time>2022-08-14T21:43:19Z</time>
      </trkpt>
      <trkpt lat="4.2158280" lon="-76.3156890">
        <ele>1380.6</ele>
        <time>2022-08-14T21:43:22Z</time>
      </trkpt>
      <trkpt lat="4.2157460" lon="-76.3157500">
        <ele>1379.8</ele>
        <time>2022-08-14T21:43:24Z</time>
      </trkpt>
      <trkpt lat="4.2157020" lon="-76.3157810">
        <ele>1379.4</ele>
        <time>2022-08-14T21:43:25Z</time>
      </trkpt>
      <trkpt lat="4.2155610" lon="-76.3158750">
        <ele>1378.0</ele>
        <time>2022-08-14T21:43:28Z</time>
      </trkpt>
      <trkpt lat="4.2155120" lon="-76.3159020">
        <ele>1377.2</ele>
        <time>2022-08-14T21:43:29Z</time>
      </trkpt>
      <trkpt lat="4.2154590" lon="-76.3159330">
        <ele>1376.4</ele>
        <time>2022-08-14T21:43:30Z</time>
      </trkpt>
      <trkpt lat="4.2153430" lon="-76.3160120">
        <ele>1374.8</ele>
        <time>2022-08-14T21:43:32Z</time>
      </trkpt>
      <trkpt lat="4.2152170" lon="-76.3161100">
        <ele>1373.0</ele>
        <time>2022-08-14T21:43:34Z</time>
      </trkpt>
      <trkpt lat="4.2151510" lon="-76.3161630">
        <ele>1371.8</ele>
        <time>2022-08-14T21:43:35Z</time>
      </trkpt>
      <trkpt lat="4.2150220" lon="-76.3162530">
        <ele>1370.2</ele>
        <time>2022-08-14T21:43:37Z</time>
      </trkpt>
      <trkpt lat="4.2149620" lon="-76.3162970">
        <ele>1369.0</ele>
        <time>2022-08-14T21:43:38Z</time>
      </trkpt>
      <trkpt lat="4.2148370" lon="-76.3163940">
        <ele>1368.2</ele>
        <time>2022-08-14T21:43:40Z</time>
      </trkpt>
      <trkpt lat="4.2147750" lon="-76.3164460">
        <ele>1367.2</ele>
        <time>2022-08-14T21:43:41Z</time>
      </trkpt>
      <trkpt lat="4.2146650" lon="-76.3165370">
        <ele>1365.6</ele>
        <time>2022-08-14T21:43:43Z</time>
      </trkpt>
      <trkpt lat="4.2144900" lon="-76.3166760">
        <ele>1364.4</ele>
        <time>2022-08-14T21:43:46Z</time>
      </trkpt>
      <trkpt lat="4.2144540" lon="-76.3167090">
        <ele>1364.2</ele>
        <time>2022-08-14T21:43:47Z</time>
      </trkpt>
      <trkpt lat="4.2143770" lon="-76.3167690">
        <ele>1364.0</ele>
        <time>2022-08-14T21:43:50Z</time>
      </trkpt>
      <trkpt lat="4.2143300" lon="-76.3168000">
        <ele>1364.0</ele>
        <time>2022-08-14T21:43:53Z</time>
      </trkpt>
      <trkpt lat="4.2143000" lon="-76.3168240">
        <ele>1364.2</ele>
        <time>2022-08-14T21:43:55Z</time>
      </trkpt>
      <trkpt lat="4.2142240" lon="-76.3168580">
        <ele>1365.6</ele>
        <time>2022-08-14T21:43:58Z</time>
      </trkpt>
      <trkpt lat="4.2141300" lon="-76.3169090">
        <ele>1366.0</ele>
        <time>2022-08-14T21:44:00Z</time>
      </trkpt>
      <trkpt lat="4.2139150" lon="-76.3170720">
        <ele>1366.0</ele>
        <time>2022-08-14T21:44:04Z</time>
      </trkpt>
      <trkpt lat="4.2137930" lon="-76.3171750">
        <ele>1365.2</ele>
        <time>2022-08-14T21:44:08Z</time>
      </trkpt>
      <trkpt lat="4.2137580" lon="-76.3172030">
        <ele>1363.6</ele>
        <time>2022-08-14T21:44:09Z</time>
      </trkpt>
      <trkpt lat="4.2137290" lon="-76.3172310">
        <ele>1361.8</ele>
        <time>2022-08-14T21:44:10Z</time>
      </trkpt>
      <trkpt lat="4.2136940" lon="-76.3172580">
        <ele>1360.6</ele>
        <time>2022-08-14T21:44:11Z</time>
      </trkpt>
      <trkpt lat="4.2136540" lon="-76.3172900">
        <ele>1359.6</ele>
        <time>2022-08-14T21:44:12Z</time>
      </trkpt>
      <trkpt lat="4.2136130" lon="-76.3173190">
        <ele>1358.8</ele>
        <time>2022-08-14T21:44:13Z</time>
      </trkpt>
      <trkpt lat="4.2135750" lon="-76.3173470">
        <ele>1358.4</ele>
        <time>2022-08-14T21:44:14Z</time>
      </trkpt>
      <trkpt lat="4.2133630" lon="-76.3175060">
        <ele>1357.4</ele>
        <time>2022-08-14T21:44:20Z</time>
      </trkpt>
      <trkpt lat="4.2133060" lon="-76.3175550">
        <ele>1357.6</ele>
        <time>2022-08-14T21:44:22Z</time>
      </trkpt>
      <trkpt lat="4.2132180" lon="-76.3176270">
        <ele>1357.4</ele>
        <time>2022-08-14T21:44:25Z</time>
      </trkpt>
      <trkpt lat="4.2130670" lon="-76.3177430">
        <ele>1357.2</ele>
        <time>2022-08-14T21:44:29Z</time>
      </trkpt>
      <trkpt lat="4.2129810" lon="-76.3178050">
        <ele>1357.2</ele>
        <time>2022-08-14T21:44:31Z</time>
      </trkpt>
      <trkpt lat="4.2126390" lon="-76.3180670">
        <ele>1357.0</ele>
        <time>2022-08-14T21:44:39Z</time>
      </trkpt>
      <trkpt lat="4.2124460" lon="-76.3182040">
        <ele>1356.8</ele>
        <time>2022-08-14T21:44:44Z</time>
      </trkpt>
      <trkpt lat="4.2123850" lon="-76.3182640">
        <ele>1356.6</ele>
        <time>2022-08-14T21:44:46Z</time>
      </trkpt>
      <trkpt lat="4.2120930" lon="-76.3184960">
        <ele>1356.4</ele>
        <time>2022-08-14T21:44:55Z</time>
      </trkpt>
      <trkpt lat="4.2118450" lon="-76.3186630">
        <ele>1356.8</ele>
        <time>2022-08-14T21:45:03Z</time>
      </trkpt>
      <trkpt lat="4.2117450" lon="-76.3187670">
        <ele>1357.8</ele>
        <time>2022-08-14T21:45:08Z</time>
      </trkpt>
      <trkpt lat="4.2117470" lon="-76.3188150">
        <ele>1358.0</ele>
        <time>2022-08-14T21:45:10Z</time>
      </trkpt>
      <trkpt lat="4.2117620" lon="-76.3188640">
        <ele>1358.2</ele>
        <time>2022-08-14T21:45:12Z</time>
      </trkpt>
      <trkpt lat="4.2117860" lon="-76.3189580">
        <ele>1359.0</ele>
        <time>2022-08-14T21:45:17Z</time>
      </trkpt>
      <trkpt lat="4.2118000" lon="-76.3189780">
        <ele>1359.2</ele>
        <time>2022-08-14T21:45:19Z</time>
      </trkpt>
      <trkpt lat="4.2118030" lon="-76.3189800">
        <ele>1359.6</ele>
        <time>2022-08-14T21:45:22Z</time>
      </trkpt>
      <trkpt lat="4.2118030" lon="-76.3189800">
        <ele>1359.8</ele>
        <time>2022-08-14T21:45:33Z</time>
      </trkpt>
      <trkpt lat="4.2118030" lon="-76.3189800">
        <ele>1359.8</ele>
        <time>2022-08-14T21:45:36Z</time>
      </trkpt>
      <trkpt lat="4.2118030" lon="-76.3189800">
        <ele>1359.8</ele>
        <time>2022-08-14T21:46:13Z</time>
      </trkpt>
      <trkpt lat="4.2118360" lon="-76.3190040">
        <ele>1360.0</ele>
        <time>2022-08-14T21:46:35Z</time>
      </trkpt>
      <trkpt lat="4.2118360" lon="-76.3190040">
        <ele>1360.0</ele>
        <time>2022-08-14T21:46:44Z</time>
      </trkpt>
      <trkpt lat="4.2118520" lon="-76.3190000">
        <ele>1360.4</ele>
        <time>2022-08-14T21:47:28Z</time>
      </trkpt>
      <trkpt lat="4.2081700" lon="-76.3152030">
        <ele>1323.6</ele>
        <time>2022-08-15T12:09:46Z</time>
      </trkpt>
      <trkpt lat="4.2081720" lon="-76.3151820">
        <ele>1339.2</ele>
        <time>2022-08-15T12:09:47Z</time>
      </trkpt>
      <trkpt lat="4.2081730" lon="-76.3151640">
        <ele>1339.6</ele>
        <time>2022-08-15T12:09:48Z</time>
      </trkpt>
      <trkpt lat="4.2081750" lon="-76.3151320">
        <ele>1340.0</ele>
        <time>2022-08-15T12:09:50Z</time>
      </trkpt>
      <trkpt lat="4.2081970" lon="-76.3150440">
        <ele>1340.6</ele>
        <time>2022-08-15T12:09:54Z</time>
      </trkpt>
      <trkpt lat="4.2082180" lon="-76.3149830">
        <ele>1341.2</ele>
        <time>2022-08-15T12:09:57Z</time>
      </trkpt>
      <trkpt lat="4.2082270" lon="-76.3149650">
        <ele>1341.4</ele>
        <time>2022-08-15T12:09:58Z</time>
      </trkpt>
      <trkpt lat="4.2082350" lon="-76.3149280">
        <ele>1341.8</ele>
        <time>2022-08-15T12:10:00Z</time>
      </trkpt>
      <trkpt lat="4.2082490" lon="-76.3148940">
        <ele>1342.2</ele>
        <time>2022-08-15T12:10:02Z</time>
      </trkpt>
      <trkpt lat="4.2082390" lon="-76.3147370">
        <ele>1342.0</ele>
        <time>2022-08-15T12:10:09Z</time>
      </trkpt>
      <trkpt lat="4.2081320" lon="-76.3146340">
        <ele>1343.0</ele>
        <time>2022-08-15T12:10:16Z</time>
      </trkpt>
      <trkpt lat="4.2079620" lon="-76.3145740">
        <ele>1344.2</ele>
        <time>2022-08-15T12:10:22Z</time>
      </trkpt>
      <trkpt lat="4.2077360" lon="-76.3145090">
        <ele>1345.0</ele>
        <time>2022-08-15T12:10:28Z</time>
      </trkpt>
      <trkpt lat="4.2074320" lon="-76.3143810">
        <ele>1345.0</ele>
        <time>2022-08-15T12:10:34Z</time>
      </trkpt>
      <trkpt lat="4.2073640" lon="-76.3143380">
        <ele>1345.0</ele>
        <time>2022-08-15T12:10:35Z</time>
      </trkpt>
      <trkpt lat="4.2072850" lon="-76.3142360">
        <ele>1345.0</ele>
        <time>2022-08-15T12:10:37Z</time>
      </trkpt>
      <trkpt lat="4.2071780" lon="-76.3138850">
        <ele>1344.2</ele>
        <time>2022-08-15T12:10:41Z</time>
      </trkpt>
      <trkpt lat="4.2071450" lon="-76.3137970">
        <ele>1343.8</ele>
        <time>2022-08-15T12:10:42Z</time>
      </trkpt>
      <trkpt lat="4.2070490" lon="-76.3136420">
        <ele>1343.4</ele>
        <time>2022-08-15T12:10:44Z</time>
      </trkpt>
      <trkpt lat="4.2069900" lon="-76.3135770">
        <ele>1343.0</ele>
        <time>2022-08-15T12:10:45Z</time>
      </trkpt>
      <trkpt lat="4.2069290" lon="-76.3135250">
        <ele>1342.4</ele>
        <time>2022-08-15T12:10:46Z</time>
      </trkpt>
      <trkpt lat="4.2068710" lon="-76.3134820">
        <ele>1341.6</ele>
        <time>2022-08-15T12:10:47Z</time>
      </trkpt>
      <trkpt lat="4.2067830" lon="-76.3134130">
        <ele>1340.8</ele>
        <time>2022-08-15T12:10:49Z</time>
      </trkpt>
      <trkpt lat="4.2066990" lon="-76.3133510">
        <ele>1340.6</ele>
        <time>2022-08-15T12:10:51Z</time>
      </trkpt>
      <trkpt lat="4.2065700" lon="-76.3132480">
        <ele>1340.6</ele>
        <time>2022-08-15T12:10:56Z</time>
      </trkpt>
      <trkpt lat="4.2064860" lon="-76.3131700">
        <ele>1343.0</ele>
        <time>2022-08-15T12:11:00Z</time>
      </trkpt>
      <trkpt lat="4.2064380" lon="-76.3131230">
        <ele>1344.2</ele>
        <time>2022-08-15T12:11:02Z</time>
      </trkpt>
      <trkpt lat="4.2063800" lon="-76.3130580">
        <ele>1345.2</ele>
        <time>2022-08-15T12:11:05Z</time>
      </trkpt>
      <trkpt lat="4.2063350" lon="-76.3130010">
        <ele>1346.0</ele>
        <time>2022-08-15T12:11:07Z</time>
      </trkpt>
      <trkpt lat="4.2062780" lon="-76.3129190">
        <ele>1346.4</ele>
        <time>2022-08-15T12:11:10Z</time>
      </trkpt>
      <trkpt lat="4.2062570" lon="-76.3128810">
        <ele>1346.8</ele>
        <time>2022-08-15T12:11:11Z</time>
      </trkpt>
      <trkpt lat="4.2061810" lon="-76.3127420">
        <ele>1347.6</ele>
        <time>2022-08-15T12:11:15Z</time>
      </trkpt>
      <trkpt lat="4.2061470" lon="-76.3126810">
        <ele>1348.2</ele>
        <time>2022-08-15T12:11:17Z</time>
      </trkpt>
      <trkpt lat="4.2060780" lon="-76.3125490">
        <ele>1348.6</ele>
        <time>2022-08-15T12:11:21Z</time>
      </trkpt>
      <trkpt lat="4.2059870" lon="-76.3123850">
        <ele>1349.4</ele>
        <time>2022-08-15T12:11:26Z</time>
      </trkpt>
      <trkpt lat="4.2059480" lon="-76.3123170">
        <ele>1349.8</ele>
        <time>2022-08-15T12:11:28Z</time>
      </trkpt>
      <trkpt lat="4.2058230" lon="-76.3120910">
        <ele>1350.0</ele>
        <time>2022-08-15T12:11:34Z</time>
      </trkpt>
      <trkpt lat="4.2056520" lon="-76.3118180">
        <ele>1350.0</ele>
        <time>2022-08-15T12:11:40Z</time>
      </trkpt>
      <trkpt lat="4.2055670" lon="-76.3116580">
        <ele>1349.8</ele>
        <time>2022-08-15T12:11:43Z</time>
      </trkpt>
      <trkpt lat="4.2055080" lon="-76.3115030">
        <ele>1349.6</ele>
        <time>2022-08-15T12:11:45Z</time>
      </trkpt>
      <trkpt lat="4.2054200" lon="-76.3112440">
        <ele>1348.6</ele>
        <time>2022-08-15T12:11:48Z</time>
      </trkpt>
      <trkpt lat="4.2053950" lon="-76.3111680">
        <ele>1348.2</ele>
        <time>2022-08-15T12:11:49Z</time>
      </trkpt>
      <trkpt lat="4.2053210" lon="-76.3109490">
        <ele>1347.2</ele>
        <time>2022-08-15T12:11:51Z</time>
      </trkpt>
      <trkpt lat="4.2052570" lon="-76.3107540">
        <ele>1346.0</ele>
        <time>2022-08-15T12:11:53Z</time>
      </trkpt>
      <trkpt lat="4.2052190" lon="-76.3106410">
        <ele>1345.0</ele>
        <time>2022-08-15T12:11:54Z</time>
      </trkpt>
      <trkpt lat="4.2051360" lon="-76.3103870">
        <ele>1344.2</ele>
        <time>2022-08-15T12:11:56Z</time>
      </trkpt>
      <trkpt lat="4.2050610" lon="-76.3101690">
        <ele>1342.4</ele>
        <time>2022-08-15T12:11:58Z</time>
      </trkpt>
      <trkpt lat="4.2050200" lon="-76.3100430">
        <ele>1341.4</ele>
        <time>2022-08-15T12:11:59Z</time>
      </trkpt>
      <trkpt lat="4.2049790" lon="-76.3099120">
        <ele>1340.2</ele>
        <time>2022-08-15T12:12:00Z</time>
      </trkpt>
      <trkpt lat="4.2049310" lon="-76.3097590">
        <ele>1339.0</ele>
        <time>2022-08-15T12:12:01Z</time>
      </trkpt>
      <trkpt lat="4.2048900" lon="-76.3096370">
        <ele>1337.8</ele>
        <time>2022-08-15T12:12:02Z</time>
      </trkpt>
      <trkpt lat="4.2048470" lon="-76.3095200">
        <ele>1336.8</ele>
        <time>2022-08-15T12:12:03Z</time>
      </trkpt>
      <trkpt lat="4.2048050" lon="-76.3094020">
        <ele>1335.6</ele>
        <time>2022-08-15T12:12:04Z</time>
      </trkpt>
      <trkpt lat="4.2047590" lon="-76.3092860">
        <ele>1334.4</ele>
        <time>2022-08-15T12:12:05Z</time>
      </trkpt>
      <trkpt lat="4.2047130" lon="-76.3091760">
        <ele>1333.0</ele>
        <time>2022-08-15T12:12:06Z</time>
      </trkpt>
      <trkpt lat="4.2046190" lon="-76.3089750">
        <ele>1331.0</ele>
        <time>2022-08-15T12:12:08Z</time>
      </trkpt>
      <trkpt lat="4.2045780" lon="-76.3088810">
        <ele>1330.0</ele>
        <time>2022-08-15T12:12:09Z</time>
      </trkpt>
      <trkpt lat="4.2045460" lon="-76.3087900">
        <ele>1329.2</ele>
        <time>2022-08-15T12:12:10Z</time>
      </trkpt>
      <trkpt lat="4.2045200" lon="-76.3087030">
        <ele>1328.2</ele>
        <time>2022-08-15T12:12:11Z</time>
      </trkpt>
      <trkpt lat="4.2044840" lon="-76.3086260">
        <ele>1327.2</ele>
        <time>2022-08-15T12:12:12Z</time>
      </trkpt>
      <trkpt lat="4.2044420" lon="-76.3085630">
        <ele>1326.0</ele>
        <time>2022-08-15T12:12:13Z</time>
      </trkpt>
      <trkpt lat="4.2043880" lon="-76.3085110">
        <ele>1324.8</ele>
        <time>2022-08-15T12:12:14Z</time>
      </trkpt>
      <trkpt lat="4.2042320" lon="-76.3084580">
        <ele>1323.6</ele>
        <time>2022-08-15T12:12:16Z</time>
      </trkpt>
      <trkpt lat="4.2040290" lon="-76.3085050">
        <ele>1322.4</ele>
        <time>2022-08-15T12:12:18Z</time>
      </trkpt>
      <trkpt lat="4.2039200" lon="-76.3085380">
        <ele>1322.4</ele>
        <time>2022-08-15T12:12:19Z</time>
      </trkpt>
      <trkpt lat="4.2035760" lon="-76.3086450">
        <ele>1320.8</ele>
        <time>2022-08-15T12:12:22Z</time>
      </trkpt>
      <trkpt lat="4.2033360" lon="-76.3087230">
        <ele>1318.8</ele>
        <time>2022-08-15T12:12:24Z</time>
      </trkpt>
      <trkpt lat="4.2032130" lon="-76.3087570">
        <ele>1317.6</ele>
        <time>2022-08-15T12:12:25Z</time>
      </trkpt>
      <trkpt lat="4.2030910" lon="-76.3087950">
        <ele>1316.6</ele>
        <time>2022-08-15T12:12:26Z</time>
      </trkpt>
      <trkpt lat="4.2029730" lon="-76.3088330">
        <ele>1315.4</ele>
        <time>2022-08-15T12:12:27Z</time>
      </trkpt>
      <trkpt lat="4.2028610" lon="-76.3088670">
        <ele>1314.4</ele>
        <time>2022-08-15T12:12:28Z</time>
      </trkpt>
      <trkpt lat="4.2027580" lon="-76.3089050">
        <ele>1313.4</ele>
        <time>2022-08-15T12:12:29Z</time>
      </trkpt>
      <trkpt lat="4.2026630" lon="-76.3089530">
        <ele>1312.4</ele>
        <time>2022-08-15T12:12:30Z</time>
      </trkpt>
      <trkpt lat="4.2025820" lon="-76.3090090">
        <ele>1311.4</ele>
        <time>2022-08-15T12:12:31Z</time>
      </trkpt>
      <trkpt lat="4.2025060" lon="-76.3090670">
        <ele>1310.0</ele>
        <time>2022-08-15T12:12:32Z</time>
      </trkpt>
      <trkpt lat="4.2024370" lon="-76.3091220">
        <ele>1308.8</ele>
        <time>2022-08-15T12:12:33Z</time>
      </trkpt>
      <trkpt lat="4.2023710" lon="-76.3091650">
        <ele>1307.4</ele>
        <time>2022-08-15T12:12:34Z</time>
      </trkpt>
      <trkpt lat="4.2022370" lon="-76.3091890">
        <ele>1305.8</ele>
        <time>2022-08-15T12:12:36Z</time>
      </trkpt>
      <trkpt lat="4.2021020" lon="-76.3091300">
        <ele>1304.2</ele>
        <time>2022-08-15T12:12:38Z</time>
      </trkpt>
      <trkpt lat="4.2020490" lon="-76.3090650">
        <ele>1303.4</ele>
        <time>2022-08-15T12:12:39Z</time>
      </trkpt>
      <trkpt lat="4.2020070" lon="-76.3089890">
        <ele>1302.4</ele>
        <time>2022-08-15T12:12:40Z</time>
      </trkpt>
      <trkpt lat="4.2019280" lon="-76.3088110">
        <ele>1300.4</ele>
        <time>2022-08-15T12:12:42Z</time>
      </trkpt>
      <trkpt lat="4.2018150" lon="-76.3086410">
        <ele>1299.8</ele>
        <time>2022-08-15T12:12:44Z</time>
      </trkpt>
      <trkpt lat="4.2017410" lon="-76.3085700">
        <ele>1299.0</ele>
        <time>2022-08-15T12:12:45Z</time>
      </trkpt>
      <trkpt lat="4.2016570" lon="-76.3085140">
        <ele>1298.2</ele>
        <time>2022-08-15T12:12:46Z</time>
      </trkpt>
      <trkpt lat="4.2015670" lon="-76.3084610">
        <ele>1297.2</ele>
        <time>2022-08-15T12:12:47Z</time>
      </trkpt>
      <trkpt lat="4.2014890" lon="-76.3083910">
        <ele>1296.0</ele>
        <time>2022-08-15T12:12:48Z</time>
      </trkpt>
      <trkpt lat="4.2014250" lon="-76.3083170">
        <ele>1294.6</ele>
        <time>2022-08-15T12:12:49Z</time>
      </trkpt>
      <trkpt lat="4.2013750" lon="-76.3082350">
        <ele>1293.2</ele>
        <time>2022-08-15T12:12:50Z</time>
      </trkpt>
      <trkpt lat="4.2013250" lon="-76.3081490">
        <ele>1291.8</ele>
        <time>2022-08-15T12:12:51Z</time>
      </trkpt>
      <trkpt lat="4.2012660" lon="-76.3080670">
        <ele>1290.6</ele>
        <time>2022-08-15T12:12:52Z</time>
      </trkpt>
      <trkpt lat="4.2011890" lon="-76.3079990">
        <ele>1288.8</ele>
        <time>2022-08-15T12:12:53Z</time>
      </trkpt>
      <trkpt lat="4.2010960" lon="-76.3079430">
        <ele>1287.2</ele>
        <time>2022-08-15T12:12:54Z</time>
      </trkpt>
      <trkpt lat="4.2009880" lon="-76.3078880">
        <ele>1285.8</ele>
        <time>2022-08-15T12:12:55Z</time>
      </trkpt>
      <trkpt lat="4.2008710" lon="-76.3078370">
        <ele>1284.8</ele>
        <time>2022-08-15T12:12:56Z</time>
      </trkpt>
      <trkpt lat="4.2006190" lon="-76.3077500">
        <ele>1283.0</ele>
        <time>2022-08-15T12:12:58Z</time>
      </trkpt>
      <trkpt lat="4.2004950" lon="-76.3077270">
        <ele>1281.8</ele>
        <time>2022-08-15T12:12:59Z</time>
      </trkpt>
      <trkpt lat="4.2002620" lon="-76.3077340">
        <ele>1279.4</ele>
        <time>2022-08-15T12:13:01Z</time>
      </trkpt>
      <trkpt lat="4.2001540" lon="-76.3077470">
        <ele>1277.4</ele>
        <time>2022-08-15T12:13:02Z</time>
      </trkpt>
      <trkpt lat="4.2000550" lon="-76.3077580">
        <ele>1275.4</ele>
        <time>2022-08-15T12:13:03Z</time>
      </trkpt>
      <trkpt lat="4.1999630" lon="-76.3077620">
        <ele>1273.6</ele>
        <time>2022-08-15T12:13:04Z</time>
      </trkpt>
      <trkpt lat="4.1998810" lon="-76.3077480">
        <ele>1271.6</ele>
        <time>2022-08-15T12:13:05Z</time>
      </trkpt>
      <trkpt lat="4.1998070" lon="-76.3077150">
        <ele>1270.0</ele>
        <time>2022-08-15T12:13:06Z</time>
      </trkpt>
      <trkpt lat="4.1997090" lon="-76.3075770">
        <ele>1269.0</ele>
        <time>2022-08-15T12:13:08Z</time>
      </trkpt>
      <trkpt lat="4.1996870" lon="-76.3074940">
        <ele>1267.8</ele>
        <time>2022-08-15T12:13:09Z</time>
      </trkpt>
      <trkpt lat="4.1996710" lon="-76.3074030">
        <ele>1266.6</ele>
        <time>2022-08-15T12:13:10Z</time>
      </trkpt>
      <trkpt lat="4.1996570" lon="-76.3073000">
        <ele>1265.4</ele>
        <time>2022-08-15T12:13:11Z</time>
      </trkpt>
      <trkpt lat="4.1996280" lon="-76.3070920">
        <ele>1263.8</ele>
        <time>2022-08-15T12:13:13Z</time>
      </trkpt>
      <trkpt lat="4.1995970" lon="-76.3069990">
        <ele>1263.0</ele>
        <time>2022-08-15T12:13:14Z</time>
      </trkpt>
      <trkpt lat="4.1995480" lon="-76.3069250">
        <ele>1262.0</ele>
        <time>2022-08-15T12:13:15Z</time>
      </trkpt>
      <trkpt lat="4.1994730" lon="-76.3068720">
        <ele>1260.8</ele>
        <time>2022-08-15T12:13:16Z</time>
      </trkpt>
      <trkpt lat="4.1993750" lon="-76.3068350">
        <ele>1259.4</ele>
        <time>2022-08-15T12:13:17Z</time>
      </trkpt>
      <trkpt lat="4.1992660" lon="-76.3067990">
        <ele>1258.2</ele>
        <time>2022-08-15T12:13:18Z</time>
      </trkpt>
      <trkpt lat="4.1991570" lon="-76.3067540">
        <ele>1256.8</ele>
        <time>2022-08-15T12:13:19Z</time>
      </trkpt>
      <trkpt lat="4.1990510" lon="-76.3066950">
        <ele>1255.4</ele>
        <time>2022-08-15T12:13:20Z</time>
      </trkpt>
      <trkpt lat="4.1988390" lon="-76.3065370">
        <ele>1253.8</ele>
        <time>2022-08-15T12:13:22Z</time>
      </trkpt>
      <trkpt lat="4.1987410" lon="-76.3064480">
        <ele>1252.6</ele>
        <time>2022-08-15T12:13:23Z</time>
      </trkpt>
      <trkpt lat="4.1986530" lon="-76.3063530">
        <ele>1251.2</ele>
        <time>2022-08-15T12:13:24Z</time>
      </trkpt>
      <trkpt lat="4.1985860" lon="-76.3062510">
        <ele>1249.4</ele>
        <time>2022-08-15T12:13:25Z</time>
      </trkpt>
      <trkpt lat="4.1985460" lon="-76.3061380">
        <ele>1247.8</ele>
        <time>2022-08-15T12:13:26Z</time>
      </trkpt>
      <trkpt lat="4.1985350" lon="-76.3060210">
        <ele>1246.4</ele>
        <time>2022-08-15T12:13:27Z</time>
      </trkpt>
      <trkpt lat="4.1985480" lon="-76.3058970">
        <ele>1244.6</ele>
        <time>2022-08-15T12:13:28Z</time>
      </trkpt>
      <trkpt lat="4.1985520" lon="-76.3057660">
        <ele>1242.8</ele>
        <time>2022-08-15T12:13:29Z</time>
      </trkpt>
      <trkpt lat="4.1985520" lon="-76.3055360">
        <ele>1240.8</ele>
        <time>2022-08-15T12:13:31Z</time>
      </trkpt>
      <trkpt lat="4.1985610" lon="-76.3054390">
        <ele>1239.2</ele>
        <time>2022-08-15T12:13:32Z</time>
      </trkpt>
      <trkpt lat="4.1985710" lon="-76.3053500">
        <ele>1238.2</ele>
        <time>2022-08-15T12:13:33Z</time>
      </trkpt>
      <trkpt lat="4.1985930" lon="-76.3052660">
        <ele>1237.2</ele>
        <time>2022-08-15T12:13:34Z</time>
      </trkpt>
      <trkpt lat="4.1986330" lon="-76.3051920">
        <ele>1236.4</ele>
        <time>2022-08-15T12:13:35Z</time>
      </trkpt>
      <trkpt lat="4.1986780" lon="-76.3051150">
        <ele>1235.6</ele>
        <time>2022-08-15T12:13:36Z</time>
      </trkpt>
      <trkpt lat="4.1987280" lon="-76.3050380">
        <ele>1235.0</ele>
        <time>2022-08-15T12:13:37Z</time>
      </trkpt>
      <trkpt lat="4.1987820" lon="-76.3049600">
        <ele>1234.6</ele>
        <time>2022-08-15T12:13:38Z</time>
      </trkpt>
      <trkpt lat="4.1988330" lon="-76.3048800">
        <ele>1234.4</ele>
        <time>2022-08-15T12:13:39Z</time>
      </trkpt>
      <trkpt lat="4.1988700" lon="-76.3048130">
        <ele>1234.2</ele>
        <time>2022-08-15T12:13:40Z</time>
      </trkpt>
      <trkpt lat="4.1989290" lon="-76.3046230">
        <ele>1234.0</ele>
        <time>2022-08-15T12:13:42Z</time>
      </trkpt>
      <trkpt lat="4.1989280" lon="-76.3045400">
        <ele>1234.0</ele>
        <time>2022-08-15T12:13:43Z</time>
      </trkpt>
      <trkpt lat="4.1989070" lon="-76.3044650">
        <ele>1233.8</ele>
        <time>2022-08-15T12:13:44Z</time>
      </trkpt>
      <trkpt lat="4.1988680" lon="-76.3044040">
        <ele>1233.2</ele>
        <time>2022-08-15T12:13:45Z</time>
      </trkpt>
      <trkpt lat="4.1988260" lon="-76.3043750">
        <ele>1232.6</ele>
        <time>2022-08-15T12:13:46Z</time>
      </trkpt>
      <trkpt lat="4.1987460" lon="-76.3043540">
        <ele>1232.2</ele>
        <time>2022-08-15T12:13:47Z</time>
      </trkpt>
      <trkpt lat="4.1986720" lon="-76.3043720">
        <ele>1232.0</ele>
        <time>2022-08-15T12:13:48Z</time>
      </trkpt>
      <trkpt lat="4.1986020" lon="-76.3044300">
        <ele>1231.6</ele>
        <time>2022-08-15T12:13:49Z</time>
      </trkpt>
      <trkpt lat="4.1985460" lon="-76.3045090">
        <ele>1231.2</ele>
        <time>2022-08-15T12:13:50Z</time>
      </trkpt>
      <trkpt lat="4.1984560" lon="-76.3046970">
        <ele>1230.2</ele>
        <time>2022-08-15T12:13:52Z</time>
      </trkpt>
      <trkpt lat="4.1983750" lon="-76.3049080">
        <ele>1230.0</ele>
        <time>2022-08-15T12:13:54Z</time>
      </trkpt>
      <trkpt lat="4.1983470" lon="-76.3050170">
        <ele>1229.2</ele>
        <time>2022-08-15T12:13:55Z</time>
      </trkpt>
      <trkpt lat="4.1983260" lon="-76.3051280">
        <ele>1228.4</ele>
        <time>2022-08-15T12:13:56Z</time>
      </trkpt>
      <trkpt lat="4.1983050" lon="-76.3052400">
        <ele>1228.0</ele>
        <time>2022-08-15T12:13:57Z</time>
      </trkpt>
      <trkpt lat="4.1982700" lon="-76.3054710">
        <ele>1226.2</ele>
        <time>2022-08-15T12:13:59Z</time>
      </trkpt>
      <trkpt lat="4.1982400" lon="-76.3056850">
        <ele>1224.4</ele>
        <time>2022-08-15T12:14:01Z</time>
      </trkpt>
      <trkpt lat="4.1982270" lon="-76.3057840">
        <ele>1223.6</ele>
        <time>2022-08-15T12:14:02Z</time>
      </trkpt>
      <trkpt lat="4.1982110" lon="-76.3058820">
        <ele>1223.0</ele>
        <time>2022-08-15T12:14:03Z</time>
      </trkpt>
      <trkpt lat="4.1981860" lon="-76.3059770">
        <ele>1222.2</ele>
        <time>2022-08-15T12:14:04Z</time>
      </trkpt>
      <trkpt lat="4.1981450" lon="-76.3060690">
        <ele>1221.4</ele>
        <time>2022-08-15T12:14:05Z</time>
      </trkpt>
      <trkpt lat="4.1980840" lon="-76.3061550">
        <ele>1220.4</ele>
        <time>2022-08-15T12:14:06Z</time>
      </trkpt>
      <trkpt lat="4.1980070" lon="-76.3062360">
        <ele>1219.8</ele>
        <time>2022-08-15T12:14:07Z</time>
      </trkpt>
      <trkpt lat="4.1978390" lon="-76.3063620">
        <ele>1218.6</ele>
        <time>2022-08-15T12:14:09Z</time>
      </trkpt>
      <trkpt lat="4.1975420" lon="-76.3064870">
        <ele>1217.2</ele>
        <time>2022-08-15T12:14:12Z</time>
      </trkpt>
      <trkpt lat="4.1974410" lon="-76.3065260">
        <ele>1216.4</ele>
        <time>2022-08-15T12:14:13Z</time>
      </trkpt>
      <trkpt lat="4.1973450" lon="-76.3065660">
        <ele>1215.8</ele>
        <time>2022-08-15T12:14:14Z</time>
      </trkpt>
      <trkpt lat="4.1972540" lon="-76.3066110">
        <ele>1214.8</ele>
        <time>2022-08-15T12:14:15Z</time>
      </trkpt>
      <trkpt lat="4.1971690" lon="-76.3066690">
        <ele>1214.0</ele>
        <time>2022-08-15T12:14:16Z</time>
      </trkpt>
      <trkpt lat="4.1970900" lon="-76.3067370">
        <ele>1214.0</ele>
        <time>2022-08-15T12:14:17Z</time>
      </trkpt>
      <trkpt lat="4.1970190" lon="-76.3068100">
        <ele>1213.0</ele>
        <time>2022-08-15T12:14:18Z</time>
      </trkpt>
      <trkpt lat="4.1969000" lon="-76.3069550">
        <ele>1211.2</ele>
        <time>2022-08-15T12:14:20Z</time>
      </trkpt>
      <trkpt lat="4.1968390" lon="-76.3070170">
        <ele>1210.2</ele>
        <time>2022-08-15T12:14:21Z</time>
      </trkpt>
      <trkpt lat="4.1967710" lon="-76.3070670">
        <ele>1209.4</ele>
        <time>2022-08-15T12:14:22Z</time>
      </trkpt>
      <trkpt lat="4.1966980" lon="-76.3071020">
        <ele>1208.6</ele>
        <time>2022-08-15T12:14:23Z</time>
      </trkpt>
      <trkpt lat="4.1966260" lon="-76.3071160">
        <ele>1208.0</ele>
        <time>2022-08-15T12:14:24Z</time>
      </trkpt>
      <trkpt lat="4.1965600" lon="-76.3071120">
        <ele>1206.8</ele>
        <time>2022-08-15T12:14:25Z</time>
      </trkpt>
      <trkpt lat="4.1964970" lon="-76.3070890">
        <ele>1205.8</ele>
        <time>2022-08-15T12:14:26Z</time>
      </trkpt>
      <trkpt lat="4.1964420" lon="-76.3070470">
        <ele>1204.8</ele>
        <time>2022-08-15T12:14:27Z</time>
      </trkpt>
      <trkpt lat="4.1963630" lon="-76.3069180">
        <ele>1203.2</ele>
        <time>2022-08-15T12:14:29Z</time>
      </trkpt>
      <trkpt lat="4.1963430" lon="-76.3068330">
        <ele>1202.4</ele>
        <time>2022-08-15T12:14:30Z</time>
      </trkpt>
      <trkpt lat="4.1963420" lon="-76.3067320">
        <ele>1201.8</ele>
        <time>2022-08-15T12:14:31Z</time>
      </trkpt>
      <trkpt lat="4.1963390" lon="-76.3065070">
        <ele>1200.8</ele>
        <time>2022-08-15T12:14:33Z</time>
      </trkpt>
      <trkpt lat="4.1963560" lon="-76.3062400">
        <ele>1199.6</ele>
        <time>2022-08-15T12:14:35Z</time>
      </trkpt>
      <trkpt lat="4.1963940" lon="-76.3059540">
        <ele>1197.6</ele>
        <time>2022-08-15T12:14:37Z</time>
      </trkpt>
      <trkpt lat="4.1963990" lon="-76.3058120">
        <ele>1196.6</ele>
        <time>2022-08-15T12:14:38Z</time>
      </trkpt>
      <trkpt lat="4.1963940" lon="-76.3056780">
        <ele>1195.4</ele>
        <time>2022-08-15T12:14:39Z</time>
      </trkpt>
      <trkpt lat="4.1963830" lon="-76.3055530">
        <ele>1194.0</ele>
        <time>2022-08-15T12:14:40Z</time>
      </trkpt>
      <trkpt lat="4.1963600" lon="-76.3053300">
        <ele>1192.4</ele>
        <time>2022-08-15T12:14:42Z</time>
      </trkpt>
      <trkpt lat="4.1963230" lon="-76.3052410">
        <ele>1190.8</ele>
        <time>2022-08-15T12:14:43Z</time>
      </trkpt>
      <trkpt lat="4.1962750" lon="-76.3051670">
        <ele>1189.0</ele>
        <time>2022-08-15T12:14:44Z</time>
      </trkpt>
      <trkpt lat="4.1962060" lon="-76.3051090">
        <ele>1186.8</ele>
        <time>2022-08-15T12:14:45Z</time>
      </trkpt>
      <trkpt lat="4.1961410" lon="-76.3050540">
        <ele>1184.8</ele>
        <time>2022-08-15T12:14:46Z</time>
      </trkpt>
      <trkpt lat="4.1960910" lon="-76.3049890">
        <ele>1183.2</ele>
        <time>2022-08-15T12:14:47Z</time>
      </trkpt>
      <trkpt lat="4.1960540" lon="-76.3049180">
        <ele>1181.4</ele>
        <time>2022-08-15T12:14:48Z</time>
      </trkpt>
      <trkpt lat="4.1960290" lon="-76.3048460">
        <ele>1179.8</ele>
        <time>2022-08-15T12:14:49Z</time>
      </trkpt>
      <trkpt lat="4.1960720" lon="-76.3047010">
        <ele>1177.8</ele>
        <time>2022-08-15T12:14:51Z</time>
      </trkpt>
      <trkpt lat="4.1961210" lon="-76.3046340">
        <ele>1176.8</ele>
        <time>2022-08-15T12:14:52Z</time>
      </trkpt>
      <trkpt lat="4.1961650" lon="-76.3045590">
        <ele>1175.8</ele>
        <time>2022-08-15T12:14:53Z</time>
      </trkpt>
      <trkpt lat="4.1961920" lon="-76.3044780">
        <ele>1174.8</ele>
        <time>2022-08-15T12:14:54Z</time>
      </trkpt>
      <trkpt lat="4.1961950" lon="-76.3043970">
        <ele>1173.8</ele>
        <time>2022-08-15T12:14:55Z</time>
      </trkpt>
      <trkpt lat="4.1961600" lon="-76.3043200">
        <ele>1172.6</ele>
        <time>2022-08-15T12:14:56Z</time>
      </trkpt>
      <trkpt lat="4.1960950" lon="-76.3042500">
        <ele>1171.6</ele>
        <time>2022-08-15T12:14:57Z</time>
      </trkpt>
      <trkpt lat="4.1960310" lon="-76.3041860">
        <ele>1170.4</ele>
        <time>2022-08-15T12:14:58Z</time>
      </trkpt>
      <trkpt lat="4.1959780" lon="-76.3041190">
        <ele>1169.0</ele>
        <time>2022-08-15T12:14:59Z</time>
      </trkpt>
      <trkpt lat="4.1959320" lon="-76.3040460">
        <ele>1167.4</ele>
        <time>2022-08-15T12:15:00Z</time>
      </trkpt>
      <trkpt lat="4.1959030" lon="-76.3039610">
        <ele>1166.4</ele>
        <time>2022-08-15T12:15:01Z</time>
      </trkpt>
      <trkpt lat="4.1959090" lon="-76.3038700">
        <ele>1165.2</ele>
        <time>2022-08-15T12:15:02Z</time>
      </trkpt>
      <trkpt lat="4.1959450" lon="-76.3037780">
        <ele>1164.0</ele>
        <time>2022-08-15T12:15:03Z</time>
      </trkpt>
      <trkpt lat="4.1960310" lon="-76.3035750">
        <ele>1162.4</ele>
        <time>2022-08-15T12:15:05Z</time>
      </trkpt>
      <trkpt lat="4.1960490" lon="-76.3034740">
        <ele>1160.8</ele>
        <time>2022-08-15T12:15:06Z</time>
      </trkpt>
      <trkpt lat="4.1960410" lon="-76.3033740">
        <ele>1159.2</ele>
        <time>2022-08-15T12:15:07Z</time>
      </trkpt>
      <trkpt lat="4.1960100" lon="-76.3032750">
        <ele>1158.2</ele>
        <time>2022-08-15T12:15:08Z</time>
      </trkpt>
      <trkpt lat="4.1959490" lon="-76.3031870">
        <ele>1157.2</ele>
        <time>2022-08-15T12:15:09Z</time>
      </trkpt>
      <trkpt lat="4.1958690" lon="-76.3031090">
        <ele>1156.4</ele>
        <time>2022-08-15T12:15:10Z</time>
      </trkpt>
      <trkpt lat="4.1957770" lon="-76.3030360">
        <ele>1155.0</ele>
        <time>2022-08-15T12:15:11Z</time>
      </trkpt>
      <trkpt lat="4.1956750" lon="-76.3029620">
        <ele>1153.4</ele>
        <time>2022-08-15T12:15:12Z</time>
      </trkpt>
      <trkpt lat="4.1955710" lon="-76.3028880">
        <ele>1151.6</ele>
        <time>2022-08-15T12:15:13Z</time>
      </trkpt>
      <trkpt lat="4.1954620" lon="-76.3028160">
        <ele>1149.8</ele>
        <time>2022-08-15T12:15:14Z</time>
      </trkpt>
      <trkpt lat="4.1953440" lon="-76.3027520">
        <ele>1148.2</ele>
        <time>2022-08-15T12:15:15Z</time>
      </trkpt>
      <trkpt lat="4.1952210" lon="-76.3027050">
        <ele>1146.8</ele>
        <time>2022-08-15T12:15:16Z</time>
      </trkpt>
      <trkpt lat="4.1950990" lon="-76.3026660">
        <ele>1145.2</ele>
        <time>2022-08-15T12:15:17Z</time>
      </trkpt>
      <trkpt lat="4.1949820" lon="-76.3026330">
        <ele>1143.4</ele>
        <time>2022-08-15T12:15:18Z</time>
      </trkpt>
      <trkpt lat="4.1948720" lon="-76.3026070">
        <ele>1141.6</ele>
        <time>2022-08-15T12:15:19Z</time>
      </trkpt>
      <trkpt lat="4.1947670" lon="-76.3025870">
        <ele>1139.8</ele>
        <time>2022-08-15T12:15:20Z</time>
      </trkpt>
      <trkpt lat="4.1946640" lon="-76.3025780">
        <ele>1137.6</ele>
        <time>2022-08-15T12:15:21Z</time>
      </trkpt>
      <trkpt lat="4.1945600" lon="-76.3025880">
        <ele>1136.0</ele>
        <time>2022-08-15T12:15:22Z</time>
      </trkpt>
      <trkpt lat="4.1944590" lon="-76.3026220">
        <ele>1134.2</ele>
        <time>2022-08-15T12:15:23Z</time>
      </trkpt>
      <trkpt lat="4.1943650" lon="-76.3026810">
        <ele>1132.6</ele>
        <time>2022-08-15T12:15:24Z</time>
      </trkpt>
      <trkpt lat="4.1942740" lon="-76.3027520">
        <ele>1131.0</ele>
        <time>2022-08-15T12:15:25Z</time>
      </trkpt>
      <trkpt lat="4.1941820" lon="-76.3028300">
        <ele>1129.6</ele>
        <time>2022-08-15T12:15:26Z</time>
      </trkpt>
      <trkpt lat="4.1940090" lon="-76.3029650">
        <ele>1128.4</ele>
        <time>2022-08-15T12:15:28Z</time>
      </trkpt>
      <trkpt lat="4.1939300" lon="-76.3030150">
        <ele>1127.4</ele>
        <time>2022-08-15T12:15:29Z</time>
      </trkpt>
      <trkpt lat="4.1938580" lon="-76.3030560">
        <ele>1126.4</ele>
        <time>2022-08-15T12:15:30Z</time>
      </trkpt>
      <trkpt lat="4.1937850" lon="-76.3030700">
        <ele>1125.4</ele>
        <time>2022-08-15T12:15:31Z</time>
      </trkpt>
      <trkpt lat="4.1937170" lon="-76.3030520">
        <ele>1124.2</ele>
        <time>2022-08-15T12:15:32Z</time>
      </trkpt>
      <trkpt lat="4.1936580" lon="-76.3030050">
        <ele>1122.4</ele>
        <time>2022-08-15T12:15:33Z</time>
      </trkpt>
      <trkpt lat="4.1936080" lon="-76.3029340">
        <ele>1120.4</ele>
        <time>2022-08-15T12:15:34Z</time>
      </trkpt>
      <trkpt lat="4.1935630" lon="-76.3028450">
        <ele>1119.0</ele>
        <time>2022-08-15T12:15:35Z</time>
      </trkpt>
      <trkpt lat="4.1935190" lon="-76.3027470">
        <ele>1117.6</ele>
        <time>2022-08-15T12:15:36Z</time>
      </trkpt>
      <trkpt lat="4.1934680" lon="-76.3026530">
        <ele>1117.2</ele>
        <time>2022-08-15T12:15:37Z</time>
      </trkpt>
      <trkpt lat="4.1934030" lon="-76.3025720">
        <ele>1116.8</ele>
        <time>2022-08-15T12:15:38Z</time>
      </trkpt>
      <trkpt lat="4.1933210" lon="-76.3025060">
        <ele>1116.4</ele>
        <time>2022-08-15T12:15:39Z</time>
      </trkpt>
      <trkpt lat="4.1932280" lon="-76.3024490">
        <ele>1115.6</ele>
        <time>2022-08-15T12:15:40Z</time>
      </trkpt>
      <trkpt lat="4.1931370" lon="-76.3023860">
        <ele>1114.8</ele>
        <time>2022-08-15T12:15:41Z</time>
      </trkpt>
      <trkpt lat="4.1930540" lon="-76.3023060">
        <ele>1113.6</ele>
        <time>2022-08-15T12:15:42Z</time>
      </trkpt>
      <trkpt lat="4.1929770" lon="-76.3022160">
        <ele>1112.2</ele>
        <time>2022-08-15T12:15:43Z</time>
      </trkpt>
      <trkpt lat="4.1929210" lon="-76.3021300">
        <ele>1110.6</ele>
        <time>2022-08-15T12:15:44Z</time>
      </trkpt>
      <trkpt lat="4.1928840" lon="-76.3020350">
        <ele>1109.0</ele>
        <time>2022-08-15T12:15:45Z</time>
      </trkpt>
      <trkpt lat="4.1928630" lon="-76.3019370">
        <ele>1107.4</ele>
        <time>2022-08-15T12:15:46Z</time>
      </trkpt>
      <trkpt lat="4.1928420" lon="-76.3018400">
        <ele>1105.8</ele>
        <time>2022-08-15T12:15:47Z</time>
      </trkpt>
      <trkpt lat="4.1928080" lon="-76.3017510">
        <ele>1104.4</ele>
        <time>2022-08-15T12:15:48Z</time>
      </trkpt>
      <trkpt lat="4.1927660" lon="-76.3016870">
        <ele>1103.4</ele>
        <time>2022-08-15T12:15:49Z</time>
      </trkpt>
      <trkpt lat="4.1926990" lon="-76.3016190">
        <ele>1102.4</ele>
        <time>2022-08-15T12:15:50Z</time>
      </trkpt>
      <trkpt lat="4.1926170" lon="-76.3015670">
        <ele>1102.4</ele>
        <time>2022-08-15T12:15:51Z</time>
      </trkpt>
      <trkpt lat="4.1925010" lon="-76.3015370">
        <ele>1101.2</ele>
        <time>2022-08-15T12:15:52Z</time>
      </trkpt>
      <trkpt lat="4.1923980" lon="-76.3015410">
        <ele>1100.4</ele>
        <time>2022-08-15T12:15:53Z</time>
      </trkpt>
      <trkpt lat="4.1922920" lon="-76.3015700">
        <ele>1099.4</ele>
        <time>2022-08-15T12:15:54Z</time>
      </trkpt>
      <trkpt lat="4.1921900" lon="-76.3016280">
        <ele>1098.4</ele>
        <time>2022-08-15T12:15:55Z</time>
      </trkpt>
      <trkpt lat="4.1920910" lon="-76.3017050">
        <ele>1097.6</ele>
        <time>2022-08-15T12:15:56Z</time>
      </trkpt>
      <trkpt lat="4.1919950" lon="-76.3017920">
        <ele>1096.8</ele>
        <time>2022-08-15T12:15:57Z</time>
      </trkpt>
      <trkpt lat="4.1918010" lon="-76.3019810">
        <ele>1094.6</ele>
        <time>2022-08-15T12:15:59Z</time>
      </trkpt>
      <trkpt lat="4.1917230" lon="-76.3020530">
        <ele>1093.4</ele>
        <time>2022-08-15T12:16:00Z</time>
      </trkpt>
      <trkpt lat="4.1916250" lon="-76.3021370">
        <ele>1092.2</ele>
        <time>2022-08-15T12:16:01Z</time>
      </trkpt>
      <trkpt lat="4.1915040" lon="-76.3022230">
        <ele>1090.6</ele>
        <time>2022-08-15T12:16:02Z</time>
      </trkpt>
      <trkpt lat="4.1913930" lon="-76.3022650">
        <ele>1089.0</ele>
        <time>2022-08-15T12:16:03Z</time>
      </trkpt>
      <trkpt lat="4.1912760" lon="-76.3022890">
        <ele>1087.4</ele>
        <time>2022-08-15T12:16:04Z</time>
      </trkpt>
      <trkpt lat="4.1911510" lon="-76.3022950">
        <ele>1085.2</ele>
        <time>2022-08-15T12:16:05Z</time>
      </trkpt>
      <trkpt lat="4.1910220" lon="-76.3023000">
        <ele>1083.6</ele>
        <time>2022-08-15T12:16:06Z</time>
      </trkpt>
      <trkpt lat="4.1908910" lon="-76.3023080">
        <ele>1081.8</ele>
        <time>2022-08-15T12:16:07Z</time>
      </trkpt>
      <trkpt lat="4.1907590" lon="-76.3023240">
        <ele>1080.0</ele>
        <time>2022-08-15T12:16:08Z</time>
      </trkpt>
      <trkpt lat="4.1906260" lon="-76.3023510">
        <ele>1078.4</ele>
        <time>2022-08-15T12:16:09Z</time>
      </trkpt>
      <trkpt lat="4.1904950" lon="-76.3023850">
        <ele>1077.0</ele>
        <time>2022-08-15T12:16:10Z</time>
      </trkpt>
      <trkpt lat="4.1903650" lon="-76.3024210">
        <ele>1076.0</ele>
        <time>2022-08-15T12:16:11Z</time>
      </trkpt>
      <trkpt lat="4.1902360" lon="-76.3024490">
        <ele>1075.0</ele>
        <time>2022-08-15T12:16:12Z</time>
      </trkpt>
      <trkpt lat="4.1901040" lon="-76.3024630">
        <ele>1073.8</ele>
        <time>2022-08-15T12:16:13Z</time>
      </trkpt>
      <trkpt lat="4.1899710" lon="-76.3024660">
        <ele>1073.8</ele>
        <time>2022-08-15T12:16:14Z</time>
      </trkpt>
      <trkpt lat="4.1898390" lon="-76.3024500">
        <ele>1072.6</ele>
        <time>2022-08-15T12:16:15Z</time>
      </trkpt>
      <trkpt lat="4.1897130" lon="-76.3024150">
        <ele>1071.6</ele>
        <time>2022-08-15T12:16:16Z</time>
      </trkpt>
      <trkpt lat="4.1895930" lon="-76.3023720">
        <ele>1070.6</ele>
        <time>2022-08-15T12:16:17Z</time>
      </trkpt>
      <trkpt lat="4.1894710" lon="-76.3023300">
        <ele>1069.4</ele>
        <time>2022-08-15T12:16:18Z</time>
      </trkpt>
      <trkpt lat="4.1893500" lon="-76.3022890">
        <ele>1068.0</ele>
        <time>2022-08-15T12:16:19Z</time>
      </trkpt>
      <trkpt lat="4.1892280" lon="-76.3022630">
        <ele>1066.8</ele>
        <time>2022-08-15T12:16:20Z</time>
      </trkpt>
      <trkpt lat="4.1891300" lon="-76.3022500">
        <ele>1066.0</ele>
        <time>2022-08-15T12:16:21Z</time>
      </trkpt>
      <trkpt lat="4.1889790" lon="-76.3022470">
        <ele>1065.2</ele>
        <time>2022-08-15T12:16:22Z</time>
      </trkpt>
      <trkpt lat="4.1887420" lon="-76.3022850">
        <ele>1063.2</ele>
        <time>2022-08-15T12:16:24Z</time>
      </trkpt>
      <trkpt lat="4.1885110" lon="-76.3023510">
        <ele>1061.8</ele>
        <time>2022-08-15T12:16:26Z</time>
      </trkpt>
      <trkpt lat="4.1881660" lon="-76.3024540">
        <ele>1060.6</ele>
        <time>2022-08-15T12:16:29Z</time>
      </trkpt>
      <trkpt lat="4.1878150" lon="-76.3025640">
        <ele>1059.2</ele>
        <time>2022-08-15T12:16:32Z</time>
      </trkpt>
      <trkpt lat="4.1874420" lon="-76.3026780">
        <ele>1057.8</ele>
        <time>2022-08-15T12:16:35Z</time>
      </trkpt>
      <trkpt lat="4.1873120" lon="-76.3027210">
        <ele>1057.4</ele>
        <time>2022-08-15T12:16:36Z</time>
      </trkpt>
      <trkpt lat="4.1871810" lon="-76.3027680">
        <ele>1056.6</ele>
        <time>2022-08-15T12:16:37Z</time>
      </trkpt>
      <trkpt lat="4.1867940" lon="-76.3029230">
        <ele>1055.0</ele>
        <time>2022-08-15T12:16:40Z</time>
      </trkpt>
      <trkpt lat="4.1865710" lon="-76.3030260">
        <ele>1053.2</ele>
        <time>2022-08-15T12:16:42Z</time>
      </trkpt>
      <trkpt lat="4.1864730" lon="-76.3030660">
        <ele>1052.2</ele>
        <time>2022-08-15T12:16:43Z</time>
      </trkpt>
      <trkpt lat="4.1863840" lon="-76.3030930">
        <ele>1050.8</ele>
        <time>2022-08-15T12:16:44Z</time>
      </trkpt>
      <trkpt lat="4.1863010" lon="-76.3031090">
        <ele>1049.4</ele>
        <time>2022-08-15T12:16:45Z</time>
      </trkpt>
      <trkpt lat="4.1862160" lon="-76.3031090">
        <ele>1047.8</ele>
        <time>2022-08-15T12:16:46Z</time>
      </trkpt>
      <trkpt lat="4.1861370" lon="-76.3030900">
        <ele>1046.4</ele>
        <time>2022-08-15T12:16:47Z</time>
      </trkpt>
      <trkpt lat="4.1860800" lon="-76.3030580">
        <ele>1044.8</ele>
        <time>2022-08-15T12:16:48Z</time>
      </trkpt>
      <trkpt lat="4.1860030" lon="-76.3029950">
        <ele>1043.6</ele>
        <time>2022-08-15T12:16:49Z</time>
      </trkpt>
      <trkpt lat="4.1858840" lon="-76.3028870">
        <ele>1042.2</ele>
        <time>2022-08-15T12:16:51Z</time>
      </trkpt>
      <trkpt lat="4.1858210" lon="-76.3028470">
        <ele>1041.8</ele>
        <time>2022-08-15T12:16:52Z</time>
      </trkpt>
      <trkpt lat="4.1857020" lon="-76.3028120">
        <ele>1040.8</ele>
        <time>2022-08-15T12:16:54Z</time>
      </trkpt>
      <trkpt lat="4.1856230" lon="-76.3028090">
        <ele>1040.6</ele>
        <time>2022-08-15T12:16:55Z</time>
      </trkpt>
      <trkpt lat="4.1855620" lon="-76.3028150">
        <ele>1040.6</ele>
        <time>2022-08-15T12:16:56Z</time>
      </trkpt>
      <trkpt lat="4.1854560" lon="-76.3028440">
        <ele>1040.6</ele>
        <time>2022-08-15T12:16:58Z</time>
      </trkpt>
      <trkpt lat="4.1854130" lon="-76.3028590">
        <ele>1040.6</ele>
        <time>2022-08-15T12:16:59Z</time>
      </trkpt>
      <trkpt lat="4.1852910" lon="-76.3029080">
        <ele>1040.6</ele>
        <time>2022-08-15T12:17:02Z</time>
      </trkpt>
      <trkpt lat="4.1851360" lon="-76.3029670">
        <ele>1041.2</ele>
        <time>2022-08-15T12:17:06Z</time>
      </trkpt>
      <trkpt lat="4.1850370" lon="-76.3030000">
        <ele>1042.6</ele>
        <time>2022-08-15T12:17:09Z</time>
      </trkpt>
      <trkpt lat="4.1849760" lon="-76.3030190">
        <ele>1043.4</ele>
        <time>2022-08-15T12:17:11Z</time>
      </trkpt>
      <trkpt lat="4.1849500" lon="-76.3030310">
        <ele>1043.8</ele>
        <time>2022-08-15T12:17:12Z</time>
      </trkpt>
      <trkpt lat="4.1848960" lon="-76.3030550">
        <ele>1044.8</ele>
        <time>2022-08-15T12:17:14Z</time>
      </trkpt>
      <trkpt lat="4.1848160" lon="-76.3030850">
        <ele>1046.0</ele>
        <time>2022-08-15T12:17:17Z</time>
      </trkpt>
      <trkpt lat="4.1847610" lon="-76.3031050">
        <ele>1046.8</ele>
        <time>2022-08-15T12:17:19Z</time>
      </trkpt>
      <trkpt lat="4.1847340" lon="-76.3031150">
        <ele>1047.0</ele>
        <time>2022-08-15T12:17:20Z</time>
      </trkpt>
      <trkpt lat="4.1845680" lon="-76.3031730">
        <ele>1048.2</ele>
        <time>2022-08-15T12:17:26Z</time>
      </trkpt>
      <trkpt lat="4.1843700" lon="-76.3032450">
        <ele>1049.6</ele>
        <time>2022-08-15T12:17:33Z</time>
      </trkpt>
      <trkpt lat="4.1842730" lon="-76.3032830">
        <ele>1049.6</ele>
        <time>2022-08-15T12:17:36Z</time>
      </trkpt>
      <trkpt lat="4.1840800" lon="-76.3033650">
        <ele>1049.8</ele>
        <time>2022-08-15T12:17:41Z</time>
      </trkpt>
      <trkpt lat="4.1840030" lon="-76.3033990">
        <ele>1049.8</ele>
        <time>2022-08-15T12:17:43Z</time>
      </trkpt>
      <trkpt lat="4.1838220" lon="-76.3035090">
        <ele>1049.8</ele>
        <time>2022-08-15T12:17:47Z</time>
      </trkpt>
      <trkpt lat="4.1837200" lon="-76.3035700">
        <ele>1049.8</ele>
        <time>2022-08-15T12:17:49Z</time>
      </trkpt>
      <trkpt lat="4.1835570" lon="-76.3037010">
        <ele>1049.8</ele>
        <time>2022-08-15T12:17:52Z</time>
      </trkpt>
      <trkpt lat="4.1832570" lon="-76.3039590">
        <ele>1048.4</ele>
        <time>2022-08-15T12:17:57Z</time>
      </trkpt>
      <trkpt lat="4.1830970" lon="-76.3040350">
        <ele>1047.6</ele>
        <time>2022-08-15T12:17:59Z</time>
      </trkpt>
      <trkpt lat="4.1830050" lon="-76.3040480">
        <ele>1047.2</ele>
        <time>2022-08-15T12:18:00Z</time>
      </trkpt>
      <trkpt lat="4.1829060" lon="-76.3040480">
        <ele>1046.8</ele>
        <time>2022-08-15T12:18:01Z</time>
      </trkpt>
      <trkpt lat="4.1827030" lon="-76.3039900">
        <ele>1045.6</ele>
        <time>2022-08-15T12:18:03Z</time>
      </trkpt>
      <trkpt lat="4.1825060" lon="-76.3038810">
        <ele>1044.0</ele>
        <time>2022-08-15T12:18:05Z</time>
      </trkpt>
      <trkpt lat="4.1823110" lon="-76.3037640">
        <ele>1043.0</ele>
        <time>2022-08-15T12:18:07Z</time>
      </trkpt>
      <trkpt lat="4.1821090" lon="-76.3036480">
        <ele>1041.2</ele>
        <time>2022-08-15T12:18:09Z</time>
      </trkpt>
      <trkpt lat="4.1819140" lon="-76.3035360">
        <ele>1040.2</ele>
        <time>2022-08-15T12:18:11Z</time>
      </trkpt>
      <trkpt lat="4.1818170" lon="-76.3034910">
        <ele>1039.0</ele>
        <time>2022-08-15T12:18:12Z</time>
      </trkpt>
      <trkpt lat="4.1817210" lon="-76.3034620">
        <ele>1037.6</ele>
        <time>2022-08-15T12:18:13Z</time>
      </trkpt>
      <trkpt lat="4.1816430" lon="-76.3034540">
        <ele>1036.2</ele>
        <time>2022-08-15T12:18:14Z</time>
      </trkpt>
      <trkpt lat="4.1815300" lon="-76.3034670">
        <ele>1035.0</ele>
        <time>2022-08-15T12:18:15Z</time>
      </trkpt>
      <trkpt lat="4.1814430" lon="-76.3035050">
        <ele>1033.4</ele>
        <time>2022-08-15T12:18:16Z</time>
      </trkpt>
      <trkpt lat="4.1813730" lon="-76.3035610">
        <ele>1031.6</ele>
        <time>2022-08-15T12:18:17Z</time>
      </trkpt>
      <trkpt lat="4.1813160" lon="-76.3036340">
        <ele>1030.0</ele>
        <time>2022-08-15T12:18:18Z</time>
      </trkpt>
      <trkpt lat="4.1812670" lon="-76.3037080">
        <ele>1028.6</ele>
        <time>2022-08-15T12:18:19Z</time>
      </trkpt>
      <trkpt lat="4.1812220" lon="-76.3037850">
        <ele>1027.4</ele>
        <time>2022-08-15T12:18:20Z</time>
      </trkpt>
      <trkpt lat="4.1811770" lon="-76.3038640">
        <ele>1026.2</ele>
        <time>2022-08-15T12:18:21Z</time>
      </trkpt>
      <trkpt lat="4.1811300" lon="-76.3039390">
        <ele>1025.0</ele>
        <time>2022-08-15T12:18:22Z</time>
      </trkpt>
      <trkpt lat="4.1810820" lon="-76.3040130">
        <ele>1023.8</ele>
        <time>2022-08-15T12:18:23Z</time>
      </trkpt>
      <trkpt lat="4.1810460" lon="-76.3040730">
        <ele>1023.0</ele>
        <time>2022-08-15T12:18:24Z</time>
      </trkpt>
      <trkpt lat="4.1809890" lon="-76.3041580">
        <ele>1022.4</ele>
        <time>2022-08-15T12:18:25Z</time>
      </trkpt>
      <trkpt lat="4.1808860" lon="-76.3042920">
        <ele>1022.0</ele>
        <time>2022-08-15T12:18:27Z</time>
      </trkpt>
      <trkpt lat="4.1807620" lon="-76.3044030">
        <ele>1021.8</ele>
        <time>2022-08-15T12:18:29Z</time>
      </trkpt>
      <trkpt lat="4.1804680" lon="-76.3045610">
        <ele>1021.6</ele>
        <time>2022-08-15T12:18:33Z</time>
      </trkpt>
      <trkpt lat="4.1800720" lon="-76.3047100">
        <ele>1021.4</ele>
        <time>2022-08-15T12:18:38Z</time>
      </trkpt>
      <trkpt lat="4.1797020" lon="-76.3048380">
        <ele>1021.2</ele>
        <time>2022-08-15T12:18:43Z</time>
      </trkpt>
      <trkpt lat="4.1793970" lon="-76.3049440">
        <ele>1021.0</ele>
        <time>2022-08-15T12:18:48Z</time>
      </trkpt>
      <trkpt lat="4.1792810" lon="-76.3049750">
        <ele>1021.0</ele>
        <time>2022-08-15T12:18:51Z</time>
      </trkpt>
      <trkpt lat="4.1792010" lon="-76.3050000">
        <ele>1021.8</ele>
        <time>2022-08-15T12:18:53Z</time>
      </trkpt>
      <trkpt lat="4.1791350" lon="-76.3050130">
        <ele>1023.0</ele>
        <time>2022-08-15T12:18:55Z</time>
      </trkpt>
      <trkpt lat="4.1790530" lon="-76.3050160">
        <ele>1023.4</ele>
        <time>2022-08-15T12:18:57Z</time>
      </trkpt>
      <trkpt lat="4.1790210" lon="-76.3050140">
        <ele>1024.2</ele>
        <time>2022-08-15T12:18:58Z</time>
      </trkpt>
      <trkpt lat="4.1789720" lon="-76.3050090">
        <ele>1025.0</ele>
        <time>2022-08-15T12:18:59Z</time>
      </trkpt>
      <trkpt lat="4.1789400" lon="-76.3050040">
        <ele>1025.4</ele>
        <time>2022-08-15T12:19:00Z</time>
      </trkpt>
      <trkpt lat="4.1788080" lon="-76.3049800">
        <ele>1027.0</ele>
        <time>2022-08-15T12:19:03Z</time>
      </trkpt>
      <trkpt lat="4.1786670" lon="-76.3049510">
        <ele>1028.0</ele>
        <time>2022-08-15T12:19:06Z</time>
      </trkpt>
      <trkpt lat="4.1785550" lon="-76.3049360">
        <ele>1028.6</ele>
        <time>2022-08-15T12:19:08Z</time>
      </trkpt>
      <trkpt lat="4.1783880" lon="-76.3049480">
        <ele>1028.6</ele>
        <time>2022-08-15T12:19:11Z</time>
      </trkpt>
      <trkpt lat="4.1780400" lon="-76.3050710">
        <ele>1028.6</ele>
        <time>2022-08-15T12:19:16Z</time>
      </trkpt>
      <trkpt lat="4.1775870" lon="-76.3052800">
        <ele>1027.2</ele>
        <time>2022-08-15T12:19:21Z</time>
      </trkpt>
      <trkpt lat="4.1773970" lon="-76.3053830">
        <ele>1026.6</ele>
        <time>2022-08-15T12:19:23Z</time>
      </trkpt>
      <trkpt lat="4.1772220" lon="-76.3054770">
        <ele>1025.2</ele>
        <time>2022-08-15T12:19:25Z</time>
      </trkpt>
      <trkpt lat="4.1771030" lon="-76.3055290">
        <ele>1024.4</ele>
        <time>2022-08-15T12:19:26Z</time>
      </trkpt>
      <trkpt lat="4.1770210" lon="-76.3055520">
        <ele>1023.6</ele>
        <time>2022-08-15T12:19:27Z</time>
      </trkpt>
      <trkpt lat="4.1768980" lon="-76.3055700">
        <ele>1022.6</ele>
        <time>2022-08-15T12:19:28Z</time>
      </trkpt>
      <trkpt lat="4.1768170" lon="-76.3055660">
        <ele>1021.4</ele>
        <time>2022-08-15T12:19:29Z</time>
      </trkpt>
      <trkpt lat="4.1767200" lon="-76.3055430">
        <ele>1020.4</ele>
        <time>2022-08-15T12:19:30Z</time>
      </trkpt>
      <trkpt lat="4.1766350" lon="-76.3055020">
        <ele>1019.6</ele>
        <time>2022-08-15T12:19:31Z</time>
      </trkpt>
      <trkpt lat="4.1765640" lon="-76.3054520">
        <ele>1019.0</ele>
        <time>2022-08-15T12:19:32Z</time>
      </trkpt>
      <trkpt lat="4.1764990" lon="-76.3053800">
        <ele>1018.0</ele>
        <time>2022-08-15T12:19:33Z</time>
      </trkpt>
      <trkpt lat="4.1764610" lon="-76.3053120">
        <ele>1017.4</ele>
        <time>2022-08-15T12:19:34Z</time>
      </trkpt>
      <trkpt lat="4.1764260" lon="-76.3052430">
        <ele>1016.8</ele>
        <time>2022-08-15T12:19:35Z</time>
      </trkpt>
      <trkpt lat="4.1763920" lon="-76.3051910">
        <ele>1016.4</ele>
        <time>2022-08-15T12:19:36Z</time>
      </trkpt>
      <trkpt lat="4.1763550" lon="-76.3051230">
        <ele>1016.2</ele>
        <time>2022-08-15T12:19:37Z</time>
      </trkpt>
      <trkpt lat="4.1763200" lon="-76.3050390">
        <ele>1015.8</ele>
        <time>2022-08-15T12:19:38Z</time>
      </trkpt>
      <trkpt lat="4.1762880" lon="-76.3049680">
        <ele>1015.8</ele>
        <time>2022-08-15T12:19:39Z</time>
      </trkpt>
      <trkpt lat="4.1761880" lon="-76.3047690">
        <ele>1015.0</ele>
        <time>2022-08-15T12:19:42Z</time>
      </trkpt>
      <trkpt lat="4.1761650" lon="-76.3047200">
        <ele>1014.0</ele>
        <time>2022-08-15T12:19:43Z</time>
      </trkpt>
      <trkpt lat="4.1761270" lon="-76.3046460">
        <ele>1012.8</ele>
        <time>2022-08-15T12:19:45Z</time>
      </trkpt>
      <trkpt lat="4.1760920" lon="-76.3046030">
        <ele>1012.0</ele>
        <time>2022-08-15T12:19:49Z</time>
      </trkpt>
      <trkpt lat="4.1760980" lon="-76.3045940">
        <ele>1011.8</ele>
        <time>2022-08-15T12:19:55Z</time>
      </trkpt>
      <trkpt lat="4.1760980" lon="-76.3045940">
        <ele>1011.8</ele>
        <time>2022-08-15T12:19:56Z</time>
      </trkpt>
      <trkpt lat="4.1760980" lon="-76.3045940">
        <ele>1011.6</ele>
        <time>2022-08-15T12:20:04Z</time>
      </trkpt>
      <trkpt lat="4.1760830" lon="-76.3045760">
        <ele>1011.8</ele>
        <time>2022-08-15T12:20:07Z</time>
      </trkpt>
      <trkpt lat="4.1759260" lon="-76.3044780">
        <ele>1011.8</ele>
        <time>2022-08-15T12:20:12Z</time>
      </trkpt>
      <trkpt lat="4.1756300" lon="-76.3044040">
        <ele>1011.6</ele>
        <time>2022-08-15T12:20:17Z</time>
      </trkpt>
      <trkpt lat="4.1752660" lon="-76.3043110">
        <ele>1010.8</ele>
        <time>2022-08-15T12:20:22Z</time>
      </trkpt>
      <trkpt lat="4.1749970" lon="-76.3042450">
        <ele>1009.6</ele>
        <time>2022-08-15T12:20:26Z</time>
      </trkpt>
      <trkpt lat="4.1749300" lon="-76.3042320">
        <ele>1009.4</ele>
        <time>2022-08-15T12:20:27Z</time>
      </trkpt>
      <trkpt lat="4.1746800" lon="-76.3041790">
        <ele>1008.8</ele>
        <time>2022-08-15T12:20:31Z</time>
      </trkpt>
      <trkpt lat="4.1745630" lon="-76.3041560">
        <ele>1008.8</ele>
        <time>2022-08-15T12:20:33Z</time>
      </trkpt>
      <trkpt lat="4.1743300" lon="-76.3041230">
        <ele>1008.6</ele>
        <time>2022-08-15T12:20:37Z</time>
      </trkpt>
      <trkpt lat="4.1741620" lon="-76.3041190">
        <ele>1008.8</ele>
        <time>2022-08-15T12:20:40Z</time>
      </trkpt>
      <trkpt lat="4.1739040" lon="-76.3041130">
        <ele>1009.8</ele>
        <time>2022-08-15T12:20:45Z</time>
      </trkpt>
      <trkpt lat="4.1738560" lon="-76.3041070">
        <ele>1009.8</ele>
        <time>2022-08-15T12:20:46Z</time>
      </trkpt>
      <trkpt lat="4.1738100" lon="-76.3041000">
        <ele>1010.2</ele>
        <time>2022-08-15T12:20:47Z</time>
      </trkpt>
      <trkpt lat="4.1737210" lon="-76.3040720">
        <ele>1010.6</ele>
        <time>2022-08-15T12:20:49Z</time>
      </trkpt>
      <trkpt lat="4.1736790" lon="-76.3040540">
        <ele>1011.0</ele>
        <time>2022-08-15T12:20:50Z</time>
      </trkpt>
      <trkpt lat="4.1736390" lon="-76.3040360">
        <ele>1011.2</ele>
        <time>2022-08-15T12:20:51Z</time>
      </trkpt>
      <trkpt lat="4.1736020" lon="-76.3040150">
        <ele>1011.4</ele>
        <time>2022-08-15T12:20:52Z</time>
      </trkpt>
      <trkpt lat="4.1735370" lon="-76.3039450">
        <ele>1012.0</ele>
        <time>2022-08-15T12:20:54Z</time>
      </trkpt>
      <trkpt lat="4.1735100" lon="-76.3039060">
        <ele>1012.4</ele>
        <time>2022-08-15T12:20:55Z</time>
      </trkpt>
      <trkpt lat="4.1734870" lon="-76.3038670">
        <ele>1012.8</ele>
        <time>2022-08-15T12:20:56Z</time>
      </trkpt>
      <trkpt lat="4.1734280" lon="-76.3037260">
        <ele>1013.4</ele>
        <time>2022-08-15T12:20:59Z</time>
      </trkpt>
      <trkpt lat="4.1733920" lon="-76.3036250">
        <ele>1014.0</ele>
        <time>2022-08-15T12:21:01Z</time>
      </trkpt>
      <trkpt lat="4.1733370" lon="-76.3034710">
        <ele>1014.8</ele>
        <time>2022-08-15T12:21:04Z</time>
      </trkpt>
      <trkpt lat="4.1732640" lon="-76.3032570">
        <ele>1015.2</ele>
        <time>2022-08-15T12:21:08Z</time>
      </trkpt>
      <trkpt lat="4.1731130" lon="-76.3029510">
        <ele>1015.4</ele>
        <time>2022-08-15T12:21:13Z</time>
      </trkpt>
      <trkpt lat="4.1729880" lon="-76.3028650">
        <ele>1015.4</ele>
        <time>2022-08-15T12:21:15Z</time>
      </trkpt>
      <trkpt lat="4.1729050" lon="-76.3028450">
        <ele>1015.4</ele>
        <time>2022-08-15T12:21:16Z</time>
      </trkpt>
      <trkpt lat="4.1728180" lon="-76.3028420">
        <ele>1015.4</ele>
        <time>2022-08-15T12:21:17Z</time>
      </trkpt>
      <trkpt lat="4.1726510" lon="-76.3028760">
        <ele>1015.2</ele>
        <time>2022-08-15T12:21:19Z</time>
      </trkpt>
      <trkpt lat="4.1723410" lon="-76.3029760">
        <ele>1014.0</ele>
        <time>2022-08-15T12:21:23Z</time>
      </trkpt>
      <trkpt lat="4.1722630" lon="-76.3029800">
        <ele>1013.8</ele>
        <time>2022-08-15T12:21:24Z</time>
      </trkpt>
      <trkpt lat="4.1721840" lon="-76.3029740">
        <ele>1013.6</ele>
        <time>2022-08-15T12:21:25Z</time>
      </trkpt>
      <trkpt lat="4.1720280" lon="-76.3029280">
        <ele>1013.2</ele>
        <time>2022-08-15T12:21:27Z</time>
      </trkpt>
      <trkpt lat="4.1715490" lon="-76.3027500">
        <ele>1012.8</ele>
        <time>2022-08-15T12:21:33Z</time>
      </trkpt>
      <trkpt lat="4.1714630" lon="-76.3027390">
        <ele>1012.6</ele>
        <time>2022-08-15T12:21:34Z</time>
      </trkpt>
      <trkpt lat="4.1713780" lon="-76.3027510">
        <ele>1012.4</ele>
        <time>2022-08-15T12:21:35Z</time>
      </trkpt>
      <trkpt lat="4.1712970" lon="-76.3027840">
        <ele>1012.4</ele>
        <time>2022-08-15T12:21:36Z</time>
      </trkpt>
      <trkpt lat="4.1712200" lon="-76.3028310">
        <ele>1012.0</ele>
        <time>2022-08-15T12:21:37Z</time>
      </trkpt>
      <trkpt lat="4.1711560" lon="-76.3029010">
        <ele>1011.6</ele>
        <time>2022-08-15T12:21:38Z</time>
      </trkpt>
      <trkpt lat="4.1711000" lon="-76.3029840">
        <ele>1011.2</ele>
        <time>2022-08-15T12:21:39Z</time>
      </trkpt>
      <trkpt lat="4.1710150" lon="-76.3031620">
        <ele>1010.6</ele>
        <time>2022-08-15T12:21:41Z</time>
      </trkpt>
      <trkpt lat="4.1709730" lon="-76.3032520">
        <ele>1010.0</ele>
        <time>2022-08-15T12:21:42Z</time>
      </trkpt>
      <trkpt lat="4.1709210" lon="-76.3033360">
        <ele>1009.4</ele>
        <time>2022-08-15T12:21:43Z</time>
      </trkpt>
      <trkpt lat="4.1707800" lon="-76.3034550">
        <ele>1008.6</ele>
        <time>2022-08-15T12:21:45Z</time>
      </trkpt>
      <trkpt lat="4.1706880" lon="-76.3034820">
        <ele>1008.0</ele>
        <time>2022-08-15T12:21:46Z</time>
      </trkpt>
      <trkpt lat="4.1705900" lon="-76.3034920">
        <ele>1007.2</ele>
        <time>2022-08-15T12:21:47Z</time>
      </trkpt>
      <trkpt lat="4.1704010" lon="-76.3034160">
        <ele>1005.6</ele>
        <time>2022-08-15T12:21:49Z</time>
      </trkpt>
      <trkpt lat="4.1702400" lon="-76.3032600">
        <ele>1004.4</ele>
        <time>2022-08-15T12:21:51Z</time>
      </trkpt>
      <trkpt lat="4.1700900" lon="-76.3030970">
        <ele>1003.2</ele>
        <time>2022-08-15T12:21:53Z</time>
      </trkpt>
      <trkpt lat="4.1700170" lon="-76.3030180">
        <ele>1002.4</ele>
        <time>2022-08-15T12:21:54Z</time>
      </trkpt>
      <trkpt lat="4.1699470" lon="-76.3029410">
        <ele>1001.8</ele>
        <time>2022-08-15T12:21:55Z</time>
      </trkpt>
      <trkpt lat="4.1698210" lon="-76.3027840">
        <ele>1000.2</ele>
        <time>2022-08-15T12:21:57Z</time>
      </trkpt>
      <trkpt lat="4.1697690" lon="-76.3027030">
        <ele>999.6</ele>
        <time>2022-08-15T12:21:58Z</time>
      </trkpt>
      <trkpt lat="4.1697220" lon="-76.3026190">
        <ele>999.4</ele>
        <time>2022-08-15T12:21:59Z</time>
      </trkpt>
      <trkpt lat="4.1695630" lon="-76.3023860">
        <ele>999.2</ele>
        <time>2022-08-15T12:22:02Z</time>
      </trkpt>
      <trkpt lat="4.1694950" lon="-76.3023220">
        <ele>999.0</ele>
        <time>2022-08-15T12:22:03Z</time>
      </trkpt>
      <trkpt lat="4.1694250" lon="-76.3022660">
        <ele>999.0</ele>
        <time>2022-08-15T12:22:04Z</time>
      </trkpt>
      <trkpt lat="4.1692020" lon="-76.3021320">
        <ele>999.0</ele>
        <time>2022-08-15T12:22:07Z</time>
      </trkpt>
      <trkpt lat="4.1688080" lon="-76.3018420">
        <ele>999.2</ele>
        <time>2022-08-15T12:22:13Z</time>
      </trkpt>
      <trkpt lat="4.1685490" lon="-76.3015970">
        <ele>999.6</ele>
        <time>2022-08-15T12:22:18Z</time>
      </trkpt>
      <trkpt lat="4.1683520" lon="-76.3014410">
        <ele>1000.2</ele>
        <time>2022-08-15T12:22:22Z</time>
      </trkpt>
      <trkpt lat="4.1682170" lon="-76.3013210">
        <ele>1001.0</ele>
        <time>2022-08-15T12:22:25Z</time>
      </trkpt>
      <trkpt lat="4.1681760" lon="-76.3012850">
        <ele>1001.6</ele>
        <time>2022-08-15T12:22:26Z</time>
      </trkpt>
      <trkpt lat="4.1680980" lon="-76.3012090">
        <ele>1002.0</ele>
        <time>2022-08-15T12:22:28Z</time>
      </trkpt>
      <trkpt lat="4.1680250" lon="-76.3011240">
        <ele>1002.8</ele>
        <time>2022-08-15T12:22:30Z</time>
      </trkpt>
      <trkpt lat="4.1678680" lon="-76.3008700">
        <ele>1003.8</ele>
        <time>2022-08-15T12:22:35Z</time>
      </trkpt>
      <trkpt lat="4.1678330" lon="-76.3008200">
        <ele>1004.0</ele>
        <time>2022-08-15T12:22:36Z</time>
      </trkpt>
      <trkpt lat="4.1677490" lon="-76.3007380">
        <ele>1004.4</ele>
        <time>2022-08-15T12:22:38Z</time>
      </trkpt>
      <trkpt lat="4.1676920" lon="-76.3007140">
        <ele>1004.6</ele>
        <time>2022-08-15T12:22:39Z</time>
      </trkpt>
      <trkpt lat="4.1676270" lon="-76.3007060">
        <ele>1004.6</ele>
        <time>2022-08-15T12:22:40Z</time>
      </trkpt>
      <trkpt lat="4.1674940" lon="-76.3007280">
        <ele>1004.6</ele>
        <time>2022-08-15T12:22:42Z</time>
      </trkpt>
      <trkpt lat="4.1671260" lon="-76.3007910">
        <ele>1004.8</ele>
        <time>2022-08-15T12:22:47Z</time>
      </trkpt>
      <trkpt lat="4.1667120" lon="-76.3007400">
        <ele>1003.8</ele>
        <time>2022-08-15T12:22:52Z</time>
      </trkpt>
      <trkpt lat="4.1662930" lon="-76.3005960">
        <ele>1002.8</ele>
        <time>2022-08-15T12:22:57Z</time>
      </trkpt>
      <trkpt lat="4.1660490" lon="-76.3004650">
        <ele>1001.6</ele>
        <time>2022-08-15T12:23:00Z</time>
      </trkpt>
      <trkpt lat="4.1659000" lon="-76.3003640">
        <ele>1001.0</ele>
        <time>2022-08-15T12:23:02Z</time>
      </trkpt>
      <trkpt lat="4.1657490" lon="-76.3002630">
        <ele>1000.4</ele>
        <time>2022-08-15T12:23:04Z</time>
      </trkpt>
      <trkpt lat="4.1654580" lon="-76.3000590">
        <ele>999.4</ele>
        <time>2022-08-15T12:23:08Z</time>
      </trkpt>
      <trkpt lat="4.1653270" lon="-76.2999420">
        <ele>999.2</ele>
        <time>2022-08-15T12:23:10Z</time>
      </trkpt>
      <trkpt lat="4.1652670" lon="-76.2998750">
        <ele>999.0</ele>
        <time>2022-08-15T12:23:11Z</time>
      </trkpt>
      <trkpt lat="4.1651140" lon="-76.2996360">
        <ele>998.8</ele>
        <time>2022-08-15T12:23:14Z</time>
      </trkpt>
      <trkpt lat="4.1649260" lon="-76.2993030">
        <ele>998.4</ele>
        <time>2022-08-15T12:23:18Z</time>
      </trkpt>
      <trkpt lat="4.1646850" lon="-76.2989070">
        <ele>997.2</ele>
        <time>2022-08-15T12:23:23Z</time>
      </trkpt>
      <trkpt lat="4.1645090" lon="-76.2985520">
        <ele>996.8</ele>
        <time>2022-08-15T12:23:28Z</time>
      </trkpt>
      <trkpt lat="4.1644680" lon="-76.2984140">
        <ele>996.8</ele>
        <time>2022-08-15T12:23:30Z</time>
      </trkpt>
      <trkpt lat="4.1644540" lon="-76.2982730">
        <ele>996.8</ele>
        <time>2022-08-15T12:23:32Z</time>
      </trkpt>
      <trkpt lat="4.1644350" lon="-76.2980110">
        <ele>997.6</ele>
        <time>2022-08-15T12:23:36Z</time>
      </trkpt>
      <trkpt lat="4.1644180" lon="-76.2979510">
        <ele>997.8</ele>
        <time>2022-08-15T12:23:37Z</time>
      </trkpt>
      <trkpt lat="4.1643940" lon="-76.2978970">
        <ele>998.2</ele>
        <time>2022-08-15T12:23:38Z</time>
      </trkpt>
      <trkpt lat="4.1643660" lon="-76.2978470">
        <ele>998.4</ele>
        <time>2022-08-15T12:23:39Z</time>
      </trkpt>
      <trkpt lat="4.1643280" lon="-76.2978020">
        <ele>998.8</ele>
        <time>2022-08-15T12:23:40Z</time>
      </trkpt>
      <trkpt lat="4.1642820" lon="-76.2977670">
        <ele>999.0</ele>
        <time>2022-08-15T12:23:41Z</time>
      </trkpt>
      <trkpt lat="4.1641220" lon="-76.2976750">
        <ele>999.2</ele>
        <time>2022-08-15T12:23:44Z</time>
      </trkpt>
      <trkpt lat="4.1640270" lon="-76.2975960">
        <ele>1000.0</ele>
        <time>2022-08-15T12:23:46Z</time>
      </trkpt>
      <trkpt lat="4.1639510" lon="-76.2974990">
        <ele>1000.2</ele>
        <time>2022-08-15T12:23:48Z</time>
      </trkpt>
      <trkpt lat="4.1638810" lon="-76.2973890">
        <ele>1000.4</ele>
        <time>2022-08-15T12:23:50Z</time>
      </trkpt>
      <trkpt lat="4.1636730" lon="-76.2970940">
        <ele>1000.6</ele>
        <time>2022-08-15T12:23:55Z</time>
      </trkpt>
      <trkpt lat="4.1634880" lon="-76.2969460">
        <ele>1000.6</ele>
        <time>2022-08-15T12:23:58Z</time>
      </trkpt>
      <trkpt lat="4.1634150" lon="-76.2969100">
        <ele>1000.6</ele>
        <time>2022-08-15T12:23:59Z</time>
      </trkpt>
      <trkpt lat="4.1633370" lon="-76.2968850">
        <ele>1000.4</ele>
        <time>2022-08-15T12:24:00Z</time>
      </trkpt>
      <trkpt lat="4.1630190" lon="-76.2968150">
        <ele>999.0</ele>
        <time>2022-08-15T12:24:04Z</time>
      </trkpt>
      <trkpt lat="4.1625580" lon="-76.2967120">
        <ele>998.0</ele>
        <time>2022-08-15T12:24:10Z</time>
      </trkpt>
      <trkpt lat="4.1624930" lon="-76.2966760">
        <ele>997.8</ele>
        <time>2022-08-15T12:24:11Z</time>
      </trkpt>
      <trkpt lat="4.1624410" lon="-76.2966220">
        <ele>997.8</ele>
        <time>2022-08-15T12:24:12Z</time>
      </trkpt>
      <trkpt lat="4.1623660" lon="-76.2964920">
        <ele>997.8</ele>
        <time>2022-08-15T12:24:14Z</time>
      </trkpt>
      <trkpt lat="4.1623590" lon="-76.2963440">
        <ele>997.8</ele>
        <time>2022-08-15T12:24:16Z</time>
      </trkpt>
      <trkpt lat="4.1623850" lon="-76.2962720">
        <ele>997.8</ele>
        <time>2022-08-15T12:24:17Z</time>
      </trkpt>
      <trkpt lat="4.1624290" lon="-76.2962020">
        <ele>997.8</ele>
        <time>2022-08-15T12:24:18Z</time>
      </trkpt>
      <trkpt lat="4.1625860" lon="-76.2960110">
        <ele>997.8</ele>
        <time>2022-08-15T12:24:21Z</time>
      </trkpt>
      <trkpt lat="4.1626890" lon="-76.2958790">
        <ele>997.6</ele>
        <time>2022-08-15T12:24:23Z</time>
      </trkpt>
      <trkpt lat="4.1627630" lon="-76.2957260">
        <ele>997.6</ele>
        <time>2022-08-15T12:24:25Z</time>
      </trkpt>
      <trkpt lat="4.1627890" lon="-76.2955590">
        <ele>997.6</ele>
        <time>2022-08-15T12:24:27Z</time>
      </trkpt>
      <trkpt lat="4.1627850" lon="-76.2954760">
        <ele>997.6</ele>
        <time>2022-08-15T12:24:28Z</time>
      </trkpt>
      <trkpt lat="4.1627670" lon="-76.2953970">
        <ele>997.6</ele>
        <time>2022-08-15T12:24:29Z</time>
      </trkpt>
      <trkpt lat="4.1627110" lon="-76.2952420">
        <ele>997.2</ele>
        <time>2022-08-15T12:24:31Z</time>
      </trkpt>
      <trkpt lat="4.1626850" lon="-76.2951620">
        <ele>996.8</ele>
        <time>2022-08-15T12:24:32Z</time>
      </trkpt>
      <trkpt lat="4.1626430" lon="-76.2950010">
        <ele>996.4</ele>
        <time>2022-08-15T12:24:34Z</time>
      </trkpt>
      <trkpt lat="4.1626290" lon="-76.2948350">
        <ele>996.2</ele>
        <time>2022-08-15T12:24:36Z</time>
      </trkpt>
      <trkpt lat="4.1626330" lon="-76.2947500">
        <ele>996.2</ele>
        <time>2022-08-15T12:24:37Z</time>
      </trkpt>
      <trkpt lat="4.1626480" lon="-76.2945760">
        <ele>996.0</ele>
        <time>2022-08-15T12:24:39Z</time>
      </trkpt>
      <trkpt lat="4.1626460" lon="-76.2944890">
        <ele>995.8</ele>
        <time>2022-08-15T12:24:40Z</time>
      </trkpt>
      <trkpt lat="4.1626240" lon="-76.2943380">
        <ele>995.6</ele>
        <time>2022-08-15T12:24:42Z</time>
      </trkpt>
      <trkpt lat="4.1625490" lon="-76.2941600">
        <ele>995.4</ele>
        <time>2022-08-15T12:24:44Z</time>
      </trkpt>
      <trkpt lat="4.1623890" lon="-76.2939740">
        <ele>994.8</ele>
        <time>2022-08-15T12:24:47Z</time>
      </trkpt>
      <trkpt lat="4.1620640" lon="-76.2936490">
        <ele>993.8</ele>
        <time>2022-08-15T12:24:52Z</time>
      </trkpt>
      <trkpt lat="4.1617180" lon="-76.2933440">
        <ele>993.0</ele>
        <time>2022-08-15T12:24:57Z</time>
      </trkpt>
      <trkpt lat="4.1616290" lon="-76.2933050">
        <ele>992.6</ele>
        <time>2022-08-15T12:24:58Z</time>
      </trkpt>
      <trkpt lat="4.1615140" lon="-76.2932770">
        <ele>992.2</ele>
        <time>2022-08-15T12:24:59Z</time>
      </trkpt>
      <trkpt lat="4.1614150" lon="-76.2932690">
        <ele>991.8</ele>
        <time>2022-08-15T12:25:00Z</time>
      </trkpt>
      <trkpt lat="4.1613160" lon="-76.2932630">
        <ele>991.4</ele>
        <time>2022-08-15T12:25:01Z</time>
      </trkpt>
      <trkpt lat="4.1611420" lon="-76.2932390">
        <ele>990.6</ele>
        <time>2022-08-15T12:25:03Z</time>
      </trkpt>
      <trkpt lat="4.1610540" lon="-76.2932110">
        <ele>990.2</ele>
        <time>2022-08-15T12:25:04Z</time>
      </trkpt>
      <trkpt lat="4.1609600" lon="-76.2931510">
        <ele>989.8</ele>
        <time>2022-08-15T12:25:05Z</time>
      </trkpt>
      <trkpt lat="4.1608420" lon="-76.2930320">
        <ele>989.2</ele>
        <time>2022-08-15T12:25:07Z</time>
      </trkpt>
      <trkpt lat="4.1605190" lon="-76.2925960">
        <ele>988.8</ele>
        <time>2022-08-15T12:25:13Z</time>
      </trkpt>
      <trkpt lat="4.1604670" lon="-76.2925250">
        <ele>988.8</ele>
        <time>2022-08-15T12:25:14Z</time>
      </trkpt>
      <trkpt lat="4.1603560" lon="-76.2923770">
        <ele>988.6</ele>
        <time>2022-08-15T12:25:16Z</time>
      </trkpt>
      <trkpt lat="4.1601700" lon="-76.2921140">
        <ele>988.6</ele>
        <time>2022-08-15T12:25:20Z</time>
      </trkpt>
      <trkpt lat="4.1599460" lon="-76.2917210">
        <ele>988.4</ele>
        <time>2022-08-15T12:25:26Z</time>
      </trkpt>
      <trkpt lat="4.1597310" lon="-76.2912430">
        <ele>988.4</ele>
        <time>2022-08-15T12:25:32Z</time>
      </trkpt>
      <trkpt lat="4.1596070" lon="-76.2909940">
        <ele>988.2</ele>
        <time>2022-08-15T12:25:35Z</time>
      </trkpt>
      <trkpt lat="4.1594440" lon="-76.2906540">
        <ele>986.8</ele>
        <time>2022-08-15T12:25:39Z</time>
      </trkpt>
      <trkpt lat="4.1594040" lon="-76.2905670">
        <ele>986.8</ele>
        <time>2022-08-15T12:25:40Z</time>
      </trkpt>
      <trkpt lat="4.1592610" lon="-76.2902340">
        <ele>985.6</ele>
        <time>2022-08-15T12:25:44Z</time>
      </trkpt>
      <trkpt lat="4.1591410" lon="-76.2899740">
        <ele>984.2</ele>
        <time>2022-08-15T12:25:47Z</time>
      </trkpt>
      <trkpt lat="4.1591020" lon="-76.2898880">
        <ele>984.0</ele>
        <time>2022-08-15T12:25:48Z</time>
      </trkpt>
      <trkpt lat="4.1590200" lon="-76.2897040">
        <ele>983.6</ele>
        <time>2022-08-15T12:25:50Z</time>
      </trkpt>
      <trkpt lat="4.1589450" lon="-76.2895400">
        <ele>982.8</ele>
        <time>2022-08-15T12:25:52Z</time>
      </trkpt>
      <trkpt lat="4.1587050" lon="-76.2890150">
        <ele>981.8</ele>
        <time>2022-08-15T12:25:59Z</time>
      </trkpt>
      <trkpt lat="4.1586670" lon="-76.2889270">
        <ele>981.8</ele>
        <time>2022-08-15T12:26:00Z</time>
      </trkpt>
      <trkpt lat="4.1584220" lon="-76.2883950">
        <ele>981.4</ele>
        <time>2022-08-15T12:26:08Z</time>
      </trkpt>
      <trkpt lat="4.1581810" lon="-76.2878660">
        <ele>981.6</ele>
        <time>2022-08-15T12:26:16Z</time>
      </trkpt>
      <trkpt lat="4.1581270" lon="-76.2877460">
        <ele>981.6</ele>
        <time>2022-08-15T12:26:18Z</time>
      </trkpt>
      <trkpt lat="4.1579860" lon="-76.2874340">
        <ele>981.4</ele>
        <time>2022-08-15T12:26:23Z</time>
      </trkpt>
      <trkpt lat="4.1579330" lon="-76.2873380">
        <ele>981.4</ele>
        <time>2022-08-15T12:26:25Z</time>
      </trkpt>
      <trkpt lat="4.1578590" lon="-76.2872980">
        <ele>981.4</ele>
        <time>2022-08-15T12:26:27Z</time>
      </trkpt>
      <trkpt lat="4.1577820" lon="-76.2873330">
        <ele>981.4</ele>
        <time>2022-08-15T12:26:29Z</time>
      </trkpt>
      <trkpt lat="4.1576770" lon="-76.2873840">
        <ele>981.2</ele>
        <time>2022-08-15T12:26:31Z</time>
      </trkpt>
      <trkpt lat="4.1573590" lon="-76.2875160">
        <ele>981.2</ele>
        <time>2022-08-15T12:26:36Z</time>
      </trkpt>
      <trkpt lat="4.1572340" lon="-76.2875610">
        <ele>981.0</ele>
        <time>2022-08-15T12:26:38Z</time>
      </trkpt>
      <trkpt lat="4.1568610" lon="-76.2877220">
        <ele>980.4</ele>
        <time>2022-08-15T12:26:44Z</time>
      </trkpt>
      <trkpt lat="4.1564490" lon="-76.2878820">
        <ele>980.4</ele>
        <time>2022-08-15T12:26:52Z</time>
      </trkpt>
      <trkpt lat="4.1561690" lon="-76.2879680">
        <ele>980.8</ele>
        <time>2022-08-15T12:26:58Z</time>
      </trkpt>
      <trkpt lat="4.1557920" lon="-76.2881330">
        <ele>981.0</ele>
        <time>2022-08-15T12:27:05Z</time>
      </trkpt>
      <trkpt lat="4.1553690" lon="-76.2883310">
        <ele>980.8</ele>
        <time>2022-08-15T12:27:13Z</time>
      </trkpt>
      <trkpt lat="4.1553140" lon="-76.2883560">
        <ele>980.6</ele>
        <time>2022-08-15T12:27:14Z</time>
      </trkpt>
      <trkpt lat="4.1550960" lon="-76.2884480">
        <ele>980.6</ele>
        <time>2022-08-15T12:27:18Z</time>
      </trkpt>
      <trkpt lat="4.1550400" lon="-76.2884740">
        <ele>980.4</ele>
        <time>2022-08-15T12:27:19Z</time>
      </trkpt>
      <trkpt lat="4.1549830" lon="-76.2885000">
        <ele>980.4</ele>
        <time>2022-08-15T12:27:20Z</time>
      </trkpt>
      <trkpt lat="4.1548730" lon="-76.2885510">
        <ele>980.2</ele>
        <time>2022-08-15T12:27:22Z</time>
      </trkpt>
      <trkpt lat="4.1547050" lon="-76.2886160">
        <ele>979.8</ele>
        <time>2022-08-15T12:27:25Z</time>
      </trkpt>
      <trkpt lat="4.1542050" lon="-76.2888170">
        <ele>979.4</ele>
        <time>2022-08-15T12:27:34Z</time>
      </trkpt>
      <trkpt lat="4.1540950" lon="-76.2888720">
        <ele>979.4</ele>
        <time>2022-08-15T12:27:36Z</time>
      </trkpt>
      <trkpt lat="4.1540230" lon="-76.2889030">
        <ele>979.4</ele>
        <time>2022-08-15T12:27:37Z</time>
      </trkpt>
      <trkpt lat="4.1538430" lon="-76.2889810">
        <ele>979.4</ele>
        <time>2022-08-15T12:27:40Z</time>
      </trkpt>
      <trkpt lat="4.1535620" lon="-76.2891100">
        <ele>979.6</ele>
        <time>2022-08-15T12:27:45Z</time>
      </trkpt>
      <trkpt lat="4.1534280" lon="-76.2891600">
        <ele>979.4</ele>
        <time>2022-08-15T12:27:47Z</time>
      </trkpt>
      <trkpt lat="4.1531900" lon="-76.2892410">
        <ele>979.4</ele>
        <time>2022-08-15T12:27:51Z</time>
      </trkpt>
      <trkpt lat="4.1530100" lon="-76.2893100">
        <ele>979.4</ele>
        <time>2022-08-15T12:27:54Z</time>
      </trkpt>
      <trkpt lat="4.1527530" lon="-76.2894390">
        <ele>979.4</ele>
        <time>2022-08-15T12:27:59Z</time>
      </trkpt>
      <trkpt lat="4.1527100" lon="-76.2894690">
        <ele>979.4</ele>
        <time>2022-08-15T12:28:00Z</time>
      </trkpt>
      <trkpt lat="4.1526280" lon="-76.2895400">
        <ele>979.8</ele>
        <time>2022-08-15T12:28:02Z</time>
      </trkpt>
      <trkpt lat="4.1525600" lon="-76.2896230">
        <ele>979.8</ele>
        <time>2022-08-15T12:28:04Z</time>
      </trkpt>
      <trkpt lat="4.1523890" lon="-76.2898540">
        <ele>980.8</ele>
        <time>2022-08-15T12:28:10Z</time>
      </trkpt>
      <trkpt lat="4.1523580" lon="-76.2898990">
        <ele>981.0</ele>
        <time>2022-08-15T12:28:11Z</time>
      </trkpt>
      <trkpt lat="4.1522070" lon="-76.2901140">
        <ele>981.8</ele>
        <time>2022-08-15T12:28:16Z</time>
      </trkpt>
      <trkpt lat="4.1521240" lon="-76.2902490">
        <ele>982.0</ele>
        <time>2022-08-15T12:28:19Z</time>
      </trkpt>
      <trkpt lat="4.1519660" lon="-76.2905340">
        <ele>982.0</ele>
        <time>2022-08-15T12:28:24Z</time>
      </trkpt>
      <trkpt lat="4.1519560" lon="-76.2906770">
        <ele>982.0</ele>
        <time>2022-08-15T12:28:26Z</time>
      </trkpt>
      <trkpt lat="4.1519710" lon="-76.2907460">
        <ele>982.0</ele>
        <time>2022-08-15T12:28:27Z</time>
      </trkpt>
      <trkpt lat="4.1519960" lon="-76.2908150">
        <ele>982.0</ele>
        <time>2022-08-15T12:28:28Z</time>
      </trkpt>
      <trkpt lat="4.1521060" lon="-76.2909890">
        <ele>980.4</ele>
        <time>2022-08-15T12:28:31Z</time>
      </trkpt>
      <trkpt lat="4.1521910" lon="-76.2910970">
        <ele>979.4</ele>
        <time>2022-08-15T12:28:33Z</time>
      </trkpt>
      <trkpt lat="4.1523700" lon="-76.2913180">
        <ele>979.0</ele>
        <time>2022-08-15T12:28:37Z</time>
      </trkpt>
      <trkpt lat="4.1527470" lon="-76.2917150">
        <ele>979.2</ele>
        <time>2022-08-15T12:28:45Z</time>
      </trkpt>
      <trkpt lat="4.1530170" lon="-76.2920220">
        <ele>979.4</ele>
        <time>2022-08-15T12:28:51Z</time>
      </trkpt>
      <trkpt lat="4.1530900" lon="-76.2921440">
        <ele>979.4</ele>
        <time>2022-08-15T12:28:53Z</time>
      </trkpt>
      <trkpt lat="4.1531400" lon="-76.2922720">
        <ele>979.4</ele>
        <time>2022-08-15T12:28:55Z</time>
      </trkpt>
      <trkpt lat="4.1531550" lon="-76.2923380">
        <ele>979.4</ele>
        <time>2022-08-15T12:28:56Z</time>
      </trkpt>
      <trkpt lat="4.1531680" lon="-76.2926060">
        <ele>979.4</ele>
        <time>2022-08-15T12:29:00Z</time>
      </trkpt>
      <trkpt lat="4.1531410" lon="-76.2931000">
        <ele>980.0</ele>
        <time>2022-08-15T12:29:08Z</time>
      </trkpt>
      <trkpt lat="4.1531460" lon="-76.2931780">
        <ele>980.0</ele>
        <time>2022-08-15T12:29:09Z</time>
      </trkpt>
      <trkpt lat="4.1531890" lon="-76.2934150">
        <ele>980.4</ele>
        <time>2022-08-15T12:29:13Z</time>
      </trkpt>
      <trkpt lat="4.1533460" lon="-76.2938520">
        <ele>980.8</ele>
        <time>2022-08-15T12:29:21Z</time>
      </trkpt>
      <trkpt lat="4.1533710" lon="-76.2939040">
        <ele>980.8</ele>
        <time>2022-08-15T12:29:22Z</time>
      </trkpt>
      <trkpt lat="4.1533990" lon="-76.2939530">
        <ele>981.0</ele>
        <time>2022-08-15T12:29:23Z</time>
      </trkpt>
      <trkpt lat="4.1534990" lon="-76.2941030">
        <ele>981.4</ele>
        <time>2022-08-15T12:29:26Z</time>
      </trkpt>
      <trkpt lat="4.1535920" lon="-76.2942310">
        <ele>982.0</ele>
        <time>2022-08-15T12:29:29Z</time>
      </trkpt>
      <trkpt lat="4.1537550" lon="-76.2943960">
        <ele>982.6</ele>
        <time>2022-08-15T12:29:33Z</time>
      </trkpt>
      <trkpt lat="4.1538780" lon="-76.2944460">
        <ele>982.8</ele>
        <time>2022-08-15T12:29:35Z</time>
      </trkpt>
      <trkpt lat="4.1540020" lon="-76.2944610">
        <ele>982.8</ele>
        <time>2022-08-15T12:29:37Z</time>
      </trkpt>
      <trkpt lat="4.1543120" lon="-76.2945130">
        <ele>983.0</ele>
        <time>2022-08-15T12:29:42Z</time>
      </trkpt>
      <trkpt lat="4.1544270" lon="-76.2945700">
        <ele>983.0</ele>
        <time>2022-08-15T12:29:44Z</time>
      </trkpt>
      <trkpt lat="4.1546050" lon="-76.2947600">
        <ele>983.0</ele>
        <time>2022-08-15T12:29:48Z</time>
      </trkpt>
      <trkpt lat="4.1547610" lon="-76.2949920">
        <ele>983.0</ele>
        <time>2022-08-15T12:29:52Z</time>
      </trkpt>
      <trkpt lat="4.1548550" lon="-76.2951010">
        <ele>983.0</ele>
        <time>2022-08-15T12:29:54Z</time>
      </trkpt>
      <trkpt lat="4.1552140" lon="-76.2954530">
        <ele>982.4</ele>
        <time>2022-08-15T12:30:01Z</time>
      </trkpt>
      <trkpt lat="4.1555780" lon="-76.2958590">
        <ele>982.2</ele>
        <time>2022-08-15T12:30:09Z</time>
      </trkpt>
      <trkpt lat="4.1558450" lon="-76.2962990">
        <ele>982.2</ele>
        <time>2022-08-15T12:30:16Z</time>
      </trkpt>
      <trkpt lat="4.1561080" lon="-76.2967810">
        <ele>982.6</ele>
        <time>2022-08-15T12:30:24Z</time>
      </trkpt>
      <trkpt lat="4.1561490" lon="-76.2968540">
        <ele>982.6</ele>
        <time>2022-08-15T12:30:25Z</time>
      </trkpt>
      <trkpt lat="4.1564180" lon="-76.2972500">
        <ele>982.6</ele>
        <time>2022-08-15T12:30:32Z</time>
      </trkpt>
      <trkpt lat="4.1564520" lon="-76.2972930">
        <ele>982.6</ele>
        <time>2022-08-15T12:30:33Z</time>
      </trkpt>
      <trkpt lat="4.1565980" lon="-76.2975240">
        <ele>982.8</ele>
        <time>2022-08-15T12:30:37Z</time>
      </trkpt>
      <trkpt lat="4.1567190" lon="-76.2977600">
        <ele>983.0</ele>
        <time>2022-08-15T12:30:42Z</time>
      </trkpt>
      <trkpt lat="4.1567530" lon="-76.2978410">
        <ele>983.2</ele>
        <time>2022-08-15T12:30:44Z</time>
      </trkpt>
      <trkpt lat="4.1567830" lon="-76.2979310">
        <ele>983.6</ele>
        <time>2022-08-15T12:30:46Z</time>
      </trkpt>
      <trkpt lat="4.1568040" lon="-76.2980300">
        <ele>984.4</ele>
        <time>2022-08-15T12:30:48Z</time>
      </trkpt>
      <trkpt lat="4.1568110" lon="-76.2980800">
        <ele>985.0</ele>
        <time>2022-08-15T12:30:49Z</time>
      </trkpt>
      <trkpt lat="4.1568410" lon="-76.2982930">
        <ele>986.0</ele>
        <time>2022-08-15T12:30:53Z</time>
      </trkpt>
      <trkpt lat="4.1568640" lon="-76.2985110">
        <ele>987.0</ele>
        <time>2022-08-15T12:30:57Z</time>
      </trkpt>
      <trkpt lat="4.1568750" lon="-76.2985790">
        <ele>987.2</ele>
        <time>2022-08-15T12:30:58Z</time>
      </trkpt>
      <trkpt lat="4.1570030" lon="-76.2990260">
        <ele>987.6</ele>
        <time>2022-08-15T12:31:06Z</time>
      </trkpt>
      <trkpt lat="4.1571440" lon="-76.2994140">
        <ele>988.0</ele>
        <time>2022-08-15T12:31:13Z</time>
      </trkpt>
      <trkpt lat="4.1571590" lon="-76.2994720">
        <ele>988.0</ele>
        <time>2022-08-15T12:31:14Z</time>
      </trkpt>
      <trkpt lat="4.1571750" lon="-76.2995300">
        <ele>988.2</ele>
        <time>2022-08-15T12:31:15Z</time>
      </trkpt>
      <trkpt lat="4.1571860" lon="-76.2996420">
        <ele>988.2</ele>
        <time>2022-08-15T12:31:17Z</time>
      </trkpt>
      <trkpt lat="4.1571820" lon="-76.2996980">
        <ele>988.2</ele>
        <time>2022-08-15T12:31:18Z</time>
      </trkpt>
      <trkpt lat="4.1571710" lon="-76.2997550">
        <ele>988.4</ele>
        <time>2022-08-15T12:31:19Z</time>
      </trkpt>
      <trkpt lat="4.1571050" lon="-76.2999180">
        <ele>988.4</ele>
        <time>2022-08-15T12:31:22Z</time>
      </trkpt>
      <trkpt lat="4.1569870" lon="-76.3003000">
        <ele>989.0</ele>
        <time>2022-08-15T12:31:29Z</time>
      </trkpt>
      <trkpt lat="4.1570450" lon="-76.3006300">
        <ele>989.2</ele>
        <time>2022-08-15T12:31:35Z</time>
      </trkpt>
      <trkpt lat="4.1571870" lon="-76.3010950">
        <ele>989.6</ele>
        <time>2022-08-15T12:31:43Z</time>
      </trkpt>
      <trkpt lat="4.1572320" lon="-76.3012100">
        <ele>989.6</ele>
        <time>2022-08-15T12:31:45Z</time>
      </trkpt>
      <trkpt lat="4.1574080" lon="-76.3015750">
        <ele>990.6</ele>
        <time>2022-08-15T12:31:52Z</time>
      </trkpt>
      <trkpt lat="4.1575220" lon="-76.3019210">
        <ele>991.4</ele>
        <time>2022-08-15T12:31:59Z</time>
      </trkpt>
      <trkpt lat="4.1576450" lon="-76.3023290">
        <ele>991.8</ele>
        <time>2022-08-15T12:32:07Z</time>
      </trkpt>
      <trkpt lat="4.1577890" lon="-76.3028170">
        <ele>992.4</ele>
        <time>2022-08-15T12:32:16Z</time>
      </trkpt>
      <trkpt lat="4.1579110" lon="-76.3032550">
        <ele>993.0</ele>
        <time>2022-08-15T12:32:24Z</time>
      </trkpt>
      <trkpt lat="4.1579470" lon="-76.3033670">
        <ele>993.0</ele>
        <time>2022-08-15T12:32:26Z</time>
      </trkpt>
      <trkpt lat="4.1579790" lon="-76.3034730">
        <ele>993.2</ele>
        <time>2022-08-15T12:32:28Z</time>
      </trkpt>
      <trkpt lat="4.1580690" lon="-76.3038110">
        <ele>993.8</ele>
        <time>2022-08-15T12:32:34Z</time>
      </trkpt>
      <trkpt lat="4.1581670" lon="-76.3041370">
        <ele>994.2</ele>
        <time>2022-08-15T12:32:40Z</time>
      </trkpt>
      <trkpt lat="4.1582200" lon="-76.3043210">
        <ele>994.4</ele>
        <time>2022-08-15T12:32:43Z</time>
      </trkpt>
      <trkpt lat="4.1583470" lon="-76.3047940">
        <ele>995.0</ele>
        <time>2022-08-15T12:32:52Z</time>
      </trkpt>
      <trkpt lat="4.1584740" lon="-76.3052220">
        <ele>995.4</ele>
        <time>2022-08-15T12:33:00Z</time>
      </trkpt>
      <trkpt lat="4.1584920" lon="-76.3052770">
        <ele>995.6</ele>
        <time>2022-08-15T12:33:01Z</time>
      </trkpt>
      <trkpt lat="4.1586640" lon="-76.3058400">
        <ele>996.2</ele>
        <time>2022-08-15T12:33:11Z</time>
      </trkpt>
      <trkpt lat="4.1587590" lon="-76.3061580">
        <ele>996.8</ele>
        <time>2022-08-15T12:33:17Z</time>
      </trkpt>
      <trkpt lat="4.1588060" lon="-76.3063250">
        <ele>997.0</ele>
        <time>2022-08-15T12:33:20Z</time>
      </trkpt>
      <trkpt lat="4.1589580" lon="-76.3068100">
        <ele>997.6</ele>
        <time>2022-08-15T12:33:29Z</time>
      </trkpt>
      <trkpt lat="4.1589860" lon="-76.3069140">
        <ele>997.8</ele>
        <time>2022-08-15T12:33:31Z</time>
      </trkpt>
      <trkpt lat="4.1590620" lon="-76.3071860">
        <ele>998.4</ele>
        <time>2022-08-15T12:33:36Z</time>
      </trkpt>
      <trkpt lat="4.1592260" lon="-76.3077450">
        <ele>998.8</ele>
        <time>2022-08-15T12:33:46Z</time>
      </trkpt>
      <trkpt lat="4.1592800" lon="-76.3082090">
        <ele>999.6</ele>
        <time>2022-08-15T12:33:54Z</time>
      </trkpt>
      <trkpt lat="4.1592780" lon="-76.3086280">
        <ele>1000.0</ele>
        <time>2022-08-15T12:34:01Z</time>
      </trkpt>
      <trkpt lat="4.1593440" lon="-76.3091720">
        <ele>1000.4</ele>
        <time>2022-08-15T12:34:10Z</time>
      </trkpt>
      <trkpt lat="4.1595220" lon="-76.3096050">
        <ele>1001.0</ele>
        <time>2022-08-15T12:34:18Z</time>
      </trkpt>
      <trkpt lat="4.1596530" lon="-76.3098130">
        <ele>1001.4</ele>
        <time>2022-08-15T12:34:22Z</time>
      </trkpt>
      <trkpt lat="4.1598110" lon="-76.3100690">
        <ele>1001.6</ele>
        <time>2022-08-15T12:34:27Z</time>
      </trkpt>
      <trkpt lat="4.1599770" lon="-76.3103830">
        <ele>1002.6</ele>
        <time>2022-08-15T12:34:33Z</time>
      </trkpt>
      <trkpt lat="4.1600910" lon="-76.3106400">
        <ele>1002.8</ele>
        <time>2022-08-15T12:34:38Z</time>
      </trkpt>
      <trkpt lat="4.1602800" lon="-76.3110430">
        <ele>1003.6</ele>
        <time>2022-08-15T12:34:46Z</time>
      </trkpt>
      <trkpt lat="4.1604750" lon="-76.3114760">
        <ele>1004.2</ele>
        <time>2022-08-15T12:34:55Z</time>
      </trkpt>
      <trkpt lat="4.1605890" lon="-76.3116420">
        <ele>1004.6</ele>
        <time>2022-08-15T12:34:59Z</time>
      </trkpt>
      <trkpt lat="4.1607210" lon="-76.3118010">
        <ele>1005.0</ele>
        <time>2022-08-15T12:35:03Z</time>
      </trkpt>
      <trkpt lat="4.1608850" lon="-76.3119910">
        <ele>1005.8</ele>
        <time>2022-08-15T12:35:08Z</time>
      </trkpt>
      <trkpt lat="4.1609650" lon="-76.3120940">
        <ele>1006.2</ele>
        <time>2022-08-15T12:35:11Z</time>
      </trkpt>
      <trkpt lat="4.1610830" lon="-76.3123080">
        <ele>1007.0</ele>
        <time>2022-08-15T12:35:16Z</time>
      </trkpt>
      <trkpt lat="4.1611700" lon="-76.3124910">
        <ele>1008.0</ele>
        <time>2022-08-15T12:35:20Z</time>
      </trkpt>
      <trkpt lat="4.1612740" lon="-76.3127290">
        <ele>1009.0</ele>
        <time>2022-08-15T12:35:25Z</time>
      </trkpt>
      <trkpt lat="4.1613710" lon="-76.3129700">
        <ele>1009.2</ele>
        <time>2022-08-15T12:35:30Z</time>
      </trkpt>
      <trkpt lat="4.1614250" lon="-76.3130980">
        <ele>1009.4</ele>
        <time>2022-08-15T12:35:33Z</time>
      </trkpt>
      <trkpt lat="4.1614940" lon="-76.3132440">
        <ele>1009.6</ele>
        <time>2022-08-15T12:35:36Z</time>
      </trkpt>
      <trkpt lat="4.1615580" lon="-76.3133880">
        <ele>1010.0</ele>
        <time>2022-08-15T12:35:39Z</time>
      </trkpt>
      <trkpt lat="4.1616300" lon="-76.3135320">
        <ele>1010.6</ele>
        <time>2022-08-15T12:35:42Z</time>
      </trkpt>
      <trkpt lat="4.1616730" lon="-76.3136280">
        <ele>1010.8</ele>
        <time>2022-08-15T12:35:44Z</time>
      </trkpt>
      <trkpt lat="4.1617690" lon="-76.3138110">
        <ele>1011.0</ele>
        <time>2022-08-15T12:35:48Z</time>
      </trkpt>
      <trkpt lat="4.1618810" lon="-76.3140420">
        <ele>1012.0</ele>
        <time>2022-08-15T12:35:53Z</time>
      </trkpt>
      <trkpt lat="4.1619370" lon="-76.3141810">
        <ele>1012.4</ele>
        <time>2022-08-15T12:35:56Z</time>
      </trkpt>
      <trkpt lat="4.1620530" lon="-76.3144420">
        <ele>1013.0</ele>
        <time>2022-08-15T12:36:02Z</time>
      </trkpt>
      <trkpt lat="4.1621370" lon="-76.3146120">
        <ele>1013.4</ele>
        <time>2022-08-15T12:36:06Z</time>
      </trkpt>
      <trkpt lat="4.1622330" lon="-76.3148090">
        <ele>1014.0</ele>
        <time>2022-08-15T12:36:11Z</time>
      </trkpt>
      <trkpt lat="4.1622500" lon="-76.3148490">
        <ele>1014.2</ele>
        <time>2022-08-15T12:36:12Z</time>
      </trkpt>
      <trkpt lat="4.1622850" lon="-76.3149270">
        <ele>1014.6</ele>
        <time>2022-08-15T12:36:14Z</time>
      </trkpt>
      <trkpt lat="4.1623400" lon="-76.3150560">
        <ele>1015.0</ele>
        <time>2022-08-15T12:36:17Z</time>
      </trkpt>
      <trkpt lat="4.1623960" lon="-76.3151930">
        <ele>1015.6</ele>
        <time>2022-08-15T12:36:20Z</time>
      </trkpt>
      <trkpt lat="4.1624620" lon="-76.3153800">
        <ele>1016.0</ele>
        <time>2022-08-15T12:36:24Z</time>
      </trkpt>
      <trkpt lat="4.1625490" lon="-76.3156510">
        <ele>1016.6</ele>
        <time>2022-08-15T12:36:30Z</time>
      </trkpt>
      <trkpt lat="4.1625700" lon="-76.3156950">
        <ele>1016.6</ele>
        <time>2022-08-15T12:36:31Z</time>
      </trkpt>
      <trkpt lat="4.1625940" lon="-76.3157400">
        <ele>1016.8</ele>
        <time>2022-08-15T12:36:32Z</time>
      </trkpt>
      <trkpt lat="4.1627130" lon="-76.3159590">
        <ele>1017.2</ele>
        <time>2022-08-15T12:36:37Z</time>
      </trkpt>
      <trkpt lat="4.1627690" lon="-76.3160920">
        <ele>1017.8</ele>
        <time>2022-08-15T12:36:40Z</time>
      </trkpt>
      <trkpt lat="4.1627890" lon="-76.3161400">
        <ele>1017.8</ele>
        <time>2022-08-15T12:36:41Z</time>
      </trkpt>
      <trkpt lat="4.1629200" lon="-76.3164160">
        <ele>1018.2</ele>
        <time>2022-08-15T12:36:47Z</time>
      </trkpt>
      <trkpt lat="4.1629450" lon="-76.3164600">
        <ele>1018.2</ele>
        <time>2022-08-15T12:36:48Z</time>
      </trkpt>
      <trkpt lat="4.1630740" lon="-76.3167790">
        <ele>1018.6</ele>
        <time>2022-08-15T12:36:55Z</time>
      </trkpt>
      <trkpt lat="4.1630910" lon="-76.3168380">
        <ele>1018.8</ele>
        <time>2022-08-15T12:36:56Z</time>
      </trkpt>
      <trkpt lat="4.1632170" lon="-76.3172630">
        <ele>1019.8</ele>
        <time>2022-08-15T12:37:05Z</time>
      </trkpt>
      <trkpt lat="4.1632500" lon="-76.3173470">
        <ele>1020.0</ele>
        <time>2022-08-15T12:37:07Z</time>
      </trkpt>
      <trkpt lat="4.1632940" lon="-76.3174720">
        <ele>1020.2</ele>
        <time>2022-08-15T12:37:10Z</time>
      </trkpt>
      <trkpt lat="4.1633090" lon="-76.3175560">
        <ele>1020.4</ele>
        <time>2022-08-15T12:37:12Z</time>
      </trkpt>
      <trkpt lat="4.1633100" lon="-76.3176470">
        <ele>1020.6</ele>
        <time>2022-08-15T12:37:14Z</time>
      </trkpt>
      <trkpt lat="4.1633030" lon="-76.3177370">
        <ele>1021.0</ele>
        <time>2022-08-15T12:37:16Z</time>
      </trkpt>
      <trkpt lat="4.1632940" lon="-76.3178250">
        <ele>1021.4</ele>
        <time>2022-08-15T12:37:18Z</time>
      </trkpt>
      <trkpt lat="4.1632940" lon="-76.3178680">
        <ele>1021.4</ele>
        <time>2022-08-15T12:37:19Z</time>
      </trkpt>
      <trkpt lat="4.1633330" lon="-76.3179420">
        <ele>1021.8</ele>
        <time>2022-08-15T12:37:21Z</time>
      </trkpt>
      <trkpt lat="4.1633650" lon="-76.3179690">
        <ele>1022.0</ele>
        <time>2022-08-15T12:37:22Z</time>
      </trkpt>
      <trkpt lat="4.1634620" lon="-76.3180300">
        <ele>1022.8</ele>
        <time>2022-08-15T12:37:25Z</time>
      </trkpt>
      <trkpt lat="4.1634900" lon="-76.3180550">
        <ele>1022.8</ele>
        <time>2022-08-15T12:37:26Z</time>
      </trkpt>
      <trkpt lat="4.1635460" lon="-76.3181970">
        <ele>1023.4</ele>
        <time>2022-08-15T12:37:30Z</time>
      </trkpt>
      <trkpt lat="4.1635070" lon="-76.3183920">
        <ele>1024.6</ele>
        <time>2022-08-15T12:37:35Z</time>
      </trkpt>
      <trkpt lat="4.1635040" lon="-76.3184310">
        <ele>1024.8</ele>
        <time>2022-08-15T12:37:36Z</time>
      </trkpt>
      <trkpt lat="4.1635580" lon="-76.3185780">
        <ele>1025.4</ele>
        <time>2022-08-15T12:37:40Z</time>
      </trkpt>
      <trkpt lat="4.1635870" lon="-76.3186060">
        <ele>1025.6</ele>
        <time>2022-08-15T12:37:41Z</time>
      </trkpt>
      <trkpt lat="4.1637970" lon="-76.3188360">
        <ele>1026.6</ele>
        <time>2022-08-15T12:37:49Z</time>
      </trkpt>
      <trkpt lat="4.1639710" lon="-76.3190490">
        <ele>1027.8</ele>
        <time>2022-08-15T12:37:56Z</time>
      </trkpt>
      <trkpt lat="4.1640210" lon="-76.3191120">
        <ele>1027.8</ele>
        <time>2022-08-15T12:37:58Z</time>
      </trkpt>
      <trkpt lat="4.1641120" lon="-76.3193310">
        <ele>1028.6</ele>
        <time>2022-08-15T12:38:04Z</time>
      </trkpt>
      <trkpt lat="4.1641060" lon="-76.3193770">
        <ele>1028.8</ele>
        <time>2022-08-15T12:38:05Z</time>
      </trkpt>
      <trkpt lat="4.1640870" lon="-76.3194250">
        <ele>1028.8</ele>
        <time>2022-08-15T12:38:06Z</time>
      </trkpt>
      <trkpt lat="4.1640280" lon="-76.3195270">
        <ele>1028.8</ele>
        <time>2022-08-15T12:38:08Z</time>
      </trkpt>
      <trkpt lat="4.1638940" lon="-76.3196880">
        <ele>1028.8</ele>
        <time>2022-08-15T12:38:11Z</time>
      </trkpt>
      <trkpt lat="4.1638360" lon="-76.3197320">
        <ele>1028.8</ele>
        <time>2022-08-15T12:38:12Z</time>
      </trkpt>
      <trkpt lat="4.1637730" lon="-76.3197680">
        <ele>1028.8</ele>
        <time>2022-08-15T12:38:13Z</time>
      </trkpt>
      <trkpt lat="4.1635930" lon="-76.3198690">
        <ele>1028.4</ele>
        <time>2022-08-15T12:38:16Z</time>
      </trkpt>
      <trkpt lat="4.1635470" lon="-76.3199780">
        <ele>1027.4</ele>
        <time>2022-08-15T12:38:18Z</time>
      </trkpt>
      <trkpt lat="4.1635600" lon="-76.3200360">
        <ele>1026.4</ele>
        <time>2022-08-15T12:38:19Z</time>
      </trkpt>
      <trkpt lat="4.1636130" lon="-76.3200860">
        <ele>1025.6</ele>
        <time>2022-08-15T12:38:20Z</time>
      </trkpt>
      <trkpt lat="4.1636860" lon="-76.3201190">
        <ele>1025.6</ele>
        <time>2022-08-15T12:38:21Z</time>
      </trkpt>
      <trkpt lat="4.1637670" lon="-76.3201410">
        <ele>1024.8</ele>
        <time>2022-08-15T12:38:22Z</time>
      </trkpt>
      <trkpt lat="4.1638510" lon="-76.3201670">
        <ele>1023.8</ele>
        <time>2022-08-15T12:38:23Z</time>
      </trkpt>
      <trkpt lat="4.1639360" lon="-76.3202090">
        <ele>1023.0</ele>
        <time>2022-08-15T12:38:24Z</time>
      </trkpt>
      <trkpt lat="4.1640200" lon="-76.3202680">
        <ele>1022.4</ele>
        <time>2022-08-15T12:38:25Z</time>
      </trkpt>
      <trkpt lat="4.1641780" lon="-76.3204070">
        <ele>1020.8</ele>
        <time>2022-08-15T12:38:27Z</time>
      </trkpt>
      <trkpt lat="4.1643260" lon="-76.3205580">
        <ele>1019.2</ele>
        <time>2022-08-15T12:38:29Z</time>
      </trkpt>
      <trkpt lat="4.1644590" lon="-76.3207120">
        <ele>1017.6</ele>
        <time>2022-08-15T12:38:31Z</time>
      </trkpt>
      <trkpt lat="4.1645240" lon="-76.3207920">
        <ele>1016.6</ele>
        <time>2022-08-15T12:38:32Z</time>
      </trkpt>
      <trkpt lat="4.1645770" lon="-76.3208720">
        <ele>1015.4</ele>
        <time>2022-08-15T12:38:33Z</time>
      </trkpt>
      <trkpt lat="4.1646280" lon="-76.3209500">
        <ele>1014.2</ele>
        <time>2022-08-15T12:38:34Z</time>
      </trkpt>
      <trkpt lat="4.1647250" lon="-76.3210940">
        <ele>1013.0</ele>
        <time>2022-08-15T12:38:36Z</time>
      </trkpt>
      <trkpt lat="4.1647740" lon="-76.3211600">
        <ele>1012.8</ele>
        <time>2022-08-15T12:38:37Z</time>
      </trkpt>
      <trkpt lat="4.1649530" lon="-76.3213810">
        <ele>1012.6</ele>
        <time>2022-08-15T12:38:41Z</time>
      </trkpt>
      <trkpt lat="4.1652570" lon="-76.3216880">
        <ele>1013.4</ele>
        <time>2022-08-15T12:38:48Z</time>
      </trkpt>
      <trkpt lat="4.1653490" lon="-76.3217830">
        <ele>1014.0</ele>
        <time>2022-08-15T12:38:50Z</time>
      </trkpt>
      <trkpt lat="4.1654980" lon="-76.3219220">
        <ele>1015.2</ele>
        <time>2022-08-15T12:38:53Z</time>
      </trkpt>
      <trkpt lat="4.1656770" lon="-76.3220880">
        <ele>1015.4</ele>
        <time>2022-08-15T12:38:57Z</time>
      </trkpt>
      <trkpt lat="4.1660490" lon="-76.3224480">
        <ele>1015.4</ele>
        <time>2022-08-15T12:39:05Z</time>
      </trkpt>
      <trkpt lat="4.1662440" lon="-76.3226270">
        <ele>1015.4</ele>
        <time>2022-08-15T12:39:10Z</time>
      </trkpt>
      <trkpt lat="4.1663470" lon="-76.3227490">
        <ele>1015.6</ele>
        <time>2022-08-15T12:39:15Z</time>
      </trkpt>
      <trkpt lat="4.1663720" lon="-76.3227960">
        <ele>1016.2</ele>
        <time>2022-08-15T12:39:17Z</time>
      </trkpt>
      <trkpt lat="4.1664130" lon="-76.3228650">
        <ele>1017.4</ele>
        <time>2022-08-15T12:39:20Z</time>
      </trkpt>
      <trkpt lat="4.1664360" lon="-76.3229130">
        <ele>1018.4</ele>
        <time>2022-08-15T12:39:22Z</time>
      </trkpt>
      <trkpt lat="4.1664510" lon="-76.3229340">
        <ele>1018.8</ele>
        <time>2022-08-15T12:39:23Z</time>
      </trkpt>
      <trkpt lat="4.1664920" lon="-76.3229940">
        <ele>1019.8</ele>
        <time>2022-08-15T12:39:26Z</time>
      </trkpt>
      <trkpt lat="4.1665460" lon="-76.3230780">
        <ele>1020.8</ele>
        <time>2022-08-15T12:39:30Z</time>
      </trkpt>
      <trkpt lat="4.1665860" lon="-76.3231880">
        <ele>1022.0</ele>
        <time>2022-08-15T12:39:35Z</time>
      </trkpt>
      <trkpt lat="4.1665820" lon="-76.3232370">
        <ele>1022.4</ele>
        <time>2022-08-15T12:39:37Z</time>
      </trkpt>
      <trkpt lat="4.1665830" lon="-76.3232850">
        <ele>1023.0</ele>
        <time>2022-08-15T12:39:39Z</time>
      </trkpt>
      <trkpt lat="4.1665750" lon="-76.3233700">
        <ele>1023.8</ele>
        <time>2022-08-15T12:39:42Z</time>
      </trkpt>
      <trkpt lat="4.1665700" lon="-76.3233990">
        <ele>1024.2</ele>
        <time>2022-08-15T12:39:43Z</time>
      </trkpt>
      <trkpt lat="4.1665840" lon="-76.3235640">
        <ele>1017.8</ele>
        <time>2022-08-15T12:39:48Z</time>
      </trkpt>
      <trkpt lat="4.1667080" lon="-76.3236670">
        <ele>1025.8</ele>
        <time>2022-08-15T12:39:52Z</time>
      </trkpt>
      <trkpt lat="4.1669630" lon="-76.3237510">
        <ele>1025.8</ele>
        <time>2022-08-15T12:39:58Z</time>
      </trkpt>
      <trkpt lat="4.1670200" lon="-76.3237680">
        <ele>1025.8</ele>
        <time>2022-08-15T12:39:59Z</time>
      </trkpt>
      <trkpt lat="4.1672050" lon="-76.3238180">
        <ele>1026.0</ele>
        <time>2022-08-15T12:40:03Z</time>
      </trkpt>
      <trkpt lat="4.1672520" lon="-76.3238320">
        <ele>1026.0</ele>
        <time>2022-08-15T12:40:04Z</time>
      </trkpt>
      <trkpt lat="4.1673940" lon="-76.3238920">
        <ele>1026.0</ele>
        <time>2022-08-15T12:40:07Z</time>
      </trkpt>
      <trkpt lat="4.1674770" lon="-76.3239460">
        <ele>1026.0</ele>
        <time>2022-08-15T12:40:09Z</time>
      </trkpt>
      <trkpt lat="4.1677300" lon="-76.3241890">
        <ele>1026.2</ele>
        <time>2022-08-15T12:40:16Z</time>
      </trkpt>
      <trkpt lat="4.1677900" lon="-76.3242670">
        <ele>1026.2</ele>
        <time>2022-08-15T12:40:18Z</time>
      </trkpt>
      <trkpt lat="4.1680120" lon="-76.3245660">
        <ele>1026.4</ele>
        <time>2022-08-15T12:40:25Z</time>
      </trkpt>
      <trkpt lat="4.1680500" lon="-76.3246070">
        <ele>1026.4</ele>
        <time>2022-08-15T12:40:26Z</time>
      </trkpt>
      <trkpt lat="4.1682900" lon="-76.3249250">
        <ele>1026.4</ele>
        <time>2022-08-15T12:40:33Z</time>
      </trkpt>
      <trkpt lat="4.1683140" lon="-76.3249730">
        <ele>1026.4</ele>
        <time>2022-08-15T12:40:34Z</time>
      </trkpt>
      <trkpt lat="4.1683340" lon="-76.3250750">
        <ele>1026.4</ele>
        <time>2022-08-15T12:40:36Z</time>
      </trkpt>
      <trkpt lat="4.1683350" lon="-76.3251280">
        <ele>1026.4</ele>
        <time>2022-08-15T12:40:37Z</time>
      </trkpt>
      <trkpt lat="4.1683160" lon="-76.3252900">
        <ele>1026.6</ele>
        <time>2022-08-15T12:40:40Z</time>
      </trkpt>
      <trkpt lat="4.1683280" lon="-76.3254930">
        <ele>1026.6</ele>
        <time>2022-08-15T12:40:44Z</time>
      </trkpt>
      <trkpt lat="4.1683230" lon="-76.3255400">
        <ele>1026.6</ele>
        <time>2022-08-15T12:40:45Z</time>
      </trkpt>
      <trkpt lat="4.1682790" lon="-76.3256750">
        <ele>1026.6</ele>
        <time>2022-08-15T12:40:48Z</time>
      </trkpt>
      <trkpt lat="4.1682070" lon="-76.3259320">
        <ele>1027.4</ele>
        <time>2022-08-15T12:40:54Z</time>
      </trkpt>
      <trkpt lat="4.1681940" lon="-76.3260170">
        <ele>1028.2</ele>
        <time>2022-08-15T12:40:56Z</time>
      </trkpt>
      <trkpt lat="4.1681900" lon="-76.3260600">
        <ele>1028.4</ele>
        <time>2022-08-15T12:40:57Z</time>
      </trkpt>
      <trkpt lat="4.1681880" lon="-76.3261020">
        <ele>1028.6</ele>
        <time>2022-08-15T12:40:58Z</time>
      </trkpt>
      <trkpt lat="4.1681820" lon="-76.3262860">
        <ele>1029.6</ele>
        <time>2022-08-15T12:41:02Z</time>
      </trkpt>
      <trkpt lat="4.1681820" lon="-76.3263330">
        <ele>1030.0</ele>
        <time>2022-08-15T12:41:03Z</time>
      </trkpt>
      <trkpt lat="4.1681860" lon="-76.3264780">
        <ele>1030.8</ele>
        <time>2022-08-15T12:41:06Z</time>
      </trkpt>
      <trkpt lat="4.1681740" lon="-76.3266210">
        <ele>1031.0</ele>
        <time>2022-08-15T12:41:09Z</time>
      </trkpt>
      <trkpt lat="4.1681600" lon="-76.3266710">
        <ele>1031.0</ele>
        <time>2022-08-15T12:41:10Z</time>
      </trkpt>
      <trkpt lat="4.1680900" lon="-76.3268850">
        <ele>1031.2</ele>
        <time>2022-08-15T12:41:14Z</time>
      </trkpt>
      <trkpt lat="4.1680820" lon="-76.3269420">
        <ele>1031.2</ele>
        <time>2022-08-15T12:41:15Z</time>
      </trkpt>
      <trkpt lat="4.1680780" lon="-76.3269980">
        <ele>1031.2</ele>
        <time>2022-08-15T12:41:16Z</time>
      </trkpt>
      <trkpt lat="4.1681070" lon="-76.3271070">
        <ele>1031.2</ele>
        <time>2022-08-15T12:41:18Z</time>
      </trkpt>
      <trkpt lat="4.1681360" lon="-76.3271600">
        <ele>1031.2</ele>
        <time>2022-08-15T12:41:19Z</time>
      </trkpt>
      <trkpt lat="4.1682250" lon="-76.3273770">
        <ele>1031.0</ele>
        <time>2022-08-15T12:41:23Z</time>
      </trkpt>
      <trkpt lat="4.1682370" lon="-76.3274350">
        <ele>1031.0</ele>
        <time>2022-08-15T12:41:24Z</time>
      </trkpt>
      <trkpt lat="4.1682410" lon="-76.3274950">
        <ele>1030.8</ele>
        <time>2022-08-15T12:41:25Z</time>
      </trkpt>
      <trkpt lat="4.1682140" lon="-76.3276920">
        <ele>1030.4</ele>
        <time>2022-08-15T12:41:28Z</time>
      </trkpt>
      <trkpt lat="4.1681970" lon="-76.3278310">
        <ele>1030.2</ele>
        <time>2022-08-15T12:41:30Z</time>
      </trkpt>
      <trkpt lat="4.1682230" lon="-76.3279650">
        <ele>1030.0</ele>
        <time>2022-08-15T12:41:32Z</time>
      </trkpt>
      <trkpt lat="4.1682950" lon="-76.3280860">
        <ele>1029.8</ele>
        <time>2022-08-15T12:41:34Z</time>
      </trkpt>
      <trkpt lat="4.1683720" lon="-76.3281920">
        <ele>1029.2</ele>
        <time>2022-08-15T12:41:36Z</time>
      </trkpt>
      <trkpt lat="4.1684810" lon="-76.3283430">
        <ele>1028.8</ele>
        <time>2022-08-15T12:41:39Z</time>
      </trkpt>
      <trkpt lat="4.1686170" lon="-76.3285340">
        <ele>1028.6</ele>
        <time>2022-08-15T12:41:43Z</time>
      </trkpt>
      <trkpt lat="4.1686920" lon="-76.3286040">
        <ele>1028.6</ele>
        <time>2022-08-15T12:41:45Z</time>
      </trkpt>
      <trkpt lat="4.1687590" lon="-76.3286580">
        <ele>1028.6</ele>
        <time>2022-08-15T12:41:47Z</time>
      </trkpt>
      <trkpt lat="4.1689270" lon="-76.3287850">
        <ele>1029.6</ele>
        <time>2022-08-15T12:41:52Z</time>
      </trkpt>
      <trkpt lat="4.1689580" lon="-76.3288150">
        <ele>1029.8</ele>
        <time>2022-08-15T12:41:53Z</time>
      </trkpt>
      <trkpt lat="4.1690190" lon="-76.3288820">
        <ele>1030.2</ele>
        <time>2022-08-15T12:41:55Z</time>
      </trkpt>
      <trkpt lat="4.1691180" lon="-76.3289790">
        <ele>1031.2</ele>
        <time>2022-08-15T12:41:58Z</time>
      </trkpt>
      <trkpt lat="4.1691500" lon="-76.3290180">
        <ele>1031.4</ele>
        <time>2022-08-15T12:41:59Z</time>
      </trkpt>
      <trkpt lat="4.1692190" lon="-76.3290880">
        <ele>1031.8</ele>
        <time>2022-08-15T12:42:01Z</time>
      </trkpt>
      <trkpt lat="4.1692920" lon="-76.3291510">
        <ele>1031.8</ele>
        <time>2022-08-15T12:42:03Z</time>
      </trkpt>
      <trkpt lat="4.1694070" lon="-76.3292350">
        <ele>1032.0</ele>
        <time>2022-08-15T12:42:06Z</time>
      </trkpt>
      <trkpt lat="4.1697000" lon="-76.3294540">
        <ele>1032.4</ele>
        <time>2022-08-15T12:42:14Z</time>
      </trkpt>
      <trkpt lat="4.1698450" lon="-76.3295710">
        <ele>1033.2</ele>
        <time>2022-08-15T12:42:19Z</time>
      </trkpt>
      <trkpt lat="4.1698920" lon="-76.3296110">
        <ele>1033.6</ele>
        <time>2022-08-15T12:42:21Z</time>
      </trkpt>
      <trkpt lat="4.1700080" lon="-76.3297210">
        <ele>1034.6</ele>
        <time>2022-08-15T12:42:26Z</time>
      </trkpt>
      <trkpt lat="4.1700770" lon="-76.3297850">
        <ele>1035.4</ele>
        <time>2022-08-15T12:42:29Z</time>
      </trkpt>
      <trkpt lat="4.1701230" lon="-76.3298220">
        <ele>1035.8</ele>
        <time>2022-08-15T12:42:31Z</time>
      </trkpt>
      <trkpt lat="4.1702490" lon="-76.3299690">
        <ele>1037.0</ele>
        <time>2022-08-15T12:42:37Z</time>
      </trkpt>
      <trkpt lat="4.1703550" lon="-76.3301560">
        <ele>1038.0</ele>
        <time>2022-08-15T12:42:44Z</time>
      </trkpt>
      <trkpt lat="4.1703650" lon="-76.3301860">
        <ele>1038.0</ele>
        <time>2022-08-15T12:42:45Z</time>
      </trkpt>
      <trkpt lat="4.1703830" lon="-76.3303270">
        <ele>1039.0</ele>
        <time>2022-08-15T12:42:50Z</time>
      </trkpt>
      <trkpt lat="4.1703850" lon="-76.3303540">
        <ele>1039.2</ele>
        <time>2022-08-15T12:42:51Z</time>
      </trkpt>
      <trkpt lat="4.1703850" lon="-76.3304580">
        <ele>1039.8</ele>
        <time>2022-08-15T12:42:54Z</time>
      </trkpt>
      <trkpt lat="4.1703680" lon="-76.3305230">
        <ele>1040.0</ele>
        <time>2022-08-15T12:42:56Z</time>
      </trkpt>
      <trkpt lat="4.1702760" lon="-76.3307570">
        <ele>1041.2</ele>
        <time>2022-08-15T12:43:03Z</time>
      </trkpt>
      <trkpt lat="4.1702600" lon="-76.3307940">
        <ele>1041.2</ele>
        <time>2022-08-15T12:43:04Z</time>
      </trkpt>
      <trkpt lat="4.1701210" lon="-76.3310580">
        <ele>1041.4</ele>
        <time>2022-08-15T12:43:11Z</time>
      </trkpt>
      <trkpt lat="4.1700810" lon="-76.3311330">
        <ele>1041.4</ele>
        <time>2022-08-15T12:43:13Z</time>
      </trkpt>
      <trkpt lat="4.1700560" lon="-76.3312200">
        <ele>1041.4</ele>
        <time>2022-08-15T12:43:15Z</time>
      </trkpt>
      <trkpt lat="4.1700540" lon="-76.3312660">
        <ele>1041.6</ele>
        <time>2022-08-15T12:43:16Z</time>
      </trkpt>
      <trkpt lat="4.1700640" lon="-76.3313140">
        <ele>1041.8</ele>
        <time>2022-08-15T12:43:17Z</time>
      </trkpt>
      <trkpt lat="4.1701020" lon="-76.3314100">
        <ele>1041.6</ele>
        <time>2022-08-15T12:43:19Z</time>
      </trkpt>
      <trkpt lat="4.1701300" lon="-76.3314560">
        <ele>1041.8</ele>
        <time>2022-08-15T12:43:20Z</time>
      </trkpt>
      <trkpt lat="4.1702250" lon="-76.3315760">
        <ele>1041.8</ele>
        <time>2022-08-15T12:43:23Z</time>
      </trkpt>
      <trkpt lat="4.1703430" lon="-76.3316980">
        <ele>1041.8</ele>
        <time>2022-08-15T12:43:26Z</time>
      </trkpt>
      <trkpt lat="4.1703760" lon="-76.3317400">
        <ele>1041.8</ele>
        <time>2022-08-15T12:43:27Z</time>
      </trkpt>
      <trkpt lat="4.1704440" lon="-76.3318300">
        <ele>1041.8</ele>
        <time>2022-08-15T12:43:29Z</time>
      </trkpt>
      <trkpt lat="4.1704880" lon="-76.3319170">
        <ele>1041.8</ele>
        <time>2022-08-15T12:43:31Z</time>
      </trkpt>
      <trkpt lat="4.1705370" lon="-76.3319890">
        <ele>1042.0</ele>
        <time>2022-08-15T12:43:33Z</time>
      </trkpt>
      <trkpt lat="4.1705850" lon="-76.3320580">
        <ele>1042.0</ele>
        <time>2022-08-15T12:43:35Z</time>
      </trkpt>
      <trkpt lat="4.1706230" lon="-76.3321320">
        <ele>1042.4</ele>
        <time>2022-08-15T12:43:37Z</time>
      </trkpt>
      <trkpt lat="4.1707040" lon="-76.3323090">
        <ele>1043.4</ele>
        <time>2022-08-15T12:43:42Z</time>
      </trkpt>
      <trkpt lat="4.1707200" lon="-76.3323440">
        <ele>1043.6</ele>
        <time>2022-08-15T12:43:43Z</time>
      </trkpt>
      <trkpt lat="4.1708140" lon="-76.3324940">
        <ele>1044.6</ele>
        <time>2022-08-15T12:43:48Z</time>
      </trkpt>
      <trkpt lat="4.1708440" lon="-76.3325510">
        <ele>1045.2</ele>
        <time>2022-08-15T12:43:50Z</time>
      </trkpt>
      <trkpt lat="4.1708800" lon="-76.3326090">
        <ele>1045.8</ele>
        <time>2022-08-15T12:43:52Z</time>
      </trkpt>
      <trkpt lat="4.1709510" lon="-76.3326800">
        <ele>1046.4</ele>
        <time>2022-08-15T12:43:55Z</time>
      </trkpt>
      <trkpt lat="4.1710470" lon="-76.3327120">
        <ele>1046.8</ele>
        <time>2022-08-15T12:43:58Z</time>
      </trkpt>
      <trkpt lat="4.1711100" lon="-76.3327250">
        <ele>1047.2</ele>
        <time>2022-08-15T12:44:00Z</time>
      </trkpt>
      <trkpt lat="4.1712760" lon="-76.3327570">
        <ele>1047.8</ele>
        <time>2022-08-15T12:44:06Z</time>
      </trkpt>
      <trkpt lat="4.1713990" lon="-76.3328020">
        <ele>1049.0</ele>
        <time>2022-08-15T12:44:11Z</time>
      </trkpt>
      <trkpt lat="4.1714670" lon="-76.3328420">
        <ele>1049.6</ele>
        <time>2022-08-15T12:44:14Z</time>
      </trkpt>
      <trkpt lat="4.1715480" lon="-76.3329100">
        <ele>1050.2</ele>
        <time>2022-08-15T12:44:18Z</time>
      </trkpt>
      <trkpt lat="4.1716460" lon="-76.3330010">
        <ele>1051.0</ele>
        <time>2022-08-15T12:44:23Z</time>
      </trkpt>
      <trkpt lat="4.1716760" lon="-76.3330410">
        <ele>1051.4</ele>
        <time>2022-08-15T12:44:25Z</time>
      </trkpt>
      <trkpt lat="4.1717490" lon="-76.3332070">
        <ele>1052.6</ele>
        <time>2022-08-15T12:44:32Z</time>
      </trkpt>
      <trkpt lat="4.1717600" lon="-76.3333770">
        <ele>1053.8</ele>
        <time>2022-08-15T12:44:38Z</time>
      </trkpt>
      <trkpt lat="4.1717500" lon="-76.3334310">
        <ele>1054.0</ele>
        <time>2022-08-15T12:44:40Z</time>
      </trkpt>
      <trkpt lat="4.1716750" lon="-76.3336090">
        <ele>1054.8</ele>
        <time>2022-08-15T12:44:47Z</time>
      </trkpt>
      <trkpt lat="4.1716650" lon="-76.3336370">
        <ele>1055.0</ele>
        <time>2022-08-15T12:44:48Z</time>
      </trkpt>
      <trkpt lat="4.1716360" lon="-76.3338220">
        <ele>1055.8</ele>
        <time>2022-08-15T12:44:55Z</time>
      </trkpt>
      <trkpt lat="4.1715960" lon="-76.3340320">
        <ele>1056.6</ele>
        <time>2022-08-15T12:45:03Z</time>
      </trkpt>
      <trkpt lat="4.1715890" lon="-76.3340660">
        <ele>1056.8</ele>
        <time>2022-08-15T12:45:04Z</time>
      </trkpt>
      <trkpt lat="4.1716050" lon="-76.3341940">
        <ele>1057.6</ele>
        <time>2022-08-15T12:45:09Z</time>
      </trkpt>
      <trkpt lat="4.1716300" lon="-76.3342270">
        <ele>1057.8</ele>
        <time>2022-08-15T12:45:11Z</time>
      </trkpt>
      <trkpt lat="4.1716840" lon="-76.3342810">
        <ele>1058.2</ele>
        <time>2022-08-15T12:45:14Z</time>
      </trkpt>
      <trkpt lat="4.1717040" lon="-76.3343000">
        <ele>1058.4</ele>
        <time>2022-08-15T12:45:15Z</time>
      </trkpt>
      <trkpt lat="4.1717640" lon="-76.3343600">
        <ele>1059.0</ele>
        <time>2022-08-15T12:45:18Z</time>
      </trkpt>
      <trkpt lat="4.1718030" lon="-76.3344500">
        <ele>1059.8</ele>
        <time>2022-08-15T12:45:21Z</time>
      </trkpt>
      <trkpt lat="4.1718080" lon="-76.3345100">
        <ele>1060.2</ele>
        <time>2022-08-15T12:45:23Z</time>
      </trkpt>
      <trkpt lat="4.1717790" lon="-76.3345990">
        <ele>1061.0</ele>
        <time>2022-08-15T12:45:26Z</time>
      </trkpt>
      <trkpt lat="4.1717420" lon="-76.3346580">
        <ele>1061.4</ele>
        <time>2022-08-15T12:45:28Z</time>
      </trkpt>
      <trkpt lat="4.1716190" lon="-76.3348040">
        <ele>1061.8</ele>
        <time>2022-08-15T12:45:33Z</time>
      </trkpt>
      <trkpt lat="4.1714570" lon="-76.3350090">
        <ele>1062.0</ele>
        <time>2022-08-15T12:45:39Z</time>
      </trkpt>
      <trkpt lat="4.1711790" lon="-76.3353590">
        <ele>1062.4</ele>
        <time>2022-08-15T12:45:49Z</time>
      </trkpt>
      <trkpt lat="4.1711510" lon="-76.3353930">
        <ele>1062.4</ele>
        <time>2022-08-15T12:45:50Z</time>
      </trkpt>
      <trkpt lat="4.1709230" lon="-76.3356340">
        <ele>1062.6</ele>
        <time>2022-08-15T12:45:57Z</time>
      </trkpt>
      <trkpt lat="4.1707870" lon="-76.3357700">
        <ele>1062.6</ele>
        <time>2022-08-15T12:46:01Z</time>
      </trkpt>
      <trkpt lat="4.1706750" lon="-76.3358940">
        <ele>1062.6</ele>
        <time>2022-08-15T12:46:04Z</time>
      </trkpt>
      <trkpt lat="4.1706410" lon="-76.3359420">
        <ele>1062.6</ele>
        <time>2022-08-15T12:46:05Z</time>
      </trkpt>
      <trkpt lat="4.1705100" lon="-76.3361550">
        <ele>1062.4</ele>
        <time>2022-08-15T12:46:09Z</time>
      </trkpt>
      <trkpt lat="4.1702750" lon="-76.3364280">
        <ele>1061.4</ele>
        <time>2022-08-15T12:46:15Z</time>
      </trkpt>
      <trkpt lat="4.1702290" lon="-76.3364640">
        <ele>1061.4</ele>
        <time>2022-08-15T12:46:16Z</time>
      </trkpt>
      <trkpt lat="4.1700790" lon="-76.3365450">
        <ele>1061.2</ele>
        <time>2022-08-15T12:46:19Z</time>
      </trkpt>
      <trkpt lat="4.1699290" lon="-76.3366080">
        <ele>1061.2</ele>
        <time>2022-08-15T12:46:22Z</time>
      </trkpt>
      <trkpt lat="4.1698590" lon="-76.3366780">
        <ele>1061.2</ele>
        <time>2022-08-15T12:46:24Z</time>
      </trkpt>
      <trkpt lat="4.1698870" lon="-76.3367500">
        <ele>1061.2</ele>
        <time>2022-08-15T12:46:26Z</time>
      </trkpt>
      <trkpt lat="4.1700380" lon="-76.3369410">
        <ele>1061.6</ele>
        <time>2022-08-15T12:46:33Z</time>
      </trkpt>
      <trkpt lat="4.1700830" lon="-76.3370090">
        <ele>1062.6</ele>
        <time>2022-08-15T12:46:36Z</time>
      </trkpt>
      <trkpt lat="4.1701170" lon="-76.3370680">
        <ele>1063.4</ele>
        <time>2022-08-15T12:46:39Z</time>
      </trkpt>
      <trkpt lat="4.1701240" lon="-76.3370910">
        <ele>1063.8</ele>
        <time>2022-08-15T12:46:40Z</time>
      </trkpt>
      <trkpt lat="4.1701290" lon="-76.3372060">
        <ele>1065.0</ele>
        <time>2022-08-15T12:46:45Z</time>
      </trkpt>
      <trkpt lat="4.1700830" lon="-76.3373060">
        <ele>1066.2</ele>
        <time>2022-08-15T12:46:50Z</time>
      </trkpt>
      <trkpt lat="4.1700710" lon="-76.3373240">
        <ele>1066.4</ele>
        <time>2022-08-15T12:46:51Z</time>
      </trkpt>
      <trkpt lat="4.1700060" lon="-76.3373850">
        <ele>1067.4</ele>
        <time>2022-08-15T12:46:55Z</time>
      </trkpt>
      <trkpt lat="4.1699370" lon="-76.3374360">
        <ele>1068.2</ele>
        <time>2022-08-15T12:46:59Z</time>
      </trkpt>
      <trkpt lat="4.1699170" lon="-76.3374500">
        <ele>1068.4</ele>
        <time>2022-08-15T12:47:00Z</time>
      </trkpt>
      <trkpt lat="4.1698010" lon="-76.3375610">
        <ele>1069.6</ele>
        <time>2022-08-15T12:47:07Z</time>
      </trkpt>
      <trkpt lat="4.1697520" lon="-76.3376160">
        <ele>1070.0</ele>
        <time>2022-08-15T12:47:10Z</time>
      </trkpt>
      <trkpt lat="4.1697000" lon="-76.3376940">
        <ele>1070.8</ele>
        <time>2022-08-15T12:47:14Z</time>
      </trkpt>
      <trkpt lat="4.1696340" lon="-76.3377890">
        <ele>1071.6</ele>
        <time>2022-08-15T12:47:19Z</time>
      </trkpt>
      <trkpt lat="4.1696190" lon="-76.3378070">
        <ele>1071.8</ele>
        <time>2022-08-15T12:47:20Z</time>
      </trkpt>
      <trkpt lat="4.1695280" lon="-76.3379580">
        <ele>1073.0</ele>
        <time>2022-08-15T12:47:27Z</time>
      </trkpt>
      <trkpt lat="4.1695150" lon="-76.3379770">
        <ele>1073.0</ele>
        <time>2022-08-15T12:47:28Z</time>
      </trkpt>
      <trkpt lat="4.1694300" lon="-76.3380790">
        <ele>1074.0</ele>
        <time>2022-08-15T12:47:34Z</time>
      </trkpt>
      <trkpt lat="4.1693810" lon="-76.3381330">
        <ele>1074.6</ele>
        <time>2022-08-15T12:47:37Z</time>
      </trkpt>
      <trkpt lat="4.1693430" lon="-76.3381690">
        <ele>1075.2</ele>
        <time>2022-08-15T12:47:39Z</time>
      </trkpt>
      <trkpt lat="4.1692420" lon="-76.3382820">
        <ele>1076.2</ele>
        <time>2022-08-15T12:47:44Z</time>
      </trkpt>
      <trkpt lat="4.1692230" lon="-76.3383070">
        <ele>1076.4</ele>
        <time>2022-08-15T12:47:45Z</time>
      </trkpt>
      <trkpt lat="4.1691150" lon="-76.3385300">
        <ele>1076.8</ele>
        <time>2022-08-15T12:47:53Z</time>
      </trkpt>
      <trkpt lat="4.1690860" lon="-76.3386060">
        <ele>1077.2</ele>
        <time>2022-08-15T12:47:56Z</time>
      </trkpt>
      <trkpt lat="4.1690520" lon="-76.3387050">
        <ele>1077.8</ele>
        <time>2022-08-15T12:48:00Z</time>
      </trkpt>
      <trkpt lat="4.1690300" lon="-76.3387500">
        <ele>1078.2</ele>
        <time>2022-08-15T12:48:02Z</time>
      </trkpt>
      <trkpt lat="4.1689680" lon="-76.3388830">
        <ele>1079.4</ele>
        <time>2022-08-15T12:48:08Z</time>
      </trkpt>
      <trkpt lat="4.1689000" lon="-76.3389850">
        <ele>1080.4</ele>
        <time>2022-08-15T12:48:13Z</time>
      </trkpt>
      <trkpt lat="4.1688110" lon="-76.3391180">
        <ele>1081.8</ele>
        <time>2022-08-15T12:48:19Z</time>
      </trkpt>
      <trkpt lat="4.1687300" lon="-76.3391920">
        <ele>1082.4</ele>
        <time>2022-08-15T12:48:23Z</time>
      </trkpt>
      <trkpt lat="4.1686460" lon="-76.3392340">
        <ele>1083.0</ele>
        <time>2022-08-15T12:48:26Z</time>
      </trkpt>
      <trkpt lat="4.1684770" lon="-76.3393180">
        <ele>1083.4</ele>
        <time>2022-08-15T12:48:31Z</time>
      </trkpt>
      <trkpt lat="4.1684310" lon="-76.3393920">
        <ele>1083.4</ele>
        <time>2022-08-15T12:48:33Z</time>
      </trkpt>
      <trkpt lat="4.1684220" lon="-76.3394340">
        <ele>1083.4</ele>
        <time>2022-08-15T12:48:34Z</time>
      </trkpt>
      <trkpt lat="4.1684250" lon="-76.3394750">
        <ele>1083.4</ele>
        <time>2022-08-15T12:48:35Z</time>
      </trkpt>
      <trkpt lat="4.1684610" lon="-76.3395720">
        <ele>1083.6</ele>
        <time>2022-08-15T12:48:38Z</time>
      </trkpt>
      <trkpt lat="4.1685150" lon="-76.3397150">
        <ele>1083.6</ele>
        <time>2022-08-15T12:48:44Z</time>
      </trkpt>
      <trkpt lat="4.1685150" lon="-76.3398120">
        <ele>1084.0</ele>
        <time>2022-08-15T12:48:48Z</time>
      </trkpt>
      <trkpt lat="4.1684980" lon="-76.3398830">
        <ele>1085.0</ele>
        <time>2022-08-15T12:48:51Z</time>
      </trkpt>
      <trkpt lat="4.1684880" lon="-76.3399050">
        <ele>1085.2</ele>
        <time>2022-08-15T12:48:52Z</time>
      </trkpt>
      <trkpt lat="4.1684110" lon="-76.3400030">
        <ele>1086.4</ele>
        <time>2022-08-15T12:48:57Z</time>
      </trkpt>
      <trkpt lat="4.1683910" lon="-76.3400190">
        <ele>1086.8</ele>
        <time>2022-08-15T12:48:58Z</time>
      </trkpt>
      <trkpt lat="4.1682930" lon="-76.3400810">
        <ele>1087.6</ele>
        <time>2022-08-15T12:49:02Z</time>
      </trkpt>
      <trkpt lat="4.1681770" lon="-76.3401250">
        <ele>1088.2</ele>
        <time>2022-08-15T12:49:06Z</time>
      </trkpt>
      <trkpt lat="4.1680330" lon="-76.3401410">
        <ele>1088.6</ele>
        <time>2022-08-15T12:49:10Z</time>
      </trkpt>
      <trkpt lat="4.1679600" lon="-76.3401480">
        <ele>1088.8</ele>
        <time>2022-08-15T12:49:12Z</time>
      </trkpt>
      <trkpt lat="4.1677480" lon="-76.3402080">
        <ele>1089.0</ele>
        <time>2022-08-15T12:49:17Z</time>
      </trkpt>
      <trkpt lat="4.1677090" lon="-76.3402270">
        <ele>1089.0</ele>
        <time>2022-08-15T12:49:18Z</time>
      </trkpt>
      <trkpt lat="4.1675110" lon="-76.3403410">
        <ele>1089.0</ele>
        <time>2022-08-15T12:49:23Z</time>
      </trkpt>
      <trkpt lat="4.1674280" lon="-76.3403920">
        <ele>1088.8</ele>
        <time>2022-08-15T12:49:25Z</time>
      </trkpt>
      <trkpt lat="4.1673930" lon="-76.3404240">
        <ele>1088.8</ele>
        <time>2022-08-15T12:49:26Z</time>
      </trkpt>
      <trkpt lat="4.1673670" lon="-76.3404600">
        <ele>1088.8</ele>
        <time>2022-08-15T12:49:27Z</time>
      </trkpt>
      <trkpt lat="4.1673260" lon="-76.3405390">
        <ele>1088.8</ele>
        <time>2022-08-15T12:49:29Z</time>
      </trkpt>
      <trkpt lat="4.1672930" lon="-76.3406250">
        <ele>1088.8</ele>
        <time>2022-08-15T12:49:31Z</time>
      </trkpt>
      <trkpt lat="4.1672760" lon="-76.3406650">
        <ele>1088.8</ele>
        <time>2022-08-15T12:49:32Z</time>
      </trkpt>
      <trkpt lat="4.1671950" lon="-76.3407780">
        <ele>1088.8</ele>
        <time>2022-08-15T12:49:35Z</time>
      </trkpt>
      <trkpt lat="4.1671590" lon="-76.3408080">
        <ele>1088.8</ele>
        <time>2022-08-15T12:49:36Z</time>
      </trkpt>
      <trkpt lat="4.1671190" lon="-76.3408330">
        <ele>1088.8</ele>
        <time>2022-08-15T12:49:37Z</time>
      </trkpt>
      <trkpt lat="4.1670410" lon="-76.3408760">
        <ele>1088.8</ele>
        <time>2022-08-15T12:49:39Z</time>
      </trkpt>
      <trkpt lat="4.1669530" lon="-76.3409050">
        <ele>1088.8</ele>
        <time>2022-08-15T12:49:41Z</time>
      </trkpt>
      <trkpt lat="4.1666740" lon="-76.3409790">
        <ele>1089.2</ele>
        <time>2022-08-15T12:49:47Z</time>
      </trkpt>
      <trkpt lat="4.1665210" lon="-76.3410270">
        <ele>1089.2</ele>
        <time>2022-08-15T12:49:50Z</time>
      </trkpt>
      <trkpt lat="4.1664140" lon="-76.3410730">
        <ele>1089.4</ele>
        <time>2022-08-15T12:49:52Z</time>
      </trkpt>
      <trkpt lat="4.1663660" lon="-76.3411040">
        <ele>1089.4</ele>
        <time>2022-08-15T12:49:53Z</time>
      </trkpt>
      <trkpt lat="4.1663220" lon="-76.3411390">
        <ele>1089.4</ele>
        <time>2022-08-15T12:49:54Z</time>
      </trkpt>
      <trkpt lat="4.1661990" lon="-76.3412800">
        <ele>1089.4</ele>
        <time>2022-08-15T12:49:57Z</time>
      </trkpt>
      <trkpt lat="4.1660520" lon="-76.3414520">
        <ele>1089.0</ele>
        <time>2022-08-15T12:50:00Z</time>
      </trkpt>
      <trkpt lat="4.1659640" lon="-76.3415910">
        <ele>1088.6</ele>
        <time>2022-08-15T12:50:02Z</time>
      </trkpt>
      <trkpt lat="4.1659010" lon="-76.3417510">
        <ele>1088.2</ele>
        <time>2022-08-15T12:50:04Z</time>
      </trkpt>
      <trkpt lat="4.1658530" lon="-76.3419150">
        <ele>1087.2</ele>
        <time>2022-08-15T12:50:06Z</time>
      </trkpt>
      <trkpt lat="4.1658260" lon="-76.3419940">
        <ele>1086.4</ele>
        <time>2022-08-15T12:50:07Z</time>
      </trkpt>
      <trkpt lat="4.1657950" lon="-76.3420720">
        <ele>1085.6</ele>
        <time>2022-08-15T12:50:08Z</time>
      </trkpt>
      <trkpt lat="4.1657550" lon="-76.3421470">
        <ele>1084.8</ele>
        <time>2022-08-15T12:50:09Z</time>
      </trkpt>
      <trkpt lat="4.1657040" lon="-76.3422130">
        <ele>1084.0</ele>
        <time>2022-08-15T12:50:10Z</time>
      </trkpt>
      <trkpt lat="4.1656420" lon="-76.3422760">
        <ele>1083.4</ele>
        <time>2022-08-15T12:50:11Z</time>
      </trkpt>
      <trkpt lat="4.1655740" lon="-76.3423350">
        <ele>1082.8</ele>
        <time>2022-08-15T12:50:12Z</time>
      </trkpt>
      <trkpt lat="4.1654210" lon="-76.3424360">
        <ele>1081.0</ele>
        <time>2022-08-15T12:50:14Z</time>
      </trkpt>
      <trkpt lat="4.1653340" lon="-76.3424800">
        <ele>1080.0</ele>
        <time>2022-08-15T12:50:15Z</time>
      </trkpt>
      <trkpt lat="4.1652450" lon="-76.3425170">
        <ele>1079.0</ele>
        <time>2022-08-15T12:50:16Z</time>
      </trkpt>
      <trkpt lat="4.1651680" lon="-76.3425510">
        <ele>1078.0</ele>
        <time>2022-08-15T12:50:17Z</time>
      </trkpt>
      <trkpt lat="4.1650570" lon="-76.3426410">
        <ele>1077.0</ele>
        <time>2022-08-15T12:50:19Z</time>
      </trkpt>
      <trkpt lat="4.1650110" lon="-76.3426870">
        <ele>1075.8</ele>
        <time>2022-08-15T12:50:20Z</time>
      </trkpt>
      <trkpt lat="4.1649650" lon="-76.3427410">
        <ele>1074.8</ele>
        <time>2022-08-15T12:50:21Z</time>
      </trkpt>
      <trkpt lat="4.1648640" lon="-76.3428620">
        <ele>1073.0</ele>
        <time>2022-08-15T12:50:23Z</time>
      </trkpt>
      <trkpt lat="4.1648010" lon="-76.3429150">
        <ele>1072.0</ele>
        <time>2022-08-15T12:50:24Z</time>
      </trkpt>
      <trkpt lat="4.1647240" lon="-76.3429650">
        <ele>1071.2</ele>
        <time>2022-08-15T12:50:25Z</time>
      </trkpt>
      <trkpt lat="4.1644740" lon="-76.3430890">
        <ele>1069.8</ele>
        <time>2022-08-15T12:50:28Z</time>
      </trkpt>
      <trkpt lat="4.1643970" lon="-76.3431320">
        <ele>1069.2</ele>
        <time>2022-08-15T12:50:29Z</time>
      </trkpt>
      <trkpt lat="4.1643260" lon="-76.3431830">
        <ele>1068.6</ele>
        <time>2022-08-15T12:50:30Z</time>
      </trkpt>
      <trkpt lat="4.1641850" lon="-76.3432950">
        <ele>1067.0</ele>
        <time>2022-08-15T12:50:32Z</time>
      </trkpt>
      <trkpt lat="4.1641180" lon="-76.3433490">
        <ele>1066.0</ele>
        <time>2022-08-15T12:50:33Z</time>
      </trkpt>
      <trkpt lat="4.1640600" lon="-76.3434030">
        <ele>1064.8</ele>
        <time>2022-08-15T12:50:34Z</time>
      </trkpt>
      <trkpt lat="4.1640030" lon="-76.3434570">
        <ele>1064.4</ele>
        <time>2022-08-15T12:50:35Z</time>
      </trkpt>
      <trkpt lat="4.1639430" lon="-76.3435080">
        <ele>1064.2</ele>
        <time>2022-08-15T12:50:36Z</time>
      </trkpt>
      <trkpt lat="4.1637300" lon="-76.3436890">
        <ele>1064.0</ele>
        <time>2022-08-15T12:50:40Z</time>
      </trkpt>
      <trkpt lat="4.1636840" lon="-76.3437320">
        <ele>1063.8</ele>
        <time>2022-08-15T12:50:41Z</time>
      </trkpt>
      <trkpt lat="4.1635320" lon="-76.3438800">
        <ele>1064.2</ele>
        <time>2022-08-15T12:50:45Z</time>
      </trkpt>
      <trkpt lat="4.1634990" lon="-76.3439030">
        <ele>1064.4</ele>
        <time>2022-08-15T12:50:46Z</time>
      </trkpt>
      <trkpt lat="4.1633900" lon="-76.3439770">
        <ele>1065.4</ele>
        <time>2022-08-15T12:50:50Z</time>
      </trkpt>
      <trkpt lat="4.1633690" lon="-76.3439900">
        <ele>1066.0</ele>
        <time>2022-08-15T12:50:51Z</time>
      </trkpt>
      <trkpt lat="4.1633140" lon="-76.3440240">
        <ele>1067.4</ele>
        <time>2022-08-15T12:50:54Z</time>
      </trkpt>
      <trkpt lat="4.1632660" lon="-76.3440500">
        <ele>1068.8</ele>
        <time>2022-08-15T12:50:57Z</time>
      </trkpt>
      <trkpt lat="4.1632480" lon="-76.3440530">
        <ele>1069.2</ele>
        <time>2022-08-15T12:50:58Z</time>
      </trkpt>
      <trkpt lat="4.1632150" lon="-76.3440580">
        <ele>1069.8</ele>
        <time>2022-08-15T12:51:00Z</time>
      </trkpt>
      <trkpt lat="4.1631450" lon="-76.3440750">
        <ele>1070.8</ele>
        <time>2022-08-15T12:51:04Z</time>
      </trkpt>
      <trkpt lat="4.1631270" lon="-76.3440810">
        <ele>1071.0</ele>
        <time>2022-08-15T12:51:05Z</time>
      </trkpt>
      <trkpt lat="4.1630170" lon="-76.3441190">
        <ele>1072.2</ele>
        <time>2022-08-15T12:51:11Z</time>
      </trkpt>
      <trkpt lat="4.1629620" lon="-76.3441460">
        <ele>1073.0</ele>
        <time>2022-08-15T12:51:14Z</time>
      </trkpt>
      <trkpt lat="4.1629240" lon="-76.3441650">
        <ele>1073.4</ele>
        <time>2022-08-15T12:51:16Z</time>
      </trkpt>
      <trkpt lat="4.1628430" lon="-76.3442270">
        <ele>1074.6</ele>
        <time>2022-08-15T12:51:21Z</time>
      </trkpt>
      <trkpt lat="4.1627800" lon="-76.3442790">
        <ele>1075.6</ele>
        <time>2022-08-15T12:51:25Z</time>
      </trkpt>
      <trkpt lat="4.1626950" lon="-76.3443250">
        <ele>1076.8</ele>
        <time>2022-08-15T12:51:30Z</time>
      </trkpt>
      <trkpt lat="4.1626510" lon="-76.3443480">
        <ele>1077.4</ele>
        <time>2022-08-15T12:51:32Z</time>
      </trkpt>
      <trkpt lat="4.1625890" lon="-76.3443680">
        <ele>1078.0</ele>
        <time>2022-08-15T12:51:34Z</time>
      </trkpt>
      <trkpt lat="4.1625080" lon="-76.3443950">
        <ele>1078.2</ele>
        <time>2022-08-15T12:51:36Z</time>
      </trkpt>
      <trkpt lat="4.1624600" lon="-76.3444070">
        <ele>1078.2</ele>
        <time>2022-08-15T12:51:37Z</time>
      </trkpt>
      <trkpt lat="4.1623100" lon="-76.3444600">
        <ele>1078.2</ele>
        <time>2022-08-15T12:51:40Z</time>
      </trkpt>
      <trkpt lat="4.1621850" lon="-76.3445150">
        <ele>1078.2</ele>
        <time>2022-08-15T12:51:42Z</time>
      </trkpt>
      <trkpt lat="4.1620550" lon="-76.3445950">
        <ele>1078.0</ele>
        <time>2022-08-15T12:51:44Z</time>
      </trkpt>
      <trkpt lat="4.1619990" lon="-76.3446470">
        <ele>1077.6</ele>
        <time>2022-08-15T12:51:45Z</time>
      </trkpt>
      <trkpt lat="4.1619020" lon="-76.3447850">
        <ele>1076.8</ele>
        <time>2022-08-15T12:51:47Z</time>
      </trkpt>
      <trkpt lat="4.1618570" lon="-76.3448540">
        <ele>1076.0</ele>
        <time>2022-08-15T12:51:48Z</time>
      </trkpt>
      <trkpt lat="4.1618250" lon="-76.3449270">
        <ele>1075.6</ele>
        <time>2022-08-15T12:51:49Z</time>
      </trkpt>
      <trkpt lat="4.1618010" lon="-76.3450100">
        <ele>1075.0</ele>
        <time>2022-08-15T12:51:50Z</time>
      </trkpt>
      <trkpt lat="4.1617840" lon="-76.3450910">
        <ele>1074.4</ele>
        <time>2022-08-15T12:51:51Z</time>
      </trkpt>
      <trkpt lat="4.1617720" lon="-76.3451700">
        <ele>1073.6</ele>
        <time>2022-08-15T12:51:52Z</time>
      </trkpt>
      <trkpt lat="4.1617470" lon="-76.3454220">
        <ele>1072.4</ele>
        <time>2022-08-15T12:51:55Z</time>
      </trkpt>
      <trkpt lat="4.1617380" lon="-76.3455030">
        <ele>1071.6</ele>
        <time>2022-08-15T12:51:56Z</time>
      </trkpt>
      <trkpt lat="4.1617300" lon="-76.3455830">
        <ele>1071.2</ele>
        <time>2022-08-15T12:51:57Z</time>
      </trkpt>
      <trkpt lat="4.1616990" lon="-76.3459100">
        <ele>1070.2</ele>
        <time>2022-08-15T12:52:01Z</time>
      </trkpt>
      <trkpt lat="4.1616950" lon="-76.3459910">
        <ele>1070.2</ele>
        <time>2022-08-15T12:52:02Z</time>
      </trkpt>
      <trkpt lat="4.1616950" lon="-76.3460700">
        <ele>1070.2</ele>
        <time>2022-08-15T12:52:03Z</time>
      </trkpt>
      <trkpt lat="4.1616630" lon="-76.3464140">
        <ele>1070.0</ele>
        <time>2022-08-15T12:52:08Z</time>
      </trkpt>
      <trkpt lat="4.1616510" lon="-76.3464820">
        <ele>1070.0</ele>
        <time>2022-08-15T12:52:09Z</time>
      </trkpt>
      <trkpt lat="4.1616230" lon="-76.3466110">
        <ele>1070.0</ele>
        <time>2022-08-15T12:52:11Z</time>
      </trkpt>
      <trkpt lat="4.1615420" lon="-76.3468480">
        <ele>1070.2</ele>
        <time>2022-08-15T12:52:15Z</time>
      </trkpt>
      <trkpt lat="4.1614230" lon="-76.3471150">
        <ele>1070.8</ele>
        <time>2022-08-15T12:52:20Z</time>
      </trkpt>
      <trkpt lat="4.1613010" lon="-76.3472990">
        <ele>1071.2</ele>
        <time>2022-08-15T12:52:24Z</time>
      </trkpt>
      <trkpt lat="4.1612530" lon="-76.3473960">
        <ele>1071.4</ele>
        <time>2022-08-15T12:52:26Z</time>
      </trkpt>
      <trkpt lat="4.1611130" lon="-76.3476220">
        <ele>1072.0</ele>
        <time>2022-08-15T12:52:31Z</time>
      </trkpt>
      <trkpt lat="4.1610900" lon="-76.3476640">
        <ele>1072.0</ele>
        <time>2022-08-15T12:52:32Z</time>
      </trkpt>
      <trkpt lat="4.1609900" lon="-76.3477780">
        <ele>1072.4</ele>
        <time>2022-08-15T12:52:35Z</time>
      </trkpt>
      <trkpt lat="4.1609620" lon="-76.3478150">
        <ele>1072.4</ele>
        <time>2022-08-15T12:52:36Z</time>
      </trkpt>
      <trkpt lat="4.1608990" lon="-76.3478950">
        <ele>1072.8</ele>
        <time>2022-08-15T12:52:38Z</time>
      </trkpt>
      <trkpt lat="4.1608120" lon="-76.3480060">
        <ele>1073.2</ele>
        <time>2022-08-15T12:52:41Z</time>
      </trkpt>
      <trkpt lat="4.1607800" lon="-76.3480360">
        <ele>1073.4</ele>
        <time>2022-08-15T12:52:42Z</time>
      </trkpt>
      <trkpt lat="4.1607490" lon="-76.3480650">
        <ele>1073.6</ele>
        <time>2022-08-15T12:52:43Z</time>
      </trkpt>
      <trkpt lat="4.1606110" lon="-76.3481630">
        <ele>1074.4</ele>
        <time>2022-08-15T12:52:47Z</time>
      </trkpt>
      <trkpt lat="4.1605850" lon="-76.3481880">
        <ele>1074.6</ele>
        <time>2022-08-15T12:52:48Z</time>
      </trkpt>
      <trkpt lat="4.1604180" lon="-76.3482960">
        <ele>1075.4</ele>
        <time>2022-08-15T12:52:53Z</time>
      </trkpt>
      <trkpt lat="4.1603130" lon="-76.3483550">
        <ele>1076.2</ele>
        <time>2022-08-15T12:52:56Z</time>
      </trkpt>
      <trkpt lat="4.1602020" lon="-76.3484000">
        <ele>1076.6</ele>
        <time>2022-08-15T12:52:59Z</time>
      </trkpt>
      <trkpt lat="4.1599920" lon="-76.3485110">
        <ele>1077.2</ele>
        <time>2022-08-15T12:53:05Z</time>
      </trkpt>
      <trkpt lat="4.1598180" lon="-76.3486530">
        <ele>1077.6</ele>
        <time>2022-08-15T12:53:11Z</time>
      </trkpt>
      <trkpt lat="4.1597850" lon="-76.3486740">
        <ele>1077.8</ele>
        <time>2022-08-15T12:53:12Z</time>
      </trkpt>
      <trkpt lat="4.1596370" lon="-76.3487500">
        <ele>1078.6</ele>
        <time>2022-08-15T12:53:16Z</time>
      </trkpt>
      <trkpt lat="4.1594040" lon="-76.3488240">
        <ele>1079.4</ele>
        <time>2022-08-15T12:53:22Z</time>
      </trkpt>
      <trkpt lat="4.1593090" lon="-76.3488420">
        <ele>1079.6</ele>
        <time>2022-08-15T12:53:24Z</time>
      </trkpt>
      <trkpt lat="4.1592660" lon="-76.3488450">
        <ele>1079.8</ele>
        <time>2022-08-15T12:53:25Z</time>
      </trkpt>
      <trkpt lat="4.1591770" lon="-76.3488510">
        <ele>1079.8</ele>
        <time>2022-08-15T12:53:27Z</time>
      </trkpt>
      <trkpt lat="4.1591330" lon="-76.3488530">
        <ele>1080.0</ele>
        <time>2022-08-15T12:53:28Z</time>
      </trkpt>
      <trkpt lat="4.1588770" lon="-76.3488990">
        <ele>1080.2</ele>
        <time>2022-08-15T12:53:34Z</time>
      </trkpt>
      <trkpt lat="4.1588350" lon="-76.3489060">
        <ele>1080.2</ele>
        <time>2022-08-15T12:53:35Z</time>
      </trkpt>
      <trkpt lat="4.1586610" lon="-76.3489290">
        <ele>1080.4</ele>
        <time>2022-08-15T12:53:39Z</time>
      </trkpt>
      <trkpt lat="4.1585680" lon="-76.3489190">
        <ele>1080.6</ele>
        <time>2022-08-15T12:53:41Z</time>
      </trkpt>
      <trkpt lat="4.1584670" lon="-76.3489070">
        <ele>1080.6</ele>
        <time>2022-08-15T12:53:43Z</time>
      </trkpt>
      <trkpt lat="4.1584120" lon="-76.3489130">
        <ele>1080.6</ele>
        <time>2022-08-15T12:53:44Z</time>
      </trkpt>
      <trkpt lat="4.1583560" lon="-76.3489260">
        <ele>1080.6</ele>
        <time>2022-08-15T12:53:45Z</time>
      </trkpt>
      <trkpt lat="4.1580950" lon="-76.3490190">
        <ele>1080.6</ele>
        <time>2022-08-15T12:53:50Z</time>
      </trkpt>
      <trkpt lat="4.1579830" lon="-76.3490630">
        <ele>1080.4</ele>
        <time>2022-08-15T12:53:52Z</time>
      </trkpt>
      <trkpt lat="4.1578830" lon="-76.3490940">
        <ele>1080.4</ele>
        <time>2022-08-15T12:53:54Z</time>
      </trkpt>
      <trkpt lat="4.1578290" lon="-76.3491110">
        <ele>1080.4</ele>
        <time>2022-08-15T12:53:55Z</time>
      </trkpt>
      <trkpt lat="4.1577180" lon="-76.3491430">
        <ele>1080.4</ele>
        <time>2022-08-15T12:53:57Z</time>
      </trkpt>
      <trkpt lat="4.1576600" lon="-76.3491500">
        <ele>1080.4</ele>
        <time>2022-08-15T12:53:58Z</time>
      </trkpt>
      <trkpt lat="4.1573960" lon="-76.3492010">
        <ele>1080.4</ele>
        <time>2022-08-15T12:54:03Z</time>
      </trkpt>
      <trkpt lat="4.1573480" lon="-76.3492150">
        <ele>1080.4</ele>
        <time>2022-08-15T12:54:04Z</time>
      </trkpt>
      <trkpt lat="4.1572530" lon="-76.3492350">
        <ele>1080.4</ele>
        <time>2022-08-15T12:54:06Z</time>
      </trkpt>
      <trkpt lat="4.1571200" lon="-76.3492380">
        <ele>1080.8</ele>
        <time>2022-08-15T12:54:09Z</time>
      </trkpt>
      <trkpt lat="4.1569680" lon="-76.3492420">
        <ele>1081.6</ele>
        <time>2022-08-15T12:54:12Z</time>
      </trkpt>
      <trkpt lat="4.1568170" lon="-76.3492350">
        <ele>1082.2</ele>
        <time>2022-08-15T12:54:15Z</time>
      </trkpt>
      <trkpt lat="4.1567770" lon="-76.3492420">
        <ele>1082.2</ele>
        <time>2022-08-15T12:54:16Z</time>
      </trkpt>
      <trkpt lat="4.1566700" lon="-76.3492510">
        <ele>1082.6</ele>
        <time>2022-08-15T12:54:18Z</time>
      </trkpt>
      <trkpt lat="4.1566170" lon="-76.3492620">
        <ele>1082.8</ele>
        <time>2022-08-15T12:54:19Z</time>
      </trkpt>
      <trkpt lat="4.1564760" lon="-76.3493030">
        <ele>1082.8</ele>
        <time>2022-08-15T12:54:22Z</time>
      </trkpt>
      <trkpt lat="4.1563260" lon="-76.3493510">
        <ele>1083.0</ele>
        <time>2022-08-15T12:54:26Z</time>
      </trkpt>
      <trkpt lat="4.1562830" lon="-76.3493810">
        <ele>1083.0</ele>
        <time>2022-08-15T12:54:27Z</time>
      </trkpt>
      <trkpt lat="4.1561850" lon="-76.3494630">
        <ele>1083.2</ele>
        <time>2022-08-15T12:54:30Z</time>
      </trkpt>
      <trkpt lat="4.1561490" lon="-76.3494910">
        <ele>1083.2</ele>
        <time>2022-08-15T12:54:31Z</time>
      </trkpt>
      <trkpt lat="4.1560770" lon="-76.3495500">
        <ele>1083.6</ele>
        <time>2022-08-15T12:54:33Z</time>
      </trkpt>
      <trkpt lat="4.1560410" lon="-76.3495760">
        <ele>1083.6</ele>
        <time>2022-08-15T12:54:34Z</time>
      </trkpt>
      <trkpt lat="4.1559370" lon="-76.3496650">
        <ele>1084.2</ele>
        <time>2022-08-15T12:54:37Z</time>
      </trkpt>
      <trkpt lat="4.1557880" lon="-76.3497740">
        <ele>1084.6</ele>
        <time>2022-08-15T12:54:41Z</time>
      </trkpt>
      <trkpt lat="4.1557560" lon="-76.3497980">
        <ele>1084.4</ele>
        <time>2022-08-15T12:54:42Z</time>
      </trkpt>
      <trkpt lat="4.1557230" lon="-76.3498190">
        <ele>1084.6</ele>
        <time>2022-08-15T12:54:43Z</time>
      </trkpt>
      <trkpt lat="4.1555770" lon="-76.3498990">
        <ele>1085.0</ele>
        <time>2022-08-15T12:54:47Z</time>
      </trkpt>
      <trkpt lat="4.1554890" lon="-76.3499290">
        <ele>1085.2</ele>
        <time>2022-08-15T12:54:49Z</time>
      </trkpt>
      <trkpt lat="4.1553670" lon="-76.3499630">
        <ele>1085.6</ele>
        <time>2022-08-15T12:54:52Z</time>
      </trkpt>
      <trkpt lat="4.1552850" lon="-76.3499850">
        <ele>1085.8</ele>
        <time>2022-08-15T12:54:54Z</time>
      </trkpt>
      <trkpt lat="4.1551970" lon="-76.3500120">
        <ele>1085.8</ele>
        <time>2022-08-15T12:54:56Z</time>
      </trkpt>
      <trkpt lat="4.1550110" lon="-76.3500610">
        <ele>1086.2</ele>
        <time>2022-08-15T12:55:00Z</time>
      </trkpt>
      <trkpt lat="4.1547600" lon="-76.3501640">
        <ele>1086.6</ele>
        <time>2022-08-15T12:55:05Z</time>
      </trkpt>
      <trkpt lat="4.1545550" lon="-76.3502430">
        <ele>1086.6</ele>
        <time>2022-08-15T12:55:09Z</time>
      </trkpt>
      <trkpt lat="4.1542140" lon="-76.3503580">
        <ele>1086.6</ele>
        <time>2022-08-15T12:55:16Z</time>
      </trkpt>
      <trkpt lat="4.1538470" lon="-76.3504880">
        <ele>1087.6</ele>
        <time>2022-08-15T12:55:25Z</time>
      </trkpt>
      <trkpt lat="4.1537110" lon="-76.3505240">
        <ele>1088.4</ele>
        <time>2022-08-15T12:55:30Z</time>
      </trkpt>
      <trkpt lat="4.1536690" lon="-76.3505390">
        <ele>1088.6</ele>
        <time>2022-08-15T12:55:32Z</time>
      </trkpt>
      <trkpt lat="4.1536090" lon="-76.3505550">
        <ele>1089.6</ele>
        <time>2022-08-15T12:55:35Z</time>
      </trkpt>
      <trkpt lat="4.1535900" lon="-76.3505630">
        <ele>1090.0</ele>
        <time>2022-08-15T12:55:36Z</time>
      </trkpt>
      <trkpt lat="4.1535120" lon="-76.3505830">
        <ele>1091.0</ele>
        <time>2022-08-15T12:55:40Z</time>
      </trkpt>
      <trkpt lat="4.1534930" lon="-76.3505840">
        <ele>1091.2</ele>
        <time>2022-08-15T12:55:41Z</time>
      </trkpt>
      <trkpt lat="4.1534260" lon="-76.3505990">
        <ele>1092.2</ele>
        <time>2022-08-15T12:55:44Z</time>
      </trkpt>
      <trkpt lat="4.1533310" lon="-76.3506360">
        <ele>1093.2</ele>
        <time>2022-08-15T12:55:48Z</time>
      </trkpt>
      <trkpt lat="4.1532290" lon="-76.3506890">
        <ele>1094.2</ele>
        <time>2022-08-15T12:55:53Z</time>
      </trkpt>
      <trkpt lat="4.1532050" lon="-76.3507040">
        <ele>1094.4</ele>
        <time>2022-08-15T12:55:54Z</time>
      </trkpt>
      <trkpt lat="4.1531830" lon="-76.3507140">
        <ele>1094.6</ele>
        <time>2022-08-15T12:55:55Z</time>
      </trkpt>
      <trkpt lat="4.1531230" lon="-76.3507420">
        <ele>1095.2</ele>
        <time>2022-08-15T12:55:58Z</time>
      </trkpt>
      <trkpt lat="4.1531050" lon="-76.3507520">
        <ele>1095.6</ele>
        <time>2022-08-15T12:55:59Z</time>
      </trkpt>
      <trkpt lat="4.1530230" lon="-76.3508080">
        <ele>1096.4</ele>
        <time>2022-08-15T12:56:03Z</time>
      </trkpt>
      <trkpt lat="4.1530070" lon="-76.3508170">
        <ele>1096.8</ele>
        <time>2022-08-15T12:56:04Z</time>
      </trkpt>
      <trkpt lat="4.1529480" lon="-76.3508440">
        <ele>1097.8</ele>
        <time>2022-08-15T12:56:07Z</time>
      </trkpt>
      <trkpt lat="4.1528610" lon="-76.3508850">
        <ele>1098.8</ele>
        <time>2022-08-15T12:56:11Z</time>
      </trkpt>
      <trkpt lat="4.1527800" lon="-76.3509370">
        <ele>1099.6</ele>
        <time>2022-08-15T12:56:14Z</time>
      </trkpt>
      <trkpt lat="4.1526660" lon="-76.3510100">
        <ele>1100.0</ele>
        <time>2022-08-15T12:56:18Z</time>
      </trkpt>
      <trkpt lat="4.1525520" lon="-76.3510340">
        <ele>1100.6</ele>
        <time>2022-08-15T12:56:23Z</time>
      </trkpt>
      <trkpt lat="4.1524830" lon="-76.3510410">
        <ele>1101.2</ele>
        <time>2022-08-15T12:56:26Z</time>
      </trkpt>
      <trkpt lat="4.1523610" lon="-76.3510560">
        <ele>1102.2</ele>
        <time>2022-08-15T12:56:31Z</time>
      </trkpt>
      <trkpt lat="4.1522090" lon="-76.3510610">
        <ele>1103.4</ele>
        <time>2022-08-15T12:56:36Z</time>
      </trkpt>
      <trkpt lat="4.1520990" lon="-76.3510680">
        <ele>1103.4</ele>
        <time>2022-08-15T12:56:39Z</time>
      </trkpt>
      <trkpt lat="4.1520150" lon="-76.3510790">
        <ele>1103.4</ele>
        <time>2022-08-15T12:56:41Z</time>
      </trkpt>
      <trkpt lat="4.1519670" lon="-76.3511130">
        <ele>1103.4</ele>
        <time>2022-08-15T12:56:42Z</time>
      </trkpt>
      <trkpt lat="4.1518910" lon="-76.3511850">
        <ele>1103.4</ele>
        <time>2022-08-15T12:56:44Z</time>
      </trkpt>
      <trkpt lat="4.1518590" lon="-76.3512840">
        <ele>1103.4</ele>
        <time>2022-08-15T12:56:46Z</time>
      </trkpt>
      <trkpt lat="4.1518600" lon="-76.3514640">
        <ele>1103.0</ele>
        <time>2022-08-15T12:56:50Z</time>
      </trkpt>
      <trkpt lat="4.1518900" lon="-76.3515620">
        <ele>1102.8</ele>
        <time>2022-08-15T12:56:52Z</time>
      </trkpt>
      <trkpt lat="4.1519370" lon="-76.3517070">
        <ele>1102.8</ele>
        <time>2022-08-15T12:56:57Z</time>
      </trkpt>
      <trkpt lat="4.1520020" lon="-76.3518280">
        <ele>1104.2</ele>
        <time>2022-08-15T12:57:03Z</time>
      </trkpt>
      <trkpt lat="4.1520050" lon="-76.3518440">
        <ele>1104.2</ele>
        <time>2022-08-15T12:57:04Z</time>
      </trkpt>
      <trkpt lat="4.1520070" lon="-76.3518600">
        <ele>1104.6</ele>
        <time>2022-08-15T12:57:05Z</time>
      </trkpt>
      <trkpt lat="4.1520110" lon="-76.3518980">
        <ele>1105.4</ele>
        <time>2022-08-15T12:57:07Z</time>
      </trkpt>
      <trkpt lat="4.1520110" lon="-76.3519160">
        <ele>1105.6</ele>
        <time>2022-08-15T12:57:08Z</time>
      </trkpt>
      <trkpt lat="4.1520320" lon="-76.3519810">
        <ele>1106.6</ele>
        <time>2022-08-15T12:57:11Z</time>
      </trkpt>
      <trkpt lat="4.1520450" lon="-76.3520530">
        <ele>1107.4</ele>
        <time>2022-08-15T12:57:14Z</time>
      </trkpt>
      <trkpt lat="4.1520480" lon="-76.3520730">
        <ele>1107.6</ele>
        <time>2022-08-15T12:57:15Z</time>
      </trkpt>
      <trkpt lat="4.1520570" lon="-76.3521210">
        <ele>1108.4</ele>
        <time>2022-08-15T12:57:18Z</time>
      </trkpt>
      <trkpt lat="4.1520470" lon="-76.3521580">
        <ele>1108.8</ele>
        <time>2022-08-15T12:57:20Z</time>
      </trkpt>
      <trkpt lat="4.1520360" lon="-76.3521770">
        <ele>1109.0</ele>
        <time>2022-08-15T12:57:21Z</time>
      </trkpt>
      <trkpt lat="4.1519730" lon="-76.3522590">
        <ele>1110.0</ele>
        <time>2022-08-15T12:57:26Z</time>
      </trkpt>
      <trkpt lat="4.1519500" lon="-76.3523230">
        <ele>1110.4</ele>
        <time>2022-08-15T12:57:29Z</time>
      </trkpt>
      <trkpt lat="4.1519230" lon="-76.3523820">
        <ele>1111.2</ele>
        <time>2022-08-15T12:57:32Z</time>
      </trkpt>
      <trkpt lat="4.1519050" lon="-76.3524520">
        <ele>1112.2</ele>
        <time>2022-08-15T12:57:36Z</time>
      </trkpt>
      <trkpt lat="4.1518990" lon="-76.3524700">
        <ele>1112.2</ele>
        <time>2022-08-15T12:57:37Z</time>
      </trkpt>
      <trkpt lat="4.1518450" lon="-76.3525870">
        <ele>1113.6</ele>
        <time>2022-08-15T12:57:42Z</time>
      </trkpt>
      <trkpt lat="4.1518350" lon="-76.3526350">
        <ele>1114.0</ele>
        <time>2022-08-15T12:57:44Z</time>
      </trkpt>
      <trkpt lat="4.1518200" lon="-76.3527320">
        <ele>1114.6</ele>
        <time>2022-08-15T12:57:48Z</time>
      </trkpt>
      <trkpt lat="4.1517940" lon="-76.3528090">
        <ele>1115.0</ele>
        <time>2022-08-15T12:57:51Z</time>
      </trkpt>
      <trkpt lat="4.1517430" lon="-76.3529240">
        <ele>1115.6</ele>
        <time>2022-08-15T12:57:56Z</time>
      </trkpt>
      <trkpt lat="4.1517210" lon="-76.3529660">
        <ele>1116.0</ele>
        <time>2022-08-15T12:57:58Z</time>
      </trkpt>
      <trkpt lat="4.1516770" lon="-76.3530480">
        <ele>1116.8</ele>
        <time>2022-08-15T12:58:02Z</time>
      </trkpt>
      <trkpt lat="4.1516360" lon="-76.3530950">
        <ele>1117.2</ele>
        <time>2022-08-15T12:58:05Z</time>
      </trkpt>
      <trkpt lat="4.1515630" lon="-76.3531470">
        <ele>1118.0</ele>
        <time>2022-08-15T12:58:09Z</time>
      </trkpt>
      <trkpt lat="4.1515200" lon="-76.3531600">
        <ele>1118.4</ele>
        <time>2022-08-15T12:58:11Z</time>
      </trkpt>
      <trkpt lat="4.1514300" lon="-76.3531680">
        <ele>1119.2</ele>
        <time>2022-08-15T12:58:15Z</time>
      </trkpt>
      <trkpt lat="4.1513600" lon="-76.3531500">
        <ele>1119.6</ele>
        <time>2022-08-15T12:58:18Z</time>
      </trkpt>
      <trkpt lat="4.1512690" lon="-76.3531130">
        <ele>1120.2</ele>
        <time>2022-08-15T12:58:22Z</time>
      </trkpt>
      <trkpt lat="4.1511810" lon="-76.3530680">
        <ele>1120.8</ele>
        <time>2022-08-15T12:58:26Z</time>
      </trkpt>
      <trkpt lat="4.1511380" lon="-76.3530370">
        <ele>1121.4</ele>
        <time>2022-08-15T12:58:28Z</time>
      </trkpt>
      <trkpt lat="4.1510460" lon="-76.3529740">
        <ele>1122.4</ele>
        <time>2022-08-15T12:58:32Z</time>
      </trkpt>
      <trkpt lat="4.1510210" lon="-76.3529620">
        <ele>1122.8</ele>
        <time>2022-08-15T12:58:33Z</time>
      </trkpt>
      <trkpt lat="4.1509010" lon="-76.3528990">
        <ele>1123.6</ele>
        <time>2022-08-15T12:58:38Z</time>
      </trkpt>
      <trkpt lat="4.1508490" lon="-76.3528840">
        <ele>1123.6</ele>
        <time>2022-08-15T12:58:40Z</time>
      </trkpt>
      <trkpt lat="4.1506910" lon="-76.3528650">
        <ele>1124.2</ele>
        <time>2022-08-15T12:58:46Z</time>
      </trkpt>
      <trkpt lat="4.1506130" lon="-76.3528570">
        <ele>1124.6</ele>
        <time>2022-08-15T12:58:49Z</time>
      </trkpt>
      <trkpt lat="4.1505380" lon="-76.3528450">
        <ele>1125.0</ele>
        <time>2022-08-15T12:58:52Z</time>
      </trkpt>
      <trkpt lat="4.1504420" lon="-76.3528420">
        <ele>1125.6</ele>
        <time>2022-08-15T12:58:56Z</time>
      </trkpt>
      <trkpt lat="4.1503750" lon="-76.3528300">
        <ele>1126.2</ele>
        <time>2022-08-15T12:58:59Z</time>
      </trkpt>
      <trkpt lat="4.1503090" lon="-76.3528040">
        <ele>1126.6</ele>
        <time>2022-08-15T12:59:02Z</time>
      </trkpt>
      <trkpt lat="4.1502720" lon="-76.3527790">
        <ele>1126.8</ele>
        <time>2022-08-15T12:59:04Z</time>
      </trkpt>
      <trkpt lat="4.1501840" lon="-76.3527060">
        <ele>1127.8</ele>
        <time>2022-08-15T12:59:09Z</time>
      </trkpt>
      <trkpt lat="4.1501490" lon="-76.3526840">
        <ele>1128.0</ele>
        <time>2022-08-15T12:59:11Z</time>
      </trkpt>
      <trkpt lat="4.1501280" lon="-76.3526830">
        <ele>1128.2</ele>
        <time>2022-08-15T12:59:12Z</time>
      </trkpt>
      <trkpt lat="4.1500570" lon="-76.3526890">
        <ele>1128.8</ele>
        <time>2022-08-15T12:59:15Z</time>
      </trkpt>
      <trkpt lat="4.1498880" lon="-76.3527230">
        <ele>1130.0</ele>
        <time>2022-08-15T12:59:22Z</time>
      </trkpt>
      <trkpt lat="4.1497380" lon="-76.3527780">
        <ele>1131.4</ele>
        <time>2022-08-15T12:59:29Z</time>
      </trkpt>
      <trkpt lat="4.1496330" lon="-76.3527890">
        <ele>1132.6</ele>
        <time>2022-08-15T12:59:33Z</time>
      </trkpt>
      <trkpt lat="4.1495110" lon="-76.3527990">
        <ele>1133.8</ele>
        <time>2022-08-15T12:59:37Z</time>
      </trkpt>
      <trkpt lat="4.1494860" lon="-76.3527980">
        <ele>1134.0</ele>
        <time>2022-08-15T12:59:38Z</time>
      </trkpt>
      <trkpt lat="4.1493700" lon="-76.3527860">
        <ele>1134.8</ele>
        <time>2022-08-15T12:59:43Z</time>
      </trkpt>
      <trkpt lat="4.1493230" lon="-76.3527870">
        <ele>1135.0</ele>
        <time>2022-08-15T12:59:45Z</time>
      </trkpt>
      <trkpt lat="4.1491590" lon="-76.3528230">
        <ele>1135.8</ele>
        <time>2022-08-15T12:59:51Z</time>
      </trkpt>
      <trkpt lat="4.1490860" lon="-76.3529000">
        <ele>1135.8</ele>
        <time>2022-08-15T12:59:55Z</time>
      </trkpt>
      <trkpt lat="4.1490800" lon="-76.3529270">
        <ele>1136.0</ele>
        <time>2022-08-15T12:59:56Z</time>
      </trkpt>
      <trkpt lat="4.1491270" lon="-76.3530530">
        <ele>1136.2</ele>
        <time>2022-08-15T13:00:01Z</time>
      </trkpt>
      <trkpt lat="4.1491830" lon="-76.3531510">
        <ele>1137.0</ele>
        <time>2022-08-15T13:00:05Z</time>
      </trkpt>
      <trkpt lat="4.1491990" lon="-76.3532350">
        <ele>1137.4</ele>
        <time>2022-08-15T13:00:08Z</time>
      </trkpt>
      <trkpt lat="4.1492190" lon="-76.3533170">
        <ele>1138.0</ele>
        <time>2022-08-15T13:00:11Z</time>
      </trkpt>
      <trkpt lat="4.1492170" lon="-76.3534470">
        <ele>1138.8</ele>
        <time>2022-08-15T13:00:16Z</time>
      </trkpt>
      <trkpt lat="4.1491970" lon="-76.3535410">
        <ele>1139.2</ele>
        <time>2022-08-15T13:00:20Z</time>
      </trkpt>
      <trkpt lat="4.1491850" lon="-76.3536330">
        <ele>1140.0</ele>
        <time>2022-08-15T13:00:24Z</time>
      </trkpt>
      <trkpt lat="4.1491850" lon="-76.3536710">
        <ele>1140.2</ele>
        <time>2022-08-15T13:00:26Z</time>
      </trkpt>
      <trkpt lat="4.1491680" lon="-76.3537820">
        <ele>1141.4</ele>
        <time>2022-08-15T13:00:32Z</time>
      </trkpt>
      <trkpt lat="4.1491380" lon="-76.3538660">
        <ele>1142.6</ele>
        <time>2022-08-15T13:00:37Z</time>
      </trkpt>
      <trkpt lat="4.1490790" lon="-76.3539500">
        <ele>1143.8</ele>
        <time>2022-08-15T13:00:42Z</time>
      </trkpt>
      <trkpt lat="4.1490140" lon="-76.3540050">
        <ele>1144.8</ele>
        <time>2022-08-15T13:00:46Z</time>
      </trkpt>
      <trkpt lat="4.1489610" lon="-76.3540460">
        <ele>1145.6</ele>
        <time>2022-08-15T13:00:49Z</time>
      </trkpt>
      <trkpt lat="4.1489220" lon="-76.3540730">
        <ele>1146.0</ele>
        <time>2022-08-15T13:00:51Z</time>
      </trkpt>
      <trkpt lat="4.1488190" lon="-76.3541300">
        <ele>1147.0</ele>
        <time>2022-08-15T13:00:56Z</time>
      </trkpt>
      <trkpt lat="4.1486110" lon="-76.3542570">
        <ele>1147.6</ele>
        <time>2022-08-15T13:01:04Z</time>
      </trkpt>
      <trkpt lat="4.1484250" lon="-76.3543650">
        <ele>1148.0</ele>
        <time>2022-08-15T13:01:10Z</time>
      </trkpt>
      <trkpt lat="4.1483620" lon="-76.3544080">
        <ele>1148.0</ele>
        <time>2022-08-15T13:01:12Z</time>
      </trkpt>
      <trkpt lat="4.1481250" lon="-76.3545280">
        <ele>1148.2</ele>
        <time>2022-08-15T13:01:19Z</time>
      </trkpt>
      <trkpt lat="4.1480940" lon="-76.3545530">
        <ele>1148.2</ele>
        <time>2022-08-15T13:01:20Z</time>
      </trkpt>
      <trkpt lat="4.1479650" lon="-76.3547370">
        <ele>1148.4</ele>
        <time>2022-08-15T13:01:26Z</time>
      </trkpt>
      <trkpt lat="4.1478620" lon="-76.3548570">
        <ele>1148.8</ele>
        <time>2022-08-15T13:01:31Z</time>
      </trkpt>
      <trkpt lat="4.1478180" lon="-76.3549010">
        <ele>1149.0</ele>
        <time>2022-08-15T13:01:33Z</time>
      </trkpt>
      <trkpt lat="4.1476910" lon="-76.3549640">
        <ele>1150.0</ele>
        <time>2022-08-15T13:01:38Z</time>
      </trkpt>
      <trkpt lat="4.1476610" lon="-76.3549740">
        <ele>1150.2</ele>
        <time>2022-08-15T13:01:39Z</time>
      </trkpt>
      <trkpt lat="4.1475610" lon="-76.3549980">
        <ele>1151.2</ele>
        <time>2022-08-15T13:01:43Z</time>
      </trkpt>
      <trkpt lat="4.1475420" lon="-76.3549980">
        <ele>1151.4</ele>
        <time>2022-08-15T13:01:44Z</time>
      </trkpt>
      <trkpt lat="4.1474750" lon="-76.3550090">
        <ele>1152.4</ele>
        <time>2022-08-15T13:01:47Z</time>
      </trkpt>
      <trkpt lat="4.1474030" lon="-76.3550210">
        <ele>1153.2</ele>
        <time>2022-08-15T13:01:50Z</time>
      </trkpt>
      <trkpt lat="4.1473680" lon="-76.3550300">
        <ele>1153.4</ele>
        <time>2022-08-15T13:01:51Z</time>
      </trkpt>
      <trkpt lat="4.1472200" lon="-76.3550220">
        <ele>1154.6</ele>
        <time>2022-08-15T13:01:57Z</time>
      </trkpt>
      <trkpt lat="4.1471760" lon="-76.3550140">
        <ele>1154.8</ele>
        <time>2022-08-15T13:01:59Z</time>
      </trkpt>
      <trkpt lat="4.1471460" lon="-76.3550130">
        <ele>1154.8</ele>
        <time>2022-08-15T13:02:01Z</time>
      </trkpt>
      <trkpt lat="4.1471180" lon="-76.3550130">
        <ele>1155.0</ele>
        <time>2022-08-15T13:02:03Z</time>
      </trkpt>
      <trkpt lat="4.1470430" lon="-76.3549590">
        <ele>1154.8</ele>
        <time>2022-08-15T13:02:08Z</time>
      </trkpt>
      <trkpt lat="4.1469900" lon="-76.3549120">
        <ele>1154.8</ele>
        <time>2022-08-15T13:02:10Z</time>
      </trkpt>
      <trkpt lat="4.1469030" lon="-76.3547920">
        <ele>1154.4</ele>
        <time>2022-08-15T13:02:13Z</time>
      </trkpt>
      <trkpt lat="4.1468730" lon="-76.3547400">
        <ele>1154.4</ele>
        <time>2022-08-15T13:02:14Z</time>
      </trkpt>
      <trkpt lat="4.1467850" lon="-76.3546180">
        <ele>1154.2</ele>
        <time>2022-08-15T13:02:16Z</time>
      </trkpt>
      <trkpt lat="4.1467350" lon="-76.3545640">
        <ele>1154.0</ele>
        <time>2022-08-15T13:02:17Z</time>
      </trkpt>
      <trkpt lat="4.1466300" lon="-76.3544680">
        <ele>1153.2</ele>
        <time>2022-08-15T13:02:19Z</time>
      </trkpt>
      <trkpt lat="4.1464900" lon="-76.3543620">
        <ele>1152.0</ele>
        <time>2022-08-15T13:02:21Z</time>
      </trkpt>
      <trkpt lat="4.1464250" lon="-76.3543220">
        <ele>1151.4</ele>
        <time>2022-08-15T13:02:22Z</time>
      </trkpt>
      <trkpt lat="4.1463550" lon="-76.3542900">
        <ele>1150.4</ele>
        <time>2022-08-15T13:02:23Z</time>
      </trkpt>
      <trkpt lat="4.1462070" lon="-76.3542660">
        <ele>1149.4</ele>
        <time>2022-08-15T13:02:25Z</time>
      </trkpt>
      <trkpt lat="4.1460560" lon="-76.3543130">
        <ele>1148.4</ele>
        <time>2022-08-15T13:02:27Z</time>
      </trkpt>
      <trkpt lat="4.1459120" lon="-76.3543750">
        <ele>1147.8</ele>
        <time>2022-08-15T13:02:29Z</time>
      </trkpt>
      <trkpt lat="4.1457210" lon="-76.3544370">
        <ele>1147.2</ele>
        <time>2022-08-15T13:02:31Z</time>
      </trkpt>
      <trkpt lat="4.1456320" lon="-76.3544780">
        <ele>1147.0</ele>
        <time>2022-08-15T13:02:32Z</time>
      </trkpt>
      <trkpt lat="4.1455450" lon="-76.3545250">
        <ele>1146.6</ele>
        <time>2022-08-15T13:02:33Z</time>
      </trkpt>
      <trkpt lat="4.1454580" lon="-76.3545800">
        <ele>1146.2</ele>
        <time>2022-08-15T13:02:34Z</time>
      </trkpt>
      <trkpt lat="4.1452860" lon="-76.3546930">
        <ele>1145.4</ele>
        <time>2022-08-15T13:02:36Z</time>
      </trkpt>
      <trkpt lat="4.1451870" lon="-76.3547360">
        <ele>1144.8</ele>
        <time>2022-08-15T13:02:37Z</time>
      </trkpt>
      <trkpt lat="4.1448750" lon="-76.3548530">
        <ele>1143.4</ele>
        <time>2022-08-15T13:02:40Z</time>
      </trkpt>
      <trkpt lat="4.1447800" lon="-76.3549010">
        <ele>1142.6</ele>
        <time>2022-08-15T13:02:41Z</time>
      </trkpt>
      <trkpt lat="4.1446960" lon="-76.3549440">
        <ele>1142.0</ele>
        <time>2022-08-15T13:02:42Z</time>
      </trkpt>
      <trkpt lat="4.1446120" lon="-76.3549780">
        <ele>1141.2</ele>
        <time>2022-08-15T13:02:43Z</time>
      </trkpt>
      <trkpt lat="4.1445280" lon="-76.3549940">
        <ele>1140.6</ele>
        <time>2022-08-15T13:02:44Z</time>
      </trkpt>
      <trkpt lat="4.1443720" lon="-76.3550140">
        <ele>1139.0</ele>
        <time>2022-08-15T13:02:46Z</time>
      </trkpt>
      <trkpt lat="4.1442720" lon="-76.3550840">
        <ele>1137.6</ele>
        <time>2022-08-15T13:02:48Z</time>
      </trkpt>
      <trkpt lat="4.1442430" lon="-76.3552080">
        <ele>1137.0</ele>
        <time>2022-08-15T13:02:50Z</time>
      </trkpt>
      <trkpt lat="4.1442390" lon="-76.3552990">
        <ele>1136.8</ele>
        <time>2022-08-15T13:02:51Z</time>
      </trkpt>
      <trkpt lat="4.1442300" lon="-76.3553830">
        <ele>1136.6</ele>
        <time>2022-08-15T13:02:52Z</time>
      </trkpt>
      <trkpt lat="4.1441810" lon="-76.3555430">
        <ele>1136.4</ele>
        <time>2022-08-15T13:02:54Z</time>
      </trkpt>
      <trkpt lat="4.1440670" lon="-76.3557860">
        <ele>1135.4</ele>
        <time>2022-08-15T13:02:57Z</time>
      </trkpt>
      <trkpt lat="4.1439970" lon="-76.3559430">
        <ele>1134.0</ele>
        <time>2022-08-15T13:02:59Z</time>
      </trkpt>
      <trkpt lat="4.1439390" lon="-76.3560960">
        <ele>1132.8</ele>
        <time>2022-08-15T13:03:01Z</time>
      </trkpt>
      <trkpt lat="4.1438570" lon="-76.3562900">
        <ele>1131.8</ele>
        <time>2022-08-15T13:03:04Z</time>
      </trkpt>
      <trkpt lat="4.1438230" lon="-76.3563430">
        <ele>1131.6</ele>
        <time>2022-08-15T13:03:05Z</time>
      </trkpt>
      <trkpt lat="4.1437270" lon="-76.3564230">
        <ele>1131.4</ele>
        <time>2022-08-15T13:03:07Z</time>
      </trkpt>
      <trkpt lat="4.1433550" lon="-76.3566020">
        <ele>1131.2</ele>
        <time>2022-08-15T13:03:14Z</time>
      </trkpt>
      <trkpt lat="4.1432430" lon="-76.3566040">
        <ele>1131.4</ele>
        <time>2022-08-15T13:03:16Z</time>
      </trkpt>
      <trkpt lat="4.1431390" lon="-76.3565820">
        <ele>1131.4</ele>
        <time>2022-08-15T13:03:18Z</time>
      </trkpt>
      <trkpt lat="4.1428620" lon="-76.3564730">
        <ele>1132.2</ele>
        <time>2022-08-15T13:03:24Z</time>
      </trkpt>
      <trkpt lat="4.1427700" lon="-76.3564350">
        <ele>1132.6</ele>
        <time>2022-08-15T13:03:26Z</time>
      </trkpt>
      <trkpt lat="4.1426760" lon="-76.3564190">
        <ele>1132.6</ele>
        <time>2022-08-15T13:03:28Z</time>
      </trkpt>
      <trkpt lat="4.1425930" lon="-76.3564330">
        <ele>1132.8</ele>
        <time>2022-08-15T13:03:30Z</time>
      </trkpt>
      <trkpt lat="4.1425660" lon="-76.3564560">
        <ele>1132.8</ele>
        <time>2022-08-15T13:03:31Z</time>
      </trkpt>
      <trkpt lat="4.1425430" lon="-76.3565250">
        <ele>1133.0</ele>
        <time>2022-08-15T13:03:33Z</time>
      </trkpt>
      <trkpt lat="4.1425400" lon="-76.3565900">
        <ele>1133.0</ele>
        <time>2022-08-15T13:03:35Z</time>
      </trkpt>
      <trkpt lat="4.1425580" lon="-76.3567350">
        <ele>1133.4</ele>
        <time>2022-08-15T13:03:40Z</time>
      </trkpt>
      <trkpt lat="4.1425590" lon="-76.3567600">
        <ele>1133.6</ele>
        <time>2022-08-15T13:03:41Z</time>
      </trkpt>
      <trkpt lat="4.1425650" lon="-76.3567830">
        <ele>1134.0</ele>
        <time>2022-08-15T13:03:42Z</time>
      </trkpt>
      <trkpt lat="4.1425590" lon="-76.3569020">
        <ele>1134.8</ele>
        <time>2022-08-15T13:03:47Z</time>
      </trkpt>
      <trkpt lat="4.1425590" lon="-76.3569240">
        <ele>1135.2</ele>
        <time>2022-08-15T13:03:48Z</time>
      </trkpt>
      <trkpt lat="4.1425480" lon="-76.3570300">
        <ele>1136.2</ele>
        <time>2022-08-15T13:03:53Z</time>
      </trkpt>
      <trkpt lat="4.1425320" lon="-76.3570740">
        <ele>1136.6</ele>
        <time>2022-08-15T13:03:55Z</time>
      </trkpt>
      <trkpt lat="4.1425090" lon="-76.3571360">
        <ele>1137.4</ele>
        <time>2022-08-15T13:03:58Z</time>
      </trkpt>
      <trkpt lat="4.1424860" lon="-76.3572250">
        <ele>1138.2</ele>
        <time>2022-08-15T13:04:02Z</time>
      </trkpt>
      <trkpt lat="4.1424770" lon="-76.3572570">
        <ele>1138.4</ele>
        <time>2022-08-15T13:04:03Z</time>
      </trkpt>
      <trkpt lat="4.1424610" lon="-76.3573320">
        <ele>1139.0</ele>
        <time>2022-08-15T13:04:06Z</time>
      </trkpt>
      <trkpt lat="4.1424590" lon="-76.3574020">
        <ele>1139.6</ele>
        <time>2022-08-15T13:04:09Z</time>
      </trkpt>
      <trkpt lat="4.1424710" lon="-76.3575250">
        <ele>1140.6</ele>
        <time>2022-08-15T13:04:15Z</time>
      </trkpt>
      <trkpt lat="4.1424770" lon="-76.3575450">
        <ele>1140.8</ele>
        <time>2022-08-15T13:04:16Z</time>
      </trkpt>
      <trkpt lat="4.1425060" lon="-76.3576480">
        <ele>1141.8</ele>
        <time>2022-08-15T13:04:21Z</time>
      </trkpt>
      <trkpt lat="4.1425250" lon="-76.3576910">
        <ele>1142.2</ele>
        <time>2022-08-15T13:04:23Z</time>
      </trkpt>
      <trkpt lat="4.1425460" lon="-76.3577360">
        <ele>1142.8</ele>
        <time>2022-08-15T13:04:26Z</time>
      </trkpt>
      <trkpt lat="4.1425590" lon="-76.3577980">
        <ele>1143.8</ele>
        <time>2022-08-15T13:04:30Z</time>
      </trkpt>
      <trkpt lat="4.1425640" lon="-76.3578130">
        <ele>1144.0</ele>
        <time>2022-08-15T13:04:31Z</time>
      </trkpt>
      <trkpt lat="4.1425700" lon="-76.3579120">
        <ele>1145.2</ele>
        <time>2022-08-15T13:04:37Z</time>
      </trkpt>
      <trkpt lat="4.1425680" lon="-76.3579440">
        <ele>1145.4</ele>
        <time>2022-08-15T13:04:39Z</time>
      </trkpt>
      <trkpt lat="4.1425620" lon="-76.3580130">
        <ele>1146.2</ele>
        <time>2022-08-15T13:04:43Z</time>
      </trkpt>
      <trkpt lat="4.1425610" lon="-76.3580500">
        <ele>1146.6</ele>
        <time>2022-08-15T13:04:45Z</time>
      </trkpt>
      <trkpt lat="4.1425430" lon="-76.3581290">
        <ele>1147.6</ele>
        <time>2022-08-15T13:04:49Z</time>
      </trkpt>
      <trkpt lat="4.1425120" lon="-76.3582200">
        <ele>1148.4</ele>
        <time>2022-08-15T13:04:54Z</time>
      </trkpt>
      <trkpt lat="4.1425060" lon="-76.3582360">
        <ele>1148.6</ele>
        <time>2022-08-15T13:04:55Z</time>
      </trkpt>
      <trkpt lat="4.1424440" lon="-76.3583580">
        <ele>1149.8</ele>
        <time>2022-08-15T13:05:02Z</time>
      </trkpt>
      <trkpt lat="4.1424140" lon="-76.3584010">
        <ele>1150.2</ele>
        <time>2022-08-15T13:05:05Z</time>
      </trkpt>
      <trkpt lat="4.1423610" lon="-76.3584650">
        <ele>1150.8</ele>
        <time>2022-08-15T13:05:09Z</time>
      </trkpt>
      <trkpt lat="4.1422850" lon="-76.3585380">
        <ele>1151.6</ele>
        <time>2022-08-15T13:05:14Z</time>
      </trkpt>
      <trkpt lat="4.1422480" lon="-76.3585670">
        <ele>1152.0</ele>
        <time>2022-08-15T13:05:16Z</time>
      </trkpt>
      <trkpt lat="4.1420840" lon="-76.3586950">
        <ele>1152.8</ele>
        <time>2022-08-15T13:05:24Z</time>
      </trkpt>
      <trkpt lat="4.1420610" lon="-76.3587140">
        <ele>1153.0</ele>
        <time>2022-08-15T13:05:25Z</time>
      </trkpt>
      <trkpt lat="4.1419520" lon="-76.3587680">
        <ele>1153.0</ele>
        <time>2022-08-15T13:05:29Z</time>
      </trkpt>
      <trkpt lat="4.1418850" lon="-76.3587910">
        <ele>1153.0</ele>
        <time>2022-08-15T13:05:31Z</time>
      </trkpt>
      <trkpt lat="4.1417650" lon="-76.3588040">
        <ele>1153.0</ele>
        <time>2022-08-15T13:05:34Z</time>
      </trkpt>
      <trkpt lat="4.1416650" lon="-76.3587880">
        <ele>1153.0</ele>
        <time>2022-08-15T13:05:36Z</time>
      </trkpt>
      <trkpt lat="4.1414850" lon="-76.3587210">
        <ele>1153.0</ele>
        <time>2022-08-15T13:05:39Z</time>
      </trkpt>
      <trkpt lat="4.1414370" lon="-76.3586910">
        <ele>1153.0</ele>
        <time>2022-08-15T13:05:40Z</time>
      </trkpt>
      <trkpt lat="4.1412250" lon="-76.3585580">
        <ele>1152.4</ele>
        <time>2022-08-15T13:05:43Z</time>
      </trkpt>
      <trkpt lat="4.1411470" lon="-76.3585290">
        <ele>1152.0</ele>
        <time>2022-08-15T13:05:44Z</time>
      </trkpt>
      <trkpt lat="4.1410640" lon="-76.3585100">
        <ele>1151.6</ele>
        <time>2022-08-15T13:05:45Z</time>
      </trkpt>
      <trkpt lat="4.1408820" lon="-76.3584750">
        <ele>1150.2</ele>
        <time>2022-08-15T13:05:47Z</time>
      </trkpt>
      <trkpt lat="4.1407830" lon="-76.3584580">
        <ele>1149.2</ele>
        <time>2022-08-15T13:05:48Z</time>
      </trkpt>
      <trkpt lat="4.1406810" lon="-76.3584430">
        <ele>1148.4</ele>
        <time>2022-08-15T13:05:49Z</time>
      </trkpt>
      <trkpt lat="4.1405970" lon="-76.3584350">
        <ele>1147.2</ele>
        <time>2022-08-15T13:05:50Z</time>
      </trkpt>
      <trkpt lat="4.1403630" lon="-76.3584180">
        <ele>1146.2</ele>
        <time>2022-08-15T13:05:52Z</time>
      </trkpt>
      <trkpt lat="4.1402570" lon="-76.3584160">
        <ele>1145.2</ele>
        <time>2022-08-15T13:05:53Z</time>
      </trkpt>
      <trkpt lat="4.1400660" lon="-76.3584170">
        <ele>1143.2</ele>
        <time>2022-08-15T13:05:55Z</time>
      </trkpt>
      <trkpt lat="4.1399440" lon="-76.3584140">
        <ele>1142.0</ele>
        <time>2022-08-15T13:05:56Z</time>
      </trkpt>
      <trkpt lat="4.1398480" lon="-76.3584150">
        <ele>1140.6</ele>
        <time>2022-08-15T13:05:57Z</time>
      </trkpt>
      <trkpt lat="4.1397560" lon="-76.3584190">
        <ele>1139.4</ele>
        <time>2022-08-15T13:05:58Z</time>
      </trkpt>
      <trkpt lat="4.1396680" lon="-76.3584280">
        <ele>1138.4</ele>
        <time>2022-08-15T13:05:59Z</time>
      </trkpt>
      <trkpt lat="4.1394220" lon="-76.3584830">
        <ele>1137.2</ele>
        <time>2022-08-15T13:06:02Z</time>
      </trkpt>
      <trkpt lat="4.1392680" lon="-76.3585240">
        <ele>1137.0</ele>
        <time>2022-08-15T13:06:04Z</time>
      </trkpt>
      <trkpt lat="4.1391220" lon="-76.3585990">
        <ele>1136.6</ele>
        <time>2022-08-15T13:06:06Z</time>
      </trkpt>
      <trkpt lat="4.1388850" lon="-76.3587390">
        <ele>1136.2</ele>
        <time>2022-08-15T13:06:09Z</time>
      </trkpt>
      <trkpt lat="4.1387260" lon="-76.3588420">
        <ele>1136.0</ele>
        <time>2022-08-15T13:06:11Z</time>
      </trkpt>
      <trkpt lat="4.1382490" lon="-76.3590840">
        <ele>1135.0</ele>
        <time>2022-08-15T13:06:17Z</time>
      </trkpt>
      <trkpt lat="4.1379310" lon="-76.3592000">
        <ele>1133.8</ele>
        <time>2022-08-15T13:06:21Z</time>
      </trkpt>
      <trkpt lat="4.1378540" lon="-76.3592340">
        <ele>1133.8</ele>
        <time>2022-08-15T13:06:22Z</time>
      </trkpt>
      <trkpt lat="4.1377810" lon="-76.3592720">
        <ele>1133.6</ele>
        <time>2022-08-15T13:06:23Z</time>
      </trkpt>
      <trkpt lat="4.1375160" lon="-76.3594550">
        <ele>1133.4</ele>
        <time>2022-08-15T13:06:27Z</time>
      </trkpt>
      <trkpt lat="4.1371900" lon="-76.3596900">
        <ele>1133.2</ele>
        <time>2022-08-15T13:06:32Z</time>
      </trkpt>
      <trkpt lat="4.1371290" lon="-76.3597480">
        <ele>1133.0</ele>
        <time>2022-08-15T13:06:33Z</time>
      </trkpt>
      <trkpt lat="4.1370670" lon="-76.3598000">
        <ele>1133.0</ele>
        <time>2022-08-15T13:06:34Z</time>
      </trkpt>
      <trkpt lat="4.1369330" lon="-76.3598930">
        <ele>1132.8</ele>
        <time>2022-08-15T13:06:36Z</time>
      </trkpt>
      <trkpt lat="4.1368660" lon="-76.3599320">
        <ele>1132.6</ele>
        <time>2022-08-15T13:06:37Z</time>
      </trkpt>
      <trkpt lat="4.1366870" lon="-76.3600570">
        <ele>1132.6</ele>
        <time>2022-08-15T13:06:40Z</time>
      </trkpt>
      <trkpt lat="4.1366360" lon="-76.3601080">
        <ele>1132.6</ele>
        <time>2022-08-15T13:06:41Z</time>
      </trkpt>
      <trkpt lat="4.1365870" lon="-76.3601510">
        <ele>1132.6</ele>
        <time>2022-08-15T13:06:42Z</time>
      </trkpt>
      <trkpt lat="4.1364470" lon="-76.3602410">
        <ele>1132.6</ele>
        <time>2022-08-15T13:06:45Z</time>
      </trkpt>
      <trkpt lat="4.1362890" lon="-76.3603700">
        <ele>1132.8</ele>
        <time>2022-08-15T13:06:49Z</time>
      </trkpt>
      <trkpt lat="4.1362460" lon="-76.3604370">
        <ele>1133.2</ele>
        <time>2022-08-15T13:06:51Z</time>
      </trkpt>
      <trkpt lat="4.1362160" lon="-76.3604680">
        <ele>1133.6</ele>
        <time>2022-08-15T13:06:52Z</time>
      </trkpt>
      <trkpt lat="4.1361510" lon="-76.3605620">
        <ele>1134.2</ele>
        <time>2022-08-15T13:06:54Z</time>
      </trkpt>
      <trkpt lat="4.1360840" lon="-76.3606750">
        <ele>1134.6</ele>
        <time>2022-08-15T13:06:56Z</time>
      </trkpt>
      <trkpt lat="4.1360640" lon="-76.3607330">
        <ele>1134.8</ele>
        <time>2022-08-15T13:06:57Z</time>
      </trkpt>
      <trkpt lat="4.1360330" lon="-76.3608660">
        <ele>1135.0</ele>
        <time>2022-08-15T13:06:59Z</time>
      </trkpt>
      <trkpt lat="4.1360040" lon="-76.3609920">
        <ele>1135.2</ele>
        <time>2022-08-15T13:07:01Z</time>
      </trkpt>
      <trkpt lat="4.1359710" lon="-76.3610730">
        <ele>1135.2</ele>
        <time>2022-08-15T13:07:03Z</time>
      </trkpt>
      <trkpt lat="4.1359290" lon="-76.3611870">
        <ele>1135.4</ele>
        <time>2022-08-15T13:07:05Z</time>
      </trkpt>
      <trkpt lat="4.1358980" lon="-76.3612990">
        <ele>1135.8</ele>
        <time>2022-08-15T13:07:07Z</time>
      </trkpt>
      <trkpt lat="4.1358870" lon="-76.3613320">
        <ele>1135.8</ele>
        <time>2022-08-15T13:07:08Z</time>
      </trkpt>
      <trkpt lat="4.1358740" lon="-76.3613680">
        <ele>1136.0</ele>
        <time>2022-08-15T13:07:09Z</time>
      </trkpt>
      <trkpt lat="4.1357890" lon="-76.3615040">
        <ele>1136.4</ele>
        <time>2022-08-15T13:07:13Z</time>
      </trkpt>
      <trkpt lat="4.1357630" lon="-76.3615310">
        <ele>1136.6</ele>
        <time>2022-08-15T13:07:14Z</time>
      </trkpt>
      <trkpt lat="4.1357030" lon="-76.3615880">
        <ele>1136.8</ele>
        <time>2022-08-15T13:07:16Z</time>
      </trkpt>
      <trkpt lat="4.1355900" lon="-76.3616960">
        <ele>1137.4</ele>
        <time>2022-08-15T13:07:19Z</time>
      </trkpt>
      <trkpt lat="4.1355070" lon="-76.3617720">
        <ele>1137.8</ele>
        <time>2022-08-15T13:07:21Z</time>
      </trkpt>
      <trkpt lat="4.1353520" lon="-76.3619110">
        <ele>1138.0</ele>
        <time>2022-08-15T13:07:25Z</time>
      </trkpt>
      <trkpt lat="4.1352370" lon="-76.3620820">
        <ele>1138.2</ele>
        <time>2022-08-15T13:07:29Z</time>
      </trkpt>
      <trkpt lat="4.1351800" lon="-76.3621720">
        <ele>1138.2</ele>
        <time>2022-08-15T13:07:31Z</time>
      </trkpt>
      <trkpt lat="4.1351500" lon="-76.3622080">
        <ele>1138.2</ele>
        <time>2022-08-15T13:07:32Z</time>
      </trkpt>
      <trkpt lat="4.1350920" lon="-76.3622890">
        <ele>1138.4</ele>
        <time>2022-08-15T13:07:34Z</time>
      </trkpt>
      <trkpt lat="4.1350200" lon="-76.3624250">
        <ele>1138.4</ele>
        <time>2022-08-15T13:07:37Z</time>
      </trkpt>
      <trkpt lat="4.1348750" lon="-76.3626330">
        <ele>1138.8</ele>
        <time>2022-08-15T13:07:43Z</time>
      </trkpt>
      <trkpt lat="4.1348460" lon="-76.3626610">
        <ele>1139.0</ele>
        <time>2022-08-15T13:07:44Z</time>
      </trkpt>
      <trkpt lat="4.1347580" lon="-76.3627370">
        <ele>1139.8</ele>
        <time>2022-08-15T13:07:47Z</time>
      </trkpt>
      <trkpt lat="4.1346330" lon="-76.3628120">
        <ele>1140.6</ele>
        <time>2022-08-15T13:07:51Z</time>
      </trkpt>
      <trkpt lat="4.1345980" lon="-76.3628300">
        <ele>1141.0</ele>
        <time>2022-08-15T13:07:52Z</time>
      </trkpt>
      <trkpt lat="4.1343800" lon="-76.3629380">
        <ele>1142.0</ele>
        <time>2022-08-15T13:07:58Z</time>
      </trkpt>
      <trkpt lat="4.1343360" lon="-76.3629520">
        <ele>1142.2</ele>
        <time>2022-08-15T13:07:59Z</time>
      </trkpt>
      <trkpt lat="4.1342900" lon="-76.3629620">
        <ele>1142.2</ele>
        <time>2022-08-15T13:08:00Z</time>
      </trkpt>
      <trkpt lat="4.1340830" lon="-76.3630070">
        <ele>1142.2</ele>
        <time>2022-08-15T13:08:04Z</time>
      </trkpt>
      <trkpt lat="4.1339760" lon="-76.3630470">
        <ele>1142.2</ele>
        <time>2022-08-15T13:08:06Z</time>
      </trkpt>
      <trkpt lat="4.1338900" lon="-76.3631140">
        <ele>1142.2</ele>
        <time>2022-08-15T13:08:08Z</time>
      </trkpt>
      <trkpt lat="4.1336890" lon="-76.3633620">
        <ele>1141.8</ele>
        <time>2022-08-15T13:08:14Z</time>
      </trkpt>
      <trkpt lat="4.1335940" lon="-76.3634920">
        <ele>1141.8</ele>
        <time>2022-08-15T13:08:17Z</time>
      </trkpt>
      <trkpt lat="4.1334150" lon="-76.3637350">
        <ele>1142.0</ele>
        <time>2022-08-15T13:08:23Z</time>
      </trkpt>
      <trkpt lat="4.1333650" lon="-76.3638100">
        <ele>1142.0</ele>
        <time>2022-08-15T13:08:25Z</time>
      </trkpt>
      <trkpt lat="4.1332420" lon="-76.3639950">
        <ele>1142.8</ele>
        <time>2022-08-15T13:08:31Z</time>
      </trkpt>
      <trkpt lat="4.1332220" lon="-76.3640280">
        <ele>1143.0</ele>
        <time>2022-08-15T13:08:32Z</time>
      </trkpt>
      <trkpt lat="4.1331490" lon="-76.3641660">
        <ele>1144.2</ele>
        <time>2022-08-15T13:08:36Z</time>
      </trkpt>
      <trkpt lat="4.1330710" lon="-76.3643580">
        <ele>1144.8</ele>
        <time>2022-08-15T13:08:41Z</time>
      </trkpt>
      <trkpt lat="4.1329620" lon="-76.3647690">
        <ele>1145.2</ele>
        <time>2022-08-15T13:08:51Z</time>
      </trkpt>
      <trkpt lat="4.1329180" lon="-76.3649510">
        <ele>1145.2</ele>
        <time>2022-08-15T13:08:56Z</time>
      </trkpt>
      <trkpt lat="4.1329110" lon="-76.3649860">
        <ele>1145.2</ele>
        <time>2022-08-15T13:08:57Z</time>
      </trkpt>
      <trkpt lat="4.1328380" lon="-76.3652760">
        <ele>1146.0</ele>
        <time>2022-08-15T13:09:04Z</time>
      </trkpt>
      <trkpt lat="4.1328060" lon="-76.3653770">
        <ele>1146.2</ele>
        <time>2022-08-15T13:09:06Z</time>
      </trkpt>
      <trkpt lat="4.1327040" lon="-76.3657090">
        <ele>1145.8</ele>
        <time>2022-08-15T13:09:13Z</time>
      </trkpt>
      <trkpt lat="4.1326220" lon="-76.3660980">
        <ele>1145.8</ele>
        <time>2022-08-15T13:09:21Z</time>
      </trkpt>
      <trkpt lat="4.1325740" lon="-76.3665070">
        <ele>1146.0</ele>
        <time>2022-08-15T13:09:30Z</time>
      </trkpt>
      <trkpt lat="4.1325650" lon="-76.3665900">
        <ele>1146.4</ele>
        <time>2022-08-15T13:09:32Z</time>
      </trkpt>
      <trkpt lat="4.1325330" lon="-76.3668820">
        <ele>1147.6</ele>
        <time>2022-08-15T13:09:39Z</time>
      </trkpt>
      <trkpt lat="4.1325240" lon="-76.3669200">
        <ele>1147.8</ele>
        <time>2022-08-15T13:09:40Z</time>
      </trkpt>
      <trkpt lat="4.1324900" lon="-76.3671460">
        <ele>1148.6</ele>
        <time>2022-08-15T13:09:46Z</time>
      </trkpt>
      <trkpt lat="4.1324790" lon="-76.3672490">
        <ele>1148.8</ele>
        <time>2022-08-15T13:09:49Z</time>
      </trkpt>
      <trkpt lat="4.1324790" lon="-76.3674200">
        <ele>1149.6</ele>
        <time>2022-08-15T13:09:54Z</time>
      </trkpt>
      <trkpt lat="4.1324760" lon="-76.3674520">
        <ele>1149.8</ele>
        <time>2022-08-15T13:09:55Z</time>
      </trkpt>
      <trkpt lat="4.1324540" lon="-76.3675800">
        <ele>1150.6</ele>
        <time>2022-08-15T13:09:59Z</time>
      </trkpt>
      <trkpt lat="4.1324500" lon="-76.3676120">
        <ele>1150.8</ele>
        <time>2022-08-15T13:10:00Z</time>
      </trkpt>
      <trkpt lat="4.1324280" lon="-76.3676930">
        <ele>1151.4</ele>
        <time>2022-08-15T13:10:03Z</time>
      </trkpt>
      <trkpt lat="4.1324170" lon="-76.3677580">
        <ele>1151.8</ele>
        <time>2022-08-15T13:10:05Z</time>
      </trkpt>
      <trkpt lat="4.1323740" lon="-76.3679400">
        <ele>1152.6</ele>
        <time>2022-08-15T13:10:11Z</time>
      </trkpt>
      <trkpt lat="4.1323560" lon="-76.3679920">
        <ele>1153.0</ele>
        <time>2022-08-15T13:10:13Z</time>
      </trkpt>
      <trkpt lat="4.1322740" lon="-76.3681180">
        <ele>1153.6</ele>
        <time>2022-08-15T13:10:18Z</time>
      </trkpt>
      <trkpt lat="4.1322330" lon="-76.3681660">
        <ele>1154.0</ele>
        <time>2022-08-15T13:10:20Z</time>
      </trkpt>
      <trkpt lat="4.1321360" lon="-76.3682290">
        <ele>1154.8</ele>
        <time>2022-08-15T13:10:24Z</time>
      </trkpt>
      <trkpt lat="4.1320700" lon="-76.3682550">
        <ele>1155.2</ele>
        <time>2022-08-15T13:10:26Z</time>
      </trkpt>
      <trkpt lat="4.1319040" lon="-76.3683030">
        <ele>1156.2</ele>
        <time>2022-08-15T13:10:31Z</time>
      </trkpt>
      <trkpt lat="4.1318770" lon="-76.3683120">
        <ele>1156.2</ele>
        <time>2022-08-15T13:10:32Z</time>
      </trkpt>
      <trkpt lat="4.1315530" lon="-76.3684040">
        <ele>1156.6</ele>
        <time>2022-08-15T13:10:41Z</time>
      </trkpt>
      <trkpt lat="4.1314410" lon="-76.3684440">
        <ele>1156.8</ele>
        <time>2022-08-15T13:10:44Z</time>
      </trkpt>
      <trkpt lat="4.1312940" lon="-76.3684900">
        <ele>1156.8</ele>
        <time>2022-08-15T13:10:47Z</time>
      </trkpt>
      <trkpt lat="4.1310270" lon="-76.3685750">
        <ele>1156.4</ele>
        <time>2022-08-15T13:10:52Z</time>
      </trkpt>
      <trkpt lat="4.1307170" lon="-76.3686670">
        <ele>1154.8</ele>
        <time>2022-08-15T13:10:57Z</time>
      </trkpt>
      <trkpt lat="4.1306530" lon="-76.3686860">
        <ele>1154.8</ele>
        <time>2022-08-15T13:10:58Z</time>
      </trkpt>
      <trkpt lat="4.1303980" lon="-76.3687650">
        <ele>1153.6</ele>
        <time>2022-08-15T13:11:02Z</time>
      </trkpt>
      <trkpt lat="4.1303360" lon="-76.3687850">
        <ele>1153.6</ele>
        <time>2022-08-15T13:11:03Z</time>
      </trkpt>
      <trkpt lat="4.1301060" lon="-76.3688640">
        <ele>1153.0</ele>
        <time>2022-08-15T13:11:07Z</time>
      </trkpt>
      <trkpt lat="4.1300040" lon="-76.3688960">
        <ele>1153.0</ele>
        <time>2022-08-15T13:11:09Z</time>
      </trkpt>
      <trkpt lat="4.1297720" lon="-76.3689500">
        <ele>1153.0</ele>
        <time>2022-08-15T13:11:14Z</time>
      </trkpt>
      <trkpt lat="4.1297370" lon="-76.3689630">
        <ele>1153.0</ele>
        <time>2022-08-15T13:11:15Z</time>
      </trkpt>
      <trkpt lat="4.1296500" lon="-76.3689920">
        <ele>1154.0</ele>
        <time>2022-08-15T13:11:18Z</time>
      </trkpt>
      <trkpt lat="4.1295570" lon="-76.3690210">
        <ele>1154.6</ele>
        <time>2022-08-15T13:11:21Z</time>
      </trkpt>
      <trkpt lat="4.1295010" lon="-76.3690390">
        <ele>1155.0</ele>
        <time>2022-08-15T13:11:23Z</time>
      </trkpt>
      <trkpt lat="4.1294250" lon="-76.3690640">
        <ele>1156.2</ele>
        <time>2022-08-15T13:11:26Z</time>
      </trkpt>
      <trkpt lat="4.1293810" lon="-76.3690810">
        <ele>1156.8</ele>
        <time>2022-08-15T13:11:28Z</time>
      </trkpt>
      <trkpt lat="4.1293670" lon="-76.3690870">
        <ele>1157.2</ele>
        <time>2022-08-15T13:11:29Z</time>
      </trkpt>
      <trkpt lat="4.1292630" lon="-76.3691210">
        <ele>1158.6</ele>
        <time>2022-08-15T13:11:34Z</time>
      </trkpt>
      <trkpt lat="4.1291870" lon="-76.3691390">
        <ele>1159.6</ele>
        <time>2022-08-15T13:11:38Z</time>
      </trkpt>
      <trkpt lat="4.1291290" lon="-76.3691580">
        <ele>1160.6</ele>
        <time>2022-08-15T13:11:41Z</time>
      </trkpt>
      <trkpt lat="4.1291120" lon="-76.3691600">
        <ele>1160.8</ele>
        <time>2022-08-15T13:11:42Z</time>
      </trkpt>
      <trkpt lat="4.1290180" lon="-76.3691890">
        <ele>1161.6</ele>
        <time>2022-08-15T13:11:47Z</time>
      </trkpt>
      <trkpt lat="4.1289860" lon="-76.3692000">
        <ele>1162.0</ele>
        <time>2022-08-15T13:11:49Z</time>
      </trkpt>
      <trkpt lat="4.1289170" lon="-76.3692140">
        <ele>1163.2</ele>
        <time>2022-08-15T13:11:53Z</time>
      </trkpt>
      <trkpt lat="4.1288410" lon="-76.3692280">
        <ele>1164.4</ele>
        <time>2022-08-15T13:11:57Z</time>
      </trkpt>
      <trkpt lat="4.1288220" lon="-76.3692340">
        <ele>1164.8</ele>
        <time>2022-08-15T13:11:58Z</time>
      </trkpt>
      <trkpt lat="4.1287590" lon="-76.3692460">
        <ele>1165.6</ele>
        <time>2022-08-15T13:12:01Z</time>
      </trkpt>
      <trkpt lat="4.1286670" lon="-76.3692710">
        <ele>1166.8</ele>
        <time>2022-08-15T13:12:06Z</time>
      </trkpt>
      <trkpt lat="4.1286080" lon="-76.3692880">
        <ele>1167.4</ele>
        <time>2022-08-15T13:12:09Z</time>
      </trkpt>
      <trkpt lat="4.1285530" lon="-76.3693120">
        <ele>1167.8</ele>
        <time>2022-08-15T13:12:12Z</time>
      </trkpt>
      <trkpt lat="4.1284620" lon="-76.3693460">
        <ele>1168.4</ele>
        <time>2022-08-15T13:12:16Z</time>
      </trkpt>
      <trkpt lat="4.1283800" lon="-76.3693680">
        <ele>1168.8</ele>
        <time>2022-08-15T13:12:19Z</time>
      </trkpt>
      <trkpt lat="4.1281960" lon="-76.3694230">
        <ele>1169.4</ele>
        <time>2022-08-15T13:12:25Z</time>
      </trkpt>
      <trkpt lat="4.1279350" lon="-76.3695070">
        <ele>1169.6</ele>
        <time>2022-08-15T13:12:33Z</time>
      </trkpt>
      <trkpt lat="4.1277880" lon="-76.3695510">
        <ele>1169.8</ele>
        <time>2022-08-15T13:12:39Z</time>
      </trkpt>
      <trkpt lat="4.1277640" lon="-76.3695550">
        <ele>1170.0</ele>
        <time>2022-08-15T13:12:40Z</time>
      </trkpt>
      <trkpt lat="4.1276740" lon="-76.3695850">
        <ele>1171.0</ele>
        <time>2022-08-15T13:12:44Z</time>
      </trkpt>
      <trkpt lat="4.1276560" lon="-76.3695980">
        <ele>1171.2</ele>
        <time>2022-08-15T13:12:45Z</time>
      </trkpt>
      <trkpt lat="4.1276610" lon="-76.3696680">
        <ele>1172.0</ele>
        <time>2022-08-15T13:12:48Z</time>
      </trkpt>
      <trkpt lat="4.1276710" lon="-76.3696990">
        <ele>1172.2</ele>
        <time>2022-08-15T13:12:49Z</time>
      </trkpt>
      <trkpt lat="4.1276950" lon="-76.3697730">
        <ele>1173.2</ele>
        <time>2022-08-15T13:12:52Z</time>
      </trkpt>
      <trkpt lat="4.1277540" lon="-76.3699410">
        <ele>1173.8</ele>
        <time>2022-08-15T13:12:58Z</time>
      </trkpt>
      <trkpt lat="4.1277890" lon="-76.3700560">
        <ele>1174.2</ele>
        <time>2022-08-15T13:13:02Z</time>
      </trkpt>
      <trkpt lat="4.1278230" lon="-76.3701630">
        <ele>1174.6</ele>
        <time>2022-08-15T13:13:06Z</time>
      </trkpt>
      <trkpt lat="4.1278290" lon="-76.3702440">
        <ele>1174.8</ele>
        <time>2022-08-15T13:13:10Z</time>
      </trkpt>
      <trkpt lat="4.1278210" lon="-76.3702620">
        <ele>1174.8</ele>
        <time>2022-08-15T13:13:11Z</time>
      </trkpt>
      <trkpt lat="4.1277210" lon="-76.3703200">
        <ele>1175.2</ele>
        <time>2022-08-15T13:13:15Z</time>
      </trkpt>
      <trkpt lat="4.1276870" lon="-76.3703280">
        <ele>1175.2</ele>
        <time>2022-08-15T13:13:16Z</time>
      </trkpt>
      <trkpt lat="4.1275850" lon="-76.3703580">
        <ele>1175.4</ele>
        <time>2022-08-15T13:13:19Z</time>
      </trkpt>
      <trkpt lat="4.1273960" lon="-76.3704090">
        <ele>1175.6</ele>
        <time>2022-08-15T13:13:24Z</time>
      </trkpt>
      <trkpt lat="4.1271700" lon="-76.3704870">
        <ele>1175.8</ele>
        <time>2022-08-15T13:13:30Z</time>
      </trkpt>
      <trkpt lat="4.1269120" lon="-76.3705700">
        <ele>1176.0</ele>
        <time>2022-08-15T13:13:35Z</time>
      </trkpt>
      <trkpt lat="4.1266990" lon="-76.3706320">
        <ele>1176.0</ele>
        <time>2022-08-15T13:13:39Z</time>
      </trkpt>
      <trkpt lat="4.1265080" lon="-76.3706870">
        <ele>1175.2</ele>
        <time>2022-08-15T13:13:43Z</time>
      </trkpt>
      <trkpt lat="4.1263610" lon="-76.3707380">
        <ele>1175.0</ele>
        <time>2022-08-15T13:13:46Z</time>
      </trkpt>
      <trkpt lat="4.1261030" lon="-76.3708440">
        <ele>1174.6</ele>
        <time>2022-08-15T13:13:51Z</time>
      </trkpt>
      <trkpt lat="4.1258610" lon="-76.3710030">
        <ele>1174.6</ele>
        <time>2022-08-15T13:13:57Z</time>
      </trkpt>
      <trkpt lat="4.1256970" lon="-76.3711050">
        <ele>1174.8</ele>
        <time>2022-08-15T13:14:01Z</time>
      </trkpt>
      <trkpt lat="4.1255750" lon="-76.3711870">
        <ele>1175.0</ele>
        <time>2022-08-15T13:14:04Z</time>
      </trkpt>
      <trkpt lat="4.1252860" lon="-76.3713930">
        <ele>1175.8</ele>
        <time>2022-08-15T13:14:12Z</time>
      </trkpt>
      <trkpt lat="4.1251630" lon="-76.3714900">
        <ele>1176.0</ele>
        <time>2022-08-15T13:14:16Z</time>
      </trkpt>
      <trkpt lat="4.1250680" lon="-76.3715590">
        <ele>1176.4</ele>
        <time>2022-08-15T13:14:19Z</time>
      </trkpt>
      <trkpt lat="4.1248470" lon="-76.3717370">
        <ele>1177.2</ele>
        <time>2022-08-15T13:14:26Z</time>
      </trkpt>
      <trkpt lat="4.1248100" lon="-76.3717730">
        <ele>1177.0</ele>
        <time>2022-08-15T13:14:27Z</time>
      </trkpt>
      <trkpt lat="4.1244820" lon="-76.3720860">
        <ele>1178.4</ele>
        <time>2022-08-15T13:14:37Z</time>
      </trkpt>
      <trkpt lat="4.1244270" lon="-76.3721500">
        <ele>1178.4</ele>
        <time>2022-08-15T13:14:39Z</time>
      </trkpt>
      <trkpt lat="4.1243150" lon="-76.3722750">
        <ele>1178.8</ele>
        <time>2022-08-15T13:14:43Z</time>
      </trkpt>
      <trkpt lat="4.1242850" lon="-76.3723000">
        <ele>1178.8</ele>
        <time>2022-08-15T13:14:44Z</time>
      </trkpt>
      <trkpt lat="4.1242310" lon="-76.3723530">
        <ele>1179.2</ele>
        <time>2022-08-15T13:14:46Z</time>
      </trkpt>
      <trkpt lat="4.1242110" lon="-76.3723840">
        <ele>1179.2</ele>
        <time>2022-08-15T13:14:47Z</time>
      </trkpt>
      <trkpt lat="4.1241900" lon="-76.3724120">
        <ele>1179.6</ele>
        <time>2022-08-15T13:14:48Z</time>
      </trkpt>
      <trkpt lat="4.1241220" lon="-76.3725340">
        <ele>1180.4</ele>
        <time>2022-08-15T13:14:52Z</time>
      </trkpt>
      <trkpt lat="4.1241080" lon="-76.3725680">
        <ele>1180.8</ele>
        <time>2022-08-15T13:14:53Z</time>
      </trkpt>
      <trkpt lat="4.1240130" lon="-76.3727410">
        <ele>1181.6</ele>
        <time>2022-08-15T13:14:59Z</time>
      </trkpt>
      <trkpt lat="4.1239700" lon="-76.3728090">
        <ele>1181.8</ele>
        <time>2022-08-15T13:15:02Z</time>
      </trkpt>
      <trkpt lat="4.1239320" lon="-76.3728860">
        <ele>1182.4</ele>
        <time>2022-08-15T13:15:05Z</time>
      </trkpt>
      <trkpt lat="4.1238780" lon="-76.3729750">
        <ele>1183.0</ele>
        <time>2022-08-15T13:15:08Z</time>
      </trkpt>
      <trkpt lat="4.1237800" lon="-76.3731110">
        <ele>1184.0</ele>
        <time>2022-08-15T13:15:13Z</time>
      </trkpt>
      <trkpt lat="4.1236750" lon="-76.3732450">
        <ele>1185.0</ele>
        <time>2022-08-15T13:15:19Z</time>
      </trkpt>
      <trkpt lat="4.1236540" lon="-76.3732640">
        <ele>1185.2</ele>
        <time>2022-08-15T13:15:20Z</time>
      </trkpt>
      <trkpt lat="4.1235310" lon="-76.3733830">
        <ele>1186.0</ele>
        <time>2022-08-15T13:15:26Z</time>
      </trkpt>
      <trkpt lat="4.1235110" lon="-76.3734050">
        <ele>1186.4</ele>
        <time>2022-08-15T13:15:27Z</time>
      </trkpt>
      <trkpt lat="4.1233470" lon="-76.3735680">
        <ele>1187.4</ele>
        <time>2022-08-15T13:15:35Z</time>
      </trkpt>
      <trkpt lat="4.1231020" lon="-76.3738140">
        <ele>1188.4</ele>
        <time>2022-08-15T13:15:46Z</time>
      </trkpt>
      <trkpt lat="4.1230820" lon="-76.3738360">
        <ele>1188.4</ele>
        <time>2022-08-15T13:15:47Z</time>
      </trkpt>
      <trkpt lat="4.1230140" lon="-76.3739890">
        <ele>1189.0</ele>
        <time>2022-08-15T13:15:53Z</time>
      </trkpt>
      <trkpt lat="4.1230130" lon="-76.3741150">
        <ele>1189.6</ele>
        <time>2022-08-15T13:15:58Z</time>
      </trkpt>
      <trkpt lat="4.1230260" lon="-76.3741300">
        <ele>1189.6</ele>
        <time>2022-08-15T13:15:59Z</time>
      </trkpt>
      <trkpt lat="4.1230560" lon="-76.3741580">
        <ele>1190.0</ele>
        <time>2022-08-15T13:16:01Z</time>
      </trkpt>
      <trkpt lat="4.1231030" lon="-76.3742300">
        <ele>1190.6</ele>
        <time>2022-08-15T13:16:04Z</time>
      </trkpt>
      <trkpt lat="4.1231410" lon="-76.3742770">
        <ele>1191.0</ele>
        <time>2022-08-15T13:16:06Z</time>
      </trkpt>
      <trkpt lat="4.1232450" lon="-76.3743910">
        <ele>1191.4</ele>
        <time>2022-08-15T13:16:11Z</time>
      </trkpt>
      <trkpt lat="4.1232490" lon="-76.3744520">
        <ele>1191.4</ele>
        <time>2022-08-15T13:16:13Z</time>
      </trkpt>
      <trkpt lat="4.1232070" lon="-76.3745010">
        <ele>1191.4</ele>
        <time>2022-08-15T13:16:15Z</time>
      </trkpt>
      <trkpt lat="4.1230290" lon="-76.3746040">
        <ele>1190.2</ele>
        <time>2022-08-15T13:16:20Z</time>
      </trkpt>
      <trkpt lat="4.1229400" lon="-76.3746450">
        <ele>1189.6</ele>
        <time>2022-08-15T13:16:22Z</time>
      </trkpt>
      <trkpt lat="4.1228940" lon="-76.3746650">
        <ele>1187.8</ele>
        <time>2022-08-15T13:16:24Z</time>
      </trkpt>
      <trkpt lat="4.1227110" lon="-76.3747430">
        <ele>1186.6</ele>
        <time>2022-08-15T13:16:27Z</time>
      </trkpt>
      <trkpt lat="4.1225730" lon="-76.3747990">
        <ele>1185.6</ele>
        <time>2022-08-15T13:16:31Z</time>
      </trkpt>
      <trkpt lat="4.1225410" lon="-76.3748050">
        <ele>1185.4</ele>
        <time>2022-08-15T13:16:32Z</time>
      </trkpt>
      <trkpt lat="4.1224620" lon="-76.3748170">
        <ele>1185.2</ele>
        <time>2022-08-15T13:16:36Z</time>
      </trkpt>
      <trkpt lat="4.1224180" lon="-76.3748080">
        <ele>1185.2</ele>
        <time>2022-08-15T13:16:38Z</time>
      </trkpt>
      <trkpt lat="4.1222640" lon="-76.3746750">
        <ele>1186.2</ele>
        <time>2022-08-15T13:16:46Z</time>
      </trkpt>
      <trkpt lat="4.1222000" lon="-76.3746000">
        <ele>1186.6</ele>
        <time>2022-08-15T13:16:49Z</time>
      </trkpt>
      <trkpt lat="4.1221380" lon="-76.3745110">
        <ele>1186.8</ele>
        <time>2022-08-15T13:16:52Z</time>
      </trkpt>
      <trkpt lat="4.1219840" lon="-76.3742970">
        <ele>1186.6</ele>
        <time>2022-08-15T13:16:58Z</time>
      </trkpt>
      <trkpt lat="4.1219420" lon="-76.3742230">
        <ele>1186.4</ele>
        <time>2022-08-15T13:17:00Z</time>
      </trkpt>
      <trkpt lat="4.1219180" lon="-76.3740880">
        <ele>1186.0</ele>
        <time>2022-08-15T13:17:03Z</time>
      </trkpt>
      <trkpt lat="4.1219140" lon="-76.3740310">
        <ele>1186.0</ele>
        <time>2022-08-15T13:17:04Z</time>
      </trkpt>
      <trkpt lat="4.1219120" lon="-76.3739540">
        <ele>1185.4</ele>
        <time>2022-08-15T13:17:06Z</time>
      </trkpt>
      <trkpt lat="4.1219120" lon="-76.3738590">
        <ele>1185.0</ele>
        <time>2022-08-15T13:17:08Z</time>
      </trkpt>
      <trkpt lat="4.1219160" lon="-76.3737800">
        <ele>1184.6</ele>
        <time>2022-08-15T13:17:10Z</time>
      </trkpt>
      <trkpt lat="4.1219190" lon="-76.3737300">
        <ele>1184.4</ele>
        <time>2022-08-15T13:17:11Z</time>
      </trkpt>
      <trkpt lat="4.1219230" lon="-76.3736980">
        <ele>1184.2</ele>
        <time>2022-08-15T13:17:12Z</time>
      </trkpt>
      <trkpt lat="4.1219360" lon="-76.3736170">
        <ele>1183.8</ele>
        <time>2022-08-15T13:17:14Z</time>
      </trkpt>
      <trkpt lat="4.1220030" lon="-76.3734190">
        <ele>1183.4</ele>
        <time>2022-08-15T13:17:19Z</time>
      </trkpt>
      <trkpt lat="4.1220170" lon="-76.3733840">
        <ele>1183.4</ele>
        <time>2022-08-15T13:17:20Z</time>
      </trkpt>
      <trkpt lat="4.1220760" lon="-76.3732230">
        <ele>1183.2</ele>
        <time>2022-08-15T13:17:25Z</time>
      </trkpt>
      <trkpt lat="4.1221400" lon="-76.3730510">
        <ele>1183.2</ele>
        <time>2022-08-15T13:17:29Z</time>
      </trkpt>
      <trkpt lat="4.1222680" lon="-76.3729400">
        <ele>1183.2</ele>
        <time>2022-08-15T13:17:33Z</time>
      </trkpt>
      <trkpt lat="4.1223190" lon="-76.3728820">
        <ele>1183.2</ele>
        <time>2022-08-15T13:17:35Z</time>
      </trkpt>
      <trkpt lat="4.1224380" lon="-76.3727600">
        <ele>1183.2</ele>
        <time>2022-08-15T13:17:40Z</time>
      </trkpt>
      <trkpt lat="4.1224620" lon="-76.3727110">
        <ele>1183.2</ele>
        <time>2022-08-15T13:17:41Z</time>
      </trkpt>
      <trkpt lat="4.1225070" lon="-76.3725900">
        <ele>1183.2</ele>
        <time>2022-08-15T13:17:44Z</time>
      </trkpt>
      <trkpt lat="4.1225610" lon="-76.3724630">
        <ele>1183.0</ele>
        <time>2022-08-15T13:17:47Z</time>
      </trkpt>
      <trkpt lat="4.1226560" lon="-76.3723040">
        <ele>1182.2</ele>
        <time>2022-08-15T13:17:51Z</time>
      </trkpt>
      <trkpt lat="4.1226830" lon="-76.3722550">
        <ele>1182.2</ele>
        <time>2022-08-15T13:17:52Z</time>
      </trkpt>
      <trkpt lat="4.1227140" lon="-76.3721760">
        <ele>1182.0</ele>
        <time>2022-08-15T13:17:54Z</time>
      </trkpt>
      <trkpt lat="4.1228270" lon="-76.3719260">
        <ele>1181.8</ele>
        <time>2022-08-15T13:18:00Z</time>
      </trkpt>
      <trkpt lat="4.1228590" lon="-76.3718410">
        <ele>1181.6</ele>
        <time>2022-08-15T13:18:02Z</time>
      </trkpt>
      <trkpt lat="4.1229360" lon="-76.3714920">
        <ele>1181.4</ele>
        <time>2022-08-15T13:18:10Z</time>
      </trkpt>
      <trkpt lat="4.1229760" lon="-76.3712630">
        <ele>1181.0</ele>
        <time>2022-08-15T13:18:15Z</time>
      </trkpt>
      <trkpt lat="4.1229720" lon="-76.3711700">
        <ele>1181.2</ele>
        <time>2022-08-15T13:18:17Z</time>
      </trkpt>
      <trkpt lat="4.1228840" lon="-76.3707800">
        <ele>1181.6</ele>
        <time>2022-08-15T13:18:26Z</time>
      </trkpt>
      <trkpt lat="4.1228560" lon="-76.3706320">
        <ele>1182.0</ele>
        <time>2022-08-15T13:18:31Z</time>
      </trkpt>
      <trkpt lat="4.1228340" lon="-76.3705810">
        <ele>1182.4</ele>
        <time>2022-08-15T13:18:33Z</time>
      </trkpt>
      <trkpt lat="4.1227680" lon="-76.3704720">
        <ele>1182.6</ele>
        <time>2022-08-15T13:18:37Z</time>
      </trkpt>
      <trkpt lat="4.1227030" lon="-76.3702970">
        <ele>1182.8</ele>
        <time>2022-08-15T13:18:43Z</time>
      </trkpt>
      <trkpt lat="4.1227270" lon="-76.3701820">
        <ele>1183.4</ele>
        <time>2022-08-15T13:18:47Z</time>
      </trkpt>
      <trkpt lat="4.1227460" lon="-76.3701090">
        <ele>1183.6</ele>
        <time>2022-08-15T13:18:50Z</time>
      </trkpt>
      <trkpt lat="4.1227210" lon="-76.3700280">
        <ele>1184.4</ele>
        <time>2022-08-15T13:18:54Z</time>
      </trkpt>
      <trkpt lat="4.1227110" lon="-76.3700090">
        <ele>1184.6</ele>
        <time>2022-08-15T13:18:55Z</time>
      </trkpt>
      <trkpt lat="4.1226690" lon="-76.3699420">
        <ele>1185.4</ele>
        <time>2022-08-15T13:18:59Z</time>
      </trkpt>
      <trkpt lat="4.1226530" lon="-76.3699310">
        <ele>1185.6</ele>
        <time>2022-08-15T13:19:00Z</time>
      </trkpt>
      <trkpt lat="4.1225430" lon="-76.3698530">
        <ele>1186.6</ele>
        <time>2022-08-15T13:19:07Z</time>
      </trkpt>
      <trkpt lat="4.1224280" lon="-76.3698040">
        <ele>1187.2</ele>
        <time>2022-08-15T13:19:13Z</time>
      </trkpt>
      <trkpt lat="4.1223670" lon="-76.3697940">
        <ele>1187.6</ele>
        <time>2022-08-15T13:19:16Z</time>
      </trkpt>
      <trkpt lat="4.1223100" lon="-76.3697690">
        <ele>1188.2</ele>
        <time>2022-08-15T13:19:19Z</time>
      </trkpt>
      <trkpt lat="4.1222380" lon="-76.3697320">
        <ele>1188.8</ele>
        <time>2022-08-15T13:19:23Z</time>
      </trkpt>
      <trkpt lat="4.1221330" lon="-76.3696470">
        <ele>1189.8</ele>
        <time>2022-08-15T13:19:30Z</time>
      </trkpt>
      <trkpt lat="4.1221220" lon="-76.3696320">
        <ele>1190.0</ele>
        <time>2022-08-15T13:19:31Z</time>
      </trkpt>
      <trkpt lat="4.1220720" lon="-76.3695670">
        <ele>1191.0</ele>
        <time>2022-08-15T13:19:36Z</time>
      </trkpt>
      <trkpt lat="4.1220300" lon="-76.3695190">
        <ele>1191.6</ele>
        <time>2022-08-15T13:19:40Z</time>
      </trkpt>
      <trkpt lat="4.1220000" lon="-76.3694770">
        <ele>1192.0</ele>
        <time>2022-08-15T13:19:43Z</time>
      </trkpt>
      <trkpt lat="4.1219380" lon="-76.3693980">
        <ele>1193.0</ele>
        <time>2022-08-15T13:19:49Z</time>
      </trkpt>
      <trkpt lat="4.1219280" lon="-76.3693850">
        <ele>1193.2</ele>
        <time>2022-08-15T13:19:50Z</time>
      </trkpt>
      <trkpt lat="4.1218900" lon="-76.3693330">
        <ele>1194.0</ele>
        <time>2022-08-15T13:19:54Z</time>
      </trkpt>
      <trkpt lat="4.1218720" lon="-76.3693050">
        <ele>1194.2</ele>
        <time>2022-08-15T13:19:56Z</time>
      </trkpt>
      <trkpt lat="4.1218590" lon="-76.3692940">
        <ele>1194.4</ele>
        <time>2022-08-15T13:19:57Z</time>
      </trkpt>
      <trkpt lat="4.1218000" lon="-76.3692050">
        <ele>1195.4</ele>
        <time>2022-08-15T13:20:03Z</time>
      </trkpt>
      <trkpt lat="4.1217810" lon="-76.3691750">
        <ele>1195.6</ele>
        <time>2022-08-15T13:20:05Z</time>
      </trkpt>
      <trkpt lat="4.1217360" lon="-76.3690980">
        <ele>1196.4</ele>
        <time>2022-08-15T13:20:10Z</time>
      </trkpt>
      <trkpt lat="4.1217160" lon="-76.3690540">
        <ele>1196.8</ele>
        <time>2022-08-15T13:20:13Z</time>
      </trkpt>
      <trkpt lat="4.1216910" lon="-76.3689940">
        <ele>1197.6</ele>
        <time>2022-08-15T13:20:17Z</time>
      </trkpt>
      <trkpt lat="4.1216530" lon="-76.3689020">
        <ele>1198.4</ele>
        <time>2022-08-15T13:20:23Z</time>
      </trkpt>
      <trkpt lat="4.1216470" lon="-76.3688860">
        <ele>1198.6</ele>
        <time>2022-08-15T13:20:24Z</time>
      </trkpt>
      <trkpt lat="4.1216300" lon="-76.3687920">
        <ele>1199.6</ele>
        <time>2022-08-15T13:20:30Z</time>
      </trkpt>
      <trkpt lat="4.1216210" lon="-76.3687570">
        <ele>1200.0</ele>
        <time>2022-08-15T13:20:32Z</time>
      </trkpt>
      <trkpt lat="4.1216100" lon="-76.3686790">
        <ele>1201.2</ele>
        <time>2022-08-15T13:20:37Z</time>
      </trkpt>
      <trkpt lat="4.1216080" lon="-76.3686670">
        <ele>1201.2</ele>
        <time>2022-08-15T13:20:38Z</time>
      </trkpt>
      <trkpt lat="4.1216080" lon="-76.3685720">
        <ele>1202.2</ele>
        <time>2022-08-15T13:20:43Z</time>
      </trkpt>
      <trkpt lat="4.1216300" lon="-76.3684860">
        <ele>1203.2</ele>
        <time>2022-08-15T13:20:48Z</time>
      </trkpt>
      <trkpt lat="4.1216450" lon="-76.3684310">
        <ele>1203.8</ele>
        <time>2022-08-15T13:20:51Z</time>
      </trkpt>
      <trkpt lat="4.1216760" lon="-76.3683660">
        <ele>1204.4</ele>
        <time>2022-08-15T13:20:55Z</time>
      </trkpt>
      <trkpt lat="4.1217020" lon="-76.3683180">
        <ele>1205.0</ele>
        <time>2022-08-15T13:20:58Z</time>
      </trkpt>
      <trkpt lat="4.1217600" lon="-76.3682440">
        <ele>1205.6</ele>
        <time>2022-08-15T13:21:03Z</time>
      </trkpt>
      <trkpt lat="4.1218110" lon="-76.3681940">
        <ele>1206.0</ele>
        <time>2022-08-15T13:21:07Z</time>
      </trkpt>
      <trkpt lat="4.1218660" lon="-76.3681460">
        <ele>1206.6</ele>
        <time>2022-08-15T13:21:11Z</time>
      </trkpt>
      <trkpt lat="4.1219610" lon="-76.3680510">
        <ele>1207.8</ele>
        <time>2022-08-15T13:21:18Z</time>
      </trkpt>
      <trkpt lat="4.1220130" lon="-76.3679330">
        <ele>1208.8</ele>
        <time>2022-08-15T13:21:25Z</time>
      </trkpt>
      <trkpt lat="4.1220140" lon="-76.3678950">
        <ele>1209.0</ele>
        <time>2022-08-15T13:21:27Z</time>
      </trkpt>
      <trkpt lat="4.1219900" lon="-76.3678260">
        <ele>1209.6</ele>
        <time>2022-08-15T13:21:31Z</time>
      </trkpt>
      <trkpt lat="4.1219920" lon="-76.3677340">
        <ele>1210.0</ele>
        <time>2022-08-15T13:21:35Z</time>
      </trkpt>
      <trkpt lat="4.1220010" lon="-76.3677110">
        <ele>1210.2</ele>
        <time>2022-08-15T13:21:36Z</time>
      </trkpt>
      <trkpt lat="4.1220660" lon="-76.3676130">
        <ele>1211.0</ele>
        <time>2022-08-15T13:21:41Z</time>
      </trkpt>
      <trkpt lat="4.1220900" lon="-76.3675730">
        <ele>1211.2</ele>
        <time>2022-08-15T13:21:43Z</time>
      </trkpt>
      <trkpt lat="4.1221770" lon="-76.3674170">
        <ele>1211.8</ele>
        <time>2022-08-15T13:21:51Z</time>
      </trkpt>
      <trkpt lat="4.1221990" lon="-76.3673690">
        <ele>1212.0</ele>
        <time>2022-08-15T13:21:54Z</time>
      </trkpt>
      <trkpt lat="4.1222190" lon="-76.3673040">
        <ele>1212.6</ele>
        <time>2022-08-15T13:21:58Z</time>
      </trkpt>
      <trkpt lat="4.1222460" lon="-76.3672290">
        <ele>1213.2</ele>
        <time>2022-08-15T13:22:02Z</time>
      </trkpt>
      <trkpt lat="4.1222910" lon="-76.3671680">
        <ele>1213.8</ele>
        <time>2022-08-15T13:22:06Z</time>
      </trkpt>
      <trkpt lat="4.1223040" lon="-76.3671580">
        <ele>1214.2</ele>
        <time>2022-08-15T13:22:07Z</time>
      </trkpt>
      <trkpt lat="4.1223870" lon="-76.3670530">
        <ele>1215.4</ele>
        <time>2022-08-15T13:22:15Z</time>
      </trkpt>
      <trkpt lat="4.1223950" lon="-76.3670410">
        <ele>1215.6</ele>
        <time>2022-08-15T13:22:16Z</time>
      </trkpt>
      <trkpt lat="4.1224180" lon="-76.3669710">
        <ele>1216.6</ele>
        <time>2022-08-15T13:22:21Z</time>
      </trkpt>
      <trkpt lat="4.1224180" lon="-76.3669540">
        <ele>1216.8</ele>
        <time>2022-08-15T13:22:22Z</time>
      </trkpt>
      <trkpt lat="4.1224120" lon="-76.3669390">
        <ele>1216.8</ele>
        <time>2022-08-15T13:22:23Z</time>
      </trkpt>
      <trkpt lat="4.1223810" lon="-76.3669060">
        <ele>1217.6</ele>
        <time>2022-08-15T13:22:26Z</time>
      </trkpt>
      <trkpt lat="4.1223620" lon="-76.3668990">
        <ele>1217.8</ele>
        <time>2022-08-15T13:22:27Z</time>
      </trkpt>
      <trkpt lat="4.1222580" lon="-76.3669220">
        <ele>1218.6</ele>
        <time>2022-08-15T13:22:33Z</time>
      </trkpt>
      <trkpt lat="4.1221060" lon="-76.3669540">
        <ele>1219.4</ele>
        <time>2022-08-15T13:22:41Z</time>
      </trkpt>
      <trkpt lat="4.1220730" lon="-76.3669560">
        <ele>1219.8</ele>
        <time>2022-08-15T13:22:43Z</time>
      </trkpt>
      <trkpt lat="4.1219950" lon="-76.3669740">
        <ele>1220.4</ele>
        <time>2022-08-15T13:22:48Z</time>
      </trkpt>
      <trkpt lat="4.1219470" lon="-76.3669940">
        <ele>1220.8</ele>
        <time>2022-08-15T13:22:51Z</time>
      </trkpt>
      <trkpt lat="4.1218900" lon="-76.3670220">
        <ele>1221.6</ele>
        <time>2022-08-15T13:22:55Z</time>
      </trkpt>
      <trkpt lat="4.1218350" lon="-76.3670460">
        <ele>1222.0</ele>
        <time>2022-08-15T13:22:59Z</time>
      </trkpt>
      <trkpt lat="4.1217830" lon="-76.3670790">
        <ele>1222.4</ele>
        <time>2022-08-15T13:23:03Z</time>
      </trkpt>
      <trkpt lat="4.1217440" lon="-76.3671030">
        <ele>1223.0</ele>
        <time>2022-08-15T13:23:06Z</time>
      </trkpt>
      <trkpt lat="4.1216600" lon="-76.3671330">
        <ele>1224.2</ele>
        <time>2022-08-15T13:23:12Z</time>
      </trkpt>
      <trkpt lat="4.1216190" lon="-76.3671540">
        <ele>1224.8</ele>
        <time>2022-08-15T13:23:15Z</time>
      </trkpt>
      <trkpt lat="4.1215780" lon="-76.3671810">
        <ele>1225.2</ele>
        <time>2022-08-15T13:23:18Z</time>
      </trkpt>
      <trkpt lat="4.1215080" lon="-76.3672260">
        <ele>1226.6</ele>
        <time>2022-08-15T13:23:24Z</time>
      </trkpt>
      <trkpt lat="4.1214460" lon="-76.3672920">
        <ele>1227.8</ele>
        <time>2022-08-15T13:23:30Z</time>
      </trkpt>
      <trkpt lat="4.1214130" lon="-76.3673420">
        <ele>1228.4</ele>
        <time>2022-08-15T13:23:34Z</time>
      </trkpt>
      <trkpt lat="4.1214050" lon="-76.3673570">
        <ele>1228.8</ele>
        <time>2022-08-15T13:23:35Z</time>
      </trkpt>
      <trkpt lat="4.1213700" lon="-76.3674410">
        <ele>1230.0</ele>
        <time>2022-08-15T13:23:41Z</time>
      </trkpt>
      <trkpt lat="4.1213630" lon="-76.3674730">
        <ele>1230.6</ele>
        <time>2022-08-15T13:23:43Z</time>
      </trkpt>
      <trkpt lat="4.1213540" lon="-76.3675090">
        <ele>1231.0</ele>
        <time>2022-08-15T13:23:45Z</time>
      </trkpt>
      <trkpt lat="4.1213210" lon="-76.3676090">
        <ele>1232.0</ele>
        <time>2022-08-15T13:23:52Z</time>
      </trkpt>
      <trkpt lat="4.1213150" lon="-76.3676240">
        <ele>1232.2</ele>
        <time>2022-08-15T13:23:53Z</time>
      </trkpt>
      <trkpt lat="4.1212800" lon="-76.3677060">
        <ele>1233.2</ele>
        <time>2022-08-15T13:23:58Z</time>
      </trkpt>
      <trkpt lat="4.1212490" lon="-76.3677770">
        <ele>1234.2</ele>
        <time>2022-08-15T13:24:03Z</time>
      </trkpt>
      <trkpt lat="4.1212450" lon="-76.3677920">
        <ele>1234.2</ele>
        <time>2022-08-15T13:24:04Z</time>
      </trkpt>
      <trkpt lat="4.1212320" lon="-76.3679070">
        <ele>1235.4</ele>
        <time>2022-08-15T13:24:11Z</time>
      </trkpt>
      <trkpt lat="4.1212280" lon="-76.3679670">
        <ele>1235.8</ele>
        <time>2022-08-15T13:24:14Z</time>
      </trkpt>
      <trkpt lat="4.1212130" lon="-76.3680580">
        <ele>1236.6</ele>
        <time>2022-08-15T13:24:19Z</time>
      </trkpt>
      <trkpt lat="4.1212060" lon="-76.3680740">
        <ele>1236.8</ele>
        <time>2022-08-15T13:24:20Z</time>
      </trkpt>
      <trkpt lat="4.1211910" lon="-76.3681060">
        <ele>1237.0</ele>
        <time>2022-08-15T13:24:22Z</time>
      </trkpt>
      <trkpt lat="4.1211620" lon="-76.3681940">
        <ele>1237.6</ele>
        <time>2022-08-15T13:24:28Z</time>
      </trkpt>
      <trkpt lat="4.1211560" lon="-76.3682290">
        <ele>1237.8</ele>
        <time>2022-08-15T13:24:30Z</time>
      </trkpt>
      <trkpt lat="4.1211180" lon="-76.3683700">
        <ele>1238.8</ele>
        <time>2022-08-15T13:24:38Z</time>
      </trkpt>
      <trkpt lat="4.1210690" lon="-76.3685070">
        <ele>1239.8</ele>
        <time>2022-08-15T13:24:46Z</time>
      </trkpt>
      <trkpt lat="4.1210620" lon="-76.3685260">
        <ele>1240.0</ele>
        <time>2022-08-15T13:24:47Z</time>
      </trkpt>
      <trkpt lat="4.1210100" lon="-76.3686440">
        <ele>1240.8</ele>
        <time>2022-08-15T13:24:54Z</time>
      </trkpt>
      <trkpt lat="4.1209890" lon="-76.3686920">
        <ele>1241.2</ele>
        <time>2022-08-15T13:24:57Z</time>
      </trkpt>
      <trkpt lat="4.1209690" lon="-76.3687500">
        <ele>1241.8</ele>
        <time>2022-08-15T13:25:00Z</time>
      </trkpt>
      <trkpt lat="4.1209690" lon="-76.3688150">
        <ele>1242.6</ele>
        <time>2022-08-15T13:25:03Z</time>
      </trkpt>
      <trkpt lat="4.1209710" lon="-76.3688610">
        <ele>1243.0</ele>
        <time>2022-08-15T13:25:05Z</time>
      </trkpt>
      <trkpt lat="4.1209670" lon="-76.3689910">
        <ele>1244.2</ele>
        <time>2022-08-15T13:25:11Z</time>
      </trkpt>
      <trkpt lat="4.1209720" lon="-76.3690910">
        <ele>1245.2</ele>
        <time>2022-08-15T13:25:16Z</time>
      </trkpt>
      <trkpt lat="4.1209780" lon="-76.3691240">
        <ele>1245.4</ele>
        <time>2022-08-15T13:25:18Z</time>
      </trkpt>
      <trkpt lat="4.1209670" lon="-76.3692120">
        <ele>1246.4</ele>
        <time>2022-08-15T13:25:23Z</time>
      </trkpt>
      <trkpt lat="4.1209670" lon="-76.3692290">
        <ele>1246.4</ele>
        <time>2022-08-15T13:25:24Z</time>
      </trkpt>
      <trkpt lat="4.1209320" lon="-76.3693290">
        <ele>1247.2</ele>
        <time>2022-08-15T13:25:30Z</time>
      </trkpt>
      <trkpt lat="4.1209280" lon="-76.3693440">
        <ele>1247.4</ele>
        <time>2022-08-15T13:25:31Z</time>
      </trkpt>
      <trkpt lat="4.1209090" lon="-76.3694480">
        <ele>1248.4</ele>
        <time>2022-08-15T13:25:37Z</time>
      </trkpt>
      <trkpt lat="4.1209090" lon="-76.3694680">
        <ele>1248.6</ele>
        <time>2022-08-15T13:25:38Z</time>
      </trkpt>
      <trkpt lat="4.1209380" lon="-76.3695800">
        <ele>1249.8</ele>
        <time>2022-08-15T13:25:44Z</time>
      </trkpt>
      <trkpt lat="4.1209970" lon="-76.3697640">
        <ele>1251.0</ele>
        <time>2022-08-15T13:25:53Z</time>
      </trkpt>
      <trkpt lat="4.1210170" lon="-76.3699430">
        <ele>1251.4</ele>
        <time>2022-08-15T13:26:00Z</time>
      </trkpt>
      <trkpt lat="4.1210150" lon="-76.3699720">
        <ele>1251.6</ele>
        <time>2022-08-15T13:26:01Z</time>
      </trkpt>
      <trkpt lat="4.1210040" lon="-76.3701680">
        <ele>1251.6</ele>
        <time>2022-08-15T13:26:09Z</time>
      </trkpt>
      <trkpt lat="4.1210040" lon="-76.3701880">
        <ele>1251.8</ele>
        <time>2022-08-15T13:26:10Z</time>
      </trkpt>
      <trkpt lat="4.1210270" lon="-76.3703040">
        <ele>1252.2</ele>
        <time>2022-08-15T13:26:15Z</time>
      </trkpt>
      <trkpt lat="4.1210310" lon="-76.3704120">
        <ele>1252.8</ele>
        <time>2022-08-15T13:26:20Z</time>
      </trkpt>
      <trkpt lat="4.1210310" lon="-76.3704520">
        <ele>1253.0</ele>
        <time>2022-08-15T13:26:22Z</time>
      </trkpt>
      <trkpt lat="4.1209960" lon="-76.3705740">
        <ele>1253.8</ele>
        <time>2022-08-15T13:26:29Z</time>
      </trkpt>
      <trkpt lat="4.1209400" lon="-76.3706460">
        <ele>1254.8</ele>
        <time>2022-08-15T13:26:34Z</time>
      </trkpt>
      <trkpt lat="4.1209260" lon="-76.3706570">
        <ele>1255.0</ele>
        <time>2022-08-15T13:26:35Z</time>
      </trkpt>
      <trkpt lat="4.1208960" lon="-76.3706800">
        <ele>1255.2</ele>
        <time>2022-08-15T13:26:37Z</time>
      </trkpt>
      <trkpt lat="4.1208500" lon="-76.3707230">
        <ele>1256.2</ele>
        <time>2022-08-15T13:26:41Z</time>
      </trkpt>
      <trkpt lat="4.1208220" lon="-76.3707790">
        <ele>1257.2</ele>
        <time>2022-08-15T13:26:45Z</time>
      </trkpt>
      <trkpt lat="4.1208200" lon="-76.3707940">
        <ele>1257.4</ele>
        <time>2022-08-15T13:26:46Z</time>
      </trkpt>
      <trkpt lat="4.1208070" lon="-76.3708710">
        <ele>1258.6</ele>
        <time>2022-08-15T13:26:51Z</time>
      </trkpt>
      <trkpt lat="4.1208210" lon="-76.3709810">
        <ele>1259.6</ele>
        <time>2022-08-15T13:26:57Z</time>
      </trkpt>
      <trkpt lat="4.1208270" lon="-76.3710090">
        <ele>1260.0</ele>
        <time>2022-08-15T13:26:59Z</time>
      </trkpt>
      <trkpt lat="4.1208400" lon="-76.3710750">
        <ele>1260.6</ele>
        <time>2022-08-15T13:27:04Z</time>
      </trkpt>
      <trkpt lat="4.1208420" lon="-76.3711030">
        <ele>1261.0</ele>
        <time>2022-08-15T13:27:06Z</time>
      </trkpt>
      <trkpt lat="4.1208490" lon="-76.3711580">
        <ele>1261.8</ele>
        <time>2022-08-15T13:27:10Z</time>
      </trkpt>
      <trkpt lat="4.1208540" lon="-76.3712140">
        <ele>1262.6</ele>
        <time>2022-08-15T13:27:14Z</time>
      </trkpt>
      <trkpt lat="4.1208580" lon="-76.3712290">
        <ele>1262.8</ele>
        <time>2022-08-15T13:27:15Z</time>
      </trkpt>
      <trkpt lat="4.1208560" lon="-76.3713060">
        <ele>1263.4</ele>
        <time>2022-08-15T13:27:20Z</time>
      </trkpt>
      <trkpt lat="4.1208570" lon="-76.3713380">
        <ele>1263.8</ele>
        <time>2022-08-15T13:27:22Z</time>
      </trkpt>
      <trkpt lat="4.1208720" lon="-76.3714110">
        <ele>1264.4</ele>
        <time>2022-08-15T13:27:27Z</time>
      </trkpt>
      <trkpt lat="4.1208740" lon="-76.3714490">
        <ele>1265.0</ele>
        <time>2022-08-15T13:27:30Z</time>
      </trkpt>
      <trkpt lat="4.1208880" lon="-76.3715340">
        <ele>1266.0</ele>
        <time>2022-08-15T13:27:36Z</time>
      </trkpt>
      <trkpt lat="4.1208970" lon="-76.3716010">
        <ele>1267.0</ele>
        <time>2022-08-15T13:27:41Z</time>
      </trkpt>
      <trkpt lat="4.1209180" lon="-76.3716770">
        <ele>1268.0</ele>
        <time>2022-08-15T13:27:47Z</time>
      </trkpt>
      <trkpt lat="4.1209600" lon="-76.3717590">
        <ele>1269.4</ele>
        <time>2022-08-15T13:27:53Z</time>
      </trkpt>
      <trkpt lat="4.1209980" lon="-76.3717940">
        <ele>1270.0</ele>
        <time>2022-08-15T13:27:56Z</time>
      </trkpt>
      <trkpt lat="4.1210260" lon="-76.3718310">
        <ele>1270.4</ele>
        <time>2022-08-15T13:27:59Z</time>
      </trkpt>
      <trkpt lat="4.1210460" lon="-76.3718830">
        <ele>1271.0</ele>
        <time>2022-08-15T13:28:03Z</time>
      </trkpt>
      <trkpt lat="4.1210480" lon="-76.3719330">
        <ele>1271.6</ele>
        <time>2022-08-15T13:28:06Z</time>
      </trkpt>
      <trkpt lat="4.1210340" lon="-76.3719700">
        <ele>1272.0</ele>
        <time>2022-08-15T13:28:09Z</time>
      </trkpt>
      <trkpt lat="4.1210220" lon="-76.3719820">
        <ele>1272.2</ele>
        <time>2022-08-15T13:28:10Z</time>
      </trkpt>
      <trkpt lat="4.1210110" lon="-76.3719900">
        <ele>1272.6</ele>
        <time>2022-08-15T13:28:11Z</time>
      </trkpt>
      <trkpt lat="4.1209330" lon="-76.3720090">
        <ele>1273.6</ele>
        <time>2022-08-15T13:28:17Z</time>
      </trkpt>
      <trkpt lat="4.1208370" lon="-76.3720450">
        <ele>1274.8</ele>
        <time>2022-08-15T13:28:24Z</time>
      </trkpt>
      <trkpt lat="4.1208140" lon="-76.3720570">
        <ele>1275.2</ele>
        <time>2022-08-15T13:28:26Z</time>
      </trkpt>
      <trkpt lat="4.1207640" lon="-76.3720910">
        <ele>1276.0</ele>
        <time>2022-08-15T13:28:30Z</time>
      </trkpt>
      <trkpt lat="4.1207140" lon="-76.3721190">
        <ele>1276.8</ele>
        <time>2022-08-15T13:28:34Z</time>
      </trkpt>
      <trkpt lat="4.1206860" lon="-76.3721280">
        <ele>1277.2</ele>
        <time>2022-08-15T13:28:36Z</time>
      </trkpt>
      <trkpt lat="4.1206370" lon="-76.3721610">
        <ele>1278.0</ele>
        <time>2022-08-15T13:28:40Z</time>
      </trkpt>
      <trkpt lat="4.1206080" lon="-76.3722020">
        <ele>1278.8</ele>
        <time>2022-08-15T13:28:44Z</time>
      </trkpt>
      <trkpt lat="4.1206000" lon="-76.3722130">
        <ele>1279.0</ele>
        <time>2022-08-15T13:28:45Z</time>
      </trkpt>
      <trkpt lat="4.1205780" lon="-76.3722440">
        <ele>1279.6</ele>
        <time>2022-08-15T13:28:48Z</time>
      </trkpt>
      <trkpt lat="4.1205650" lon="-76.3722640">
        <ele>1280.0</ele>
        <time>2022-08-15T13:28:50Z</time>
      </trkpt>
      <trkpt lat="4.1205110" lon="-76.3723300">
        <ele>1281.2</ele>
        <time>2022-08-15T13:28:56Z</time>
      </trkpt>
      <trkpt lat="4.1204950" lon="-76.3723470">
        <ele>1281.6</ele>
        <time>2022-08-15T13:28:58Z</time>
      </trkpt>
      <trkpt lat="4.1204680" lon="-76.3723780">
        <ele>1282.0</ele>
        <time>2022-08-15T13:29:01Z</time>
      </trkpt>
      <trkpt lat="4.1204460" lon="-76.3724010">
        <ele>1282.2</ele>
        <time>2022-08-15T13:29:03Z</time>
      </trkpt>
      <trkpt lat="4.1204210" lon="-76.3724240">
        <ele>1282.6</ele>
        <time>2022-08-15T13:29:05Z</time>
      </trkpt>
      <trkpt lat="4.1203760" lon="-76.3724470">
        <ele>1283.4</ele>
        <time>2022-08-15T13:29:09Z</time>
      </trkpt>
      <trkpt lat="4.1203350" lon="-76.3724750">
        <ele>1283.8</ele>
        <time>2022-08-15T13:29:12Z</time>
      </trkpt>
      <trkpt lat="4.1203010" lon="-76.3725020">
        <ele>1284.4</ele>
        <time>2022-08-15T13:29:15Z</time>
      </trkpt>
      <trkpt lat="4.1202410" lon="-76.3725560">
        <ele>1285.0</ele>
        <time>2022-08-15T13:29:20Z</time>
      </trkpt>
      <trkpt lat="4.1202100" lon="-76.3725810">
        <ele>1285.6</ele>
        <time>2022-08-15T13:29:23Z</time>
      </trkpt>
      <trkpt lat="4.1201710" lon="-76.3726310">
        <ele>1286.0</ele>
        <time>2022-08-15T13:29:28Z</time>
      </trkpt>
      <trkpt lat="4.1201450" lon="-76.3726670">
        <ele>1286.6</ele>
        <time>2022-08-15T13:29:31Z</time>
      </trkpt>
      <trkpt lat="4.1200990" lon="-76.3727450">
        <ele>1287.6</ele>
        <time>2022-08-15T13:29:37Z</time>
      </trkpt>
      <trkpt lat="4.1200940" lon="-76.3727580">
        <ele>1287.8</ele>
        <time>2022-08-15T13:29:38Z</time>
      </trkpt>
      <trkpt lat="4.1200650" lon="-76.3728980">
        <ele>1288.6</ele>
        <time>2022-08-15T13:29:45Z</time>
      </trkpt>
      <trkpt lat="4.1200730" lon="-76.3730390">
        <ele>1289.4</ele>
        <time>2022-08-15T13:29:52Z</time>
      </trkpt>
      <trkpt lat="4.1200690" lon="-76.3730780">
        <ele>1289.6</ele>
        <time>2022-08-15T13:29:54Z</time>
      </trkpt>
      <trkpt lat="4.1200130" lon="-76.3731980">
        <ele>1290.6</ele>
        <time>2022-08-15T13:29:59Z</time>
      </trkpt>
      <trkpt lat="4.1199740" lon="-76.3732460">
        <ele>1290.6</ele>
        <time>2022-08-15T13:30:01Z</time>
      </trkpt>
      <trkpt lat="4.1198710" lon="-76.3733930">
        <ele>1290.8</ele>
        <time>2022-08-15T13:30:06Z</time>
      </trkpt>
      <trkpt lat="4.1197800" lon="-76.3735590">
        <ele>1290.8</ele>
        <time>2022-08-15T13:30:11Z</time>
      </trkpt>
      <trkpt lat="4.1197670" lon="-76.3736260">
        <ele>1290.8</ele>
        <time>2022-08-15T13:30:13Z</time>
      </trkpt>
      <trkpt lat="4.1197600" lon="-76.3737820">
        <ele>1290.8</ele>
        <time>2022-08-15T13:30:18Z</time>
      </trkpt>
      <trkpt lat="4.1197080" lon="-76.3738780">
        <ele>1290.8</ele>
        <time>2022-08-15T13:30:22Z</time>
      </trkpt>
      <trkpt lat="4.1195760" lon="-76.3739500">
        <ele>1291.6</ele>
        <time>2022-08-15T13:30:28Z</time>
      </trkpt>
      <trkpt lat="4.1194570" lon="-76.3740040">
        <ele>1292.4</ele>
        <time>2022-08-15T13:30:34Z</time>
      </trkpt>
      <trkpt lat="4.1193740" lon="-76.3740460">
        <ele>1292.6</ele>
        <time>2022-08-15T13:30:39Z</time>
      </trkpt>
      <trkpt lat="4.1193250" lon="-76.3740670">
        <ele>1293.0</ele>
        <time>2022-08-15T13:30:42Z</time>
      </trkpt>
      <trkpt lat="4.1192420" lon="-76.3741190">
        <ele>1293.6</ele>
        <time>2022-08-15T13:30:47Z</time>
      </trkpt>
      <trkpt lat="4.1192100" lon="-76.3741420">
        <ele>1294.0</ele>
        <time>2022-08-15T13:30:49Z</time>
      </trkpt>
      <trkpt lat="4.1191930" lon="-76.3741500">
        <ele>1294.2</ele>
        <time>2022-08-15T13:30:50Z</time>
      </trkpt>
      <trkpt lat="4.1191490" lon="-76.3741810">
        <ele>1294.6</ele>
        <time>2022-08-15T13:30:53Z</time>
      </trkpt>
      <trkpt lat="4.1191340" lon="-76.3741970">
        <ele>1294.8</ele>
        <time>2022-08-15T13:30:54Z</time>
      </trkpt>
      <trkpt lat="4.1190530" lon="-76.3742910">
        <ele>1295.8</ele>
        <time>2022-08-15T13:31:01Z</time>
      </trkpt>
      <trkpt lat="4.1190310" lon="-76.3743210">
        <ele>1296.2</ele>
        <time>2022-08-15T13:31:03Z</time>
      </trkpt>
      <trkpt lat="4.1189920" lon="-76.3743870">
        <ele>1297.0</ele>
        <time>2022-08-15T13:31:07Z</time>
      </trkpt>
      <trkpt lat="4.1189570" lon="-76.3744580">
        <ele>1297.6</ele>
        <time>2022-08-15T13:31:11Z</time>
      </trkpt>
      <trkpt lat="4.1189360" lon="-76.3745070">
        <ele>1298.2</ele>
        <time>2022-08-15T13:31:14Z</time>
      </trkpt>
      <trkpt lat="4.1189090" lon="-76.3746070">
        <ele>1299.2</ele>
        <time>2022-08-15T13:31:19Z</time>
      </trkpt>
      <trkpt lat="4.1189010" lon="-76.3747100">
        <ele>1300.2</ele>
        <time>2022-08-15T13:31:25Z</time>
      </trkpt>
      <trkpt lat="4.1188950" lon="-76.3747430">
        <ele>1300.6</ele>
        <time>2022-08-15T13:31:27Z</time>
      </trkpt>
      <trkpt lat="4.1188940" lon="-76.3747920">
        <ele>1301.2</ele>
        <time>2022-08-15T13:31:30Z</time>
      </trkpt>
      <trkpt lat="4.1189020" lon="-76.3748740">
        <ele>1302.4</ele>
        <time>2022-08-15T13:31:35Z</time>
      </trkpt>
      <trkpt lat="4.1189010" lon="-76.3749850">
        <ele>1303.4</ele>
        <time>2022-08-15T13:31:41Z</time>
      </trkpt>
      <trkpt lat="4.1189170" lon="-76.3750470">
        <ele>1304.2</ele>
        <time>2022-08-15T13:31:45Z</time>
      </trkpt>
      <trkpt lat="4.1189340" lon="-76.3750750">
        <ele>1304.6</ele>
        <time>2022-08-15T13:31:47Z</time>
      </trkpt>
      <trkpt lat="4.1189900" lon="-76.3751190">
        <ele>1305.0</ele>
        <time>2022-08-15T13:31:51Z</time>
      </trkpt>
      <trkpt lat="4.1190400" lon="-76.3751350">
        <ele>1305.6</ele>
        <time>2022-08-15T13:31:54Z</time>
      </trkpt>
      <trkpt lat="4.1191510" lon="-76.3751430">
        <ele>1306.6</ele>
        <time>2022-08-15T13:32:00Z</time>
      </trkpt>
      <trkpt lat="4.1192820" lon="-76.3751080">
        <ele>1307.8</ele>
        <time>2022-08-15T13:32:08Z</time>
      </trkpt>
      <trkpt lat="4.1192990" lon="-76.3751070">
        <ele>1308.0</ele>
        <time>2022-08-15T13:32:09Z</time>
      </trkpt>
      <trkpt lat="4.1194060" lon="-76.3751120">
        <ele>1309.0</ele>
        <time>2022-08-15T13:32:15Z</time>
      </trkpt>
      <trkpt lat="4.1194260" lon="-76.3751200">
        <ele>1309.2</ele>
        <time>2022-08-15T13:32:16Z</time>
      </trkpt>
      <trkpt lat="4.1194630" lon="-76.3751540">
        <ele>1309.6</ele>
        <time>2022-08-15T13:32:18Z</time>
      </trkpt>
      <trkpt lat="4.1194790" lon="-76.3752020">
        <ele>1310.0</ele>
        <time>2022-08-15T13:32:20Z</time>
      </trkpt>
      <trkpt lat="4.1194650" lon="-76.3753630">
        <ele>1310.6</ele>
        <time>2022-08-15T13:32:27Z</time>
      </trkpt>
      <trkpt lat="4.1194410" lon="-76.3754230">
        <ele>1310.8</ele>
        <time>2022-08-15T13:32:30Z</time>
      </trkpt>
      <trkpt lat="4.1193930" lon="-76.3754820">
        <ele>1311.4</ele>
        <time>2022-08-15T13:32:34Z</time>
      </trkpt>
      <trkpt lat="4.1193350" lon="-76.3755320">
        <ele>1312.0</ele>
        <time>2022-08-15T13:32:38Z</time>
      </trkpt>
      <trkpt lat="4.1192710" lon="-76.3755740">
        <ele>1312.8</ele>
        <time>2022-08-15T13:32:42Z</time>
      </trkpt>
      <trkpt lat="4.1192370" lon="-76.3755970">
        <ele>1313.2</ele>
        <time>2022-08-15T13:32:44Z</time>
      </trkpt>
      <trkpt lat="4.1191300" lon="-76.3756600">
        <ele>1314.2</ele>
        <time>2022-08-15T13:32:50Z</time>
      </trkpt>
      <trkpt lat="4.1190440" lon="-76.3757190">
        <ele>1315.4</ele>
        <time>2022-08-15T13:32:56Z</time>
      </trkpt>
      <trkpt lat="4.1190160" lon="-76.3757370">
        <ele>1316.0</ele>
        <time>2022-08-15T13:32:58Z</time>
      </trkpt>
      <trkpt lat="4.1189740" lon="-76.3757600">
        <ele>1316.4</ele>
        <time>2022-08-15T13:33:01Z</time>
      </trkpt>
      <trkpt lat="4.1189110" lon="-76.3758030">
        <ele>1317.2</ele>
        <time>2022-08-15T13:33:05Z</time>
      </trkpt>
      <trkpt lat="4.1188920" lon="-76.3758300">
        <ele>1317.6</ele>
        <time>2022-08-15T13:33:07Z</time>
      </trkpt>
      <trkpt lat="4.1188650" lon="-76.3758870">
        <ele>1318.4</ele>
        <time>2022-08-15T13:33:11Z</time>
      </trkpt>
      <trkpt lat="4.1188560" lon="-76.3759150">
        <ele>1318.8</ele>
        <time>2022-08-15T13:33:13Z</time>
      </trkpt>
      <trkpt lat="4.1188550" lon="-76.3760240">
        <ele>1320.0</ele>
        <time>2022-08-15T13:33:19Z</time>
      </trkpt>
      <trkpt lat="4.1188580" lon="-76.3760460">
        <ele>1319.8</ele>
        <time>2022-08-15T13:33:20Z</time>
      </trkpt>
      <trkpt lat="4.1188860" lon="-76.3761610">
        <ele>1320.8</ele>
        <time>2022-08-15T13:33:27Z</time>
      </trkpt>
      <trkpt lat="4.1188850" lon="-76.3761790">
        <ele>1321.0</ele>
        <time>2022-08-15T13:33:28Z</time>
      </trkpt>
      <trkpt lat="4.1188700" lon="-76.3762520">
        <ele>1322.0</ele>
        <time>2022-08-15T13:33:33Z</time>
      </trkpt>
      <trkpt lat="4.1188430" lon="-76.3763800">
        <ele>1323.0</ele>
        <time>2022-08-15T13:33:39Z</time>
      </trkpt>
      <trkpt lat="4.1188410" lon="-76.3764000">
        <ele>1323.0</ele>
        <time>2022-08-15T13:33:40Z</time>
      </trkpt>
      <trkpt lat="4.1188080" lon="-76.3764940">
        <ele>1324.0</ele>
        <time>2022-08-15T13:33:45Z</time>
      </trkpt>
      <trkpt lat="4.1187850" lon="-76.3765590">
        <ele>1324.8</ele>
        <time>2022-08-15T13:33:49Z</time>
      </trkpt>
      <trkpt lat="4.1187590" lon="-76.3766100">
        <ele>1325.2</ele>
        <time>2022-08-15T13:33:52Z</time>
      </trkpt>
      <trkpt lat="4.1186840" lon="-76.3766920">
        <ele>1326.2</ele>
        <time>2022-08-15T13:33:58Z</time>
      </trkpt>
      <trkpt lat="4.1185970" lon="-76.3767870">
        <ele>1327.2</ele>
        <time>2022-08-15T13:34:05Z</time>
      </trkpt>
      <trkpt lat="4.1185830" lon="-76.3767980">
        <ele>1327.4</ele>
        <time>2022-08-15T13:34:06Z</time>
      </trkpt>
      <trkpt lat="4.1185170" lon="-76.3769060">
        <ele>1328.6</ele>
        <time>2022-08-15T13:34:13Z</time>
      </trkpt>
      <trkpt lat="4.1185010" lon="-76.3769230">
        <ele>1328.8</ele>
        <time>2022-08-15T13:34:14Z</time>
      </trkpt>
      <trkpt lat="4.1184400" lon="-76.3769810">
        <ele>1329.6</ele>
        <time>2022-08-15T13:34:18Z</time>
      </trkpt>
      <trkpt lat="4.1184260" lon="-76.3769910">
        <ele>1329.8</ele>
        <time>2022-08-15T13:34:19Z</time>
      </trkpt>
      <trkpt lat="4.1183690" lon="-76.3770220">
        <ele>1330.4</ele>
        <time>2022-08-15T13:34:22Z</time>
      </trkpt>
      <trkpt lat="4.1183530" lon="-76.3770290">
        <ele>1330.8</ele>
        <time>2022-08-15T13:34:23Z</time>
      </trkpt>
      <trkpt lat="4.1182560" lon="-76.3770700">
        <ele>1332.0</ele>
        <time>2022-08-15T13:34:28Z</time>
      </trkpt>
      <trkpt lat="4.1181690" lon="-76.3770950">
        <ele>1332.8</ele>
        <time>2022-08-15T13:34:32Z</time>
      </trkpt>
      <trkpt lat="4.1181320" lon="-76.3771090">
        <ele>1333.0</ele>
        <time>2022-08-15T13:34:34Z</time>
      </trkpt>
      <trkpt lat="4.1179860" lon="-76.3771570">
        <ele>1334.2</ele>
        <time>2022-08-15T13:34:41Z</time>
      </trkpt>
      <trkpt lat="4.1179650" lon="-76.3771630">
        <ele>1334.2</ele>
        <time>2022-08-15T13:34:42Z</time>
      </trkpt>
      <trkpt lat="4.1178560" lon="-76.3771760">
        <ele>1335.2</ele>
        <time>2022-08-15T13:34:47Z</time>
      </trkpt>
      <trkpt lat="4.1178140" lon="-76.3771680">
        <ele>1335.4</ele>
        <time>2022-08-15T13:34:49Z</time>
      </trkpt>
      <trkpt lat="4.1177110" lon="-76.3770920">
        <ele>1336.2</ele>
        <time>2022-08-15T13:34:55Z</time>
      </trkpt>
      <trkpt lat="4.1176930" lon="-76.3770680">
        <ele>1336.2</ele>
        <time>2022-08-15T13:34:56Z</time>
      </trkpt>
      <trkpt lat="4.1175660" lon="-76.3769630">
        <ele>1336.8</ele>
        <time>2022-08-15T13:35:03Z</time>
      </trkpt>
      <trkpt lat="4.1174920" lon="-76.3769510">
        <ele>1337.0</ele>
        <time>2022-08-15T13:35:06Z</time>
      </trkpt>
      <trkpt lat="4.1174280" lon="-76.3769570">
        <ele>1337.4</ele>
        <time>2022-08-15T13:35:09Z</time>
      </trkpt>
      <trkpt lat="4.1173290" lon="-76.3769830">
        <ele>1338.2</ele>
        <time>2022-08-15T13:35:14Z</time>
      </trkpt>
      <trkpt lat="4.1172930" lon="-76.3769970">
        <ele>1338.4</ele>
        <time>2022-08-15T13:35:16Z</time>
      </trkpt>
      <trkpt lat="4.1171750" lon="-76.3770580">
        <ele>1339.4</ele>
        <time>2022-08-15T13:35:23Z</time>
      </trkpt>
      <trkpt lat="4.1171540" lon="-76.3770630">
        <ele>1339.6</ele>
        <time>2022-08-15T13:35:24Z</time>
      </trkpt>
      <trkpt lat="4.1170850" lon="-76.3770790">
        <ele>1340.4</ele>
        <time>2022-08-15T13:35:28Z</time>
      </trkpt>
      <trkpt lat="4.1169700" lon="-76.3771090">
        <ele>1341.6</ele>
        <time>2022-08-15T13:35:34Z</time>
      </trkpt>
      <trkpt lat="4.1168830" lon="-76.3771260">
        <ele>1342.6</ele>
        <time>2022-08-15T13:35:39Z</time>
      </trkpt>
      <trkpt lat="4.1168670" lon="-76.3771310">
        <ele>1343.0</ele>
        <time>2022-08-15T13:35:40Z</time>
      </trkpt>
      <trkpt lat="4.1167940" lon="-76.3771420">
        <ele>1343.8</ele>
        <time>2022-08-15T13:35:44Z</time>
      </trkpt>
      <trkpt lat="4.1167360" lon="-76.3771580">
        <ele>1344.0</ele>
        <time>2022-08-15T13:35:47Z</time>
      </trkpt>
      <trkpt lat="4.1166560" lon="-76.3772210">
        <ele>1345.0</ele>
        <time>2022-08-15T13:35:52Z</time>
      </trkpt>
      <trkpt lat="4.1166190" lon="-76.3772640">
        <ele>1345.2</ele>
        <time>2022-08-15T13:35:55Z</time>
      </trkpt>
      <trkpt lat="4.1165570" lon="-76.3773550">
        <ele>1345.8</ele>
        <time>2022-08-15T13:36:01Z</time>
      </trkpt>
      <trkpt lat="4.1165370" lon="-76.3773880">
        <ele>1346.4</ele>
        <time>2022-08-15T13:36:03Z</time>
      </trkpt>
      <trkpt lat="4.1164890" lon="-76.3774520">
        <ele>1346.8</ele>
        <time>2022-08-15T13:36:07Z</time>
      </trkpt>
      <trkpt lat="4.1164320" lon="-76.3775370">
        <ele>1347.6</ele>
        <time>2022-08-15T13:36:12Z</time>
      </trkpt>
      <trkpt lat="4.1163910" lon="-76.3775890">
        <ele>1348.0</ele>
        <time>2022-08-15T13:36:15Z</time>
      </trkpt>
      <trkpt lat="4.1162970" lon="-76.3776760">
        <ele>1348.6</ele>
        <time>2022-08-15T13:36:21Z</time>
      </trkpt>
      <trkpt lat="4.1162390" lon="-76.3777000">
        <ele>1349.2</ele>
        <time>2022-08-15T13:36:24Z</time>
      </trkpt>
      <trkpt lat="4.1161410" lon="-76.3777030">
        <ele>1349.8</ele>
        <time>2022-08-15T13:36:28Z</time>
      </trkpt>
      <trkpt lat="4.1160580" lon="-76.3776650">
        <ele>1350.2</ele>
        <time>2022-08-15T13:36:32Z</time>
      </trkpt>
      <trkpt lat="4.1159910" lon="-76.3776210">
        <ele>1350.4</ele>
        <time>2022-08-15T13:36:35Z</time>
      </trkpt>
      <trkpt lat="4.1158040" lon="-76.3775340">
        <ele>1350.8</ele>
        <time>2022-08-15T13:36:42Z</time>
      </trkpt>
      <trkpt lat="4.1157850" lon="-76.3775160">
        <ele>1350.8</ele>
        <time>2022-08-15T13:36:43Z</time>
      </trkpt>
      <trkpt lat="4.1156570" lon="-76.3773690">
        <ele>1350.8</ele>
        <time>2022-08-15T13:36:49Z</time>
      </trkpt>
      <trkpt lat="4.1156030" lon="-76.3772760">
        <ele>1350.8</ele>
        <time>2022-08-15T13:36:52Z</time>
      </trkpt>
      <trkpt lat="4.1154790" lon="-76.3770650">
        <ele>1350.8</ele>
        <time>2022-08-15T13:36:59Z</time>
      </trkpt>
      <trkpt lat="4.1153570" lon="-76.3770170">
        <ele>1350.6</ele>
        <time>2022-08-15T13:37:03Z</time>
      </trkpt>
      <trkpt lat="4.1152220" lon="-76.3771040">
        <ele>1350.6</ele>
        <time>2022-08-15T13:37:08Z</time>
      </trkpt>
      <trkpt lat="4.1151040" lon="-76.3773120">
        <ele>1351.0</ele>
        <time>2022-08-15T13:37:16Z</time>
      </trkpt>
      <trkpt lat="4.1150250" lon="-76.3774250">
        <ele>1351.2</ele>
        <time>2022-08-15T13:37:21Z</time>
      </trkpt>
      <trkpt lat="4.1149790" lon="-76.3774740">
        <ele>1351.6</ele>
        <time>2022-08-15T13:37:24Z</time>
      </trkpt>
      <trkpt lat="4.1149430" lon="-76.3775170">
        <ele>1352.2</ele>
        <time>2022-08-15T13:37:27Z</time>
      </trkpt>
      <trkpt lat="4.1149040" lon="-76.3775820">
        <ele>1353.2</ele>
        <time>2022-08-15T13:37:31Z</time>
      </trkpt>
      <trkpt lat="4.1148820" lon="-76.3776150">
        <ele>1353.4</ele>
        <time>2022-08-15T13:37:33Z</time>
      </trkpt>
      <trkpt lat="4.1148210" lon="-76.3776850">
        <ele>1354.6</ele>
        <time>2022-08-15T13:37:38Z</time>
      </trkpt>
      <trkpt lat="4.1148140" lon="-76.3777010">
        <ele>1354.8</ele>
        <time>2022-08-15T13:37:39Z</time>
      </trkpt>
      <trkpt lat="4.1147290" lon="-76.3778530">
        <ele>1355.6</ele>
        <time>2022-08-15T13:37:47Z</time>
      </trkpt>
      <trkpt lat="4.1146510" lon="-76.3779870">
        <ele>1356.8</ele>
        <time>2022-08-15T13:37:54Z</time>
      </trkpt>
      <trkpt lat="4.1146280" lon="-76.3780150">
        <ele>1357.0</ele>
        <time>2022-08-15T13:37:56Z</time>
      </trkpt>
      <trkpt lat="4.1145300" lon="-76.3780970">
        <ele>1358.0</ele>
        <time>2022-08-15T13:38:02Z</time>
      </trkpt>
      <trkpt lat="4.1144780" lon="-76.3781140">
        <ele>1358.4</ele>
        <time>2022-08-15T13:38:04Z</time>
      </trkpt>
      <trkpt lat="4.1143430" lon="-76.3781170">
        <ele>1359.0</ele>
        <time>2022-08-15T13:38:09Z</time>
      </trkpt>
      <trkpt lat="4.1143180" lon="-76.3781140">
        <ele>1358.8</ele>
        <time>2022-08-15T13:38:10Z</time>
      </trkpt>
      <trkpt lat="4.1141100" lon="-76.3780760">
        <ele>1359.2</ele>
        <time>2022-08-15T13:38:18Z</time>
      </trkpt>
      <trkpt lat="4.1140290" lon="-76.3780630">
        <ele>1359.4</ele>
        <time>2022-08-15T13:38:21Z</time>
      </trkpt>
      <trkpt lat="4.1138420" lon="-76.3780610">
        <ele>1359.8</ele>
        <time>2022-08-15T13:38:28Z</time>
      </trkpt>
      <trkpt lat="4.1137980" lon="-76.3780650">
        <ele>1360.0</ele>
        <time>2022-08-15T13:38:30Z</time>
      </trkpt>
      <trkpt lat="4.1137040" lon="-76.3780790">
        <ele>1360.6</ele>
        <time>2022-08-15T13:38:35Z</time>
      </trkpt>
      <trkpt lat="4.1136510" lon="-76.3780860">
        <ele>1361.0</ele>
        <time>2022-08-15T13:38:38Z</time>
      </trkpt>
      <trkpt lat="4.1135910" lon="-76.3780660">
        <ele>1361.8</ele>
        <time>2022-08-15T13:38:42Z</time>
      </trkpt>
      <trkpt lat="4.1135730" lon="-76.3780500">
        <ele>1362.4</ele>
        <time>2022-08-15T13:38:44Z</time>
      </trkpt>
      <trkpt lat="4.1135310" lon="-76.3780140">
        <ele>1363.2</ele>
        <time>2022-08-15T13:38:48Z</time>
      </trkpt>
      <trkpt lat="4.1135240" lon="-76.3780010">
        <ele>1363.4</ele>
        <time>2022-08-15T13:38:49Z</time>
      </trkpt>
      <trkpt lat="4.1134970" lon="-76.3779540">
        <ele>1364.4</ele>
        <time>2022-08-15T13:38:53Z</time>
      </trkpt>
      <trkpt lat="4.1134830" lon="-76.3779350">
        <ele>1364.6</ele>
        <time>2022-08-15T13:38:55Z</time>
      </trkpt>
      <trkpt lat="4.1134750" lon="-76.3779060">
        <ele>1364.8</ele>
        <time>2022-08-15T13:38:57Z</time>
      </trkpt>
      <trkpt lat="4.1134640" lon="-76.3778500">
        <ele>1365.4</ele>
        <time>2022-08-15T13:39:01Z</time>
      </trkpt>
      <trkpt lat="4.1134560" lon="-76.3778010">
        <ele>1366.0</ele>
        <time>2022-08-15T13:39:04Z</time>
      </trkpt>
      <trkpt lat="4.1134490" lon="-76.3777540">
        <ele>1366.2</ele>
        <time>2022-08-15T13:39:07Z</time>
      </trkpt>
      <trkpt lat="4.1134440" lon="-76.3777230">
        <ele>1366.6</ele>
        <time>2022-08-15T13:39:09Z</time>
      </trkpt>
      <trkpt lat="4.1134280" lon="-76.3776930">
        <ele>1367.0</ele>
        <time>2022-08-15T13:39:11Z</time>
      </trkpt>
      <trkpt lat="4.1134230" lon="-76.3776480">
        <ele>1367.6</ele>
        <time>2022-08-15T13:39:14Z</time>
      </trkpt>
      <trkpt lat="4.1134060" lon="-76.3775990">
        <ele>1368.2</ele>
        <time>2022-08-15T13:39:17Z</time>
      </trkpt>
      <trkpt lat="4.1133810" lon="-76.3775370">
        <ele>1368.8</ele>
        <time>2022-08-15T13:39:21Z</time>
      </trkpt>
      <trkpt lat="4.1133630" lon="-76.3775230">
        <ele>1369.0</ele>
        <time>2022-08-15T13:39:22Z</time>
      </trkpt>
      <trkpt lat="4.1133240" lon="-76.3774980">
        <ele>1369.4</ele>
        <time>2022-08-15T13:39:24Z</time>
      </trkpt>
      <trkpt lat="4.1132780" lon="-76.3774590">
        <ele>1369.8</ele>
        <time>2022-08-15T13:39:27Z</time>
      </trkpt>
      <trkpt lat="4.1132070" lon="-76.3774030">
        <ele>1370.4</ele>
        <time>2022-08-15T13:39:32Z</time>
      </trkpt>
      <trkpt lat="4.1131810" lon="-76.3773760">
        <ele>1370.6</ele>
        <time>2022-08-15T13:39:34Z</time>
      </trkpt>
      <trkpt lat="4.1130840" lon="-76.3773210">
        <ele>1371.6</ele>
        <time>2022-08-15T13:39:40Z</time>
      </trkpt>
      <trkpt lat="4.1130670" lon="-76.3773130">
        <ele>1372.0</ele>
        <time>2022-08-15T13:39:41Z</time>
      </trkpt>
      <trkpt lat="4.1129610" lon="-76.3772620">
        <ele>1372.8</ele>
        <time>2022-08-15T13:39:47Z</time>
      </trkpt>
      <trkpt lat="4.1129270" lon="-76.3772440">
        <ele>1373.2</ele>
        <time>2022-08-15T13:39:49Z</time>
      </trkpt>
      <trkpt lat="4.1128570" lon="-76.3772170">
        <ele>1373.8</ele>
        <time>2022-08-15T13:39:53Z</time>
      </trkpt>
      <trkpt lat="4.1128440" lon="-76.3772040">
        <ele>1374.0</ele>
        <time>2022-08-15T13:39:54Z</time>
      </trkpt>
      <trkpt lat="4.1128060" lon="-76.3771770">
        <ele>1374.2</ele>
        <time>2022-08-15T13:39:56Z</time>
      </trkpt>
      <trkpt lat="4.1126990" lon="-76.3771090">
        <ele>1375.2</ele>
        <time>2022-08-15T13:40:02Z</time>
      </trkpt>
      <trkpt lat="4.1126150" lon="-76.3770550">
        <ele>1376.2</ele>
        <time>2022-08-15T13:40:08Z</time>
      </trkpt>
      <trkpt lat="4.1126020" lon="-76.3770500">
        <ele>1376.6</ele>
        <time>2022-08-15T13:40:09Z</time>
      </trkpt>
      <trkpt lat="4.1125290" lon="-76.3770300">
        <ele>1377.2</ele>
        <time>2022-08-15T13:40:14Z</time>
      </trkpt>
      <trkpt lat="4.1124600" lon="-76.3770210">
        <ele>1378.2</ele>
        <time>2022-08-15T13:40:19Z</time>
      </trkpt>
      <trkpt lat="4.1124450" lon="-76.3770260">
        <ele>1378.2</ele>
        <time>2022-08-15T13:40:20Z</time>
      </trkpt>
      <trkpt lat="4.1123870" lon="-76.3770950">
        <ele>1379.4</ele>
        <time>2022-08-15T13:40:26Z</time>
      </trkpt>
      <trkpt lat="4.1124030" lon="-76.3772240">
        <ele>1380.6</ele>
        <time>2022-08-15T13:40:33Z</time>
      </trkpt>
      <trkpt lat="4.1124030" lon="-76.3772740">
        <ele>1380.8</ele>
        <time>2022-08-15T13:40:36Z</time>
      </trkpt>
      <trkpt lat="4.1124290" lon="-76.3774130">
        <ele>1381.6</ele>
        <time>2022-08-15T13:40:43Z</time>
      </trkpt>
      <trkpt lat="4.1124510" lon="-76.3775160">
        <ele>1382.4</ele>
        <time>2022-08-15T13:40:50Z</time>
      </trkpt>
      <trkpt lat="4.1124610" lon="-76.3775460">
        <ele>1382.6</ele>
        <time>2022-08-15T13:40:52Z</time>
      </trkpt>
      <trkpt lat="4.1124650" lon="-76.3775640">
        <ele>1382.8</ele>
        <time>2022-08-15T13:40:53Z</time>
      </trkpt>
      <trkpt lat="4.1125050" lon="-76.3776810">
        <ele>1383.8</ele>
        <time>2022-08-15T13:40:59Z</time>
      </trkpt>
      <trkpt lat="4.1125170" lon="-76.3777340">
        <ele>1384.2</ele>
        <time>2022-08-15T13:41:02Z</time>
      </trkpt>
      <trkpt lat="4.1125280" lon="-76.3778440">
        <ele>1384.6</ele>
        <time>2022-08-15T13:41:08Z</time>
      </trkpt>
      <trkpt lat="4.1125310" lon="-76.3778780">
        <ele>1385.0</ele>
        <time>2022-08-15T13:41:10Z</time>
      </trkpt>
      <trkpt lat="4.1125480" lon="-76.3779690">
        <ele>1385.8</ele>
        <time>2022-08-15T13:41:16Z</time>
      </trkpt>
      <trkpt lat="4.1125520" lon="-76.3779830">
        <ele>1386.0</ele>
        <time>2022-08-15T13:41:17Z</time>
      </trkpt>
      <trkpt lat="4.1125700" lon="-76.3780470">
        <ele>1387.2</ele>
        <time>2022-08-15T13:41:21Z</time>
      </trkpt>
      <trkpt lat="4.1125580" lon="-76.3781430">
        <ele>1388.0</ele>
        <time>2022-08-15T13:41:26Z</time>
      </trkpt>
      <trkpt lat="4.1125370" lon="-76.3781810">
        <ele>1388.4</ele>
        <time>2022-08-15T13:41:28Z</time>
      </trkpt>
      <trkpt lat="4.1124810" lon="-76.3782560">
        <ele>1388.8</ele>
        <time>2022-08-15T13:41:32Z</time>
      </trkpt>
      <trkpt lat="4.1124200" lon="-76.3783190">
        <ele>1389.4</ele>
        <time>2022-08-15T13:41:36Z</time>
      </trkpt>
      <trkpt lat="4.1124050" lon="-76.3783350">
        <ele>1389.6</ele>
        <time>2022-08-15T13:41:37Z</time>
      </trkpt>
      <trkpt lat="4.1123270" lon="-76.3784300">
        <ele>1389.8</ele>
        <time>2022-08-15T13:41:42Z</time>
      </trkpt>
      <trkpt lat="4.1122640" lon="-76.3784760">
        <ele>1390.2</ele>
        <time>2022-08-15T13:41:45Z</time>
      </trkpt>
      <trkpt lat="4.1121790" lon="-76.3785280">
        <ele>1391.2</ele>
        <time>2022-08-15T13:41:50Z</time>
      </trkpt>
      <trkpt lat="4.1121500" lon="-76.3785430">
        <ele>1391.4</ele>
        <time>2022-08-15T13:41:52Z</time>
      </trkpt>
      <trkpt lat="4.1120830" lon="-76.3785820">
        <ele>1391.4</ele>
        <time>2022-08-15T13:41:56Z</time>
      </trkpt>
      <trkpt lat="4.1120490" lon="-76.3786250">
        <ele>1392.2</ele>
        <time>2022-08-15T13:41:59Z</time>
      </trkpt>
      <trkpt lat="4.1120000" lon="-76.3786910">
        <ele>1392.8</ele>
        <time>2022-08-15T13:42:03Z</time>
      </trkpt>
      <trkpt lat="4.1119770" lon="-76.3787420">
        <ele>1393.2</ele>
        <time>2022-08-15T13:42:06Z</time>
      </trkpt>
      <trkpt lat="4.1119420" lon="-76.3787950">
        <ele>1394.0</ele>
        <time>2022-08-15T13:42:10Z</time>
      </trkpt>
      <trkpt lat="4.1119230" lon="-76.3788250">
        <ele>1394.4</ele>
        <time>2022-08-15T13:42:12Z</time>
      </trkpt>
      <trkpt lat="4.1118760" lon="-76.3789170">
        <ele>1395.6</ele>
        <time>2022-08-15T13:42:18Z</time>
      </trkpt>
      <trkpt lat="4.1118590" lon="-76.3789490">
        <ele>1395.8</ele>
        <time>2022-08-15T13:42:20Z</time>
      </trkpt>
      <trkpt lat="4.1118180" lon="-76.3790490">
        <ele>1396.4</ele>
        <time>2022-08-15T13:42:26Z</time>
      </trkpt>
      <trkpt lat="4.1118140" lon="-76.3790600">
        <ele>1396.6</ele>
        <time>2022-08-15T13:42:27Z</time>
      </trkpt>
      <trkpt lat="4.1117850" lon="-76.3791620">
        <ele>1397.6</ele>
        <time>2022-08-15T13:42:33Z</time>
      </trkpt>
      <trkpt lat="4.1117750" lon="-76.3792480">
        <ele>1398.8</ele>
        <time>2022-08-15T13:42:38Z</time>
      </trkpt>
      <trkpt lat="4.1117530" lon="-76.3793430">
        <ele>1399.6</ele>
        <time>2022-08-15T13:42:43Z</time>
      </trkpt>
      <trkpt lat="4.1117500" lon="-76.3793640">
        <ele>1399.8</ele>
        <time>2022-08-15T13:42:44Z</time>
      </trkpt>
      <trkpt lat="4.1116960" lon="-76.3795040">
        <ele>1401.0</ele>
        <time>2022-08-15T13:42:52Z</time>
      </trkpt>
      <trkpt lat="4.1116450" lon="-76.3795790">
        <ele>1401.8</ele>
        <time>2022-08-15T13:42:57Z</time>
      </trkpt>
      <trkpt lat="4.1116090" lon="-76.3796100">
        <ele>1402.0</ele>
        <time>2022-08-15T13:42:59Z</time>
      </trkpt>
      <trkpt lat="4.1115550" lon="-76.3796570">
        <ele>1402.8</ele>
        <time>2022-08-15T13:43:03Z</time>
      </trkpt>
      <trkpt lat="4.1114980" lon="-76.3797030">
        <ele>1403.4</ele>
        <time>2022-08-15T13:43:07Z</time>
      </trkpt>
      <trkpt lat="4.1114350" lon="-76.3797490">
        <ele>1404.0</ele>
        <time>2022-08-15T13:43:11Z</time>
      </trkpt>
      <trkpt lat="4.1113670" lon="-76.3797800">
        <ele>1404.4</ele>
        <time>2022-08-15T13:43:15Z</time>
      </trkpt>
      <trkpt lat="4.1112840" lon="-76.3797920">
        <ele>1405.0</ele>
        <time>2022-08-15T13:43:19Z</time>
      </trkpt>
      <trkpt lat="4.1112300" lon="-76.3798070">
        <ele>1405.4</ele>
        <time>2022-08-15T13:43:22Z</time>
      </trkpt>
      <trkpt lat="4.1111600" lon="-76.3798430">
        <ele>1406.2</ele>
        <time>2022-08-15T13:43:26Z</time>
      </trkpt>
      <trkpt lat="4.1111350" lon="-76.3798740">
        <ele>1406.4</ele>
        <time>2022-08-15T13:43:28Z</time>
      </trkpt>
      <trkpt lat="4.1110780" lon="-76.3799760">
        <ele>1406.8</ele>
        <time>2022-08-15T13:43:34Z</time>
      </trkpt>
      <trkpt lat="4.1110610" lon="-76.3800350">
        <ele>1407.2</ele>
        <time>2022-08-15T13:43:37Z</time>
      </trkpt>
      <trkpt lat="4.1110320" lon="-76.3800970">
        <ele>1407.6</ele>
        <time>2022-08-15T13:43:40Z</time>
      </trkpt>
      <trkpt lat="4.1110050" lon="-76.3801490">
        <ele>1408.0</ele>
        <time>2022-08-15T13:43:43Z</time>
      </trkpt>
      <trkpt lat="4.1109990" lon="-76.3801630">
        <ele>1408.0</ele>
        <time>2022-08-15T13:43:44Z</time>
      </trkpt>
      <trkpt lat="4.1109890" lon="-76.3801940">
        <ele>1408.4</ele>
        <time>2022-08-15T13:43:46Z</time>
      </trkpt>
      <trkpt lat="4.1109700" lon="-76.3802340">
        <ele>1408.8</ele>
        <time>2022-08-15T13:43:49Z</time>
      </trkpt>
      <trkpt lat="4.1109580" lon="-76.3802450">
        <ele>1409.2</ele>
        <time>2022-08-15T13:43:50Z</time>
      </trkpt>
      <trkpt lat="4.1109290" lon="-76.3802670">
        <ele>1409.6</ele>
        <time>2022-08-15T13:43:52Z</time>
      </trkpt>
      <trkpt lat="4.1108720" lon="-76.3803160">
        <ele>1410.2</ele>
        <time>2022-08-15T13:43:56Z</time>
      </trkpt>
      <trkpt lat="4.1108440" lon="-76.3803410">
        <ele>1410.4</ele>
        <time>2022-08-15T13:43:58Z</time>
      </trkpt>
      <trkpt lat="4.1107790" lon="-76.3804020">
        <ele>1411.4</ele>
        <time>2022-08-15T13:44:03Z</time>
      </trkpt>
      <trkpt lat="4.1107530" lon="-76.3804320">
        <ele>1411.8</ele>
        <time>2022-08-15T13:44:05Z</time>
      </trkpt>
      <trkpt lat="4.1107010" lon="-76.3805010">
        <ele>1412.6</ele>
        <time>2022-08-15T13:44:09Z</time>
      </trkpt>
      <trkpt lat="4.1106720" lon="-76.3805460">
        <ele>1413.0</ele>
        <time>2022-08-15T13:44:12Z</time>
      </trkpt>
      <trkpt lat="4.1106440" lon="-76.3805780">
        <ele>1413.4</ele>
        <time>2022-08-15T13:44:14Z</time>
      </trkpt>
      <trkpt lat="4.1106320" lon="-76.3806100">
        <ele>1414.0</ele>
        <time>2022-08-15T13:44:16Z</time>
      </trkpt>
      <trkpt lat="4.1106130" lon="-76.3806360">
        <ele>1414.4</ele>
        <time>2022-08-15T13:44:18Z</time>
      </trkpt>
      <trkpt lat="4.1105670" lon="-76.3807170">
        <ele>1415.0</ele>
        <time>2022-08-15T13:44:23Z</time>
      </trkpt>
      <trkpt lat="4.1105420" lon="-76.3807530">
        <ele>1415.2</ele>
        <time>2022-08-15T13:44:25Z</time>
      </trkpt>
      <trkpt lat="4.1104710" lon="-76.3808370">
        <ele>1416.2</ele>
        <time>2022-08-15T13:44:30Z</time>
      </trkpt>
      <trkpt lat="4.1104610" lon="-76.3808500">
        <ele>1416.2</ele>
        <time>2022-08-15T13:44:31Z</time>
      </trkpt>
      <trkpt lat="4.1104290" lon="-76.3808960">
        <ele>1416.6</ele>
        <time>2022-08-15T13:44:34Z</time>
      </trkpt>
      <trkpt lat="4.1104080" lon="-76.3809050">
        <ele>1416.8</ele>
        <time>2022-08-15T13:44:35Z</time>
      </trkpt>
      <trkpt lat="4.1103880" lon="-76.3809110">
        <ele>1416.8</ele>
        <time>2022-08-15T13:44:36Z</time>
      </trkpt>
      <trkpt lat="4.1103460" lon="-76.3809370">
        <ele>1417.4</ele>
        <time>2022-08-15T13:44:38Z</time>
      </trkpt>
      <trkpt lat="4.1103090" lon="-76.3809650">
        <ele>1417.8</ele>
        <time>2022-08-15T13:44:40Z</time>
      </trkpt>
      <trkpt lat="4.1102580" lon="-76.3810000">
        <ele>1418.4</ele>
        <time>2022-08-15T13:44:43Z</time>
      </trkpt>
      <trkpt lat="4.1102270" lon="-76.3810290">
        <ele>1418.6</ele>
        <time>2022-08-15T13:44:46Z</time>
      </trkpt>
      <trkpt lat="4.1102110" lon="-76.3810340">
        <ele>1418.6</ele>
        <time>2022-08-15T13:44:47Z</time>
      </trkpt>
      <trkpt lat="4.1101240" lon="-76.3810570">
        <ele>1419.4</ele>
        <time>2022-08-15T13:44:52Z</time>
      </trkpt>
      <trkpt lat="4.1100140" lon="-76.3810560">
        <ele>1420.4</ele>
        <time>2022-08-15T13:44:58Z</time>
      </trkpt>
      <trkpt lat="4.1099780" lon="-76.3810420">
        <ele>1420.8</ele>
        <time>2022-08-15T13:45:00Z</time>
      </trkpt>
      <trkpt lat="4.1098920" lon="-76.3810030">
        <ele>1421.6</ele>
        <time>2022-08-15T13:45:05Z</time>
      </trkpt>
      <trkpt lat="4.1098000" lon="-76.3809300">
        <ele>1422.4</ele>
        <time>2022-08-15T13:45:11Z</time>
      </trkpt>
      <trkpt lat="4.1097880" lon="-76.3809080">
        <ele>1422.6</ele>
        <time>2022-08-15T13:45:12Z</time>
      </trkpt>
      <trkpt lat="4.1097080" lon="-76.3808330">
        <ele>1423.2</ele>
        <time>2022-08-15T13:45:18Z</time>
      </trkpt>
      <trkpt lat="4.1096940" lon="-76.3808220">
        <ele>1423.4</ele>
        <time>2022-08-15T13:45:19Z</time>
      </trkpt>
      <trkpt lat="4.1095650" lon="-76.3807450">
        <ele>1424.4</ele>
        <time>2022-08-15T13:45:27Z</time>
      </trkpt>
      <trkpt lat="4.1094590" lon="-76.3807510">
        <ele>1425.2</ele>
        <time>2022-08-15T13:45:33Z</time>
      </trkpt>
      <trkpt lat="4.1094140" lon="-76.3807440">
        <ele>1425.6</ele>
        <time>2022-08-15T13:45:36Z</time>
      </trkpt>
      <trkpt lat="4.1093660" lon="-76.3807280">
        <ele>1425.8</ele>
        <time>2022-08-15T13:45:39Z</time>
      </trkpt>
      <trkpt lat="4.1092940" lon="-76.3806930">
        <ele>1426.6</ele>
        <time>2022-08-15T13:45:44Z</time>
      </trkpt>
      <trkpt lat="4.1092680" lon="-76.3806730">
        <ele>1426.8</ele>
        <time>2022-08-15T13:45:46Z</time>
      </trkpt>
      <trkpt lat="4.1091350" lon="-76.3806330">
        <ele>1427.4</ele>
        <time>2022-08-15T13:45:53Z</time>
      </trkpt>
      <trkpt lat="4.1091180" lon="-76.3806320">
        <ele>1427.6</ele>
        <time>2022-08-15T13:45:54Z</time>
      </trkpt>
      <trkpt lat="4.1089930" lon="-76.3805980">
        <ele>1428.6</ele>
        <time>2022-08-15T13:46:00Z</time>
      </trkpt>
      <trkpt lat="4.1089790" lon="-76.3805920">
        <ele>1428.6</ele>
        <time>2022-08-15T13:46:01Z</time>
      </trkpt>
      <trkpt lat="4.1088840" lon="-76.3805380">
        <ele>1429.6</ele>
        <time>2022-08-15T13:46:07Z</time>
      </trkpt>
      <trkpt lat="4.1088680" lon="-76.3805300">
        <ele>1429.8</ele>
        <time>2022-08-15T13:46:08Z</time>
      </trkpt>
      <trkpt lat="4.1087540" lon="-76.3804830">
        <ele>1430.8</ele>
        <time>2022-08-15T13:46:14Z</time>
      </trkpt>
      <trkpt lat="4.1087390" lon="-76.3804800">
        <ele>1431.0</ele>
        <time>2022-08-15T13:46:15Z</time>
      </trkpt>
      <trkpt lat="4.1085810" lon="-76.3804470">
        <ele>1432.0</ele>
        <time>2022-08-15T13:46:23Z</time>
      </trkpt>
      <trkpt lat="4.1084420" lon="-76.3804000">
        <ele>1433.0</ele>
        <time>2022-08-15T13:46:31Z</time>
      </trkpt>
      <trkpt lat="4.1083790" lon="-76.3804020">
        <ele>1433.4</ele>
        <time>2022-08-15T13:46:34Z</time>
      </trkpt>
      <trkpt lat="4.1082820" lon="-76.3804400">
        <ele>1434.2</ele>
        <time>2022-08-15T13:46:40Z</time>
      </trkpt>
      <trkpt lat="4.1082190" lon="-76.3805460">
        <ele>1434.8</ele>
        <time>2022-08-15T13:46:47Z</time>
      </trkpt>
      <trkpt lat="4.1082060" lon="-76.3805800">
        <ele>1435.2</ele>
        <time>2022-08-15T13:46:49Z</time>
      </trkpt>
      <trkpt lat="4.1081650" lon="-76.3806680">
        <ele>1436.2</ele>
        <time>2022-08-15T13:46:55Z</time>
      </trkpt>
      <trkpt lat="4.1081590" lon="-76.3806780">
        <ele>1436.4</ele>
        <time>2022-08-15T13:46:56Z</time>
      </trkpt>
      <trkpt lat="4.1081540" lon="-76.3806920">
        <ele>1436.6</ele>
        <time>2022-08-15T13:46:57Z</time>
      </trkpt>
      <trkpt lat="4.1081130" lon="-76.3807620">
        <ele>1437.6</ele>
        <time>2022-08-15T13:47:02Z</time>
      </trkpt>
      <trkpt lat="4.1080100" lon="-76.3808050">
        <ele>1438.2</ele>
        <time>2022-08-15T13:47:08Z</time>
      </trkpt>
      <trkpt lat="4.1079710" lon="-76.3808380">
        <ele>1438.6</ele>
        <time>2022-08-15T13:47:11Z</time>
      </trkpt>
      <trkpt lat="4.1079300" lon="-76.3809100">
        <ele>1439.6</ele>
        <time>2022-08-15T13:47:16Z</time>
      </trkpt>
      <trkpt lat="4.1079300" lon="-76.3809850">
        <ele>1441.0</ele>
        <time>2022-08-15T13:47:22Z</time>
      </trkpt>
      <trkpt lat="4.1079380" lon="-76.3809940">
        <ele>1441.2</ele>
        <time>2022-08-15T13:47:23Z</time>
      </trkpt>
      <trkpt lat="4.1079480" lon="-76.3810000">
        <ele>1441.4</ele>
        <time>2022-08-15T13:47:24Z</time>
      </trkpt>
      <trkpt lat="4.1079710" lon="-76.3810070">
        <ele>1441.8</ele>
        <time>2022-08-15T13:47:26Z</time>
      </trkpt>
      <trkpt lat="4.1079840" lon="-76.3810060">
        <ele>1442.2</ele>
        <time>2022-08-15T13:47:27Z</time>
      </trkpt>
      <trkpt lat="4.1079980" lon="-76.3810020">
        <ele>1442.4</ele>
        <time>2022-08-15T13:47:28Z</time>
      </trkpt>
      <trkpt lat="4.1080100" lon="-76.3809940">
        <ele>1442.4</ele>
        <time>2022-08-15T13:47:29Z</time>
      </trkpt>
      <trkpt lat="4.1080510" lon="-76.3809720">
        <ele>1443.2</ele>
        <time>2022-08-15T13:47:32Z</time>
      </trkpt>
      <trkpt lat="4.1080650" lon="-76.3809610">
        <ele>1443.2</ele>
        <time>2022-08-15T13:47:33Z</time>
      </trkpt>
      <trkpt lat="4.1081150" lon="-76.3809100">
        <ele>1444.2</ele>
        <time>2022-08-15T13:47:37Z</time>
      </trkpt>
      <trkpt lat="4.1081260" lon="-76.3808960">
        <ele>1444.4</ele>
        <time>2022-08-15T13:47:38Z</time>
      </trkpt>
      <trkpt lat="4.1081860" lon="-76.3808390">
        <ele>1445.4</ele>
        <time>2022-08-15T13:47:43Z</time>
      </trkpt>
      <trkpt lat="4.1082110" lon="-76.3808230">
        <ele>1445.6</ele>
        <time>2022-08-15T13:47:45Z</time>
      </trkpt>
      <trkpt lat="4.1082930" lon="-76.3807650">
        <ele>1446.2</ele>
        <time>2022-08-15T13:47:51Z</time>
      </trkpt>
      <trkpt lat="4.1083240" lon="-76.3807490">
        <ele>1446.4</ele>
        <time>2022-08-15T13:47:53Z</time>
      </trkpt>
      <trkpt lat="4.1084160" lon="-76.3807500">
        <ele>1447.4</ele>
        <time>2022-08-15T13:47:58Z</time>
      </trkpt>
      <trkpt lat="4.1084540" lon="-76.3807680">
        <ele>1447.6</ele>
        <time>2022-08-15T13:48:00Z</time>
      </trkpt>
      <trkpt lat="4.1085620" lon="-76.3808670">
        <ele>1448.4</ele>
        <time>2022-08-15T13:48:07Z</time>
      </trkpt>
      <trkpt lat="4.1085740" lon="-76.3808810">
        <ele>1448.6</ele>
        <time>2022-08-15T13:48:08Z</time>
      </trkpt>
      <trkpt lat="4.1086780" lon="-76.3809590">
        <ele>1449.6</ele>
        <time>2022-08-15T13:48:15Z</time>
      </trkpt>
      <trkpt lat="4.1087880" lon="-76.3810120">
        <ele>1450.4</ele>
        <time>2022-08-15T13:48:21Z</time>
      </trkpt>
      <trkpt lat="4.1088860" lon="-76.3811060">
        <ele>1451.6</ele>
        <time>2022-08-15T13:48:28Z</time>
      </trkpt>
      <trkpt lat="4.1089540" lon="-76.3811940">
        <ele>1452.6</ele>
        <time>2022-08-15T13:48:34Z</time>
      </trkpt>
      <trkpt lat="4.1089670" lon="-76.3812080">
        <ele>1452.6</ele>
        <time>2022-08-15T13:48:35Z</time>
      </trkpt>
      <trkpt lat="4.1089770" lon="-76.3812200">
        <ele>1452.8</ele>
        <time>2022-08-15T13:48:36Z</time>
      </trkpt>
      <trkpt lat="4.1090450" lon="-76.3812900">
        <ele>1453.2</ele>
        <time>2022-08-15T13:48:41Z</time>
      </trkpt>
      <trkpt lat="4.1090570" lon="-76.3812960">
        <ele>1453.6</ele>
        <time>2022-08-15T13:48:42Z</time>
      </trkpt>
      <trkpt lat="4.1090670" lon="-76.3813130">
        <ele>1453.6</ele>
        <time>2022-08-15T13:48:43Z</time>
      </trkpt>
      <trkpt lat="4.1091510" lon="-76.3813770">
        <ele>1454.4</ele>
        <time>2022-08-15T13:48:48Z</time>
      </trkpt>
      <trkpt lat="4.1091670" lon="-76.3813810">
        <ele>1454.6</ele>
        <time>2022-08-15T13:48:49Z</time>
      </trkpt>
      <trkpt lat="4.1091870" lon="-76.3813810">
        <ele>1454.8</ele>
        <time>2022-08-15T13:48:50Z</time>
      </trkpt>
      <trkpt lat="4.1092510" lon="-76.3813710">
        <ele>1455.2</ele>
        <time>2022-08-15T13:48:53Z</time>
      </trkpt>
      <trkpt lat="4.1093570" lon="-76.3813530">
        <ele>1455.4</ele>
        <time>2022-08-15T13:48:58Z</time>
      </trkpt>
      <trkpt lat="4.1093750" lon="-76.3813550">
        <ele>1455.6</ele>
        <time>2022-08-15T13:48:59Z</time>
      </trkpt>
      <trkpt lat="4.1094220" lon="-76.3813640">
        <ele>1456.6</ele>
        <time>2022-08-15T13:49:01Z</time>
      </trkpt>
      <trkpt lat="4.1094890" lon="-76.3814280">
        <ele>1457.4</ele>
        <time>2022-08-15T13:49:05Z</time>
      </trkpt>
      <trkpt lat="4.1095260" lon="-76.3814650">
        <ele>1457.8</ele>
        <time>2022-08-15T13:49:07Z</time>
      </trkpt>
      <trkpt lat="4.1095940" lon="-76.3815440">
        <ele>1459.0</ele>
        <time>2022-08-15T13:49:12Z</time>
      </trkpt>
      <trkpt lat="4.1096070" lon="-76.3815630">
        <ele>1459.0</ele>
        <time>2022-08-15T13:49:13Z</time>
      </trkpt>
      <trkpt lat="4.1096710" lon="-76.3816410">
        <ele>1459.8</ele>
        <time>2022-08-15T13:49:19Z</time>
      </trkpt>
      <trkpt lat="4.1097040" lon="-76.3816700">
        <ele>1460.0</ele>
        <time>2022-08-15T13:49:21Z</time>
      </trkpt>
      <trkpt lat="4.1097590" lon="-76.3817260">
        <ele>1461.0</ele>
        <time>2022-08-15T13:49:25Z</time>
      </trkpt>
      <trkpt lat="4.1097750" lon="-76.3817470">
        <ele>1461.2</ele>
        <time>2022-08-15T13:49:26Z</time>
      </trkpt>
      <trkpt lat="4.1098610" lon="-76.3818680">
        <ele>1462.0</ele>
        <time>2022-08-15T13:49:33Z</time>
      </trkpt>
      <trkpt lat="4.1098890" lon="-76.3819030">
        <ele>1462.4</ele>
        <time>2022-08-15T13:49:35Z</time>
      </trkpt>
      <trkpt lat="4.1099390" lon="-76.3819930">
        <ele>1463.2</ele>
        <time>2022-08-15T13:49:40Z</time>
      </trkpt>
      <trkpt lat="4.1099420" lon="-76.3820100">
        <ele>1463.2</ele>
        <time>2022-08-15T13:49:41Z</time>
      </trkpt>
      <trkpt lat="4.1098960" lon="-76.3821240">
        <ele>1464.0</ele>
        <time>2022-08-15T13:49:47Z</time>
      </trkpt>
      <trkpt lat="4.1098780" lon="-76.3821440">
        <ele>1464.2</ele>
        <time>2022-08-15T13:49:48Z</time>
      </trkpt>
      <trkpt lat="4.1097780" lon="-76.3822120">
        <ele>1464.8</ele>
        <time>2022-08-15T13:49:54Z</time>
      </trkpt>
      <trkpt lat="4.1097170" lon="-76.3822530">
        <ele>1465.2</ele>
        <time>2022-08-15T13:49:58Z</time>
      </trkpt>
      <trkpt lat="4.1096760" lon="-76.3822970">
        <ele>1465.8</ele>
        <time>2022-08-15T13:50:02Z</time>
      </trkpt>
      <trkpt lat="4.1096680" lon="-76.3823700">
        <ele>1466.4</ele>
        <time>2022-08-15T13:50:06Z</time>
      </trkpt>
      <trkpt lat="4.1096740" lon="-76.3824240">
        <ele>1467.0</ele>
        <time>2022-08-15T13:50:09Z</time>
      </trkpt>
      <trkpt lat="4.1096810" lon="-76.3824590">
        <ele>1467.2</ele>
        <time>2022-08-15T13:50:11Z</time>
      </trkpt>
      <trkpt lat="4.1096640" lon="-76.3825550">
        <ele>1468.0</ele>
        <time>2022-08-15T13:50:16Z</time>
      </trkpt>
      <trkpt lat="4.1096540" lon="-76.3825750">
        <ele>1468.2</ele>
        <time>2022-08-15T13:50:17Z</time>
      </trkpt>
      <trkpt lat="4.1095660" lon="-76.3826440">
        <ele>1468.8</ele>
        <time>2022-08-15T13:50:22Z</time>
      </trkpt>
      <trkpt lat="4.1094990" lon="-76.3826660">
        <ele>1469.2</ele>
        <time>2022-08-15T13:50:26Z</time>
      </trkpt>
      <trkpt lat="4.1094040" lon="-76.3826810">
        <ele>1469.8</ele>
        <time>2022-08-15T13:50:31Z</time>
      </trkpt>
      <trkpt lat="4.1093440" lon="-76.3826880">
        <ele>1470.4</ele>
        <time>2022-08-15T13:50:34Z</time>
      </trkpt>
      <trkpt lat="4.1092460" lon="-76.3827190">
        <ele>1471.2</ele>
        <time>2022-08-15T13:50:39Z</time>
      </trkpt>
      <trkpt lat="4.1092300" lon="-76.3827290">
        <ele>1471.4</ele>
        <time>2022-08-15T13:50:40Z</time>
      </trkpt>
      <trkpt lat="4.1091680" lon="-76.3827680">
        <ele>1471.6</ele>
        <time>2022-08-15T13:50:44Z</time>
      </trkpt>
      <trkpt lat="4.1090850" lon="-76.3828090">
        <ele>1472.2</ele>
        <time>2022-08-15T13:50:49Z</time>
      </trkpt>
      <trkpt lat="4.1090110" lon="-76.3828480">
        <ele>1473.2</ele>
        <time>2022-08-15T13:50:54Z</time>
      </trkpt>
      <trkpt lat="4.1089920" lon="-76.3828530">
        <ele>1473.4</ele>
        <time>2022-08-15T13:50:55Z</time>
      </trkpt>
      <trkpt lat="4.1089640" lon="-76.3828600">
        <ele>1473.8</ele>
        <time>2022-08-15T13:50:57Z</time>
      </trkpt>
      <trkpt lat="4.1089510" lon="-76.3828600">
        <ele>1473.8</ele>
        <time>2022-08-15T13:50:58Z</time>
      </trkpt>
      <trkpt lat="4.1089190" lon="-76.3828630">
        <ele>1474.4</ele>
        <time>2022-08-15T13:51:00Z</time>
      </trkpt>
      <trkpt lat="4.1089010" lon="-76.3828710">
        <ele>1474.6</ele>
        <time>2022-08-15T13:51:01Z</time>
      </trkpt>
      <trkpt lat="4.1088160" lon="-76.3829570">
        <ele>1475.4</ele>
        <time>2022-08-15T13:51:09Z</time>
      </trkpt>
      <trkpt lat="4.1088070" lon="-76.3829730">
        <ele>1475.6</ele>
        <time>2022-08-15T13:51:10Z</time>
      </trkpt>
      <trkpt lat="4.1087630" lon="-76.3830440">
        <ele>1476.8</ele>
        <time>2022-08-15T13:51:15Z</time>
      </trkpt>
      <trkpt lat="4.1087240" lon="-76.3831060">
        <ele>1477.6</ele>
        <time>2022-08-15T13:51:19Z</time>
      </trkpt>
      <trkpt lat="4.1087150" lon="-76.3831210">
        <ele>1477.8</ele>
        <time>2022-08-15T13:51:20Z</time>
      </trkpt>
      <trkpt lat="4.1086770" lon="-76.3832000">
        <ele>1478.8</ele>
        <time>2022-08-15T13:51:25Z</time>
      </trkpt>
      <trkpt lat="4.1086680" lon="-76.3832320">
        <ele>1479.2</ele>
        <time>2022-08-15T13:51:27Z</time>
      </trkpt>
      <trkpt lat="4.1086600" lon="-76.3833180">
        <ele>1479.8</ele>
        <time>2022-08-15T13:51:32Z</time>
      </trkpt>
      <trkpt lat="4.1086610" lon="-76.3833690">
        <ele>1480.2</ele>
        <time>2022-08-15T13:51:35Z</time>
      </trkpt>
      <trkpt lat="4.1086660" lon="-76.3833990">
        <ele>1480.4</ele>
        <time>2022-08-15T13:51:37Z</time>
      </trkpt>
      <trkpt lat="4.1086730" lon="-76.3834300">
        <ele>1480.6</ele>
        <time>2022-08-15T13:51:39Z</time>
      </trkpt>
      <trkpt lat="4.1086990" lon="-76.3834820">
        <ele>1481.2</ele>
        <time>2022-08-15T13:51:42Z</time>
      </trkpt>
      <trkpt lat="4.1087240" lon="-76.3835300">
        <ele>1481.8</ele>
        <time>2022-08-15T13:51:45Z</time>
      </trkpt>
      <trkpt lat="4.1087510" lon="-76.3836080">
        <ele>1482.4</ele>
        <time>2022-08-15T13:51:49Z</time>
      </trkpt>
      <trkpt lat="4.1087540" lon="-76.3836460">
        <ele>1482.8</ele>
        <time>2022-08-15T13:51:51Z</time>
      </trkpt>
      <trkpt lat="4.1087500" lon="-76.3836820">
        <ele>1483.0</ele>
        <time>2022-08-15T13:51:53Z</time>
      </trkpt>
      <trkpt lat="4.1087340" lon="-76.3837340">
        <ele>1483.0</ele>
        <time>2022-08-15T13:51:56Z</time>
      </trkpt>
      <trkpt lat="4.1087190" lon="-76.3837810">
        <ele>1483.6</ele>
        <time>2022-08-15T13:51:59Z</time>
      </trkpt>
      <trkpt lat="4.1087240" lon="-76.3838370">
        <ele>1484.0</ele>
        <time>2022-08-15T13:52:02Z</time>
      </trkpt>
      <trkpt lat="4.1087400" lon="-76.3839560">
        <ele>1484.2</ele>
        <time>2022-08-15T13:52:09Z</time>
      </trkpt>
      <trkpt lat="4.1087640" lon="-76.3840260">
        <ele>1484.8</ele>
        <time>2022-08-15T13:52:12Z</time>
      </trkpt>
      <trkpt lat="4.1087870" lon="-76.3841050">
        <ele>1485.8</ele>
        <time>2022-08-15T13:52:16Z</time>
      </trkpt>
      <trkpt lat="4.1087930" lon="-76.3841240">
        <ele>1486.0</ele>
        <time>2022-08-15T13:52:17Z</time>
      </trkpt>
      <trkpt lat="4.1087850" lon="-76.3842110">
        <ele>1486.8</ele>
        <time>2022-08-15T13:52:22Z</time>
      </trkpt>
      <trkpt lat="4.1087580" lon="-76.3842560">
        <ele>1487.2</ele>
        <time>2022-08-15T13:52:25Z</time>
      </trkpt>
      <trkpt lat="4.1087110" lon="-76.3843460">
        <ele>1488.2</ele>
        <time>2022-08-15T13:52:30Z</time>
      </trkpt>
      <trkpt lat="4.1087050" lon="-76.3843610">
        <ele>1488.4</ele>
        <time>2022-08-15T13:52:31Z</time>
      </trkpt>
      <trkpt lat="4.1086710" lon="-76.3844990">
        <ele>1489.6</ele>
        <time>2022-08-15T13:52:39Z</time>
      </trkpt>
      <trkpt lat="4.1086670" lon="-76.3845190">
        <ele>1489.8</ele>
        <time>2022-08-15T13:52:40Z</time>
      </trkpt>
      <trkpt lat="4.1086580" lon="-76.3845830">
        <ele>1490.2</ele>
        <time>2022-08-15T13:52:44Z</time>
      </trkpt>
      <trkpt lat="4.1086490" lon="-76.3846370">
        <ele>1490.6</ele>
        <time>2022-08-15T13:52:47Z</time>
      </trkpt>
      <trkpt lat="4.1086310" lon="-76.3847290">
        <ele>1491.6</ele>
        <time>2022-08-15T13:52:52Z</time>
      </trkpt>
      <trkpt lat="4.1086280" lon="-76.3847480">
        <ele>1491.8</ele>
        <time>2022-08-15T13:52:53Z</time>
      </trkpt>
      <trkpt lat="4.1086090" lon="-76.3849020">
        <ele>1492.8</ele>
        <time>2022-08-15T13:53:01Z</time>
      </trkpt>
      <trkpt lat="4.1085720" lon="-76.3850460">
        <ele>1493.6</ele>
        <time>2022-08-15T13:53:09Z</time>
      </trkpt>
      <trkpt lat="4.1085600" lon="-76.3850610">
        <ele>1493.8</ele>
        <time>2022-08-15T13:53:10Z</time>
      </trkpt>
      <trkpt lat="4.1084690" lon="-76.3851340">
        <ele>1494.8</ele>
        <time>2022-08-15T13:53:16Z</time>
      </trkpt>
      <trkpt lat="4.1084500" lon="-76.3851410">
        <ele>1495.0</ele>
        <time>2022-08-15T13:53:17Z</time>
      </trkpt>
      <trkpt lat="4.1082890" lon="-76.3852040">
        <ele>1495.8</ele>
        <time>2022-08-15T13:53:25Z</time>
      </trkpt>
      <trkpt lat="4.1082700" lon="-76.3852150">
        <ele>1496.0</ele>
        <time>2022-08-15T13:53:26Z</time>
      </trkpt>
      <trkpt lat="4.1081960" lon="-76.3852640">
        <ele>1496.6</ele>
        <time>2022-08-15T13:53:31Z</time>
      </trkpt>
      <trkpt lat="4.1081820" lon="-76.3852790">
        <ele>1496.6</ele>
        <time>2022-08-15T13:53:32Z</time>
      </trkpt>
      <trkpt lat="4.1081440" lon="-76.3853090">
        <ele>1497.0</ele>
        <time>2022-08-15T13:53:35Z</time>
      </trkpt>
      <trkpt lat="4.1081010" lon="-76.3853450">
        <ele>1497.4</ele>
        <time>2022-08-15T13:53:38Z</time>
      </trkpt>
      <trkpt lat="4.1080780" lon="-76.3854130">
        <ele>1498.0</ele>
        <time>2022-08-15T13:53:41Z</time>
      </trkpt>
      <trkpt lat="4.1080570" lon="-76.3854530">
        <ele>1498.8</ele>
        <time>2022-08-15T13:53:44Z</time>
      </trkpt>
      <trkpt lat="4.1080550" lon="-76.3854930">
        <ele>1498.8</ele>
        <time>2022-08-15T13:53:46Z</time>
      </trkpt>
      <trkpt lat="4.1080630" lon="-76.3855330">
        <ele>1499.6</ele>
        <time>2022-08-15T13:53:48Z</time>
      </trkpt>
      <trkpt lat="4.1080780" lon="-76.3855550">
        <ele>1499.6</ele>
        <time>2022-08-15T13:53:49Z</time>
      </trkpt>
      <trkpt lat="4.1081320" lon="-76.3856120">
        <ele>1500.2</ele>
        <time>2022-08-15T13:53:52Z</time>
      </trkpt>
      <trkpt lat="4.1081720" lon="-76.3856510">
        <ele>1500.6</ele>
        <time>2022-08-15T13:53:54Z</time>
      </trkpt>
      <trkpt lat="4.1082670" lon="-76.3857270">
        <ele>1501.2</ele>
        <time>2022-08-15T13:54:01Z</time>
      </trkpt>
      <trkpt lat="4.1082840" lon="-76.3857340">
        <ele>1501.4</ele>
        <time>2022-08-15T13:54:02Z</time>
      </trkpt>
      <trkpt lat="4.1083870" lon="-76.3857670">
        <ele>1502.2</ele>
        <time>2022-08-15T13:54:08Z</time>
      </trkpt>
      <trkpt lat="4.1084040" lon="-76.3857730">
        <ele>1502.4</ele>
        <time>2022-08-15T13:54:09Z</time>
      </trkpt>
      <trkpt lat="4.1085130" lon="-76.3858080">
        <ele>1503.6</ele>
        <time>2022-08-15T13:54:16Z</time>
      </trkpt>
      <trkpt lat="4.1086300" lon="-76.3858620">
        <ele>1504.6</ele>
        <time>2022-08-15T13:54:24Z</time>
      </trkpt>
      <trkpt lat="4.1087280" lon="-76.3859130">
        <ele>1505.8</ele>
        <time>2022-08-15T13:54:30Z</time>
      </trkpt>
      <trkpt lat="4.1087590" lon="-76.3859260">
        <ele>1506.2</ele>
        <time>2022-08-15T13:54:32Z</time>
      </trkpt>
      <trkpt lat="4.1087690" lon="-76.3859330">
        <ele>1506.2</ele>
        <time>2022-08-15T13:54:33Z</time>
      </trkpt>
      <trkpt lat="4.1088100" lon="-76.3859610">
        <ele>1506.6</ele>
        <time>2022-08-15T13:54:36Z</time>
      </trkpt>
      <trkpt lat="4.1088750" lon="-76.3859990">
        <ele>1507.4</ele>
        <time>2022-08-15T13:54:41Z</time>
      </trkpt>
      <trkpt lat="4.1089030" lon="-76.3860140">
        <ele>1507.8</ele>
        <time>2022-08-15T13:54:43Z</time>
      </trkpt>
      <trkpt lat="4.1089590" lon="-76.3860420">
        <ele>1508.2</ele>
        <time>2022-08-15T13:54:47Z</time>
      </trkpt>
      <trkpt lat="4.1090080" lon="-76.3860620">
        <ele>1508.8</ele>
        <time>2022-08-15T13:54:50Z</time>
      </trkpt>
      <trkpt lat="4.1091270" lon="-76.3860950">
        <ele>1509.8</ele>
        <time>2022-08-15T13:54:57Z</time>
      </trkpt>
      <trkpt lat="4.1092340" lon="-76.3861390">
        <ele>1511.0</ele>
        <time>2022-08-15T13:55:04Z</time>
      </trkpt>
      <trkpt lat="4.1092490" lon="-76.3862320">
        <ele>1511.8</ele>
        <time>2022-08-15T13:55:10Z</time>
      </trkpt>
      <trkpt lat="4.1091450" lon="-76.3863180">
        <ele>1512.8</ele>
        <time>2022-08-15T13:55:18Z</time>
      </trkpt>
      <trkpt lat="4.1091180" lon="-76.3863390">
        <ele>1513.0</ele>
        <time>2022-08-15T13:55:20Z</time>
      </trkpt>
      <trkpt lat="4.1090430" lon="-76.3863910">
        <ele>1513.8</ele>
        <time>2022-08-15T13:55:26Z</time>
      </trkpt>
      <trkpt lat="4.1090350" lon="-76.3864020">
        <ele>1514.0</ele>
        <time>2022-08-15T13:55:27Z</time>
      </trkpt>
      <trkpt lat="4.1089990" lon="-76.3864560">
        <ele>1514.8</ele>
        <time>2022-08-15T13:55:32Z</time>
      </trkpt>
      <trkpt lat="4.1089840" lon="-76.3864830">
        <ele>1515.2</ele>
        <time>2022-08-15T13:55:34Z</time>
      </trkpt>
      <trkpt lat="4.1089530" lon="-76.3865530">
        <ele>1516.0</ele>
        <time>2022-08-15T13:55:39Z</time>
      </trkpt>
      <trkpt lat="4.1089420" lon="-76.3865880">
        <ele>1516.4</ele>
        <time>2022-08-15T13:55:41Z</time>
      </trkpt>
      <trkpt lat="4.1089400" lon="-76.3866030">
        <ele>1516.6</ele>
        <time>2022-08-15T13:55:42Z</time>
      </trkpt>
      <trkpt lat="4.1089410" lon="-76.3866370">
        <ele>1517.0</ele>
        <time>2022-08-15T13:55:44Z</time>
      </trkpt>
      <trkpt lat="4.1089440" lon="-76.3866660">
        <ele>1517.4</ele>
        <time>2022-08-15T13:55:46Z</time>
      </trkpt>
      <trkpt lat="4.1089410" lon="-76.3867400">
        <ele>1518.2</ele>
        <time>2022-08-15T13:55:51Z</time>
      </trkpt>
      <trkpt lat="4.1089340" lon="-76.3867880">
        <ele>1518.8</ele>
        <time>2022-08-15T13:55:54Z</time>
      </trkpt>
      <trkpt lat="4.1088780" lon="-76.3868660">
        <ele>1519.4</ele>
        <time>2022-08-15T13:56:00Z</time>
      </trkpt>
      <trkpt lat="4.1088650" lon="-76.3868750">
        <ele>1519.6</ele>
        <time>2022-08-15T13:56:01Z</time>
      </trkpt>
      <trkpt lat="4.1087680" lon="-76.3869290">
        <ele>1520.2</ele>
        <time>2022-08-15T13:56:08Z</time>
      </trkpt>
      <trkpt lat="4.1087120" lon="-76.3869670">
        <ele>1520.6</ele>
        <time>2022-08-15T13:56:12Z</time>
      </trkpt>
      <trkpt lat="4.1086710" lon="-76.3870100">
        <ele>1521.2</ele>
        <time>2022-08-15T13:56:16Z</time>
      </trkpt>
      <trkpt lat="4.1086540" lon="-76.3870520">
        <ele>1521.8</ele>
        <time>2022-08-15T13:56:19Z</time>
      </trkpt>
      <trkpt lat="4.1086320" lon="-76.3871240">
        <ele>1522.4</ele>
        <time>2022-08-15T13:56:23Z</time>
      </trkpt>
      <trkpt lat="4.1086010" lon="-76.3871970">
        <ele>1523.2</ele>
        <time>2022-08-15T13:56:28Z</time>
      </trkpt>
      <trkpt lat="4.1085660" lon="-76.3872290">
        <ele>1523.6</ele>
        <time>2022-08-15T13:56:31Z</time>
      </trkpt>
      <trkpt lat="4.1085210" lon="-76.3872410">
        <ele>1524.0</ele>
        <time>2022-08-15T13:56:34Z</time>
      </trkpt>
      <trkpt lat="4.1084520" lon="-76.3872280">
        <ele>1524.4</ele>
        <time>2022-08-15T13:56:38Z</time>
      </trkpt>
      <trkpt lat="4.1084050" lon="-76.3872000">
        <ele>1525.2</ele>
        <time>2022-08-15T13:56:41Z</time>
      </trkpt>
      <trkpt lat="4.1083710" lon="-76.3871650">
        <ele>1525.6</ele>
        <time>2022-08-15T13:56:44Z</time>
      </trkpt>
      <trkpt lat="4.1083150" lon="-76.3870950">
        <ele>1526.2</ele>
        <time>2022-08-15T13:56:49Z</time>
      </trkpt>
      <trkpt lat="4.1082800" lon="-76.3870610">
        <ele>1526.6</ele>
        <time>2022-08-15T13:56:52Z</time>
      </trkpt>
      <trkpt lat="4.1081810" lon="-76.3869880">
        <ele>1527.6</ele>
        <time>2022-08-15T13:56:59Z</time>
      </trkpt>
      <trkpt lat="4.1081810" lon="-76.3869880">
        <ele>1527.8</ele>
        <time>2022-08-15T13:57:00Z</time>
      </trkpt>
      <trkpt lat="4.1080920" lon="-76.3869460">
        <ele>1528.6</ele>
        <time>2022-08-15T13:57:05Z</time>
      </trkpt>
      <trkpt lat="4.1080730" lon="-76.3869440">
        <ele>1528.8</ele>
        <time>2022-08-15T13:57:06Z</time>
      </trkpt>
      <trkpt lat="4.1080600" lon="-76.3869420">
        <ele>1528.8</ele>
        <time>2022-08-15T13:57:07Z</time>
      </trkpt>
      <trkpt lat="4.1079680" lon="-76.3869360">
        <ele>1529.8</ele>
        <time>2022-08-15T13:57:13Z</time>
      </trkpt>
      <trkpt lat="4.1079030" lon="-76.3869550">
        <ele>1530.4</ele>
        <time>2022-08-15T13:57:17Z</time>
      </trkpt>
      <trkpt lat="4.1078590" lon="-76.3869750">
        <ele>1531.0</ele>
        <time>2022-08-15T13:57:20Z</time>
      </trkpt>
      <trkpt lat="4.1077970" lon="-76.3870130">
        <ele>1531.8</ele>
        <time>2022-08-15T13:57:25Z</time>
      </trkpt>
      <trkpt lat="4.1077720" lon="-76.3870310">
        <ele>1532.2</ele>
        <time>2022-08-15T13:57:27Z</time>
      </trkpt>
      <trkpt lat="4.1076910" lon="-76.3870940">
        <ele>1533.0</ele>
        <time>2022-08-15T13:57:33Z</time>
      </trkpt>
      <trkpt lat="4.1076720" lon="-76.3871050">
        <ele>1533.4</ele>
        <time>2022-08-15T13:57:34Z</time>
      </trkpt>
      <trkpt lat="4.1075940" lon="-76.3871130">
        <ele>1534.2</ele>
        <time>2022-08-15T13:57:38Z</time>
      </trkpt>
      <trkpt lat="4.1075330" lon="-76.3870940">
        <ele>1534.6</ele>
        <time>2022-08-15T13:57:41Z</time>
      </trkpt>
      <trkpt lat="4.1074380" lon="-76.3870400">
        <ele>1535.2</ele>
        <time>2022-08-15T13:57:46Z</time>
      </trkpt>
      <trkpt lat="4.1073880" lon="-76.3870010">
        <ele>1535.8</ele>
        <time>2022-08-15T13:57:49Z</time>
      </trkpt>
      <trkpt lat="4.1073130" lon="-76.3869560">
        <ele>1536.4</ele>
        <time>2022-08-15T13:57:53Z</time>
      </trkpt>
      <trkpt lat="4.1072500" lon="-76.3869250">
        <ele>1537.2</ele>
        <time>2022-08-15T13:57:56Z</time>
      </trkpt>
      <trkpt lat="4.1072110" lon="-76.3869060">
        <ele>1537.4</ele>
        <time>2022-08-15T13:57:58Z</time>
      </trkpt>
      <trkpt lat="4.1070960" lon="-76.3868680">
        <ele>1538.2</ele>
        <time>2022-08-15T13:58:04Z</time>
      </trkpt>
      <trkpt lat="4.1070150" lon="-76.3868770">
        <ele>1538.4</ele>
        <time>2022-08-15T13:58:08Z</time>
      </trkpt>
      <trkpt lat="4.1069330" lon="-76.3868970">
        <ele>1539.2</ele>
        <time>2022-08-15T13:58:13Z</time>
      </trkpt>
      <trkpt lat="4.1069170" lon="-76.3869040">
        <ele>1539.4</ele>
        <time>2022-08-15T13:58:14Z</time>
      </trkpt>
      <trkpt lat="4.1068320" lon="-76.3869390">
        <ele>1540.4</ele>
        <time>2022-08-15T13:58:19Z</time>
      </trkpt>
      <trkpt lat="4.1068170" lon="-76.3869520">
        <ele>1540.6</ele>
        <time>2022-08-15T13:58:20Z</time>
      </trkpt>
      <trkpt lat="4.1067670" lon="-76.3870200">
        <ele>1541.4</ele>
        <time>2022-08-15T13:58:25Z</time>
      </trkpt>
      <trkpt lat="4.1067500" lon="-76.3870600">
        <ele>1542.0</ele>
        <time>2022-08-15T13:58:28Z</time>
      </trkpt>
      <trkpt lat="4.1067250" lon="-76.3871360">
        <ele>1542.6</ele>
        <time>2022-08-15T13:58:33Z</time>
      </trkpt>
      <trkpt lat="4.1067150" lon="-76.3871620">
        <ele>1543.0</ele>
        <time>2022-08-15T13:58:35Z</time>
      </trkpt>
      <trkpt lat="4.1066970" lon="-76.3872140">
        <ele>1543.8</ele>
        <time>2022-08-15T13:58:39Z</time>
      </trkpt>
      <trkpt lat="4.1066610" lon="-76.3872840">
        <ele>1544.8</ele>
        <time>2022-08-15T13:58:44Z</time>
      </trkpt>
      <trkpt lat="4.1066530" lon="-76.3872930">
        <ele>1545.0</ele>
        <time>2022-08-15T13:58:45Z</time>
      </trkpt>
      <trkpt lat="4.1066390" lon="-76.3873080">
        <ele>1545.4</ele>
        <time>2022-08-15T13:58:46Z</time>
      </trkpt>
      <trkpt lat="4.1066090" lon="-76.3873540">
        <ele>1546.0</ele>
        <time>2022-08-15T13:58:50Z</time>
      </trkpt>
      <trkpt lat="4.1065750" lon="-76.3874020">
        <ele>1546.4</ele>
        <time>2022-08-15T13:58:54Z</time>
      </trkpt>
      <trkpt lat="4.1065280" lon="-76.3874460">
        <ele>1547.2</ele>
        <time>2022-08-15T13:58:58Z</time>
      </trkpt>
      <trkpt lat="4.1064700" lon="-76.3874750">
        <ele>1548.0</ele>
        <time>2022-08-15T13:59:02Z</time>
      </trkpt>
      <trkpt lat="4.1064420" lon="-76.3874870">
        <ele>1548.4</ele>
        <time>2022-08-15T13:59:04Z</time>
      </trkpt>
      <trkpt lat="4.1063720" lon="-76.3874780">
        <ele>1549.6</ele>
        <time>2022-08-15T13:59:09Z</time>
      </trkpt>
      <trkpt lat="4.1063580" lon="-76.3874690">
        <ele>1549.8</ele>
        <time>2022-08-15T13:59:10Z</time>
      </trkpt>
      <trkpt lat="4.1063060" lon="-76.3874140">
        <ele>1550.8</ele>
        <time>2022-08-15T13:59:15Z</time>
      </trkpt>
      <trkpt lat="4.1062920" lon="-76.3873920">
        <ele>1551.0</ele>
        <time>2022-08-15T13:59:17Z</time>
      </trkpt>
      <trkpt lat="4.1062270" lon="-76.3873060">
        <ele>1552.0</ele>
        <time>2022-08-15T13:59:24Z</time>
      </trkpt>
      <trkpt lat="4.1062180" lon="-76.3872950">
        <ele>1552.0</ele>
        <time>2022-08-15T13:59:25Z</time>
      </trkpt>
      <trkpt lat="4.1061480" lon="-76.3872240">
        <ele>1553.0</ele>
        <time>2022-08-15T13:59:32Z</time>
      </trkpt>
      <trkpt lat="4.1061240" lon="-76.3872060">
        <ele>1553.2</ele>
        <time>2022-08-15T13:59:34Z</time>
      </trkpt>
      <trkpt lat="4.1060800" lon="-76.3871660">
        <ele>1554.0</ele>
        <time>2022-08-15T13:59:38Z</time>
      </trkpt>
      <trkpt lat="4.1060200" lon="-76.3871170">
        <ele>1555.0</ele>
        <time>2022-08-15T13:59:44Z</time>
      </trkpt>
      <trkpt lat="4.1060050" lon="-76.3871140">
        <ele>1555.2</ele>
        <time>2022-08-15T13:59:45Z</time>
      </trkpt>
      <trkpt lat="4.1059230" lon="-76.3870550">
        <ele>1556.4</ele>
        <time>2022-08-15T13:59:52Z</time>
      </trkpt>
      <trkpt lat="4.1058270" lon="-76.3869820">
        <ele>1557.4</ele>
        <time>2022-08-15T13:59:59Z</time>
      </trkpt>
      <trkpt lat="4.1057770" lon="-76.3869490">
        <ele>1558.0</ele>
        <time>2022-08-15T14:00:02Z</time>
      </trkpt>
      <trkpt lat="4.1057370" lon="-76.3869110">
        <ele>1558.6</ele>
        <time>2022-08-15T14:00:05Z</time>
      </trkpt>
      <trkpt lat="4.1057170" lon="-76.3869030">
        <ele>1558.6</ele>
        <time>2022-08-15T14:00:06Z</time>
      </trkpt>
      <trkpt lat="4.1056840" lon="-76.3868930">
        <ele>1559.0</ele>
        <time>2022-08-15T14:00:08Z</time>
      </trkpt>
      <trkpt lat="4.1056660" lon="-76.3868820">
        <ele>1559.0</ele>
        <time>2022-08-15T14:00:09Z</time>
      </trkpt>
      <trkpt lat="4.1056290" lon="-76.3868560">
        <ele>1559.6</ele>
        <time>2022-08-15T14:00:12Z</time>
      </trkpt>
      <trkpt lat="4.1055380" lon="-76.3868360">
        <ele>1560.6</ele>
        <time>2022-08-15T14:00:18Z</time>
      </trkpt>
      <trkpt lat="4.1055260" lon="-76.3868350">
        <ele>1560.8</ele>
        <time>2022-08-15T14:00:19Z</time>
      </trkpt>
      <trkpt lat="4.1054230" lon="-76.3868730">
        <ele>1561.8</ele>
        <time>2022-08-15T14:00:25Z</time>
      </trkpt>
      <trkpt lat="4.1054080" lon="-76.3868850">
        <ele>1562.2</ele>
        <time>2022-08-15T14:00:26Z</time>
      </trkpt>
      <trkpt lat="4.1053720" lon="-76.3869450">
        <ele>1563.0</ele>
        <time>2022-08-15T14:00:30Z</time>
      </trkpt>
      <trkpt lat="4.1053410" lon="-76.3869920">
        <ele>1563.2</ele>
        <time>2022-08-15T14:00:33Z</time>
      </trkpt>
      <trkpt lat="4.1052880" lon="-76.3870760">
        <ele>1564.0</ele>
        <time>2022-08-15T14:00:38Z</time>
      </trkpt>
      <trkpt lat="4.1052780" lon="-76.3871050">
        <ele>1564.0</ele>
        <time>2022-08-15T14:00:40Z</time>
      </trkpt>
      <trkpt lat="4.1052610" lon="-76.3872050">
        <ele>1565.0</ele>
        <time>2022-08-15T14:00:45Z</time>
      </trkpt>
      <trkpt lat="4.1052410" lon="-76.3872880">
        <ele>1565.6</ele>
        <time>2022-08-15T14:00:49Z</time>
      </trkpt>
      <trkpt lat="4.1052240" lon="-76.3873300">
        <ele>1566.0</ele>
        <time>2022-08-15T14:00:51Z</time>
      </trkpt>
      <trkpt lat="4.1051510" lon="-76.3874110">
        <ele>1566.8</ele>
        <time>2022-08-15T14:00:56Z</time>
      </trkpt>
      <trkpt lat="4.1051300" lon="-76.3874260">
        <ele>1567.2</ele>
        <time>2022-08-15T14:00:57Z</time>
      </trkpt>
      <trkpt lat="4.1049880" lon="-76.3874640">
        <ele>1568.0</ele>
        <time>2022-08-15T14:01:04Z</time>
      </trkpt>
      <trkpt lat="4.1048010" lon="-76.3875260">
        <ele>1569.0</ele>
        <time>2022-08-15T14:01:13Z</time>
      </trkpt>
      <trkpt lat="4.1047800" lon="-76.3875320">
        <ele>1569.2</ele>
        <time>2022-08-15T14:01:14Z</time>
      </trkpt>
      <trkpt lat="4.1046670" lon="-76.3875320">
        <ele>1570.2</ele>
        <time>2022-08-15T14:01:19Z</time>
      </trkpt>
      <trkpt lat="4.1046260" lon="-76.3875150">
        <ele>1570.6</ele>
        <time>2022-08-15T14:01:21Z</time>
      </trkpt>
      <trkpt lat="4.1045110" lon="-76.3874600">
        <ele>1571.4</ele>
        <time>2022-08-15T14:01:26Z</time>
      </trkpt>
      <trkpt lat="4.1043860" lon="-76.3874400">
        <ele>1572.0</ele>
        <time>2022-08-15T14:01:31Z</time>
      </trkpt>
      <trkpt lat="4.1043030" lon="-76.3874430">
        <ele>1572.4</ele>
        <time>2022-08-15T14:01:34Z</time>
      </trkpt>
      <trkpt lat="4.1041790" lon="-76.3874330">
        <ele>1572.8</ele>
        <time>2022-08-15T14:01:39Z</time>
      </trkpt>
      <trkpt lat="4.1040350" lon="-76.3874670">
        <ele>1572.8</ele>
        <time>2022-08-15T14:01:43Z</time>
      </trkpt>
      <trkpt lat="4.1039960" lon="-76.3874820">
        <ele>1572.8</ele>
        <time>2022-08-15T14:01:44Z</time>
      </trkpt>
      <trkpt lat="4.1036910" lon="-76.3876080">
        <ele>1572.8</ele>
        <time>2022-08-15T14:01:51Z</time>
      </trkpt>
      <trkpt lat="4.1036400" lon="-76.3876150">
        <ele>1572.8</ele>
        <time>2022-08-15T14:01:52Z</time>
      </trkpt>
      <trkpt lat="4.1035420" lon="-76.3876320">
        <ele>1572.6</ele>
        <time>2022-08-15T14:01:54Z</time>
      </trkpt>
      <trkpt lat="4.1035040" lon="-76.3876500">
        <ele>1572.4</ele>
        <time>2022-08-15T14:01:55Z</time>
      </trkpt>
      <trkpt lat="4.1034760" lon="-76.3876720">
        <ele>1572.2</ele>
        <time>2022-08-15T14:01:56Z</time>
      </trkpt>
      <trkpt lat="4.1034810" lon="-76.3877390">
        <ele>1572.0</ele>
        <time>2022-08-15T14:01:58Z</time>
      </trkpt>
      <trkpt lat="4.1036570" lon="-76.3878900">
        <ele>1571.6</ele>
        <time>2022-08-15T14:02:03Z</time>
      </trkpt>
      <trkpt lat="4.1037000" lon="-76.3879310">
        <ele>1571.4</ele>
        <time>2022-08-15T14:02:04Z</time>
      </trkpt>
      <trkpt lat="4.1037530" lon="-76.3879970">
        <ele>1571.4</ele>
        <time>2022-08-15T14:02:06Z</time>
      </trkpt>
      <trkpt lat="4.1037950" lon="-76.3880730">
        <ele>1571.4</ele>
        <time>2022-08-15T14:02:08Z</time>
      </trkpt>
      <trkpt lat="4.1038140" lon="-76.3881180">
        <ele>1571.4</ele>
        <time>2022-08-15T14:02:09Z</time>
      </trkpt>
      <trkpt lat="4.1038340" lon="-76.3882620">
        <ele>1571.4</ele>
        <time>2022-08-15T14:02:13Z</time>
      </trkpt>
      <trkpt lat="4.1038010" lon="-76.3883870">
        <ele>1572.0</ele>
        <time>2022-08-15T14:02:18Z</time>
      </trkpt>
      <trkpt lat="4.1036730" lon="-76.3885100">
        <ele>1573.4</ele>
        <time>2022-08-15T14:02:24Z</time>
      </trkpt>
      <trkpt lat="4.1036430" lon="-76.3885300">
        <ele>1573.6</ele>
        <time>2022-08-15T14:02:25Z</time>
      </trkpt>
      <trkpt lat="4.1034910" lon="-76.3886370">
        <ele>1574.4</ele>
        <time>2022-08-15T14:02:31Z</time>
      </trkpt>
      <trkpt lat="4.1034750" lon="-76.3886670">
        <ele>1574.4</ele>
        <time>2022-08-15T14:02:32Z</time>
      </trkpt>
      <trkpt lat="4.1034380" lon="-76.3888180">
        <ele>1574.8</ele>
        <time>2022-08-15T14:02:37Z</time>
      </trkpt>
      <trkpt lat="4.1034610" lon="-76.3890580">
        <ele>1575.4</ele>
        <time>2022-08-15T14:02:45Z</time>
      </trkpt>
      <trkpt lat="4.1035240" lon="-76.3893070">
        <ele>1576.4</ele>
        <time>2022-08-15T14:02:53Z</time>
      </trkpt>
      <trkpt lat="4.1035340" lon="-76.3893390">
        <ele>1576.4</ele>
        <time>2022-08-15T14:02:54Z</time>
      </trkpt>
      <trkpt lat="4.1036640" lon="-76.3895830">
        <ele>1576.6</ele>
        <time>2022-08-15T14:03:01Z</time>
      </trkpt>
      <trkpt lat="4.1037430" lon="-76.3896530">
        <ele>1576.6</ele>
        <time>2022-08-15T14:03:03Z</time>
      </trkpt>
      <trkpt lat="4.1038400" lon="-76.3897110">
        <ele>1576.6</ele>
        <time>2022-08-15T14:03:05Z</time>
      </trkpt>
      <trkpt lat="4.1039910" lon="-76.3898130">
        <ele>1576.6</ele>
        <time>2022-08-15T14:03:08Z</time>
      </trkpt>
      <trkpt lat="4.1040210" lon="-76.3898570">
        <ele>1576.4</ele>
        <time>2022-08-15T14:03:09Z</time>
      </trkpt>
      <trkpt lat="4.1040330" lon="-76.3899080">
        <ele>1576.0</ele>
        <time>2022-08-15T14:03:10Z</time>
      </trkpt>
      <trkpt lat="4.1039980" lon="-76.3900110">
        <ele>1575.2</ele>
        <time>2022-08-15T14:03:12Z</time>
      </trkpt>
      <trkpt lat="4.1038960" lon="-76.3900940">
        <ele>1574.6</ele>
        <time>2022-08-15T14:03:14Z</time>
      </trkpt>
      <trkpt lat="4.1038380" lon="-76.3901170">
        <ele>1574.2</ele>
        <time>2022-08-15T14:03:15Z</time>
      </trkpt>
      <trkpt lat="4.1037840" lon="-76.3901300">
        <ele>1573.8</ele>
        <time>2022-08-15T14:03:16Z</time>
      </trkpt>
      <trkpt lat="4.1035500" lon="-76.3901780">
        <ele>1573.0</ele>
        <time>2022-08-15T14:03:19Z</time>
      </trkpt>
      <trkpt lat="4.1034170" lon="-76.3902570">
        <ele>1572.4</ele>
        <time>2022-08-15T14:03:21Z</time>
      </trkpt>
      <trkpt lat="4.1033730" lon="-76.3902980">
        <ele>1571.8</ele>
        <time>2022-08-15T14:03:22Z</time>
      </trkpt>
      <trkpt lat="4.1033230" lon="-76.3903510">
        <ele>1571.4</ele>
        <time>2022-08-15T14:03:23Z</time>
      </trkpt>
      <trkpt lat="4.1032750" lon="-76.3904200">
        <ele>1570.8</ele>
        <time>2022-08-15T14:03:24Z</time>
      </trkpt>
      <trkpt lat="4.1032070" lon="-76.3905400">
        <ele>1570.4</ele>
        <time>2022-08-15T14:03:26Z</time>
      </trkpt>
      <trkpt lat="4.1031490" lon="-76.3906530">
        <ele>1569.0</ele>
        <time>2022-08-15T14:03:28Z</time>
      </trkpt>
      <trkpt lat="4.1031210" lon="-76.3907250">
        <ele>1568.6</ele>
        <time>2022-08-15T14:03:29Z</time>
      </trkpt>
      <trkpt lat="4.1031200" lon="-76.3908190">
        <ele>1568.0</ele>
        <time>2022-08-15T14:03:31Z</time>
      </trkpt>
      <trkpt lat="4.1031960" lon="-76.3908900">
        <ele>1567.8</ele>
        <time>2022-08-15T14:03:34Z</time>
      </trkpt>
      <trkpt lat="4.1032900" lon="-76.3909120">
        <ele>1567.8</ele>
        <time>2022-08-15T14:03:37Z</time>
      </trkpt>
      <trkpt lat="4.1033180" lon="-76.3909130">
        <ele>1567.8</ele>
        <time>2022-08-15T14:03:38Z</time>
      </trkpt>
      <trkpt lat="4.1034380" lon="-76.3909260">
        <ele>1568.4</ele>
        <time>2022-08-15T14:03:42Z</time>
      </trkpt>
      <trkpt lat="4.1035160" lon="-76.3909490">
        <ele>1569.2</ele>
        <time>2022-08-15T14:03:45Z</time>
      </trkpt>
      <trkpt lat="4.1035450" lon="-76.3909590">
        <ele>1569.4</ele>
        <time>2022-08-15T14:03:46Z</time>
      </trkpt>
      <trkpt lat="4.1035880" lon="-76.3909840">
        <ele>1570.2</ele>
        <time>2022-08-15T14:03:48Z</time>
      </trkpt>
      <trkpt lat="4.1036700" lon="-76.3910720">
        <ele>1571.0</ele>
        <time>2022-08-15T14:03:52Z</time>
      </trkpt>
      <trkpt lat="4.1036840" lon="-76.3910920">
        <ele>1571.2</ele>
        <time>2022-08-15T14:03:53Z</time>
      </trkpt>
      <trkpt lat="4.1037690" lon="-76.3912180">
        <ele>1572.0</ele>
        <time>2022-08-15T14:03:58Z</time>
      </trkpt>
      <trkpt lat="4.1038500" lon="-76.3913700">
        <ele>1573.4</ele>
        <time>2022-08-15T14:04:05Z</time>
      </trkpt>
      <trkpt lat="4.1038580" lon="-76.3913940">
        <ele>1573.6</ele>
        <time>2022-08-15T14:04:06Z</time>
      </trkpt>
      <trkpt lat="4.1038560" lon="-76.3914750">
        <ele>1574.6</ele>
        <time>2022-08-15T14:04:10Z</time>
      </trkpt>
      <trkpt lat="4.1038500" lon="-76.3914930">
        <ele>1574.8</ele>
        <time>2022-08-15T14:04:11Z</time>
      </trkpt>
      <trkpt lat="4.1038470" lon="-76.3915160">
        <ele>1575.0</ele>
        <time>2022-08-15T14:04:12Z</time>
      </trkpt>
      <trkpt lat="4.1038370" lon="-76.3915690">
        <ele>1575.2</ele>
        <time>2022-08-15T14:04:15Z</time>
      </trkpt>
      <trkpt lat="4.1038240" lon="-76.3916060">
        <ele>1575.8</ele>
        <time>2022-08-15T14:04:17Z</time>
      </trkpt>
      <trkpt lat="4.1037970" lon="-76.3916520">
        <ele>1576.4</ele>
        <time>2022-08-15T14:04:20Z</time>
      </trkpt>
      <trkpt lat="4.1037910" lon="-76.3916680">
        <ele>1576.6</ele>
        <time>2022-08-15T14:04:21Z</time>
      </trkpt>
      <trkpt lat="4.1037880" lon="-76.3916840">
        <ele>1576.8</ele>
        <time>2022-08-15T14:04:22Z</time>
      </trkpt>
      <trkpt lat="4.1037860" lon="-76.3917000">
        <ele>1577.0</ele>
        <time>2022-08-15T14:04:23Z</time>
      </trkpt>
      <trkpt lat="4.1037950" lon="-76.3917110">
        <ele>1577.0</ele>
        <time>2022-08-15T14:04:24Z</time>
      </trkpt>
      <trkpt lat="4.1038100" lon="-76.3917150">
        <ele>1577.2</ele>
        <time>2022-08-15T14:04:25Z</time>
      </trkpt>
      <trkpt lat="4.1038580" lon="-76.3916970">
        <ele>1577.8</ele>
        <time>2022-08-15T14:04:28Z</time>
      </trkpt>
      <trkpt lat="4.1039170" lon="-76.3916540">
        <ele>1578.4</ele>
        <time>2022-08-15T14:04:32Z</time>
      </trkpt>
      <trkpt lat="4.1039500" lon="-76.3916220">
        <ele>1578.8</ele>
        <time>2022-08-15T14:04:34Z</time>
      </trkpt>
      <trkpt lat="4.1040470" lon="-76.3915190">
        <ele>1579.0</ele>
        <time>2022-08-15T14:04:38Z</time>
      </trkpt>
      <trkpt lat="4.1041790" lon="-76.3912920">
        <ele>1579.2</ele>
        <time>2022-08-15T14:04:44Z</time>
      </trkpt>
      <trkpt lat="4.1043510" lon="-76.3910550">
        <ele>1579.2</ele>
        <time>2022-08-15T14:04:49Z</time>
      </trkpt>
      <trkpt lat="4.1044660" lon="-76.3909260">
        <ele>1578.8</ele>
        <time>2022-08-15T14:04:52Z</time>
      </trkpt>
      <trkpt lat="4.1045070" lon="-76.3909150">
        <ele>1578.6</ele>
        <time>2022-08-15T14:04:53Z</time>
      </trkpt>
      <trkpt lat="4.1045590" lon="-76.3909140">
        <ele>1578.6</ele>
        <time>2022-08-15T14:04:54Z</time>
      </trkpt>
      <trkpt lat="4.1046680" lon="-76.3909560">
        <ele>1577.4</ele>
        <time>2022-08-15T14:04:56Z</time>
      </trkpt>
      <trkpt lat="4.1049730" lon="-76.3911160">
        <ele>1576.4</ele>
        <time>2022-08-15T14:05:01Z</time>
      </trkpt>
      <trkpt lat="4.1050410" lon="-76.3911350">
        <ele>1576.4</ele>
        <time>2022-08-15T14:05:02Z</time>
      </trkpt>
      <trkpt lat="4.1051620" lon="-76.3911410">
        <ele>1576.2</ele>
        <time>2022-08-15T14:05:04Z</time>
      </trkpt>
      <trkpt lat="4.1052340" lon="-76.3911210">
        <ele>1576.2</ele>
        <time>2022-08-15T14:05:05Z</time>
      </trkpt>
      <trkpt lat="4.1053120" lon="-76.3910890">
        <ele>1576.0</ele>
        <time>2022-08-15T14:05:06Z</time>
      </trkpt>
      <trkpt lat="4.1054300" lon="-76.3910380">
        <ele>1575.8</ele>
        <time>2022-08-15T14:05:08Z</time>
      </trkpt>
      <trkpt lat="4.1055150" lon="-76.3909940">
        <ele>1575.6</ele>
        <time>2022-08-15T14:05:10Z</time>
      </trkpt>
      <trkpt lat="4.1057190" lon="-76.3909380">
        <ele>1575.6</ele>
        <time>2022-08-15T14:05:15Z</time>
      </trkpt>
      <trkpt lat="4.1057540" lon="-76.3909330">
        <ele>1575.6</ele>
        <time>2022-08-15T14:05:16Z</time>
      </trkpt>
      <trkpt lat="4.1059980" lon="-76.3908870">
        <ele>1576.6</ele>
        <time>2022-08-15T14:05:23Z</time>
      </trkpt>
      <trkpt lat="4.1060680" lon="-76.3908140">
        <ele>1577.2</ele>
        <time>2022-08-15T14:05:26Z</time>
      </trkpt>
      <trkpt lat="4.1060820" lon="-76.3907850">
        <ele>1577.4</ele>
        <time>2022-08-15T14:05:27Z</time>
      </trkpt>
      <trkpt lat="4.1061780" lon="-76.3905660">
        <ele>1578.0</ele>
        <time>2022-08-15T14:05:34Z</time>
      </trkpt>
      <trkpt lat="4.1062690" lon="-76.3905170">
        <ele>1578.2</ele>
        <time>2022-08-15T14:05:37Z</time>
      </trkpt>
      <trkpt lat="4.1063110" lon="-76.3905220">
        <ele>1578.4</ele>
        <time>2022-08-15T14:05:38Z</time>
      </trkpt>
      <trkpt lat="4.1064220" lon="-76.3906230">
        <ele>1578.8</ele>
        <time>2022-08-15T14:05:42Z</time>
      </trkpt>
      <trkpt lat="4.1064470" lon="-76.3906560">
        <ele>1579.0</ele>
        <time>2022-08-15T14:05:43Z</time>
      </trkpt>
      <trkpt lat="4.1065890" lon="-76.3907640">
        <ele>1579.0</ele>
        <time>2022-08-15T14:05:48Z</time>
      </trkpt>
      <trkpt lat="4.1066150" lon="-76.3907790">
        <ele>1579.2</ele>
        <time>2022-08-15T14:05:49Z</time>
      </trkpt>
      <trkpt lat="4.1067680" lon="-76.3909000">
        <ele>1579.6</ele>
        <time>2022-08-15T14:05:55Z</time>
      </trkpt>
      <trkpt lat="4.1068410" lon="-76.3909890">
        <ele>1580.4</ele>
        <time>2022-08-15T14:05:58Z</time>
      </trkpt>
      <trkpt lat="4.1069280" lon="-76.3911110">
        <ele>1581.6</ele>
        <time>2022-08-15T14:06:02Z</time>
      </trkpt>
      <trkpt lat="4.1069510" lon="-76.3911390">
        <ele>1581.8</ele>
        <time>2022-08-15T14:06:03Z</time>
      </trkpt>
      <trkpt lat="4.1071010" lon="-76.3912290">
        <ele>1582.2</ele>
        <time>2022-08-15T14:06:08Z</time>
      </trkpt>
      <trkpt lat="4.1072670" lon="-76.3912320">
        <ele>1582.6</ele>
        <time>2022-08-15T14:06:13Z</time>
      </trkpt>
      <trkpt lat="4.1072950" lon="-76.3912230">
        <ele>1582.6</ele>
        <time>2022-08-15T14:06:14Z</time>
      </trkpt>
      <trkpt lat="4.1074570" lon="-76.3911510">
        <ele>1583.6</ele>
        <time>2022-08-15T14:06:20Z</time>
      </trkpt>
      <trkpt lat="4.1075090" lon="-76.3911160">
        <ele>1583.8</ele>
        <time>2022-08-15T14:06:22Z</time>
      </trkpt>
      <trkpt lat="4.1075820" lon="-76.3910380">
        <ele>1584.8</ele>
        <time>2022-08-15T14:06:26Z</time>
      </trkpt>
      <trkpt lat="4.1076190" lon="-76.3909710">
        <ele>1585.0</ele>
        <time>2022-08-15T14:06:29Z</time>
      </trkpt>
      <trkpt lat="4.1076520" lon="-76.3908460">
        <ele>1585.8</ele>
        <time>2022-08-15T14:06:34Z</time>
      </trkpt>
      <trkpt lat="4.1076550" lon="-76.3908300">
        <ele>1586.0</ele>
        <time>2022-08-15T14:06:35Z</time>
      </trkpt>
      <trkpt lat="4.1076800" lon="-76.3907480">
        <ele>1587.0</ele>
        <time>2022-08-15T14:06:39Z</time>
      </trkpt>
      <trkpt lat="4.1077120" lon="-76.3906520">
        <ele>1587.8</ele>
        <time>2022-08-15T14:06:43Z</time>
      </trkpt>
      <trkpt lat="4.1077350" lon="-76.3906160">
        <ele>1588.2</ele>
        <time>2022-08-15T14:06:45Z</time>
      </trkpt>
      <trkpt lat="4.1077910" lon="-76.3905830">
        <ele>1588.2</ele>
        <time>2022-08-15T14:06:48Z</time>
      </trkpt>
      <trkpt lat="4.1078870" lon="-76.3906000">
        <ele>1589.0</ele>
        <time>2022-08-15T14:06:53Z</time>
      </trkpt>
      <trkpt lat="4.1079560" lon="-76.3906990">
        <ele>1590.0</ele>
        <time>2022-08-15T14:06:58Z</time>
      </trkpt>
      <trkpt lat="4.1079730" lon="-76.3907500">
        <ele>1590.2</ele>
        <time>2022-08-15T14:07:00Z</time>
      </trkpt>
      <trkpt lat="4.1079730" lon="-76.3909250">
        <ele>1591.0</ele>
        <time>2022-08-15T14:07:07Z</time>
      </trkpt>
      <trkpt lat="4.1079670" lon="-76.3909820">
        <ele>1591.2</ele>
        <time>2022-08-15T14:07:09Z</time>
      </trkpt>
      <trkpt lat="4.1079690" lon="-76.3910930">
        <ele>1592.0</ele>
        <time>2022-08-15T14:07:13Z</time>
      </trkpt>
      <trkpt lat="4.1079800" lon="-76.3911960">
        <ele>1592.4</ele>
        <time>2022-08-15T14:07:17Z</time>
      </trkpt>
      <trkpt lat="4.1080190" lon="-76.3913150">
        <ele>1593.2</ele>
        <time>2022-08-15T14:07:22Z</time>
      </trkpt>
      <trkpt lat="4.1080460" lon="-76.3913800">
        <ele>1593.6</ele>
        <time>2022-08-15T14:07:25Z</time>
      </trkpt>
      <trkpt lat="4.1080950" lon="-76.3914680">
        <ele>1594.2</ele>
        <time>2022-08-15T14:07:29Z</time>
      </trkpt>
      <trkpt lat="4.1081290" lon="-76.3915300">
        <ele>1594.4</ele>
        <time>2022-08-15T14:07:32Z</time>
      </trkpt>
      <trkpt lat="4.1081960" lon="-76.3916320">
        <ele>1595.2</ele>
        <time>2022-08-15T14:07:37Z</time>
      </trkpt>
      <trkpt lat="4.1082150" lon="-76.3916500">
        <ele>1595.4</ele>
        <time>2022-08-15T14:07:38Z</time>
      </trkpt>
      <trkpt lat="4.1083360" lon="-76.3917130">
        <ele>1596.0</ele>
        <time>2022-08-15T14:07:43Z</time>
      </trkpt>
      <trkpt lat="4.1083800" lon="-76.3917190">
        <ele>1596.4</ele>
        <time>2022-08-15T14:07:45Z</time>
      </trkpt>
      <trkpt lat="4.1085150" lon="-76.3917560">
        <ele>1597.0</ele>
        <time>2022-08-15T14:07:51Z</time>
      </trkpt>
      <trkpt lat="4.1085510" lon="-76.3917900">
        <ele>1597.4</ele>
        <time>2022-08-15T14:07:53Z</time>
      </trkpt>
      <trkpt lat="4.1086130" lon="-76.3919040">
        <ele>1598.2</ele>
        <time>2022-08-15T14:07:58Z</time>
      </trkpt>
      <trkpt lat="4.1086200" lon="-76.3919330">
        <ele>1598.4</ele>
        <time>2022-08-15T14:07:59Z</time>
      </trkpt>
      <trkpt lat="4.1086620" lon="-76.3920800">
        <ele>1599.2</ele>
        <time>2022-08-15T14:08:05Z</time>
      </trkpt>
      <trkpt lat="4.1086730" lon="-76.3921290">
        <ele>1599.4</ele>
        <time>2022-08-15T14:08:07Z</time>
      </trkpt>
      <trkpt lat="4.1087200" lon="-76.3923220">
        <ele>1600.6</ele>
        <time>2022-08-15T14:08:15Z</time>
      </trkpt>
      <trkpt lat="4.1087830" lon="-76.3924640">
        <ele>1601.4</ele>
        <time>2022-08-15T14:08:21Z</time>
      </trkpt>
      <trkpt lat="4.1088010" lon="-76.3924830">
        <ele>1601.6</ele>
        <time>2022-08-15T14:08:22Z</time>
      </trkpt>
      <trkpt lat="4.1089410" lon="-76.3925500">
        <ele>1602.8</ele>
        <time>2022-08-15T14:08:28Z</time>
      </trkpt>
      <trkpt lat="4.1091120" lon="-76.3925720">
        <ele>1603.8</ele>
        <time>2022-08-15T14:08:35Z</time>
      </trkpt>
      <trkpt lat="4.1091870" lon="-76.3925700">
        <ele>1604.4</ele>
        <time>2022-08-15T14:08:38Z</time>
      </trkpt>
      <trkpt lat="4.1092620" lon="-76.3925600">
        <ele>1605.0</ele>
        <time>2022-08-15T14:08:41Z</time>
      </trkpt>
      <trkpt lat="4.1093760" lon="-76.3925450">
        <ele>1605.4</ele>
        <time>2022-08-15T14:08:46Z</time>
      </trkpt>
      <trkpt lat="4.1093940" lon="-76.3925380">
        <ele>1605.6</ele>
        <time>2022-08-15T14:08:47Z</time>
      </trkpt>
      <trkpt lat="4.1094150" lon="-76.3925360">
        <ele>1605.8</ele>
        <time>2022-08-15T14:08:48Z</time>
      </trkpt>
      <trkpt lat="4.1094260" lon="-76.3925400">
        <ele>1606.0</ele>
        <time>2022-08-15T14:08:49Z</time>
      </trkpt>
      <trkpt lat="4.1094420" lon="-76.3925490">
        <ele>1606.4</ele>
        <time>2022-08-15T14:08:50Z</time>
      </trkpt>
      <trkpt lat="4.1094580" lon="-76.3925680">
        <ele>1606.6</ele>
        <time>2022-08-15T14:08:51Z</time>
      </trkpt>
      <trkpt lat="4.1094800" lon="-76.3926340">
        <ele>1607.2</ele>
        <time>2022-08-15T14:08:54Z</time>
      </trkpt>
      <trkpt lat="4.1094780" lon="-76.3927140">
        <ele>1607.8</ele>
        <time>2022-08-15T14:08:57Z</time>
      </trkpt>
      <trkpt lat="4.1094730" lon="-76.3927480">
        <ele>1608.0</ele>
        <time>2022-08-15T14:08:58Z</time>
      </trkpt>
      <trkpt lat="4.1094240" lon="-76.3928960">
        <ele>1609.0</ele>
        <time>2022-08-15T14:09:05Z</time>
      </trkpt>
      <trkpt lat="4.1093940" lon="-76.3929370">
        <ele>1609.0</ele>
        <time>2022-08-15T14:09:07Z</time>
      </trkpt>
      <trkpt lat="4.1093210" lon="-76.3930030">
        <ele>1610.0</ele>
        <time>2022-08-15T14:09:11Z</time>
      </trkpt>
      <trkpt lat="4.1093000" lon="-76.3930170">
        <ele>1610.2</ele>
        <time>2022-08-15T14:09:12Z</time>
      </trkpt>
      <trkpt lat="4.1091490" lon="-76.3930860">
        <ele>1611.4</ele>
        <time>2022-08-15T14:09:19Z</time>
      </trkpt>
      <trkpt lat="4.1091240" lon="-76.3930920">
        <ele>1611.6</ele>
        <time>2022-08-15T14:09:20Z</time>
      </trkpt>
      <trkpt lat="4.1089890" lon="-76.3931180">
        <ele>1612.4</ele>
        <time>2022-08-15T14:09:25Z</time>
      </trkpt>
      <trkpt lat="4.1089070" lon="-76.3931370">
        <ele>1612.6</ele>
        <time>2022-08-15T14:09:28Z</time>
      </trkpt>
      <trkpt lat="4.1087330" lon="-76.3932240">
        <ele>1613.2</ele>
        <time>2022-08-15T14:09:35Z</time>
      </trkpt>
      <trkpt lat="4.1087100" lon="-76.3932460">
        <ele>1613.4</ele>
        <time>2022-08-15T14:09:36Z</time>
      </trkpt>
      <trkpt lat="4.1086110" lon="-76.3934140">
        <ele>1614.2</ele>
        <time>2022-08-15T14:09:43Z</time>
      </trkpt>
      <trkpt lat="4.1086000" lon="-76.3934680">
        <ele>1614.4</ele>
        <time>2022-08-15T14:09:45Z</time>
      </trkpt>
      <trkpt lat="4.1085920" lon="-76.3936070">
        <ele>1615.2</ele>
        <time>2022-08-15T14:09:50Z</time>
      </trkpt>
      <trkpt lat="4.1085910" lon="-76.3936880">
        <ele>1615.6</ele>
        <time>2022-08-15T14:09:53Z</time>
      </trkpt>
      <trkpt lat="4.1085890" lon="-76.3938290">
        <ele>1616.4</ele>
        <time>2022-08-15T14:09:58Z</time>
      </trkpt>
      <trkpt lat="4.1085960" lon="-76.3938880">
        <ele>1616.6</ele>
        <time>2022-08-15T14:10:00Z</time>
      </trkpt>
      <trkpt lat="4.1086310" lon="-76.3940580">
        <ele>1617.4</ele>
        <time>2022-08-15T14:10:06Z</time>
      </trkpt>
      <trkpt lat="4.1086220" lon="-76.3941450">
        <ele>1617.6</ele>
        <time>2022-08-15T14:10:09Z</time>
      </trkpt>
      <trkpt lat="4.1086020" lon="-76.3941920">
        <ele>1617.8</ele>
        <time>2022-08-15T14:10:11Z</time>
      </trkpt>
      <trkpt lat="4.1085360" lon="-76.3942510">
        <ele>1618.6</ele>
        <time>2022-08-15T14:10:14Z</time>
      </trkpt>
      <trkpt lat="4.1084890" lon="-76.3942770">
        <ele>1618.8</ele>
        <time>2022-08-15T14:10:16Z</time>
      </trkpt>
      <trkpt lat="4.1083240" lon="-76.3943610">
        <ele>1619.8</ele>
        <time>2022-08-15T14:10:23Z</time>
      </trkpt>
      <trkpt lat="4.1083010" lon="-76.3943760">
        <ele>1620.2</ele>
        <time>2022-08-15T14:10:24Z</time>
      </trkpt>
      <trkpt lat="4.1082270" lon="-76.3944490">
        <ele>1621.0</ele>
        <time>2022-08-15T14:10:28Z</time>
      </trkpt>
      <trkpt lat="4.1081700" lon="-76.3945190">
        <ele>1621.8</ele>
        <time>2022-08-15T14:10:32Z</time>
      </trkpt>
      <trkpt lat="4.1081460" lon="-76.3945620">
        <ele>1622.2</ele>
        <time>2022-08-15T14:10:34Z</time>
      </trkpt>
      <trkpt lat="4.1081110" lon="-76.3946910">
        <ele>1623.4</ele>
        <time>2022-08-15T14:10:40Z</time>
      </trkpt>
      <trkpt lat="4.1081740" lon="-76.3948280">
        <ele>1624.4</ele>
        <time>2022-08-15T14:10:47Z</time>
      </trkpt>
      <trkpt lat="4.1081870" lon="-76.3948460">
        <ele>1624.6</ele>
        <time>2022-08-15T14:10:48Z</time>
      </trkpt>
      <trkpt lat="4.1082640" lon="-76.3949190">
        <ele>1625.4</ele>
        <time>2022-08-15T14:10:53Z</time>
      </trkpt>
      <trkpt lat="4.1082900" lon="-76.3949510">
        <ele>1625.8</ele>
        <time>2022-08-15T14:10:55Z</time>
      </trkpt>
      <trkpt lat="4.1083270" lon="-76.3950230">
        <ele>1626.6</ele>
        <time>2022-08-15T14:10:59Z</time>
      </trkpt>
      <trkpt lat="4.1083320" lon="-76.3950460">
        <ele>1626.8</ele>
        <time>2022-08-15T14:11:00Z</time>
      </trkpt>
      <trkpt lat="4.1082770" lon="-76.3951720">
        <ele>1627.8</ele>
        <time>2022-08-15T14:11:07Z</time>
      </trkpt>
      <trkpt lat="4.1081790" lon="-76.3952410">
        <ele>1628.8</ele>
        <time>2022-08-15T14:11:13Z</time>
      </trkpt>
      <trkpt lat="4.1081460" lon="-76.3952490">
        <ele>1629.2</ele>
        <time>2022-08-15T14:11:15Z</time>
      </trkpt>
      <trkpt lat="4.1080630" lon="-76.3952760">
        <ele>1630.0</ele>
        <time>2022-08-15T14:11:19Z</time>
      </trkpt>
      <trkpt lat="4.1079720" lon="-76.3953000">
        <ele>1630.4</ele>
        <time>2022-08-15T14:11:23Z</time>
      </trkpt>
      <trkpt lat="4.1078650" lon="-76.3953360">
        <ele>1631.0</ele>
        <time>2022-08-15T14:11:28Z</time>
      </trkpt>
      <trkpt lat="4.1077880" lon="-76.3953730">
        <ele>1631.4</ele>
        <time>2022-08-15T14:11:32Z</time>
      </trkpt>
      <trkpt lat="4.1076870" lon="-76.3954480">
        <ele>1632.2</ele>
        <time>2022-08-15T14:11:38Z</time>
      </trkpt>
      <trkpt lat="4.1076530" lon="-76.3954810">
        <ele>1632.4</ele>
        <time>2022-08-15T14:11:40Z</time>
      </trkpt>
      <trkpt lat="4.1075510" lon="-76.3955480">
        <ele>1633.2</ele>
        <time>2022-08-15T14:11:46Z</time>
      </trkpt>
      <trkpt lat="4.1074950" lon="-76.3956050">
        <ele>1634.2</ele>
        <time>2022-08-15T14:11:50Z</time>
      </trkpt>
      <trkpt lat="4.1074840" lon="-76.3956210">
        <ele>1634.4</ele>
        <time>2022-08-15T14:11:51Z</time>
      </trkpt>
      <trkpt lat="4.1074210" lon="-76.3957110">
        <ele>1635.4</ele>
        <time>2022-08-15T14:11:56Z</time>
      </trkpt>
      <trkpt lat="4.1074040" lon="-76.3957370">
        <ele>1635.8</ele>
        <time>2022-08-15T14:11:58Z</time>
      </trkpt>
      <trkpt lat="4.1073410" lon="-76.3958220">
        <ele>1636.6</ele>
        <time>2022-08-15T14:12:04Z</time>
      </trkpt>
      <trkpt lat="4.1072940" lon="-76.3958660">
        <ele>1637.6</ele>
        <time>2022-08-15T14:12:08Z</time>
      </trkpt>
      <trkpt lat="4.1072160" lon="-76.3959180">
        <ele>1638.8</ele>
        <time>2022-08-15T14:12:13Z</time>
      </trkpt>
      <trkpt lat="4.1070550" lon="-76.3959660">
        <ele>1639.8</ele>
        <time>2022-08-15T14:12:20Z</time>
      </trkpt>
      <trkpt lat="4.1070250" lon="-76.3959690">
        <ele>1639.8</ele>
        <time>2022-08-15T14:12:21Z</time>
      </trkpt>
      <trkpt lat="4.1068270" lon="-76.3960410">
        <ele>1640.6</ele>
        <time>2022-08-15T14:12:30Z</time>
      </trkpt>
      <trkpt lat="4.1068020" lon="-76.3960580">
        <ele>1640.8</ele>
        <time>2022-08-15T14:12:31Z</time>
      </trkpt>
      <trkpt lat="4.1067590" lon="-76.3961260">
        <ele>1641.2</ele>
        <time>2022-08-15T14:12:35Z</time>
      </trkpt>
      <trkpt lat="4.1067510" lon="-76.3962020">
        <ele>1641.8</ele>
        <time>2022-08-15T14:12:39Z</time>
      </trkpt>
      <trkpt lat="4.1067580" lon="-76.3962350">
        <ele>1642.0</ele>
        <time>2022-08-15T14:12:41Z</time>
      </trkpt>
      <trkpt lat="4.1067720" lon="-76.3963040">
        <ele>1642.6</ele>
        <time>2022-08-15T14:12:45Z</time>
      </trkpt>
      <trkpt lat="4.1067770" lon="-76.3963320">
        <ele>1643.0</ele>
        <time>2022-08-15T14:12:47Z</time>
      </trkpt>
      <trkpt lat="4.1067840" lon="-76.3963940">
        <ele>1643.8</ele>
        <time>2022-08-15T14:12:51Z</time>
      </trkpt>
      <trkpt lat="4.1067790" lon="-76.3964530">
        <ele>1644.8</ele>
        <time>2022-08-15T14:12:55Z</time>
      </trkpt>
      <trkpt lat="4.1067760" lon="-76.3964680">
        <ele>1645.0</ele>
        <time>2022-08-15T14:12:56Z</time>
      </trkpt>
      <trkpt lat="4.1067690" lon="-76.3964800">
        <ele>1645.0</ele>
        <time>2022-08-15T14:12:57Z</time>
      </trkpt>
      <trkpt lat="4.1067130" lon="-76.3965020">
        <ele>1646.0</ele>
        <time>2022-08-15T14:13:01Z</time>
      </trkpt>
      <trkpt lat="4.1066280" lon="-76.3964810">
        <ele>1647.0</ele>
        <time>2022-08-15T14:13:06Z</time>
      </trkpt>
      <trkpt lat="4.1065970" lon="-76.3964610">
        <ele>1647.4</ele>
        <time>2022-08-15T14:13:08Z</time>
      </trkpt>
      <trkpt lat="4.1064900" lon="-76.3963840">
        <ele>1648.2</ele>
        <time>2022-08-15T14:13:14Z</time>
      </trkpt>
      <trkpt lat="4.1064300" lon="-76.3963230">
        <ele>1648.6</ele>
        <time>2022-08-15T14:13:18Z</time>
      </trkpt>
      <trkpt lat="4.1064030" lon="-76.3962870">
        <ele>1649.0</ele>
        <time>2022-08-15T14:13:20Z</time>
      </trkpt>
      <trkpt lat="4.1063900" lon="-76.3962780">
        <ele>1649.0</ele>
        <time>2022-08-15T14:13:21Z</time>
      </trkpt>
      <trkpt lat="4.1063580" lon="-76.3962510">
        <ele>1649.2</ele>
        <time>2022-08-15T14:13:23Z</time>
      </trkpt>
      <trkpt lat="4.1063420" lon="-76.3962370">
        <ele>1649.2</ele>
        <time>2022-08-15T14:13:24Z</time>
      </trkpt>
      <trkpt lat="4.1062320" lon="-76.3961490">
        <ele>1650.2</ele>
        <time>2022-08-15T14:13:31Z</time>
      </trkpt>
      <trkpt lat="4.1061230" lon="-76.3960920">
        <ele>1651.0</ele>
        <time>2022-08-15T14:13:37Z</time>
      </trkpt>
      <trkpt lat="4.1061030" lon="-76.3960910">
        <ele>1651.2</ele>
        <time>2022-08-15T14:13:38Z</time>
      </trkpt>
      <trkpt lat="4.1059940" lon="-76.3960880">
        <ele>1652.2</ele>
        <time>2022-08-15T14:13:43Z</time>
      </trkpt>
      <trkpt lat="4.1059500" lon="-76.3960960">
        <ele>1652.4</ele>
        <time>2022-08-15T14:13:45Z</time>
      </trkpt>
      <trkpt lat="4.1058560" lon="-76.3961350">
        <ele>1653.4</ele>
        <time>2022-08-15T14:13:50Z</time>
      </trkpt>
      <trkpt lat="4.1058000" lon="-76.3961560">
        <ele>1653.8</ele>
        <time>2022-08-15T14:13:53Z</time>
      </trkpt>
      <trkpt lat="4.1057330" lon="-76.3961710">
        <ele>1654.4</ele>
        <time>2022-08-15T14:13:57Z</time>
      </trkpt>
      <trkpt lat="4.1056610" lon="-76.3961700">
        <ele>1655.2</ele>
        <time>2022-08-15T14:14:01Z</time>
      </trkpt>
      <trkpt lat="4.1056240" lon="-76.3961630">
        <ele>1655.4</ele>
        <time>2022-08-15T14:14:03Z</time>
      </trkpt>
      <trkpt lat="4.1055610" lon="-76.3961330">
        <ele>1656.4</ele>
        <time>2022-08-15T14:14:07Z</time>
      </trkpt>
      <trkpt lat="4.1055300" lon="-76.3961090">
        <ele>1656.6</ele>
        <time>2022-08-15T14:14:09Z</time>
      </trkpt>
      <trkpt lat="4.1054700" lon="-76.3960700">
        <ele>1657.2</ele>
        <time>2022-08-15T14:14:13Z</time>
      </trkpt>
      <trkpt lat="4.1053770" lon="-76.3960190">
        <ele>1657.8</ele>
        <time>2022-08-15T14:14:18Z</time>
      </trkpt>
      <trkpt lat="4.1053350" lon="-76.3959970">
        <ele>1658.2</ele>
        <time>2022-08-15T14:14:20Z</time>
      </trkpt>
      <trkpt lat="4.1052150" lon="-76.3960070">
        <ele>1658.8</ele>
        <time>2022-08-15T14:14:26Z</time>
      </trkpt>
      <trkpt lat="4.1051450" lon="-76.3960540">
        <ele>1659.4</ele>
        <time>2022-08-15T14:14:30Z</time>
      </trkpt>
      <trkpt lat="4.1051290" lon="-76.3960700">
        <ele>1659.6</ele>
        <time>2022-08-15T14:14:31Z</time>
      </trkpt>
      <trkpt lat="4.1050750" lon="-76.3961050">
        <ele>1660.0</ele>
        <time>2022-08-15T14:14:34Z</time>
      </trkpt>
      <trkpt lat="4.1050020" lon="-76.3961370">
        <ele>1660.4</ele>
        <time>2022-08-15T14:14:38Z</time>
      </trkpt>
      <trkpt lat="4.1049440" lon="-76.3961480">
        <ele>1660.8</ele>
        <time>2022-08-15T14:14:41Z</time>
      </trkpt>
      <trkpt lat="4.1048700" lon="-76.3961590">
        <ele>1661.4</ele>
        <time>2022-08-15T14:14:44Z</time>
      </trkpt>
      <trkpt lat="4.1047940" lon="-76.3961720">
        <ele>1661.8</ele>
        <time>2022-08-15T14:14:47Z</time>
      </trkpt>
      <trkpt lat="4.1047260" lon="-76.3962020">
        <ele>1662.4</ele>
        <time>2022-08-15T14:14:50Z</time>
      </trkpt>
      <trkpt lat="4.1046680" lon="-76.3962270">
        <ele>1662.8</ele>
        <time>2022-08-15T14:14:53Z</time>
      </trkpt>
      <trkpt lat="4.1046460" lon="-76.3962420">
        <ele>1663.0</ele>
        <time>2022-08-15T14:14:54Z</time>
      </trkpt>
      <trkpt lat="4.1046240" lon="-76.3962530">
        <ele>1663.0</ele>
        <time>2022-08-15T14:14:55Z</time>
      </trkpt>
      <trkpt lat="4.1045420" lon="-76.3963390">
        <ele>1663.8</ele>
        <time>2022-08-15T14:15:01Z</time>
      </trkpt>
      <trkpt lat="4.1045320" lon="-76.3963540">
        <ele>1664.0</ele>
        <time>2022-08-15T14:15:02Z</time>
      </trkpt>
      <trkpt lat="4.1045060" lon="-76.3964030">
        <ele>1664.2</ele>
        <time>2022-08-15T14:15:05Z</time>
      </trkpt>
      <trkpt lat="4.1043980" lon="-76.3965160">
        <ele>1665.0</ele>
        <time>2022-08-15T14:15:12Z</time>
      </trkpt>
      <trkpt lat="4.1042780" lon="-76.3965160">
        <ele>1666.2</ele>
        <time>2022-08-15T14:15:17Z</time>
      </trkpt>
      <trkpt lat="4.1042530" lon="-76.3965060">
        <ele>1666.4</ele>
        <time>2022-08-15T14:15:18Z</time>
      </trkpt>
      <trkpt lat="4.1041340" lon="-76.3964010">
        <ele>1667.2</ele>
        <time>2022-08-15T14:15:24Z</time>
      </trkpt>
      <trkpt lat="4.1041130" lon="-76.3963820">
        <ele>1667.4</ele>
        <time>2022-08-15T14:15:25Z</time>
      </trkpt>
      <trkpt lat="4.1039210" lon="-76.3962530">
        <ele>1668.4</ele>
        <time>2022-08-15T14:15:34Z</time>
      </trkpt>
      <trkpt lat="4.1037830" lon="-76.3962700">
        <ele>1669.4</ele>
        <time>2022-08-15T14:15:40Z</time>
      </trkpt>
      <trkpt lat="4.1037600" lon="-76.3962830">
        <ele>1669.6</ele>
        <time>2022-08-15T14:15:41Z</time>
      </trkpt>
      <trkpt lat="4.1036340" lon="-76.3963460">
        <ele>1670.4</ele>
        <time>2022-08-15T14:15:47Z</time>
      </trkpt>
      <trkpt lat="4.1035860" lon="-76.3963560">
        <ele>1670.8</ele>
        <time>2022-08-15T14:15:49Z</time>
      </trkpt>
      <trkpt lat="4.1034830" lon="-76.3963920">
        <ele>1671.6</ele>
        <time>2022-08-15T14:15:53Z</time>
      </trkpt>
      <trkpt lat="4.1034350" lon="-76.3964280">
        <ele>1672.0</ele>
        <time>2022-08-15T14:15:55Z</time>
      </trkpt>
      <trkpt lat="4.1033360" lon="-76.3965000">
        <ele>1672.6</ele>
        <time>2022-08-15T14:16:00Z</time>
      </trkpt>
      <trkpt lat="4.1033190" lon="-76.3965160">
        <ele>1672.6</ele>
        <time>2022-08-15T14:16:01Z</time>
      </trkpt>
      <trkpt lat="4.1032360" lon="-76.3965840">
        <ele>1673.6</ele>
        <time>2022-08-15T14:16:06Z</time>
      </trkpt>
      <trkpt lat="4.1031170" lon="-76.3966380">
        <ele>1674.8</ele>
        <time>2022-08-15T14:16:11Z</time>
      </trkpt>
      <trkpt lat="4.1030910" lon="-76.3966500">
        <ele>1675.0</ele>
        <time>2022-08-15T14:16:12Z</time>
      </trkpt>
      <trkpt lat="4.1029290" lon="-76.3966150">
        <ele>1675.6</ele>
        <time>2022-08-15T14:16:18Z</time>
      </trkpt>
      <trkpt lat="4.1028840" lon="-76.3965830">
        <ele>1676.0</ele>
        <time>2022-08-15T14:16:20Z</time>
      </trkpt>
      <trkpt lat="4.1027760" lon="-76.3964940">
        <ele>1676.8</ele>
        <time>2022-08-15T14:16:25Z</time>
      </trkpt>
      <trkpt lat="4.1027310" lon="-76.3964570">
        <ele>1677.0</ele>
        <time>2022-08-15T14:16:27Z</time>
      </trkpt>
      <trkpt lat="4.1026800" lon="-76.3964310">
        <ele>1677.0</ele>
        <time>2022-08-15T14:16:29Z</time>
      </trkpt>
      <trkpt lat="4.1026230" lon="-76.3964210">
        <ele>1677.2</ele>
        <time>2022-08-15T14:16:31Z</time>
      </trkpt>
      <trkpt lat="4.1025380" lon="-76.3964190">
        <ele>1678.0</ele>
        <time>2022-08-15T14:16:34Z</time>
      </trkpt>
      <trkpt lat="4.1024270" lon="-76.3964320">
        <ele>1678.6</ele>
        <time>2022-08-15T14:16:38Z</time>
      </trkpt>
      <trkpt lat="4.1023000" lon="-76.3964460">
        <ele>1679.4</ele>
        <time>2022-08-15T14:16:42Z</time>
      </trkpt>
      <trkpt lat="4.1021420" lon="-76.3964580">
        <ele>1680.4</ele>
        <time>2022-08-15T14:16:47Z</time>
      </trkpt>
      <trkpt lat="4.1019310" lon="-76.3964450">
        <ele>1681.4</ele>
        <time>2022-08-15T14:16:54Z</time>
      </trkpt>
      <trkpt lat="4.1019000" lon="-76.3964390">
        <ele>1681.4</ele>
        <time>2022-08-15T14:16:55Z</time>
      </trkpt>
      <trkpt lat="4.1018730" lon="-76.3964350">
        <ele>1681.8</ele>
        <time>2022-08-15T14:16:56Z</time>
      </trkpt>
      <trkpt lat="4.1016760" lon="-76.3964240">
        <ele>1682.8</ele>
        <time>2022-08-15T14:17:03Z</time>
      </trkpt>
      <trkpt lat="4.1015090" lon="-76.3964980">
        <ele>1683.6</ele>
        <time>2022-08-15T14:17:10Z</time>
      </trkpt>
      <trkpt lat="4.1013940" lon="-76.3965640">
        <ele>1684.6</ele>
        <time>2022-08-15T14:17:15Z</time>
      </trkpt>
      <trkpt lat="4.1013680" lon="-76.3965820">
        <ele>1684.8</ele>
        <time>2022-08-15T14:17:16Z</time>
      </trkpt>
      <trkpt lat="4.1012350" lon="-76.3966550">
        <ele>1685.6</ele>
        <time>2022-08-15T14:17:22Z</time>
      </trkpt>
      <trkpt lat="4.1011880" lon="-76.3966750">
        <ele>1685.8</ele>
        <time>2022-08-15T14:17:24Z</time>
      </trkpt>
      <trkpt lat="4.1010140" lon="-76.3967160">
        <ele>1687.0</ele>
        <time>2022-08-15T14:17:31Z</time>
      </trkpt>
      <trkpt lat="4.1009850" lon="-76.3967210">
        <ele>1687.2</ele>
        <time>2022-08-15T14:17:32Z</time>
      </trkpt>
      <trkpt lat="4.1008590" lon="-76.3967300">
        <ele>1688.2</ele>
        <time>2022-08-15T14:17:37Z</time>
      </trkpt>
      <trkpt lat="4.1007560" lon="-76.3967190">
        <ele>1688.8</ele>
        <time>2022-08-15T14:17:41Z</time>
      </trkpt>
      <trkpt lat="4.1006850" lon="-76.3966840">
        <ele>1689.2</ele>
        <time>2022-08-15T14:17:44Z</time>
      </trkpt>
      <trkpt lat="4.1006520" lon="-76.3966430">
        <ele>1689.6</ele>
        <time>2022-08-15T14:17:46Z</time>
      </trkpt>
      <trkpt lat="4.1006170" lon="-76.3964860">
        <ele>1690.2</ele>
        <time>2022-08-15T14:17:52Z</time>
      </trkpt>
      <trkpt lat="4.1006160" lon="-76.3964610">
        <ele>1690.4</ele>
        <time>2022-08-15T14:17:53Z</time>
      </trkpt>
      <trkpt lat="4.1005630" lon="-76.3963830">
        <ele>1690.8</ele>
        <time>2022-08-15T14:17:57Z</time>
      </trkpt>
      <trkpt lat="4.1004270" lon="-76.3963550">
        <ele>1691.4</ele>
        <time>2022-08-15T14:18:02Z</time>
      </trkpt>
      <trkpt lat="4.1002640" lon="-76.3964180">
        <ele>1692.2</ele>
        <time>2022-08-15T14:18:09Z</time>
      </trkpt>
      <trkpt lat="4.1001680" lon="-76.3965450">
        <ele>1693.2</ele>
        <time>2022-08-15T14:18:15Z</time>
      </trkpt>
      <trkpt lat="4.1001260" lon="-76.3967400">
        <ele>1694.4</ele>
        <time>2022-08-15T14:18:22Z</time>
      </trkpt>
      <trkpt lat="4.1000380" lon="-76.3968980">
        <ele>1695.2</ele>
        <time>2022-08-15T14:18:29Z</time>
      </trkpt>
      <trkpt lat="4.1000030" lon="-76.3969440">
        <ele>1695.4</ele>
        <time>2022-08-15T14:18:31Z</time>
      </trkpt>
      <trkpt lat="4.0998700" lon="-76.3971030">
        <ele>1696.2</ele>
        <time>2022-08-15T14:18:38Z</time>
      </trkpt>
      <trkpt lat="4.0998460" lon="-76.3971160">
        <ele>1696.4</ele>
        <time>2022-08-15T14:18:39Z</time>
      </trkpt>
      <trkpt lat="4.0997340" lon="-76.3972270">
        <ele>1697.2</ele>
        <time>2022-08-15T14:18:45Z</time>
      </trkpt>
      <trkpt lat="4.0997130" lon="-76.3972490">
        <ele>1697.4</ele>
        <time>2022-08-15T14:18:46Z</time>
      </trkpt>
      <trkpt lat="4.0996260" lon="-76.3973290">
        <ele>1698.4</ele>
        <time>2022-08-15T14:18:51Z</time>
      </trkpt>
      <trkpt lat="4.0995040" lon="-76.3974440">
        <ele>1699.4</ele>
        <time>2022-08-15T14:18:57Z</time>
      </trkpt>
      <trkpt lat="4.0994670" lon="-76.3974840">
        <ele>1699.6</ele>
        <time>2022-08-15T14:18:59Z</time>
      </trkpt>
      <trkpt lat="4.0993500" lon="-76.3976130">
        <ele>1700.6</ele>
        <time>2022-08-15T14:19:05Z</time>
      </trkpt>
      <trkpt lat="4.0991980" lon="-76.3977970">
        <ele>1701.4</ele>
        <time>2022-08-15T14:19:13Z</time>
      </trkpt>
      <trkpt lat="4.0991530" lon="-76.3978360">
        <ele>1701.6</ele>
        <time>2022-08-15T14:19:15Z</time>
      </trkpt>
      <trkpt lat="4.0990210" lon="-76.3979310">
        <ele>1702.4</ele>
        <time>2022-08-15T14:19:20Z</time>
      </trkpt>
      <trkpt lat="4.0989390" lon="-76.3979860">
        <ele>1703.0</ele>
        <time>2022-08-15T14:19:23Z</time>
      </trkpt>
      <trkpt lat="4.0988090" lon="-76.3980650">
        <ele>1703.6</ele>
        <time>2022-08-15T14:19:28Z</time>
      </trkpt>
      <trkpt lat="4.0987510" lon="-76.3980990">
        <ele>1703.8</ele>
        <time>2022-08-15T14:19:30Z</time>
      </trkpt>
      <trkpt lat="4.0985480" lon="-76.3982090">
        <ele>1704.4</ele>
        <time>2022-08-15T14:19:37Z</time>
      </trkpt>
      <trkpt lat="4.0984800" lon="-76.3982400">
        <ele>1704.6</ele>
        <time>2022-08-15T14:19:39Z</time>
      </trkpt>
      <trkpt lat="4.0982430" lon="-76.3983290">
        <ele>1705.0</ele>
        <time>2022-08-15T14:19:46Z</time>
      </trkpt>
      <trkpt lat="4.0978570" lon="-76.3984030">
        <ele>1705.4</ele>
        <time>2022-08-15T14:19:57Z</time>
      </trkpt>
      <trkpt lat="4.0978240" lon="-76.3984130">
        <ele>1705.6</ele>
        <time>2022-08-15T14:19:58Z</time>
      </trkpt>
      <trkpt lat="4.0977010" lon="-76.3984860">
        <ele>1706.4</ele>
        <time>2022-08-15T14:20:03Z</time>
      </trkpt>
      <trkpt lat="4.0976750" lon="-76.3985310">
        <ele>1706.6</ele>
        <time>2022-08-15T14:20:05Z</time>
      </trkpt>
      <trkpt lat="4.0976210" lon="-76.3985920">
        <ele>1707.2</ele>
        <time>2022-08-15T14:20:08Z</time>
      </trkpt>
      <trkpt lat="4.0975730" lon="-76.3986570">
        <ele>1707.6</ele>
        <time>2022-08-15T14:20:11Z</time>
      </trkpt>
      <trkpt lat="4.0975460" lon="-76.3987180">
        <ele>1708.0</ele>
        <time>2022-08-15T14:20:14Z</time>
      </trkpt>
      <trkpt lat="4.0975210" lon="-76.3987970">
        <ele>1708.6</ele>
        <time>2022-08-15T14:20:18Z</time>
      </trkpt>
      <trkpt lat="4.0975030" lon="-76.3988270">
        <ele>1708.8</ele>
        <time>2022-08-15T14:20:20Z</time>
      </trkpt>
      <trkpt lat="4.0974790" lon="-76.3988710">
        <ele>1709.6</ele>
        <time>2022-08-15T14:20:24Z</time>
      </trkpt>
      <trkpt lat="4.0974700" lon="-76.3988780">
        <ele>1709.8</ele>
        <time>2022-08-15T14:20:25Z</time>
      </trkpt>
      <trkpt lat="4.0974550" lon="-76.3988930">
        <ele>1710.2</ele>
        <time>2022-08-15T14:20:27Z</time>
      </trkpt>
      <trkpt lat="4.0974490" lon="-76.3988780">
        <ele>1710.6</ele>
        <time>2022-08-15T14:20:30Z</time>
      </trkpt>
      <trkpt lat="4.0974560" lon="-76.3988660">
        <ele>1710.8</ele>
        <time>2022-08-15T14:20:31Z</time>
      </trkpt>
      <trkpt lat="4.0975280" lon="-76.3987730">
        <ele>1711.0</ele>
        <time>2022-08-15T14:20:36Z</time>
      </trkpt>
      <trkpt lat="4.0975790" lon="-76.3986590">
        <ele>1711.2</ele>
        <time>2022-08-15T14:20:39Z</time>
      </trkpt>
      <trkpt lat="4.0976060" lon="-76.3986250">
        <ele>1711.2</ele>
        <time>2022-08-15T14:20:40Z</time>
      </trkpt>
      <trkpt lat="4.0976870" lon="-76.3985230">
        <ele>1710.6</ele>
        <time>2022-08-15T14:20:44Z</time>
      </trkpt>
      <trkpt lat="4.0976740" lon="-76.3984820">
        <ele>1709.8</ele>
        <time>2022-08-15T14:20:46Z</time>
      </trkpt>
      <trkpt lat="4.0976540" lon="-76.3984630">
        <ele>1709.2</ele>
        <time>2022-08-15T14:20:48Z</time>
      </trkpt>
      <trkpt lat="4.0976270" lon="-76.3984570">
        <ele>1708.6</ele>
        <time>2022-08-15T14:20:50Z</time>
      </trkpt>
      <trkpt lat="4.0976110" lon="-76.3984620">
        <ele>1708.4</ele>
        <time>2022-08-15T14:20:51Z</time>
      </trkpt>
      <trkpt lat="4.0975860" lon="-76.3984770">
        <ele>1708.4</ele>
        <time>2022-08-15T14:20:53Z</time>
      </trkpt>
      <trkpt lat="4.0974550" lon="-76.3985430">
        <ele>1708.8</ele>
        <time>2022-08-15T14:21:03Z</time>
      </trkpt>
      <trkpt lat="4.0973590" lon="-76.3985880">
        <ele>1709.6</ele>
        <time>2022-08-15T14:21:10Z</time>
      </trkpt>
      <trkpt lat="4.0973320" lon="-76.3986030">
        <ele>1709.8</ele>
        <time>2022-08-15T14:21:12Z</time>
      </trkpt>
      <trkpt lat="4.0972930" lon="-76.3986220">
        <ele>1710.2</ele>
        <time>2022-08-15T14:21:15Z</time>
      </trkpt>
      <trkpt lat="4.0972680" lon="-76.3986360">
        <ele>1710.6</ele>
        <time>2022-08-15T14:21:17Z</time>
      </trkpt>
      <trkpt lat="4.0972310" lon="-76.3986580">
        <ele>1711.2</ele>
        <time>2022-08-15T14:21:20Z</time>
      </trkpt>
      <trkpt lat="4.0971730" lon="-76.3986860">
        <ele>1711.6</ele>
        <time>2022-08-15T14:21:24Z</time>
      </trkpt>
      <trkpt lat="4.0971190" lon="-76.3987010">
        <ele>1712.6</ele>
        <time>2022-08-15T14:21:28Z</time>
      </trkpt>
      <trkpt lat="4.0970520" lon="-76.3987130">
        <ele>1713.4</ele>
        <time>2022-08-15T14:21:32Z</time>
      </trkpt>
      <trkpt lat="4.0970340" lon="-76.3987160">
        <ele>1713.6</ele>
        <time>2022-08-15T14:21:33Z</time>
      </trkpt>
      <trkpt lat="4.0969460" lon="-76.3987420">
        <ele>1714.2</ele>
        <time>2022-08-15T14:21:38Z</time>
      </trkpt>
      <trkpt lat="4.0969440" lon="-76.3987410">
        <ele>1714.2</ele>
        <time>2022-08-15T14:21:42Z</time>
      </trkpt>
      <trkpt lat="4.0969440" lon="-76.3987410">
        <ele>1714.2</ele>
        <time>2022-08-15T14:21:43Z</time>
      </trkpt>
      <trkpt lat="4.0969440" lon="-76.3987410">
        <ele>1714.0</ele>
        <time>2022-08-15T14:21:56Z</time>
      </trkpt>
      <trkpt lat="4.0969440" lon="-76.3987410">
        <ele>1714.0</ele>
        <time>2022-08-15T14:22:04Z</time>
      </trkpt>
      <trkpt lat="4.0969440" lon="-76.3987410">
        <ele>1714.0</ele>
        <time>2022-08-15T14:22:10Z</time>
      </trkpt>
      <trkpt lat="4.0968700" lon="-76.3987470">
        <ele>1713.8</ele>
        <time>2022-08-15T14:23:08Z</time>
      </trkpt>
      <trkpt lat="4.0966920" lon="-76.3987510">
        <ele>1713.8</ele>
        <time>2022-08-15T14:23:13Z</time>
      </trkpt>
      <trkpt lat="4.0965440" lon="-76.3986810">
        <ele>1713.6</ele>
        <time>2022-08-15T14:23:17Z</time>
      </trkpt>
      <trkpt lat="4.0965070" lon="-76.3986530">
        <ele>1713.4</ele>
        <time>2022-08-15T14:23:18Z</time>
      </trkpt>
      <trkpt lat="4.0963290" lon="-76.3984400">
        <ele>1712.4</ele>
        <time>2022-08-15T14:23:23Z</time>
      </trkpt>
      <trkpt lat="4.0962670" lon="-76.3982680">
        <ele>1711.6</ele>
        <time>2022-08-15T14:23:26Z</time>
      </trkpt>
      <trkpt lat="4.0962490" lon="-76.3981520">
        <ele>1711.0</ele>
        <time>2022-08-15T14:23:28Z</time>
      </trkpt>
      <trkpt lat="4.0962420" lon="-76.3980870">
        <ele>1710.6</ele>
        <time>2022-08-15T14:23:29Z</time>
      </trkpt>
      <trkpt lat="4.0962420" lon="-76.3980080">
        <ele>1710.0</ele>
        <time>2022-08-15T14:23:30Z</time>
      </trkpt>
      <trkpt lat="4.0962630" lon="-76.3978750">
        <ele>1708.8</ele>
        <time>2022-08-15T14:23:32Z</time>
      </trkpt>
      <trkpt lat="4.0963380" lon="-76.3976800">
        <ele>1707.6</ele>
        <time>2022-08-15T14:23:35Z</time>
      </trkpt>
      <trkpt lat="4.0963530" lon="-76.3976160">
        <ele>1707.0</ele>
        <time>2022-08-15T14:23:36Z</time>
      </trkpt>
      <trkpt lat="4.0963600" lon="-76.3975590">
        <ele>1706.8</ele>
        <time>2022-08-15T14:23:37Z</time>
      </trkpt>
      <trkpt lat="4.0963650" lon="-76.3975020">
        <ele>1706.4</ele>
        <time>2022-08-15T14:23:38Z</time>
      </trkpt>
      <trkpt lat="4.0963540" lon="-76.3973830">
        <ele>1705.2</ele>
        <time>2022-08-15T14:23:40Z</time>
      </trkpt>
      <trkpt lat="4.0963370" lon="-76.3973190">
        <ele>1704.4</ele>
        <time>2022-08-15T14:23:41Z</time>
      </trkpt>
      <trkpt lat="4.0963160" lon="-76.3972490">
        <ele>1703.8</ele>
        <time>2022-08-15T14:23:42Z</time>
      </trkpt>
      <trkpt lat="4.0962020" lon="-76.3969510">
        <ele>1702.6</ele>
        <time>2022-08-15T14:23:46Z</time>
      </trkpt>
      <trkpt lat="4.0961180" lon="-76.3967480">
        <ele>1701.2</ele>
        <time>2022-08-15T14:23:49Z</time>
      </trkpt>
      <trkpt lat="4.0960950" lon="-76.3966800">
        <ele>1700.4</ele>
        <time>2022-08-15T14:23:50Z</time>
      </trkpt>
      <trkpt lat="4.0960780" lon="-76.3966100">
        <ele>1699.8</ele>
        <time>2022-08-15T14:23:51Z</time>
      </trkpt>
      <trkpt lat="4.0960700" lon="-76.3965360">
        <ele>1698.6</ele>
        <time>2022-08-15T14:23:52Z</time>
      </trkpt>
      <trkpt lat="4.0960550" lon="-76.3963800">
        <ele>1696.8</ele>
        <time>2022-08-15T14:23:54Z</time>
      </trkpt>
      <trkpt lat="4.0960410" lon="-76.3962170">
        <ele>1695.4</ele>
        <time>2022-08-15T14:23:56Z</time>
      </trkpt>
      <trkpt lat="4.0960120" lon="-76.3960610">
        <ele>1694.2</ele>
        <time>2022-08-15T14:23:58Z</time>
      </trkpt>
      <trkpt lat="4.0959930" lon="-76.3959900">
        <ele>1693.8</ele>
        <time>2022-08-15T14:23:59Z</time>
      </trkpt>
      <trkpt lat="4.0959710" lon="-76.3959270">
        <ele>1693.2</ele>
        <time>2022-08-15T14:24:00Z</time>
      </trkpt>
      <trkpt lat="4.0959260" lon="-76.3958280">
        <ele>1692.0</ele>
        <time>2022-08-15T14:24:02Z</time>
      </trkpt>
      <trkpt lat="4.0959000" lon="-76.3957870">
        <ele>1691.4</ele>
        <time>2022-08-15T14:24:03Z</time>
      </trkpt>
      <trkpt lat="4.0958420" lon="-76.3957040">
        <ele>1690.6</ele>
        <time>2022-08-15T14:24:05Z</time>
      </trkpt>
      <trkpt lat="4.0957670" lon="-76.3956350">
        <ele>1689.8</ele>
        <time>2022-08-15T14:24:07Z</time>
      </trkpt>
      <trkpt lat="4.0957200" lon="-76.3956020">
        <ele>1689.6</ele>
        <time>2022-08-15T14:24:08Z</time>
      </trkpt>
      <trkpt lat="4.0956560" lon="-76.3955650">
        <ele>1689.4</ele>
        <time>2022-08-15T14:24:09Z</time>
      </trkpt>
      <trkpt lat="4.0954820" lon="-76.3954890">
        <ele>1689.2</ele>
        <time>2022-08-15T14:24:12Z</time>
      </trkpt>
      <trkpt lat="4.0953420" lon="-76.3954350">
        <ele>1688.2</ele>
        <time>2022-08-15T14:24:14Z</time>
      </trkpt>
      <trkpt lat="4.0952650" lon="-76.3953950">
        <ele>1687.8</ele>
        <time>2022-08-15T14:24:15Z</time>
      </trkpt>
      <trkpt lat="4.0951610" lon="-76.3953080">
        <ele>1687.2</ele>
        <time>2022-08-15T14:24:17Z</time>
      </trkpt>
      <trkpt lat="4.0951340" lon="-76.3952650">
        <ele>1686.6</ele>
        <time>2022-08-15T14:24:18Z</time>
      </trkpt>
      <trkpt lat="4.0951060" lon="-76.3952040">
        <ele>1686.0</ele>
        <time>2022-08-15T14:24:19Z</time>
      </trkpt>
      <trkpt lat="4.0950810" lon="-76.3951300">
        <ele>1685.4</ele>
        <time>2022-08-15T14:24:20Z</time>
      </trkpt>
      <trkpt lat="4.0950680" lon="-76.3950690">
        <ele>1684.8</ele>
        <time>2022-08-15T14:24:21Z</time>
      </trkpt>
      <trkpt lat="4.0950570" lon="-76.3950080">
        <ele>1684.4</ele>
        <time>2022-08-15T14:24:22Z</time>
      </trkpt>
      <trkpt lat="4.0950030" lon="-76.3948430">
        <ele>1683.2</ele>
        <time>2022-08-15T14:24:25Z</time>
      </trkpt>
      <trkpt lat="4.0949640" lon="-76.3947920">
        <ele>1683.0</ele>
        <time>2022-08-15T14:24:26Z</time>
      </trkpt>
      <trkpt lat="4.0948980" lon="-76.3947460">
        <ele>1682.6</ele>
        <time>2022-08-15T14:24:27Z</time>
      </trkpt>
      <trkpt lat="4.0947810" lon="-76.3947040">
        <ele>1682.0</ele>
        <time>2022-08-15T14:24:29Z</time>
      </trkpt>
      <trkpt lat="4.0945880" lon="-76.3946450">
        <ele>1680.4</ele>
        <time>2022-08-15T14:24:32Z</time>
      </trkpt>
      <trkpt lat="4.0944650" lon="-76.3946240">
        <ele>1679.8</ele>
        <time>2022-08-15T14:24:34Z</time>
      </trkpt>
      <trkpt lat="4.0944090" lon="-76.3946240">
        <ele>1679.6</ele>
        <time>2022-08-15T14:24:35Z</time>
      </trkpt>
      <trkpt lat="4.0943550" lon="-76.3946350">
        <ele>1679.0</ele>
        <time>2022-08-15T14:24:36Z</time>
      </trkpt>
      <trkpt lat="4.0942510" lon="-76.3946890">
        <ele>1678.4</ele>
        <time>2022-08-15T14:24:38Z</time>
      </trkpt>
      <trkpt lat="4.0942060" lon="-76.3947260">
        <ele>1677.8</ele>
        <time>2022-08-15T14:24:39Z</time>
      </trkpt>
      <trkpt lat="4.0941150" lon="-76.3947980">
        <ele>1676.4</ele>
        <time>2022-08-15T14:24:41Z</time>
      </trkpt>
      <trkpt lat="4.0940700" lon="-76.3948310">
        <ele>1676.0</ele>
        <time>2022-08-15T14:24:42Z</time>
      </trkpt>
      <trkpt lat="4.0940270" lon="-76.3948530">
        <ele>1675.6</ele>
        <time>2022-08-15T14:24:43Z</time>
      </trkpt>
      <trkpt lat="4.0939910" lon="-76.3948670">
        <ele>1675.4</ele>
        <time>2022-08-15T14:24:44Z</time>
      </trkpt>
      <trkpt lat="4.0939510" lon="-76.3948780">
        <ele>1674.4</ele>
        <time>2022-08-15T14:24:46Z</time>
      </trkpt>
      <trkpt lat="4.0939440" lon="-76.3948790">
        <ele>1673.2</ele>
        <time>2022-08-15T14:24:48Z</time>
      </trkpt>
      <trkpt lat="4.0939440" lon="-76.3948790">
        <ele>1672.6</ele>
        <time>2022-08-15T14:24:50Z</time>
      </trkpt>
      <trkpt lat="4.0939440" lon="-76.3948790">
        <ele>1672.2</ele>
        <time>2022-08-15T14:24:57Z</time>
      </trkpt>
      <trkpt lat="4.0939440" lon="-76.3948790">
        <ele>1672.2</ele>
        <time>2022-08-15T14:25:09Z</time>
      </trkpt>
      <trkpt lat="4.0939440" lon="-76.3948790">
        <ele>1672.2</ele>
        <time>2022-08-15T14:25:12Z</time>
      </trkpt>
      <trkpt lat="4.0938790" lon="-76.3948820">
        <ele>1672.2</ele>
        <time>2022-08-15T14:25:44Z</time>
      </trkpt>
      <trkpt lat="4.0937170" lon="-76.3948930">
        <ele>1672.2</ele>
        <time>2022-08-15T14:25:48Z</time>
      </trkpt>
      <trkpt lat="4.0934580" lon="-76.3948580">
        <ele>1671.8</ele>
        <time>2022-08-15T14:25:53Z</time>
      </trkpt>
      <trkpt lat="4.0934040" lon="-76.3948480">
        <ele>1671.4</ele>
        <time>2022-08-15T14:25:54Z</time>
      </trkpt>
      <trkpt lat="4.0933040" lon="-76.3948280">
        <ele>1670.8</ele>
        <time>2022-08-15T14:25:56Z</time>
      </trkpt>
      <trkpt lat="4.0932510" lon="-76.3948060">
        <ele>1670.6</ele>
        <time>2022-08-15T14:25:57Z</time>
      </trkpt>
      <trkpt lat="4.0932150" lon="-76.3947840">
        <ele>1669.8</ele>
        <time>2022-08-15T14:25:58Z</time>
      </trkpt>
      <trkpt lat="4.0931750" lon="-76.3947490">
        <ele>1669.2</ele>
        <time>2022-08-15T14:25:59Z</time>
      </trkpt>
      <trkpt lat="4.0931400" lon="-76.3947060">
        <ele>1668.6</ele>
        <time>2022-08-15T14:26:00Z</time>
      </trkpt>
      <trkpt lat="4.0931010" lon="-76.3946500">
        <ele>1668.0</ele>
        <time>2022-08-15T14:26:01Z</time>
      </trkpt>
      <trkpt lat="4.0930720" lon="-76.3945970">
        <ele>1667.8</ele>
        <time>2022-08-15T14:26:02Z</time>
      </trkpt>
      <trkpt lat="4.0930200" lon="-76.3944910">
        <ele>1666.8</ele>
        <time>2022-08-15T14:26:04Z</time>
      </trkpt>
      <trkpt lat="4.0929710" lon="-76.3943460">
        <ele>1666.2</ele>
        <time>2022-08-15T14:26:06Z</time>
      </trkpt>
      <trkpt lat="4.0929620" lon="-76.3942700">
        <ele>1665.4</ele>
        <time>2022-08-15T14:26:07Z</time>
      </trkpt>
      <trkpt lat="4.0929620" lon="-76.3941930">
        <ele>1664.6</ele>
        <time>2022-08-15T14:26:08Z</time>
      </trkpt>
      <trkpt lat="4.0929710" lon="-76.3941320">
        <ele>1664.0</ele>
        <time>2022-08-15T14:26:09Z</time>
      </trkpt>
      <trkpt lat="4.0930340" lon="-76.3938960">
        <ele>1662.8</ele>
        <time>2022-08-15T14:26:12Z</time>
      </trkpt>
      <trkpt lat="4.0930490" lon="-76.3938240">
        <ele>1662.4</ele>
        <time>2022-08-15T14:26:13Z</time>
      </trkpt>
      <trkpt lat="4.0930570" lon="-76.3937670">
        <ele>1661.8</ele>
        <time>2022-08-15T14:26:14Z</time>
      </trkpt>
      <trkpt lat="4.0930630" lon="-76.3936970">
        <ele>1661.4</ele>
        <time>2022-08-15T14:26:15Z</time>
      </trkpt>
      <trkpt lat="4.0930630" lon="-76.3935590">
        <ele>1660.6</ele>
        <time>2022-08-15T14:26:17Z</time>
      </trkpt>
      <trkpt lat="4.0930580" lon="-76.3935020">
        <ele>1660.4</ele>
        <time>2022-08-15T14:26:18Z</time>
      </trkpt>
      <trkpt lat="4.0930510" lon="-76.3934610">
        <ele>1660.4</ele>
        <time>2022-08-15T14:26:19Z</time>
      </trkpt>
      <trkpt lat="4.0930070" lon="-76.3933760">
        <ele>1660.2</ele>
        <time>2022-08-15T14:26:21Z</time>
      </trkpt>
      <trkpt lat="4.0929080" lon="-76.3933350">
        <ele>1660.2</ele>
        <time>2022-08-15T14:26:23Z</time>
      </trkpt>
      <trkpt lat="4.0928520" lon="-76.3933440">
        <ele>1660.2</ele>
        <time>2022-08-15T14:26:24Z</time>
      </trkpt>
      <trkpt lat="4.0926140" lon="-76.3934140">
        <ele>1660.0</ele>
        <time>2022-08-15T14:26:28Z</time>
      </trkpt>
      <trkpt lat="4.0925250" lon="-76.3934200">
        <ele>1659.6</ele>
        <time>2022-08-15T14:26:30Z</time>
      </trkpt>
      <trkpt lat="4.0923930" lon="-76.3933940">
        <ele>1659.6</ele>
        <time>2022-08-15T14:26:32Z</time>
      </trkpt>
      <trkpt lat="4.0922730" lon="-76.3934090">
        <ele>1659.4</ele>
        <time>2022-08-15T14:26:34Z</time>
      </trkpt>
      <trkpt lat="4.0922250" lon="-76.3934340">
        <ele>1659.4</ele>
        <time>2022-08-15T14:26:35Z</time>
      </trkpt>
      <trkpt lat="4.0921740" lon="-76.3934730">
        <ele>1659.4</ele>
        <time>2022-08-15T14:26:36Z</time>
      </trkpt>
      <trkpt lat="4.0921260" lon="-76.3935210">
        <ele>1658.6</ele>
        <time>2022-08-15T14:26:37Z</time>
      </trkpt>
      <trkpt lat="4.0920620" lon="-76.3935790">
        <ele>1658.2</ele>
        <time>2022-08-15T14:26:38Z</time>
      </trkpt>
      <trkpt lat="4.0920060" lon="-76.3936230">
        <ele>1657.4</ele>
        <time>2022-08-15T14:26:39Z</time>
      </trkpt>
      <trkpt lat="4.0919410" lon="-76.3936580">
        <ele>1656.2</ele>
        <time>2022-08-15T14:26:40Z</time>
      </trkpt>
      <trkpt lat="4.0918110" lon="-76.3937240">
        <ele>1655.0</ele>
        <time>2022-08-15T14:26:42Z</time>
      </trkpt>
      <trkpt lat="4.0917330" lon="-76.3937690">
        <ele>1654.2</ele>
        <time>2022-08-15T14:26:43Z</time>
      </trkpt>
      <trkpt lat="4.0916750" lon="-76.3938080">
        <ele>1653.4</ele>
        <time>2022-08-15T14:26:44Z</time>
      </trkpt>
      <trkpt lat="4.0915870" lon="-76.3938710">
        <ele>1652.4</ele>
        <time>2022-08-15T14:26:46Z</time>
      </trkpt>
      <trkpt lat="4.0915400" lon="-76.3938920">
        <ele>1651.6</ele>
        <time>2022-08-15T14:26:47Z</time>
      </trkpt>
      <trkpt lat="4.0914870" lon="-76.3938990">
        <ele>1650.6</ele>
        <time>2022-08-15T14:26:48Z</time>
      </trkpt>
      <trkpt lat="4.0914440" lon="-76.3938860">
        <ele>1649.6</ele>
        <time>2022-08-15T14:26:49Z</time>
      </trkpt>
      <trkpt lat="4.0913580" lon="-76.3938220">
        <ele>1648.2</ele>
        <time>2022-08-15T14:26:51Z</time>
      </trkpt>
      <trkpt lat="4.0912590" lon="-76.3937180">
        <ele>1646.6</ele>
        <time>2022-08-15T14:26:53Z</time>
      </trkpt>
      <trkpt lat="4.0911250" lon="-76.3935890">
        <ele>1645.4</ele>
        <time>2022-08-15T14:26:56Z</time>
      </trkpt>
      <trkpt lat="4.0910250" lon="-76.3935200">
        <ele>1644.6</ele>
        <time>2022-08-15T14:26:58Z</time>
      </trkpt>
      <trkpt lat="4.0909150" lon="-76.3934660">
        <ele>1643.6</ele>
        <time>2022-08-15T14:27:00Z</time>
      </trkpt>
      <trkpt lat="4.0908680" lon="-76.3934380">
        <ele>1642.2</ele>
        <time>2022-08-15T14:27:01Z</time>
      </trkpt>
      <trkpt lat="4.0908380" lon="-76.3934100">
        <ele>1641.2</ele>
        <time>2022-08-15T14:27:02Z</time>
      </trkpt>
      <trkpt lat="4.0908080" lon="-76.3933700">
        <ele>1640.2</ele>
        <time>2022-08-15T14:27:03Z</time>
      </trkpt>
      <trkpt lat="4.0907870" lon="-76.3933220">
        <ele>1639.6</ele>
        <time>2022-08-15T14:27:04Z</time>
      </trkpt>
      <trkpt lat="4.0907540" lon="-76.3931890">
        <ele>1638.4</ele>
        <time>2022-08-15T14:27:06Z</time>
      </trkpt>
      <trkpt lat="4.0907440" lon="-76.3931410">
        <ele>1638.0</ele>
        <time>2022-08-15T14:27:07Z</time>
      </trkpt>
      <trkpt lat="4.0907260" lon="-76.3930860">
        <ele>1637.2</ele>
        <time>2022-08-15T14:27:08Z</time>
      </trkpt>
      <trkpt lat="4.0906510" lon="-76.3929880">
        <ele>1636.2</ele>
        <time>2022-08-15T14:27:10Z</time>
      </trkpt>
      <trkpt lat="4.0905550" lon="-76.3929550">
        <ele>1635.2</ele>
        <time>2022-08-15T14:27:12Z</time>
      </trkpt>
      <trkpt lat="4.0904950" lon="-76.3929620">
        <ele>1634.2</ele>
        <time>2022-08-15T14:27:13Z</time>
      </trkpt>
      <trkpt lat="4.0904550" lon="-76.3929820">
        <ele>1633.6</ele>
        <time>2022-08-15T14:27:14Z</time>
      </trkpt>
      <trkpt lat="4.0904050" lon="-76.3930200">
        <ele>1633.2</ele>
        <time>2022-08-15T14:27:15Z</time>
      </trkpt>
      <trkpt lat="4.0903750" lon="-76.3930650">
        <ele>1632.6</ele>
        <time>2022-08-15T14:27:16Z</time>
      </trkpt>
      <trkpt lat="4.0903520" lon="-76.3931180">
        <ele>1632.0</ele>
        <time>2022-08-15T14:27:17Z</time>
      </trkpt>
      <trkpt lat="4.0902990" lon="-76.3932400">
        <ele>1630.4</ele>
        <time>2022-08-15T14:27:19Z</time>
      </trkpt>
      <trkpt lat="4.0902500" lon="-76.3933540">
        <ele>1629.2</ele>
        <time>2022-08-15T14:27:21Z</time>
      </trkpt>
      <trkpt lat="4.0901400" lon="-76.3934720">
        <ele>1628.0</ele>
        <time>2022-08-15T14:27:24Z</time>
      </trkpt>
      <trkpt lat="4.0900930" lon="-76.3935110">
        <ele>1627.6</ele>
        <time>2022-08-15T14:27:25Z</time>
      </trkpt>
      <trkpt lat="4.0900470" lon="-76.3935610">
        <ele>1627.2</ele>
        <time>2022-08-15T14:27:26Z</time>
      </trkpt>
      <trkpt lat="4.0900010" lon="-76.3936150">
        <ele>1626.4</ele>
        <time>2022-08-15T14:27:27Z</time>
      </trkpt>
      <trkpt lat="4.0899290" lon="-76.3937120">
        <ele>1624.6</ele>
        <time>2022-08-15T14:27:29Z</time>
      </trkpt>
      <trkpt lat="4.0899010" lon="-76.3937520">
        <ele>1624.0</ele>
        <time>2022-08-15T14:27:30Z</time>
      </trkpt>
      <trkpt lat="4.0898680" lon="-76.3937840">
        <ele>1623.4</ele>
        <time>2022-08-15T14:27:31Z</time>
      </trkpt>
      <trkpt lat="4.0897940" lon="-76.3938340">
        <ele>1622.6</ele>
        <time>2022-08-15T14:27:33Z</time>
      </trkpt>
      <trkpt lat="4.0897600" lon="-76.3938470">
        <ele>1621.6</ele>
        <time>2022-08-15T14:27:34Z</time>
      </trkpt>
      <trkpt lat="4.0896990" lon="-76.3938640">
        <ele>1620.8</ele>
        <time>2022-08-15T14:27:35Z</time>
      </trkpt>
      <trkpt lat="4.0896360" lon="-76.3938770">
        <ele>1620.0</ele>
        <time>2022-08-15T14:27:36Z</time>
      </trkpt>
      <trkpt lat="4.0895690" lon="-76.3938930">
        <ele>1619.0</ele>
        <time>2022-08-15T14:27:37Z</time>
      </trkpt>
      <trkpt lat="4.0895040" lon="-76.3939070">
        <ele>1618.2</ele>
        <time>2022-08-15T14:27:38Z</time>
      </trkpt>
      <trkpt lat="4.0894470" lon="-76.3939210">
        <ele>1617.6</ele>
        <time>2022-08-15T14:27:39Z</time>
      </trkpt>
      <trkpt lat="4.0893430" lon="-76.3939420">
        <ele>1616.6</ele>
        <time>2022-08-15T14:27:41Z</time>
      </trkpt>
      <trkpt lat="4.0892930" lon="-76.3939440">
        <ele>1616.2</ele>
        <time>2022-08-15T14:27:42Z</time>
      </trkpt>
      <trkpt lat="4.0892010" lon="-76.3939320">
        <ele>1614.4</ele>
        <time>2022-08-15T14:27:44Z</time>
      </trkpt>
      <trkpt lat="4.0891030" lon="-76.3939080">
        <ele>1612.6</ele>
        <time>2022-08-15T14:27:46Z</time>
      </trkpt>
      <trkpt lat="4.0890620" lon="-76.3938970">
        <ele>1612.2</ele>
        <time>2022-08-15T14:27:47Z</time>
      </trkpt>
      <trkpt lat="4.0890240" lon="-76.3938820">
        <ele>1612.2</ele>
        <time>2022-08-15T14:27:48Z</time>
      </trkpt>
      <trkpt lat="4.0889820" lon="-76.3938680">
        <ele>1611.6</ele>
        <time>2022-08-15T14:27:49Z</time>
      </trkpt>
      <trkpt lat="4.0889360" lon="-76.3938610">
        <ele>1610.6</ele>
        <time>2022-08-15T14:27:50Z</time>
      </trkpt>
      <trkpt lat="4.0888970" lon="-76.3938620">
        <ele>1610.0</ele>
        <time>2022-08-15T14:27:51Z</time>
      </trkpt>
      <trkpt lat="4.0888410" lon="-76.3938750">
        <ele>1609.4</ele>
        <time>2022-08-15T14:27:52Z</time>
      </trkpt>
      <trkpt lat="4.0888000" lon="-76.3939050">
        <ele>1608.6</ele>
        <time>2022-08-15T14:27:53Z</time>
      </trkpt>
      <trkpt lat="4.0887630" lon="-76.3939480">
        <ele>1607.8</ele>
        <time>2022-08-15T14:27:54Z</time>
      </trkpt>
      <trkpt lat="4.0887250" lon="-76.3939990">
        <ele>1607.2</ele>
        <time>2022-08-15T14:27:55Z</time>
      </trkpt>
      <trkpt lat="4.0886220" lon="-76.3941660">
        <ele>1605.6</ele>
        <time>2022-08-15T14:27:58Z</time>
      </trkpt>
      <trkpt lat="4.0885890" lon="-76.3942770">
        <ele>1604.4</ele>
        <time>2022-08-15T14:28:00Z</time>
      </trkpt>
      <trkpt lat="4.0885570" lon="-76.3943880">
        <ele>1603.4</ele>
        <time>2022-08-15T14:28:02Z</time>
      </trkpt>
      <trkpt lat="4.0885440" lon="-76.3944390">
        <ele>1603.0</ele>
        <time>2022-08-15T14:28:03Z</time>
      </trkpt>
      <trkpt lat="4.0885250" lon="-76.3944870">
        <ele>1601.8</ele>
        <time>2022-08-15T14:28:04Z</time>
      </trkpt>
      <trkpt lat="4.0884710" lon="-76.3945820">
        <ele>1600.6</ele>
        <time>2022-08-15T14:28:06Z</time>
      </trkpt>
      <trkpt lat="4.0884290" lon="-76.3946270">
        <ele>1600.2</ele>
        <time>2022-08-15T14:28:07Z</time>
      </trkpt>
      <trkpt lat="4.0883820" lon="-76.3946730">
        <ele>1599.4</ele>
        <time>2022-08-15T14:28:08Z</time>
      </trkpt>
      <trkpt lat="4.0882700" lon="-76.3948110">
        <ele>1598.4</ele>
        <time>2022-08-15T14:28:11Z</time>
      </trkpt>
      <trkpt lat="4.0882420" lon="-76.3948970">
        <ele>1598.0</ele>
        <time>2022-08-15T14:28:13Z</time>
      </trkpt>
      <trkpt lat="4.0882460" lon="-76.3949410">
        <ele>1597.4</ele>
        <time>2022-08-15T14:28:14Z</time>
      </trkpt>
      <trkpt lat="4.0882730" lon="-76.3949850">
        <ele>1596.8</ele>
        <time>2022-08-15T14:28:15Z</time>
      </trkpt>
      <trkpt lat="4.0883180" lon="-76.3950240">
        <ele>1596.4</ele>
        <time>2022-08-15T14:28:16Z</time>
      </trkpt>
      <trkpt lat="4.0883730" lon="-76.3950600">
        <ele>1596.0</ele>
        <time>2022-08-15T14:28:17Z</time>
      </trkpt>
      <trkpt lat="4.0885610" lon="-76.3951460">
        <ele>1595.2</ele>
        <time>2022-08-15T14:28:20Z</time>
      </trkpt>
      <trkpt lat="4.0886210" lon="-76.3951650">
        <ele>1594.8</ele>
        <time>2022-08-15T14:28:21Z</time>
      </trkpt>
      <trkpt lat="4.0886840" lon="-76.3951740">
        <ele>1594.6</ele>
        <time>2022-08-15T14:28:22Z</time>
      </trkpt>
      <trkpt lat="4.0888130" lon="-76.3951680">
        <ele>1594.0</ele>
        <time>2022-08-15T14:28:24Z</time>
      </trkpt>
      <trkpt lat="4.0889850" lon="-76.3951180">
        <ele>1592.2</ele>
        <time>2022-08-15T14:28:27Z</time>
      </trkpt>
      <trkpt lat="4.0890690" lon="-76.3950460">
        <ele>1591.0</ele>
        <time>2022-08-15T14:28:29Z</time>
      </trkpt>
      <trkpt lat="4.0891460" lon="-76.3949580">
        <ele>1589.8</ele>
        <time>2022-08-15T14:28:31Z</time>
      </trkpt>
      <trkpt lat="4.0892030" lon="-76.3949040">
        <ele>1589.2</ele>
        <time>2022-08-15T14:28:32Z</time>
      </trkpt>
      <trkpt lat="4.0892980" lon="-76.3948370">
        <ele>1588.4</ele>
        <time>2022-08-15T14:28:34Z</time>
      </trkpt>
      <trkpt lat="4.0893390" lon="-76.3948200">
        <ele>1588.2</ele>
        <time>2022-08-15T14:28:35Z</time>
      </trkpt>
      <trkpt lat="4.0894060" lon="-76.3948060">
        <ele>1588.2</ele>
        <time>2022-08-15T14:28:36Z</time>
      </trkpt>
      <trkpt lat="4.0895830" lon="-76.3947830">
        <ele>1587.4</ele>
        <time>2022-08-15T14:28:39Z</time>
      </trkpt>
      <trkpt lat="4.0896380" lon="-76.3947800">
        <ele>1587.0</ele>
        <time>2022-08-15T14:28:40Z</time>
      </trkpt>
      <trkpt lat="4.0897430" lon="-76.3947800">
        <ele>1586.2</ele>
        <time>2022-08-15T14:28:42Z</time>
      </trkpt>
      <trkpt lat="4.0897920" lon="-76.3947850">
        <ele>1586.0</ele>
        <time>2022-08-15T14:28:43Z</time>
      </trkpt>
      <trkpt lat="4.0898810" lon="-76.3948240">
        <ele>1585.6</ele>
        <time>2022-08-15T14:28:45Z</time>
      </trkpt>
      <trkpt lat="4.0899220" lon="-76.3948540">
        <ele>1585.2</ele>
        <time>2022-08-15T14:28:46Z</time>
      </trkpt>
      <trkpt lat="4.0899950" lon="-76.3949160">
        <ele>1584.8</ele>
        <time>2022-08-15T14:28:48Z</time>
      </trkpt>
      <trkpt lat="4.0900530" lon="-76.3949830">
        <ele>1584.4</ele>
        <time>2022-08-15T14:28:50Z</time>
      </trkpt>
      <trkpt lat="4.0900660" lon="-76.3950150">
        <ele>1584.2</ele>
        <time>2022-08-15T14:28:51Z</time>
      </trkpt>
      <trkpt lat="4.0900730" lon="-76.3950640">
        <ele>1584.2</ele>
        <time>2022-08-15T14:28:52Z</time>
      </trkpt>
      <trkpt lat="4.0900500" lon="-76.3951240">
        <ele>1584.0</ele>
        <time>2022-08-15T14:28:54Z</time>
      </trkpt>
      <trkpt lat="4.0899670" lon="-76.3951620">
        <ele>1583.8</ele>
        <time>2022-08-15T14:28:57Z</time>
      </trkpt>
      <trkpt lat="4.0899280" lon="-76.3951650">
        <ele>1583.6</ele>
        <time>2022-08-15T14:28:58Z</time>
      </trkpt>
      <trkpt lat="4.0898020" lon="-76.3952030">
        <ele>1583.6</ele>
        <time>2022-08-15T14:29:02Z</time>
      </trkpt>
      <trkpt lat="4.0897730" lon="-76.3952140">
        <ele>1583.6</ele>
        <time>2022-08-15T14:29:03Z</time>
      </trkpt>
      <trkpt lat="4.0896820" lon="-76.3952500">
        <ele>1583.6</ele>
        <time>2022-08-15T14:29:06Z</time>
      </trkpt>
      <trkpt lat="4.0895720" lon="-76.3953010">
        <ele>1584.0</ele>
        <time>2022-08-15T14:29:10Z</time>
      </trkpt>
      <trkpt lat="4.0895470" lon="-76.3953190">
        <ele>1584.2</ele>
        <time>2022-08-15T14:29:11Z</time>
      </trkpt>
      <trkpt lat="4.0894570" lon="-76.3954300">
        <ele>1585.2</ele>
        <time>2022-08-15T14:29:16Z</time>
      </trkpt>
      <trkpt lat="4.0894480" lon="-76.3954570">
        <ele>1585.4</ele>
        <time>2022-08-15T14:29:17Z</time>
      </trkpt>
      <trkpt lat="4.0894520" lon="-76.3955580">
        <ele>1586.6</ele>
        <time>2022-08-15T14:29:21Z</time>
      </trkpt>
      <trkpt lat="4.0894560" lon="-76.3955780">
        <ele>1586.8</ele>
        <time>2022-08-15T14:29:22Z</time>
      </trkpt>
      <trkpt lat="4.0895010" lon="-76.3956780">
        <ele>1587.6</ele>
        <time>2022-08-15T14:29:27Z</time>
      </trkpt>
      <trkpt lat="4.0895260" lon="-76.3957360">
        <ele>1588.0</ele>
        <time>2022-08-15T14:29:30Z</time>
      </trkpt>
      <trkpt lat="4.0895400" lon="-76.3958170">
        <ele>1588.8</ele>
        <time>2022-08-15T14:29:34Z</time>
      </trkpt>
      <trkpt lat="4.0895060" lon="-76.3958810">
        <ele>1589.2</ele>
        <time>2022-08-15T14:29:38Z</time>
      </trkpt>
      <trkpt lat="4.0894910" lon="-76.3958870">
        <ele>1589.4</ele>
        <time>2022-08-15T14:29:39Z</time>
      </trkpt>
      <trkpt lat="4.0894080" lon="-76.3958840">
        <ele>1589.8</ele>
        <time>2022-08-15T14:29:43Z</time>
      </trkpt>
      <trkpt lat="4.0893880" lon="-76.3958820">
        <ele>1589.8</ele>
        <time>2022-08-15T14:29:44Z</time>
      </trkpt>
      <trkpt lat="4.0892700" lon="-76.3959090">
        <ele>1590.6</ele>
        <time>2022-08-15T14:29:51Z</time>
      </trkpt>
      <trkpt lat="4.0892180" lon="-76.3959310">
        <ele>1591.2</ele>
        <time>2022-08-15T14:29:54Z</time>
      </trkpt>
      <trkpt lat="4.0891160" lon="-76.3960010">
        <ele>1592.2</ele>
        <time>2022-08-15T14:30:01Z</time>
      </trkpt>
      <trkpt lat="4.0890240" lon="-76.3960990">
        <ele>1593.2</ele>
        <time>2022-08-15T14:30:08Z</time>
      </trkpt>
      <trkpt lat="4.0890150" lon="-76.3961170">
        <ele>1593.2</ele>
        <time>2022-08-15T14:30:09Z</time>
      </trkpt>
      <trkpt lat="4.0889840" lon="-76.3962420">
        <ele>1594.2</ele>
        <time>2022-08-15T14:30:16Z</time>
      </trkpt>
      <trkpt lat="4.0889810" lon="-76.3962680">
        <ele>1594.4</ele>
        <time>2022-08-15T14:30:17Z</time>
      </trkpt>
      <trkpt lat="4.0889490" lon="-76.3963910">
        <ele>1595.4</ele>
        <time>2022-08-15T14:30:23Z</time>
      </trkpt>
      <trkpt lat="4.0888540" lon="-76.3964950">
        <ele>1596.4</ele>
        <time>2022-08-15T14:30:30Z</time>
      </trkpt>
      <trkpt lat="4.0888400" lon="-76.3965020">
        <ele>1596.4</ele>
        <time>2022-08-15T14:30:31Z</time>
      </trkpt>
      <trkpt lat="4.0887130" lon="-76.3965640">
        <ele>1597.2</ele>
        <time>2022-08-15T14:30:38Z</time>
      </trkpt>
      <trkpt lat="4.0886930" lon="-76.3965700">
        <ele>1597.4</ele>
        <time>2022-08-15T14:30:39Z</time>
      </trkpt>
      <trkpt lat="4.0885970" lon="-76.3966090">
        <ele>1598.2</ele>
        <time>2022-08-15T14:30:44Z</time>
      </trkpt>
      <trkpt lat="4.0885650" lon="-76.3966280">
        <ele>1598.6</ele>
        <time>2022-08-15T14:30:46Z</time>
      </trkpt>
      <trkpt lat="4.0883770" lon="-76.3967380">
        <ele>1599.6</ele>
        <time>2022-08-15T14:30:54Z</time>
      </trkpt>
      <trkpt lat="4.0883520" lon="-76.3967470">
        <ele>1599.8</ele>
        <time>2022-08-15T14:30:55Z</time>
      </trkpt>
      <trkpt lat="4.0881470" lon="-76.3967940">
        <ele>1600.4</ele>
        <time>2022-08-15T14:31:03Z</time>
      </trkpt>
      <trkpt lat="4.0880670" lon="-76.3967860">
        <ele>1600.8</ele>
        <time>2022-08-15T14:31:06Z</time>
      </trkpt>
      <trkpt lat="4.0879390" lon="-76.3967550">
        <ele>1601.4</ele>
        <time>2022-08-15T14:31:11Z</time>
      </trkpt>
      <trkpt lat="4.0878310" lon="-76.3967850">
        <ele>1602.0</ele>
        <time>2022-08-15T14:31:15Z</time>
      </trkpt>
      <trkpt lat="4.0878130" lon="-76.3968040">
        <ele>1602.2</ele>
        <time>2022-08-15T14:31:16Z</time>
      </trkpt>
      <trkpt lat="4.0878060" lon="-76.3968750">
        <ele>1602.6</ele>
        <time>2022-08-15T14:31:19Z</time>
      </trkpt>
      <trkpt lat="4.0878180" lon="-76.3968990">
        <ele>1602.6</ele>
        <time>2022-08-15T14:31:20Z</time>
      </trkpt>
      <trkpt lat="4.0878510" lon="-76.3969450">
        <ele>1603.0</ele>
        <time>2022-08-15T14:31:22Z</time>
      </trkpt>
      <trkpt lat="4.0879300" lon="-76.3970320">
        <ele>1603.8</ele>
        <time>2022-08-15T14:31:26Z</time>
      </trkpt>
      <trkpt lat="4.0879620" lon="-76.3970700">
        <ele>1604.2</ele>
        <time>2022-08-15T14:31:28Z</time>
      </trkpt>
      <trkpt lat="4.0880580" lon="-76.3971950">
        <ele>1604.8</ele>
        <time>2022-08-15T14:31:34Z</time>
      </trkpt>
      <trkpt lat="4.0881240" lon="-76.3972490">
        <ele>1605.2</ele>
        <time>2022-08-15T14:31:37Z</time>
      </trkpt>
      <trkpt lat="4.0881960" lon="-76.3972910">
        <ele>1605.6</ele>
        <time>2022-08-15T14:31:40Z</time>
      </trkpt>
      <trkpt lat="4.0883350" lon="-76.3973340">
        <ele>1606.0</ele>
        <time>2022-08-15T14:31:45Z</time>
      </trkpt>
      <trkpt lat="4.0883650" lon="-76.3973400">
        <ele>1606.2</ele>
        <time>2022-08-15T14:31:46Z</time>
      </trkpt>
      <trkpt lat="4.0885710" lon="-76.3974400">
        <ele>1607.2</ele>
        <time>2022-08-15T14:31:54Z</time>
      </trkpt>
      <trkpt lat="4.0886540" lon="-76.3976250">
        <ele>1608.2</ele>
        <time>2022-08-15T14:32:00Z</time>
      </trkpt>
      <trkpt lat="4.0886970" lon="-76.3977250">
        <ele>1608.4</ele>
        <time>2022-08-15T14:32:03Z</time>
      </trkpt>
      <trkpt lat="4.0887290" lon="-76.3977650">
        <ele>1608.4</ele>
        <time>2022-08-15T14:32:04Z</time>
      </trkpt>
      <trkpt lat="4.0887550" lon="-76.3977920">
        <ele>1608.4</ele>
        <time>2022-08-15T14:32:05Z</time>
      </trkpt>
      <trkpt lat="4.0887970" lon="-76.3978310">
        <ele>1608.4</ele>
        <time>2022-08-15T14:32:06Z</time>
      </trkpt>
      <trkpt lat="4.0889160" lon="-76.3979710">
        <ele>1608.2</ele>
        <time>2022-08-15T14:32:10Z</time>
      </trkpt>
      <trkpt lat="4.0889420" lon="-76.3980500">
        <ele>1608.2</ele>
        <time>2022-08-15T14:32:12Z</time>
      </trkpt>
      <trkpt lat="4.0889330" lon="-76.3981250">
        <ele>1607.8</ele>
        <time>2022-08-15T14:32:14Z</time>
      </trkpt>
      <trkpt lat="4.0888660" lon="-76.3981930">
        <ele>1607.8</ele>
        <time>2022-08-15T14:32:16Z</time>
      </trkpt>
      <trkpt lat="4.0888200" lon="-76.3982120">
        <ele>1607.6</ele>
        <time>2022-08-15T14:32:17Z</time>
      </trkpt>
      <trkpt lat="4.0887670" lon="-76.3982250">
        <ele>1607.6</ele>
        <time>2022-08-15T14:32:18Z</time>
      </trkpt>
      <trkpt lat="4.0885480" lon="-76.3982610">
        <ele>1607.2</ele>
        <time>2022-08-15T14:32:22Z</time>
      </trkpt>
      <trkpt lat="4.0884960" lon="-76.3982770">
        <ele>1607.0</ele>
        <time>2022-08-15T14:32:23Z</time>
      </trkpt>
      <trkpt lat="4.0884040" lon="-76.3983160">
        <ele>1606.0</ele>
        <time>2022-08-15T14:32:25Z</time>
      </trkpt>
      <trkpt lat="4.0883080" lon="-76.3983710">
        <ele>1605.0</ele>
        <time>2022-08-15T14:32:27Z</time>
      </trkpt>
      <trkpt lat="4.0882400" lon="-76.3984560">
        <ele>1604.6</ele>
        <time>2022-08-15T14:32:29Z</time>
      </trkpt>
      <trkpt lat="4.0882210" lon="-76.3985090">
        <ele>1604.4</ele>
        <time>2022-08-15T14:32:30Z</time>
      </trkpt>
      <trkpt lat="4.0882090" lon="-76.3985640">
        <ele>1604.2</ele>
        <time>2022-08-15T14:32:31Z</time>
      </trkpt>
      <trkpt lat="4.0882210" lon="-76.3986690">
        <ele>1603.2</ele>
        <time>2022-08-15T14:32:33Z</time>
      </trkpt>
      <trkpt lat="4.0882800" lon="-76.3987430">
        <ele>1602.4</ele>
        <time>2022-08-15T14:32:35Z</time>
      </trkpt>
      <trkpt lat="4.0883300" lon="-76.3987590">
        <ele>1602.0</ele>
        <time>2022-08-15T14:32:36Z</time>
      </trkpt>
      <trkpt lat="4.0883870" lon="-76.3987570">
        <ele>1601.8</ele>
        <time>2022-08-15T14:32:37Z</time>
      </trkpt>
      <trkpt lat="4.0885440" lon="-76.3987110">
        <ele>1601.4</ele>
        <time>2022-08-15T14:32:40Z</time>
      </trkpt>
      <trkpt lat="4.0885940" lon="-76.3987030">
        <ele>1600.8</ele>
        <time>2022-08-15T14:32:41Z</time>
      </trkpt>
      <trkpt lat="4.0886860" lon="-76.3987320">
        <ele>1599.8</ele>
        <time>2022-08-15T14:32:43Z</time>
      </trkpt>
      <trkpt lat="4.0887250" lon="-76.3987620">
        <ele>1599.6</ele>
        <time>2022-08-15T14:32:44Z</time>
      </trkpt>
      <trkpt lat="4.0887580" lon="-76.3987940">
        <ele>1598.8</ele>
        <time>2022-08-15T14:32:45Z</time>
      </trkpt>
      <trkpt lat="4.0887870" lon="-76.3988350">
        <ele>1598.4</ele>
        <time>2022-08-15T14:32:46Z</time>
      </trkpt>
      <trkpt lat="4.0888120" lon="-76.3988970">
        <ele>1596.8</ele>
        <time>2022-08-15T14:32:47Z</time>
      </trkpt>
      <trkpt lat="4.0888280" lon="-76.3989580">
        <ele>1595.8</ele>
        <time>2022-08-15T14:32:48Z</time>
      </trkpt>
      <trkpt lat="4.0888370" lon="-76.3990090">
        <ele>1595.2</ele>
        <time>2022-08-15T14:32:49Z</time>
      </trkpt>
      <trkpt lat="4.0888630" lon="-76.3991970">
        <ele>1594.2</ele>
        <time>2022-08-15T14:32:52Z</time>
      </trkpt>
      <trkpt lat="4.0888750" lon="-76.3992490">
        <ele>1593.6</ele>
        <time>2022-08-15T14:32:53Z</time>
      </trkpt>
      <trkpt lat="4.0888840" lon="-76.3992880">
        <ele>1593.0</ele>
        <time>2022-08-15T14:32:54Z</time>
      </trkpt>
      <trkpt lat="4.0889270" lon="-76.3993770">
        <ele>1591.8</ele>
        <time>2022-08-15T14:32:56Z</time>
      </trkpt>
      <trkpt lat="4.0889690" lon="-76.3994230">
        <ele>1591.4</ele>
        <time>2022-08-15T14:32:57Z</time>
      </trkpt>
      <trkpt lat="4.0890520" lon="-76.3994790">
        <ele>1590.6</ele>
        <time>2022-08-15T14:32:59Z</time>
      </trkpt>
      <trkpt lat="4.0891350" lon="-76.3995110">
        <ele>1590.2</ele>
        <time>2022-08-15T14:33:01Z</time>
      </trkpt>
      <trkpt lat="4.0892500" lon="-76.3995510">
        <ele>1589.4</ele>
        <time>2022-08-15T14:33:03Z</time>
      </trkpt>
      <trkpt lat="4.0894100" lon="-76.3996120">
        <ele>1588.6</ele>
        <time>2022-08-15T14:33:06Z</time>
      </trkpt>
      <trkpt lat="4.0894720" lon="-76.3996290">
        <ele>1588.2</ele>
        <time>2022-08-15T14:33:07Z</time>
      </trkpt>
      <trkpt lat="4.0895560" lon="-76.3996590">
        <ele>1586.6</ele>
        <time>2022-08-15T14:33:09Z</time>
      </trkpt>
      <trkpt lat="4.0895830" lon="-76.3996880">
        <ele>1586.0</ele>
        <time>2022-08-15T14:33:10Z</time>
      </trkpt>
      <trkpt lat="4.0896000" lon="-76.3997240">
        <ele>1585.4</ele>
        <time>2022-08-15T14:33:11Z</time>
      </trkpt>
      <trkpt lat="4.0895870" lon="-76.3997920">
        <ele>1583.8</ele>
        <time>2022-08-15T14:33:13Z</time>
      </trkpt>
      <trkpt lat="4.0895330" lon="-76.3998410">
        <ele>1582.6</ele>
        <time>2022-08-15T14:33:15Z</time>
      </trkpt>
      <trkpt lat="4.0894640" lon="-76.3998780">
        <ele>1582.2</ele>
        <time>2022-08-15T14:33:17Z</time>
      </trkpt>
      <trkpt lat="4.0893730" lon="-76.3999080">
        <ele>1581.8</ele>
        <time>2022-08-15T14:33:19Z</time>
      </trkpt>
      <trkpt lat="4.0893270" lon="-76.3999080">
        <ele>1581.6</ele>
        <time>2022-08-15T14:33:20Z</time>
      </trkpt>
      <trkpt lat="4.0892780" lon="-76.3999090">
        <ele>1581.6</ele>
        <time>2022-08-15T14:33:21Z</time>
      </trkpt>
      <trkpt lat="4.0891250" lon="-76.3999190">
        <ele>1581.2</ele>
        <time>2022-08-15T14:33:24Z</time>
      </trkpt>
      <trkpt lat="4.0890750" lon="-76.3999380">
        <ele>1581.0</ele>
        <time>2022-08-15T14:33:25Z</time>
      </trkpt>
      <trkpt lat="4.0890380" lon="-76.3999670">
        <ele>1581.0</ele>
        <time>2022-08-15T14:33:26Z</time>
      </trkpt>
      <trkpt lat="4.0889660" lon="-76.4000580">
        <ele>1580.8</ele>
        <time>2022-08-15T14:33:28Z</time>
      </trkpt>
      <trkpt lat="4.0889240" lon="-76.4001100">
        <ele>1580.8</ele>
        <time>2022-08-15T14:33:29Z</time>
      </trkpt>
      <trkpt lat="4.0888410" lon="-76.4002400">
        <ele>1580.6</ele>
        <time>2022-08-15T14:33:31Z</time>
      </trkpt>
      <trkpt lat="4.0888040" lon="-76.4003050">
        <ele>1580.6</ele>
        <time>2022-08-15T14:33:32Z</time>
      </trkpt>
      <trkpt lat="4.0887010" lon="-76.4004930">
        <ele>1578.8</ele>
        <time>2022-08-15T14:33:35Z</time>
      </trkpt>
      <trkpt lat="4.0886510" lon="-76.4005860">
        <ele>1577.4</ele>
        <time>2022-08-15T14:33:37Z</time>
      </trkpt>
      <trkpt lat="4.0886290" lon="-76.4006180">
        <ele>1576.6</ele>
        <time>2022-08-15T14:33:38Z</time>
      </trkpt>
      <trkpt lat="4.0886040" lon="-76.4006410">
        <ele>1575.6</ele>
        <time>2022-08-15T14:33:39Z</time>
      </trkpt>
      <trkpt lat="4.0885730" lon="-76.4006570">
        <ele>1575.2</ele>
        <time>2022-08-15T14:33:40Z</time>
      </trkpt>
      <trkpt lat="4.0884830" lon="-76.4006890">
        <ele>1574.6</ele>
        <time>2022-08-15T14:33:42Z</time>
      </trkpt>
      <trkpt lat="4.0883470" lon="-76.4007740">
        <ele>1573.6</ele>
        <time>2022-08-15T14:33:45Z</time>
      </trkpt>
      <trkpt lat="4.0882430" lon="-76.4008890">
        <ele>1572.4</ele>
        <time>2022-08-15T14:33:48Z</time>
      </trkpt>
      <trkpt lat="4.0881420" lon="-76.4009500">
        <ele>1572.0</ele>
        <time>2022-08-15T14:33:51Z</time>
      </trkpt>
      <trkpt lat="4.0880250" lon="-76.4009840">
        <ele>1571.2</ele>
        <time>2022-08-15T14:33:54Z</time>
      </trkpt>
      <trkpt lat="4.0879000" lon="-76.4010250">
        <ele>1569.6</ele>
        <time>2022-08-15T14:33:57Z</time>
      </trkpt>
      <trkpt lat="4.0878190" lon="-76.4011100">
        <ele>1568.4</ele>
        <time>2022-08-15T14:34:00Z</time>
      </trkpt>
      <trkpt lat="4.0878060" lon="-76.4011480">
        <ele>1568.0</ele>
        <time>2022-08-15T14:34:01Z</time>
      </trkpt>
      <trkpt lat="4.0877910" lon="-76.4012380">
        <ele>1567.2</ele>
        <time>2022-08-15T14:34:03Z</time>
      </trkpt>
      <trkpt lat="4.0877770" lon="-76.4012870">
        <ele>1567.0</ele>
        <time>2022-08-15T14:34:04Z</time>
      </trkpt>
      <trkpt lat="4.0877490" lon="-76.4013810">
        <ele>1565.8</ele>
        <time>2022-08-15T14:34:06Z</time>
      </trkpt>
      <trkpt lat="4.0877380" lon="-76.4014350">
        <ele>1565.0</ele>
        <time>2022-08-15T14:34:07Z</time>
      </trkpt>
      <trkpt lat="4.0877370" lon="-76.4014780">
        <ele>1564.6</ele>
        <time>2022-08-15T14:34:08Z</time>
      </trkpt>
      <trkpt lat="4.0877420" lon="-76.4015180">
        <ele>1564.0</ele>
        <time>2022-08-15T14:34:09Z</time>
      </trkpt>
      <trkpt lat="4.0877690" lon="-76.4015880">
        <ele>1563.6</ele>
        <time>2022-08-15T14:34:11Z</time>
      </trkpt>
      <trkpt lat="4.0877780" lon="-76.4016340">
        <ele>1563.2</ele>
        <time>2022-08-15T14:34:12Z</time>
      </trkpt>
      <trkpt lat="4.0877850" lon="-76.4016850">
        <ele>1562.4</ele>
        <time>2022-08-15T14:34:13Z</time>
      </trkpt>
      <trkpt lat="4.0877880" lon="-76.4017380">
        <ele>1562.0</ele>
        <time>2022-08-15T14:34:14Z</time>
      </trkpt>
      <trkpt lat="4.0877920" lon="-76.4018440">
        <ele>1561.6</ele>
        <time>2022-08-15T14:34:16Z</time>
      </trkpt>
      <trkpt lat="4.0878070" lon="-76.4019360">
        <ele>1561.0</ele>
        <time>2022-08-15T14:34:18Z</time>
      </trkpt>
      <trkpt lat="4.0878090" lon="-76.4019820">
        <ele>1560.4</ele>
        <time>2022-08-15T14:34:19Z</time>
      </trkpt>
      <trkpt lat="4.0878030" lon="-76.4020320">
        <ele>1559.8</ele>
        <time>2022-08-15T14:34:20Z</time>
      </trkpt>
      <trkpt lat="4.0878040" lon="-76.4020820">
        <ele>1559.6</ele>
        <time>2022-08-15T14:34:21Z</time>
      </trkpt>
      <trkpt lat="4.0878100" lon="-76.4022450">
        <ele>1559.2</ele>
        <time>2022-08-15T14:34:24Z</time>
      </trkpt>
      <trkpt lat="4.0878170" lon="-76.4023330">
        <ele>1558.4</ele>
        <time>2022-08-15T14:34:26Z</time>
      </trkpt>
      <trkpt lat="4.0877460" lon="-76.4024430">
        <ele>1557.8</ele>
        <time>2022-08-15T14:34:29Z</time>
      </trkpt>
      <trkpt lat="4.0876970" lon="-76.4024750">
        <ele>1557.6</ele>
        <time>2022-08-15T14:34:30Z</time>
      </trkpt>
      <trkpt lat="4.0876530" lon="-76.4024990">
        <ele>1557.4</ele>
        <time>2022-08-15T14:34:31Z</time>
      </trkpt>
      <trkpt lat="4.0875990" lon="-76.4025280">
        <ele>1556.8</ele>
        <time>2022-08-15T14:34:32Z</time>
      </trkpt>
      <trkpt lat="4.0875630" lon="-76.4025540">
        <ele>1556.6</ele>
        <time>2022-08-15T14:34:33Z</time>
      </trkpt>
      <trkpt lat="4.0875150" lon="-76.4025990">
        <ele>1556.0</ele>
        <time>2022-08-15T14:34:34Z</time>
      </trkpt>
      <trkpt lat="4.0874880" lon="-76.4026340">
        <ele>1555.6</ele>
        <time>2022-08-15T14:34:35Z</time>
      </trkpt>
      <trkpt lat="4.0874550" lon="-76.4026800">
        <ele>1555.0</ele>
        <time>2022-08-15T14:34:36Z</time>
      </trkpt>
      <trkpt lat="4.0874270" lon="-76.4027260">
        <ele>1554.6</ele>
        <time>2022-08-15T14:34:37Z</time>
      </trkpt>
      <trkpt lat="4.0873760" lon="-76.4028120">
        <ele>1553.6</ele>
        <time>2022-08-15T14:34:39Z</time>
      </trkpt>
      <trkpt lat="4.0872930" lon="-76.4029120">
        <ele>1553.0</ele>
        <time>2022-08-15T14:34:43Z</time>
      </trkpt>
      <trkpt lat="4.0871700" lon="-76.4030020">
        <ele>1552.8</ele>
        <time>2022-08-15T14:34:48Z</time>
      </trkpt>
      <trkpt lat="4.0870020" lon="-76.4030210">
        <ele>1552.6</ele>
        <time>2022-08-15T14:34:53Z</time>
      </trkpt>
      <trkpt lat="4.0868420" lon="-76.4029510">
        <ele>1551.8</ele>
        <time>2022-08-15T14:34:58Z</time>
      </trkpt>
      <trkpt lat="4.0868130" lon="-76.4029390">
        <ele>1551.6</ele>
        <time>2022-08-15T14:34:59Z</time>
      </trkpt>
      <trkpt lat="4.0867810" lon="-76.4029310">
        <ele>1550.8</ele>
        <time>2022-08-15T14:35:00Z</time>
      </trkpt>
      <trkpt lat="4.0866860" lon="-76.4029530">
        <ele>1549.8</ele>
        <time>2022-08-15T14:35:03Z</time>
      </trkpt>
      <trkpt lat="4.0866520" lon="-76.4029770">
        <ele>1549.4</ele>
        <time>2022-08-15T14:35:04Z</time>
      </trkpt>
      <trkpt lat="4.0865100" lon="-76.4030850">
        <ele>1548.2</ele>
        <time>2022-08-15T14:35:08Z</time>
      </trkpt>
      <trkpt lat="4.0864940" lon="-76.4031170">
        <ele>1547.8</ele>
        <time>2022-08-15T14:35:09Z</time>
      </trkpt>
      <trkpt lat="4.0864640" lon="-76.4031720">
        <ele>1546.8</ele>
        <time>2022-08-15T14:35:11Z</time>
      </trkpt>
      <trkpt lat="4.0863330" lon="-76.4032910">
        <ele>1546.0</ele>
        <time>2022-08-15T14:35:16Z</time>
      </trkpt>
      <trkpt lat="4.0862550" lon="-76.4032890">
        <ele>1546.0</ele>
        <time>2022-08-15T14:35:18Z</time>
      </trkpt>
      <trkpt lat="4.0862270" lon="-76.4032720">
        <ele>1545.8</ele>
        <time>2022-08-15T14:35:19Z</time>
      </trkpt>
      <trkpt lat="4.0862130" lon="-76.4032500">
        <ele>1546.0</ele>
        <time>2022-08-15T14:35:20Z</time>
      </trkpt>
      <trkpt lat="4.0861870" lon="-76.4031910">
        <ele>1546.0</ele>
        <time>2022-08-15T14:35:23Z</time>
      </trkpt>
      <trkpt lat="4.0861760" lon="-76.4031430">
        <ele>1546.2</ele>
        <time>2022-08-15T14:35:26Z</time>
      </trkpt>
      <trkpt lat="4.0861720" lon="-76.4031110">
        <ele>1546.2</ele>
        <time>2022-08-15T14:35:28Z</time>
      </trkpt>
      <trkpt lat="4.0861880" lon="-76.4030340">
        <ele>1547.0</ele>
        <time>2022-08-15T14:35:32Z</time>
      </trkpt>
      <trkpt lat="4.0862070" lon="-76.4029820">
        <ele>1547.6</ele>
        <time>2022-08-15T14:35:35Z</time>
      </trkpt>
      <trkpt lat="4.0862510" lon="-76.4028430">
        <ele>1548.0</ele>
        <time>2022-08-15T14:35:39Z</time>
      </trkpt>
      <trkpt lat="4.0863930" lon="-76.4026350">
        <ele>1548.0</ele>
        <time>2022-08-15T14:35:46Z</time>
      </trkpt>
      <trkpt lat="4.0865470" lon="-76.4025920">
        <ele>1547.6</ele>
        <time>2022-08-15T14:35:52Z</time>
      </trkpt>
      <trkpt lat="4.0866140" lon="-76.4025920">
        <ele>1547.6</ele>
        <time>2022-08-15T14:35:55Z</time>
      </trkpt>
      <trkpt lat="4.0866360" lon="-76.4025950">
        <ele>1547.6</ele>
        <time>2022-08-15T14:35:56Z</time>
      </trkpt>
      <trkpt lat="4.0867900" lon="-76.4026070">
        <ele>1548.4</ele>
        <time>2022-08-15T14:36:03Z</time>
      </trkpt>
      <trkpt lat="4.0868310" lon="-76.4025850">
        <ele>1548.6</ele>
        <time>2022-08-15T14:36:05Z</time>
      </trkpt>
      <trkpt lat="4.0868430" lon="-76.4025690">
        <ele>1549.0</ele>
        <time>2022-08-15T14:36:06Z</time>
      </trkpt>
      <trkpt lat="4.0868680" lon="-76.4025150">
        <ele>1549.4</ele>
        <time>2022-08-15T14:36:08Z</time>
      </trkpt>
      <trkpt lat="4.0868980" lon="-76.4024460">
        <ele>1549.8</ele>
        <time>2022-08-15T14:36:11Z</time>
      </trkpt>
      <trkpt lat="4.0869350" lon="-76.4023580">
        <ele>1550.2</ele>
        <time>2022-08-15T14:36:15Z</time>
      </trkpt>
      <trkpt lat="4.0869750" lon="-76.4022820">
        <ele>1550.4</ele>
        <time>2022-08-15T14:36:19Z</time>
      </trkpt>
      <trkpt lat="4.0869980" lon="-76.4022600">
        <ele>1550.6</ele>
        <time>2022-08-15T14:36:21Z</time>
      </trkpt>
      <trkpt lat="4.0870140" lon="-76.4022550">
        <ele>1550.6</ele>
        <time>2022-08-15T14:36:22Z</time>
      </trkpt>
      <trkpt lat="4.0870480" lon="-76.4022590">
        <ele>1550.8</ele>
        <time>2022-08-15T14:36:24Z</time>
      </trkpt>
      <trkpt lat="4.0870600" lon="-76.4022560">
        <ele>1550.8</ele>
        <time>2022-08-15T14:36:25Z</time>
      </trkpt>
      <trkpt lat="4.0870730" lon="-76.4022470">
        <ele>1551.2</ele>
        <time>2022-08-15T14:36:26Z</time>
      </trkpt>
      <trkpt lat="4.0871050" lon="-76.4022350">
        <ele>1551.6</ele>
        <time>2022-08-15T14:36:28Z</time>
      </trkpt>
      <trkpt lat="4.0871210" lon="-76.4022340">
        <ele>1551.8</ele>
        <time>2022-08-15T14:36:29Z</time>
      </trkpt>
      <trkpt lat="4.0871520" lon="-76.4022330">
        <ele>1552.2</ele>
        <time>2022-08-15T14:36:31Z</time>
      </trkpt>
      <trkpt lat="4.0871950" lon="-76.4022120">
        <ele>1552.6</ele>
        <time>2022-08-15T14:36:33Z</time>
      </trkpt>
      <trkpt lat="4.0872170" lon="-76.4021600">
        <ele>1553.0</ele>
        <time>2022-08-15T14:36:35Z</time>
      </trkpt>
      <trkpt lat="4.0872290" lon="-76.4021400">
        <ele>1553.2</ele>
        <time>2022-08-15T14:36:36Z</time>
      </trkpt>
      <trkpt lat="4.0872830" lon="-76.4020320">
        <ele>1554.4</ele>
        <time>2022-08-15T14:36:43Z</time>
      </trkpt>
      <trkpt lat="4.0872560" lon="-76.4019280">
        <ele>1555.2</ele>
        <time>2022-08-15T14:36:47Z</time>
      </trkpt>
      <trkpt lat="4.0872030" lon="-76.4018730">
        <ele>1555.2</ele>
        <time>2022-08-15T14:36:49Z</time>
      </trkpt>
      <trkpt lat="4.0871800" lon="-76.4018360">
        <ele>1555.2</ele>
        <time>2022-08-15T14:36:50Z</time>
      </trkpt>
      <trkpt lat="4.0870810" lon="-76.4016870">
        <ele>1555.2</ele>
        <time>2022-08-15T14:36:54Z</time>
      </trkpt>
      <trkpt lat="4.0870550" lon="-76.4016130">
        <ele>1554.6</ele>
        <time>2022-08-15T14:36:56Z</time>
      </trkpt>
      <trkpt lat="4.0870110" lon="-76.4014080">
        <ele>1554.0</ele>
        <time>2022-08-15T14:37:02Z</time>
      </trkpt>
      <trkpt lat="4.0869570" lon="-76.4012190">
        <ele>1554.0</ele>
        <time>2022-08-15T14:37:08Z</time>
      </trkpt>
      <trkpt lat="4.0869260" lon="-76.4011620">
        <ele>1554.2</ele>
        <time>2022-08-15T14:37:11Z</time>
      </trkpt>
      <trkpt lat="4.0868070" lon="-76.4011010">
        <ele>1555.0</ele>
        <time>2022-08-15T14:37:17Z</time>
      </trkpt>
      <trkpt lat="4.0867580" lon="-76.4010680">
        <ele>1555.6</ele>
        <time>2022-08-15T14:37:20Z</time>
      </trkpt>
      <trkpt lat="4.0867300" lon="-76.4010320">
        <ele>1555.8</ele>
        <time>2022-08-15T14:37:22Z</time>
      </trkpt>
      <trkpt lat="4.0867230" lon="-76.4010100">
        <ele>1556.0</ele>
        <time>2022-08-15T14:37:23Z</time>
      </trkpt>
      <trkpt lat="4.0867240" lon="-76.4009000">
        <ele>1556.6</ele>
        <time>2022-08-15T14:37:28Z</time>
      </trkpt>
      <trkpt lat="4.0867300" lon="-76.4008830">
        <ele>1556.8</ele>
        <time>2022-08-15T14:37:29Z</time>
      </trkpt>
      <trkpt lat="4.0867920" lon="-76.4008110">
        <ele>1557.6</ele>
        <time>2022-08-15T14:37:36Z</time>
      </trkpt>
      <trkpt lat="4.0868000" lon="-76.4008000">
        <ele>1558.0</ele>
        <time>2022-08-15T14:37:37Z</time>
      </trkpt>
      <trkpt lat="4.0868610" lon="-76.4007030">
        <ele>1559.0</ele>
        <time>2022-08-15T14:37:43Z</time>
      </trkpt>
      <trkpt lat="4.0868710" lon="-76.4006820">
        <ele>1559.2</ele>
        <time>2022-08-15T14:37:44Z</time>
      </trkpt>
      <trkpt lat="4.0869070" lon="-76.4005210">
        <ele>1559.8</ele>
        <time>2022-08-15T14:37:52Z</time>
      </trkpt>
      <trkpt lat="4.0868940" lon="-76.4003570">
        <ele>1560.0</ele>
        <time>2022-08-15T14:37:58Z</time>
      </trkpt>
      <trkpt lat="4.0869090" lon="-76.4002470">
        <ele>1560.4</ele>
        <time>2022-08-15T14:38:02Z</time>
      </trkpt>
      <trkpt lat="4.0869780" lon="-76.4001230">
        <ele>1560.8</ele>
        <time>2022-08-15T14:38:07Z</time>
      </trkpt>
      <trkpt lat="4.0869930" lon="-76.4001020">
        <ele>1561.0</ele>
        <time>2022-08-15T14:38:08Z</time>
      </trkpt>
      <trkpt lat="4.0870650" lon="-76.3999250">
        <ele>1561.6</ele>
        <time>2022-08-15T14:38:16Z</time>
      </trkpt>
      <trkpt lat="4.0870200" lon="-76.3998450">
        <ele>1562.0</ele>
        <time>2022-08-15T14:38:20Z</time>
      </trkpt>
      <trkpt lat="4.0870010" lon="-76.3998280">
        <ele>1562.2</ele>
        <time>2022-08-15T14:38:21Z</time>
      </trkpt>
      <trkpt lat="4.0868670" lon="-76.3997800">
        <ele>1563.0</ele>
        <time>2022-08-15T14:38:27Z</time>
      </trkpt>
      <trkpt lat="4.0868470" lon="-76.3997740">
        <ele>1563.2</ele>
        <time>2022-08-15T14:38:28Z</time>
      </trkpt>
      <trkpt lat="4.0867050" lon="-76.3997650">
        <ele>1564.2</ele>
        <time>2022-08-15T14:38:35Z</time>
      </trkpt>
      <trkpt lat="4.0866850" lon="-76.3997730">
        <ele>1564.4</ele>
        <time>2022-08-15T14:38:36Z</time>
      </trkpt>
      <trkpt lat="4.0865210" lon="-76.3998170">
        <ele>1565.2</ele>
        <time>2022-08-15T14:38:43Z</time>
      </trkpt>
      <trkpt lat="4.0863870" lon="-76.3998020">
        <ele>1565.6</ele>
        <time>2022-08-15T14:38:49Z</time>
      </trkpt>
      <trkpt lat="4.0862350" lon="-76.3997350">
        <ele>1566.4</ele>
        <time>2022-08-15T14:38:56Z</time>
      </trkpt>
      <trkpt lat="4.0862150" lon="-76.3997220">
        <ele>1566.6</ele>
        <time>2022-08-15T14:38:57Z</time>
      </trkpt>
      <trkpt lat="4.0860730" lon="-76.3996400">
        <ele>1567.2</ele>
        <time>2022-08-15T14:39:04Z</time>
      </trkpt>
      <trkpt lat="4.0860310" lon="-76.3996200">
        <ele>1567.4</ele>
        <time>2022-08-15T14:39:06Z</time>
      </trkpt>
      <trkpt lat="4.0860070" lon="-76.3996120">
        <ele>1567.6</ele>
        <time>2022-08-15T14:39:07Z</time>
      </trkpt>
      <trkpt lat="4.0858470" lon="-76.3995510">
        <ele>1568.6</ele>
        <time>2022-08-15T14:39:14Z</time>
      </trkpt>
      <trkpt lat="4.0857720" lon="-76.3995200">
        <ele>1569.0</ele>
        <time>2022-08-15T14:39:17Z</time>
      </trkpt>
      <trkpt lat="4.0856940" lon="-76.3994950">
        <ele>1569.4</ele>
        <time>2022-08-15T14:39:20Z</time>
      </trkpt>
      <trkpt lat="4.0856280" lon="-76.3994490">
        <ele>1569.8</ele>
        <time>2022-08-15T14:39:23Z</time>
      </trkpt>
      <trkpt lat="4.0856110" lon="-76.3994310">
        <ele>1570.0</ele>
        <time>2022-08-15T14:39:24Z</time>
      </trkpt>
      <trkpt lat="4.0855570" lon="-76.3993310">
        <ele>1570.8</ele>
        <time>2022-08-15T14:39:29Z</time>
      </trkpt>
      <trkpt lat="4.0855530" lon="-76.3993140">
        <ele>1571.0</ele>
        <time>2022-08-15T14:39:30Z</time>
      </trkpt>
      <trkpt lat="4.0855530" lon="-76.3992800">
        <ele>1571.4</ele>
        <time>2022-08-15T14:39:32Z</time>
      </trkpt>
      <trkpt lat="4.0855610" lon="-76.3992070">
        <ele>1572.0</ele>
        <time>2022-08-15T14:39:37Z</time>
      </trkpt>
      <trkpt lat="4.0855600" lon="-76.3991930">
        <ele>1572.0</ele>
        <time>2022-08-15T14:39:38Z</time>
      </trkpt>
      <trkpt lat="4.0855720" lon="-76.3991220">
        <ele>1573.2</ele>
        <time>2022-08-15T14:39:43Z</time>
      </trkpt>
      <trkpt lat="4.0855720" lon="-76.3990800">
        <ele>1574.2</ele>
        <time>2022-08-15T14:39:46Z</time>
      </trkpt>
      <trkpt lat="4.0855640" lon="-76.3990670">
        <ele>1574.6</ele>
        <time>2022-08-15T14:39:47Z</time>
      </trkpt>
      <trkpt lat="4.0855240" lon="-76.3990220">
        <ele>1575.4</ele>
        <time>2022-08-15T14:39:51Z</time>
      </trkpt>
      <trkpt lat="4.0854790" lon="-76.3990010">
        <ele>1576.0</ele>
        <time>2022-08-15T14:39:53Z</time>
      </trkpt>
      <trkpt lat="4.0853040" lon="-76.3989790">
        <ele>1576.2</ele>
        <time>2022-08-15T14:39:57Z</time>
      </trkpt>
      <trkpt lat="4.0851390" lon="-76.3989690">
        <ele>1576.2</ele>
        <time>2022-08-15T14:40:00Z</time>
      </trkpt>
      <trkpt lat="4.0850400" lon="-76.3989980">
        <ele>1576.2</ele>
        <time>2022-08-15T14:40:02Z</time>
      </trkpt>
      <trkpt lat="4.0849900" lon="-76.3990200">
        <ele>1575.6</ele>
        <time>2022-08-15T14:40:03Z</time>
      </trkpt>
      <trkpt lat="4.0848380" lon="-76.3990930">
        <ele>1574.0</ele>
        <time>2022-08-15T14:40:06Z</time>
      </trkpt>
      <trkpt lat="4.0847870" lon="-76.3991200">
        <ele>1572.6</ele>
        <time>2022-08-15T14:40:07Z</time>
      </trkpt>
      <trkpt lat="4.0847320" lon="-76.3991420">
        <ele>1572.0</ele>
        <time>2022-08-15T14:40:08Z</time>
      </trkpt>
      <trkpt lat="4.0846780" lon="-76.3991620">
        <ele>1571.4</ele>
        <time>2022-08-15T14:40:09Z</time>
      </trkpt>
      <trkpt lat="4.0845090" lon="-76.3992120">
        <ele>1569.8</ele>
        <time>2022-08-15T14:40:12Z</time>
      </trkpt>
      <trkpt lat="4.0844500" lon="-76.3992250">
        <ele>1569.2</ele>
        <time>2022-08-15T14:40:13Z</time>
      </trkpt>
      <trkpt lat="4.0843180" lon="-76.3992350">
        <ele>1568.4</ele>
        <time>2022-08-15T14:40:15Z</time>
      </trkpt>
      <trkpt lat="4.0840610" lon="-76.3992340">
        <ele>1567.2</ele>
        <time>2022-08-15T14:40:19Z</time>
      </trkpt>
      <trkpt lat="4.0839440" lon="-76.3992410">
        <ele>1566.2</ele>
        <time>2022-08-15T14:40:21Z</time>
      </trkpt>
      <trkpt lat="4.0838940" lon="-76.3992500">
        <ele>1565.6</ele>
        <time>2022-08-15T14:40:22Z</time>
      </trkpt>
      <trkpt lat="4.0837960" lon="-76.3992990">
        <ele>1565.2</ele>
        <time>2022-08-15T14:40:24Z</time>
      </trkpt>
      <trkpt lat="4.0837440" lon="-76.3993330">
        <ele>1564.6</ele>
        <time>2022-08-15T14:40:25Z</time>
      </trkpt>
      <trkpt lat="4.0836950" lon="-76.3993700">
        <ele>1564.2</ele>
        <time>2022-08-15T14:40:26Z</time>
      </trkpt>
      <trkpt lat="4.0836180" lon="-76.3994380">
        <ele>1563.2</ele>
        <time>2022-08-15T14:40:28Z</time>
      </trkpt>
      <trkpt lat="4.0835760" lon="-76.3994540">
        <ele>1562.8</ele>
        <time>2022-08-15T14:40:29Z</time>
      </trkpt>
      <trkpt lat="4.0834460" lon="-76.3994110">
        <ele>1562.0</ele>
        <time>2022-08-15T14:40:32Z</time>
      </trkpt>
      <trkpt lat="4.0834140" lon="-76.3993780">
        <ele>1561.0</ele>
        <time>2022-08-15T14:40:33Z</time>
      </trkpt>
      <trkpt lat="4.0833650" lon="-76.3993220">
        <ele>1559.8</ele>
        <time>2022-08-15T14:40:35Z</time>
      </trkpt>
      <trkpt lat="4.0833450" lon="-76.3992960">
        <ele>1559.2</ele>
        <time>2022-08-15T14:40:36Z</time>
      </trkpt>
      <trkpt lat="4.0833180" lon="-76.3992060">
        <ele>1558.8</ele>
        <time>2022-08-15T14:40:39Z</time>
      </trkpt>
      <trkpt lat="4.0833330" lon="-76.3991120">
        <ele>1558.8</ele>
        <time>2022-08-15T14:40:42Z</time>
      </trkpt>
      <trkpt lat="4.0833520" lon="-76.3990580">
        <ele>1558.8</ele>
        <time>2022-08-15T14:40:44Z</time>
      </trkpt>
      <trkpt lat="4.0833860" lon="-76.3989580">
        <ele>1559.2</ele>
        <time>2022-08-15T14:40:49Z</time>
      </trkpt>
      <trkpt lat="4.0834090" lon="-76.3989170">
        <ele>1560.2</ele>
        <time>2022-08-15T14:40:52Z</time>
      </trkpt>
      <trkpt lat="4.0834290" lon="-76.3988910">
        <ele>1560.6</ele>
        <time>2022-08-15T14:40:54Z</time>
      </trkpt>
      <trkpt lat="4.0834360" lon="-76.3988820">
        <ele>1561.0</ele>
        <time>2022-08-15T14:40:55Z</time>
      </trkpt>
      <trkpt lat="4.0834830" lon="-76.3988390">
        <ele>1562.0</ele>
        <time>2022-08-15T14:40:59Z</time>
      </trkpt>
      <trkpt lat="4.0835200" lon="-76.3988080">
        <ele>1562.6</ele>
        <time>2022-08-15T14:41:02Z</time>
      </trkpt>
      <trkpt lat="4.0835750" lon="-76.3987690">
        <ele>1563.2</ele>
        <time>2022-08-15T14:41:06Z</time>
      </trkpt>
      <trkpt lat="4.0835980" lon="-76.3987510">
        <ele>1563.6</ele>
        <time>2022-08-15T14:41:08Z</time>
      </trkpt>
      <trkpt lat="4.0837270" lon="-76.3987080">
        <ele>1564.4</ele>
        <time>2022-08-15T14:41:16Z</time>
      </trkpt>
      <trkpt lat="4.0837440" lon="-76.3987060">
        <ele>1564.4</ele>
        <time>2022-08-15T14:41:17Z</time>
      </trkpt>
      <trkpt lat="4.0838500" lon="-76.3986880">
        <ele>1565.6</ele>
        <time>2022-08-15T14:41:23Z</time>
      </trkpt>
      <trkpt lat="4.0839200" lon="-76.3986830">
        <ele>1566.4</ele>
        <time>2022-08-15T14:41:26Z</time>
      </trkpt>
      <trkpt lat="4.0839810" lon="-76.3986760">
        <ele>1566.6</ele>
        <time>2022-08-15T14:41:29Z</time>
      </trkpt>
      <trkpt lat="4.0840740" lon="-76.3986320">
        <ele>1567.2</ele>
        <time>2022-08-15T14:41:33Z</time>
      </trkpt>
      <trkpt lat="4.0841370" lon="-76.3985800">
        <ele>1567.6</ele>
        <time>2022-08-15T14:41:36Z</time>
      </trkpt>
      <trkpt lat="4.0841670" lon="-76.3985410">
        <ele>1567.8</ele>
        <time>2022-08-15T14:41:38Z</time>
      </trkpt>
      <trkpt lat="4.0841970" lon="-76.3983550">
        <ele>1568.6</ele>
        <time>2022-08-15T14:41:46Z</time>
      </trkpt>
      <trkpt lat="4.0841950" lon="-76.3983040">
        <ele>1568.8</ele>
        <time>2022-08-15T14:41:48Z</time>
      </trkpt>
      <trkpt lat="4.0841880" lon="-76.3981610">
        <ele>1570.0</ele>
        <time>2022-08-15T14:41:54Z</time>
      </trkpt>
      <trkpt lat="4.0841860" lon="-76.3981110">
        <ele>1570.2</ele>
        <time>2022-08-15T14:41:56Z</time>
      </trkpt>
      <trkpt lat="4.0842050" lon="-76.3978980">
        <ele>1571.0</ele>
        <time>2022-08-15T14:42:05Z</time>
      </trkpt>
      <trkpt lat="4.0842040" lon="-76.3977520">
        <ele>1572.0</ele>
        <time>2022-08-15T14:42:12Z</time>
      </trkpt>
      <trkpt lat="4.0841980" lon="-76.3977090">
        <ele>1572.2</ele>
        <time>2022-08-15T14:42:14Z</time>
      </trkpt>
      <trkpt lat="4.0841710" lon="-76.3976280">
        <ele>1573.2</ele>
        <time>2022-08-15T14:42:18Z</time>
      </trkpt>
      <trkpt lat="4.0841340" lon="-76.3975850">
        <ele>1573.8</ele>
        <time>2022-08-15T14:42:21Z</time>
      </trkpt>
      <trkpt lat="4.0841000" lon="-76.3975270">
        <ele>1574.4</ele>
        <time>2022-08-15T14:42:24Z</time>
      </trkpt>
      <trkpt lat="4.0840420" lon="-76.3974200">
        <ele>1575.0</ele>
        <time>2022-08-15T14:42:29Z</time>
      </trkpt>
      <trkpt lat="4.0840230" lon="-76.3973060">
        <ele>1575.4</ele>
        <time>2022-08-15T14:42:33Z</time>
      </trkpt>
      <trkpt lat="4.0840160" lon="-76.3972310">
        <ele>1575.6</ele>
        <time>2022-08-15T14:42:36Z</time>
      </trkpt>
      <trkpt lat="4.0840040" lon="-76.3971200">
        <ele>1576.2</ele>
        <time>2022-08-15T14:42:40Z</time>
      </trkpt>
      <trkpt lat="4.0839970" lon="-76.3970670">
        <ele>1576.4</ele>
        <time>2022-08-15T14:42:42Z</time>
      </trkpt>
      <trkpt lat="4.0839880" lon="-76.3970380">
        <ele>1576.6</ele>
        <time>2022-08-15T14:42:43Z</time>
      </trkpt>
      <trkpt lat="4.0839320" lon="-76.3969290">
        <ele>1577.0</ele>
        <time>2022-08-15T14:42:48Z</time>
      </trkpt>
      <trkpt lat="4.0838520" lon="-76.3968350">
        <ele>1577.4</ele>
        <time>2022-08-15T14:42:53Z</time>
      </trkpt>
      <trkpt lat="4.0838000" lon="-76.3966440">
        <ele>1578.4</ele>
        <time>2022-08-15T14:43:00Z</time>
      </trkpt>
      <trkpt lat="4.0837990" lon="-76.3965940">
        <ele>1578.6</ele>
        <time>2022-08-15T14:43:02Z</time>
      </trkpt>
      <trkpt lat="4.0837830" lon="-76.3964920">
        <ele>1579.0</ele>
        <time>2022-08-15T14:43:06Z</time>
      </trkpt>
      <trkpt lat="4.0837330" lon="-76.3964120">
        <ele>1579.6</ele>
        <time>2022-08-15T14:43:10Z</time>
      </trkpt>
      <trkpt lat="4.0837190" lon="-76.3963900">
        <ele>1579.6</ele>
        <time>2022-08-15T14:43:11Z</time>
      </trkpt>
      <trkpt lat="4.0836570" lon="-76.3962540">
        <ele>1580.6</ele>
        <time>2022-08-15T14:43:17Z</time>
      </trkpt>
      <trkpt lat="4.0836400" lon="-76.3962020">
        <ele>1581.0</ele>
        <time>2022-08-15T14:43:19Z</time>
      </trkpt>
      <trkpt lat="4.0836280" lon="-76.3960200">
        <ele>1581.6</ele>
        <time>2022-08-15T14:43:27Z</time>
      </trkpt>
      <trkpt lat="4.0836240" lon="-76.3959970">
        <ele>1581.8</ele>
        <time>2022-08-15T14:43:28Z</time>
      </trkpt>
      <trkpt lat="4.0835570" lon="-76.3959000">
        <ele>1582.6</ele>
        <time>2022-08-15T14:43:33Z</time>
      </trkpt>
      <trkpt lat="4.0835370" lon="-76.3958870">
        <ele>1582.8</ele>
        <time>2022-08-15T14:43:34Z</time>
      </trkpt>
      <trkpt lat="4.0834320" lon="-76.3958400">
        <ele>1583.6</ele>
        <time>2022-08-15T14:43:39Z</time>
      </trkpt>
      <trkpt lat="4.0834080" lon="-76.3958320">
        <ele>1583.8</ele>
        <time>2022-08-15T14:43:40Z</time>
      </trkpt>
      <trkpt lat="4.0832930" lon="-76.3958490">
        <ele>1584.4</ele>
        <time>2022-08-15T14:43:45Z</time>
      </trkpt>
      <trkpt lat="4.0832570" lon="-76.3958730">
        <ele>1585.0</ele>
        <time>2022-08-15T14:43:47Z</time>
      </trkpt>
      <trkpt lat="4.0831630" lon="-76.3959330">
        <ele>1585.4</ele>
        <time>2022-08-15T14:43:52Z</time>
      </trkpt>
      <trkpt lat="4.0829980" lon="-76.3960300">
        <ele>1586.0</ele>
        <time>2022-08-15T14:43:59Z</time>
      </trkpt>
      <trkpt lat="4.0829760" lon="-76.3960420">
        <ele>1586.2</ele>
        <time>2022-08-15T14:44:00Z</time>
      </trkpt>
      <trkpt lat="4.0828200" lon="-76.3960690">
        <ele>1586.6</ele>
        <time>2022-08-15T14:44:06Z</time>
      </trkpt>
      <trkpt lat="4.0826920" lon="-76.3960510">
        <ele>1587.0</ele>
        <time>2022-08-15T14:44:11Z</time>
      </trkpt>
      <trkpt lat="4.0826210" lon="-76.3960440">
        <ele>1587.4</ele>
        <time>2022-08-15T14:44:14Z</time>
      </trkpt>
      <trkpt lat="4.0824990" lon="-76.3960170">
        <ele>1588.2</ele>
        <time>2022-08-15T14:44:19Z</time>
      </trkpt>
      <trkpt lat="4.0824310" lon="-76.3960030">
        <ele>1588.6</ele>
        <time>2022-08-15T14:44:22Z</time>
      </trkpt>
      <trkpt lat="4.0822630" lon="-76.3959870">
        <ele>1589.6</ele>
        <time>2022-08-15T14:44:29Z</time>
      </trkpt>
      <trkpt lat="4.0822050" lon="-76.3959830">
        <ele>1590.0</ele>
        <time>2022-08-15T14:44:31Z</time>
      </trkpt>
      <trkpt lat="4.0821310" lon="-76.3959790">
        <ele>1590.6</ele>
        <time>2022-08-15T14:44:34Z</time>
      </trkpt>
      <trkpt lat="4.0819870" lon="-76.3959650">
        <ele>1591.4</ele>
        <time>2022-08-15T14:44:40Z</time>
      </trkpt>
      <trkpt lat="4.0819640" lon="-76.3959580">
        <ele>1591.6</ele>
        <time>2022-08-15T14:44:41Z</time>
      </trkpt>
      <trkpt lat="4.0817740" lon="-76.3959050">
        <ele>1592.6</ele>
        <time>2022-08-15T14:44:49Z</time>
      </trkpt>
      <trkpt lat="4.0816120" lon="-76.3958500">
        <ele>1593.6</ele>
        <time>2022-08-15T14:44:56Z</time>
      </trkpt>
      <trkpt lat="4.0815900" lon="-76.3958410">
        <ele>1593.8</ele>
        <time>2022-08-15T14:44:57Z</time>
      </trkpt>
      <trkpt lat="4.0814610" lon="-76.3957850">
        <ele>1594.0</ele>
        <time>2022-08-15T14:45:03Z</time>
      </trkpt>
      <trkpt lat="4.0813330" lon="-76.3957650">
        <ele>1595.0</ele>
        <time>2022-08-15T14:45:09Z</time>
      </trkpt>
      <trkpt lat="4.0812850" lon="-76.3957730">
        <ele>1595.4</ele>
        <time>2022-08-15T14:45:11Z</time>
      </trkpt>
      <trkpt lat="4.0812230" lon="-76.3957990">
        <ele>1596.0</ele>
        <time>2022-08-15T14:45:14Z</time>
      </trkpt>
      <trkpt lat="4.0810930" lon="-76.3958640">
        <ele>1596.8</ele>
        <time>2022-08-15T14:45:20Z</time>
      </trkpt>
      <trkpt lat="4.0810210" lon="-76.3958640">
        <ele>1597.0</ele>
        <time>2022-08-15T14:45:23Z</time>
      </trkpt>
      <trkpt lat="4.0809280" lon="-76.3958370">
        <ele>1597.6</ele>
        <time>2022-08-15T14:45:27Z</time>
      </trkpt>
      <trkpt lat="4.0809080" lon="-76.3958230">
        <ele>1597.8</ele>
        <time>2022-08-15T14:45:28Z</time>
      </trkpt>
      <trkpt lat="4.0807930" lon="-76.3957380">
        <ele>1598.2</ele>
        <time>2022-08-15T14:45:34Z</time>
      </trkpt>
      <trkpt lat="4.0807230" lon="-76.3956880">
        <ele>1598.8</ele>
        <time>2022-08-15T14:45:38Z</time>
      </trkpt>
      <trkpt lat="4.0806550" lon="-76.3956590">
        <ele>1599.2</ele>
        <time>2022-08-15T14:45:41Z</time>
      </trkpt>
      <trkpt lat="4.0805900" lon="-76.3956650">
        <ele>1599.8</ele>
        <time>2022-08-15T14:45:44Z</time>
      </trkpt>
      <trkpt lat="4.0805550" lon="-76.3956880">
        <ele>1600.2</ele>
        <time>2022-08-15T14:45:46Z</time>
      </trkpt>
      <trkpt lat="4.0804440" lon="-76.3957440">
        <ele>1600.8</ele>
        <time>2022-08-15T14:45:51Z</time>
      </trkpt>
      <trkpt lat="4.0803470" lon="-76.3957700">
        <ele>1601.4</ele>
        <time>2022-08-15T14:45:55Z</time>
      </trkpt>
      <trkpt lat="4.0802850" lon="-76.3957620">
        <ele>1602.0</ele>
        <time>2022-08-15T14:45:58Z</time>
      </trkpt>
      <trkpt lat="4.0802420" lon="-76.3957530">
        <ele>1602.6</ele>
        <time>2022-08-15T14:46:00Z</time>
      </trkpt>
      <trkpt lat="4.0801030" lon="-76.3957190">
        <ele>1603.6</ele>
        <time>2022-08-15T14:46:06Z</time>
      </trkpt>
      <trkpt lat="4.0800610" lon="-76.3956990">
        <ele>1604.2</ele>
        <time>2022-08-15T14:46:08Z</time>
      </trkpt>
      <trkpt lat="4.0799730" lon="-76.3956580">
        <ele>1604.8</ele>
        <time>2022-08-15T14:46:12Z</time>
      </trkpt>
      <trkpt lat="4.0798130" lon="-76.3955970">
        <ele>1605.2</ele>
        <time>2022-08-15T14:46:19Z</time>
      </trkpt>
      <trkpt lat="4.0797450" lon="-76.3955810">
        <ele>1605.8</ele>
        <time>2022-08-15T14:46:22Z</time>
      </trkpt>
      <trkpt lat="4.0796260" lon="-76.3955700">
        <ele>1606.4</ele>
        <time>2022-08-15T14:46:27Z</time>
      </trkpt>
      <trkpt lat="4.0795820" lon="-76.3955630">
        <ele>1606.8</ele>
        <time>2022-08-15T14:46:29Z</time>
      </trkpt>
      <trkpt lat="4.0794530" lon="-76.3955700">
        <ele>1607.8</ele>
        <time>2022-08-15T14:46:35Z</time>
      </trkpt>
      <trkpt lat="4.0793910" lon="-76.3955780">
        <ele>1608.2</ele>
        <time>2022-08-15T14:46:38Z</time>
      </trkpt>
      <trkpt lat="4.0793370" lon="-76.3956090">
        <ele>1608.6</ele>
        <time>2022-08-15T14:46:41Z</time>
      </trkpt>
      <trkpt lat="4.0792880" lon="-76.3956830">
        <ele>1609.2</ele>
        <time>2022-08-15T14:46:45Z</time>
      </trkpt>
      <trkpt lat="4.0792840" lon="-76.3957030">
        <ele>1609.4</ele>
        <time>2022-08-15T14:46:46Z</time>
      </trkpt>
      <trkpt lat="4.0792840" lon="-76.3957220">
        <ele>1609.4</ele>
        <time>2022-08-15T14:46:47Z</time>
      </trkpt>
      <trkpt lat="4.0792680" lon="-76.3958070">
        <ele>1610.2</ele>
        <time>2022-08-15T14:46:51Z</time>
      </trkpt>
      <trkpt lat="4.0792490" lon="-76.3958960">
        <ele>1610.8</ele>
        <time>2022-08-15T14:46:55Z</time>
      </trkpt>
      <trkpt lat="4.0792410" lon="-76.3959410">
        <ele>1611.2</ele>
        <time>2022-08-15T14:46:57Z</time>
      </trkpt>
      <trkpt lat="4.0792090" lon="-76.3960670">
        <ele>1612.2</ele>
        <time>2022-08-15T14:47:03Z</time>
      </trkpt>
      <trkpt lat="4.0791830" lon="-76.3961340">
        <ele>1612.4</ele>
        <time>2022-08-15T14:47:06Z</time>
      </trkpt>
      <trkpt lat="4.0791630" lon="-76.3962360">
        <ele>1613.2</ele>
        <time>2022-08-15T14:47:11Z</time>
      </trkpt>
      <trkpt lat="4.0791660" lon="-76.3962570">
        <ele>1613.4</ele>
        <time>2022-08-15T14:47:12Z</time>
      </trkpt>
      <trkpt lat="4.0791830" lon="-76.3963920">
        <ele>1614.2</ele>
        <time>2022-08-15T14:47:19Z</time>
      </trkpt>
      <trkpt lat="4.0791870" lon="-76.3964130">
        <ele>1614.4</ele>
        <time>2022-08-15T14:47:20Z</time>
      </trkpt>
      <trkpt lat="4.0792260" lon="-76.3965510">
        <ele>1615.6</ele>
        <time>2022-08-15T14:47:27Z</time>
      </trkpt>
      <trkpt lat="4.0792430" lon="-76.3965890">
        <ele>1615.8</ele>
        <time>2022-08-15T14:47:29Z</time>
      </trkpt>
      <trkpt lat="4.0792750" lon="-76.3966830">
        <ele>1616.4</ele>
        <time>2022-08-15T14:47:34Z</time>
      </trkpt>
      <trkpt lat="4.0792930" lon="-76.3967200">
        <ele>1616.8</ele>
        <time>2022-08-15T14:47:36Z</time>
      </trkpt>
      <trkpt lat="4.0793220" lon="-76.3967930">
        <ele>1617.6</ele>
        <time>2022-08-15T14:47:40Z</time>
      </trkpt>
      <trkpt lat="4.0793390" lon="-76.3968730">
        <ele>1618.6</ele>
        <time>2022-08-15T14:47:44Z</time>
      </trkpt>
      <trkpt lat="4.0793280" lon="-76.3969660">
        <ele>1619.6</ele>
        <time>2022-08-15T14:47:49Z</time>
      </trkpt>
      <trkpt lat="4.0792580" lon="-76.3970690">
        <ele>1620.8</ele>
        <time>2022-08-15T14:47:56Z</time>
      </trkpt>
      <trkpt lat="4.0792460" lon="-76.3970790">
        <ele>1621.0</ele>
        <time>2022-08-15T14:47:57Z</time>
      </trkpt>
      <trkpt lat="4.0792140" lon="-76.3971140">
        <ele>1621.8</ele>
        <time>2022-08-15T14:48:00Z</time>
      </trkpt>
      <trkpt lat="4.0791650" lon="-76.3971600">
        <ele>1622.6</ele>
        <time>2022-08-15T14:48:04Z</time>
      </trkpt>
      <trkpt lat="4.0791530" lon="-76.3971710">
        <ele>1623.0</ele>
        <time>2022-08-15T14:48:05Z</time>
      </trkpt>
      <trkpt lat="4.0790850" lon="-76.3972160">
        <ele>1624.2</ele>
        <time>2022-08-15T14:48:10Z</time>
      </trkpt>
      <trkpt lat="4.0790740" lon="-76.3972240">
        <ele>1624.4</ele>
        <time>2022-08-15T14:48:11Z</time>
      </trkpt>
      <trkpt lat="4.0790260" lon="-76.3972720">
        <ele>1625.4</ele>
        <time>2022-08-15T14:48:16Z</time>
      </trkpt>
      <trkpt lat="4.0789730" lon="-76.3973290">
        <ele>1626.0</ele>
        <time>2022-08-15T14:48:21Z</time>
      </trkpt>
      <trkpt lat="4.0789520" lon="-76.3973500">
        <ele>1626.4</ele>
        <time>2022-08-15T14:48:23Z</time>
      </trkpt>
      <trkpt lat="4.0789030" lon="-76.3974090">
        <ele>1627.6</ele>
        <time>2022-08-15T14:48:29Z</time>
      </trkpt>
      <trkpt lat="4.0788990" lon="-76.3974200">
        <ele>1627.6</ele>
        <time>2022-08-15T14:48:30Z</time>
      </trkpt>
      <trkpt lat="4.0788790" lon="-76.3974560">
        <ele>1628.0</ele>
        <time>2022-08-15T14:48:33Z</time>
      </trkpt>
      <trkpt lat="4.0788560" lon="-76.3974790">
        <ele>1628.4</ele>
        <time>2022-08-15T14:48:35Z</time>
      </trkpt>
      <trkpt lat="4.0788450" lon="-76.3974890">
        <ele>1628.6</ele>
        <time>2022-08-15T14:48:36Z</time>
      </trkpt>
      <trkpt lat="4.0788330" lon="-76.3975040">
        <ele>1628.8</ele>
        <time>2022-08-15T14:48:37Z</time>
      </trkpt>
      <trkpt lat="4.0788040" lon="-76.3975620">
        <ele>1629.6</ele>
        <time>2022-08-15T14:48:41Z</time>
      </trkpt>
      <trkpt lat="4.0787910" lon="-76.3975720">
        <ele>1630.0</ele>
        <time>2022-08-15T14:48:42Z</time>
      </trkpt>
      <trkpt lat="4.0787250" lon="-76.3976060">
        <ele>1630.2</ele>
        <time>2022-08-15T14:48:46Z</time>
      </trkpt>
      <trkpt lat="4.0786300" lon="-76.3975630">
        <ele>1630.4</ele>
        <time>2022-08-15T14:48:51Z</time>
      </trkpt>
      <trkpt lat="4.0784880" lon="-76.3974560">
        <ele>1630.4</ele>
        <time>2022-08-15T14:48:57Z</time>
      </trkpt>
      <trkpt lat="4.0784480" lon="-76.3973750">
        <ele>1630.4</ele>
        <time>2022-08-15T14:48:59Z</time>
      </trkpt>
      <trkpt lat="4.0784380" lon="-76.3972830">
        <ele>1630.4</ele>
        <time>2022-08-15T14:49:01Z</time>
      </trkpt>
      <trkpt lat="4.0784420" lon="-76.3972180">
        <ele>1630.4</ele>
        <time>2022-08-15T14:49:02Z</time>
      </trkpt>
      <trkpt lat="4.0784840" lon="-76.3970480">
        <ele>1630.0</ele>
        <time>2022-08-15T14:49:05Z</time>
      </trkpt>
      <trkpt lat="4.0785110" lon="-76.3968750">
        <ele>1628.6</ele>
        <time>2022-08-15T14:49:08Z</time>
      </trkpt>
      <trkpt lat="4.0784960" lon="-76.3967810">
        <ele>1628.4</ele>
        <time>2022-08-15T14:49:10Z</time>
      </trkpt>
      <trkpt lat="4.0784220" lon="-76.3966360">
        <ele>1628.0</ele>
        <time>2022-08-15T14:49:14Z</time>
      </trkpt>
      <trkpt lat="4.0783880" lon="-76.3965600">
        <ele>1628.0</ele>
        <time>2022-08-15T14:49:16Z</time>
      </trkpt>
      <trkpt lat="4.0783350" lon="-76.3964520">
        <ele>1627.8</ele>
        <time>2022-08-15T14:49:19Z</time>
      </trkpt>
      <trkpt lat="4.0782400" lon="-76.3962880">
        <ele>1628.0</ele>
        <time>2022-08-15T14:49:25Z</time>
      </trkpt>
      <trkpt lat="4.0781510" lon="-76.3961860">
        <ele>1628.8</ele>
        <time>2022-08-15T14:49:31Z</time>
      </trkpt>
      <trkpt lat="4.0780860" lon="-76.3961770">
        <ele>1629.6</ele>
        <time>2022-08-15T14:49:34Z</time>
      </trkpt>
      <trkpt lat="4.0780220" lon="-76.3961740">
        <ele>1630.0</ele>
        <time>2022-08-15T14:49:37Z</time>
      </trkpt>
      <trkpt lat="4.0779560" lon="-76.3961870">
        <ele>1630.6</ele>
        <time>2022-08-15T14:49:40Z</time>
      </trkpt>
      <trkpt lat="4.0779190" lon="-76.3962020">
        <ele>1631.0</ele>
        <time>2022-08-15T14:49:42Z</time>
      </trkpt>
      <trkpt lat="4.0778740" lon="-76.3962340">
        <ele>1631.4</ele>
        <time>2022-08-15T14:49:45Z</time>
      </trkpt>
      <trkpt lat="4.0778460" lon="-76.3962680">
        <ele>1631.8</ele>
        <time>2022-08-15T14:49:47Z</time>
      </trkpt>
      <trkpt lat="4.0778010" lon="-76.3963790">
        <ele>1632.8</ele>
        <time>2022-08-15T14:49:53Z</time>
      </trkpt>
      <trkpt lat="4.0777910" lon="-76.3964000">
        <ele>1633.0</ele>
        <time>2022-08-15T14:49:54Z</time>
      </trkpt>
      <trkpt lat="4.0777830" lon="-76.3964180">
        <ele>1633.0</ele>
        <time>2022-08-15T14:49:55Z</time>
      </trkpt>
      <trkpt lat="4.0777630" lon="-76.3964670">
        <ele>1633.6</ele>
        <time>2022-08-15T14:49:59Z</time>
      </trkpt>
      <trkpt lat="4.0776980" lon="-76.3965110">
        <ele>1634.0</ele>
        <time>2022-08-15T14:50:03Z</time>
      </trkpt>
      <trkpt lat="4.0776690" lon="-76.3965220">
        <ele>1634.2</ele>
        <time>2022-08-15T14:50:05Z</time>
      </trkpt>
      <trkpt lat="4.0776160" lon="-76.3965260">
        <ele>1634.6</ele>
        <time>2022-08-15T14:50:07Z</time>
      </trkpt>
      <trkpt lat="4.0775610" lon="-76.3965100">
        <ele>1635.0</ele>
        <time>2022-08-15T14:50:10Z</time>
      </trkpt>
      <trkpt lat="4.0774950" lon="-76.3964660">
        <ele>1635.6</ele>
        <time>2022-08-15T14:50:14Z</time>
      </trkpt>
      <trkpt lat="4.0774690" lon="-76.3964260">
        <ele>1636.0</ele>
        <time>2022-08-15T14:50:16Z</time>
      </trkpt>
      <trkpt lat="4.0774550" lon="-76.3964140">
        <ele>1636.2</ele>
        <time>2022-08-15T14:50:17Z</time>
      </trkpt>
      <trkpt lat="4.0774200" lon="-76.3963360">
        <ele>1637.2</ele>
        <time>2022-08-15T14:50:22Z</time>
      </trkpt>
      <trkpt lat="4.0773970" lon="-76.3963310">
        <ele>1637.4</ele>
        <time>2022-08-15T14:50:23Z</time>
      </trkpt>
      <trkpt lat="4.0772610" lon="-76.3963160">
        <ele>1638.0</ele>
        <time>2022-08-15T14:50:28Z</time>
      </trkpt>
      <trkpt lat="4.0771930" lon="-76.3963310">
        <ele>1638.2</ele>
        <time>2022-08-15T14:50:31Z</time>
      </trkpt>
      <trkpt lat="4.0771200" lon="-76.3963480">
        <ele>1638.4</ele>
        <time>2022-08-15T14:50:34Z</time>
      </trkpt>
      <trkpt lat="4.0769620" lon="-76.3963700">
        <ele>1638.8</ele>
        <time>2022-08-15T14:50:41Z</time>
      </trkpt>
      <trkpt lat="4.0768750" lon="-76.3963650">
        <ele>1639.2</ele>
        <time>2022-08-15T14:50:45Z</time>
      </trkpt>
      <trkpt lat="4.0768340" lon="-76.3963520">
        <ele>1639.6</ele>
        <time>2022-08-15T14:50:47Z</time>
      </trkpt>
      <trkpt lat="4.0767970" lon="-76.3963400">
        <ele>1640.0</ele>
        <time>2022-08-15T14:50:49Z</time>
      </trkpt>
      <trkpt lat="4.0767170" lon="-76.3963460">
        <ele>1640.2</ele>
        <time>2022-08-15T14:50:53Z</time>
      </trkpt>
      <trkpt lat="4.0766780" lon="-76.3963780">
        <ele>1640.6</ele>
        <time>2022-08-15T14:50:56Z</time>
      </trkpt>
      <trkpt lat="4.0766390" lon="-76.3965090">
        <ele>1641.2</ele>
        <time>2022-08-15T14:51:02Z</time>
      </trkpt>
      <trkpt lat="4.0765900" lon="-76.3966690">
        <ele>1641.8</ele>
        <time>2022-08-15T14:51:09Z</time>
      </trkpt>
      <trkpt lat="4.0765670" lon="-76.3967270">
        <ele>1642.2</ele>
        <time>2022-08-15T14:51:12Z</time>
      </trkpt>
      <trkpt lat="4.0765290" lon="-76.3967700">
        <ele>1642.4</ele>
        <time>2022-08-15T14:51:15Z</time>
      </trkpt>
      <trkpt lat="4.0764170" lon="-76.3968750">
        <ele>1643.4</ele>
        <time>2022-08-15T14:51:22Z</time>
      </trkpt>
      <trkpt lat="4.0763330" lon="-76.3969950">
        <ele>1644.4</ele>
        <time>2022-08-15T14:51:29Z</time>
      </trkpt>
      <trkpt lat="4.0762930" lon="-76.3971210">
        <ele>1645.6</ele>
        <time>2022-08-15T14:51:35Z</time>
      </trkpt>
      <trkpt lat="4.0762620" lon="-76.3972050">
        <ele>1646.4</ele>
        <time>2022-08-15T14:51:39Z</time>
      </trkpt>
      <trkpt lat="4.0762180" lon="-76.3972660">
        <ele>1646.6</ele>
        <time>2022-08-15T14:51:42Z</time>
      </trkpt>
      <trkpt lat="4.0761150" lon="-76.3973390">
        <ele>1647.4</ele>
        <time>2022-08-15T14:51:47Z</time>
      </trkpt>
      <trkpt lat="4.0760940" lon="-76.3973620">
        <ele>1647.4</ele>
        <time>2022-08-15T14:51:48Z</time>
      </trkpt>
      <trkpt lat="4.0759300" lon="-76.3975070">
        <ele>1648.2</ele>
        <time>2022-08-15T14:51:56Z</time>
      </trkpt>
      <trkpt lat="4.0758940" lon="-76.3975700">
        <ele>1648.4</ele>
        <time>2022-08-15T14:51:59Z</time>
      </trkpt>
      <trkpt lat="4.0758650" lon="-76.3976020">
        <ele>1648.8</ele>
        <time>2022-08-15T14:52:01Z</time>
      </trkpt>
      <trkpt lat="4.0758400" lon="-76.3976330">
        <ele>1649.0</ele>
        <time>2022-08-15T14:52:03Z</time>
      </trkpt>
      <trkpt lat="4.0757930" lon="-76.3976710">
        <ele>1649.6</ele>
        <time>2022-08-15T14:52:06Z</time>
      </trkpt>
      <trkpt lat="4.0757610" lon="-76.3976950">
        <ele>1649.8</ele>
        <time>2022-08-15T14:52:08Z</time>
      </trkpt>
      <trkpt lat="4.0756460" lon="-76.3977300">
        <ele>1650.8</ele>
        <time>2022-08-15T14:52:13Z</time>
      </trkpt>
      <trkpt lat="4.0755930" lon="-76.3977360">
        <ele>1651.2</ele>
        <time>2022-08-15T14:52:15Z</time>
      </trkpt>
      <trkpt lat="4.0755170" lon="-76.3977390">
        <ele>1651.6</ele>
        <time>2022-08-15T14:52:18Z</time>
      </trkpt>
      <trkpt lat="4.0754340" lon="-76.3977660">
        <ele>1651.8</ele>
        <time>2022-08-15T14:52:21Z</time>
      </trkpt>
      <trkpt lat="4.0752770" lon="-76.3978260">
        <ele>1652.4</ele>
        <time>2022-08-15T14:52:27Z</time>
      </trkpt>
      <trkpt lat="4.0752430" lon="-76.3978370">
        <ele>1652.6</ele>
        <time>2022-08-15T14:52:28Z</time>
      </trkpt>
      <trkpt lat="4.0751280" lon="-76.3979050">
        <ele>1653.2</ele>
        <time>2022-08-15T14:52:33Z</time>
      </trkpt>
      <trkpt lat="4.0751190" lon="-76.3979220">
        <ele>1653.4</ele>
        <time>2022-08-15T14:52:34Z</time>
      </trkpt>
      <trkpt lat="4.0751010" lon="-76.3979510">
        <ele>1653.8</ele>
        <time>2022-08-15T14:52:36Z</time>
      </trkpt>
      <trkpt lat="4.0750500" lon="-76.3980070">
        <ele>1654.4</ele>
        <time>2022-08-15T14:52:40Z</time>
      </trkpt>
      <trkpt lat="4.0750450" lon="-76.3980170">
        <ele>1654.4</ele>
        <time>2022-08-15T14:52:41Z</time>
      </trkpt>
      <trkpt lat="4.0750400" lon="-76.3980240">
        <ele>1654.6</ele>
        <time>2022-08-15T14:52:42Z</time>
      </trkpt>
      <trkpt lat="4.0750280" lon="-76.3980350">
        <ele>1654.8</ele>
        <time>2022-08-15T14:52:43Z</time>
      </trkpt>
      <trkpt lat="4.0749630" lon="-76.3981000">
        <ele>1656.0</ele>
        <time>2022-08-15T14:52:48Z</time>
      </trkpt>
      <trkpt lat="4.0749570" lon="-76.3981100">
        <ele>1656.0</ele>
        <time>2022-08-15T14:52:49Z</time>
      </trkpt>
      <trkpt lat="4.0749410" lon="-76.3981230">
        <ele>1656.2</ele>
        <time>2022-08-15T14:52:50Z</time>
      </trkpt>
      <trkpt lat="4.0748770" lon="-76.3981600">
        <ele>1656.8</ele>
        <time>2022-08-15T14:52:53Z</time>
      </trkpt>
      <trkpt lat="4.0748630" lon="-76.3981760">
        <ele>1657.0</ele>
        <time>2022-08-15T14:52:54Z</time>
      </trkpt>
      <trkpt lat="4.0748480" lon="-76.3981870">
        <ele>1657.0</ele>
        <time>2022-08-15T14:52:55Z</time>
      </trkpt>
      <trkpt lat="4.0748260" lon="-76.3982190">
        <ele>1657.4</ele>
        <time>2022-08-15T14:52:57Z</time>
      </trkpt>
      <trkpt lat="4.0748140" lon="-76.3982270">
        <ele>1657.6</ele>
        <time>2022-08-15T14:52:58Z</time>
      </trkpt>
      <trkpt lat="4.0747830" lon="-76.3982370">
        <ele>1657.6</ele>
        <time>2022-08-15T14:53:00Z</time>
      </trkpt>
      <trkpt lat="4.0747560" lon="-76.3982340">
        <ele>1658.0</ele>
        <time>2022-08-15T14:53:02Z</time>
      </trkpt>
      <trkpt lat="4.0747520" lon="-76.3982290">
        <ele>1658.0</ele>
        <time>2022-08-15T14:53:03Z</time>
      </trkpt>
      <trkpt lat="4.0747370" lon="-76.3981860">
        <ele>1658.2</ele>
        <time>2022-08-15T14:53:08Z</time>
      </trkpt>
      <trkpt lat="4.0747470" lon="-76.3981550">
        <ele>1658.4</ele>
        <time>2022-08-15T14:53:11Z</time>
      </trkpt>
      <trkpt lat="4.0747520" lon="-76.3981350">
        <ele>1658.6</ele>
        <time>2022-08-15T14:53:13Z</time>
      </trkpt>
      <trkpt lat="4.0747520" lon="-76.3981210">
        <ele>1658.8</ele>
        <time>2022-08-15T14:53:14Z</time>
      </trkpt>
      <trkpt lat="4.0747480" lon="-76.3981050">
        <ele>1658.8</ele>
        <time>2022-08-15T14:53:15Z</time>
      </trkpt>
      <trkpt lat="4.0747500" lon="-76.3980140">
        <ele>1659.2</ele>
        <time>2022-08-15T14:53:21Z</time>
      </trkpt>
      <trkpt lat="4.0747480" lon="-76.3979650">
        <ele>1659.6</ele>
        <time>2022-08-15T14:53:24Z</time>
      </trkpt>
      <trkpt lat="4.0747310" lon="-76.3979210">
        <ele>1660.0</ele>
        <time>2022-08-15T14:53:27Z</time>
      </trkpt>
      <trkpt lat="4.0747230" lon="-76.3979080">
        <ele>1660.2</ele>
        <time>2022-08-15T14:53:28Z</time>
      </trkpt>
      <trkpt lat="4.0746990" lon="-76.3978650">
        <ele>1660.6</ele>
        <time>2022-08-15T14:53:31Z</time>
      </trkpt>
      <trkpt lat="4.0746970" lon="-76.3978260">
        <ele>1661.4</ele>
        <time>2022-08-15T14:53:35Z</time>
      </trkpt>
      <trkpt lat="4.0746960" lon="-76.3978160">
        <ele>1661.4</ele>
        <time>2022-08-15T14:53:36Z</time>
      </trkpt>
      <trkpt lat="4.0747150" lon="-76.3977800">
        <ele>1662.2</ele>
        <time>2022-08-15T14:53:39Z</time>
      </trkpt>
      <trkpt lat="4.0747320" lon="-76.3977500">
        <ele>1662.6</ele>
        <time>2022-08-15T14:53:41Z</time>
      </trkpt>
      <trkpt lat="4.0748110" lon="-76.3976910">
        <ele>1663.2</ele>
        <time>2022-08-15T14:53:47Z</time>
      </trkpt>
      <trkpt lat="4.0748240" lon="-76.3976800">
        <ele>1663.4</ele>
        <time>2022-08-15T14:53:48Z</time>
      </trkpt>
      <trkpt lat="4.0748720" lon="-76.3976510">
        <ele>1663.8</ele>
        <time>2022-08-15T14:53:51Z</time>
      </trkpt>
      <trkpt lat="4.0749200" lon="-76.3976380">
        <ele>1664.2</ele>
        <time>2022-08-15T14:53:53Z</time>
      </trkpt>
      <trkpt lat="4.0749640" lon="-76.3976110">
        <ele>1664.4</ele>
        <time>2022-08-15T14:53:55Z</time>
      </trkpt>
      <trkpt lat="4.0750040" lon="-76.3975440">
        <ele>1665.0</ele>
        <time>2022-08-15T14:53:59Z</time>
      </trkpt>
      <trkpt lat="4.0750280" lon="-76.3975010">
        <ele>1665.4</ele>
        <time>2022-08-15T14:54:01Z</time>
      </trkpt>
      <trkpt lat="4.0750560" lon="-76.3974380">
        <ele>1666.0</ele>
        <time>2022-08-15T14:54:04Z</time>
      </trkpt>
      <trkpt lat="4.0750800" lon="-76.3973710">
        <ele>1666.2</ele>
        <time>2022-08-15T14:54:07Z</time>
      </trkpt>
      <trkpt lat="4.0751260" lon="-76.3973260">
        <ele>1666.2</ele>
        <time>2022-08-15T14:54:10Z</time>
      </trkpt>
      <trkpt lat="4.0751430" lon="-76.3973160">
        <ele>1666.4</ele>
        <time>2022-08-15T14:54:11Z</time>
      </trkpt>
      <trkpt lat="4.0752070" lon="-76.3972470">
        <ele>1667.2</ele>
        <time>2022-08-15T14:54:17Z</time>
      </trkpt>
      <trkpt lat="4.0752430" lon="-76.3972280">
        <ele>1667.4</ele>
        <time>2022-08-15T14:54:19Z</time>
      </trkpt>
      <trkpt lat="4.0752950" lon="-76.3971840">
        <ele>1668.0</ele>
        <time>2022-08-15T14:54:22Z</time>
      </trkpt>
      <trkpt lat="4.0753270" lon="-76.3971450">
        <ele>1668.2</ele>
        <time>2022-08-15T14:54:24Z</time>
      </trkpt>
      <trkpt lat="4.0753360" lon="-76.3971160">
        <ele>1668.4</ele>
        <time>2022-08-15T14:54:25Z</time>
      </trkpt>
      <trkpt lat="4.0753430" lon="-76.3970460">
        <ele>1668.8</ele>
        <time>2022-08-15T14:54:27Z</time>
      </trkpt>
      <trkpt lat="4.0753060" lon="-76.3969210">
        <ele>1669.6</ele>
        <time>2022-08-15T14:54:31Z</time>
      </trkpt>
      <trkpt lat="4.0752960" lon="-76.3968600">
        <ele>1669.8</ele>
        <time>2022-08-15T14:54:33Z</time>
      </trkpt>
      <trkpt lat="4.0752270" lon="-76.3966890">
        <ele>1670.4</ele>
        <time>2022-08-15T14:54:40Z</time>
      </trkpt>
      <trkpt lat="4.0752130" lon="-76.3966670">
        <ele>1670.4</ele>
        <time>2022-08-15T14:54:41Z</time>
      </trkpt>
      <trkpt lat="4.0751970" lon="-76.3966450">
        <ele>1670.6</ele>
        <time>2022-08-15T14:54:42Z</time>
      </trkpt>
      <trkpt lat="4.0751020" lon="-76.3966170">
        <ele>1671.2</ele>
        <time>2022-08-15T14:54:45Z</time>
      </trkpt>
      <trkpt lat="4.0750470" lon="-76.3966020">
        <ele>1671.6</ele>
        <time>2022-08-15T14:54:47Z</time>
      </trkpt>
      <trkpt lat="4.0749590" lon="-76.3965480">
        <ele>1672.4</ele>
        <time>2022-08-15T14:54:51Z</time>
      </trkpt>
      <trkpt lat="4.0749030" lon="-76.3965050">
        <ele>1672.6</ele>
        <time>2022-08-15T14:54:54Z</time>
      </trkpt>
      <trkpt lat="4.0748530" lon="-76.3964580">
        <ele>1672.8</ele>
        <time>2022-08-15T14:54:57Z</time>
      </trkpt>
      <trkpt lat="4.0747880" lon="-76.3963890">
        <ele>1673.4</ele>
        <time>2022-08-15T14:55:02Z</time>
      </trkpt>
      <trkpt lat="4.0747590" lon="-76.3963530">
        <ele>1673.6</ele>
        <time>2022-08-15T14:55:04Z</time>
      </trkpt>
      <trkpt lat="4.0746990" lon="-76.3962890">
        <ele>1674.4</ele>
        <time>2022-08-15T14:55:08Z</time>
      </trkpt>
      <trkpt lat="4.0746640" lon="-76.3962370">
        <ele>1674.8</ele>
        <time>2022-08-15T14:55:11Z</time>
      </trkpt>
      <trkpt lat="4.0746300" lon="-76.3961790">
        <ele>1675.2</ele>
        <time>2022-08-15T14:55:14Z</time>
      </trkpt>
      <trkpt lat="4.0745480" lon="-76.3961100">
        <ele>1675.8</ele>
        <time>2022-08-15T14:55:19Z</time>
      </trkpt>
      <trkpt lat="4.0745270" lon="-76.3961010">
        <ele>1676.0</ele>
        <time>2022-08-15T14:55:20Z</time>
      </trkpt>
      <trkpt lat="4.0743700" lon="-76.3960230">
        <ele>1676.8</ele>
        <time>2022-08-15T14:55:28Z</time>
      </trkpt>
      <trkpt lat="4.0743480" lon="-76.3960150">
        <ele>1677.0</ele>
        <time>2022-08-15T14:55:29Z</time>
      </trkpt>
      <trkpt lat="4.0742480" lon="-76.3959760">
        <ele>1677.6</ele>
        <time>2022-08-15T14:55:34Z</time>
      </trkpt>
      <trkpt lat="4.0742190" lon="-76.3959430">
        <ele>1677.8</ele>
        <time>2022-08-15T14:55:36Z</time>
      </trkpt>
      <trkpt lat="4.0742130" lon="-76.3959190">
        <ele>1678.0</ele>
        <time>2022-08-15T14:55:37Z</time>
      </trkpt>
      <trkpt lat="4.0742170" lon="-76.3958730">
        <ele>1678.0</ele>
        <time>2022-08-15T14:55:39Z</time>
      </trkpt>
      <trkpt lat="4.0742830" lon="-76.3957680">
        <ele>1678.6</ele>
        <time>2022-08-15T14:55:44Z</time>
      </trkpt>
      <trkpt lat="4.0744060" lon="-76.3956510">
        <ele>1679.0</ele>
        <time>2022-08-15T14:55:50Z</time>
      </trkpt>
      <trkpt lat="4.0744420" lon="-76.3956050">
        <ele>1679.0</ele>
        <time>2022-08-15T14:55:52Z</time>
      </trkpt>
      <trkpt lat="4.0744900" lon="-76.3955410">
        <ele>1679.2</ele>
        <time>2022-08-15T14:55:55Z</time>
      </trkpt>
      <trkpt lat="4.0745600" lon="-76.3953730">
        <ele>1679.8</ele>
        <time>2022-08-15T14:56:01Z</time>
      </trkpt>
      <trkpt lat="4.0745880" lon="-76.3952940">
        <ele>1680.0</ele>
        <time>2022-08-15T14:56:04Z</time>
      </trkpt>
      <trkpt lat="4.0745990" lon="-76.3952110">
        <ele>1680.2</ele>
        <time>2022-08-15T14:56:07Z</time>
      </trkpt>
      <trkpt lat="4.0746440" lon="-76.3951140">
        <ele>1680.4</ele>
        <time>2022-08-15T14:56:11Z</time>
      </trkpt>
      <trkpt lat="4.0746740" lon="-76.3951000">
        <ele>1680.4</ele>
        <time>2022-08-15T14:56:12Z</time>
      </trkpt>
      <trkpt lat="4.0748280" lon="-76.3950580">
        <ele>1681.0</ele>
        <time>2022-08-15T14:56:17Z</time>
      </trkpt>
      <trkpt lat="4.0748560" lon="-76.3950540">
        <ele>1681.0</ele>
        <time>2022-08-15T14:56:18Z</time>
      </trkpt>
      <trkpt lat="4.0749590" lon="-76.3950410">
        <ele>1681.4</ele>
        <time>2022-08-15T14:56:22Z</time>
      </trkpt>
      <trkpt lat="4.0750430" lon="-76.3949280">
        <ele>1681.6</ele>
        <time>2022-08-15T14:56:27Z</time>
      </trkpt>
      <trkpt lat="4.0750580" lon="-76.3948710">
        <ele>1682.0</ele>
        <time>2022-08-15T14:56:29Z</time>
      </trkpt>
      <trkpt lat="4.0750570" lon="-76.3947920">
        <ele>1682.2</ele>
        <time>2022-08-15T14:56:32Z</time>
      </trkpt>
      <trkpt lat="4.0750210" lon="-76.3946630">
        <ele>1682.4</ele>
        <time>2022-08-15T14:56:37Z</time>
      </trkpt>
      <trkpt lat="4.0750100" lon="-76.3945830">
        <ele>1683.0</ele>
        <time>2022-08-15T14:56:40Z</time>
      </trkpt>
      <trkpt lat="4.0750030" lon="-76.3945620">
        <ele>1683.2</ele>
        <time>2022-08-15T14:56:41Z</time>
      </trkpt>
      <trkpt lat="4.0749990" lon="-76.3945430">
        <ele>1683.4</ele>
        <time>2022-08-15T14:56:42Z</time>
      </trkpt>
      <trkpt lat="4.0750090" lon="-76.3944720">
        <ele>1683.6</ele>
        <time>2022-08-15T14:56:45Z</time>
      </trkpt>
      <trkpt lat="4.0750310" lon="-76.3944260">
        <ele>1684.2</ele>
        <time>2022-08-15T14:56:47Z</time>
      </trkpt>
      <trkpt lat="4.0750610" lon="-76.3943270">
        <ele>1685.0</ele>
        <time>2022-08-15T14:56:51Z</time>
      </trkpt>
      <trkpt lat="4.0750920" lon="-76.3942940">
        <ele>1685.4</ele>
        <time>2022-08-15T14:56:53Z</time>
      </trkpt>
      <trkpt lat="4.0751700" lon="-76.3942400">
        <ele>1685.8</ele>
        <time>2022-08-15T14:56:57Z</time>
      </trkpt>
      <trkpt lat="4.0752280" lon="-76.3942350">
        <ele>1686.2</ele>
        <time>2022-08-15T14:56:59Z</time>
      </trkpt>
      <trkpt lat="4.0754240" lon="-76.3942160">
        <ele>1686.6</ele>
        <time>2022-08-15T14:57:06Z</time>
      </trkpt>
      <trkpt lat="4.0756450" lon="-76.3941490">
        <ele>1687.2</ele>
        <time>2022-08-15T14:57:14Z</time>
      </trkpt>
      <trkpt lat="4.0756920" lon="-76.3941110">
        <ele>1687.4</ele>
        <time>2022-08-15T14:57:16Z</time>
      </trkpt>
      <trkpt lat="4.0757790" lon="-76.3940280">
        <ele>1687.8</ele>
        <time>2022-08-15T14:57:20Z</time>
      </trkpt>
      <trkpt lat="4.0758510" lon="-76.3939430">
        <ele>1688.2</ele>
        <time>2022-08-15T14:57:24Z</time>
      </trkpt>
      <trkpt lat="4.0758810" lon="-76.3939060">
        <ele>1688.4</ele>
        <time>2022-08-15T14:57:26Z</time>
      </trkpt>
      <trkpt lat="4.0758980" lon="-76.3938920">
        <ele>1688.4</ele>
        <time>2022-08-15T14:57:27Z</time>
      </trkpt>
      <trkpt lat="4.0759590" lon="-76.3938680">
        <ele>1688.8</ele>
        <time>2022-08-15T14:57:30Z</time>
      </trkpt>
      <trkpt lat="4.0761250" lon="-76.3938240">
        <ele>1689.6</ele>
        <time>2022-08-15T14:57:36Z</time>
      </trkpt>
      <trkpt lat="4.0761740" lon="-76.3938140">
        <ele>1689.8</ele>
        <time>2022-08-15T14:57:38Z</time>
      </trkpt>
      <trkpt lat="4.0762890" lon="-76.3937950">
        <ele>1690.8</ele>
        <time>2022-08-15T14:57:43Z</time>
      </trkpt>
      <trkpt lat="4.0763790" lon="-76.3937770">
        <ele>1691.6</ele>
        <time>2022-08-15T14:57:47Z</time>
      </trkpt>
      <trkpt lat="4.0764280" lon="-76.3937690">
        <ele>1691.8</ele>
        <time>2022-08-15T14:57:49Z</time>
      </trkpt>
      <trkpt lat="4.0764500" lon="-76.3937630">
        <ele>1691.8</ele>
        <time>2022-08-15T14:57:50Z</time>
      </trkpt>
      <trkpt lat="4.0764840" lon="-76.3937380">
        <ele>1692.4</ele>
        <time>2022-08-15T14:57:52Z</time>
      </trkpt>
      <trkpt lat="4.0765940" lon="-76.3936220">
        <ele>1693.0</ele>
        <time>2022-08-15T14:57:58Z</time>
      </trkpt>
      <trkpt lat="4.0765970" lon="-76.3935990">
        <ele>1693.0</ele>
        <time>2022-08-15T14:57:59Z</time>
      </trkpt>
      <trkpt lat="4.0765630" lon="-76.3934710">
        <ele>1693.2</ele>
        <time>2022-08-15T14:58:04Z</time>
      </trkpt>
      <trkpt lat="4.0765550" lon="-76.3933130">
        <ele>1693.8</ele>
        <time>2022-08-15T14:58:10Z</time>
      </trkpt>
      <trkpt lat="4.0765970" lon="-76.3931530">
        <ele>1694.6</ele>
        <time>2022-08-15T14:58:17Z</time>
      </trkpt>
      <trkpt lat="4.0766190" lon="-76.3931000">
        <ele>1695.0</ele>
        <time>2022-08-15T14:58:20Z</time>
      </trkpt>
      <trkpt lat="4.0766280" lon="-76.3930400">
        <ele>1695.2</ele>
        <time>2022-08-15T14:58:23Z</time>
      </trkpt>
      <trkpt lat="4.0766260" lon="-76.3929670">
        <ele>1696.0</ele>
        <time>2022-08-15T14:58:26Z</time>
      </trkpt>
      <trkpt lat="4.0766260" lon="-76.3928290">
        <ele>1697.2</ele>
        <time>2022-08-15T14:58:32Z</time>
      </trkpt>
      <trkpt lat="4.0766320" lon="-76.3927780">
        <ele>1697.4</ele>
        <time>2022-08-15T14:58:34Z</time>
      </trkpt>
      <trkpt lat="4.0766490" lon="-76.3926670">
        <ele>1698.2</ele>
        <time>2022-08-15T14:58:39Z</time>
      </trkpt>
      <trkpt lat="4.0766590" lon="-76.3926200">
        <ele>1698.2</ele>
        <time>2022-08-15T14:58:41Z</time>
      </trkpt>
      <trkpt lat="4.0767350" lon="-76.3925270">
        <ele>1698.8</ele>
        <time>2022-08-15T14:58:47Z</time>
      </trkpt>
      <trkpt lat="4.0768020" lon="-76.3925110">
        <ele>1699.2</ele>
        <time>2022-08-15T14:58:50Z</time>
      </trkpt>
      <trkpt lat="4.0768710" lon="-76.3924980">
        <ele>1699.6</ele>
        <time>2022-08-15T14:58:53Z</time>
      </trkpt>
      <trkpt lat="4.0769760" lon="-76.3925030">
        <ele>1700.2</ele>
        <time>2022-08-15T14:58:58Z</time>
      </trkpt>
      <trkpt lat="4.0770130" lon="-76.3925040">
        <ele>1700.6</ele>
        <time>2022-08-15T14:59:00Z</time>
      </trkpt>
      <trkpt lat="4.0771310" lon="-76.3924740">
        <ele>1701.2</ele>
        <time>2022-08-15T14:59:05Z</time>
      </trkpt>
      <trkpt lat="4.0771550" lon="-76.3924710">
        <ele>1701.4</ele>
        <time>2022-08-15T14:59:06Z</time>
      </trkpt>
      <trkpt lat="4.0772740" lon="-76.3924670">
        <ele>1702.2</ele>
        <time>2022-08-15T14:59:11Z</time>
      </trkpt>
      <trkpt lat="4.0773250" lon="-76.3924780">
        <ele>1702.6</ele>
        <time>2022-08-15T14:59:13Z</time>
      </trkpt>
      <trkpt lat="4.0773850" lon="-76.3925150">
        <ele>1703.0</ele>
        <time>2022-08-15T14:59:16Z</time>
      </trkpt>
      <trkpt lat="4.0774160" lon="-76.3925370">
        <ele>1703.4</ele>
        <time>2022-08-15T14:59:18Z</time>
      </trkpt>
      <trkpt lat="4.0774460" lon="-76.3925610">
        <ele>1703.6</ele>
        <time>2022-08-15T14:59:20Z</time>
      </trkpt>
      <trkpt lat="4.0775170" lon="-76.3925850">
        <ele>1704.2</ele>
        <time>2022-08-15T14:59:24Z</time>
      </trkpt>
      <trkpt lat="4.0775380" lon="-76.3925840">
        <ele>1704.4</ele>
        <time>2022-08-15T14:59:25Z</time>
      </trkpt>
      <trkpt lat="4.0777090" lon="-76.3925130">
        <ele>1705.4</ele>
        <time>2022-08-15T14:59:33Z</time>
      </trkpt>
      <trkpt lat="4.0777300" lon="-76.3924990">
        <ele>1705.4</ele>
        <time>2022-08-15T14:59:34Z</time>
      </trkpt>
      <trkpt lat="4.0778390" lon="-76.3924170">
        <ele>1706.0</ele>
        <time>2022-08-15T14:59:40Z</time>
      </trkpt>
      <trkpt lat="4.0778660" lon="-76.3923870">
        <ele>1706.4</ele>
        <time>2022-08-15T14:59:43Z</time>
      </trkpt>
      <trkpt lat="4.0779630" lon="-76.3922770">
        <ele>1707.2</ele>
        <time>2022-08-15T14:59:49Z</time>
      </trkpt>
      <trkpt lat="4.0780560" lon="-76.3921310">
        <ele>1708.2</ele>
        <time>2022-08-15T14:59:58Z</time>
      </trkpt>
      <trkpt lat="4.0780610" lon="-76.3921170">
        <ele>1708.6</ele>
        <time>2022-08-15T14:59:59Z</time>
      </trkpt>
      <trkpt lat="4.0780570" lon="-76.3920480">
        <ele>1709.2</ele>
        <time>2022-08-15T15:00:03Z</time>
      </trkpt>
      <trkpt lat="4.0780520" lon="-76.3920310">
        <ele>1709.6</ele>
        <time>2022-08-15T15:00:04Z</time>
      </trkpt>
      <trkpt lat="4.0779770" lon="-76.3919480">
        <ele>1710.6</ele>
        <time>2022-08-15T15:00:10Z</time>
      </trkpt>
      <trkpt lat="4.0779590" lon="-76.3919400">
        <ele>1710.8</ele>
        <time>2022-08-15T15:00:11Z</time>
      </trkpt>
      <trkpt lat="4.0778050" lon="-76.3919360">
        <ele>1711.8</ele>
        <time>2022-08-15T15:00:18Z</time>
      </trkpt>
      <trkpt lat="4.0776320" lon="-76.3919280">
        <ele>1713.0</ele>
        <time>2022-08-15T15:00:26Z</time>
      </trkpt>
      <trkpt lat="4.0775180" lon="-76.3919050">
        <ele>1713.8</ele>
        <time>2022-08-15T15:00:32Z</time>
      </trkpt>
      <trkpt lat="4.0775010" lon="-76.3919000">
        <ele>1714.0</ele>
        <time>2022-08-15T15:00:33Z</time>
      </trkpt>
      <trkpt lat="4.0773390" lon="-76.3918460">
        <ele>1715.2</ele>
        <time>2022-08-15T15:00:40Z</time>
      </trkpt>
      <trkpt lat="4.0772930" lon="-76.3918290">
        <ele>1715.2</ele>
        <time>2022-08-15T15:00:42Z</time>
      </trkpt>
      <trkpt lat="4.0772340" lon="-76.3917480">
        <ele>1716.0</ele>
        <time>2022-08-15T15:00:47Z</time>
      </trkpt>
      <trkpt lat="4.0772340" lon="-76.3917300">
        <ele>1716.2</ele>
        <time>2022-08-15T15:00:48Z</time>
      </trkpt>
      <trkpt lat="4.0772360" lon="-76.3917120">
        <ele>1716.2</ele>
        <time>2022-08-15T15:00:49Z</time>
      </trkpt>
      <trkpt lat="4.0772480" lon="-76.3916180">
        <ele>1717.4</ele>
        <time>2022-08-15T15:00:54Z</time>
      </trkpt>
      <trkpt lat="4.0772460" lon="-76.3915620">
        <ele>1717.6</ele>
        <time>2022-08-15T15:00:57Z</time>
      </trkpt>
      <trkpt lat="4.0772180" lon="-76.3914770">
        <ele>1718.6</ele>
        <time>2022-08-15T15:01:02Z</time>
      </trkpt>
      <trkpt lat="4.0771810" lon="-76.3914320">
        <ele>1719.0</ele>
        <time>2022-08-15T15:01:05Z</time>
      </trkpt>
      <trkpt lat="4.0771350" lon="-76.3913900">
        <ele>1719.6</ele>
        <time>2022-08-15T15:01:08Z</time>
      </trkpt>
      <trkpt lat="4.0770540" lon="-76.3913270">
        <ele>1720.4</ele>
        <time>2022-08-15T15:01:13Z</time>
      </trkpt>
      <trkpt lat="4.0770080" lon="-76.3912950">
        <ele>1720.6</ele>
        <time>2022-08-15T15:01:16Z</time>
      </trkpt>
      <trkpt lat="4.0768980" lon="-76.3912360">
        <ele>1721.2</ele>
        <time>2022-08-15T15:01:23Z</time>
      </trkpt>
      <trkpt lat="4.0768500" lon="-76.3912120">
        <ele>1721.8</ele>
        <time>2022-08-15T15:01:26Z</time>
      </trkpt>
      <trkpt lat="4.0767910" lon="-76.3911650">
        <ele>1722.4</ele>
        <time>2022-08-15T15:01:30Z</time>
      </trkpt>
      <trkpt lat="4.0767280" lon="-76.3911290">
        <ele>1722.8</ele>
        <time>2022-08-15T15:01:34Z</time>
      </trkpt>
      <trkpt lat="4.0766700" lon="-76.3911150">
        <ele>1723.6</ele>
        <time>2022-08-15T15:01:37Z</time>
      </trkpt>
      <trkpt lat="4.0766310" lon="-76.3911060">
        <ele>1723.8</ele>
        <time>2022-08-15T15:01:39Z</time>
      </trkpt>
      <trkpt lat="4.0764830" lon="-76.3910750">
        <ele>1724.8</ele>
        <time>2022-08-15T15:01:47Z</time>
      </trkpt>
      <trkpt lat="4.0763320" lon="-76.3910720">
        <ele>1725.6</ele>
        <time>2022-08-15T15:01:55Z</time>
      </trkpt>
      <trkpt lat="4.0763190" lon="-76.3910760">
        <ele>1725.8</ele>
        <time>2022-08-15T15:01:56Z</time>
      </trkpt>
      <trkpt lat="4.0761790" lon="-76.3910990">
        <ele>1727.0</ele>
        <time>2022-08-15T15:02:04Z</time>
      </trkpt>
      <trkpt lat="4.0761630" lon="-76.3911020">
        <ele>1727.2</ele>
        <time>2022-08-15T15:02:05Z</time>
      </trkpt>
      <trkpt lat="4.0760520" lon="-76.3911310">
        <ele>1728.2</ele>
        <time>2022-08-15T15:02:11Z</time>
      </trkpt>
      <trkpt lat="4.0759540" lon="-76.3911720">
        <ele>1729.0</ele>
        <time>2022-08-15T15:02:16Z</time>
      </trkpt>
      <trkpt lat="4.0759340" lon="-76.3911790">
        <ele>1729.2</ele>
        <time>2022-08-15T15:02:17Z</time>
      </trkpt>
      <trkpt lat="4.0757780" lon="-76.3912010">
        <ele>1730.4</ele>
        <time>2022-08-15T15:02:24Z</time>
      </trkpt>
      <trkpt lat="4.0757520" lon="-76.3912020">
        <ele>1730.4</ele>
        <time>2022-08-15T15:02:25Z</time>
      </trkpt>
      <trkpt lat="4.0756370" lon="-76.3911750">
        <ele>1731.2</ele>
        <time>2022-08-15T15:02:30Z</time>
      </trkpt>
      <trkpt lat="4.0756020" lon="-76.3911530">
        <ele>1731.4</ele>
        <time>2022-08-15T15:02:32Z</time>
      </trkpt>
      <trkpt lat="4.0755240" lon="-76.3910640">
        <ele>1732.0</ele>
        <time>2022-08-15T15:02:37Z</time>
      </trkpt>
      <trkpt lat="4.0754780" lon="-76.3910180">
        <ele>1732.4</ele>
        <time>2022-08-15T15:02:40Z</time>
      </trkpt>
      <trkpt lat="4.0754240" lon="-76.3909860">
        <ele>1732.8</ele>
        <time>2022-08-15T15:02:43Z</time>
      </trkpt>
      <trkpt lat="4.0753450" lon="-76.3909750">
        <ele>1733.6</ele>
        <time>2022-08-15T15:02:47Z</time>
      </trkpt>
      <trkpt lat="4.0753250" lon="-76.3909810">
        <ele>1733.8</ele>
        <time>2022-08-15T15:02:48Z</time>
      </trkpt>
      <trkpt lat="4.0752210" lon="-76.3910400">
        <ele>1734.6</ele>
        <time>2022-08-15T15:02:53Z</time>
      </trkpt>
      <trkpt lat="4.0751490" lon="-76.3910920">
        <ele>1735.4</ele>
        <time>2022-08-15T15:02:56Z</time>
      </trkpt>
      <trkpt lat="4.0750970" lon="-76.3911190">
        <ele>1735.8</ele>
        <time>2022-08-15T15:02:58Z</time>
      </trkpt>
      <trkpt lat="4.0749980" lon="-76.3911560">
        <ele>1736.0</ele>
        <time>2022-08-15T15:03:01Z</time>
      </trkpt>
      <trkpt lat="4.0748260" lon="-76.3911440">
        <ele>1736.2</ele>
        <time>2022-08-15T15:03:06Z</time>
      </trkpt>
      <trkpt lat="4.0746160" lon="-76.3910980">
        <ele>1736.6</ele>
        <time>2022-08-15T15:03:13Z</time>
      </trkpt>
      <trkpt lat="4.0744910" lon="-76.3910520">
        <ele>1736.8</ele>
        <time>2022-08-15T15:03:18Z</time>
      </trkpt>
      <trkpt lat="4.0744480" lon="-76.3910320">
        <ele>1737.0</ele>
        <time>2022-08-15T15:03:20Z</time>
      </trkpt>
      <trkpt lat="4.0743730" lon="-76.3910010">
        <ele>1737.8</ele>
        <time>2022-08-15T15:03:24Z</time>
      </trkpt>
      <trkpt lat="4.0743280" lon="-76.3909950">
        <ele>1738.4</ele>
        <time>2022-08-15T15:03:26Z</time>
      </trkpt>
      <trkpt lat="4.0742640" lon="-76.3909840">
        <ele>1739.2</ele>
        <time>2022-08-15T15:03:29Z</time>
      </trkpt>
      <trkpt lat="4.0741640" lon="-76.3909740">
        <ele>1740.2</ele>
        <time>2022-08-15T15:03:34Z</time>
      </trkpt>
      <trkpt lat="4.0740590" lon="-76.3909710">
        <ele>1741.2</ele>
        <time>2022-08-15T15:03:40Z</time>
      </trkpt>
      <trkpt lat="4.0740400" lon="-76.3909730">
        <ele>1741.4</ele>
        <time>2022-08-15T15:03:41Z</time>
      </trkpt>
      <trkpt lat="4.0739060" lon="-76.3910220">
        <ele>1742.4</ele>
        <time>2022-08-15T15:03:48Z</time>
      </trkpt>
      <trkpt lat="4.0738870" lon="-76.3910310">
        <ele>1742.6</ele>
        <time>2022-08-15T15:03:49Z</time>
      </trkpt>
      <trkpt lat="4.0737870" lon="-76.3910780">
        <ele>1743.6</ele>
        <time>2022-08-15T15:03:54Z</time>
      </trkpt>
      <trkpt lat="4.0737280" lon="-76.3911140">
        <ele>1743.8</ele>
        <time>2022-08-15T15:03:57Z</time>
      </trkpt>
      <trkpt lat="4.0735980" lon="-76.3911470">
        <ele>1744.4</ele>
        <time>2022-08-15T15:04:03Z</time>
      </trkpt>
      <trkpt lat="4.0735770" lon="-76.3911520">
        <ele>1744.6</ele>
        <time>2022-08-15T15:04:04Z</time>
      </trkpt>
      <trkpt lat="4.0734460" lon="-76.3911750">
        <ele>1745.2</ele>
        <time>2022-08-15T15:04:10Z</time>
      </trkpt>
      <trkpt lat="4.0733950" lon="-76.3911780">
        <ele>1745.4</ele>
        <time>2022-08-15T15:04:12Z</time>
      </trkpt>
      <trkpt lat="4.0732490" lon="-76.3911580">
        <ele>1746.4</ele>
        <time>2022-08-15T15:04:18Z</time>
      </trkpt>
      <trkpt lat="4.0730570" lon="-76.3911070">
        <ele>1747.4</ele>
        <time>2022-08-15T15:04:25Z</time>
      </trkpt>
      <trkpt lat="4.0730210" lon="-76.3911000">
        <ele>1747.8</ele>
        <time>2022-08-15T15:04:26Z</time>
      </trkpt>
      <trkpt lat="4.0728400" lon="-76.3910610">
        <ele>1748.6</ele>
        <time>2022-08-15T15:04:33Z</time>
      </trkpt>
      <trkpt lat="4.0727450" lon="-76.3910470">
        <ele>1749.0</ele>
        <time>2022-08-15T15:04:36Z</time>
      </trkpt>
      <trkpt lat="4.0726240" lon="-76.3910380">
        <ele>1749.6</ele>
        <time>2022-08-15T15:04:40Z</time>
      </trkpt>
      <trkpt lat="4.0725410" lon="-76.3910480">
        <ele>1749.8</ele>
        <time>2022-08-15T15:04:43Z</time>
      </trkpt>
      <trkpt lat="4.0723130" lon="-76.3910640">
        <ele>1750.2</ele>
        <time>2022-08-15T15:04:50Z</time>
      </trkpt>
      <trkpt lat="4.0721700" lon="-76.3911530">
        <ele>1750.0</ele>
        <time>2022-08-15T15:04:55Z</time>
      </trkpt>
      <trkpt lat="4.0721410" lon="-76.3912280">
        <ele>1750.0</ele>
        <time>2022-08-15T15:04:57Z</time>
      </trkpt>
      <trkpt lat="4.0721430" lon="-76.3913140">
        <ele>1750.0</ele>
        <time>2022-08-15T15:04:59Z</time>
      </trkpt>
      <trkpt lat="4.0721830" lon="-76.3914970">
        <ele>1749.6</ele>
        <time>2022-08-15T15:05:03Z</time>
      </trkpt>
      <trkpt lat="4.0721720" lon="-76.3916020">
        <ele>1749.2</ele>
        <time>2022-08-15T15:05:05Z</time>
      </trkpt>
      <trkpt lat="4.0721200" lon="-76.3916650">
        <ele>1749.0</ele>
        <time>2022-08-15T15:05:07Z</time>
      </trkpt>
      <trkpt lat="4.0720860" lon="-76.3916820">
        <ele>1748.6</ele>
        <time>2022-08-15T15:05:08Z</time>
      </trkpt>
      <trkpt lat="4.0720510" lon="-76.3916800">
        <ele>1748.6</ele>
        <time>2022-08-15T15:05:09Z</time>
      </trkpt>
      <trkpt lat="4.0719800" lon="-76.3916400">
        <ele>1747.8</ele>
        <time>2022-08-15T15:05:11Z</time>
      </trkpt>
      <trkpt lat="4.0719550" lon="-76.3916180">
        <ele>1747.4</ele>
        <time>2022-08-15T15:05:12Z</time>
      </trkpt>
      <trkpt lat="4.0718160" lon="-76.3915010">
        <ele>1746.8</ele>
        <time>2022-08-15T15:05:17Z</time>
      </trkpt>
      <trkpt lat="4.0716250" lon="-76.3914570">
        <ele>1746.8</ele>
        <time>2022-08-15T15:05:22Z</time>
      </trkpt>
      <trkpt lat="4.0713970" lon="-76.3914670">
        <ele>1747.0</ele>
        <time>2022-08-15T15:05:28Z</time>
      </trkpt>
      <trkpt lat="4.0710840" lon="-76.3913900">
        <ele>1747.2</ele>
        <time>2022-08-15T15:05:36Z</time>
      </trkpt>
      <trkpt lat="4.0708700" lon="-76.3912910">
        <ele>1747.6</ele>
        <time>2022-08-15T15:05:43Z</time>
      </trkpt>
      <trkpt lat="4.0708270" lon="-76.3912510">
        <ele>1747.6</ele>
        <time>2022-08-15T15:05:45Z</time>
      </trkpt>
      <trkpt lat="4.0708140" lon="-76.3912220">
        <ele>1747.8</ele>
        <time>2022-08-15T15:05:46Z</time>
      </trkpt>
      <trkpt lat="4.0708020" lon="-76.3911510">
        <ele>1748.2</ele>
        <time>2022-08-15T15:05:48Z</time>
      </trkpt>
      <trkpt lat="4.0707750" lon="-76.3910640">
        <ele>1748.6</ele>
        <time>2022-08-15T15:05:51Z</time>
      </trkpt>
      <trkpt lat="4.0707550" lon="-76.3909340">
        <ele>1748.6</ele>
        <time>2022-08-15T15:05:55Z</time>
      </trkpt>
      <trkpt lat="4.0707280" lon="-76.3908170">
        <ele>1749.0</ele>
        <time>2022-08-15T15:05:59Z</time>
      </trkpt>
      <trkpt lat="4.0707140" lon="-76.3907270">
        <ele>1749.4</ele>
        <time>2022-08-15T15:06:02Z</time>
      </trkpt>
      <trkpt lat="4.0706880" lon="-76.3906150">
        <ele>1750.4</ele>
        <time>2022-08-15T15:06:06Z</time>
      </trkpt>
      <trkpt lat="4.0706840" lon="-76.3905870">
        <ele>1750.8</ele>
        <time>2022-08-15T15:06:07Z</time>
      </trkpt>
      <trkpt lat="4.0706680" lon="-76.3905020">
        <ele>1751.8</ele>
        <time>2022-08-15T15:06:10Z</time>
      </trkpt>
      <trkpt lat="4.0706580" lon="-76.3904420">
        <ele>1752.6</ele>
        <time>2022-08-15T15:06:12Z</time>
      </trkpt>
      <trkpt lat="4.0706500" lon="-76.3904130">
        <ele>1753.0</ele>
        <time>2022-08-15T15:06:13Z</time>
      </trkpt>
      <trkpt lat="4.0705870" lon="-76.3900910">
        <ele>1753.6</ele>
        <time>2022-08-15T15:06:22Z</time>
      </trkpt>
      <trkpt lat="4.0705080" lon="-76.3897170">
        <ele>1753.4</ele>
        <time>2022-08-15T15:06:31Z</time>
      </trkpt>
      <trkpt lat="4.0704710" lon="-76.3895280">
        <ele>1753.4</ele>
        <time>2022-08-15T15:06:37Z</time>
      </trkpt>
      <trkpt lat="4.0704490" lon="-76.3894500">
        <ele>1754.0</ele>
        <time>2022-08-15T15:06:40Z</time>
      </trkpt>
      <trkpt lat="4.0704360" lon="-76.3893530">
        <ele>1755.4</ele>
        <time>2022-08-15T15:06:44Z</time>
      </trkpt>
      <trkpt lat="4.0704330" lon="-76.3893310">
        <ele>1755.6</ele>
        <time>2022-08-15T15:06:45Z</time>
      </trkpt>
      <trkpt lat="4.0704150" lon="-76.3892440">
        <ele>1756.4</ele>
        <time>2022-08-15T15:06:50Z</time>
      </trkpt>
      <trkpt lat="4.0704070" lon="-76.3892070">
        <ele>1756.8</ele>
        <time>2022-08-15T15:06:51Z</time>
      </trkpt>
      <trkpt lat="4.0703980" lon="-76.3891420">
        <ele>1757.6</ele>
        <time>2022-08-15T15:06:55Z</time>
      </trkpt>
      <trkpt lat="4.0704020" lon="-76.3890750">
        <ele>1758.4</ele>
        <time>2022-08-15T15:06:59Z</time>
      </trkpt>
      <trkpt lat="4.0704000" lon="-76.3890600">
        <ele>1758.6</ele>
        <time>2022-08-15T15:07:00Z</time>
      </trkpt>
      <trkpt lat="4.0703890" lon="-76.3890050">
        <ele>1759.8</ele>
        <time>2022-08-15T15:07:04Z</time>
      </trkpt>
      <trkpt lat="4.0703740" lon="-76.3889390">
        <ele>1760.2</ele>
        <time>2022-08-15T15:07:08Z</time>
      </trkpt>
      <trkpt lat="4.0703620" lon="-76.3888840">
        <ele>1760.8</ele>
        <time>2022-08-15T15:07:11Z</time>
      </trkpt>
      <trkpt lat="4.0703550" lon="-76.3888450">
        <ele>1761.8</ele>
        <time>2022-08-15T15:07:14Z</time>
      </trkpt>
      <trkpt lat="4.0703350" lon="-76.3887270">
        <ele>1762.8</ele>
        <time>2022-08-15T15:07:18Z</time>
      </trkpt>
      <trkpt lat="4.0703280" lon="-76.3887020">
        <ele>1763.0</ele>
        <time>2022-08-15T15:07:19Z</time>
      </trkpt>
      <trkpt lat="4.0702980" lon="-76.3885680">
        <ele>1763.4</ele>
        <time>2022-08-15T15:07:24Z</time>
      </trkpt>
      <trkpt lat="4.0702870" lon="-76.3884590">
        <ele>1764.0</ele>
        <time>2022-08-15T15:07:29Z</time>
      </trkpt>
      <trkpt lat="4.0702680" lon="-76.3883580">
        <ele>1764.2</ele>
        <time>2022-08-15T15:07:32Z</time>
      </trkpt>
      <trkpt lat="4.0702140" lon="-76.3882560">
        <ele>1764.4</ele>
        <time>2022-08-15T15:07:37Z</time>
      </trkpt>
      <trkpt lat="4.0701000" lon="-76.3882560">
        <ele>1764.4</ele>
        <time>2022-08-15T15:07:41Z</time>
      </trkpt>
      <trkpt lat="4.0698690" lon="-76.3882940">
        <ele>1763.6</ele>
        <time>2022-08-15T15:07:45Z</time>
      </trkpt>
      <trkpt lat="4.0698240" lon="-76.3883040">
        <ele>1763.2</ele>
        <time>2022-08-15T15:07:46Z</time>
      </trkpt>
      <trkpt lat="4.0697790" lon="-76.3883170">
        <ele>1762.8</ele>
        <time>2022-08-15T15:07:47Z</time>
      </trkpt>
      <trkpt lat="4.0696840" lon="-76.3883410">
        <ele>1761.6</ele>
        <time>2022-08-15T15:07:49Z</time>
      </trkpt>
      <trkpt lat="4.0695950" lon="-76.3883650">
        <ele>1759.8</ele>
        <time>2022-08-15T15:07:51Z</time>
      </trkpt>
      <trkpt lat="4.0694850" lon="-76.3883780">
        <ele>1758.4</ele>
        <time>2022-08-15T15:07:54Z</time>
      </trkpt>
      <trkpt lat="4.0694350" lon="-76.3883440">
        <ele>1757.0</ele>
        <time>2022-08-15T15:07:56Z</time>
      </trkpt>
      <trkpt lat="4.0694190" lon="-76.3883070">
        <ele>1756.2</ele>
        <time>2022-08-15T15:07:57Z</time>
      </trkpt>
      <trkpt lat="4.0694040" lon="-76.3882570">
        <ele>1755.4</ele>
        <time>2022-08-15T15:07:58Z</time>
      </trkpt>
      <trkpt lat="4.0693810" lon="-76.3882010">
        <ele>1755.4</ele>
        <time>2022-08-15T15:07:59Z</time>
      </trkpt>
      <trkpt lat="4.0693600" lon="-76.3881360">
        <ele>1754.8</ele>
        <time>2022-08-15T15:08:00Z</time>
      </trkpt>
      <trkpt lat="4.0693440" lon="-76.3880620">
        <ele>1754.2</ele>
        <time>2022-08-15T15:08:01Z</time>
      </trkpt>
      <trkpt lat="4.0693070" lon="-76.3879060">
        <ele>1753.0</ele>
        <time>2022-08-15T15:08:03Z</time>
      </trkpt>
      <trkpt lat="4.0692860" lon="-76.3878250">
        <ele>1752.6</ele>
        <time>2022-08-15T15:08:04Z</time>
      </trkpt>
      <trkpt lat="4.0692460" lon="-76.3876690">
        <ele>1751.0</ele>
        <time>2022-08-15T15:08:06Z</time>
      </trkpt>
      <trkpt lat="4.0692260" lon="-76.3875930">
        <ele>1749.6</ele>
        <time>2022-08-15T15:08:07Z</time>
      </trkpt>
      <trkpt lat="4.0692070" lon="-76.3875180">
        <ele>1748.2</ele>
        <time>2022-08-15T15:08:08Z</time>
      </trkpt>
      <trkpt lat="4.0691890" lon="-76.3874460">
        <ele>1746.4</ele>
        <time>2022-08-15T15:08:09Z</time>
      </trkpt>
      <trkpt lat="4.0691690" lon="-76.3873770">
        <ele>1744.6</ele>
        <time>2022-08-15T15:08:10Z</time>
      </trkpt>
      <trkpt lat="4.0691480" lon="-76.3873110">
        <ele>1743.0</ele>
        <time>2022-08-15T15:08:11Z</time>
      </trkpt>
      <trkpt lat="4.0691290" lon="-76.3872540">
        <ele>1741.4</ele>
        <time>2022-08-15T15:08:12Z</time>
      </trkpt>
      <trkpt lat="4.0691060" lon="-76.3872030">
        <ele>1740.0</ele>
        <time>2022-08-15T15:08:13Z</time>
      </trkpt>
      <trkpt lat="4.0690750" lon="-76.3871550">
        <ele>1738.6</ele>
        <time>2022-08-15T15:08:14Z</time>
      </trkpt>
      <trkpt lat="4.0690340" lon="-76.3871100">
        <ele>1737.4</ele>
        <time>2022-08-15T15:08:15Z</time>
      </trkpt>
      <trkpt lat="4.0689790" lon="-76.3870690">
        <ele>1735.8</ele>
        <time>2022-08-15T15:08:16Z</time>
      </trkpt>
      <trkpt lat="4.0689150" lon="-76.3870230">
        <ele>1734.4</ele>
        <time>2022-08-15T15:08:17Z</time>
      </trkpt>
      <trkpt lat="4.0688430" lon="-76.3869740">
        <ele>1732.8</ele>
        <time>2022-08-15T15:08:18Z</time>
      </trkpt>
      <trkpt lat="4.0687640" lon="-76.3869220">
        <ele>1731.8</ele>
        <time>2022-08-15T15:08:19Z</time>
      </trkpt>
      <trkpt lat="4.0686020" lon="-76.3868100">
        <ele>1730.0</ele>
        <time>2022-08-15T15:08:21Z</time>
      </trkpt>
      <trkpt lat="4.0684730" lon="-76.3866730">
        <ele>1729.2</ele>
        <time>2022-08-15T15:08:23Z</time>
      </trkpt>
      <trkpt lat="4.0684280" lon="-76.3865970">
        <ele>1728.4</ele>
        <time>2022-08-15T15:08:24Z</time>
      </trkpt>
      <trkpt lat="4.0684010" lon="-76.3865190">
        <ele>1727.6</ele>
        <time>2022-08-15T15:08:25Z</time>
      </trkpt>
      <trkpt lat="4.0683990" lon="-76.3864270">
        <ele>1726.8</ele>
        <time>2022-08-15T15:08:26Z</time>
      </trkpt>
      <trkpt lat="4.0684210" lon="-76.3863680">
        <ele>1725.6</ele>
        <time>2022-08-15T15:08:27Z</time>
      </trkpt>
      <trkpt lat="4.0684490" lon="-76.3862980">
        <ele>1724.4</ele>
        <time>2022-08-15T15:08:28Z</time>
      </trkpt>
      <trkpt lat="4.0684730" lon="-76.3862320">
        <ele>1723.0</ele>
        <time>2022-08-15T15:08:29Z</time>
      </trkpt>
      <trkpt lat="4.0684890" lon="-76.3861680">
        <ele>1722.2</ele>
        <time>2022-08-15T15:08:30Z</time>
      </trkpt>
      <trkpt lat="4.0684920" lon="-76.3861070">
        <ele>1721.8</ele>
        <time>2022-08-15T15:08:31Z</time>
      </trkpt>
      <trkpt lat="4.0684780" lon="-76.3860500">
        <ele>1721.6</ele>
        <time>2022-08-15T15:08:32Z</time>
      </trkpt>
      <trkpt lat="4.0684510" lon="-76.3859980">
        <ele>1721.4</ele>
        <time>2022-08-15T15:08:33Z</time>
      </trkpt>
      <trkpt lat="4.0683550" lon="-76.3858650">
        <ele>1721.4</ele>
        <time>2022-08-15T15:08:36Z</time>
      </trkpt>
      <trkpt lat="4.0683290" lon="-76.3858210">
        <ele>1721.4</ele>
        <time>2022-08-15T15:08:37Z</time>
      </trkpt>
      <trkpt lat="4.0683010" lon="-76.3857290">
        <ele>1721.4</ele>
        <time>2022-08-15T15:08:39Z</time>
      </trkpt>
      <trkpt lat="4.0683020" lon="-76.3855930">
        <ele>1722.0</ele>
        <time>2022-08-15T15:08:42Z</time>
      </trkpt>
      <trkpt lat="4.0683170" lon="-76.3855140">
        <ele>1722.4</ele>
        <time>2022-08-15T15:08:44Z</time>
      </trkpt>
      <trkpt lat="4.0683290" lon="-76.3854470">
        <ele>1722.8</ele>
        <time>2022-08-15T15:08:46Z</time>
      </trkpt>
      <trkpt lat="4.0683400" lon="-76.3853400">
        <ele>1723.6</ele>
        <time>2022-08-15T15:08:50Z</time>
      </trkpt>
      <trkpt lat="4.0683370" lon="-76.3853140">
        <ele>1724.0</ele>
        <time>2022-08-15T15:08:51Z</time>
      </trkpt>
      <trkpt lat="4.0683190" lon="-76.3852270">
        <ele>1725.2</ele>
        <time>2022-08-15T15:08:55Z</time>
      </trkpt>
      <trkpt lat="4.0683010" lon="-76.3851870">
        <ele>1726.0</ele>
        <time>2022-08-15T15:08:57Z</time>
      </trkpt>
      <trkpt lat="4.0682860" lon="-76.3851700">
        <ele>1726.4</ele>
        <time>2022-08-15T15:08:58Z</time>
      </trkpt>
      <trkpt lat="4.0682210" lon="-76.3851050">
        <ele>1727.6</ele>
        <time>2022-08-15T15:09:02Z</time>
      </trkpt>
      <trkpt lat="4.0681700" lon="-76.3850640">
        <ele>1728.4</ele>
        <time>2022-08-15T15:09:05Z</time>
      </trkpt>
      <trkpt lat="4.0681320" lon="-76.3850470">
        <ele>1728.8</ele>
        <time>2022-08-15T15:09:07Z</time>
      </trkpt>
      <trkpt lat="4.0680210" lon="-76.3849990">
        <ele>1729.8</ele>
        <time>2022-08-15T15:09:13Z</time>
      </trkpt>
      <trkpt lat="4.0679490" lon="-76.3849660">
        <ele>1730.6</ele>
        <time>2022-08-15T15:09:17Z</time>
      </trkpt>
      <trkpt lat="4.0679310" lon="-76.3849590">
        <ele>1731.0</ele>
        <time>2022-08-15T15:09:18Z</time>
      </trkpt>
      <trkpt lat="4.0678780" lon="-76.3849360">
        <ele>1731.6</ele>
        <time>2022-08-15T15:09:21Z</time>
      </trkpt>
      <trkpt lat="4.0678310" lon="-76.3849050">
        <ele>1732.2</ele>
        <time>2022-08-15T15:09:24Z</time>
      </trkpt>
      <trkpt lat="4.0677350" lon="-76.3848290">
        <ele>1733.2</ele>
        <time>2022-08-15T15:09:30Z</time>
      </trkpt>
      <trkpt lat="4.0677240" lon="-76.3848100">
        <ele>1733.2</ele>
        <time>2022-08-15T15:09:31Z</time>
      </trkpt>
      <trkpt lat="4.0676850" lon="-76.3846740">
        <ele>1734.4</ele>
        <time>2022-08-15T15:09:38Z</time>
      </trkpt>
      <trkpt lat="4.0677170" lon="-76.3845250">
        <ele>1735.4</ele>
        <time>2022-08-15T15:09:45Z</time>
      </trkpt>
      <trkpt lat="4.0677520" lon="-76.3844450">
        <ele>1736.0</ele>
        <time>2022-08-15T15:09:49Z</time>
      </trkpt>
      <trkpt lat="4.0677730" lon="-76.3843200">
        <ele>1736.6</ele>
        <time>2022-08-15T15:09:55Z</time>
      </trkpt>
      <trkpt lat="4.0677660" lon="-76.3842980">
        <ele>1736.6</ele>
        <time>2022-08-15T15:09:56Z</time>
      </trkpt>
      <trkpt lat="4.0677190" lon="-76.3841220">
        <ele>1737.6</ele>
        <time>2022-08-15T15:10:04Z</time>
      </trkpt>
      <trkpt lat="4.0677120" lon="-76.3840980">
        <ele>1737.6</ele>
        <time>2022-08-15T15:10:05Z</time>
      </trkpt>
      <trkpt lat="4.0676350" lon="-76.3839320">
        <ele>1738.4</ele>
        <time>2022-08-15T15:10:13Z</time>
      </trkpt>
      <trkpt lat="4.0676050" lon="-76.3838640">
        <ele>1738.6</ele>
        <time>2022-08-15T15:10:15Z</time>
      </trkpt>
      <trkpt lat="4.0675400" lon="-76.3836670">
        <ele>1738.8</ele>
        <time>2022-08-15T15:10:23Z</time>
      </trkpt>
      <trkpt lat="4.0674350" lon="-76.3834810">
        <ele>1739.6</ele>
        <time>2022-08-15T15:10:31Z</time>
      </trkpt>
      <trkpt lat="4.0674150" lon="-76.3834630">
        <ele>1739.8</ele>
        <time>2022-08-15T15:10:32Z</time>
      </trkpt>
      <trkpt lat="4.0672660" lon="-76.3833360">
        <ele>1740.6</ele>
        <time>2022-08-15T15:10:39Z</time>
      </trkpt>
      <trkpt lat="4.0672010" lon="-76.3831800">
        <ele>1741.4</ele>
        <time>2022-08-15T15:10:45Z</time>
      </trkpt>
      <trkpt lat="4.0671950" lon="-76.3830220">
        <ele>1741.6</ele>
        <time>2022-08-15T15:10:51Z</time>
      </trkpt>
      <trkpt lat="4.0671920" lon="-76.3829700">
        <ele>1742.0</ele>
        <time>2022-08-15T15:10:53Z</time>
      </trkpt>
      <trkpt lat="4.0671260" lon="-76.3829040">
        <ele>1742.6</ele>
        <time>2022-08-15T15:10:57Z</time>
      </trkpt>
      <trkpt lat="4.0670830" lon="-76.3829240">
        <ele>1742.6</ele>
        <time>2022-08-15T15:10:59Z</time>
      </trkpt>
      <trkpt lat="4.0670550" lon="-76.3829570">
        <ele>1742.8</ele>
        <time>2022-08-15T15:11:01Z</time>
      </trkpt>
      <trkpt lat="4.0670250" lon="-76.3830100">
        <ele>1743.0</ele>
        <time>2022-08-15T15:11:05Z</time>
      </trkpt>
      <trkpt lat="4.0670140" lon="-76.3830330">
        <ele>1743.0</ele>
        <time>2022-08-15T15:11:07Z</time>
      </trkpt>
      <trkpt lat="4.0669850" lon="-76.3830760">
        <ele>1743.8</ele>
        <time>2022-08-15T15:11:12Z</time>
      </trkpt>
      <trkpt lat="4.0669680" lon="-76.3830980">
        <ele>1744.0</ele>
        <time>2022-08-15T15:11:14Z</time>
      </trkpt>
      <trkpt lat="4.0669130" lon="-76.3831390">
        <ele>1745.0</ele>
        <time>2022-08-15T15:11:18Z</time>
      </trkpt>
      <trkpt lat="4.0668560" lon="-76.3831580">
        <ele>1745.8</ele>
        <time>2022-08-15T15:11:22Z</time>
      </trkpt>
      <trkpt lat="4.0668310" lon="-76.3831660">
        <ele>1746.0</ele>
        <time>2022-08-15T15:11:24Z</time>
      </trkpt>
      <trkpt lat="4.0667110" lon="-76.3832060">
        <ele>1747.0</ele>
        <time>2022-08-15T15:11:31Z</time>
      </trkpt>
      <trkpt lat="4.0666770" lon="-76.3832110">
        <ele>1747.2</ele>
        <time>2022-08-15T15:11:33Z</time>
      </trkpt>
      <trkpt lat="4.0665680" lon="-76.3832400">
        <ele>1748.0</ele>
        <time>2022-08-15T15:11:40Z</time>
      </trkpt>
      <trkpt lat="4.0665370" lon="-76.3832530">
        <ele>1748.4</ele>
        <time>2022-08-15T15:11:42Z</time>
      </trkpt>
      <trkpt lat="4.0664520" lon="-76.3832820">
        <ele>1749.2</ele>
        <time>2022-08-15T15:11:47Z</time>
      </trkpt>
      <trkpt lat="4.0663510" lon="-76.3833070">
        <ele>1749.6</ele>
        <time>2022-08-15T15:11:52Z</time>
      </trkpt>
      <trkpt lat="4.0662480" lon="-76.3833300">
        <ele>1750.2</ele>
        <time>2022-08-15T15:11:57Z</time>
      </trkpt>
      <trkpt lat="4.0661800" lon="-76.3833390">
        <ele>1750.4</ele>
        <time>2022-08-15T15:12:00Z</time>
      </trkpt>
      <trkpt lat="4.0660140" lon="-76.3833380">
        <ele>1750.8</ele>
        <time>2022-08-15T15:12:07Z</time>
      </trkpt>
      <trkpt lat="4.0658930" lon="-76.3833150">
        <ele>1751.4</ele>
        <time>2022-08-15T15:12:12Z</time>
      </trkpt>
      <trkpt lat="4.0658490" lon="-76.3833000">
        <ele>1751.6</ele>
        <time>2022-08-15T15:12:14Z</time>
      </trkpt>
      <trkpt lat="4.0657490" lon="-76.3832800">
        <ele>1751.8</ele>
        <time>2022-08-15T15:12:19Z</time>
      </trkpt>
      <trkpt lat="4.0657100" lon="-76.3832670">
        <ele>1752.0</ele>
        <time>2022-08-15T15:12:21Z</time>
      </trkpt>
      <trkpt lat="4.0656500" lon="-76.3832460">
        <ele>1752.4</ele>
        <time>2022-08-15T15:12:24Z</time>
      </trkpt>
      <trkpt lat="4.0654900" lon="-76.3832070">
        <ele>1753.4</ele>
        <time>2022-08-15T15:12:31Z</time>
      </trkpt>
      <trkpt lat="4.0654620" lon="-76.3832020">
        <ele>1753.6</ele>
        <time>2022-08-15T15:12:32Z</time>
      </trkpt>
      <trkpt lat="4.0653410" lon="-76.3832230">
        <ele>1753.8</ele>
        <time>2022-08-15T15:12:36Z</time>
      </trkpt>
      <trkpt lat="4.0651570" lon="-76.3833540">
        <ele>1754.0</ele>
        <time>2022-08-15T15:12:43Z</time>
      </trkpt>
      <trkpt lat="4.0649820" lon="-76.3834210">
        <ele>1754.0</ele>
        <time>2022-08-15T15:12:49Z</time>
      </trkpt>
      <trkpt lat="4.0647750" lon="-76.3834010">
        <ele>1754.4</ele>
        <time>2022-08-15T15:12:56Z</time>
      </trkpt>
      <trkpt lat="4.0646930" lon="-76.3834080">
        <ele>1754.6</ele>
        <time>2022-08-15T15:12:59Z</time>
      </trkpt>
      <trkpt lat="4.0646510" lon="-76.3834220">
        <ele>1754.8</ele>
        <time>2022-08-15T15:13:01Z</time>
      </trkpt>
      <trkpt lat="4.0645680" lon="-76.3834700">
        <ele>1755.6</ele>
        <time>2022-08-15T15:13:05Z</time>
      </trkpt>
      <trkpt lat="4.0645340" lon="-76.3834960">
        <ele>1756.0</ele>
        <time>2022-08-15T15:13:07Z</time>
      </trkpt>
      <trkpt lat="4.0644730" lon="-76.3835640">
        <ele>1756.6</ele>
        <time>2022-08-15T15:13:11Z</time>
      </trkpt>
      <trkpt lat="4.0644340" lon="-76.3836480">
        <ele>1757.2</ele>
        <time>2022-08-15T15:13:15Z</time>
      </trkpt>
      <trkpt lat="4.0644240" lon="-76.3837170">
        <ele>1757.6</ele>
        <time>2022-08-15T15:13:18Z</time>
      </trkpt>
      <trkpt lat="4.0644150" lon="-76.3838360">
        <ele>1758.4</ele>
        <time>2022-08-15T15:13:23Z</time>
      </trkpt>
      <trkpt lat="4.0643970" lon="-76.3839000">
        <ele>1758.8</ele>
        <time>2022-08-15T15:13:26Z</time>
      </trkpt>
      <trkpt lat="4.0643600" lon="-76.3840090">
        <ele>1759.4</ele>
        <time>2022-08-15T15:13:31Z</time>
      </trkpt>
      <trkpt lat="4.0643520" lon="-76.3840490">
        <ele>1759.8</ele>
        <time>2022-08-15T15:13:33Z</time>
      </trkpt>
      <trkpt lat="4.0643250" lon="-76.3841910">
        <ele>1760.8</ele>
        <time>2022-08-15T15:13:39Z</time>
      </trkpt>
      <trkpt lat="4.0643210" lon="-76.3842180">
        <ele>1760.8</ele>
        <time>2022-08-15T15:13:40Z</time>
      </trkpt>
      <trkpt lat="4.0643120" lon="-76.3844370">
        <ele>1761.8</ele>
        <time>2022-08-15T15:13:48Z</time>
      </trkpt>
      <trkpt lat="4.0643120" lon="-76.3844580">
        <ele>1762.0</ele>
        <time>2022-08-15T15:13:49Z</time>
      </trkpt>
      <trkpt lat="4.0643570" lon="-76.3845950">
        <ele>1762.4</ele>
        <time>2022-08-15T15:13:54Z</time>
      </trkpt>
      <trkpt lat="4.0644820" lon="-76.3847460">
        <ele>1762.6</ele>
        <time>2022-08-15T15:13:59Z</time>
      </trkpt>
      <trkpt lat="4.0645270" lon="-76.3849260">
        <ele>1762.6</ele>
        <time>2022-08-15T15:14:04Z</time>
      </trkpt>
      <trkpt lat="4.0644830" lon="-76.3850800">
        <ele>1762.4</ele>
        <time>2022-08-15T15:14:08Z</time>
      </trkpt>
      <trkpt lat="4.0644540" lon="-76.3851480">
        <ele>1762.2</ele>
        <time>2022-08-15T15:14:10Z</time>
      </trkpt>
      <trkpt lat="4.0644160" lon="-76.3853110">
        <ele>1762.2</ele>
        <time>2022-08-15T15:14:14Z</time>
      </trkpt>
      <trkpt lat="4.0644230" lon="-76.3853860">
        <ele>1762.2</ele>
        <time>2022-08-15T15:14:16Z</time>
      </trkpt>
      <trkpt lat="4.0644280" lon="-76.3854300">
        <ele>1762.0</ele>
        <time>2022-08-15T15:14:17Z</time>
      </trkpt>
      <trkpt lat="4.0644280" lon="-76.3855320">
        <ele>1762.0</ele>
        <time>2022-08-15T15:14:19Z</time>
      </trkpt>
      <trkpt lat="4.0644050" lon="-76.3856080">
        <ele>1761.8</ele>
        <time>2022-08-15T15:14:21Z</time>
      </trkpt>
      <trkpt lat="4.0643860" lon="-76.3856500">
        <ele>1761.8</ele>
        <time>2022-08-15T15:14:22Z</time>
      </trkpt>
      <trkpt lat="4.0642880" lon="-76.3858060">
        <ele>1761.2</ele>
        <time>2022-08-15T15:14:26Z</time>
      </trkpt>
      <trkpt lat="4.0642560" lon="-76.3859110">
        <ele>1761.0</ele>
        <time>2022-08-15T15:14:28Z</time>
      </trkpt>
      <trkpt lat="4.0642430" lon="-76.3859770">
        <ele>1760.6</ele>
        <time>2022-08-15T15:14:29Z</time>
      </trkpt>
      <trkpt lat="4.0642250" lon="-76.3860770">
        <ele>1760.4</ele>
        <time>2022-08-15T15:14:31Z</time>
      </trkpt>
      <trkpt lat="4.0641930" lon="-76.3862890">
        <ele>1759.4</ele>
        <time>2022-08-15T15:14:35Z</time>
      </trkpt>
      <trkpt lat="4.0641880" lon="-76.3863420">
        <ele>1759.2</ele>
        <time>2022-08-15T15:14:36Z</time>
      </trkpt>
      <trkpt lat="4.0641830" lon="-76.3864430">
        <ele>1758.8</ele>
        <time>2022-08-15T15:14:38Z</time>
      </trkpt>
      <trkpt lat="4.0641770" lon="-76.3864900">
        <ele>1758.6</ele>
        <time>2022-08-15T15:14:39Z</time>
      </trkpt>
      <trkpt lat="4.0641650" lon="-76.3865350">
        <ele>1758.4</ele>
        <time>2022-08-15T15:14:40Z</time>
      </trkpt>
      <trkpt lat="4.0641470" lon="-76.3865870">
        <ele>1758.4</ele>
        <time>2022-08-15T15:14:41Z</time>
      </trkpt>
      <trkpt lat="4.0641290" lon="-76.3866200">
        <ele>1758.0</ele>
        <time>2022-08-15T15:14:42Z</time>
      </trkpt>
      <trkpt lat="4.0640560" lon="-76.3867290">
        <ele>1757.8</ele>
        <time>2022-08-15T15:14:45Z</time>
      </trkpt>
      <trkpt lat="4.0639870" lon="-76.3867930">
        <ele>1757.6</ele>
        <time>2022-08-15T15:14:47Z</time>
      </trkpt>
      <trkpt lat="4.0639400" lon="-76.3868120">
        <ele>1757.6</ele>
        <time>2022-08-15T15:14:48Z</time>
      </trkpt>
      <trkpt lat="4.0638900" lon="-76.3868160">
        <ele>1757.4</ele>
        <time>2022-08-15T15:14:49Z</time>
      </trkpt>
      <trkpt lat="4.0638420" lon="-76.3868100">
        <ele>1757.2</ele>
        <time>2022-08-15T15:14:50Z</time>
      </trkpt>
      <trkpt lat="4.0637410" lon="-76.3867960">
        <ele>1757.2</ele>
        <time>2022-08-15T15:14:52Z</time>
      </trkpt>
      <trkpt lat="4.0636900" lon="-76.3867980">
        <ele>1757.0</ele>
        <time>2022-08-15T15:14:53Z</time>
      </trkpt>
      <trkpt lat="4.0636070" lon="-76.3868430">
        <ele>1757.0</ele>
        <time>2022-08-15T15:14:55Z</time>
      </trkpt>
      <trkpt lat="4.0635700" lon="-76.3869220">
        <ele>1756.8</ele>
        <time>2022-08-15T15:14:57Z</time>
      </trkpt>
      <trkpt lat="4.0635570" lon="-76.3869720">
        <ele>1756.6</ele>
        <time>2022-08-15T15:14:58Z</time>
      </trkpt>
      <trkpt lat="4.0635490" lon="-76.3870220">
        <ele>1756.6</ele>
        <time>2022-08-15T15:14:59Z</time>
      </trkpt>
      <trkpt lat="4.0635510" lon="-76.3871220">
        <ele>1756.2</ele>
        <time>2022-08-15T15:15:01Z</time>
      </trkpt>
      <trkpt lat="4.0635730" lon="-76.3872280">
        <ele>1756.0</ele>
        <time>2022-08-15T15:15:03Z</time>
      </trkpt>
      <trkpt lat="4.0635900" lon="-76.3873130">
        <ele>1755.8</ele>
        <time>2022-08-15T15:15:05Z</time>
      </trkpt>
      <trkpt lat="4.0635760" lon="-76.3874220">
        <ele>1755.6</ele>
        <time>2022-08-15T15:15:07Z</time>
      </trkpt>
      <trkpt lat="4.0635610" lon="-76.3874690">
        <ele>1755.6</ele>
        <time>2022-08-15T15:15:08Z</time>
      </trkpt>
      <trkpt lat="4.0634760" lon="-76.3876470">
        <ele>1755.0</ele>
        <time>2022-08-15T15:15:12Z</time>
      </trkpt>
      <trkpt lat="4.0634570" lon="-76.3876950">
        <ele>1755.0</ele>
        <time>2022-08-15T15:15:13Z</time>
      </trkpt>
      <trkpt lat="4.0633980" lon="-76.3878970">
        <ele>1754.6</ele>
        <time>2022-08-15T15:15:17Z</time>
      </trkpt>
      <trkpt lat="4.0633930" lon="-76.3879430">
        <ele>1754.6</ele>
        <time>2022-08-15T15:15:18Z</time>
      </trkpt>
      <trkpt lat="4.0633910" lon="-76.3879890">
        <ele>1754.4</ele>
        <time>2022-08-15T15:15:19Z</time>
      </trkpt>
      <trkpt lat="4.0633790" lon="-76.3880680">
        <ele>1754.2</ele>
        <time>2022-08-15T15:15:21Z</time>
      </trkpt>
      <trkpt lat="4.0633740" lon="-76.3881500">
        <ele>1754.2</ele>
        <time>2022-08-15T15:15:23Z</time>
      </trkpt>
      <trkpt lat="4.0633720" lon="-76.3882990">
        <ele>1754.0</ele>
        <time>2022-08-15T15:15:27Z</time>
      </trkpt>
      <trkpt lat="4.0633630" lon="-76.3883330">
        <ele>1754.0</ele>
        <time>2022-08-15T15:15:28Z</time>
      </trkpt>
      <trkpt lat="4.0632700" lon="-76.3884750">
        <ele>1754.4</ele>
        <time>2022-08-15T15:15:33Z</time>
      </trkpt>
      <trkpt lat="4.0632500" lon="-76.3884980">
        <ele>1754.6</ele>
        <time>2022-08-15T15:15:34Z</time>
      </trkpt>
      <trkpt lat="4.0631160" lon="-76.3885580">
        <ele>1755.0</ele>
        <time>2022-08-15T15:15:39Z</time>
      </trkpt>
      <trkpt lat="4.0629060" lon="-76.3886360">
        <ele>1755.2</ele>
        <time>2022-08-15T15:15:45Z</time>
      </trkpt>
      <trkpt lat="4.0628720" lon="-76.3887040">
        <ele>1755.2</ele>
        <time>2022-08-15T15:15:47Z</time>
      </trkpt>
      <trkpt lat="4.0628620" lon="-76.3887920">
        <ele>1755.2</ele>
        <time>2022-08-15T15:15:49Z</time>
      </trkpt>
      <trkpt lat="4.0629060" lon="-76.3889780">
        <ele>1755.4</ele>
        <time>2022-08-15T15:15:55Z</time>
      </trkpt>
      <trkpt lat="4.0629600" lon="-76.3891190">
        <ele>1756.0</ele>
        <time>2022-08-15T15:16:00Z</time>
      </trkpt>
      <trkpt lat="4.0629700" lon="-76.3891720">
        <ele>1756.2</ele>
        <time>2022-08-15T15:16:02Z</time>
      </trkpt>
      <trkpt lat="4.0629730" lon="-76.3893330">
        <ele>1756.8</ele>
        <time>2022-08-15T15:16:07Z</time>
      </trkpt>
      <trkpt lat="4.0629760" lon="-76.3894180">
        <ele>1757.8</ele>
        <time>2022-08-15T15:16:10Z</time>
      </trkpt>
      <trkpt lat="4.0629730" lon="-76.3894430">
        <ele>1758.0</ele>
        <time>2022-08-15T15:16:11Z</time>
      </trkpt>
      <trkpt lat="4.0629680" lon="-76.3895160">
        <ele>1759.0</ele>
        <time>2022-08-15T15:16:15Z</time>
      </trkpt>
      <trkpt lat="4.0629620" lon="-76.3895330">
        <ele>1759.2</ele>
        <time>2022-08-15T15:16:16Z</time>
      </trkpt>
      <trkpt lat="4.0628800" lon="-76.3896350">
        <ele>1760.0</ele>
        <time>2022-08-15T15:16:23Z</time>
      </trkpt>
      <trkpt lat="4.0628670" lon="-76.3896490">
        <ele>1760.2</ele>
        <time>2022-08-15T15:16:24Z</time>
      </trkpt>
      <trkpt lat="4.0627880" lon="-76.3897610">
        <ele>1761.4</ele>
        <time>2022-08-15T15:16:31Z</time>
      </trkpt>
      <trkpt lat="4.0627800" lon="-76.3897780">
        <ele>1761.4</ele>
        <time>2022-08-15T15:16:32Z</time>
      </trkpt>
      <trkpt lat="4.0627240" lon="-76.3899350">
        <ele>1762.2</ele>
        <time>2022-08-15T15:16:40Z</time>
      </trkpt>
      <trkpt lat="4.0627320" lon="-76.3899890">
        <ele>1762.4</ele>
        <time>2022-08-15T15:16:43Z</time>
      </trkpt>
      <trkpt lat="4.0627400" lon="-76.3900610">
        <ele>1763.2</ele>
        <time>2022-08-15T15:16:47Z</time>
      </trkpt>
      <trkpt lat="4.0627470" lon="-76.3901140">
        <ele>1763.6</ele>
        <time>2022-08-15T15:16:50Z</time>
      </trkpt>
      <trkpt lat="4.0627840" lon="-76.3902190">
        <ele>1764.4</ele>
        <time>2022-08-15T15:16:56Z</time>
      </trkpt>
      <trkpt lat="4.0627970" lon="-76.3902690">
        <ele>1764.8</ele>
        <time>2022-08-15T15:16:59Z</time>
      </trkpt>
      <trkpt lat="4.0628090" lon="-76.3903990">
        <ele>1766.0</ele>
        <time>2022-08-15T15:17:07Z</time>
      </trkpt>
      <trkpt lat="4.0627940" lon="-76.3905090">
        <ele>1766.6</ele>
        <time>2022-08-15T15:17:14Z</time>
      </trkpt>
      <trkpt lat="4.0627860" lon="-76.3905390">
        <ele>1766.8</ele>
        <time>2022-08-15T15:17:16Z</time>
      </trkpt>
      <trkpt lat="4.0627790" lon="-76.3905950">
        <ele>1767.4</ele>
        <time>2022-08-15T15:17:20Z</time>
      </trkpt>
      <trkpt lat="4.0627740" lon="-76.3906100">
        <ele>1767.6</ele>
        <time>2022-08-15T15:17:21Z</time>
      </trkpt>
      <trkpt lat="4.0627650" lon="-76.3906390">
        <ele>1768.0</ele>
        <time>2022-08-15T15:17:23Z</time>
      </trkpt>
      <trkpt lat="4.0627540" lon="-76.3906780">
        <ele>1768.4</ele>
        <time>2022-08-15T15:17:26Z</time>
      </trkpt>
      <trkpt lat="4.0627400" lon="-76.3907390">
        <ele>1769.0</ele>
        <time>2022-08-15T15:17:30Z</time>
      </trkpt>
      <trkpt lat="4.0627230" lon="-76.3907680">
        <ele>1769.4</ele>
        <time>2022-08-15T15:17:32Z</time>
      </trkpt>
      <trkpt lat="4.0626790" lon="-76.3908350">
        <ele>1770.2</ele>
        <time>2022-08-15T15:17:37Z</time>
      </trkpt>
      <trkpt lat="4.0626710" lon="-76.3908490">
        <ele>1770.2</ele>
        <time>2022-08-15T15:17:39Z</time>
      </trkpt>
      <trkpt lat="4.0626200" lon="-76.3909530">
        <ele>1771.0</ele>
        <time>2022-08-15T15:17:46Z</time>
      </trkpt>
      <trkpt lat="4.0626130" lon="-76.3909650">
        <ele>1771.2</ele>
        <time>2022-08-15T15:17:47Z</time>
      </trkpt>
      <trkpt lat="4.0625680" lon="-76.3910400">
        <ele>1772.0</ele>
        <time>2022-08-15T15:17:53Z</time>
      </trkpt>
      <trkpt lat="4.0625370" lon="-76.3910900">
        <ele>1772.8</ele>
        <time>2022-08-15T15:17:57Z</time>
      </trkpt>
      <trkpt lat="4.0625160" lon="-76.3911270">
        <ele>1773.2</ele>
        <time>2022-08-15T15:18:00Z</time>
      </trkpt>
      <trkpt lat="4.0624810" lon="-76.3912100">
        <ele>1773.8</ele>
        <time>2022-08-15T15:18:06Z</time>
      </trkpt>
      <trkpt lat="4.0624600" lon="-76.3912520">
        <ele>1774.4</ele>
        <time>2022-08-15T15:18:09Z</time>
      </trkpt>
      <trkpt lat="4.0624210" lon="-76.3913330">
        <ele>1775.2</ele>
        <time>2022-08-15T15:18:15Z</time>
      </trkpt>
      <trkpt lat="4.0624070" lon="-76.3913680">
        <ele>1775.4</ele>
        <time>2022-08-15T15:18:18Z</time>
      </trkpt>
      <trkpt lat="4.0623710" lon="-76.3914350">
        <ele>1775.8</ele>
        <time>2022-08-15T15:18:23Z</time>
      </trkpt>
      <trkpt lat="4.0622810" lon="-76.3915730">
        <ele>1776.2</ele>
        <time>2022-08-15T15:18:31Z</time>
      </trkpt>
      <trkpt lat="4.0622660" lon="-76.3915920">
        <ele>1776.2</ele>
        <time>2022-08-15T15:18:32Z</time>
      </trkpt>
      <trkpt lat="4.0621090" lon="-76.3917520">
        <ele>1777.0</ele>
        <time>2022-08-15T15:18:40Z</time>
      </trkpt>
      <trkpt lat="4.0620420" lon="-76.3918230">
        <ele>1777.2</ele>
        <time>2022-08-15T15:18:43Z</time>
      </trkpt>
      <trkpt lat="4.0619660" lon="-76.3919300">
        <ele>1777.4</ele>
        <time>2022-08-15T15:18:47Z</time>
      </trkpt>
      <trkpt lat="4.0617840" lon="-76.3921820">
        <ele>1778.0</ele>
        <time>2022-08-15T15:18:56Z</time>
      </trkpt>
      <trkpt lat="4.0617450" lon="-76.3922390">
        <ele>1778.2</ele>
        <time>2022-08-15T15:18:58Z</time>
      </trkpt>
      <trkpt lat="4.0617260" lon="-76.3922670">
        <ele>1778.4</ele>
        <time>2022-08-15T15:18:59Z</time>
      </trkpt>
      <trkpt lat="4.0616630" lon="-76.3924240">
        <ele>1778.8</ele>
        <time>2022-08-15T15:19:05Z</time>
      </trkpt>
      <trkpt lat="4.0616540" lon="-76.3924860">
        <ele>1779.2</ele>
        <time>2022-08-15T15:19:08Z</time>
      </trkpt>
      <trkpt lat="4.0616510" lon="-76.3925610">
        <ele>1779.8</ele>
        <time>2022-08-15T15:19:12Z</time>
      </trkpt>
      <trkpt lat="4.0616450" lon="-76.3926480">
        <ele>1780.6</ele>
        <time>2022-08-15T15:19:17Z</time>
      </trkpt>
      <trkpt lat="4.0616430" lon="-76.3926620">
        <ele>1780.8</ele>
        <time>2022-08-15T15:19:18Z</time>
      </trkpt>
      <trkpt lat="4.0616420" lon="-76.3927130">
        <ele>1781.6</ele>
        <time>2022-08-15T15:19:22Z</time>
      </trkpt>
      <trkpt lat="4.0616410" lon="-76.3927270">
        <ele>1781.8</ele>
        <time>2022-08-15T15:19:23Z</time>
      </trkpt>
      <trkpt lat="4.0616460" lon="-76.3927930">
        <ele>1782.6</ele>
        <time>2022-08-15T15:19:28Z</time>
      </trkpt>
      <trkpt lat="4.0616440" lon="-76.3928480">
        <ele>1783.4</ele>
        <time>2022-08-15T15:19:32Z</time>
      </trkpt>
      <trkpt lat="4.0616380" lon="-76.3928700">
        <ele>1783.8</ele>
        <time>2022-08-15T15:19:34Z</time>
      </trkpt>
      <trkpt lat="4.0616290" lon="-76.3929240">
        <ele>1784.2</ele>
        <time>2022-08-15T15:19:38Z</time>
      </trkpt>
      <trkpt lat="4.0616350" lon="-76.3929780">
        <ele>1785.0</ele>
        <time>2022-08-15T15:19:42Z</time>
      </trkpt>
      <trkpt lat="4.0616370" lon="-76.3930300">
        <ele>1785.4</ele>
        <time>2022-08-15T15:19:45Z</time>
      </trkpt>
      <trkpt lat="4.0616320" lon="-76.3931460">
        <ele>1786.2</ele>
        <time>2022-08-15T15:19:52Z</time>
      </trkpt>
      <trkpt lat="4.0616310" lon="-76.3932490">
        <ele>1787.0</ele>
        <time>2022-08-15T15:19:58Z</time>
      </trkpt>
      <trkpt lat="4.0616190" lon="-76.3932970">
        <ele>1787.4</ele>
        <time>2022-08-15T15:20:01Z</time>
      </trkpt>
      <trkpt lat="4.0615760" lon="-76.3933620">
        <ele>1788.0</ele>
        <time>2022-08-15T15:20:06Z</time>
      </trkpt>
      <trkpt lat="4.0615520" lon="-76.3933860">
        <ele>1788.4</ele>
        <time>2022-08-15T15:20:08Z</time>
      </trkpt>
      <trkpt lat="4.0614830" lon="-76.3934390">
        <ele>1789.0</ele>
        <time>2022-08-15T15:20:12Z</time>
      </trkpt>
      <trkpt lat="4.0613860" lon="-76.3934980">
        <ele>1789.4</ele>
        <time>2022-08-15T15:20:17Z</time>
      </trkpt>
      <trkpt lat="4.0613080" lon="-76.3935520">
        <ele>1790.2</ele>
        <time>2022-08-15T15:20:21Z</time>
      </trkpt>
      <trkpt lat="4.0612390" lon="-76.3935790">
        <ele>1790.4</ele>
        <time>2022-08-15T15:20:24Z</time>
      </trkpt>
      <trkpt lat="4.0610550" lon="-76.3935660">
        <ele>1791.2</ele>
        <time>2022-08-15T15:20:32Z</time>
      </trkpt>
      <trkpt lat="4.0608850" lon="-76.3935580">
        <ele>1792.2</ele>
        <time>2022-08-15T15:20:39Z</time>
      </trkpt>
      <trkpt lat="4.0608640" lon="-76.3935600">
        <ele>1792.4</ele>
        <time>2022-08-15T15:20:40Z</time>
      </trkpt>
      <trkpt lat="4.0607460" lon="-76.3936220">
        <ele>1793.2</ele>
        <time>2022-08-15T15:20:46Z</time>
      </trkpt>
      <trkpt lat="4.0607330" lon="-76.3936380">
        <ele>1793.2</ele>
        <time>2022-08-15T15:20:47Z</time>
      </trkpt>
      <trkpt lat="4.0606440" lon="-76.3937490">
        <ele>1794.2</ele>
        <time>2022-08-15T15:20:54Z</time>
      </trkpt>
      <trkpt lat="4.0605620" lon="-76.3938470">
        <ele>1795.2</ele>
        <time>2022-08-15T15:21:00Z</time>
      </trkpt>
      <trkpt lat="4.0605220" lon="-76.3939040">
        <ele>1795.6</ele>
        <time>2022-08-15T15:21:03Z</time>
      </trkpt>
      <trkpt lat="4.0604480" lon="-76.3939860">
        <ele>1796.4</ele>
        <time>2022-08-15T15:21:08Z</time>
      </trkpt>
      <trkpt lat="4.0603590" lon="-76.3940560">
        <ele>1796.8</ele>
        <time>2022-08-15T15:21:13Z</time>
      </trkpt>
      <trkpt lat="4.0602820" lon="-76.3940720">
        <ele>1797.6</ele>
        <time>2022-08-15T15:21:18Z</time>
      </trkpt>
      <trkpt lat="4.0602640" lon="-76.3940680">
        <ele>1797.6</ele>
        <time>2022-08-15T15:21:19Z</time>
      </trkpt>
      <trkpt lat="4.0601000" lon="-76.3940290">
        <ele>1798.6</ele>
        <time>2022-08-15T15:21:27Z</time>
      </trkpt>
      <trkpt lat="4.0600430" lon="-76.3940370">
        <ele>1798.8</ele>
        <time>2022-08-15T15:21:30Z</time>
      </trkpt>
      <trkpt lat="4.0600020" lon="-76.3940590">
        <ele>1799.0</ele>
        <time>2022-08-15T15:21:32Z</time>
      </trkpt>
      <trkpt lat="4.0599420" lon="-76.3941820">
        <ele>1799.4</ele>
        <time>2022-08-15T15:21:38Z</time>
      </trkpt>
      <trkpt lat="4.0599340" lon="-76.3942070">
        <ele>1799.6</ele>
        <time>2022-08-15T15:21:39Z</time>
      </trkpt>
      <trkpt lat="4.0599120" lon="-76.3943270">
        <ele>1800.2</ele>
        <time>2022-08-15T15:21:44Z</time>
      </trkpt>
      <trkpt lat="4.0598530" lon="-76.3944290">
        <ele>1800.8</ele>
        <time>2022-08-15T15:21:49Z</time>
      </trkpt>
      <trkpt lat="4.0598320" lon="-76.3944470">
        <ele>1800.8</ele>
        <time>2022-08-15T15:21:50Z</time>
      </trkpt>
      <trkpt lat="4.0596690" lon="-76.3945400">
        <ele>1802.0</ele>
        <time>2022-08-15T15:21:57Z</time>
      </trkpt>
      <trkpt lat="4.0595180" lon="-76.3945890">
        <ele>1803.0</ele>
        <time>2022-08-15T15:22:04Z</time>
      </trkpt>
      <trkpt lat="4.0594730" lon="-76.3946040">
        <ele>1803.2</ele>
        <time>2022-08-15T15:22:06Z</time>
      </trkpt>
      <trkpt lat="4.0592960" lon="-76.3946430">
        <ele>1804.0</ele>
        <time>2022-08-15T15:22:15Z</time>
      </trkpt>
      <trkpt lat="4.0591480" lon="-76.3946590">
        <ele>1805.0</ele>
        <time>2022-08-15T15:22:23Z</time>
      </trkpt>
      <trkpt lat="4.0591100" lon="-76.3946640">
        <ele>1805.2</ele>
        <time>2022-08-15T15:22:25Z</time>
      </trkpt>
      <trkpt lat="4.0589970" lon="-76.3946840">
        <ele>1806.2</ele>
        <time>2022-08-15T15:22:31Z</time>
      </trkpt>
      <trkpt lat="4.0589780" lon="-76.3946890">
        <ele>1806.2</ele>
        <time>2022-08-15T15:22:32Z</time>
      </trkpt>
      <trkpt lat="4.0588170" lon="-76.3947230">
        <ele>1807.2</ele>
        <time>2022-08-15T15:22:40Z</time>
      </trkpt>
      <trkpt lat="4.0587560" lon="-76.3947320">
        <ele>1807.6</ele>
        <time>2022-08-15T15:22:43Z</time>
      </trkpt>
      <trkpt lat="4.0586540" lon="-76.3947580">
        <ele>1808.0</ele>
        <time>2022-08-15T15:22:48Z</time>
      </trkpt>
      <trkpt lat="4.0586080" lon="-76.3947710">
        <ele>1808.2</ele>
        <time>2022-08-15T15:22:50Z</time>
      </trkpt>
      <trkpt lat="4.0584650" lon="-76.3947930">
        <ele>1808.8</ele>
        <time>2022-08-15T15:22:57Z</time>
      </trkpt>
      <trkpt lat="4.0584240" lon="-76.3948010">
        <ele>1809.2</ele>
        <time>2022-08-15T15:22:59Z</time>
      </trkpt>
      <trkpt lat="4.0583320" lon="-76.3948250">
        <ele>1809.4</ele>
        <time>2022-08-15T15:23:04Z</time>
      </trkpt>
      <trkpt lat="4.0582200" lon="-76.3948550">
        <ele>1809.8</ele>
        <time>2022-08-15T15:23:10Z</time>
      </trkpt>
      <trkpt lat="4.0580740" lon="-76.3948940">
        <ele>1810.0</ele>
        <time>2022-08-15T15:23:16Z</time>
      </trkpt>
      <trkpt lat="4.0580100" lon="-76.3949020">
        <ele>1810.0</ele>
        <time>2022-08-15T15:23:18Z</time>
      </trkpt>
      <trkpt lat="4.0577830" lon="-76.3949550">
        <ele>1809.8</ele>
        <time>2022-08-15T15:23:25Z</time>
      </trkpt>
      <trkpt lat="4.0575450" lon="-76.3950110">
        <ele>1809.6</ele>
        <time>2022-08-15T15:23:32Z</time>
      </trkpt>
      <trkpt lat="4.0575140" lon="-76.3950270">
        <ele>1809.6</ele>
        <time>2022-08-15T15:23:33Z</time>
      </trkpt>
      <trkpt lat="4.0573880" lon="-76.3951330">
        <ele>1809.6</ele>
        <time>2022-08-15T15:23:38Z</time>
      </trkpt>
      <trkpt lat="4.0573690" lon="-76.3951610">
        <ele>1809.6</ele>
        <time>2022-08-15T15:23:39Z</time>
      </trkpt>
      <trkpt lat="4.0572120" lon="-76.3954280">
        <ele>1809.6</ele>
        <time>2022-08-15T15:23:48Z</time>
      </trkpt>
      <trkpt lat="4.0570880" lon="-76.3955730">
        <ele>1809.8</ele>
        <time>2022-08-15T15:23:54Z</time>
      </trkpt>
      <trkpt lat="4.0569550" lon="-76.3956960">
        <ele>1810.0</ele>
        <time>2022-08-15T15:24:00Z</time>
      </trkpt>
      <trkpt lat="4.0569050" lon="-76.3957240">
        <ele>1810.4</ele>
        <time>2022-08-15T15:24:02Z</time>
      </trkpt>
      <trkpt lat="4.0567750" lon="-76.3957850">
        <ele>1811.2</ele>
        <time>2022-08-15T15:24:08Z</time>
      </trkpt>
      <trkpt lat="4.0567550" lon="-76.3957930">
        <ele>1811.2</ele>
        <time>2022-08-15T15:24:10Z</time>
      </trkpt>
      <trkpt lat="4.0566700" lon="-76.3958540">
        <ele>1812.0</ele>
        <time>2022-08-15T15:24:14Z</time>
      </trkpt>
      <trkpt lat="4.0566600" lon="-76.3958730">
        <ele>1812.2</ele>
        <time>2022-08-15T15:24:15Z</time>
      </trkpt>
      <trkpt lat="4.0566530" lon="-76.3958940">
        <ele>1812.4</ele>
        <time>2022-08-15T15:24:16Z</time>
      </trkpt>
      <trkpt lat="4.0566530" lon="-76.3959710">
        <ele>1813.2</ele>
        <time>2022-08-15T15:24:19Z</time>
      </trkpt>
      <trkpt lat="4.0566600" lon="-76.3959950">
        <ele>1813.2</ele>
        <time>2022-08-15T15:24:20Z</time>
      </trkpt>
      <trkpt lat="4.0566700" lon="-76.3960160">
        <ele>1813.4</ele>
        <time>2022-08-15T15:24:21Z</time>
      </trkpt>
      <trkpt lat="4.0567440" lon="-76.3961390">
        <ele>1814.4</ele>
        <time>2022-08-15T15:24:27Z</time>
      </trkpt>
      <trkpt lat="4.0567560" lon="-76.3961600">
        <ele>1814.6</ele>
        <time>2022-08-15T15:24:29Z</time>
      </trkpt>
      <trkpt lat="4.0568100" lon="-76.3962990">
        <ele>1815.4</ele>
        <time>2022-08-15T15:24:35Z</time>
      </trkpt>
      <trkpt lat="4.0568050" lon="-76.3963160">
        <ele>1815.4</ele>
        <time>2022-08-15T15:24:36Z</time>
      </trkpt>
      <trkpt lat="4.0567840" lon="-76.3963690">
        <ele>1815.8</ele>
        <time>2022-08-15T15:24:39Z</time>
      </trkpt>
      <trkpt lat="4.0567110" lon="-76.3965030">
        <ele>1816.2</ele>
        <time>2022-08-15T15:24:47Z</time>
      </trkpt>
      <trkpt lat="4.0566280" lon="-76.3965910">
        <ele>1816.4</ele>
        <time>2022-08-15T15:24:53Z</time>
      </trkpt>
      <trkpt lat="4.0566150" lon="-76.3966120">
        <ele>1816.4</ele>
        <time>2022-08-15T15:24:54Z</time>
      </trkpt>
      <trkpt lat="4.0565160" lon="-76.3968250">
        <ele>1816.6</ele>
        <time>2022-08-15T15:25:02Z</time>
      </trkpt>
      <trkpt lat="4.0565090" lon="-76.3969170">
        <ele>1816.6</ele>
        <time>2022-08-15T15:25:04Z</time>
      </trkpt>
      <trkpt lat="4.0565340" lon="-76.3969940">
        <ele>1816.4</ele>
        <time>2022-08-15T15:25:06Z</time>
      </trkpt>
      <trkpt lat="4.0565560" lon="-76.3970380">
        <ele>1816.4</ele>
        <time>2022-08-15T15:25:07Z</time>
      </trkpt>
      <trkpt lat="4.0566630" lon="-76.3971630">
        <ele>1816.0</ele>
        <time>2022-08-15T15:25:10Z</time>
      </trkpt>
      <trkpt lat="4.0568480" lon="-76.3973590">
        <ele>1814.8</ele>
        <time>2022-08-15T15:25:14Z</time>
      </trkpt>
      <trkpt lat="4.0569250" lon="-76.3974450">
        <ele>1814.4</ele>
        <time>2022-08-15T15:25:16Z</time>
      </trkpt>
      <trkpt lat="4.0570410" lon="-76.3976010">
        <ele>1813.2</ele>
        <time>2022-08-15T15:25:19Z</time>
      </trkpt>
      <trkpt lat="4.0571280" lon="-76.3977530">
        <ele>1811.8</ele>
        <time>2022-08-15T15:25:22Z</time>
      </trkpt>
      <trkpt lat="4.0572020" lon="-76.3979310">
        <ele>1811.0</ele>
        <time>2022-08-15T15:25:27Z</time>
      </trkpt>
      <trkpt lat="4.0572170" lon="-76.3980000">
        <ele>1811.0</ele>
        <time>2022-08-15T15:25:30Z</time>
      </trkpt>
      <trkpt lat="4.0572250" lon="-76.3980370">
        <ele>1811.0</ele>
        <time>2022-08-15T15:25:32Z</time>
      </trkpt>
      <trkpt lat="4.0572520" lon="-76.3981460">
        <ele>1812.8</ele>
        <time>2022-08-15T15:25:40Z</time>
      </trkpt>
      <trkpt lat="4.0572610" lon="-76.3981760">
        <ele>1813.0</ele>
        <time>2022-08-15T15:25:42Z</time>
      </trkpt>
      <trkpt lat="4.0572720" lon="-76.3982200">
        <ele>1814.0</ele>
        <time>2022-08-15T15:25:45Z</time>
      </trkpt>
      <trkpt lat="4.0572900" lon="-76.3982810">
        <ele>1814.6</ele>
        <time>2022-08-15T15:25:49Z</time>
      </trkpt>
      <trkpt lat="4.0573050" lon="-76.3983120">
        <ele>1815.0</ele>
        <time>2022-08-15T15:25:51Z</time>
      </trkpt>
      <trkpt lat="4.0573370" lon="-76.3983800">
        <ele>1815.4</ele>
        <time>2022-08-15T15:25:56Z</time>
      </trkpt>
      <trkpt lat="4.0573530" lon="-76.3984180">
        <ele>1816.0</ele>
        <time>2022-08-15T15:25:59Z</time>
      </trkpt>
      <trkpt lat="4.0573780" lon="-76.3984570">
        <ele>1816.6</ele>
        <time>2022-08-15T15:26:02Z</time>
      </trkpt>
      <trkpt lat="4.0573980" lon="-76.3985250">
        <ele>1817.0</ele>
        <time>2022-08-15T15:26:07Z</time>
      </trkpt>
      <trkpt lat="4.0573980" lon="-76.3985460">
        <ele>1817.4</ele>
        <time>2022-08-15T15:26:09Z</time>
      </trkpt>
      <trkpt lat="4.0574020" lon="-76.3985590">
        <ele>1817.4</ele>
        <time>2022-08-15T15:26:10Z</time>
      </trkpt>
      <trkpt lat="4.0574060" lon="-76.3985910">
        <ele>1818.0</ele>
        <time>2022-08-15T15:26:13Z</time>
      </trkpt>
      <trkpt lat="4.0574060" lon="-76.3986340">
        <ele>1818.8</ele>
        <time>2022-08-15T15:26:16Z</time>
      </trkpt>
      <trkpt lat="4.0574130" lon="-76.3986670">
        <ele>1819.2</ele>
        <time>2022-08-15T15:26:19Z</time>
      </trkpt>
      <trkpt lat="4.0574100" lon="-76.3987320">
        <ele>1820.2</ele>
        <time>2022-08-15T15:26:24Z</time>
      </trkpt>
      <trkpt lat="4.0574040" lon="-76.3987470">
        <ele>1820.4</ele>
        <time>2022-08-15T15:26:25Z</time>
      </trkpt>
      <trkpt lat="4.0573660" lon="-76.3988160">
        <ele>1821.2</ele>
        <time>2022-08-15T15:26:31Z</time>
      </trkpt>
      <trkpt lat="4.0573350" lon="-76.3988440">
        <ele>1821.8</ele>
        <time>2022-08-15T15:26:34Z</time>
      </trkpt>
      <trkpt lat="4.0572860" lon="-76.3988770">
        <ele>1822.2</ele>
        <time>2022-08-15T15:26:38Z</time>
      </trkpt>
      <trkpt lat="4.0572320" lon="-76.3989060">
        <ele>1822.4</ele>
        <time>2022-08-15T15:26:42Z</time>
      </trkpt>
      <trkpt lat="4.0571510" lon="-76.3989310">
        <ele>1823.2</ele>
        <time>2022-08-15T15:26:48Z</time>
      </trkpt>
      <trkpt lat="4.0571290" lon="-76.3989380">
        <ele>1823.4</ele>
        <time>2022-08-15T15:26:50Z</time>
      </trkpt>
      <trkpt lat="4.0570320" lon="-76.3989920">
        <ele>1824.2</ele>
        <time>2022-08-15T15:26:58Z</time>
      </trkpt>
      <trkpt lat="4.0570080" lon="-76.3990150">
        <ele>1824.4</ele>
        <time>2022-08-15T15:27:00Z</time>
      </trkpt>
      <trkpt lat="4.0569520" lon="-76.3991160">
        <ele>1825.2</ele>
        <time>2022-08-15T15:27:08Z</time>
      </trkpt>
      <trkpt lat="4.0569430" lon="-76.3991310">
        <ele>1825.4</ele>
        <time>2022-08-15T15:27:09Z</time>
      </trkpt>
      <trkpt lat="4.0569270" lon="-76.3991710">
        <ele>1825.6</ele>
        <time>2022-08-15T15:27:12Z</time>
      </trkpt>
      <trkpt lat="4.0569110" lon="-76.3992100">
        <ele>1825.8</ele>
        <time>2022-08-15T15:27:15Z</time>
      </trkpt>
      <trkpt lat="4.0569010" lon="-76.3992390">
        <ele>1826.2</ele>
        <time>2022-08-15T15:27:17Z</time>
      </trkpt>
      <trkpt lat="4.0568790" lon="-76.3993230">
        <ele>1827.2</ele>
        <time>2022-08-15T15:27:23Z</time>
      </trkpt>
      <trkpt lat="4.0568700" lon="-76.3993590">
        <ele>1827.6</ele>
        <time>2022-08-15T15:27:26Z</time>
      </trkpt>
      <trkpt lat="4.0568670" lon="-76.3993990">
        <ele>1828.2</ele>
        <time>2022-08-15T15:27:29Z</time>
      </trkpt>
      <trkpt lat="4.0568740" lon="-76.3994220">
        <ele>1828.4</ele>
        <time>2022-08-15T15:27:31Z</time>
      </trkpt>
      <trkpt lat="4.0569050" lon="-76.3995080">
        <ele>1829.6</ele>
        <time>2022-08-15T15:27:37Z</time>
      </trkpt>
      <trkpt lat="4.0569160" lon="-76.3995320">
        <ele>1830.0</ele>
        <time>2022-08-15T15:27:39Z</time>
      </trkpt>
      <trkpt lat="4.0569460" lon="-76.3995770">
        <ele>1830.6</ele>
        <time>2022-08-15T15:27:43Z</time>
      </trkpt>
      <trkpt lat="4.0569660" lon="-76.3996170">
        <ele>1831.2</ele>
        <time>2022-08-15T15:27:46Z</time>
      </trkpt>
      <trkpt lat="4.0569800" lon="-76.3996410">
        <ele>1831.4</ele>
        <time>2022-08-15T15:27:48Z</time>
      </trkpt>
      <trkpt lat="4.0569880" lon="-76.3996720">
        <ele>1831.6</ele>
        <time>2022-08-15T15:27:50Z</time>
      </trkpt>
      <trkpt lat="4.0569920" lon="-76.3996850">
        <ele>1831.6</ele>
        <time>2022-08-15T15:27:51Z</time>
      </trkpt>
      <trkpt lat="4.0570290" lon="-76.3997650">
        <ele>1832.8</ele>
        <time>2022-08-15T15:27:58Z</time>
      </trkpt>
      <trkpt lat="4.0570340" lon="-76.3997760">
        <ele>1833.0</ele>
        <time>2022-08-15T15:27:59Z</time>
      </trkpt>
      <trkpt lat="4.0570570" lon="-76.3998030">
        <ele>1833.6</ele>
        <time>2022-08-15T15:28:02Z</time>
      </trkpt>
      <trkpt lat="4.0570630" lon="-76.3998190">
        <ele>1833.8</ele>
        <time>2022-08-15T15:28:03Z</time>
      </trkpt>
      <trkpt lat="4.0570740" lon="-76.3998610">
        <ele>1834.6</ele>
        <time>2022-08-15T15:28:06Z</time>
      </trkpt>
      <trkpt lat="4.0570790" lon="-76.3998890">
        <ele>1834.8</ele>
        <time>2022-08-15T15:28:08Z</time>
      </trkpt>
      <trkpt lat="4.0570800" lon="-76.3999690">
        <ele>1835.6</ele>
        <time>2022-08-15T15:28:14Z</time>
      </trkpt>
      <trkpt lat="4.0570760" lon="-76.3999810">
        <ele>1836.0</ele>
        <time>2022-08-15T15:28:15Z</time>
      </trkpt>
      <trkpt lat="4.0570320" lon="-76.4000560">
        <ele>1837.0</ele>
        <time>2022-08-15T15:28:21Z</time>
      </trkpt>
      <trkpt lat="4.0569950" lon="-76.4001010">
        <ele>1837.6</ele>
        <time>2022-08-15T15:28:25Z</time>
      </trkpt>
      <trkpt lat="4.0569510" lon="-76.4001320">
        <ele>1838.2</ele>
        <time>2022-08-15T15:28:29Z</time>
      </trkpt>
      <trkpt lat="4.0568600" lon="-76.4001850">
        <ele>1839.0</ele>
        <time>2022-08-15T15:28:36Z</time>
      </trkpt>
      <trkpt lat="4.0568180" lon="-76.4002010">
        <ele>1839.0</ele>
        <time>2022-08-15T15:28:39Z</time>
      </trkpt>
      <trkpt lat="4.0567610" lon="-76.4002130">
        <ele>1839.6</ele>
        <time>2022-08-15T15:28:43Z</time>
      </trkpt>
      <trkpt lat="4.0567230" lon="-76.4002280">
        <ele>1840.2</ele>
        <time>2022-08-15T15:28:47Z</time>
      </trkpt>
      <trkpt lat="4.0566770" lon="-76.4002220">
        <ele>1840.2</ele>
        <time>2022-08-15T15:28:49Z</time>
      </trkpt>
      <trkpt lat="4.0565600" lon="-76.4002260">
        <ele>1841.2</ele>
        <time>2022-08-15T15:28:56Z</time>
      </trkpt>
      <trkpt lat="4.0564950" lon="-76.4002360">
        <ele>1841.4</ele>
        <time>2022-08-15T15:29:00Z</time>
      </trkpt>
      <trkpt lat="4.0563740" lon="-76.4002930">
        <ele>1842.0</ele>
        <time>2022-08-15T15:29:07Z</time>
      </trkpt>
      <trkpt lat="4.0563440" lon="-76.4003180">
        <ele>1842.2</ele>
        <time>2022-08-15T15:29:09Z</time>
      </trkpt>
      <trkpt lat="4.0562690" lon="-76.4003720">
        <ele>1843.0</ele>
        <time>2022-08-15T15:29:14Z</time>
      </trkpt>
      <trkpt lat="4.0562200" lon="-76.4004090">
        <ele>1843.4</ele>
        <time>2022-08-15T15:29:17Z</time>
      </trkpt>
      <trkpt lat="4.0561760" lon="-76.4004540">
        <ele>1843.8</ele>
        <time>2022-08-15T15:29:20Z</time>
      </trkpt>
      <trkpt lat="4.0560790" lon="-76.4005820">
        <ele>1844.4</ele>
        <time>2022-08-15T15:29:28Z</time>
      </trkpt>
      <trkpt lat="4.0560050" lon="-76.4006620">
        <ele>1845.0</ele>
        <time>2022-08-15T15:29:34Z</time>
      </trkpt>
      <trkpt lat="4.0559520" lon="-76.4007250">
        <ele>1845.4</ele>
        <time>2022-08-15T15:29:38Z</time>
      </trkpt>
      <trkpt lat="4.0559440" lon="-76.4007380">
        <ele>1845.6</ele>
        <time>2022-08-15T15:29:39Z</time>
      </trkpt>
      <trkpt lat="4.0559220" lon="-76.4007690">
        <ele>1845.6</ele>
        <time>2022-08-15T15:29:41Z</time>
      </trkpt>
      <trkpt lat="4.0558550" lon="-76.4008860">
        <ele>1845.8</ele>
        <time>2022-08-15T15:29:47Z</time>
      </trkpt>
      <trkpt lat="4.0558090" lon="-76.4010020">
        <ele>1845.8</ele>
        <time>2022-08-15T15:29:51Z</time>
      </trkpt>
      <trkpt lat="4.0557930" lon="-76.4010730">
        <ele>1845.8</ele>
        <time>2022-08-15T15:29:53Z</time>
      </trkpt>
      <trkpt lat="4.0557320" lon="-76.4013120">
        <ele>1845.6</ele>
        <time>2022-08-15T15:29:59Z</time>
      </trkpt>
      <trkpt lat="4.0556750" lon="-76.4016010">
        <ele>1844.2</ele>
        <time>2022-08-15T15:30:05Z</time>
      </trkpt>
      <trkpt lat="4.0556670" lon="-76.4016420">
        <ele>1843.6</ele>
        <time>2022-08-15T15:30:06Z</time>
      </trkpt>
      <trkpt lat="4.0556600" lon="-76.4017240">
        <ele>1843.0</ele>
        <time>2022-08-15T15:30:08Z</time>
      </trkpt>
      <trkpt lat="4.0556510" lon="-76.4018230">
        <ele>1842.6</ele>
        <time>2022-08-15T15:30:11Z</time>
      </trkpt>
      <trkpt lat="4.0556680" lon="-76.4020180">
        <ele>1842.4</ele>
        <time>2022-08-15T15:30:17Z</time>
      </trkpt>
      <trkpt lat="4.0556640" lon="-76.4022520">
        <ele>1842.2</ele>
        <time>2022-08-15T15:30:25Z</time>
      </trkpt>
      <trkpt lat="4.0556670" lon="-76.4024370">
        <ele>1843.4</ele>
        <time>2022-08-15T15:30:33Z</time>
      </trkpt>
      <trkpt lat="4.0556650" lon="-76.4025270">
        <ele>1844.0</ele>
        <time>2022-08-15T15:30:38Z</time>
      </trkpt>
      <trkpt lat="4.0556640" lon="-76.4025300">
        <ele>1844.4</ele>
        <time>2022-08-15T15:30:42Z</time>
      </trkpt>
      <trkpt lat="4.0556640" lon="-76.4025300">
        <ele>1845.0</ele>
        <time>2022-08-15T15:30:47Z</time>
      </trkpt>
      <trkpt lat="4.0556640" lon="-76.4025300">
        <ele>1845.2</ele>
        <time>2022-08-15T15:30:53Z</time>
      </trkpt>
      <trkpt lat="4.0556640" lon="-76.4025300">
        <ele>1845.2</ele>
        <time>2022-08-15T15:31:06Z</time>
      </trkpt>
      <trkpt lat="4.0556640" lon="-76.4025300">
        <ele>1845.0</ele>
        <time>2022-08-15T15:31:20Z</time>
      </trkpt>
      <trkpt lat="4.0556640" lon="-76.4025300">
        <ele>1845.0</ele>
        <time>2022-08-15T15:31:29Z</time>
      </trkpt>
      <trkpt lat="4.0556640" lon="-76.4025300">
        <ele>1845.2</ele>
        <time>2022-08-15T15:31:52Z</time>
      </trkpt>
      <trkpt lat="4.0556620" lon="-76.4025440">
        <ele>1845.2</ele>
        <time>2022-08-15T15:32:01Z</time>
      </trkpt>
      <trkpt lat="4.0556630" lon="-76.4025570">
        <ele>1845.0</ele>
        <time>2022-08-15T15:32:02Z</time>
      </trkpt>
      <trkpt lat="4.0556650" lon="-76.4025920">
        <ele>1845.0</ele>
        <time>2022-08-15T15:32:04Z</time>
      </trkpt>
      <trkpt lat="4.0556550" lon="-76.4027200">
        <ele>1845.2</ele>
        <time>2022-08-15T15:32:10Z</time>
      </trkpt>
      <trkpt lat="4.0556370" lon="-76.4029210">
        <ele>1845.2</ele>
        <time>2022-08-15T15:32:18Z</time>
      </trkpt>
      <trkpt lat="4.0556340" lon="-76.4029510">
        <ele>1845.2</ele>
        <time>2022-08-15T15:32:19Z</time>
      </trkpt>
      <trkpt lat="4.0555640" lon="-76.4030990">
        <ele>1845.4</ele>
        <time>2022-08-15T15:32:24Z</time>
      </trkpt>
      <trkpt lat="4.0553910" lon="-76.4032300">
        <ele>1845.4</ele>
        <time>2022-08-15T15:32:30Z</time>
      </trkpt>
      <trkpt lat="4.0551780" lon="-76.4033240">
        <ele>1845.0</ele>
        <time>2022-08-15T15:32:36Z</time>
      </trkpt>
      <trkpt lat="4.0549180" lon="-76.4034250">
        <ele>1844.8</ele>
        <time>2022-08-15T15:32:43Z</time>
      </trkpt>
      <trkpt lat="4.0546970" lon="-76.4035710">
        <ele>1844.6</ele>
        <time>2022-08-15T15:32:50Z</time>
      </trkpt>
      <trkpt lat="4.0546010" lon="-76.4037490">
        <ele>1844.6</ele>
        <time>2022-08-15T15:32:55Z</time>
      </trkpt>
      <trkpt lat="4.0545710" lon="-76.4040150">
        <ele>1844.2</ele>
        <time>2022-08-15T15:33:01Z</time>
      </trkpt>
      <trkpt lat="4.0545540" lon="-76.4041070">
        <ele>1844.0</ele>
        <time>2022-08-15T15:33:03Z</time>
      </trkpt>
      <trkpt lat="4.0545410" lon="-76.4041520">
        <ele>1844.0</ele>
        <time>2022-08-15T15:33:04Z</time>
      </trkpt>
      <trkpt lat="4.0545210" lon="-76.4041980">
        <ele>1843.4</ele>
        <time>2022-08-15T15:33:06Z</time>
      </trkpt>
      <trkpt lat="4.0544470" lon="-76.4042690">
        <ele>1843.2</ele>
        <time>2022-08-15T15:33:07Z</time>
      </trkpt>
      <trkpt lat="4.0543370" lon="-76.4043030">
        <ele>1842.8</ele>
        <time>2022-08-15T15:33:09Z</time>
      </trkpt>
      <trkpt lat="4.0542780" lon="-76.4043060">
        <ele>1842.4</ele>
        <time>2022-08-15T15:33:10Z</time>
      </trkpt>
      <trkpt lat="4.0542200" lon="-76.4043090">
        <ele>1842.2</ele>
        <time>2022-08-15T15:33:11Z</time>
      </trkpt>
      <trkpt lat="4.0541090" lon="-76.4043240">
        <ele>1841.2</ele>
        <time>2022-08-15T15:33:13Z</time>
      </trkpt>
      <trkpt lat="4.0540540" lon="-76.4043420">
        <ele>1840.8</ele>
        <time>2022-08-15T15:33:14Z</time>
      </trkpt>
      <trkpt lat="4.0539450" lon="-76.4043950">
        <ele>1839.8</ele>
        <time>2022-08-15T15:33:16Z</time>
      </trkpt>
      <trkpt lat="4.0538420" lon="-76.4044630">
        <ele>1839.2</ele>
        <time>2022-08-15T15:33:18Z</time>
      </trkpt>
      <trkpt lat="4.0537940" lon="-76.4045040">
        <ele>1839.0</ele>
        <time>2022-08-15T15:33:19Z</time>
      </trkpt>
      <trkpt lat="4.0537680" lon="-76.4045340">
        <ele>1838.4</ele>
        <time>2022-08-15T15:33:20Z</time>
      </trkpt>
      <trkpt lat="4.0537420" lon="-76.4045650">
        <ele>1838.4</ele>
        <time>2022-08-15T15:33:21Z</time>
      </trkpt>
      <trkpt lat="4.0536390" lon="-76.4046890">
        <ele>1837.2</ele>
        <time>2022-08-15T15:33:23Z</time>
      </trkpt>
      <trkpt lat="4.0536090" lon="-76.4047360">
        <ele>1836.6</ele>
        <time>2022-08-15T15:33:24Z</time>
      </trkpt>
      <trkpt lat="4.0535330" lon="-76.4048100">
        <ele>1836.0</ele>
        <time>2022-08-15T15:33:26Z</time>
      </trkpt>
      <trkpt lat="4.0534920" lon="-76.4048440">
        <ele>1835.6</ele>
        <time>2022-08-15T15:33:27Z</time>
      </trkpt>
      <trkpt lat="4.0534580" lon="-76.4048800">
        <ele>1835.4</ele>
        <time>2022-08-15T15:33:28Z</time>
      </trkpt>
      <trkpt lat="4.0533070" lon="-76.4050230">
        <ele>1835.2</ele>
        <time>2022-08-15T15:33:33Z</time>
      </trkpt>
      <trkpt lat="4.0532670" lon="-76.4050550">
        <ele>1835.4</ele>
        <time>2022-08-15T15:33:34Z</time>
      </trkpt>
      <trkpt lat="4.0531890" lon="-76.4050940">
        <ele>1835.4</ele>
        <time>2022-08-15T15:33:36Z</time>
      </trkpt>
      <trkpt lat="4.0531120" lon="-76.4051120">
        <ele>1835.4</ele>
        <time>2022-08-15T15:33:38Z</time>
      </trkpt>
      <trkpt lat="4.0528530" lon="-76.4051420">
        <ele>1835.6</ele>
        <time>2022-08-15T15:33:44Z</time>
      </trkpt>
      <trkpt lat="4.0528150" lon="-76.4051480">
        <ele>1835.6</ele>
        <time>2022-08-15T15:33:45Z</time>
      </trkpt>
      <trkpt lat="4.0527800" lon="-76.4051550">
        <ele>1835.6</ele>
        <time>2022-08-15T15:33:46Z</time>
      </trkpt>
      <trkpt lat="4.0526510" lon="-76.4052090">
        <ele>1835.8</ele>
        <time>2022-08-15T15:33:50Z</time>
      </trkpt>
      <trkpt lat="4.0524940" lon="-76.4053040">
        <ele>1836.4</ele>
        <time>2022-08-15T15:33:56Z</time>
      </trkpt>
      <trkpt lat="4.0524560" lon="-76.4053320">
        <ele>1836.8</ele>
        <time>2022-08-15T15:33:58Z</time>
      </trkpt>
      <trkpt lat="4.0523990" lon="-76.4053960">
        <ele>1837.4</ele>
        <time>2022-08-15T15:34:02Z</time>
      </trkpt>
      <trkpt lat="4.0523710" lon="-76.4054570">
        <ele>1838.0</ele>
        <time>2022-08-15T15:34:05Z</time>
      </trkpt>
      <trkpt lat="4.0523410" lon="-76.4055360">
        <ele>1838.6</ele>
        <time>2022-08-15T15:34:09Z</time>
      </trkpt>
      <trkpt lat="4.0523300" lon="-76.4055800">
        <ele>1839.0</ele>
        <time>2022-08-15T15:34:11Z</time>
      </trkpt>
      <trkpt lat="4.0522820" lon="-76.4056870">
        <ele>1839.6</ele>
        <time>2022-08-15T15:34:16Z</time>
      </trkpt>
      <trkpt lat="4.0522590" lon="-76.4057200">
        <ele>1840.0</ele>
        <time>2022-08-15T15:34:18Z</time>
      </trkpt>
      <trkpt lat="4.0521740" lon="-76.4058090">
        <ele>1840.4</ele>
        <time>2022-08-15T15:34:24Z</time>
      </trkpt>
      <trkpt lat="4.0521400" lon="-76.4058320">
        <ele>1841.0</ele>
        <time>2022-08-15T15:34:26Z</time>
      </trkpt>
      <trkpt lat="4.0520720" lon="-76.4059080">
        <ele>1841.8</ele>
        <time>2022-08-15T15:34:31Z</time>
      </trkpt>
      <trkpt lat="4.0520110" lon="-76.4059920">
        <ele>1842.2</ele>
        <time>2022-08-15T15:34:35Z</time>
      </trkpt>
      <trkpt lat="4.0519260" lon="-76.4060910">
        <ele>1843.0</ele>
        <time>2022-08-15T15:34:41Z</time>
      </trkpt>
      <trkpt lat="4.0518990" lon="-76.4061240">
        <ele>1843.2</ele>
        <time>2022-08-15T15:34:43Z</time>
      </trkpt>
      <trkpt lat="4.0517780" lon="-76.4062390">
        <ele>1844.2</ele>
        <time>2022-08-15T15:34:50Z</time>
      </trkpt>
      <trkpt lat="4.0517090" lon="-76.4062820">
        <ele>1844.4</ele>
        <time>2022-08-15T15:34:53Z</time>
      </trkpt>
      <trkpt lat="4.0516150" lon="-76.4063200">
        <ele>1844.4</ele>
        <time>2022-08-15T15:34:57Z</time>
      </trkpt>
      <trkpt lat="4.0514500" lon="-76.4063690">
        <ele>1845.0</ele>
        <time>2022-08-15T15:35:04Z</time>
      </trkpt>
      <trkpt lat="4.0513990" lon="-76.4063830">
        <ele>1845.2</ele>
        <time>2022-08-15T15:35:06Z</time>
      </trkpt>
      <trkpt lat="4.0512570" lon="-76.4064360">
        <ele>1845.6</ele>
        <time>2022-08-15T15:35:11Z</time>
      </trkpt>
      <trkpt lat="4.0510400" lon="-76.4065270">
        <ele>1845.6</ele>
        <time>2022-08-15T15:35:17Z</time>
      </trkpt>
      <trkpt lat="4.0509590" lon="-76.4065580">
        <ele>1845.4</ele>
        <time>2022-08-15T15:35:20Z</time>
      </trkpt>
      <trkpt lat="4.0509420" lon="-76.4065650">
        <ele>1845.2</ele>
        <time>2022-08-15T15:35:21Z</time>
      </trkpt>
      <trkpt lat="4.0508680" lon="-76.4066290">
        <ele>1844.8</ele>
        <time>2022-08-15T15:35:26Z</time>
      </trkpt>
      <trkpt lat="4.0508130" lon="-76.4067950">
        <ele>1844.6</ele>
        <time>2022-08-15T15:35:32Z</time>
      </trkpt>
      <trkpt lat="4.0507290" lon="-76.4070250">
        <ele>1844.4</ele>
        <time>2022-08-15T15:35:39Z</time>
      </trkpt>
      <trkpt lat="4.0507010" lon="-76.4070820">
        <ele>1844.0</ele>
        <time>2022-08-15T15:35:41Z</time>
      </trkpt>
      <trkpt lat="4.0506110" lon="-76.4072230">
        <ele>1843.8</ele>
        <time>2022-08-15T15:35:46Z</time>
      </trkpt>
      <trkpt lat="4.0505490" lon="-76.4073190">
        <ele>1843.6</ele>
        <time>2022-08-15T15:35:51Z</time>
      </trkpt>
      <trkpt lat="4.0504410" lon="-76.4074210">
        <ele>1843.6</ele>
        <time>2022-08-15T15:35:57Z</time>
      </trkpt>
      <trkpt lat="4.0502600" lon="-76.4074520">
        <ele>1843.6</ele>
        <time>2022-08-15T15:36:03Z</time>
      </trkpt>
      <trkpt lat="4.0501050" lon="-76.4074020">
        <ele>1843.6</ele>
        <time>2022-08-15T15:36:08Z</time>
      </trkpt>
      <trkpt lat="4.0499030" lon="-76.4072820">
        <ele>1843.8</ele>
        <time>2022-08-15T15:36:15Z</time>
      </trkpt>
      <trkpt lat="4.0498460" lon="-76.4072570">
        <ele>1844.0</ele>
        <time>2022-08-15T15:36:17Z</time>
      </trkpt>
      <trkpt lat="4.0497110" lon="-76.4071950">
        <ele>1844.2</ele>
        <time>2022-08-15T15:36:23Z</time>
      </trkpt>
      <trkpt lat="4.0496270" lon="-76.4071600">
        <ele>1844.8</ele>
        <time>2022-08-15T15:36:28Z</time>
      </trkpt>
      <trkpt lat="4.0495690" lon="-76.4071350">
        <ele>1845.2</ele>
        <time>2022-08-15T15:36:31Z</time>
      </trkpt>
      <trkpt lat="4.0494760" lon="-76.4071070">
        <ele>1845.8</ele>
        <time>2022-08-15T15:36:36Z</time>
      </trkpt>
      <trkpt lat="4.0494530" lon="-76.4071070">
        <ele>1846.2</ele>
        <time>2022-08-15T15:36:37Z</time>
      </trkpt>
      <trkpt lat="4.0493200" lon="-76.4070990">
        <ele>1847.2</ele>
        <time>2022-08-15T15:36:43Z</time>
      </trkpt>
      <trkpt lat="4.0492770" lon="-76.4070960">
        <ele>1847.4</ele>
        <time>2022-08-15T15:36:45Z</time>
      </trkpt>
      <trkpt lat="4.0492110" lon="-76.4071040">
        <ele>1847.8</ele>
        <time>2022-08-15T15:36:48Z</time>
      </trkpt>
      <trkpt lat="4.0491530" lon="-76.4071150">
        <ele>1848.0</ele>
        <time>2022-08-15T15:36:50Z</time>
      </trkpt>
      <trkpt lat="4.0491320" lon="-76.4071100">
        <ele>1848.2</ele>
        <time>2022-08-15T15:36:51Z</time>
      </trkpt>
      <trkpt lat="4.0490250" lon="-76.4070390">
        <ele>1848.4</ele>
        <time>2022-08-15T15:36:56Z</time>
      </trkpt>
      <trkpt lat="4.0489270" lon="-76.4069640">
        <ele>1848.8</ele>
        <time>2022-08-15T15:37:01Z</time>
      </trkpt>
      <trkpt lat="4.0489060" lon="-76.4069520">
        <ele>1849.0</ele>
        <time>2022-08-15T15:37:02Z</time>
      </trkpt>
      <trkpt lat="4.0488010" lon="-76.4069170">
        <ele>1849.4</ele>
        <time>2022-08-15T15:37:06Z</time>
      </trkpt>
      <trkpt lat="4.0485900" lon="-76.4069460">
        <ele>1849.8</ele>
        <time>2022-08-15T15:37:13Z</time>
      </trkpt>
      <trkpt lat="4.0484160" lon="-76.4070310">
        <ele>1849.8</ele>
        <time>2022-08-15T15:37:20Z</time>
      </trkpt>
      <trkpt lat="4.0483590" lon="-76.4070870">
        <ele>1850.0</ele>
        <time>2022-08-15T15:37:24Z</time>
      </trkpt>
      <trkpt lat="4.0483280" lon="-76.4071190">
        <ele>1850.2</ele>
        <time>2022-08-15T15:37:26Z</time>
      </trkpt>
      <trkpt lat="4.0482590" lon="-76.4071980">
        <ele>1851.0</ele>
        <time>2022-08-15T15:37:32Z</time>
      </trkpt>
      <trkpt lat="4.0482460" lon="-76.4072110">
        <ele>1851.2</ele>
        <time>2022-08-15T15:37:33Z</time>
      </trkpt>
      <trkpt lat="4.0481840" lon="-76.4072570">
        <ele>1852.0</ele>
        <time>2022-08-15T15:37:37Z</time>
      </trkpt>
      <trkpt lat="4.0480780" lon="-76.4073270">
        <ele>1852.8</ele>
        <time>2022-08-15T15:37:42Z</time>
      </trkpt>
      <trkpt lat="4.0480230" lon="-76.4073590">
        <ele>1853.2</ele>
        <time>2022-08-15T15:37:45Z</time>
      </trkpt>
      <trkpt lat="4.0479550" lon="-76.4074130">
        <ele>1853.8</ele>
        <time>2022-08-15T15:37:49Z</time>
      </trkpt>
      <trkpt lat="4.0478990" lon="-76.4074640">
        <ele>1854.2</ele>
        <time>2022-08-15T15:37:52Z</time>
      </trkpt>
      <trkpt lat="4.0478820" lon="-76.4074830">
        <ele>1854.4</ele>
        <time>2022-08-15T15:37:53Z</time>
      </trkpt>
      <trkpt lat="4.0478220" lon="-76.4075810">
        <ele>1854.8</ele>
        <time>2022-08-15T15:37:57Z</time>
      </trkpt>
      <trkpt lat="4.0477810" lon="-76.4077580">
        <ele>1854.8</ele>
        <time>2022-08-15T15:38:02Z</time>
      </trkpt>
      <trkpt lat="4.0477630" lon="-76.4078910">
        <ele>1854.8</ele>
        <time>2022-08-15T15:38:05Z</time>
      </trkpt>
      <trkpt lat="4.0477480" lon="-76.4079330">
        <ele>1854.8</ele>
        <time>2022-08-15T15:38:06Z</time>
      </trkpt>
      <trkpt lat="4.0477250" lon="-76.4079810">
        <ele>1854.8</ele>
        <time>2022-08-15T15:38:07Z</time>
      </trkpt>
      <trkpt lat="4.0476590" lon="-76.4080370">
        <ele>1854.6</ele>
        <time>2022-08-15T15:38:09Z</time>
      </trkpt>
      <trkpt lat="4.0475660" lon="-76.4080800">
        <ele>1854.0</ele>
        <time>2022-08-15T15:38:11Z</time>
      </trkpt>
      <trkpt lat="4.0474700" lon="-76.4080890">
        <ele>1853.6</ele>
        <time>2022-08-15T15:38:13Z</time>
      </trkpt>
      <trkpt lat="4.0473250" lon="-76.4080670">
        <ele>1853.0</ele>
        <time>2022-08-15T15:38:16Z</time>
      </trkpt>
      <trkpt lat="4.0471330" lon="-76.4080390">
        <ele>1851.8</ele>
        <time>2022-08-15T15:38:20Z</time>
      </trkpt>
      <trkpt lat="4.0470860" lon="-76.4080310">
        <ele>1851.6</ele>
        <time>2022-08-15T15:38:21Z</time>
      </trkpt>
      <trkpt lat="4.0469940" lon="-76.4080160">
        <ele>1850.0</ele>
        <time>2022-08-15T15:38:23Z</time>
      </trkpt>
      <trkpt lat="4.0468940" lon="-76.4080260">
        <ele>1849.0</ele>
        <time>2022-08-15T15:38:25Z</time>
      </trkpt>
      <trkpt lat="4.0467920" lon="-76.4080720">
        <ele>1848.6</ele>
        <time>2022-08-15T15:38:27Z</time>
      </trkpt>
      <trkpt lat="4.0467050" lon="-76.4081450">
        <ele>1848.0</ele>
        <time>2022-08-15T15:38:29Z</time>
      </trkpt>
      <trkpt lat="4.0466660" lon="-76.4081850">
        <ele>1847.0</ele>
        <time>2022-08-15T15:38:30Z</time>
      </trkpt>
      <trkpt lat="4.0465650" lon="-76.4082950">
        <ele>1845.6</ele>
        <time>2022-08-15T15:38:33Z</time>
      </trkpt>
      <trkpt lat="4.0465070" lon="-76.4083680">
        <ele>1844.8</ele>
        <time>2022-08-15T15:38:35Z</time>
      </trkpt>
      <trkpt lat="4.0464520" lon="-76.4084390">
        <ele>1844.4</ele>
        <time>2022-08-15T15:38:37Z</time>
      </trkpt>
      <trkpt lat="4.0464280" lon="-76.4084740">
        <ele>1844.2</ele>
        <time>2022-08-15T15:38:38Z</time>
      </trkpt>
      <trkpt lat="4.0463630" lon="-76.4085700">
        <ele>1844.2</ele>
        <time>2022-08-15T15:38:41Z</time>
      </trkpt>
      <trkpt lat="4.0462590" lon="-76.4087590">
        <ele>1844.6</ele>
        <time>2022-08-15T15:38:48Z</time>
      </trkpt>
      <trkpt lat="4.0461760" lon="-76.4088950">
        <ele>1845.8</ele>
        <time>2022-08-15T15:38:54Z</time>
      </trkpt>
      <trkpt lat="4.0461590" lon="-76.4089200">
        <ele>1846.0</ele>
        <time>2022-08-15T15:38:55Z</time>
      </trkpt>
      <trkpt lat="4.0460170" lon="-76.4090770">
        <ele>1846.8</ele>
        <time>2022-08-15T15:39:01Z</time>
      </trkpt>
      <trkpt lat="4.0459860" lon="-76.4090990">
        <ele>1846.8</ele>
        <time>2022-08-15T15:39:02Z</time>
      </trkpt>
      <trkpt lat="4.0457530" lon="-76.4092390">
        <ele>1846.4</ele>
        <time>2022-08-15T15:39:09Z</time>
      </trkpt>
      <trkpt lat="4.0455890" lon="-76.4093210">
        <ele>1846.4</ele>
        <time>2022-08-15T15:39:14Z</time>
      </trkpt>
      <trkpt lat="4.0453270" lon="-76.4094750">
        <ele>1846.4</ele>
        <time>2022-08-15T15:39:22Z</time>
      </trkpt>
      <trkpt lat="4.0451180" lon="-76.4095770">
        <ele>1846.0</ele>
        <time>2022-08-15T15:39:28Z</time>
      </trkpt>
      <trkpt lat="4.0448700" lon="-76.4096630">
        <ele>1846.0</ele>
        <time>2022-08-15T15:39:35Z</time>
      </trkpt>
      <trkpt lat="4.0446840" lon="-76.4097490">
        <ele>1845.6</ele>
        <time>2022-08-15T15:39:40Z</time>
      </trkpt>
      <trkpt lat="4.0445660" lon="-76.4098180">
        <ele>1845.6</ele>
        <time>2022-08-15T15:39:45Z</time>
      </trkpt>
      <trkpt lat="4.0444720" lon="-76.4099310">
        <ele>1846.0</ele>
        <time>2022-08-15T15:39:52Z</time>
      </trkpt>
      <trkpt lat="4.0443970" lon="-76.4099860">
        <ele>1846.6</ele>
        <time>2022-08-15T15:39:57Z</time>
      </trkpt>
      <trkpt lat="4.0442610" lon="-76.4100880">
        <ele>1847.6</ele>
        <time>2022-08-15T15:40:05Z</time>
      </trkpt>
      <trkpt lat="4.0442240" lon="-76.4101350">
        <ele>1847.8</ele>
        <time>2022-08-15T15:40:08Z</time>
      </trkpt>
      <trkpt lat="4.0441680" lon="-76.4102310">
        <ele>1848.6</ele>
        <time>2022-08-15T15:40:14Z</time>
      </trkpt>
      <trkpt lat="4.0441610" lon="-76.4102450">
        <ele>1848.8</ele>
        <time>2022-08-15T15:40:15Z</time>
      </trkpt>
      <trkpt lat="4.0440930" lon="-76.4103290">
        <ele>1849.8</ele>
        <time>2022-08-15T15:40:21Z</time>
      </trkpt>
      <trkpt lat="4.0440560" lon="-76.4103510">
        <ele>1850.0</ele>
        <time>2022-08-15T15:40:23Z</time>
      </trkpt>
      <trkpt lat="4.0439370" lon="-76.4103420">
        <ele>1851.0</ele>
        <time>2022-08-15T15:40:29Z</time>
      </trkpt>
      <trkpt lat="4.0439040" lon="-76.4103150">
        <ele>1851.4</ele>
        <time>2022-08-15T15:40:31Z</time>
      </trkpt>
      <trkpt lat="4.0438500" lon="-76.4102420">
        <ele>1851.8</ele>
        <time>2022-08-15T15:40:35Z</time>
      </trkpt>
      <trkpt lat="4.0438240" lon="-76.4102070">
        <ele>1852.0</ele>
        <time>2022-08-15T15:40:37Z</time>
      </trkpt>
      <trkpt lat="4.0437380" lon="-76.4101590">
        <ele>1852.4</ele>
        <time>2022-08-15T15:40:42Z</time>
      </trkpt>
      <trkpt lat="4.0435950" lon="-76.4101540">
        <ele>1853.0</ele>
        <time>2022-08-15T15:40:49Z</time>
      </trkpt>
      <trkpt lat="4.0434840" lon="-76.4101100">
        <ele>1854.2</ele>
        <time>2022-08-15T15:40:55Z</time>
      </trkpt>
      <trkpt lat="4.0434070" lon="-76.4099880">
        <ele>1855.0</ele>
        <time>2022-08-15T15:41:02Z</time>
      </trkpt>
      <trkpt lat="4.0434060" lon="-76.4099680">
        <ele>1855.2</ele>
        <time>2022-08-15T15:41:03Z</time>
      </trkpt>
      <trkpt lat="4.0434010" lon="-76.4099470">
        <ele>1855.4</ele>
        <time>2022-08-15T15:41:04Z</time>
      </trkpt>
      <trkpt lat="4.0433620" lon="-76.4098730">
        <ele>1856.0</ele>
        <time>2022-08-15T15:41:08Z</time>
      </trkpt>
      <trkpt lat="4.0433370" lon="-76.4098340">
        <ele>1856.4</ele>
        <time>2022-08-15T15:41:10Z</time>
      </trkpt>
      <trkpt lat="4.0432450" lon="-76.4097730">
        <ele>1857.2</ele>
        <time>2022-08-15T15:41:15Z</time>
      </trkpt>
      <trkpt lat="4.0432100" lon="-76.4097710">
        <ele>1857.4</ele>
        <time>2022-08-15T15:41:17Z</time>
      </trkpt>
      <trkpt lat="4.0431560" lon="-76.4097890">
        <ele>1857.6</ele>
        <time>2022-08-15T15:41:20Z</time>
      </trkpt>
      <trkpt lat="4.0430680" lon="-76.4098640">
        <ele>1858.6</ele>
        <time>2022-08-15T15:41:27Z</time>
      </trkpt>
      <trkpt lat="4.0429950" lon="-76.4099110">
        <ele>1859.4</ele>
        <time>2022-08-15T15:41:32Z</time>
      </trkpt>
      <trkpt lat="4.0429460" lon="-76.4099220">
        <ele>1860.0</ele>
        <time>2022-08-15T15:41:35Z</time>
      </trkpt>
      <trkpt lat="4.0428760" lon="-76.4099160">
        <ele>1860.6</ele>
        <time>2022-08-15T15:41:39Z</time>
      </trkpt>
      <trkpt lat="4.0428430" lon="-76.4099100">
        <ele>1861.0</ele>
        <time>2022-08-15T15:41:41Z</time>
      </trkpt>
      <trkpt lat="4.0427920" lon="-76.4098820">
        <ele>1861.6</ele>
        <time>2022-08-15T15:41:44Z</time>
      </trkpt>
      <trkpt lat="4.0427180" lon="-76.4098690">
        <ele>1862.4</ele>
        <time>2022-08-15T15:41:48Z</time>
      </trkpt>
      <trkpt lat="4.0427000" lon="-76.4098700">
        <ele>1862.6</ele>
        <time>2022-08-15T15:41:49Z</time>
      </trkpt>
      <trkpt lat="4.0426000" lon="-76.4098950">
        <ele>1863.2</ele>
        <time>2022-08-15T15:41:54Z</time>
      </trkpt>
      <trkpt lat="4.0425370" lon="-76.4099110">
        <ele>1863.8</ele>
        <time>2022-08-15T15:41:57Z</time>
      </trkpt>
      <trkpt lat="4.0424340" lon="-76.4099470">
        <ele>1864.4</ele>
        <time>2022-08-15T15:42:02Z</time>
      </trkpt>
      <trkpt lat="4.0423960" lon="-76.4099600">
        <ele>1864.8</ele>
        <time>2022-08-15T15:42:04Z</time>
      </trkpt>
      <trkpt lat="4.0422770" lon="-76.4099920">
        <ele>1865.8</ele>
        <time>2022-08-15T15:42:10Z</time>
      </trkpt>
      <trkpt lat="4.0422580" lon="-76.4099950">
        <ele>1865.8</ele>
        <time>2022-08-15T15:42:11Z</time>
      </trkpt>
      <trkpt lat="4.0421260" lon="-76.4100610">
        <ele>1866.4</ele>
        <time>2022-08-15T15:42:18Z</time>
      </trkpt>
      <trkpt lat="4.0419770" lon="-76.4101290">
        <ele>1866.6</ele>
        <time>2022-08-15T15:42:25Z</time>
      </trkpt>
      <trkpt lat="4.0419350" lon="-76.4101400">
        <ele>1866.8</ele>
        <time>2022-08-15T15:42:27Z</time>
      </trkpt>
      <trkpt lat="4.0418360" lon="-76.4101610">
        <ele>1867.2</ele>
        <time>2022-08-15T15:42:32Z</time>
      </trkpt>
      <trkpt lat="4.0417130" lon="-76.4102030">
        <ele>1867.8</ele>
        <time>2022-08-15T15:42:38Z</time>
      </trkpt>
      <trkpt lat="4.0417130" lon="-76.4102030">
        <ele>1868.0</ele>
        <time>2022-08-15T15:42:39Z</time>
      </trkpt>
      <trkpt lat="4.0415630" lon="-76.4102570">
        <ele>1869.0</ele>
        <time>2022-08-15T15:42:45Z</time>
      </trkpt>
      <trkpt lat="4.0413400" lon="-76.4103020">
        <ele>1869.6</ele>
        <time>2022-08-15T15:42:54Z</time>
      </trkpt>
      <trkpt lat="4.0412010" lon="-76.4102710">
        <ele>1870.0</ele>
        <time>2022-08-15T15:43:01Z</time>
      </trkpt>
      <trkpt lat="4.0411850" lon="-76.4102580">
        <ele>1870.2</ele>
        <time>2022-08-15T15:43:03Z</time>
      </trkpt>
      <trkpt lat="4.0411450" lon="-76.4101860">
        <ele>1871.0</ele>
        <time>2022-08-15T15:43:06Z</time>
      </trkpt>
      <trkpt lat="4.0411400" lon="-76.4101610">
        <ele>1871.2</ele>
        <time>2022-08-15T15:43:07Z</time>
      </trkpt>
      <trkpt lat="4.0411580" lon="-76.4100120">
        <ele>1871.8</ele>
        <time>2022-08-15T15:43:13Z</time>
      </trkpt>
      <trkpt lat="4.0411630" lon="-76.4099850">
        <ele>1872.4</ele>
        <time>2022-08-15T15:43:14Z</time>
      </trkpt>
      <trkpt lat="4.0411620" lon="-76.4098990">
        <ele>1873.0</ele>
        <time>2022-08-15T15:43:18Z</time>
      </trkpt>
      <trkpt lat="4.0411440" lon="-76.4098440">
        <ele>1873.2</ele>
        <time>2022-08-15T15:43:19Z</time>
      </trkpt>
      <trkpt lat="4.0411070" lon="-76.4097960">
        <ele>1873.4</ele>
        <time>2022-08-15T15:43:22Z</time>
      </trkpt>
      <trkpt lat="4.0410660" lon="-76.4097790">
        <ele>1873.6</ele>
        <time>2022-08-15T15:43:24Z</time>
      </trkpt>
      <trkpt lat="4.0409670" lon="-76.4097460">
        <ele>1874.0</ele>
        <time>2022-08-15T15:43:28Z</time>
      </trkpt>
      <trkpt lat="4.0408970" lon="-76.4097220">
        <ele>1874.2</ele>
        <time>2022-08-15T15:43:31Z</time>
      </trkpt>
      <trkpt lat="4.0407500" lon="-76.4097180">
        <ele>1874.8</ele>
        <time>2022-08-15T15:43:38Z</time>
      </trkpt>
      <trkpt lat="4.0406880" lon="-76.4097250">
        <ele>1875.0</ele>
        <time>2022-08-15T15:43:41Z</time>
      </trkpt>
      <trkpt lat="4.0405940" lon="-76.4097420">
        <ele>1875.6</ele>
        <time>2022-08-15T15:43:46Z</time>
      </trkpt>
      <trkpt lat="4.0405250" lon="-76.4097520">
        <ele>1876.2</ele>
        <time>2022-08-15T15:43:50Z</time>
      </trkpt>
      <trkpt lat="4.0404710" lon="-76.4097560">
        <ele>1876.6</ele>
        <time>2022-08-15T15:43:53Z</time>
      </trkpt>
      <trkpt lat="4.0404050" lon="-76.4097600">
        <ele>1877.2</ele>
        <time>2022-08-15T15:43:56Z</time>
      </trkpt>
      <trkpt lat="4.0402810" lon="-76.4097970">
        <ele>1878.0</ele>
        <time>2022-08-15T15:44:02Z</time>
      </trkpt>
      <trkpt lat="4.0402460" lon="-76.4098130">
        <ele>1878.4</ele>
        <time>2022-08-15T15:44:04Z</time>
      </trkpt>
      <trkpt lat="4.0401830" lon="-76.4098600">
        <ele>1878.8</ele>
        <time>2022-08-15T15:44:08Z</time>
      </trkpt>
      <trkpt lat="4.0401430" lon="-76.4098930">
        <ele>1879.4</ele>
        <time>2022-08-15T15:44:11Z</time>
      </trkpt>
      <trkpt lat="4.0400680" lon="-76.4099600">
        <ele>1880.4</ele>
        <time>2022-08-15T15:44:17Z</time>
      </trkpt>
      <trkpt lat="4.0399960" lon="-76.4100480">
        <ele>1881.4</ele>
        <time>2022-08-15T15:44:24Z</time>
      </trkpt>
      <trkpt lat="4.0399190" lon="-76.4100980">
        <ele>1882.2</ele>
        <time>2022-08-15T15:44:30Z</time>
      </trkpt>
      <trkpt lat="4.0398870" lon="-76.4101050">
        <ele>1882.6</ele>
        <time>2022-08-15T15:44:32Z</time>
      </trkpt>
      <trkpt lat="4.0398100" lon="-76.4100850">
        <ele>1883.8</ele>
        <time>2022-08-15T15:44:37Z</time>
      </trkpt>
      <trkpt lat="4.0397970" lon="-76.4100780">
        <ele>1884.0</ele>
        <time>2022-08-15T15:44:38Z</time>
      </trkpt>
      <trkpt lat="4.0397520" lon="-76.4100600">
        <ele>1884.8</ele>
        <time>2022-08-15T15:44:42Z</time>
      </trkpt>
      <trkpt lat="4.0397230" lon="-76.4100500">
        <ele>1885.0</ele>
        <time>2022-08-15T15:44:43Z</time>
      </trkpt>
      <trkpt lat="4.0396880" lon="-76.4100480">
        <ele>1885.2</ele>
        <time>2022-08-15T15:44:45Z</time>
      </trkpt>
      <trkpt lat="4.0395860" lon="-76.4100650">
        <ele>1885.8</ele>
        <time>2022-08-15T15:44:51Z</time>
      </trkpt>
      <trkpt lat="4.0395520" lon="-76.4100740">
        <ele>1886.0</ele>
        <time>2022-08-15T15:44:53Z</time>
      </trkpt>
      <trkpt lat="4.0394810" lon="-76.4101170">
        <ele>1886.8</ele>
        <time>2022-08-15T15:44:58Z</time>
      </trkpt>
      <trkpt lat="4.0394530" lon="-76.4101310">
        <ele>1887.0</ele>
        <time>2022-08-15T15:45:00Z</time>
      </trkpt>
      <trkpt lat="4.0394020" lon="-76.4101700">
        <ele>1888.0</ele>
        <time>2022-08-15T15:45:04Z</time>
      </trkpt>
      <trkpt lat="4.0393670" lon="-76.4102030">
        <ele>1888.6</ele>
        <time>2022-08-15T15:45:07Z</time>
      </trkpt>
      <trkpt lat="4.0393430" lon="-76.4102230">
        <ele>1889.0</ele>
        <time>2022-08-15T15:45:09Z</time>
      </trkpt>
      <trkpt lat="4.0392830" lon="-76.4102490">
        <ele>1889.8</ele>
        <time>2022-08-15T15:45:13Z</time>
      </trkpt>
      <trkpt lat="4.0392280" lon="-76.4102630">
        <ele>1890.4</ele>
        <time>2022-08-15T15:45:16Z</time>
      </trkpt>
      <trkpt lat="4.0391670" lon="-76.4102520">
        <ele>1891.0</ele>
        <time>2022-08-15T15:45:19Z</time>
      </trkpt>
      <trkpt lat="4.0391300" lon="-76.4102420">
        <ele>1891.6</ele>
        <time>2022-08-15T15:45:21Z</time>
      </trkpt>
      <trkpt lat="4.0390790" lon="-76.4101950">
        <ele>1892.2</ele>
        <time>2022-08-15T15:45:24Z</time>
      </trkpt>
      <trkpt lat="4.0390030" lon="-76.4101400">
        <ele>1892.6</ele>
        <time>2022-08-15T15:45:28Z</time>
      </trkpt>
      <trkpt lat="4.0389080" lon="-76.4100750">
        <ele>1893.0</ele>
        <time>2022-08-15T15:45:34Z</time>
      </trkpt>
      <trkpt lat="4.0388060" lon="-76.4100210">
        <ele>1893.4</ele>
        <time>2022-08-15T15:45:40Z</time>
      </trkpt>
      <trkpt lat="4.0387700" lon="-76.4100160">
        <ele>1893.8</ele>
        <time>2022-08-15T15:45:42Z</time>
      </trkpt>
      <trkpt lat="4.0386950" lon="-76.4100090">
        <ele>1894.4</ele>
        <time>2022-08-15T15:45:46Z</time>
      </trkpt>
      <trkpt lat="4.0386540" lon="-76.4100120">
        <ele>1894.8</ele>
        <time>2022-08-15T15:45:48Z</time>
      </trkpt>
      <trkpt lat="4.0385500" lon="-76.4100250">
        <ele>1895.8</ele>
        <time>2022-08-15T15:45:53Z</time>
      </trkpt>
      <trkpt lat="4.0384670" lon="-76.4100160">
        <ele>1896.8</ele>
        <time>2022-08-15T15:45:57Z</time>
      </trkpt>
      <trkpt lat="4.0384540" lon="-76.4100130">
        <ele>1897.0</ele>
        <time>2022-08-15T15:45:58Z</time>
      </trkpt>
      <trkpt lat="4.0384390" lon="-76.4100090">
        <ele>1897.0</ele>
        <time>2022-08-15T15:45:59Z</time>
      </trkpt>
      <trkpt lat="4.0384010" lon="-76.4099760">
        <ele>1897.4</ele>
        <time>2022-08-15T15:46:02Z</time>
      </trkpt>
      <trkpt lat="4.0383810" lon="-76.4099230">
        <ele>1897.8</ele>
        <time>2022-08-15T15:46:05Z</time>
      </trkpt>
      <trkpt lat="4.0383400" lon="-76.4098150">
        <ele>1899.0</ele>
        <time>2022-08-15T15:46:11Z</time>
      </trkpt>
      <trkpt lat="4.0383310" lon="-76.4097800">
        <ele>1899.6</ele>
        <time>2022-08-15T15:46:13Z</time>
      </trkpt>
      <trkpt lat="4.0383100" lon="-76.4097090">
        <ele>1900.2</ele>
        <time>2022-08-15T15:46:17Z</time>
      </trkpt>
      <trkpt lat="4.0382820" lon="-76.4096610">
        <ele>1900.8</ele>
        <time>2022-08-15T15:46:20Z</time>
      </trkpt>
      <trkpt lat="4.0382560" lon="-76.4096360">
        <ele>1901.2</ele>
        <time>2022-08-15T15:46:22Z</time>
      </trkpt>
      <trkpt lat="4.0382130" lon="-76.4095920">
        <ele>1902.0</ele>
        <time>2022-08-15T15:46:26Z</time>
      </trkpt>
      <trkpt lat="4.0381920" lon="-76.4095620">
        <ele>1902.4</ele>
        <time>2022-08-15T15:46:28Z</time>
      </trkpt>
      <trkpt lat="4.0381240" lon="-76.4095000">
        <ele>1903.4</ele>
        <time>2022-08-15T15:46:33Z</time>
      </trkpt>
      <trkpt lat="4.0380860" lon="-76.4094430">
        <ele>1904.2</ele>
        <time>2022-08-15T15:46:36Z</time>
      </trkpt>
      <trkpt lat="4.0380730" lon="-76.4094290">
        <ele>1904.4</ele>
        <time>2022-08-15T15:46:37Z</time>
      </trkpt>
      <trkpt lat="4.0380440" lon="-76.4094080">
        <ele>1904.4</ele>
        <time>2022-08-15T15:46:39Z</time>
      </trkpt>
      <trkpt lat="4.0379950" lon="-76.4094100">
        <ele>1904.8</ele>
        <time>2022-08-15T15:46:42Z</time>
      </trkpt>
      <trkpt lat="4.0379330" lon="-76.4094300">
        <ele>1905.2</ele>
        <time>2022-08-15T15:46:45Z</time>
      </trkpt>
      <trkpt lat="4.0379220" lon="-76.4094380">
        <ele>1905.2</ele>
        <time>2022-08-15T15:46:46Z</time>
      </trkpt>
      <trkpt lat="4.0378860" lon="-76.4094700">
        <ele>1906.0</ele>
        <time>2022-08-15T15:46:49Z</time>
      </trkpt>
      <trkpt lat="4.0378530" lon="-76.4095110">
        <ele>1906.4</ele>
        <time>2022-08-15T15:46:52Z</time>
      </trkpt>
      <trkpt lat="4.0377990" lon="-76.4095770">
        <ele>1906.6</ele>
        <time>2022-08-15T15:46:56Z</time>
      </trkpt>
      <trkpt lat="4.0377650" lon="-76.4096030">
        <ele>1907.2</ele>
        <time>2022-08-15T15:46:58Z</time>
      </trkpt>
      <trkpt lat="4.0376540" lon="-76.4097140">
        <ele>1908.2</ele>
        <time>2022-08-15T15:47:04Z</time>
      </trkpt>
      <trkpt lat="4.0375070" lon="-76.4098560">
        <ele>1908.8</ele>
        <time>2022-08-15T15:47:12Z</time>
      </trkpt>
      <trkpt lat="4.0373980" lon="-76.4098550">
        <ele>1909.4</ele>
        <time>2022-08-15T15:47:17Z</time>
      </trkpt>
      <trkpt lat="4.0373820" lon="-76.4098470">
        <ele>1909.6</ele>
        <time>2022-08-15T15:47:18Z</time>
      </trkpt>
      <trkpt lat="4.0373300" lon="-76.4097820">
        <ele>1910.4</ele>
        <time>2022-08-15T15:47:23Z</time>
      </trkpt>
      <trkpt lat="4.0373110" lon="-76.4097470">
        <ele>1910.8</ele>
        <time>2022-08-15T15:47:25Z</time>
      </trkpt>
      <trkpt lat="4.0372980" lon="-76.4096940">
        <ele>1911.6</ele>
        <time>2022-08-15T15:47:28Z</time>
      </trkpt>
      <trkpt lat="4.0372860" lon="-76.4096300">
        <ele>1912.2</ele>
        <time>2022-08-15T15:47:32Z</time>
      </trkpt>
      <trkpt lat="4.0372870" lon="-76.4095710">
        <ele>1912.8</ele>
        <time>2022-08-15T15:47:35Z</time>
      </trkpt>
      <trkpt lat="4.0372730" lon="-76.4094460">
        <ele>1913.4</ele>
        <time>2022-08-15T15:47:40Z</time>
      </trkpt>
      <trkpt lat="4.0372700" lon="-76.4094180">
        <ele>1913.6</ele>
        <time>2022-08-15T15:47:41Z</time>
      </trkpt>
      <trkpt lat="4.0372560" lon="-76.4092760">
        <ele>1914.0</ele>
        <time>2022-08-15T15:47:47Z</time>
      </trkpt>
      <trkpt lat="4.0372490" lon="-76.4092520">
        <ele>1914.0</ele>
        <time>2022-08-15T15:47:48Z</time>
      </trkpt>
      <trkpt lat="4.0372270" lon="-76.4091550">
        <ele>1914.2</ele>
        <time>2022-08-15T15:47:53Z</time>
      </trkpt>
      <trkpt lat="4.0372150" lon="-76.4090750">
        <ele>1914.8</ele>
        <time>2022-08-15T15:47:57Z</time>
      </trkpt>
      <trkpt lat="4.0372060" lon="-76.4089840">
        <ele>1915.6</ele>
        <time>2022-08-15T15:48:01Z</time>
      </trkpt>
      <trkpt lat="4.0371970" lon="-76.4089120">
        <ele>1915.8</ele>
        <time>2022-08-15T15:48:04Z</time>
      </trkpt>
      <trkpt lat="4.0371660" lon="-76.4087750">
        <ele>1916.6</ele>
        <time>2022-08-15T15:48:10Z</time>
      </trkpt>
      <trkpt lat="4.0371420" lon="-76.4087250">
        <ele>1917.0</ele>
        <time>2022-08-15T15:48:13Z</time>
      </trkpt>
      <trkpt lat="4.0370940" lon="-76.4086680">
        <ele>1917.6</ele>
        <time>2022-08-15T15:48:17Z</time>
      </trkpt>
      <trkpt lat="4.0370480" lon="-76.4086340">
        <ele>1918.2</ele>
        <time>2022-08-15T15:48:20Z</time>
      </trkpt>
      <trkpt lat="4.0369870" lon="-76.4085970">
        <ele>1919.4</ele>
        <time>2022-08-15T15:48:25Z</time>
      </trkpt>
      <trkpt lat="4.0369340" lon="-76.4085810">
        <ele>1919.6</ele>
        <time>2022-08-15T15:48:27Z</time>
      </trkpt>
      <trkpt lat="4.0368780" lon="-76.4085630">
        <ele>1920.2</ele>
        <time>2022-08-15T15:48:30Z</time>
      </trkpt>
      <trkpt lat="4.0368110" lon="-76.4085420">
        <ele>1921.4</ele>
        <time>2022-08-15T15:48:34Z</time>
      </trkpt>
      <trkpt lat="4.0367730" lon="-76.4085360">
        <ele>1921.8</ele>
        <time>2022-08-15T15:48:36Z</time>
      </trkpt>
      <trkpt lat="4.0366990" lon="-76.4085220">
        <ele>1922.6</ele>
        <time>2022-08-15T15:48:40Z</time>
      </trkpt>
      <trkpt lat="4.0366200" lon="-76.4085300">
        <ele>1923.6</ele>
        <time>2022-08-15T15:48:45Z</time>
      </trkpt>
      <trkpt lat="4.0365190" lon="-76.4085450">
        <ele>1924.6</ele>
        <time>2022-08-15T15:48:52Z</time>
      </trkpt>
      <trkpt lat="4.0365040" lon="-76.4085470">
        <ele>1924.8</ele>
        <time>2022-08-15T15:48:53Z</time>
      </trkpt>
      <trkpt lat="4.0364270" lon="-76.4085520">
        <ele>1925.8</ele>
        <time>2022-08-15T15:48:58Z</time>
      </trkpt>
      <trkpt lat="4.0363610" lon="-76.4085630">
        <ele>1926.6</ele>
        <time>2022-08-15T15:49:02Z</time>
      </trkpt>
      <trkpt lat="4.0363220" lon="-76.4085730">
        <ele>1927.0</ele>
        <time>2022-08-15T15:49:04Z</time>
      </trkpt>
      <trkpt lat="4.0362720" lon="-76.4085810">
        <ele>1927.4</ele>
        <time>2022-08-15T15:49:07Z</time>
      </trkpt>
      <trkpt lat="4.0362540" lon="-76.4085810">
        <ele>1927.6</ele>
        <time>2022-08-15T15:49:08Z</time>
      </trkpt>
      <trkpt lat="4.0361920" lon="-76.4085790">
        <ele>1928.2</ele>
        <time>2022-08-15T15:49:11Z</time>
      </trkpt>
      <trkpt lat="4.0360460" lon="-76.4085710">
        <ele>1928.8</ele>
        <time>2022-08-15T15:49:16Z</time>
      </trkpt>
      <trkpt lat="4.0358600" lon="-76.4086060">
        <ele>1929.0</ele>
        <time>2022-08-15T15:49:21Z</time>
      </trkpt>
      <trkpt lat="4.0358070" lon="-76.4086170">
        <ele>1929.2</ele>
        <time>2022-08-15T15:49:23Z</time>
      </trkpt>
      <trkpt lat="4.0357100" lon="-76.4086280">
        <ele>1929.4</ele>
        <time>2022-08-15T15:49:27Z</time>
      </trkpt>
      <trkpt lat="4.0355450" lon="-76.4086600">
        <ele>1930.0</ele>
        <time>2022-08-15T15:49:33Z</time>
      </trkpt>
      <trkpt lat="4.0355200" lon="-76.4086690">
        <ele>1930.4</ele>
        <time>2022-08-15T15:49:34Z</time>
      </trkpt>
      <trkpt lat="4.0354350" lon="-76.4087860">
        <ele>1930.8</ele>
        <time>2022-08-15T15:49:40Z</time>
      </trkpt>
      <trkpt lat="4.0353960" lon="-76.4089020">
        <ele>1931.2</ele>
        <time>2022-08-15T15:49:46Z</time>
      </trkpt>
      <trkpt lat="4.0353300" lon="-76.4089720">
        <ele>1932.2</ele>
        <time>2022-08-15T15:49:51Z</time>
      </trkpt>
      <trkpt lat="4.0353070" lon="-76.4089810">
        <ele>1932.6</ele>
        <time>2022-08-15T15:49:52Z</time>
      </trkpt>
      <trkpt lat="4.0351940" lon="-76.4090040">
        <ele>1933.0</ele>
        <time>2022-08-15T15:49:56Z</time>
      </trkpt>
      <trkpt lat="4.0350590" lon="-76.4090430">
        <ele>1933.0</ele>
        <time>2022-08-15T15:50:00Z</time>
      </trkpt>
      <trkpt lat="4.0350250" lon="-76.4090590">
        <ele>1933.0</ele>
        <time>2022-08-15T15:50:01Z</time>
      </trkpt>
      <trkpt lat="4.0348590" lon="-76.4091100">
        <ele>1932.4</ele>
        <time>2022-08-15T15:50:05Z</time>
      </trkpt>
      <trkpt lat="4.0348020" lon="-76.4091270">
        <ele>1932.2</ele>
        <time>2022-08-15T15:50:06Z</time>
      </trkpt>
      <trkpt lat="4.0347450" lon="-76.4091470">
        <ele>1931.8</ele>
        <time>2022-08-15T15:50:07Z</time>
      </trkpt>
      <trkpt lat="4.0346920" lon="-76.4091690">
        <ele>1931.6</ele>
        <time>2022-08-15T15:50:08Z</time>
      </trkpt>
      <trkpt lat="4.0346410" lon="-76.4092000">
        <ele>1931.4</ele>
        <time>2022-08-15T15:50:09Z</time>
      </trkpt>
      <trkpt lat="4.0345890" lon="-76.4092380">
        <ele>1931.0</ele>
        <time>2022-08-15T15:50:10Z</time>
      </trkpt>
      <trkpt lat="4.0344470" lon="-76.4093300">
        <ele>1929.6</ele>
        <time>2022-08-15T15:50:13Z</time>
      </trkpt>
      <trkpt lat="4.0343590" lon="-76.4093760">
        <ele>1928.8</ele>
        <time>2022-08-15T15:50:15Z</time>
      </trkpt>
      <trkpt lat="4.0343190" lon="-76.4093870">
        <ele>1928.4</ele>
        <time>2022-08-15T15:50:16Z</time>
      </trkpt>
      <trkpt lat="4.0342060" lon="-76.4093750">
        <ele>1927.8</ele>
        <time>2022-08-15T15:50:20Z</time>
      </trkpt>
      <trkpt lat="4.0341290" lon="-76.4093510">
        <ele>1927.8</ele>
        <time>2022-08-15T15:50:25Z</time>
      </trkpt>
      <trkpt lat="4.0341250" lon="-76.4093470">
        <ele>1928.0</ele>
        <time>2022-08-15T15:50:26Z</time>
      </trkpt>
      <trkpt lat="4.0341210" lon="-76.4093510">
        <ele>1928.2</ele>
        <time>2022-08-15T15:50:39Z</time>
      </trkpt>
      <trkpt lat="4.0341210" lon="-76.4093510">
        <ele>1928.2</ele>
        <time>2022-08-15T15:50:47Z</time>
      </trkpt>
      <trkpt lat="4.0341210" lon="-76.4093510">
        <ele>1928.2</ele>
        <time>2022-08-15T15:50:58Z</time>
      </trkpt>
      <trkpt lat="4.0341210" lon="-76.4093510">
        <ele>1928.2</ele>
        <time>2022-08-15T15:51:16Z</time>
      </trkpt>
      <trkpt lat="4.0341210" lon="-76.4093490">
        <ele>1928.0</ele>
        <time>2022-08-15T15:51:25Z</time>
      </trkpt>
      <trkpt lat="4.0340780" lon="-76.4092800">
        <ele>1928.0</ele>
        <time>2022-08-15T15:51:28Z</time>
      </trkpt>
      <trkpt lat="4.0339470" lon="-76.4091020">
        <ele>1928.0</ele>
        <time>2022-08-15T15:51:33Z</time>
      </trkpt>
      <trkpt lat="4.0338170" lon="-76.4089640">
        <ele>1927.2</ele>
        <time>2022-08-15T15:51:37Z</time>
      </trkpt>
      <trkpt lat="4.0337280" lon="-76.4089240">
        <ele>1926.4</ele>
        <time>2022-08-15T15:51:39Z</time>
      </trkpt>
      <trkpt lat="4.0336780" lon="-76.4089110">
        <ele>1926.2</ele>
        <time>2022-08-15T15:51:40Z</time>
      </trkpt>
      <trkpt lat="4.0335730" lon="-76.4089040">
        <ele>1926.0</ele>
        <time>2022-08-15T15:51:43Z</time>
      </trkpt>
      <trkpt lat="4.0334750" lon="-76.4088730">
        <ele>1925.8</ele>
        <time>2022-08-15T15:51:44Z</time>
      </trkpt>
      <trkpt lat="4.0334040" lon="-76.4087960">
        <ele>1925.4</ele>
        <time>2022-08-15T15:51:46Z</time>
      </trkpt>
      <trkpt lat="4.0333840" lon="-76.4087460">
        <ele>1924.8</ele>
        <time>2022-08-15T15:51:47Z</time>
      </trkpt>
      <trkpt lat="4.0333500" lon="-76.4086470">
        <ele>1924.4</ele>
        <time>2022-08-15T15:51:49Z</time>
      </trkpt>
      <trkpt lat="4.0333260" lon="-76.4086010">
        <ele>1924.2</ele>
        <time>2022-08-15T15:51:50Z</time>
      </trkpt>
      <trkpt lat="4.0332920" lon="-76.4085660">
        <ele>1924.0</ele>
        <time>2022-08-15T15:51:51Z</time>
      </trkpt>
      <trkpt lat="4.0332090" lon="-76.4085250">
        <ele>1923.8</ele>
        <time>2022-08-15T15:51:53Z</time>
      </trkpt>
      <trkpt lat="4.0331740" lon="-76.4085080">
        <ele>1923.8</ele>
        <time>2022-08-15T15:51:54Z</time>
      </trkpt>
      <trkpt lat="4.0331000" lon="-76.4084300">
        <ele>1923.8</ele>
        <time>2022-08-15T15:51:58Z</time>
      </trkpt>
      <trkpt lat="4.0330660" lon="-76.4082850">
        <ele>1923.6</ele>
        <time>2022-08-15T15:52:02Z</time>
      </trkpt>
      <trkpt lat="4.0330040" lon="-76.4082090">
        <ele>1923.6</ele>
        <time>2022-08-15T15:52:04Z</time>
      </trkpt>
      <trkpt lat="4.0329580" lon="-76.4081950">
        <ele>1923.6</ele>
        <time>2022-08-15T15:52:05Z</time>
      </trkpt>
      <trkpt lat="4.0328950" lon="-76.4081990">
        <ele>1923.6</ele>
        <time>2022-08-15T15:52:06Z</time>
      </trkpt>
      <trkpt lat="4.0327930" lon="-76.4082320">
        <ele>1923.2</ele>
        <time>2022-08-15T15:52:08Z</time>
      </trkpt>
      <trkpt lat="4.0326410" lon="-76.4083250">
        <ele>1922.2</ele>
        <time>2022-08-15T15:52:11Z</time>
      </trkpt>
      <trkpt lat="4.0325610" lon="-76.4083990">
        <ele>1921.0</ele>
        <time>2022-08-15T15:52:13Z</time>
      </trkpt>
      <trkpt lat="4.0324430" lon="-76.4085390">
        <ele>1919.2</ele>
        <time>2022-08-15T15:52:16Z</time>
      </trkpt>
      <trkpt lat="4.0324100" lon="-76.4085880">
        <ele>1918.8</ele>
        <time>2022-08-15T15:52:17Z</time>
      </trkpt>
      <trkpt lat="4.0323800" lon="-76.4086410">
        <ele>1918.6</ele>
        <time>2022-08-15T15:52:18Z</time>
      </trkpt>
      <trkpt lat="4.0323210" lon="-76.4087540">
        <ele>1917.8</ele>
        <time>2022-08-15T15:52:20Z</time>
      </trkpt>
      <trkpt lat="4.0322570" lon="-76.4088610">
        <ele>1916.8</ele>
        <time>2022-08-15T15:52:22Z</time>
      </trkpt>
      <trkpt lat="4.0321510" lon="-76.4089280">
        <ele>1916.2</ele>
        <time>2022-08-15T15:52:24Z</time>
      </trkpt>
      <trkpt lat="4.0319780" lon="-76.4089420">
        <ele>1915.8</ele>
        <time>2022-08-15T15:52:27Z</time>
      </trkpt>
      <trkpt lat="4.0319180" lon="-76.4089500">
        <ele>1915.4</ele>
        <time>2022-08-15T15:52:28Z</time>
      </trkpt>
      <trkpt lat="4.0318610" lon="-76.4089670">
        <ele>1915.2</ele>
        <time>2022-08-15T15:52:29Z</time>
      </trkpt>
      <trkpt lat="4.0318120" lon="-76.4089950">
        <ele>1915.2</ele>
        <time>2022-08-15T15:52:30Z</time>
      </trkpt>
      <trkpt lat="4.0317720" lon="-76.4090820">
        <ele>1914.8</ele>
        <time>2022-08-15T15:52:32Z</time>
      </trkpt>
      <trkpt lat="4.0317580" lon="-76.4091250">
        <ele>1914.6</ele>
        <time>2022-08-15T15:52:33Z</time>
      </trkpt>
      <trkpt lat="4.0317180" lon="-76.4092290">
        <ele>1913.8</ele>
        <time>2022-08-15T15:52:35Z</time>
      </trkpt>
      <trkpt lat="4.0316820" lon="-76.4092810">
        <ele>1913.4</ele>
        <time>2022-08-15T15:52:36Z</time>
      </trkpt>
      <trkpt lat="4.0316480" lon="-76.4093040">
        <ele>1913.0</ele>
        <time>2022-08-15T15:52:37Z</time>
      </trkpt>
      <trkpt lat="4.0315510" lon="-76.4093090">
        <ele>1912.6</ele>
        <time>2022-08-15T15:52:39Z</time>
      </trkpt>
      <trkpt lat="4.0314990" lon="-76.4092900">
        <ele>1912.4</ele>
        <time>2022-08-15T15:52:40Z</time>
      </trkpt>
      <trkpt lat="4.0314470" lon="-76.4092650">
        <ele>1912.0</ele>
        <time>2022-08-15T15:52:41Z</time>
      </trkpt>
      <trkpt lat="4.0311890" lon="-76.4091340">
        <ele>1910.8</ele>
        <time>2022-08-15T15:52:46Z</time>
      </trkpt>
      <trkpt lat="4.0310120" lon="-76.4090700">
        <ele>1909.6</ele>
        <time>2022-08-15T15:52:50Z</time>
      </trkpt>
      <trkpt lat="4.0309360" lon="-76.4090510">
        <ele>1909.4</ele>
        <time>2022-08-15T15:52:52Z</time>
      </trkpt>
      <trkpt lat="4.0308580" lon="-76.4090220">
        <ele>1909.0</ele>
        <time>2022-08-15T15:52:54Z</time>
      </trkpt>
      <trkpt lat="4.0307730" lon="-76.4090060">
        <ele>1908.8</ele>
        <time>2022-08-15T15:52:56Z</time>
      </trkpt>
      <trkpt lat="4.0306750" lon="-76.4090210">
        <ele>1908.6</ele>
        <time>2022-08-15T15:52:58Z</time>
      </trkpt>
      <trkpt lat="4.0306330" lon="-76.4090520">
        <ele>1908.4</ele>
        <time>2022-08-15T15:52:59Z</time>
      </trkpt>
      <trkpt lat="4.0306030" lon="-76.4090950">
        <ele>1908.2</ele>
        <time>2022-08-15T15:53:00Z</time>
      </trkpt>
      <trkpt lat="4.0305480" lon="-76.4092000">
        <ele>1907.4</ele>
        <time>2022-08-15T15:53:02Z</time>
      </trkpt>
      <trkpt lat="4.0305140" lon="-76.4092410">
        <ele>1907.0</ele>
        <time>2022-08-15T15:53:03Z</time>
      </trkpt>
      <trkpt lat="4.0304780" lon="-76.4092680">
        <ele>1907.0</ele>
        <time>2022-08-15T15:53:04Z</time>
      </trkpt>
      <trkpt lat="4.0303700" lon="-76.4093090">
        <ele>1906.2</ele>
        <time>2022-08-15T15:53:06Z</time>
      </trkpt>
      <trkpt lat="4.0303100" lon="-76.4093120">
        <ele>1905.8</ele>
        <time>2022-08-15T15:53:07Z</time>
      </trkpt>
      <trkpt lat="4.0302520" lon="-76.4093000">
        <ele>1905.4</ele>
        <time>2022-08-15T15:53:08Z</time>
      </trkpt>
      <trkpt lat="4.0301950" lon="-76.4092820">
        <ele>1905.2</ele>
        <time>2022-08-15T15:53:09Z</time>
      </trkpt>
      <trkpt lat="4.0300930" lon="-76.4092460">
        <ele>1904.6</ele>
        <time>2022-08-15T15:53:11Z</time>
      </trkpt>
      <trkpt lat="4.0299840" lon="-76.4092330">
        <ele>1903.8</ele>
        <time>2022-08-15T15:53:13Z</time>
      </trkpt>
      <trkpt lat="4.0299370" lon="-76.4092420">
        <ele>1903.4</ele>
        <time>2022-08-15T15:53:14Z</time>
      </trkpt>
      <trkpt lat="4.0298890" lon="-76.4092640">
        <ele>1903.0</ele>
        <time>2022-08-15T15:53:15Z</time>
      </trkpt>
      <trkpt lat="4.0298500" lon="-76.4092850">
        <ele>1902.4</ele>
        <time>2022-08-15T15:53:16Z</time>
      </trkpt>
      <trkpt lat="4.0298140" lon="-76.4093170">
        <ele>1902.0</ele>
        <time>2022-08-15T15:53:17Z</time>
      </trkpt>
      <trkpt lat="4.0297450" lon="-76.4094300">
        <ele>1901.4</ele>
        <time>2022-08-15T15:53:19Z</time>
      </trkpt>
      <trkpt lat="4.0296650" lon="-76.4095760">
        <ele>1900.2</ele>
        <time>2022-08-15T15:53:22Z</time>
      </trkpt>
      <trkpt lat="4.0296090" lon="-76.4096800">
        <ele>1899.8</ele>
        <time>2022-08-15T15:53:24Z</time>
      </trkpt>
      <trkpt lat="4.0295180" lon="-76.4097850">
        <ele>1899.2</ele>
        <time>2022-08-15T15:53:27Z</time>
      </trkpt>
      <trkpt lat="4.0294390" lon="-76.4098420">
        <ele>1898.6</ele>
        <time>2022-08-15T15:53:29Z</time>
      </trkpt>
      <trkpt lat="4.0292150" lon="-76.4099340">
        <ele>1898.0</ele>
        <time>2022-08-15T15:53:34Z</time>
      </trkpt>
      <trkpt lat="4.0290730" lon="-76.4099490">
        <ele>1898.0</ele>
        <time>2022-08-15T15:53:37Z</time>
      </trkpt>
      <trkpt lat="4.0290250" lon="-76.4099460">
        <ele>1898.0</ele>
        <time>2022-08-15T15:53:38Z</time>
      </trkpt>
      <trkpt lat="4.0289250" lon="-76.4099430">
        <ele>1898.2</ele>
        <time>2022-08-15T15:53:40Z</time>
      </trkpt>
      <trkpt lat="4.0288520" lon="-76.4099680">
        <ele>1898.2</ele>
        <time>2022-08-15T15:53:42Z</time>
      </trkpt>
      <trkpt lat="4.0288190" lon="-76.4099970">
        <ele>1898.4</ele>
        <time>2022-08-15T15:53:43Z</time>
      </trkpt>
      <trkpt lat="4.0287960" lon="-76.4100350">
        <ele>1898.4</ele>
        <time>2022-08-15T15:53:44Z</time>
      </trkpt>
      <trkpt lat="4.0287300" lon="-76.4101920">
        <ele>1898.6</ele>
        <time>2022-08-15T15:53:48Z</time>
      </trkpt>
      <trkpt lat="4.0286670" lon="-76.4103860">
        <ele>1898.8</ele>
        <time>2022-08-15T15:53:54Z</time>
      </trkpt>
      <trkpt lat="4.0285790" lon="-76.4105150">
        <ele>1899.0</ele>
        <time>2022-08-15T15:53:59Z</time>
      </trkpt>
      <trkpt lat="4.0284420" lon="-76.4105200">
        <ele>1899.8</ele>
        <time>2022-08-15T15:54:03Z</time>
      </trkpt>
      <trkpt lat="4.0283230" lon="-76.4104580">
        <ele>1899.8</ele>
        <time>2022-08-15T15:54:06Z</time>
      </trkpt>
      <trkpt lat="4.0282750" lon="-76.4104180">
        <ele>1899.8</ele>
        <time>2022-08-15T15:54:07Z</time>
      </trkpt>
      <trkpt lat="4.0281610" lon="-76.4103110">
        <ele>1899.8</ele>
        <time>2022-08-15T15:54:10Z</time>
      </trkpt>
      <trkpt lat="4.0280650" lon="-76.4102360">
        <ele>1899.6</ele>
        <time>2022-08-15T15:54:12Z</time>
      </trkpt>
      <trkpt lat="4.0280120" lon="-76.4102020">
        <ele>1899.2</ele>
        <time>2022-08-15T15:54:13Z</time>
      </trkpt>
      <trkpt lat="4.0279000" lon="-76.4101310">
        <ele>1898.8</ele>
        <time>2022-08-15T15:54:15Z</time>
      </trkpt>
      <trkpt lat="4.0278420" lon="-76.4101080">
        <ele>1898.4</ele>
        <time>2022-08-15T15:54:16Z</time>
      </trkpt>
      <trkpt lat="4.0277170" lon="-76.4100640">
        <ele>1897.6</ele>
        <time>2022-08-15T15:54:18Z</time>
      </trkpt>
      <trkpt lat="4.0276740" lon="-76.4100410">
        <ele>1897.0</ele>
        <time>2022-08-15T15:54:19Z</time>
      </trkpt>
      <trkpt lat="4.0275650" lon="-76.4099680">
        <ele>1896.0</ele>
        <time>2022-08-15T15:54:21Z</time>
      </trkpt>
      <trkpt lat="4.0274960" lon="-76.4099290">
        <ele>1895.6</ele>
        <time>2022-08-15T15:54:22Z</time>
      </trkpt>
      <trkpt lat="4.0273820" lon="-76.4098780">
        <ele>1894.8</ele>
        <time>2022-08-15T15:54:24Z</time>
      </trkpt>
      <trkpt lat="4.0273130" lon="-76.4098540">
        <ele>1894.4</ele>
        <time>2022-08-15T15:54:25Z</time>
      </trkpt>
      <trkpt lat="4.0272440" lon="-76.4098350">
        <ele>1894.0</ele>
        <time>2022-08-15T15:54:26Z</time>
      </trkpt>
      <trkpt lat="4.0271570" lon="-76.4098180">
        <ele>1893.8</ele>
        <time>2022-08-15T15:54:27Z</time>
      </trkpt>
      <trkpt lat="4.0269400" lon="-76.4097980">
        <ele>1893.0</ele>
        <time>2022-08-15T15:54:30Z</time>
      </trkpt>
      <trkpt lat="4.0267810" lon="-76.4097950">
        <ele>1892.6</ele>
        <time>2022-08-15T15:54:32Z</time>
      </trkpt>
      <trkpt lat="4.0265220" lon="-76.4098450">
        <ele>1891.4</ele>
        <time>2022-08-15T15:54:36Z</time>
      </trkpt>
      <trkpt lat="4.0264630" lon="-76.4098660">
        <ele>1891.2</ele>
        <time>2022-08-15T15:54:37Z</time>
      </trkpt>
      <trkpt lat="4.0264120" lon="-76.4098920">
        <ele>1890.8</ele>
        <time>2022-08-15T15:54:38Z</time>
      </trkpt>
      <trkpt lat="4.0263270" lon="-76.4099670">
        <ele>1890.6</ele>
        <time>2022-08-15T15:54:40Z</time>
      </trkpt>
      <trkpt lat="4.0262940" lon="-76.4100130">
        <ele>1890.4</ele>
        <time>2022-08-15T15:54:41Z</time>
      </trkpt>
      <trkpt lat="4.0262100" lon="-76.4101720">
        <ele>1890.0</ele>
        <time>2022-08-15T15:54:44Z</time>
      </trkpt>
      <trkpt lat="4.0261810" lon="-76.4102840">
        <ele>1889.8</ele>
        <time>2022-08-15T15:54:46Z</time>
      </trkpt>
      <trkpt lat="4.0261590" lon="-76.4104390">
        <ele>1889.4</ele>
        <time>2022-08-15T15:54:49Z</time>
      </trkpt>
      <trkpt lat="4.0261470" lon="-76.4104860">
        <ele>1889.0</ele>
        <time>2022-08-15T15:54:50Z</time>
      </trkpt>
      <trkpt lat="4.0261290" lon="-76.4105280">
        <ele>1888.6</ele>
        <time>2022-08-15T15:54:51Z</time>
      </trkpt>
      <trkpt lat="4.0261000" lon="-76.4105600">
        <ele>1888.0</ele>
        <time>2022-08-15T15:54:52Z</time>
      </trkpt>
      <trkpt lat="4.0260550" lon="-76.4105810">
        <ele>1887.4</ele>
        <time>2022-08-15T15:54:53Z</time>
      </trkpt>
      <trkpt lat="4.0260010" lon="-76.4105870">
        <ele>1887.0</ele>
        <time>2022-08-15T15:54:54Z</time>
      </trkpt>
      <trkpt lat="4.0259470" lon="-76.4105860">
        <ele>1886.8</ele>
        <time>2022-08-15T15:54:55Z</time>
      </trkpt>
      <trkpt lat="4.0258020" lon="-76.4105730">
        <ele>1885.8</ele>
        <time>2022-08-15T15:54:58Z</time>
      </trkpt>
      <trkpt lat="4.0257530" lon="-76.4105840">
        <ele>1885.4</ele>
        <time>2022-08-15T15:54:59Z</time>
      </trkpt>
      <trkpt lat="4.0257110" lon="-76.4106160">
        <ele>1884.6</ele>
        <time>2022-08-15T15:55:00Z</time>
      </trkpt>
      <trkpt lat="4.0256770" lon="-76.4106640">
        <ele>1884.2</ele>
        <time>2022-08-15T15:55:01Z</time>
      </trkpt>
      <trkpt lat="4.0256530" lon="-76.4107230">
        <ele>1883.8</ele>
        <time>2022-08-15T15:55:02Z</time>
      </trkpt>
      <trkpt lat="4.0256170" lon="-76.4108500">
        <ele>1882.8</ele>
        <time>2022-08-15T15:55:04Z</time>
      </trkpt>
      <trkpt lat="4.0255530" lon="-76.4110470">
        <ele>1881.4</ele>
        <time>2022-08-15T15:55:07Z</time>
      </trkpt>
      <trkpt lat="4.0255160" lon="-76.4111200">
        <ele>1881.0</ele>
        <time>2022-08-15T15:55:08Z</time>
      </trkpt>
      <trkpt lat="4.0254840" lon="-76.4111630">
        <ele>1880.4</ele>
        <time>2022-08-15T15:55:09Z</time>
      </trkpt>
      <trkpt lat="4.0253810" lon="-76.4113070">
        <ele>1878.8</ele>
        <time>2022-08-15T15:55:12Z</time>
      </trkpt>
      <trkpt lat="4.0253640" lon="-76.4113530">
        <ele>1878.6</ele>
        <time>2022-08-15T15:55:13Z</time>
      </trkpt>
      <trkpt lat="4.0253580" lon="-76.4114030">
        <ele>1877.6</ele>
        <time>2022-08-15T15:55:14Z</time>
      </trkpt>
      <trkpt lat="4.0253600" lon="-76.4114530">
        <ele>1876.6</ele>
        <time>2022-08-15T15:55:15Z</time>
      </trkpt>
      <trkpt lat="4.0253580" lon="-76.4115000">
        <ele>1876.0</ele>
        <time>2022-08-15T15:55:16Z</time>
      </trkpt>
      <trkpt lat="4.0253460" lon="-76.4115400">
        <ele>1875.4</ele>
        <time>2022-08-15T15:55:17Z</time>
      </trkpt>
      <trkpt lat="4.0253210" lon="-76.4115730">
        <ele>1874.8</ele>
        <time>2022-08-15T15:55:18Z</time>
      </trkpt>
      <trkpt lat="4.0252440" lon="-76.4116010">
        <ele>1874.0</ele>
        <time>2022-08-15T15:55:20Z</time>
      </trkpt>
      <trkpt lat="4.0251530" lon="-76.4115710">
        <ele>1873.4</ele>
        <time>2022-08-15T15:55:22Z</time>
      </trkpt>
      <trkpt lat="4.0251090" lon="-76.4115360">
        <ele>1872.6</ele>
        <time>2022-08-15T15:55:23Z</time>
      </trkpt>
      <trkpt lat="4.0249510" lon="-76.4114200">
        <ele>1871.2</ele>
        <time>2022-08-15T15:55:26Z</time>
      </trkpt>
      <trkpt lat="4.0248930" lon="-76.4113860">
        <ele>1870.6</ele>
        <time>2022-08-15T15:55:27Z</time>
      </trkpt>
      <trkpt lat="4.0248330" lon="-76.4113610">
        <ele>1870.2</ele>
        <time>2022-08-15T15:55:28Z</time>
      </trkpt>
      <trkpt lat="4.0247140" lon="-76.4113330">
        <ele>1869.6</ele>
        <time>2022-08-15T15:55:30Z</time>
      </trkpt>
      <trkpt lat="4.0245970" lon="-76.4113310">
        <ele>1868.4</ele>
        <time>2022-08-15T15:55:32Z</time>
      </trkpt>
      <trkpt lat="4.0245410" lon="-76.4113380">
        <ele>1867.6</ele>
        <time>2022-08-15T15:55:33Z</time>
      </trkpt>
      <trkpt lat="4.0244900" lon="-76.4113530">
        <ele>1866.8</ele>
        <time>2022-08-15T15:55:34Z</time>
      </trkpt>
      <trkpt lat="4.0244450" lon="-76.4113780">
        <ele>1866.2</ele>
        <time>2022-08-15T15:55:35Z</time>
      </trkpt>
      <trkpt lat="4.0244080" lon="-76.4114140">
        <ele>1865.4</ele>
        <time>2022-08-15T15:55:36Z</time>
      </trkpt>
      <trkpt lat="4.0243800" lon="-76.4114560">
        <ele>1864.6</ele>
        <time>2022-08-15T15:55:37Z</time>
      </trkpt>
      <trkpt lat="4.0243560" lon="-76.4115010">
        <ele>1864.2</ele>
        <time>2022-08-15T15:55:38Z</time>
      </trkpt>
      <trkpt lat="4.0243310" lon="-76.4115440">
        <ele>1864.0</ele>
        <time>2022-08-15T15:55:39Z</time>
      </trkpt>
      <trkpt lat="4.0242980" lon="-76.4115770">
        <ele>1863.2</ele>
        <time>2022-08-15T15:55:40Z</time>
      </trkpt>
      <trkpt lat="4.0242560" lon="-76.4115930">
        <ele>1862.6</ele>
        <time>2022-08-15T15:55:41Z</time>
      </trkpt>
      <trkpt lat="4.0241760" lon="-76.4115760">
        <ele>1861.8</ele>
        <time>2022-08-15T15:55:43Z</time>
      </trkpt>
      <trkpt lat="4.0241350" lon="-76.4115090">
        <ele>1861.0</ele>
        <time>2022-08-15T15:55:45Z</time>
      </trkpt>
      <trkpt lat="4.0241410" lon="-76.4114670">
        <ele>1861.0</ele>
        <time>2022-08-15T15:55:46Z</time>
      </trkpt>
      <trkpt lat="4.0241610" lon="-76.4114240">
        <ele>1860.4</ele>
        <time>2022-08-15T15:55:47Z</time>
      </trkpt>
      <trkpt lat="4.0242050" lon="-76.4113320">
        <ele>1859.4</ele>
        <time>2022-08-15T15:55:49Z</time>
      </trkpt>
      <trkpt lat="4.0242170" lon="-76.4112870">
        <ele>1859.2</ele>
        <time>2022-08-15T15:55:50Z</time>
      </trkpt>
      <trkpt lat="4.0242180" lon="-76.4112410">
        <ele>1859.0</ele>
        <time>2022-08-15T15:55:51Z</time>
      </trkpt>
      <trkpt lat="4.0241750" lon="-76.4111740">
        <ele>1858.4</ele>
        <time>2022-08-15T15:55:53Z</time>
      </trkpt>
      <trkpt lat="4.0241340" lon="-76.4111590">
        <ele>1858.4</ele>
        <time>2022-08-15T15:55:54Z</time>
      </trkpt>
      <trkpt lat="4.0240880" lon="-76.4111570">
        <ele>1858.2</ele>
        <time>2022-08-15T15:55:55Z</time>
      </trkpt>
      <trkpt lat="4.0239970" lon="-76.4112000">
        <ele>1857.6</ele>
        <time>2022-08-15T15:55:57Z</time>
      </trkpt>
      <trkpt lat="4.0238700" lon="-76.4113050">
        <ele>1856.6</ele>
        <time>2022-08-15T15:56:00Z</time>
      </trkpt>
      <trkpt lat="4.0238130" lon="-76.4113330">
        <ele>1856.2</ele>
        <time>2022-08-15T15:56:01Z</time>
      </trkpt>
      <trkpt lat="4.0237130" lon="-76.4113630">
        <ele>1854.8</ele>
        <time>2022-08-15T15:56:03Z</time>
      </trkpt>
      <trkpt lat="4.0236570" lon="-76.4113850">
        <ele>1853.6</ele>
        <time>2022-08-15T15:56:04Z</time>
      </trkpt>
      <trkpt lat="4.0236050" lon="-76.4114130">
        <ele>1852.8</ele>
        <time>2022-08-15T15:56:05Z</time>
      </trkpt>
      <trkpt lat="4.0235550" lon="-76.4114420">
        <ele>1852.2</ele>
        <time>2022-08-15T15:56:06Z</time>
      </trkpt>
      <trkpt lat="4.0234260" lon="-76.4115190">
        <ele>1851.2</ele>
        <time>2022-08-15T15:56:09Z</time>
      </trkpt>
      <trkpt lat="4.0233480" lon="-76.4115670">
        <ele>1850.4</ele>
        <time>2022-08-15T15:56:11Z</time>
      </trkpt>
      <trkpt lat="4.0233090" lon="-76.4115910">
        <ele>1849.8</ele>
        <time>2022-08-15T15:56:12Z</time>
      </trkpt>
      <trkpt lat="4.0232230" lon="-76.4116390">
        <ele>1848.8</ele>
        <time>2022-08-15T15:56:14Z</time>
      </trkpt>
      <trkpt lat="4.0231820" lon="-76.4116530">
        <ele>1848.6</ele>
        <time>2022-08-15T15:56:15Z</time>
      </trkpt>
      <trkpt lat="4.0231420" lon="-76.4116600">
        <ele>1848.4</ele>
        <time>2022-08-15T15:56:16Z</time>
      </trkpt>
      <trkpt lat="4.0230620" lon="-76.4116460">
        <ele>1847.6</ele>
        <time>2022-08-15T15:56:18Z</time>
      </trkpt>
      <trkpt lat="4.0230200" lon="-76.4116270">
        <ele>1846.6</ele>
        <time>2022-08-15T15:56:19Z</time>
      </trkpt>
      <trkpt lat="4.0229780" lon="-76.4116090">
        <ele>1846.0</ele>
        <time>2022-08-15T15:56:20Z</time>
      </trkpt>
      <trkpt lat="4.0229370" lon="-76.4115980">
        <ele>1845.2</ele>
        <time>2022-08-15T15:56:21Z</time>
      </trkpt>
      <trkpt lat="4.0228980" lon="-76.4115930">
        <ele>1844.6</ele>
        <time>2022-08-15T15:56:22Z</time>
      </trkpt>
      <trkpt lat="4.0228590" lon="-76.4115970">
        <ele>1843.8</ele>
        <time>2022-08-15T15:56:23Z</time>
      </trkpt>
      <trkpt lat="4.0228210" lon="-76.4116140">
        <ele>1843.0</ele>
        <time>2022-08-15T15:56:24Z</time>
      </trkpt>
      <trkpt lat="4.0227830" lon="-76.4116420">
        <ele>1842.4</ele>
        <time>2022-08-15T15:56:25Z</time>
      </trkpt>
      <trkpt lat="4.0227050" lon="-76.4117050">
        <ele>1840.4</ele>
        <time>2022-08-15T15:56:27Z</time>
      </trkpt>
      <trkpt lat="4.0226510" lon="-76.4117420">
        <ele>1839.8</ele>
        <time>2022-08-15T15:56:28Z</time>
      </trkpt>
      <trkpt lat="4.0226080" lon="-76.4117690">
        <ele>1839.4</ele>
        <time>2022-08-15T15:56:29Z</time>
      </trkpt>
      <trkpt lat="4.0225070" lon="-76.4118230">
        <ele>1838.4</ele>
        <time>2022-08-15T15:56:31Z</time>
      </trkpt>
      <trkpt lat="4.0224570" lon="-76.4118450">
        <ele>1837.8</ele>
        <time>2022-08-15T15:56:32Z</time>
      </trkpt>
      <trkpt lat="4.0223480" lon="-76.4119090">
        <ele>1837.0</ele>
        <time>2022-08-15T15:56:34Z</time>
      </trkpt>
      <trkpt lat="4.0222940" lon="-76.4119460">
        <ele>1836.0</ele>
        <time>2022-08-15T15:56:35Z</time>
      </trkpt>
      <trkpt lat="4.0222380" lon="-76.4119900">
        <ele>1835.0</ele>
        <time>2022-08-15T15:56:36Z</time>
      </trkpt>
      <trkpt lat="4.0221810" lon="-76.4120350">
        <ele>1834.0</ele>
        <time>2022-08-15T15:56:37Z</time>
      </trkpt>
      <trkpt lat="4.0220650" lon="-76.4121340">
        <ele>1833.0</ele>
        <time>2022-08-15T15:56:39Z</time>
      </trkpt>
      <trkpt lat="4.0219510" lon="-76.4122360">
        <ele>1831.6</ele>
        <time>2022-08-15T15:56:41Z</time>
      </trkpt>
      <trkpt lat="4.0218400" lon="-76.4123240">
        <ele>1830.2</ele>
        <time>2022-08-15T15:56:43Z</time>
      </trkpt>
      <trkpt lat="4.0217360" lon="-76.4123990">
        <ele>1828.8</ele>
        <time>2022-08-15T15:56:45Z</time>
      </trkpt>
      <trkpt lat="4.0216870" lon="-76.4124360">
        <ele>1828.6</ele>
        <time>2022-08-15T15:56:46Z</time>
      </trkpt>
      <trkpt lat="4.0215880" lon="-76.4125040">
        <ele>1827.6</ele>
        <time>2022-08-15T15:56:48Z</time>
      </trkpt>
      <trkpt lat="4.0215400" lon="-76.4125340">
        <ele>1827.2</ele>
        <time>2022-08-15T15:56:49Z</time>
      </trkpt>
      <trkpt lat="4.0214250" lon="-76.4125650">
        <ele>1827.0</ele>
        <time>2022-08-15T15:56:51Z</time>
      </trkpt>
      <trkpt lat="4.0212130" lon="-76.4125450">
        <ele>1826.6</ele>
        <time>2022-08-15T15:56:55Z</time>
      </trkpt>
      <trkpt lat="4.0211620" lon="-76.4125330">
        <ele>1826.0</ele>
        <time>2022-08-15T15:56:56Z</time>
      </trkpt>
      <trkpt lat="4.0210160" lon="-76.4124990">
        <ele>1825.4</ele>
        <time>2022-08-15T15:56:59Z</time>
      </trkpt>
      <trkpt lat="4.0208460" lon="-76.4124680">
        <ele>1825.2</ele>
        <time>2022-08-15T15:57:03Z</time>
      </trkpt>
      <trkpt lat="4.0208070" lon="-76.4124650">
        <ele>1825.2</ele>
        <time>2022-08-15T15:57:04Z</time>
      </trkpt>
      <trkpt lat="4.0207520" lon="-76.4124670">
        <ele>1825.2</ele>
        <time>2022-08-15T15:57:05Z</time>
      </trkpt>
      <trkpt lat="4.0205570" lon="-76.4125010">
        <ele>1825.0</ele>
        <time>2022-08-15T15:57:09Z</time>
      </trkpt>
      <trkpt lat="4.0205000" lon="-76.4125090">
        <ele>1825.0</ele>
        <time>2022-08-15T15:57:10Z</time>
      </trkpt>
      <trkpt lat="4.0202520" lon="-76.4125290">
        <ele>1825.0</ele>
        <time>2022-08-15T15:57:14Z</time>
      </trkpt>
      <trkpt lat="4.0199880" lon="-76.4124570">
        <ele>1824.6</ele>
        <time>2022-08-15T15:57:18Z</time>
      </trkpt>
      <trkpt lat="4.0199200" lon="-76.4124400">
        <ele>1824.2</ele>
        <time>2022-08-15T15:57:19Z</time>
      </trkpt>
      <trkpt lat="4.0197800" lon="-76.4124450">
        <ele>1823.2</ele>
        <time>2022-08-15T15:57:21Z</time>
      </trkpt>
      <trkpt lat="4.0196520" lon="-76.4125010">
        <ele>1822.6</ele>
        <time>2022-08-15T15:57:23Z</time>
      </trkpt>
      <trkpt lat="4.0196020" lon="-76.4125420">
        <ele>1822.2</ele>
        <time>2022-08-15T15:57:24Z</time>
      </trkpt>
      <trkpt lat="4.0195590" lon="-76.4125920">
        <ele>1821.8</ele>
        <time>2022-08-15T15:57:25Z</time>
      </trkpt>
      <trkpt lat="4.0195230" lon="-76.4126410">
        <ele>1821.2</ele>
        <time>2022-08-15T15:57:26Z</time>
      </trkpt>
      <trkpt lat="4.0194880" lon="-76.4126820">
        <ele>1820.6</ele>
        <time>2022-08-15T15:57:27Z</time>
      </trkpt>
      <trkpt lat="4.0194460" lon="-76.4127170">
        <ele>1820.2</ele>
        <time>2022-08-15T15:57:28Z</time>
      </trkpt>
      <trkpt lat="4.0194000" lon="-76.4127450">
        <ele>1820.0</ele>
        <time>2022-08-15T15:57:29Z</time>
      </trkpt>
      <trkpt lat="4.0193000" lon="-76.4127690">
        <ele>1818.6</ele>
        <time>2022-08-15T15:57:31Z</time>
      </trkpt>
      <trkpt lat="4.0191940" lon="-76.4127490">
        <ele>1817.6</ele>
        <time>2022-08-15T15:57:33Z</time>
      </trkpt>
      <trkpt lat="4.0190710" lon="-76.4127150">
        <ele>1816.8</ele>
        <time>2022-08-15T15:57:35Z</time>
      </trkpt>
      <trkpt lat="4.0190050" lon="-76.4127020">
        <ele>1816.2</ele>
        <time>2022-08-15T15:57:36Z</time>
      </trkpt>
      <trkpt lat="4.0188160" lon="-76.4126860">
        <ele>1814.6</ele>
        <time>2022-08-15T15:57:39Z</time>
      </trkpt>
      <trkpt lat="4.0187590" lon="-76.4126930">
        <ele>1814.4</ele>
        <time>2022-08-15T15:57:40Z</time>
      </trkpt>
      <trkpt lat="4.0186350" lon="-76.4127180">
        <ele>1813.2</ele>
        <time>2022-08-15T15:57:42Z</time>
      </trkpt>
      <trkpt lat="4.0185760" lon="-76.4127310">
        <ele>1812.0</ele>
        <time>2022-08-15T15:57:43Z</time>
      </trkpt>
      <trkpt lat="4.0184860" lon="-76.4127520">
        <ele>1810.6</ele>
        <time>2022-08-15T15:57:45Z</time>
      </trkpt>
      <trkpt lat="4.0183380" lon="-76.4127650">
        <ele>1809.0</ele>
        <time>2022-08-15T15:57:49Z</time>
      </trkpt>
      <trkpt lat="4.0183020" lon="-76.4127580">
        <ele>1808.8</ele>
        <time>2022-08-15T15:57:50Z</time>
      </trkpt>
      <trkpt lat="4.0182180" lon="-76.4127510">
        <ele>1807.8</ele>
        <time>2022-08-15T15:57:52Z</time>
      </trkpt>
      <trkpt lat="4.0181210" lon="-76.4127510">
        <ele>1807.4</ele>
        <time>2022-08-15T15:57:54Z</time>
      </trkpt>
      <trkpt lat="4.0180740" lon="-76.4127580">
        <ele>1807.2</ele>
        <time>2022-08-15T15:57:55Z</time>
      </trkpt>
      <trkpt lat="4.0180310" lon="-76.4127730">
        <ele>1807.0</ele>
        <time>2022-08-15T15:57:56Z</time>
      </trkpt>
      <trkpt lat="4.0179870" lon="-76.4127910">
        <ele>1806.6</ele>
        <time>2022-08-15T15:57:57Z</time>
      </trkpt>
      <trkpt lat="4.0178970" lon="-76.4128190">
        <ele>1806.6</ele>
        <time>2022-08-15T15:57:59Z</time>
      </trkpt>
      <trkpt lat="4.0178160" lon="-76.4128770">
        <ele>1805.8</ele>
        <time>2022-08-15T15:58:01Z</time>
      </trkpt>
      <trkpt lat="4.0177790" lon="-76.4129160">
        <ele>1805.4</ele>
        <time>2022-08-15T15:58:02Z</time>
      </trkpt>
      <trkpt lat="4.0177430" lon="-76.4129570">
        <ele>1805.0</ele>
        <time>2022-08-15T15:58:03Z</time>
      </trkpt>
      <trkpt lat="4.0177100" lon="-76.4129980">
        <ele>1804.4</ele>
        <time>2022-08-15T15:58:04Z</time>
      </trkpt>
      <trkpt lat="4.0176810" lon="-76.4130440">
        <ele>1803.8</ele>
        <time>2022-08-15T15:58:05Z</time>
      </trkpt>
      <trkpt lat="4.0176320" lon="-76.4131400">
        <ele>1802.6</ele>
        <time>2022-08-15T15:58:07Z</time>
      </trkpt>
      <trkpt lat="4.0176140" lon="-76.4131890">
        <ele>1802.2</ele>
        <time>2022-08-15T15:58:08Z</time>
      </trkpt>
      <trkpt lat="4.0175630" lon="-76.4133330">
        <ele>1801.0</ele>
        <time>2022-08-15T15:58:11Z</time>
      </trkpt>
      <trkpt lat="4.0175200" lon="-76.4134430">
        <ele>1799.4</ele>
        <time>2022-08-15T15:58:13Z</time>
      </trkpt>
      <trkpt lat="4.0174640" lon="-76.4135490">
        <ele>1798.0</ele>
        <time>2022-08-15T15:58:15Z</time>
      </trkpt>
      <trkpt lat="4.0174010" lon="-76.4136480">
        <ele>1797.0</ele>
        <time>2022-08-15T15:58:17Z</time>
      </trkpt>
      <trkpt lat="4.0173630" lon="-76.4136910">
        <ele>1796.2</ele>
        <time>2022-08-15T15:58:18Z</time>
      </trkpt>
      <trkpt lat="4.0173190" lon="-76.4137300">
        <ele>1795.8</ele>
        <time>2022-08-15T15:58:19Z</time>
      </trkpt>
      <trkpt lat="4.0172680" lon="-76.4137640">
        <ele>1795.2</ele>
        <time>2022-08-15T15:58:20Z</time>
      </trkpt>
      <trkpt lat="4.0172130" lon="-76.4137970">
        <ele>1794.6</ele>
        <time>2022-08-15T15:58:21Z</time>
      </trkpt>
      <trkpt lat="4.0171620" lon="-76.4138200">
        <ele>1794.0</ele>
        <time>2022-08-15T15:58:22Z</time>
      </trkpt>
      <trkpt lat="4.0171060" lon="-76.4138390">
        <ele>1793.2</ele>
        <time>2022-08-15T15:58:23Z</time>
      </trkpt>
      <trkpt lat="4.0169730" lon="-76.4138690">
        <ele>1792.4</ele>
        <time>2022-08-15T15:58:25Z</time>
      </trkpt>
      <trkpt lat="4.0169050" lon="-76.4138800">
        <ele>1792.0</ele>
        <time>2022-08-15T15:58:26Z</time>
      </trkpt>
      <trkpt lat="4.0167740" lon="-76.4139040">
        <ele>1791.0</ele>
        <time>2022-08-15T15:58:28Z</time>
      </trkpt>
      <trkpt lat="4.0166500" lon="-76.4139250">
        <ele>1789.6</ele>
        <time>2022-08-15T15:58:30Z</time>
      </trkpt>
      <trkpt lat="4.0165380" lon="-76.4139370">
        <ele>1788.8</ele>
        <time>2022-08-15T15:58:32Z</time>
      </trkpt>
      <trkpt lat="4.0164810" lon="-76.4139420">
        <ele>1788.6</ele>
        <time>2022-08-15T15:58:33Z</time>
      </trkpt>
      <trkpt lat="4.0161580" lon="-76.4139870">
        <ele>1787.8</ele>
        <time>2022-08-15T15:58:38Z</time>
      </trkpt>
      <trkpt lat="4.0160020" lon="-76.4140070">
        <ele>1787.0</ele>
        <time>2022-08-15T15:58:40Z</time>
      </trkpt>
      <trkpt lat="4.0158560" lon="-76.4140280">
        <ele>1785.6</ele>
        <time>2022-08-15T15:58:42Z</time>
      </trkpt>
      <trkpt lat="4.0157790" lon="-76.4140350">
        <ele>1785.0</ele>
        <time>2022-08-15T15:58:43Z</time>
      </trkpt>
      <trkpt lat="4.0157330" lon="-76.4140350">
        <ele>1783.8</ele>
        <time>2022-08-15T15:58:44Z</time>
      </trkpt>
      <trkpt lat="4.0156260" lon="-76.4140290">
        <ele>1782.6</ele>
        <time>2022-08-15T15:58:46Z</time>
      </trkpt>
      <trkpt lat="4.0155740" lon="-76.4140270">
        <ele>1782.2</ele>
        <time>2022-08-15T15:58:47Z</time>
      </trkpt>
      <trkpt lat="4.0154720" lon="-76.4140250">
        <ele>1781.8</ele>
        <time>2022-08-15T15:58:49Z</time>
      </trkpt>
      <trkpt lat="4.0153760" lon="-76.4140340">
        <ele>1781.6</ele>
        <time>2022-08-15T15:58:51Z</time>
      </trkpt>
      <trkpt lat="4.0151520" lon="-76.4140790">
        <ele>1781.0</ele>
        <time>2022-08-15T15:58:55Z</time>
      </trkpt>
      <trkpt lat="4.0150320" lon="-76.4141130">
        <ele>1780.8</ele>
        <time>2022-08-15T15:58:57Z</time>
      </trkpt>
      <trkpt lat="4.0149240" lon="-76.4141750">
        <ele>1780.6</ele>
        <time>2022-08-15T15:58:59Z</time>
      </trkpt>
      <trkpt lat="4.0148710" lon="-76.4142000">
        <ele>1780.2</ele>
        <time>2022-08-15T15:59:00Z</time>
      </trkpt>
      <trkpt lat="4.0148270" lon="-76.4142280">
        <ele>1780.0</ele>
        <time>2022-08-15T15:59:01Z</time>
      </trkpt>
      <trkpt lat="4.0147860" lon="-76.4142530">
        <ele>1779.0</ele>
        <time>2022-08-15T15:59:02Z</time>
      </trkpt>
      <trkpt lat="4.0147080" lon="-76.4142940">
        <ele>1778.4</ele>
        <time>2022-08-15T15:59:04Z</time>
      </trkpt>
      <trkpt lat="4.0146130" lon="-76.4143720">
        <ele>1778.2</ele>
        <time>2022-08-15T15:59:08Z</time>
      </trkpt>
      <trkpt lat="4.0145130" lon="-76.4144280">
        <ele>1778.2</ele>
        <time>2022-08-15T15:59:12Z</time>
      </trkpt>
      <trkpt lat="4.0144600" lon="-76.4144590">
        <ele>1778.6</ele>
        <time>2022-08-15T15:59:14Z</time>
      </trkpt>
      <trkpt lat="4.0142990" lon="-76.4145530">
        <ele>1779.6</ele>
        <time>2022-08-15T15:59:21Z</time>
      </trkpt>
      <trkpt lat="4.0141770" lon="-76.4146380">
        <ele>1780.2</ele>
        <time>2022-08-15T15:59:27Z</time>
      </trkpt>
      <trkpt lat="4.0141620" lon="-76.4146600">
        <ele>1780.2</ele>
        <time>2022-08-15T15:59:28Z</time>
      </trkpt>
      <trkpt lat="4.0140680" lon="-76.4147390">
        <ele>1780.4</ele>
        <time>2022-08-15T15:59:34Z</time>
      </trkpt>
      <trkpt lat="4.0140170" lon="-76.4148030">
        <ele>1781.2</ele>
        <time>2022-08-15T15:59:39Z</time>
      </trkpt>
      <trkpt lat="4.0140050" lon="-76.4148140">
        <ele>1781.4</ele>
        <time>2022-08-15T15:59:40Z</time>
      </trkpt>
      <trkpt lat="4.0139800" lon="-76.4148590">
        <ele>1782.2</ele>
        <time>2022-08-15T15:59:43Z</time>
      </trkpt>
      <trkpt lat="4.0139650" lon="-76.4149110">
        <ele>1782.6</ele>
        <time>2022-08-15T15:59:46Z</time>
      </trkpt>
      <trkpt lat="4.0139660" lon="-76.4149920">
        <ele>1783.4</ele>
        <time>2022-08-15T15:59:51Z</time>
      </trkpt>
      <trkpt lat="4.0139740" lon="-76.4150300">
        <ele>1784.0</ele>
        <time>2022-08-15T15:59:53Z</time>
      </trkpt>
      <trkpt lat="4.0140410" lon="-76.4151760">
        <ele>1784.2</ele>
        <time>2022-08-15T15:59:58Z</time>
      </trkpt>
      <trkpt lat="4.0141270" lon="-76.4153260">
        <ele>1784.2</ele>
        <time>2022-08-15T16:00:02Z</time>
      </trkpt>
      <trkpt lat="4.0141440" lon="-76.4153690">
        <ele>1784.0</ele>
        <time>2022-08-15T16:00:03Z</time>
      </trkpt>
      <trkpt lat="4.0142220" lon="-76.4156360">
        <ele>1783.4</ele>
        <time>2022-08-15T16:00:08Z</time>
      </trkpt>
      <trkpt lat="4.0142730" lon="-76.4158590">
        <ele>1782.6</ele>
        <time>2022-08-15T16:00:12Z</time>
      </trkpt>
      <trkpt lat="4.0142780" lon="-76.4159190">
        <ele>1782.4</ele>
        <time>2022-08-15T16:00:13Z</time>
      </trkpt>
      <trkpt lat="4.0142610" lon="-76.4160220">
        <ele>1780.8</ele>
        <time>2022-08-15T16:00:15Z</time>
      </trkpt>
      <trkpt lat="4.0142300" lon="-76.4161280">
        <ele>1779.6</ele>
        <time>2022-08-15T16:00:17Z</time>
      </trkpt>
      <trkpt lat="4.0141730" lon="-76.4163080">
        <ele>1777.8</ele>
        <time>2022-08-15T16:00:20Z</time>
      </trkpt>
      <trkpt lat="4.0141450" lon="-76.4163570">
        <ele>1777.2</ele>
        <time>2022-08-15T16:00:21Z</time>
      </trkpt>
      <trkpt lat="4.0141120" lon="-76.4163920">
        <ele>1776.8</ele>
        <time>2022-08-15T16:00:22Z</time>
      </trkpt>
      <trkpt lat="4.0140790" lon="-76.4164140">
        <ele>1776.2</ele>
        <time>2022-08-15T16:00:23Z</time>
      </trkpt>
      <trkpt lat="4.0139690" lon="-76.4164540">
        <ele>1775.6</ele>
        <time>2022-08-15T16:00:25Z</time>
      </trkpt>
      <trkpt lat="4.0139180" lon="-76.4164620">
        <ele>1775.0</ele>
        <time>2022-08-15T16:00:26Z</time>
      </trkpt>
      <trkpt lat="4.0137650" lon="-76.4164640">
        <ele>1774.4</ele>
        <time>2022-08-15T16:00:29Z</time>
      </trkpt>
      <trkpt lat="4.0136940" lon="-76.4164420">
        <ele>1773.8</ele>
        <time>2022-08-15T16:00:31Z</time>
      </trkpt>
      <trkpt lat="4.0136290" lon="-76.4164270">
        <ele>1773.2</ele>
        <time>2022-08-15T16:00:33Z</time>
      </trkpt>
      <trkpt lat="4.0135210" lon="-76.4163960">
        <ele>1771.4</ele>
        <time>2022-08-15T16:00:36Z</time>
      </trkpt>
      <trkpt lat="4.0134370" lon="-76.4164320">
        <ele>1770.4</ele>
        <time>2022-08-15T16:00:38Z</time>
      </trkpt>
      <trkpt lat="4.0134010" lon="-76.4164610">
        <ele>1769.6</ele>
        <time>2022-08-15T16:00:39Z</time>
      </trkpt>
      <trkpt lat="4.0133080" lon="-76.4165020">
        <ele>1768.2</ele>
        <time>2022-08-15T16:00:41Z</time>
      </trkpt>
      <trkpt lat="4.0131710" lon="-76.4165320">
        <ele>1766.8</ele>
        <time>2022-08-15T16:00:43Z</time>
      </trkpt>
      <trkpt lat="4.0130230" lon="-76.4165880">
        <ele>1765.8</ele>
        <time>2022-08-15T16:00:45Z</time>
      </trkpt>
      <trkpt lat="4.0129630" lon="-76.4166360">
        <ele>1765.2</ele>
        <time>2022-08-15T16:00:46Z</time>
      </trkpt>
      <trkpt lat="4.0129070" lon="-76.4166790">
        <ele>1765.0</ele>
        <time>2022-08-15T16:00:47Z</time>
      </trkpt>
      <trkpt lat="4.0127810" lon="-76.4167270">
        <ele>1764.0</ele>
        <time>2022-08-15T16:00:49Z</time>
      </trkpt>
      <trkpt lat="4.0126560" lon="-76.4167520">
        <ele>1762.0</ele>
        <time>2022-08-15T16:00:51Z</time>
      </trkpt>
      <trkpt lat="4.0126070" lon="-76.4167640">
        <ele>1761.2</ele>
        <time>2022-08-15T16:00:52Z</time>
      </trkpt>
      <trkpt lat="4.0125630" lon="-76.4167770">
        <ele>1760.8</ele>
        <time>2022-08-15T16:00:53Z</time>
      </trkpt>
      <trkpt lat="4.0125370" lon="-76.4168000">
        <ele>1760.4</ele>
        <time>2022-08-15T16:00:54Z</time>
      </trkpt>
      <trkpt lat="4.0125180" lon="-76.4168350">
        <ele>1760.4</ele>
        <time>2022-08-15T16:00:55Z</time>
      </trkpt>
      <trkpt lat="4.0124870" lon="-76.4169210">
        <ele>1759.6</ele>
        <time>2022-08-15T16:00:57Z</time>
      </trkpt>
      <trkpt lat="4.0124670" lon="-76.4170130">
        <ele>1759.0</ele>
        <time>2022-08-15T16:00:59Z</time>
      </trkpt>
      <trkpt lat="4.0124500" lon="-76.4170740">
        <ele>1758.6</ele>
        <time>2022-08-15T16:01:00Z</time>
      </trkpt>
      <trkpt lat="4.0124290" lon="-76.4171210">
        <ele>1758.4</ele>
        <time>2022-08-15T16:01:01Z</time>
      </trkpt>
      <trkpt lat="4.0123680" lon="-76.4171970">
        <ele>1758.2</ele>
        <time>2022-08-15T16:01:03Z</time>
      </trkpt>
      <trkpt lat="4.0122880" lon="-76.4172260">
        <ele>1758.0</ele>
        <time>2022-08-15T16:01:05Z</time>
      </trkpt>
      <trkpt lat="4.0122300" lon="-76.4172310">
        <ele>1757.8</ele>
        <time>2022-08-15T16:01:06Z</time>
      </trkpt>
      <trkpt lat="4.0121910" lon="-76.4172280">
        <ele>1757.4</ele>
        <time>2022-08-15T16:01:07Z</time>
      </trkpt>
      <trkpt lat="4.0121070" lon="-76.4171960">
        <ele>1756.4</ele>
        <time>2022-08-15T16:01:09Z</time>
      </trkpt>
      <trkpt lat="4.0120650" lon="-76.4171760">
        <ele>1756.2</ele>
        <time>2022-08-15T16:01:10Z</time>
      </trkpt>
      <trkpt lat="4.0119560" lon="-76.4171320">
        <ele>1754.8</ele>
        <time>2022-08-15T16:01:12Z</time>
      </trkpt>
      <trkpt lat="4.0118650" lon="-76.4170920">
        <ele>1753.2</ele>
        <time>2022-08-15T16:01:14Z</time>
      </trkpt>
      <trkpt lat="4.0118130" lon="-76.4170730">
        <ele>1752.8</ele>
        <time>2022-08-15T16:01:15Z</time>
      </trkpt>
      <trkpt lat="4.0117550" lon="-76.4170500">
        <ele>1752.4</ele>
        <time>2022-08-15T16:01:16Z</time>
      </trkpt>
      <trkpt lat="4.0117220" lon="-76.4170290">
        <ele>1751.8</ele>
        <time>2022-08-15T16:01:17Z</time>
      </trkpt>
      <trkpt lat="4.0116550" lon="-76.4169560">
        <ele>1751.6</ele>
        <time>2022-08-15T16:01:19Z</time>
      </trkpt>
      <trkpt lat="4.0116250" lon="-76.4168520">
        <ele>1750.8</ele>
        <time>2022-08-15T16:01:21Z</time>
      </trkpt>
      <trkpt lat="4.0116020" lon="-76.4167160">
        <ele>1749.4</ele>
        <time>2022-08-15T16:01:23Z</time>
      </trkpt>
      <trkpt lat="4.0115870" lon="-76.4166640">
        <ele>1748.6</ele>
        <time>2022-08-15T16:01:24Z</time>
      </trkpt>
      <trkpt lat="4.0115620" lon="-76.4166070">
        <ele>1748.0</ele>
        <time>2022-08-15T16:01:25Z</time>
      </trkpt>
      <trkpt lat="4.0115220" lon="-76.4165490">
        <ele>1747.6</ele>
        <time>2022-08-15T16:01:26Z</time>
      </trkpt>
      <trkpt lat="4.0114430" lon="-76.4164960">
        <ele>1746.8</ele>
        <time>2022-08-15T16:01:28Z</time>
      </trkpt>
      <trkpt lat="4.0113900" lon="-76.4164660">
        <ele>1746.0</ele>
        <time>2022-08-15T16:01:29Z</time>
      </trkpt>
      <trkpt lat="4.0113320" lon="-76.4164300">
        <ele>1745.4</ele>
        <time>2022-08-15T16:01:30Z</time>
      </trkpt>
      <trkpt lat="4.0112230" lon="-76.4163650">
        <ele>1744.2</ele>
        <time>2022-08-15T16:01:32Z</time>
      </trkpt>
      <trkpt lat="4.0110780" lon="-76.4162770">
        <ele>1742.4</ele>
        <time>2022-08-15T16:01:35Z</time>
      </trkpt>
      <trkpt lat="4.0110300" lon="-76.4162570">
        <ele>1741.8</ele>
        <time>2022-08-15T16:01:36Z</time>
      </trkpt>
      <trkpt lat="4.0109700" lon="-76.4162400">
        <ele>1741.0</ele>
        <time>2022-08-15T16:01:37Z</time>
      </trkpt>
      <trkpt lat="4.0108980" lon="-76.4162360">
        <ele>1740.6</ele>
        <time>2022-08-15T16:01:38Z</time>
      </trkpt>
      <trkpt lat="4.0108360" lon="-76.4162550">
        <ele>1740.2</ele>
        <time>2022-08-15T16:01:39Z</time>
      </trkpt>
      <trkpt lat="4.0107890" lon="-76.4162680">
        <ele>1740.0</ele>
        <time>2022-08-15T16:01:40Z</time>
      </trkpt>
      <trkpt lat="4.0106760" lon="-76.4162770">
        <ele>1740.0</ele>
        <time>2022-08-15T16:01:42Z</time>
      </trkpt>
      <trkpt lat="4.0106370" lon="-76.4162710">
        <ele>1739.8</ele>
        <time>2022-08-15T16:01:43Z</time>
      </trkpt>
      <trkpt lat="4.0105910" lon="-76.4162540">
        <ele>1739.0</ele>
        <time>2022-08-15T16:01:44Z</time>
      </trkpt>
      <trkpt lat="4.0105390" lon="-76.4162180">
        <ele>1737.8</ele>
        <time>2022-08-15T16:01:45Z</time>
      </trkpt>
      <trkpt lat="4.0104700" lon="-76.4161650">
        <ele>1736.6</ele>
        <time>2022-08-15T16:01:47Z</time>
      </trkpt>
      <trkpt lat="4.0103480" lon="-76.4161250">
        <ele>1735.6</ele>
        <time>2022-08-15T16:01:49Z</time>
      </trkpt>
      <trkpt lat="4.0102950" lon="-76.4161350">
        <ele>1735.4</ele>
        <time>2022-08-15T16:01:50Z</time>
      </trkpt>
      <trkpt lat="4.0101140" lon="-76.4161820">
        <ele>1734.0</ele>
        <time>2022-08-15T16:01:53Z</time>
      </trkpt>
      <trkpt lat="4.0100650" lon="-76.4161690">
        <ele>1733.4</ele>
        <time>2022-08-15T16:01:54Z</time>
      </trkpt>
      <trkpt lat="4.0100160" lon="-76.4161430">
        <ele>1732.8</ele>
        <time>2022-08-15T16:01:55Z</time>
      </trkpt>
      <trkpt lat="4.0099730" lon="-76.4161120">
        <ele>1732.0</ele>
        <time>2022-08-15T16:01:56Z</time>
      </trkpt>
      <trkpt lat="4.0099130" lon="-76.4160670">
        <ele>1731.2</ele>
        <time>2022-08-15T16:01:57Z</time>
      </trkpt>
      <trkpt lat="4.0098350" lon="-76.4160140">
        <ele>1730.6</ele>
        <time>2022-08-15T16:01:58Z</time>
      </trkpt>
      <trkpt lat="4.0097030" lon="-76.4159470">
        <ele>1729.4</ele>
        <time>2022-08-15T16:02:00Z</time>
      </trkpt>
      <trkpt lat="4.0096530" lon="-76.4159230">
        <ele>1729.0</ele>
        <time>2022-08-15T16:02:01Z</time>
      </trkpt>
      <trkpt lat="4.0095410" lon="-76.4158640">
        <ele>1728.0</ele>
        <time>2022-08-15T16:02:03Z</time>
      </trkpt>
      <trkpt lat="4.0094810" lon="-76.4158330">
        <ele>1726.8</ele>
        <time>2022-08-15T16:02:04Z</time>
      </trkpt>
      <trkpt lat="4.0094270" lon="-76.4158040">
        <ele>1725.6</ele>
        <time>2022-08-15T16:02:05Z</time>
      </trkpt>
      <trkpt lat="4.0092060" lon="-76.4156750">
        <ele>1724.4</ele>
        <time>2022-08-15T16:02:09Z</time>
      </trkpt>
      <trkpt lat="4.0091070" lon="-76.4156200">
        <ele>1724.2</ele>
        <time>2022-08-15T16:02:11Z</time>
      </trkpt>
      <trkpt lat="4.0089640" lon="-76.4155240">
        <ele>1723.8</ele>
        <time>2022-08-15T16:02:14Z</time>
      </trkpt>
      <trkpt lat="4.0088970" lon="-76.4154460">
        <ele>1723.4</ele>
        <time>2022-08-15T16:02:16Z</time>
      </trkpt>
      <trkpt lat="4.0088660" lon="-76.4153980">
        <ele>1722.8</ele>
        <time>2022-08-15T16:02:17Z</time>
      </trkpt>
      <trkpt lat="4.0088000" lon="-76.4152980">
        <ele>1722.0</ele>
        <time>2022-08-15T16:02:19Z</time>
      </trkpt>
      <trkpt lat="4.0087750" lon="-76.4152540">
        <ele>1721.6</ele>
        <time>2022-08-15T16:02:20Z</time>
      </trkpt>
      <trkpt lat="4.0087440" lon="-76.4151790">
        <ele>1721.0</ele>
        <time>2022-08-15T16:02:22Z</time>
      </trkpt>
      <trkpt lat="4.0087220" lon="-76.4151440">
        <ele>1720.8</ele>
        <time>2022-08-15T16:02:23Z</time>
      </trkpt>
      <trkpt lat="4.0086260" lon="-76.4150930">
        <ele>1719.2</ele>
        <time>2022-08-15T16:02:25Z</time>
      </trkpt>
      <trkpt lat="4.0085810" lon="-76.4151000">
        <ele>1718.8</ele>
        <time>2022-08-15T16:02:26Z</time>
      </trkpt>
      <trkpt lat="4.0085300" lon="-76.4151270">
        <ele>1718.0</ele>
        <time>2022-08-15T16:02:27Z</time>
      </trkpt>
      <trkpt lat="4.0084540" lon="-76.4152020">
        <ele>1717.0</ele>
        <time>2022-08-15T16:02:29Z</time>
      </trkpt>
      <trkpt lat="4.0083440" lon="-76.4153310">
        <ele>1716.0</ele>
        <time>2022-08-15T16:02:32Z</time>
      </trkpt>
      <trkpt lat="4.0082560" lon="-76.4154320">
        <ele>1714.8</ele>
        <time>2022-08-15T16:02:34Z</time>
      </trkpt>
      <trkpt lat="4.0082110" lon="-76.4154810">
        <ele>1714.4</ele>
        <time>2022-08-15T16:02:35Z</time>
      </trkpt>
      <trkpt lat="4.0081320" lon="-76.4155690">
        <ele>1713.4</ele>
        <time>2022-08-15T16:02:37Z</time>
      </trkpt>
      <trkpt lat="4.0079450" lon="-76.4157370">
        <ele>1713.0</ele>
        <time>2022-08-15T16:02:41Z</time>
      </trkpt>
      <trkpt lat="4.0078520" lon="-76.4158150">
        <ele>1712.6</ele>
        <time>2022-08-15T16:02:43Z</time>
      </trkpt>
      <trkpt lat="4.0077540" lon="-76.4158750">
        <ele>1712.4</ele>
        <time>2022-08-15T16:02:45Z</time>
      </trkpt>
      <trkpt lat="4.0076450" lon="-76.4159120">
        <ele>1712.0</ele>
        <time>2022-08-15T16:02:47Z</time>
      </trkpt>
      <trkpt lat="4.0075140" lon="-76.4159060">
        <ele>1711.8</ele>
        <time>2022-08-15T16:02:49Z</time>
      </trkpt>
      <trkpt lat="4.0074440" lon="-76.4158820">
        <ele>1711.8</ele>
        <time>2022-08-15T16:02:50Z</time>
      </trkpt>
      <trkpt lat="4.0073760" lon="-76.4158420">
        <ele>1711.6</ele>
        <time>2022-08-15T16:02:51Z</time>
      </trkpt>
      <trkpt lat="4.0073100" lon="-76.4157920">
        <ele>1711.2</ele>
        <time>2022-08-15T16:02:52Z</time>
      </trkpt>
      <trkpt lat="4.0071840" lon="-76.4156890">
        <ele>1711.0</ele>
        <time>2022-08-15T16:02:54Z</time>
      </trkpt>
      <trkpt lat="4.0070520" lon="-76.4155930">
        <ele>1710.4</ele>
        <time>2022-08-15T16:02:56Z</time>
      </trkpt>
      <trkpt lat="4.0070060" lon="-76.4155690">
        <ele>1710.0</ele>
        <time>2022-08-15T16:02:57Z</time>
      </trkpt>
      <trkpt lat="4.0069480" lon="-76.4155430">
        <ele>1709.4</ele>
        <time>2022-08-15T16:02:58Z</time>
      </trkpt>
      <trkpt lat="4.0068390" lon="-76.4155230">
        <ele>1708.8</ele>
        <time>2022-08-15T16:03:00Z</time>
      </trkpt>
      <trkpt lat="4.0067320" lon="-76.4155330">
        <ele>1708.6</ele>
        <time>2022-08-15T16:03:02Z</time>
      </trkpt>
      <trkpt lat="4.0066570" lon="-76.4155560">
        <ele>1708.6</ele>
        <time>2022-08-15T16:03:04Z</time>
      </trkpt>
      <trkpt lat="4.0065860" lon="-76.4155900">
        <ele>1708.6</ele>
        <time>2022-08-15T16:03:06Z</time>
      </trkpt>
      <trkpt lat="4.0065510" lon="-76.4156140">
        <ele>1708.6</ele>
        <time>2022-08-15T16:03:07Z</time>
      </trkpt>
      <trkpt lat="4.0063390" lon="-76.4157950">
        <ele>1709.4</ele>
        <time>2022-08-15T16:03:13Z</time>
      </trkpt>
      <trkpt lat="4.0062040" lon="-76.4159210">
        <ele>1709.8</ele>
        <time>2022-08-15T16:03:17Z</time>
      </trkpt>
      <trkpt lat="4.0061450" lon="-76.4159860">
        <ele>1710.0</ele>
        <time>2022-08-15T16:03:19Z</time>
      </trkpt>
      <trkpt lat="4.0060770" lon="-76.4160410">
        <ele>1710.0</ele>
        <time>2022-08-15T16:03:21Z</time>
      </trkpt>
      <trkpt lat="4.0060000" lon="-76.4161050">
        <ele>1710.0</ele>
        <time>2022-08-15T16:03:23Z</time>
      </trkpt>
      <trkpt lat="4.0058250" lon="-76.4162450">
        <ele>1710.0</ele>
        <time>2022-08-15T16:03:27Z</time>
      </trkpt>
      <trkpt lat="4.0057650" lon="-76.4162930">
        <ele>1710.0</ele>
        <time>2022-08-15T16:03:28Z</time>
      </trkpt>
      <trkpt lat="4.0056790" lon="-76.4163750">
        <ele>1709.6</ele>
        <time>2022-08-15T16:03:30Z</time>
      </trkpt>
      <trkpt lat="4.0056010" lon="-76.4164840">
        <ele>1708.8</ele>
        <time>2022-08-15T16:03:32Z</time>
      </trkpt>
      <trkpt lat="4.0055090" lon="-76.4166560">
        <ele>1707.6</ele>
        <time>2022-08-15T16:03:35Z</time>
      </trkpt>
      <trkpt lat="4.0054400" lon="-76.4167460">
        <ele>1706.4</ele>
        <time>2022-08-15T16:03:37Z</time>
      </trkpt>
      <trkpt lat="4.0053560" lon="-76.4168040">
        <ele>1706.0</ele>
        <time>2022-08-15T16:03:39Z</time>
      </trkpt>
      <trkpt lat="4.0053100" lon="-76.4168180">
        <ele>1705.6</ele>
        <time>2022-08-15T16:03:41Z</time>
      </trkpt>
      <trkpt lat="4.0052220" lon="-76.4168300">
        <ele>1705.6</ele>
        <time>2022-08-15T16:03:42Z</time>
      </trkpt>
      <trkpt lat="4.0051370" lon="-76.4168310">
        <ele>1705.6</ele>
        <time>2022-08-15T16:03:44Z</time>
      </trkpt>
      <trkpt lat="4.0050490" lon="-76.4168280">
        <ele>1705.6</ele>
        <time>2022-08-15T16:03:46Z</time>
      </trkpt>
      <trkpt lat="4.0049180" lon="-76.4168110">
        <ele>1705.4</ele>
        <time>2022-08-15T16:03:49Z</time>
      </trkpt>
      <trkpt lat="4.0047790" lon="-76.4167770">
        <ele>1705.4</ele>
        <time>2022-08-15T16:03:52Z</time>
      </trkpt>
      <trkpt lat="4.0046720" lon="-76.4167650">
        <ele>1705.4</ele>
        <time>2022-08-15T16:03:54Z</time>
      </trkpt>
      <trkpt lat="4.0045130" lon="-76.4167270">
        <ele>1705.4</ele>
        <time>2022-08-15T16:03:57Z</time>
      </trkpt>
      <trkpt lat="4.0041030" lon="-76.4166250">
        <ele>1704.4</ele>
        <time>2022-08-15T16:04:05Z</time>
      </trkpt>
      <trkpt lat="4.0039480" lon="-76.4165850">
        <ele>1704.4</ele>
        <time>2022-08-15T16:04:09Z</time>
      </trkpt>
      <trkpt lat="4.0038720" lon="-76.4165690">
        <ele>1704.4</ele>
        <time>2022-08-15T16:04:11Z</time>
      </trkpt>
      <trkpt lat="4.0037960" lon="-76.4165770">
        <ele>1704.4</ele>
        <time>2022-08-15T16:04:13Z</time>
      </trkpt>
      <trkpt lat="4.0037240" lon="-76.4166130">
        <ele>1704.6</ele>
        <time>2022-08-15T16:04:15Z</time>
      </trkpt>
      <trkpt lat="4.0035600" lon="-76.4167730">
        <ele>1704.8</ele>
        <time>2022-08-15T16:04:20Z</time>
      </trkpt>
      <trkpt lat="4.0033740" lon="-76.4169510">
        <ele>1704.8</ele>
        <time>2022-08-15T16:04:25Z</time>
      </trkpt>
      <trkpt lat="4.0033250" lon="-76.4169640">
        <ele>1704.8</ele>
        <time>2022-08-15T16:04:26Z</time>
      </trkpt>
      <trkpt lat="4.0032910" lon="-76.4169650">
        <ele>1704.6</ele>
        <time>2022-08-15T16:04:27Z</time>
      </trkpt>
      <trkpt lat="4.0032070" lon="-76.4169530">
        <ele>1704.6</ele>
        <time>2022-08-15T16:04:29Z</time>
      </trkpt>
      <trkpt lat="4.0031430" lon="-76.4169460">
        <ele>1704.4</ele>
        <time>2022-08-15T16:04:30Z</time>
      </trkpt>
      <trkpt lat="4.0030850" lon="-76.4169410">
        <ele>1704.0</ele>
        <time>2022-08-15T16:04:31Z</time>
      </trkpt>
      <trkpt lat="4.0029950" lon="-76.4169320">
        <ele>1703.4</ele>
        <time>2022-08-15T16:04:33Z</time>
      </trkpt>
      <trkpt lat="4.0029520" lon="-76.4169090">
        <ele>1702.8</ele>
        <time>2022-08-15T16:04:34Z</time>
      </trkpt>
      <trkpt lat="4.0029030" lon="-76.4168780">
        <ele>1701.8</ele>
        <time>2022-08-15T16:04:35Z</time>
      </trkpt>
      <trkpt lat="4.0028540" lon="-76.4168360">
        <ele>1701.4</ele>
        <time>2022-08-15T16:04:36Z</time>
      </trkpt>
      <trkpt lat="4.0028090" lon="-76.4167860">
        <ele>1701.2</ele>
        <time>2022-08-15T16:04:37Z</time>
      </trkpt>
      <trkpt lat="4.0027080" lon="-76.4167120">
        <ele>1700.8</ele>
        <time>2022-08-15T16:04:39Z</time>
      </trkpt>
      <trkpt lat="4.0026100" lon="-76.4166750">
        <ele>1700.2</ele>
        <time>2022-08-15T16:04:41Z</time>
      </trkpt>
      <trkpt lat="4.0025560" lon="-76.4166560">
        <ele>1699.8</ele>
        <time>2022-08-15T16:04:42Z</time>
      </trkpt>
      <trkpt lat="4.0024310" lon="-76.4166500">
        <ele>1699.0</ele>
        <time>2022-08-15T16:04:44Z</time>
      </trkpt>
      <trkpt lat="4.0022020" lon="-76.4166250">
        <ele>1697.8</ele>
        <time>2022-08-15T16:04:47Z</time>
      </trkpt>
      <trkpt lat="4.0020710" lon="-76.4166360">
        <ele>1697.0</ele>
        <time>2022-08-15T16:04:49Z</time>
      </trkpt>
      <trkpt lat="4.0019900" lon="-76.4166760">
        <ele>1696.2</ele>
        <time>2022-08-15T16:04:50Z</time>
      </trkpt>
      <trkpt lat="4.0019380" lon="-76.4166960">
        <ele>1695.4</ele>
        <time>2022-08-15T16:04:51Z</time>
      </trkpt>
      <trkpt lat="4.0018610" lon="-76.4167260">
        <ele>1694.8</ele>
        <time>2022-08-15T16:04:52Z</time>
      </trkpt>
      <trkpt lat="4.0017430" lon="-76.4167770">
        <ele>1693.8</ele>
        <time>2022-08-15T16:04:54Z</time>
      </trkpt>
      <trkpt lat="4.0016940" lon="-76.4167940">
        <ele>1693.6</ele>
        <time>2022-08-15T16:04:55Z</time>
      </trkpt>
      <trkpt lat="4.0016290" lon="-76.4168160">
        <ele>1693.4</ele>
        <time>2022-08-15T16:04:56Z</time>
      </trkpt>
      <trkpt lat="4.0013750" lon="-76.4169000">
        <ele>1693.2</ele>
        <time>2022-08-15T16:05:01Z</time>
      </trkpt>
      <trkpt lat="4.0012400" lon="-76.4169360">
        <ele>1693.2</ele>
        <time>2022-08-15T16:05:04Z</time>
      </trkpt>
      <trkpt lat="4.0010710" lon="-76.4169890">
        <ele>1693.4</ele>
        <time>2022-08-15T16:05:08Z</time>
      </trkpt>
      <trkpt lat="4.0008810" lon="-76.4170760">
        <ele>1693.8</ele>
        <time>2022-08-15T16:05:13Z</time>
      </trkpt>
      <trkpt lat="4.0008390" lon="-76.4170940">
        <ele>1693.6</ele>
        <time>2022-08-15T16:05:14Z</time>
      </trkpt>
      <trkpt lat="4.0007900" lon="-76.4171080">
        <ele>1693.6</ele>
        <time>2022-08-15T16:05:15Z</time>
      </trkpt>
      <trkpt lat="4.0006840" lon="-76.4171150">
        <ele>1693.8</ele>
        <time>2022-08-15T16:05:17Z</time>
      </trkpt>
      <trkpt lat="4.0006280" lon="-76.4171030">
        <ele>1693.8</ele>
        <time>2022-08-15T16:05:18Z</time>
      </trkpt>
      <trkpt lat="4.0005740" lon="-76.4170800">
        <ele>1693.8</ele>
        <time>2022-08-15T16:05:19Z</time>
      </trkpt>
      <trkpt lat="4.0004730" lon="-76.4170130">
        <ele>1693.8</ele>
        <time>2022-08-15T16:05:21Z</time>
      </trkpt>
      <trkpt lat="4.0004240" lon="-76.4169630">
        <ele>1693.8</ele>
        <time>2022-08-15T16:05:22Z</time>
      </trkpt>
      <trkpt lat="4.0003850" lon="-76.4169140">
        <ele>1693.8</ele>
        <time>2022-08-15T16:05:23Z</time>
      </trkpt>
      <trkpt lat="4.0003450" lon="-76.4168130">
        <ele>1693.6</ele>
        <time>2022-08-15T16:05:25Z</time>
      </trkpt>
      <trkpt lat="4.0003240" lon="-76.4164590">
        <ele>1692.0</ele>
        <time>2022-08-15T16:05:30Z</time>
      </trkpt>
      <trkpt lat="4.0003330" lon="-76.4161500">
        <ele>1690.4</ele>
        <time>2022-08-15T16:05:34Z</time>
      </trkpt>
      <trkpt lat="4.0003250" lon="-76.4160250">
        <ele>1689.6</ele>
        <time>2022-08-15T16:05:36Z</time>
      </trkpt>
      <trkpt lat="4.0003150" lon="-76.4159670">
        <ele>1689.2</ele>
        <time>2022-08-15T16:05:37Z</time>
      </trkpt>
      <trkpt lat="4.0003000" lon="-76.4159140">
        <ele>1688.6</ele>
        <time>2022-08-15T16:05:38Z</time>
      </trkpt>
      <trkpt lat="4.0002660" lon="-76.4158490">
        <ele>1688.0</ele>
        <time>2022-08-15T16:05:39Z</time>
      </trkpt>
      <trkpt lat="4.0002430" lon="-76.4157980">
        <ele>1687.8</ele>
        <time>2022-08-15T16:05:40Z</time>
      </trkpt>
      <trkpt lat="4.0002120" lon="-76.4157360">
        <ele>1687.4</ele>
        <time>2022-08-15T16:05:41Z</time>
      </trkpt>
      <trkpt lat="4.0001330" lon="-76.4156160">
        <ele>1687.0</ele>
        <time>2022-08-15T16:05:43Z</time>
      </trkpt>
      <trkpt lat="4.0000630" lon="-76.4154960">
        <ele>1686.6</ele>
        <time>2022-08-15T16:05:45Z</time>
      </trkpt>
      <trkpt lat="3.9998930" lon="-76.4151500">
        <ele>1685.4</ele>
        <time>2022-08-15T16:05:50Z</time>
      </trkpt>
      <trkpt lat="3.9997980" lon="-76.4150430">
        <ele>1684.4</ele>
        <time>2022-08-15T16:05:52Z</time>
      </trkpt>
      <trkpt lat="3.9997430" lon="-76.4149990">
        <ele>1684.2</ele>
        <time>2022-08-15T16:05:53Z</time>
      </trkpt>
      <trkpt lat="3.9996850" lon="-76.4149530">
        <ele>1684.0</ele>
        <time>2022-08-15T16:05:54Z</time>
      </trkpt>
      <trkpt lat="3.9995710" lon="-76.4148660">
        <ele>1683.0</ele>
        <time>2022-08-15T16:05:56Z</time>
      </trkpt>
      <trkpt lat="3.9995130" lon="-76.4148340">
        <ele>1682.4</ele>
        <time>2022-08-15T16:05:57Z</time>
      </trkpt>
      <trkpt lat="3.9994520" lon="-76.4148180">
        <ele>1682.2</ele>
        <time>2022-08-15T16:05:58Z</time>
      </trkpt>
      <trkpt lat="3.9993890" lon="-76.4148180">
        <ele>1682.2</ele>
        <time>2022-08-15T16:05:59Z</time>
      </trkpt>
      <trkpt lat="3.9993390" lon="-76.4148360">
        <ele>1682.0</ele>
        <time>2022-08-15T16:06:01Z</time>
      </trkpt>
      <trkpt lat="3.9992730" lon="-76.4149280">
        <ele>1682.0</ele>
        <time>2022-08-15T16:06:02Z</time>
      </trkpt>
      <trkpt lat="3.9992550" lon="-76.4149850">
        <ele>1682.0</ele>
        <time>2022-08-15T16:06:03Z</time>
      </trkpt>
      <trkpt lat="3.9992180" lon="-76.4151440">
        <ele>1682.0</ele>
        <time>2022-08-15T16:06:06Z</time>
      </trkpt>
      <trkpt lat="3.9991940" lon="-76.4152460">
        <ele>1681.8</ele>
        <time>2022-08-15T16:06:08Z</time>
      </trkpt>
      <trkpt lat="3.9991410" lon="-76.4153460">
        <ele>1681.8</ele>
        <time>2022-08-15T16:06:10Z</time>
      </trkpt>
      <trkpt lat="3.9990430" lon="-76.4154220">
        <ele>1681.8</ele>
        <time>2022-08-15T16:06:12Z</time>
      </trkpt>
      <trkpt lat="3.9989120" lon="-76.4154540">
        <ele>1681.8</ele>
        <time>2022-08-15T16:06:14Z</time>
      </trkpt>
      <trkpt lat="3.9988410" lon="-76.4154570">
        <ele>1681.8</ele>
        <time>2022-08-15T16:06:15Z</time>
      </trkpt>
      <trkpt lat="3.9984070" lon="-76.4154240">
        <ele>1680.2</ele>
        <time>2022-08-15T16:06:21Z</time>
      </trkpt>
      <trkpt lat="3.9983060" lon="-76.4154160">
        <ele>1679.2</ele>
        <time>2022-08-15T16:06:24Z</time>
      </trkpt>
      <trkpt lat="3.9981200" lon="-76.4154080">
        <ele>1678.2</ele>
        <time>2022-08-15T16:06:26Z</time>
      </trkpt>
      <trkpt lat="3.9980500" lon="-76.4154140">
        <ele>1677.8</ele>
        <time>2022-08-15T16:06:27Z</time>
      </trkpt>
      <trkpt lat="3.9978690" lon="-76.4154760">
        <ele>1675.6</ele>
        <time>2022-08-15T16:06:30Z</time>
      </trkpt>
      <trkpt lat="3.9977850" lon="-76.4155310">
        <ele>1674.4</ele>
        <time>2022-08-15T16:06:32Z</time>
      </trkpt>
      <trkpt lat="3.9976930" lon="-76.4155560">
        <ele>1673.2</ele>
        <time>2022-08-15T16:06:34Z</time>
      </trkpt>
      <trkpt lat="3.9976380" lon="-76.4155540">
        <ele>1672.0</ele>
        <time>2022-08-15T16:06:36Z</time>
      </trkpt>
      <trkpt lat="3.9974580" lon="-76.4155200">
        <ele>1671.0</ele>
        <time>2022-08-15T16:06:38Z</time>
      </trkpt>
      <trkpt lat="3.9973970" lon="-76.4155110">
        <ele>1670.8</ele>
        <time>2022-08-15T16:06:39Z</time>
      </trkpt>
      <trkpt lat="3.9972710" lon="-76.4155120">
        <ele>1669.8</ele>
        <time>2022-08-15T16:06:41Z</time>
      </trkpt>
      <trkpt lat="3.9972050" lon="-76.4155190">
        <ele>1669.6</ele>
        <time>2022-08-15T16:06:42Z</time>
      </trkpt>
      <trkpt lat="3.9971400" lon="-76.4155410">
        <ele>1669.2</ele>
        <time>2022-08-15T16:06:43Z</time>
      </trkpt>
      <trkpt lat="3.9970760" lon="-76.4155710">
        <ele>1668.4</ele>
        <time>2022-08-15T16:06:44Z</time>
      </trkpt>
      <trkpt lat="3.9969520" lon="-76.4156560">
        <ele>1667.8</ele>
        <time>2022-08-15T16:06:46Z</time>
      </trkpt>
      <trkpt lat="3.9968810" lon="-76.4157080">
        <ele>1667.4</ele>
        <time>2022-08-15T16:06:47Z</time>
      </trkpt>
      <trkpt lat="3.9968390" lon="-76.4157480">
        <ele>1666.8</ele>
        <time>2022-08-15T16:06:48Z</time>
      </trkpt>
      <trkpt lat="3.9967530" lon="-76.4158550">
        <ele>1665.6</ele>
        <time>2022-08-15T16:06:50Z</time>
      </trkpt>
      <trkpt lat="3.9967240" lon="-76.4159290">
        <ele>1665.0</ele>
        <time>2022-08-15T16:06:51Z</time>
      </trkpt>
      <trkpt lat="3.9966960" lon="-76.4160350">
        <ele>1664.6</ele>
        <time>2022-08-15T16:06:53Z</time>
      </trkpt>
      <trkpt lat="3.9966870" lon="-76.4160870">
        <ele>1664.6</ele>
        <time>2022-08-15T16:06:54Z</time>
      </trkpt>
      <trkpt lat="3.9966820" lon="-76.4161340">
        <ele>1664.6</ele>
        <time>2022-08-15T16:06:55Z</time>
      </trkpt>
      <trkpt lat="3.9966820" lon="-76.4161760">
        <ele>1664.4</ele>
        <time>2022-08-15T16:06:56Z</time>
      </trkpt>
      <trkpt lat="3.9966630" lon="-76.4162740">
        <ele>1664.4</ele>
        <time>2022-08-15T16:06:59Z</time>
      </trkpt>
      <trkpt lat="3.9966090" lon="-76.4163840">
        <ele>1666.0</ele>
        <time>2022-08-15T16:07:04Z</time>
      </trkpt>
      <trkpt lat="3.9965960" lon="-76.4164020">
        <ele>1666.6</ele>
        <time>2022-08-15T16:07:05Z</time>
      </trkpt>
      <trkpt lat="3.9965840" lon="-76.4164220">
        <ele>1667.0</ele>
        <time>2022-08-15T16:07:06Z</time>
      </trkpt>
      <trkpt lat="3.9965110" lon="-76.4164590">
        <ele>1668.0</ele>
        <time>2022-08-15T16:07:10Z</time>
      </trkpt>
      <trkpt lat="3.9964180" lon="-76.4164620">
        <ele>1669.2</ele>
        <time>2022-08-15T16:07:15Z</time>
      </trkpt>
      <trkpt lat="3.9964030" lon="-76.4164650">
        <ele>1669.2</ele>
        <time>2022-08-15T16:07:16Z</time>
      </trkpt>
      <trkpt lat="3.9963450" lon="-76.4164600">
        <ele>1670.2</ele>
        <time>2022-08-15T16:07:20Z</time>
      </trkpt>
      <trkpt lat="3.9963320" lon="-76.4164560">
        <ele>1670.4</ele>
        <time>2022-08-15T16:07:21Z</time>
      </trkpt>
      <trkpt lat="3.9963180" lon="-76.4164520">
        <ele>1670.4</ele>
        <time>2022-08-15T16:07:22Z</time>
      </trkpt>
      <trkpt lat="3.9962400" lon="-76.4164380">
        <ele>1671.4</ele>
        <time>2022-08-15T16:07:28Z</time>
      </trkpt>
      <trkpt lat="3.9962280" lon="-76.4164340">
        <ele>1671.4</ele>
        <time>2022-08-15T16:07:29Z</time>
      </trkpt>
      <trkpt lat="3.9961410" lon="-76.4164180">
        <ele>1672.4</ele>
        <time>2022-08-15T16:07:36Z</time>
      </trkpt>
      <trkpt lat="3.9961270" lon="-76.4164170">
        <ele>1672.6</ele>
        <time>2022-08-15T16:07:37Z</time>
      </trkpt>
      <trkpt lat="3.9960230" lon="-76.4164100">
        <ele>1673.8</ele>
        <time>2022-08-15T16:07:45Z</time>
      </trkpt>
      <trkpt lat="3.9960050" lon="-76.4164070">
        <ele>1674.0</ele>
        <time>2022-08-15T16:07:46Z</time>
      </trkpt>
      <trkpt lat="3.9959880" lon="-76.4164070">
        <ele>1674.0</ele>
        <time>2022-08-15T16:07:47Z</time>
      </trkpt>
      <trkpt lat="3.9959080" lon="-76.4164130">
        <ele>1674.8</ele>
        <time>2022-08-15T16:07:52Z</time>
      </trkpt>
      <trkpt lat="3.9958950" lon="-76.4164020">
        <ele>1675.0</ele>
        <time>2022-08-15T16:07:53Z</time>
      </trkpt>
      <trkpt lat="3.9958000" lon="-76.4163910">
        <ele>1675.6</ele>
        <time>2022-08-15T16:08:00Z</time>
      </trkpt>
      <trkpt lat="3.9957380" lon="-76.4163850">
        <ele>1676.0</ele>
        <time>2022-08-15T16:08:04Z</time>
      </trkpt>
      <trkpt lat="3.9956480" lon="-76.4163810">
        <ele>1676.8</ele>
        <time>2022-08-15T16:08:09Z</time>
      </trkpt>
      <trkpt lat="3.9955810" lon="-76.4163680">
        <ele>1677.2</ele>
        <time>2022-08-15T16:08:13Z</time>
      </trkpt>
      <trkpt lat="3.9955360" lon="-76.4163610">
        <ele>1677.8</ele>
        <time>2022-08-15T16:08:16Z</time>
      </trkpt>
      <trkpt lat="3.9954070" lon="-76.4163440">
        <ele>1678.4</ele>
        <time>2022-08-15T16:08:23Z</time>
      </trkpt>
      <trkpt lat="3.9952440" lon="-76.4163240">
        <ele>1679.6</ele>
        <time>2022-08-15T16:08:32Z</time>
      </trkpt>
      <trkpt lat="3.9952250" lon="-76.4163230">
        <ele>1679.6</ele>
        <time>2022-08-15T16:08:33Z</time>
      </trkpt>
      <trkpt lat="3.9951030" lon="-76.4163430">
        <ele>1680.6</ele>
        <time>2022-08-15T16:08:39Z</time>
      </trkpt>
      <trkpt lat="3.9950670" lon="-76.4163560">
        <ele>1681.0</ele>
        <time>2022-08-15T16:08:41Z</time>
      </trkpt>
      <trkpt lat="3.9949390" lon="-76.4164110">
        <ele>1682.0</ele>
        <time>2022-08-15T16:08:49Z</time>
      </trkpt>
      <trkpt lat="3.9949150" lon="-76.4164340">
        <ele>1682.4</ele>
        <time>2022-08-15T16:08:51Z</time>
      </trkpt>
      <trkpt lat="3.9949030" lon="-76.4164450">
        <ele>1682.6</ele>
        <time>2022-08-15T16:08:52Z</time>
      </trkpt>
      <trkpt lat="3.9948600" lon="-76.4164720">
        <ele>1683.2</ele>
        <time>2022-08-15T16:08:55Z</time>
      </trkpt>
      <trkpt lat="3.9948320" lon="-76.4164940">
        <ele>1683.4</ele>
        <time>2022-08-15T16:08:57Z</time>
      </trkpt>
      <trkpt lat="3.9947790" lon="-76.4165470">
        <ele>1684.2</ele>
        <time>2022-08-15T16:09:01Z</time>
      </trkpt>
      <trkpt lat="3.9947230" lon="-76.4166110">
        <ele>1685.0</ele>
        <time>2022-08-15T16:09:06Z</time>
      </trkpt>
      <trkpt lat="3.9947040" lon="-76.4166380">
        <ele>1685.4</ele>
        <time>2022-08-15T16:09:08Z</time>
      </trkpt>
      <trkpt lat="3.9946410" lon="-76.4166900">
        <ele>1686.4</ele>
        <time>2022-08-15T16:09:13Z</time>
      </trkpt>
      <trkpt lat="3.9946260" lon="-76.4166990">
        <ele>1686.6</ele>
        <time>2022-08-15T16:09:14Z</time>
      </trkpt>
      <trkpt lat="3.9945460" lon="-76.4167380">
        <ele>1687.6</ele>
        <time>2022-08-15T16:09:19Z</time>
      </trkpt>
      <trkpt lat="3.9945290" lon="-76.4167440">
        <ele>1687.8</ele>
        <time>2022-08-15T16:09:20Z</time>
      </trkpt>
      <trkpt lat="3.9944690" lon="-76.4167590">
        <ele>1688.4</ele>
        <time>2022-08-15T16:09:23Z</time>
      </trkpt>
      <trkpt lat="3.9944290" lon="-76.4167630">
        <ele>1688.6</ele>
        <time>2022-08-15T16:09:25Z</time>
      </trkpt>
      <trkpt lat="3.9943860" lon="-76.4167700">
        <ele>1688.8</ele>
        <time>2022-08-15T16:09:27Z</time>
      </trkpt>
      <trkpt lat="3.9943360" lon="-76.4167590">
        <ele>1689.2</ele>
        <time>2022-08-15T16:09:29Z</time>
      </trkpt>
      <trkpt lat="3.9941740" lon="-76.4167010">
        <ele>1689.6</ele>
        <time>2022-08-15T16:09:36Z</time>
      </trkpt>
      <trkpt lat="3.9941210" lon="-76.4166920">
        <ele>1689.8</ele>
        <time>2022-08-15T16:09:38Z</time>
      </trkpt>
      <trkpt lat="3.9940950" lon="-76.4166940">
        <ele>1690.0</ele>
        <time>2022-08-15T16:09:39Z</time>
      </trkpt>
      <trkpt lat="3.9940160" lon="-76.4167080">
        <ele>1690.2</ele>
        <time>2022-08-15T16:09:42Z</time>
      </trkpt>
      <trkpt lat="3.9938740" lon="-76.4167910">
        <ele>1690.8</ele>
        <time>2022-08-15T16:09:48Z</time>
      </trkpt>
      <trkpt lat="3.9937890" lon="-76.4168490">
        <ele>1691.0</ele>
        <time>2022-08-15T16:09:52Z</time>
      </trkpt>
      <trkpt lat="3.9937550" lon="-76.4168610">
        <ele>1691.2</ele>
        <time>2022-08-15T16:09:54Z</time>
      </trkpt>
      <trkpt lat="3.9935960" lon="-76.4168840">
        <ele>1692.0</ele>
        <time>2022-08-15T16:10:00Z</time>
      </trkpt>
      <trkpt lat="3.9935690" lon="-76.4168830">
        <ele>1692.0</ele>
        <time>2022-08-15T16:10:01Z</time>
      </trkpt>
      <trkpt lat="3.9933950" lon="-76.4168330">
        <ele>1692.4</ele>
        <time>2022-08-15T16:10:07Z</time>
      </trkpt>
      <trkpt lat="3.9932320" lon="-76.4168370">
        <ele>1692.6</ele>
        <time>2022-08-15T16:10:13Z</time>
      </trkpt>
      <trkpt lat="3.9931700" lon="-76.4168730">
        <ele>1693.0</ele>
        <time>2022-08-15T16:10:17Z</time>
      </trkpt>
      <trkpt lat="3.9931640" lon="-76.4168880">
        <ele>1693.0</ele>
        <time>2022-08-15T16:10:18Z</time>
      </trkpt>
      <trkpt lat="3.9931540" lon="-76.4169090">
        <ele>1693.2</ele>
        <time>2022-08-15T16:10:19Z</time>
      </trkpt>
      <trkpt lat="3.9931070" lon="-76.4169790">
        <ele>1694.0</ele>
        <time>2022-08-15T16:10:23Z</time>
      </trkpt>
      <trkpt lat="3.9930920" lon="-76.4170180">
        <ele>1695.4</ele>
        <time>2022-08-15T16:10:25Z</time>
      </trkpt>
      <trkpt lat="3.9930870" lon="-76.4170530">
        <ele>1695.6</ele>
        <time>2022-08-15T16:10:27Z</time>
      </trkpt>
      <trkpt lat="3.9930750" lon="-76.4170860">
        <ele>1696.2</ele>
        <time>2022-08-15T16:10:29Z</time>
      </trkpt>
      <trkpt lat="3.9930490" lon="-76.4171170">
        <ele>1696.6</ele>
        <time>2022-08-15T16:10:31Z</time>
      </trkpt>
      <trkpt lat="3.9930250" lon="-76.4171450">
        <ele>1697.2</ele>
        <time>2022-08-15T16:10:33Z</time>
      </trkpt>
      <trkpt lat="3.9929650" lon="-76.4171930">
        <ele>1698.2</ele>
        <time>2022-08-15T16:10:37Z</time>
      </trkpt>
      <trkpt lat="3.9929390" lon="-76.4172240">
        <ele>1698.4</ele>
        <time>2022-08-15T16:10:39Z</time>
      </trkpt>
      <trkpt lat="3.9928460" lon="-76.4172820">
        <ele>1699.2</ele>
        <time>2022-08-15T16:10:45Z</time>
      </trkpt>
      <trkpt lat="3.9927970" lon="-76.4172880">
        <ele>1699.4</ele>
        <time>2022-08-15T16:10:48Z</time>
      </trkpt>
      <trkpt lat="3.9927490" lon="-76.4172900">
        <ele>1699.8</ele>
        <time>2022-08-15T16:10:51Z</time>
      </trkpt>
      <trkpt lat="3.9926580" lon="-76.4172750">
        <ele>1700.6</ele>
        <time>2022-08-15T16:10:57Z</time>
      </trkpt>
      <trkpt lat="3.9926180" lon="-76.4172670">
        <ele>1700.8</ele>
        <time>2022-08-15T16:10:58Z</time>
      </trkpt>
      <trkpt lat="3.9925050" lon="-76.4172440">
        <ele>1701.6</ele>
        <time>2022-08-15T16:11:04Z</time>
      </trkpt>
      <trkpt lat="3.9924850" lon="-76.4172430">
        <ele>1701.6</ele>
        <time>2022-08-15T16:11:05Z</time>
      </trkpt>
      <trkpt lat="3.9923400" lon="-76.4172580">
        <ele>1702.4</ele>
        <time>2022-08-15T16:11:12Z</time>
      </trkpt>
      <trkpt lat="3.9923140" lon="-76.4172620">
        <ele>1702.6</ele>
        <time>2022-08-15T16:11:13Z</time>
      </trkpt>
      <trkpt lat="3.9921850" lon="-76.4172930">
        <ele>1703.4</ele>
        <time>2022-08-15T16:11:19Z</time>
      </trkpt>
      <trkpt lat="3.9921410" lon="-76.4172950">
        <ele>1703.6</ele>
        <time>2022-08-15T16:11:21Z</time>
      </trkpt>
      <trkpt lat="3.9920370" lon="-76.4173330">
        <ele>1704.2</ele>
        <time>2022-08-15T16:11:26Z</time>
      </trkpt>
      <trkpt lat="3.9919620" lon="-76.4173530">
        <ele>1704.8</ele>
        <time>2022-08-15T16:11:30Z</time>
      </trkpt>
      <trkpt lat="3.9919460" lon="-76.4173640">
        <ele>1704.8</ele>
        <time>2022-08-15T16:11:31Z</time>
      </trkpt>
      <trkpt lat="3.9919150" lon="-76.4173890">
        <ele>1705.2</ele>
        <time>2022-08-15T16:11:33Z</time>
      </trkpt>
      <trkpt lat="3.9918510" lon="-76.4174570">
        <ele>1705.8</ele>
        <time>2022-08-15T16:11:38Z</time>
      </trkpt>
      <trkpt lat="3.9918190" lon="-76.4175600">
        <ele>1706.8</ele>
        <time>2022-08-15T16:11:44Z</time>
      </trkpt>
      <trkpt lat="3.9918190" lon="-76.4175750">
        <ele>1707.0</ele>
        <time>2022-08-15T16:11:45Z</time>
      </trkpt>
      <trkpt lat="3.9918440" lon="-76.4177180">
        <ele>1708.0</ele>
        <time>2022-08-15T16:11:53Z</time>
      </trkpt>
      <trkpt lat="3.9918880" lon="-76.4178300">
        <ele>1709.2</ele>
        <time>2022-08-15T16:11:59Z</time>
      </trkpt>
      <trkpt lat="3.9918960" lon="-76.4178460">
        <ele>1709.4</ele>
        <time>2022-08-15T16:12:00Z</time>
      </trkpt>
      <trkpt lat="3.9919220" lon="-76.4179520">
        <ele>1710.4</ele>
        <time>2022-08-15T16:12:06Z</time>
      </trkpt>
      <trkpt lat="3.9919290" lon="-76.4179710">
        <ele>1710.6</ele>
        <time>2022-08-15T16:12:07Z</time>
      </trkpt>
      <trkpt lat="3.9919790" lon="-76.4180730">
        <ele>1711.4</ele>
        <time>2022-08-15T16:12:13Z</time>
      </trkpt>
      <trkpt lat="3.9919930" lon="-76.4180950">
        <ele>1711.6</ele>
        <time>2022-08-15T16:12:14Z</time>
      </trkpt>
      <trkpt lat="3.9920600" lon="-76.4182080">
        <ele>1712.8</ele>
        <time>2022-08-15T16:12:20Z</time>
      </trkpt>
      <trkpt lat="3.9920970" lon="-76.4182600">
        <ele>1713.6</ele>
        <time>2022-08-15T16:12:23Z</time>
      </trkpt>
      <trkpt lat="3.9921390" lon="-76.4183260">
        <ele>1714.0</ele>
        <time>2022-08-15T16:12:26Z</time>
      </trkpt>
      <trkpt lat="3.9921540" lon="-76.4183920">
        <ele>1714.6</ele>
        <time>2022-08-15T16:12:29Z</time>
      </trkpt>
      <trkpt lat="3.9921310" lon="-76.4185010">
        <ele>1715.2</ele>
        <time>2022-08-15T16:12:34Z</time>
      </trkpt>
      <trkpt lat="3.9921050" lon="-76.4185450">
        <ele>1715.4</ele>
        <time>2022-08-15T16:12:36Z</time>
      </trkpt>
      <trkpt lat="3.9920030" lon="-76.4186140">
        <ele>1715.6</ele>
        <time>2022-08-15T16:12:41Z</time>
      </trkpt>
      <trkpt lat="3.9918480" lon="-76.4186680">
        <ele>1716.4</ele>
        <time>2022-08-15T16:12:48Z</time>
      </trkpt>
      <trkpt lat="3.9916340" lon="-76.4187160">
        <ele>1716.6</ele>
        <time>2022-08-15T16:12:53Z</time>
      </trkpt>
      <trkpt lat="3.9915220" lon="-76.4187140">
        <ele>1716.6</ele>
        <time>2022-08-15T16:12:55Z</time>
      </trkpt>
      <trkpt lat="3.9914060" lon="-76.4186770">
        <ele>1716.6</ele>
        <time>2022-08-15T16:12:57Z</time>
      </trkpt>
      <trkpt lat="3.9912840" lon="-76.4186300">
        <ele>1716.0</ele>
        <time>2022-08-15T16:12:59Z</time>
      </trkpt>
      <trkpt lat="3.9912150" lon="-76.4186220">
        <ele>1715.4</ele>
        <time>2022-08-15T16:13:00Z</time>
      </trkpt>
      <trkpt lat="3.9911430" lon="-76.4186280">
        <ele>1715.0</ele>
        <time>2022-08-15T16:13:01Z</time>
      </trkpt>
      <trkpt lat="3.9909960" lon="-76.4186720">
        <ele>1714.0</ele>
        <time>2022-08-15T16:13:03Z</time>
      </trkpt>
      <trkpt lat="3.9909170" lon="-76.4186960">
        <ele>1714.0</ele>
        <time>2022-08-15T16:13:04Z</time>
      </trkpt>
      <trkpt lat="3.9908370" lon="-76.4187160">
        <ele>1713.6</ele>
        <time>2022-08-15T16:13:05Z</time>
      </trkpt>
      <trkpt lat="3.9906780" lon="-76.4187490">
        <ele>1712.8</ele>
        <time>2022-08-15T16:13:07Z</time>
      </trkpt>
      <trkpt lat="3.9905320" lon="-76.4187990">
        <ele>1712.4</ele>
        <time>2022-08-15T16:13:09Z</time>
      </trkpt>
      <trkpt lat="3.9904720" lon="-76.4188410">
        <ele>1712.2</ele>
        <time>2022-08-15T16:13:10Z</time>
      </trkpt>
      <trkpt lat="3.9904250" lon="-76.4188910">
        <ele>1711.8</ele>
        <time>2022-08-15T16:13:11Z</time>
      </trkpt>
      <trkpt lat="3.9903580" lon="-76.4189820">
        <ele>1711.2</ele>
        <time>2022-08-15T16:13:13Z</time>
      </trkpt>
      <trkpt lat="3.9903370" lon="-76.4190170">
        <ele>1711.0</ele>
        <time>2022-08-15T16:13:14Z</time>
      </trkpt>
      <trkpt lat="3.9902830" lon="-76.4191060">
        <ele>1711.0</ele>
        <time>2022-08-15T16:13:17Z</time>
      </trkpt>
      <trkpt lat="3.9902310" lon="-76.4191590">
        <ele>1710.8</ele>
        <time>2022-08-15T16:13:19Z</time>
      </trkpt>
      <trkpt lat="3.9901290" lon="-76.4192600">
        <ele>1711.8</ele>
        <time>2022-08-15T16:13:23Z</time>
      </trkpt>
      <trkpt lat="3.9900690" lon="-76.4193380">
        <ele>1712.8</ele>
        <time>2022-08-15T16:13:26Z</time>
      </trkpt>
      <trkpt lat="3.9900500" lon="-76.4193690">
        <ele>1713.0</ele>
        <time>2022-08-15T16:13:27Z</time>
      </trkpt>
      <trkpt lat="3.9899440" lon="-76.4195970">
        <ele>1713.2</ele>
        <time>2022-08-15T16:13:32Z</time>
      </trkpt>
      <trkpt lat="3.9898900" lon="-76.4197130">
        <ele>1713.2</ele>
        <time>2022-08-15T16:13:34Z</time>
      </trkpt>
      <trkpt lat="3.9898080" lon="-76.4198200">
        <ele>1713.2</ele>
        <time>2022-08-15T16:13:36Z</time>
      </trkpt>
      <trkpt lat="3.9896890" lon="-76.4199480">
        <ele>1712.2</ele>
        <time>2022-08-15T16:13:39Z</time>
      </trkpt>
      <trkpt lat="3.9896060" lon="-76.4199970">
        <ele>1711.4</ele>
        <time>2022-08-15T16:13:41Z</time>
      </trkpt>
      <trkpt lat="3.9895080" lon="-76.4200280">
        <ele>1710.8</ele>
        <time>2022-08-15T16:13:43Z</time>
      </trkpt>
      <trkpt lat="3.9894070" lon="-76.4200370">
        <ele>1710.2</ele>
        <time>2022-08-15T16:13:45Z</time>
      </trkpt>
      <trkpt lat="3.9893570" lon="-76.4200410">
        <ele>1709.4</ele>
        <time>2022-08-15T16:13:46Z</time>
      </trkpt>
      <trkpt lat="3.9893090" lon="-76.4200500">
        <ele>1708.8</ele>
        <time>2022-08-15T16:13:47Z</time>
      </trkpt>
      <trkpt lat="3.9891500" lon="-76.4201050">
        <ele>1707.8</ele>
        <time>2022-08-15T16:13:50Z</time>
      </trkpt>
      <trkpt lat="3.9889840" lon="-76.4201830">
        <ele>1706.6</ele>
        <time>2022-08-15T16:13:53Z</time>
      </trkpt>
      <trkpt lat="3.9888800" lon="-76.4202430">
        <ele>1705.6</ele>
        <time>2022-08-15T16:13:55Z</time>
      </trkpt>
      <trkpt lat="3.9887120" lon="-76.4203500">
        <ele>1703.8</ele>
        <time>2022-08-15T16:13:58Z</time>
      </trkpt>
      <trkpt lat="3.9885660" lon="-76.4204690">
        <ele>1702.6</ele>
        <time>2022-08-15T16:14:01Z</time>
      </trkpt>
      <trkpt lat="3.9884800" lon="-76.4206240">
        <ele>1701.6</ele>
        <time>2022-08-15T16:14:04Z</time>
      </trkpt>
      <trkpt lat="3.9884610" lon="-76.4206810">
        <ele>1700.8</ele>
        <time>2022-08-15T16:14:05Z</time>
      </trkpt>
      <trkpt lat="3.9884440" lon="-76.4207420">
        <ele>1699.8</ele>
        <time>2022-08-15T16:14:06Z</time>
      </trkpt>
      <trkpt lat="3.9884210" lon="-76.4208560">
        <ele>1698.8</ele>
        <time>2022-08-15T16:14:08Z</time>
      </trkpt>
      <trkpt lat="3.9884190" lon="-76.4209080">
        <ele>1698.0</ele>
        <time>2022-08-15T16:14:09Z</time>
      </trkpt>
      <trkpt lat="3.9884310" lon="-76.4209570">
        <ele>1697.4</ele>
        <time>2022-08-15T16:14:10Z</time>
      </trkpt>
      <trkpt lat="3.9884570" lon="-76.4210070">
        <ele>1696.8</ele>
        <time>2022-08-15T16:14:11Z</time>
      </trkpt>
      <trkpt lat="3.9884890" lon="-76.4210590">
        <ele>1696.4</ele>
        <time>2022-08-15T16:14:12Z</time>
      </trkpt>
      <trkpt lat="3.9885490" lon="-76.4211590">
        <ele>1695.0</ele>
        <time>2022-08-15T16:14:14Z</time>
      </trkpt>
      <trkpt lat="3.9885800" lon="-76.4212080">
        <ele>1694.4</ele>
        <time>2022-08-15T16:14:15Z</time>
      </trkpt>
      <trkpt lat="3.9886080" lon="-76.4212560">
        <ele>1694.0</ele>
        <time>2022-08-15T16:14:16Z</time>
      </trkpt>
      <trkpt lat="3.9886690" lon="-76.4213480">
        <ele>1693.4</ele>
        <time>2022-08-15T16:14:18Z</time>
      </trkpt>
      <trkpt lat="3.9887060" lon="-76.4213910">
        <ele>1692.8</ele>
        <time>2022-08-15T16:14:19Z</time>
      </trkpt>
      <trkpt lat="3.9887560" lon="-76.4214360">
        <ele>1691.8</ele>
        <time>2022-08-15T16:14:20Z</time>
      </trkpt>
      <trkpt lat="3.9888030" lon="-76.4214750">
        <ele>1691.0</ele>
        <time>2022-08-15T16:14:21Z</time>
      </trkpt>
      <trkpt lat="3.9888950" lon="-76.4215600">
        <ele>1690.0</ele>
        <time>2022-08-15T16:14:23Z</time>
      </trkpt>
      <trkpt lat="3.9889320" lon="-76.4216010">
        <ele>1689.0</ele>
        <time>2022-08-15T16:14:24Z</time>
      </trkpt>
      <trkpt lat="3.9889640" lon="-76.4216400">
        <ele>1688.6</ele>
        <time>2022-08-15T16:14:25Z</time>
      </trkpt>
      <trkpt lat="3.9889850" lon="-76.4216730">
        <ele>1687.6</ele>
        <time>2022-08-15T16:14:26Z</time>
      </trkpt>
      <trkpt lat="3.9889980" lon="-76.4217290">
        <ele>1687.0</ele>
        <time>2022-08-15T16:14:27Z</time>
      </trkpt>
      <trkpt lat="3.9889590" lon="-76.4218390">
        <ele>1686.0</ele>
        <time>2022-08-15T16:14:29Z</time>
      </trkpt>
      <trkpt lat="3.9889010" lon="-76.4219570">
        <ele>1684.6</ele>
        <time>2022-08-15T16:14:31Z</time>
      </trkpt>
      <trkpt lat="3.9888600" lon="-76.4220670">
        <ele>1683.4</ele>
        <time>2022-08-15T16:14:33Z</time>
      </trkpt>
      <trkpt lat="3.9887930" lon="-76.4222330">
        <ele>1681.8</ele>
        <time>2022-08-15T16:14:36Z</time>
      </trkpt>
      <trkpt lat="3.9887610" lon="-76.4223200">
        <ele>1680.4</ele>
        <time>2022-08-15T16:14:38Z</time>
      </trkpt>
      <trkpt lat="3.9887190" lon="-76.4224110">
        <ele>1678.8</ele>
        <time>2022-08-15T16:14:40Z</time>
      </trkpt>
      <trkpt lat="3.9886960" lon="-76.4224490">
        <ele>1678.8</ele>
        <time>2022-08-15T16:14:41Z</time>
      </trkpt>
      <trkpt lat="3.9886680" lon="-76.4224760">
        <ele>1678.2</ele>
        <time>2022-08-15T16:14:42Z</time>
      </trkpt>
      <trkpt lat="3.9886390" lon="-76.4224990">
        <ele>1677.2</ele>
        <time>2022-08-15T16:14:43Z</time>
      </trkpt>
      <trkpt lat="3.9885770" lon="-76.4225430">
        <ele>1676.2</ele>
        <time>2022-08-15T16:14:45Z</time>
      </trkpt>
      <trkpt lat="3.9885040" lon="-76.4225960">
        <ele>1675.0</ele>
        <time>2022-08-15T16:14:47Z</time>
      </trkpt>
      <trkpt lat="3.9884620" lon="-76.4226310">
        <ele>1674.6</ele>
        <time>2022-08-15T16:14:48Z</time>
      </trkpt>
      <trkpt lat="3.9883790" lon="-76.4227340">
        <ele>1674.0</ele>
        <time>2022-08-15T16:14:50Z</time>
      </trkpt>
      <trkpt lat="3.9883550" lon="-76.4227820">
        <ele>1673.8</ele>
        <time>2022-08-15T16:14:51Z</time>
      </trkpt>
      <trkpt lat="3.9882710" lon="-76.4229470">
        <ele>1672.4</ele>
        <time>2022-08-15T16:14:54Z</time>
      </trkpt>
      <trkpt lat="3.9882500" lon="-76.4230050">
        <ele>1672.0</ele>
        <time>2022-08-15T16:14:55Z</time>
      </trkpt>
      <trkpt lat="3.9882290" lon="-76.4230910">
        <ele>1671.2</ele>
        <time>2022-08-15T16:14:57Z</time>
      </trkpt>
      <trkpt lat="3.9882150" lon="-76.4231380">
        <ele>1670.0</ele>
        <time>2022-08-15T16:14:58Z</time>
      </trkpt>
      <trkpt lat="3.9881840" lon="-76.4232300">
        <ele>1669.0</ele>
        <time>2022-08-15T16:15:00Z</time>
      </trkpt>
      <trkpt lat="3.9881470" lon="-76.4233310">
        <ele>1667.8</ele>
        <time>2022-08-15T16:15:02Z</time>
      </trkpt>
      <trkpt lat="3.9881140" lon="-76.4234280">
        <ele>1667.4</ele>
        <time>2022-08-15T16:15:04Z</time>
      </trkpt>
      <trkpt lat="3.9880980" lon="-76.4235310">
        <ele>1666.6</ele>
        <time>2022-08-15T16:15:06Z</time>
      </trkpt>
      <trkpt lat="3.9880960" lon="-76.4235970">
        <ele>1666.0</ele>
        <time>2022-08-15T16:15:07Z</time>
      </trkpt>
      <trkpt lat="3.9881000" lon="-76.4236410">
        <ele>1665.4</ele>
        <time>2022-08-15T16:15:08Z</time>
      </trkpt>
      <trkpt lat="3.9880940" lon="-76.4237940">
        <ele>1664.4</ele>
        <time>2022-08-15T16:15:11Z</time>
      </trkpt>
      <trkpt lat="3.9880830" lon="-76.4238850">
        <ele>1663.4</ele>
        <time>2022-08-15T16:15:13Z</time>
      </trkpt>
      <trkpt lat="3.9880670" lon="-76.4239310">
        <ele>1662.6</ele>
        <time>2022-08-15T16:15:14Z</time>
      </trkpt>
      <trkpt lat="3.9880410" lon="-76.4239750">
        <ele>1662.2</ele>
        <time>2022-08-15T16:15:15Z</time>
      </trkpt>
      <trkpt lat="3.9879610" lon="-76.4240240">
        <ele>1661.6</ele>
        <time>2022-08-15T16:15:17Z</time>
      </trkpt>
      <trkpt lat="3.9878760" lon="-76.4240000">
        <ele>1659.6</ele>
        <time>2022-08-15T16:15:19Z</time>
      </trkpt>
      <trkpt lat="3.9878410" lon="-76.4239510">
        <ele>1659.0</ele>
        <time>2022-08-15T16:15:20Z</time>
      </trkpt>
      <trkpt lat="3.9878110" lon="-76.4238950">
        <ele>1658.8</ele>
        <time>2022-08-15T16:15:21Z</time>
      </trkpt>
      <trkpt lat="3.9877900" lon="-76.4238390">
        <ele>1658.0</ele>
        <time>2022-08-15T16:15:22Z</time>
      </trkpt>
      <trkpt lat="3.9877680" lon="-76.4237890">
        <ele>1657.6</ele>
        <time>2022-08-15T16:15:23Z</time>
      </trkpt>
      <trkpt lat="3.9877000" lon="-76.4237100">
        <ele>1656.6</ele>
        <time>2022-08-15T16:15:25Z</time>
      </trkpt>
      <trkpt lat="3.9876580" lon="-76.4236850">
        <ele>1656.0</ele>
        <time>2022-08-15T16:15:26Z</time>
      </trkpt>
      <trkpt lat="3.9876130" lon="-76.4236800">
        <ele>1655.6</ele>
        <time>2022-08-15T16:15:27Z</time>
      </trkpt>
      <trkpt lat="3.9875300" lon="-76.4237320">
        <ele>1655.0</ele>
        <time>2022-08-15T16:15:29Z</time>
      </trkpt>
      <trkpt lat="3.9875000" lon="-76.4237730">
        <ele>1654.0</ele>
        <time>2022-08-15T16:15:30Z</time>
      </trkpt>
      <trkpt lat="3.9874830" lon="-76.4238240">
        <ele>1653.4</ele>
        <time>2022-08-15T16:15:31Z</time>
      </trkpt>
      <trkpt lat="3.9874770" lon="-76.4238790">
        <ele>1653.0</ele>
        <time>2022-08-15T16:15:32Z</time>
      </trkpt>
      <trkpt lat="3.9874840" lon="-76.4239390">
        <ele>1652.6</ele>
        <time>2022-08-15T16:15:33Z</time>
      </trkpt>
      <trkpt lat="3.9875280" lon="-76.4241180">
        <ele>1650.6</ele>
        <time>2022-08-15T16:15:36Z</time>
      </trkpt>
      <trkpt lat="3.9875370" lon="-76.4241720">
        <ele>1649.8</ele>
        <time>2022-08-15T16:15:37Z</time>
      </trkpt>
      <trkpt lat="3.9875400" lon="-76.4242240">
        <ele>1649.2</ele>
        <time>2022-08-15T16:15:38Z</time>
      </trkpt>
      <trkpt lat="3.9875450" lon="-76.4243310">
        <ele>1648.0</ele>
        <time>2022-08-15T16:15:40Z</time>
      </trkpt>
      <trkpt lat="3.9875470" lon="-76.4243790">
        <ele>1647.2</ele>
        <time>2022-08-15T16:15:41Z</time>
      </trkpt>
      <trkpt lat="3.9875530" lon="-76.4244210">
        <ele>1646.6</ele>
        <time>2022-08-15T16:15:42Z</time>
      </trkpt>
      <trkpt lat="3.9875690" lon="-76.4244840">
        <ele>1645.0</ele>
        <time>2022-08-15T16:15:44Z</time>
      </trkpt>
      <trkpt lat="3.9875760" lon="-76.4245120">
        <ele>1644.4</ele>
        <time>2022-08-15T16:15:45Z</time>
      </trkpt>
      <trkpt lat="3.9875800" lon="-76.4245400">
        <ele>1643.8</ele>
        <time>2022-08-15T16:15:46Z</time>
      </trkpt>
      <trkpt lat="3.9875940" lon="-76.4246680">
        <ele>1642.4</ele>
        <time>2022-08-15T16:15:50Z</time>
      </trkpt>
      <trkpt lat="3.9875930" lon="-76.4246990">
        <ele>1642.0</ele>
        <time>2022-08-15T16:15:51Z</time>
      </trkpt>
      <trkpt lat="3.9875380" lon="-76.4247730">
        <ele>1641.0</ele>
        <time>2022-08-15T16:15:54Z</time>
      </trkpt>
      <trkpt lat="3.9874230" lon="-76.4248510">
        <ele>1640.2</ele>
        <time>2022-08-15T16:15:57Z</time>
      </trkpt>
      <trkpt lat="3.9873750" lon="-76.4248830">
        <ele>1639.8</ele>
        <time>2022-08-15T16:15:58Z</time>
      </trkpt>
      <trkpt lat="3.9872190" lon="-76.4249790">
        <ele>1638.6</ele>
        <time>2022-08-15T16:16:01Z</time>
      </trkpt>
      <trkpt lat="3.9871400" lon="-76.4250290">
        <ele>1637.8</ele>
        <time>2022-08-15T16:16:03Z</time>
      </trkpt>
      <trkpt lat="3.9871070" lon="-76.4250590">
        <ele>1637.6</ele>
        <time>2022-08-15T16:16:04Z</time>
      </trkpt>
      <trkpt lat="3.9870810" lon="-76.4250980">
        <ele>1636.6</ele>
        <time>2022-08-15T16:16:05Z</time>
      </trkpt>
      <trkpt lat="3.9870630" lon="-76.4251500">
        <ele>1636.0</ele>
        <time>2022-08-15T16:16:06Z</time>
      </trkpt>
      <trkpt lat="3.9870620" lon="-76.4252110">
        <ele>1635.4</ele>
        <time>2022-08-15T16:16:07Z</time>
      </trkpt>
      <trkpt lat="3.9870760" lon="-76.4252780">
        <ele>1634.8</ele>
        <time>2022-08-15T16:16:08Z</time>
      </trkpt>
      <trkpt lat="3.9870960" lon="-76.4253490">
        <ele>1634.4</ele>
        <time>2022-08-15T16:16:09Z</time>
      </trkpt>
      <trkpt lat="3.9871470" lon="-76.4254960">
        <ele>1633.6</ele>
        <time>2022-08-15T16:16:11Z</time>
      </trkpt>
      <trkpt lat="3.9871890" lon="-76.4256310">
        <ele>1632.8</ele>
        <time>2022-08-15T16:16:13Z</time>
      </trkpt>
      <trkpt lat="3.9871950" lon="-76.4256920">
        <ele>1632.4</ele>
        <time>2022-08-15T16:16:14Z</time>
      </trkpt>
      <trkpt lat="3.9871760" lon="-76.4257420">
        <ele>1631.8</ele>
        <time>2022-08-15T16:16:15Z</time>
      </trkpt>
      <trkpt lat="3.9871410" lon="-76.4257780">
        <ele>1630.8</ele>
        <time>2022-08-15T16:16:16Z</time>
      </trkpt>
      <trkpt lat="3.9871020" lon="-76.4257980">
        <ele>1630.8</ele>
        <time>2022-08-15T16:16:17Z</time>
      </trkpt>
      <trkpt lat="3.9870580" lon="-76.4257930">
        <ele>1630.4</ele>
        <time>2022-08-15T16:16:18Z</time>
      </trkpt>
      <trkpt lat="3.9870130" lon="-76.4257700">
        <ele>1630.0</ele>
        <time>2022-08-15T16:16:19Z</time>
      </trkpt>
      <trkpt lat="3.9869700" lon="-76.4257450">
        <ele>1629.2</ele>
        <time>2022-08-15T16:16:20Z</time>
      </trkpt>
      <trkpt lat="3.9868760" lon="-76.4257010">
        <ele>1628.4</ele>
        <time>2022-08-15T16:16:22Z</time>
      </trkpt>
      <trkpt lat="3.9868220" lon="-76.4256930">
        <ele>1628.2</ele>
        <time>2022-08-15T16:16:23Z</time>
      </trkpt>
      <trkpt lat="3.9867650" lon="-76.4256940">
        <ele>1628.0</ele>
        <time>2022-08-15T16:16:24Z</time>
      </trkpt>
      <trkpt lat="3.9867060" lon="-76.4257010">
        <ele>1628.0</ele>
        <time>2022-08-15T16:16:25Z</time>
      </trkpt>
      <trkpt lat="3.9866420" lon="-76.4257170">
        <ele>1627.8</ele>
        <time>2022-08-15T16:16:26Z</time>
      </trkpt>
      <trkpt lat="3.9864560" lon="-76.4257880">
        <ele>1627.4</ele>
        <time>2022-08-15T16:16:29Z</time>
      </trkpt>
      <trkpt lat="3.9864070" lon="-76.4258120">
        <ele>1627.0</ele>
        <time>2022-08-15T16:16:30Z</time>
      </trkpt>
      <trkpt lat="3.9863340" lon="-76.4258810">
        <ele>1626.2</ele>
        <time>2022-08-15T16:16:32Z</time>
      </trkpt>
      <trkpt lat="3.9862750" lon="-76.4259730">
        <ele>1625.4</ele>
        <time>2022-08-15T16:16:34Z</time>
      </trkpt>
      <trkpt lat="3.9862540" lon="-76.4260260">
        <ele>1624.6</ele>
        <time>2022-08-15T16:16:35Z</time>
      </trkpt>
      <trkpt lat="3.9862430" lon="-76.4260820">
        <ele>1624.0</ele>
        <time>2022-08-15T16:16:36Z</time>
      </trkpt>
      <trkpt lat="3.9862450" lon="-76.4261370">
        <ele>1623.2</ele>
        <time>2022-08-15T16:16:37Z</time>
      </trkpt>
      <trkpt lat="3.9862750" lon="-76.4263300">
        <ele>1621.8</ele>
        <time>2022-08-15T16:16:40Z</time>
      </trkpt>
      <trkpt lat="3.9862750" lon="-76.4264910">
        <ele>1621.4</ele>
        <time>2022-08-15T16:16:42Z</time>
      </trkpt>
      <trkpt lat="3.9862340" lon="-76.4266490">
        <ele>1620.2</ele>
        <time>2022-08-15T16:16:44Z</time>
      </trkpt>
      <trkpt lat="3.9861060" lon="-76.4268680">
        <ele>1618.4</ele>
        <time>2022-08-15T16:16:47Z</time>
      </trkpt>
      <trkpt lat="3.9860550" lon="-76.4269400">
        <ele>1617.6</ele>
        <time>2022-08-15T16:16:48Z</time>
      </trkpt>
      <trkpt lat="3.9860020" lon="-76.4270110">
        <ele>1617.0</ele>
        <time>2022-08-15T16:16:49Z</time>
      </trkpt>
      <trkpt lat="3.9859440" lon="-76.4270820">
        <ele>1615.8</ele>
        <time>2022-08-15T16:16:50Z</time>
      </trkpt>
      <trkpt lat="3.9858230" lon="-76.4272170">
        <ele>1614.2</ele>
        <time>2022-08-15T16:16:52Z</time>
      </trkpt>
      <trkpt lat="3.9856950" lon="-76.4273470">
        <ele>1613.2</ele>
        <time>2022-08-15T16:16:54Z</time>
      </trkpt>
      <trkpt lat="3.9856270" lon="-76.4274100">
        <ele>1612.6</ele>
        <time>2022-08-15T16:16:55Z</time>
      </trkpt>
      <trkpt lat="3.9855510" lon="-76.4274660">
        <ele>1612.2</ele>
        <time>2022-08-15T16:16:56Z</time>
      </trkpt>
      <trkpt lat="3.9853880" lon="-76.4275510">
        <ele>1610.8</ele>
        <time>2022-08-15T16:16:58Z</time>
      </trkpt>
      <trkpt lat="3.9853050" lon="-76.4275830">
        <ele>1610.2</ele>
        <time>2022-08-15T16:16:59Z</time>
      </trkpt>
      <trkpt lat="3.9851500" lon="-76.4276230">
        <ele>1609.6</ele>
        <time>2022-08-15T16:17:01Z</time>
      </trkpt>
      <trkpt lat="3.9850090" lon="-76.4276610">
        <ele>1608.8</ele>
        <time>2022-08-15T16:17:03Z</time>
      </trkpt>
      <trkpt lat="3.9849440" lon="-76.4276840">
        <ele>1608.6</ele>
        <time>2022-08-15T16:17:04Z</time>
      </trkpt>
      <trkpt lat="3.9848180" lon="-76.4277440">
        <ele>1608.2</ele>
        <time>2022-08-15T16:17:06Z</time>
      </trkpt>
      <trkpt lat="3.9846930" lon="-76.4278260">
        <ele>1607.8</ele>
        <time>2022-08-15T16:17:08Z</time>
      </trkpt>
      <trkpt lat="3.9844920" lon="-76.4279640">
        <ele>1607.2</ele>
        <time>2022-08-15T16:17:11Z</time>
      </trkpt>
      <trkpt lat="3.9843690" lon="-76.4280460">
        <ele>1607.0</ele>
        <time>2022-08-15T16:17:13Z</time>
      </trkpt>
      <trkpt lat="3.9843190" lon="-76.4280900">
        <ele>1606.6</ele>
        <time>2022-08-15T16:17:14Z</time>
      </trkpt>
      <trkpt lat="3.9841980" lon="-76.4282180">
        <ele>1605.8</ele>
        <time>2022-08-15T16:17:17Z</time>
      </trkpt>
      <trkpt lat="3.9840820" lon="-76.4282750">
        <ele>1604.4</ele>
        <time>2022-08-15T16:17:19Z</time>
      </trkpt>
      <trkpt lat="3.9840110" lon="-76.4282900">
        <ele>1604.0</ele>
        <time>2022-08-15T16:17:20Z</time>
      </trkpt>
      <trkpt lat="3.9839310" lon="-76.4282950">
        <ele>1603.6</ele>
        <time>2022-08-15T16:17:21Z</time>
      </trkpt>
      <trkpt lat="3.9837700" lon="-76.4283020">
        <ele>1602.8</ele>
        <time>2022-08-15T16:17:23Z</time>
      </trkpt>
      <trkpt lat="3.9836970" lon="-76.4283150">
        <ele>1602.0</ele>
        <time>2022-08-15T16:17:24Z</time>
      </trkpt>
      <trkpt lat="3.9835660" lon="-76.4283560">
        <ele>1601.0</ele>
        <time>2022-08-15T16:17:26Z</time>
      </trkpt>
      <trkpt lat="3.9834660" lon="-76.4284240">
        <ele>1600.0</ele>
        <time>2022-08-15T16:17:28Z</time>
      </trkpt>
      <trkpt lat="3.9834090" lon="-76.4284810">
        <ele>1600.0</ele>
        <time>2022-08-15T16:17:29Z</time>
      </trkpt>
      <trkpt lat="3.9833630" lon="-76.4285290">
        <ele>1599.0</ele>
        <time>2022-08-15T16:17:30Z</time>
      </trkpt>
      <trkpt lat="3.9833130" lon="-76.4285710">
        <ele>1598.6</ele>
        <time>2022-08-15T16:17:31Z</time>
      </trkpt>
      <trkpt lat="3.9832620" lon="-76.4286050">
        <ele>1598.2</ele>
        <time>2022-08-15T16:17:32Z</time>
      </trkpt>
      <trkpt lat="3.9832100" lon="-76.4286270">
        <ele>1597.2</ele>
        <time>2022-08-15T16:17:33Z</time>
      </trkpt>
      <trkpt lat="3.9831020" lon="-76.4286290">
        <ele>1596.0</ele>
        <time>2022-08-15T16:17:35Z</time>
      </trkpt>
      <trkpt lat="3.9830000" lon="-76.4285750">
        <ele>1594.4</ele>
        <time>2022-08-15T16:17:37Z</time>
      </trkpt>
      <trkpt lat="3.9829590" lon="-76.4285400">
        <ele>1593.4</ele>
        <time>2022-08-15T16:17:38Z</time>
      </trkpt>
      <trkpt lat="3.9828940" lon="-76.4284920">
        <ele>1592.8</ele>
        <time>2022-08-15T16:17:39Z</time>
      </trkpt>
      <trkpt lat="3.9827780" lon="-76.4284490">
        <ele>1591.6</ele>
        <time>2022-08-15T16:17:41Z</time>
      </trkpt>
      <trkpt lat="3.9826480" lon="-76.4284500">
        <ele>1590.6</ele>
        <time>2022-08-15T16:17:43Z</time>
      </trkpt>
      <trkpt lat="3.9825770" lon="-76.4284640">
        <ele>1590.0</ele>
        <time>2022-08-15T16:17:44Z</time>
      </trkpt>
      <trkpt lat="3.9825130" lon="-76.4284930">
        <ele>1589.2</ele>
        <time>2022-08-15T16:17:45Z</time>
      </trkpt>
      <trkpt lat="3.9824030" lon="-76.4285670">
        <ele>1588.0</ele>
        <time>2022-08-15T16:17:47Z</time>
      </trkpt>
      <trkpt lat="3.9823630" lon="-76.4286100">
        <ele>1587.2</ele>
        <time>2022-08-15T16:17:48Z</time>
      </trkpt>
      <trkpt lat="3.9823310" lon="-76.4286560">
        <ele>1586.6</ele>
        <time>2022-08-15T16:17:49Z</time>
      </trkpt>
      <trkpt lat="3.9822770" lon="-76.4287490">
        <ele>1585.4</ele>
        <time>2022-08-15T16:17:51Z</time>
      </trkpt>
      <trkpt lat="3.9822460" lon="-76.4287900">
        <ele>1584.2</ele>
        <time>2022-08-15T16:17:52Z</time>
      </trkpt>
      <trkpt lat="3.9822050" lon="-76.4288240">
        <ele>1584.2</ele>
        <time>2022-08-15T16:17:53Z</time>
      </trkpt>
      <trkpt lat="3.9821550" lon="-76.4288490">
        <ele>1583.0</ele>
        <time>2022-08-15T16:17:54Z</time>
      </trkpt>
      <trkpt lat="3.9821000" lon="-76.4288630">
        <ele>1582.4</ele>
        <time>2022-08-15T16:17:55Z</time>
      </trkpt>
      <trkpt lat="3.9820460" lon="-76.4288650">
        <ele>1581.8</ele>
        <time>2022-08-15T16:17:56Z</time>
      </trkpt>
      <trkpt lat="3.9819940" lon="-76.4288530">
        <ele>1581.4</ele>
        <time>2022-08-15T16:17:57Z</time>
      </trkpt>
      <trkpt lat="3.9819400" lon="-76.4288340">
        <ele>1581.0</ele>
        <time>2022-08-15T16:17:58Z</time>
      </trkpt>
      <trkpt lat="3.9818880" lon="-76.4288110">
        <ele>1580.8</ele>
        <time>2022-08-15T16:17:59Z</time>
      </trkpt>
      <trkpt lat="3.9818370" lon="-76.4287860">
        <ele>1580.2</ele>
        <time>2022-08-15T16:18:00Z</time>
      </trkpt>
      <trkpt lat="3.9817280" lon="-76.4287300">
        <ele>1579.0</ele>
        <time>2022-08-15T16:18:02Z</time>
      </trkpt>
      <trkpt lat="3.9816180" lon="-76.4286650">
        <ele>1578.4</ele>
        <time>2022-08-15T16:18:04Z</time>
      </trkpt>
      <trkpt lat="3.9815610" lon="-76.4286400">
        <ele>1578.0</ele>
        <time>2022-08-15T16:18:05Z</time>
      </trkpt>
      <trkpt lat="3.9814500" lon="-76.4286330">
        <ele>1576.8</ele>
        <time>2022-08-15T16:18:07Z</time>
      </trkpt>
      <trkpt lat="3.9813550" lon="-76.4286950">
        <ele>1575.4</ele>
        <time>2022-08-15T16:18:09Z</time>
      </trkpt>
      <trkpt lat="3.9813160" lon="-76.4287380">
        <ele>1574.8</ele>
        <time>2022-08-15T16:18:10Z</time>
      </trkpt>
      <trkpt lat="3.9812790" lon="-76.4287850">
        <ele>1574.4</ele>
        <time>2022-08-15T16:18:11Z</time>
      </trkpt>
      <trkpt lat="3.9812440" lon="-76.4288370">
        <ele>1573.2</ele>
        <time>2022-08-15T16:18:12Z</time>
      </trkpt>
      <trkpt lat="3.9812070" lon="-76.4288860">
        <ele>1572.4</ele>
        <time>2022-08-15T16:18:13Z</time>
      </trkpt>
      <trkpt lat="3.9811670" lon="-76.4289340">
        <ele>1572.0</ele>
        <time>2022-08-15T16:18:14Z</time>
      </trkpt>
      <trkpt lat="3.9811370" lon="-76.4289730">
        <ele>1571.6</ele>
        <time>2022-08-15T16:18:15Z</time>
      </trkpt>
      <trkpt lat="3.9810330" lon="-76.4291400">
        <ele>1570.6</ele>
        <time>2022-08-15T16:18:18Z</time>
      </trkpt>
      <trkpt lat="3.9810140" lon="-76.4292480">
        <ele>1569.6</ele>
        <time>2022-08-15T16:18:20Z</time>
      </trkpt>
      <trkpt lat="3.9810480" lon="-76.4293470">
        <ele>1568.6</ele>
        <time>2022-08-15T16:18:22Z</time>
      </trkpt>
      <trkpt lat="3.9810990" lon="-76.4293810">
        <ele>1567.8</ele>
        <time>2022-08-15T16:18:23Z</time>
      </trkpt>
      <trkpt lat="3.9811660" lon="-76.4294090">
        <ele>1567.2</ele>
        <time>2022-08-15T16:18:24Z</time>
      </trkpt>
      <trkpt lat="3.9813030" lon="-76.4294610">
        <ele>1565.8</ele>
        <time>2022-08-15T16:18:26Z</time>
      </trkpt>
      <trkpt lat="3.9813620" lon="-76.4294940">
        <ele>1565.2</ele>
        <time>2022-08-15T16:18:27Z</time>
      </trkpt>
      <trkpt lat="3.9814150" lon="-76.4295290">
        <ele>1564.2</ele>
        <time>2022-08-15T16:18:28Z</time>
      </trkpt>
      <trkpt lat="3.9815060" lon="-76.4296030">
        <ele>1563.0</ele>
        <time>2022-08-15T16:18:30Z</time>
      </trkpt>
      <trkpt lat="3.9815460" lon="-76.4296410">
        <ele>1562.4</ele>
        <time>2022-08-15T16:18:31Z</time>
      </trkpt>
      <trkpt lat="3.9815780" lon="-76.4296870">
        <ele>1561.6</ele>
        <time>2022-08-15T16:18:32Z</time>
      </trkpt>
      <trkpt lat="3.9816130" lon="-76.4297830">
        <ele>1560.0</ele>
        <time>2022-08-15T16:18:34Z</time>
      </trkpt>
      <trkpt lat="3.9816290" lon="-76.4298850">
        <ele>1558.4</ele>
        <time>2022-08-15T16:18:36Z</time>
      </trkpt>
      <trkpt lat="3.9816240" lon="-76.4300010">
        <ele>1557.2</ele>
        <time>2022-08-15T16:18:38Z</time>
      </trkpt>
      <trkpt lat="3.9815910" lon="-76.4301100">
        <ele>1556.6</ele>
        <time>2022-08-15T16:18:40Z</time>
      </trkpt>
      <trkpt lat="3.9815130" lon="-76.4301880">
        <ele>1556.0</ele>
        <time>2022-08-15T16:18:42Z</time>
      </trkpt>
      <trkpt lat="3.9814060" lon="-76.4302150">
        <ele>1555.4</ele>
        <time>2022-08-15T16:18:44Z</time>
      </trkpt>
      <trkpt lat="3.9813500" lon="-76.4302150">
        <ele>1554.8</ele>
        <time>2022-08-15T16:18:45Z</time>
      </trkpt>
      <trkpt lat="3.9812940" lon="-76.4302150">
        <ele>1554.6</ele>
        <time>2022-08-15T16:18:46Z</time>
      </trkpt>
      <trkpt lat="3.9812400" lon="-76.4302120">
        <ele>1553.8</ele>
        <time>2022-08-15T16:18:47Z</time>
      </trkpt>
      <trkpt lat="3.9811290" lon="-76.4302110">
        <ele>1552.4</ele>
        <time>2022-08-15T16:18:49Z</time>
      </trkpt>
      <trkpt lat="3.9809740" lon="-76.4302180">
        <ele>1551.4</ele>
        <time>2022-08-15T16:18:52Z</time>
      </trkpt>
      <trkpt lat="3.9809320" lon="-76.4302240">
        <ele>1551.2</ele>
        <time>2022-08-15T16:18:53Z</time>
      </trkpt>
      <trkpt lat="3.9808970" lon="-76.4302290">
        <ele>1551.0</ele>
        <time>2022-08-15T16:18:54Z</time>
      </trkpt>
      <trkpt lat="3.9807500" lon="-76.4302510">
        <ele>1551.0</ele>
        <time>2022-08-15T16:18:58Z</time>
      </trkpt>
      <trkpt lat="3.9806550" lon="-76.4302580">
        <ele>1551.0</ele>
        <time>2022-08-15T16:19:01Z</time>
      </trkpt>
      <trkpt lat="3.9804460" lon="-76.4302990">
        <ele>1551.2</ele>
        <time>2022-08-15T16:19:07Z</time>
      </trkpt>
      <trkpt lat="3.9802970" lon="-76.4303080">
        <ele>1551.0</ele>
        <time>2022-08-15T16:19:10Z</time>
      </trkpt>
      <trkpt lat="3.9802470" lon="-76.4302900">
        <ele>1551.0</ele>
        <time>2022-08-15T16:19:11Z</time>
      </trkpt>
      <trkpt lat="3.9800040" lon="-76.4301360">
        <ele>1550.4</ele>
        <time>2022-08-15T16:19:16Z</time>
      </trkpt>
      <trkpt lat="3.9799580" lon="-76.4301130">
        <ele>1550.4</ele>
        <time>2022-08-15T16:19:17Z</time>
      </trkpt>
      <trkpt lat="3.9798620" lon="-76.4300950">
        <ele>1550.0</ele>
        <time>2022-08-15T16:19:19Z</time>
      </trkpt>
      <trkpt lat="3.9798130" lon="-76.4300950">
        <ele>1549.2</ele>
        <time>2022-08-15T16:19:20Z</time>
      </trkpt>
      <trkpt lat="3.9796260" lon="-76.4301290">
        <ele>1548.2</ele>
        <time>2022-08-15T16:19:24Z</time>
      </trkpt>
      <trkpt lat="3.9795750" lon="-76.4301390">
        <ele>1548.0</ele>
        <time>2022-08-15T16:19:25Z</time>
      </trkpt>
      <trkpt lat="3.9794710" lon="-76.4301640">
        <ele>1547.8</ele>
        <time>2022-08-15T16:19:27Z</time>
      </trkpt>
      <trkpt lat="3.9793010" lon="-76.4302320">
        <ele>1547.6</ele>
        <time>2022-08-15T16:19:30Z</time>
      </trkpt>
      <trkpt lat="3.9790890" lon="-76.4302870">
        <ele>1547.4</ele>
        <time>2022-08-15T16:19:33Z</time>
      </trkpt>
      <trkpt lat="3.9789470" lon="-76.4303140">
        <ele>1547.0</ele>
        <time>2022-08-15T16:19:35Z</time>
      </trkpt>
      <trkpt lat="3.9788270" lon="-76.4303400">
        <ele>1546.4</ele>
        <time>2022-08-15T16:19:37Z</time>
      </trkpt>
      <trkpt lat="3.9787730" lon="-76.4303500">
        <ele>1546.0</ele>
        <time>2022-08-15T16:19:38Z</time>
      </trkpt>
      <trkpt lat="3.9787260" lon="-76.4303750">
        <ele>1545.2</ele>
        <time>2022-08-15T16:19:39Z</time>
      </trkpt>
      <trkpt lat="3.9786910" lon="-76.4304080">
        <ele>1544.8</ele>
        <time>2022-08-15T16:19:40Z</time>
      </trkpt>
      <trkpt lat="3.9786640" lon="-76.4304430">
        <ele>1544.0</ele>
        <time>2022-08-15T16:19:41Z</time>
      </trkpt>
      <trkpt lat="3.9786400" lon="-76.4304820">
        <ele>1543.4</ele>
        <time>2022-08-15T16:19:42Z</time>
      </trkpt>
      <trkpt lat="3.9786130" lon="-76.4305230">
        <ele>1542.8</ele>
        <time>2022-08-15T16:19:43Z</time>
      </trkpt>
      <trkpt lat="3.9785590" lon="-76.4306140">
        <ele>1542.2</ele>
        <time>2022-08-15T16:19:45Z</time>
      </trkpt>
      <trkpt lat="3.9784550" lon="-76.4308160">
        <ele>1541.2</ele>
        <time>2022-08-15T16:19:49Z</time>
      </trkpt>
      <trkpt lat="3.9783260" lon="-76.4310470">
        <ele>1540.8</ele>
        <time>2022-08-15T16:19:53Z</time>
      </trkpt>
      <trkpt lat="3.9782470" lon="-76.4311490">
        <ele>1540.6</ele>
        <time>2022-08-15T16:19:55Z</time>
      </trkpt>
      <trkpt lat="3.9781030" lon="-76.4312720">
        <ele>1540.0</ele>
        <time>2022-08-15T16:19:58Z</time>
      </trkpt>
      <trkpt lat="3.9779230" lon="-76.4314130">
        <ele>1539.2</ele>
        <time>2022-08-15T16:20:02Z</time>
      </trkpt>
      <trkpt lat="3.9778900" lon="-76.4314490">
        <ele>1539.0</ele>
        <time>2022-08-15T16:20:03Z</time>
      </trkpt>
      <trkpt lat="3.9778630" lon="-76.4314880">
        <ele>1538.8</ele>
        <time>2022-08-15T16:20:04Z</time>
      </trkpt>
      <trkpt lat="3.9778020" lon="-76.4316210">
        <ele>1538.8</ele>
        <time>2022-08-15T16:20:07Z</time>
      </trkpt>
      <trkpt lat="3.9777420" lon="-76.4317580">
        <ele>1538.8</ele>
        <time>2022-08-15T16:20:10Z</time>
      </trkpt>
      <trkpt lat="3.9776830" lon="-76.4318930">
        <ele>1538.8</ele>
        <time>2022-08-15T16:20:13Z</time>
      </trkpt>
      <trkpt lat="3.9776740" lon="-76.4319400">
        <ele>1538.8</ele>
        <time>2022-08-15T16:20:14Z</time>
      </trkpt>
      <trkpt lat="3.9776540" lon="-76.4321960">
        <ele>1538.8</ele>
        <time>2022-08-15T16:20:19Z</time>
      </trkpt>
      <trkpt lat="3.9776400" lon="-76.4322480">
        <ele>1538.8</ele>
        <time>2022-08-15T16:20:20Z</time>
      </trkpt>
      <trkpt lat="3.9776250" lon="-76.4322960">
        <ele>1538.8</ele>
        <time>2022-08-15T16:20:21Z</time>
      </trkpt>
      <trkpt lat="3.9775460" lon="-76.4324170">
        <ele>1538.8</ele>
        <time>2022-08-15T16:20:24Z</time>
      </trkpt>
      <trkpt lat="3.9774700" lon="-76.4325290">
        <ele>1538.8</ele>
        <time>2022-08-15T16:20:27Z</time>
      </trkpt>
      <trkpt lat="3.9774420" lon="-76.4326160">
        <ele>1539.0</ele>
        <time>2022-08-15T16:20:29Z</time>
      </trkpt>
      <trkpt lat="3.9774420" lon="-76.4326980">
        <ele>1539.0</ele>
        <time>2022-08-15T16:20:31Z</time>
      </trkpt>
      <trkpt lat="3.9774630" lon="-76.4327640">
        <ele>1539.0</ele>
        <time>2022-08-15T16:20:33Z</time>
      </trkpt>
      <trkpt lat="3.9775410" lon="-76.4329360">
        <ele>1539.4</ele>
        <time>2022-08-15T16:20:39Z</time>
      </trkpt>
      <trkpt lat="3.9776500" lon="-76.4330750">
        <ele>1540.2</ele>
        <time>2022-08-15T16:20:44Z</time>
      </trkpt>
      <trkpt lat="3.9776680" lon="-76.4331060">
        <ele>1540.4</ele>
        <time>2022-08-15T16:20:45Z</time>
      </trkpt>
      <trkpt lat="3.9776940" lon="-76.4331700">
        <ele>1540.6</ele>
        <time>2022-08-15T16:20:47Z</time>
      </trkpt>
      <trkpt lat="3.9777190" lon="-76.4332650">
        <ele>1540.6</ele>
        <time>2022-08-15T16:20:50Z</time>
      </trkpt>
      <trkpt lat="3.9777310" lon="-76.4335020">
        <ele>1541.0</ele>
        <time>2022-08-15T16:20:57Z</time>
      </trkpt>
      <trkpt lat="3.9777290" lon="-76.4336910">
        <ele>1540.8</ele>
        <time>2022-08-15T16:21:03Z</time>
      </trkpt>
      <trkpt lat="3.9777330" lon="-76.4338840">
        <ele>1541.0</ele>
        <time>2022-08-15T16:21:09Z</time>
      </trkpt>
      <trkpt lat="3.9777190" lon="-76.4341180">
        <ele>1541.6</ele>
        <time>2022-08-15T16:21:16Z</time>
      </trkpt>
      <trkpt lat="3.9777090" lon="-76.4341480">
        <ele>1541.6</ele>
        <time>2022-08-15T16:21:17Z</time>
      </trkpt>
      <trkpt lat="3.9776790" lon="-76.4342510">
        <ele>1541.8</ele>
        <time>2022-08-15T16:21:21Z</time>
      </trkpt>
      <trkpt lat="3.9776620" lon="-76.4342730">
        <ele>1542.0</ele>
        <time>2022-08-15T16:21:22Z</time>
      </trkpt>
      <trkpt lat="3.9775610" lon="-76.4344350">
        <ele>1542.4</ele>
        <time>2022-08-15T16:21:28Z</time>
      </trkpt>
      <trkpt lat="3.9775000" lon="-76.4346570">
        <ele>1543.0</ele>
        <time>2022-08-15T16:21:35Z</time>
      </trkpt>
      <trkpt lat="3.9774860" lon="-76.4349450">
        <ele>1544.0</ele>
        <time>2022-08-15T16:21:44Z</time>
      </trkpt>
      <trkpt lat="3.9774820" lon="-76.4350100">
        <ele>1544.2</ele>
        <time>2022-08-15T16:21:46Z</time>
      </trkpt>
      <trkpt lat="3.9774750" lon="-76.4351730">
        <ele>1545.0</ele>
        <time>2022-08-15T16:21:51Z</time>
      </trkpt>
      <trkpt lat="3.9774740" lon="-76.4352680">
        <ele>1545.4</ele>
        <time>2022-08-15T16:21:54Z</time>
      </trkpt>
      <trkpt lat="3.9774650" lon="-76.4354380">
        <ele>1546.2</ele>
        <time>2022-08-15T16:22:00Z</time>
      </trkpt>
      <trkpt lat="3.9774500" lon="-76.4355170">
        <ele>1546.8</ele>
        <time>2022-08-15T16:22:03Z</time>
      </trkpt>
      <trkpt lat="3.9774120" lon="-76.4356080">
        <ele>1547.2</ele>
        <time>2022-08-15T16:22:07Z</time>
      </trkpt>
      <trkpt lat="3.9773510" lon="-76.4356860">
        <ele>1547.8</ele>
        <time>2022-08-15T16:22:11Z</time>
      </trkpt>
      <trkpt lat="3.9773410" lon="-76.4357040">
        <ele>1548.0</ele>
        <time>2022-08-15T16:22:12Z</time>
      </trkpt>
      <trkpt lat="3.9773230" lon="-76.4357400">
        <ele>1548.2</ele>
        <time>2022-08-15T16:22:14Z</time>
      </trkpt>
      <trkpt lat="3.9772660" lon="-76.4358200">
        <ele>1549.0</ele>
        <time>2022-08-15T16:22:19Z</time>
      </trkpt>
      <trkpt lat="3.9772260" lon="-76.4358630">
        <ele>1549.4</ele>
        <time>2022-08-15T16:22:22Z</time>
      </trkpt>
      <trkpt lat="3.9771700" lon="-76.4358960">
        <ele>1550.0</ele>
        <time>2022-08-15T16:22:25Z</time>
      </trkpt>
      <trkpt lat="3.9770670" lon="-76.4359400">
        <ele>1550.8</ele>
        <time>2022-08-15T16:22:30Z</time>
      </trkpt>
      <trkpt lat="3.9769830" lon="-76.4359610">
        <ele>1551.4</ele>
        <time>2022-08-15T16:22:33Z</time>
      </trkpt>
      <trkpt lat="3.9769050" lon="-76.4359800">
        <ele>1551.6</ele>
        <time>2022-08-15T16:22:35Z</time>
      </trkpt>
      <trkpt lat="3.9766780" lon="-76.4360430">
        <ele>1551.6</ele>
        <time>2022-08-15T16:22:39Z</time>
      </trkpt>
      <trkpt lat="3.9763130" lon="-76.4361100">
        <ele>1550.2</ele>
        <time>2022-08-15T16:22:45Z</time>
      </trkpt>
      <trkpt lat="3.9762080" lon="-76.4361170">
        <ele>1549.6</ele>
        <time>2022-08-15T16:22:47Z</time>
      </trkpt>
      <trkpt lat="3.9761650" lon="-76.4361160">
        <ele>1548.8</ele>
        <time>2022-08-15T16:22:48Z</time>
      </trkpt>
      <trkpt lat="3.9760000" lon="-76.4361050">
        <ele>1547.6</ele>
        <time>2022-08-15T16:22:51Z</time>
      </trkpt>
      <trkpt lat="3.9758350" lon="-76.4361160">
        <ele>1546.6</ele>
        <time>2022-08-15T16:22:54Z</time>
      </trkpt>
      <trkpt lat="3.9756670" lon="-76.4361570">
        <ele>1546.2</ele>
        <time>2022-08-15T16:22:57Z</time>
      </trkpt>
      <trkpt lat="3.9756210" lon="-76.4361720">
        <ele>1546.2</ele>
        <time>2022-08-15T16:22:58Z</time>
      </trkpt>
      <trkpt lat="3.9754240" lon="-76.4362590">
        <ele>1546.0</ele>
        <time>2022-08-15T16:23:01Z</time>
      </trkpt>
      <trkpt lat="3.9753660" lon="-76.4362900">
        <ele>1545.8</ele>
        <time>2022-08-15T16:23:02Z</time>
      </trkpt>
      <trkpt lat="3.9752080" lon="-76.4363920">
        <ele>1545.6</ele>
        <time>2022-08-15T16:23:05Z</time>
      </trkpt>
      <trkpt lat="3.9751160" lon="-76.4364630">
        <ele>1545.2</ele>
        <time>2022-08-15T16:23:07Z</time>
      </trkpt>
      <trkpt lat="3.9750060" lon="-76.4365480">
        <ele>1544.2</ele>
        <time>2022-08-15T16:23:09Z</time>
      </trkpt>
      <trkpt lat="3.9748310" lon="-76.4366780">
        <ele>1542.8</ele>
        <time>2022-08-15T16:23:12Z</time>
      </trkpt>
      <trkpt lat="3.9746970" lon="-76.4367510">
        <ele>1541.4</ele>
        <time>2022-08-15T16:23:14Z</time>
      </trkpt>
      <trkpt lat="3.9745400" lon="-76.4368180">
        <ele>1540.2</ele>
        <time>2022-08-15T16:23:16Z</time>
      </trkpt>
      <trkpt lat="3.9744600" lon="-76.4368510">
        <ele>1539.0</ele>
        <time>2022-08-15T16:23:17Z</time>
      </trkpt>
      <trkpt lat="3.9743890" lon="-76.4368870">
        <ele>1537.8</ele>
        <time>2022-08-15T16:23:18Z</time>
      </trkpt>
      <trkpt lat="3.9743360" lon="-76.4369170">
        <ele>1536.8</ele>
        <time>2022-08-15T16:23:19Z</time>
      </trkpt>
      <trkpt lat="3.9741950" lon="-76.4369920">
        <ele>1535.4</ele>
        <time>2022-08-15T16:23:21Z</time>
      </trkpt>
      <trkpt lat="3.9741400" lon="-76.4370120">
        <ele>1534.2</ele>
        <time>2022-08-15T16:23:22Z</time>
      </trkpt>
      <trkpt lat="3.9740650" lon="-76.4370320">
        <ele>1532.6</ele>
        <time>2022-08-15T16:23:23Z</time>
      </trkpt>
      <trkpt lat="3.9739860" lon="-76.4370440">
        <ele>1531.6</ele>
        <time>2022-08-15T16:23:24Z</time>
      </trkpt>
      <trkpt lat="3.9738910" lon="-76.4370560">
        <ele>1530.8</ele>
        <time>2022-08-15T16:23:25Z</time>
      </trkpt>
      <trkpt lat="3.9738130" lon="-76.4370620">
        <ele>1530.0</ele>
        <time>2022-08-15T16:23:26Z</time>
      </trkpt>
      <trkpt lat="3.9737520" lon="-76.4370680">
        <ele>1529.6</ele>
        <time>2022-08-15T16:23:27Z</time>
      </trkpt>
      <trkpt lat="3.9736100" lon="-76.4370870">
        <ele>1528.4</ele>
        <time>2022-08-15T16:23:29Z</time>
      </trkpt>
      <trkpt lat="3.9734930" lon="-76.4371140">
        <ele>1527.2</ele>
        <time>2022-08-15T16:23:31Z</time>
      </trkpt>
      <trkpt lat="3.9733790" lon="-76.4371540">
        <ele>1525.4</ele>
        <time>2022-08-15T16:23:33Z</time>
      </trkpt>
      <trkpt lat="3.9732640" lon="-76.4372390">
        <ele>1523.8</ele>
        <time>2022-08-15T16:23:35Z</time>
      </trkpt>
      <trkpt lat="3.9732060" lon="-76.4373530">
        <ele>1522.8</ele>
        <time>2022-08-15T16:23:37Z</time>
      </trkpt>
      <trkpt lat="3.9731860" lon="-76.4374240">
        <ele>1522.2</ele>
        <time>2022-08-15T16:23:38Z</time>
      </trkpt>
      <trkpt lat="3.9731600" lon="-76.4375030">
        <ele>1521.6</ele>
        <time>2022-08-15T16:23:39Z</time>
      </trkpt>
      <trkpt lat="3.9731330" lon="-76.4375650">
        <ele>1520.8</ele>
        <time>2022-08-15T16:23:40Z</time>
      </trkpt>
      <trkpt lat="3.9730950" lon="-76.4376280">
        <ele>1520.6</ele>
        <time>2022-08-15T16:23:41Z</time>
      </trkpt>
      <trkpt lat="3.9730620" lon="-76.4376800">
        <ele>1520.0</ele>
        <time>2022-08-15T16:23:42Z</time>
      </trkpt>
      <trkpt lat="3.9730110" lon="-76.4377610">
        <ele>1519.6</ele>
        <time>2022-08-15T16:23:43Z</time>
      </trkpt>
      <trkpt lat="3.9729230" lon="-76.4379050">
        <ele>1518.4</ele>
        <time>2022-08-15T16:23:45Z</time>
      </trkpt>
      <trkpt lat="3.9728560" lon="-76.4380300">
        <ele>1516.8</ele>
        <time>2022-08-15T16:23:47Z</time>
      </trkpt>
      <trkpt lat="3.9728220" lon="-76.4380910">
        <ele>1516.0</ele>
        <time>2022-08-15T16:23:48Z</time>
      </trkpt>
      <trkpt lat="3.9727800" lon="-76.4381540">
        <ele>1515.2</ele>
        <time>2022-08-15T16:23:49Z</time>
      </trkpt>
      <trkpt lat="3.9727060" lon="-76.4382500">
        <ele>1513.8</ele>
        <time>2022-08-15T16:23:51Z</time>
      </trkpt>
      <trkpt lat="3.9726690" lon="-76.4382870">
        <ele>1513.0</ele>
        <time>2022-08-15T16:23:52Z</time>
      </trkpt>
      <trkpt lat="3.9726170" lon="-76.4383270">
        <ele>1512.8</ele>
        <time>2022-08-15T16:23:53Z</time>
      </trkpt>
      <trkpt lat="3.9724140" lon="-76.4384410">
        <ele>1511.6</ele>
        <time>2022-08-15T16:23:56Z</time>
      </trkpt>
      <trkpt lat="3.9722260" lon="-76.4385580">
        <ele>1510.4</ele>
        <time>2022-08-15T16:23:59Z</time>
      </trkpt>
      <trkpt lat="3.9721210" lon="-76.4386490">
        <ele>1510.0</ele>
        <time>2022-08-15T16:24:01Z</time>
      </trkpt>
      <trkpt lat="3.9720760" lon="-76.4387000">
        <ele>1509.6</ele>
        <time>2022-08-15T16:24:02Z</time>
      </trkpt>
      <trkpt lat="3.9720380" lon="-76.4387530">
        <ele>1509.4</ele>
        <time>2022-08-15T16:24:03Z</time>
      </trkpt>
      <trkpt lat="3.9719780" lon="-76.4388570">
        <ele>1508.2</ele>
        <time>2022-08-15T16:24:05Z</time>
      </trkpt>
      <trkpt lat="3.9719530" lon="-76.4389090">
        <ele>1507.8</ele>
        <time>2022-08-15T16:24:06Z</time>
      </trkpt>
      <trkpt lat="3.9718760" lon="-76.4390860">
        <ele>1507.6</ele>
        <time>2022-08-15T16:24:10Z</time>
      </trkpt>
      <trkpt lat="3.9718640" lon="-76.4391200">
        <ele>1507.6</ele>
        <time>2022-08-15T16:24:11Z</time>
      </trkpt>
      <trkpt lat="3.9718210" lon="-76.4392140">
        <ele>1507.6</ele>
        <time>2022-08-15T16:24:14Z</time>
      </trkpt>
      <trkpt lat="3.9717750" lon="-76.4392880">
        <ele>1508.2</ele>
        <time>2022-08-15T16:24:17Z</time>
      </trkpt>
      <trkpt lat="3.9716960" lon="-76.4393690">
        <ele>1509.4</ele>
        <time>2022-08-15T16:24:21Z</time>
      </trkpt>
      <trkpt lat="3.9716470" lon="-76.4393920">
        <ele>1510.2</ele>
        <time>2022-08-15T16:24:23Z</time>
      </trkpt>
      <trkpt lat="3.9716180" lon="-76.4393970">
        <ele>1510.6</ele>
        <time>2022-08-15T16:24:24Z</time>
      </trkpt>
      <trkpt lat="3.9714870" lon="-76.4393700">
        <ele>1511.4</ele>
        <time>2022-08-15T16:24:28Z</time>
      </trkpt>
      <trkpt lat="3.9712860" lon="-76.4393220">
        <ele>1511.4</ele>
        <time>2022-08-15T16:24:33Z</time>
      </trkpt>
      <trkpt lat="3.9712350" lon="-76.4393240">
        <ele>1511.4</ele>
        <time>2022-08-15T16:24:34Z</time>
      </trkpt>
      <trkpt lat="3.9711830" lon="-76.4393300">
        <ele>1511.4</ele>
        <time>2022-08-15T16:24:35Z</time>
      </trkpt>
      <trkpt lat="3.9710200" lon="-76.4393710">
        <ele>1511.4</ele>
        <time>2022-08-15T16:24:38Z</time>
      </trkpt>
      <trkpt lat="3.9709630" lon="-76.4393820">
        <ele>1511.4</ele>
        <time>2022-08-15T16:24:39Z</time>
      </trkpt>
      <trkpt lat="3.9709060" lon="-76.4393900">
        <ele>1511.2</ele>
        <time>2022-08-15T16:24:40Z</time>
      </trkpt>
      <trkpt lat="3.9707270" lon="-76.4393700">
        <ele>1510.6</ele>
        <time>2022-08-15T16:24:43Z</time>
      </trkpt>
      <trkpt lat="3.9706620" lon="-76.4393510">
        <ele>1510.4</ele>
        <time>2022-08-15T16:24:44Z</time>
      </trkpt>
      <trkpt lat="3.9705470" lon="-76.4393090">
        <ele>1509.6</ele>
        <time>2022-08-15T16:24:46Z</time>
      </trkpt>
      <trkpt lat="3.9704170" lon="-76.4392690">
        <ele>1509.0</ele>
        <time>2022-08-15T16:24:48Z</time>
      </trkpt>
      <trkpt lat="3.9702900" lon="-76.4392640">
        <ele>1508.8</ele>
        <time>2022-08-15T16:24:50Z</time>
      </trkpt>
      <trkpt lat="3.9702350" lon="-76.4392730">
        <ele>1508.4</ele>
        <time>2022-08-15T16:24:51Z</time>
      </trkpt>
      <trkpt lat="3.9700840" lon="-76.4393140">
        <ele>1507.2</ele>
        <time>2022-08-15T16:24:53Z</time>
      </trkpt>
      <trkpt lat="3.9700210" lon="-76.4393370">
        <ele>1506.6</ele>
        <time>2022-08-15T16:24:54Z</time>
      </trkpt>
      <trkpt lat="3.9699620" lon="-76.4393640">
        <ele>1506.2</ele>
        <time>2022-08-15T16:24:55Z</time>
      </trkpt>
      <trkpt lat="3.9699210" lon="-76.4393870">
        <ele>1505.8</ele>
        <time>2022-08-15T16:24:56Z</time>
      </trkpt>
      <trkpt lat="3.9698760" lon="-76.4394220">
        <ele>1505.6</ele>
        <time>2022-08-15T16:24:57Z</time>
      </trkpt>
      <trkpt lat="3.9698360" lon="-76.4394610">
        <ele>1505.0</ele>
        <time>2022-08-15T16:24:58Z</time>
      </trkpt>
      <trkpt lat="3.9697530" lon="-76.4395590">
        <ele>1503.0</ele>
        <time>2022-08-15T16:25:00Z</time>
      </trkpt>
      <trkpt lat="3.9697120" lon="-76.4396010">
        <ele>1502.2</ele>
        <time>2022-08-15T16:25:01Z</time>
      </trkpt>
      <trkpt lat="3.9696820" lon="-76.4396360">
        <ele>1502.0</ele>
        <time>2022-08-15T16:25:02Z</time>
      </trkpt>
      <trkpt lat="3.9696410" lon="-76.4396750">
        <ele>1501.8</ele>
        <time>2022-08-15T16:25:03Z</time>
      </trkpt>
      <trkpt lat="3.9695120" lon="-76.4397800">
        <ele>1501.4</ele>
        <time>2022-08-15T16:25:06Z</time>
      </trkpt>
      <trkpt lat="3.9692610" lon="-76.4399280">
        <ele>1501.4</ele>
        <time>2022-08-15T16:25:11Z</time>
      </trkpt>
      <trkpt lat="3.9692170" lon="-76.4399490">
        <ele>1501.4</ele>
        <time>2022-08-15T16:25:12Z</time>
      </trkpt>
      <trkpt lat="3.9689540" lon="-76.4401110">
        <ele>1501.4</ele>
        <time>2022-08-15T16:25:17Z</time>
      </trkpt>
      <trkpt lat="3.9689080" lon="-76.4401520">
        <ele>1501.4</ele>
        <time>2022-08-15T16:25:18Z</time>
      </trkpt>
      <trkpt lat="3.9687660" lon="-76.4402820">
        <ele>1501.0</ele>
        <time>2022-08-15T16:25:21Z</time>
      </trkpt>
      <trkpt lat="3.9686100" lon="-76.4404610">
        <ele>1500.4</ele>
        <time>2022-08-15T16:25:25Z</time>
      </trkpt>
      <trkpt lat="3.9684080" lon="-76.4406410">
        <ele>1500.0</ele>
        <time>2022-08-15T16:25:30Z</time>
      </trkpt>
      <trkpt lat="3.9683220" lon="-76.4407280">
        <ele>1500.2</ele>
        <time>2022-08-15T16:25:33Z</time>
      </trkpt>
      <trkpt lat="3.9682860" lon="-76.4407620">
        <ele>1500.2</ele>
        <time>2022-08-15T16:25:34Z</time>
      </trkpt>
      <trkpt lat="3.9682230" lon="-76.4408120">
        <ele>1500.2</ele>
        <time>2022-08-15T16:25:36Z</time>
      </trkpt>
      <trkpt lat="3.9681920" lon="-76.4408390">
        <ele>1500.2</ele>
        <time>2022-08-15T16:25:37Z</time>
      </trkpt>
      <trkpt lat="3.9681470" lon="-76.4409120">
        <ele>1500.2</ele>
        <time>2022-08-15T16:25:39Z</time>
      </trkpt>
      <trkpt lat="3.9681420" lon="-76.4409580">
        <ele>1500.2</ele>
        <time>2022-08-15T16:25:40Z</time>
      </trkpt>
      <trkpt lat="3.9681410" lon="-76.4410050">
        <ele>1500.2</ele>
        <time>2022-08-15T16:25:41Z</time>
      </trkpt>
      <trkpt lat="3.9681580" lon="-76.4410940">
        <ele>1500.2</ele>
        <time>2022-08-15T16:25:43Z</time>
      </trkpt>
      <trkpt lat="3.9681760" lon="-76.4411430">
        <ele>1500.2</ele>
        <time>2022-08-15T16:25:44Z</time>
      </trkpt>
      <trkpt lat="3.9682230" lon="-76.4412400">
        <ele>1500.2</ele>
        <time>2022-08-15T16:25:46Z</time>
      </trkpt>
      <trkpt lat="3.9682630" lon="-76.4413250">
        <ele>1500.0</ele>
        <time>2022-08-15T16:25:48Z</time>
      </trkpt>
      <trkpt lat="3.9682770" lon="-76.4413860">
        <ele>1500.0</ele>
        <time>2022-08-15T16:25:49Z</time>
      </trkpt>
      <trkpt lat="3.9683190" lon="-76.4415730">
        <ele>1499.6</ele>
        <time>2022-08-15T16:25:53Z</time>
      </trkpt>
      <trkpt lat="3.9683280" lon="-76.4416900">
        <ele>1499.4</ele>
        <time>2022-08-15T16:25:55Z</time>
      </trkpt>
      <trkpt lat="3.9683190" lon="-76.4419630">
        <ele>1499.4</ele>
        <time>2022-08-15T16:26:01Z</time>
      </trkpt>
      <trkpt lat="3.9683110" lon="-76.4420040">
        <ele>1499.4</ele>
        <time>2022-08-15T16:26:02Z</time>
      </trkpt>
      <trkpt lat="3.9682710" lon="-76.4422090">
        <ele>1499.4</ele>
        <time>2022-08-15T16:26:08Z</time>
      </trkpt>
      <trkpt lat="3.9682770" lon="-76.4423650">
        <ele>1500.6</ele>
        <time>2022-08-15T16:26:14Z</time>
      </trkpt>
      <trkpt lat="3.9682890" lon="-76.4424940">
        <ele>1501.8</ele>
        <time>2022-08-15T16:26:19Z</time>
      </trkpt>
      <trkpt lat="3.9683000" lon="-76.4425350">
        <ele>1502.4</ele>
        <time>2022-08-15T16:26:21Z</time>
      </trkpt>
      <trkpt lat="3.9683090" lon="-76.4425760">
        <ele>1503.0</ele>
        <time>2022-08-15T16:26:23Z</time>
      </trkpt>
      <trkpt lat="3.9683340" lon="-76.4426800">
        <ele>1504.0</ele>
        <time>2022-08-15T16:26:27Z</time>
      </trkpt>
      <trkpt lat="3.9683450" lon="-76.4427260">
        <ele>1504.6</ele>
        <time>2022-08-15T16:26:29Z</time>
      </trkpt>
      <trkpt lat="3.9683550" lon="-76.4427800">
        <ele>1505.0</ele>
        <time>2022-08-15T16:26:31Z</time>
      </trkpt>
      <trkpt lat="3.9683670" lon="-76.4428910">
        <ele>1506.0</ele>
        <time>2022-08-15T16:26:35Z</time>
      </trkpt>
      <trkpt lat="3.9683750" lon="-76.4429490">
        <ele>1506.8</ele>
        <time>2022-08-15T16:26:37Z</time>
      </trkpt>
      <trkpt lat="3.9683790" lon="-76.4430420">
        <ele>1507.4</ele>
        <time>2022-08-15T16:26:40Z</time>
      </trkpt>
      <trkpt lat="3.9683880" lon="-76.4431320">
        <ele>1507.8</ele>
        <time>2022-08-15T16:26:43Z</time>
      </trkpt>
      <trkpt lat="3.9683970" lon="-76.4432470">
        <ele>1508.4</ele>
        <time>2022-08-15T16:26:47Z</time>
      </trkpt>
      <trkpt lat="3.9683960" lon="-76.4433450">
        <ele>1508.8</ele>
        <time>2022-08-15T16:26:50Z</time>
      </trkpt>
      <trkpt lat="3.9683560" lon="-76.4435230">
        <ele>1509.4</ele>
        <time>2022-08-15T16:26:55Z</time>
      </trkpt>
      <trkpt lat="3.9683370" lon="-76.4435680">
        <ele>1509.4</ele>
        <time>2022-08-15T16:26:56Z</time>
      </trkpt>
      <trkpt lat="3.9682860" lon="-76.4436750">
        <ele>1509.4</ele>
        <time>2022-08-15T16:26:58Z</time>
      </trkpt>
      <trkpt lat="3.9682160" lon="-76.4437690">
        <ele>1509.4</ele>
        <time>2022-08-15T16:27:00Z</time>
      </trkpt>
      <trkpt lat="3.9680210" lon="-76.4440060">
        <ele>1508.8</ele>
        <time>2022-08-15T16:27:05Z</time>
      </trkpt>
      <trkpt lat="3.9679520" lon="-76.4440940">
        <ele>1507.4</ele>
        <time>2022-08-15T16:27:07Z</time>
      </trkpt>
      <trkpt lat="3.9679000" lon="-76.4441580">
        <ele>1507.0</ele>
        <time>2022-08-15T16:27:08Z</time>
      </trkpt>
      <trkpt lat="3.9676990" lon="-76.4443920">
        <ele>1506.0</ele>
        <time>2022-08-15T16:27:12Z</time>
      </trkpt>
      <trkpt lat="3.9675350" lon="-76.4445610">
        <ele>1504.8</ele>
        <time>2022-08-15T16:27:15Z</time>
      </trkpt>
      <trkpt lat="3.9674460" lon="-76.4446690">
        <ele>1503.2</ele>
        <time>2022-08-15T16:27:17Z</time>
      </trkpt>
      <trkpt lat="3.9673530" lon="-76.4448090">
        <ele>1502.0</ele>
        <time>2022-08-15T16:27:19Z</time>
      </trkpt>
      <trkpt lat="3.9672420" lon="-76.4449870">
        <ele>1500.8</ele>
        <time>2022-08-15T16:27:22Z</time>
      </trkpt>
      <trkpt lat="3.9671990" lon="-76.4450540">
        <ele>1500.2</ele>
        <time>2022-08-15T16:27:23Z</time>
      </trkpt>
      <trkpt lat="3.9671740" lon="-76.4451090">
        <ele>1499.4</ele>
        <time>2022-08-15T16:27:24Z</time>
      </trkpt>
      <trkpt lat="3.9671440" lon="-76.4451980">
        <ele>1498.8</ele>
        <time>2022-08-15T16:27:26Z</time>
      </trkpt>
      <trkpt lat="3.9671360" lon="-76.4452550">
        <ele>1498.8</ele>
        <time>2022-08-15T16:27:28Z</time>
      </trkpt>
      <trkpt lat="3.9671370" lon="-76.4452680">
        <ele>1498.8</ele>
        <time>2022-08-15T16:27:32Z</time>
      </trkpt>
      <trkpt lat="3.9671370" lon="-76.4452680">
        <ele>1499.2</ele>
        <time>2022-08-15T16:27:36Z</time>
      </trkpt>
      <trkpt lat="3.9671370" lon="-76.4452680">
        <ele>1499.8</ele>
        <time>2022-08-15T16:27:39Z</time>
      </trkpt>
      <trkpt lat="3.9671370" lon="-76.4452680">
        <ele>1500.0</ele>
        <time>2022-08-15T16:27:43Z</time>
      </trkpt>
      <trkpt lat="3.9671370" lon="-76.4452680">
        <ele>1500.0</ele>
        <time>2022-08-15T16:27:49Z</time>
      </trkpt>
      <trkpt lat="3.9671380" lon="-76.4453040">
        <ele>1500.0</ele>
        <time>2022-08-15T16:28:04Z</time>
      </trkpt>
      <trkpt lat="3.9671410" lon="-76.4453180">
        <ele>1500.0</ele>
        <time>2022-08-15T16:28:05Z</time>
      </trkpt>
      <trkpt lat="3.9671430" lon="-76.4453810">
        <ele>1500.2</ele>
        <time>2022-08-15T16:28:09Z</time>
      </trkpt>
      <trkpt lat="3.9671390" lon="-76.4454030">
        <ele>1500.2</ele>
        <time>2022-08-15T16:28:11Z</time>
      </trkpt>
      <trkpt lat="3.9671500" lon="-76.4454750">
        <ele>1500.8</ele>
        <time>2022-08-15T16:28:16Z</time>
      </trkpt>
      <trkpt lat="3.9671550" lon="-76.4455400">
        <ele>1501.2</ele>
        <time>2022-08-15T16:28:19Z</time>
      </trkpt>
      <trkpt lat="3.9671960" lon="-76.4457300">
        <ele>1502.0</ele>
        <time>2022-08-15T16:28:27Z</time>
      </trkpt>
      <trkpt lat="3.9672020" lon="-76.4457580">
        <ele>1502.2</ele>
        <time>2022-08-15T16:28:28Z</time>
      </trkpt>
      <trkpt lat="3.9672200" lon="-76.4459510">
        <ele>1502.8</ele>
        <time>2022-08-15T16:28:35Z</time>
      </trkpt>
      <trkpt lat="3.9672310" lon="-76.4460770">
        <ele>1503.2</ele>
        <time>2022-08-15T16:28:39Z</time>
      </trkpt>
      <trkpt lat="3.9672290" lon="-76.4461550">
        <ele>1503.4</ele>
        <time>2022-08-15T16:28:41Z</time>
      </trkpt>
      <trkpt lat="3.9672320" lon="-76.4462000">
        <ele>1503.4</ele>
        <time>2022-08-15T16:28:42Z</time>
      </trkpt>
      <trkpt lat="3.9672360" lon="-76.4464170">
        <ele>1503.2</ele>
        <time>2022-08-15T16:28:46Z</time>
      </trkpt>
      <trkpt lat="3.9672180" lon="-76.4467050">
        <ele>1502.0</ele>
        <time>2022-08-15T16:28:51Z</time>
      </trkpt>
      <trkpt lat="3.9672100" lon="-76.4468050">
        <ele>1501.2</ele>
        <time>2022-08-15T16:28:53Z</time>
      </trkpt>
      <trkpt lat="3.9672080" lon="-76.4468550">
        <ele>1500.8</ele>
        <time>2022-08-15T16:28:54Z</time>
      </trkpt>
      <trkpt lat="3.9671990" lon="-76.4470100">
        <ele>1499.6</ele>
        <time>2022-08-15T16:28:57Z</time>
      </trkpt>
      <trkpt lat="3.9671970" lon="-76.4473970">
        <ele>1498.6</ele>
        <time>2022-08-15T16:29:04Z</time>
      </trkpt>
      <trkpt lat="3.9672040" lon="-76.4474570">
        <ele>1498.4</ele>
        <time>2022-08-15T16:29:05Z</time>
      </trkpt>
      <trkpt lat="3.9672240" lon="-76.4475770">
        <ele>1497.2</ele>
        <time>2022-08-15T16:29:07Z</time>
      </trkpt>
      <trkpt lat="3.9672850" lon="-76.4478000">
        <ele>1496.0</ele>
        <time>2022-08-15T16:29:11Z</time>
      </trkpt>
      <trkpt lat="3.9672960" lon="-76.4478540">
        <ele>1496.0</ele>
        <time>2022-08-15T16:29:12Z</time>
      </trkpt>
      <trkpt lat="3.9673040" lon="-76.4479630">
        <ele>1495.6</ele>
        <time>2022-08-15T16:29:14Z</time>
      </trkpt>
      <trkpt lat="3.9672980" lon="-76.4480140">
        <ele>1495.4</ele>
        <time>2022-08-15T16:29:15Z</time>
      </trkpt>
      <trkpt lat="3.9672730" lon="-76.4481080">
        <ele>1495.2</ele>
        <time>2022-08-15T16:29:17Z</time>
      </trkpt>
      <trkpt lat="3.9672450" lon="-76.4481870">
        <ele>1495.2</ele>
        <time>2022-08-15T16:29:19Z</time>
      </trkpt>
      <trkpt lat="3.9672070" lon="-76.4483530">
        <ele>1495.2</ele>
        <time>2022-08-15T16:29:23Z</time>
      </trkpt>
      <trkpt lat="3.9672050" lon="-76.4484260">
        <ele>1495.2</ele>
        <time>2022-08-15T16:29:25Z</time>
      </trkpt>
      <trkpt lat="3.9673230" lon="-76.4485730">
        <ele>1496.0</ele>
        <time>2022-08-15T16:29:30Z</time>
      </trkpt>
      <trkpt lat="3.9673880" lon="-76.4486180">
        <ele>1496.0</ele>
        <time>2022-08-15T16:29:32Z</time>
      </trkpt>
      <trkpt lat="3.9674400" lon="-76.4486920">
        <ele>1496.6</ele>
        <time>2022-08-15T16:29:34Z</time>
      </trkpt>
      <trkpt lat="3.9674500" lon="-76.4487240">
        <ele>1496.8</ele>
        <time>2022-08-15T16:29:35Z</time>
      </trkpt>
      <trkpt lat="3.9674490" lon="-76.4487550">
        <ele>1497.0</ele>
        <time>2022-08-15T16:29:36Z</time>
      </trkpt>
      <trkpt lat="3.9674080" lon="-76.4488180">
        <ele>1497.2</ele>
        <time>2022-08-15T16:29:38Z</time>
      </trkpt>
      <trkpt lat="3.9673770" lon="-76.4488420">
        <ele>1497.2</ele>
        <time>2022-08-15T16:29:39Z</time>
      </trkpt>
      <trkpt lat="3.9672650" lon="-76.4488910">
        <ele>1497.4</ele>
        <time>2022-08-15T16:29:42Z</time>
      </trkpt>
      <trkpt lat="3.9670630" lon="-76.4489790">
        <ele>1497.4</ele>
        <time>2022-08-15T16:29:47Z</time>
      </trkpt>
      <trkpt lat="3.9669760" lon="-76.4490060">
        <ele>1497.4</ele>
        <time>2022-08-15T16:29:49Z</time>
      </trkpt>
      <trkpt lat="3.9669350" lon="-76.4490210">
        <ele>1497.6</ele>
        <time>2022-08-15T16:29:50Z</time>
      </trkpt>
      <trkpt lat="3.9666540" lon="-76.4490870">
        <ele>1497.4</ele>
        <time>2022-08-15T16:29:56Z</time>
      </trkpt>
      <trkpt lat="3.9662900" lon="-76.4491850">
        <ele>1497.2</ele>
        <time>2022-08-15T16:30:03Z</time>
      </trkpt>
      <trkpt lat="3.9661750" lon="-76.4492150">
        <ele>1497.0</ele>
        <time>2022-08-15T16:30:05Z</time>
      </trkpt>
      <trkpt lat="3.9659530" lon="-76.4492360">
        <ele>1496.4</ele>
        <time>2022-08-15T16:30:09Z</time>
      </trkpt>
      <trkpt lat="3.9658910" lon="-76.4492350">
        <ele>1496.2</ele>
        <time>2022-08-15T16:30:10Z</time>
      </trkpt>
      <trkpt lat="3.9656300" lon="-76.4492120">
        <ele>1495.4</ele>
        <time>2022-08-15T16:30:14Z</time>
      </trkpt>
      <trkpt lat="3.9655000" lon="-76.4492400">
        <ele>1495.0</ele>
        <time>2022-08-15T16:30:16Z</time>
      </trkpt>
      <trkpt lat="3.9654460" lon="-76.4492740">
        <ele>1494.8</ele>
        <time>2022-08-15T16:30:17Z</time>
      </trkpt>
      <trkpt lat="3.9654100" lon="-76.4493100">
        <ele>1494.6</ele>
        <time>2022-08-15T16:30:18Z</time>
      </trkpt>
      <trkpt lat="3.9653420" lon="-76.4494240">
        <ele>1493.8</ele>
        <time>2022-08-15T16:30:20Z</time>
      </trkpt>
      <trkpt lat="3.9653190" lon="-76.4495440">
        <ele>1492.6</ele>
        <time>2022-08-15T16:30:22Z</time>
      </trkpt>
      <trkpt lat="3.9653140" lon="-76.4496680">
        <ele>1492.0</ele>
        <time>2022-08-15T16:30:24Z</time>
      </trkpt>
      <trkpt lat="3.9653040" lon="-76.4498530">
        <ele>1491.6</ele>
        <time>2022-08-15T16:30:27Z</time>
      </trkpt>
      <trkpt lat="3.9653040" lon="-76.4499100">
        <ele>1491.4</ele>
        <time>2022-08-15T16:30:28Z</time>
      </trkpt>
      <trkpt lat="3.9653160" lon="-76.4499610">
        <ele>1491.2</ele>
        <time>2022-08-15T16:30:29Z</time>
      </trkpt>
      <trkpt lat="3.9653350" lon="-76.4500560">
        <ele>1491.0</ele>
        <time>2022-08-15T16:30:31Z</time>
      </trkpt>
      <trkpt lat="3.9653320" lon="-76.4501490">
        <ele>1491.0</ele>
        <time>2022-08-15T16:30:33Z</time>
      </trkpt>
      <trkpt lat="3.9653310" lon="-76.4501960">
        <ele>1491.0</ele>
        <time>2022-08-15T16:30:34Z</time>
      </trkpt>
      <trkpt lat="3.9653480" lon="-76.4503920">
        <ele>1490.8</ele>
        <time>2022-08-15T16:30:38Z</time>
      </trkpt>
      <trkpt lat="3.9653650" lon="-76.4505380">
        <ele>1491.0</ele>
        <time>2022-08-15T16:30:41Z</time>
      </trkpt>
      <trkpt lat="3.9653770" lon="-76.4506850">
        <ele>1490.6</ele>
        <time>2022-08-15T16:30:44Z</time>
      </trkpt>
      <trkpt lat="3.9653760" lon="-76.4507350">
        <ele>1490.6</ele>
        <time>2022-08-15T16:30:45Z</time>
      </trkpt>
      <trkpt lat="3.9653670" lon="-76.4508350">
        <ele>1490.6</ele>
        <time>2022-08-15T16:30:47Z</time>
      </trkpt>
      <trkpt lat="3.9653240" lon="-76.4510420">
        <ele>1490.0</ele>
        <time>2022-08-15T16:30:51Z</time>
      </trkpt>
      <trkpt lat="3.9653040" lon="-76.4512080">
        <ele>1489.6</ele>
        <time>2022-08-15T16:30:54Z</time>
      </trkpt>
      <trkpt lat="3.9652530" lon="-76.4513090">
        <ele>1489.4</ele>
        <time>2022-08-15T16:30:56Z</time>
      </trkpt>
      <trkpt lat="3.9651700" lon="-76.4513850">
        <ele>1489.2</ele>
        <time>2022-08-15T16:30:58Z</time>
      </trkpt>
      <trkpt lat="3.9651190" lon="-76.4514100">
        <ele>1489.2</ele>
        <time>2022-08-15T16:30:59Z</time>
      </trkpt>
      <trkpt lat="3.9649640" lon="-76.4514700">
        <ele>1488.8</ele>
        <time>2022-08-15T16:31:02Z</time>
      </trkpt>
      <trkpt lat="3.9649150" lon="-76.4514980">
        <ele>1488.4</ele>
        <time>2022-08-15T16:31:03Z</time>
      </trkpt>
      <trkpt lat="3.9648700" lon="-76.4515330">
        <ele>1488.4</ele>
        <time>2022-08-15T16:31:04Z</time>
      </trkpt>
      <trkpt lat="3.9648130" lon="-76.4516180">
        <ele>1488.0</ele>
        <time>2022-08-15T16:31:06Z</time>
      </trkpt>
      <trkpt lat="3.9647910" lon="-76.4516850">
        <ele>1488.0</ele>
        <time>2022-08-15T16:31:07Z</time>
      </trkpt>
      <trkpt lat="3.9647660" lon="-76.4518560">
        <ele>1487.8</ele>
        <time>2022-08-15T16:31:10Z</time>
      </trkpt>
      <trkpt lat="3.9647570" lon="-76.4519110">
        <ele>1487.6</ele>
        <time>2022-08-15T16:31:11Z</time>
      </trkpt>
      <trkpt lat="3.9647380" lon="-76.4519620">
        <ele>1487.4</ele>
        <time>2022-08-15T16:31:12Z</time>
      </trkpt>
      <trkpt lat="3.9646250" lon="-76.4521280">
        <ele>1486.6</ele>
        <time>2022-08-15T16:31:16Z</time>
      </trkpt>
      <trkpt lat="3.9645930" lon="-76.4521630">
        <ele>1486.4</ele>
        <time>2022-08-15T16:31:17Z</time>
      </trkpt>
      <trkpt lat="3.9644660" lon="-76.4523220">
        <ele>1486.2</ele>
        <time>2022-08-15T16:31:21Z</time>
      </trkpt>
      <trkpt lat="3.9644180" lon="-76.4524150">
        <ele>1486.0</ele>
        <time>2022-08-15T16:31:23Z</time>
      </trkpt>
      <trkpt lat="3.9643770" lon="-76.4525110">
        <ele>1486.0</ele>
        <time>2022-08-15T16:31:25Z</time>
      </trkpt>
      <trkpt lat="3.9643500" lon="-76.4525970">
        <ele>1485.8</ele>
        <time>2022-08-15T16:31:27Z</time>
      </trkpt>
      <trkpt lat="3.9643250" lon="-76.4526490">
        <ele>1485.8</ele>
        <time>2022-08-15T16:31:28Z</time>
      </trkpt>
      <trkpt lat="3.9642990" lon="-76.4526880">
        <ele>1485.8</ele>
        <time>2022-08-15T16:31:29Z</time>
      </trkpt>
      <trkpt lat="3.9641940" lon="-76.4528310">
        <ele>1485.8</ele>
        <time>2022-08-15T16:31:33Z</time>
      </trkpt>
      <trkpt lat="3.9640930" lon="-76.4529300">
        <ele>1485.8</ele>
        <time>2022-08-15T16:31:36Z</time>
      </trkpt>
      <trkpt lat="3.9640300" lon="-76.4529990">
        <ele>1485.8</ele>
        <time>2022-08-15T16:31:38Z</time>
      </trkpt>
      <trkpt lat="3.9639630" lon="-76.4531180">
        <ele>1485.8</ele>
        <time>2022-08-15T16:31:41Z</time>
      </trkpt>
      <trkpt lat="3.9639230" lon="-76.4531980">
        <ele>1486.0</ele>
        <time>2022-08-15T16:31:43Z</time>
      </trkpt>
      <trkpt lat="3.9638820" lon="-76.4533300">
        <ele>1486.2</ele>
        <time>2022-08-15T16:31:46Z</time>
      </trkpt>
      <trkpt lat="3.9638510" lon="-76.4534180">
        <ele>1486.2</ele>
        <time>2022-08-15T16:31:48Z</time>
      </trkpt>
      <trkpt lat="3.9638140" lon="-76.4534970">
        <ele>1486.2</ele>
        <time>2022-08-15T16:31:50Z</time>
      </trkpt>
      <trkpt lat="3.9637920" lon="-76.4535280">
        <ele>1486.0</ele>
        <time>2022-08-15T16:31:51Z</time>
      </trkpt>
      <trkpt lat="3.9636860" lon="-76.4536100">
        <ele>1486.0</ele>
        <time>2022-08-15T16:31:55Z</time>
      </trkpt>
      <trkpt lat="3.9634980" lon="-76.4537000">
        <ele>1485.8</ele>
        <time>2022-08-15T16:32:00Z</time>
      </trkpt>
      <trkpt lat="3.9631550" lon="-76.4537770">
        <ele>1486.0</ele>
        <time>2022-08-15T16:32:09Z</time>
      </trkpt>
      <trkpt lat="3.9629700" lon="-76.4537630">
        <ele>1486.4</ele>
        <time>2022-08-15T16:32:14Z</time>
      </trkpt>
      <trkpt lat="3.9628070" lon="-76.4537910">
        <ele>1486.6</ele>
        <time>2022-08-15T16:32:18Z</time>
      </trkpt>
      <trkpt lat="3.9627620" lon="-76.4538120">
        <ele>1486.6</ele>
        <time>2022-08-15T16:32:19Z</time>
      </trkpt>
      <trkpt lat="3.9627220" lon="-76.4538390">
        <ele>1486.6</ele>
        <time>2022-08-15T16:32:20Z</time>
      </trkpt>
      <trkpt lat="3.9626600" lon="-76.4539130">
        <ele>1486.6</ele>
        <time>2022-08-15T16:32:22Z</time>
      </trkpt>
      <trkpt lat="3.9626540" lon="-76.4539590">
        <ele>1486.6</ele>
        <time>2022-08-15T16:32:23Z</time>
      </trkpt>
      <trkpt lat="3.9626540" lon="-76.4540040">
        <ele>1486.6</ele>
        <time>2022-08-15T16:32:24Z</time>
      </trkpt>
      <trkpt lat="3.9626840" lon="-76.4541760">
        <ele>1486.6</ele>
        <time>2022-08-15T16:32:28Z</time>
      </trkpt>
      <trkpt lat="3.9628150" lon="-76.4544630">
        <ele>1486.2</ele>
        <time>2022-08-15T16:32:35Z</time>
      </trkpt>
      <trkpt lat="3.9628950" lon="-76.4545380">
        <ele>1486.2</ele>
        <time>2022-08-15T16:32:37Z</time>
      </trkpt>
      <trkpt lat="3.9629890" lon="-76.4545900">
        <ele>1486.2</ele>
        <time>2022-08-15T16:32:39Z</time>
      </trkpt>
      <trkpt lat="3.9630800" lon="-76.4546350">
        <ele>1486.4</ele>
        <time>2022-08-15T16:32:41Z</time>
      </trkpt>
      <trkpt lat="3.9632370" lon="-76.4547620">
        <ele>1486.4</ele>
        <time>2022-08-15T16:32:45Z</time>
      </trkpt>
      <trkpt lat="3.9635790" lon="-76.4551230">
        <ele>1486.8</ele>
        <time>2022-08-15T16:32:54Z</time>
      </trkpt>
      <trkpt lat="3.9637680" lon="-76.4554250">
        <ele>1486.6</ele>
        <time>2022-08-15T16:33:00Z</time>
      </trkpt>
      <trkpt lat="3.9638650" lon="-76.4556180">
        <ele>1486.2</ele>
        <time>2022-08-15T16:33:04Z</time>
      </trkpt>
      <trkpt lat="3.9639810" lon="-76.4558750">
        <ele>1485.8</ele>
        <time>2022-08-15T16:33:09Z</time>
      </trkpt>
      <trkpt lat="3.9642220" lon="-76.4564030">
        <ele>1485.8</ele>
        <time>2022-08-15T16:33:19Z</time>
      </trkpt>
      <trkpt lat="3.9642420" lon="-76.4564440">
        <ele>1485.8</ele>
        <time>2022-08-15T16:33:20Z</time>
      </trkpt>
      <trkpt lat="3.9644150" lon="-76.4567450">
        <ele>1486.2</ele>
        <time>2022-08-15T16:33:26Z</time>
      </trkpt>
      <trkpt lat="3.9646590" lon="-76.4571490">
        <ele>1486.6</ele>
        <time>2022-08-15T16:33:34Z</time>
      </trkpt>
      <trkpt lat="3.9649700" lon="-76.4574550">
        <ele>1486.8</ele>
        <time>2022-08-15T16:33:42Z</time>
      </trkpt>
      <trkpt lat="3.9651410" lon="-76.4576490">
        <ele>1487.4</ele>
        <time>2022-08-15T16:33:47Z</time>
      </trkpt>
      <trkpt lat="3.9652490" lon="-76.4577630">
        <ele>1487.4</ele>
        <time>2022-08-15T16:33:50Z</time>
      </trkpt>
      <trkpt lat="3.9652920" lon="-76.4577950">
        <ele>1487.6</ele>
        <time>2022-08-15T16:33:51Z</time>
      </trkpt>
      <trkpt lat="3.9653330" lon="-76.4578290">
        <ele>1487.8</ele>
        <time>2022-08-15T16:33:52Z</time>
      </trkpt>
      <trkpt lat="3.9657080" lon="-76.4582100">
        <ele>1488.6</ele>
        <time>2022-08-15T16:34:02Z</time>
      </trkpt>
      <trkpt lat="3.9657520" lon="-76.4582540">
        <ele>1488.8</ele>
        <time>2022-08-15T16:34:03Z</time>
      </trkpt>
      <trkpt lat="3.9660770" lon="-76.4585960">
        <ele>1489.4</ele>
        <time>2022-08-15T16:34:12Z</time>
      </trkpt>
      <trkpt lat="3.9661080" lon="-76.4586400">
        <ele>1489.6</ele>
        <time>2022-08-15T16:34:13Z</time>
      </trkpt>
      <trkpt lat="3.9661390" lon="-76.4586960">
        <ele>1490.0</ele>
        <time>2022-08-15T16:34:14Z</time>
      </trkpt>
      <trkpt lat="3.9661770" lon="-76.4588310">
        <ele>1490.4</ele>
        <time>2022-08-15T16:34:17Z</time>
      </trkpt>
      <trkpt lat="3.9661890" lon="-76.4589910">
        <ele>1490.6</ele>
        <time>2022-08-15T16:34:20Z</time>
      </trkpt>
      <trkpt lat="3.9661860" lon="-76.4590370">
        <ele>1490.6</ele>
        <time>2022-08-15T16:34:21Z</time>
      </trkpt>
      <trkpt lat="3.9661790" lon="-76.4590730">
        <ele>1490.6</ele>
        <time>2022-08-15T16:34:22Z</time>
      </trkpt>
      <trkpt lat="3.9661590" lon="-76.4591250">
        <ele>1490.6</ele>
        <time>2022-08-15T16:34:23Z</time>
      </trkpt>
      <trkpt lat="3.9661140" lon="-76.4592020">
        <ele>1490.6</ele>
        <time>2022-08-15T16:34:25Z</time>
      </trkpt>
      <trkpt lat="3.9660670" lon="-76.4592660">
        <ele>1491.0</ele>
        <time>2022-08-15T16:34:27Z</time>
      </trkpt>
      <trkpt lat="3.9660510" lon="-76.4592930">
        <ele>1491.0</ele>
        <time>2022-08-15T16:34:28Z</time>
      </trkpt>
      <trkpt lat="3.9659900" lon="-76.4594130">
        <ele>1491.6</ele>
        <time>2022-08-15T16:34:31Z</time>
      </trkpt>
      <trkpt lat="3.9659680" lon="-76.4594480">
        <ele>1491.6</ele>
        <time>2022-08-15T16:34:32Z</time>
      </trkpt>
      <trkpt lat="3.9659260" lon="-76.4595100">
        <ele>1492.0</ele>
        <time>2022-08-15T16:34:34Z</time>
      </trkpt>
      <trkpt lat="3.9658360" lon="-76.4596510">
        <ele>1493.0</ele>
        <time>2022-08-15T16:34:39Z</time>
      </trkpt>
      <trkpt lat="3.9658210" lon="-76.4596790">
        <ele>1493.2</ele>
        <time>2022-08-15T16:34:40Z</time>
      </trkpt>
      <trkpt lat="3.9657610" lon="-76.4597820">
        <ele>1494.4</ele>
        <time>2022-08-15T16:34:44Z</time>
      </trkpt>
      <trkpt lat="3.9657410" lon="-76.4598320">
        <ele>1495.2</ele>
        <time>2022-08-15T16:34:46Z</time>
      </trkpt>
      <trkpt lat="3.9657080" lon="-76.4599110">
        <ele>1495.4</ele>
        <time>2022-08-15T16:34:49Z</time>
      </trkpt>
      <trkpt lat="3.9656650" lon="-76.4600400">
        <ele>1496.2</ele>
        <time>2022-08-15T16:34:54Z</time>
      </trkpt>
      <trkpt lat="3.9656570" lon="-76.4600660">
        <ele>1496.6</ele>
        <time>2022-08-15T16:34:55Z</time>
      </trkpt>
      <trkpt lat="3.9656050" lon="-76.4602080">
        <ele>1497.6</ele>
        <time>2022-08-15T16:35:01Z</time>
      </trkpt>
      <trkpt lat="3.9655770" lon="-76.4602540">
        <ele>1498.2</ele>
        <time>2022-08-15T16:35:03Z</time>
      </trkpt>
      <trkpt lat="3.9655190" lon="-76.4603150">
        <ele>1498.8</ele>
        <time>2022-08-15T16:35:06Z</time>
      </trkpt>
      <trkpt lat="3.9654020" lon="-76.4603730">
        <ele>1500.0</ele>
        <time>2022-08-15T16:35:11Z</time>
      </trkpt>
      <trkpt lat="3.9653540" lon="-76.4603880">
        <ele>1500.2</ele>
        <time>2022-08-15T16:35:13Z</time>
      </trkpt>
      <trkpt lat="3.9652160" lon="-76.4604440">
        <ele>1501.4</ele>
        <time>2022-08-15T16:35:19Z</time>
      </trkpt>
      <trkpt lat="3.9651420" lon="-76.4604790">
        <ele>1501.8</ele>
        <time>2022-08-15T16:35:22Z</time>
      </trkpt>
      <trkpt lat="3.9650170" lon="-76.4605360">
        <ele>1502.4</ele>
        <time>2022-08-15T16:35:27Z</time>
      </trkpt>
      <trkpt lat="3.9649450" lon="-76.4605790">
        <ele>1503.2</ele>
        <time>2022-08-15T16:35:30Z</time>
      </trkpt>
      <trkpt lat="3.9648690" lon="-76.4606240">
        <ele>1503.8</ele>
        <time>2022-08-15T16:35:33Z</time>
      </trkpt>
      <trkpt lat="3.9647750" lon="-76.4606850">
        <ele>1504.2</ele>
        <time>2022-08-15T16:35:37Z</time>
      </trkpt>
      <trkpt lat="3.9646280" lon="-76.4607980">
        <ele>1505.0</ele>
        <time>2022-08-15T16:35:44Z</time>
      </trkpt>
      <trkpt lat="3.9646040" lon="-76.4608130">
        <ele>1505.4</ele>
        <time>2022-08-15T16:35:45Z</time>
      </trkpt>
      <trkpt lat="3.9645200" lon="-76.4608460">
        <ele>1506.2</ele>
        <time>2022-08-15T16:35:48Z</time>
      </trkpt>
      <trkpt lat="3.9644000" lon="-76.4608600">
        <ele>1506.6</ele>
        <time>2022-08-15T16:35:52Z</time>
      </trkpt>
      <trkpt lat="3.9642870" lon="-76.4608610">
        <ele>1507.2</ele>
        <time>2022-08-15T16:35:56Z</time>
      </trkpt>
      <trkpt lat="3.9641540" lon="-76.4608450">
        <ele>1507.8</ele>
        <time>2022-08-15T16:36:01Z</time>
      </trkpt>
      <trkpt lat="3.9640490" lon="-76.4608060">
        <ele>1508.4</ele>
        <time>2022-08-15T16:36:05Z</time>
      </trkpt>
      <trkpt lat="3.9639540" lon="-76.4607510">
        <ele>1509.0</ele>
        <time>2022-08-15T16:36:09Z</time>
      </trkpt>
      <trkpt lat="3.9639150" lon="-76.4607130">
        <ele>1509.6</ele>
        <time>2022-08-15T16:36:11Z</time>
      </trkpt>
      <trkpt lat="3.9638460" lon="-76.4606300">
        <ele>1510.4</ele>
        <time>2022-08-15T16:36:15Z</time>
      </trkpt>
      <trkpt lat="3.9638160" lon="-76.4605860">
        <ele>1510.8</ele>
        <time>2022-08-15T16:36:17Z</time>
      </trkpt>
      <trkpt lat="3.9637640" lon="-76.4604580">
        <ele>1511.6</ele>
        <time>2022-08-15T16:36:22Z</time>
      </trkpt>
      <trkpt lat="3.9637510" lon="-76.4604050">
        <ele>1511.8</ele>
        <time>2022-08-15T16:36:24Z</time>
      </trkpt>
      <trkpt lat="3.9637200" lon="-76.4602080">
        <ele>1512.8</ele>
        <time>2022-08-15T16:36:31Z</time>
      </trkpt>
      <trkpt lat="3.9637120" lon="-76.4601770">
        <ele>1513.0</ele>
        <time>2022-08-15T16:36:32Z</time>
      </trkpt>
      <trkpt lat="3.9636770" lon="-76.4600240">
        <ele>1514.2</ele>
        <time>2022-08-15T16:36:38Z</time>
      </trkpt>
      <trkpt lat="3.9636510" lon="-76.4599790">
        <ele>1514.8</ele>
        <time>2022-08-15T16:36:40Z</time>
      </trkpt>
      <trkpt lat="3.9636020" lon="-76.4599190">
        <ele>1515.4</ele>
        <time>2022-08-15T16:36:43Z</time>
      </trkpt>
      <trkpt lat="3.9635380" lon="-76.4598900">
        <ele>1516.0</ele>
        <time>2022-08-15T16:36:46Z</time>
      </trkpt>
      <trkpt lat="3.9634840" lon="-76.4598940">
        <ele>1516.6</ele>
        <time>2022-08-15T16:36:48Z</time>
      </trkpt>
      <trkpt lat="3.9633390" lon="-76.4599290">
        <ele>1517.6</ele>
        <time>2022-08-15T16:36:53Z</time>
      </trkpt>
      <trkpt lat="3.9631900" lon="-76.4600060">
        <ele>1518.6</ele>
        <time>2022-08-15T16:36:58Z</time>
      </trkpt>
      <trkpt lat="3.9630270" lon="-76.4601030">
        <ele>1519.0</ele>
        <time>2022-08-15T16:37:03Z</time>
      </trkpt>
      <trkpt lat="3.9628250" lon="-76.4602230">
        <ele>1519.6</ele>
        <time>2022-08-15T16:37:08Z</time>
      </trkpt>
      <trkpt lat="3.9626290" lon="-76.4604030">
        <ele>1519.6</ele>
        <time>2022-08-15T16:37:12Z</time>
      </trkpt>
      <trkpt lat="3.9623020" lon="-76.4606940">
        <ele>1519.2</ele>
        <time>2022-08-15T16:37:17Z</time>
      </trkpt>
      <trkpt lat="3.9621370" lon="-76.4608060">
        <ele>1518.8</ele>
        <time>2022-08-15T16:37:19Z</time>
      </trkpt>
      <trkpt lat="3.9619700" lon="-76.4608890">
        <ele>1517.6</ele>
        <time>2022-08-15T16:37:21Z</time>
      </trkpt>
      <trkpt lat="3.9617450" lon="-76.4609500">
        <ele>1516.0</ele>
        <time>2022-08-15T16:37:23Z</time>
      </trkpt>
      <trkpt lat="3.9615430" lon="-76.4609870">
        <ele>1514.6</ele>
        <time>2022-08-15T16:37:25Z</time>
      </trkpt>
      <trkpt lat="3.9613670" lon="-76.4610050">
        <ele>1513.0</ele>
        <time>2022-08-15T16:37:27Z</time>
      </trkpt>
      <trkpt lat="3.9612510" lon="-76.4610230">
        <ele>1512.2</ele>
        <time>2022-08-15T16:37:28Z</time>
      </trkpt>
      <trkpt lat="3.9611570" lon="-76.4610500">
        <ele>1511.6</ele>
        <time>2022-08-15T16:37:29Z</time>
      </trkpt>
      <trkpt lat="3.9610700" lon="-76.4610910">
        <ele>1510.4</ele>
        <time>2022-08-15T16:37:30Z</time>
      </trkpt>
      <trkpt lat="3.9609200" lon="-76.4612070">
        <ele>1509.2</ele>
        <time>2022-08-15T16:37:32Z</time>
      </trkpt>
      <trkpt lat="3.9608590" lon="-76.4612800">
        <ele>1509.0</ele>
        <time>2022-08-15T16:37:33Z</time>
      </trkpt>
      <trkpt lat="3.9607520" lon="-76.4614280">
        <ele>1508.4</ele>
        <time>2022-08-15T16:37:35Z</time>
      </trkpt>
      <trkpt lat="3.9607030" lon="-76.4614800">
        <ele>1508.2</ele>
        <time>2022-08-15T16:37:36Z</time>
      </trkpt>
      <trkpt lat="3.9606160" lon="-76.4615450">
        <ele>1507.8</ele>
        <time>2022-08-15T16:37:37Z</time>
      </trkpt>
      <trkpt lat="3.9603590" lon="-76.4616270">
        <ele>1506.4</ele>
        <time>2022-08-15T16:37:40Z</time>
      </trkpt>
      <trkpt lat="3.9601840" lon="-76.4616570">
        <ele>1504.8</ele>
        <time>2022-08-15T16:37:42Z</time>
      </trkpt>
      <trkpt lat="3.9599250" lon="-76.4617130">
        <ele>1503.6</ele>
        <time>2022-08-15T16:37:45Z</time>
      </trkpt>
      <trkpt lat="3.9598420" lon="-76.4617470">
        <ele>1503.2</ele>
        <time>2022-08-15T16:37:46Z</time>
      </trkpt>
      <trkpt lat="3.9594330" lon="-76.4619030">
        <ele>1502.4</ele>
        <time>2022-08-15T16:37:51Z</time>
      </trkpt>
      <trkpt lat="3.9593690" lon="-76.4619260">
        <ele>1502.4</ele>
        <time>2022-08-15T16:37:52Z</time>
      </trkpt>
      <trkpt lat="3.9588410" lon="-76.4621480">
        <ele>1502.4</ele>
        <time>2022-08-15T16:37:59Z</time>
      </trkpt>
      <trkpt lat="3.9587820" lon="-76.4621870">
        <ele>1502.4</ele>
        <time>2022-08-15T16:38:00Z</time>
      </trkpt>
      <trkpt lat="3.9586910" lon="-76.4622710">
        <ele>1502.4</ele>
        <time>2022-08-15T16:38:02Z</time>
      </trkpt>
      <trkpt lat="3.9586570" lon="-76.4623310">
        <ele>1502.4</ele>
        <time>2022-08-15T16:38:03Z</time>
      </trkpt>
      <trkpt lat="3.9586330" lon="-76.4624090">
        <ele>1502.4</ele>
        <time>2022-08-15T16:38:04Z</time>
      </trkpt>
      <trkpt lat="3.9586240" lon="-76.4625570">
        <ele>1502.8</ele>
        <time>2022-08-15T16:38:06Z</time>
      </trkpt>
      <trkpt lat="3.9586320" lon="-76.4629360">
        <ele>1503.0</ele>
        <time>2022-08-15T16:38:11Z</time>
      </trkpt>
      <trkpt lat="3.9586820" lon="-76.4630680">
        <ele>1503.2</ele>
        <time>2022-08-15T16:38:13Z</time>
      </trkpt>
      <trkpt lat="3.9588010" lon="-76.4632600">
        <ele>1503.2</ele>
        <time>2022-08-15T16:38:17Z</time>
      </trkpt>
      <trkpt lat="3.9588200" lon="-76.4632940">
        <ele>1503.2</ele>
        <time>2022-08-15T16:38:18Z</time>
      </trkpt>
      <trkpt lat="3.9588300" lon="-76.4633730">
        <ele>1503.4</ele>
        <time>2022-08-15T16:38:21Z</time>
      </trkpt>
      <trkpt lat="3.9587650" lon="-76.4634580">
        <ele>1503.2</ele>
        <time>2022-08-15T16:38:25Z</time>
      </trkpt>
      <trkpt lat="3.9587160" lon="-76.4634850">
        <ele>1503.2</ele>
        <time>2022-08-15T16:38:27Z</time>
      </trkpt>
      <trkpt lat="3.9586490" lon="-76.4635520">
        <ele>1503.2</ele>
        <time>2022-08-15T16:38:31Z</time>
      </trkpt>
      <trkpt lat="3.9585210" lon="-76.4636800">
        <ele>1503.2</ele>
        <time>2022-08-15T16:38:35Z</time>
      </trkpt>
      <trkpt lat="3.9582800" lon="-76.4639080">
        <ele>1503.0</ele>
        <time>2022-08-15T16:38:43Z</time>
      </trkpt>
      <trkpt lat="3.9581610" lon="-76.4640280">
        <ele>1503.4</ele>
        <time>2022-08-15T16:38:49Z</time>
      </trkpt>
      <trkpt lat="3.9581160" lon="-76.4640830">
        <ele>1504.0</ele>
        <time>2022-08-15T16:38:52Z</time>
      </trkpt>
      <trkpt lat="3.9580860" lon="-76.4641210">
        <ele>1504.6</ele>
        <time>2022-08-15T16:38:54Z</time>
      </trkpt>
      <trkpt lat="3.9580500" lon="-76.4641570">
        <ele>1505.2</ele>
        <time>2022-08-15T16:38:56Z</time>
      </trkpt>
      <trkpt lat="3.9579410" lon="-76.4642700">
        <ele>1506.4</ele>
        <time>2022-08-15T16:39:02Z</time>
      </trkpt>
      <trkpt lat="3.9578530" lon="-76.4643720">
        <ele>1507.8</ele>
        <time>2022-08-15T16:39:07Z</time>
      </trkpt>
      <trkpt lat="3.9577740" lon="-76.4644530">
        <ele>1508.6</ele>
        <time>2022-08-15T16:39:11Z</time>
      </trkpt>
      <trkpt lat="3.9577360" lon="-76.4644850">
        <ele>1509.0</ele>
        <time>2022-08-15T16:39:13Z</time>
      </trkpt>
      <trkpt lat="3.9576440" lon="-76.4645980">
        <ele>1510.0</ele>
        <time>2022-08-15T16:39:18Z</time>
      </trkpt>
      <trkpt lat="3.9575690" lon="-76.4646740">
        <ele>1511.0</ele>
        <time>2022-08-15T16:39:22Z</time>
      </trkpt>
      <trkpt lat="3.9575070" lon="-76.4647360">
        <ele>1511.6</ele>
        <time>2022-08-15T16:39:25Z</time>
      </trkpt>
      <trkpt lat="3.9574760" lon="-76.4647640">
        <ele>1512.2</ele>
        <time>2022-08-15T16:39:27Z</time>
      </trkpt>
      <trkpt lat="3.9573940" lon="-76.4648380">
        <ele>1513.6</ele>
        <time>2022-08-15T16:39:32Z</time>
      </trkpt>
      <trkpt lat="3.9573240" lon="-76.4648970">
        <ele>1514.8</ele>
        <time>2022-08-15T16:39:36Z</time>
      </trkpt>
      <trkpt lat="3.9572450" lon="-76.4649720">
        <ele>1516.0</ele>
        <time>2022-08-15T16:39:41Z</time>
      </trkpt>
      <trkpt lat="3.9571670" lon="-76.4650580">
        <ele>1517.2</ele>
        <time>2022-08-15T16:39:46Z</time>
      </trkpt>
      <trkpt lat="3.9571180" lon="-76.4651100">
        <ele>1517.6</ele>
        <time>2022-08-15T16:39:49Z</time>
      </trkpt>
      <trkpt lat="3.9570850" lon="-76.4651440">
        <ele>1518.2</ele>
        <time>2022-08-15T16:39:51Z</time>
      </trkpt>
      <trkpt lat="3.9570060" lon="-76.4652300">
        <ele>1519.4</ele>
        <time>2022-08-15T16:39:56Z</time>
      </trkpt>
      <trkpt lat="3.9569540" lon="-76.4652770">
        <ele>1520.0</ele>
        <time>2022-08-15T16:39:59Z</time>
      </trkpt>
      <trkpt lat="3.9569040" lon="-76.4653230">
        <ele>1520.6</ele>
        <time>2022-08-15T16:40:02Z</time>
      </trkpt>
      <trkpt lat="3.9568120" lon="-76.4654270">
        <ele>1521.6</ele>
        <time>2022-08-15T16:40:08Z</time>
      </trkpt>
      <trkpt lat="3.9566980" lon="-76.4655550">
        <ele>1522.6</ele>
        <time>2022-08-15T16:40:15Z</time>
      </trkpt>
      <trkpt lat="3.9566640" lon="-76.4655900">
        <ele>1523.2</ele>
        <time>2022-08-15T16:40:17Z</time>
      </trkpt>
      <trkpt lat="3.9565630" lon="-76.4656980">
        <ele>1523.8</ele>
        <time>2022-08-15T16:40:23Z</time>
      </trkpt>
      <trkpt lat="3.9565200" lon="-76.4657480">
        <ele>1524.4</ele>
        <time>2022-08-15T16:40:26Z</time>
      </trkpt>
      <trkpt lat="3.9564620" lon="-76.4658080">
        <ele>1525.0</ele>
        <time>2022-08-15T16:40:29Z</time>
      </trkpt>
      <trkpt lat="3.9563600" lon="-76.4659470">
        <ele>1525.8</ele>
        <time>2022-08-15T16:40:35Z</time>
      </trkpt>
      <trkpt lat="3.9563090" lon="-76.4660180">
        <ele>1526.0</ele>
        <time>2022-08-15T16:40:38Z</time>
      </trkpt>
      <trkpt lat="3.9562460" lon="-76.4660900">
        <ele>1526.6</ele>
        <time>2022-08-15T16:40:42Z</time>
      </trkpt>
      <trkpt lat="3.9561610" lon="-76.4661770">
        <ele>1527.2</ele>
        <time>2022-08-15T16:40:47Z</time>
      </trkpt>
      <trkpt lat="3.9561440" lon="-76.4661960">
        <ele>1527.2</ele>
        <time>2022-08-15T16:40:48Z</time>
      </trkpt>
      <trkpt lat="3.9560440" lon="-76.4663060">
        <ele>1528.4</ele>
        <time>2022-08-15T16:40:54Z</time>
      </trkpt>
      <trkpt lat="3.9560240" lon="-76.4663240">
        <ele>1528.6</ele>
        <time>2022-08-15T16:40:55Z</time>
      </trkpt>
      <trkpt lat="3.9559370" lon="-76.4664190">
        <ele>1529.4</ele>
        <time>2022-08-15T16:41:00Z</time>
      </trkpt>
      <trkpt lat="3.9559040" lon="-76.4664480">
        <ele>1529.6</ele>
        <time>2022-08-15T16:41:02Z</time>
      </trkpt>
      <trkpt lat="3.9557830" lon="-76.4665620">
        <ele>1530.6</ele>
        <time>2022-08-15T16:41:09Z</time>
      </trkpt>
      <trkpt lat="3.9557640" lon="-76.4665800">
        <ele>1530.8</ele>
        <time>2022-08-15T16:41:10Z</time>
      </trkpt>
      <trkpt lat="3.9557060" lon="-76.4666190">
        <ele>1531.6</ele>
        <time>2022-08-15T16:41:13Z</time>
      </trkpt>
      <trkpt lat="3.9556440" lon="-76.4666600">
        <ele>1532.0</ele>
        <time>2022-08-15T16:41:16Z</time>
      </trkpt>
      <trkpt lat="3.9556000" lon="-76.4667020">
        <ele>1532.6</ele>
        <time>2022-08-15T16:41:18Z</time>
      </trkpt>
      <trkpt lat="3.9555500" lon="-76.4667530">
        <ele>1532.8</ele>
        <time>2022-08-15T16:41:20Z</time>
      </trkpt>
      <trkpt lat="3.9553780" lon="-76.4668640">
        <ele>1533.0</ele>
        <time>2022-08-15T16:41:25Z</time>
      </trkpt>
      <trkpt lat="3.9552120" lon="-76.4669520">
        <ele>1533.0</ele>
        <time>2022-08-15T16:41:30Z</time>
      </trkpt>
      <trkpt lat="3.9550900" lon="-76.4670130">
        <ele>1532.8</ele>
        <time>2022-08-15T16:41:34Z</time>
      </trkpt>
      <trkpt lat="3.9550540" lon="-76.4670320">
        <ele>1532.6</ele>
        <time>2022-08-15T16:41:35Z</time>
      </trkpt>
      <trkpt lat="3.9549800" lon="-76.4670810">
        <ele>1532.6</ele>
        <time>2022-08-15T16:41:37Z</time>
      </trkpt>
      <trkpt lat="3.9548930" lon="-76.4671370">
        <ele>1532.4</ele>
        <time>2022-08-15T16:41:39Z</time>
      </trkpt>
      <trkpt lat="3.9548480" lon="-76.4671600">
        <ele>1532.4</ele>
        <time>2022-08-15T16:41:40Z</time>
      </trkpt>
      <trkpt lat="3.9548050" lon="-76.4671820">
        <ele>1532.4</ele>
        <time>2022-08-15T16:41:41Z</time>
      </trkpt>
      <trkpt lat="3.9547180" lon="-76.4672310">
        <ele>1532.4</ele>
        <time>2022-08-15T16:41:43Z</time>
      </trkpt>
      <trkpt lat="3.9546750" lon="-76.4672620">
        <ele>1532.4</ele>
        <time>2022-08-15T16:41:44Z</time>
      </trkpt>
      <trkpt lat="3.9545630" lon="-76.4673570">
        <ele>1531.8</ele>
        <time>2022-08-15T16:41:47Z</time>
      </trkpt>
      <trkpt lat="3.9544690" lon="-76.4674510">
        <ele>1531.4</ele>
        <time>2022-08-15T16:41:50Z</time>
      </trkpt>
      <trkpt lat="3.9543500" lon="-76.4675880">
        <ele>1531.4</ele>
        <time>2022-08-15T16:41:55Z</time>
      </trkpt>
      <trkpt lat="3.9542460" lon="-76.4676990">
        <ele>1531.4</ele>
        <time>2022-08-15T16:42:00Z</time>
      </trkpt>
      <trkpt lat="3.9541480" lon="-76.4678430">
        <ele>1532.8</ele>
        <time>2022-08-15T16:42:06Z</time>
      </trkpt>
      <trkpt lat="3.9541320" lon="-76.4678670">
        <ele>1532.8</ele>
        <time>2022-08-15T16:42:07Z</time>
      </trkpt>
      <trkpt lat="3.9540400" lon="-76.4679760">
        <ele>1533.2</ele>
        <time>2022-08-15T16:42:11Z</time>
      </trkpt>
      <trkpt lat="3.9538840" lon="-76.4682330">
        <ele>1533.8</ele>
        <time>2022-08-15T16:42:18Z</time>
      </trkpt>
      <trkpt lat="3.9537610" lon="-76.4684710">
        <ele>1533.8</ele>
        <time>2022-08-15T16:42:23Z</time>
      </trkpt>
      <trkpt lat="3.9535840" lon="-76.4688060">
        <ele>1532.8</ele>
        <time>2022-08-15T16:42:29Z</time>
      </trkpt>
      <trkpt lat="3.9534220" lon="-76.4690610">
        <ele>1532.0</ele>
        <time>2022-08-15T16:42:33Z</time>
      </trkpt>
      <trkpt lat="3.9533780" lon="-76.4691350">
        <ele>1531.8</ele>
        <time>2022-08-15T16:42:34Z</time>
      </trkpt>
      <trkpt lat="3.9532730" lon="-76.4692750">
        <ele>1531.0</ele>
        <time>2022-08-15T16:42:36Z</time>
      </trkpt>
      <trkpt lat="3.9532160" lon="-76.4693400">
        <ele>1530.8</ele>
        <time>2022-08-15T16:42:37Z</time>
      </trkpt>
      <trkpt lat="3.9531570" lon="-76.4694020">
        <ele>1530.6</ele>
        <time>2022-08-15T16:42:38Z</time>
      </trkpt>
      <trkpt lat="3.9530320" lon="-76.4695100">
        <ele>1529.0</ele>
        <time>2022-08-15T16:42:40Z</time>
      </trkpt>
      <trkpt lat="3.9529710" lon="-76.4695610">
        <ele>1528.2</ele>
        <time>2022-08-15T16:42:41Z</time>
      </trkpt>
      <trkpt lat="3.9528640" lon="-76.4696680">
        <ele>1527.4</ele>
        <time>2022-08-15T16:42:43Z</time>
      </trkpt>
      <trkpt lat="3.9527730" lon="-76.4697620">
        <ele>1526.8</ele>
        <time>2022-08-15T16:42:45Z</time>
      </trkpt>
      <trkpt lat="3.9525820" lon="-76.4699380">
        <ele>1526.8</ele>
        <time>2022-08-15T16:42:50Z</time>
      </trkpt>
      <trkpt lat="3.9524610" lon="-76.4700230">
        <ele>1526.8</ele>
        <time>2022-08-15T16:42:53Z</time>
      </trkpt>
      <trkpt lat="3.9523780" lon="-76.4700810">
        <ele>1527.4</ele>
        <time>2022-08-15T16:42:55Z</time>
      </trkpt>
      <trkpt lat="3.9523450" lon="-76.4701150">
        <ele>1527.8</ele>
        <time>2022-08-15T16:42:56Z</time>
      </trkpt>
      <trkpt lat="3.9521490" lon="-76.4703240">
        <ele>1528.6</ele>
        <time>2022-08-15T16:43:02Z</time>
      </trkpt>
      <trkpt lat="3.9521150" lon="-76.4703540">
        <ele>1528.6</ele>
        <time>2022-08-15T16:43:03Z</time>
      </trkpt>
      <trkpt lat="3.9519630" lon="-76.4704710">
        <ele>1528.8</ele>
        <time>2022-08-15T16:43:08Z</time>
      </trkpt>
      <trkpt lat="3.9518610" lon="-76.4705310">
        <ele>1529.2</ele>
        <time>2022-08-15T16:43:12Z</time>
      </trkpt>
      <trkpt lat="3.9518070" lon="-76.4705650">
        <ele>1529.6</ele>
        <time>2022-08-15T16:43:14Z</time>
      </trkpt>
      <trkpt lat="3.9517750" lon="-76.4705860">
        <ele>1529.8</ele>
        <time>2022-08-15T16:43:15Z</time>
      </trkpt>
      <trkpt lat="3.9516830" lon="-76.4706370">
        <ele>1530.8</ele>
        <time>2022-08-15T16:43:18Z</time>
      </trkpt>
      <trkpt lat="3.9515500" lon="-76.4707140">
        <ele>1531.6</ele>
        <time>2022-08-15T16:43:22Z</time>
      </trkpt>
      <trkpt lat="3.9514070" lon="-76.4708060">
        <ele>1531.8</ele>
        <time>2022-08-15T16:43:26Z</time>
      </trkpt>
      <trkpt lat="3.9513120" lon="-76.4708670">
        <ele>1531.8</ele>
        <time>2022-08-15T16:43:28Z</time>
      </trkpt>
      <trkpt lat="3.9512340" lon="-76.4709240">
        <ele>1531.8</ele>
        <time>2022-08-15T16:43:30Z</time>
      </trkpt>
      <trkpt lat="3.9510860" lon="-76.4710180">
        <ele>1531.8</ele>
        <time>2022-08-15T16:43:33Z</time>
      </trkpt>
      <trkpt lat="3.9507060" lon="-76.4712660">
        <ele>1531.0</ele>
        <time>2022-08-15T16:43:41Z</time>
      </trkpt>
      <trkpt lat="3.9506660" lon="-76.4712920">
        <ele>1530.8</ele>
        <time>2022-08-15T16:43:42Z</time>
      </trkpt>
      <trkpt lat="3.9503800" lon="-76.4714900">
        <ele>1530.2</ele>
        <time>2022-08-15T16:43:48Z</time>
      </trkpt>
      <trkpt lat="3.9503440" lon="-76.4715150">
        <ele>1530.0</ele>
        <time>2022-08-15T16:43:49Z</time>
      </trkpt>
      <trkpt lat="3.9501520" lon="-76.4716330">
        <ele>1529.8</ele>
        <time>2022-08-15T16:43:53Z</time>
      </trkpt>
      <trkpt lat="3.9500760" lon="-76.4716810">
        <ele>1529.8</ele>
        <time>2022-08-15T16:43:55Z</time>
      </trkpt>
      <trkpt lat="3.9499920" lon="-76.4717450">
        <ele>1529.8</ele>
        <time>2022-08-15T16:43:57Z</time>
      </trkpt>
      <trkpt lat="3.9498420" lon="-76.4718360">
        <ele>1529.6</ele>
        <time>2022-08-15T16:44:01Z</time>
      </trkpt>
      <trkpt lat="3.9498050" lon="-76.4718560">
        <ele>1529.6</ele>
        <time>2022-08-15T16:44:02Z</time>
      </trkpt>
      <trkpt lat="3.9496330" lon="-76.4719900">
        <ele>1529.4</ele>
        <time>2022-08-15T16:44:07Z</time>
      </trkpt>
      <trkpt lat="3.9493950" lon="-76.4721660">
        <ele>1529.4</ele>
        <time>2022-08-15T16:44:13Z</time>
      </trkpt>
      <trkpt lat="3.9493180" lon="-76.4722200">
        <ele>1529.2</ele>
        <time>2022-08-15T16:44:15Z</time>
      </trkpt>
      <trkpt lat="3.9492210" lon="-76.4722750">
        <ele>1529.2</ele>
        <time>2022-08-15T16:44:17Z</time>
      </trkpt>
      <trkpt lat="3.9491510" lon="-76.4722800">
        <ele>1529.2</ele>
        <time>2022-08-15T16:44:19Z</time>
      </trkpt>
      <trkpt lat="3.9491050" lon="-76.4722130">
        <ele>1529.0</ele>
        <time>2022-08-15T16:44:22Z</time>
      </trkpt>
      <trkpt lat="3.9490940" lon="-76.4721610">
        <ele>1529.0</ele>
        <time>2022-08-15T16:44:23Z</time>
      </trkpt>
      <trkpt lat="3.9490920" lon="-76.4721120">
        <ele>1528.8</ele>
        <time>2022-08-15T16:44:24Z</time>
      </trkpt>
      <trkpt lat="3.9490940" lon="-76.4720570">
        <ele>1528.6</ele>
        <time>2022-08-15T16:44:25Z</time>
      </trkpt>
      <trkpt lat="3.9490990" lon="-76.4720100">
        <ele>1528.4</ele>
        <time>2022-08-15T16:44:26Z</time>
      </trkpt>
      <trkpt lat="3.9490960" lon="-76.4719470">
        <ele>1528.4</ele>
        <time>2022-08-15T16:44:27Z</time>
      </trkpt>
      <trkpt lat="3.9490650" lon="-76.4718100">
        <ele>1528.2</ele>
        <time>2022-08-15T16:44:29Z</time>
      </trkpt>
      <trkpt lat="3.9490010" lon="-76.4716230">
        <ele>1527.4</ele>
        <time>2022-08-15T16:44:32Z</time>
      </trkpt>
      <trkpt lat="3.9489100" lon="-76.4713990">
        <ele>1526.2</ele>
        <time>2022-08-15T16:44:35Z</time>
      </trkpt>
      <trkpt lat="3.9488770" lon="-76.4713210">
        <ele>1525.4</ele>
        <time>2022-08-15T16:44:36Z</time>
      </trkpt>
      <trkpt lat="3.9488510" lon="-76.4712600">
        <ele>1525.0</ele>
        <time>2022-08-15T16:44:37Z</time>
      </trkpt>
      <trkpt lat="3.9487780" lon="-76.4710880">
        <ele>1523.8</ele>
        <time>2022-08-15T16:44:39Z</time>
      </trkpt>
      <trkpt lat="3.9486820" lon="-76.4708590">
        <ele>1522.4</ele>
        <time>2022-08-15T16:44:42Z</time>
      </trkpt>
      <trkpt lat="3.9486020" lon="-76.4706660">
        <ele>1521.4</ele>
        <time>2022-08-15T16:44:44Z</time>
      </trkpt>
      <trkpt lat="3.9485620" lon="-76.4705730">
        <ele>1521.0</ele>
        <time>2022-08-15T16:44:45Z</time>
      </trkpt>
      <trkpt lat="3.9484540" lon="-76.4703120">
        <ele>1519.8</ele>
        <time>2022-08-15T16:44:48Z</time>
      </trkpt>
      <trkpt lat="3.9483660" lon="-76.4700960">
        <ele>1518.8</ele>
        <time>2022-08-15T16:44:50Z</time>
      </trkpt>
      <trkpt lat="3.9483260" lon="-76.4699940">
        <ele>1518.4</ele>
        <time>2022-08-15T16:44:51Z</time>
      </trkpt>
      <trkpt lat="3.9482530" lon="-76.4698090">
        <ele>1517.6</ele>
        <time>2022-08-15T16:44:53Z</time>
      </trkpt>
      <trkpt lat="3.9481150" lon="-76.4694740">
        <ele>1516.2</ele>
        <time>2022-08-15T16:44:56Z</time>
      </trkpt>
      <trkpt lat="3.9480710" lon="-76.4693630">
        <ele>1515.6</ele>
        <time>2022-08-15T16:44:57Z</time>
      </trkpt>
      <trkpt lat="3.9480350" lon="-76.4692760">
        <ele>1514.8</ele>
        <time>2022-08-15T16:44:58Z</time>
      </trkpt>
      <trkpt lat="3.9478940" lon="-76.4689290">
        <ele>1513.0</ele>
        <time>2022-08-15T16:45:01Z</time>
      </trkpt>
      <trkpt lat="3.9478110" lon="-76.4687320">
        <ele>1511.8</ele>
        <time>2022-08-15T16:45:03Z</time>
      </trkpt>
      <trkpt lat="3.9477600" lon="-76.4686250">
        <ele>1510.8</ele>
        <time>2022-08-15T16:45:04Z</time>
      </trkpt>
      <trkpt lat="3.9477040" lon="-76.4685230">
        <ele>1509.8</ele>
        <time>2022-08-15T16:45:05Z</time>
      </trkpt>
      <trkpt lat="3.9475610" lon="-76.4683090">
        <ele>1508.6</ele>
        <time>2022-08-15T16:45:07Z</time>
      </trkpt>
      <trkpt lat="3.9474950" lon="-76.4682140">
        <ele>1508.2</ele>
        <time>2022-08-15T16:45:08Z</time>
      </trkpt>
      <trkpt lat="3.9473710" lon="-76.4680440">
        <ele>1507.4</ele>
        <time>2022-08-15T16:45:10Z</time>
      </trkpt>
      <trkpt lat="3.9472170" lon="-76.4678350">
        <ele>1506.4</ele>
        <time>2022-08-15T16:45:12Z</time>
      </trkpt>
      <trkpt lat="3.9470800" lon="-76.4676380">
        <ele>1504.8</ele>
        <time>2022-08-15T16:45:14Z</time>
      </trkpt>
      <trkpt lat="3.9470130" lon="-76.4675390">
        <ele>1503.6</ele>
        <time>2022-08-15T16:45:15Z</time>
      </trkpt>
      <trkpt lat="3.9468760" lon="-76.4673400">
        <ele>1502.0</ele>
        <time>2022-08-15T16:45:17Z</time>
      </trkpt>
      <trkpt lat="3.9467350" lon="-76.4671380">
        <ele>1501.0</ele>
        <time>2022-08-15T16:45:19Z</time>
      </trkpt>
      <trkpt lat="3.9465220" lon="-76.4668510">
        <ele>1499.8</ele>
        <time>2022-08-15T16:45:22Z</time>
      </trkpt>
      <trkpt lat="3.9463900" lon="-76.4666720">
        <ele>1498.2</ele>
        <time>2022-08-15T16:45:24Z</time>
      </trkpt>
      <trkpt lat="3.9462710" lon="-76.4665090">
        <ele>1496.8</ele>
        <time>2022-08-15T16:45:26Z</time>
      </trkpt>
      <trkpt lat="3.9461740" lon="-76.4663700">
        <ele>1495.2</ele>
        <time>2022-08-15T16:45:28Z</time>
      </trkpt>
      <trkpt lat="3.9460950" lon="-76.4662590">
        <ele>1494.2</ele>
        <time>2022-08-15T16:45:30Z</time>
      </trkpt>
      <trkpt lat="3.9460300" lon="-76.4661750">
        <ele>1492.8</ele>
        <time>2022-08-15T16:45:32Z</time>
      </trkpt>
      <trkpt lat="3.9459880" lon="-76.4661160">
        <ele>1491.6</ele>
        <time>2022-08-15T16:45:35Z</time>
      </trkpt>
      <trkpt lat="3.9459880" lon="-76.4661160">
        <ele>1491.2</ele>
        <time>2022-08-15T16:45:39Z</time>
      </trkpt>
      <trkpt lat="3.9459880" lon="-76.4661160">
        <ele>1491.0</ele>
        <time>2022-08-15T16:45:47Z</time>
      </trkpt>
      <trkpt lat="3.9459880" lon="-76.4661160">
        <ele>1491.2</ele>
        <time>2022-08-15T16:45:59Z</time>
      </trkpt>
      <trkpt lat="3.9459880" lon="-76.4661160">
        <ele>1491.0</ele>
        <time>2022-08-15T16:46:04Z</time>
      </trkpt>
      <trkpt lat="3.9459870" lon="-76.4661140">
        <ele>1491.2</ele>
        <time>2022-08-15T16:46:25Z</time>
      </trkpt>
      <trkpt lat="3.9459350" lon="-76.4660420">
        <ele>1491.0</ele>
        <time>2022-08-15T16:46:28Z</time>
      </trkpt>
      <trkpt lat="3.9458120" lon="-76.4658470">
        <ele>1491.0</ele>
        <time>2022-08-15T16:46:33Z</time>
      </trkpt>
      <trkpt lat="3.9457790" lon="-76.4657980">
        <ele>1491.0</ele>
        <time>2022-08-15T16:46:34Z</time>
      </trkpt>
      <trkpt lat="3.9456280" lon="-76.4655790">
        <ele>1490.2</ele>
        <time>2022-08-15T16:46:38Z</time>
      </trkpt>
      <trkpt lat="3.9454880" lon="-76.4653950">
        <ele>1489.8</ele>
        <time>2022-08-15T16:46:41Z</time>
      </trkpt>
      <trkpt lat="3.9453520" lon="-76.4652020">
        <ele>1488.6</ele>
        <time>2022-08-15T16:46:44Z</time>
      </trkpt>
      <trkpt lat="3.9451810" lon="-76.4649590">
        <ele>1487.6</ele>
        <time>2022-08-15T16:46:47Z</time>
      </trkpt>
      <trkpt lat="3.9450230" lon="-76.4647320">
        <ele>1486.4</ele>
        <time>2022-08-15T16:46:50Z</time>
      </trkpt>
      <trkpt lat="3.9449520" lon="-76.4646330">
        <ele>1486.4</ele>
        <time>2022-08-15T16:46:51Z</time>
      </trkpt>
      <trkpt lat="3.9448340" lon="-76.4644670">
        <ele>1485.2</ele>
        <time>2022-08-15T16:46:53Z</time>
      </trkpt>
      <trkpt lat="3.9446500" lon="-76.4642180">
        <ele>1483.6</ele>
        <time>2022-08-15T16:46:56Z</time>
      </trkpt>
      <trkpt lat="3.9445900" lon="-76.4641340">
        <ele>1483.0</ele>
        <time>2022-08-15T16:46:57Z</time>
      </trkpt>
      <trkpt lat="3.9444780" lon="-76.4639770">
        <ele>1481.8</ele>
        <time>2022-08-15T16:46:59Z</time>
      </trkpt>
      <trkpt lat="3.9443450" lon="-76.4637860">
        <ele>1480.6</ele>
        <time>2022-08-15T16:47:01Z</time>
      </trkpt>
      <trkpt lat="3.9440500" lon="-76.4633370">
        <ele>1479.4</ele>
        <time>2022-08-15T16:47:06Z</time>
      </trkpt>
      <trkpt lat="3.9439290" lon="-76.4630340">
        <ele>1478.2</ele>
        <time>2022-08-15T16:47:09Z</time>
      </trkpt>
      <trkpt lat="3.9439000" lon="-76.4629280">
        <ele>1477.0</ele>
        <time>2022-08-15T16:47:10Z</time>
      </trkpt>
      <trkpt lat="3.9438760" lon="-76.4628200">
        <ele>1476.2</ele>
        <time>2022-08-15T16:47:11Z</time>
      </trkpt>
      <trkpt lat="3.9438540" lon="-76.4627090">
        <ele>1475.8</ele>
        <time>2022-08-15T16:47:12Z</time>
      </trkpt>
      <trkpt lat="3.9438130" lon="-76.4624900">
        <ele>1474.4</ele>
        <time>2022-08-15T16:47:14Z</time>
      </trkpt>
      <trkpt lat="3.9437440" lon="-76.4621640">
        <ele>1473.2</ele>
        <time>2022-08-15T16:47:17Z</time>
      </trkpt>
      <trkpt lat="3.9436770" lon="-76.4618380">
        <ele>1472.0</ele>
        <time>2022-08-15T16:47:20Z</time>
      </trkpt>
      <trkpt lat="3.9436360" lon="-76.4616250">
        <ele>1470.2</ele>
        <time>2022-08-15T16:47:22Z</time>
      </trkpt>
      <trkpt lat="3.9435900" lon="-76.4614150">
        <ele>1469.2</ele>
        <time>2022-08-15T16:47:24Z</time>
      </trkpt>
      <trkpt lat="3.9434700" lon="-76.4608160">
        <ele>1468.8</ele>
        <time>2022-08-15T16:47:30Z</time>
      </trkpt>
      <trkpt lat="3.9433750" lon="-76.4603700">
        <ele>1468.8</ele>
        <time>2022-08-15T16:47:35Z</time>
      </trkpt>
      <trkpt lat="3.9432630" lon="-76.4598230">
        <ele>1468.8</ele>
        <time>2022-08-15T16:47:41Z</time>
      </trkpt>
      <trkpt lat="3.9431400" lon="-76.4592870">
        <ele>1468.8</ele>
        <time>2022-08-15T16:47:47Z</time>
      </trkpt>
      <trkpt lat="3.9430020" lon="-76.4589610">
        <ele>1468.4</ele>
        <time>2022-08-15T16:47:51Z</time>
      </trkpt>
      <trkpt lat="3.9429550" lon="-76.4588880">
        <ele>1468.2</ele>
        <time>2022-08-15T16:47:52Z</time>
      </trkpt>
      <trkpt lat="3.9428410" lon="-76.4587540">
        <ele>1468.2</ele>
        <time>2022-08-15T16:47:54Z</time>
      </trkpt>
      <trkpt lat="3.9426980" lon="-76.4586470">
        <ele>1468.0</ele>
        <time>2022-08-15T16:47:56Z</time>
      </trkpt>
      <trkpt lat="3.9426340" lon="-76.4586120">
        <ele>1468.0</ele>
        <time>2022-08-15T16:47:57Z</time>
      </trkpt>
      <trkpt lat="3.9423780" lon="-76.4585160">
        <ele>1468.0</ele>
        <time>2022-08-15T16:48:00Z</time>
      </trkpt>
      <trkpt lat="3.9418530" lon="-76.4583160">
        <ele>1467.8</ele>
        <time>2022-08-15T16:48:07Z</time>
      </trkpt>
      <trkpt lat="3.9415530" lon="-76.4581110">
        <ele>1467.8</ele>
        <time>2022-08-15T16:48:12Z</time>
      </trkpt>
      <trkpt lat="3.9414970" lon="-76.4580650">
        <ele>1468.0</ele>
        <time>2022-08-15T16:48:13Z</time>
      </trkpt>
      <trkpt lat="3.9411050" lon="-76.4576790">
        <ele>1468.4</ele>
        <time>2022-08-15T16:48:20Z</time>
      </trkpt>
      <trkpt lat="3.9409500" lon="-76.4575250">
        <ele>1468.4</ele>
        <time>2022-08-15T16:48:23Z</time>
      </trkpt>
      <trkpt lat="3.9405550" lon="-76.4571330">
        <ele>1468.4</ele>
        <time>2022-08-15T16:48:30Z</time>
      </trkpt>
      <trkpt lat="3.9403460" lon="-76.4569290">
        <ele>1468.4</ele>
        <time>2022-08-15T16:48:34Z</time>
      </trkpt>
      <trkpt lat="3.9401220" lon="-76.4567160">
        <ele>1468.4</ele>
        <time>2022-08-15T16:48:38Z</time>
      </trkpt>
      <trkpt lat="3.9399160" lon="-76.4565820">
        <ele>1468.2</ele>
        <time>2022-08-15T16:48:41Z</time>
      </trkpt>
      <trkpt lat="3.9395310" lon="-76.4564380">
        <ele>1468.2</ele>
        <time>2022-08-15T16:48:46Z</time>
      </trkpt>
      <trkpt lat="3.9392110" lon="-76.4563220">
        <ele>1467.6</ele>
        <time>2022-08-15T16:48:50Z</time>
      </trkpt>
      <trkpt lat="3.9389090" lon="-76.4561940">
        <ele>1467.0</ele>
        <time>2022-08-15T16:48:54Z</time>
      </trkpt>
      <trkpt lat="3.9386730" lon="-76.4561040">
        <ele>1467.0</ele>
        <time>2022-08-15T16:48:57Z</time>
      </trkpt>
      <trkpt lat="3.9385880" lon="-76.4560930">
        <ele>1467.0</ele>
        <time>2022-08-15T16:48:58Z</time>
      </trkpt>
      <trkpt lat="3.9385010" lon="-76.4560960">
        <ele>1466.8</ele>
        <time>2022-08-15T16:48:59Z</time>
      </trkpt>
      <trkpt lat="3.9383210" lon="-76.4561680">
        <ele>1466.6</ele>
        <time>2022-08-15T16:49:01Z</time>
      </trkpt>
      <trkpt lat="3.9381970" lon="-76.4562710">
        <ele>1466.4</ele>
        <time>2022-08-15T16:49:03Z</time>
      </trkpt>
      <trkpt lat="3.9380740" lon="-76.4563970">
        <ele>1466.4</ele>
        <time>2022-08-15T16:49:05Z</time>
      </trkpt>
      <trkpt lat="3.9377020" lon="-76.4567970">
        <ele>1466.0</ele>
        <time>2022-08-15T16:49:11Z</time>
      </trkpt>
      <trkpt lat="3.9376400" lon="-76.4568580">
        <ele>1466.0</ele>
        <time>2022-08-15T16:49:12Z</time>
      </trkpt>
      <trkpt lat="3.9373750" lon="-76.4570890">
        <ele>1465.8</ele>
        <time>2022-08-15T16:49:16Z</time>
      </trkpt>
      <trkpt lat="3.9372220" lon="-76.4571810">
        <ele>1465.6</ele>
        <time>2022-08-15T16:49:18Z</time>
      </trkpt>
      <trkpt lat="3.9371390" lon="-76.4572150">
        <ele>1465.4</ele>
        <time>2022-08-15T16:49:19Z</time>
      </trkpt>
      <trkpt lat="3.9369650" lon="-76.4572560">
        <ele>1465.4</ele>
        <time>2022-08-15T16:49:21Z</time>
      </trkpt>
      <trkpt lat="3.9368780" lon="-76.4572610">
        <ele>1465.2</ele>
        <time>2022-08-15T16:49:22Z</time>
      </trkpt>
      <trkpt lat="3.9367180" lon="-76.4572150">
        <ele>1465.0</ele>
        <time>2022-08-15T16:49:24Z</time>
      </trkpt>
      <trkpt lat="3.9365860" lon="-76.4571120">
        <ele>1464.8</ele>
        <time>2022-08-15T16:49:26Z</time>
      </trkpt>
      <trkpt lat="3.9365300" lon="-76.4570540">
        <ele>1464.6</ele>
        <time>2022-08-15T16:49:27Z</time>
      </trkpt>
      <trkpt lat="3.9364800" lon="-76.4569830">
        <ele>1464.8</ele>
        <time>2022-08-15T16:49:28Z</time>
      </trkpt>
      <trkpt lat="3.9364450" lon="-76.4569040">
        <ele>1464.4</ele>
        <time>2022-08-15T16:49:29Z</time>
      </trkpt>
      <trkpt lat="3.9364270" lon="-76.4568260">
        <ele>1464.4</ele>
        <time>2022-08-15T16:49:30Z</time>
      </trkpt>
      <trkpt lat="3.9364300" lon="-76.4565110">
        <ele>1464.6</ele>
        <time>2022-08-15T16:49:34Z</time>
      </trkpt>
      <trkpt lat="3.9364540" lon="-76.4559420">
        <ele>1465.0</ele>
        <time>2022-08-15T16:49:42Z</time>
      </trkpt>
      <trkpt lat="3.9364580" lon="-76.4558720">
        <ele>1465.2</ele>
        <time>2022-08-15T16:49:43Z</time>
      </trkpt>
      <trkpt lat="3.9364640" lon="-76.4556050">
        <ele>1465.8</ele>
        <time>2022-08-15T16:49:47Z</time>
      </trkpt>
      <trkpt lat="3.9364750" lon="-76.4554170">
        <ele>1466.6</ele>
        <time>2022-08-15T16:49:50Z</time>
      </trkpt>
      <trkpt lat="3.9364760" lon="-76.4552860">
        <ele>1467.0</ele>
        <time>2022-08-15T16:49:52Z</time>
      </trkpt>
      <trkpt lat="3.9364850" lon="-76.4549160">
        <ele>1468.0</ele>
        <time>2022-08-15T16:49:58Z</time>
      </trkpt>
      <trkpt lat="3.9364860" lon="-76.4548460">
        <ele>1468.4</ele>
        <time>2022-08-15T16:49:59Z</time>
      </trkpt>
      <trkpt lat="3.9364620" lon="-76.4546250">
        <ele>1468.6</ele>
        <time>2022-08-15T16:50:02Z</time>
      </trkpt>
      <trkpt lat="3.9364360" lon="-76.4545510">
        <ele>1468.6</ele>
        <time>2022-08-15T16:50:03Z</time>
      </trkpt>
      <trkpt lat="3.9363980" lon="-76.4544770">
        <ele>1468.6</ele>
        <time>2022-08-15T16:50:04Z</time>
      </trkpt>
      <trkpt lat="3.9362950" lon="-76.4543340">
        <ele>1468.6</ele>
        <time>2022-08-15T16:50:06Z</time>
      </trkpt>
      <trkpt lat="3.9362290" lon="-76.4542690">
        <ele>1468.6</ele>
        <time>2022-08-15T16:50:07Z</time>
      </trkpt>
      <trkpt lat="3.9361530" lon="-76.4542170">
        <ele>1468.4</ele>
        <time>2022-08-15T16:50:08Z</time>
      </trkpt>
      <trkpt lat="3.9359710" lon="-76.4541420">
        <ele>1468.4</ele>
        <time>2022-08-15T16:50:10Z</time>
      </trkpt>
      <trkpt lat="3.9357680" lon="-76.4541180">
        <ele>1468.0</ele>
        <time>2022-08-15T16:50:12Z</time>
      </trkpt>
      <trkpt lat="3.9356640" lon="-76.4541250">
        <ele>1467.8</ele>
        <time>2022-08-15T16:50:13Z</time>
      </trkpt>
      <trkpt lat="3.9355620" lon="-76.4541420">
        <ele>1467.2</ele>
        <time>2022-08-15T16:50:14Z</time>
      </trkpt>
      <trkpt lat="3.9354600" lon="-76.4541700">
        <ele>1467.0</ele>
        <time>2022-08-15T16:50:15Z</time>
      </trkpt>
      <trkpt lat="3.9353680" lon="-76.4542150">
        <ele>1466.6</ele>
        <time>2022-08-15T16:50:16Z</time>
      </trkpt>
      <trkpt lat="3.9352900" lon="-76.4542750">
        <ele>1465.8</ele>
        <time>2022-08-15T16:50:17Z</time>
      </trkpt>
      <trkpt lat="3.9351650" lon="-76.4544160">
        <ele>1463.8</ele>
        <time>2022-08-15T16:50:19Z</time>
      </trkpt>
      <trkpt lat="3.9351080" lon="-76.4544880">
        <ele>1462.6</ele>
        <time>2022-08-15T16:50:20Z</time>
      </trkpt>
      <trkpt lat="3.9348860" lon="-76.4547480">
        <ele>1461.6</ele>
        <time>2022-08-15T16:50:24Z</time>
      </trkpt>
      <trkpt lat="3.9348350" lon="-76.4548050">
        <ele>1461.6</ele>
        <time>2022-08-15T16:50:25Z</time>
      </trkpt>
      <trkpt lat="3.9346760" lon="-76.4549960">
        <ele>1461.6</ele>
        <time>2022-08-15T16:50:29Z</time>
      </trkpt>
      <trkpt lat="3.9345620" lon="-76.4551400">
        <ele>1463.0</ele>
        <time>2022-08-15T16:50:33Z</time>
      </trkpt>
      <trkpt lat="3.9345350" lon="-76.4551690">
        <ele>1463.0</ele>
        <time>2022-08-15T16:50:34Z</time>
      </trkpt>
      <trkpt lat="3.9344810" lon="-76.4552210">
        <ele>1464.4</ele>
        <time>2022-08-15T16:50:36Z</time>
      </trkpt>
      <trkpt lat="3.9344160" lon="-76.4552490">
        <ele>1466.0</ele>
        <time>2022-08-15T16:50:38Z</time>
      </trkpt>
      <trkpt lat="3.9343810" lon="-76.4552600">
        <ele>1466.6</ele>
        <time>2022-08-15T16:50:39Z</time>
      </trkpt>
      <trkpt lat="3.9343460" lon="-76.4552700">
        <ele>1467.2</ele>
        <time>2022-08-15T16:50:40Z</time>
      </trkpt>
      <trkpt lat="3.9342790" lon="-76.4552830">
        <ele>1468.2</ele>
        <time>2022-08-15T16:50:42Z</time>
      </trkpt>
      <trkpt lat="3.9342110" lon="-76.4552810">
        <ele>1469.2</ele>
        <time>2022-08-15T16:50:44Z</time>
      </trkpt>
      <trkpt lat="3.9341770" lon="-76.4552770">
        <ele>1469.6</ele>
        <time>2022-08-15T16:50:45Z</time>
      </trkpt>
      <trkpt lat="3.9340780" lon="-76.4552390">
        <ele>1470.4</ele>
        <time>2022-08-15T16:50:48Z</time>
      </trkpt>
      <trkpt lat="3.9339890" lon="-76.4551820">
        <ele>1471.4</ele>
        <time>2022-08-15T16:50:51Z</time>
      </trkpt>
      <trkpt lat="3.9339640" lon="-76.4551590">
        <ele>1471.8</ele>
        <time>2022-08-15T16:50:52Z</time>
      </trkpt>
      <trkpt lat="3.9338600" lon="-76.4550400">
        <ele>1473.0</ele>
        <time>2022-08-15T16:50:57Z</time>
      </trkpt>
      <trkpt lat="3.9338260" lon="-76.4549860">
        <ele>1473.6</ele>
        <time>2022-08-15T16:50:59Z</time>
      </trkpt>
      <trkpt lat="3.9337800" lon="-76.4548930">
        <ele>1474.4</ele>
        <time>2022-08-15T16:51:02Z</time>
      </trkpt>
      <trkpt lat="3.9337350" lon="-76.4547320">
        <ele>1475.6</ele>
        <time>2022-08-15T16:51:07Z</time>
      </trkpt>
      <trkpt lat="3.9336960" lon="-76.4545980">
        <ele>1476.6</ele>
        <time>2022-08-15T16:51:11Z</time>
      </trkpt>
      <trkpt lat="3.9336220" lon="-76.4544700">
        <ele>1477.6</ele>
        <time>2022-08-15T16:51:15Z</time>
      </trkpt>
      <trkpt lat="3.9335960" lon="-76.4544390">
        <ele>1478.0</ele>
        <time>2022-08-15T16:51:16Z</time>
      </trkpt>
      <trkpt lat="3.9335310" lon="-76.4543720">
        <ele>1478.4</ele>
        <time>2022-08-15T16:51:18Z</time>
      </trkpt>
      <trkpt lat="3.9334460" lon="-76.4543140">
        <ele>1478.6</ele>
        <time>2022-08-15T16:51:20Z</time>
      </trkpt>
      <trkpt lat="3.9333330" lon="-76.4542920">
        <ele>1478.8</ele>
        <time>2022-08-15T16:51:22Z</time>
      </trkpt>
      <trkpt lat="3.9332710" lon="-76.4543030">
        <ele>1478.8</ele>
        <time>2022-08-15T16:51:23Z</time>
      </trkpt>
      <trkpt lat="3.9332110" lon="-76.4543300">
        <ele>1478.8</ele>
        <time>2022-08-15T16:51:24Z</time>
      </trkpt>
      <trkpt lat="3.9331120" lon="-76.4544230">
        <ele>1478.8</ele>
        <time>2022-08-15T16:51:26Z</time>
      </trkpt>
      <trkpt lat="3.9330710" lon="-76.4545580">
        <ele>1478.8</ele>
        <time>2022-08-15T16:51:28Z</time>
      </trkpt>
      <trkpt lat="3.9330690" lon="-76.4546320">
        <ele>1478.6</ele>
        <time>2022-08-15T16:51:29Z</time>
      </trkpt>
      <trkpt lat="3.9331100" lon="-76.4551040">
        <ele>1477.0</ele>
        <time>2022-08-15T16:51:35Z</time>
      </trkpt>
      <trkpt lat="3.9331180" lon="-76.4551850">
        <ele>1476.6</ele>
        <time>2022-08-15T16:51:36Z</time>
      </trkpt>
      <trkpt lat="3.9331550" lon="-76.4555920">
        <ele>1476.0</ele>
        <time>2022-08-15T16:51:41Z</time>
      </trkpt>
      <trkpt lat="3.9331220" lon="-76.4557550">
        <ele>1475.8</ele>
        <time>2022-08-15T16:51:43Z</time>
      </trkpt>
      <trkpt lat="3.9330330" lon="-76.4559030">
        <ele>1474.8</ele>
        <time>2022-08-15T16:51:45Z</time>
      </trkpt>
      <trkpt lat="3.9329750" lon="-76.4559750">
        <ele>1474.4</ele>
        <time>2022-08-15T16:51:46Z</time>
      </trkpt>
      <trkpt lat="3.9326430" lon="-76.4563310">
        <ele>1473.8</ele>
        <time>2022-08-15T16:51:51Z</time>
      </trkpt>
      <trkpt lat="3.9324350" lon="-76.4565420">
        <ele>1473.6</ele>
        <time>2022-08-15T16:51:54Z</time>
      </trkpt>
      <trkpt lat="3.9322990" lon="-76.4566820">
        <ele>1473.2</ele>
        <time>2022-08-15T16:51:56Z</time>
      </trkpt>
      <trkpt lat="3.9320260" lon="-76.4569710">
        <ele>1472.4</ele>
        <time>2022-08-15T16:52:00Z</time>
      </trkpt>
      <trkpt lat="3.9319540" lon="-76.4570400">
        <ele>1472.0</ele>
        <time>2022-08-15T16:52:01Z</time>
      </trkpt>
      <trkpt lat="3.9318220" lon="-76.4571530">
        <ele>1471.4</ele>
        <time>2022-08-15T16:52:03Z</time>
      </trkpt>
      <trkpt lat="3.9316030" lon="-76.4573300">
        <ele>1470.6</ele>
        <time>2022-08-15T16:52:06Z</time>
      </trkpt>
      <trkpt lat="3.9315290" lon="-76.4573840">
        <ele>1470.4</ele>
        <time>2022-08-15T16:52:07Z</time>
      </trkpt>
      <trkpt lat="3.9314540" lon="-76.4574350">
        <ele>1470.0</ele>
        <time>2022-08-15T16:52:08Z</time>
      </trkpt>
      <trkpt lat="3.9312330" lon="-76.4575780">
        <ele>1469.4</ele>
        <time>2022-08-15T16:52:11Z</time>
      </trkpt>
      <trkpt lat="3.9311720" lon="-76.4576300">
        <ele>1469.0</ele>
        <time>2022-08-15T16:52:12Z</time>
      </trkpt>
      <trkpt lat="3.9311190" lon="-76.4577000">
        <ele>1468.8</ele>
        <time>2022-08-15T16:52:13Z</time>
      </trkpt>
      <trkpt lat="3.9310670" lon="-76.4578260">
        <ele>1468.6</ele>
        <time>2022-08-15T16:52:15Z</time>
      </trkpt>
      <trkpt lat="3.9309580" lon="-76.4581070">
        <ele>1468.0</ele>
        <time>2022-08-15T16:52:19Z</time>
      </trkpt>
      <trkpt lat="3.9309220" lon="-76.4581800">
        <ele>1468.0</ele>
        <time>2022-08-15T16:52:20Z</time>
      </trkpt>
      <trkpt lat="3.9308800" lon="-76.4582510">
        <ele>1467.8</ele>
        <time>2022-08-15T16:52:21Z</time>
      </trkpt>
      <trkpt lat="3.9307150" lon="-76.4584460">
        <ele>1467.4</ele>
        <time>2022-08-15T16:52:24Z</time>
      </trkpt>
      <trkpt lat="3.9306500" lon="-76.4585040">
        <ele>1467.2</ele>
        <time>2022-08-15T16:52:25Z</time>
      </trkpt>
      <trkpt lat="3.9304260" lon="-76.4586600">
        <ele>1466.8</ele>
        <time>2022-08-15T16:52:28Z</time>
      </trkpt>
      <trkpt lat="3.9300020" lon="-76.4589900">
        <ele>1465.8</ele>
        <time>2022-08-15T16:52:34Z</time>
      </trkpt>
      <trkpt lat="3.9299410" lon="-76.4590550">
        <ele>1465.4</ele>
        <time>2022-08-15T16:52:35Z</time>
      </trkpt>
      <trkpt lat="3.9298370" lon="-76.4591960">
        <ele>1465.0</ele>
        <time>2022-08-15T16:52:37Z</time>
      </trkpt>
      <trkpt lat="3.9297980" lon="-76.4592750">
        <ele>1464.8</ele>
        <time>2022-08-15T16:52:38Z</time>
      </trkpt>
      <trkpt lat="3.9297700" lon="-76.4593610">
        <ele>1464.8</ele>
        <time>2022-08-15T16:52:39Z</time>
      </trkpt>
      <trkpt lat="3.9297560" lon="-76.4595320">
        <ele>1464.8</ele>
        <time>2022-08-15T16:52:41Z</time>
      </trkpt>
      <trkpt lat="3.9297550" lon="-76.4597110">
        <ele>1464.6</ele>
        <time>2022-08-15T16:52:43Z</time>
      </trkpt>
      <trkpt lat="3.9297430" lon="-76.4597950">
        <ele>1464.8</ele>
        <time>2022-08-15T16:52:44Z</time>
      </trkpt>
      <trkpt lat="3.9297240" lon="-76.4598790">
        <ele>1464.6</ele>
        <time>2022-08-15T16:52:45Z</time>
      </trkpt>
      <trkpt lat="3.9297010" lon="-76.4599610">
        <ele>1464.6</ele>
        <time>2022-08-15T16:52:46Z</time>
      </trkpt>
      <trkpt lat="3.9296310" lon="-76.4601070">
        <ele>1464.6</ele>
        <time>2022-08-15T16:52:48Z</time>
      </trkpt>
      <trkpt lat="3.9294780" lon="-76.4602730">
        <ele>1464.6</ele>
        <time>2022-08-15T16:52:51Z</time>
      </trkpt>
      <trkpt lat="3.9294190" lon="-76.4603170">
        <ele>1464.6</ele>
        <time>2022-08-15T16:52:52Z</time>
      </trkpt>
      <trkpt lat="3.9290910" lon="-76.4605610">
        <ele>1464.8</ele>
        <time>2022-08-15T16:52:58Z</time>
      </trkpt>
      <trkpt lat="3.9289510" lon="-76.4607260">
        <ele>1466.2</ele>
        <time>2022-08-15T16:53:02Z</time>
      </trkpt>
      <trkpt lat="3.9289220" lon="-76.4607680">
        <ele>1466.4</ele>
        <time>2022-08-15T16:53:03Z</time>
      </trkpt>
      <trkpt lat="3.9287740" lon="-76.4609680">
        <ele>1467.2</ele>
        <time>2022-08-15T16:53:08Z</time>
      </trkpt>
      <trkpt lat="3.9287240" lon="-76.4610390">
        <ele>1467.8</ele>
        <time>2022-08-15T16:53:10Z</time>
      </trkpt>
      <trkpt lat="3.9286720" lon="-76.4611140">
        <ele>1468.6</ele>
        <time>2022-08-15T16:53:12Z</time>
      </trkpt>
      <trkpt lat="3.9286220" lon="-76.4611860">
        <ele>1469.6</ele>
        <time>2022-08-15T16:53:14Z</time>
      </trkpt>
      <trkpt lat="3.9285750" lon="-76.4612540">
        <ele>1470.2</ele>
        <time>2022-08-15T16:53:16Z</time>
      </trkpt>
      <trkpt lat="3.9285160" lon="-76.4613260">
        <ele>1470.8</ele>
        <time>2022-08-15T16:53:18Z</time>
      </trkpt>
      <trkpt lat="3.9284930" lon="-76.4613520">
        <ele>1471.0</ele>
        <time>2022-08-15T16:53:19Z</time>
      </trkpt>
      <trkpt lat="3.9284620" lon="-76.4613790">
        <ele>1471.4</ele>
        <time>2022-08-15T16:53:20Z</time>
      </trkpt>
      <trkpt lat="3.9283950" lon="-76.4614250">
        <ele>1471.8</ele>
        <time>2022-08-15T16:53:22Z</time>
      </trkpt>
      <trkpt lat="3.9283600" lon="-76.4614440">
        <ele>1472.2</ele>
        <time>2022-08-15T16:53:23Z</time>
      </trkpt>
      <trkpt lat="3.9282880" lon="-76.4614690">
        <ele>1472.8</ele>
        <time>2022-08-15T16:53:25Z</time>
      </trkpt>
      <trkpt lat="3.9282510" lon="-76.4614750">
        <ele>1473.0</ele>
        <time>2022-08-15T16:53:26Z</time>
      </trkpt>
      <trkpt lat="3.9279820" lon="-76.4614920">
        <ele>1474.4</ele>
        <time>2022-08-15T16:53:33Z</time>
      </trkpt>
      <trkpt lat="3.9278000" lon="-76.4615020">
        <ele>1475.2</ele>
        <time>2022-08-15T16:53:38Z</time>
      </trkpt>
      <trkpt lat="3.9277260" lon="-76.4615060">
        <ele>1475.6</ele>
        <time>2022-08-15T16:53:40Z</time>
      </trkpt>
      <trkpt lat="3.9275190" lon="-76.4615160">
        <ele>1476.6</ele>
        <time>2022-08-15T16:53:46Z</time>
      </trkpt>
      <trkpt lat="3.9274170" lon="-76.4615230">
        <ele>1477.2</ele>
        <time>2022-08-15T16:53:49Z</time>
      </trkpt>
      <trkpt lat="3.9273470" lon="-76.4615210">
        <ele>1477.6</ele>
        <time>2022-08-15T16:53:51Z</time>
      </trkpt>
      <trkpt lat="3.9271180" lon="-76.4615220">
        <ele>1479.2</ele>
        <time>2022-08-15T16:53:58Z</time>
      </trkpt>
      <trkpt lat="3.9270530" lon="-76.4615290">
        <ele>1479.6</ele>
        <time>2022-08-15T16:54:00Z</time>
      </trkpt>
      <trkpt lat="3.9269890" lon="-76.4615500">
        <ele>1480.2</ele>
        <time>2022-08-15T16:54:02Z</time>
      </trkpt>
      <trkpt lat="3.9268750" lon="-76.4616210">
        <ele>1481.4</ele>
        <time>2022-08-15T16:54:06Z</time>
      </trkpt>
      <trkpt lat="3.9267720" lon="-76.4617500">
        <ele>1482.6</ele>
        <time>2022-08-15T16:54:11Z</time>
      </trkpt>
      <trkpt lat="3.9267610" lon="-76.4617820">
        <ele>1482.6</ele>
        <time>2022-08-15T16:54:12Z</time>
      </trkpt>
      <trkpt lat="3.9267060" lon="-76.4618990">
        <ele>1483.6</ele>
        <time>2022-08-15T16:54:16Z</time>
      </trkpt>
      <trkpt lat="3.9266390" lon="-76.4620350">
        <ele>1484.8</ele>
        <time>2022-08-15T16:54:21Z</time>
      </trkpt>
      <trkpt lat="3.9266270" lon="-76.4620630">
        <ele>1484.8</ele>
        <time>2022-08-15T16:54:22Z</time>
      </trkpt>
      <trkpt lat="3.9265050" lon="-76.4622080">
        <ele>1486.0</ele>
        <time>2022-08-15T16:54:28Z</time>
      </trkpt>
      <trkpt lat="3.9264770" lon="-76.4622270">
        <ele>1486.2</ele>
        <time>2022-08-15T16:54:29Z</time>
      </trkpt>
      <trkpt lat="3.9263480" lon="-76.4622830">
        <ele>1487.2</ele>
        <time>2022-08-15T16:54:33Z</time>
      </trkpt>
      <trkpt lat="3.9262410" lon="-76.4623140">
        <ele>1487.6</ele>
        <time>2022-08-15T16:54:36Z</time>
      </trkpt>
      <trkpt lat="3.9260560" lon="-76.4623630">
        <ele>1488.2</ele>
        <time>2022-08-15T16:54:41Z</time>
      </trkpt>
      <trkpt lat="3.9258240" lon="-76.4624310">
        <ele>1488.8</ele>
        <time>2022-08-15T16:54:47Z</time>
      </trkpt>
      <trkpt lat="3.9254910" lon="-76.4625850">
        <ele>1489.2</ele>
        <time>2022-08-15T16:54:56Z</time>
      </trkpt>
      <trkpt lat="3.9254550" lon="-76.4626080">
        <ele>1489.4</ele>
        <time>2022-08-15T16:54:57Z</time>
      </trkpt>
      <trkpt lat="3.9252840" lon="-76.4627250">
        <ele>1490.0</ele>
        <time>2022-08-15T16:55:02Z</time>
      </trkpt>
      <trkpt lat="3.9251870" lon="-76.4627940">
        <ele>1490.4</ele>
        <time>2022-08-15T16:55:05Z</time>
      </trkpt>
      <trkpt lat="3.9251570" lon="-76.4628180">
        <ele>1490.6</ele>
        <time>2022-08-15T16:55:06Z</time>
      </trkpt>
      <trkpt lat="3.9249160" lon="-76.4629900">
        <ele>1491.6</ele>
        <time>2022-08-15T16:55:14Z</time>
      </trkpt>
      <trkpt lat="3.9248560" lon="-76.4630280">
        <ele>1491.8</ele>
        <time>2022-08-15T16:55:16Z</time>
      </trkpt>
      <trkpt lat="3.9247170" lon="-76.4631290">
        <ele>1492.6</ele>
        <time>2022-08-15T16:55:21Z</time>
      </trkpt>
      <trkpt lat="3.9246860" lon="-76.4631470">
        <ele>1493.0</ele>
        <time>2022-08-15T16:55:22Z</time>
      </trkpt>
      <trkpt lat="3.9245230" lon="-76.4632390">
        <ele>1494.0</ele>
        <time>2022-08-15T16:55:27Z</time>
      </trkpt>
      <trkpt lat="3.9244080" lon="-76.4632750">
        <ele>1494.6</ele>
        <time>2022-08-15T16:55:30Z</time>
      </trkpt>
      <trkpt lat="3.9241340" lon="-76.4632820">
        <ele>1495.0</ele>
        <time>2022-08-15T16:55:36Z</time>
      </trkpt>
      <trkpt lat="3.9237420" lon="-76.4632510">
        <ele>1495.0</ele>
        <time>2022-08-15T16:55:42Z</time>
      </trkpt>
      <trkpt lat="3.9234260" lon="-76.4632310">
        <ele>1494.4</ele>
        <time>2022-08-15T16:55:46Z</time>
      </trkpt>
      <trkpt lat="3.9233480" lon="-76.4632020">
        <ele>1494.0</ele>
        <time>2022-08-15T16:55:47Z</time>
      </trkpt>
      <trkpt lat="3.9232940" lon="-76.4631650">
        <ele>1493.6</ele>
        <time>2022-08-15T16:55:48Z</time>
      </trkpt>
      <trkpt lat="3.9232350" lon="-76.4631090">
        <ele>1492.8</ele>
        <time>2022-08-15T16:55:49Z</time>
      </trkpt>
      <trkpt lat="3.9231890" lon="-76.4630360">
        <ele>1492.4</ele>
        <time>2022-08-15T16:55:50Z</time>
      </trkpt>
      <trkpt lat="3.9231350" lon="-76.4629570">
        <ele>1491.8</ele>
        <time>2022-08-15T16:55:51Z</time>
      </trkpt>
      <trkpt lat="3.9230600" lon="-76.4629160">
        <ele>1491.4</ele>
        <time>2022-08-15T16:55:52Z</time>
      </trkpt>
      <trkpt lat="3.9229720" lon="-76.4628960">
        <ele>1490.8</ele>
        <time>2022-08-15T16:55:53Z</time>
      </trkpt>
      <trkpt lat="3.9228880" lon="-76.4629090">
        <ele>1490.4</ele>
        <time>2022-08-15T16:55:54Z</time>
      </trkpt>
      <trkpt lat="3.9227490" lon="-76.4630080">
        <ele>1489.4</ele>
        <time>2022-08-15T16:55:56Z</time>
      </trkpt>
      <trkpt lat="3.9226710" lon="-76.4630460">
        <ele>1489.0</ele>
        <time>2022-08-15T16:55:57Z</time>
      </trkpt>
      <trkpt lat="3.9225120" lon="-76.4630660">
        <ele>1488.4</ele>
        <time>2022-08-15T16:55:59Z</time>
      </trkpt>
      <trkpt lat="3.9224230" lon="-76.4630530">
        <ele>1488.0</ele>
        <time>2022-08-15T16:56:00Z</time>
      </trkpt>
      <trkpt lat="3.9223350" lon="-76.4630250">
        <ele>1487.2</ele>
        <time>2022-08-15T16:56:01Z</time>
      </trkpt>
      <trkpt lat="3.9221480" lon="-76.4629290">
        <ele>1486.4</ele>
        <time>2022-08-15T16:56:03Z</time>
      </trkpt>
      <trkpt lat="3.9220600" lon="-76.4628830">
        <ele>1486.0</ele>
        <time>2022-08-15T16:56:04Z</time>
      </trkpt>
      <trkpt lat="3.9216940" lon="-76.4627030">
        <ele>1484.6</ele>
        <time>2022-08-15T16:56:08Z</time>
      </trkpt>
      <trkpt lat="3.9215090" lon="-76.4626060">
        <ele>1483.6</ele>
        <time>2022-08-15T16:56:10Z</time>
      </trkpt>
      <trkpt lat="3.9214200" lon="-76.4625580">
        <ele>1483.4</ele>
        <time>2022-08-15T16:56:11Z</time>
      </trkpt>
      <trkpt lat="3.9213350" lon="-76.4625220">
        <ele>1482.8</ele>
        <time>2022-08-15T16:56:12Z</time>
      </trkpt>
      <trkpt lat="3.9212500" lon="-76.4625010">
        <ele>1482.0</ele>
        <time>2022-08-15T16:56:13Z</time>
      </trkpt>
      <trkpt lat="3.9211640" lon="-76.4625040">
        <ele>1481.2</ele>
        <time>2022-08-15T16:56:14Z</time>
      </trkpt>
      <trkpt lat="3.9210900" lon="-76.4625320">
        <ele>1480.6</ele>
        <time>2022-08-15T16:56:15Z</time>
      </trkpt>
      <trkpt lat="3.9210380" lon="-76.4625860">
        <ele>1480.2</ele>
        <time>2022-08-15T16:56:16Z</time>
      </trkpt>
      <trkpt lat="3.9210140" lon="-76.4626580">
        <ele>1479.8</ele>
        <time>2022-08-15T16:56:17Z</time>
      </trkpt>
      <trkpt lat="3.9210050" lon="-76.4627360">
        <ele>1479.4</ele>
        <time>2022-08-15T16:56:18Z</time>
      </trkpt>
      <trkpt lat="3.9210260" lon="-76.4629550">
        <ele>1478.2</ele>
        <time>2022-08-15T16:56:21Z</time>
      </trkpt>
      <trkpt lat="3.9210600" lon="-76.4633430">
        <ele>1477.2</ele>
        <time>2022-08-15T16:56:26Z</time>
      </trkpt>
      <trkpt lat="3.9210550" lon="-76.4634260">
        <ele>1477.2</ele>
        <time>2022-08-15T16:56:27Z</time>
      </trkpt>
      <trkpt lat="3.9210230" lon="-76.4635210">
        <ele>1477.0</ele>
        <time>2022-08-15T16:56:28Z</time>
      </trkpt>
      <trkpt lat="3.9209740" lon="-76.4636000">
        <ele>1477.0</ele>
        <time>2022-08-15T16:56:29Z</time>
      </trkpt>
      <trkpt lat="3.9208490" lon="-76.4637170">
        <ele>1476.8</ele>
        <time>2022-08-15T16:56:31Z</time>
      </trkpt>
      <trkpt lat="3.9204490" lon="-76.4640540">
        <ele>1476.0</ele>
        <time>2022-08-15T16:56:36Z</time>
      </trkpt>
      <trkpt lat="3.9203900" lon="-76.4641070">
        <ele>1475.2</ele>
        <time>2022-08-15T16:56:37Z</time>
      </trkpt>
      <trkpt lat="3.9203180" lon="-76.4641730">
        <ele>1474.2</ele>
        <time>2022-08-15T16:56:38Z</time>
      </trkpt>
      <trkpt lat="3.9201690" lon="-76.4643170">
        <ele>1473.0</ele>
        <time>2022-08-15T16:56:40Z</time>
      </trkpt>
      <trkpt lat="3.9201080" lon="-76.4643860">
        <ele>1472.8</ele>
        <time>2022-08-15T16:56:41Z</time>
      </trkpt>
      <trkpt lat="3.9200110" lon="-76.4645360">
        <ele>1472.2</ele>
        <time>2022-08-15T16:56:43Z</time>
      </trkpt>
      <trkpt lat="3.9199270" lon="-76.4646880">
        <ele>1472.0</ele>
        <time>2022-08-15T16:56:45Z</time>
      </trkpt>
      <trkpt lat="3.9197750" lon="-76.4648600">
        <ele>1472.0</ele>
        <time>2022-08-15T16:56:48Z</time>
      </trkpt>
      <trkpt lat="3.9194860" lon="-76.4650410">
        <ele>1472.0</ele>
        <time>2022-08-15T16:56:52Z</time>
      </trkpt>
      <trkpt lat="3.9194370" lon="-76.4650810">
        <ele>1472.0</ele>
        <time>2022-08-15T16:56:53Z</time>
      </trkpt>
      <trkpt lat="3.9192080" lon="-76.4653090">
        <ele>1472.0</ele>
        <time>2022-08-15T16:56:57Z</time>
      </trkpt>
      <trkpt lat="3.9189680" lon="-76.4655660">
        <ele>1472.4</ele>
        <time>2022-08-15T16:57:02Z</time>
      </trkpt>
      <trkpt lat="3.9189290" lon="-76.4656020">
        <ele>1472.6</ele>
        <time>2022-08-15T16:57:03Z</time>
      </trkpt>
      <trkpt lat="3.9186870" lon="-76.4659110">
        <ele>1473.2</ele>
        <time>2022-08-15T16:57:09Z</time>
      </trkpt>
      <trkpt lat="3.9186140" lon="-76.4660220">
        <ele>1473.2</ele>
        <time>2022-08-15T16:57:11Z</time>
      </trkpt>
      <trkpt lat="3.9184940" lon="-76.4662010">
        <ele>1473.4</ele>
        <time>2022-08-15T16:57:15Z</time>
      </trkpt>
      <trkpt lat="3.9184300" lon="-76.4662940">
        <ele>1473.6</ele>
        <time>2022-08-15T16:57:17Z</time>
      </trkpt>
      <trkpt lat="3.9183340" lon="-76.4664400">
        <ele>1474.4</ele>
        <time>2022-08-15T16:57:21Z</time>
      </trkpt>
      <trkpt lat="3.9183030" lon="-76.4664820">
        <ele>1474.4</ele>
        <time>2022-08-15T16:57:22Z</time>
      </trkpt>
      <trkpt lat="3.9182800" lon="-76.4665100">
        <ele>1474.6</ele>
        <time>2022-08-15T16:57:23Z</time>
      </trkpt>
      <trkpt lat="3.9181820" lon="-76.4665960">
        <ele>1475.0</ele>
        <time>2022-08-15T16:57:26Z</time>
      </trkpt>
      <trkpt lat="3.9180960" lon="-76.4666330">
        <ele>1475.6</ele>
        <time>2022-08-15T16:57:28Z</time>
      </trkpt>
      <trkpt lat="3.9180220" lon="-76.4666430">
        <ele>1476.4</ele>
        <time>2022-08-15T16:57:30Z</time>
      </trkpt>
      <trkpt lat="3.9179810" lon="-76.4666440">
        <ele>1476.8</ele>
        <time>2022-08-15T16:57:31Z</time>
      </trkpt>
      <trkpt lat="3.9179400" lon="-76.4666400">
        <ele>1477.0</ele>
        <time>2022-08-15T16:57:32Z</time>
      </trkpt>
      <trkpt lat="3.9178910" lon="-76.4666380">
        <ele>1477.2</ele>
        <time>2022-08-15T16:57:33Z</time>
      </trkpt>
      <trkpt lat="3.9176910" lon="-76.4666340">
        <ele>1478.0</ele>
        <time>2022-08-15T16:57:38Z</time>
      </trkpt>
      <trkpt lat="3.9174320" lon="-76.4666250">
        <ele>1478.6</ele>
        <time>2022-08-15T16:57:44Z</time>
      </trkpt>
      <trkpt lat="3.9173190" lon="-76.4666210">
        <ele>1479.0</ele>
        <time>2022-08-15T16:57:47Z</time>
      </trkpt>
      <trkpt lat="3.9170250" lon="-76.4666090">
        <ele>1480.0</ele>
        <time>2022-08-15T16:57:54Z</time>
      </trkpt>
      <trkpt lat="3.9169850" lon="-76.4666080">
        <ele>1480.2</ele>
        <time>2022-08-15T16:57:55Z</time>
      </trkpt>
      <trkpt lat="3.9166960" lon="-76.4665980">
        <ele>1481.4</ele>
        <time>2022-08-15T16:58:02Z</time>
      </trkpt>
      <trkpt lat="3.9165560" lon="-76.4665970">
        <ele>1481.6</ele>
        <time>2022-08-15T16:58:05Z</time>
      </trkpt>
      <trkpt lat="3.9165140" lon="-76.4665960">
        <ele>1481.8</ele>
        <time>2022-08-15T16:58:06Z</time>
      </trkpt>
      <trkpt lat="3.9163440" lon="-76.4665720">
        <ele>1481.8</ele>
        <time>2022-08-15T16:58:10Z</time>
      </trkpt>
      <trkpt lat="3.9162490" lon="-76.4665400">
        <ele>1482.0</ele>
        <time>2022-08-15T16:58:12Z</time>
      </trkpt>
      <trkpt lat="3.9158280" lon="-76.4663380">
        <ele>1482.0</ele>
        <time>2022-08-15T16:58:21Z</time>
      </trkpt>
      <trkpt lat="3.9155530" lon="-76.4662330">
        <ele>1482.0</ele>
        <time>2022-08-15T16:58:26Z</time>
      </trkpt>
      <trkpt lat="3.9154940" lon="-76.4662230">
        <ele>1482.2</ele>
        <time>2022-08-15T16:58:27Z</time>
      </trkpt>
      <trkpt lat="3.9154460" lon="-76.4662190">
        <ele>1482.2</ele>
        <time>2022-08-15T16:58:28Z</time>
      </trkpt>
      <trkpt lat="3.9152700" lon="-76.4662530">
        <ele>1482.0</ele>
        <time>2022-08-15T16:58:31Z</time>
      </trkpt>
      <trkpt lat="3.9149940" lon="-76.4663160">
        <ele>1482.0</ele>
        <time>2022-08-15T16:58:37Z</time>
      </trkpt>
      <trkpt lat="3.9147350" lon="-76.4663770">
        <ele>1482.8</ele>
        <time>2022-08-15T16:58:43Z</time>
      </trkpt>
      <trkpt lat="3.9146470" lon="-76.4663970">
        <ele>1483.2</ele>
        <time>2022-08-15T16:58:45Z</time>
      </trkpt>
      <trkpt lat="3.9144650" lon="-76.4664470">
        <ele>1483.8</ele>
        <time>2022-08-15T16:58:50Z</time>
      </trkpt>
      <trkpt lat="3.9143300" lon="-76.4664800">
        <ele>1484.6</ele>
        <time>2022-08-15T16:58:54Z</time>
      </trkpt>
      <trkpt lat="3.9142900" lon="-76.4664910">
        <ele>1484.8</ele>
        <time>2022-08-15T16:58:55Z</time>
      </trkpt>
      <trkpt lat="3.9142190" lon="-76.4665060">
        <ele>1485.0</ele>
        <time>2022-08-15T16:58:57Z</time>
      </trkpt>
      <trkpt lat="3.9140160" lon="-76.4665380">
        <ele>1486.2</ele>
        <time>2022-08-15T16:59:03Z</time>
      </trkpt>
      <trkpt lat="3.9138610" lon="-76.4665440">
        <ele>1487.2</ele>
        <time>2022-08-15T16:59:07Z</time>
      </trkpt>
      <trkpt lat="3.9137580" lon="-76.4665380">
        <ele>1488.0</ele>
        <time>2022-08-15T16:59:10Z</time>
      </trkpt>
      <trkpt lat="3.9136720" lon="-76.4665360">
        <ele>1488.4</ele>
        <time>2022-08-15T16:59:12Z</time>
      </trkpt>
      <trkpt lat="3.9134650" lon="-76.4665490">
        <ele>1489.4</ele>
        <time>2022-08-15T16:59:17Z</time>
      </trkpt>
      <trkpt lat="3.9134320" lon="-76.4665570">
        <ele>1489.8</ele>
        <time>2022-08-15T16:59:18Z</time>
      </trkpt>
      <trkpt lat="3.9132560" lon="-76.4666130">
        <ele>1490.2</ele>
        <time>2022-08-15T16:59:22Z</time>
      </trkpt>
      <trkpt lat="3.9132240" lon="-76.4666280">
        <ele>1490.2</ele>
        <time>2022-08-15T16:59:23Z</time>
      </trkpt>
      <trkpt lat="3.9129880" lon="-76.4667910">
        <ele>1490.4</ele>
        <time>2022-08-15T16:59:29Z</time>
      </trkpt>
      <trkpt lat="3.9129570" lon="-76.4668220">
        <ele>1490.6</ele>
        <time>2022-08-15T16:59:30Z</time>
      </trkpt>
      <trkpt lat="3.9128760" lon="-76.4669190">
        <ele>1490.8</ele>
        <time>2022-08-15T16:59:33Z</time>
      </trkpt>
      <trkpt lat="3.9127960" lon="-76.4670570">
        <ele>1491.2</ele>
        <time>2022-08-15T16:59:37Z</time>
      </trkpt>
      <trkpt lat="3.9127320" lon="-76.4671850">
        <ele>1491.8</ele>
        <time>2022-08-15T16:59:41Z</time>
      </trkpt>
      <trkpt lat="3.9126610" lon="-76.4673310">
        <ele>1493.0</ele>
        <time>2022-08-15T16:59:46Z</time>
      </trkpt>
      <trkpt lat="3.9126470" lon="-76.4673610">
        <ele>1493.2</ele>
        <time>2022-08-15T16:59:47Z</time>
      </trkpt>
      <trkpt lat="3.9125640" lon="-76.4675300">
        <ele>1494.6</ele>
        <time>2022-08-15T16:59:53Z</time>
      </trkpt>
      <trkpt lat="3.9125530" lon="-76.4675580">
        <ele>1495.0</ele>
        <time>2022-08-15T16:59:54Z</time>
      </trkpt>
      <trkpt lat="3.9125230" lon="-76.4676340">
        <ele>1495.8</ele>
        <time>2022-08-15T16:59:57Z</time>
      </trkpt>
      <trkpt lat="3.9124430" lon="-76.4677550">
        <ele>1497.0</ele>
        <time>2022-08-15T17:00:02Z</time>
      </trkpt>
      <trkpt lat="3.9124250" lon="-76.4677780">
        <ele>1497.2</ele>
        <time>2022-08-15T17:00:03Z</time>
      </trkpt>
      <trkpt lat="3.9123410" lon="-76.4678550">
        <ele>1498.2</ele>
        <time>2022-08-15T17:00:07Z</time>
      </trkpt>
      <trkpt lat="3.9122360" lon="-76.4679180">
        <ele>1498.8</ele>
        <time>2022-08-15T17:00:11Z</time>
      </trkpt>
      <trkpt lat="3.9121780" lon="-76.4679420">
        <ele>1499.4</ele>
        <time>2022-08-15T17:00:13Z</time>
      </trkpt>
      <trkpt lat="3.9120680" lon="-76.4679990">
        <ele>1500.2</ele>
        <time>2022-08-15T17:00:17Z</time>
      </trkpt>
      <trkpt lat="3.9119760" lon="-76.4680440">
        <ele>1500.8</ele>
        <time>2022-08-15T17:00:20Z</time>
      </trkpt>
      <trkpt lat="3.9118150" lon="-76.4681070">
        <ele>1501.8</ele>
        <time>2022-08-15T17:00:25Z</time>
      </trkpt>
      <trkpt lat="3.9117820" lon="-76.4681140">
        <ele>1502.0</ele>
        <time>2022-08-15T17:00:26Z</time>
      </trkpt>
      <trkpt lat="3.9116200" lon="-76.4680920">
        <ele>1502.6</ele>
        <time>2022-08-15T17:00:31Z</time>
      </trkpt>
      <trkpt lat="3.9115960" lon="-76.4680780">
        <ele>1502.8</ele>
        <time>2022-08-15T17:00:32Z</time>
      </trkpt>
      <trkpt lat="3.9114830" lon="-76.4679890">
        <ele>1503.6</ele>
        <time>2022-08-15T17:00:36Z</time>
      </trkpt>
      <trkpt lat="3.9114500" lon="-76.4679400">
        <ele>1503.8</ele>
        <time>2022-08-15T17:00:38Z</time>
      </trkpt>
      <trkpt lat="3.9114130" lon="-76.4678050">
        <ele>1504.4</ele>
        <time>2022-08-15T17:00:42Z</time>
      </trkpt>
      <trkpt lat="3.9114270" lon="-76.4676570">
        <ele>1505.0</ele>
        <time>2022-08-15T17:00:46Z</time>
      </trkpt>
      <trkpt lat="3.9114580" lon="-76.4675540">
        <ele>1505.4</ele>
        <time>2022-08-15T17:00:49Z</time>
      </trkpt>
      <trkpt lat="3.9114970" lon="-76.4673730">
        <ele>1506.0</ele>
        <time>2022-08-15T17:00:54Z</time>
      </trkpt>
      <trkpt lat="3.9115000" lon="-76.4672990">
        <ele>1506.4</ele>
        <time>2022-08-15T17:00:56Z</time>
      </trkpt>
      <trkpt lat="3.9114520" lon="-76.4671270">
        <ele>1507.0</ele>
        <time>2022-08-15T17:01:01Z</time>
      </trkpt>
      <trkpt lat="3.9114350" lon="-76.4671040">
        <ele>1507.2</ele>
        <time>2022-08-15T17:01:02Z</time>
      </trkpt>
      <trkpt lat="3.9113500" lon="-76.4670160">
        <ele>1507.6</ele>
        <time>2022-08-15T17:01:05Z</time>
      </trkpt>
      <trkpt lat="3.9112290" lon="-76.4669000">
        <ele>1508.0</ele>
        <time>2022-08-15T17:01:09Z</time>
      </trkpt>
      <trkpt lat="3.9111700" lon="-76.4668430">
        <ele>1508.4</ele>
        <time>2022-08-15T17:01:11Z</time>
      </trkpt>
      <trkpt lat="3.9111350" lon="-76.4668150">
        <ele>1508.6</ele>
        <time>2022-08-15T17:01:12Z</time>
      </trkpt>
      <trkpt lat="3.9110570" lon="-76.4667740">
        <ele>1508.8</ele>
        <time>2022-08-15T17:01:14Z</time>
      </trkpt>
      <trkpt lat="3.9109700" lon="-76.4667580">
        <ele>1508.8</ele>
        <time>2022-08-15T17:01:16Z</time>
      </trkpt>
      <trkpt lat="3.9108830" lon="-76.4667690">
        <ele>1509.0</ele>
        <time>2022-08-15T17:01:18Z</time>
      </trkpt>
      <trkpt lat="3.9108120" lon="-76.4668060">
        <ele>1509.0</ele>
        <time>2022-08-15T17:01:20Z</time>
      </trkpt>
      <trkpt lat="3.9107600" lon="-76.4668660">
        <ele>1509.0</ele>
        <time>2022-08-15T17:01:22Z</time>
      </trkpt>
      <trkpt lat="3.9107090" lon="-76.4669670">
        <ele>1509.0</ele>
        <time>2022-08-15T17:01:25Z</time>
      </trkpt>
      <trkpt lat="3.9106840" lon="-76.4670280">
        <ele>1509.4</ele>
        <time>2022-08-15T17:01:27Z</time>
      </trkpt>
      <trkpt lat="3.9106060" lon="-76.4671770">
        <ele>1510.2</ele>
        <time>2022-08-15T17:01:32Z</time>
      </trkpt>
      <trkpt lat="3.9105880" lon="-76.4671990">
        <ele>1510.4</ele>
        <time>2022-08-15T17:01:33Z</time>
      </trkpt>
      <trkpt lat="3.9105100" lon="-76.4672430">
        <ele>1511.4</ele>
        <time>2022-08-15T17:01:36Z</time>
      </trkpt>
      <trkpt lat="3.9104800" lon="-76.4672500">
        <ele>1511.6</ele>
        <time>2022-08-15T17:01:37Z</time>
      </trkpt>
      <trkpt lat="3.9103580" lon="-76.4672380">
        <ele>1512.6</ele>
        <time>2022-08-15T17:01:41Z</time>
      </trkpt>
      <trkpt lat="3.9103300" lon="-76.4672300">
        <ele>1512.8</ele>
        <time>2022-08-15T17:01:42Z</time>
      </trkpt>
      <trkpt lat="3.9101630" lon="-76.4671820">
        <ele>1513.8</ele>
        <time>2022-08-15T17:01:48Z</time>
      </trkpt>
      <trkpt lat="3.9101310" lon="-76.4671730">
        <ele>1514.0</ele>
        <time>2022-08-15T17:01:49Z</time>
      </trkpt>
      <trkpt lat="3.9100500" lon="-76.4671510">
        <ele>1514.4</ele>
        <time>2022-08-15T17:01:52Z</time>
      </trkpt>
      <trkpt lat="3.9100010" lon="-76.4671280">
        <ele>1515.0</ele>
        <time>2022-08-15T17:01:54Z</time>
      </trkpt>
      <trkpt lat="3.9099410" lon="-76.4670740">
        <ele>1515.4</ele>
        <time>2022-08-15T17:01:57Z</time>
      </trkpt>
      <trkpt lat="3.9099000" lon="-76.4670000">
        <ele>1516.2</ele>
        <time>2022-08-15T17:02:00Z</time>
      </trkpt>
      <trkpt lat="3.9098850" lon="-76.4669210">
        <ele>1516.8</ele>
        <time>2022-08-15T17:02:03Z</time>
      </trkpt>
      <trkpt lat="3.9098910" lon="-76.4668700">
        <ele>1517.2</ele>
        <time>2022-08-15T17:02:05Z</time>
      </trkpt>
      <trkpt lat="3.9099490" lon="-76.4667240">
        <ele>1518.2</ele>
        <time>2022-08-15T17:02:10Z</time>
      </trkpt>
      <trkpt lat="3.9099850" lon="-76.4666630">
        <ele>1518.4</ele>
        <time>2022-08-15T17:02:12Z</time>
      </trkpt>
      <trkpt lat="3.9100740" lon="-76.4665100">
        <ele>1518.8</ele>
        <time>2022-08-15T17:02:16Z</time>
      </trkpt>
      <trkpt lat="3.9101090" lon="-76.4664110">
        <ele>1518.8</ele>
        <time>2022-08-15T17:02:18Z</time>
      </trkpt>
      <trkpt lat="3.9101140" lon="-76.4663030">
        <ele>1518.8</ele>
        <time>2022-08-15T17:02:20Z</time>
      </trkpt>
      <trkpt lat="3.9100430" lon="-76.4660420">
        <ele>1518.8</ele>
        <time>2022-08-15T17:02:26Z</time>
      </trkpt>
      <trkpt lat="3.9098940" lon="-76.4658860">
        <ele>1518.8</ele>
        <time>2022-08-15T17:02:31Z</time>
      </trkpt>
      <trkpt lat="3.9097460" lon="-76.4657410">
        <ele>1518.6</ele>
        <time>2022-08-15T17:02:36Z</time>
      </trkpt>
      <trkpt lat="3.9096990" lon="-76.4656990">
        <ele>1518.6</ele>
        <time>2022-08-15T17:02:38Z</time>
      </trkpt>
      <trkpt lat="3.9095790" lon="-76.4655840">
        <ele>1519.2</ele>
        <time>2022-08-15T17:02:44Z</time>
      </trkpt>
      <trkpt lat="3.9095550" lon="-76.4655630">
        <ele>1519.4</ele>
        <time>2022-08-15T17:02:45Z</time>
      </trkpt>
      <trkpt lat="3.9094180" lon="-76.4654400">
        <ele>1520.8</ele>
        <time>2022-08-15T17:02:51Z</time>
      </trkpt>
      <trkpt lat="3.9093730" lon="-76.4653990">
        <ele>1521.2</ele>
        <time>2022-08-15T17:02:53Z</time>
      </trkpt>
      <trkpt lat="3.9092750" lon="-76.4653120">
        <ele>1521.8</ele>
        <time>2022-08-15T17:02:57Z</time>
      </trkpt>
      <trkpt lat="3.9091040" lon="-76.4651740">
        <ele>1522.8</ele>
        <time>2022-08-15T17:03:03Z</time>
      </trkpt>
      <trkpt lat="3.9090790" lon="-76.4651450">
        <ele>1523.2</ele>
        <time>2022-08-15T17:03:04Z</time>
      </trkpt>
      <trkpt lat="3.9089960" lon="-76.4649280">
        <ele>1523.8</ele>
        <time>2022-08-15T17:03:10Z</time>
      </trkpt>
      <trkpt lat="3.9089900" lon="-76.4648880">
        <ele>1524.0</ele>
        <time>2022-08-15T17:03:11Z</time>
      </trkpt>
      <trkpt lat="3.9089700" lon="-76.4645440">
        <ele>1524.8</ele>
        <time>2022-08-15T17:03:20Z</time>
      </trkpt>
      <trkpt lat="3.9089690" lon="-76.4645110">
        <ele>1525.0</ele>
        <time>2022-08-15T17:03:21Z</time>
      </trkpt>
      <trkpt lat="3.9089590" lon="-76.4643000">
        <ele>1526.0</ele>
        <time>2022-08-15T17:03:27Z</time>
      </trkpt>
      <trkpt lat="3.9089430" lon="-76.4641980">
        <ele>1526.6</ele>
        <time>2022-08-15T17:03:30Z</time>
      </trkpt>
      <trkpt lat="3.9088960" lon="-76.4641080">
        <ele>1527.2</ele>
        <time>2022-08-15T17:03:33Z</time>
      </trkpt>
      <trkpt lat="3.9088480" lon="-76.4640730">
        <ele>1527.6</ele>
        <time>2022-08-15T17:03:35Z</time>
      </trkpt>
      <trkpt lat="3.9087220" lon="-76.4640660">
        <ele>1528.0</ele>
        <time>2022-08-15T17:03:39Z</time>
      </trkpt>
      <trkpt lat="3.9086700" lon="-76.4641070">
        <ele>1528.2</ele>
        <time>2022-08-15T17:03:41Z</time>
      </trkpt>
      <trkpt lat="3.9086230" lon="-76.4641650">
        <ele>1528.4</ele>
        <time>2022-08-15T17:03:43Z</time>
      </trkpt>
      <trkpt lat="3.9085840" lon="-76.4642680">
        <ele>1529.2</ele>
        <time>2022-08-15T17:03:46Z</time>
      </trkpt>
      <trkpt lat="3.9085560" lon="-76.4643630">
        <ele>1529.8</ele>
        <time>2022-08-15T17:03:48Z</time>
      </trkpt>
      <trkpt lat="3.9084340" lon="-76.4647490">
        <ele>1530.0</ele>
        <time>2022-08-15T17:03:56Z</time>
      </trkpt>
      <trkpt lat="3.9084210" lon="-76.4648010">
        <ele>1530.0</ele>
        <time>2022-08-15T17:03:57Z</time>
      </trkpt>
      <trkpt lat="3.9083450" lon="-76.4650040">
        <ele>1530.0</ele>
        <time>2022-08-15T17:04:01Z</time>
      </trkpt>
      <trkpt lat="3.9082750" lon="-76.4650840">
        <ele>1530.0</ele>
        <time>2022-08-15T17:04:03Z</time>
      </trkpt>
      <trkpt lat="3.9081820" lon="-76.4651330">
        <ele>1530.0</ele>
        <time>2022-08-15T17:04:05Z</time>
      </trkpt>
      <trkpt lat="3.9078000" lon="-76.4652070">
        <ele>1530.2</ele>
        <time>2022-08-15T17:04:12Z</time>
      </trkpt>
      <trkpt lat="3.9076870" lon="-76.4652250">
        <ele>1530.4</ele>
        <time>2022-08-15T17:04:14Z</time>
      </trkpt>
      <trkpt lat="3.9074200" lon="-76.4652310">
        <ele>1531.0</ele>
        <time>2022-08-15T17:04:19Z</time>
      </trkpt>
      <trkpt lat="3.9073700" lon="-76.4652210">
        <ele>1531.0</ele>
        <time>2022-08-15T17:04:20Z</time>
      </trkpt>
      <trkpt lat="3.9073220" lon="-76.4652050">
        <ele>1531.2</ele>
        <time>2022-08-15T17:04:21Z</time>
      </trkpt>
      <trkpt lat="3.9071490" lon="-76.4651180">
        <ele>1531.4</ele>
        <time>2022-08-15T17:04:25Z</time>
      </trkpt>
      <trkpt lat="3.9071090" lon="-76.4650960">
        <ele>1531.8</ele>
        <time>2022-08-15T17:04:26Z</time>
      </trkpt>
      <trkpt lat="3.9070340" lon="-76.4650500">
        <ele>1532.2</ele>
        <time>2022-08-15T17:04:28Z</time>
      </trkpt>
      <trkpt lat="3.9070000" lon="-76.4650200">
        <ele>1532.4</ele>
        <time>2022-08-15T17:04:29Z</time>
      </trkpt>
      <trkpt lat="3.9069390" lon="-76.4649550">
        <ele>1532.8</ele>
        <time>2022-08-15T17:04:31Z</time>
      </trkpt>
      <trkpt lat="3.9069130" lon="-76.4649200">
        <ele>1533.0</ele>
        <time>2022-08-15T17:04:32Z</time>
      </trkpt>
      <trkpt lat="3.9068710" lon="-76.4648430">
        <ele>1533.4</ele>
        <time>2022-08-15T17:04:34Z</time>
      </trkpt>
      <trkpt lat="3.9068430" lon="-76.4647630">
        <ele>1533.8</ele>
        <time>2022-08-15T17:04:36Z</time>
      </trkpt>
      <trkpt lat="3.9068320" lon="-76.4647230">
        <ele>1534.2</ele>
        <time>2022-08-15T17:04:37Z</time>
      </trkpt>
      <trkpt lat="3.9068200" lon="-76.4646430">
        <ele>1534.6</ele>
        <time>2022-08-15T17:04:39Z</time>
      </trkpt>
      <trkpt lat="3.9067970" lon="-76.4645120">
        <ele>1535.0</ele>
        <time>2022-08-15T17:04:42Z</time>
      </trkpt>
      <trkpt lat="3.9067920" lon="-76.4644650">
        <ele>1535.2</ele>
        <time>2022-08-15T17:04:43Z</time>
      </trkpt>
      <trkpt lat="3.9067830" lon="-76.4643750">
        <ele>1535.4</ele>
        <time>2022-08-15T17:04:45Z</time>
      </trkpt>
      <trkpt lat="3.9067820" lon="-76.4641710">
        <ele>1536.0</ele>
        <time>2022-08-15T17:04:50Z</time>
      </trkpt>
      <trkpt lat="3.9067700" lon="-76.4640430">
        <ele>1536.2</ele>
        <time>2022-08-15T17:04:53Z</time>
      </trkpt>
      <trkpt lat="3.9067750" lon="-76.4638630">
        <ele>1536.4</ele>
        <time>2022-08-15T17:04:57Z</time>
      </trkpt>
      <trkpt lat="3.9067770" lon="-76.4637280">
        <ele>1537.2</ele>
        <time>2022-08-15T17:05:00Z</time>
      </trkpt>
      <trkpt lat="3.9067710" lon="-76.4636400">
        <ele>1537.6</ele>
        <time>2022-08-15T17:05:02Z</time>
      </trkpt>
      <trkpt lat="3.9067520" lon="-76.4635350">
        <ele>1538.2</ele>
        <time>2022-08-15T17:05:04Z</time>
      </trkpt>
      <trkpt lat="3.9067370" lon="-76.4634900">
        <ele>1538.4</ele>
        <time>2022-08-15T17:05:05Z</time>
      </trkpt>
      <trkpt lat="3.9066540" lon="-76.4633900">
        <ele>1538.8</ele>
        <time>2022-08-15T17:05:08Z</time>
      </trkpt>
      <trkpt lat="3.9066170" lon="-76.4633660">
        <ele>1539.0</ele>
        <time>2022-08-15T17:05:09Z</time>
      </trkpt>
      <trkpt lat="3.9065720" lon="-76.4633520">
        <ele>1539.0</ele>
        <time>2022-08-15T17:05:10Z</time>
      </trkpt>
      <trkpt lat="3.9064800" lon="-76.4633360">
        <ele>1539.2</ele>
        <time>2022-08-15T17:05:12Z</time>
      </trkpt>
      <trkpt lat="3.9064030" lon="-76.4633080">
        <ele>1539.6</ele>
        <time>2022-08-15T17:05:14Z</time>
      </trkpt>
      <trkpt lat="3.9063330" lon="-76.4632650">
        <ele>1540.2</ele>
        <time>2022-08-15T17:05:16Z</time>
      </trkpt>
      <trkpt lat="3.9063060" lon="-76.4632320">
        <ele>1540.4</ele>
        <time>2022-08-15T17:05:17Z</time>
      </trkpt>
      <trkpt lat="3.9062850" lon="-76.4631930">
        <ele>1540.4</ele>
        <time>2022-08-15T17:05:18Z</time>
      </trkpt>
      <trkpt lat="3.9062700" lon="-76.4630690">
        <ele>1540.8</ele>
        <time>2022-08-15T17:05:21Z</time>
      </trkpt>
      <trkpt lat="3.9062740" lon="-76.4630220">
        <ele>1540.8</ele>
        <time>2022-08-15T17:05:22Z</time>
      </trkpt>
      <trkpt lat="3.9063050" lon="-76.4628230">
        <ele>1541.4</ele>
        <time>2022-08-15T17:05:26Z</time>
      </trkpt>
      <trkpt lat="3.9063520" lon="-76.4626330">
        <ele>1542.0</ele>
        <time>2022-08-15T17:05:30Z</time>
      </trkpt>
      <trkpt lat="3.9063780" lon="-76.4625380">
        <ele>1542.6</ele>
        <time>2022-08-15T17:05:32Z</time>
      </trkpt>
      <trkpt lat="3.9063920" lon="-76.4624920">
        <ele>1542.8</ele>
        <time>2022-08-15T17:05:33Z</time>
      </trkpt>
      <trkpt lat="3.9064660" lon="-76.4623070">
        <ele>1543.2</ele>
        <time>2022-08-15T17:05:37Z</time>
      </trkpt>
      <trkpt lat="3.9065560" lon="-76.4620770">
        <ele>1543.6</ele>
        <time>2022-08-15T17:05:42Z</time>
      </trkpt>
      <trkpt lat="3.9066390" lon="-76.4618470">
        <ele>1544.2</ele>
        <time>2022-08-15T17:05:47Z</time>
      </trkpt>
      <trkpt lat="3.9067010" lon="-76.4616280">
        <ele>1544.6</ele>
        <time>2022-08-15T17:05:52Z</time>
      </trkpt>
      <trkpt lat="3.9066880" lon="-76.4615380">
        <ele>1545.0</ele>
        <time>2022-08-15T17:05:54Z</time>
      </trkpt>
      <trkpt lat="3.9066460" lon="-76.4614570">
        <ele>1545.6</ele>
        <time>2022-08-15T17:05:56Z</time>
      </trkpt>
      <trkpt lat="3.9065840" lon="-76.4613960">
        <ele>1545.8</ele>
        <time>2022-08-15T17:05:58Z</time>
      </trkpt>
      <trkpt lat="3.9064940" lon="-76.4613620">
        <ele>1546.0</ele>
        <time>2022-08-15T17:06:00Z</time>
      </trkpt>
      <trkpt lat="3.9064400" lon="-76.4613520">
        <ele>1546.2</ele>
        <time>2022-08-15T17:06:01Z</time>
      </trkpt>
      <trkpt lat="3.9063850" lon="-76.4613450">
        <ele>1546.4</ele>
        <time>2022-08-15T17:06:02Z</time>
      </trkpt>
      <trkpt lat="3.9062680" lon="-76.4613310">
        <ele>1546.8</ele>
        <time>2022-08-15T17:06:04Z</time>
      </trkpt>
      <trkpt lat="3.9060130" lon="-76.4613040">
        <ele>1547.0</ele>
        <time>2022-08-15T17:06:08Z</time>
      </trkpt>
      <trkpt lat="3.9058920" lon="-76.4612800">
        <ele>1547.0</ele>
        <time>2022-08-15T17:06:10Z</time>
      </trkpt>
      <trkpt lat="3.9057870" lon="-76.4612250">
        <ele>1547.2</ele>
        <time>2022-08-15T17:06:12Z</time>
      </trkpt>
      <trkpt lat="3.9057140" lon="-76.4611380">
        <ele>1547.2</ele>
        <time>2022-08-15T17:06:14Z</time>
      </trkpt>
      <trkpt lat="3.9056840" lon="-76.4610900">
        <ele>1547.2</ele>
        <time>2022-08-15T17:06:15Z</time>
      </trkpt>
      <trkpt lat="3.9056620" lon="-76.4610370">
        <ele>1547.2</ele>
        <time>2022-08-15T17:06:16Z</time>
      </trkpt>
      <trkpt lat="3.9056500" lon="-76.4609240">
        <ele>1547.4</ele>
        <time>2022-08-15T17:06:18Z</time>
      </trkpt>
      <trkpt lat="3.9056600" lon="-76.4608710">
        <ele>1547.6</ele>
        <time>2022-08-15T17:06:19Z</time>
      </trkpt>
      <trkpt lat="3.9056790" lon="-76.4608190">
        <ele>1547.8</ele>
        <time>2022-08-15T17:06:20Z</time>
      </trkpt>
      <trkpt lat="3.9057370" lon="-76.4607200">
        <ele>1548.0</ele>
        <time>2022-08-15T17:06:22Z</time>
      </trkpt>
      <trkpt lat="3.9057730" lon="-76.4606720">
        <ele>1548.0</ele>
        <time>2022-08-15T17:06:23Z</time>
      </trkpt>
      <trkpt lat="3.9060810" lon="-76.4603030">
        <ele>1549.0</ele>
        <time>2022-08-15T17:06:31Z</time>
      </trkpt>
      <trkpt lat="3.9063640" lon="-76.4600540">
        <ele>1549.2</ele>
        <time>2022-08-15T17:06:37Z</time>
      </trkpt>
      <trkpt lat="3.9065550" lon="-76.4598980">
        <ele>1549.4</ele>
        <time>2022-08-15T17:06:41Z</time>
      </trkpt>
      <trkpt lat="3.9066180" lon="-76.4597960">
        <ele>1549.4</ele>
        <time>2022-08-15T17:06:43Z</time>
      </trkpt>
      <trkpt lat="3.9066540" lon="-76.4595730">
        <ele>1549.4</ele>
        <time>2022-08-15T17:06:47Z</time>
      </trkpt>
      <trkpt lat="3.9066680" lon="-76.4593510">
        <ele>1550.4</ele>
        <time>2022-08-15T17:06:51Z</time>
      </trkpt>
      <trkpt lat="3.9066610" lon="-76.4591950">
        <ele>1551.2</ele>
        <time>2022-08-15T17:06:54Z</time>
      </trkpt>
      <trkpt lat="3.9066480" lon="-76.4591430">
        <ele>1551.4</ele>
        <time>2022-08-15T17:06:55Z</time>
      </trkpt>
      <trkpt lat="3.9066310" lon="-76.4590950">
        <ele>1551.6</ele>
        <time>2022-08-15T17:06:56Z</time>
      </trkpt>
      <trkpt lat="3.9065640" lon="-76.4589660">
        <ele>1552.0</ele>
        <time>2022-08-15T17:06:59Z</time>
      </trkpt>
      <trkpt lat="3.9064860" lon="-76.4588260">
        <ele>1552.4</ele>
        <time>2022-08-15T17:07:02Z</time>
      </trkpt>
      <trkpt lat="3.9063300" lon="-76.4584930">
        <ele>1553.2</ele>
        <time>2022-08-15T17:07:08Z</time>
      </trkpt>
      <trkpt lat="3.9063110" lon="-76.4583440">
        <ele>1553.4</ele>
        <time>2022-08-15T17:07:10Z</time>
      </trkpt>
      <trkpt lat="3.9063300" lon="-76.4581840">
        <ele>1553.4</ele>
        <time>2022-08-15T17:07:12Z</time>
      </trkpt>
      <trkpt lat="3.9063920" lon="-76.4580340">
        <ele>1553.4</ele>
        <time>2022-08-15T17:07:14Z</time>
      </trkpt>
      <trkpt lat="3.9064370" lon="-76.4579630">
        <ele>1553.4</ele>
        <time>2022-08-15T17:07:15Z</time>
      </trkpt>
      <trkpt lat="3.9066440" lon="-76.4576790">
        <ele>1551.8</ele>
        <time>2022-08-15T17:07:19Z</time>
      </trkpt>
      <trkpt lat="3.9067000" lon="-76.4576070">
        <ele>1551.2</ele>
        <time>2022-08-15T17:07:20Z</time>
      </trkpt>
      <trkpt lat="3.9067560" lon="-76.4575330">
        <ele>1550.8</ele>
        <time>2022-08-15T17:07:21Z</time>
      </trkpt>
      <trkpt lat="3.9068730" lon="-76.4573790">
        <ele>1550.0</ele>
        <time>2022-08-15T17:07:23Z</time>
      </trkpt>
      <trkpt lat="3.9069900" lon="-76.4572300">
        <ele>1548.8</ele>
        <time>2022-08-15T17:07:25Z</time>
      </trkpt>
      <trkpt lat="3.9070570" lon="-76.4571600">
        <ele>1548.4</ele>
        <time>2022-08-15T17:07:26Z</time>
      </trkpt>
      <trkpt lat="3.9071300" lon="-76.4570940">
        <ele>1547.8</ele>
        <time>2022-08-15T17:07:27Z</time>
      </trkpt>
      <trkpt lat="3.9074460" lon="-76.4568480">
        <ele>1546.8</ele>
        <time>2022-08-15T17:07:31Z</time>
      </trkpt>
      <trkpt lat="3.9075280" lon="-76.4567820">
        <ele>1546.2</ele>
        <time>2022-08-15T17:07:32Z</time>
      </trkpt>
      <trkpt lat="3.9076070" lon="-76.4567130">
        <ele>1545.8</ele>
        <time>2022-08-15T17:07:33Z</time>
      </trkpt>
      <trkpt lat="3.9076800" lon="-76.4566400">
        <ele>1545.4</ele>
        <time>2022-08-15T17:07:34Z</time>
      </trkpt>
      <trkpt lat="3.9077630" lon="-76.4564710">
        <ele>1545.0</ele>
        <time>2022-08-15T17:07:36Z</time>
      </trkpt>
      <trkpt lat="3.9076970" lon="-76.4562980">
        <ele>1544.2</ele>
        <time>2022-08-15T17:07:38Z</time>
      </trkpt>
      <trkpt lat="3.9076370" lon="-76.4562320">
        <ele>1543.8</ele>
        <time>2022-08-15T17:07:39Z</time>
      </trkpt>
      <trkpt lat="3.9074980" lon="-76.4561140">
        <ele>1542.4</ele>
        <time>2022-08-15T17:07:41Z</time>
      </trkpt>
      <trkpt lat="3.9073570" lon="-76.4559970">
        <ele>1541.2</ele>
        <time>2022-08-15T17:07:43Z</time>
      </trkpt>
      <trkpt lat="3.9072910" lon="-76.4559370">
        <ele>1540.8</ele>
        <time>2022-08-15T17:07:44Z</time>
      </trkpt>
      <trkpt lat="3.9071800" lon="-76.4557910">
        <ele>1540.6</ele>
        <time>2022-08-15T17:07:46Z</time>
      </trkpt>
      <trkpt lat="3.9071250" lon="-76.4555940">
        <ele>1540.4</ele>
        <time>2022-08-15T17:07:48Z</time>
      </trkpt>
      <trkpt lat="3.9071370" lon="-76.4554900">
        <ele>1540.0</ele>
        <time>2022-08-15T17:07:49Z</time>
      </trkpt>
      <trkpt lat="3.9072180" lon="-76.4550480">
        <ele>1538.8</ele>
        <time>2022-08-15T17:07:53Z</time>
      </trkpt>
      <trkpt lat="3.9072590" lon="-76.4548270">
        <ele>1538.6</ele>
        <time>2022-08-15T17:07:55Z</time>
      </trkpt>
      <trkpt lat="3.9072670" lon="-76.4547220">
        <ele>1538.0</ele>
        <time>2022-08-15T17:07:56Z</time>
      </trkpt>
      <trkpt lat="3.9072560" lon="-76.4546270">
        <ele>1537.2</ele>
        <time>2022-08-15T17:07:57Z</time>
      </trkpt>
      <trkpt lat="3.9072240" lon="-76.4545420">
        <ele>1536.0</ele>
        <time>2022-08-15T17:07:58Z</time>
      </trkpt>
      <trkpt lat="3.9071690" lon="-76.4544830">
        <ele>1534.8</ele>
        <time>2022-08-15T17:07:59Z</time>
      </trkpt>
      <trkpt lat="3.9070860" lon="-76.4544450">
        <ele>1534.0</ele>
        <time>2022-08-15T17:08:00Z</time>
      </trkpt>
      <trkpt lat="3.9069930" lon="-76.4544090">
        <ele>1533.4</ele>
        <time>2022-08-15T17:08:01Z</time>
      </trkpt>
      <trkpt lat="3.9069010" lon="-76.4543730">
        <ele>1532.2</ele>
        <time>2022-08-15T17:08:02Z</time>
      </trkpt>
      <trkpt lat="3.9067240" lon="-76.4543060">
        <ele>1530.8</ele>
        <time>2022-08-15T17:08:04Z</time>
      </trkpt>
      <trkpt lat="3.9065410" lon="-76.4542440">
        <ele>1529.8</ele>
        <time>2022-08-15T17:08:06Z</time>
      </trkpt>
      <trkpt lat="3.9064540" lon="-76.4542140">
        <ele>1529.4</ele>
        <time>2022-08-15T17:08:07Z</time>
      </trkpt>
      <trkpt lat="3.9062880" lon="-76.4541420">
        <ele>1529.0</ele>
        <time>2022-08-15T17:08:09Z</time>
      </trkpt>
      <trkpt lat="3.9062200" lon="-76.4540840">
        <ele>1528.8</ele>
        <time>2022-08-15T17:08:10Z</time>
      </trkpt>
      <trkpt lat="3.9061700" lon="-76.4540090">
        <ele>1528.6</ele>
        <time>2022-08-15T17:08:11Z</time>
      </trkpt>
      <trkpt lat="3.9061520" lon="-76.4539230">
        <ele>1528.2</ele>
        <time>2022-08-15T17:08:12Z</time>
      </trkpt>
      <trkpt lat="3.9061520" lon="-76.4538360">
        <ele>1527.6</ele>
        <time>2022-08-15T17:08:13Z</time>
      </trkpt>
      <trkpt lat="3.9061670" lon="-76.4535720">
        <ele>1526.6</ele>
        <time>2022-08-15T17:08:16Z</time>
      </trkpt>
      <trkpt lat="3.9061620" lon="-76.4534890">
        <ele>1526.4</ele>
        <time>2022-08-15T17:08:17Z</time>
      </trkpt>
      <trkpt lat="3.9060790" lon="-76.4533570">
        <ele>1526.0</ele>
        <time>2022-08-15T17:08:19Z</time>
      </trkpt>
      <trkpt lat="3.9057450" lon="-76.4530430">
        <ele>1525.4</ele>
        <time>2022-08-15T17:08:24Z</time>
      </trkpt>
      <trkpt lat="3.9056240" lon="-76.4528990">
        <ele>1524.8</ele>
        <time>2022-08-15T17:08:26Z</time>
      </trkpt>
      <trkpt lat="3.9055350" lon="-76.4527320">
        <ele>1524.0</ele>
        <time>2022-08-15T17:08:28Z</time>
      </trkpt>
      <trkpt lat="3.9054960" lon="-76.4525640">
        <ele>1523.2</ele>
        <time>2022-08-15T17:08:30Z</time>
      </trkpt>
      <trkpt lat="3.9054910" lon="-76.4524780">
        <ele>1522.6</ele>
        <time>2022-08-15T17:08:31Z</time>
      </trkpt>
      <trkpt lat="3.9054900" lon="-76.4523940">
        <ele>1522.0</ele>
        <time>2022-08-15T17:08:32Z</time>
      </trkpt>
      <trkpt lat="3.9055000" lon="-76.4523130">
        <ele>1521.4</ele>
        <time>2022-08-15T17:08:33Z</time>
      </trkpt>
      <trkpt lat="3.9055210" lon="-76.4522310">
        <ele>1520.8</ele>
        <time>2022-08-15T17:08:34Z</time>
      </trkpt>
      <trkpt lat="3.9055520" lon="-76.4521470">
        <ele>1520.6</ele>
        <time>2022-08-15T17:08:35Z</time>
      </trkpt>
      <trkpt lat="3.9055950" lon="-76.4520700">
        <ele>1520.4</ele>
        <time>2022-08-15T17:08:36Z</time>
      </trkpt>
      <trkpt lat="3.9056470" lon="-76.4519960">
        <ele>1520.4</ele>
        <time>2022-08-15T17:08:37Z</time>
      </trkpt>
      <trkpt lat="3.9057580" lon="-76.4518500">
        <ele>1520.0</ele>
        <time>2022-08-15T17:08:39Z</time>
      </trkpt>
      <trkpt lat="3.9060700" lon="-76.4514550">
        <ele>1519.0</ele>
        <time>2022-08-15T17:08:44Z</time>
      </trkpt>
      <trkpt lat="3.9062650" lon="-76.4511820">
        <ele>1517.8</ele>
        <time>2022-08-15T17:08:47Z</time>
      </trkpt>
      <trkpt lat="3.9063210" lon="-76.4510860">
        <ele>1517.2</ele>
        <time>2022-08-15T17:08:48Z</time>
      </trkpt>
      <trkpt lat="3.9063620" lon="-76.4509830">
        <ele>1516.6</ele>
        <time>2022-08-15T17:08:49Z</time>
      </trkpt>
      <trkpt lat="3.9063840" lon="-76.4508770">
        <ele>1516.0</ele>
        <time>2022-08-15T17:08:50Z</time>
      </trkpt>
      <trkpt lat="3.9063750" lon="-76.4507700">
        <ele>1515.4</ele>
        <time>2022-08-15T17:08:51Z</time>
      </trkpt>
      <trkpt lat="3.9063440" lon="-76.4506870">
        <ele>1514.6</ele>
        <time>2022-08-15T17:08:52Z</time>
      </trkpt>
      <trkpt lat="3.9062620" lon="-76.4505910">
        <ele>1513.8</ele>
        <time>2022-08-15T17:08:53Z</time>
      </trkpt>
      <trkpt lat="3.9061510" lon="-76.4504800">
        <ele>1513.0</ele>
        <time>2022-08-15T17:08:54Z</time>
      </trkpt>
      <trkpt lat="3.9060490" lon="-76.4503880">
        <ele>1512.0</ele>
        <time>2022-08-15T17:08:55Z</time>
      </trkpt>
      <trkpt lat="3.9059620" lon="-76.4503120">
        <ele>1511.0</ele>
        <time>2022-08-15T17:08:56Z</time>
      </trkpt>
      <trkpt lat="3.9058580" lon="-76.4502170">
        <ele>1509.6</ele>
        <time>2022-08-15T17:08:57Z</time>
      </trkpt>
      <trkpt lat="3.9057500" lon="-76.4501230">
        <ele>1507.8</ele>
        <time>2022-08-15T17:08:58Z</time>
      </trkpt>
      <trkpt lat="3.9056130" lon="-76.4500160">
        <ele>1506.0</ele>
        <time>2022-08-15T17:08:59Z</time>
      </trkpt>
      <trkpt lat="3.9054910" lon="-76.4499360">
        <ele>1504.4</ele>
        <time>2022-08-15T17:09:00Z</time>
      </trkpt>
      <trkpt lat="3.9053640" lon="-76.4498640">
        <ele>1503.4</ele>
        <time>2022-08-15T17:09:01Z</time>
      </trkpt>
      <trkpt lat="3.9051030" lon="-76.4497410">
        <ele>1501.4</ele>
        <time>2022-08-15T17:09:03Z</time>
      </trkpt>
      <trkpt lat="3.9049880" lon="-76.4496810">
        <ele>1500.6</ele>
        <time>2022-08-15T17:09:04Z</time>
      </trkpt>
      <trkpt lat="3.9048850" lon="-76.4496060">
        <ele>1498.8</ele>
        <time>2022-08-15T17:09:05Z</time>
      </trkpt>
      <trkpt lat="3.9047930" lon="-76.4495210">
        <ele>1496.6</ele>
        <time>2022-08-15T17:09:06Z</time>
      </trkpt>
      <trkpt lat="3.9047200" lon="-76.4494250">
        <ele>1495.0</ele>
        <time>2022-08-15T17:09:07Z</time>
      </trkpt>
      <trkpt lat="3.9046850" lon="-76.4493140">
        <ele>1493.2</ele>
        <time>2022-08-15T17:09:08Z</time>
      </trkpt>
      <trkpt lat="3.9046810" lon="-76.4491980">
        <ele>1491.0</ele>
        <time>2022-08-15T17:09:09Z</time>
      </trkpt>
      <trkpt lat="3.9046830" lon="-76.4490770">
        <ele>1490.0</ele>
        <time>2022-08-15T17:09:10Z</time>
      </trkpt>
      <trkpt lat="3.9046770" lon="-76.4487290">
        <ele>1489.0</ele>
        <time>2022-08-15T17:09:13Z</time>
      </trkpt>
      <trkpt lat="3.9046890" lon="-76.4484600">
        <ele>1487.6</ele>
        <time>2022-08-15T17:09:15Z</time>
      </trkpt>
      <trkpt lat="3.9047090" lon="-76.4483620">
        <ele>1486.6</ele>
        <time>2022-08-15T17:09:16Z</time>
      </trkpt>
      <trkpt lat="3.9047640" lon="-76.4482280">
        <ele>1486.0</ele>
        <time>2022-08-15T17:09:17Z</time>
      </trkpt>
      <trkpt lat="3.9048270" lon="-76.4481230">
        <ele>1485.2</ele>
        <time>2022-08-15T17:09:18Z</time>
      </trkpt>
      <trkpt lat="3.9048860" lon="-76.4480170">
        <ele>1484.4</ele>
        <time>2022-08-15T17:09:19Z</time>
      </trkpt>
      <trkpt lat="3.9049210" lon="-76.4479040">
        <ele>1483.2</ele>
        <time>2022-08-15T17:09:20Z</time>
      </trkpt>
      <trkpt lat="3.9049180" lon="-76.4477900">
        <ele>1482.0</ele>
        <time>2022-08-15T17:09:21Z</time>
      </trkpt>
      <trkpt lat="3.9048230" lon="-76.4475870">
        <ele>1480.4</ele>
        <time>2022-08-15T17:09:23Z</time>
      </trkpt>
      <trkpt lat="3.9046710" lon="-76.4473180">
        <ele>1479.2</ele>
        <time>2022-08-15T17:09:26Z</time>
      </trkpt>
      <trkpt lat="3.9046240" lon="-76.4472300">
        <ele>1478.4</ele>
        <time>2022-08-15T17:09:27Z</time>
      </trkpt>
      <trkpt lat="3.9045770" lon="-76.4471450">
        <ele>1478.0</ele>
        <time>2022-08-15T17:09:28Z</time>
      </trkpt>
      <trkpt lat="3.9043140" lon="-76.4466420">
        <ele>1477.2</ele>
        <time>2022-08-15T17:09:34Z</time>
      </trkpt>
      <trkpt lat="3.9042850" lon="-76.4465560">
        <ele>1477.2</ele>
        <time>2022-08-15T17:09:35Z</time>
      </trkpt>
      <trkpt lat="3.9042730" lon="-76.4463800">
        <ele>1477.2</ele>
        <time>2022-08-15T17:09:37Z</time>
      </trkpt>
      <trkpt lat="3.9043250" lon="-76.4462070">
        <ele>1477.0</ele>
        <time>2022-08-15T17:09:39Z</time>
      </trkpt>
      <trkpt lat="3.9043680" lon="-76.4461270">
        <ele>1477.0</ele>
        <time>2022-08-15T17:09:40Z</time>
      </trkpt>
      <trkpt lat="3.9044160" lon="-76.4460510">
        <ele>1477.0</ele>
        <time>2022-08-15T17:09:41Z</time>
      </trkpt>
      <trkpt lat="3.9047370" lon="-76.4456060">
        <ele>1476.2</ele>
        <time>2022-08-15T17:09:47Z</time>
      </trkpt>
      <trkpt lat="3.9047890" lon="-76.4455310">
        <ele>1476.0</ele>
        <time>2022-08-15T17:09:48Z</time>
      </trkpt>
      <trkpt lat="3.9049930" lon="-76.4452310">
        <ele>1475.4</ele>
        <time>2022-08-15T17:09:52Z</time>
      </trkpt>
      <trkpt lat="3.9050220" lon="-76.4451470">
        <ele>1475.2</ele>
        <time>2022-08-15T17:09:53Z</time>
      </trkpt>
      <trkpt lat="3.9050240" lon="-76.4450630">
        <ele>1475.2</ele>
        <time>2022-08-15T17:09:54Z</time>
      </trkpt>
      <trkpt lat="3.9050100" lon="-76.4449860">
        <ele>1475.0</ele>
        <time>2022-08-15T17:09:55Z</time>
      </trkpt>
      <trkpt lat="3.9049640" lon="-76.4449130">
        <ele>1474.6</ele>
        <time>2022-08-15T17:09:56Z</time>
      </trkpt>
      <trkpt lat="3.9047220" lon="-76.4446810">
        <ele>1474.0</ele>
        <time>2022-08-15T17:10:00Z</time>
      </trkpt>
      <trkpt lat="3.9046110" lon="-76.4445570">
        <ele>1473.8</ele>
        <time>2022-08-15T17:10:02Z</time>
      </trkpt>
      <trkpt lat="3.9045490" lon="-76.4444050">
        <ele>1473.4</ele>
        <time>2022-08-15T17:10:04Z</time>
      </trkpt>
      <trkpt lat="3.9045500" lon="-76.4442390">
        <ele>1473.0</ele>
        <time>2022-08-15T17:10:06Z</time>
      </trkpt>
      <trkpt lat="3.9045680" lon="-76.4441570">
        <ele>1473.0</ele>
        <time>2022-08-15T17:10:07Z</time>
      </trkpt>
      <trkpt lat="3.9045960" lon="-76.4440760">
        <ele>1472.8</ele>
        <time>2022-08-15T17:10:08Z</time>
      </trkpt>
      <trkpt lat="3.9047650" lon="-76.4436690">
        <ele>1472.6</ele>
        <time>2022-08-15T17:10:13Z</time>
      </trkpt>
      <trkpt lat="3.9049290" lon="-76.4432440">
        <ele>1472.6</ele>
        <time>2022-08-15T17:10:19Z</time>
      </trkpt>
      <trkpt lat="3.9049890" lon="-76.4430050">
        <ele>1472.6</ele>
        <time>2022-08-15T17:10:23Z</time>
      </trkpt>
      <trkpt lat="3.9049910" lon="-76.4429500">
        <ele>1472.8</ele>
        <time>2022-08-15T17:10:24Z</time>
      </trkpt>
      <trkpt lat="3.9049910" lon="-76.4427440">
        <ele>1474.2</ele>
        <time>2022-08-15T17:10:28Z</time>
      </trkpt>
      <trkpt lat="3.9049930" lon="-76.4426500">
        <ele>1475.2</ele>
        <time>2022-08-15T17:10:30Z</time>
      </trkpt>
      <trkpt lat="3.9049920" lon="-76.4426060">
        <ele>1475.6</ele>
        <time>2022-08-15T17:10:31Z</time>
      </trkpt>
      <trkpt lat="3.9049930" lon="-76.4424390">
        <ele>1476.8</ele>
        <time>2022-08-15T17:10:35Z</time>
      </trkpt>
      <trkpt lat="3.9049930" lon="-76.4423650">
        <ele>1477.4</ele>
        <time>2022-08-15T17:10:37Z</time>
      </trkpt>
      <trkpt lat="3.9049940" lon="-76.4422640">
        <ele>1478.0</ele>
        <time>2022-08-15T17:10:40Z</time>
      </trkpt>
      <trkpt lat="3.9049940" lon="-76.4421630">
        <ele>1479.0</ele>
        <time>2022-08-15T17:10:43Z</time>
      </trkpt>
      <trkpt lat="3.9049990" lon="-76.4421280">
        <ele>1479.2</ele>
        <time>2022-08-15T17:10:44Z</time>
      </trkpt>
      <trkpt lat="3.9050360" lon="-76.4420050">
        <ele>1480.4</ele>
        <time>2022-08-15T17:10:48Z</time>
      </trkpt>
      <trkpt lat="3.9050570" lon="-76.4419450">
        <ele>1481.2</ele>
        <time>2022-08-15T17:10:50Z</time>
      </trkpt>
      <trkpt lat="3.9051080" lon="-76.4418620">
        <ele>1481.8</ele>
        <time>2022-08-15T17:10:53Z</time>
      </trkpt>
      <trkpt lat="3.9051820" lon="-76.4417450">
        <ele>1482.8</ele>
        <time>2022-08-15T17:10:57Z</time>
      </trkpt>
      <trkpt lat="3.9053500" lon="-76.4414750">
        <ele>1483.6</ele>
        <time>2022-08-15T17:11:04Z</time>
      </trkpt>
      <trkpt lat="3.9054770" lon="-76.4412380">
        <ele>1483.6</ele>
        <time>2022-08-15T17:11:08Z</time>
      </trkpt>
      <trkpt lat="3.9055010" lon="-76.4411650">
        <ele>1483.6</ele>
        <time>2022-08-15T17:11:09Z</time>
      </trkpt>
      <trkpt lat="3.9055110" lon="-76.4410860">
        <ele>1483.6</ele>
        <time>2022-08-15T17:11:10Z</time>
      </trkpt>
      <trkpt lat="3.9054970" lon="-76.4409110">
        <ele>1483.6</ele>
        <time>2022-08-15T17:11:12Z</time>
      </trkpt>
      <trkpt lat="3.9054370" lon="-76.4404010">
        <ele>1482.2</ele>
        <time>2022-08-15T17:11:17Z</time>
      </trkpt>
      <trkpt lat="3.9054260" lon="-76.4402900">
        <ele>1481.6</ele>
        <time>2022-08-15T17:11:18Z</time>
      </trkpt>
      <trkpt lat="3.9054060" lon="-76.4400600">
        <ele>1480.2</ele>
        <time>2022-08-15T17:11:20Z</time>
      </trkpt>
      <trkpt lat="3.9053720" lon="-76.4398300">
        <ele>1478.2</ele>
        <time>2022-08-15T17:11:22Z</time>
      </trkpt>
      <trkpt lat="3.9053370" lon="-76.4397270">
        <ele>1477.2</ele>
        <time>2022-08-15T17:11:23Z</time>
      </trkpt>
      <trkpt lat="3.9052820" lon="-76.4396440">
        <ele>1476.4</ele>
        <time>2022-08-15T17:11:24Z</time>
      </trkpt>
      <trkpt lat="3.9052140" lon="-76.4395850">
        <ele>1475.4</ele>
        <time>2022-08-15T17:11:25Z</time>
      </trkpt>
      <trkpt lat="3.9051330" lon="-76.4395350">
        <ele>1473.8</ele>
        <time>2022-08-15T17:11:26Z</time>
      </trkpt>
      <trkpt lat="3.9050420" lon="-76.4394920">
        <ele>1472.4</ele>
        <time>2022-08-15T17:11:27Z</time>
      </trkpt>
      <trkpt lat="3.9049350" lon="-76.4394820">
        <ele>1471.2</ele>
        <time>2022-08-15T17:11:28Z</time>
      </trkpt>
      <trkpt lat="3.9047100" lon="-76.4394780">
        <ele>1470.0</ele>
        <time>2022-08-15T17:11:30Z</time>
      </trkpt>
      <trkpt lat="3.9044930" lon="-76.4394860">
        <ele>1468.6</ele>
        <time>2022-08-15T17:11:32Z</time>
      </trkpt>
      <trkpt lat="3.9043900" lon="-76.4395080">
        <ele>1467.6</ele>
        <time>2022-08-15T17:11:33Z</time>
      </trkpt>
      <trkpt lat="3.9043120" lon="-76.4395410">
        <ele>1466.8</ele>
        <time>2022-08-15T17:11:34Z</time>
      </trkpt>
      <trkpt lat="3.9041670" lon="-76.4396840">
        <ele>1465.8</ele>
        <time>2022-08-15T17:11:36Z</time>
      </trkpt>
      <trkpt lat="3.9041260" lon="-76.4397600">
        <ele>1465.6</ele>
        <time>2022-08-15T17:11:37Z</time>
      </trkpt>
      <trkpt lat="3.9040680" lon="-76.4399250">
        <ele>1465.6</ele>
        <time>2022-08-15T17:11:39Z</time>
      </trkpt>
      <trkpt lat="3.9039430" lon="-76.4403670">
        <ele>1465.6</ele>
        <time>2022-08-15T17:11:45Z</time>
      </trkpt>
      <trkpt lat="3.9038670" lon="-76.4406400">
        <ele>1467.0</ele>
        <time>2022-08-15T17:11:49Z</time>
      </trkpt>
      <trkpt lat="3.9038340" lon="-76.4407770">
        <ele>1467.6</ele>
        <time>2022-08-15T17:11:51Z</time>
      </trkpt>
      <trkpt lat="3.9038000" lon="-76.4409030">
        <ele>1468.2</ele>
        <time>2022-08-15T17:11:53Z</time>
      </trkpt>
      <trkpt lat="3.9037320" lon="-76.4410810">
        <ele>1468.8</ele>
        <time>2022-08-15T17:11:56Z</time>
      </trkpt>
      <trkpt lat="3.9036980" lon="-76.4411330">
        <ele>1468.8</ele>
        <time>2022-08-15T17:11:57Z</time>
      </trkpt>
      <trkpt lat="3.9036610" lon="-76.4411800">
        <ele>1468.8</ele>
        <time>2022-08-15T17:11:58Z</time>
      </trkpt>
      <trkpt lat="3.9035600" lon="-76.4412380">
        <ele>1468.8</ele>
        <time>2022-08-15T17:12:00Z</time>
      </trkpt>
      <trkpt lat="3.9034390" lon="-76.4412450">
        <ele>1469.0</ele>
        <time>2022-08-15T17:12:02Z</time>
      </trkpt>
      <trkpt lat="3.9033780" lon="-76.4412340">
        <ele>1469.0</ele>
        <time>2022-08-15T17:12:03Z</time>
      </trkpt>
      <trkpt lat="3.9032660" lon="-76.4412020">
        <ele>1469.4</ele>
        <time>2022-08-15T17:12:05Z</time>
      </trkpt>
      <trkpt lat="3.9031060" lon="-76.4411400">
        <ele>1469.6</ele>
        <time>2022-08-15T17:12:08Z</time>
      </trkpt>
      <trkpt lat="3.9030500" lon="-76.4411290">
        <ele>1469.6</ele>
        <time>2022-08-15T17:12:09Z</time>
      </trkpt>
      <trkpt lat="3.9029430" lon="-76.4411440">
        <ele>1469.8</ele>
        <time>2022-08-15T17:12:11Z</time>
      </trkpt>
      <trkpt lat="3.9028400" lon="-76.4411930">
        <ele>1470.0</ele>
        <time>2022-08-15T17:12:13Z</time>
      </trkpt>
      <trkpt lat="3.9027540" lon="-76.4412620">
        <ele>1470.4</ele>
        <time>2022-08-15T17:12:15Z</time>
      </trkpt>
      <trkpt lat="3.9027140" lon="-76.4412950">
        <ele>1470.4</ele>
        <time>2022-08-15T17:12:16Z</time>
      </trkpt>
      <trkpt lat="3.9024720" lon="-76.4414470">
        <ele>1471.6</ele>
        <time>2022-08-15T17:12:22Z</time>
      </trkpt>
      <trkpt lat="3.9023820" lon="-76.4414690">
        <ele>1472.2</ele>
        <time>2022-08-15T17:12:24Z</time>
      </trkpt>
      <trkpt lat="3.9022410" lon="-76.4414600">
        <ele>1472.8</ele>
        <time>2022-08-15T17:12:27Z</time>
      </trkpt>
      <trkpt lat="3.9021970" lon="-76.4414480">
        <ele>1473.0</ele>
        <time>2022-08-15T17:12:28Z</time>
      </trkpt>
      <trkpt lat="3.9019880" lon="-76.4413950">
        <ele>1474.0</ele>
        <time>2022-08-15T17:12:33Z</time>
      </trkpt>
      <trkpt lat="3.9019440" lon="-76.4413860">
        <ele>1474.0</ele>
        <time>2022-08-15T17:12:34Z</time>
      </trkpt>
      <trkpt lat="3.9018450" lon="-76.4413770">
        <ele>1474.4</ele>
        <time>2022-08-15T17:12:36Z</time>
      </trkpt>
      <trkpt lat="3.9017080" lon="-76.4414000">
        <ele>1475.0</ele>
        <time>2022-08-15T17:12:39Z</time>
      </trkpt>
      <trkpt lat="3.9016640" lon="-76.4414160">
        <ele>1475.0</ele>
        <time>2022-08-15T17:12:40Z</time>
      </trkpt>
      <trkpt lat="3.9016230" lon="-76.4414350">
        <ele>1475.2</ele>
        <time>2022-08-15T17:12:41Z</time>
      </trkpt>
      <trkpt lat="3.9015450" lon="-76.4414680">
        <ele>1475.6</ele>
        <time>2022-08-15T17:12:43Z</time>
      </trkpt>
      <trkpt lat="3.9015030" lon="-76.4414810">
        <ele>1475.8</ele>
        <time>2022-08-15T17:12:44Z</time>
      </trkpt>
      <trkpt lat="3.9013850" lon="-76.4415350">
        <ele>1476.2</ele>
        <time>2022-08-15T17:12:47Z</time>
      </trkpt>
      <trkpt lat="3.9013090" lon="-76.4415760">
        <ele>1476.4</ele>
        <time>2022-08-15T17:12:49Z</time>
      </trkpt>
      <trkpt lat="3.9011910" lon="-76.4416300">
        <ele>1477.0</ele>
        <time>2022-08-15T17:12:52Z</time>
      </trkpt>
      <trkpt lat="3.9011550" lon="-76.4416490">
        <ele>1477.2</ele>
        <time>2022-08-15T17:12:53Z</time>
      </trkpt>
      <trkpt lat="3.9010890" lon="-76.4416890">
        <ele>1477.4</ele>
        <time>2022-08-15T17:12:55Z</time>
      </trkpt>
      <trkpt lat="3.9010270" lon="-76.4417300">
        <ele>1477.6</ele>
        <time>2022-08-15T17:12:57Z</time>
      </trkpt>
      <trkpt lat="3.9008650" lon="-76.4417890">
        <ele>1478.6</ele>
        <time>2022-08-15T17:13:02Z</time>
      </trkpt>
      <trkpt lat="3.9008340" lon="-76.4418070">
        <ele>1478.6</ele>
        <time>2022-08-15T17:13:03Z</time>
      </trkpt>
      <trkpt lat="3.9006810" lon="-76.4418830">
        <ele>1479.8</ele>
        <time>2022-08-15T17:13:08Z</time>
      </trkpt>
      <trkpt lat="3.9006130" lon="-76.4419060">
        <ele>1480.2</ele>
        <time>2022-08-15T17:13:10Z</time>
      </trkpt>
      <trkpt lat="3.9005100" lon="-76.4419280">
        <ele>1480.8</ele>
        <time>2022-08-15T17:13:13Z</time>
      </trkpt>
      <trkpt lat="3.9003620" lon="-76.4419350">
        <ele>1481.8</ele>
        <time>2022-08-15T17:13:17Z</time>
      </trkpt>
      <trkpt lat="3.9003260" lon="-76.4419360">
        <ele>1482.2</ele>
        <time>2022-08-15T17:13:18Z</time>
      </trkpt>
      <trkpt lat="3.9001740" lon="-76.4419090">
        <ele>1483.0</ele>
        <time>2022-08-15T17:13:22Z</time>
      </trkpt>
      <trkpt lat="3.9000480" lon="-76.4418620">
        <ele>1483.6</ele>
        <time>2022-08-15T17:13:25Z</time>
      </trkpt>
      <trkpt lat="3.8999670" lon="-76.4418140">
        <ele>1484.4</ele>
        <time>2022-08-15T17:13:27Z</time>
      </trkpt>
      <trkpt lat="3.8999270" lon="-76.4417860">
        <ele>1484.6</ele>
        <time>2022-08-15T17:13:28Z</time>
      </trkpt>
      <trkpt lat="3.8998110" lon="-76.4416780">
        <ele>1484.8</ele>
        <time>2022-08-15T17:13:31Z</time>
      </trkpt>
      <trkpt lat="3.8995650" lon="-76.4413740">
        <ele>1484.8</ele>
        <time>2022-08-15T17:13:38Z</time>
      </trkpt>
      <trkpt lat="3.8993550" lon="-76.4411730">
        <ele>1484.8</ele>
        <time>2022-08-15T17:13:43Z</time>
      </trkpt>
      <trkpt lat="3.8993050" lon="-76.4411420">
        <ele>1484.8</ele>
        <time>2022-08-15T17:13:44Z</time>
      </trkpt>
      <trkpt lat="3.8988220" lon="-76.4408940">
        <ele>1485.0</ele>
        <time>2022-08-15T17:13:54Z</time>
      </trkpt>
      <trkpt lat="3.8987760" lon="-76.4408720">
        <ele>1485.2</ele>
        <time>2022-08-15T17:13:55Z</time>
      </trkpt>
      <trkpt lat="3.8986890" lon="-76.4408170">
        <ele>1485.4</ele>
        <time>2022-08-15T17:13:57Z</time>
      </trkpt>
      <trkpt lat="3.8986490" lon="-76.4407850">
        <ele>1485.6</ele>
        <time>2022-08-15T17:13:58Z</time>
      </trkpt>
      <trkpt lat="3.8985490" lon="-76.4406780">
        <ele>1486.0</ele>
        <time>2022-08-15T17:14:01Z</time>
      </trkpt>
      <trkpt lat="3.8984720" lon="-76.4405880">
        <ele>1486.4</ele>
        <time>2022-08-15T17:14:03Z</time>
      </trkpt>
      <trkpt lat="3.8981750" lon="-76.4402550">
        <ele>1487.6</ele>
        <time>2022-08-15T17:14:11Z</time>
      </trkpt>
      <trkpt lat="3.8978950" lon="-76.4399630">
        <ele>1487.8</ele>
        <time>2022-08-15T17:14:17Z</time>
      </trkpt>
      <trkpt lat="3.8974760" lon="-76.4395160">
        <ele>1487.2</ele>
        <time>2022-08-15T17:14:25Z</time>
      </trkpt>
      <trkpt lat="3.8973950" lon="-76.4394570">
        <ele>1486.8</ele>
        <time>2022-08-15T17:14:26Z</time>
      </trkpt>
      <trkpt lat="3.8973150" lon="-76.4394280">
        <ele>1486.4</ele>
        <time>2022-08-15T17:14:27Z</time>
      </trkpt>
      <trkpt lat="3.8972360" lon="-76.4394230">
        <ele>1486.4</ele>
        <time>2022-08-15T17:14:28Z</time>
      </trkpt>
      <trkpt lat="3.8971200" lon="-76.4395070">
        <ele>1485.6</ele>
        <time>2022-08-15T17:14:30Z</time>
      </trkpt>
      <trkpt lat="3.8971020" lon="-76.4396370">
        <ele>1485.4</ele>
        <time>2022-08-15T17:14:32Z</time>
      </trkpt>
      <trkpt lat="3.8971010" lon="-76.4397750">
        <ele>1485.4</ele>
        <time>2022-08-15T17:14:35Z</time>
      </trkpt>
      <trkpt lat="3.8971070" lon="-76.4398170">
        <ele>1485.4</ele>
        <time>2022-08-15T17:14:36Z</time>
      </trkpt>
      <trkpt lat="3.8971010" lon="-76.4399690">
        <ele>1485.6</ele>
        <time>2022-08-15T17:14:41Z</time>
      </trkpt>
      <trkpt lat="3.8970920" lon="-76.4400300">
        <ele>1487.2</ele>
        <time>2022-08-15T17:14:43Z</time>
      </trkpt>
      <trkpt lat="3.8970800" lon="-76.4400940">
        <ele>1488.8</ele>
        <time>2022-08-15T17:14:45Z</time>
      </trkpt>
      <trkpt lat="3.8970660" lon="-76.4401750">
        <ele>1489.6</ele>
        <time>2022-08-15T17:14:47Z</time>
      </trkpt>
      <trkpt lat="3.8970580" lon="-76.4402050">
        <ele>1490.2</ele>
        <time>2022-08-15T17:14:48Z</time>
      </trkpt>
      <trkpt lat="3.8970230" lon="-76.4402710">
        <ele>1491.2</ele>
        <time>2022-08-15T17:14:51Z</time>
      </trkpt>
      <trkpt lat="3.8969790" lon="-76.4402990">
        <ele>1491.8</ele>
        <time>2022-08-15T17:14:53Z</time>
      </trkpt>
      <trkpt lat="3.8969410" lon="-76.4403360">
        <ele>1492.4</ele>
        <time>2022-08-15T17:14:55Z</time>
      </trkpt>
      <trkpt lat="3.8968480" lon="-76.4403800">
        <ele>1493.4</ele>
        <time>2022-08-15T17:14:59Z</time>
      </trkpt>
      <trkpt lat="3.8967160" lon="-76.4404200">
        <ele>1494.4</ele>
        <time>2022-08-15T17:15:04Z</time>
      </trkpt>
      <trkpt lat="3.8966200" lon="-76.4404450">
        <ele>1495.2</ele>
        <time>2022-08-15T17:15:08Z</time>
      </trkpt>
      <trkpt lat="3.8965780" lon="-76.4404560">
        <ele>1496.0</ele>
        <time>2022-08-15T17:15:10Z</time>
      </trkpt>
      <trkpt lat="3.8964550" lon="-76.4404840">
        <ele>1497.2</ele>
        <time>2022-08-15T17:15:15Z</time>
      </trkpt>
      <trkpt lat="3.8964310" lon="-76.4404900">
        <ele>1497.6</ele>
        <time>2022-08-15T17:15:16Z</time>
      </trkpt>
      <trkpt lat="3.8963370" lon="-76.4405010">
        <ele>1498.4</ele>
        <time>2022-08-15T17:15:20Z</time>
      </trkpt>
      <trkpt lat="3.8962410" lon="-76.4405110">
        <ele>1499.4</ele>
        <time>2022-08-15T17:15:24Z</time>
      </trkpt>
      <trkpt lat="3.8962010" lon="-76.4405150">
        <ele>1500.0</ele>
        <time>2022-08-15T17:15:26Z</time>
      </trkpt>
      <trkpt lat="3.8961370" lon="-76.4405180">
        <ele>1500.4</ele>
        <time>2022-08-15T17:15:29Z</time>
      </trkpt>
      <trkpt lat="3.8960290" lon="-76.4405100">
        <ele>1501.4</ele>
        <time>2022-08-15T17:15:34Z</time>
      </trkpt>
      <trkpt lat="3.8960110" lon="-76.4405080">
        <ele>1501.8</ele>
        <time>2022-08-15T17:15:35Z</time>
      </trkpt>
      <trkpt lat="3.8959020" lon="-76.4405000">
        <ele>1502.8</ele>
        <time>2022-08-15T17:15:40Z</time>
      </trkpt>
      <trkpt lat="3.8958100" lon="-76.4404820">
        <ele>1503.6</ele>
        <time>2022-08-15T17:15:44Z</time>
      </trkpt>
      <trkpt lat="3.8957940" lon="-76.4404790">
        <ele>1504.0</ele>
        <time>2022-08-15T17:15:45Z</time>
      </trkpt>
      <trkpt lat="3.8957020" lon="-76.4404550">
        <ele>1505.0</ele>
        <time>2022-08-15T17:15:49Z</time>
      </trkpt>
      <trkpt lat="3.8956060" lon="-76.4404250">
        <ele>1506.2</ele>
        <time>2022-08-15T17:15:53Z</time>
      </trkpt>
      <trkpt lat="3.8955840" lon="-76.4404210">
        <ele>1506.4</ele>
        <time>2022-08-15T17:15:54Z</time>
      </trkpt>
      <trkpt lat="3.8954510" lon="-76.4403840">
        <ele>1507.4</ele>
        <time>2022-08-15T17:16:00Z</time>
      </trkpt>
      <trkpt lat="3.8954010" lon="-76.4403630">
        <ele>1507.8</ele>
        <time>2022-08-15T17:16:02Z</time>
      </trkpt>
      <trkpt lat="3.8953400" lon="-76.4403400">
        <ele>1508.6</ele>
        <time>2022-08-15T17:16:05Z</time>
      </trkpt>
      <trkpt lat="3.8952550" lon="-76.4403120">
        <ele>1509.6</ele>
        <time>2022-08-15T17:16:09Z</time>
      </trkpt>
      <trkpt lat="3.8952210" lon="-76.4403030">
        <ele>1510.2</ele>
        <time>2022-08-15T17:16:11Z</time>
      </trkpt>
      <trkpt lat="3.8951750" lon="-76.4402890">
        <ele>1510.8</ele>
        <time>2022-08-15T17:16:13Z</time>
      </trkpt>
      <trkpt lat="3.8950670" lon="-76.4402540">
        <ele>1512.0</ele>
        <time>2022-08-15T17:16:18Z</time>
      </trkpt>
      <trkpt lat="3.8950240" lon="-76.4402430">
        <ele>1512.4</ele>
        <time>2022-08-15T17:16:20Z</time>
      </trkpt>
      <trkpt lat="3.8949180" lon="-76.4402080">
        <ele>1513.2</ele>
        <time>2022-08-15T17:16:25Z</time>
      </trkpt>
      <trkpt lat="3.8948300" lon="-76.4401600">
        <ele>1514.2</ele>
        <time>2022-08-15T17:16:29Z</time>
      </trkpt>
      <trkpt lat="3.8948130" lon="-76.4401490">
        <ele>1514.4</ele>
        <time>2022-08-15T17:16:30Z</time>
      </trkpt>
      <trkpt lat="3.8947310" lon="-76.4400840">
        <ele>1515.6</ele>
        <time>2022-08-15T17:16:34Z</time>
      </trkpt>
      <trkpt lat="3.8946590" lon="-76.4400110">
        <ele>1516.4</ele>
        <time>2022-08-15T17:16:38Z</time>
      </trkpt>
      <trkpt lat="3.8946390" lon="-76.4399930">
        <ele>1516.6</ele>
        <time>2022-08-15T17:16:39Z</time>
      </trkpt>
      <trkpt lat="3.8945100" lon="-76.4399110">
        <ele>1517.8</ele>
        <time>2022-08-15T17:16:45Z</time>
      </trkpt>
      <trkpt lat="3.8944850" lon="-76.4399030">
        <ele>1518.0</ele>
        <time>2022-08-15T17:16:46Z</time>
      </trkpt>
      <trkpt lat="3.8943500" lon="-76.4398850">
        <ele>1518.6</ele>
        <time>2022-08-15T17:16:51Z</time>
      </trkpt>
      <trkpt lat="3.8943180" lon="-76.4398870">
        <ele>1518.8</ele>
        <time>2022-08-15T17:16:52Z</time>
      </trkpt>
      <trkpt lat="3.8942640" lon="-76.4398930">
        <ele>1519.2</ele>
        <time>2022-08-15T17:16:54Z</time>
      </trkpt>
      <trkpt lat="3.8941250" lon="-76.4399200">
        <ele>1520.0</ele>
        <time>2022-08-15T17:16:59Z</time>
      </trkpt>
      <trkpt lat="3.8939810" lon="-76.4399460">
        <ele>1521.0</ele>
        <time>2022-08-15T17:17:04Z</time>
      </trkpt>
      <trkpt lat="3.8937220" lon="-76.4399990">
        <ele>1522.2</ele>
        <time>2022-08-15T17:17:13Z</time>
      </trkpt>
      <trkpt lat="3.8936140" lon="-76.4400210">
        <ele>1522.8</ele>
        <time>2022-08-15T17:17:17Z</time>
      </trkpt>
      <trkpt lat="3.8935500" lon="-76.4400360">
        <ele>1523.2</ele>
        <time>2022-08-15T17:17:19Z</time>
      </trkpt>
      <trkpt lat="3.8934670" lon="-76.4400550">
        <ele>1523.4</ele>
        <time>2022-08-15T17:17:22Z</time>
      </trkpt>
      <trkpt lat="3.8933260" lon="-76.4400890">
        <ele>1524.4</ele>
        <time>2022-08-15T17:17:27Z</time>
      </trkpt>
      <trkpt lat="3.8931550" lon="-76.4401330">
        <ele>1525.4</ele>
        <time>2022-08-15T17:17:33Z</time>
      </trkpt>
      <trkpt lat="3.8931270" lon="-76.4401380">
        <ele>1525.6</ele>
        <time>2022-08-15T17:17:34Z</time>
      </trkpt>
      <trkpt lat="3.8929930" lon="-76.4401700">
        <ele>1526.4</ele>
        <time>2022-08-15T17:17:39Z</time>
      </trkpt>
      <trkpt lat="3.8928800" lon="-76.4401970">
        <ele>1527.4</ele>
        <time>2022-08-15T17:17:43Z</time>
      </trkpt>
      <trkpt lat="3.8928510" lon="-76.4402010">
        <ele>1527.6</ele>
        <time>2022-08-15T17:17:44Z</time>
      </trkpt>
      <trkpt lat="3.8926980" lon="-76.4402420">
        <ele>1528.4</ele>
        <time>2022-08-15T17:17:49Z</time>
      </trkpt>
      <trkpt lat="3.8926800" lon="-76.4402560">
        <ele>1528.6</ele>
        <time>2022-08-15T17:17:50Z</time>
      </trkpt>
      <trkpt lat="3.8925760" lon="-76.4403890">
        <ele>1529.4</ele>
        <time>2022-08-15T17:17:56Z</time>
      </trkpt>
      <trkpt lat="3.8925690" lon="-76.4404180">
        <ele>1529.6</ele>
        <time>2022-08-15T17:17:57Z</time>
      </trkpt>
      <trkpt lat="3.8925670" lon="-76.4405090">
        <ele>1530.4</ele>
        <time>2022-08-15T17:18:00Z</time>
      </trkpt>
      <trkpt lat="3.8925720" lon="-76.4406000">
        <ele>1530.8</ele>
        <time>2022-08-15T17:18:03Z</time>
      </trkpt>
      <trkpt lat="3.8925780" lon="-76.4406520">
        <ele>1531.6</ele>
        <time>2022-08-15T17:18:05Z</time>
      </trkpt>
      <trkpt lat="3.8925760" lon="-76.4406810">
        <ele>1531.8</ele>
        <time>2022-08-15T17:18:06Z</time>
      </trkpt>
      <trkpt lat="3.8925770" lon="-76.4408440">
        <ele>1533.2</ele>
        <time>2022-08-15T17:18:12Z</time>
      </trkpt>
      <trkpt lat="3.8925810" lon="-76.4409680">
        <ele>1534.2</ele>
        <time>2022-08-15T17:18:16Z</time>
      </trkpt>
      <trkpt lat="3.8925810" lon="-76.4410350">
        <ele>1534.6</ele>
        <time>2022-08-15T17:18:18Z</time>
      </trkpt>
      <trkpt lat="3.8925870" lon="-76.4411270">
        <ele>1535.2</ele>
        <time>2022-08-15T17:18:21Z</time>
      </trkpt>
      <trkpt lat="3.8926010" lon="-76.4413070">
        <ele>1536.4</ele>
        <time>2022-08-15T17:18:27Z</time>
      </trkpt>
      <trkpt lat="3.8926060" lon="-76.4413720">
        <ele>1536.4</ele>
        <time>2022-08-15T17:18:29Z</time>
      </trkpt>
      <trkpt lat="3.8926180" lon="-76.4414990">
        <ele>1537.6</ele>
        <time>2022-08-15T17:18:33Z</time>
      </trkpt>
      <trkpt lat="3.8926200" lon="-76.4416060">
        <ele>1538.6</ele>
        <time>2022-08-15T17:18:37Z</time>
      </trkpt>
      <trkpt lat="3.8926060" lon="-76.4417510">
        <ele>1539.8</ele>
        <time>2022-08-15T17:18:42Z</time>
      </trkpt>
      <trkpt lat="3.8925720" lon="-76.4418690">
        <ele>1540.4</ele>
        <time>2022-08-15T17:18:46Z</time>
      </trkpt>
      <trkpt lat="3.8925410" lon="-76.4419250">
        <ele>1540.8</ele>
        <time>2022-08-15T17:18:48Z</time>
      </trkpt>
      <trkpt lat="3.8924430" lon="-76.4420290">
        <ele>1541.4</ele>
        <time>2022-08-15T17:18:53Z</time>
      </trkpt>
      <trkpt lat="3.8923800" lon="-76.4420740">
        <ele>1542.0</ele>
        <time>2022-08-15T17:18:56Z</time>
      </trkpt>
      <trkpt lat="3.8922460" lon="-76.4421760">
        <ele>1543.2</ele>
        <time>2022-08-15T17:19:02Z</time>
      </trkpt>
      <trkpt lat="3.8921380" lon="-76.4422640">
        <ele>1544.2</ele>
        <time>2022-08-15T17:19:07Z</time>
      </trkpt>
      <trkpt lat="3.8920630" lon="-76.4423200">
        <ele>1544.6</ele>
        <time>2022-08-15T17:19:10Z</time>
      </trkpt>
      <trkpt lat="3.8919640" lon="-76.4423930">
        <ele>1545.4</ele>
        <time>2022-08-15T17:19:14Z</time>
      </trkpt>
      <trkpt lat="3.8918040" lon="-76.4425250">
        <ele>1546.6</ele>
        <time>2022-08-15T17:19:21Z</time>
      </trkpt>
      <trkpt lat="3.8917790" lon="-76.4425420">
        <ele>1546.6</ele>
        <time>2022-08-15T17:19:22Z</time>
      </trkpt>
      <trkpt lat="3.8916250" lon="-76.4426590">
        <ele>1547.0</ele>
        <time>2022-08-15T17:19:28Z</time>
      </trkpt>
      <trkpt lat="3.8915810" lon="-76.4427020">
        <ele>1547.2</ele>
        <time>2022-08-15T17:19:30Z</time>
      </trkpt>
      <trkpt lat="3.8915220" lon="-76.4427890">
        <ele>1547.6</ele>
        <time>2022-08-15T17:19:34Z</time>
      </trkpt>
      <trkpt lat="3.8915120" lon="-76.4428130">
        <ele>1547.8</ele>
        <time>2022-08-15T17:19:35Z</time>
      </trkpt>
      <trkpt lat="3.8914980" lon="-76.4429270">
        <ele>1548.6</ele>
        <time>2022-08-15T17:19:40Z</time>
      </trkpt>
      <trkpt lat="3.8914970" lon="-76.4429430">
        <ele>1548.8</ele>
        <time>2022-08-15T17:19:41Z</time>
      </trkpt>
      <trkpt lat="3.8915030" lon="-76.4429660">
        <ele>1549.0</ele>
        <time>2022-08-15T17:19:42Z</time>
      </trkpt>
      <trkpt lat="3.8915280" lon="-76.4430360">
        <ele>1549.4</ele>
        <time>2022-08-15T17:19:45Z</time>
      </trkpt>
      <trkpt lat="3.8915470" lon="-76.4430820">
        <ele>1550.0</ele>
        <time>2022-08-15T17:19:47Z</time>
      </trkpt>
      <trkpt lat="3.8915890" lon="-76.4431930">
        <ele>1551.2</ele>
        <time>2022-08-15T17:19:51Z</time>
      </trkpt>
      <trkpt lat="3.8915930" lon="-76.4432570">
        <ele>1551.8</ele>
        <time>2022-08-15T17:19:53Z</time>
      </trkpt>
      <trkpt lat="3.8915770" lon="-76.4433120">
        <ele>1552.2</ele>
        <time>2022-08-15T17:19:55Z</time>
      </trkpt>
      <trkpt lat="3.8915460" lon="-76.4433860">
        <ele>1552.8</ele>
        <time>2022-08-15T17:19:58Z</time>
      </trkpt>
      <trkpt lat="3.8914970" lon="-76.4434360">
        <ele>1553.4</ele>
        <time>2022-08-15T17:20:01Z</time>
      </trkpt>
      <trkpt lat="3.8914270" lon="-76.4435000">
        <ele>1554.4</ele>
        <time>2022-08-15T17:20:04Z</time>
      </trkpt>
      <trkpt lat="3.8913770" lon="-76.4435310">
        <ele>1554.8</ele>
        <time>2022-08-15T17:20:06Z</time>
      </trkpt>
      <trkpt lat="3.8913430" lon="-76.4435470">
        <ele>1555.2</ele>
        <time>2022-08-15T17:20:07Z</time>
      </trkpt>
      <trkpt lat="3.8912470" lon="-76.4435830">
        <ele>1556.0</ele>
        <time>2022-08-15T17:20:10Z</time>
      </trkpt>
      <trkpt lat="3.8912210" lon="-76.4435920">
        <ele>1556.0</ele>
        <time>2022-08-15T17:20:11Z</time>
      </trkpt>
      <trkpt lat="3.8909600" lon="-76.4436880">
        <ele>1557.2</ele>
        <time>2022-08-15T17:20:18Z</time>
      </trkpt>
      <trkpt lat="3.8909220" lon="-76.4437030">
        <ele>1557.4</ele>
        <time>2022-08-15T17:20:19Z</time>
      </trkpt>
      <trkpt lat="3.8907610" lon="-76.4437760">
        <ele>1558.0</ele>
        <time>2022-08-15T17:20:23Z</time>
      </trkpt>
      <trkpt lat="3.8907240" lon="-76.4438050">
        <ele>1558.2</ele>
        <time>2022-08-15T17:20:24Z</time>
      </trkpt>
      <trkpt lat="3.8906920" lon="-76.4438440">
        <ele>1558.4</ele>
        <time>2022-08-15T17:20:25Z</time>
      </trkpt>
      <trkpt lat="3.8906490" lon="-76.4439760">
        <ele>1558.4</ele>
        <time>2022-08-15T17:20:28Z</time>
      </trkpt>
      <trkpt lat="3.8906430" lon="-76.4440140">
        <ele>1558.4</ele>
        <time>2022-08-15T17:20:29Z</time>
      </trkpt>
      <trkpt lat="3.8906110" lon="-76.4441040">
        <ele>1558.4</ele>
        <time>2022-08-15T17:20:32Z</time>
      </trkpt>
      <trkpt lat="3.8905940" lon="-76.4441160">
        <ele>1558.4</ele>
        <time>2022-08-15T17:20:33Z</time>
      </trkpt>
      <trkpt lat="3.8905590" lon="-76.4441280">
        <ele>1558.6</ele>
        <time>2022-08-15T17:20:35Z</time>
      </trkpt>
      <trkpt lat="3.8905200" lon="-76.4441120">
        <ele>1558.6</ele>
        <time>2022-08-15T17:20:38Z</time>
      </trkpt>
      <trkpt lat="3.8904960" lon="-76.4440970">
        <ele>1558.6</ele>
        <time>2022-08-15T17:20:41Z</time>
      </trkpt>
      <trkpt lat="3.8904920" lon="-76.4440780">
        <ele>1558.6</ele>
        <time>2022-08-15T17:20:43Z</time>
      </trkpt>
      <trkpt lat="3.8904880" lon="-76.4440600">
        <ele>1558.6</ele>
        <time>2022-08-15T17:20:44Z</time>
      </trkpt>
      <trkpt lat="3.8904810" lon="-76.4439890">
        <ele>1559.4</ele>
        <time>2022-08-15T17:20:48Z</time>
      </trkpt>
      <trkpt lat="3.8904840" lon="-76.4439640">
        <ele>1559.8</ele>
        <time>2022-08-15T17:20:50Z</time>
      </trkpt>
      <trkpt lat="3.8904880" lon="-76.4439240">
        <ele>1560.4</ele>
        <time>2022-08-15T17:20:53Z</time>
      </trkpt>
      <trkpt lat="3.8905030" lon="-76.4438750">
        <ele>1561.6</ele>
        <time>2022-08-15T17:20:57Z</time>
      </trkpt>
      <trkpt lat="3.8905060" lon="-76.4438610">
        <ele>1562.0</ele>
        <time>2022-08-15T17:20:58Z</time>
      </trkpt>
      <trkpt lat="3.8905180" lon="-76.4438360">
        <ele>1562.8</ele>
        <time>2022-08-15T17:21:00Z</time>
      </trkpt>
      <trkpt lat="3.8905630" lon="-76.4437580">
        <ele>1564.0</ele>
        <time>2022-08-15T17:21:06Z</time>
      </trkpt>
      <trkpt lat="3.8905970" lon="-76.4437110">
        <ele>1565.0</ele>
        <time>2022-08-15T17:21:10Z</time>
      </trkpt>
      <trkpt lat="3.8906230" lon="-76.4436420">
        <ele>1566.0</ele>
        <time>2022-08-15T17:21:15Z</time>
      </trkpt>
      <trkpt lat="3.8906550" lon="-76.4435670">
        <ele>1567.2</ele>
        <time>2022-08-15T17:21:20Z</time>
      </trkpt>
      <trkpt lat="3.8906880" lon="-76.4435080">
        <ele>1568.0</ele>
        <time>2022-08-15T17:21:24Z</time>
      </trkpt>
      <trkpt lat="3.8907030" lon="-76.4434700">
        <ele>1568.4</ele>
        <time>2022-08-15T17:21:26Z</time>
      </trkpt>
      <trkpt lat="3.8907390" lon="-76.4434210">
        <ele>1569.0</ele>
        <time>2022-08-15T17:21:30Z</time>
      </trkpt>
      <trkpt lat="3.8907530" lon="-76.4433910">
        <ele>1569.4</ele>
        <time>2022-08-15T17:21:32Z</time>
      </trkpt>
      <trkpt lat="3.8907690" lon="-76.4433070">
        <ele>1570.6</ele>
        <time>2022-08-15T17:21:37Z</time>
      </trkpt>
      <trkpt lat="3.8907510" lon="-76.4432760">
        <ele>1571.0</ele>
        <time>2022-08-15T17:21:39Z</time>
      </trkpt>
      <trkpt lat="3.8907070" lon="-76.4432490">
        <ele>1571.6</ele>
        <time>2022-08-15T17:21:42Z</time>
      </trkpt>
      <trkpt lat="3.8906860" lon="-76.4432500">
        <ele>1572.0</ele>
        <time>2022-08-15T17:21:43Z</time>
      </trkpt>
      <trkpt lat="3.8906370" lon="-76.4432520">
        <ele>1572.4</ele>
        <time>2022-08-15T17:21:45Z</time>
      </trkpt>
      <trkpt lat="3.8905600" lon="-76.4432610">
        <ele>1573.2</ele>
        <time>2022-08-15T17:21:48Z</time>
      </trkpt>
      <trkpt lat="3.8904970" lon="-76.4432620">
        <ele>1573.4</ele>
        <time>2022-08-15T17:21:50Z</time>
      </trkpt>
      <trkpt lat="3.8902620" lon="-76.4432430">
        <ele>1573.8</ele>
        <time>2022-08-15T17:21:57Z</time>
      </trkpt>
      <trkpt lat="3.8901500" lon="-76.4432150">
        <ele>1574.2</ele>
        <time>2022-08-15T17:22:01Z</time>
      </trkpt>
      <trkpt lat="3.8900830" lon="-76.4431960">
        <ele>1574.6</ele>
        <time>2022-08-15T17:22:04Z</time>
      </trkpt>
      <trkpt lat="3.8899390" lon="-76.4431600">
        <ele>1575.4</ele>
        <time>2022-08-15T17:22:09Z</time>
      </trkpt>
      <trkpt lat="3.8899070" lon="-76.4431550">
        <ele>1575.6</ele>
        <time>2022-08-15T17:22:10Z</time>
      </trkpt>
      <trkpt lat="3.8896160" lon="-76.4431050">
        <ele>1576.0</ele>
        <time>2022-08-15T17:22:18Z</time>
      </trkpt>
      <trkpt lat="3.8893630" lon="-76.4430300">
        <ele>1576.2</ele>
        <time>2022-08-15T17:22:25Z</time>
      </trkpt>
      <trkpt lat="3.8891790" lon="-76.4429370">
        <ele>1576.4</ele>
        <time>2022-08-15T17:22:30Z</time>
      </trkpt>
      <trkpt lat="3.8891050" lon="-76.4428960">
        <ele>1576.6</ele>
        <time>2022-08-15T17:22:32Z</time>
      </trkpt>
      <trkpt lat="3.8890160" lon="-76.4427930">
        <ele>1576.8</ele>
        <time>2022-08-15T17:22:36Z</time>
      </trkpt>
      <trkpt lat="3.8889250" lon="-76.4426900">
        <ele>1577.0</ele>
        <time>2022-08-15T17:22:41Z</time>
      </trkpt>
      <trkpt lat="3.8888840" lon="-76.4426390">
        <ele>1577.4</ele>
        <time>2022-08-15T17:22:44Z</time>
      </trkpt>
      <trkpt lat="3.8888390" lon="-76.4425550">
        <ele>1578.2</ele>
        <time>2022-08-15T17:22:49Z</time>
      </trkpt>
      <trkpt lat="3.8888110" lon="-76.4425000">
        <ele>1578.8</ele>
        <time>2022-08-15T17:22:52Z</time>
      </trkpt>
      <trkpt lat="3.8887590" lon="-76.4423940">
        <ele>1579.8</ele>
        <time>2022-08-15T17:22:58Z</time>
      </trkpt>
      <trkpt lat="3.8887470" lon="-76.4422810">
        <ele>1581.0</ele>
        <time>2022-08-15T17:23:03Z</time>
      </trkpt>
      <trkpt lat="3.8887560" lon="-76.4422420">
        <ele>1581.4</ele>
        <time>2022-08-15T17:23:05Z</time>
      </trkpt>
      <trkpt lat="3.8887700" lon="-76.4422100">
        <ele>1582.0</ele>
        <time>2022-08-15T17:23:07Z</time>
      </trkpt>
      <trkpt lat="3.8888330" lon="-76.4421540">
        <ele>1583.0</ele>
        <time>2022-08-15T17:23:12Z</time>
      </trkpt>
      <trkpt lat="3.8888930" lon="-76.4420360">
        <ele>1584.4</ele>
        <time>2022-08-15T17:23:19Z</time>
      </trkpt>
      <trkpt lat="3.8888850" lon="-76.4418970">
        <ele>1585.4</ele>
        <time>2022-08-15T17:23:24Z</time>
      </trkpt>
      <trkpt lat="3.8889540" lon="-76.4417600">
        <ele>1586.4</ele>
        <time>2022-08-15T17:23:29Z</time>
      </trkpt>
      <trkpt lat="3.8889830" lon="-76.4417400">
        <ele>1586.6</ele>
        <time>2022-08-15T17:23:30Z</time>
      </trkpt>
      <trkpt lat="3.8891040" lon="-76.4417080">
        <ele>1587.0</ele>
        <time>2022-08-15T17:23:34Z</time>
      </trkpt>
      <trkpt lat="3.8892310" lon="-76.4416870">
        <ele>1587.6</ele>
        <time>2022-08-15T17:23:40Z</time>
      </trkpt>
      <trkpt lat="3.8893320" lon="-76.4416300">
        <ele>1588.4</ele>
        <time>2022-08-15T17:23:45Z</time>
      </trkpt>
      <trkpt lat="3.8893480" lon="-76.4416110">
        <ele>1588.6</ele>
        <time>2022-08-15T17:23:46Z</time>
      </trkpt>
      <trkpt lat="3.8893820" lon="-76.4415700">
        <ele>1588.6</ele>
        <time>2022-08-15T17:23:48Z</time>
      </trkpt>
      <trkpt lat="3.8894150" lon="-76.4414990">
        <ele>1588.8</ele>
        <time>2022-08-15T17:23:51Z</time>
      </trkpt>
      <trkpt lat="3.8894370" lon="-76.4414660">
        <ele>1589.0</ele>
        <time>2022-08-15T17:23:53Z</time>
      </trkpt>
      <trkpt lat="3.8894660" lon="-76.4414620">
        <ele>1589.2</ele>
        <time>2022-08-15T17:23:55Z</time>
      </trkpt>
      <trkpt lat="3.8895210" lon="-76.4414970">
        <ele>1589.4</ele>
        <time>2022-08-15T17:24:00Z</time>
      </trkpt>
      <trkpt lat="3.8895250" lon="-76.4415010">
        <ele>1589.4</ele>
        <time>2022-08-15T17:24:04Z</time>
      </trkpt>
      <trkpt lat="3.8895250" lon="-76.4415010">
        <ele>1589.4</ele>
        <time>2022-08-15T17:24:05Z</time>
      </trkpt>
      <trkpt lat="3.8895250" lon="-76.4415010">
        <ele>1589.2</ele>
        <time>2022-08-15T17:24:08Z</time>
      </trkpt>
      <trkpt lat="3.8895250" lon="-76.4415010">
        <ele>1589.0</ele>
        <time>2022-08-15T17:24:12Z</time>
      </trkpt>
      <trkpt lat="3.8895250" lon="-76.4415010">
        <ele>1589.0</ele>
        <time>2022-08-15T17:24:16Z</time>
      </trkpt>
      <trkpt lat="3.8895250" lon="-76.4415010">
        <ele>1589.0</ele>
        <time>2022-08-15T17:24:22Z</time>
      </trkpt>
      <trkpt lat="3.8895250" lon="-76.4415010">
        <ele>1589.0</ele>
        <time>2022-08-15T17:24:29Z</time>
      </trkpt>
      <trkpt lat="3.8895250" lon="-76.4415010">
        <ele>1589.0</ele>
        <time>2022-08-15T17:24:35Z</time>
      </trkpt>
      <trkpt lat="3.8895250" lon="-76.4415010">
        <ele>1589.0</ele>
        <time>2022-08-15T17:24:43Z</time>
      </trkpt>
      <trkpt lat="3.8895250" lon="-76.4415010">
        <ele>1589.0</ele>
        <time>2022-08-15T17:24:58Z</time>
      </trkpt>
    </trkseg>
  </trk>
</gpx>
